<?xml version="1.0" encoding="UTF-8"?>
<TrainingCenterDatabase xmlns="http://www.garmin.com/xmlschemas/TrainingCenterDatabase/v2" xmlns:xsi="http://www.w3.org/2001/XMLSchema-instance" xsi:schemaLocation="http://www.garmin.com/xmlschemas/TrainingCenterDatabase/v2 http://www.garmin.com/xmlschemas/TrainingCenterDatabasev2.xsd">
  <Activities>
    <Activity Sport="Other">
      <Id>2018-12-30T09:00:02.000Z</Id>
      <Lap StartTime="2018-12-30T09:00:02.000Z">
        <TotalTimeSeconds>17358</TotalTimeSeconds>
        <DistanceMeters>20990</DistanceMeters>
        <Track>
          <Trackpoint>
            <Time>2018-12-30T09:00:02.000Z</Time>
            <Position>
              <LatitudeDegrees>40.73682700283825397491455078125</LatitudeDegrees>
              <LongitudeDegrees>-4.06763392500579357147216796875</LongitudeDegrees>
            </Position>
            <AltitudeMeters>1143.4000244140625</AltitudeMeters>
            <DistanceMeters>0</DistanceMeters>
          </Trackpoint>
          <Trackpoint>
            <Time>2018-12-30T09:00:03.000Z</Time>
            <Position>
              <LatitudeDegrees>40.736813507974147796630859375</LatitudeDegrees>
              <LongitudeDegrees>-4.06765655614435672760009765625</LongitudeDegrees>
            </Position>
            <AltitudeMeters>1143.4000244140625</AltitudeMeters>
            <DistanceMeters>2.4282997998398</DistanceMeters>
          </Trackpoint>
          <Trackpoint>
            <Time>2018-12-30T09:00:04.000Z</Time>
            <Position>
              <LatitudeDegrees>40.736813507974147796630859375</LatitudeDegrees>
              <LongitudeDegrees>-4.06765655614435672760009765625</LongitudeDegrees>
            </Position>
            <AltitudeMeters>1143.199951171875</AltitudeMeters>
            <DistanceMeters>2.4282997998398</DistanceMeters>
          </Trackpoint>
          <Trackpoint>
            <Time>2018-12-30T09:00:05.000Z</Time>
            <Position>
              <LatitudeDegrees>40.7368036173284053802490234375</LatitudeDegrees>
              <LongitudeDegrees>-4.06767189502716064453125</LongitudeDegrees>
            </Position>
            <AltitudeMeters>1143.199951171875</AltitudeMeters>
            <DistanceMeters>4.125531188196</DistanceMeters>
          </Trackpoint>
          <Trackpoint>
            <Time>2018-12-30T09:00:06.000Z</Time>
            <Position>
              <LatitudeDegrees>40.736796073615550994873046875</LatitudeDegrees>
              <LongitudeDegrees>-4.0676851384341716766357421875</LongitudeDegrees>
            </Position>
            <AltitudeMeters>1143</AltitudeMeters>
            <DistanceMeters>5.522132961034</DistanceMeters>
          </Trackpoint>
          <Trackpoint>
            <Time>2018-12-30T09:00:07.000Z</Time>
            <Position>
              <LatitudeDegrees>40.7367881946265697479248046875</LatitudeDegrees>
              <LongitudeDegrees>-4.06770098023116588592529296875</LongitudeDegrees>
            </Position>
            <AltitudeMeters>1142.5999755859375</AltitudeMeters>
            <DistanceMeters>7.1235516165026</DistanceMeters>
          </Trackpoint>
          <Trackpoint>
            <Time>2018-12-30T09:00:08.000Z</Time>
            <Position>
              <LatitudeDegrees>40.73678056709468364715576171875</LatitudeDegrees>
              <LongitudeDegrees>-4.0677116252481937408447265625</LongitudeDegrees>
            </Position>
            <AltitudeMeters>1142.5999755859375</AltitudeMeters>
            <DistanceMeters>8.3588989033124</DistanceMeters>
          </Trackpoint>
          <Trackpoint>
            <Time>2018-12-30T09:00:09.000Z</Time>
            <Position>
              <LatitudeDegrees>40.73677201755344867706298828125</LatitudeDegrees>
              <LongitudeDegrees>-4.0677200071513652801513671875</LongitudeDegrees>
            </Position>
            <AltitudeMeters>1142.4000244140625</AltitudeMeters>
            <DistanceMeters>9.5457821853823</DistanceMeters>
          </Trackpoint>
          <Trackpoint>
            <Time>2018-12-30T09:00:10.000Z</Time>
            <Position>
              <LatitudeDegrees>40.73676849715411663055419921875</LatitudeDegrees>
              <LongitudeDegrees>-4.0677367709577083587646484375</LongitudeDegrees>
            </Position>
            <AltitudeMeters>1142.4000244140625</AltitudeMeters>
            <DistanceMeters>11.011782933561</DistanceMeters>
          </Trackpoint>
          <Trackpoint>
            <Time>2018-12-30T09:00:11.000Z</Time>
            <Position>
              <LatitudeDegrees>40.73676095344126224517822265625</LatitudeDegrees>
              <LongitudeDegrees>-4.06774322502315044403076171875</LongitudeDegrees>
            </Position>
            <AltitudeMeters>1142.4000244140625</AltitudeMeters>
            <DistanceMeters>12.008431521999</DistanceMeters>
          </Trackpoint>
          <Trackpoint>
            <Time>2018-12-30T09:00:12.000Z</Time>
            <Position>
              <LatitudeDegrees>40.73675550520420074462890625</LatitudeDegrees>
              <LongitudeDegrees>-4.0677510201930999755859375</LongitudeDegrees>
            </Position>
            <AltitudeMeters>1142.4000244140625</AltitudeMeters>
            <DistanceMeters>12.904911752407</DistanceMeters>
          </Trackpoint>
          <Trackpoint>
            <Time>2018-12-30T09:00:13.000Z</Time>
            <Position>
              <LatitudeDegrees>40.7367513142526149749755859375</LatitudeDegrees>
              <LongitudeDegrees>-4.0677588991820812225341796875</LongitudeDegrees>
            </Position>
            <AltitudeMeters>1142.199951171875</AltitudeMeters>
            <DistanceMeters>13.722362458476</DistanceMeters>
          </Trackpoint>
          <Trackpoint>
            <Time>2018-12-30T09:00:14.000Z</Time>
            <Position>
              <LatitudeDegrees>40.73674771003425121307373046875</LatitudeDegrees>
              <LongitudeDegrees>-4.06777222640812397003173828125</LongitudeDegrees>
            </Position>
            <AltitudeMeters>1142.199951171875</AltitudeMeters>
            <DistanceMeters>14.916829736447</DistanceMeters>
          </Trackpoint>
          <Trackpoint>
            <Time>2018-12-30T09:00:15.000Z</Time>
            <Position>
              <LatitudeDegrees>40.73674351908266544342041015625</LatitudeDegrees>
              <LongitudeDegrees>-4.06779150478541851043701171875</LongitudeDegrees>
            </Position>
            <AltitudeMeters>1142.199951171875</AltitudeMeters>
            <DistanceMeters>16.608732284685</DistanceMeters>
          </Trackpoint>
          <Trackpoint>
            <Time>2018-12-30T09:00:16.000Z</Time>
            <Position>
              <LatitudeDegrees>40.73673580773174762725830078125</LatitudeDegrees>
              <LongitudeDegrees>-4.06780541874468326568603515625</LongitudeDegrees>
            </Position>
            <AltitudeMeters>1142.199951171875</AltitudeMeters>
            <DistanceMeters>18.06236149734</DistanceMeters>
          </Trackpoint>
          <Trackpoint>
            <Time>2018-12-30T09:00:17.000Z</Time>
            <Position>
              <LatitudeDegrees>40.7367281801998615264892578125</LatitudeDegrees>
              <LongitudeDegrees>-4.067827127873897552490234375</LongitudeDegrees>
            </Position>
            <AltitudeMeters>1142.199951171875</AltitudeMeters>
            <DistanceMeters>20.082657157056</DistanceMeters>
          </Trackpoint>
          <Trackpoint>
            <Time>2018-12-30T09:00:18.000Z</Time>
            <Position>
              <LatitudeDegrees>40.73672323487699031829833984375</LatitudeDegrees>
              <LongitudeDegrees>-4.06784062273800373077392578125</LongitudeDegrees>
            </Position>
            <AltitudeMeters>1142.199951171875</AltitudeMeters>
            <DistanceMeters>21.350471657298</DistanceMeters>
          </Trackpoint>
          <Trackpoint>
            <Time>2018-12-30T09:00:19.000Z</Time>
            <Position>
              <LatitudeDegrees>40.73671468533575534820556640625</LatitudeDegrees>
              <LongitudeDegrees>-4.067851938307285308837890625</LongitudeDegrees>
            </Position>
            <AltitudeMeters>1142.4000244140625</AltitudeMeters>
            <DistanceMeters>22.701055028171</DistanceMeters>
          </Trackpoint>
          <Trackpoint>
            <Time>2018-12-30T09:00:20.000Z</Time>
            <Position>
              <LatitudeDegrees>40.73670663870871067047119140625</LatitudeDegrees>
              <LongitudeDegrees>-4.06785990111529827117919921875</LongitudeDegrees>
            </Position>
            <AltitudeMeters>1142.5999755859375</AltitudeMeters>
            <DistanceMeters>23.825426275649</DistanceMeters>
          </Trackpoint>
          <Trackpoint>
            <Time>2018-12-30T09:00:21.000Z</Time>
            <Position>
              <LatitudeDegrees>40.73669943027198314666748046875</LatitudeDegrees>
              <LongitudeDegrees>-4.06787029467523097991943359375</LongitudeDegrees>
            </Position>
            <AltitudeMeters>1142.5999755859375</AltitudeMeters>
            <DistanceMeters>25.012309557719</DistanceMeters>
          </Trackpoint>
          <Trackpoint>
            <Time>2018-12-30T09:00:22.000Z</Time>
            <Position>
              <LatitudeDegrees>40.736696161329746246337890625</LatitudeDegrees>
              <LongitudeDegrees>-4.06788672320544719696044921875</LongitudeDegrees>
            </Position>
            <AltitudeMeters>1142.5999755859375</AltitudeMeters>
            <DistanceMeters>26.440874318706</DistanceMeters>
          </Trackpoint>
          <Trackpoint>
            <Time>2018-12-30T09:00:23.000Z</Time>
            <Position>
              <LatitudeDegrees>40.73668668977916240692138671875</LatitudeDegrees>
              <LongitudeDegrees>-4.06789720058441162109375</LongitudeDegrees>
            </Position>
            <AltitudeMeters>1142.5999755859375</AltitudeMeters>
            <DistanceMeters>27.817942237593</DistanceMeters>
          </Trackpoint>
          <Trackpoint>
            <Time>2018-12-30T09:00:24.000Z</Time>
            <Position>
              <LatitudeDegrees>40.73667730204761028289794921875</LatitudeDegrees>
              <LongitudeDegrees>-4.06790499575436115264892578125</LongitudeDegrees>
            </Position>
            <AltitudeMeters>1142.4000244140625</AltitudeMeters>
            <DistanceMeters>29.056939007352</DistanceMeters>
          </Trackpoint>
          <Trackpoint>
            <Time>2018-12-30T09:00:25.000Z</Time>
            <Position>
              <LatitudeDegrees>40.7366664893925189971923828125</LatitudeDegrees>
              <LongitudeDegrees>-4.067910946905612945556640625</LongitudeDegrees>
            </Position>
            <AltitudeMeters>1142.199951171875</AltitudeMeters>
            <DistanceMeters>30.363340342282</DistanceMeters>
          </Trackpoint>
          <Trackpoint>
            <Time>2018-12-30T09:00:26.000Z</Time>
            <Position>
              <LatitudeDegrees>40.73665701784193515777587890625</LatitudeDegrees>
              <LongitudeDegrees>-4.06791220419108867645263671875</LongitudeDegrees>
            </Position>
            <AltitudeMeters>1142.199951171875</AltitudeMeters>
            <DistanceMeters>31.421513049854</DistanceMeters>
          </Trackpoint>
          <Trackpoint>
            <Time>2018-12-30T09:00:27.000Z</Time>
            <Position>
              <LatitudeDegrees>40.736648552119731903076171875</LatitudeDegrees>
              <LongitudeDegrees>-4.06792066991329193115234375</LongitudeDegrees>
            </Position>
            <AltitudeMeters>1142</AltitudeMeters>
            <DistanceMeters>32.604586102887</DistanceMeters>
          </Trackpoint>
          <Trackpoint>
            <Time>2018-12-30T09:00:28.000Z</Time>
            <Position>
              <LatitudeDegrees>40.73664159514009952545166015625</LatitudeDegrees>
              <LongitudeDegrees>-4.067927710711956024169921875</LongitudeDegrees>
            </Position>
            <AltitudeMeters>1142.199951171875</AltitudeMeters>
            <DistanceMeters>33.578320166487</DistanceMeters>
          </Trackpoint>
          <Trackpoint>
            <Time>2018-12-30T09:00:29.000Z</Time>
            <Position>
              <LatitudeDegrees>40.7366381585597991943359375</LatitudeDegrees>
              <LongitudeDegrees>-4.06793416477739810943603515625</LongitudeDegrees>
            </Position>
            <AltitudeMeters>1142.5999755859375</AltitudeMeters>
            <DistanceMeters>34.243507167077</DistanceMeters>
          </Trackpoint>
          <Trackpoint>
            <Time>2018-12-30T09:00:30.000Z</Time>
            <Position>
              <LatitudeDegrees>40.7366386614739894866943359375</LatitudeDegrees>
              <LongitudeDegrees>-4.0679429657757282257080078125</LongitudeDegrees>
            </Position>
            <AltitudeMeters>1142.800048828125</AltitudeMeters>
            <DistanceMeters>34.985689532188</DistanceMeters>
          </Trackpoint>
          <Trackpoint>
            <Time>2018-12-30T09:00:31.000Z</Time>
            <Position>
              <LatitudeDegrees>40.73663891293108463287353515625</LatitudeDegrees>
              <LongitudeDegrees>-4.0679577179253101348876953125</LongitudeDegrees>
            </Position>
            <AltitudeMeters>1143</AltitudeMeters>
            <DistanceMeters>36.231953207483</DistanceMeters>
          </Trackpoint>
          <Trackpoint>
            <Time>2018-12-30T09:00:32.000Z</Time>
            <Position>
              <LatitudeDegrees>40.73663773946464061737060546875</LatitudeDegrees>
              <LongitudeDegrees>-4.06796953640878200531005859375</LongitudeDegrees>
            </Position>
            <AltitudeMeters>1143.199951171875</AltitudeMeters>
            <DistanceMeters>37.237621424005</DistanceMeters>
          </Trackpoint>
          <Trackpoint>
            <Time>2018-12-30T09:00:33.000Z</Time>
            <Position>
              <LatitudeDegrees>40.736638493835926055908203125</LatitudeDegrees>
              <LongitudeDegrees>-4.067972637712955474853515625</LongitudeDegrees>
            </Position>
            <AltitudeMeters>1143.199951171875</AltitudeMeters>
            <DistanceMeters>37.506397560505</DistanceMeters>
          </Trackpoint>
          <Trackpoint>
            <Time>2018-12-30T09:00:34.000Z</Time>
            <Position>
              <LatitudeDegrees>40.7366408407688140869140625</LatitudeDegrees>
              <LongitudeDegrees>-4.06797205097973346710205078125</LongitudeDegrees>
            </Position>
            <AltitudeMeters>1143.199951171875</AltitudeMeters>
            <DistanceMeters>37.775173697004</DistanceMeters>
          </Trackpoint>
          <Trackpoint>
            <Time>2018-12-30T09:00:35.000Z</Time>
            <Position>
              <LatitudeDegrees>40.73664310388267040252685546875</LatitudeDegrees>
              <LongitudeDegrees>-4.06797188334167003631591796875</LongitudeDegrees>
            </Position>
            <AltitudeMeters>1143</AltitudeMeters>
            <DistanceMeters>38.043949833504</DistanceMeters>
          </Trackpoint>
          <Trackpoint>
            <Time>2018-12-30T09:00:36.000Z</Time>
            <Position>
              <LatitudeDegrees>40.73664419353008270263671875</LatitudeDegrees>
              <LongitudeDegrees>-4.067972637712955474853515625</LongitudeDegrees>
            </Position>
            <AltitudeMeters>1142.5999755859375</AltitudeMeters>
            <DistanceMeters>38.208540930869</DistanceMeters>
          </Trackpoint>
          <Trackpoint>
            <Time>2018-12-30T09:00:37.000Z</Time>
            <Position>
              <LatitudeDegrees>40.73664746247231960296630859375</LatitudeDegrees>
              <LongitudeDegrees>-4.06797431409358978271484375</LongitudeDegrees>
            </Position>
            <AltitudeMeters>1142.199951171875</AltitudeMeters>
            <DistanceMeters>38.588647788349</DistanceMeters>
          </Trackpoint>
          <Trackpoint>
            <Time>2018-12-30T09:00:38.000Z</Time>
            <Position>
              <LatitudeDegrees>40.7366502285003662109375</LatitudeDegrees>
              <LongitudeDegrees>-4.06797506846487522125244140625</LongitudeDegrees>
            </Position>
            <AltitudeMeters>1142</AltitudeMeters>
            <DistanceMeters>38.917829983079</DistanceMeters>
          </Trackpoint>
          <Trackpoint>
            <Time>2018-12-30T09:00:39.000Z</Time>
            <Position>
              <LatitudeDegrees>40.73664427734911441802978515625</LatitudeDegrees>
              <LongitudeDegrees>-4.06797339208424091339111328125</LongitudeDegrees>
            </Position>
            <AltitudeMeters>1141.800048828125</AltitudeMeters>
            <DistanceMeters>39.603077365479</DistanceMeters>
          </Trackpoint>
          <Trackpoint>
            <Time>2018-12-30T09:00:40.000Z</Time>
            <Position>
              <LatitudeDegrees>40.73663874529302120208740234375</LatitudeDegrees>
              <LongitudeDegrees>-4.0679738111793994903564453125</LongitudeDegrees>
            </Position>
            <AltitudeMeters>1141.800048828125</AltitudeMeters>
            <DistanceMeters>40.218920860733</DistanceMeters>
          </Trackpoint>
          <Trackpoint>
            <Time>2018-12-30T09:00:41.000Z</Time>
            <Position>
              <LatitudeDegrees>40.73663354851305484771728515625</LatitudeDegrees>
              <LongitudeDegrees>-4.06797523610293865203857421875</LongitudeDegrees>
            </Position>
            <AltitudeMeters>1141.800048828125</AltitudeMeters>
            <DistanceMeters>40.804704869451</DistanceMeters>
          </Trackpoint>
          <Trackpoint>
            <Time>2018-12-30T09:00:42.000Z</Time>
            <Position>
              <LatitudeDegrees>40.7366322912275791168212890625</LatitudeDegrees>
              <LongitudeDegrees>-4.0679848752915859222412109375</LongitudeDegrees>
            </Position>
            <AltitudeMeters>1141.800048828125</AltitudeMeters>
            <DistanceMeters>41.62215557552</DistanceMeters>
          </Trackpoint>
          <Trackpoint>
            <Time>2018-12-30T09:00:43.000Z</Time>
            <Position>
              <LatitudeDegrees>40.73663220740854740142822265625</LatitudeDegrees>
              <LongitudeDegrees>-4.0679942630231380462646484375</LongitudeDegrees>
            </Position>
            <AltitudeMeters>1142</AltitudeMeters>
            <DistanceMeters>42.417206109182</DistanceMeters>
          </Trackpoint>
          <Trackpoint>
            <Time>2018-12-30T09:00:44.000Z</Time>
            <Position>
              <LatitudeDegrees>40.7366339676082134246826171875</LatitudeDegrees>
              <LongitudeDegrees>-4.0680023096501827239990234375</LongitudeDegrees>
            </Position>
            <AltitudeMeters>1142</AltitudeMeters>
            <DistanceMeters>43.128320924709</DistanceMeters>
          </Trackpoint>
          <Trackpoint>
            <Time>2018-12-30T09:00:45.000Z</Time>
            <Position>
              <LatitudeDegrees>40.736636817455291748046875</LatitudeDegrees>
              <LongitudeDegrees>-4.06801245175302028656005859375</LongitudeDegrees>
            </Position>
            <AltitudeMeters>1142.199951171875</AltitudeMeters>
            <DistanceMeters>44.039785149374</DistanceMeters>
          </Trackpoint>
          <Trackpoint>
            <Time>2018-12-30T09:00:46.000Z</Time>
            <Position>
              <LatitudeDegrees>40.7366433553397655487060546875</LatitudeDegrees>
              <LongitudeDegrees>-4.06801831908524036407470703125</LongitudeDegrees>
            </Position>
            <AltitudeMeters>1142.4000244140625</AltitudeMeters>
            <DistanceMeters>44.915888167138</DistanceMeters>
          </Trackpoint>
          <Trackpoint>
            <Time>2018-12-30T09:00:47.000Z</Time>
            <Position>
              <LatitudeDegrees>40.73666187934577465057373046875</LatitudeDegrees>
              <LongitudeDegrees>-4.06802485696971416473388671875</LongitudeDegrees>
            </Position>
            <AltitudeMeters>1142.4000244140625</AltitudeMeters>
            <DistanceMeters>47.049232613718</DistanceMeters>
          </Trackpoint>
          <Trackpoint>
            <Time>2018-12-30T09:00:48.000Z</Time>
            <Position>
              <LatitudeDegrees>40.73670865036547183990478515625</LatitudeDegrees>
              <LongitudeDegrees>-4.0680291317403316497802734375</LongitudeDegrees>
            </Position>
            <AltitudeMeters>1142.800048828125</AltitudeMeters>
            <DistanceMeters>52.267921199461</DistanceMeters>
          </Trackpoint>
          <Trackpoint>
            <Time>2018-12-30T09:00:49.000Z</Time>
            <Position>
              <LatitudeDegrees>40.73673647828400135040283203125</LatitudeDegrees>
              <LongitudeDegrees>-4.0680308081209659576416015625</LongitudeDegrees>
            </Position>
            <AltitudeMeters>1142.800048828125</AltitudeMeters>
            <DistanceMeters>55.367598817596</DistanceMeters>
          </Trackpoint>
          <Trackpoint>
            <Time>2018-12-30T09:00:50.000Z</Time>
            <Position>
              <LatitudeDegrees>40.736753158271312713623046875</LatitudeDegrees>
              <LongitudeDegrees>-4.06803357414901256561279296875</LongitudeDegrees>
            </Position>
            <AltitudeMeters>1143</AltitudeMeters>
            <DistanceMeters>57.239408012</DistanceMeters>
          </Trackpoint>
          <Trackpoint>
            <Time>2018-12-30T09:00:51.000Z</Time>
            <Position>
              <LatitudeDegrees>40.73676799423992633819580078125</LatitudeDegrees>
              <LongitudeDegrees>-4.068035669624805450439453125</LongitudeDegrees>
            </Position>
            <AltitudeMeters>1143.199951171875</AltitudeMeters>
            <DistanceMeters>58.898978232089</DistanceMeters>
          </Trackpoint>
          <Trackpoint>
            <Time>2018-12-30T09:00:52.000Z</Time>
            <Position>
              <LatitudeDegrees>40.7367774657905101776123046875</LatitudeDegrees>
              <LongitudeDegrees>-4.06804279424250125885009765625</LongitudeDegrees>
            </Position>
            <AltitudeMeters>1143.199951171875</AltitudeMeters>
            <DistanceMeters>60.11219810514</DistanceMeters>
          </Trackpoint>
          <Trackpoint>
            <Time>2018-12-30T09:00:53.000Z</Time>
            <Position>
              <LatitudeDegrees>40.73678459040820598602294921875</LatitudeDegrees>
              <LongitudeDegrees>-4.0680492483079433441162109375</LongitudeDegrees>
            </Position>
            <AltitudeMeters>1143.199951171875</AltitudeMeters>
            <DistanceMeters>61.076613925068</DistanceMeters>
          </Trackpoint>
          <Trackpoint>
            <Time>2018-12-30T09:00:54.000Z</Time>
            <Position>
              <LatitudeDegrees>40.736786685883998870849609375</LatitudeDegrees>
              <LongitudeDegrees>-4.0680576302111148834228515625</LongitudeDegrees>
            </Position>
            <AltitudeMeters>1143.4000244140625</AltitudeMeters>
            <DistanceMeters>61.818796290178</DistanceMeters>
          </Trackpoint>
          <Trackpoint>
            <Time>2018-12-30T09:00:55.000Z</Time>
            <Position>
              <LatitudeDegrees>40.7367902062833309173583984375</LatitudeDegrees>
              <LongitudeDegrees>-4.06807062216103076934814453125</LongitudeDegrees>
            </Position>
            <AltitudeMeters>1143.5999755859375</AltitudeMeters>
            <DistanceMeters>62.982631100876</DistanceMeters>
          </Trackpoint>
          <Trackpoint>
            <Time>2018-12-30T09:00:56.000Z</Time>
            <Position>
              <LatitudeDegrees>40.736797414720058441162109375</LatitudeDegrees>
              <LongitudeDegrees>-4.06807917170226573944091796875</LongitudeDegrees>
            </Position>
            <AltitudeMeters>1144</AltitudeMeters>
            <DistanceMeters>64.057735646875</DistanceMeters>
          </Trackpoint>
          <Trackpoint>
            <Time>2018-12-30T09:00:57.000Z</Time>
            <Position>
              <LatitudeDegrees>40.73680068366229534149169921875</LatitudeDegrees>
              <LongitudeDegrees>-4.0680871345102787017822265625</LongitudeDegrees>
            </Position>
            <AltitudeMeters>1144.5999755859375</AltitudeMeters>
            <DistanceMeters>64.817949361835</DistanceMeters>
          </Trackpoint>
          <Trackpoint>
            <Time>2018-12-30T09:00:58.000Z</Time>
            <Position>
              <LatitudeDegrees>40.7368052937090396881103515625</LatitudeDegrees>
              <LongitudeDegrees>-4.0680908225476741790771484375</LongitudeDegrees>
            </Position>
            <AltitudeMeters>1144.800048828125</AltitudeMeters>
            <DistanceMeters>65.418951073777</DistanceMeters>
          </Trackpoint>
          <Trackpoint>
            <Time>2018-12-30T09:00:59.000Z</Time>
            <Position>
              <LatitudeDegrees>40.73680889792740345001220703125</LatitudeDegrees>
              <LongitudeDegrees>-4.06809794716536998748779296875</LongitudeDegrees>
            </Position>
            <AltitudeMeters>1145</AltitudeMeters>
            <DistanceMeters>66.142652969415</DistanceMeters>
          </Trackpoint>
          <Trackpoint>
            <Time>2018-12-30T09:01:00.000Z</Time>
            <Position>
              <LatitudeDegrees>40.73681409470736980438232421875</LatitudeDegrees>
              <LongitudeDegrees>-4.06810197047889232635498046875</LongitudeDegrees>
            </Position>
            <AltitudeMeters>1145.199951171875</AltitudeMeters>
            <DistanceMeters>66.814593310664</DistanceMeters>
          </Trackpoint>
          <Trackpoint>
            <Time>2018-12-30T09:01:01.000Z</Time>
            <Position>
              <LatitudeDegrees>40.7368197105824947357177734375</LatitudeDegrees>
              <LongitudeDegrees>-4.06810968182981014251708984375</LongitudeDegrees>
            </Position>
            <AltitudeMeters>1145.199951171875</AltitudeMeters>
            <DistanceMeters>67.716095878578</DistanceMeters>
          </Trackpoint>
          <Trackpoint>
            <Time>2018-12-30T09:01:02.000Z</Time>
            <Position>
              <LatitudeDegrees>40.73682566173374652862548828125</LatitudeDegrees>
              <LongitudeDegrees>-4.06811588443815708160400390625</LongitudeDegrees>
            </Position>
            <AltitudeMeters>1145.199951171875</AltitudeMeters>
            <DistanceMeters>68.555349095807</DistanceMeters>
          </Trackpoint>
          <Trackpoint>
            <Time>2018-12-30T09:01:03.000Z</Time>
            <Position>
              <LatitudeDegrees>40.7368341274559497833251953125</LatitudeDegrees>
              <LongitudeDegrees>-4.0681253559887409210205078125</LongitudeDegrees>
            </Position>
            <AltitudeMeters>1145.199951171875</AltitudeMeters>
            <DistanceMeters>69.787036086314</DistanceMeters>
          </Trackpoint>
          <Trackpoint>
            <Time>2018-12-30T09:01:04.000Z</Time>
            <Position>
              <LatitudeDegrees>40.736842341721057891845703125</LatitudeDegrees>
              <LongitudeDegrees>-4.06813616864383220672607421875</LongitudeDegrees>
            </Position>
            <AltitudeMeters>1145.4000244140625</AltitudeMeters>
            <DistanceMeters>71.076041154452</DistanceMeters>
          </Trackpoint>
          <Trackpoint>
            <Time>2018-12-30T09:01:05.000Z</Time>
            <Position>
              <LatitudeDegrees>40.736848376691341400146484375</LatitudeDegrees>
              <LongitudeDegrees>-4.06814731657505035400390625</LongitudeDegrees>
            </Position>
            <AltitudeMeters>1145.5999755859375</AltitudeMeters>
            <DistanceMeters>72.232091029547</DistanceMeters>
          </Trackpoint>
          <Trackpoint>
            <Time>2018-12-30T09:01:06.000Z</Time>
            <Position>
              <LatitudeDegrees>40.73685332201421260833740234375</LatitudeDegrees>
              <LongitudeDegrees>-4.068155698478221893310546875</LongitudeDegrees>
            </Position>
            <AltitudeMeters>1146</AltitudeMeters>
            <DistanceMeters>73.128571259954</DistanceMeters>
          </Trackpoint>
          <Trackpoint>
            <Time>2018-12-30T09:01:07.000Z</Time>
            <Position>
              <LatitudeDegrees>40.73685801587998867034912109375</LatitudeDegrees>
              <LongitudeDegrees>-4.0681612305343151092529296875</LongitudeDegrees>
            </Position>
            <AltitudeMeters>1146.199951171875</AltitudeMeters>
            <DistanceMeters>73.826872146373</DistanceMeters>
          </Trackpoint>
          <Trackpoint>
            <Time>2018-12-30T09:01:08.000Z</Time>
            <Position>
              <LatitudeDegrees>40.73686153627932071685791015625</LatitudeDegrees>
              <LongitudeDegrees>-4.0681652538478374481201171875</LongitudeDegrees>
            </Position>
            <AltitudeMeters>1146.199951171875</AltitudeMeters>
            <DistanceMeters>74.347354896634</DistanceMeters>
          </Trackpoint>
          <Trackpoint>
            <Time>2018-12-30T09:01:09.000Z</Time>
            <Position>
              <LatitudeDegrees>40.73687008582055568695068359375</LatitudeDegrees>
              <LongitudeDegrees>-4.068165756762027740478515625</LongitudeDegrees>
            </Position>
            <AltitudeMeters>1146.4000244140625</AltitudeMeters>
            <DistanceMeters>75.297622040334</DistanceMeters>
          </Trackpoint>
          <Trackpoint>
            <Time>2018-12-30T09:01:10.000Z</Time>
            <Position>
              <LatitudeDegrees>40.7368790544569492340087890625</LatitudeDegrees>
              <LongitudeDegrees>-4.068169109523296356201171875</LongitudeDegrees>
            </Position>
            <AltitudeMeters>1146.4000244140625</AltitudeMeters>
            <DistanceMeters>76.334241110595</DistanceMeters>
          </Trackpoint>
          <Trackpoint>
            <Time>2018-12-30T09:01:11.000Z</Time>
            <Position>
              <LatitudeDegrees>40.73688584379851818084716796875</LatitudeDegrees>
              <LongitudeDegrees>-4.06817413866519927978515625</LongitudeDegrees>
            </Position>
            <AltitudeMeters>1146.5999755859375</AltitudeMeters>
            <DistanceMeters>77.205175333882</DistanceMeters>
          </Trackpoint>
          <Trackpoint>
            <Time>2018-12-30T09:01:12.000Z</Time>
            <Position>
              <LatitudeDegrees>40.73688919655978679656982421875</LatitudeDegrees>
              <LongitudeDegrees>-4.06818092800676822662353515625</LongitudeDegrees>
            </Position>
            <AltitudeMeters>1146.5999755859375</AltitudeMeters>
            <DistanceMeters>77.890422716282</DistanceMeters>
          </Trackpoint>
          <Trackpoint>
            <Time>2018-12-30T09:01:13.000Z</Time>
            <Position>
              <LatitudeDegrees>40.73689003475010395050048828125</LatitudeDegrees>
              <LongitudeDegrees>-4.0681897290050983428955078125</LongitudeDegrees>
            </Position>
            <AltitudeMeters>1146.800048828125</AltitudeMeters>
            <DistanceMeters>78.638663813473</DistanceMeters>
          </Trackpoint>
          <Trackpoint>
            <Time>2018-12-30T09:01:14.000Z</Time>
            <Position>
              <LatitudeDegrees>40.73689254932105541229248046875</LatitudeDegrees>
              <LongitudeDegrees>-4.06820154748857021331787109375</LongitudeDegrees>
            </Position>
            <AltitudeMeters>1147</AltitudeMeters>
            <DistanceMeters>79.670918152474</DistanceMeters>
          </Trackpoint>
          <Trackpoint>
            <Time>2018-12-30T09:01:15.000Z</Time>
            <Position>
              <LatitudeDegrees>40.7369010150432586669921875</LatitudeDegrees>
              <LongitudeDegrees>-4.068211019039154052734375</LongitudeDegrees>
            </Position>
            <AltitudeMeters>1147</AltitudeMeters>
            <DistanceMeters>80.909914922232</DistanceMeters>
          </Trackpoint>
          <Trackpoint>
            <Time>2018-12-30T09:01:16.000Z</Time>
            <Position>
              <LatitudeDegrees>40.7369117438793182373046875</LatitudeDegrees>
              <LongitudeDegrees>-4.06822065822780132293701171875</LongitudeDegrees>
            </Position>
            <AltitudeMeters>1147.199951171875</AltitudeMeters>
            <DistanceMeters>82.351066400082</DistanceMeters>
          </Trackpoint>
          <Trackpoint>
            <Time>2018-12-30T09:01:17.000Z</Time>
            <Position>
              <LatitudeDegrees>40.736924149096012115478515625</LatitudeDegrees>
              <LongitudeDegrees>-4.06822778284549713134765625</LongitudeDegrees>
            </Position>
            <AltitudeMeters>1147.199951171875</AltitudeMeters>
            <DistanceMeters>83.853570679939</DistanceMeters>
          </Trackpoint>
          <Trackpoint>
            <Time>2018-12-30T09:01:18.000Z</Time>
            <Position>
              <LatitudeDegrees>40.73693730868399143218994140625</LatitudeDegrees>
              <LongitudeDegrees>-4.0682326443493366241455078125</LongitudeDegrees>
            </Position>
            <AltitudeMeters>1147.199951171875</AltitudeMeters>
            <DistanceMeters>85.371025619372</DistanceMeters>
          </Trackpoint>
          <Trackpoint>
            <Time>2018-12-30T09:01:19.000Z</Time>
            <Position>
              <LatitudeDegrees>40.73695725761353969573974609375</LatitudeDegrees>
              <LongitudeDegrees>-4.06824094243347644805908203125</LongitudeDegrees>
            </Position>
            <AltitudeMeters>1147.199951171875</AltitudeMeters>
            <DistanceMeters>87.698695240769</DistanceMeters>
          </Trackpoint>
          <Trackpoint>
            <Time>2018-12-30T09:01:20.000Z</Time>
            <Position>
              <LatitudeDegrees>40.7369749434292316436767578125</LatitudeDegrees>
              <LongitudeDegrees>-4.0682460553944110870361328125</LongitudeDegrees>
            </Position>
            <AltitudeMeters>1147.199951171875</AltitudeMeters>
            <DistanceMeters>89.714516264515</DistanceMeters>
          </Trackpoint>
          <Trackpoint>
            <Time>2018-12-30T09:01:21.000Z</Time>
            <Position>
              <LatitudeDegrees>40.73698441497981548309326171875</LatitudeDegrees>
              <LongitudeDegrees>-4.06824848614633083343505859375</LongitudeDegrees>
            </Position>
            <AltitudeMeters>1147.4000244140625</AltitudeMeters>
            <DistanceMeters>90.785412948786</DistanceMeters>
          </Trackpoint>
          <Trackpoint>
            <Time>2018-12-30T09:01:22.000Z</Time>
            <Position>
              <LatitudeDegrees>40.73699598200619220733642578125</LatitudeDegrees>
              <LongitudeDegrees>-4.06825334765017032623291015625</LongitudeDegrees>
            </Position>
            <AltitudeMeters>1147.5999755859375</AltitudeMeters>
            <DistanceMeters>92.129293631284</DistanceMeters>
          </Trackpoint>
          <Trackpoint>
            <Time>2018-12-30T09:01:23.000Z</Time>
            <Position>
              <LatitudeDegrees>40.73700738139450550079345703125</LatitudeDegrees>
              <LongitudeDegrees>-4.068258963525295257568359375</LongitudeDegrees>
            </Position>
            <AltitudeMeters>1147.800048828125</AltitudeMeters>
            <DistanceMeters>93.48654659023</DistanceMeters>
          </Trackpoint>
          <Trackpoint>
            <Time>2018-12-30T09:01:24.000Z</Time>
            <Position>
              <LatitudeDegrees>40.73701559565961360931396484375</LatitudeDegrees>
              <LongitudeDegrees>-4.06826323829591274261474609375</LongitudeDegrees>
            </Position>
            <AltitudeMeters>1148.199951171875</AltitudeMeters>
            <DistanceMeters>94.464906494896</DistanceMeters>
          </Trackpoint>
          <Trackpoint>
            <Time>2018-12-30T09:01:25.000Z</Time>
            <Position>
              <LatitudeDegrees>40.73702163062989711761474609375</LatitudeDegrees>
              <LongitudeDegrees>-4.0682648308575153350830078125</LongitudeDegrees>
            </Position>
            <AltitudeMeters>1148.800048828125</AltitudeMeters>
            <DistanceMeters>95.150153877296</DistanceMeters>
          </Trackpoint>
          <Trackpoint>
            <Time>2018-12-30T09:01:26.000Z</Time>
            <Position>
              <LatitudeDegrees>40.7370305992662906646728515625</LatitudeDegrees>
              <LongitudeDegrees>-4.0682701952755451202392578125</LongitudeDegrees>
            </Position>
            <AltitudeMeters>1149</AltitudeMeters>
            <DistanceMeters>96.241927704882</DistanceMeters>
          </Trackpoint>
          <Trackpoint>
            <Time>2018-12-30T09:01:27.000Z</Time>
            <Position>
              <LatitudeDegrees>40.73703621514141559600830078125</LatitudeDegrees>
              <LongitudeDegrees>-4.06828117556869983673095703125</LongitudeDegrees>
            </Position>
            <AltitudeMeters>1149.4000244140625</AltitudeMeters>
            <DistanceMeters>97.358238839497</DistanceMeters>
          </Trackpoint>
          <Trackpoint>
            <Time>2018-12-30T09:01:28.000Z</Time>
            <Position>
              <LatitudeDegrees>40.73704090900719165802001953125</LatitudeDegrees>
              <LongitudeDegrees>-4.06829374842345714569091796875</LongitudeDegrees>
            </Position>
            <AltitudeMeters>1149.5999755859375</AltitudeMeters>
            <DistanceMeters>98.54131189253</DistanceMeters>
          </Trackpoint>
          <Trackpoint>
            <Time>2018-12-30T09:01:29.000Z</Time>
            <Position>
              <LatitudeDegrees>40.73704124428331851959228515625</LatitudeDegrees>
              <LongitudeDegrees>-4.0683037228882312774658203125</LongitudeDegrees>
            </Position>
            <AltitudeMeters>1149.5999755859375</AltitudeMeters>
            <DistanceMeters>99.380565109759</DistanceMeters>
          </Trackpoint>
          <Trackpoint>
            <Time>2018-12-30T09:01:30.000Z</Time>
            <Position>
              <LatitudeDegrees>40.73704183101654052734375</LatitudeDegrees>
              <LongitudeDegrees>-4.06831084750592708587646484375</LongitudeDegrees>
            </Position>
            <AltitudeMeters>1149.5999755859375</AltitudeMeters>
            <DistanceMeters>99.981566821702</DistanceMeters>
          </Trackpoint>
          <Trackpoint>
            <Time>2018-12-30T09:01:31.000Z</Time>
            <Position>
              <LatitudeDegrees>40.73703805916011333465576171875</LatitudeDegrees>
              <LongitudeDegrees>-4.0683218277990818023681640625</LongitudeDegrees>
            </Position>
            <AltitudeMeters>1149.5999755859375</AltitudeMeters>
            <DistanceMeters>100.99617448706</DistanceMeters>
          </Trackpoint>
          <Trackpoint>
            <Time>2018-12-30T09:01:32.000Z</Time>
            <Position>
              <LatitudeDegrees>40.73703235946595668792724609375</LatitudeDegrees>
              <LongitudeDegrees>-4.06833498738706111907958984375</LongitudeDegrees>
            </Position>
            <AltitudeMeters>1149.5999755859375</AltitudeMeters>
            <DistanceMeters>102.27462817663</DistanceMeters>
          </Trackpoint>
          <Trackpoint>
            <Time>2018-12-30T09:01:33.000Z</Time>
            <Position>
              <LatitudeDegrees>40.7370242290198802947998046875</LatitudeDegrees>
              <LongitudeDegrees>-4.06834487803280353546142578125</LongitudeDegrees>
            </Position>
            <AltitudeMeters>1149.800048828125</AltitudeMeters>
            <DistanceMeters>103.50631516713</DistanceMeters>
          </Trackpoint>
          <Trackpoint>
            <Time>2018-12-30T09:01:34.000Z</Time>
            <Position>
              <LatitudeDegrees>40.73701123706996440887451171875</LatitudeDegrees>
              <LongitudeDegrees>-4.06835007481276988983154296875</LongitudeDegrees>
            </Position>
            <AltitudeMeters>1150</AltitudeMeters>
            <DistanceMeters>105.02079178193</DistanceMeters>
          </Trackpoint>
          <Trackpoint>
            <Time>2018-12-30T09:01:35.000Z</Time>
            <Position>
              <LatitudeDegrees>40.73699916712939739227294921875</LatitudeDegrees>
              <LongitudeDegrees>-4.06835862435400485992431640625</LongitudeDegrees>
            </Position>
            <AltitudeMeters>1150</AltitudeMeters>
            <DistanceMeters>106.54418590234</DistanceMeters>
          </Trackpoint>
          <Trackpoint>
            <Time>2018-12-30T09:01:36.000Z</Time>
            <Position>
              <LatitudeDegrees>40.7369868457317352294921875</LatitudeDegrees>
              <LongitudeDegrees>-4.0683634020388126373291015625</LongitudeDegrees>
            </Position>
            <AltitudeMeters>1150</AltitudeMeters>
            <DistanceMeters>107.97275066332</DistanceMeters>
          </Trackpoint>
          <Trackpoint>
            <Time>2018-12-30T09:01:37.000Z</Time>
            <Position>
              <LatitudeDegrees>40.7369746081531047821044921875</LatitudeDegrees>
              <LongitudeDegrees>-4.06836767680943012237548828125</LongitudeDegrees>
            </Position>
            <AltitudeMeters>1150</AltitudeMeters>
            <DistanceMeters>109.38222461401</DistanceMeters>
          </Trackpoint>
          <Trackpoint>
            <Time>2018-12-30T09:01:38.000Z</Time>
            <Position>
              <LatitudeDegrees>40.73696379549801349639892578125</LatitudeDegrees>
              <LongitudeDegrees>-4.06837320886552333831787109375</LongitudeDegrees>
            </Position>
            <AltitudeMeters>1150.199951171875</AltitudeMeters>
            <DistanceMeters>110.67122968215</DistanceMeters>
          </Trackpoint>
          <Trackpoint>
            <Time>2018-12-30T09:01:39.000Z</Time>
            <Position>
              <LatitudeDegrees>40.73695356957614421844482421875</LatitudeDegrees>
              <LongitudeDegrees>-4.06837807036936283111572265625</LongitudeDegrees>
            </Position>
            <AltitudeMeters>1150.4000244140625</AltitudeMeters>
            <DistanceMeters>111.87698351585</DistanceMeters>
          </Trackpoint>
          <Trackpoint>
            <Time>2018-12-30T09:01:40.000Z</Time>
            <Position>
              <LatitudeDegrees>40.7369477860629558563232421875</LatitudeDegrees>
              <LongitudeDegrees>-4.06838200986385345458984375</LongitudeDegrees>
            </Position>
            <AltitudeMeters>1150.5999755859375</AltitudeMeters>
            <DistanceMeters>112.60068541149</DistanceMeters>
          </Trackpoint>
          <Trackpoint>
            <Time>2018-12-30T09:01:41.000Z</Time>
            <Position>
              <LatitudeDegrees>40.73694082908332347869873046875</LatitudeDegrees>
              <LongitudeDegrees>-4.06838343478739261627197265625</LongitudeDegrees>
            </Position>
            <AltitudeMeters>1150.800048828125</AltitudeMeters>
            <DistanceMeters>113.38429577269</DistanceMeters>
          </Trackpoint>
          <Trackpoint>
            <Time>2018-12-30T09:01:42.000Z</Time>
            <Position>
              <LatitudeDegrees>40.7369303517043590545654296875</LatitudeDegrees>
              <LongitudeDegrees>-4.06838745810091495513916015625</LongitudeDegrees>
            </Position>
            <AltitudeMeters>1151</AltitudeMeters>
            <DistanceMeters>114.59751564574</DistanceMeters>
          </Trackpoint>
          <Trackpoint>
            <Time>2018-12-30T09:01:43.000Z</Time>
            <Position>
              <LatitudeDegrees>40.736924149096012115478515625</LatitudeDegrees>
              <LongitudeDegrees>-4.06839315779507160186767578125</LongitudeDegrees>
            </Position>
            <AltitudeMeters>1151.199951171875</AltitudeMeters>
            <DistanceMeters>115.43676886297</DistanceMeters>
          </Trackpoint>
          <Trackpoint>
            <Time>2018-12-30T09:01:44.000Z</Time>
            <Position>
              <LatitudeDegrees>40.73691970668733119964599609375</LatitudeDegrees>
              <LongitudeDegrees>-4.0683992765843868255615234375</LongitudeDegrees>
            </Position>
            <AltitudeMeters>1151.4000244140625</AltitudeMeters>
            <DistanceMeters>116.1478836785</DistanceMeters>
          </Trackpoint>
          <Trackpoint>
            <Time>2018-12-30T09:01:45.000Z</Time>
            <Position>
              <LatitudeDegrees>40.73690629564225673675537109375</LatitudeDegrees>
              <LongitudeDegrees>-4.068401791155338287353515625</LongitudeDegrees>
            </Position>
            <AltitudeMeters>1151.4000244140625</AltitudeMeters>
            <DistanceMeters>117.65638600328</DistanceMeters>
          </Trackpoint>
          <Trackpoint>
            <Time>2018-12-30T09:01:46.000Z</Time>
            <Position>
              <LatitudeDegrees>40.7368934713304042816162109375</LatitudeDegrees>
              <LongitudeDegrees>-4.06840841285884380340576171875</LongitudeDegrees>
            </Position>
            <AltitudeMeters>1151.5999755859375</AltitudeMeters>
            <DistanceMeters>119.18864573173</DistanceMeters>
          </Trackpoint>
          <Trackpoint>
            <Time>2018-12-30T09:01:47.000Z</Time>
            <Position>
              <LatitudeDegrees>40.7368770428001880645751953125</LatitudeDegrees>
              <LongitudeDegrees>-4.06841310672461986541748046875</LongitudeDegrees>
            </Position>
            <AltitudeMeters>1151.800048828125</AltitudeMeters>
            <DistanceMeters>121.06045492614</DistanceMeters>
          </Trackpoint>
          <Trackpoint>
            <Time>2018-12-30T09:01:48.000Z</Time>
            <Position>
              <LatitudeDegrees>40.7368659786880016326904296875</LatitudeDegrees>
              <LongitudeDegrees>-4.0684183873236179351806640625</LongitudeDegrees>
            </Position>
            <AltitudeMeters>1152</AltitudeMeters>
            <DistanceMeters>122.37030778976</DistanceMeters>
          </Trackpoint>
          <Trackpoint>
            <Time>2018-12-30T09:01:49.000Z</Time>
            <Position>
              <LatitudeDegrees>40.73685206472873687744140625</LatitudeDegrees>
              <LongitudeDegrees>-4.068420231342315673828125</LongitudeDegrees>
            </Position>
            <AltitudeMeters>1152.199951171875</AltitudeMeters>
            <DistanceMeters>123.92886178736</DistanceMeters>
          </Trackpoint>
          <Trackpoint>
            <Time>2018-12-30T09:01:50.000Z</Time>
            <Position>
              <LatitudeDegrees>40.73684267699718475341796875</LatitudeDegrees>
              <LongitudeDegrees>-4.06841930933296680450439453125</LongitudeDegrees>
            </Position>
            <AltitudeMeters>1152.199951171875</AltitudeMeters>
            <DistanceMeters>124.97846615385</DistanceMeters>
          </Trackpoint>
          <Trackpoint>
            <Time>2018-12-30T09:01:51.000Z</Time>
            <Position>
              <LatitudeDegrees>40.73682968504726886749267578125</LatitudeDegrees>
              <LongitudeDegrees>-4.0684244222939014434814453125</LongitudeDegrees>
            </Position>
            <AltitudeMeters>1152.4000244140625</AltitudeMeters>
            <DistanceMeters>126.48696847864</DistanceMeters>
          </Trackpoint>
          <Trackpoint>
            <Time>2018-12-30T09:01:52.000Z</Time>
            <Position>
              <LatitudeDegrees>40.7368166930973529815673828125</LatitudeDegrees>
              <LongitudeDegrees>-4.06842484138906002044677734375</LongitudeDegrees>
            </Position>
            <AltitudeMeters>1152.4000244140625</AltitudeMeters>
            <DistanceMeters>127.93437226991</DistanceMeters>
          </Trackpoint>
          <Trackpoint>
            <Time>2018-12-30T09:01:53.000Z</Time>
            <Position>
              <LatitudeDegrees>40.7368009351193904876708984375</LatitudeDegrees>
              <LongitudeDegrees>-4.068428613245487213134765625</LongitudeDegrees>
            </Position>
            <AltitudeMeters>1152.5999755859375</AltitudeMeters>
            <DistanceMeters>129.71723146465</DistanceMeters>
          </Trackpoint>
          <Trackpoint>
            <Time>2018-12-30T09:01:54.000Z</Time>
            <Position>
              <LatitudeDegrees>40.7367881946265697479248046875</LatitudeDegrees>
              <LongitudeDegrees>-4.06843104399740695953369140625</LongitudeDegrees>
            </Position>
            <AltitudeMeters>1152.800048828125</AltitudeMeters>
            <DistanceMeters>131.15210338549</DistanceMeters>
          </Trackpoint>
          <Trackpoint>
            <Time>2018-12-30T09:01:55.000Z</Time>
            <Position>
              <LatitudeDegrees>40.73677201755344867706298828125</LatitudeDegrees>
              <LongitudeDegrees>-4.068430624902248382568359375</LongitudeDegrees>
            </Position>
            <AltitudeMeters>1153.199951171875</AltitudeMeters>
            <DistanceMeters>132.95260260609</DistanceMeters>
          </Trackpoint>
          <Trackpoint>
            <Time>2018-12-30T09:01:56.000Z</Time>
            <Position>
              <LatitudeDegrees>40.73675977997481822967529296875</LatitudeDegrees>
              <LongitudeDegrees>-4.068430960178375244140625</LongitudeDegrees>
            </Position>
            <AltitudeMeters>1153.4000244140625</AltitudeMeters>
            <DistanceMeters>134.31317809867</DistanceMeters>
          </Trackpoint>
          <Trackpoint>
            <Time>2018-12-30T09:01:57.000Z</Time>
            <Position>
              <LatitudeDegrees>40.73674569837749004364013671875</LatitudeDegrees>
              <LongitudeDegrees>-4.06843389384448528289794921875</LongitudeDegrees>
            </Position>
            <AltitudeMeters>1153.5999755859375</AltitudeMeters>
            <DistanceMeters>135.89759005628</DistanceMeters>
          </Trackpoint>
          <Trackpoint>
            <Time>2018-12-30T09:01:58.000Z</Time>
            <Position>
              <LatitudeDegrees>40.73673404753208160400390625</LatitudeDegrees>
              <LongitudeDegrees>-4.068438000977039337158203125</LongitudeDegrees>
            </Position>
            <AltitudeMeters>1153.5999755859375</AltitudeMeters>
            <DistanceMeters>137.23473445234</DistanceMeters>
          </Trackpoint>
          <Trackpoint>
            <Time>2018-12-30T09:01:59.000Z</Time>
            <Position>
              <LatitudeDegrees>40.73672021739184856414794921875</LatitudeDegrees>
              <LongitudeDegrees>-4.06843959353864192962646484375</LongitudeDegrees>
            </Position>
            <AltitudeMeters>1153.800048828125</AltitudeMeters>
            <DistanceMeters>138.77873580636</DistanceMeters>
          </Trackpoint>
          <Trackpoint>
            <Time>2018-12-30T09:02:00.000Z</Time>
            <Position>
              <LatitudeDegrees>40.73670923709869384765625</LatitudeDegrees>
              <LongitudeDegrees>-4.068439342081546783447265625</LongitudeDegrees>
            </Position>
            <AltitudeMeters>1153.800048828125</AltitudeMeters>
            <DistanceMeters>139.99567152233</DistanceMeters>
          </Trackpoint>
          <Trackpoint>
            <Time>2018-12-30T09:02:01.000Z</Time>
            <Position>
              <LatitudeDegrees>40.73669808916747570037841796875</LatitudeDegrees>
              <LongitudeDegrees>-4.06843942590057849884033203125</LongitudeDegrees>
            </Position>
            <AltitudeMeters>1154</AltitudeMeters>
            <DistanceMeters>141.23466829209</DistanceMeters>
          </Trackpoint>
          <Trackpoint>
            <Time>2018-12-30T09:02:02.000Z</Time>
            <Position>
              <LatitudeDegrees>40.73668979108333587646484375</LatitudeDegrees>
              <LongitudeDegrees>-4.0684411861002445220947265625</LongitudeDegrees>
            </Position>
            <AltitudeMeters>1154</AltitudeMeters>
            <DistanceMeters>142.16573614065</DistanceMeters>
          </Trackpoint>
          <Trackpoint>
            <Time>2018-12-30T09:02:03.000Z</Time>
            <Position>
              <LatitudeDegrees>40.7366778887808322906494140625</LatitudeDegrees>
              <LongitudeDegrees>-4.06844110228121280670166015625</LongitudeDegrees>
            </Position>
            <AltitudeMeters>1154</AltitudeMeters>
            <DistanceMeters>143.4893051151</DistanceMeters>
          </Trackpoint>
          <Trackpoint>
            <Time>2018-12-30T09:02:04.000Z</Time>
            <Position>
              <LatitudeDegrees>40.73666741140186786651611328125</LatitudeDegrees>
              <LongitudeDegrees>-4.068439006805419921875</LongitudeDegrees>
            </Position>
            <AltitudeMeters>1154.199951171875</AltitudeMeters>
            <DistanceMeters>144.6647206569</DistanceMeters>
          </Trackpoint>
          <Trackpoint>
            <Time>2018-12-30T09:02:05.000Z</Time>
            <Position>
              <LatitudeDegrees>40.73666037060320377349853515625</LatitudeDegrees>
              <LongitudeDegrees>-4.06843758188188076019287109375</LongitudeDegrees>
            </Position>
            <AltitudeMeters>1154.4000244140625</AltitudeMeters>
            <DistanceMeters>145.45977119057</DistanceMeters>
          </Trackpoint>
          <Trackpoint>
            <Time>2018-12-30T09:02:06.000Z</Time>
            <Position>
              <LatitudeDegrees>40.736653245985507965087890625</LatitudeDegrees>
              <LongitudeDegrees>-4.06843842007219791412353515625</LongitudeDegrees>
            </Position>
            <AltitudeMeters>1154.800048828125</AltitudeMeters>
            <DistanceMeters>146.25482172423</DistanceMeters>
          </Trackpoint>
          <Trackpoint>
            <Time>2018-12-30T09:02:07.000Z</Time>
            <Position>
              <LatitudeDegrees>40.73664394207298755645751953125</LatitudeDegrees>
              <LongitudeDegrees>-4.06843506731092929840087890625</LongitudeDegrees>
            </Position>
            <AltitudeMeters>1155</AltitudeMeters>
            <DistanceMeters>147.3257184085</DistanceMeters>
          </Trackpoint>
          <Trackpoint>
            <Time>2018-12-30T09:02:08.000Z</Time>
            <Position>
              <LatitudeDegrees>40.736634470522403717041015625</LatitudeDegrees>
              <LongitudeDegrees>-4.06843154691159725189208984375</LongitudeDegrees>
            </Position>
            <AltitudeMeters>1155.199951171875</AltitudeMeters>
            <DistanceMeters>148.42161994014</DistanceMeters>
          </Trackpoint>
          <Trackpoint>
            <Time>2018-12-30T09:02:09.000Z</Time>
            <Position>
              <LatitudeDegrees>40.7366272620856761932373046875</LatitudeDegrees>
              <LongitudeDegrees>-4.06843003816902637481689453125</LongitudeDegrees>
            </Position>
            <AltitudeMeters>1155.4000244140625</AltitudeMeters>
            <DistanceMeters>149.23907064621</DistanceMeters>
          </Trackpoint>
          <Trackpoint>
            <Time>2018-12-30T09:02:10.000Z</Time>
            <Position>
              <LatitudeDegrees>40.73662064038217067718505859375</LatitudeDegrees>
              <LongitudeDegrees>-4.068429954349994659423828125</LongitudeDegrees>
            </Position>
            <AltitudeMeters>1155.800048828125</AltitudeMeters>
            <DistanceMeters>149.97514441061</DistanceMeters>
          </Trackpoint>
          <Trackpoint>
            <Time>2018-12-30T09:02:11.000Z</Time>
            <Position>
              <LatitudeDegrees>40.73661628179252147674560546875</LatitudeDegrees>
              <LongitudeDegrees>-4.068431966006755828857421875</LongitudeDegrees>
            </Position>
            <AltitudeMeters>1156.4000244140625</AltitudeMeters>
            <DistanceMeters>150.48687892857</DistanceMeters>
          </Trackpoint>
          <Trackpoint>
            <Time>2018-12-30T09:02:12.000Z</Time>
            <Position>
              <LatitudeDegrees>40.73661611415445804595947265625</LatitudeDegrees>
              <LongitudeDegrees>-4.06843221746385097503662109375</LongitudeDegrees>
            </Position>
            <AltitudeMeters>1156.800048828125</AltitudeMeters>
            <DistanceMeters>150.48687892857</DistanceMeters>
          </Trackpoint>
          <Trackpoint>
            <Time>2018-12-30T09:02:13.000Z</Time>
            <Position>
              <LatitudeDegrees>40.7366215623915195465087890625</LatitudeDegrees>
              <LongitudeDegrees>-4.068430624902248382568359375</LongitudeDegrees>
            </Position>
            <AltitudeMeters>1157</AltitudeMeters>
            <DistanceMeters>151.10272242382</DistanceMeters>
          </Trackpoint>
          <Trackpoint>
            <Time>2018-12-30T09:02:14.000Z</Time>
            <Position>
              <LatitudeDegrees>40.7366252504289150238037109375</LatitudeDegrees>
              <LongitudeDegrees>-4.0684338100254535675048828125</LongitudeDegrees>
            </Position>
            <AltitudeMeters>1157.199951171875</AltitudeMeters>
            <DistanceMeters>151.58726549471</DistanceMeters>
          </Trackpoint>
          <Trackpoint>
            <Time>2018-12-30T09:02:15.000Z</Time>
            <Position>
              <LatitudeDegrees>40.7366279326379299163818359375</LatitudeDegrees>
              <LongitudeDegrees>-4.068438000977039337158203125</LongitudeDegrees>
            </Position>
            <AltitudeMeters>1157.4000244140625</AltitudeMeters>
            <DistanceMeters>152.05279941899</DistanceMeters>
          </Trackpoint>
          <Trackpoint>
            <Time>2018-12-30T09:02:16.000Z</Time>
            <Position>
              <LatitudeDegrees>40.73663505725562572479248046875</LatitudeDegrees>
              <LongitudeDegrees>-4.06843976117670536041259765625</LongitudeDegrees>
            </Position>
            <AltitudeMeters>1157.4000244140625</AltitudeMeters>
            <DistanceMeters>152.85912782849</DistanceMeters>
          </Trackpoint>
          <Trackpoint>
            <Time>2018-12-30T09:02:17.000Z</Time>
            <Position>
              <LatitudeDegrees>40.73664494790136814117431640625</LatitudeDegrees>
              <LongitudeDegrees>-4.06844395212829113006591796875</LongitudeDegrees>
            </Position>
            <AltitudeMeters>1157.4000244140625</AltitudeMeters>
            <DistanceMeters>154.01907670242</DistanceMeters>
          </Trackpoint>
          <Trackpoint>
            <Time>2018-12-30T09:02:18.000Z</Time>
            <Position>
              <LatitudeDegrees>40.73665559291839599609375</LatitudeDegrees>
              <LongitudeDegrees>-4.06844730488955974578857421875</LongitudeDegrees>
            </Position>
            <AltitudeMeters>1157.4000244140625</AltitudeMeters>
            <DistanceMeters>155.23971694969</DistanceMeters>
          </Trackpoint>
          <Trackpoint>
            <Time>2018-12-30T09:02:19.000Z</Time>
            <Position>
              <LatitudeDegrees>40.73666221462190151214599609375</LatitudeDegrees>
              <LongitudeDegrees>-4.06845199875533580780029296875</LongitudeDegrees>
            </Position>
            <AltitudeMeters>1157.5999755859375</AltitudeMeters>
            <DistanceMeters>156.07357298414</DistanceMeters>
          </Trackpoint>
          <Trackpoint>
            <Time>2018-12-30T09:02:20.000Z</Time>
            <Position>
              <LatitudeDegrees>40.7366748712956905364990234375</LatitudeDegrees>
              <LongitudeDegrees>-4.06845920719206333160400390625</LongitudeDegrees>
            </Position>
            <AltitudeMeters>1158</AltitudeMeters>
            <DistanceMeters>157.61171472934</DistanceMeters>
          </Trackpoint>
          <Trackpoint>
            <Time>2018-12-30T09:02:21.000Z</Time>
            <Position>
              <LatitudeDegrees>40.73668518103659152984619140625</LatitudeDegrees>
              <LongitudeDegrees>-4.06846582889556884765625</LongitudeDegrees>
            </Position>
            <AltitudeMeters>1158.199951171875</AltitudeMeters>
            <DistanceMeters>158.88663188739</DistanceMeters>
          </Trackpoint>
          <Trackpoint>
            <Time>2018-12-30T09:02:22.000Z</Time>
            <Position>
              <LatitudeDegrees>40.7366980053484439849853515625</LatitudeDegrees>
              <LongitudeDegrees>-4.0684730373322963714599609375</LongitudeDegrees>
            </Position>
            <AltitudeMeters>1158.5999755859375</AltitudeMeters>
            <DistanceMeters>160.43647069646</DistanceMeters>
          </Trackpoint>
          <Trackpoint>
            <Time>2018-12-30T09:02:23.000Z</Time>
            <Position>
              <LatitudeDegrees>40.73670680634677410125732421875</LatitudeDegrees>
              <LongitudeDegrees>-4.068481586873531341552734375</LongitudeDegrees>
            </Position>
            <AltitudeMeters>1159</AltitudeMeters>
            <DistanceMeters>161.64969056951</DistanceMeters>
          </Trackpoint>
          <Trackpoint>
            <Time>2018-12-30T09:02:24.000Z</Time>
            <Position>
              <LatitudeDegrees>40.73671166785061359405517578125</LatitudeDegrees>
              <LongitudeDegrees>-4.06848804093897342681884765625</LongitudeDegrees>
            </Position>
            <AltitudeMeters>1159</AltitudeMeters>
            <DistanceMeters>162.40990428447</DistanceMeters>
          </Trackpoint>
          <Trackpoint>
            <Time>2018-12-30T09:02:25.000Z</Time>
            <Position>
              <LatitudeDegrees>40.73671770282089710235595703125</LatitudeDegrees>
              <LongitudeDegrees>-4.06849759630858898162841796875</LongitudeDegrees>
            </Position>
            <AltitudeMeters>1158.800048828125</AltitudeMeters>
            <DistanceMeters>163.45950865097</DistanceMeters>
          </Trackpoint>
          <Trackpoint>
            <Time>2018-12-30T09:02:26.000Z</Time>
            <Position>
              <LatitudeDegrees>40.7367278449237346649169921875</LatitudeDegrees>
              <LongitudeDegrees>-4.06850463710725307464599609375</LongitudeDegrees>
            </Position>
            <AltitudeMeters>1158.800048828125</AltitudeMeters>
            <DistanceMeters>164.73442580902</DistanceMeters>
          </Trackpoint>
          <Trackpoint>
            <Time>2018-12-30T09:02:27.000Z</Time>
            <Position>
              <LatitudeDegrees>40.7367325387895107269287109375</LatitudeDegrees>
              <LongitudeDegrees>-4.068512432277202606201171875</LongitudeDegrees>
            </Position>
            <AltitudeMeters>1159</AltitudeMeters>
            <DistanceMeters>165.57904172118</DistanceMeters>
          </Trackpoint>
          <Trackpoint>
            <Time>2018-12-30T09:02:28.000Z</Time>
            <Position>
              <LatitudeDegrees>40.73672994039952754974365234375</LatitudeDegrees>
              <LongitudeDegrees>-4.06851972453296184539794921875</LongitudeDegrees>
            </Position>
            <AltitudeMeters>1159.199951171875</AltitudeMeters>
            <DistanceMeters>166.26428910358</DistanceMeters>
          </Trackpoint>
          <Trackpoint>
            <Time>2018-12-30T09:02:29.000Z</Time>
            <Position>
              <LatitudeDegrees>40.7367238216102123260498046875</LatitudeDegrees>
              <LongitudeDegrees>-4.0685226581990718841552734375</LongitudeDegrees>
            </Position>
            <AltitudeMeters>1159.4000244140625</AltitudeMeters>
            <DistanceMeters>166.98799099922</DistanceMeters>
          </Trackpoint>
          <Trackpoint>
            <Time>2018-12-30T09:02:30.000Z</Time>
            <Position>
              <LatitudeDegrees>40.73671703226864337921142578125</LatitudeDegrees>
              <LongitudeDegrees>-4.06852643005549907684326171875</LongitudeDegrees>
            </Position>
            <AltitudeMeters>1159.199951171875</AltitudeMeters>
            <DistanceMeters>167.80544170529</DistanceMeters>
          </Trackpoint>
          <Trackpoint>
            <Time>2018-12-30T09:02:31.000Z</Time>
            <Position>
              <LatitudeDegrees>40.7367114163935184478759765625</LatitudeDegrees>
              <LongitudeDegrees>-4.068531207740306854248046875</LongitudeDegrees>
            </Position>
            <AltitudeMeters>1159.4000244140625</AltitudeMeters>
            <DistanceMeters>168.5476240704</DistanceMeters>
          </Trackpoint>
          <Trackpoint>
            <Time>2018-12-30T09:02:32.000Z</Time>
            <Position>
              <LatitudeDegrees>40.7367043755948543548583984375</LatitudeDegrees>
              <LongitudeDegrees>-4.068534560501575469970703125</LongitudeDegrees>
            </Position>
            <AltitudeMeters>1159.5999755859375</AltitudeMeters>
            <DistanceMeters>169.37604776015</DistanceMeters>
          </Trackpoint>
          <Trackpoint>
            <Time>2018-12-30T09:02:33.000Z</Time>
            <Position>
              <LatitudeDegrees>40.73669649660587310791015625</LatitudeDegrees>
              <LongitudeDegrees>-4.06853581778705120086669921875</LongitudeDegrees>
            </Position>
            <AltitudeMeters>1159.800048828125</AltitudeMeters>
            <DistanceMeters>170.2572892561</DistanceMeters>
          </Trackpoint>
          <Trackpoint>
            <Time>2018-12-30T09:02:34.000Z</Time>
            <Position>
              <LatitudeDegrees>40.7366889528930187225341796875</LatitudeDegrees>
              <LongitudeDegrees>-4.0685384161770343780517578125</LongitudeDegrees>
            </Position>
            <AltitudeMeters>1159.800048828125</AltitudeMeters>
            <DistanceMeters>171.12822347939</DistanceMeters>
          </Trackpoint>
          <Trackpoint>
            <Time>2018-12-30T09:02:35.000Z</Time>
            <Position>
              <LatitudeDegrees>40.73668501339852809906005859375</LatitudeDegrees>
              <LongitudeDegrees>-4.0685407631099224090576171875</LongitudeDegrees>
            </Position>
            <AltitudeMeters>1160</AltitudeMeters>
            <DistanceMeters>171.62199677148</DistanceMeters>
          </Trackpoint>
          <Trackpoint>
            <Time>2018-12-30T09:02:36.000Z</Time>
            <Position>
              <LatitudeDegrees>40.736682750284671783447265625</LatitudeDegrees>
              <LongitudeDegrees>-4.0685422718524932861328125</LongitudeDegrees>
            </Position>
            <AltitudeMeters>1160</AltitudeMeters>
            <DistanceMeters>171.89077290798</DistanceMeters>
          </Trackpoint>
          <Trackpoint>
            <Time>2018-12-30T09:02:37.000Z</Time>
            <Position>
              <LatitudeDegrees>40.7366788946092128753662109375</LatitudeDegrees>
              <LongitudeDegrees>-4.06854369677603244781494140625</LongitudeDegrees>
            </Position>
            <AltitudeMeters>1160.199951171875</AltitudeMeters>
            <DistanceMeters>172.33648770667</DistanceMeters>
          </Trackpoint>
          <Trackpoint>
            <Time>2018-12-30T09:02:38.000Z</Time>
            <Position>
              <LatitudeDegrees>40.73667394928634166717529296875</LatitudeDegrees>
              <LongitudeDegrees>-4.0685471333563327789306640625</LongitudeDegrees>
            </Position>
            <AltitudeMeters>1160.199951171875</AltitudeMeters>
            <DistanceMeters>172.95233120192</DistanceMeters>
          </Trackpoint>
          <Trackpoint>
            <Time>2018-12-30T09:02:39.000Z</Time>
            <Position>
              <LatitudeDegrees>40.73666824959218502044677734375</LatitudeDegrees>
              <LongitudeDegrees>-4.06855157576501369476318359375</LongitudeDegrees>
            </Position>
            <AltitudeMeters>1160.4000244140625</AltitudeMeters>
            <DistanceMeters>173.68840496632</DistanceMeters>
          </Trackpoint>
          <Trackpoint>
            <Time>2018-12-30T09:02:40.000Z</Time>
            <Position>
              <LatitudeDegrees>40.73666154406964778900146484375</LatitudeDegrees>
              <LongitudeDegrees>-4.06856079585850238800048828125</LongitudeDegrees>
            </Position>
            <AltitudeMeters>1160.4000244140625</AltitudeMeters>
            <DistanceMeters>174.76770096894</DistanceMeters>
          </Trackpoint>
          <Trackpoint>
            <Time>2018-12-30T09:02:41.000Z</Time>
            <Position>
              <LatitudeDegrees>40.73665802367031574249267578125</LatitudeDegrees>
              <LongitudeDegrees>-4.06856683082878589630126953125</LongitudeDegrees>
            </Position>
            <AltitudeMeters>1160.4000244140625</AltitudeMeters>
            <DistanceMeters>175.41220350301</DistanceMeters>
          </Trackpoint>
          <Trackpoint>
            <Time>2018-12-30T09:02:42.000Z</Time>
            <Position>
              <LatitudeDegrees>40.736649893224239349365234375</LatitudeDegrees>
              <LongitudeDegrees>-4.06856699846684932708740234375</LongitudeDegrees>
            </Position>
            <AltitudeMeters>1160.5999755859375</AltitudeMeters>
            <DistanceMeters>176.31370607092</DistanceMeters>
          </Trackpoint>
          <Trackpoint>
            <Time>2018-12-30T09:02:43.000Z</Time>
            <Position>
              <LatitudeDegrees>40.73664377443492412567138671875</LatitudeDegrees>
              <LongitudeDegrees>-4.06856347806751728057861328125</LongitudeDegrees>
            </Position>
            <AltitudeMeters>1160.5999755859375</AltitudeMeters>
            <DistanceMeters>177.06194716811</DistanceMeters>
          </Trackpoint>
          <Trackpoint>
            <Time>2018-12-30T09:02:44.000Z</Time>
            <Position>
              <LatitudeDegrees>40.73663991875946521759033203125</LatitudeDegrees>
              <LongitudeDegrees>-4.068562053143978118896484375</LongitudeDegrees>
            </Position>
            <AltitudeMeters>1160.800048828125</AltitudeMeters>
            <DistanceMeters>177.5076619668</DistanceMeters>
          </Trackpoint>
          <Trackpoint>
            <Time>2018-12-30T09:02:45.000Z</Time>
            <Position>
              <LatitudeDegrees>40.736629106104373931884765625</LatitudeDegrees>
              <LongitudeDegrees>-4.0685662440955638885498046875</LongitudeDegrees>
            </Position>
            <AltitudeMeters>1161.199951171875</AltitudeMeters>
            <DistanceMeters>178.76474723745</DistanceMeters>
          </Trackpoint>
          <Trackpoint>
            <Time>2018-12-30T09:02:46.000Z</Time>
            <Position>
              <LatitudeDegrees>40.73662164621055126190185546875</LatitudeDegrees>
              <LongitudeDegrees>-4.06856951303780078887939453125</LongitudeDegrees>
            </Position>
            <AltitudeMeters>1161.4000244140625</AltitudeMeters>
            <DistanceMeters>179.63568146074</DistanceMeters>
          </Trackpoint>
          <Trackpoint>
            <Time>2018-12-30T09:02:47.000Z</Time>
            <Position>
              <LatitudeDegrees>40.73660722933709621429443359375</LatitudeDegrees>
              <LongitudeDegrees>-4.06857035122811794281005859375</LongitudeDegrees>
            </Position>
            <AltitudeMeters>1161.5999755859375</AltitudeMeters>
            <DistanceMeters>181.24272902163</DistanceMeters>
          </Trackpoint>
          <Trackpoint>
            <Time>2018-12-30T09:02:48.000Z</Time>
            <Position>
              <LatitudeDegrees>40.7366024516522884368896484375</LatitudeDegrees>
              <LongitudeDegrees>-4.0685823373496532440185546875</LongitudeDegrees>
            </Position>
            <AltitudeMeters>1161.800048828125</AltitudeMeters>
            <DistanceMeters>182.38700219023</DistanceMeters>
          </Trackpoint>
          <Trackpoint>
            <Time>2018-12-30T09:02:49.000Z</Time>
            <Position>
              <LatitudeDegrees>40.73659113608300685882568359375</LatitudeDegrees>
              <LongitudeDegrees>-4.06859247945249080657958984375</LongitudeDegrees>
            </Position>
            <AltitudeMeters>1162</AltitudeMeters>
            <DistanceMeters>183.90742962015</DistanceMeters>
          </Trackpoint>
          <Trackpoint>
            <Time>2018-12-30T09:02:50.000Z</Time>
            <Position>
              <LatitudeDegrees>40.736574791371822357177734375</LatitudeDegrees>
              <LongitudeDegrees>-4.0685991011559963226318359375</LongitudeDegrees>
            </Position>
            <AltitudeMeters>1162.4000244140625</AltitudeMeters>
            <DistanceMeters>185.80796390755</DistanceMeters>
          </Trackpoint>
          <Trackpoint>
            <Time>2018-12-30T09:02:51.000Z</Time>
            <Position>
              <LatitudeDegrees>40.73655945248901844024658203125</LatitudeDegrees>
              <LongitudeDegrees>-4.06860530376434326171875</LongitudeDegrees>
            </Position>
            <AltitudeMeters>1162.5999755859375</AltitudeMeters>
            <DistanceMeters>187.59588086903</DistanceMeters>
          </Trackpoint>
          <Trackpoint>
            <Time>2018-12-30T09:02:52.000Z</Time>
            <Position>
              <LatitudeDegrees>40.73654671199619770050048828125</LatitudeDegrees>
              <LongitudeDegrees>-4.0686135180294513702392578125</LongitudeDegrees>
            </Position>
            <AltitudeMeters>1162.800048828125</AltitudeMeters>
            <DistanceMeters>189.17458321543</DistanceMeters>
          </Trackpoint>
          <Trackpoint>
            <Time>2018-12-30T09:02:53.000Z</Time>
            <Position>
              <LatitudeDegrees>40.73653581552207469940185546875</LatitudeDegrees>
              <LongitudeDegrees>-4.06861544586718082427978515625</LongitudeDegrees>
            </Position>
            <AltitudeMeters>1163.199951171875</AltitudeMeters>
            <DistanceMeters>190.40259899959</DistanceMeters>
          </Trackpoint>
          <Trackpoint>
            <Time>2018-12-30T09:02:54.000Z</Time>
            <Position>
              <LatitudeDegrees>40.73652089573442935943603515625</LatitudeDegrees>
              <LongitudeDegrees>-4.0686151944100856781005859375</LongitudeDegrees>
            </Position>
            <AltitudeMeters>1163.5999755859375</AltitudeMeters>
            <DistanceMeters>192.06488760024</DistanceMeters>
          </Trackpoint>
          <Trackpoint>
            <Time>2018-12-30T09:02:55.000Z</Time>
            <Position>
              <LatitudeDegrees>40.73651335202157497406005859375</LatitudeDegrees>
              <LongitudeDegrees>-4.06861661933362483978271484375</LongitudeDegrees>
            </Position>
            <AltitudeMeters>1164</AltitudeMeters>
            <DistanceMeters>192.91483237228</DistanceMeters>
          </Trackpoint>
          <Trackpoint>
            <Time>2018-12-30T09:02:56.000Z</Time>
            <Position>
              <LatitudeDegrees>40.73649642057716846466064453125</LatitudeDegrees>
              <LongitudeDegrees>-4.0686173737049102783203125</LongitudeDegrees>
            </Position>
            <AltitudeMeters>1164</AltitudeMeters>
            <DistanceMeters>194.8010587953</DistanceMeters>
          </Trackpoint>
          <Trackpoint>
            <Time>2018-12-30T09:02:57.000Z</Time>
            <Position>
              <LatitudeDegrees>40.73649642057716846466064453125</LatitudeDegrees>
              <LongitudeDegrees>-4.0686173737049102783203125</LongitudeDegrees>
            </Position>
            <AltitudeMeters>1164.199951171875</AltitudeMeters>
            <DistanceMeters>194.8010587953</DistanceMeters>
          </Trackpoint>
          <Trackpoint>
            <Time>2018-12-30T09:02:58.000Z</Time>
            <Position>
              <LatitudeDegrees>40.736485607922077178955078125</LatitudeDegrees>
              <LongitudeDegrees>-4.06861058436334133148193359375</LongitudeDegrees>
            </Position>
            <AltitudeMeters>1164.4000244140625</AltitudeMeters>
            <DistanceMeters>196.13143279648</DistanceMeters>
          </Trackpoint>
          <Trackpoint>
            <Time>2018-12-30T09:02:59.000Z</Time>
            <Position>
              <LatitudeDegrees>40.73647077195346355438232421875</LatitudeDegrees>
              <LongitudeDegrees>-4.06860237009823322296142578125</LongitudeDegrees>
            </Position>
            <AltitudeMeters>1164.5999755859375</AltitudeMeters>
            <DistanceMeters>197.91934975797</DistanceMeters>
          </Trackpoint>
          <Trackpoint>
            <Time>2018-12-30T09:03:00.000Z</Time>
            <Position>
              <LatitudeDegrees>40.7364571094512939453125</LatitudeDegrees>
              <LongitudeDegrees>-4.06859382055699825286865234375</LongitudeDegrees>
            </Position>
            <AltitudeMeters>1164.800048828125</AltitudeMeters>
            <DistanceMeters>199.59785619242</DistanceMeters>
          </Trackpoint>
          <Trackpoint>
            <Time>2018-12-30T09:03:01.000Z</Time>
            <Position>
              <LatitudeDegrees>40.73644168674945831298828125</LatitudeDegrees>
              <LongitudeDegrees>-4.06858644448220729827880859375</LongitudeDegrees>
            </Position>
            <AltitudeMeters>1164.800048828125</AltitudeMeters>
            <DistanceMeters>201.42573153945</DistanceMeters>
          </Trackpoint>
          <Trackpoint>
            <Time>2018-12-30T09:03:02.000Z</Time>
            <Position>
              <LatitudeDegrees>40.7364289462566375732421875</LatitudeDegrees>
              <LongitudeDegrees>-4.06858074478805065155029296875</LongitudeDegrees>
            </Position>
            <AltitudeMeters>1164.800048828125</AltitudeMeters>
            <DistanceMeters>202.92221373383</DistanceMeters>
          </Trackpoint>
          <Trackpoint>
            <Time>2018-12-30T09:03:03.000Z</Time>
            <Position>
              <LatitudeDegrees>40.73641712777316570281982421875</LatitudeDegrees>
              <LongitudeDegrees>-4.06857856549322605133056640625</LongitudeDegrees>
            </Position>
            <AltitudeMeters>1165</AltitudeMeters>
            <DistanceMeters>204.25258773501</DistanceMeters>
          </Trackpoint>
          <Trackpoint>
            <Time>2018-12-30T09:03:04.000Z</Time>
            <Position>
              <LatitudeDegrees>40.73640690185129642486572265625</LatitudeDegrees>
              <LongitudeDegrees>-4.0685798227787017822265625</LongitudeDegrees>
            </Position>
            <AltitudeMeters>1165.199951171875</AltitudeMeters>
            <DistanceMeters>205.39290830745</DistanceMeters>
          </Trackpoint>
          <Trackpoint>
            <Time>2018-12-30T09:03:05.000Z</Time>
            <Position>
              <LatitudeDegrees>40.73640036396682262420654296875</LatitudeDegrees>
              <LongitudeDegrees>-4.06858225353062152862548828125</LongitudeDegrees>
            </Position>
            <AltitudeMeters>1165</AltitudeMeters>
            <DistanceMeters>206.15312202241</DistanceMeters>
          </Trackpoint>
          <Trackpoint>
            <Time>2018-12-30T09:03:06.000Z</Time>
            <Position>
              <LatitudeDegrees>40.73639332316815853118896484375</LatitudeDegrees>
              <LongitudeDegrees>-4.0685880370438098907470703125</LongitudeDegrees>
            </Position>
            <AltitudeMeters>1165.199951171875</AltitudeMeters>
            <DistanceMeters>207.07444020074</DistanceMeters>
          </Trackpoint>
          <Trackpoint>
            <Time>2018-12-30T09:03:07.000Z</Time>
            <Position>
              <LatitudeDegrees>40.73638645000755786895751953125</LatitudeDegrees>
              <LongitudeDegrees>-4.0685934014618396759033203125</LongitudeDegrees>
            </Position>
            <AltitudeMeters>1165.199951171875</AltitudeMeters>
            <DistanceMeters>207.96586979811</DistanceMeters>
          </Trackpoint>
          <Trackpoint>
            <Time>2018-12-30T09:03:08.000Z</Time>
            <Position>
              <LatitudeDegrees>40.736381001770496368408203125</LatitudeDegrees>
              <LongitudeDegrees>-4.0685980953276157379150390625</LongitudeDegrees>
            </Position>
            <AltitudeMeters>1165.199951171875</AltitudeMeters>
            <DistanceMeters>208.68957169375</DistanceMeters>
          </Trackpoint>
          <Trackpoint>
            <Time>2018-12-30T09:03:09.000Z</Time>
            <Position>
              <LatitudeDegrees>40.7363841868937015533447265625</LatitudeDegrees>
              <LongitudeDegrees>-4.06860035844147205352783203125</LongitudeDegrees>
            </Position>
            <AltitudeMeters>1165.199951171875</AltitudeMeters>
            <DistanceMeters>209.0927358985</DistanceMeters>
          </Trackpoint>
          <Trackpoint>
            <Time>2018-12-30T09:03:10.000Z</Time>
            <Position>
              <LatitudeDegrees>40.73639097623527050018310546875</LatitudeDegrees>
              <LongitudeDegrees>-4.0686031244695186614990234375</LongitudeDegrees>
            </Position>
            <AltitudeMeters>1165.199951171875</AltitudeMeters>
            <DistanceMeters>209.87634625971</DistanceMeters>
          </Trackpoint>
          <Trackpoint>
            <Time>2018-12-30T09:03:11.000Z</Time>
            <Position>
              <LatitudeDegrees>40.73639583773910999298095703125</LatitudeDegrees>
              <LongitudeDegrees>-4.06860672868788242340087890625</LongitudeDegrees>
            </Position>
            <AltitudeMeters>1165.4000244140625</AltitudeMeters>
            <DistanceMeters>210.49218975496</DistanceMeters>
          </Trackpoint>
          <Trackpoint>
            <Time>2018-12-30T09:03:12.000Z</Time>
            <Position>
              <LatitudeDegrees>40.73640656657516956329345703125</LatitudeDegrees>
              <LongitudeDegrees>-4.06861326657235622406005859375</LongitudeDegrees>
            </Position>
            <AltitudeMeters>1165.800048828125</AltitudeMeters>
            <DistanceMeters>211.80891853388</DistanceMeters>
          </Trackpoint>
          <Trackpoint>
            <Time>2018-12-30T09:03:13.000Z</Time>
            <Position>
              <LatitudeDegrees>40.7364177145063877105712890625</LatitudeDegrees>
              <LongitudeDegrees>-4.0686188824474811553955078125</LongitudeDegrees>
            </Position>
            <AltitudeMeters>1166.199951171875</AltitudeMeters>
            <DistanceMeters>213.13929253506</DistanceMeters>
          </Trackpoint>
          <Trackpoint>
            <Time>2018-12-30T09:03:14.000Z</Time>
            <Position>
              <LatitudeDegrees>40.7364316284656524658203125</LatitudeDegrees>
              <LongitudeDegrees>-4.06862617470324039459228515625</LongitudeDegrees>
            </Position>
            <AltitudeMeters>1166.4000244140625</AltitudeMeters>
            <DistanceMeters>214.80700460396</DistanceMeters>
          </Trackpoint>
          <Trackpoint>
            <Time>2018-12-30T09:03:15.000Z</Time>
            <Position>
              <LatitudeDegrees>40.7364368252456188201904296875</LatitudeDegrees>
              <LongitudeDegrees>-4.06862885691225528717041015625</LongitudeDegrees>
            </Position>
            <AltitudeMeters>1166.4000244140625</AltitudeMeters>
            <DistanceMeters>215.42284809921</DistanceMeters>
          </Trackpoint>
          <Trackpoint>
            <Time>2018-12-30T09:03:16.000Z</Time>
            <Position>
              <LatitudeDegrees>40.73644948191940784454345703125</LatitudeDegrees>
              <LongitudeDegrees>-4.06863640062510967254638671875</LongitudeDegrees>
            </Position>
            <AltitudeMeters>1166.5999755859375</AltitudeMeters>
            <DistanceMeters>216.96977093428</DistanceMeters>
          </Trackpoint>
          <Trackpoint>
            <Time>2018-12-30T09:03:17.000Z</Time>
            <Position>
              <LatitudeDegrees>40.73645853437483310699462890625</LatitudeDegrees>
              <LongitudeDegrees>-4.06864159740507602691650390625</LongitudeDegrees>
            </Position>
            <AltitudeMeters>1167</AltitudeMeters>
            <DistanceMeters>218.06154476186</DistanceMeters>
          </Trackpoint>
          <Trackpoint>
            <Time>2018-12-30T09:03:18.000Z</Time>
            <Position>
              <LatitudeDegrees>40.73646758683025836944580078125</LatitudeDegrees>
              <LongitudeDegrees>-4.06864763237535953521728515625</LongitudeDegrees>
            </Position>
            <AltitudeMeters>1167.4000244140625</AltitudeMeters>
            <DistanceMeters>219.1899244757</DistanceMeters>
          </Trackpoint>
          <Trackpoint>
            <Time>2018-12-30T09:03:19.000Z</Time>
            <Position>
              <LatitudeDegrees>40.7364783994853496551513671875</LatitudeDegrees>
              <LongitudeDegrees>-4.06865199096500873565673828125</LongitudeDegrees>
            </Position>
            <AltitudeMeters>1167.800048828125</AltitudeMeters>
            <DistanceMeters>220.4505963022</DistanceMeters>
          </Trackpoint>
          <Trackpoint>
            <Time>2018-12-30T09:03:20.000Z</Time>
            <Position>
              <LatitudeDegrees>40.7364852726459503173828125</LatitudeDegrees>
              <LongitudeDegrees>-4.06865769065916538238525390625</LongitudeDegrees>
            </Position>
            <AltitudeMeters>1168</AltitudeMeters>
            <DistanceMeters>221.35209887011</DistanceMeters>
          </Trackpoint>
          <Trackpoint>
            <Time>2018-12-30T09:03:21.000Z</Time>
            <Position>
              <LatitudeDegrees>40.7364931516349315643310546875</LatitudeDegrees>
              <LongitudeDegrees>-4.06866137869656085968017578125</LongitudeDegrees>
            </Position>
            <AltitudeMeters>1168</AltitudeMeters>
            <DistanceMeters>222.28316671867</DistanceMeters>
          </Trackpoint>
          <Trackpoint>
            <Time>2018-12-30T09:03:22.000Z</Time>
            <Position>
              <LatitudeDegrees>40.7364998571574687957763671875</LatitudeDegrees>
              <LongitudeDegrees>-4.06866204924881458282470703125</LongitudeDegrees>
            </Position>
            <AltitudeMeters>1168</AltitudeMeters>
            <DistanceMeters>223.03140781586</DistanceMeters>
          </Trackpoint>
          <Trackpoint>
            <Time>2018-12-30T09:03:23.000Z</Time>
            <Position>
              <LatitudeDegrees>40.73650740087032318115234375</LatitudeDegrees>
              <LongitudeDegrees>-4.068660624325275421142578125</LongitudeDegrees>
            </Position>
            <AltitudeMeters>1168</AltitudeMeters>
            <DistanceMeters>223.8813525879</DistanceMeters>
          </Trackpoint>
          <Trackpoint>
            <Time>2018-12-30T09:03:24.000Z</Time>
            <Position>
              <LatitudeDegrees>40.73651854880154132843017578125</LatitudeDegrees>
              <LongitudeDegrees>-4.06866070814430713653564453125</LongitudeDegrees>
            </Position>
            <AltitudeMeters>1168.199951171875</AltitudeMeters>
            <DistanceMeters>225.12398812253</DistanceMeters>
          </Trackpoint>
          <Trackpoint>
            <Time>2018-12-30T09:03:25.000Z</Time>
            <Position>
              <LatitudeDegrees>40.73652827180922031402587890625</LatitudeDegrees>
              <LongitudeDegrees>-4.06865961849689483642578125</LongitudeDegrees>
            </Position>
            <AltitudeMeters>1168.4000244140625</AltitudeMeters>
            <DistanceMeters>226.21161858098</DistanceMeters>
          </Trackpoint>
          <Trackpoint>
            <Time>2018-12-30T09:03:26.000Z</Time>
            <Position>
              <LatitudeDegrees>40.7365397550165653228759765625</LatitudeDegrees>
              <LongitudeDegrees>-4.06866095960140228271484375</LongitudeDegrees>
            </Position>
            <AltitudeMeters>1168.5999755859375</AltitudeMeters>
            <DistanceMeters>227.49359904605</DistanceMeters>
          </Trackpoint>
          <Trackpoint>
            <Time>2018-12-30T09:03:27.000Z</Time>
            <Position>
              <LatitudeDegrees>40.73654537089169025421142578125</LatitudeDegrees>
              <LongitudeDegrees>-4.068662635982036590576171875</LongitudeDegrees>
            </Position>
            <AltitudeMeters>1168.5999755859375</AltitudeMeters>
            <DistanceMeters>228.13810158011</DistanceMeters>
          </Trackpoint>
          <Trackpoint>
            <Time>2018-12-30T09:03:28.000Z</Time>
            <Position>
              <LatitudeDegrees>40.7365508191287517547607421875</LatitudeDegrees>
              <LongitudeDegrees>-4.06866422854363918304443359375</LongitudeDegrees>
            </Position>
            <AltitudeMeters>1168.5999755859375</AltitudeMeters>
            <DistanceMeters>228.75394507537</DistanceMeters>
          </Trackpoint>
          <Trackpoint>
            <Time>2018-12-30T09:03:29.000Z</Time>
            <Position>
              <LatitudeDegrees>40.736556351184844970703125</LatitudeDegrees>
              <LongitudeDegrees>-4.0686648152768611907958984375</LongitudeDegrees>
            </Position>
            <AltitudeMeters>1168.5999755859375</AltitudeMeters>
            <DistanceMeters>229.36978857062</DistanceMeters>
          </Trackpoint>
          <Trackpoint>
            <Time>2018-12-30T09:03:30.000Z</Time>
            <Position>
              <LatitudeDegrees>40.73656347580254077911376953125</LatitudeDegrees>
              <LongitudeDegrees>-4.06866489909589290618896484375</LongitudeDegrees>
            </Position>
            <AltitudeMeters>1168.4000244140625</AltitudeMeters>
            <DistanceMeters>230.16483910428</DistanceMeters>
          </Trackpoint>
          <Trackpoint>
            <Time>2018-12-30T09:03:31.000Z</Time>
            <Position>
              <LatitudeDegrees>40.7365711033344268798828125</LatitudeDegrees>
              <LongitudeDegrees>-4.06866959296166896820068359375</LongitudeDegrees>
            </Position>
            <AltitudeMeters>1168.4000244140625</AltitudeMeters>
            <DistanceMeters>231.09590695284</DistanceMeters>
          </Trackpoint>
          <Trackpoint>
            <Time>2018-12-30T09:03:32.000Z</Time>
            <Position>
              <LatitudeDegrees>40.73657671920955181121826171875</LatitudeDegrees>
              <LongitudeDegrees>-4.06867411918938159942626953125</LongitudeDegrees>
            </Position>
            <AltitudeMeters>1168.199951171875</AltitudeMeters>
            <DistanceMeters>231.82582099586</DistanceMeters>
          </Trackpoint>
          <Trackpoint>
            <Time>2018-12-30T09:03:33.000Z</Time>
            <Position>
              <LatitudeDegrees>40.73658392764627933502197265625</LatitudeDegrees>
              <LongitudeDegrees>-4.0686785615980625152587890625</LongitudeDegrees>
            </Position>
            <AltitudeMeters>1168</AltitudeMeters>
            <DistanceMeters>232.71217118096</DistanceMeters>
          </Trackpoint>
          <Trackpoint>
            <Time>2018-12-30T09:03:34.000Z</Time>
            <Position>
              <LatitudeDegrees>40.73659582994878292083740234375</LatitudeDegrees>
              <LongitudeDegrees>-4.06868350692093372344970703125</LongitudeDegrees>
            </Position>
            <AltitudeMeters>1168</AltitudeMeters>
            <DistanceMeters>234.10229216814</DistanceMeters>
          </Trackpoint>
          <Trackpoint>
            <Time>2018-12-30T09:03:35.000Z</Time>
            <Position>
              <LatitudeDegrees>40.73660706169903278350830078125</LatitudeDegrees>
              <LongitudeDegrees>-4.06869088299572467803955078125</LongitudeDegrees>
            </Position>
            <AltitudeMeters>1168.199951171875</AltitudeMeters>
            <DistanceMeters>235.49889394098</DistanceMeters>
          </Trackpoint>
          <Trackpoint>
            <Time>2018-12-30T09:03:36.000Z</Time>
            <Position>
              <LatitudeDegrees>40.7366188801825046539306640625</LatitudeDegrees>
              <LongitudeDegrees>-4.06869809143245220184326171875</LongitudeDegrees>
            </Position>
            <AltitudeMeters>1168.800048828125</AltitudeMeters>
            <DistanceMeters>236.94629773225</DistanceMeters>
          </Trackpoint>
          <Trackpoint>
            <Time>2018-12-30T09:03:37.000Z</Time>
            <Position>
              <LatitudeDegrees>40.73663346469402313232421875</LatitudeDegrees>
              <LongitudeDegrees>-4.06870680861175060272216796875</LongitudeDegrees>
            </Position>
            <AltitudeMeters>1169</AltitudeMeters>
            <DistanceMeters>238.729156927</DistanceMeters>
          </Trackpoint>
          <Trackpoint>
            <Time>2018-12-30T09:03:38.000Z</Time>
            <Position>
              <LatitudeDegrees>40.73664595372974872589111328125</LatitudeDegrees>
              <LongitudeDegrees>-4.0687139332294464111328125</LongitudeDegrees>
            </Position>
            <AltitudeMeters>1169</AltitudeMeters>
            <DistanceMeters>240.24661186643</DistanceMeters>
          </Trackpoint>
          <Trackpoint>
            <Time>2018-12-30T09:03:39.000Z</Time>
            <Position>
              <LatitudeDegrees>40.736659280955791473388671875</LatitudeDegrees>
              <LongitudeDegrees>-4.06871921382844448089599609375</LongitudeDegrees>
            </Position>
            <AltitudeMeters>1169</AltitudeMeters>
            <DistanceMeters>241.7964506755</DistanceMeters>
          </Trackpoint>
          <Trackpoint>
            <Time>2018-12-30T09:03:40.000Z</Time>
            <Position>
              <LatitudeDegrees>40.73666908778250217437744140625</LatitudeDegrees>
              <LongitudeDegrees>-4.0687248297035694122314453125</LongitudeDegrees>
            </Position>
            <AltitudeMeters>1169.199951171875</AltitudeMeters>
            <DistanceMeters>242.98333395757</DistanceMeters>
          </Trackpoint>
          <Trackpoint>
            <Time>2018-12-30T09:03:41.000Z</Time>
            <Position>
              <LatitudeDegrees>40.7366799004375934600830078125</LatitudeDegrees>
              <LongitudeDegrees>-4.06873011030256748199462890625</LongitudeDegrees>
            </Position>
            <AltitudeMeters>1169</AltitudeMeters>
            <DistanceMeters>244.26531442263</DistanceMeters>
          </Trackpoint>
          <Trackpoint>
            <Time>2018-12-30T09:03:42.000Z</Time>
            <Position>
              <LatitudeDegrees>40.73669339530169963836669921875</LatitudeDegrees>
              <LongitudeDegrees>-4.06873513944447040557861328125</LongitudeDegrees>
            </Position>
            <AltitudeMeters>1169</AltitudeMeters>
            <DistanceMeters>245.82965157181</DistanceMeters>
          </Trackpoint>
          <Trackpoint>
            <Time>2018-12-30T09:03:43.000Z</Time>
            <Position>
              <LatitudeDegrees>40.73670714162290096282958984375</LatitudeDegrees>
              <LongitudeDegrees>-4.068742431700229644775390625</LongitudeDegrees>
            </Position>
            <AltitudeMeters>1169</AltitudeMeters>
            <DistanceMeters>247.47830344823</DistanceMeters>
          </Trackpoint>
          <Trackpoint>
            <Time>2018-12-30T09:03:44.000Z</Time>
            <Position>
              <LatitudeDegrees>40.73672206141054630279541015625</LatitudeDegrees>
              <LongitudeDegrees>-4.06874871812760829925537109375</LongitudeDegrees>
            </Position>
            <AltitudeMeters>1169</AltitudeMeters>
            <DistanceMeters>249.2201718948</DistanceMeters>
          </Trackpoint>
          <Trackpoint>
            <Time>2018-12-30T09:03:45.000Z</Time>
            <Position>
              <LatitudeDegrees>40.73673647828400135040283203125</LatitudeDegrees>
              <LongitudeDegrees>-4.068755172193050384521484375</LongitudeDegrees>
            </Position>
            <AltitudeMeters>1169.199951171875</AltitudeMeters>
            <DistanceMeters>250.91474095778</DistanceMeters>
          </Trackpoint>
          <Trackpoint>
            <Time>2018-12-30T09:03:46.000Z</Time>
            <Position>
              <LatitudeDegrees>40.7367526553571224212646484375</LatitudeDegrees>
              <LongitudeDegrees>-4.06876045279204845428466796875</LongitudeDegrees>
            </Position>
            <AltitudeMeters>1169.199951171875</AltitudeMeters>
            <DistanceMeters>252.76958842459</DistanceMeters>
          </Trackpoint>
          <Trackpoint>
            <Time>2018-12-30T09:03:47.000Z</Time>
            <Position>
              <LatitudeDegrees>40.73676598258316516876220703125</LatitudeDegrees>
              <LongitudeDegrees>-4.0687667392194271087646484375</LongitudeDegrees>
            </Position>
            <AltitudeMeters>1169.199951171875</AltitudeMeters>
            <DistanceMeters>254.34829077099</DistanceMeters>
          </Trackpoint>
          <Trackpoint>
            <Time>2018-12-30T09:03:48.000Z</Time>
            <Position>
              <LatitudeDegrees>40.7367774657905101776123046875</LatitudeDegrees>
              <LongitudeDegrees>-4.06877235509455204010009765625</LongitudeDegrees>
            </Position>
            <AltitudeMeters>1169.4000244140625</AltitudeMeters>
            <DistanceMeters>255.7121807033</DistanceMeters>
          </Trackpoint>
          <Trackpoint>
            <Time>2018-12-30T09:03:49.000Z</Time>
            <Position>
              <LatitudeDegrees>40.73678945191204547882080078125</LatitudeDegrees>
              <LongitudeDegrees>-4.06877897679805755615234375</LongitudeDegrees>
            </Position>
            <AltitudeMeters>1169.5999755859375</AltitudeMeters>
            <DistanceMeters>257.15958449457</DistanceMeters>
          </Trackpoint>
          <Trackpoint>
            <Time>2018-12-30T09:03:50.000Z</Time>
            <Position>
              <LatitudeDegrees>40.73680252768099308013916015625</LatitudeDegrees>
              <LongitudeDegrees>-4.0687875263392925262451171875</LongitudeDegrees>
            </Position>
            <AltitudeMeters>1169.800048828125</AltitudeMeters>
            <DistanceMeters>258.78340170154</DistanceMeters>
          </Trackpoint>
          <Trackpoint>
            <Time>2018-12-30T09:03:51.000Z</Time>
            <Position>
              <LatitudeDegrees>40.73681451380252838134765625</LatitudeDegrees>
              <LongitudeDegrees>-4.06879364512860774993896484375</LongitudeDegrees>
            </Position>
            <AltitudeMeters>1170</AltitudeMeters>
            <DistanceMeters>260.21512351557</DistanceMeters>
          </Trackpoint>
          <Trackpoint>
            <Time>2018-12-30T09:03:52.000Z</Time>
            <Position>
              <LatitudeDegrees>40.73682658374309539794921875</LatitudeDegrees>
              <LongitudeDegrees>-4.0687979198992252349853515625</LongitudeDegrees>
            </Position>
            <AltitudeMeters>1170.199951171875</AltitudeMeters>
            <DistanceMeters>261.60524450276</DistanceMeters>
          </Trackpoint>
          <Trackpoint>
            <Time>2018-12-30T09:03:53.000Z</Time>
            <Position>
              <LatitudeDegrees>40.73683521710336208343505859375</LatitudeDegrees>
              <LongitudeDegrees>-4.06880219466984272003173828125</LongitudeDegrees>
            </Position>
            <AltitudeMeters>1170.199951171875</AltitudeMeters>
            <DistanceMeters>262.62871353868</DistanceMeters>
          </Trackpoint>
          <Trackpoint>
            <Time>2018-12-30T09:03:54.000Z</Time>
            <Position>
              <LatitudeDegrees>40.7368492148816585540771484375</LatitudeDegrees>
              <LongitudeDegrees>-4.0688059665262699127197265625</LongitudeDegrees>
            </Position>
            <AltitudeMeters>1170.4000244140625</AltitudeMeters>
            <DistanceMeters>264.21881460601</DistanceMeters>
          </Trackpoint>
          <Trackpoint>
            <Time>2018-12-30T09:03:55.000Z</Time>
            <Position>
              <LatitudeDegrees>40.736864469945430755615234375</LatitudeDegrees>
              <LongitudeDegrees>-4.06880923546850681304931640625</LongitudeDegrees>
            </Position>
            <AltitudeMeters>1170.4000244140625</AltitudeMeters>
            <DistanceMeters>265.93982160007</DistanceMeters>
          </Trackpoint>
          <Trackpoint>
            <Time>2018-12-30T09:03:56.000Z</Time>
            <Position>
              <LatitudeDegrees>40.73687754571437835693359375</LatitudeDegrees>
              <LongitudeDegrees>-4.06881929375231266021728515625</LongitudeDegrees>
            </Position>
            <AltitudeMeters>1170.4000244140625</AltitudeMeters>
            <DistanceMeters>267.62369926885</DistanceMeters>
          </Trackpoint>
          <Trackpoint>
            <Time>2018-12-30T09:03:57.000Z</Time>
            <Position>
              <LatitudeDegrees>40.73689229786396026611328125</LatitudeDegrees>
              <LongitudeDegrees>-4.068828262388706207275390625</LongitudeDegrees>
            </Position>
            <AltitudeMeters>1170.4000244140625</AltitudeMeters>
            <DistanceMeters>269.42920684187</DistanceMeters>
          </Trackpoint>
          <Trackpoint>
            <Time>2018-12-30T09:03:58.000Z</Time>
            <Position>
              <LatitudeDegrees>40.7369062118232250213623046875</LatitudeDegrees>
              <LongitudeDegrees>-4.0688374824821949005126953125</LongitudeDegrees>
            </Position>
            <AltitudeMeters>1170.4000244140625</AltitudeMeters>
            <DistanceMeters>271.1606759809</DistanceMeters>
          </Trackpoint>
          <Trackpoint>
            <Time>2018-12-30T09:03:59.000Z</Time>
            <Position>
              <LatitudeDegrees>40.73691844940185546875</LatitudeDegrees>
              <LongitudeDegrees>-4.0688468702137470245361328125</LongitudeDegrees>
            </Position>
            <AltitudeMeters>1170.5999755859375</AltitudeMeters>
            <DistanceMeters>272.73364799134</DistanceMeters>
          </Trackpoint>
          <Trackpoint>
            <Time>2018-12-30T09:04:00.000Z</Time>
            <Position>
              <LatitudeDegrees>40.7369303517043590545654296875</LatitudeDegrees>
              <LongitudeDegrees>-4.06885215081274509429931640625</LongitudeDegrees>
            </Position>
            <AltitudeMeters>1170.5999755859375</AltitudeMeters>
            <DistanceMeters>274.13024976418</DistanceMeters>
          </Trackpoint>
          <Trackpoint>
            <Time>2018-12-30T09:04:01.000Z</Time>
            <Position>
              <LatitudeDegrees>40.7369417510926723480224609375</LatitudeDegrees>
              <LongitudeDegrees>-4.0688565932214260101318359375</LongitudeDegrees>
            </Position>
            <AltitudeMeters>1170.800048828125</AltitudeMeters>
            <DistanceMeters>275.45381873863</DistanceMeters>
          </Trackpoint>
          <Trackpoint>
            <Time>2018-12-30T09:04:02.000Z</Time>
            <Position>
              <LatitudeDegrees>40.7369538210332393646240234375</LatitudeDegrees>
              <LongitudeDegrees>-4.06886120326817035675048828125</LongitudeDegrees>
            </Position>
            <AltitudeMeters>1170.800048828125</AltitudeMeters>
            <DistanceMeters>276.85042051147</DistanceMeters>
          </Trackpoint>
          <Trackpoint>
            <Time>2018-12-30T09:04:03.000Z</Time>
            <Position>
              <LatitudeDegrees>40.73696429841220378875732421875</LatitudeDegrees>
              <LongitudeDegrees>-4.068868160247802734375</LongitudeDegrees>
            </Position>
            <AltitudeMeters>1171</AltitudeMeters>
            <DistanceMeters>278.15336117453</DistanceMeters>
          </Trackpoint>
          <Trackpoint>
            <Time>2018-12-30T09:04:04.000Z</Time>
            <Position>
              <LatitudeDegrees>40.7369756139814853668212890625</LatitudeDegrees>
              <LongitudeDegrees>-4.0688746981322765350341796875</LongitudeDegrees>
            </Position>
            <AltitudeMeters>1171</AltitudeMeters>
            <DistanceMeters>279.53042909342</DistanceMeters>
          </Trackpoint>
          <Trackpoint>
            <Time>2018-12-30T09:04:05.000Z</Time>
            <Position>
              <LatitudeDegrees>40.73698726482689380645751953125</LatitudeDegrees>
              <LongitudeDegrees>-4.0688820742070674896240234375</LongitudeDegrees>
            </Position>
            <AltitudeMeters>1171</AltitudeMeters>
            <DistanceMeters>280.97158057127</DistanceMeters>
          </Trackpoint>
          <Trackpoint>
            <Time>2018-12-30T09:04:06.000Z</Time>
            <Position>
              <LatitudeDegrees>40.73699581436812877655029296875</LatitudeDegrees>
              <LongitudeDegrees>-4.06888903118669986724853515625</LongitudeDegrees>
            </Position>
            <AltitudeMeters>1171.199951171875</AltitudeMeters>
            <DistanceMeters>282.08789170589</DistanceMeters>
          </Trackpoint>
          <Trackpoint>
            <Time>2018-12-30T09:04:07.000Z</Time>
            <Position>
              <LatitudeDegrees>40.7370021007955074310302734375</LatitudeDegrees>
              <LongitudeDegrees>-4.0688968263566493988037109375</LongitudeDegrees>
            </Position>
            <AltitudeMeters>1171</AltitudeMeters>
            <DistanceMeters>283.04761447694</DistanceMeters>
          </Trackpoint>
          <Trackpoint>
            <Time>2018-12-30T09:04:08.000Z</Time>
            <Position>
              <LatitudeDegrees>40.7370114885270595550537109375</LatitudeDegrees>
              <LongitudeDegrees>-4.06890680082142353057861328125</LongitudeDegrees>
            </Position>
            <AltitudeMeters>1171</AltitudeMeters>
            <DistanceMeters>284.38813124757</DistanceMeters>
          </Trackpoint>
          <Trackpoint>
            <Time>2018-12-30T09:04:09.000Z</Time>
            <Position>
              <LatitudeDegrees>40.73702096007764339447021484375</LatitudeDegrees>
              <LongitudeDegrees>-4.06891467981040477752685546875</LongitudeDegrees>
            </Position>
            <AltitudeMeters>1171</AltitudeMeters>
            <DistanceMeters>285.63439492287</DistanceMeters>
          </Trackpoint>
          <Trackpoint>
            <Time>2018-12-30T09:04:10.000Z</Time>
            <Position>
              <LatitudeDegrees>40.73702330701053142547607421875</LatitudeDegrees>
              <LongitudeDegrees>-4.06892373226583003997802734375</LongitudeDegrees>
            </Position>
            <AltitudeMeters>1171.199951171875</AltitudeMeters>
            <DistanceMeters>286.4351042506</DistanceMeters>
          </Trackpoint>
          <Trackpoint>
            <Time>2018-12-30T09:04:11.000Z</Time>
            <Position>
              <LatitudeDegrees>40.7370275817811489105224609375</LatitudeDegrees>
              <LongitudeDegrees>-4.06893295235931873321533203125</LongitudeDegrees>
            </Position>
            <AltitudeMeters>1171.4000244140625</AltitudeMeters>
            <DistanceMeters>287.34656847527</DistanceMeters>
          </Trackpoint>
          <Trackpoint>
            <Time>2018-12-30T09:04:12.000Z</Time>
            <Position>
              <LatitudeDegrees>40.7370342873036861419677734375</LatitudeDegrees>
              <LongitudeDegrees>-4.06894284300506114959716796875</LongitudeDegrees>
            </Position>
            <AltitudeMeters>1171.5999755859375</AltitudeMeters>
            <DistanceMeters>288.46287960988</DistanceMeters>
          </Trackpoint>
          <Trackpoint>
            <Time>2018-12-30T09:04:13.000Z</Time>
            <Position>
              <LatitudeDegrees>40.7370413281023502349853515625</LatitudeDegrees>
              <LongitudeDegrees>-4.06895491294562816619873046875</LongitudeDegrees>
            </Position>
            <AltitudeMeters>1171.800048828125</AltitudeMeters>
            <DistanceMeters>289.75188467802</DistanceMeters>
          </Trackpoint>
          <Trackpoint>
            <Time>2018-12-30T09:04:14.000Z</Time>
            <Position>
              <LatitudeDegrees>40.73705113492906093597412109375</LatitudeDegrees>
              <LongitudeDegrees>-4.0689662285149097442626953125</LongitudeDegrees>
            </Position>
            <AltitudeMeters>1172</AltitudeMeters>
            <DistanceMeters>291.20551389068</DistanceMeters>
          </Trackpoint>
          <Trackpoint>
            <Time>2018-12-30T09:04:15.000Z</Time>
            <Position>
              <LatitudeDegrees>40.73706035502254962921142578125</LatitudeDegrees>
              <LongitudeDegrees>-4.068981148302555084228515625</LongitudeDegrees>
            </Position>
            <AltitudeMeters>1172</AltitudeMeters>
            <DistanceMeters>292.82654820407</DistanceMeters>
          </Trackpoint>
          <Trackpoint>
            <Time>2018-12-30T09:04:16.000Z</Time>
            <Position>
              <LatitudeDegrees>40.737067647278308868408203125</LatitudeDegrees>
              <LongitudeDegrees>-4.06899414025247097015380859375</LongitudeDegrees>
            </Position>
            <AltitudeMeters>1172.199951171875</AltitudeMeters>
            <DistanceMeters>294.19043813638</DistanceMeters>
          </Trackpoint>
          <Trackpoint>
            <Time>2018-12-30T09:04:17.000Z</Time>
            <Position>
              <LatitudeDegrees>40.7370748557150363922119140625</LatitudeDegrees>
              <LongitudeDegrees>-4.0689990855753421783447265625</LongitudeDegrees>
            </Position>
            <AltitudeMeters>1172.199951171875</AltitudeMeters>
            <DistanceMeters>295.09693521657</DistanceMeters>
          </Trackpoint>
          <Trackpoint>
            <Time>2018-12-30T09:04:18.000Z</Time>
            <Position>
              <LatitudeDegrees>40.73707829229533672332763671875</LatitudeDegrees>
              <LongitudeDegrees>-4.06901098787784576416015625</LongitudeDegrees>
            </Position>
            <AltitudeMeters>1172.4000244140625</AltitudeMeters>
            <DistanceMeters>296.17203976257</DistanceMeters>
          </Trackpoint>
          <Trackpoint>
            <Time>2018-12-30T09:04:19.000Z</Time>
            <Position>
              <LatitudeDegrees>40.7370829023420810699462890625</LatitudeDegrees>
              <LongitudeDegrees>-4.06902515329420566558837890625</LongitudeDegrees>
            </Position>
            <AltitudeMeters>1172.5999755859375</AltitudeMeters>
            <DistanceMeters>297.47151053755</DistanceMeters>
          </Trackpoint>
          <Trackpoint>
            <Time>2018-12-30T09:04:20.000Z</Time>
            <Position>
              <LatitudeDegrees>40.73708818294107913970947265625</LatitudeDegrees>
              <LongitudeDegrees>-4.0690384805202484130859375</LongitudeDegrees>
            </Position>
            <AltitudeMeters>1172.800048828125</AltitudeMeters>
            <DistanceMeters>298.73932503779</DistanceMeters>
          </Trackpoint>
          <Trackpoint>
            <Time>2018-12-30T09:04:21.000Z</Time>
            <Position>
              <LatitudeDegrees>40.7370976544916629791259765625</LatitudeDegrees>
              <LongitudeDegrees>-4.06905231066048145294189453125</LongitudeDegrees>
            </Position>
            <AltitudeMeters>1173</AltitudeMeters>
            <DistanceMeters>300.31229704823</DistanceMeters>
          </Trackpoint>
          <Trackpoint>
            <Time>2018-12-30T09:04:22.000Z</Time>
            <Position>
              <LatitudeDegrees>40.73710444383323192596435546875</LatitudeDegrees>
              <LongitudeDegrees>-4.0690641291439533233642578125</LongitudeDegrees>
            </Position>
            <AltitudeMeters>1173</AltitudeMeters>
            <DistanceMeters>301.56578550101</DistanceMeters>
          </Trackpoint>
          <Trackpoint>
            <Time>2018-12-30T09:04:23.000Z</Time>
            <Position>
              <LatitudeDegrees>40.737106539309024810791015625</LatitudeDegrees>
              <LongitudeDegrees>-4.06907326541841030120849609375</LongitudeDegrees>
            </Position>
            <AltitudeMeters>1173</AltitudeMeters>
            <DistanceMeters>302.37211391051</DistanceMeters>
          </Trackpoint>
          <Trackpoint>
            <Time>2018-12-30T09:04:24.000Z</Time>
            <Position>
              <LatitudeDegrees>40.73711366392672061920166015625</LatitudeDegrees>
              <LongitudeDegrees>-4.06907896511256694793701171875</LongitudeDegrees>
            </Position>
            <AltitudeMeters>1172.800048828125</AltitudeMeters>
            <DistanceMeters>303.30801850771</DistanceMeters>
          </Trackpoint>
          <Trackpoint>
            <Time>2018-12-30T09:04:25.000Z</Time>
            <Position>
              <LatitudeDegrees>40.7371174357831478118896484375</LatitudeDegrees>
              <LongitudeDegrees>-4.06908617354929447174072265625</LongitudeDegrees>
            </Position>
            <AltitudeMeters>1172.800048828125</AltitudeMeters>
            <DistanceMeters>304.0562596049</DistanceMeters>
          </Trackpoint>
          <Trackpoint>
            <Time>2018-12-30T09:04:26.000Z</Time>
            <Position>
              <LatitudeDegrees>40.73711936362087726593017578125</LatitudeDegrees>
              <LongitudeDegrees>-4.06909338198602199554443359375</LongitudeDegrees>
            </Position>
            <AltitudeMeters>1172.800048828125</AltitudeMeters>
            <DistanceMeters>304.70076213897</DistanceMeters>
          </Trackpoint>
          <Trackpoint>
            <Time>2018-12-30T09:04:27.000Z</Time>
            <Position>
              <LatitudeDegrees>40.73712439276278018951416015625</LatitudeDegrees>
              <LongitudeDegrees>-4.06909774057567119598388671875</LongitudeDegrees>
            </Position>
            <AltitudeMeters>1172.5999755859375</AltitudeMeters>
            <DistanceMeters>305.37270248022</DistanceMeters>
          </Trackpoint>
          <Trackpoint>
            <Time>2018-12-30T09:04:28.000Z</Time>
            <Position>
              <LatitudeDegrees>40.73713830672204494476318359375</LatitudeDegrees>
              <LongitudeDegrees>-4.06909991987049579620361328125</LongitudeDegrees>
            </Position>
            <AltitudeMeters>1172.5999755859375</AltitudeMeters>
            <DistanceMeters>306.93125647782</DistanceMeters>
          </Trackpoint>
          <Trackpoint>
            <Time>2018-12-30T09:04:29.000Z</Time>
            <Position>
              <LatitudeDegrees>40.73715247213840484619140625</LatitudeDegrees>
              <LongitudeDegrees>-4.06910218298435211181640625</LongitudeDegrees>
            </Position>
            <AltitudeMeters>1172.4000244140625</AltitudeMeters>
            <DistanceMeters>308.52135754514</DistanceMeters>
          </Trackpoint>
          <Trackpoint>
            <Time>2018-12-30T09:04:30.000Z</Time>
            <Position>
              <LatitudeDegrees>40.73716864921152591705322265625</LatitudeDegrees>
              <LongitudeDegrees>-4.0691033564507961273193359375</LongitudeDegrees>
            </Position>
            <AltitudeMeters>1172.199951171875</AltitudeMeters>
            <DistanceMeters>310.32436268097</DistanceMeters>
          </Trackpoint>
          <Trackpoint>
            <Time>2018-12-30T09:04:31.000Z</Time>
            <Position>
              <LatitudeDegrees>40.7371866703033447265625</LatitudeDegrees>
              <LongitudeDegrees>-4.06910662539303302764892578125</LongitudeDegrees>
            </Position>
            <AltitudeMeters>1172.4000244140625</AltitudeMeters>
            <DistanceMeters>312.34912308792</DistanceMeters>
          </Trackpoint>
          <Trackpoint>
            <Time>2018-12-30T09:04:32.000Z</Time>
            <Position>
              <LatitudeDegrees>40.73720234446227550506591796875</LatitudeDegrees>
              <LongitudeDegrees>-4.0691150911152362823486328125</LongitudeDegrees>
            </Position>
            <AltitudeMeters>1172.5999755859375</AltitudeMeters>
            <DistanceMeters>314.23295430183</DistanceMeters>
          </Trackpoint>
          <Trackpoint>
            <Time>2018-12-30T09:04:33.000Z</Time>
            <Position>
              <LatitudeDegrees>40.7372119836509227752685546875</LatitudeDegrees>
              <LongitudeDegrees>-4.06912037171423435211181640625</LongitudeDegrees>
            </Position>
            <AltitudeMeters>1172.5999755859375</AltitudeMeters>
            <DistanceMeters>315.39678911252</DistanceMeters>
          </Trackpoint>
          <Trackpoint>
            <Time>2018-12-30T09:04:34.000Z</Time>
            <Position>
              <LatitudeDegrees>40.73722933419048786163330078125</LatitudeDegrees>
              <LongitudeDegrees>-4.06912221573293209075927734375</LongitudeDegrees>
            </Position>
            <AltitudeMeters>1172.5999755859375</AltitudeMeters>
            <DistanceMeters>317.33496139606</DistanceMeters>
          </Trackpoint>
          <Trackpoint>
            <Time>2018-12-30T09:04:35.000Z</Time>
            <Position>
              <LatitudeDegrees>40.73724559508264064788818359375</LatitudeDegrees>
              <LongitudeDegrees>-4.06912338919937610626220703125</LongitudeDegrees>
            </Position>
            <AltitudeMeters>1172.5999755859375</AltitudeMeters>
            <DistanceMeters>319.14546346708</DistanceMeters>
          </Trackpoint>
          <Trackpoint>
            <Time>2018-12-30T09:04:36.000Z</Time>
            <Position>
              <LatitudeDegrees>40.7372619397938251495361328125</LatitudeDegrees>
              <LongitudeDegrees>-4.06912229955196380615234375</LongitudeDegrees>
            </Position>
            <AltitudeMeters>1172.800048828125</AltitudeMeters>
            <DistanceMeters>320.96591342655</DistanceMeters>
          </Trackpoint>
          <Trackpoint>
            <Time>2018-12-30T09:04:37.000Z</Time>
            <Position>
              <LatitudeDegrees>40.7372750155627727508544921875</LatitudeDegrees>
              <LongitudeDegrees>-4.06912657432258129119873046875</LongitudeDegrees>
            </Position>
            <AltitudeMeters>1172.800048828125</AltitudeMeters>
            <DistanceMeters>322.46239562093</DistanceMeters>
          </Trackpoint>
          <Trackpoint>
            <Time>2018-12-30T09:04:38.000Z</Time>
            <Position>
              <LatitudeDegrees>40.7372941263020038604736328125</LatitudeDegrees>
              <LongitudeDegrees>-4.0691323578357696533203125</LongitudeDegrees>
            </Position>
            <AltitudeMeters>1172.800048828125</AltitudeMeters>
            <DistanceMeters>324.64387454266</DistanceMeters>
          </Trackpoint>
          <Trackpoint>
            <Time>2018-12-30T09:04:39.000Z</Time>
            <Position>
              <LatitudeDegrees>40.73730845935642719268798828125</LatitudeDegrees>
              <LongitudeDegrees>-4.0691385604441165924072265625</LongitudeDegrees>
            </Position>
            <AltitudeMeters>1172.800048828125</AltitudeMeters>
            <DistanceMeters>326.32238097712</DistanceMeters>
          </Trackpoint>
          <Trackpoint>
            <Time>2018-12-30T09:04:40.000Z</Time>
            <Position>
              <LatitudeDegrees>40.7373165898025035858154296875</LatitudeDegrees>
              <LongitudeDegrees>-4.06914241611957550048828125</LongitudeDegrees>
            </Position>
            <AltitudeMeters>1172.800048828125</AltitudeMeters>
            <DistanceMeters>327.28210374818</DistanceMeters>
          </Trackpoint>
          <Trackpoint>
            <Time>2018-12-30T09:04:41.000Z</Time>
            <Position>
              <LatitudeDegrees>40.737325809895992279052734375</LatitudeDegrees>
              <LongitudeDegrees>-4.06914568506181240081787109375</LongitudeDegrees>
            </Position>
            <AltitudeMeters>1173</AltitudeMeters>
            <DistanceMeters>328.34027645575</DistanceMeters>
          </Trackpoint>
          <Trackpoint>
            <Time>2018-12-30T09:04:42.000Z</Time>
            <Position>
              <LatitudeDegrees>40.7373380474746227264404296875</LatitudeDegrees>
              <LongitudeDegrees>-4.069151468575000762939453125</LongitudeDegrees>
            </Position>
            <AltitudeMeters>1173.199951171875</AltitudeMeters>
            <DistanceMeters>329.7814279336</DistanceMeters>
          </Trackpoint>
          <Trackpoint>
            <Time>2018-12-30T09:04:43.000Z</Time>
            <Position>
              <LatitudeDegrees>40.7373417355120182037353515625</LatitudeDegrees>
              <LongitudeDegrees>-4.06916446052491664886474609375</LongitudeDegrees>
            </Position>
            <AltitudeMeters>1173.199951171875</AltitudeMeters>
            <DistanceMeters>330.95299595104</DistanceMeters>
          </Trackpoint>
          <Trackpoint>
            <Time>2018-12-30T09:04:44.000Z</Time>
            <Position>
              <LatitudeDegrees>40.737347267568111419677734375</LatitudeDegrees>
              <LongitudeDegrees>-4.06917820684611797332763671875</LongitudeDegrees>
            </Position>
            <AltitudeMeters>1173.4000244140625</AltitudeMeters>
            <DistanceMeters>332.26972472996</DistanceMeters>
          </Trackpoint>
          <Trackpoint>
            <Time>2018-12-30T09:04:45.000Z</Time>
            <Position>
              <LatitudeDegrees>40.7373491115868091583251953125</LatitudeDegrees>
              <LongitudeDegrees>-4.06918893568217754364013671875</LongitudeDegrees>
            </Position>
            <AltitudeMeters>1173.4000244140625</AltitudeMeters>
            <DistanceMeters>333.20079257852</DistanceMeters>
          </Trackpoint>
          <Trackpoint>
            <Time>2018-12-30T09:04:46.000Z</Time>
            <Position>
              <LatitudeDegrees>40.73736176826059818267822265625</LatitudeDegrees>
              <LongitudeDegrees>-4.06919362954795360565185546875</LongitudeDegrees>
            </Position>
            <AltitudeMeters>1173.4000244140625</AltitudeMeters>
            <DistanceMeters>334.66371025126</DistanceMeters>
          </Trackpoint>
          <Trackpoint>
            <Time>2018-12-30T09:04:47.000Z</Time>
            <Position>
              <LatitudeDegrees>40.73736973106861114501953125</LatitudeDegrees>
              <LongitudeDegrees>-4.06919597648084163665771484375</LongitudeDegrees>
            </Position>
            <AltitudeMeters>1173.4000244140625</AltitudeMeters>
            <DistanceMeters>335.58011469761</DistanceMeters>
          </Trackpoint>
          <Trackpoint>
            <Time>2018-12-30T09:04:48.000Z</Time>
            <Position>
              <LatitudeDegrees>40.73738657869398593902587890625</LatitudeDegrees>
              <LongitudeDegrees>-4.069195725023746490478515625</LongitudeDegrees>
            </Position>
            <AltitudeMeters>1173.4000244140625</AltitudeMeters>
            <DistanceMeters>337.45674194166</DistanceMeters>
          </Trackpoint>
          <Trackpoint>
            <Time>2018-12-30T09:04:49.000Z</Time>
            <Position>
              <LatitudeDegrees>40.73741524480283260345458984375</LatitudeDegrees>
              <LongitudeDegrees>-4.06918977387249469757080078125</LongitudeDegrees>
            </Position>
            <AltitudeMeters>1173.199951171875</AltitudeMeters>
            <DistanceMeters>340.68765023024</DistanceMeters>
          </Trackpoint>
          <Trackpoint>
            <Time>2018-12-30T09:04:50.000Z</Time>
            <Position>
              <LatitudeDegrees>40.73742748238146305084228515625</LatitudeDegrees>
              <LongitudeDegrees>-4.06918725930154323577880859375</LongitudeDegrees>
            </Position>
            <AltitudeMeters>1173.199951171875</AltitudeMeters>
            <DistanceMeters>342.06799298828</DistanceMeters>
          </Trackpoint>
          <Trackpoint>
            <Time>2018-12-30T09:04:51.000Z</Time>
            <Position>
              <LatitudeDegrees>40.73743343353271484375</LatitudeDegrees>
              <LongitudeDegrees>-4.06918273307383060455322265625</LongitudeDegrees>
            </Position>
            <AltitudeMeters>1173.199951171875</AltitudeMeters>
            <DistanceMeters>342.82820670324</DistanceMeters>
          </Trackpoint>
          <Trackpoint>
            <Time>2018-12-30T09:04:52.000Z</Time>
            <Position>
              <LatitudeDegrees>40.73744173161685466766357421875</LatitudeDegrees>
              <LongitudeDegrees>-4.06918223015964031219482421875</LongitudeDegrees>
            </Position>
            <AltitudeMeters>1173.199951171875</AltitudeMeters>
            <DistanceMeters>343.74952488158</DistanceMeters>
          </Trackpoint>
          <Trackpoint>
            <Time>2018-12-30T09:04:53.000Z</Time>
            <Position>
              <LatitudeDegrees>40.7374614290893077850341796875</LatitudeDegrees>
              <LongitudeDegrees>-4.0691779553890228271484375</LongitudeDegrees>
            </Position>
            <AltitudeMeters>1173.199951171875</AltitudeMeters>
            <DistanceMeters>345.96998018138</DistanceMeters>
          </Trackpoint>
          <Trackpoint>
            <Time>2018-12-30T09:04:54.000Z</Time>
            <Position>
              <LatitudeDegrees>40.73747559450566768646240234375</LatitudeDegrees>
              <LongitudeDegrees>-4.06916613690555095672607421875</LongitudeDegrees>
            </Position>
            <AltitudeMeters>1173.5999755859375</AltitudeMeters>
            <DistanceMeters>347.83695889239</DistanceMeters>
          </Trackpoint>
          <Trackpoint>
            <Time>2018-12-30T09:04:55.000Z</Time>
            <Position>
              <LatitudeDegrees>40.7374919392168521881103515625</LatitudeDegrees>
              <LongitudeDegrees>-4.06916094012558460235595703125</LongitudeDegrees>
            </Position>
            <AltitudeMeters>1173.800048828125</AltitudeMeters>
            <DistanceMeters>349.70876808679</DistanceMeters>
          </Trackpoint>
          <Trackpoint>
            <Time>2018-12-30T09:04:56.000Z</Time>
            <Position>
              <LatitudeDegrees>40.737492777407169342041015625</LatitudeDegrees>
              <LongitudeDegrees>-4.0691466070711612701416015625</LongitudeDegrees>
            </Position>
            <AltitudeMeters>1174</AltitudeMeters>
            <DistanceMeters>350.92570380276</DistanceMeters>
          </Trackpoint>
          <Trackpoint>
            <Time>2018-12-30T09:04:57.000Z</Time>
            <Position>
              <LatitudeDegrees>40.737504847347736358642578125</LatitudeDegrees>
              <LongitudeDegrees>-4.0691395662724971771240234375</LongitudeDegrees>
            </Position>
            <AltitudeMeters>1174</AltitudeMeters>
            <DistanceMeters>352.39478115611</DistanceMeters>
          </Trackpoint>
          <Trackpoint>
            <Time>2018-12-30T09:04:58.000Z</Time>
            <Position>
              <LatitudeDegrees>40.73752286843955516815185546875</LatitudeDegrees>
              <LongitudeDegrees>-4.06913311220705509185791015625</LongitudeDegrees>
            </Position>
            <AltitudeMeters>1174.199951171875</AltitudeMeters>
            <DistanceMeters>354.47454234832</DistanceMeters>
          </Trackpoint>
          <Trackpoint>
            <Time>2018-12-30T09:04:59.000Z</Time>
            <Position>
              <LatitudeDegrees>40.73755237273871898651123046875</LatitudeDegrees>
              <LongitudeDegrees>-4.069127328693866729736328125</LongitudeDegrees>
            </Position>
            <AltitudeMeters>1174.4000244140625</AltitudeMeters>
            <DistanceMeters>357.79504281332</DistanceMeters>
          </Trackpoint>
          <Trackpoint>
            <Time>2018-12-30T09:05:00.000Z</Time>
            <Position>
              <LatitudeDegrees>40.73756477795541286468505859375</LatitudeDegrees>
              <LongitudeDegrees>-4.06912540085613727569580078125</LongitudeDegrees>
            </Position>
            <AltitudeMeters>1174.5999755859375</AltitudeMeters>
            <DistanceMeters>359.18840796125</DistanceMeters>
          </Trackpoint>
          <Trackpoint>
            <Time>2018-12-30T09:05:01.000Z</Time>
            <Position>
              <LatitudeDegrees>40.737581960856914520263671875</LatitudeDegrees>
              <LongitudeDegrees>-4.0691238082945346832275390625</LongitudeDegrees>
            </Position>
            <AltitudeMeters>1174.5999755859375</AltitudeMeters>
            <DistanceMeters>361.10549979856</DistanceMeters>
          </Trackpoint>
          <Trackpoint>
            <Time>2018-12-30T09:05:02.000Z</Time>
            <Position>
              <LatitudeDegrees>40.7375962100923061370849609375</LatitudeDegrees>
              <LongitudeDegrees>-4.0691149234771728515625</LongitudeDegrees>
            </Position>
            <AltitudeMeters>1174.5999755859375</AltitudeMeters>
            <DistanceMeters>362.85770583409</DistanceMeters>
          </Trackpoint>
          <Trackpoint>
            <Time>2018-12-30T09:05:03.000Z</Time>
            <Position>
              <LatitudeDegrees>40.7376029156148433685302734375</LatitudeDegrees>
              <LongitudeDegrees>-4.06911198981106281280517578125</LongitudeDegrees>
            </Position>
            <AltitudeMeters>1174.5999755859375</AltitudeMeters>
            <DistanceMeters>363.6413161953</DistanceMeters>
          </Trackpoint>
          <Trackpoint>
            <Time>2018-12-30T09:05:04.000Z</Time>
            <Position>
              <LatitudeDegrees>40.73761490173637866973876953125</LatitudeDegrees>
              <LongitudeDegrees>-4.0691028535366058349609375</LongitudeDegrees>
            </Position>
            <AltitudeMeters>1174.5999755859375</AltitudeMeters>
            <DistanceMeters>365.18239052989</DistanceMeters>
          </Trackpoint>
          <Trackpoint>
            <Time>2018-12-30T09:05:05.000Z</Time>
            <Position>
              <LatitudeDegrees>40.73762680403888225555419921875</LatitudeDegrees>
              <LongitudeDegrees>-4.069101512432098388671875</LongitudeDegrees>
            </Position>
            <AltitudeMeters>1174.5999755859375</AltitudeMeters>
            <DistanceMeters>366.50936637993</DistanceMeters>
          </Trackpoint>
          <Trackpoint>
            <Time>2018-12-30T09:05:06.000Z</Time>
            <Position>
              <LatitudeDegrees>40.7376361079514026641845703125</LatitudeDegrees>
              <LongitudeDegrees>-4.06909287907183170318603515625</LongitudeDegrees>
            </Position>
            <AltitudeMeters>1174.5999755859375</AltitudeMeters>
            <DistanceMeters>367.77718088017</DistanceMeters>
          </Trackpoint>
          <Trackpoint>
            <Time>2018-12-30T09:05:07.000Z</Time>
            <Position>
              <LatitudeDegrees>40.737643651664257049560546875</LatitudeDegrees>
              <LongitudeDegrees>-4.0690889395773410797119140625</LongitudeDegrees>
            </Position>
            <AltitudeMeters>1174.5999755859375</AltitudeMeters>
            <DistanceMeters>368.67868344808</DistanceMeters>
          </Trackpoint>
          <Trackpoint>
            <Time>2018-12-30T09:05:08.000Z</Time>
            <Position>
              <LatitudeDegrees>40.7376501895487308502197265625</LatitudeDegrees>
              <LongitudeDegrees>-4.0690859220921993255615234375</LongitudeDegrees>
            </Position>
            <AltitudeMeters>1174.5999755859375</AltitudeMeters>
            <DistanceMeters>369.45068412509</DistanceMeters>
          </Trackpoint>
          <Trackpoint>
            <Time>2018-12-30T09:05:09.000Z</Time>
            <Position>
              <LatitudeDegrees>40.73765262030065059661865234375</LatitudeDegrees>
              <LongitudeDegrees>-4.0690751932561397552490234375</LongitudeDegrees>
            </Position>
            <AltitudeMeters>1174.5999755859375</AltitudeMeters>
            <DistanceMeters>370.39140060284</DistanceMeters>
          </Trackpoint>
          <Trackpoint>
            <Time>2018-12-30T09:05:10.000Z</Time>
            <Position>
              <LatitudeDegrees>40.7376552186906337738037109375</LatitudeDegrees>
              <LongitudeDegrees>-4.06907192431390285491943359375</LongitudeDegrees>
            </Position>
            <AltitudeMeters>1174.800048828125</AltitudeMeters>
            <DistanceMeters>370.79456480759</DistanceMeters>
          </Trackpoint>
          <Trackpoint>
            <Time>2018-12-30T09:05:11.000Z</Time>
            <Position>
              <LatitudeDegrees>40.73766016401350498199462890625</LatitudeDegrees>
              <LongitudeDegrees>-4.06907460652291774749755859375</LongitudeDegrees>
            </Position>
            <AltitudeMeters>1174.800048828125</AltitudeMeters>
            <DistanceMeters>371.39556651953</DistanceMeters>
          </Trackpoint>
          <Trackpoint>
            <Time>2018-12-30T09:05:12.000Z</Time>
            <Position>
              <LatitudeDegrees>40.737666450440883636474609375</LatitudeDegrees>
              <LongitudeDegrees>-4.0690731815993785858154296875</LongitudeDegrees>
            </Position>
            <AltitudeMeters>1175</AltitudeMeters>
            <DistanceMeters>372.10668133506</DistanceMeters>
          </Trackpoint>
          <Trackpoint>
            <Time>2018-12-30T09:05:13.000Z</Time>
            <Position>
              <LatitudeDegrees>40.7376827113330364227294921875</LatitudeDegrees>
              <LongitudeDegrees>-4.06907544471323490142822265625</LongitudeDegrees>
            </Position>
            <AltitudeMeters>1175</AltitudeMeters>
            <DistanceMeters>373.92713129453</DistanceMeters>
          </Trackpoint>
          <Trackpoint>
            <Time>2018-12-30T09:05:14.000Z</Time>
            <Position>
              <LatitudeDegrees>40.7376974634826183319091796875</LatitudeDegrees>
              <LongitudeDegrees>-4.069074355065822601318359375</LongitudeDegrees>
            </Position>
            <AltitudeMeters>1175</AltitudeMeters>
            <DistanceMeters>375.57304226818</DistanceMeters>
          </Trackpoint>
          <Trackpoint>
            <Time>2018-12-30T09:05:15.000Z</Time>
            <Position>
              <LatitudeDegrees>40.73771615512669086456298828125</LatitudeDegrees>
              <LongitudeDegrees>-4.06907670199871063232421875</LongitudeDegrees>
            </Position>
            <AltitudeMeters>1175</AltitudeMeters>
            <DistanceMeters>377.66362998432</DistanceMeters>
          </Trackpoint>
          <Trackpoint>
            <Time>2018-12-30T09:05:16.000Z</Time>
            <Position>
              <LatitudeDegrees>40.73773845098912715911865234375</LatitudeDegrees>
              <LongitudeDegrees>-4.06907846219837665557861328125</LongitudeDegrees>
            </Position>
            <AltitudeMeters>1175.199951171875</AltitudeMeters>
            <DistanceMeters>380.14890105357</DistanceMeters>
          </Trackpoint>
          <Trackpoint>
            <Time>2018-12-30T09:05:17.000Z</Time>
            <Position>
              <LatitudeDegrees>40.73775420896708965301513671875</LatitudeDegrees>
              <LongitudeDegrees>-4.06907980330288410186767578125</LongitudeDegrees>
            </Position>
            <AltitudeMeters>1175.199951171875</AltitudeMeters>
            <DistanceMeters>381.90625307973</DistanceMeters>
          </Trackpoint>
          <Trackpoint>
            <Time>2018-12-30T09:05:18.000Z</Time>
            <Position>
              <LatitudeDegrees>40.7377802766859531402587890625</LatitudeDegrees>
              <LongitudeDegrees>-4.0690835751593112945556640625</LongitudeDegrees>
            </Position>
            <AltitudeMeters>1175.199951171875</AltitudeMeters>
            <DistanceMeters>384.82281475578</DistanceMeters>
          </Trackpoint>
          <Trackpoint>
            <Time>2018-12-30T09:05:19.000Z</Time>
            <Position>
              <LatitudeDegrees>40.7378117926418781280517578125</LatitudeDegrees>
              <LongitudeDegrees>-4.0690886043012142181396484375</LongitudeDegrees>
            </Position>
            <AltitudeMeters>1175.199951171875</AltitudeMeters>
            <DistanceMeters>388.35545762558</DistanceMeters>
          </Trackpoint>
          <Trackpoint>
            <Time>2018-12-30T09:05:20.000Z</Time>
            <Position>
              <LatitudeDegrees>40.7378322444856166839599609375</LatitudeDegrees>
              <LongitudeDegrees>-4.069089777767658233642578125</LongitudeDegrees>
            </Position>
            <AltitudeMeters>1175</AltitudeMeters>
            <DistanceMeters>390.63213588103</DistanceMeters>
          </Trackpoint>
          <Trackpoint>
            <Time>2018-12-30T09:05:21.000Z</Time>
            <Position>
              <LatitudeDegrees>40.73785009793937206268310546875</LatitudeDegrees>
              <LongitudeDegrees>-4.06908877193927764892578125</LongitudeDegrees>
            </Position>
            <AltitudeMeters>1175.199951171875</AltitudeMeters>
            <DistanceMeters>392.62089767733</DistanceMeters>
          </Trackpoint>
          <Trackpoint>
            <Time>2018-12-30T09:05:22.000Z</Time>
            <Position>
              <LatitudeDegrees>40.7378553785383701324462890625</LatitudeDegrees>
              <LongitudeDegrees>-4.06906991265714168548583984375</LongitudeDegrees>
            </Position>
            <AltitudeMeters>1175.4000244140625</AltitudeMeters>
            <DistanceMeters>394.3154667403</DistanceMeters>
          </Trackpoint>
          <Trackpoint>
            <Time>2018-12-30T09:05:23.000Z</Time>
            <Position>
              <LatitudeDegrees>40.73786652646958827972412109375</LatitudeDegrees>
              <LongitudeDegrees>-4.0690604411065578460693359375</LongitudeDegrees>
            </Position>
            <AltitudeMeters>1175.4000244140625</AltitudeMeters>
            <DistanceMeters>395.79067805499</DistanceMeters>
          </Trackpoint>
          <Trackpoint>
            <Time>2018-12-30T09:05:24.000Z</Time>
            <Position>
              <LatitudeDegrees>40.7378781773149967193603515625</LatitudeDegrees>
              <LongitudeDegrees>-4.0690574236214160919189453125</LongitudeDegrees>
            </Position>
            <AltitudeMeters>1175.5999755859375</AltitudeMeters>
            <DistanceMeters>397.11424702944</DistanceMeters>
          </Trackpoint>
          <Trackpoint>
            <Time>2018-12-30T09:05:25.000Z</Time>
            <Position>
              <LatitudeDegrees>40.73789544403553009033203125</LatitudeDegrees>
              <LongitudeDegrees>-4.06905415467917919158935546875</LongitudeDegrees>
            </Position>
            <AltitudeMeters>1176</AltitudeMeters>
            <DistanceMeters>399.05707279455</DistanceMeters>
          </Trackpoint>
          <Trackpoint>
            <Time>2018-12-30T09:05:26.000Z</Time>
            <Position>
              <LatitudeDegrees>40.7379100285470485687255859375</LatitudeDegrees>
              <LongitudeDegrees>-4.06905264593660831451416015625</LongitudeDegrees>
            </Position>
            <AltitudeMeters>1176.199951171875</AltitudeMeters>
            <DistanceMeters>400.68644152953</DistanceMeters>
          </Trackpoint>
          <Trackpoint>
            <Time>2018-12-30T09:05:27.000Z</Time>
            <Position>
              <LatitudeDegrees>40.73793031275272369384765625</LatitudeDegrees>
              <LongitudeDegrees>-4.069054238498210906982421875</LongitudeDegrees>
            </Position>
            <AltitudeMeters>1176.199951171875</AltitudeMeters>
            <DistanceMeters>402.94719876269</DistanceMeters>
          </Trackpoint>
          <Trackpoint>
            <Time>2018-12-30T09:05:28.000Z</Time>
            <Position>
              <LatitudeDegrees>40.73794648982584476470947265625</LatitudeDegrees>
              <LongitudeDegrees>-4.06905314885079860687255859375</LongitudeDegrees>
            </Position>
            <AltitudeMeters>1176.4000244140625</AltitudeMeters>
            <DistanceMeters>404.75020389852</DistanceMeters>
          </Trackpoint>
          <Trackpoint>
            <Time>2018-12-30T09:05:29.000Z</Time>
            <Position>
              <LatitudeDegrees>40.73795311152935028076171875</LatitudeDegrees>
              <LongitudeDegrees>-4.06904309056699275970458984375</LongitudeDegrees>
            </Position>
            <AltitudeMeters>1176.4000244140625</AltitudeMeters>
            <DistanceMeters>405.87858361236</DistanceMeters>
          </Trackpoint>
          <Trackpoint>
            <Time>2018-12-30T09:05:30.000Z</Time>
            <Position>
              <LatitudeDegrees>40.7379526086151599884033203125</LatitudeDegrees>
              <LongitudeDegrees>-4.06902481801807880401611328125</LongitudeDegrees>
            </Position>
            <AltitudeMeters>1176.5999755859375</AltitudeMeters>
            <DistanceMeters>407.42258496637</DistanceMeters>
          </Trackpoint>
          <Trackpoint>
            <Time>2018-12-30T09:05:31.000Z</Time>
            <Position>
              <LatitudeDegrees>40.73796392418444156646728515625</LatitudeDegrees>
              <LongitudeDegrees>-4.06901777721941471099853515625</LongitudeDegrees>
            </Position>
            <AltitudeMeters>1176.800048828125</AltitudeMeters>
            <DistanceMeters>408.81270595355</DistanceMeters>
          </Trackpoint>
          <Trackpoint>
            <Time>2018-12-30T09:05:32.000Z</Time>
            <Position>
              <LatitudeDegrees>40.73797884397208690643310546875</LatitudeDegrees>
              <LongitudeDegrees>-4.069016017019748687744140625</LongitudeDegrees>
            </Position>
            <AltitudeMeters>1176.800048828125</AltitudeMeters>
            <DistanceMeters>410.47770849658</DistanceMeters>
          </Trackpoint>
          <Trackpoint>
            <Time>2018-12-30T09:05:33.000Z</Time>
            <Position>
              <LatitudeDegrees>40.73798437602818012237548828125</LatitudeDegrees>
              <LongitudeDegrees>-4.06900671310722827911376953125</LongitudeDegrees>
            </Position>
            <AltitudeMeters>1176.800048828125</AltitudeMeters>
            <DistanceMeters>411.46981652114</DistanceMeters>
          </Trackpoint>
          <Trackpoint>
            <Time>2018-12-30T09:05:34.000Z</Time>
            <Position>
              <LatitudeDegrees>40.73800046928226947784423828125</LatitudeDegrees>
              <LongitudeDegrees>-4.06900218687951564788818359375</LongitudeDegrees>
            </Position>
            <AltitudeMeters>1176.800048828125</AltitudeMeters>
            <DistanceMeters>413.29769186817</DistanceMeters>
          </Trackpoint>
          <Trackpoint>
            <Time>2018-12-30T09:05:35.000Z</Time>
            <Position>
              <LatitudeDegrees>40.73801815509796142578125</LatitudeDegrees>
              <LongitudeDegrees>-4.06899757683277130126953125</LongitudeDegrees>
            </Position>
            <AltitudeMeters>1177</AltitudeMeters>
            <DistanceMeters>415.30453368904</DistanceMeters>
          </Trackpoint>
          <Trackpoint>
            <Time>2018-12-30T09:05:36.000Z</Time>
            <Position>
              <LatitudeDegrees>40.73802595026791095733642578125</LatitudeDegrees>
              <LongitudeDegrees>-4.068989865481853485107421875</LongitudeDegrees>
            </Position>
            <AltitudeMeters>1176.800048828125</AltitudeMeters>
            <DistanceMeters>416.38800493356</DistanceMeters>
          </Trackpoint>
          <Trackpoint>
            <Time>2018-12-30T09:05:37.000Z</Time>
            <Position>
              <LatitudeDegrees>40.73803466744720935821533203125</LatitudeDegrees>
              <LongitudeDegrees>-4.0689821541309356689453125</LongitudeDegrees>
            </Position>
            <AltitudeMeters>1177</AltitudeMeters>
            <DistanceMeters>417.55183974426</DistanceMeters>
          </Trackpoint>
          <Trackpoint>
            <Time>2018-12-30T09:05:38.000Z</Time>
            <Position>
              <LatitudeDegrees>40.73805235326290130615234375</LatitudeDegrees>
              <LongitudeDegrees>-4.0689769573509693145751953125</LongitudeDegrees>
            </Position>
            <AltitudeMeters>1177</AltitudeMeters>
            <DistanceMeters>419.56541972115</DistanceMeters>
          </Trackpoint>
          <Trackpoint>
            <Time>2018-12-30T09:05:39.000Z</Time>
            <Position>
              <LatitudeDegrees>40.73806886561214923858642578125</LatitudeDegrees>
              <LongitudeDegrees>-4.06897452659904956817626953125</LongitudeDegrees>
            </Position>
            <AltitudeMeters>1177.199951171875</AltitudeMeters>
            <DistanceMeters>421.41539241616</DistanceMeters>
          </Trackpoint>
          <Trackpoint>
            <Time>2018-12-30T09:05:40.000Z</Time>
            <Position>
              <LatitudeDegrees>40.73808110319077968597412109375</LatitudeDegrees>
              <LongitudeDegrees>-4.068966396152973175048828125</LongitudeDegrees>
            </Position>
            <AltitudeMeters>1177.4000244140625</AltitudeMeters>
            <DistanceMeters>422.94174746088</DistanceMeters>
          </Trackpoint>
          <Trackpoint>
            <Time>2018-12-30T09:05:41.000Z</Time>
            <Position>
              <LatitudeDegrees>40.73809954337775707244873046875</LatitudeDegrees>
              <LongitudeDegrees>-4.06896647997200489044189453125</LongitudeDegrees>
            </Position>
            <AltitudeMeters>1177.5999755859375</AltitudeMeters>
            <DistanceMeters>424.99309229363</DistanceMeters>
          </Trackpoint>
          <Trackpoint>
            <Time>2018-12-30T09:05:42.000Z</Time>
            <Position>
              <LatitudeDegrees>40.73809719644486904144287109375</LatitudeDegrees>
              <LongitudeDegrees>-4.068947620689868927001953125</LongitudeDegrees>
            </Position>
            <AltitudeMeters>1177.5999755859375</AltitudeMeters>
            <DistanceMeters>426.60574911263</DistanceMeters>
          </Trackpoint>
          <Trackpoint>
            <Time>2018-12-30T09:05:43.000Z</Time>
            <Position>
              <LatitudeDegrees>40.7381053268909454345703125</LatitudeDegrees>
              <LongitudeDegrees>-4.0689363889396190643310546875</LongitudeDegrees>
            </Position>
            <AltitudeMeters>1177.800048828125</AltitudeMeters>
            <DistanceMeters>427.91560197626</DistanceMeters>
          </Trackpoint>
          <Trackpoint>
            <Time>2018-12-30T09:05:44.000Z</Time>
            <Position>
              <LatitudeDegrees>40.7381152175366878509521484375</LatitudeDegrees>
              <LongitudeDegrees>-4.0689333714544773101806640625</LongitudeDegrees>
            </Position>
            <AltitudeMeters>1177.800048828125</AltitudeMeters>
            <DistanceMeters>429.04797596706</DistanceMeters>
          </Trackpoint>
          <Trackpoint>
            <Time>2018-12-30T09:05:45.000Z</Time>
            <Position>
              <LatitudeDegrees>40.7381235994398593902587890625</LatitudeDegrees>
              <LongitudeDegrees>-4.06893731094896793365478515625</LongitudeDegrees>
            </Position>
            <AltitudeMeters>1178</AltitudeMeters>
            <DistanceMeters>430.04008399162</DistanceMeters>
          </Trackpoint>
          <Trackpoint>
            <Time>2018-12-30T09:05:46.000Z</Time>
            <Position>
              <LatitudeDegrees>40.73813323862850666046142578125</LatitudeDegrees>
              <LongitudeDegrees>-4.0689414180815219879150390625</LongitudeDegrees>
            </Position>
            <AltitudeMeters>1178.199951171875</AltitudeMeters>
            <DistanceMeters>431.17245798242</DistanceMeters>
          </Trackpoint>
          <Trackpoint>
            <Time>2018-12-30T09:05:47.000Z</Time>
            <Position>
              <LatitudeDegrees>40.73815536685287952423095703125</LatitudeDegrees>
              <LongitudeDegrees>-4.0689471177756786346435546875</LongitudeDegrees>
            </Position>
            <AltitudeMeters>1178.199951171875</AltitudeMeters>
            <DistanceMeters>433.68303428237</DistanceMeters>
          </Trackpoint>
          <Trackpoint>
            <Time>2018-12-30T09:05:48.000Z</Time>
            <Position>
              <LatitudeDegrees>40.7381671853363513946533203125</LatitudeDegrees>
              <LongitudeDegrees>-4.06893965788185596466064453125</LongitudeDegrees>
            </Position>
            <AltitudeMeters>1178.4000244140625</AltitudeMeters>
            <DistanceMeters>435.1428623684</DistanceMeters>
          </Trackpoint>
          <Trackpoint>
            <Time>2018-12-30T09:05:49.000Z</Time>
            <Position>
              <LatitudeDegrees>40.738183446228504180908203125</LatitudeDegrees>
              <LongitudeDegrees>-4.068935550749301910400390625</LongitudeDegrees>
            </Position>
            <AltitudeMeters>1178.4000244140625</AltitudeMeters>
            <DistanceMeters>436.98549872507</DistanceMeters>
          </Trackpoint>
          <Trackpoint>
            <Time>2018-12-30T09:05:50.000Z</Time>
            <Position>
              <LatitudeDegrees>40.7381997071206569671630859375</LatitudeDegrees>
              <LongitudeDegrees>-4.068937562406063079833984375</LongitudeDegrees>
            </Position>
            <AltitudeMeters>1178.4000244140625</AltitudeMeters>
            <DistanceMeters>438.80346681569</DistanceMeters>
          </Trackpoint>
          <Trackpoint>
            <Time>2018-12-30T09:05:51.000Z</Time>
            <Position>
              <LatitudeDegrees>40.7382131181657314300537109375</LatitudeDegrees>
              <LongitudeDegrees>-4.06894032843410968780517578125</LongitudeDegrees>
            </Position>
            <AltitudeMeters>1178.4000244140625</AltitudeMeters>
            <DistanceMeters>440.31495923721</DistanceMeters>
          </Trackpoint>
          <Trackpoint>
            <Time>2018-12-30T09:05:52.000Z</Time>
            <Position>
              <LatitudeDegrees>40.73822426609694957733154296875</LatitudeDegrees>
              <LongitudeDegrees>-4.0689477883279323577880859375</LongitudeDegrees>
            </Position>
            <AltitudeMeters>1178.199951171875</AltitudeMeters>
            <DistanceMeters>441.71156101005</DistanceMeters>
          </Trackpoint>
          <Trackpoint>
            <Time>2018-12-30T09:05:53.000Z</Time>
            <Position>
              <LatitudeDegrees>40.7382369227707386016845703125</LatitudeDegrees>
              <LongitudeDegrees>-4.0689511410892009735107421875</LongitudeDegrees>
            </Position>
            <AltitudeMeters>1178</AltitudeMeters>
            <DistanceMeters>443.14957613711</DistanceMeters>
          </Trackpoint>
          <Trackpoint>
            <Time>2018-12-30T09:05:54.000Z</Time>
            <Position>
              <LatitudeDegrees>40.73825125582516193389892578125</LatitudeDegrees>
              <LongitudeDegrees>-4.068956337869167327880859375</LongitudeDegrees>
            </Position>
            <AltitudeMeters>1178</AltitudeMeters>
            <DistanceMeters>444.80096436708</DistanceMeters>
          </Trackpoint>
          <Trackpoint>
            <Time>2018-12-30T09:05:55.000Z</Time>
            <Position>
              <LatitudeDegrees>40.7382694445550441741943359375</LatitudeDegrees>
              <LongitudeDegrees>-4.06895927153527736663818359375</LongitudeDegrees>
            </Position>
            <AltitudeMeters>1177.800048828125</AltitudeMeters>
            <DistanceMeters>446.84127445152</DistanceMeters>
          </Trackpoint>
          <Trackpoint>
            <Time>2018-12-30T09:05:56.000Z</Time>
            <Position>
              <LatitudeDegrees>40.73828461579978466033935546875</LatitudeDegrees>
              <LongitudeDegrees>-4.06895927153527736663818359375</LongitudeDegrees>
            </Position>
            <AltitudeMeters>1177.5999755859375</AltitudeMeters>
            <DistanceMeters>448.53050627584</DistanceMeters>
          </Trackpoint>
          <Trackpoint>
            <Time>2018-12-30T09:05:57.000Z</Time>
            <Position>
              <LatitudeDegrees>40.73830473236739635467529296875</LatitudeDegrees>
              <LongitudeDegrees>-4.06896061263978481292724609375</LongitudeDegrees>
            </Position>
            <AltitudeMeters>1177.4000244140625</AltitudeMeters>
            <DistanceMeters>450.77120315468</DistanceMeters>
          </Trackpoint>
          <Trackpoint>
            <Time>2018-12-30T09:05:58.000Z</Time>
            <Position>
              <LatitudeDegrees>40.7383251003921031951904296875</LatitudeDegrees>
              <LongitudeDegrees>-4.0689615346491336822509765625</LongitudeDegrees>
            </Position>
            <AltitudeMeters>1177.199951171875</AltitudeMeters>
            <DistanceMeters>453.03993486492</DistanceMeters>
          </Trackpoint>
          <Trackpoint>
            <Time>2018-12-30T09:05:59.000Z</Time>
            <Position>
              <LatitudeDegrees>40.73834203183650970458984375</LatitudeDegrees>
              <LongitudeDegrees>-4.06896279193460941314697265625</LongitudeDegrees>
            </Position>
            <AltitudeMeters>1177</AltitudeMeters>
            <DistanceMeters>454.92855345938</DistanceMeters>
          </Trackpoint>
          <Trackpoint>
            <Time>2018-12-30T09:06:00.000Z</Time>
            <Position>
              <LatitudeDegrees>40.7383629865944385528564453125</LatitudeDegrees>
              <LongitudeDegrees>-4.068965725600719451904296875</LongitudeDegrees>
            </Position>
            <AltitudeMeters>1177</AltitudeMeters>
            <DistanceMeters>457.27554017234</DistanceMeters>
          </Trackpoint>
          <Trackpoint>
            <Time>2018-12-30T09:06:01.000Z</Time>
            <Position>
              <LatitudeDegrees>40.73837715201079845428466796875</LatitudeDegrees>
              <LongitudeDegrees>-4.06896647997200489044189453125</LongitudeDegrees>
            </Position>
            <AltitudeMeters>1176.800048828125</AltitudeMeters>
            <DistanceMeters>458.85709990089</DistanceMeters>
          </Trackpoint>
          <Trackpoint>
            <Time>2018-12-30T09:06:02.000Z</Time>
            <Position>
              <LatitudeDegrees>40.73839274235069751739501953125</LatitudeDegrees>
              <LongitudeDegrees>-4.06898022629320621490478515625</LongitudeDegrees>
            </Position>
            <AltitudeMeters>1176.800048828125</AltitudeMeters>
            <DistanceMeters>460.9433637495</DistanceMeters>
          </Trackpoint>
          <Trackpoint>
            <Time>2018-12-30T09:06:03.000Z</Time>
            <Position>
              <LatitudeDegrees>40.73840682394802570343017578125</LatitudeDegrees>
              <LongitudeDegrees>-4.068985842168331146240234375</LongitudeDegrees>
            </Position>
            <AltitudeMeters>1176.5999755859375</AltitudeMeters>
            <DistanceMeters>462.58377917868</DistanceMeters>
          </Trackpoint>
          <Trackpoint>
            <Time>2018-12-30T09:06:04.000Z</Time>
            <Position>
              <LatitudeDegrees>40.73842006735503673553466796875</LatitudeDegrees>
              <LongitudeDegrees>-4.06898056156933307647705078125</LongitudeDegrees>
            </Position>
            <AltitudeMeters>1176.4000244140625</AltitudeMeters>
            <DistanceMeters>464.12485351328</DistanceMeters>
          </Trackpoint>
          <Trackpoint>
            <Time>2018-12-30T09:06:05.000Z</Time>
            <Position>
              <LatitudeDegrees>40.73842492885887622833251953125</LatitudeDegrees>
              <LongitudeDegrees>-4.0689585171639919281005859375</LongitudeDegrees>
            </Position>
            <AltitudeMeters>1176.4000244140625</AltitudeMeters>
            <DistanceMeters>466.06302579682</DistanceMeters>
          </Trackpoint>
          <Trackpoint>
            <Time>2018-12-30T09:06:06.000Z</Time>
            <Position>
              <LatitudeDegrees>40.73843196965754032135009765625</LatitudeDegrees>
              <LongitudeDegrees>-4.06893999315798282623291015625</LongitudeDegrees>
            </Position>
            <AltitudeMeters>1176.4000244140625</AltitudeMeters>
            <DistanceMeters>467.81007068407</DistanceMeters>
          </Trackpoint>
          <Trackpoint>
            <Time>2018-12-30T09:06:07.000Z</Time>
            <Position>
              <LatitudeDegrees>40.73844839818775653839111328125</LatitudeDegrees>
              <LongitudeDegrees>-4.06894016079604625701904296875</LongitudeDegrees>
            </Position>
            <AltitudeMeters>1176.800048828125</AltitudeMeters>
            <DistanceMeters>469.63794603109</DistanceMeters>
          </Trackpoint>
          <Trackpoint>
            <Time>2018-12-30T09:06:08.000Z</Time>
            <Position>
              <LatitudeDegrees>40.7384662516415119171142578125</LatitudeDegrees>
              <LongitudeDegrees>-4.068940244615077972412109375</LongitudeDegrees>
            </Position>
            <AltitudeMeters>1177.4000244140625</AltitudeMeters>
            <DistanceMeters>471.6267078274</DistanceMeters>
          </Trackpoint>
          <Trackpoint>
            <Time>2018-12-30T09:06:09.000Z</Time>
            <Position>
              <LatitudeDegrees>40.7384810037910938262939453125</LatitudeDegrees>
              <LongitudeDegrees>-4.06893529929220676422119140625</LongitudeDegrees>
            </Position>
            <AltitudeMeters>1178</AltitudeMeters>
            <DistanceMeters>473.32127689037</DistanceMeters>
          </Trackpoint>
          <Trackpoint>
            <Time>2018-12-30T09:06:10.000Z</Time>
            <Position>
              <LatitudeDegrees>40.73849785141646862030029296875</LatitudeDegrees>
              <LongitudeDegrees>-4.06893328763544559478759765625</LongitudeDegrees>
            </Position>
            <AltitudeMeters>1178.4000244140625</AltitudeMeters>
            <DistanceMeters>475.20270984587</DistanceMeters>
          </Trackpoint>
          <Trackpoint>
            <Time>2018-12-30T09:06:11.000Z</Time>
            <Position>
              <LatitudeDegrees>40.73851210065186023712158203125</LatitudeDegrees>
              <LongitudeDegrees>-4.068929515779018402099609375</LongitudeDegrees>
            </Position>
            <AltitudeMeters>1178.5999755859375</AltitudeMeters>
            <DistanceMeters>476.82095647996</DistanceMeters>
          </Trackpoint>
          <Trackpoint>
            <Time>2018-12-30T09:06:12.000Z</Time>
            <Position>
              <LatitudeDegrees>40.7385255955159664154052734375</LatitudeDegrees>
              <LongitudeDegrees>-4.06892976723611354827880859375</LongitudeDegrees>
            </Position>
            <AltitudeMeters>1178.4000244140625</AltitudeMeters>
            <DistanceMeters>478.32346075981</DistanceMeters>
          </Trackpoint>
          <Trackpoint>
            <Time>2018-12-30T09:06:13.000Z</Time>
            <Position>
              <LatitudeDegrees>40.7385390065610408782958984375</LatitudeDegrees>
              <LongitudeDegrees>-4.0689290128648281097412109375</LongitudeDegrees>
            </Position>
            <AltitudeMeters>1177.800048828125</AltitudeMeters>
            <DistanceMeters>479.8199429542</DistanceMeters>
          </Trackpoint>
          <Trackpoint>
            <Time>2018-12-30T09:06:14.000Z</Time>
            <Position>
              <LatitudeDegrees>40.7385520823299884796142578125</LatitudeDegrees>
              <LongitudeDegrees>-4.06892716884613037109375</LongitudeDegrees>
            </Position>
            <AltitudeMeters>1177.4000244140625</AltitudeMeters>
            <DistanceMeters>481.27977104023</DistanceMeters>
          </Trackpoint>
          <Trackpoint>
            <Time>2018-12-30T09:06:15.000Z</Time>
            <Position>
              <LatitudeDegrees>40.7385651580989360809326171875</LatitudeDegrees>
              <LongitudeDegrees>-4.06892155297100543975830078125</LongitudeDegrees>
            </Position>
            <AltitudeMeters>1177</AltitudeMeters>
            <DistanceMeters>482.80908127657</DistanceMeters>
          </Trackpoint>
          <Trackpoint>
            <Time>2018-12-30T09:06:16.000Z</Time>
            <Position>
              <LatitudeDegrees>40.7385785691440105438232421875</LatitudeDegrees>
              <LongitudeDegrees>-4.06891987659037113189697265625</LongitudeDegrees>
            </Position>
            <AltitudeMeters>1176.800048828125</AltitudeMeters>
            <DistanceMeters>484.30857753684</DistanceMeters>
          </Trackpoint>
          <Trackpoint>
            <Time>2018-12-30T09:06:17.000Z</Time>
            <Position>
              <LatitudeDegrees>40.73859793134033679962158203125</LatitudeDegrees>
              <LongitudeDegrees>-4.06892440281808376312255859375</LongitudeDegrees>
            </Position>
            <AltitudeMeters>1176.5999755859375</AltitudeMeters>
            <DistanceMeters>486.49625679013</DistanceMeters>
          </Trackpoint>
          <Trackpoint>
            <Time>2018-12-30T09:06:18.000Z</Time>
            <Position>
              <LatitudeDegrees>40.73861167766153812408447265625</LatitudeDegrees>
              <LongitudeDegrees>-4.0689149312674999237060546875</LongitudeDegrees>
            </Position>
            <AltitudeMeters>1176.4000244140625</AltitudeMeters>
            <DistanceMeters>488.2225027826</DistanceMeters>
          </Trackpoint>
          <Trackpoint>
            <Time>2018-12-30T09:06:19.000Z</Time>
            <Position>
              <LatitudeDegrees>40.73861016891896724700927734375</LatitudeDegrees>
              <LongitudeDegrees>-4.0688911266624927520751953125</LongitudeDegrees>
            </Position>
            <AltitudeMeters>1176.4000244140625</AltitudeMeters>
            <DistanceMeters>490.23832380634</DistanceMeters>
          </Trackpoint>
          <Trackpoint>
            <Time>2018-12-30T09:06:20.000Z</Time>
            <Position>
              <LatitudeDegrees>40.7386191375553607940673828125</LatitudeDegrees>
              <LongitudeDegrees>-4.0688844211399555206298828125</LongitudeDegrees>
            </Position>
            <AltitudeMeters>1176.4000244140625</AltitudeMeters>
            <DistanceMeters>491.3865359648</DistanceMeters>
          </Trackpoint>
          <Trackpoint>
            <Time>2018-12-30T09:06:21.000Z</Time>
            <Position>
              <LatitudeDegrees>40.7386291958391666412353515625</LatitudeDegrees>
              <LongitudeDegrees>-4.0688803978264331817626953125</LongitudeDegrees>
            </Position>
            <AltitudeMeters>1176.4000244140625</AltitudeMeters>
            <DistanceMeters>492.55810398223</DistanceMeters>
          </Trackpoint>
          <Trackpoint>
            <Time>2018-12-30T09:06:22.000Z</Time>
            <Position>
              <LatitudeDegrees>40.7386405952274799346923828125</LatitudeDegrees>
              <LongitudeDegrees>-4.06887796707451343536376953125</LongitudeDegrees>
            </Position>
            <AltitudeMeters>1177.199951171875</AltitudeMeters>
            <DistanceMeters>493.84008444729</DistanceMeters>
          </Trackpoint>
          <Trackpoint>
            <Time>2018-12-30T09:06:23.000Z</Time>
            <Position>
              <LatitudeDegrees>40.738653503358364105224609375</LatitudeDegrees>
              <LongitudeDegrees>-4.068875201046466827392578125</LongitudeDegrees>
            </Position>
            <AltitudeMeters>1177.800048828125</AltitudeMeters>
            <DistanceMeters>495.29371365995</DistanceMeters>
          </Trackpoint>
          <Trackpoint>
            <Time>2018-12-30T09:06:24.000Z</Time>
            <Position>
              <LatitudeDegrees>40.73866381309926509857177734375</LatitudeDegrees>
              <LongitudeDegrees>-4.0688720159232616424560546875</LongitudeDegrees>
            </Position>
            <AltitudeMeters>1178.199951171875</AltitudeMeters>
            <DistanceMeters>496.47296417293</DistanceMeters>
          </Trackpoint>
          <Trackpoint>
            <Time>2018-12-30T09:06:25.000Z</Time>
            <Position>
              <LatitudeDegrees>40.73867554776370525360107421875</LatitudeDegrees>
              <LongitudeDegrees>-4.06887209974229335784912109375</LongitudeDegrees>
            </Position>
            <AltitudeMeters>1178.4000244140625</AltitudeMeters>
            <DistanceMeters>497.78281703656</DistanceMeters>
          </Trackpoint>
          <Trackpoint>
            <Time>2018-12-30T09:06:26.000Z</Time>
            <Position>
              <LatitudeDegrees>40.73868476785719394683837890625</LatitudeDegrees>
              <LongitudeDegrees>-4.06887461431324481964111328125</LongitudeDegrees>
            </Position>
            <AltitudeMeters>1178.5999755859375</AltitudeMeters>
            <DistanceMeters>498.83242140305</DistanceMeters>
          </Trackpoint>
          <Trackpoint>
            <Time>2018-12-30T09:06:27.000Z</Time>
            <Position>
              <LatitudeDegrees>40.73869398795068264007568359375</LatitudeDegrees>
              <LongitudeDegrees>-4.0688760392367839813232421875</LongitudeDegrees>
            </Position>
            <AltitudeMeters>1178.800048828125</AltitudeMeters>
            <DistanceMeters>499.86467574205</DistanceMeters>
          </Trackpoint>
          <Trackpoint>
            <Time>2018-12-30T09:06:28.000Z</Time>
            <Position>
              <LatitudeDegrees>40.73870278894901275634765625</LatitudeDegrees>
              <LongitudeDegrees>-4.06887679360806941986083984375</LongitudeDegrees>
            </Position>
            <AltitudeMeters>1178.800048828125</AltitudeMeters>
            <DistanceMeters>500.85222232624</DistanceMeters>
          </Trackpoint>
          <Trackpoint>
            <Time>2018-12-30T09:06:29.000Z</Time>
            <Position>
              <LatitudeDegrees>40.73871217668056488037109375</LatitudeDegrees>
              <LongitudeDegrees>-4.06887528486549854278564453125</LongitudeDegrees>
            </Position>
            <AltitudeMeters>1178.800048828125</AltitudeMeters>
            <DistanceMeters>501.90611957105</DistanceMeters>
          </Trackpoint>
          <Trackpoint>
            <Time>2018-12-30T09:06:30.000Z</Time>
            <Position>
              <LatitudeDegrees>40.738723911345005035400390625</LatitudeDegrees>
              <LongitudeDegrees>-4.0688746981322765350341796875</LongitudeDegrees>
            </Position>
            <AltitudeMeters>1178.800048828125</AltitudeMeters>
            <DistanceMeters>503.20906023411</DistanceMeters>
          </Trackpoint>
          <Trackpoint>
            <Time>2018-12-30T09:06:31.000Z</Time>
            <Position>
              <LatitudeDegrees>40.73873640038073062896728515625</LatitudeDegrees>
              <LongitudeDegrees>-4.06887595541775226593017578125</LongitudeDegrees>
            </Position>
            <AltitudeMeters>1178.800048828125</AltitudeMeters>
            <DistanceMeters>504.59918122129</DistanceMeters>
          </Trackpoint>
          <Trackpoint>
            <Time>2018-12-30T09:06:32.000Z</Time>
            <Position>
              <LatitudeDegrees>40.73875064961612224578857421875</LatitudeDegrees>
              <LongitudeDegrees>-4.06887662597000598907470703125</LongitudeDegrees>
            </Position>
            <AltitudeMeters>1178.800048828125</AltitudeMeters>
            <DistanceMeters>506.18928228862</DistanceMeters>
          </Trackpoint>
          <Trackpoint>
            <Time>2018-12-30T09:06:33.000Z</Time>
            <Position>
              <LatitudeDegrees>40.738763473927974700927734375</LatitudeDegrees>
              <LongitudeDegrees>-4.06887914054095745086669921875</LongitudeDegrees>
            </Position>
            <AltitudeMeters>1178.5999755859375</AltitudeMeters>
            <DistanceMeters>507.63043376647</DistanceMeters>
          </Trackpoint>
          <Trackpoint>
            <Time>2018-12-30T09:06:34.000Z</Time>
            <Position>
              <LatitudeDegrees>40.7387753762304782867431640625</LatitudeDegrees>
              <LongitudeDegrees>-4.06887997873127460479736328125</LongitudeDegrees>
            </Position>
            <AltitudeMeters>1178.800048828125</AltitudeMeters>
            <DistanceMeters>508.96080776765</DistanceMeters>
          </Trackpoint>
          <Trackpoint>
            <Time>2018-12-30T09:06:35.000Z</Time>
            <Position>
              <LatitudeDegrees>40.7387854345142841339111328125</LatitudeDegrees>
              <LongitudeDegrees>-4.0688763745129108428955078125</LongitudeDegrees>
            </Position>
            <AltitudeMeters>1178.800048828125</AltitudeMeters>
            <DistanceMeters>510.11685764274</DistanceMeters>
          </Trackpoint>
          <Trackpoint>
            <Time>2018-12-30T09:06:36.000Z</Time>
            <Position>
              <LatitudeDegrees>40.73879557661712169647216796875</LatitudeDegrees>
              <LongitudeDegrees>-4.06887880526483058929443359375</LongitudeDegrees>
            </Position>
            <AltitudeMeters>1178.800048828125</AltitudeMeters>
            <DistanceMeters>511.2650698012</DistanceMeters>
          </Trackpoint>
          <Trackpoint>
            <Time>2018-12-30T09:06:37.000Z</Time>
            <Position>
              <LatitudeDegrees>40.73880739510059356689453125</LatitudeDegrees>
              <LongitudeDegrees>-4.0688790567219257354736328125</LongitudeDegrees>
            </Position>
            <AltitudeMeters>1178.800048828125</AltitudeMeters>
            <DistanceMeters>512.58179858012</DistanceMeters>
          </Trackpoint>
          <Trackpoint>
            <Time>2018-12-30T09:06:38.000Z</Time>
            <Position>
              <LatitudeDegrees>40.73882038705050945281982421875</LatitudeDegrees>
              <LongitudeDegrees>-4.0688834153115749359130859375</LongitudeDegrees>
            </Position>
            <AltitudeMeters>1178.800048828125</AltitudeMeters>
            <DistanceMeters>514.07526062572</DistanceMeters>
          </Trackpoint>
          <Trackpoint>
            <Time>2018-12-30T09:06:39.000Z</Time>
            <Position>
              <LatitudeDegrees>40.73883178643882274627685546875</LatitudeDegrees>
              <LongitudeDegrees>-4.06888986937701702117919921875</LongitudeDegrees>
            </Position>
            <AltitudeMeters>1179</AltitudeMeters>
            <DistanceMeters>515.45887047178</DistanceMeters>
          </Trackpoint>
          <Trackpoint>
            <Time>2018-12-30T09:06:40.000Z</Time>
            <Position>
              <LatitudeDegrees>40.7388407550752162933349609375</LatitudeDegrees>
              <LongitudeDegrees>-4.06889338977634906768798828125</LongitudeDegrees>
            </Position>
            <AltitudeMeters>1178.800048828125</AltitudeMeters>
            <DistanceMeters>516.4998359723</DistanceMeters>
          </Trackpoint>
          <Trackpoint>
            <Time>2018-12-30T09:06:41.000Z</Time>
            <Position>
              <LatitudeDegrees>40.73884519748389720916748046875</LatitudeDegrees>
              <LongitudeDegrees>-4.0688907913863658905029296875</LongitudeDegrees>
            </Position>
            <AltitudeMeters>1178.800048828125</AltitudeMeters>
            <DistanceMeters>517.0373882453</DistanceMeters>
          </Trackpoint>
          <Trackpoint>
            <Time>2018-12-30T09:06:42.000Z</Time>
            <Position>
              <LatitudeDegrees>40.73885274119675159454345703125</LatitudeDegrees>
              <LongitudeDegrees>-4.06889892183244228363037109375</LongitudeDegrees>
            </Position>
            <AltitudeMeters>1178.800048828125</AltitudeMeters>
            <DistanceMeters>518.12085948983</DistanceMeters>
          </Trackpoint>
          <Trackpoint>
            <Time>2018-12-30T09:06:43.000Z</Time>
            <Position>
              <LatitudeDegrees>40.73886598460376262664794921875</LatitudeDegrees>
              <LongitudeDegrees>-4.06890571117401123046875</LongitudeDegrees>
            </Position>
            <AltitudeMeters>1178.800048828125</AltitudeMeters>
            <DistanceMeters>519.70241921838</DistanceMeters>
          </Trackpoint>
          <Trackpoint>
            <Time>2018-12-30T09:06:44.000Z</Time>
            <Position>
              <LatitudeDegrees>40.73887587524950504302978515625</LatitudeDegrees>
              <LongitudeDegrees>-4.06891174614429473876953125</LongitudeDegrees>
            </Position>
            <AltitudeMeters>1178.800048828125</AltitudeMeters>
            <DistanceMeters>520.91935493435</DistanceMeters>
          </Trackpoint>
          <Trackpoint>
            <Time>2018-12-30T09:06:45.000Z</Time>
            <Position>
              <LatitudeDegrees>40.73888786137104034423828125</LatitudeDegrees>
              <LongitudeDegrees>-4.068911075592041015625</LongitudeDegrees>
            </Position>
            <AltitudeMeters>1178.800048828125</AltitudeMeters>
            <DistanceMeters>522.26323561685</DistanceMeters>
          </Trackpoint>
          <Trackpoint>
            <Time>2018-12-30T09:06:46.000Z</Time>
            <Position>
              <LatitudeDegrees>40.73890437372028827667236328125</LatitudeDegrees>
              <LongitudeDegrees>-4.0689139254391193389892578125</LongitudeDegrees>
            </Position>
            <AltitudeMeters>1178.800048828125</AltitudeMeters>
            <DistanceMeters>524.1156473013</DistanceMeters>
          </Trackpoint>
          <Trackpoint>
            <Time>2018-12-30T09:06:47.000Z</Time>
            <Position>
              <LatitudeDegrees>40.73890529572963714599609375</LatitudeDegrees>
              <LongitudeDegrees>-4.06887779943645000457763671875</LongitudeDegrees>
            </Position>
            <AltitudeMeters>1178.800048828125</AltitudeMeters>
            <DistanceMeters>527.16539790377</DistanceMeters>
          </Trackpoint>
          <Trackpoint>
            <Time>2018-12-30T09:06:48.000Z</Time>
            <Position>
              <LatitudeDegrees>40.73892113752663135528564453125</LatitudeDegrees>
              <LongitudeDegrees>-4.06887260265648365020751953125</LongitudeDegrees>
            </Position>
            <AltitudeMeters>1178.800048828125</AltitudeMeters>
            <DistanceMeters>528.98088073268</DistanceMeters>
          </Trackpoint>
          <Trackpoint>
            <Time>2018-12-30T09:06:49.000Z</Time>
            <Position>
              <LatitudeDegrees>40.73893739841878414154052734375</LatitudeDegrees>
              <LongitudeDegrees>-4.06887193210422992706298828125</LongitudeDegrees>
            </Position>
            <AltitudeMeters>1178.800048828125</AltitudeMeters>
            <DistanceMeters>530.79387489306</DistanceMeters>
          </Trackpoint>
          <Trackpoint>
            <Time>2018-12-30T09:06:50.000Z</Time>
            <Position>
              <LatitudeDegrees>40.73894284665584564208984375</LatitudeDegrees>
              <LongitudeDegrees>-4.06885902397334575653076171875</LongitudeDegrees>
            </Position>
            <AltitudeMeters>1178.800048828125</AltitudeMeters>
            <DistanceMeters>532.04013856836</DistanceMeters>
          </Trackpoint>
          <Trackpoint>
            <Time>2018-12-30T09:06:51.000Z</Time>
            <Position>
              <LatitudeDegrees>40.73895466513931751251220703125</LatitudeDegrees>
              <LongitudeDegrees>-4.068850390613079071044921875</LongitudeDegrees>
            </Position>
            <AltitudeMeters>1178.800048828125</AltitudeMeters>
            <DistanceMeters>533.54264284822</DistanceMeters>
          </Trackpoint>
          <Trackpoint>
            <Time>2018-12-30T09:06:52.000Z</Time>
            <Position>
              <LatitudeDegrees>40.73896757327020168304443359375</LatitudeDegrees>
              <LongitudeDegrees>-4.0688451938331127166748046875</LongitudeDegrees>
            </Position>
            <AltitudeMeters>1179</AltitudeMeters>
            <DistanceMeters>535.04514712807</DistanceMeters>
          </Trackpoint>
          <Trackpoint>
            <Time>2018-12-30T09:06:53.000Z</Time>
            <Position>
              <LatitudeDegrees>40.7389815710484981536865234375</LatitudeDegrees>
              <LongitudeDegrees>-4.0688492171466350555419921875</LongitudeDegrees>
            </Position>
            <AltitudeMeters>1179.199951171875</AltitudeMeters>
            <DistanceMeters>536.64091702289</DistanceMeters>
          </Trackpoint>
          <Trackpoint>
            <Time>2018-12-30T09:06:54.000Z</Time>
            <Position>
              <LatitudeDegrees>40.73899825103580951690673828125</LatitudeDegrees>
              <LongitudeDegrees>-4.06885215081274509429931640625</LongitudeDegrees>
            </Position>
            <AltitudeMeters>1179.199951171875</AltitudeMeters>
            <DistanceMeters>538.51272621729</DistanceMeters>
          </Trackpoint>
          <Trackpoint>
            <Time>2018-12-30T09:06:55.000Z</Time>
            <Position>
              <LatitudeDegrees>40.739013254642486572265625</LatitudeDegrees>
              <LongitudeDegrees>-4.06884712167084217071533203125</LongitudeDegrees>
            </Position>
            <AltitudeMeters>1179.4000244140625</AltitudeMeters>
            <DistanceMeters>540.23635470106</DistanceMeters>
          </Trackpoint>
          <Trackpoint>
            <Time>2018-12-30T09:06:56.000Z</Time>
            <Position>
              <LatitudeDegrees>40.7390268333256244659423828125</LatitudeDegrees>
              <LongitudeDegrees>-4.06884460709989070892333984375</LongitudeDegrees>
            </Position>
            <AltitudeMeters>1179.5999755859375</AltitudeMeters>
            <DistanceMeters>541.76270974578</DistanceMeters>
          </Trackpoint>
          <Trackpoint>
            <Time>2018-12-30T09:06:57.000Z</Time>
            <Position>
              <LatitudeDegrees>40.73903697542846202850341796875</LatitudeDegrees>
              <LongitudeDegrees>-4.06883798539638519287109375</LongitudeDegrees>
            </Position>
            <AltitudeMeters>1179.5999755859375</AltitudeMeters>
            <DistanceMeters>543.01979501643</DistanceMeters>
          </Trackpoint>
          <Trackpoint>
            <Time>2018-12-30T09:06:58.000Z</Time>
            <Position>
              <LatitudeDegrees>40.73904812335968017578125</LatitudeDegrees>
              <LongitudeDegrees>-4.06883639283478260040283203125</LongitudeDegrees>
            </Position>
            <AltitudeMeters>1179.800048828125</AltitudeMeters>
            <DistanceMeters>544.26605869173</DistanceMeters>
          </Trackpoint>
          <Trackpoint>
            <Time>2018-12-30T09:06:59.000Z</Time>
            <Position>
              <LatitudeDegrees>40.73906765319406986236572265625</LatitudeDegrees>
              <LongitudeDegrees>-4.068831615149974822998046875</LongitudeDegrees>
            </Position>
            <AltitudeMeters>1179.800048828125</AltitudeMeters>
            <DistanceMeters>546.47632368855</DistanceMeters>
          </Trackpoint>
          <Trackpoint>
            <Time>2018-12-30T09:07:00.000Z</Time>
            <Position>
              <LatitudeDegrees>40.73908793739974498748779296875</LatitudeDegrees>
              <LongitudeDegrees>-4.06882650218904018402099609375</LongitudeDegrees>
            </Position>
            <AltitudeMeters>1179.800048828125</AltitudeMeters>
            <DistanceMeters>548.77471328122</DistanceMeters>
          </Trackpoint>
          <Trackpoint>
            <Time>2018-12-30T09:07:01.000Z</Time>
            <Position>
              <LatitudeDegrees>40.73910285718739032745361328125</LatitudeDegrees>
              <LongitudeDegrees>-4.0688244067132472991943359375</LongitudeDegrees>
            </Position>
            <AltitudeMeters>1179.800048828125</AltitudeMeters>
            <DistanceMeters>550.44242535012</DistanceMeters>
          </Trackpoint>
          <Trackpoint>
            <Time>2018-12-30T09:07:02.000Z</Time>
            <Position>
              <LatitudeDegrees>40.7391176931560039520263671875</LatitudeDegrees>
              <LongitudeDegrees>-4.06882164068520069122314453125</LongitudeDegrees>
            </Position>
            <AltitudeMeters>1179.5999755859375</AltitudeMeters>
            <DistanceMeters>552.11013741901</DistanceMeters>
          </Trackpoint>
          <Trackpoint>
            <Time>2018-12-30T09:07:03.000Z</Time>
            <Position>
              <LatitudeDegrees>40.7391327805817127227783203125</LatitudeDegrees>
              <LongitudeDegrees>-4.0688207186758518218994140625</LongitudeDegrees>
            </Position>
            <AltitudeMeters>1179.5999755859375</AltitudeMeters>
            <DistanceMeters>553.7913316157</DistanceMeters>
          </Trackpoint>
          <Trackpoint>
            <Time>2018-12-30T09:07:04.000Z</Time>
            <Position>
              <LatitudeDegrees>40.7391522265970706939697265625</LatitudeDegrees>
              <LongitudeDegrees>-4.06882189214229583740234375</LongitudeDegrees>
            </Position>
            <AltitudeMeters>1179.800048828125</AltitudeMeters>
            <DistanceMeters>555.95827410475</DistanceMeters>
          </Trackpoint>
          <Trackpoint>
            <Time>2018-12-30T09:07:05.000Z</Time>
            <Position>
              <LatitudeDegrees>40.73916672728955745697021484375</LatitudeDegrees>
              <LongitudeDegrees>-4.06882130540907382965087890625</LongitudeDegrees>
            </Position>
            <AltitudeMeters>1179.800048828125</AltitudeMeters>
            <DistanceMeters>557.57372824904</DistanceMeters>
          </Trackpoint>
          <Trackpoint>
            <Time>2018-12-30T09:07:06.000Z</Time>
            <Position>
              <LatitudeDegrees>40.73917829431593418121337890625</LatitudeDegrees>
              <LongitudeDegrees>-4.06881795264780521392822265625</LongitudeDegrees>
            </Position>
            <AltitudeMeters>1179.5999755859375</AltitudeMeters>
            <DistanceMeters>558.89388155592</DistanceMeters>
          </Trackpoint>
          <Trackpoint>
            <Time>2018-12-30T09:07:07.000Z</Time>
            <Position>
              <LatitudeDegrees>40.73918935842812061309814453125</LatitudeDegrees>
              <LongitudeDegrees>-4.06881862320005893707275390625</LongitudeDegrees>
            </Position>
            <AltitudeMeters>1179.5999755859375</AltitudeMeters>
            <DistanceMeters>560.12556854643</DistanceMeters>
          </Trackpoint>
          <Trackpoint>
            <Time>2018-12-30T09:07:08.000Z</Time>
            <Position>
              <LatitudeDegrees>40.73920360766351222991943359375</LatitudeDegrees>
              <LongitudeDegrees>-4.06882398761808872222900390625</LongitudeDegrees>
            </Position>
            <AltitudeMeters>1179.4000244140625</AltitudeMeters>
            <DistanceMeters>561.77422042285</DistanceMeters>
          </Trackpoint>
          <Trackpoint>
            <Time>2018-12-30T09:07:09.000Z</Time>
            <Position>
              <LatitudeDegrees>40.739217437803745269775390625</LatitudeDegrees>
              <LongitudeDegrees>-4.0688321180641651153564453125</LongitudeDegrees>
            </Position>
            <AltitudeMeters>1179.4000244140625</AltitudeMeters>
            <DistanceMeters>563.45809809163</DistanceMeters>
          </Trackpoint>
          <Trackpoint>
            <Time>2018-12-30T09:07:10.000Z</Time>
            <Position>
              <LatitudeDegrees>40.73923026211559772491455078125</LatitudeDegrees>
              <LongitudeDegrees>-4.068838655948638916015625</LongitudeDegrees>
            </Position>
            <AltitudeMeters>1179.199951171875</AltitudeMeters>
            <DistanceMeters>564.99035782008</DistanceMeters>
          </Trackpoint>
          <Trackpoint>
            <Time>2018-12-30T09:07:11.000Z</Time>
            <Position>
              <LatitudeDegrees>40.73924618773162364959716796875</LatitudeDegrees>
              <LongitudeDegrees>-4.06885181553661823272705078125</LongitudeDegrees>
            </Position>
            <AltitudeMeters>1179.199951171875</AltitudeMeters>
            <DistanceMeters>567.08094553622</DistanceMeters>
          </Trackpoint>
          <Trackpoint>
            <Time>2018-12-30T09:07:12.000Z</Time>
            <Position>
              <LatitudeDegrees>40.73926161043345928192138671875</LatitudeDegrees>
              <LongitudeDegrees>-4.06885550357401371002197265625</LongitudeDegrees>
            </Position>
            <AltitudeMeters>1179</AltitudeMeters>
            <DistanceMeters>568.82540412318</DistanceMeters>
          </Trackpoint>
          <Trackpoint>
            <Time>2018-12-30T09:07:13.000Z</Time>
            <Position>
              <LatitudeDegrees>40.739275105297565460205078125</LatitudeDegrees>
              <LongitudeDegrees>-4.068855084478855133056640625</LongitudeDegrees>
            </Position>
            <AltitudeMeters>1179</AltitudeMeters>
            <DistanceMeters>570.32490038344</DistanceMeters>
          </Trackpoint>
          <Trackpoint>
            <Time>2018-12-30T09:07:14.000Z</Time>
            <Position>
              <LatitudeDegrees>40.7392890192568302154541015625</LatitudeDegrees>
              <LongitudeDegrees>-4.06885206699371337890625</LongitudeDegrees>
            </Position>
            <AltitudeMeters>1179</AltitudeMeters>
            <DistanceMeters>571.89212110585</DistanceMeters>
          </Trackpoint>
          <Trackpoint>
            <Time>2018-12-30T09:07:15.000Z</Time>
            <Position>
              <LatitudeDegrees>40.73930226266384124755859375</LatitudeDegrees>
              <LongitudeDegrees>-4.0688502229750156402587890625</LongitudeDegrees>
            </Position>
            <AltitudeMeters>1179</AltitudeMeters>
            <DistanceMeters>573.37648583607</DistanceMeters>
          </Trackpoint>
          <Trackpoint>
            <Time>2018-12-30T09:07:16.000Z</Time>
            <Position>
              <LatitudeDegrees>40.73931508697569370269775390625</LatitudeDegrees>
              <LongitudeDegrees>-4.068853072822093963623046875</LongitudeDegrees>
            </Position>
            <AltitudeMeters>1179</AltitudeMeters>
            <DistanceMeters>574.82388962735</DistanceMeters>
          </Trackpoint>
          <Trackpoint>
            <Time>2018-12-30T09:07:17.000Z</Time>
            <Position>
              <LatitudeDegrees>40.73932849802076816558837890625</LatitudeDegrees>
              <LongitudeDegrees>-4.0688559226691722869873046875</LongitudeDegrees>
            </Position>
            <AltitudeMeters>1179</AltitudeMeters>
            <DistanceMeters>576.33239195213</DistanceMeters>
          </Trackpoint>
          <Trackpoint>
            <Time>2018-12-30T09:07:18.000Z</Time>
            <Position>
              <LatitudeDegrees>40.73933956213295459747314453125</LatitudeDegrees>
              <LongitudeDegrees>-4.06885818578302860260009765625</LongitudeDegrees>
            </Position>
            <AltitudeMeters>1179.199951171875</AltitudeMeters>
            <DistanceMeters>577.57865562743</DistanceMeters>
          </Trackpoint>
          <Trackpoint>
            <Time>2018-12-30T09:07:19.000Z</Time>
            <Position>
              <LatitudeDegrees>40.7393517158925533294677734375</LatitudeDegrees>
              <LongitudeDegrees>-4.06886405311524868011474609375</LongitudeDegrees>
            </Position>
            <AltitudeMeters>1179.199951171875</AltitudeMeters>
            <DistanceMeters>579.01980710528</DistanceMeters>
          </Trackpoint>
          <Trackpoint>
            <Time>2018-12-30T09:07:20.000Z</Time>
            <Position>
              <LatitudeDegrees>40.73935934342443943023681640625</LatitudeDegrees>
              <LongitudeDegrees>-4.06886338256299495697021484375</LongitudeDegrees>
            </Position>
            <AltitudeMeters>1179.5999755859375</AltitudeMeters>
            <DistanceMeters>579.86975187732</DistanceMeters>
          </Trackpoint>
          <Trackpoint>
            <Time>2018-12-30T09:07:21.000Z</Time>
            <Position>
              <LatitudeDegrees>40.7393686473369598388671875</LatitudeDegrees>
              <LongitudeDegrees>-4.06886874698102474212646484375</LongitudeDegrees>
            </Position>
            <AltitudeMeters>1179.800048828125</AltitudeMeters>
            <DistanceMeters>580.99813159115</DistanceMeters>
          </Trackpoint>
          <Trackpoint>
            <Time>2018-12-30T09:07:22.000Z</Time>
            <Position>
              <LatitudeDegrees>40.73937996290624141693115234375</LatitudeDegrees>
              <LongitudeDegrees>-4.068875871598720550537109375</LongitudeDegrees>
            </Position>
            <AltitudeMeters>1180.199951171875</AltitudeMeters>
            <DistanceMeters>582.39473336399</DistanceMeters>
          </Trackpoint>
          <Trackpoint>
            <Time>2018-12-30T09:07:23.000Z</Time>
            <Position>
              <LatitudeDegrees>40.739395134150981903076171875</LatitudeDegrees>
              <LongitudeDegrees>-4.06887779943645000457763671875</LongitudeDegrees>
            </Position>
            <AltitudeMeters>1180.4000244140625</AltitudeMeters>
            <DistanceMeters>584.08930242696</DistanceMeters>
          </Trackpoint>
          <Trackpoint>
            <Time>2018-12-30T09:07:24.000Z</Time>
            <Position>
              <LatitudeDegrees>40.73940862901508808135986328125</LatitudeDegrees>
              <LongitudeDegrees>-4.06887846998870372772216796875</LongitudeDegrees>
            </Position>
            <AltitudeMeters>1180.5999755859375</AltitudeMeters>
            <DistanceMeters>585.59480871636</DistanceMeters>
          </Trackpoint>
          <Trackpoint>
            <Time>2018-12-30T09:07:25.000Z</Time>
            <Position>
              <LatitudeDegrees>40.7394258119165897369384765625</LatitudeDegrees>
              <LongitudeDegrees>-4.06888215802609920501708984375</LongitudeDegrees>
            </Position>
            <AltitudeMeters>1180.5999755859375</AltitudeMeters>
            <DistanceMeters>587.53530913562</DistanceMeters>
          </Trackpoint>
          <Trackpoint>
            <Time>2018-12-30T09:07:26.000Z</Time>
            <Position>
              <LatitudeDegrees>40.73944115079939365386962890625</LatitudeDegrees>
              <LongitudeDegrees>-4.06888224184513092041015625</LongitudeDegrees>
            </Position>
            <AltitudeMeters>1180.5999755859375</AltitudeMeters>
            <DistanceMeters>589.24314832342</DistanceMeters>
          </Trackpoint>
          <Trackpoint>
            <Time>2018-12-30T09:07:27.000Z</Time>
            <Position>
              <LatitudeDegrees>40.73946177028119564056396484375</LatitudeDegrees>
              <LongitudeDegrees>-4.0688817389309406280517578125</LongitudeDegrees>
            </Position>
            <AltitudeMeters>1180.5999755859375</AltitudeMeters>
            <DistanceMeters>591.53563703449</DistanceMeters>
          </Trackpoint>
          <Trackpoint>
            <Time>2018-12-30T09:07:28.000Z</Time>
            <Position>
              <LatitudeDegrees>40.7394813001155853271484375</LatitudeDegrees>
              <LongitudeDegrees>-4.06888492405414581298828125</LongitudeDegrees>
            </Position>
            <AltitudeMeters>1180.5999755859375</AltitudeMeters>
            <DistanceMeters>593.72744009777</DistanceMeters>
          </Trackpoint>
          <Trackpoint>
            <Time>2018-12-30T09:07:29.000Z</Time>
            <Position>
              <LatitudeDegrees>40.7394985668361186981201171875</LatitudeDegrees>
              <LongitudeDegrees>-4.06889338977634906768798828125</LongitudeDegrees>
            </Position>
            <AltitudeMeters>1180.5999755859375</AltitudeMeters>
            <DistanceMeters>595.77658273469</DistanceMeters>
          </Trackpoint>
          <Trackpoint>
            <Time>2018-12-30T09:07:30.000Z</Time>
            <Position>
              <LatitudeDegrees>40.73951306752860546112060546875</LatitudeDegrees>
              <LongitudeDegrees>-4.06889204867184162139892578125</LongitudeDegrees>
            </Position>
            <AltitudeMeters>1180.4000244140625</AltitudeMeters>
            <DistanceMeters>597.39203687898</DistanceMeters>
          </Trackpoint>
          <Trackpoint>
            <Time>2018-12-30T09:07:31.000Z</Time>
            <Position>
              <LatitudeDegrees>40.739521868526935577392578125</LatitudeDegrees>
              <LongitudeDegrees>-4.0688820742070674896240234375</LongitudeDegrees>
            </Position>
            <AltitudeMeters>1180.4000244140625</AltitudeMeters>
            <DistanceMeters>598.68104194711</DistanceMeters>
          </Trackpoint>
          <Trackpoint>
            <Time>2018-12-30T09:07:32.000Z</Time>
            <Position>
              <LatitudeDegrees>40.73953368701040744781494140625</LatitudeDegrees>
              <LongitudeDegrees>-4.06888031400740146636962890625</LongitudeDegrees>
            </Position>
            <AltitudeMeters>1180.4000244140625</AltitudeMeters>
            <DistanceMeters>600.00461092157</DistanceMeters>
          </Trackpoint>
          <Trackpoint>
            <Time>2018-12-30T09:07:33.000Z</Time>
            <Position>
              <LatitudeDegrees>40.739548020064830780029296875</LatitudeDegrees>
              <LongitudeDegrees>-4.068879224359989166259765625</LongitudeDegrees>
            </Position>
            <AltitudeMeters>1180.5999755859375</AltitudeMeters>
            <DistanceMeters>601.60602957703</DistanceMeters>
          </Trackpoint>
          <Trackpoint>
            <Time>2018-12-30T09:07:34.000Z</Time>
            <Position>
              <LatitudeDegrees>40.73955950327217578887939453125</LatitudeDegrees>
              <LongitudeDegrees>-4.068873859941959381103515625</LongitudeDegrees>
            </Position>
            <AltitudeMeters>1180.5999755859375</AltitudeMeters>
            <DistanceMeters>602.95995184885</DistanceMeters>
          </Trackpoint>
          <Trackpoint>
            <Time>2018-12-30T09:07:35.000Z</Time>
            <Position>
              <LatitudeDegrees>40.73957023210823535919189453125</LatitudeDegrees>
              <LongitudeDegrees>-4.0688656456768512725830078125</LongitudeDegrees>
            </Position>
            <AltitudeMeters>1180.5999755859375</AltitudeMeters>
            <DistanceMeters>604.33701976774</DistanceMeters>
          </Trackpoint>
          <Trackpoint>
            <Time>2018-12-30T09:07:36.000Z</Time>
            <Position>
              <LatitudeDegrees>40.73957459069788455963134765625</LatitudeDegrees>
              <LongitudeDegrees>-4.06885785050690174102783203125</LongitudeDegrees>
            </Position>
            <AltitudeMeters>1180.5999755859375</AltitudeMeters>
            <DistanceMeters>605.14892837122</DistanceMeters>
          </Trackpoint>
          <Trackpoint>
            <Time>2018-12-30T09:07:37.000Z</Time>
            <Position>
              <LatitudeDegrees>40.739584229886531829833984375</LatitudeDegrees>
              <LongitudeDegrees>-4.06885273754596710205078125</LongitudeDegrees>
            </Position>
            <AltitudeMeters>1180.5999755859375</AltitudeMeters>
            <DistanceMeters>606.30497824632</DistanceMeters>
          </Trackpoint>
          <Trackpoint>
            <Time>2018-12-30T09:07:38.000Z</Time>
            <Position>
              <LatitudeDegrees>40.739594958722591400146484375</LatitudeDegrees>
              <LongitudeDegrees>-4.06885265372693538665771484375</LongitudeDegrees>
            </Position>
            <AltitudeMeters>1180.5999755859375</AltitudeMeters>
            <DistanceMeters>607.49944552429</DistanceMeters>
          </Trackpoint>
          <Trackpoint>
            <Time>2018-12-30T09:07:39.000Z</Time>
            <Position>
              <LatitudeDegrees>40.7396048493683338165283203125</LatitudeDegrees>
              <LongitudeDegrees>-4.0688507258892059326171875</LongitudeDegrees>
            </Position>
            <AltitudeMeters>1180.4000244140625</AltitudeMeters>
            <DistanceMeters>608.6157566589</DistanceMeters>
          </Trackpoint>
          <Trackpoint>
            <Time>2018-12-30T09:07:40.000Z</Time>
            <Position>
              <LatitudeDegrees>40.7396179251372814178466796875</LatitudeDegrees>
              <LongitudeDegrees>-4.06885097734630107879638671875</LongitudeDegrees>
            </Position>
            <AltitudeMeters>1180.199951171875</AltitudeMeters>
            <DistanceMeters>610.06938587156</DistanceMeters>
          </Trackpoint>
          <Trackpoint>
            <Time>2018-12-30T09:07:41.000Z</Time>
            <Position>
              <LatitudeDegrees>40.73962605558335781097412109375</LatitudeDegrees>
              <LongitudeDegrees>-4.06884410418570041656494140625</LongitudeDegrees>
            </Position>
            <AltitudeMeters>1180</AltitudeMeters>
            <DistanceMeters>611.14449041756</DistanceMeters>
          </Trackpoint>
          <Trackpoint>
            <Time>2018-12-30T09:07:42.000Z</Time>
            <Position>
              <LatitudeDegrees>40.739638544619083404541015625</LatitudeDegrees>
              <LongitudeDegrees>-4.068842343986034393310546875</LongitudeDegrees>
            </Position>
            <AltitudeMeters>1180</AltitudeMeters>
            <DistanceMeters>612.54109219039</DistanceMeters>
          </Trackpoint>
          <Trackpoint>
            <Time>2018-12-30T09:07:43.000Z</Time>
            <Position>
              <LatitudeDegrees>40.739651285111904144287109375</LatitudeDegrees>
              <LongitudeDegrees>-4.06883857212960720062255859375</LongitudeDegrees>
            </Position>
            <AltitudeMeters>1179.800048828125</AltitudeMeters>
            <DistanceMeters>613.99472140305</DistanceMeters>
          </Trackpoint>
          <Trackpoint>
            <Time>2018-12-30T09:07:44.000Z</Time>
            <Position>
              <LatitudeDegrees>40.73966033756732940673828125</LatitudeDegrees>
              <LongitudeDegrees>-4.06883538700640201568603515625</LongitudeDegrees>
            </Position>
            <AltitudeMeters>1179.800048828125</AltitudeMeters>
            <DistanceMeters>615.03568690357</DistanceMeters>
          </Trackpoint>
          <Trackpoint>
            <Time>2018-12-30T09:07:45.000Z</Time>
            <Position>
              <LatitudeDegrees>40.739669390022754669189453125</LatitudeDegrees>
              <LongitudeDegrees>-4.06882993876934051513671875</LongitudeDegrees>
            </Position>
            <AltitudeMeters>1180</AltitudeMeters>
            <DistanceMeters>616.143879304</DistanceMeters>
          </Trackpoint>
          <Trackpoint>
            <Time>2018-12-30T09:07:46.000Z</Time>
            <Position>
              <LatitudeDegrees>40.73968104086816310882568359375</LatitudeDegrees>
              <LongitudeDegrees>-4.0688270889222621917724609375</LongitudeDegrees>
            </Position>
            <AltitudeMeters>1180</AltitudeMeters>
            <DistanceMeters>617.46060808292</DistanceMeters>
          </Trackpoint>
          <Trackpoint>
            <Time>2018-12-30T09:07:47.000Z</Time>
            <Position>
              <LatitudeDegrees>40.739695541560649871826171875</LatitudeDegrees>
              <LongitudeDegrees>-4.0688210539519786834716796875</LongitudeDegrees>
            </Position>
            <AltitudeMeters>1180.199951171875</AltitudeMeters>
            <DistanceMeters>619.15517714589</DistanceMeters>
          </Trackpoint>
          <Trackpoint>
            <Time>2018-12-30T09:07:48.000Z</Time>
            <Position>
              <LatitudeDegrees>40.73971406556665897369384765625</LatitudeDegrees>
              <LongitudeDegrees>-4.0688227303326129913330078125</LongitudeDegrees>
            </Position>
            <AltitudeMeters>1180.4000244140625</AltitudeMeters>
            <DistanceMeters>621.2218716463</DistanceMeters>
          </Trackpoint>
          <Trackpoint>
            <Time>2018-12-30T09:07:49.000Z</Time>
            <Position>
              <LatitudeDegrees>40.7397205196321010589599609375</LatitudeDegrees>
              <LongitudeDegrees>-4.068816863000392913818359375</LongitudeDegrees>
            </Position>
            <AltitudeMeters>1180.5999755859375</AltitudeMeters>
            <DistanceMeters>622.09280586958</DistanceMeters>
          </Trackpoint>
          <Trackpoint>
            <Time>2018-12-30T09:07:50.000Z</Time>
            <Position>
              <LatitudeDegrees>40.73971926234662532806396484375</LatitudeDegrees>
              <LongitudeDegrees>-4.068798087537288665771484375</LongitudeDegrees>
            </Position>
            <AltitudeMeters>1180.800048828125</AltitudeMeters>
            <DistanceMeters>623.68290693691</DistanceMeters>
          </Trackpoint>
          <Trackpoint>
            <Time>2018-12-30T09:07:51.000Z</Time>
            <Position>
              <LatitudeDegrees>40.739727057516574859619140625</LatitudeDegrees>
              <LongitudeDegrees>-4.0687955729663372039794921875</LongitudeDegrees>
            </Position>
            <AltitudeMeters>1180.800048828125</AltitudeMeters>
            <DistanceMeters>624.57433653428</DistanceMeters>
          </Trackpoint>
          <Trackpoint>
            <Time>2018-12-30T09:07:52.000Z</Time>
            <Position>
              <LatitudeDegrees>40.7397369481623172760009765625</LatitudeDegrees>
              <LongitudeDegrees>-4.0687979198992252349853515625</LongitudeDegrees>
            </Position>
            <AltitudeMeters>1180.800048828125</AltitudeMeters>
            <DistanceMeters>625.6946849737</DistanceMeters>
          </Trackpoint>
          <Trackpoint>
            <Time>2018-12-30T09:07:53.000Z</Time>
            <Position>
              <LatitudeDegrees>40.7397480122745037078857421875</LatitudeDegrees>
              <LongitudeDegrees>-4.06880177557468414306640625</LongitudeDegrees>
            </Position>
            <AltitudeMeters>1180.5999755859375</AltitudeMeters>
            <DistanceMeters>626.96249947394</DistanceMeters>
          </Trackpoint>
          <Trackpoint>
            <Time>2018-12-30T09:07:54.000Z</Time>
            <Position>
              <LatitudeDegrees>40.73976016603410243988037109375</LatitudeDegrees>
              <LongitudeDegrees>-4.06879733316600322723388671875</LongitudeDegrees>
            </Position>
            <AltitudeMeters>1180.5999755859375</AltitudeMeters>
            <DistanceMeters>628.36555209761</DistanceMeters>
          </Trackpoint>
          <Trackpoint>
            <Time>2018-12-30T09:07:55.000Z</Time>
            <Position>
              <LatitudeDegrees>40.7397651113569736480712890625</LatitudeDegrees>
              <LongitudeDegrees>-4.06879046000540256500244140625</LongitudeDegrees>
            </Position>
            <AltitudeMeters>1180.5999755859375</AltitudeMeters>
            <DistanceMeters>629.16060263127</DistanceMeters>
          </Trackpoint>
          <Trackpoint>
            <Time>2018-12-30T09:07:56.000Z</Time>
            <Position>
              <LatitudeDegrees>40.73977223597466945648193359375</LatitudeDegrees>
              <LongitudeDegrees>-4.06879129819571971893310546875</LongitudeDegrees>
            </Position>
            <AltitudeMeters>1180.5999755859375</AltitudeMeters>
            <DistanceMeters>629.95565316493</DistanceMeters>
          </Trackpoint>
          <Trackpoint>
            <Time>2018-12-30T09:07:57.000Z</Time>
            <Position>
              <LatitudeDegrees>40.73978128843009471893310546875</LatitudeDegrees>
              <LongitudeDegrees>-4.06878978945314884185791015625</LongitudeDegrees>
            </Position>
            <AltitudeMeters>1180.4000244140625</AltitudeMeters>
            <DistanceMeters>630.97026083029</DistanceMeters>
          </Trackpoint>
          <Trackpoint>
            <Time>2018-12-30T09:07:58.000Z</Time>
            <Position>
              <LatitudeDegrees>40.7397922687232494354248046875</LatitudeDegrees>
              <LongitudeDegrees>-4.0687881968915462493896484375</LongitudeDegrees>
            </Position>
            <AltitudeMeters>1180.5999755859375</AltitudeMeters>
            <DistanceMeters>632.19459439991</DistanceMeters>
          </Trackpoint>
          <Trackpoint>
            <Time>2018-12-30T09:07:59.000Z</Time>
            <Position>
              <LatitudeDegrees>40.739804841578006744384765625</LatitudeDegrees>
              <LongitudeDegrees>-4.06878761015832424163818359375</LongitudeDegrees>
            </Position>
            <AltitudeMeters>1180.800048828125</AltitudeMeters>
            <DistanceMeters>633.59119617275</DistanceMeters>
          </Trackpoint>
          <Trackpoint>
            <Time>2018-12-30T09:08:00.000Z</Time>
            <Position>
              <LatitudeDegrees>40.7398165762424468994140625</LatitudeDegrees>
              <LongitudeDegrees>-4.0687861852347850799560546875</LongitudeDegrees>
            </Position>
            <AltitudeMeters>1181.4000244140625</AltitudeMeters>
            <DistanceMeters>634.90449149399</DistanceMeters>
          </Trackpoint>
          <Trackpoint>
            <Time>2018-12-30T09:08:01.000Z</Time>
            <Position>
              <LatitudeDegrees>40.739829652011394500732421875</LatitudeDegrees>
              <LongitudeDegrees>-4.0687801502645015716552734375</LongitudeDegrees>
            </Position>
            <AltitudeMeters>1181.5999755859375</AltitudeMeters>
            <DistanceMeters>636.44849284801</DistanceMeters>
          </Trackpoint>
          <Trackpoint>
            <Time>2018-12-30T09:08:02.000Z</Time>
            <Position>
              <LatitudeDegrees>40.73984113521873950958251953125</LatitudeDegrees>
              <LongitudeDegrees>-4.06877436675131320953369140625</LongitudeDegrees>
            </Position>
            <AltitudeMeters>1181.800048828125</AltitudeMeters>
            <DistanceMeters>637.81568918501</DistanceMeters>
          </Trackpoint>
          <Trackpoint>
            <Time>2018-12-30T09:08:03.000Z</Time>
            <Position>
              <LatitudeDegrees>40.73984901420772075653076171875</LatitudeDegrees>
              <LongitudeDegrees>-4.06876866705715656280517578125</LongitudeDegrees>
            </Position>
            <AltitudeMeters>1181.5999755859375</AltitudeMeters>
            <DistanceMeters>638.82135740153</DistanceMeters>
          </Trackpoint>
          <Trackpoint>
            <Time>2018-12-30T09:08:04.000Z</Time>
            <Position>
              <LatitudeDegrees>40.73986158706247806549072265625</LatitudeDegrees>
              <LongitudeDegrees>-4.06876866705715656280517578125</LongitudeDegrees>
            </Position>
            <AltitudeMeters>1181.5999755859375</AltitudeMeters>
            <DistanceMeters>640.22118831572</DistanceMeters>
          </Trackpoint>
          <Trackpoint>
            <Time>2018-12-30T09:08:05.000Z</Time>
            <Position>
              <LatitudeDegrees>40.7398707233369350433349609375</LatitudeDegrees>
              <LongitudeDegrees>-4.0687684156000614166259765625</LongitudeDegrees>
            </Position>
            <AltitudeMeters>1181.5999755859375</AltitudeMeters>
            <DistanceMeters>641.24023629843</DistanceMeters>
          </Trackpoint>
          <Trackpoint>
            <Time>2018-12-30T09:08:06.000Z</Time>
            <Position>
              <LatitudeDegrees>40.73987818323075771331787109375</LatitudeDegrees>
              <LongitudeDegrees>-4.0687643922865390777587890625</LongitudeDegrees>
            </Position>
            <AltitudeMeters>1181.5999755859375</AltitudeMeters>
            <DistanceMeters>642.13671652884</DistanceMeters>
          </Trackpoint>
          <Trackpoint>
            <Time>2018-12-30T09:08:07.000Z</Time>
            <Position>
              <LatitudeDegrees>40.7398817874491214752197265625</LatitudeDegrees>
              <LongitudeDegrees>-4.0687620453536510467529296875</LongitudeDegrees>
            </Position>
            <AltitudeMeters>1181.4000244140625</AltitudeMeters>
            <DistanceMeters>642.58243132752</DistanceMeters>
          </Trackpoint>
          <Trackpoint>
            <Time>2018-12-30T09:08:08.000Z</Time>
            <Position>
              <LatitudeDegrees>40.73989008553326129913330078125</LatitudeDegrees>
              <LongitudeDegrees>-4.06876648776233196258544921875</LongitudeDegrees>
            </Position>
            <AltitudeMeters>1181.4000244140625</AltitudeMeters>
            <DistanceMeters>643.57907991596</DistanceMeters>
          </Trackpoint>
          <Trackpoint>
            <Time>2018-12-30T09:08:09.000Z</Time>
            <Position>
              <LatitudeDegrees>40.73990265838801860809326171875</LatitudeDegrees>
              <LongitudeDegrees>-4.0687690861523151397705078125</LongitudeDegrees>
            </Position>
            <AltitudeMeters>1181.4000244140625</AltitudeMeters>
            <DistanceMeters>644.99494607155</DistanceMeters>
          </Trackpoint>
          <Trackpoint>
            <Time>2018-12-30T09:08:10.000Z</Time>
            <Position>
              <LatitudeDegrees>40.73990835808217525482177734375</LatitudeDegrees>
              <LongitudeDegrees>-4.068766571581363677978515625</LongitudeDegrees>
            </Position>
            <AltitudeMeters>1181.5999755859375</AltitudeMeters>
            <DistanceMeters>645.6668864128</DistanceMeters>
          </Trackpoint>
          <Trackpoint>
            <Time>2018-12-30T09:08:11.000Z</Time>
            <Position>
              <LatitudeDegrees>40.7399223558604717254638671875</LatitudeDegrees>
              <LongitudeDegrees>-4.0687667392194271087646484375</LongitudeDegrees>
            </Position>
            <AltitudeMeters>1181.5999755859375</AltitudeMeters>
            <DistanceMeters>647.22254077254</DistanceMeters>
          </Trackpoint>
          <Trackpoint>
            <Time>2018-12-30T09:08:12.000Z</Time>
            <Position>
              <LatitudeDegrees>40.73993769474327564239501953125</LatitudeDegrees>
              <LongitudeDegrees>-4.06876414082944393157958984375</LongitudeDegrees>
            </Position>
            <AltitudeMeters>1181.800048828125</AltitudeMeters>
            <DistanceMeters>648.94092227767</DistanceMeters>
          </Trackpoint>
          <Trackpoint>
            <Time>2018-12-30T09:08:13.000Z</Time>
            <Position>
              <LatitudeDegrees>40.73995077051222324371337890625</LatitudeDegrees>
              <LongitudeDegrees>-4.068764559924602508544921875</LongitudeDegrees>
            </Position>
            <AltitudeMeters>1181.5999755859375</AltitudeMeters>
            <DistanceMeters>650.39455149033</DistanceMeters>
          </Trackpoint>
          <Trackpoint>
            <Time>2018-12-30T09:08:14.000Z</Time>
            <Position>
              <LatitudeDegrees>40.73996007442474365234375</LatitudeDegrees>
              <LongitudeDegrees>-4.06877218745648860931396484375</LongitudeDegrees>
            </Position>
            <AltitudeMeters>1181.5999755859375</AltitudeMeters>
            <DistanceMeters>651.6114872063</DistanceMeters>
          </Trackpoint>
          <Trackpoint>
            <Time>2018-12-30T09:08:15.000Z</Time>
            <Position>
              <LatitudeDegrees>40.73997373692691326141357421875</LatitudeDegrees>
              <LongitudeDegrees>-4.06877436675131320953369140625</LongitudeDegrees>
            </Position>
            <AltitudeMeters>1181.5999755859375</AltitudeMeters>
            <DistanceMeters>653.14374693475</DistanceMeters>
          </Trackpoint>
          <Trackpoint>
            <Time>2018-12-30T09:08:16.000Z</Time>
            <Position>
              <LatitudeDegrees>40.739986561238765716552734375</LatitudeDegrees>
              <LongitudeDegrees>-4.0687784738838672637939453125</LongitudeDegrees>
            </Position>
            <AltitudeMeters>1181.5999755859375</AltitudeMeters>
            <DistanceMeters>654.61282428809</DistanceMeters>
          </Trackpoint>
          <Trackpoint>
            <Time>2018-12-30T09:08:17.000Z</Time>
            <Position>
              <LatitudeDegrees>40.7399941049516201019287109375</LatitudeDegrees>
              <LongitudeDegrees>-4.068781323730945587158203125</LongitudeDegrees>
            </Position>
            <AltitudeMeters>1181.800048828125</AltitudeMeters>
            <DistanceMeters>655.48375851138</DistanceMeters>
          </Trackpoint>
          <Trackpoint>
            <Time>2018-12-30T09:08:18.000Z</Time>
            <Position>
              <LatitudeDegrees>40.74001036584377288818359375</LatitudeDegrees>
              <LongitudeDegrees>-4.06878425739705562591552734375</LongitudeDegrees>
            </Position>
            <AltitudeMeters>1181.800048828125</AltitudeMeters>
            <DistanceMeters>657.31163385841</DistanceMeters>
          </Trackpoint>
          <Trackpoint>
            <Time>2018-12-30T09:08:19.000Z</Time>
            <Position>
              <LatitudeDegrees>40.7400219328701496124267578125</LatitudeDegrees>
              <LongitudeDegrees>-4.0687831677496433258056640625</LongitudeDegrees>
            </Position>
            <AltitudeMeters>1182</AltitudeMeters>
            <DistanceMeters>658.60413691145</DistanceMeters>
          </Trackpoint>
          <Trackpoint>
            <Time>2018-12-30T09:08:20.000Z</Time>
            <Position>
              <LatitudeDegrees>40.74003308080136775970458984375</LatitudeDegrees>
              <LongitudeDegrees>-4.0687811560928821563720703125</LongitudeDegrees>
            </Position>
            <AltitudeMeters>1182</AltitudeMeters>
            <DistanceMeters>659.85401819574</DistanceMeters>
          </Trackpoint>
          <Trackpoint>
            <Time>2018-12-30T09:08:21.000Z</Time>
            <Position>
              <LatitudeDegrees>40.74004297144711017608642578125</LatitudeDegrees>
              <LongitudeDegrees>-4.0687855146825313568115234375</LongitudeDegrees>
            </Position>
            <AltitudeMeters>1182</AltitudeMeters>
            <DistanceMeters>661.01006807083</DistanceMeters>
          </Trackpoint>
          <Trackpoint>
            <Time>2018-12-30T09:08:22.000Z</Time>
            <Position>
              <LatitudeDegrees>40.740050263702869415283203125</LatitudeDegrees>
              <LongitudeDegrees>-4.06878408975899219512939453125</LongitudeDegrees>
            </Position>
            <AltitudeMeters>1182</AltitudeMeters>
            <DistanceMeters>661.83302355766</DistanceMeters>
          </Trackpoint>
          <Trackpoint>
            <Time>2018-12-30T09:08:23.000Z</Time>
            <Position>
              <LatitudeDegrees>40.7400578074157238006591796875</LatitudeDegrees>
              <LongitudeDegrees>-4.068785347044467926025390625</LongitudeDegrees>
            </Position>
            <AltitudeMeters>1182</AltitudeMeters>
            <DistanceMeters>662.67227677488</DistanceMeters>
          </Trackpoint>
          <Trackpoint>
            <Time>2018-12-30T09:08:24.000Z</Time>
            <Position>
              <LatitudeDegrees>40.74006577022373676300048828125</LatitudeDegrees>
              <LongitudeDegrees>-4.068787358701229095458984375</LongitudeDegrees>
            </Position>
            <AltitudeMeters>1181.800048828125</AltitudeMeters>
            <DistanceMeters>663.5737793428</DistanceMeters>
          </Trackpoint>
          <Trackpoint>
            <Time>2018-12-30T09:08:25.000Z</Time>
            <Position>
              <LatitudeDegrees>40.74007297866046428680419921875</LatitudeDegrees>
              <LongitudeDegrees>-4.0687855146825313568115234375</LongitudeDegrees>
            </Position>
            <AltitudeMeters>1181.5999755859375</AltitudeMeters>
            <DistanceMeters>664.39123004887</DistanceMeters>
          </Trackpoint>
          <Trackpoint>
            <Time>2018-12-30T09:08:26.000Z</Time>
            <Position>
              <LatitudeDegrees>40.74008018709719181060791015625</LatitudeDegrees>
              <LongitudeDegrees>-4.068785347044467926025390625</LongitudeDegrees>
            </Position>
            <AltitudeMeters>1181.4000244140625</AltitudeMeters>
            <DistanceMeters>665.19755845837</DistanceMeters>
          </Trackpoint>
          <Trackpoint>
            <Time>2018-12-30T09:08:27.000Z</Time>
            <Position>
              <LatitudeDegrees>40.74009091593325138092041015625</LatitudeDegrees>
              <LongitudeDegrees>-4.06878568232059478759765625</LongitudeDegrees>
            </Position>
            <AltitudeMeters>1181.4000244140625</AltitudeMeters>
            <DistanceMeters>666.39202573634</DistanceMeters>
          </Trackpoint>
          <Trackpoint>
            <Time>2018-12-30T09:08:28.000Z</Time>
            <Position>
              <LatitudeDegrees>40.7401060871779918670654296875</LatitudeDegrees>
              <LongitudeDegrees>-4.06878576613962650299072265625</LongitudeDegrees>
            </Position>
            <AltitudeMeters>1181.4000244140625</AltitudeMeters>
            <DistanceMeters>668.08125756066</DistanceMeters>
          </Trackpoint>
          <Trackpoint>
            <Time>2018-12-30T09:08:29.000Z</Time>
            <Position>
              <LatitudeDegrees>40.74011497199535369873046875</LatitudeDegrees>
              <LongitudeDegrees>-4.06878006644546985626220703125</LongitudeDegrees>
            </Position>
            <AltitudeMeters>1181.4000244140625</AltitudeMeters>
            <DistanceMeters>669.18127130761</DistanceMeters>
          </Trackpoint>
          <Trackpoint>
            <Time>2018-12-30T09:08:30.000Z</Time>
            <Position>
              <LatitudeDegrees>40.7401282154023647308349609375</LatitudeDegrees>
              <LongitudeDegrees>-4.06878274865448474884033203125</LongitudeDegrees>
            </Position>
            <AltitudeMeters>1181.5999755859375</AltitudeMeters>
            <DistanceMeters>670.67775350199</DistanceMeters>
          </Trackpoint>
          <Trackpoint>
            <Time>2018-12-30T09:08:31.000Z</Time>
            <Position>
              <LatitudeDegrees>40.74013785459101200103759765625</LatitudeDegrees>
              <LongitudeDegrees>-4.0687707625329494476318359375</LongitudeDegrees>
            </Position>
            <AltitudeMeters>1181.5999755859375</AltitudeMeters>
            <DistanceMeters>672.14990103079</DistanceMeters>
          </Trackpoint>
          <Trackpoint>
            <Time>2018-12-30T09:08:32.000Z</Time>
            <Position>
              <LatitudeDegrees>40.74014539830386638641357421875</LatitudeDegrees>
              <LongitudeDegrees>-4.0687620453536510467529296875</LongitudeDegrees>
            </Position>
            <AltitudeMeters>1182</AltitudeMeters>
            <DistanceMeters>673.26621216541</DistanceMeters>
          </Trackpoint>
          <Trackpoint>
            <Time>2018-12-30T09:08:33.000Z</Time>
            <Position>
              <LatitudeDegrees>40.74015461839735507965087890625</LatitudeDegrees>
              <LongitudeDegrees>-4.06875542365014553070068359375</LongitudeDegrees>
            </Position>
            <AltitudeMeters>1182.4000244140625</AltitudeMeters>
            <DistanceMeters>674.43391998119</DistanceMeters>
          </Trackpoint>
          <Trackpoint>
            <Time>2018-12-30T09:08:34.000Z</Time>
            <Position>
              <LatitudeDegrees>40.7401624135673046112060546875</LatitudeDegrees>
              <LongitudeDegrees>-4.06874787993729114532470703125</LongitudeDegrees>
            </Position>
            <AltitudeMeters>1182.5999755859375</AltitudeMeters>
            <DistanceMeters>675.50902452719</DistanceMeters>
          </Trackpoint>
          <Trackpoint>
            <Time>2018-12-30T09:08:35.000Z</Time>
            <Position>
              <LatitudeDegrees>40.7401731424033641815185546875</LatitudeDegrees>
              <LongitudeDegrees>-4.06874234788119792938232421875</LongitudeDegrees>
            </Position>
            <AltitudeMeters>1182.5999755859375</AltitudeMeters>
            <DistanceMeters>676.79100499225</DistanceMeters>
          </Trackpoint>
          <Trackpoint>
            <Time>2018-12-30T09:08:36.000Z</Time>
            <Position>
              <LatitudeDegrees>40.74018160812556743621826171875</LatitudeDegrees>
              <LongitudeDegrees>-4.0687389113008975982666015625</LongitudeDegrees>
            </Position>
            <AltitudeMeters>1182.5999755859375</AltitudeMeters>
            <DistanceMeters>677.76936489691</DistanceMeters>
          </Trackpoint>
          <Trackpoint>
            <Time>2018-12-30T09:08:37.000Z</Time>
            <Position>
              <LatitudeDegrees>40.74019216932356357574462890625</LatitudeDegrees>
              <LongitudeDegrees>-4.06874008476734161376953125</LongitudeDegrees>
            </Position>
            <AltitudeMeters>1182.4000244140625</AltitudeMeters>
            <DistanceMeters>678.9486154099</DistanceMeters>
          </Trackpoint>
          <Trackpoint>
            <Time>2018-12-30T09:08:38.000Z</Time>
            <Position>
              <LatitudeDegrees>40.74020214378833770751953125</LatitudeDegrees>
              <LongitudeDegrees>-4.06873874366283416748046875</LongitudeDegrees>
            </Position>
            <AltitudeMeters>1182.5999755859375</AltitudeMeters>
            <DistanceMeters>680.06492654451</DistanceMeters>
          </Trackpoint>
          <Trackpoint>
            <Time>2018-12-30T09:08:39.000Z</Time>
            <Position>
              <LatitudeDegrees>40.74022804386913776397705078125</LatitudeDegrees>
              <LongitudeDegrees>-4.06873983331024646759033203125</LongitudeDegrees>
            </Position>
            <AltitudeMeters>1182.5999755859375</AltitudeMeters>
            <DistanceMeters>682.95036073737</DistanceMeters>
          </Trackpoint>
          <Trackpoint>
            <Time>2018-12-30T09:08:40.000Z</Time>
            <Position>
              <LatitudeDegrees>40.740244723856449127197265625</LatitudeDegrees>
              <LongitudeDegrees>-4.0687425993382930755615234375</LongitudeDegrees>
            </Position>
            <AltitudeMeters>1182.800048828125</AltitudeMeters>
            <DistanceMeters>684.82216993178</DistanceMeters>
          </Trackpoint>
          <Trackpoint>
            <Time>2018-12-30T09:08:41.000Z</Time>
            <Position>
              <LatitudeDegrees>40.74026207439601421356201171875</LatitudeDegrees>
              <LongitudeDegrees>-4.06874905340373516082763671875</LongitudeDegrees>
            </Position>
            <AltitudeMeters>1183.4000244140625</AltitudeMeters>
            <DistanceMeters>686.82901175265</DistanceMeters>
          </Trackpoint>
          <Trackpoint>
            <Time>2018-12-30T09:08:42.000Z</Time>
            <Position>
              <LatitudeDegrees>40.7402725517749786376953125</LatitudeDegrees>
              <LongitudeDegrees>-4.06875458545982837677001953125</LongitudeDegrees>
            </Position>
            <AltitudeMeters>1183.5999755859375</AltitudeMeters>
            <DistanceMeters>688.08250020543</DistanceMeters>
          </Trackpoint>
          <Trackpoint>
            <Time>2018-12-30T09:08:43.000Z</Time>
            <Position>
              <LatitudeDegrees>40.74028554372489452362060546875</LatitudeDegrees>
              <LongitudeDegrees>-4.06875290907919406890869140625</LongitudeDegrees>
            </Position>
            <AltitudeMeters>1183.800048828125</AltitudeMeters>
            <DistanceMeters>689.53302004722</DistanceMeters>
          </Trackpoint>
          <Trackpoint>
            <Time>2018-12-30T09:08:44.000Z</Time>
            <Position>
              <LatitudeDegrees>40.740299709141254425048828125</LatitudeDegrees>
              <LongitudeDegrees>-4.06874938867986202239990234375</LongitudeDegrees>
            </Position>
            <AltitudeMeters>1184</AltitudeMeters>
            <DistanceMeters>691.13725562423</DistanceMeters>
          </Trackpoint>
          <Trackpoint>
            <Time>2018-12-30T09:08:45.000Z</Time>
            <Position>
              <LatitudeDegrees>40.7403154671192169189453125</LatitudeDegrees>
              <LongitudeDegrees>-4.06875324435532093048095703125</LongitudeDegrees>
            </Position>
            <AltitudeMeters>1183.800048828125</AltitudeMeters>
            <DistanceMeters>692.91758054733</DistanceMeters>
          </Trackpoint>
          <Trackpoint>
            <Time>2018-12-30T09:08:46.000Z</Time>
            <Position>
              <LatitudeDegrees>40.74033080600202083587646484375</LatitudeDegrees>
              <LongitudeDegrees>-4.068752489984035491943359375</LongitudeDegrees>
            </Position>
            <AltitudeMeters>1183.5999755859375</AltitudeMeters>
            <DistanceMeters>694.62806140599</DistanceMeters>
          </Trackpoint>
          <Trackpoint>
            <Time>2018-12-30T09:08:47.000Z</Time>
            <Position>
              <LatitudeDegrees>40.7403464801609516143798828125</LatitudeDegrees>
              <LongitudeDegrees>-4.06875290907919406890869140625</LongitudeDegrees>
            </Position>
            <AltitudeMeters>1183.5999755859375</AltitudeMeters>
            <DistanceMeters>696.36992985256</DistanceMeters>
          </Trackpoint>
          <Trackpoint>
            <Time>2018-12-30T09:08:48.000Z</Time>
            <Position>
              <LatitudeDegrees>40.74036307632923126220703125</LatitudeDegrees>
              <LongitudeDegrees>-4.06875525601208209991455078125</LongitudeDegrees>
            </Position>
            <AltitudeMeters>1183.4000244140625</AltitudeMeters>
            <DistanceMeters>698.22720990727</DistanceMeters>
          </Trackpoint>
          <Trackpoint>
            <Time>2018-12-30T09:08:49.000Z</Time>
            <Position>
              <LatitudeDegrees>40.7403806783258914947509765625</LatitudeDegrees>
              <LongitudeDegrees>-4.06875609420239925384521484375</LongitudeDegrees>
            </Position>
            <AltitudeMeters>1183.199951171875</AltitudeMeters>
            <DistanceMeters>700.1885391925</DistanceMeters>
          </Trackpoint>
          <Trackpoint>
            <Time>2018-12-30T09:08:50.000Z</Time>
            <Position>
              <LatitudeDegrees>40.7403997890651226043701171875</LatitudeDegrees>
              <LongitudeDegrees>-4.06876045279204845428466796875</LongitudeDegrees>
            </Position>
            <AltitudeMeters>1183.199951171875</AltitudeMeters>
            <DistanceMeters>702.34713119774</DistanceMeters>
          </Trackpoint>
          <Trackpoint>
            <Time>2018-12-30T09:08:51.000Z</Time>
            <Position>
              <LatitudeDegrees>40.74041479267179965972900390625</LatitudeDegrees>
              <LongitudeDegrees>-4.06876011751592159271240234375</LongitudeDegrees>
            </Position>
            <AltitudeMeters>1183.199951171875</AltitudeMeters>
            <DistanceMeters>704.01754839748</DistanceMeters>
          </Trackpoint>
          <Trackpoint>
            <Time>2018-12-30T09:08:52.000Z</Time>
            <Position>
              <LatitudeDegrees>40.74042267166078090667724609375</LatitudeDegrees>
              <LongitudeDegrees>-4.06875290907919406890869140625</LongitudeDegrees>
            </Position>
            <AltitudeMeters>1183.199951171875</AltitudeMeters>
            <DistanceMeters>705.08422062077</DistanceMeters>
          </Trackpoint>
          <Trackpoint>
            <Time>2018-12-30T09:08:53.000Z</Time>
            <Position>
              <LatitudeDegrees>40.7404316402971744537353515625</LatitudeDegrees>
              <LongitudeDegrees>-4.06874955631792545318603515625</LongitudeDegrees>
            </Position>
            <AltitudeMeters>1183.4000244140625</AltitudeMeters>
            <DistanceMeters>706.12518612129</DistanceMeters>
          </Trackpoint>
          <Trackpoint>
            <Time>2018-12-30T09:08:54.000Z</Time>
            <Position>
              <LatitudeDegrees>40.740439184010028839111328125</LatitudeDegrees>
              <LongitudeDegrees>-4.06874536536633968353271484375</LongitudeDegrees>
            </Position>
            <AltitudeMeters>1183.5999755859375</AltitudeMeters>
            <DistanceMeters>707.03665034595</DistanceMeters>
          </Trackpoint>
          <Trackpoint>
            <Time>2018-12-30T09:08:55.000Z</Time>
            <Position>
              <LatitudeDegrees>40.740465335547924041748046875</LatitudeDegrees>
              <LongitudeDegrees>-4.0687434375286102294921875</LongitudeDegrees>
            </Position>
            <AltitudeMeters>1183.5999755859375</AltitudeMeters>
            <DistanceMeters>709.95011423921</DistanceMeters>
          </Trackpoint>
          <Trackpoint>
            <Time>2018-12-30T09:08:56.000Z</Time>
            <Position>
              <LatitudeDegrees>40.74047849513590335845947265625</LatitudeDegrees>
              <LongitudeDegrees>-4.068744443356990814208984375</LongitudeDegrees>
            </Position>
            <AltitudeMeters>1183.5999755859375</AltitudeMeters>
            <DistanceMeters>711.41611498739</DistanceMeters>
          </Trackpoint>
          <Trackpoint>
            <Time>2018-12-30T09:08:57.000Z</Time>
            <Position>
              <LatitudeDegrees>40.74049425311386585235595703125</LatitudeDegrees>
              <LongitudeDegrees>-4.068747460842132568359375</LongitudeDegrees>
            </Position>
            <AltitudeMeters>1183.5999755859375</AltitudeMeters>
            <DistanceMeters>713.18881535759</DistanceMeters>
          </Trackpoint>
          <Trackpoint>
            <Time>2018-12-30T09:08:58.000Z</Time>
            <Position>
              <LatitudeDegrees>40.7405141182243824005126953125</LatitudeDegrees>
              <LongitudeDegrees>-4.06875190325081348419189453125</LongitudeDegrees>
            </Position>
            <AltitudeMeters>1183.800048828125</AltitudeMeters>
            <DistanceMeters>715.43152634639</DistanceMeters>
          </Trackpoint>
          <Trackpoint>
            <Time>2018-12-30T09:08:59.000Z</Time>
            <Position>
              <LatitudeDegrees>40.74052627198398113250732421875</LatitudeDegrees>
              <LongitudeDegrees>-4.0687539987266063690185546875</LongitudeDegrees>
            </Position>
            <AltitudeMeters>1184</AltitudeMeters>
            <DistanceMeters>716.7954162787</DistanceMeters>
          </Trackpoint>
          <Trackpoint>
            <Time>2018-12-30T09:09:00.000Z</Time>
            <Position>
              <LatitudeDegrees>40.7405365817248821258544921875</LatitudeDegrees>
              <LongitudeDegrees>-4.0687570162117481231689453125</LongitudeDegrees>
            </Position>
            <AltitudeMeters>1184</AltitudeMeters>
            <DistanceMeters>717.96698429613</DistanceMeters>
          </Trackpoint>
          <Trackpoint>
            <Time>2018-12-30T09:09:01.000Z</Time>
            <Position>
              <LatitudeDegrees>40.7405483163893222808837890625</LatitudeDegrees>
              <LongitudeDegrees>-4.068756513297557830810546875</LongitudeDegrees>
            </Position>
            <AltitudeMeters>1184.199951171875</AltitudeMeters>
            <DistanceMeters>719.27338563106</DistanceMeters>
          </Trackpoint>
          <Trackpoint>
            <Time>2018-12-30T09:09:02.000Z</Time>
            <Position>
              <LatitudeDegrees>40.7405597157776355743408203125</LatitudeDegrees>
              <LongitudeDegrees>-4.0687593631446361541748046875</LongitudeDegrees>
            </Position>
            <AltitudeMeters>1184.5999755859375</AltitudeMeters>
            <DistanceMeters>720.5623906992</DistanceMeters>
          </Trackpoint>
          <Trackpoint>
            <Time>2018-12-30T09:09:03.000Z</Time>
            <Position>
              <LatitudeDegrees>40.74057220481336116790771484375</LatitudeDegrees>
              <LongitudeDegrees>-4.0687583573162555694580078125</LongitudeDegrees>
            </Position>
            <AltitudeMeters>1184.5999755859375</AltitudeMeters>
            <DistanceMeters>721.95251168639</DistanceMeters>
          </Trackpoint>
          <Trackpoint>
            <Time>2018-12-30T09:09:04.000Z</Time>
            <Position>
              <LatitudeDegrees>40.74058427475392818450927734375</LatitudeDegrees>
              <LongitudeDegrees>-4.0687623806297779083251953125</LongitudeDegrees>
            </Position>
            <AltitudeMeters>1184.800048828125</AltitudeMeters>
            <DistanceMeters>723.33612153245</DistanceMeters>
          </Trackpoint>
          <Trackpoint>
            <Time>2018-12-30T09:09:05.000Z</Time>
            <Position>
              <LatitudeDegrees>40.74060036800801753997802734375</LatitudeDegrees>
              <LongitudeDegrees>-4.068763218820095062255859375</LongitudeDegrees>
            </Position>
            <AltitudeMeters>1185</AltitudeMeters>
            <DistanceMeters>725.12908199326</DistanceMeters>
          </Trackpoint>
          <Trackpoint>
            <Time>2018-12-30T09:09:06.000Z</Time>
            <Position>
              <LatitudeDegrees>40.74061327613890171051025390625</LatitudeDegrees>
              <LongitudeDegrees>-4.0687674097716808319091796875</LongitudeDegrees>
            </Position>
            <AltitudeMeters>1185</AltitudeMeters>
            <DistanceMeters>726.60735074401</DistanceMeters>
          </Trackpoint>
          <Trackpoint>
            <Time>2018-12-30T09:09:07.000Z</Time>
            <Position>
              <LatitudeDegrees>40.7406250946223735809326171875</LatitudeDegrees>
              <LongitudeDegrees>-4.068765901029109954833984375</LongitudeDegrees>
            </Position>
            <AltitudeMeters>1185</AltitudeMeters>
            <DistanceMeters>727.93091971846</DistanceMeters>
          </Trackpoint>
          <Trackpoint>
            <Time>2018-12-30T09:09:08.000Z</Time>
            <Position>
              <LatitudeDegrees>40.7406321354210376739501953125</LatitudeDegrees>
              <LongitudeDegrees>-4.0687690861523151397705078125</LongitudeDegrees>
            </Position>
            <AltitudeMeters>1184.5999755859375</AltitudeMeters>
            <DistanceMeters>728.75934340821</DistanceMeters>
          </Trackpoint>
          <Trackpoint>
            <Time>2018-12-30T09:09:09.000Z</Time>
            <Position>
              <LatitudeDegrees>40.74063875712454319000244140625</LatitudeDegrees>
              <LongitudeDegrees>-4.06877235509455204010009765625</LongitudeDegrees>
            </Position>
            <AltitudeMeters>1184.4000244140625</AltitudeMeters>
            <DistanceMeters>729.54295376942</DistanceMeters>
          </Trackpoint>
          <Trackpoint>
            <Time>2018-12-30T09:09:10.000Z</Time>
            <Position>
              <LatitudeDegrees>40.74064194224774837493896484375</LatitudeDegrees>
              <LongitudeDegrees>-4.06877093017101287841796875</LongitudeDegrees>
            </Position>
            <AltitudeMeters>1184.199951171875</AltitudeMeters>
            <DistanceMeters>729.9230606269</DistanceMeters>
          </Trackpoint>
          <Trackpoint>
            <Time>2018-12-30T09:09:11.000Z</Time>
            <Position>
              <LatitudeDegrees>40.74064479209482669830322265625</LatitudeDegrees>
              <LongitudeDegrees>-4.06876967288553714752197265625</LongitudeDegrees>
            </Position>
            <AltitudeMeters>1184.199951171875</AltitudeMeters>
            <DistanceMeters>730.25224282163</DistanceMeters>
          </Trackpoint>
          <Trackpoint>
            <Time>2018-12-30T09:09:12.000Z</Time>
            <Position>
              <LatitudeDegrees>40.74065116234123706817626953125</LatitudeDegrees>
              <LongitudeDegrees>-4.0687717683613300323486328125</LongitudeDegrees>
            </Position>
            <AltitudeMeters>1184.199951171875</AltitudeMeters>
            <DistanceMeters>730.98215686464</DistanceMeters>
          </Trackpoint>
          <Trackpoint>
            <Time>2018-12-30T09:09:13.000Z</Time>
            <Position>
              <LatitudeDegrees>40.74065946042537689208984375</LatitudeDegrees>
              <LongitudeDegrees>-4.068772606551647186279296875</LongitudeDegrees>
            </Position>
            <AltitudeMeters>1184.4000244140625</AltitudeMeters>
            <DistanceMeters>731.9132247132</DistanceMeters>
          </Trackpoint>
          <Trackpoint>
            <Time>2018-12-30T09:09:14.000Z</Time>
            <Position>
              <LatitudeDegrees>40.740674547851085662841796875</LatitudeDegrees>
              <LongitudeDegrees>-4.06877227127552032470703125</LongitudeDegrees>
            </Position>
            <AltitudeMeters>1184.5999755859375</AltitudeMeters>
            <DistanceMeters>733.59173114766</DistanceMeters>
          </Trackpoint>
          <Trackpoint>
            <Time>2018-12-30T09:09:15.000Z</Time>
            <Position>
              <LatitudeDegrees>40.7406851090490818023681640625</LatitudeDegrees>
              <LongitudeDegrees>-4.068767242133617401123046875</LongitudeDegrees>
            </Position>
            <AltitudeMeters>1184.800048828125</AltitudeMeters>
            <DistanceMeters>734.84161243194</DistanceMeters>
          </Trackpoint>
          <Trackpoint>
            <Time>2018-12-30T09:09:16.000Z</Time>
            <Position>
              <LatitudeDegrees>40.74070430360734462738037109375</LatitudeDegrees>
              <LongitudeDegrees>-4.068766571581363677978515625</LongitudeDegrees>
            </Position>
            <AltitudeMeters>1185</AltitudeMeters>
            <DistanceMeters>736.97918551389</DistanceMeters>
          </Trackpoint>
          <Trackpoint>
            <Time>2018-12-30T09:09:17.000Z</Time>
            <Position>
              <LatitudeDegrees>40.740709416568279266357421875</LatitudeDegrees>
              <LongitudeDegrees>-4.0687637217342853546142578125</LongitudeDegrees>
            </Position>
            <AltitudeMeters>1185.199951171875</AltitudeMeters>
            <DistanceMeters>737.59502900914</DistanceMeters>
          </Trackpoint>
          <Trackpoint>
            <Time>2018-12-30T09:09:18.000Z</Time>
            <Position>
              <LatitudeDegrees>40.74071176350116729736328125</LatitudeDegrees>
              <LongitudeDegrees>-4.068765901029109954833984375</LongitudeDegrees>
            </Position>
            <AltitudeMeters>1185.199951171875</AltitudeMeters>
            <DistanceMeters>737.91019696576</DistanceMeters>
          </Trackpoint>
          <Trackpoint>
            <Time>2018-12-30T09:09:19.000Z</Time>
            <Position>
              <LatitudeDegrees>40.7407166250050067901611328125</LatitudeDegrees>
              <LongitudeDegrees>-4.06876866705715656280517578125</LongitudeDegrees>
            </Position>
            <AltitudeMeters>1185.199951171875</AltitudeMeters>
            <DistanceMeters>738.49598097448</DistanceMeters>
          </Trackpoint>
          <Trackpoint>
            <Time>2018-12-30T09:09:20.000Z</Time>
            <Position>
              <LatitudeDegrees>40.74072307907044887542724609375</LatitudeDegrees>
              <LongitudeDegrees>-4.06877470202744007110595703125</LongitudeDegrees>
            </Position>
            <AltitudeMeters>1185.199951171875</AltitudeMeters>
            <DistanceMeters>739.37208399225</DistanceMeters>
          </Trackpoint>
          <Trackpoint>
            <Time>2018-12-30T09:09:21.000Z</Time>
            <Position>
              <LatitudeDegrees>40.740729533135890960693359375</LatitudeDegrees>
              <LongitudeDegrees>-4.0687824971973896026611328125</LongitudeDegrees>
            </Position>
            <AltitudeMeters>1185</AltitudeMeters>
            <DistanceMeters>740.34117013402</DistanceMeters>
          </Trackpoint>
          <Trackpoint>
            <Time>2018-12-30T09:09:22.000Z</Time>
            <Position>
              <LatitudeDegrees>40.74073766358196735382080078125</LatitudeDegrees>
              <LongitudeDegrees>-4.0687848441302776336669921875</LongitudeDegrees>
            </Position>
            <AltitudeMeters>1185</AltitudeMeters>
            <DistanceMeters>741.27223798258</DistanceMeters>
          </Trackpoint>
          <Trackpoint>
            <Time>2018-12-30T09:09:23.000Z</Time>
            <Position>
              <LatitudeDegrees>40.7407478056848049163818359375</LatitudeDegrees>
              <LongitudeDegrees>-4.06878056935966014862060546875</LongitudeDegrees>
            </Position>
            <AltitudeMeters>1184.800048828125</AltitudeMeters>
            <DistanceMeters>742.45912126465</DistanceMeters>
          </Trackpoint>
          <Trackpoint>
            <Time>2018-12-30T09:09:24.000Z</Time>
            <Position>
              <LatitudeDegrees>40.74075794778764247894287109375</LatitudeDegrees>
              <LongitudeDegrees>-4.06878526322543621063232421875</LongitudeDegrees>
            </Position>
            <AltitudeMeters>1184.800048828125</AltitudeMeters>
            <DistanceMeters>743.65358854262</DistanceMeters>
          </Trackpoint>
          <Trackpoint>
            <Time>2018-12-30T09:09:25.000Z</Time>
            <Position>
              <LatitudeDegrees>40.74076565913856029510498046875</LatitudeDegrees>
              <LongitudeDegrees>-4.068788699805736541748046875</LongitudeDegrees>
            </Position>
            <AltitudeMeters>1184.800048828125</AltitudeMeters>
            <DistanceMeters>744.55509111053</DistanceMeters>
          </Trackpoint>
          <Trackpoint>
            <Time>2018-12-30T09:09:26.000Z</Time>
            <Position>
              <LatitudeDegrees>40.7407726161181926727294921875</LatitudeDegrees>
              <LongitudeDegrees>-4.0687917172908782958984375</LongitudeDegrees>
            </Position>
            <AltitudeMeters>1185</AltitudeMeters>
            <DistanceMeters>745.3725418166</DistanceMeters>
          </Trackpoint>
          <Trackpoint>
            <Time>2018-12-30T09:09:27.000Z</Time>
            <Position>
              <LatitudeDegrees>40.74078275822103023529052734375</LatitudeDegrees>
              <LongitudeDegrees>-4.06878643669188022613525390625</LongitudeDegrees>
            </Position>
            <AltitudeMeters>1185.199951171875</AltitudeMeters>
            <DistanceMeters>746.58947753257</DistanceMeters>
          </Trackpoint>
          <Trackpoint>
            <Time>2018-12-30T09:09:28.000Z</Time>
            <Position>
              <LatitudeDegrees>40.74079197831451892852783203125</LatitudeDegrees>
              <LongitudeDegrees>-4.06878677196800708770751953125</LongitudeDegrees>
            </Position>
            <AltitudeMeters>1185.4000244140625</AltitudeMeters>
            <DistanceMeters>747.6129465685</DistanceMeters>
          </Trackpoint>
          <Trackpoint>
            <Time>2018-12-30T09:09:29.000Z</Time>
            <Position>
              <LatitudeDegrees>40.7408041320741176605224609375</LatitudeDegrees>
              <LongitudeDegrees>-4.068779982626438140869140625</LongitudeDegrees>
            </Position>
            <AltitudeMeters>1185.5999755859375</AltitudeMeters>
            <DistanceMeters>749.07894731668</DistanceMeters>
          </Trackpoint>
          <Trackpoint>
            <Time>2018-12-30T09:09:30.000Z</Time>
            <Position>
              <LatitudeDegrees>40.74081511236727237701416015625</LatitudeDegrees>
              <LongitudeDegrees>-4.06879850663244724273681640625</LongitudeDegrees>
            </Position>
            <AltitudeMeters>1185.800048828125</AltitudeMeters>
            <DistanceMeters>751.06316336579</DistanceMeters>
          </Trackpoint>
          <Trackpoint>
            <Time>2018-12-30T09:09:31.000Z</Time>
            <Position>
              <LatitudeDegrees>40.74082651175558567047119140625</LatitudeDegrees>
              <LongitudeDegrees>-4.06880705617368221282958984375</LongitudeDegrees>
            </Position>
            <AltitudeMeters>1185.800048828125</AltitudeMeters>
            <DistanceMeters>752.52299145183</DistanceMeters>
          </Trackpoint>
          <Trackpoint>
            <Time>2018-12-30T09:09:32.000Z</Time>
            <Position>
              <LatitudeDegrees>40.74083170853555202484130859375</LatitudeDegrees>
              <LongitudeDegrees>-4.068811833858489990234375</LongitudeDegrees>
            </Position>
            <AltitudeMeters>1185.800048828125</AltitudeMeters>
            <DistanceMeters>753.22129233825</DistanceMeters>
          </Trackpoint>
          <Trackpoint>
            <Time>2018-12-30T09:09:33.000Z</Time>
            <Position>
              <LatitudeDegrees>40.74082500301301479339599609375</LatitudeDegrees>
              <LongitudeDegrees>-4.0688190422952175140380859375</LongitudeDegrees>
            </Position>
            <AltitudeMeters>1185.800048828125</AltitudeMeters>
            <DistanceMeters>754.18570815817</DistanceMeters>
          </Trackpoint>
          <Trackpoint>
            <Time>2018-12-30T09:09:34.000Z</Time>
            <Position>
              <LatitudeDegrees>40.7408155314624309539794921875</LatitudeDegrees>
              <LongitudeDegrees>-4.0688240714371204376220703125</LongitudeDegrees>
            </Position>
            <AltitudeMeters>1185.5999755859375</AltitudeMeters>
            <DistanceMeters>755.32602873061</DistanceMeters>
          </Trackpoint>
          <Trackpoint>
            <Time>2018-12-30T09:09:35.000Z</Time>
            <Position>
              <LatitudeDegrees>40.7408118434250354766845703125</LatitudeDegrees>
              <LongitudeDegrees>-4.06882633455097675323486328125</LongitudeDegrees>
            </Position>
            <AltitudeMeters>1185.4000244140625</AltitudeMeters>
            <DistanceMeters>755.78176084295</DistanceMeters>
          </Trackpoint>
          <Trackpoint>
            <Time>2018-12-30T09:09:36.000Z</Time>
            <Position>
              <LatitudeDegrees>40.74080673046410083770751953125</LatitudeDegrees>
              <LongitudeDegrees>-4.068826921284198760986328125</LongitudeDegrees>
            </Position>
            <AltitudeMeters>1185.4000244140625</AltitudeMeters>
            <DistanceMeters>756.35192112917</DistanceMeters>
          </Trackpoint>
          <Trackpoint>
            <Time>2018-12-30T09:09:37.000Z</Time>
            <Position>
              <LatitudeDegrees>40.74080505408346652984619140625</LatitudeDegrees>
              <LongitudeDegrees>-4.06883186660706996917724609375</LongitudeDegrees>
            </Position>
            <AltitudeMeters>1185.199951171875</AltitudeMeters>
            <DistanceMeters>756.81745505344</DistanceMeters>
          </Trackpoint>
          <Trackpoint>
            <Time>2018-12-30T09:09:38.000Z</Time>
            <Position>
              <LatitudeDegrees>40.740804970264434814453125</LatitudeDegrees>
              <LongitudeDegrees>-4.068841673433780670166015625</LongitudeDegrees>
            </Position>
            <AltitudeMeters>1185.199951171875</AltitudeMeters>
            <DistanceMeters>757.6458787432</DistanceMeters>
          </Trackpoint>
          <Trackpoint>
            <Time>2018-12-30T09:09:39.000Z</Time>
            <Position>
              <LatitudeDegrees>40.74080698192119598388671875</LatitudeDegrees>
              <LongitudeDegrees>-4.06885131262242794036865234375</LongitudeDegrees>
            </Position>
            <AltitudeMeters>1185.199951171875</AltitudeMeters>
            <DistanceMeters>758.49049465535</DistanceMeters>
          </Trackpoint>
          <Trackpoint>
            <Time>2018-12-30T09:09:40.000Z</Time>
            <Position>
              <LatitudeDegrees>40.74080823920667171478271484375</LatitudeDegrees>
              <LongitudeDegrees>-4.06885852105915546417236328125</LongitudeDegrees>
            </Position>
            <AltitudeMeters>1185.199951171875</AltitudeMeters>
            <DistanceMeters>759.12083056861</DistanceMeters>
          </Trackpoint>
          <Trackpoint>
            <Time>2018-12-30T09:09:41.000Z</Time>
            <Position>
              <LatitudeDegrees>40.74080823920667171478271484375</LatitudeDegrees>
              <LongitudeDegrees>-4.0688643045723438262939453125</LongitudeDegrees>
            </Position>
            <AltitudeMeters>1185.4000244140625</AltitudeMeters>
            <DistanceMeters>759.60537363949</DistanceMeters>
          </Trackpoint>
          <Trackpoint>
            <Time>2018-12-30T09:09:42.000Z</Time>
            <Position>
              <LatitudeDegrees>40.7408041320741176605224609375</LatitudeDegrees>
              <LongitudeDegrees>-4.06886841170489788055419921875</LongitudeDegrees>
            </Position>
            <AltitudeMeters>1185.4000244140625</AltitudeMeters>
            <DistanceMeters>760.17553392571</DistanceMeters>
          </Trackpoint>
          <Trackpoint>
            <Time>2018-12-30T09:09:43.000Z</Time>
            <Position>
              <LatitudeDegrees>40.74079935438930988311767578125</LatitudeDegrees>
              <LongitudeDegrees>-4.0688740275800228118896484375</LongitudeDegrees>
            </Position>
            <AltitudeMeters>1185.199951171875</AltitudeMeters>
            <DistanceMeters>760.89296988613</DistanceMeters>
          </Trackpoint>
          <Trackpoint>
            <Time>2018-12-30T09:09:44.000Z</Time>
            <Position>
              <LatitudeDegrees>40.740793235599994659423828125</LatitudeDegrees>
              <LongitudeDegrees>-4.068869166076183319091796875</LongitudeDegrees>
            </Position>
            <AltitudeMeters>1185.199951171875</AltitudeMeters>
            <DistanceMeters>761.68802041979</DistanceMeters>
          </Trackpoint>
          <Trackpoint>
            <Time>2018-12-30T09:09:45.000Z</Time>
            <Position>
              <LatitudeDegrees>40.74078912846744060516357421875</LatitudeDegrees>
              <LongitudeDegrees>-4.0688669867813587188720703125</LongitudeDegrees>
            </Position>
            <AltitudeMeters>1185.199951171875</AltitudeMeters>
            <DistanceMeters>762.18179371189</DistanceMeters>
          </Trackpoint>
          <Trackpoint>
            <Time>2018-12-30T09:09:46.000Z</Time>
            <Position>
              <LatitudeDegrees>40.740789212286472320556640625</LatitudeDegrees>
              <LongitudeDegrees>-4.06886891461908817291259765625</LongitudeDegrees>
            </Position>
            <AltitudeMeters>1185.199951171875</AltitudeMeters>
            <DistanceMeters>762.31618178014</DistanceMeters>
          </Trackpoint>
          <Trackpoint>
            <Time>2018-12-30T09:09:47.000Z</Time>
            <Position>
              <LatitudeDegrees>40.740788541734218597412109375</LatitudeDegrees>
              <LongitudeDegrees>-4.0688733570277690887451171875</LongitudeDegrees>
            </Position>
            <AltitudeMeters>1185</AltitudeMeters>
            <DistanceMeters>762.69628863762</DistanceMeters>
          </Trackpoint>
          <Trackpoint>
            <Time>2018-12-30T09:09:48.000Z</Time>
            <Position>
              <LatitudeDegrees>40.7407866977155208587646484375</LatitudeDegrees>
              <LongitudeDegrees>-4.06887277029454708099365234375</LongitudeDegrees>
            </Position>
            <AltitudeMeters>1184.800048828125</AltitudeMeters>
            <DistanceMeters>762.90877483063</DistanceMeters>
          </Trackpoint>
          <Trackpoint>
            <Time>2018-12-30T09:09:49.000Z</Time>
            <Position>
              <LatitudeDegrees>40.7407893799245357513427734375</LatitudeDegrees>
              <LongitudeDegrees>-4.06886606477200984954833984375</LongitudeDegrees>
            </Position>
            <AltitudeMeters>1185</AltitudeMeters>
            <DistanceMeters>763.5532773647</DistanceMeters>
          </Trackpoint>
          <Trackpoint>
            <Time>2018-12-30T09:09:50.000Z</Time>
            <Position>
              <LatitudeDegrees>40.74079600162804126739501953125</LatitudeDegrees>
              <LongitudeDegrees>-4.06885801814496517181396484375</LongitudeDegrees>
            </Position>
            <AltitudeMeters>1185</AltitudeMeters>
            <DistanceMeters>764.55444592457</DistanceMeters>
          </Trackpoint>
          <Trackpoint>
            <Time>2018-12-30T09:09:51.000Z</Time>
            <Position>
              <LatitudeDegrees>40.7407947443425655364990234375</LatitudeDegrees>
              <LongitudeDegrees>-4.06885785050690174102783203125</LongitudeDegrees>
            </Position>
            <AltitudeMeters>1184.800048828125</AltitudeMeters>
            <DistanceMeters>764.68883399282</DistanceMeters>
          </Trackpoint>
          <Trackpoint>
            <Time>2018-12-30T09:09:52.000Z</Time>
            <Position>
              <LatitudeDegrees>40.74079130776226520538330078125</LatitudeDegrees>
              <LongitudeDegrees>-4.0688592754304409027099609375</LongitudeDegrees>
            </Position>
            <AltitudeMeters>1184.4000244140625</AltitudeMeters>
            <DistanceMeters>765.09199819757</DistanceMeters>
          </Trackpoint>
          <Trackpoint>
            <Time>2018-12-30T09:09:53.000Z</Time>
            <Position>
              <LatitudeDegrees>40.7407950796186923980712890625</LatitudeDegrees>
              <LongitudeDegrees>-4.06885215081274509429931640625</LongitudeDegrees>
            </Position>
            <AltitudeMeters>1184.199951171875</AltitudeMeters>
            <DistanceMeters>765.82807196197</DistanceMeters>
          </Trackpoint>
          <Trackpoint>
            <Time>2018-12-30T09:09:54.000Z</Time>
            <Position>
              <LatitudeDegrees>40.740796588361263275146484375</LatitudeDegrees>
              <LongitudeDegrees>-4.06885600648820400238037109375</LongitudeDegrees>
            </Position>
            <AltitudeMeters>1184.199951171875</AltitudeMeters>
            <DistanceMeters>766.19610884417</DistanceMeters>
          </Trackpoint>
          <Trackpoint>
            <Time>2018-12-30T09:09:55.000Z</Time>
            <Position>
              <LatitudeDegrees>40.7407970912754535675048828125</LatitudeDegrees>
              <LongitudeDegrees>-4.06886170618236064910888671875</LongitudeDegrees>
            </Position>
            <AltitudeMeters>1184.4000244140625</AltitudeMeters>
            <DistanceMeters>766.68065191506</DistanceMeters>
          </Trackpoint>
          <Trackpoint>
            <Time>2018-12-30T09:09:56.000Z</Time>
            <Position>
              <LatitudeDegrees>40.7407991029322147369384765625</LatitudeDegrees>
              <LongitudeDegrees>-4.06886924989521503448486328125</LongitudeDegrees>
            </Position>
            <AltitudeMeters>1184.5999755859375</AltitudeMeters>
            <DistanceMeters>767.35927839453</DistanceMeters>
          </Trackpoint>
          <Trackpoint>
            <Time>2018-12-30T09:09:57.000Z</Time>
            <Position>
              <LatitudeDegrees>40.74078929610550403594970703125</LatitudeDegrees>
              <LongitudeDegrees>-4.06889188103377819061279296875</LongitudeDegrees>
            </Position>
            <AltitudeMeters>1185</AltitudeMeters>
            <DistanceMeters>769.55930588844</DistanceMeters>
          </Trackpoint>
          <Trackpoint>
            <Time>2018-12-30T09:09:58.000Z</Time>
            <Position>
              <LatitudeDegrees>40.74078577570617198944091796875</LatitudeDegrees>
              <LongitudeDegrees>-4.06889238394796848297119140625</LongitudeDegrees>
            </Position>
            <AltitudeMeters>1185.4000244140625</AltitudeMeters>
            <DistanceMeters>769.93941274592</DistanceMeters>
          </Trackpoint>
          <Trackpoint>
            <Time>2018-12-30T09:09:59.000Z</Time>
            <Position>
              <LatitudeDegrees>40.740779824554920196533203125</LatitudeDegrees>
              <LongitudeDegrees>-4.06889070756733417510986328125</LongitudeDegrees>
            </Position>
            <AltitudeMeters>1185.5999755859375</AltitudeMeters>
            <DistanceMeters>770.61135308717</DistanceMeters>
          </Trackpoint>
          <Trackpoint>
            <Time>2018-12-30T09:10:00.000Z</Time>
            <Position>
              <LatitudeDegrees>40.740768425166606903076171875</LatitudeDegrees>
              <LongitudeDegrees>-4.06889322213828563690185546875</LongitudeDegrees>
            </Position>
            <AltitudeMeters>1186</AltitudeMeters>
            <DistanceMeters>771.89333355223</DistanceMeters>
          </Trackpoint>
          <Trackpoint>
            <Time>2018-12-30T09:10:01.000Z</Time>
            <Position>
              <LatitudeDegrees>40.74075845070183277130126953125</LatitudeDegrees>
              <LongitudeDegrees>-4.06888802535831928253173828125</LongitudeDegrees>
            </Position>
            <AltitudeMeters>1186.199951171875</AltitudeMeters>
            <DistanceMeters>773.08401487051</DistanceMeters>
          </Trackpoint>
          <Trackpoint>
            <Time>2018-12-30T09:10:02.000Z</Time>
            <Position>
              <LatitudeDegrees>40.74074990116059780120849609375</LatitudeDegrees>
              <LongitudeDegrees>-4.06888626515865325927734375</LongitudeDegrees>
            </Position>
            <AltitudeMeters>1186.199951171875</AltitudeMeters>
            <DistanceMeters>774.04373764156</DistanceMeters>
          </Trackpoint>
          <Trackpoint>
            <Time>2018-12-30T09:10:03.000Z</Time>
            <Position>
              <LatitudeDegrees>40.7407441176474094390869140625</LatitudeDegrees>
              <LongitudeDegrees>-4.068884588778018951416015625</LongitudeDegrees>
            </Position>
            <AltitudeMeters>1186.4000244140625</AltitudeMeters>
            <DistanceMeters>774.70210203103</DistanceMeters>
          </Trackpoint>
          <Trackpoint>
            <Time>2018-12-30T09:10:04.000Z</Time>
            <Position>
              <LatitudeDegrees>40.7407424412667751312255859375</LatitudeDegrees>
              <LongitudeDegrees>-4.06888299621641635894775390625</LongitudeDegrees>
            </Position>
            <AltitudeMeters>1186.199951171875</AltitudeMeters>
            <DistanceMeters>774.93486899316</DistanceMeters>
          </Trackpoint>
          <Trackpoint>
            <Time>2018-12-30T09:10:05.000Z</Time>
            <Position>
              <LatitudeDegrees>40.7407427765429019927978515625</LatitudeDegrees>
              <LongitudeDegrees>-4.0688830800354480743408203125</LongitudeDegrees>
            </Position>
            <AltitudeMeters>1186.199951171875</AltitudeMeters>
            <DistanceMeters>774.93486899316</DistanceMeters>
          </Trackpoint>
          <Trackpoint>
            <Time>2018-12-30T09:10:06.000Z</Time>
            <Position>
              <LatitudeDegrees>40.74074470438063144683837890625</LatitudeDegrees>
              <LongitudeDegrees>-4.0688783861696720123291015625</LongitudeDegrees>
            </Position>
            <AltitudeMeters>1186.4000244140625</AltitudeMeters>
            <DistanceMeters>775.3906011055</DistanceMeters>
          </Trackpoint>
          <Trackpoint>
            <Time>2018-12-30T09:10:07.000Z</Time>
            <Position>
              <LatitudeDegrees>40.7407484762370586395263671875</LatitudeDegrees>
              <LongitudeDegrees>-4.06887310557067394256591796875</LongitudeDegrees>
            </Position>
            <AltitudeMeters>1186.4000244140625</AltitudeMeters>
            <DistanceMeters>776.00644460075</DistanceMeters>
          </Trackpoint>
          <Trackpoint>
            <Time>2018-12-30T09:10:08.000Z</Time>
            <Position>
              <LatitudeDegrees>40.74074721895158290863037109375</LatitudeDegrees>
              <LongitudeDegrees>-4.06886992044746875762939453125</LongitudeDegrees>
            </Position>
            <AltitudeMeters>1186.199951171875</AltitudeMeters>
            <DistanceMeters>776.32161255738</DistanceMeters>
          </Trackpoint>
          <Trackpoint>
            <Time>2018-12-30T09:10:09.000Z</Time>
            <Position>
              <LatitudeDegrees>40.74073992669582366943359375</LatitudeDegrees>
              <LongitudeDegrees>-4.0688643045723438262939453125</LongitudeDegrees>
            </Position>
            <AltitudeMeters>1186.199951171875</AltitudeMeters>
            <DistanceMeters>777.26232903512</DistanceMeters>
          </Trackpoint>
          <Trackpoint>
            <Time>2018-12-30T09:10:10.000Z</Time>
            <Position>
              <LatitudeDegrees>40.74073531664907932281494140625</LatitudeDegrees>
              <LongitudeDegrees>-4.068861119449138641357421875</LongitudeDegrees>
            </Position>
            <AltitudeMeters>1186.199951171875</AltitudeMeters>
            <DistanceMeters>777.84035397267</DistanceMeters>
          </Trackpoint>
          <Trackpoint>
            <Time>2018-12-30T09:10:11.000Z</Time>
            <Position>
              <LatitudeDegrees>40.7407330535352230072021484375</LatitudeDegrees>
              <LongitudeDegrees>-4.068861790001392364501953125</LongitudeDegrees>
            </Position>
            <AltitudeMeters>1186.199951171875</AltitudeMeters>
            <DistanceMeters>778.10913010917</DistanceMeters>
          </Trackpoint>
          <Trackpoint>
            <Time>2018-12-30T09:10:12.000Z</Time>
            <Position>
              <LatitudeDegrees>40.740728862583637237548828125</LatitudeDegrees>
              <LongitudeDegrees>-4.068865142762660980224609375</LongitudeDegrees>
            </Position>
            <AltitudeMeters>1186.199951171875</AltitudeMeters>
            <DistanceMeters>778.65501702296</DistanceMeters>
          </Trackpoint>
          <Trackpoint>
            <Time>2018-12-30T09:10:13.000Z</Time>
            <Position>
              <LatitudeDegrees>40.74072827585041522979736328125</LatitudeDegrees>
              <LongitudeDegrees>-4.06886556185781955718994140625</LongitudeDegrees>
            </Position>
            <AltitudeMeters>1186</AltitudeMeters>
            <DistanceMeters>778.75004373733</DistanceMeters>
          </Trackpoint>
          <Trackpoint>
            <Time>2018-12-30T09:10:14.000Z</Time>
            <Position>
              <LatitudeDegrees>40.74072743766009807586669921875</LatitudeDegrees>
              <LongitudeDegrees>-4.06886589713394641876220703125</LongitudeDegrees>
            </Position>
            <AltitudeMeters>1185.800048828125</AltitudeMeters>
            <DistanceMeters>778.88443180558</DistanceMeters>
          </Trackpoint>
          <Trackpoint>
            <Time>2018-12-30T09:10:15.000Z</Time>
            <Position>
              <LatitudeDegrees>40.74072659946978092193603515625</LatitudeDegrees>
              <LongitudeDegrees>-4.06886455602943897247314453125</LongitudeDegrees>
            </Position>
            <AltitudeMeters>1185.5999755859375</AltitudeMeters>
            <DistanceMeters>779.01881987383</DistanceMeters>
          </Trackpoint>
          <Trackpoint>
            <Time>2018-12-30T09:10:16.000Z</Time>
            <Position>
              <LatitudeDegrees>40.7407256774604320526123046875</LatitudeDegrees>
              <LongitudeDegrees>-4.0688632987439632415771484375</LongitudeDegrees>
            </Position>
            <AltitudeMeters>1185.4000244140625</AltitudeMeters>
            <DistanceMeters>779.15320794208</DistanceMeters>
          </Trackpoint>
          <Trackpoint>
            <Time>2018-12-30T09:10:17.000Z</Time>
            <Position>
              <LatitudeDegrees>40.7407263480126857757568359375</LatitudeDegrees>
              <LongitudeDegrees>-4.068863801658153533935546875</LongitudeDegrees>
            </Position>
            <AltitudeMeters>1185</AltitudeMeters>
            <DistanceMeters>779.15320794208</DistanceMeters>
          </Trackpoint>
          <Trackpoint>
            <Time>2018-12-30T09:10:18.000Z</Time>
            <Position>
              <LatitudeDegrees>40.74072492308914661407470703125</LatitudeDegrees>
              <LongitudeDegrees>-4.06886338256299495697021484375</LongitudeDegrees>
            </Position>
            <AltitudeMeters>1185.199951171875</AltitudeMeters>
            <DistanceMeters>779.28759601033</DistanceMeters>
          </Trackpoint>
          <Trackpoint>
            <Time>2018-12-30T09:10:19.000Z</Time>
            <Position>
              <LatitudeDegrees>40.7407233305275440216064453125</LatitudeDegrees>
              <LongitudeDegrees>-4.06887394376099109649658203125</LongitudeDegrees>
            </Position>
            <AltitudeMeters>1185.4000244140625</AltitudeMeters>
            <DistanceMeters>780.19409309053</DistanceMeters>
          </Trackpoint>
          <Trackpoint>
            <Time>2018-12-30T09:10:20.000Z</Time>
            <Position>
              <LatitudeDegrees>40.74074529111385345458984375</LatitudeDegrees>
              <LongitudeDegrees>-4.06885382719337940216064453125</LongitudeDegrees>
            </Position>
            <AltitudeMeters>1185.4000244140625</AltitudeMeters>
            <DistanceMeters>783.16889979266</DistanceMeters>
          </Trackpoint>
          <Trackpoint>
            <Time>2018-12-30T09:10:21.000Z</Time>
            <Position>
              <LatitudeDegrees>40.740757696330547332763671875</LatitudeDegrees>
              <LongitudeDegrees>-4.0688458643853664398193359375</LongitudeDegrees>
            </Position>
            <AltitudeMeters>1185.199951171875</AltitudeMeters>
            <DistanceMeters>784.70704153786</DistanceMeters>
          </Trackpoint>
          <Trackpoint>
            <Time>2018-12-30T09:10:22.000Z</Time>
            <Position>
              <LatitudeDegrees>40.74077588506042957305908203125</LatitudeDegrees>
              <LongitudeDegrees>-4.068838655948638916015625</LongitudeDegrees>
            </Position>
            <AltitudeMeters>1185</AltitudeMeters>
            <DistanceMeters>786.823386953</DistanceMeters>
          </Trackpoint>
          <Trackpoint>
            <Time>2018-12-30T09:10:23.000Z</Time>
            <Position>
              <LatitudeDegrees>40.74078292585909366607666015625</LatitudeDegrees>
              <LongitudeDegrees>-4.06883756630122661590576171875</LongitudeDegrees>
            </Position>
            <AltitudeMeters>1185</AltitudeMeters>
            <DistanceMeters>787.60699731421</DistanceMeters>
          </Trackpoint>
          <Trackpoint>
            <Time>2018-12-30T09:10:24.000Z</Time>
            <Position>
              <LatitudeDegrees>40.74078426696360111236572265625</LatitudeDegrees>
              <LongitudeDegrees>-4.06883387826383113861083984375</LongitudeDegrees>
            </Position>
            <AltitudeMeters>1185</AltitudeMeters>
            <DistanceMeters>787.96255472197</DistanceMeters>
          </Trackpoint>
          <Trackpoint>
            <Time>2018-12-30T09:10:25.000Z</Time>
            <Position>
              <LatitudeDegrees>40.7407856918871402740478515625</LatitudeDegrees>
              <LongitudeDegrees>-4.06883337534964084625244140625</LongitudeDegrees>
            </Position>
            <AltitudeMeters>1185</AltitudeMeters>
            <DistanceMeters>788.15260815071</DistanceMeters>
          </Trackpoint>
          <Trackpoint>
            <Time>2018-12-30T09:10:26.000Z</Time>
            <Position>
              <LatitudeDegrees>40.7407880388200283050537109375</LatitudeDegrees>
              <LongitudeDegrees>-4.06883127987384796142578125</LongitudeDegrees>
            </Position>
            <AltitudeMeters>1185.199951171875</AltitudeMeters>
            <DistanceMeters>788.45310900669</DistanceMeters>
          </Trackpoint>
          <Trackpoint>
            <Time>2018-12-30T09:10:27.000Z</Time>
            <Position>
              <LatitudeDegrees>40.74078896082937717437744140625</LatitudeDegrees>
              <LongitudeDegrees>-4.068824909627437591552734375</LongitudeDegrees>
            </Position>
            <AltitudeMeters>1185.4000244140625</AltitudeMeters>
            <DistanceMeters>788.99066127968</DistanceMeters>
          </Trackpoint>
          <Trackpoint>
            <Time>2018-12-30T09:10:28.000Z</Time>
            <Position>
              <LatitudeDegrees>40.74079080484807491302490234375</LatitudeDegrees>
              <LongitudeDegrees>-4.06882080249488353729248046875</LongitudeDegrees>
            </Position>
            <AltitudeMeters>1185.5999755859375</AltitudeMeters>
            <DistanceMeters>789.39382548443</DistanceMeters>
          </Trackpoint>
          <Trackpoint>
            <Time>2018-12-30T09:10:29.000Z</Time>
            <Position>
              <LatitudeDegrees>40.74080220423638820648193359375</LatitudeDegrees>
              <LongitudeDegrees>-4.0688230656087398529052734375</LongitudeDegrees>
            </Position>
            <AltitudeMeters>1185.800048828125</AltitudeMeters>
            <DistanceMeters>790.67932304929</DistanceMeters>
          </Trackpoint>
          <Trackpoint>
            <Time>2018-12-30T09:10:30.000Z</Time>
            <Position>
              <LatitudeDegrees>40.74081829749047756195068359375</LatitudeDegrees>
              <LongitudeDegrees>-4.06882591545581817626953125</LongitudeDegrees>
            </Position>
            <AltitudeMeters>1186</AltitudeMeters>
            <DistanceMeters>792.48732959593</DistanceMeters>
          </Trackpoint>
          <Trackpoint>
            <Time>2018-12-30T09:10:31.000Z</Time>
            <Position>
              <LatitudeDegrees>40.74081427417695522308349609375</LatitudeDegrees>
              <LongitudeDegrees>-4.06881786882877349853515625</LongitudeDegrees>
            </Position>
            <AltitudeMeters>1186</AltitudeMeters>
            <DistanceMeters>793.304780302</DistanceMeters>
          </Trackpoint>
          <Trackpoint>
            <Time>2018-12-30T09:10:32.000Z</Time>
            <Position>
              <LatitudeDegrees>40.74082952924072742462158203125</LatitudeDegrees>
              <LongitudeDegrees>-4.0688170306384563446044921875</LongitudeDegrees>
            </Position>
            <AltitudeMeters>1185.4000244140625</AltitudeMeters>
            <DistanceMeters>795.00466984608</DistanceMeters>
          </Trackpoint>
          <Trackpoint>
            <Time>2018-12-30T09:10:33.000Z</Time>
            <Position>
              <LatitudeDegrees>40.740844868123531341552734375</LatitudeDegrees>
              <LongitudeDegrees>-4.06881376169621944427490234375</LongitudeDegrees>
            </Position>
            <AltitudeMeters>1185.800048828125</AltitudeMeters>
            <DistanceMeters>796.7361389851</DistanceMeters>
          </Trackpoint>
          <Trackpoint>
            <Time>2018-12-30T09:10:34.000Z</Time>
            <Position>
              <LatitudeDegrees>40.74086456559598445892333984375</LatitudeDegrees>
              <LongitudeDegrees>-4.068810157477855682373046875</LongitudeDegrees>
            </Position>
            <AltitudeMeters>1186</AltitudeMeters>
            <DistanceMeters>798.9484457976</DistanceMeters>
          </Trackpoint>
          <Trackpoint>
            <Time>2018-12-30T09:10:35.000Z</Time>
            <Position>
              <LatitudeDegrees>40.74086473323404788970947265625</LatitudeDegrees>
              <LongitudeDegrees>-4.0688093192875385284423828125</LongitudeDegrees>
            </Position>
            <AltitudeMeters>1185</AltitudeMeters>
            <DistanceMeters>799.04347251197</DistanceMeters>
          </Trackpoint>
          <Trackpoint>
            <Time>2018-12-30T09:10:36.000Z</Time>
            <Position>
              <LatitudeDegrees>40.74086456559598445892333984375</LatitudeDegrees>
              <LongitudeDegrees>-4.068809486925601959228515625</LongitudeDegrees>
            </Position>
            <AltitudeMeters>1185.199951171875</AltitudeMeters>
            <DistanceMeters>799.04347251197</DistanceMeters>
          </Trackpoint>
          <Trackpoint>
            <Time>2018-12-30T09:10:37.000Z</Time>
            <Position>
              <LatitudeDegrees>40.74087596498429775238037109375</LatitudeDegrees>
              <LongitudeDegrees>-4.068800099194049835205078125</LongitudeDegrees>
            </Position>
            <AltitudeMeters>1185.5999755859375</AltitudeMeters>
            <DistanceMeters>800.53995470635</DistanceMeters>
          </Trackpoint>
          <Trackpoint>
            <Time>2018-12-30T09:10:38.000Z</Time>
            <Position>
              <LatitudeDegrees>40.74088501743972301483154296875</LatitudeDegrees>
              <LongitudeDegrees>-4.06879012472927570343017578125</LongitudeDegrees>
            </Position>
            <AltitudeMeters>1185.5999755859375</AltitudeMeters>
            <DistanceMeters>801.85325002759</DistanceMeters>
          </Trackpoint>
          <Trackpoint>
            <Time>2018-12-30T09:10:39.000Z</Time>
            <Position>
              <LatitudeDegrees>40.74088837020099163055419921875</LatitudeDegrees>
              <LongitudeDegrees>-4.06878660432994365692138671875</LongitudeDegrees>
            </Position>
            <AltitudeMeters>1185.5999755859375</AltitudeMeters>
            <DistanceMeters>802.33779309848</DistanceMeters>
          </Trackpoint>
          <Trackpoint>
            <Time>2018-12-30T09:10:40.000Z</Time>
            <Position>
              <LatitudeDegrees>40.74089147150516510009765625</LatitudeDegrees>
              <LongitudeDegrees>-4.068781323730945587158203125</LongitudeDegrees>
            </Position>
            <AltitudeMeters>1185.5999755859375</AltitudeMeters>
            <DistanceMeters>802.8918892987</DistanceMeters>
          </Trackpoint>
          <Trackpoint>
            <Time>2018-12-30T09:10:41.000Z</Time>
            <Position>
              <LatitudeDegrees>40.74089683592319488525390625</LatitudeDegrees>
              <LongitudeDegrees>-4.06877922825515270233154296875</LongitudeDegrees>
            </Position>
            <AltitudeMeters>1185.5999755859375</AltitudeMeters>
            <DistanceMeters>803.50773279395</DistanceMeters>
          </Trackpoint>
          <Trackpoint>
            <Time>2018-12-30T09:10:42.000Z</Time>
            <Position>
              <LatitudeDegrees>40.74090613983571529388427734375</LatitudeDegrees>
              <LongitudeDegrees>-4.06877721659839153289794921875</LongitudeDegrees>
            </Position>
            <AltitudeMeters>1185.5999755859375</AltitudeMeters>
            <DistanceMeters>804.55733716044</DistanceMeters>
          </Trackpoint>
          <Trackpoint>
            <Time>2018-12-30T09:10:43.000Z</Time>
            <Position>
              <LatitudeDegrees>40.7409107498824596405029296875</LatitudeDegrees>
              <LongitudeDegrees>-4.06877403147518634796142578125</LongitudeDegrees>
            </Position>
            <AltitudeMeters>1185.5999755859375</AltitudeMeters>
            <DistanceMeters>805.12749744666</DistanceMeters>
          </Trackpoint>
          <Trackpoint>
            <Time>2018-12-30T09:10:44.000Z</Time>
            <Position>
              <LatitudeDegrees>40.74090429581701755523681640625</LatitudeDegrees>
              <LongitudeDegrees>-4.06877093017101287841796875</LongitudeDegrees>
            </Position>
            <AltitudeMeters>1185.5999755859375</AltitudeMeters>
            <DistanceMeters>805.88771116162</DistanceMeters>
          </Trackpoint>
          <Trackpoint>
            <Time>2018-12-30T09:10:45.000Z</Time>
            <Position>
              <LatitudeDegrees>40.74090798385441303253173828125</LatitudeDegrees>
              <LongitudeDegrees>-4.06876690685749053955078125</LongitudeDegrees>
            </Position>
            <AltitudeMeters>1185.5999755859375</AltitudeMeters>
            <DistanceMeters>806.42526343462</DistanceMeters>
          </Trackpoint>
          <Trackpoint>
            <Time>2018-12-30T09:10:46.000Z</Time>
            <Position>
              <LatitudeDegrees>40.74090278707444667816162109375</LatitudeDegrees>
              <LongitudeDegrees>-4.06876883469521999359130859375</LongitudeDegrees>
            </Position>
            <AltitudeMeters>1185.5999755859375</AltitudeMeters>
            <DistanceMeters>807.02626514656</DistanceMeters>
          </Trackpoint>
          <Trackpoint>
            <Time>2018-12-30T09:10:47.000Z</Time>
            <Position>
              <LatitudeDegrees>40.74089021421968936920166015625</LatitudeDegrees>
              <LongitudeDegrees>-4.06876246444880962371826171875</LongitudeDegrees>
            </Position>
            <AltitudeMeters>1185.5999755859375</AltitudeMeters>
            <DistanceMeters>808.52576140683</DistanceMeters>
          </Trackpoint>
          <Trackpoint>
            <Time>2018-12-30T09:10:48.000Z</Time>
            <Position>
              <LatitudeDegrees>40.74089675210416316986083984375</LatitudeDegrees>
              <LongitudeDegrees>-4.06875357963144779205322265625</LongitudeDegrees>
            </Position>
            <AltitudeMeters>1185.4000244140625</AltitudeMeters>
            <DistanceMeters>809.5710552649</DistanceMeters>
          </Trackpoint>
          <Trackpoint>
            <Time>2018-12-30T09:10:49.000Z</Time>
            <Position>
              <LatitudeDegrees>40.74090194888412952423095703125</LatitudeDegrees>
              <LongitudeDegrees>-4.068753831088542938232421875</LongitudeDegrees>
            </Position>
            <AltitudeMeters>1185.4000244140625</AltitudeMeters>
            <DistanceMeters>810.15683927362</DistanceMeters>
          </Trackpoint>
          <Trackpoint>
            <Time>2018-12-30T09:10:50.000Z</Time>
            <Position>
              <LatitudeDegrees>40.74090178124606609344482421875</LatitudeDegrees>
              <LongitudeDegrees>-4.06875559128820896148681640625</LongitudeDegrees>
            </Position>
            <AltitudeMeters>1185.199951171875</AltitudeMeters>
            <DistanceMeters>810.29122734187</DistanceMeters>
          </Trackpoint>
          <Trackpoint>
            <Time>2018-12-30T09:10:51.000Z</Time>
            <Position>
              <LatitudeDegrees>40.74090245179831981658935546875</LatitudeDegrees>
              <LongitudeDegrees>-4.06875525601208209991455078125</LongitudeDegrees>
            </Position>
            <AltitudeMeters>1184.800048828125</AltitudeMeters>
            <DistanceMeters>810.38625405624</DistanceMeters>
          </Trackpoint>
          <Trackpoint>
            <Time>2018-12-30T09:10:52.000Z</Time>
            <Position>
              <LatitudeDegrees>40.74091016314923763275146484375</LatitudeDegrees>
              <LongitudeDegrees>-4.06876849941909313201904296875</LongitudeDegrees>
            </Position>
            <AltitudeMeters>1184.5999755859375</AltitudeMeters>
            <DistanceMeters>811.79572800692</DistanceMeters>
          </Trackpoint>
          <Trackpoint>
            <Time>2018-12-30T09:10:53.000Z</Time>
            <Position>
              <LatitudeDegrees>40.74091292917728424072265625</LatitudeDegrees>
              <LongitudeDegrees>-4.06877621077001094818115234375</LongitudeDegrees>
            </Position>
            <AltitudeMeters>1184.5999755859375</AltitudeMeters>
            <DistanceMeters>812.51942990256</DistanceMeters>
          </Trackpoint>
          <Trackpoint>
            <Time>2018-12-30T09:10:54.000Z</Time>
            <Position>
              <LatitudeDegrees>40.74091636575758457183837890625</LatitudeDegrees>
              <LongitudeDegrees>-4.0687757916748523712158203125</LongitudeDegrees>
            </Position>
            <AltitudeMeters>1184.5999755859375</AltitudeMeters>
            <DistanceMeters>812.89953676004</DistanceMeters>
          </Trackpoint>
          <Trackpoint>
            <Time>2018-12-30T09:10:55.000Z</Time>
            <Position>
              <LatitudeDegrees>40.74091653339564800262451171875</LatitudeDegrees>
              <LongitudeDegrees>-4.06877067871391773223876953125</LongitudeDegrees>
            </Position>
            <AltitudeMeters>1184.5999755859375</AltitudeMeters>
            <DistanceMeters>813.33500387169</DistanceMeters>
          </Trackpoint>
          <Trackpoint>
            <Time>2018-12-30T09:10:56.000Z</Time>
            <Position>
              <LatitudeDegrees>40.740912593901157379150390625</LatitudeDegrees>
              <LongitudeDegrees>-4.06877051107585430145263671875</LongitudeDegrees>
            </Position>
            <AltitudeMeters>1184.800048828125</AltitudeMeters>
            <DistanceMeters>813.78071867037</DistanceMeters>
          </Trackpoint>
          <Trackpoint>
            <Time>2018-12-30T09:10:57.000Z</Time>
            <Position>
              <LatitudeDegrees>40.740912593901157379150390625</LatitudeDegrees>
              <LongitudeDegrees>-4.06877051107585430145263671875</LongitudeDegrees>
            </Position>
            <AltitudeMeters>1185</AltitudeMeters>
            <DistanceMeters>813.91510673862</DistanceMeters>
          </Trackpoint>
          <Trackpoint>
            <Time>2018-12-30T09:10:58.000Z</Time>
            <Position>
              <LatitudeDegrees>40.7409184612333774566650390625</LatitudeDegrees>
              <LongitudeDegrees>-4.0687783062458038330078125</LongitudeDegrees>
            </Position>
            <AltitudeMeters>1185</AltitudeMeters>
            <DistanceMeters>814.84617458718</DistanceMeters>
          </Trackpoint>
          <Trackpoint>
            <Time>2018-12-30T09:10:59.000Z</Time>
            <Position>
              <LatitudeDegrees>40.7409221492707729339599609375</LatitudeDegrees>
              <LongitudeDegrees>-4.06879104673862457275390625</LongitudeDegrees>
            </Position>
            <AltitudeMeters>1185.199951171875</AltitudeMeters>
            <DistanceMeters>816.00222446227</DistanceMeters>
          </Trackpoint>
          <Trackpoint>
            <Time>2018-12-30T09:11:00.000Z</Time>
            <Position>
              <LatitudeDegrees>40.740928016602993011474609375</LatitudeDegrees>
              <LongitudeDegrees>-4.0688046254217624664306640625</LongitudeDegrees>
            </Position>
            <AltitudeMeters>1185.4000244140625</AltitudeMeters>
            <DistanceMeters>817.31895324119</DistanceMeters>
          </Trackpoint>
          <Trackpoint>
            <Time>2018-12-30T09:11:01.000Z</Time>
            <Position>
              <LatitudeDegrees>40.7409409247338771820068359375</LatitudeDegrees>
              <LongitudeDegrees>-4.06881929375231266021728515625</LongitudeDegrees>
            </Position>
            <AltitudeMeters>1185.4000244140625</AltitudeMeters>
            <DistanceMeters>819.21234711154</DistanceMeters>
          </Trackpoint>
          <Trackpoint>
            <Time>2018-12-30T09:11:02.000Z</Time>
            <Position>
              <LatitudeDegrees>40.74096028693020343780517578125</LatitudeDegrees>
              <LongitudeDegrees>-4.0688351355493068695068359375</LongitudeDegrees>
            </Position>
            <AltitudeMeters>1185.5999755859375</AltitudeMeters>
            <DistanceMeters>821.74441233092</DistanceMeters>
          </Trackpoint>
          <Trackpoint>
            <Time>2018-12-30T09:11:03.000Z</Time>
            <Position>
              <LatitudeDegrees>40.74097420088946819305419921875</LatitudeDegrees>
              <LongitudeDegrees>-4.06884410418570041656494140625</LongitudeDegrees>
            </Position>
            <AltitudeMeters>1185.5999755859375</AltitudeMeters>
            <DistanceMeters>823.46804081469</DistanceMeters>
          </Trackpoint>
          <Trackpoint>
            <Time>2018-12-30T09:11:04.000Z</Time>
            <Position>
              <LatitudeDegrees>40.74098627083003520965576171875</LatitudeDegrees>
              <LongitudeDegrees>-4.06885231845080852508544921875</LongitudeDegrees>
            </Position>
            <AltitudeMeters>1185.800048828125</AltitudeMeters>
            <DistanceMeters>824.97953323621</DistanceMeters>
          </Trackpoint>
          <Trackpoint>
            <Time>2018-12-30T09:11:05.000Z</Time>
            <Position>
              <LatitudeDegrees>40.7409989275038242340087890625</LatitudeDegrees>
              <LongitudeDegrees>-4.0688574314117431640625</LongitudeDegrees>
            </Position>
            <AltitudeMeters>1186</AltitudeMeters>
            <DistanceMeters>826.45168076501</DistanceMeters>
          </Trackpoint>
          <Trackpoint>
            <Time>2018-12-30T09:11:06.000Z</Time>
            <Position>
              <LatitudeDegrees>40.7410073094069957733154296875</LatitudeDegrees>
              <LongitudeDegrees>-4.068859107792377471923828125</LongitudeDegrees>
            </Position>
            <AltitudeMeters>1186</AltitudeMeters>
            <DistanceMeters>827.39239724276</DistanceMeters>
          </Trackpoint>
          <Trackpoint>
            <Time>2018-12-30T09:11:07.000Z</Time>
            <Position>
              <LatitudeDegrees>40.74101527221500873565673828125</LatitudeDegrees>
              <LongitudeDegrees>-4.0688636340200901031494140625</LongitudeDegrees>
            </Position>
            <AltitudeMeters>1186.199951171875</AltitudeMeters>
            <DistanceMeters>828.35681306269</DistanceMeters>
          </Trackpoint>
          <Trackpoint>
            <Time>2018-12-30T09:11:08.000Z</Time>
            <Position>
              <LatitudeDegrees>40.74102231301367282867431640625</LatitudeDegrees>
              <LongitudeDegrees>-4.06886589713394641876220703125</LongitudeDegrees>
            </Position>
            <AltitudeMeters>1186.199951171875</AltitudeMeters>
            <DistanceMeters>829.16314147219</DistanceMeters>
          </Trackpoint>
          <Trackpoint>
            <Time>2018-12-30T09:11:09.000Z</Time>
            <Position>
              <LatitudeDegrees>40.74103295803070068359375</LatitudeDegrees>
              <LongitudeDegrees>-4.06887092627584934234619140625</LongitudeDegrees>
            </Position>
            <AltitudeMeters>1186.4000244140625</AltitudeMeters>
            <DistanceMeters>830.42381329869</DistanceMeters>
          </Trackpoint>
          <Trackpoint>
            <Time>2018-12-30T09:11:10.000Z</Time>
            <Position>
              <LatitudeDegrees>40.74104879982769489288330078125</LatitudeDegrees>
              <LongitudeDegrees>-4.0688757039606571197509765625</LongitudeDegrees>
            </Position>
            <AltitudeMeters>1186.4000244140625</AltitudeMeters>
            <DistanceMeters>832.23181984533</DistanceMeters>
          </Trackpoint>
          <Trackpoint>
            <Time>2018-12-30T09:11:11.000Z</Time>
            <Position>
              <LatitudeDegrees>40.74105374515056610107421875</LatitudeDegrees>
              <LongitudeDegrees>-4.06887662597000598907470703125</LongitudeDegrees>
            </Position>
            <AltitudeMeters>1186.4000244140625</AltitudeMeters>
            <DistanceMeters>832.79400546907</DistanceMeters>
          </Trackpoint>
          <Trackpoint>
            <Time>2018-12-30T09:11:12.000Z</Time>
            <Position>
              <LatitudeDegrees>40.741062797605991363525390625</LatitudeDegrees>
              <LongitudeDegrees>-4.06887712888419628143310546875</LongitudeDegrees>
            </Position>
            <AltitudeMeters>1186.4000244140625</AltitudeMeters>
            <DistanceMeters>833.79967368559</DistanceMeters>
          </Trackpoint>
          <Trackpoint>
            <Time>2018-12-30T09:11:13.000Z</Time>
            <Position>
              <LatitudeDegrees>40.74107428081333637237548828125</LatitudeDegrees>
              <LongitudeDegrees>-4.0688723511993885040283203125</LongitudeDegrees>
            </Position>
            <AltitudeMeters>1186.4000244140625</AltitudeMeters>
            <DistanceMeters>835.14019045623</DistanceMeters>
          </Trackpoint>
          <Trackpoint>
            <Time>2018-12-30T09:11:14.000Z</Time>
            <Position>
              <LatitudeDegrees>40.74108836241066455841064453125</LatitudeDegrees>
              <LongitudeDegrees>-4.06887344084680080413818359375</LongitudeDegrees>
            </Position>
            <AltitudeMeters>1186.4000244140625</AltitudeMeters>
            <DistanceMeters>836.71028945603</DistanceMeters>
          </Trackpoint>
          <Trackpoint>
            <Time>2018-12-30T09:11:15.000Z</Time>
            <Position>
              <LatitudeDegrees>40.74109070934355258941650390625</LatitudeDegrees>
              <LongitudeDegrees>-4.068867154419422149658203125</LongitudeDegrees>
            </Position>
            <AltitudeMeters>1186.5999755859375</AltitudeMeters>
            <DistanceMeters>837.29607346475</DistanceMeters>
          </Trackpoint>
          <Trackpoint>
            <Time>2018-12-30T09:11:16.000Z</Time>
            <Position>
              <LatitudeDegrees>40.74109624139964580535888671875</LatitudeDegrees>
              <LongitudeDegrees>-4.06886690296232700347900390625</LongitudeDegrees>
            </Position>
            <AltitudeMeters>1186.800048828125</AltitudeMeters>
            <DistanceMeters>837.91191696001</DistanceMeters>
          </Trackpoint>
          <Trackpoint>
            <Time>2018-12-30T09:11:17.000Z</Time>
            <Position>
              <LatitudeDegrees>40.74110361747443675994873046875</LatitudeDegrees>
              <LongitudeDegrees>-4.06885986216366291046142578125</LongitudeDegrees>
            </Position>
            <AltitudeMeters>1186.800048828125</AltitudeMeters>
            <DistanceMeters>838.92652462537</DistanceMeters>
          </Trackpoint>
          <Trackpoint>
            <Time>2018-12-30T09:11:18.000Z</Time>
            <Position>
              <LatitudeDegrees>40.74111719615757465362548828125</LatitudeDegrees>
              <LongitudeDegrees>-4.06885810196399688720703125</LongitudeDegrees>
            </Position>
            <AltitudeMeters>1187</AltitudeMeters>
            <DistanceMeters>840.44100124016</DistanceMeters>
          </Trackpoint>
          <Trackpoint>
            <Time>2018-12-30T09:11:19.000Z</Time>
            <Position>
              <LatitudeDegrees>40.741120465099811553955078125</LatitudeDegrees>
              <LongitudeDegrees>-4.068843685090541839599609375</LongitudeDegrees>
            </Position>
            <AltitudeMeters>1187</AltitudeMeters>
            <DistanceMeters>841.7123720293</DistanceMeters>
          </Trackpoint>
          <Trackpoint>
            <Time>2018-12-30T09:11:20.000Z</Time>
            <Position>
              <LatitudeDegrees>40.74113697744905948638916015625</LatitudeDegrees>
              <LongitudeDegrees>-4.0688441880047321319580078125</LongitudeDegrees>
            </Position>
            <AltitudeMeters>1187.199951171875</AltitudeMeters>
            <DistanceMeters>843.55010122318</DistanceMeters>
          </Trackpoint>
          <Trackpoint>
            <Time>2018-12-30T09:11:21.000Z</Time>
            <Position>
              <LatitudeDegrees>40.7411498017609119415283203125</LatitudeDegrees>
              <LongitudeDegrees>-4.06884737312793731689453125</LongitudeDegrees>
            </Position>
            <AltitudeMeters>1187.199951171875</AltitudeMeters>
            <DistanceMeters>845.00373043584</DistanceMeters>
          </Trackpoint>
          <Trackpoint>
            <Time>2018-12-30T09:11:22.000Z</Time>
            <Position>
              <LatitudeDegrees>40.7411630451679229736328125</LatitudeDegrees>
              <LongitudeDegrees>-4.0688485465943813323974609375</LongitudeDegrees>
            </Position>
            <AltitudeMeters>1187</AltitudeMeters>
            <DistanceMeters>846.48199918658</DistanceMeters>
          </Trackpoint>
          <Trackpoint>
            <Time>2018-12-30T09:11:23.000Z</Time>
            <Position>
              <LatitudeDegrees>40.7411777973175048828125</LatitudeDegrees>
              <LongitudeDegrees>-4.0688545815646648406982421875</LongitudeDegrees>
            </Position>
            <AltitudeMeters>1187</AltitudeMeters>
            <DistanceMeters>848.20300618065</DistanceMeters>
          </Trackpoint>
          <Trackpoint>
            <Time>2018-12-30T09:11:24.000Z</Time>
            <Position>
              <LatitudeDegrees>40.7411803118884563446044921875</LatitudeDegrees>
              <LongitudeDegrees>-4.0688663162291049957275390625</LongitudeDegrees>
            </Position>
            <AltitudeMeters>1187</AltitudeMeters>
            <DistanceMeters>849.22647521657</DistanceMeters>
          </Trackpoint>
          <Trackpoint>
            <Time>2018-12-30T09:11:25.000Z</Time>
            <Position>
              <LatitudeDegrees>40.7411803118884563446044921875</LatitudeDegrees>
              <LongitudeDegrees>-4.06888215802609920501708984375</LongitudeDegrees>
            </Position>
            <AltitudeMeters>1187</AltitudeMeters>
            <DistanceMeters>850.55684921775</DistanceMeters>
          </Trackpoint>
          <Trackpoint>
            <Time>2018-12-30T09:11:26.000Z</Time>
            <Position>
              <LatitudeDegrees>40.7411886937916278839111328125</LatitudeDegrees>
              <LongitudeDegrees>-4.0688891150057315826416015625</LongitudeDegrees>
            </Position>
            <AltitudeMeters>1187</AltitudeMeters>
            <DistanceMeters>851.65686296471</DistanceMeters>
          </Trackpoint>
          <Trackpoint>
            <Time>2018-12-30T09:11:27.000Z</Time>
            <Position>
              <LatitudeDegrees>40.74119615368545055389404296875</LatitudeDegrees>
              <LongitudeDegrees>-4.0688874386250972747802734375</LongitudeDegrees>
            </Position>
            <AltitudeMeters>1187</AltitudeMeters>
            <DistanceMeters>852.49611618194</DistanceMeters>
          </Trackpoint>
          <Trackpoint>
            <Time>2018-12-30T09:11:28.000Z</Time>
            <Position>
              <LatitudeDegrees>40.741210319101810455322265625</LatitudeDegrees>
              <LongitudeDegrees>-4.06889037229120731353759765625</LongitudeDegrees>
            </Position>
            <AltitudeMeters>1187.199951171875</AltitudeMeters>
            <DistanceMeters>854.09188607675</DistanceMeters>
          </Trackpoint>
          <Trackpoint>
            <Time>2018-12-30T09:11:29.000Z</Time>
            <Position>
              <LatitudeDegrees>40.7412247359752655029296875</LatitudeDegrees>
              <LongitudeDegrees>-4.06888366676867008209228515625</LongitudeDegrees>
            </Position>
            <AltitudeMeters>1187.199951171875</AltitudeMeters>
            <DistanceMeters>855.79177562083</DistanceMeters>
          </Trackpoint>
          <Trackpoint>
            <Time>2018-12-30T09:11:30.000Z</Time>
            <Position>
              <LatitudeDegrees>40.74124610982835292816162109375</LatitudeDegrees>
              <LongitudeDegrees>-4.06887411139905452728271484375</LongitudeDegrees>
            </Position>
            <AltitudeMeters>1187.199951171875</AltitudeMeters>
            <DistanceMeters>858.3041496842</DistanceMeters>
          </Trackpoint>
          <Trackpoint>
            <Time>2018-12-30T09:11:31.000Z</Time>
            <Position>
              <LatitudeDegrees>40.74125516228377819061279296875</LatitudeDegrees>
              <LongitudeDegrees>-4.0688649751245975494384765625</LongitudeDegrees>
            </Position>
            <AltitudeMeters>1187.199951171875</AltitudeMeters>
            <DistanceMeters>859.57552047334</DistanceMeters>
          </Trackpoint>
          <Trackpoint>
            <Time>2018-12-30T09:11:32.000Z</Time>
            <Position>
              <LatitudeDegrees>40.7412694953382015228271484375</LatitudeDegrees>
              <LongitudeDegrees>-4.068860113620758056640625</LongitudeDegrees>
            </Position>
            <AltitudeMeters>1187.4000244140625</AltitudeMeters>
            <DistanceMeters>861.22417234976</DistanceMeters>
          </Trackpoint>
          <Trackpoint>
            <Time>2018-12-30T09:11:33.000Z</Time>
            <Position>
              <LatitudeDegrees>40.741278044879436492919921875</LatitudeDegrees>
              <LongitudeDegrees>-4.06885944306850433349609375</LongitudeDegrees>
            </Position>
            <AltitudeMeters>1187.4000244140625</AltitudeMeters>
            <DistanceMeters>862.18389512082</DistanceMeters>
          </Trackpoint>
          <Trackpoint>
            <Time>2018-12-30T09:11:34.000Z</Time>
            <Position>
              <LatitudeDegrees>40.741288103163242340087890625</LatitudeDegrees>
              <LongitudeDegrees>-4.068865142762660980224609375</LongitudeDegrees>
            </Position>
            <AltitudeMeters>1187.4000244140625</AltitudeMeters>
            <DistanceMeters>863.40453536809</DistanceMeters>
          </Trackpoint>
          <Trackpoint>
            <Time>2018-12-30T09:11:35.000Z</Time>
            <Position>
              <LatitudeDegrees>40.7412909530103206634521484375</LatitudeDegrees>
              <LongitudeDegrees>-4.06886790879070758819580078125</LongitudeDegrees>
            </Position>
            <AltitudeMeters>1187.5999755859375</AltitudeMeters>
            <DistanceMeters>863.79634054869</DistanceMeters>
          </Trackpoint>
          <Trackpoint>
            <Time>2018-12-30T09:11:36.000Z</Time>
            <Position>
              <LatitudeDegrees>40.741296149790287017822265625</LatitudeDegrees>
              <LongitudeDegrees>-4.06885231845080852508544921875</LongitudeDegrees>
            </Position>
            <AltitudeMeters>1187.5999755859375</AltitudeMeters>
            <DistanceMeters>865.23121246953</DistanceMeters>
          </Trackpoint>
          <Trackpoint>
            <Time>2018-12-30T09:11:37.000Z</Time>
            <Position>
              <LatitudeDegrees>40.74130578897893428802490234375</LatitudeDegrees>
              <LongitudeDegrees>-4.06884066760540008544921875</LongitudeDegrees>
            </Position>
            <AltitudeMeters>1187.5999755859375</AltitudeMeters>
            <DistanceMeters>866.69104055557</DistanceMeters>
          </Trackpoint>
          <Trackpoint>
            <Time>2018-12-30T09:11:38.000Z</Time>
            <Position>
              <LatitudeDegrees>40.74130117893218994140625</LatitudeDegrees>
              <LongitudeDegrees>-4.0688277594745159149169921875</LongitudeDegrees>
            </Position>
            <AltitudeMeters>1187.5999755859375</AltitudeMeters>
            <DistanceMeters>867.89679438926</DistanceMeters>
          </Trackpoint>
          <Trackpoint>
            <Time>2018-12-30T09:11:39.000Z</Time>
            <Position>
              <LatitudeDegrees>40.7412926293909549713134765625</LatitudeDegrees>
              <LongitudeDegrees>-4.06882465817034244537353515625</LongitudeDegrees>
            </Position>
            <AltitudeMeters>1187.800048828125</AltitudeMeters>
            <DistanceMeters>868.87975836597</DistanceMeters>
          </Trackpoint>
          <Trackpoint>
            <Time>2018-12-30T09:11:40.000Z</Time>
            <Position>
              <LatitudeDegrees>40.74128852225840091705322265625</LatitudeDegrees>
              <LongitudeDegrees>-4.0688284300267696380615234375</LongitudeDegrees>
            </Position>
            <AltitudeMeters>1188</AltitudeMeters>
            <DistanceMeters>869.43385456619</DistanceMeters>
          </Trackpoint>
          <Trackpoint>
            <Time>2018-12-30T09:11:41.000Z</Time>
            <Position>
              <LatitudeDegrees>40.74128600768744945526123046875</LatitudeDegrees>
              <LongitudeDegrees>-4.06883530318737030029296875</LongitudeDegrees>
            </Position>
            <AltitudeMeters>1188.199951171875</AltitudeMeters>
            <DistanceMeters>870.07131314522</DistanceMeters>
          </Trackpoint>
          <Trackpoint>
            <Time>2018-12-30T09:11:42.000Z</Time>
            <Position>
              <LatitudeDegrees>40.74127645231783390045166015625</LatitudeDegrees>
              <LongitudeDegrees>-4.0688398294150829315185546875</LongitudeDegrees>
            </Position>
            <AltitudeMeters>1188.4000244140625</AltitudeMeters>
            <DistanceMeters>871.19969285905</DistanceMeters>
          </Trackpoint>
          <Trackpoint>
            <Time>2018-12-30T09:11:43.000Z</Time>
            <Position>
              <LatitudeDegrees>40.7412676513195037841796875</LatitudeDegrees>
              <LongitudeDegrees>-4.06884192489087581634521484375</LongitudeDegrees>
            </Position>
            <AltitudeMeters>1188.4000244140625</AltitudeMeters>
            <DistanceMeters>872.19634144749</DistanceMeters>
          </Trackpoint>
          <Trackpoint>
            <Time>2018-12-30T09:11:44.000Z</Time>
            <Position>
              <LatitudeDegrees>40.741260945796966552734375</LatitudeDegrees>
              <LongitudeDegrees>-4.0688399970531463623046875</LongitudeDegrees>
            </Position>
            <AltitudeMeters>1188.5999755859375</AltitudeMeters>
            <DistanceMeters>872.96247131172</DistanceMeters>
          </Trackpoint>
          <Trackpoint>
            <Time>2018-12-30T09:11:45.000Z</Time>
            <Position>
              <LatitudeDegrees>40.7412569224834442138671875</LatitudeDegrees>
              <LongitudeDegrees>-4.0688384883105754852294921875</LongitudeDegrees>
            </Position>
            <AltitudeMeters>1188.5999755859375</AltitudeMeters>
            <DistanceMeters>873.428005236</DistanceMeters>
          </Trackpoint>
          <Trackpoint>
            <Time>2018-12-30T09:11:46.000Z</Time>
            <Position>
              <LatitudeDegrees>40.74125583283603191375732421875</LatitudeDegrees>
              <LongitudeDegrees>-4.068836979568004608154296875</LongitudeDegrees>
            </Position>
            <AltitudeMeters>1188.5999755859375</AltitudeMeters>
            <DistanceMeters>873.56239330424</DistanceMeters>
          </Trackpoint>
          <Trackpoint>
            <Time>2018-12-30T09:11:47.000Z</Time>
            <Position>
              <LatitudeDegrees>40.74125650338828563690185546875</LatitudeDegrees>
              <LongitudeDegrees>-4.06883203424513339996337890625</LongitudeDegrees>
            </Position>
            <AltitudeMeters>1188.4000244140625</AltitudeMeters>
            <DistanceMeters>873.98736569026</DistanceMeters>
          </Trackpoint>
          <Trackpoint>
            <Time>2018-12-30T09:11:48.000Z</Time>
            <Position>
              <LatitudeDegrees>40.74125583283603191375732421875</LatitudeDegrees>
              <LongitudeDegrees>-4.06883127987384796142578125</LongitudeDegrees>
            </Position>
            <AltitudeMeters>1188.4000244140625</AltitudeMeters>
            <DistanceMeters>874.12175375851</DistanceMeters>
          </Trackpoint>
          <Trackpoint>
            <Time>2018-12-30T09:11:49.000Z</Time>
            <Position>
              <LatitudeDegrees>40.74125516228377819061279296875</LatitudeDegrees>
              <LongitudeDegrees>-4.0688270889222621917724609375</LongitudeDegrees>
            </Position>
            <AltitudeMeters>1188.4000244140625</AltitudeMeters>
            <DistanceMeters>874.48979064071</DistanceMeters>
          </Trackpoint>
          <Trackpoint>
            <Time>2018-12-30T09:11:50.000Z</Time>
            <Position>
              <LatitudeDegrees>40.7412497140467166900634765625</LatitudeDegrees>
              <LongitudeDegrees>-4.0688291005790233612060546875</LongitudeDegrees>
            </Position>
            <AltitudeMeters>1188.199951171875</AltitudeMeters>
            <DistanceMeters>875.12012655396</DistanceMeters>
          </Trackpoint>
          <Trackpoint>
            <Time>2018-12-30T09:11:51.000Z</Time>
            <Position>
              <LatitudeDegrees>40.74125164188444614410400390625</LatitudeDegrees>
              <LongitudeDegrees>-4.06882884912192821502685546875</LongitudeDegrees>
            </Position>
            <AltitudeMeters>1188</AltitudeMeters>
            <DistanceMeters>875.3528935161</DistanceMeters>
          </Trackpoint>
          <Trackpoint>
            <Time>2018-12-30T09:11:52.000Z</Time>
            <Position>
              <LatitudeDegrees>40.7412567548453807830810546875</LatitudeDegrees>
              <LongitudeDegrees>-4.06882834620773792266845703125</LongitudeDegrees>
            </Position>
            <AltitudeMeters>1188</AltitudeMeters>
            <DistanceMeters>875.92305380232</DistanceMeters>
          </Trackpoint>
          <Trackpoint>
            <Time>2018-12-30T09:11:53.000Z</Time>
            <Position>
              <LatitudeDegrees>40.7412651367485523223876953125</LatitudeDegrees>
              <LongitudeDegrees>-4.0688292682170867919921875</LongitudeDegrees>
            </Position>
            <AltitudeMeters>1188</AltitudeMeters>
            <DistanceMeters>876.86377028007</DistanceMeters>
          </Trackpoint>
          <Trackpoint>
            <Time>2018-12-30T09:11:54.000Z</Time>
            <Position>
              <LatitudeDegrees>40.7412812300026416778564453125</LatitudeDegrees>
              <LongitudeDegrees>-4.068826250731945037841796875</LongitudeDegrees>
            </Position>
            <AltitudeMeters>1187.800048828125</AltitudeMeters>
            <DistanceMeters>878.67177682672</DistanceMeters>
          </Trackpoint>
          <Trackpoint>
            <Time>2018-12-30T09:11:55.000Z</Time>
            <Position>
              <LatitudeDegrees>40.7412922941148281097412109375</LatitudeDegrees>
              <LongitudeDegrees>-4.06881962902843952178955078125</LongitudeDegrees>
            </Position>
            <AltitudeMeters>1187.800048828125</AltitudeMeters>
            <DistanceMeters>880.01901302176</DistanceMeters>
          </Trackpoint>
          <Trackpoint>
            <Time>2018-12-30T09:11:56.000Z</Time>
            <Position>
              <LatitudeDegrees>40.74130679480731487274169921875</LatitudeDegrees>
              <LongitudeDegrees>-4.0688237361609935760498046875</LongitudeDegrees>
            </Position>
            <AltitudeMeters>1187.800048828125</AltitudeMeters>
            <DistanceMeters>881.66492399541</DistanceMeters>
          </Trackpoint>
          <Trackpoint>
            <Time>2018-12-30T09:11:57.000Z</Time>
            <Position>
              <LatitudeDegrees>40.7413197867572307586669921875</LatitudeDegrees>
              <LongitudeDegrees>-4.06882591545581817626953125</LongitudeDegrees>
            </Position>
            <AltitudeMeters>1187.5999755859375</AltitudeMeters>
            <DistanceMeters>883.12475208145</DistanceMeters>
          </Trackpoint>
          <Trackpoint>
            <Time>2018-12-30T09:11:58.000Z</Time>
            <Position>
              <LatitudeDegrees>40.74132439680397510528564453125</LatitudeDegrees>
              <LongitudeDegrees>-4.068832956254482269287109375</LongitudeDegrees>
            </Position>
            <AltitudeMeters>1187.5999755859375</AltitudeMeters>
            <DistanceMeters>883.91410325465</DistanceMeters>
          </Trackpoint>
          <Trackpoint>
            <Time>2018-12-30T09:11:59.000Z</Time>
            <Position>
              <LatitudeDegrees>40.74132867157459259033203125</LatitudeDegrees>
              <LongitudeDegrees>-4.06884334981441497802734375</LongitudeDegrees>
            </Position>
            <AltitudeMeters>1187.5999755859375</AltitudeMeters>
            <DistanceMeters>884.91075184308</DistanceMeters>
          </Trackpoint>
          <Trackpoint>
            <Time>2018-12-30T09:12:00.000Z</Time>
            <Position>
              <LatitudeDegrees>40.74133311398327350616455078125</LatitudeDegrees>
              <LongitudeDegrees>-4.06884795986115932464599609375</LongitudeDegrees>
            </Position>
            <AltitudeMeters>1187.4000244140625</AltitudeMeters>
            <DistanceMeters>885.54108775634</DistanceMeters>
          </Trackpoint>
          <Trackpoint>
            <Time>2018-12-30T09:12:01.000Z</Time>
            <Position>
              <LatitudeDegrees>40.74133981950581073760986328125</LatitudeDegrees>
              <LongitudeDegrees>-4.06885139644145965576171875</LongitudeDegrees>
            </Position>
            <AltitudeMeters>1187.5999755859375</AltitudeMeters>
            <DistanceMeters>886.34179708407</DistanceMeters>
          </Trackpoint>
          <Trackpoint>
            <Time>2018-12-30T09:12:02.000Z</Time>
            <Position>
              <LatitudeDegrees>40.74135038070380687713623046875</LatitudeDegrees>
              <LongitudeDegrees>-4.06885768286883831024169921875</LongitudeDegrees>
            </Position>
            <AltitudeMeters>1187.5999755859375</AltitudeMeters>
            <DistanceMeters>887.63080215221</DistanceMeters>
          </Trackpoint>
          <Trackpoint>
            <Time>2018-12-30T09:12:03.000Z</Time>
            <Position>
              <LatitudeDegrees>40.7413566671311855316162109375</LatitudeDegrees>
              <LongitudeDegrees>-4.06886153854429721832275390625</LongitudeDegrees>
            </Position>
            <AltitudeMeters>1187.5999755859375</AltitudeMeters>
            <DistanceMeters>888.40280282922</DistanceMeters>
          </Trackpoint>
          <Trackpoint>
            <Time>2018-12-30T09:12:04.000Z</Time>
            <Position>
              <LatitudeDegrees>40.74136194773018360137939453125</LatitudeDegrees>
              <LongitudeDegrees>-4.0688663162291049957275390625</LongitudeDegrees>
            </Position>
            <AltitudeMeters>1187.800048828125</AltitudeMeters>
            <DistanceMeters>889.11391764474</DistanceMeters>
          </Trackpoint>
          <Trackpoint>
            <Time>2018-12-30T09:12:05.000Z</Time>
            <Position>
              <LatitudeDegrees>40.74137602932751178741455078125</LatitudeDegrees>
              <LongitudeDegrees>-4.06886371783912181854248046875</LongitudeDegrees>
            </Position>
            <AltitudeMeters>1187.5999755859375</AltitudeMeters>
            <DistanceMeters>890.69832960235</DistanceMeters>
          </Trackpoint>
          <Trackpoint>
            <Time>2018-12-30T09:12:06.000Z</Time>
            <Position>
              <LatitudeDegrees>40.74139178730547428131103515625</LatitudeDegrees>
              <LongitudeDegrees>-4.068866483867168426513671875</LongitudeDegrees>
            </Position>
            <AltitudeMeters>1187.5999755859375</AltitudeMeters>
            <DistanceMeters>892.46592866595</DistanceMeters>
          </Trackpoint>
          <Trackpoint>
            <Time>2018-12-30T09:12:07.000Z</Time>
            <Position>
              <LatitudeDegrees>40.7414029352366924285888671875</LatitudeDegrees>
              <LongitudeDegrees>-4.06886857934296131134033203125</LongitudeDegrees>
            </Position>
            <AltitudeMeters>1187.5999755859375</AltitudeMeters>
            <DistanceMeters>893.71580995023</DistanceMeters>
          </Trackpoint>
          <Trackpoint>
            <Time>2018-12-30T09:12:08.000Z</Time>
            <Position>
              <LatitudeDegrees>40.74141450226306915283203125</LatitudeDegrees>
              <LongitudeDegrees>-4.0688775479793548583984375</LongitudeDegrees>
            </Position>
            <AltitudeMeters>1187.5999755859375</AltitudeMeters>
            <DistanceMeters>895.20624572718</DistanceMeters>
          </Trackpoint>
          <Trackpoint>
            <Time>2018-12-30T09:12:09.000Z</Time>
            <Position>
              <LatitudeDegrees>40.7414307631552219390869140625</LatitudeDegrees>
              <LongitudeDegrees>-4.0688797272741794586181640625</LongitudeDegrees>
            </Position>
            <AltitudeMeters>1187.800048828125</AltitudeMeters>
            <DistanceMeters>897.02421381779</DistanceMeters>
          </Trackpoint>
          <Trackpoint>
            <Time>2018-12-30T09:12:10.000Z</Time>
            <Position>
              <LatitudeDegrees>40.74145817197859287261962890625</LatitudeDegrees>
              <LongitudeDegrees>-4.06888802535831928253173828125</LongitudeDegrees>
            </Position>
            <AltitudeMeters>1188</AltitudeMeters>
            <DistanceMeters>900.15288811616</DistanceMeters>
          </Trackpoint>
          <Trackpoint>
            <Time>2018-12-30T09:12:11.000Z</Time>
            <Position>
              <LatitudeDegrees>40.74147887527942657470703125</LatitudeDegrees>
              <LongitudeDegrees>-4.068889953196048736572265625</LongitudeDegrees>
            </Position>
            <AltitudeMeters>1188</AltitudeMeters>
            <DistanceMeters>902.46303425404</DistanceMeters>
          </Trackpoint>
          <Trackpoint>
            <Time>2018-12-30T09:12:12.000Z</Time>
            <Position>
              <LatitudeDegrees>40.74149371124804019927978515625</LatitudeDegrees>
              <LongitudeDegrees>-4.0688934735953807830810546875</LongitudeDegrees>
            </Position>
            <AltitudeMeters>1188.199951171875</AltitudeMeters>
            <DistanceMeters>904.1415406885</DistanceMeters>
          </Trackpoint>
          <Trackpoint>
            <Time>2018-12-30T09:12:13.000Z</Time>
            <Position>
              <LatitudeDegrees>40.74150033295154571533203125</LatitudeDegrees>
              <LongitudeDegrees>-4.06889422796666622161865234375</LongitudeDegrees>
            </Position>
            <AltitudeMeters>1188.199951171875</AltitudeMeters>
            <DistanceMeters>904.88372305361</DistanceMeters>
          </Trackpoint>
          <Trackpoint>
            <Time>2018-12-30T09:12:14.000Z</Time>
            <Position>
              <LatitudeDegrees>40.7415085472166538238525390625</LatitudeDegrees>
              <LongitudeDegrees>-4.0688964910805225372314453125</LongitudeDegrees>
            </Position>
            <AltitudeMeters>1188.4000244140625</AltitudeMeters>
            <DistanceMeters>905.81479090217</DistanceMeters>
          </Trackpoint>
          <Trackpoint>
            <Time>2018-12-30T09:12:15.000Z</Time>
            <Position>
              <LatitudeDegrees>40.7415132410824298858642578125</LatitudeDegrees>
              <LongitudeDegrees>-4.06890545971691608428955078125</LongitudeDegrees>
            </Position>
            <AltitudeMeters>1188.5999755859375</AltitudeMeters>
            <DistanceMeters>906.73119534852</DistanceMeters>
          </Trackpoint>
          <Trackpoint>
            <Time>2018-12-30T09:12:16.000Z</Time>
            <Position>
              <LatitudeDegrees>40.74152179062366485595703125</LatitudeDegrees>
              <LongitudeDegrees>-4.06890931539237499237060546875</LongitudeDegrees>
            </Position>
            <AltitudeMeters>1188.5999755859375</AltitudeMeters>
            <DistanceMeters>907.72784393695</DistanceMeters>
          </Trackpoint>
          <Trackpoint>
            <Time>2018-12-30T09:12:17.000Z</Time>
            <Position>
              <LatitudeDegrees>40.74153528548777103424072265625</LatitudeDegrees>
              <LongitudeDegrees>-4.06891317106783390045166015625</LongitudeDegrees>
            </Position>
            <AltitudeMeters>1188.5999755859375</AltitudeMeters>
            <DistanceMeters>909.2601036654</DistanceMeters>
          </Trackpoint>
          <Trackpoint>
            <Time>2018-12-30T09:12:18.000Z</Time>
            <Position>
              <LatitudeDegrees>40.7415414042770862579345703125</LatitudeDegrees>
              <LongitudeDegrees>-4.06891711056232452392578125</LongitudeDegrees>
            </Position>
            <AltitudeMeters>1188.5999755859375</AltitudeMeters>
            <DistanceMeters>910.01435482779</DistanceMeters>
          </Trackpoint>
          <Trackpoint>
            <Time>2018-12-30T09:12:19.000Z</Time>
            <Position>
              <LatitudeDegrees>40.74155221693217754364013671875</LatitudeDegrees>
              <LongitudeDegrees>-4.06891585327684879302978515625</LongitudeDegrees>
            </Position>
            <AltitudeMeters>1188.5999755859375</AltitudeMeters>
            <DistanceMeters>911.22010866149</DistanceMeters>
          </Trackpoint>
          <Trackpoint>
            <Time>2018-12-30T09:12:20.000Z</Time>
            <Position>
              <LatitudeDegrees>40.741560347378253936767578125</LatitudeDegrees>
              <LongitudeDegrees>-4.06891786493360996246337890625</LongitudeDegrees>
            </Position>
            <AltitudeMeters>1188.800048828125</AltitudeMeters>
            <DistanceMeters>912.14142683983</DistanceMeters>
          </Trackpoint>
          <Trackpoint>
            <Time>2018-12-30T09:12:21.000Z</Time>
            <Position>
              <LatitudeDegrees>40.74156613089144229888916015625</LatitudeDegrees>
              <LongitudeDegrees>-4.06892423518002033233642578125</LongitudeDegrees>
            </Position>
            <AltitudeMeters>1188.800048828125</AltitudeMeters>
            <DistanceMeters>912.98068005706</DistanceMeters>
          </Trackpoint>
          <Trackpoint>
            <Time>2018-12-30T09:12:22.000Z</Time>
            <Position>
              <LatitudeDegrees>40.7415739260613918304443359375</LatitudeDegrees>
              <LongitudeDegrees>-4.06892473809421062469482421875</LongitudeDegrees>
            </Position>
            <AltitudeMeters>1188.800048828125</AltitudeMeters>
            <DistanceMeters>913.84641462657</DistanceMeters>
          </Trackpoint>
          <Trackpoint>
            <Time>2018-12-30T09:12:23.000Z</Time>
            <Position>
              <LatitudeDegrees>40.74158322997391223907470703125</LatitudeDegrees>
              <LongitudeDegrees>-4.0689206309616565704345703125</LongitudeDegrees>
            </Position>
            <AltitudeMeters>1188.800048828125</AltitudeMeters>
            <DistanceMeters>914.93818845415</DistanceMeters>
          </Trackpoint>
          <Trackpoint>
            <Time>2018-12-30T09:12:24.000Z</Time>
            <Position>
              <LatitudeDegrees>40.74158524163067340850830078125</LatitudeDegrees>
              <LongitudeDegrees>-4.0689283423125743865966796875</LongitudeDegrees>
            </Position>
            <AltitudeMeters>1189</AltitudeMeters>
            <DistanceMeters>915.62343583655</DistanceMeters>
          </Trackpoint>
          <Trackpoint>
            <Time>2018-12-30T09:12:25.000Z</Time>
            <Position>
              <LatitudeDegrees>40.74158658273518085479736328125</LatitudeDegrees>
              <LongitudeDegrees>-4.0689337067306041717529296875</LongitudeDegrees>
            </Position>
            <AltitudeMeters>1189</AltitudeMeters>
            <DistanceMeters>916.08896976083</DistanceMeters>
          </Trackpoint>
          <Trackpoint>
            <Time>2018-12-30T09:12:26.000Z</Time>
            <Position>
              <LatitudeDegrees>40.74159018695354461669921875</LatitudeDegrees>
              <LongitudeDegrees>-4.06893999315798282623291015625</LongitudeDegrees>
            </Position>
            <AltitudeMeters>1189</AltitudeMeters>
            <DistanceMeters>916.76091010208</DistanceMeters>
          </Trackpoint>
          <Trackpoint>
            <Time>2018-12-30T09:12:27.000Z</Time>
            <Position>
              <LatitudeDegrees>40.7415960542857646942138671875</LatitudeDegrees>
              <LongitudeDegrees>-4.06894954852759838104248046875</LongitudeDegrees>
            </Position>
            <AltitudeMeters>1189</AltitudeMeters>
            <DistanceMeters>917.8018756026</DistanceMeters>
          </Trackpoint>
          <Trackpoint>
            <Time>2018-12-30T09:12:28.000Z</Time>
            <Position>
              <LatitudeDegrees>40.74160284362733364105224609375</LatitudeDegrees>
              <LongitudeDegrees>-4.0689558349549770355224609375</LongitudeDegrees>
            </Position>
            <AltitudeMeters>1189</AltitudeMeters>
            <DistanceMeters>918.72808144483</DistanceMeters>
          </Trackpoint>
          <Trackpoint>
            <Time>2018-12-30T09:12:29.000Z</Time>
            <Position>
              <LatitudeDegrees>40.741614997386932373046875</LatitudeDegrees>
              <LongitudeDegrees>-4.068967066705226898193359375</LongitudeDegrees>
            </Position>
            <AltitudeMeters>1189.199951171875</AltitudeMeters>
            <DistanceMeters>920.3794696748</DistanceMeters>
          </Trackpoint>
          <Trackpoint>
            <Time>2018-12-30T09:12:30.000Z</Time>
            <Position>
              <LatitudeDegrees>40.7416305877268314361572265625</LatitudeDegrees>
              <LongitudeDegrees>-4.0689709223806858062744140625</LongitudeDegrees>
            </Position>
            <AltitudeMeters>1189.4000244140625</AltitudeMeters>
            <DistanceMeters>922.14195266669</DistanceMeters>
          </Trackpoint>
          <Trackpoint>
            <Time>2018-12-30T09:12:31.000Z</Time>
            <Position>
              <LatitudeDegrees>40.7416419871151447296142578125</LatitudeDegrees>
              <LongitudeDegrees>-4.06897804699838161468505859375</LongitudeDegrees>
            </Position>
            <AltitudeMeters>1189.4000244140625</AltitudeMeters>
            <DistanceMeters>923.54821961903</DistanceMeters>
          </Trackpoint>
          <Trackpoint>
            <Time>2018-12-30T09:12:32.000Z</Time>
            <Position>
              <LatitudeDegrees>40.7416470162570476531982421875</LatitudeDegrees>
              <LongitudeDegrees>-4.06898475252091884613037109375</LongitudeDegrees>
            </Position>
            <AltitudeMeters>1189.5999755859375</AltitudeMeters>
            <DistanceMeters>924.34892894676</DistanceMeters>
          </Trackpoint>
          <Trackpoint>
            <Time>2018-12-30T09:12:33.000Z</Time>
            <Position>
              <LatitudeDegrees>40.7416587509214878082275390625</LatitudeDegrees>
              <LongitudeDegrees>-4.068988859653472900390625</LongitudeDegrees>
            </Position>
            <AltitudeMeters>1189.5999755859375</AltitudeMeters>
            <DistanceMeters>925.69951231763</DistanceMeters>
          </Trackpoint>
          <Trackpoint>
            <Time>2018-12-30T09:12:34.000Z</Time>
            <Position>
              <LatitudeDegrees>40.7416661269962787628173828125</LatitudeDegrees>
              <LongitudeDegrees>-4.0689917095005512237548828125</LongitudeDegrees>
            </Position>
            <AltitudeMeters>1189.5999755859375</AltitudeMeters>
            <DistanceMeters>926.54945708967</DistanceMeters>
          </Trackpoint>
          <Trackpoint>
            <Time>2018-12-30T09:12:35.000Z</Time>
            <Position>
              <LatitudeDegrees>40.74167325161397457122802734375</LatitudeDegrees>
              <LongitudeDegrees>-4.06899095512926578521728515625</LongitudeDegrees>
            </Position>
            <AltitudeMeters>1189.5999755859375</AltitudeMeters>
            <DistanceMeters>927.34450762334</DistanceMeters>
          </Trackpoint>
          <Trackpoint>
            <Time>2018-12-30T09:12:36.000Z</Time>
            <Position>
              <LatitudeDegrees>40.74168180115520954132080078125</LatitudeDegrees>
              <LongitudeDegrees>-4.06899355351924896240234375</LongitudeDegrees>
            </Position>
            <AltitudeMeters>1189.5999755859375</AltitudeMeters>
            <DistanceMeters>928.31824168694</DistanceMeters>
          </Trackpoint>
          <Trackpoint>
            <Time>2018-12-30T09:12:37.000Z</Time>
            <Position>
              <LatitudeDegrees>40.7416872493922710418701171875</LatitudeDegrees>
              <LongitudeDegrees>-4.0689964033663272857666015625</LongitudeDegrees>
            </Position>
            <AltitudeMeters>1189.5999755859375</AltitudeMeters>
            <DistanceMeters>928.962744221</DistanceMeters>
          </Trackpoint>
          <Trackpoint>
            <Time>2018-12-30T09:12:38.000Z</Time>
            <Position>
              <LatitudeDegrees>40.74169085361063480377197265625</LatitudeDegrees>
              <LongitudeDegrees>-4.06899816356599330902099609375</LongitudeDegrees>
            </Position>
            <AltitudeMeters>1189.800048828125</AltitudeMeters>
            <DistanceMeters>929.38771660702</DistanceMeters>
          </Trackpoint>
          <Trackpoint>
            <Time>2018-12-30T09:12:39.000Z</Time>
            <Position>
              <LatitudeDegrees>40.74171222746372222900390625</LatitudeDegrees>
              <LongitudeDegrees>-4.06900185160338878631591796875</LongitudeDegrees>
            </Position>
            <AltitudeMeters>1190</AltitudeMeters>
            <DistanceMeters>931.78796425492</DistanceMeters>
          </Trackpoint>
          <Trackpoint>
            <Time>2018-12-30T09:12:40.000Z</Time>
            <Position>
              <LatitudeDegrees>40.74173846282064914703369140625</LatitudeDegrees>
              <LongitudeDegrees>-4.069006629288196563720703125</LongitudeDegrees>
            </Position>
            <AltitudeMeters>1190</AltitudeMeters>
            <DistanceMeters>934.73532469082</DistanceMeters>
          </Trackpoint>
          <Trackpoint>
            <Time>2018-12-30T09:12:41.000Z</Time>
            <Position>
              <LatitudeDegrees>40.74175271205604076385498046875</LatitudeDegrees>
              <LongitudeDegrees>-4.06900696456432342529296875</LongitudeDegrees>
            </Position>
            <AltitudeMeters>1190.199951171875</AltitudeMeters>
            <DistanceMeters>936.31973664843</DistanceMeters>
          </Trackpoint>
          <Trackpoint>
            <Time>2018-12-30T09:12:42.000Z</Time>
            <Position>
              <LatitudeDegrees>40.74175941757857799530029296875</LatitudeDegrees>
              <LongitudeDegrees>-4.06900788657367229461669921875</LongitudeDegrees>
            </Position>
            <AltitudeMeters>1190.199951171875</AltitudeMeters>
            <DistanceMeters>937.06797774562</DistanceMeters>
          </Trackpoint>
          <Trackpoint>
            <Time>2018-12-30T09:12:43.000Z</Time>
            <Position>
              <LatitudeDegrees>40.7417772710323333740234375</LatitudeDegrees>
              <LongitudeDegrees>-4.0690171904861927032470703125</LongitudeDegrees>
            </Position>
            <AltitudeMeters>1190.199951171875</AltitudeMeters>
            <DistanceMeters>939.20555082756</DistanceMeters>
          </Trackpoint>
          <Trackpoint>
            <Time>2018-12-30T09:12:44.000Z</Time>
            <Position>
              <LatitudeDegrees>40.741793699562549591064453125</LatitudeDegrees>
              <LongitudeDegrees>-4.06902012415230274200439453125</LongitudeDegrees>
            </Position>
            <AltitudeMeters>1190.199951171875</AltitudeMeters>
            <DistanceMeters>941.05308131332</DistanceMeters>
          </Trackpoint>
          <Trackpoint>
            <Time>2018-12-30T09:12:45.000Z</Time>
            <Position>
              <LatitudeDegrees>40.741813480854034423828125</LatitudeDegrees>
              <LongitudeDegrees>-4.06902112998068332672119140625</LongitudeDegrees>
            </Position>
            <AltitudeMeters>1190.199951171875</AltitudeMeters>
            <DistanceMeters>943.25720951441</DistanceMeters>
          </Trackpoint>
          <Trackpoint>
            <Time>2018-12-30T09:12:46.000Z</Time>
            <Position>
              <LatitudeDegrees>40.741837956011295318603515625</LatitudeDegrees>
              <LongitudeDegrees>-4.06901341862976551055908203125</LongitudeDegrees>
            </Position>
            <AltitudeMeters>1190</AltitudeMeters>
            <DistanceMeters>946.06009490384</DistanceMeters>
          </Trackpoint>
          <Trackpoint>
            <Time>2018-12-30T09:12:47.000Z</Time>
            <Position>
              <LatitudeDegrees>40.7418470084667205810546875</LatitudeDegrees>
              <LongitudeDegrees>-4.06901459209620952606201171875</LongitudeDegrees>
            </Position>
            <AltitudeMeters>1190.199951171875</AltitudeMeters>
            <DistanceMeters>947.07024273369</DistanceMeters>
          </Trackpoint>
          <Trackpoint>
            <Time>2018-12-30T09:12:48.000Z</Time>
            <Position>
              <LatitudeDegrees>40.7418592460453510284423828125</LatitudeDegrees>
              <LongitudeDegrees>-4.0690108202397823333740234375</LongitudeDegrees>
            </Position>
            <AltitudeMeters>1190.199951171875</AltitudeMeters>
            <DistanceMeters>948.47007364789</DistanceMeters>
          </Trackpoint>
          <Trackpoint>
            <Time>2018-12-30T09:12:49.000Z</Time>
            <Position>
              <LatitudeDegrees>40.74186989106237888336181640625</LatitudeDegrees>
              <LongitudeDegrees>-4.0690108202397823333740234375</LongitudeDegrees>
            </Position>
            <AltitudeMeters>1190.4000244140625</AltitudeMeters>
            <DistanceMeters>949.65695692996</DistanceMeters>
          </Trackpoint>
          <Trackpoint>
            <Time>2018-12-30T09:12:50.000Z</Time>
            <Position>
              <LatitudeDegrees>40.741876848042011260986328125</LatitudeDegrees>
              <LongitudeDegrees>-4.0690118260681629180908203125</LongitudeDegrees>
            </Position>
            <AltitudeMeters>1190.5999755859375</AltitudeMeters>
            <DistanceMeters>950.43478410983</DistanceMeters>
          </Trackpoint>
          <Trackpoint>
            <Time>2018-12-30T09:12:51.000Z</Time>
            <Position>
              <LatitudeDegrees>40.741886906325817108154296875</LatitudeDegrees>
              <LongitudeDegrees>-4.06901425682008266448974609375</LongitudeDegrees>
            </Position>
            <AltitudeMeters>1190.5999755859375</AltitudeMeters>
            <DistanceMeters>951.57510468227</DistanceMeters>
          </Trackpoint>
          <Trackpoint>
            <Time>2018-12-30T09:12:52.000Z</Time>
            <Position>
              <LatitudeDegrees>40.741894952952861785888671875</LatitudeDegrees>
              <LongitudeDegrees>-4.06902112998068332672119140625</LongitudeDegrees>
            </Position>
            <AltitudeMeters>1190.800048828125</AltitudeMeters>
            <DistanceMeters>952.64177690556</DistanceMeters>
          </Trackpoint>
          <Trackpoint>
            <Time>2018-12-30T09:12:53.000Z</Time>
            <Position>
              <LatitudeDegrees>40.7418979704380035400390625</LatitudeDegrees>
              <LongitudeDegrees>-4.069031439721584320068359375</LongitudeDegrees>
            </Position>
            <AltitudeMeters>1191</AltitudeMeters>
            <DistanceMeters>953.57284475412</DistanceMeters>
          </Trackpoint>
          <Trackpoint>
            <Time>2018-12-30T09:12:54.000Z</Time>
            <Position>
              <LatitudeDegrees>40.741914398968219757080078125</LatitudeDegrees>
              <LongitudeDegrees>-4.069040827453136444091796875</LongitudeDegrees>
            </Position>
            <AltitudeMeters>1191</AltitudeMeters>
            <DistanceMeters>955.56160655043</DistanceMeters>
          </Trackpoint>
          <Trackpoint>
            <Time>2018-12-30T09:12:55.000Z</Time>
            <Position>
              <LatitudeDegrees>40.7419246248900890350341796875</LatitudeDegrees>
              <LongitudeDegrees>-4.06904677860438823699951171875</LongitudeDegrees>
            </Position>
            <AltitudeMeters>1191.199951171875</AltitudeMeters>
            <DistanceMeters>956.80060332018</DistanceMeters>
          </Trackpoint>
          <Trackpoint>
            <Time>2018-12-30T09:12:56.000Z</Time>
            <Position>
              <LatitudeDegrees>40.7419457472860813140869140625</LatitudeDegrees>
              <LongitudeDegrees>-4.06905482523143291473388671875</LongitudeDegrees>
            </Position>
            <AltitudeMeters>1191.199951171875</AltitudeMeters>
            <DistanceMeters>959.24927045942</DistanceMeters>
          </Trackpoint>
          <Trackpoint>
            <Time>2018-12-30T09:12:57.000Z</Time>
            <Position>
              <LatitudeDegrees>40.7419457472860813140869140625</LatitudeDegrees>
              <LongitudeDegrees>-4.06905482523143291473388671875</LongitudeDegrees>
            </Position>
            <AltitudeMeters>1191.199951171875</AltitudeMeters>
            <DistanceMeters>959.24927045942</DistanceMeters>
          </Trackpoint>
          <Trackpoint>
            <Time>2018-12-30T09:12:58.000Z</Time>
            <Position>
              <LatitudeDegrees>40.7419524528086185455322265625</LatitudeDegrees>
              <LongitudeDegrees>-4.06905583105981349945068359375</LongitudeDegrees>
            </Position>
            <AltitudeMeters>1191.199951171875</AltitudeMeters>
            <DistanceMeters>960.00352162181</DistanceMeters>
          </Trackpoint>
          <Trackpoint>
            <Time>2018-12-30T09:12:59.000Z</Time>
            <Position>
              <LatitudeDegrees>40.74195873923599720001220703125</LatitudeDegrees>
              <LongitudeDegrees>-4.06905348412692546844482421875</LongitudeDegrees>
            </Position>
            <AltitudeMeters>1191.199951171875</AltitudeMeters>
            <DistanceMeters>960.73343566483</DistanceMeters>
          </Trackpoint>
          <Trackpoint>
            <Time>2018-12-30T09:13:00.000Z</Time>
            <Position>
              <LatitudeDegrees>40.74196695350110530853271484375</LatitudeDegrees>
              <LongitudeDegrees>-4.0690518915653228759765625</LongitudeDegrees>
            </Position>
            <AltitudeMeters>1191.199951171875</AltitudeMeters>
            <DistanceMeters>961.65964150706</DistanceMeters>
          </Trackpoint>
          <Trackpoint>
            <Time>2018-12-30T09:13:01.000Z</Time>
            <Position>
              <LatitudeDegrees>40.741980783641338348388671875</LatitudeDegrees>
              <LongitudeDegrees>-4.0690584294497966766357421875</LongitudeDegrees>
            </Position>
            <AltitudeMeters>1191.4000244140625</AltitudeMeters>
            <DistanceMeters>963.2945429192</DistanceMeters>
          </Trackpoint>
          <Trackpoint>
            <Time>2018-12-30T09:13:02.000Z</Time>
            <Position>
              <LatitudeDegrees>40.74199293740093708038330078125</LatitudeDegrees>
              <LongitudeDegrees>-4.06906488351523876190185546875</LongitudeDegrees>
            </Position>
            <AltitudeMeters>1191.4000244140625</AltitudeMeters>
            <DistanceMeters>964.74817213185</DistanceMeters>
          </Trackpoint>
          <Trackpoint>
            <Time>2018-12-30T09:13:03.000Z</Time>
            <Position>
              <LatitudeDegrees>40.742011629045009613037109375</LatitudeDegrees>
              <LongitudeDegrees>-4.06906806863844394683837890625</LongitudeDegrees>
            </Position>
            <AltitudeMeters>1191.5999755859375</AltitudeMeters>
            <DistanceMeters>966.84522893323</DistanceMeters>
          </Trackpoint>
          <Trackpoint>
            <Time>2018-12-30T09:13:04.000Z</Time>
            <Position>
              <LatitudeDegrees>40.74202478863298892974853515625</LatitudeDegrees>
              <LongitudeDegrees>-4.06907293014228343963623046875</LongitudeDegrees>
            </Position>
            <AltitudeMeters>1191.5999755859375</AltitudeMeters>
            <DistanceMeters>968.36565636315</DistanceMeters>
          </Trackpoint>
          <Trackpoint>
            <Time>2018-12-30T09:13:05.000Z</Time>
            <Position>
              <LatitudeDegrees>40.74204373173415660858154296875</LatitudeDegrees>
              <LongitudeDegrees>-4.06908047385513782501220703125</LongitudeDegrees>
            </Position>
            <AltitudeMeters>1191.5999755859375</AltitudeMeters>
            <DistanceMeters>970.56773516519</DistanceMeters>
          </Trackpoint>
          <Trackpoint>
            <Time>2018-12-30T09:13:06.000Z</Time>
            <Position>
              <LatitudeDegrees>40.74206669814884662628173828125</LatitudeDegrees>
              <LongitudeDegrees>-4.06908852048218250274658203125</LongitudeDegrees>
            </Position>
            <AltitudeMeters>1191.5999755859375</AltitudeMeters>
            <DistanceMeters>973.21145965304</DistanceMeters>
          </Trackpoint>
          <Trackpoint>
            <Time>2018-12-30T09:13:07.000Z</Time>
            <Position>
              <LatitudeDegrees>40.7420744933187961578369140625</LatitudeDegrees>
              <LongitudeDegrees>-4.06909547746181488037109375</LongitudeDegrees>
            </Position>
            <AltitudeMeters>1191.800048828125</AltitudeMeters>
            <DistanceMeters>974.2567535111</DistanceMeters>
          </Trackpoint>
          <Trackpoint>
            <Time>2018-12-30T09:13:08.000Z</Time>
            <Position>
              <LatitudeDegrees>40.7420771755278110504150390625</LatitudeDegrees>
              <LongitudeDegrees>-4.06910310499370098114013671875</LongitudeDegrees>
            </Position>
            <AltitudeMeters>1191.800048828125</AltitudeMeters>
            <DistanceMeters>974.96786832663</DistanceMeters>
          </Trackpoint>
          <Trackpoint>
            <Time>2018-12-30T09:13:09.000Z</Time>
            <Position>
              <LatitudeDegrees>40.74208513833582401275634765625</LatitudeDegrees>
              <LongitudeDegrees>-4.0691082179546356201171875</LongitudeDegrees>
            </Position>
            <AltitudeMeters>1191.800048828125</AltitudeMeters>
            <DistanceMeters>975.95541491082</DistanceMeters>
          </Trackpoint>
          <Trackpoint>
            <Time>2018-12-30T09:13:10.000Z</Time>
            <Position>
              <LatitudeDegrees>40.74209318496286869049072265625</LatitudeDegrees>
              <LongitudeDegrees>-4.06911534257233142852783203125</LongitudeDegrees>
            </Position>
            <AltitudeMeters>1191.800048828125</AltitudeMeters>
            <DistanceMeters>977.03051945682</DistanceMeters>
          </Trackpoint>
          <Trackpoint>
            <Time>2018-12-30T09:13:11.000Z</Time>
            <Position>
              <LatitudeDegrees>40.74209846556186676025390625</LatitudeDegrees>
              <LongitudeDegrees>-4.06911970116198062896728515625</LongitudeDegrees>
            </Position>
            <AltitudeMeters>1191.800048828125</AltitudeMeters>
            <DistanceMeters>977.71576683922</DistanceMeters>
          </Trackpoint>
          <Trackpoint>
            <Time>2018-12-30T09:13:12.000Z</Time>
            <Position>
              <LatitudeDegrees>40.74210651218891143798828125</LatitudeDegrees>
              <LongitudeDegrees>-4.06912506558001041412353515625</LongitudeDegrees>
            </Position>
            <AltitudeMeters>1192</AltitudeMeters>
            <DistanceMeters>978.71241542766</DistanceMeters>
          </Trackpoint>
          <Trackpoint>
            <Time>2018-12-30T09:13:13.000Z</Time>
            <Position>
              <LatitudeDegrees>40.74211749248206615447998046875</LatitudeDegrees>
              <LongitudeDegrees>-4.06913294456899166107177734375</LongitudeDegrees>
            </Position>
            <AltitudeMeters>1192</AltitudeMeters>
            <DistanceMeters>980.10253641484</DistanceMeters>
          </Trackpoint>
          <Trackpoint>
            <Time>2018-12-30T09:13:14.000Z</Time>
            <Position>
              <LatitudeDegrees>40.7421298138797283172607421875</LatitudeDegrees>
              <LongitudeDegrees>-4.06913646496832370758056640625</LongitudeDegrees>
            </Position>
            <AltitudeMeters>1192</AltitudeMeters>
            <DistanceMeters>981.50558903851</DistanceMeters>
          </Trackpoint>
          <Trackpoint>
            <Time>2018-12-30T09:13:15.000Z</Time>
            <Position>
              <LatitudeDegrees>40.7421449013054370880126953125</LatitudeDegrees>
              <LongitudeDegrees>-4.06914350576698780059814453125</LongitudeDegrees>
            </Position>
            <AltitudeMeters>1192</AltitudeMeters>
            <DistanceMeters>983.28844823325</DistanceMeters>
          </Trackpoint>
          <Trackpoint>
            <Time>2018-12-30T09:13:16.000Z</Time>
            <Position>
              <LatitudeDegrees>40.7421616651117801666259765625</LatitudeDegrees>
              <LongitudeDegrees>-4.06915037892758846282958984375</LongitudeDegrees>
            </Position>
            <AltitudeMeters>1192</AltitudeMeters>
            <DistanceMeters>985.24054768239</DistanceMeters>
          </Trackpoint>
          <Trackpoint>
            <Time>2018-12-30T09:13:17.000Z</Time>
            <Position>
              <LatitudeDegrees>40.7421660237014293670654296875</LatitudeDegrees>
              <LongitudeDegrees>-4.0691526420414447784423828125</LongitudeDegrees>
            </Position>
            <AltitudeMeters>1192.199951171875</AltitudeMeters>
            <DistanceMeters>985.75228220036</DistanceMeters>
          </Trackpoint>
          <Trackpoint>
            <Time>2018-12-30T09:13:18.000Z</Time>
            <Position>
              <LatitudeDegrees>40.74217624962329864501953125</LatitudeDegrees>
              <LongitudeDegrees>-4.06915306113660335540771484375</LongitudeDegrees>
            </Position>
            <AltitudeMeters>1192.199951171875</AltitudeMeters>
            <DistanceMeters>986.8926027728</DistanceMeters>
          </Trackpoint>
          <Trackpoint>
            <Time>2018-12-30T09:13:19.000Z</Time>
            <Position>
              <LatitudeDegrees>40.74218739755451679229736328125</LatitudeDegrees>
              <LongitudeDegrees>-4.06915976665914058685302734375</LongitudeDegrees>
            </Position>
            <AltitudeMeters>1192.199951171875</AltitudeMeters>
            <DistanceMeters>988.2630975376</DistanceMeters>
          </Trackpoint>
          <Trackpoint>
            <Time>2018-12-30T09:13:20.000Z</Time>
            <Position>
              <LatitudeDegrees>40.7421891577541828155517578125</LatitudeDegrees>
              <LongitudeDegrees>-4.0691533125936985015869140625</LongitudeDegrees>
            </Position>
            <AltitudeMeters>1192.4000244140625</AltitudeMeters>
            <DistanceMeters>988.84888154631</DistanceMeters>
          </Trackpoint>
          <Trackpoint>
            <Time>2018-12-30T09:13:21.000Z</Time>
            <Position>
              <LatitudeDegrees>40.74220248498022556304931640625</LatitudeDegrees>
              <LongitudeDegrees>-4.06915088184177875518798828125</LongitudeDegrees>
            </Position>
            <AltitudeMeters>1192.4000244140625</AltitudeMeters>
            <DistanceMeters>990.3453637407</DistanceMeters>
          </Trackpoint>
          <Trackpoint>
            <Time>2018-12-30T09:13:22.000Z</Time>
            <Position>
              <LatitudeDegrees>40.74222779832780361175537109375</LatitudeDegrees>
              <LongitudeDegrees>-4.0691539831459522247314453125</LongitudeDegrees>
            </Position>
            <AltitudeMeters>1192.5999755859375</AltitudeMeters>
            <DistanceMeters>993.17390536658</DistanceMeters>
          </Trackpoint>
          <Trackpoint>
            <Time>2018-12-30T09:13:23.000Z</Time>
            <Position>
              <LatitudeDegrees>40.74223903007805347442626953125</LatitudeDegrees>
              <LongitudeDegrees>-4.0691536478698253631591796875</LongitudeDegrees>
            </Position>
            <AltitudeMeters>1192.5999755859375</AltitudeMeters>
            <DistanceMeters>994.42378665086</DistanceMeters>
          </Trackpoint>
          <Trackpoint>
            <Time>2018-12-30T09:13:24.000Z</Time>
            <Position>
              <LatitudeDegrees>40.74225646443665027618408203125</LatitudeDegrees>
              <LongitudeDegrees>-4.0691549889743328094482421875</LongitudeDegrees>
            </Position>
            <AltitudeMeters>1192.800048828125</AltitudeMeters>
            <DistanceMeters>996.36661241597</DistanceMeters>
          </Trackpoint>
          <Trackpoint>
            <Time>2018-12-30T09:13:25.000Z</Time>
            <Position>
              <LatitudeDegrees>40.74227146804332733154296875</LatitudeDegrees>
              <LongitudeDegrees>-4.0691513009369373321533203125</LongitudeDegrees>
            </Position>
            <AltitudeMeters>1192.800048828125</AltitudeMeters>
            <DistanceMeters>998.06650196005</DistanceMeters>
          </Trackpoint>
          <Trackpoint>
            <Time>2018-12-30T09:13:26.000Z</Time>
            <Position>
              <LatitudeDegrees>40.74228580109775066375732421875</LatitudeDegrees>
              <LongitudeDegrees>-4.06914778053760528564453125</LongitudeDegrees>
            </Position>
            <AltitudeMeters>1193</AltitudeMeters>
            <DistanceMeters>999.69031916701</DistanceMeters>
          </Trackpoint>
          <Trackpoint>
            <Time>2018-12-30T09:13:27.000Z</Time>
            <Position>
              <LatitudeDegrees>40.74229837395250797271728515625</LatitudeDegrees>
              <LongitudeDegrees>-4.0691506303846836090087890625</LongitudeDegrees>
            </Position>
            <AltitudeMeters>1193</AltitudeMeters>
            <DistanceMeters>1001.1093706273</DistanceMeters>
          </Trackpoint>
          <Trackpoint>
            <Time>2018-12-30T09:13:28.000Z</Time>
            <Position>
              <LatitudeDegrees>40.7423118688166141510009765625</LatitudeDegrees>
              <LongitudeDegrees>-4.06915490515530109405517578125</LongitudeDegrees>
            </Position>
            <AltitudeMeters>1193</AltitudeMeters>
            <DistanceMeters>1002.6533719813</DistanceMeters>
          </Trackpoint>
          <Trackpoint>
            <Time>2018-12-30T09:13:29.000Z</Time>
            <Position>
              <LatitudeDegrees>40.74232854880392551422119140625</LatitudeDegrees>
              <LongitudeDegrees>-4.06916026957333087921142578125</LongitudeDegrees>
            </Position>
            <AltitudeMeters>1193.199951171875</AltitudeMeters>
            <DistanceMeters>1004.5633853015</DistanceMeters>
          </Trackpoint>
          <Trackpoint>
            <Time>2018-12-30T09:13:30.000Z</Time>
            <Position>
              <LatitudeDegrees>40.7423396967351436614990234375</LatitudeDegrees>
              <LongitudeDegrees>-4.06916119158267974853515625</LongitudeDegrees>
            </Position>
            <AltitudeMeters>1193.199951171875</AltitudeMeters>
            <DistanceMeters>1005.8096489768</DistanceMeters>
          </Trackpoint>
          <Trackpoint>
            <Time>2018-12-30T09:13:31.000Z</Time>
            <Position>
              <LatitudeDegrees>40.74234648607671260833740234375</LatitudeDegrees>
              <LongitudeDegrees>-4.06916513107717037200927734375</LongitudeDegrees>
            </Position>
            <AltitudeMeters>1193.4000244140625</AltitudeMeters>
            <DistanceMeters>1006.6326044637</DistanceMeters>
          </Trackpoint>
          <Trackpoint>
            <Time>2018-12-30T09:13:32.000Z</Time>
            <Position>
              <LatitudeDegrees>40.742352269589900970458984375</LatitudeDegrees>
              <LongitudeDegrees>-4.06916764564812183380126953125</LongitudeDegrees>
            </Position>
            <AltitudeMeters>1193.4000244140625</AltitudeMeters>
            <DistanceMeters>1007.3112309431</DistanceMeters>
          </Trackpoint>
          <Trackpoint>
            <Time>2018-12-30T09:13:33.000Z</Time>
            <Position>
              <LatitudeDegrees>40.74235537089407444000244140625</LatitudeDegrees>
              <LongitudeDegrees>-4.06917753629386425018310546875</LongitudeDegrees>
            </Position>
            <AltitudeMeters>1193.5999755859375</AltitudeMeters>
            <DistanceMeters>1008.2127335111</DistanceMeters>
          </Trackpoint>
          <Trackpoint>
            <Time>2018-12-30T09:13:34.000Z</Time>
            <Position>
              <LatitudeDegrees>40.74235939420759677886962890625</LatitudeDegrees>
              <LongitudeDegrees>-4.069187007844448089599609375</LongitudeDegrees>
            </Position>
            <AltitudeMeters>1193.5999755859375</AltitudeMeters>
            <DistanceMeters>1009.1291379574</DistanceMeters>
          </Trackpoint>
          <Trackpoint>
            <Time>2018-12-30T09:13:35.000Z</Time>
            <Position>
              <LatitudeDegrees>40.74237381108105182647705078125</LatitudeDegrees>
              <LongitudeDegrees>-4.0691985748708248138427734375</LongitudeDegrees>
            </Position>
            <AltitudeMeters>1193.800048828125</AltitudeMeters>
            <DistanceMeters>1011.0057652015</DistanceMeters>
          </Trackpoint>
          <Trackpoint>
            <Time>2018-12-30T09:13:36.000Z</Time>
            <Position>
              <LatitudeDegrees>40.7423906587064266204833984375</LatitudeDegrees>
              <LongitudeDegrees>-4.06920653767883777618408203125</LongitudeDegrees>
            </Position>
            <AltitudeMeters>1193.800048828125</AltitudeMeters>
            <DistanceMeters>1012.9990623783</DistanceMeters>
          </Trackpoint>
          <Trackpoint>
            <Time>2018-12-30T09:13:37.000Z</Time>
            <Position>
              <LatitudeDegrees>40.74240482412278652191162109375</LatitudeDegrees>
              <LongitudeDegrees>-4.069217853248119354248046875</LongitudeDegrees>
            </Position>
            <AltitudeMeters>1193.800048828125</AltitudeMeters>
            <DistanceMeters>1014.841698735</DistanceMeters>
          </Trackpoint>
          <Trackpoint>
            <Time>2018-12-30T09:13:38.000Z</Time>
            <Position>
              <LatitudeDegrees>40.74241220019757747650146484375</LatitudeDegrees>
              <LongitudeDegrees>-4.0692297555506229400634765625</LongitudeDegrees>
            </Position>
            <AltitudeMeters>1193.800048828125</AltitudeMeters>
            <DistanceMeters>1016.1376903316</DistanceMeters>
          </Trackpoint>
          <Trackpoint>
            <Time>2018-12-30T09:13:39.000Z</Time>
            <Position>
              <LatitudeDegrees>40.74242577888071537017822265625</LatitudeDegrees>
              <LongitudeDegrees>-4.0692394785583019256591796875</LongitudeDegrees>
            </Position>
            <AltitudeMeters>1193.800048828125</AltitudeMeters>
            <DistanceMeters>1017.8586973257</DistanceMeters>
          </Trackpoint>
          <Trackpoint>
            <Time>2018-12-30T09:13:40.000Z</Time>
            <Position>
              <LatitudeDegrees>40.74243231676518917083740234375</LatitudeDegrees>
              <LongitudeDegrees>-4.06925062648952007293701171875</LongitudeDegrees>
            </Position>
            <AltitudeMeters>1193.800048828125</AltitudeMeters>
            <DistanceMeters>1019.0455806078</DistanceMeters>
          </Trackpoint>
          <Trackpoint>
            <Time>2018-12-30T09:13:41.000Z</Time>
            <Position>
              <LatitudeDegrees>40.74244086630642414093017578125</LatitudeDegrees>
              <LongitudeDegrees>-4.06926118768751621246337890625</LongitudeDegrees>
            </Position>
            <AltitudeMeters>1193.800048828125</AltitudeMeters>
            <DistanceMeters>1020.3485212708</DistanceMeters>
          </Trackpoint>
          <Trackpoint>
            <Time>2018-12-30T09:13:42.000Z</Time>
            <Position>
              <LatitudeDegrees>40.7424567081034183502197265625</LatitudeDegrees>
              <LongitudeDegrees>-4.06927359290421009063720703125</LongitudeDegrees>
            </Position>
            <AltitudeMeters>1194</AltitudeMeters>
            <DistanceMeters>1022.3976639078</DistanceMeters>
          </Trackpoint>
          <Trackpoint>
            <Time>2018-12-30T09:13:43.000Z</Time>
            <Position>
              <LatitudeDegrees>40.7424719631671905517578125</LatitudeDegrees>
              <LongitudeDegrees>-4.0692837350070476531982421875</LongitudeDegrees>
            </Position>
            <AltitudeMeters>1193.800048828125</AltitudeMeters>
            <DistanceMeters>1024.2981981952</DistanceMeters>
          </Trackpoint>
          <Trackpoint>
            <Time>2018-12-30T09:13:44.000Z</Time>
            <Position>
              <LatitudeDegrees>40.74247422628104686737060546875</LatitudeDegrees>
              <LongitudeDegrees>-4.06929035671055316925048828125</LongitudeDegrees>
            </Position>
            <AltitudeMeters>1194</AltitudeMeters>
            <DistanceMeters>1024.9066660532</DistanceMeters>
          </Trackpoint>
          <Trackpoint>
            <Time>2018-12-30T09:13:45.000Z</Time>
            <Position>
              <LatitudeDegrees>40.74248193763196468353271484375</LatitudeDegrees>
              <LongitudeDegrees>-4.0692988224327564239501953125</LongitudeDegrees>
            </Position>
            <AltitudeMeters>1194</AltitudeMeters>
            <DistanceMeters>1026.0229771878</DistanceMeters>
          </Trackpoint>
          <Trackpoint>
            <Time>2018-12-30T09:13:46.000Z</Time>
            <Position>
              <LatitudeDegrees>40.74249099008738994598388671875</LatitudeDegrees>
              <LongitudeDegrees>-4.06930393539369106292724609375</LongitudeDegrees>
            </Position>
            <AltitudeMeters>1193.800048828125</AltitudeMeters>
            <DistanceMeters>1027.1188787194</DistanceMeters>
          </Trackpoint>
          <Trackpoint>
            <Time>2018-12-30T09:13:47.000Z</Time>
            <Position>
              <LatitudeDegrees>40.74249836616218090057373046875</LatitudeDegrees>
              <LongitudeDegrees>-4.06930795870721340179443359375</LongitudeDegrees>
            </Position>
            <AltitudeMeters>1194</AltitudeMeters>
            <DistanceMeters>1028.0052289045</DistanceMeters>
          </Trackpoint>
          <Trackpoint>
            <Time>2018-12-30T09:13:48.000Z</Time>
            <Position>
              <LatitudeDegrees>40.7425046525895595550537109375</LatitudeDegrees>
              <LongitudeDegrees>-4.06931483186781406402587890625</LongitudeDegrees>
            </Position>
            <AltitudeMeters>1194.199951171875</AltitudeMeters>
            <DistanceMeters>1028.9117259847</DistanceMeters>
          </Trackpoint>
          <Trackpoint>
            <Time>2018-12-30T09:13:49.000Z</Time>
            <Position>
              <LatitudeDegrees>40.742523930966854095458984375</LatitudeDegrees>
              <LongitudeDegrees>-4.06932053156197071075439453125</LongitudeDegrees>
            </Position>
            <AltitudeMeters>1194.199951171875</AltitudeMeters>
            <DistanceMeters>1031.1117534786</DistanceMeters>
          </Trackpoint>
          <Trackpoint>
            <Time>2018-12-30T09:13:50.000Z</Time>
            <Position>
              <LatitudeDegrees>40.74253432452678680419921875</LatitudeDegrees>
              <LongitudeDegrees>-4.0693289972841739654541015625</LongitudeDegrees>
            </Position>
            <AltitudeMeters>1194.4000244140625</AltitudeMeters>
            <DistanceMeters>1032.4690064376</DistanceMeters>
          </Trackpoint>
          <Trackpoint>
            <Time>2018-12-30T09:13:51.000Z</Time>
            <Position>
              <LatitudeDegrees>40.742541365325450897216796875</LatitudeDegrees>
              <LongitudeDegrees>-4.069344587624073028564453125</LongitudeDegrees>
            </Position>
            <AltitudeMeters>1194.4000244140625</AltitudeMeters>
            <DistanceMeters>1033.9983166739</DistanceMeters>
          </Trackpoint>
          <Trackpoint>
            <Time>2018-12-30T09:13:52.000Z</Time>
            <Position>
              <LatitudeDegrees>40.74254714883863925933837890625</LatitudeDegrees>
              <LongitudeDegrees>-4.06935389153659343719482421875</LongitudeDegrees>
            </Position>
            <AltitudeMeters>1194.4000244140625</AltitudeMeters>
            <DistanceMeters>1035.0129243393</DistanceMeters>
          </Trackpoint>
          <Trackpoint>
            <Time>2018-12-30T09:13:53.000Z</Time>
            <Position>
              <LatitudeDegrees>40.74255636893212795257568359375</LatitudeDegrees>
              <LongitudeDegrees>-4.06935305334627628326416015625</LongitudeDegrees>
            </Position>
            <AltitudeMeters>1194.5999755859375</AltitudeMeters>
            <DistanceMeters>1036.0363933752</DistanceMeters>
          </Trackpoint>
          <Trackpoint>
            <Time>2018-12-30T09:13:54.000Z</Time>
            <Position>
              <LatitudeDegrees>40.74257346801459789276123046875</LatitudeDegrees>
              <LongitudeDegrees>-4.06935825012624263763427734375</LongitudeDegrees>
            </Position>
            <AltitudeMeters>1194.5999755859375</AltitudeMeters>
            <DistanceMeters>1037.9884928243</DistanceMeters>
          </Trackpoint>
          <Trackpoint>
            <Time>2018-12-30T09:13:55.000Z</Time>
            <Position>
              <LatitudeDegrees>40.74260003864765167236328125</LatitudeDegrees>
              <LongitudeDegrees>-4.0693635307252407073974609375</LongitudeDegrees>
            </Position>
            <AltitudeMeters>1194.5999755859375</AltitudeMeters>
            <DistanceMeters>1040.9799482821</DistanceMeters>
          </Trackpoint>
          <Trackpoint>
            <Time>2018-12-30T09:13:56.000Z</Time>
            <Position>
              <LatitudeDegrees>40.742623843252658843994140625</LatitudeDegrees>
              <LongitudeDegrees>-4.06936244107782840728759765625</LongitudeDegrees>
            </Position>
            <AltitudeMeters>1194.800048828125</AltitudeMeters>
            <DistanceMeters>1043.6304952961</DistanceMeters>
          </Trackpoint>
          <Trackpoint>
            <Time>2018-12-30T09:13:57.000Z</Time>
            <Position>
              <LatitudeDegrees>40.74264136143028736114501953125</LatitudeDegrees>
              <LongitudeDegrees>-4.06936294399201869964599609375</LongitudeDegrees>
            </Position>
            <AltitudeMeters>1194.800048828125</AltitudeMeters>
            <DistanceMeters>1045.5779634233</DistanceMeters>
          </Trackpoint>
          <Trackpoint>
            <Time>2018-12-30T09:13:58.000Z</Time>
            <Position>
              <LatitudeDegrees>40.74265577830374240875244140625</LatitudeDegrees>
              <LongitudeDegrees>-4.0693658776581287384033203125</LongitudeDegrees>
            </Position>
            <AltitudeMeters>1195</AltitudeMeters>
            <DistanceMeters>1047.2017806303</DistanceMeters>
          </Trackpoint>
          <Trackpoint>
            <Time>2018-12-30T09:13:59.000Z</Time>
            <Position>
              <LatitudeDegrees>40.7426706142723560333251953125</LatitudeDegrees>
              <LongitudeDegrees>-4.06936646439135074615478515625</LongitudeDegrees>
            </Position>
            <AltitudeMeters>1194.800048828125</AltitudeMeters>
            <DistanceMeters>1048.8531688602</DistanceMeters>
          </Trackpoint>
          <Trackpoint>
            <Time>2018-12-30T09:14:00.000Z</Time>
            <Position>
              <LatitudeDegrees>40.74268008582293987274169921875</LatitudeDegrees>
              <LongitudeDegrees>-4.0693729184567928314208984375</LongitudeDegrees>
            </Position>
            <AltitudeMeters>1194.800048828125</AltitudeMeters>
            <DistanceMeters>1050.0400521423</DistanceMeters>
          </Trackpoint>
          <Trackpoint>
            <Time>2018-12-30T09:14:01.000Z</Time>
            <Position>
              <LatitudeDegrees>40.74269316159188747406005859375</LatitudeDegrees>
              <LongitudeDegrees>-4.06938113272190093994140625</LongitudeDegrees>
            </Position>
            <AltitudeMeters>1194.800048828125</AltitudeMeters>
            <DistanceMeters>1051.6527089613</DistanceMeters>
          </Trackpoint>
          <Trackpoint>
            <Time>2018-12-30T09:14:02.000Z</Time>
            <Position>
              <LatitudeDegrees>40.74270506389439105987548828125</LatitudeDegrees>
              <LongitudeDegrees>-4.06938272528350353240966796875</LongitudeDegrees>
            </Position>
            <AltitudeMeters>1194.800048828125</AltitudeMeters>
            <DistanceMeters>1052.9830829625</DistanceMeters>
          </Trackpoint>
          <Trackpoint>
            <Time>2018-12-30T09:14:03.000Z</Time>
            <Position>
              <LatitudeDegrees>40.7427145354449748992919921875</LatitudeDegrees>
              <LongitudeDegrees>-4.0693883411586284637451171875</LongitudeDegrees>
            </Position>
            <AltitudeMeters>1194.800048828125</AltitudeMeters>
            <DistanceMeters>1054.1391328376</DistanceMeters>
          </Trackpoint>
          <Trackpoint>
            <Time>2018-12-30T09:14:04.000Z</Time>
            <Position>
              <LatitudeDegrees>40.74272300116717815399169921875</LatitudeDegrees>
              <LongitudeDegrees>-4.0693896822631359100341796875</LongitudeDegrees>
            </Position>
            <AltitudeMeters>1194.5999755859375</AltitudeMeters>
            <DistanceMeters>1055.0846367075</DistanceMeters>
          </Trackpoint>
          <Trackpoint>
            <Time>2018-12-30T09:14:05.000Z</Time>
            <Position>
              <LatitudeDegrees>40.7427353225648403167724609375</LatitudeDegrees>
              <LongitudeDegrees>-4.069388844072818756103515625</LongitudeDegrees>
            </Position>
            <AltitudeMeters>1194.5999755859375</AltitudeMeters>
            <DistanceMeters>1056.4617046264</DistanceMeters>
          </Trackpoint>
          <Trackpoint>
            <Time>2018-12-30T09:14:06.000Z</Time>
            <Position>
              <LatitudeDegrees>40.74274546466767787933349609375</LatitudeDegrees>
              <LongitudeDegrees>-4.06939244829118251800537109375</LongitudeDegrees>
            </Position>
            <AltitudeMeters>1194.5999755859375</AltitudeMeters>
            <DistanceMeters>1057.6294124421</DistanceMeters>
          </Trackpoint>
          <Trackpoint>
            <Time>2018-12-30T09:14:07.000Z</Time>
            <Position>
              <LatitudeDegrees>40.74275569058954715728759765625</LatitudeDegrees>
              <LongitudeDegrees>-4.06939865089952945709228515625</LongitudeDegrees>
            </Position>
            <AltitudeMeters>1194.5999755859375</AltitudeMeters>
            <DistanceMeters>1058.8829008949</DistanceMeters>
          </Trackpoint>
          <Trackpoint>
            <Time>2018-12-30T09:14:08.000Z</Time>
            <Position>
              <LatitudeDegrees>40.742768347263336181640625</LatitudeDegrees>
              <LongitudeDegrees>-4.06940435059368610382080078125</LongitudeDegrees>
            </Position>
            <AltitudeMeters>1194.5999755859375</AltitudeMeters>
            <DistanceMeters>1060.3733366719</DistanceMeters>
          </Trackpoint>
          <Trackpoint>
            <Time>2018-12-30T09:14:09.000Z</Time>
            <Position>
              <LatitudeDegrees>40.74277999810874462127685546875</LatitudeDegrees>
              <LongitudeDegrees>-4.0694124810397624969482421875</LongitudeDegrees>
            </Position>
            <AltitudeMeters>1194.800048828125</AltitudeMeters>
            <DistanceMeters>1061.83933742</DistanceMeters>
          </Trackpoint>
          <Trackpoint>
            <Time>2018-12-30T09:14:10.000Z</Time>
            <Position>
              <LatitudeDegrees>40.74278955347836017608642578125</LatitudeDegrees>
              <LongitudeDegrees>-4.06942664645612239837646484375</LongitudeDegrees>
            </Position>
            <AltitudeMeters>1194.800048828125</AltitudeMeters>
            <DistanceMeters>1063.4351073149</DistanceMeters>
          </Trackpoint>
          <Trackpoint>
            <Time>2018-12-30T09:14:11.000Z</Time>
            <Position>
              <LatitudeDegrees>40.74280162341892719268798828125</LatitudeDegrees>
              <LongitudeDegrees>-4.0694305859506130218505859375</LongitudeDegrees>
            </Position>
            <AltitudeMeters>1195</AltitudeMeters>
            <DistanceMeters>1064.8187171609</DistanceMeters>
          </Trackpoint>
          <Trackpoint>
            <Time>2018-12-30T09:14:12.000Z</Time>
            <Position>
              <LatitudeDegrees>40.742812938988208770751953125</LatitudeDegrees>
              <LongitudeDegrees>-4.069435782730579376220703125</LongitudeDegrees>
            </Position>
            <AltitudeMeters>1195.199951171875</AltitudeMeters>
            <DistanceMeters>1066.1490911621</DistanceMeters>
          </Trackpoint>
          <Trackpoint>
            <Time>2018-12-30T09:14:13.000Z</Time>
            <Position>
              <LatitudeDegrees>40.74282358400523662567138671875</LatitudeDegrees>
              <LongitudeDegrees>-4.06944642774760723114013671875</LongitudeDegrees>
            </Position>
            <AltitudeMeters>1195.199951171875</AltitudeMeters>
            <DistanceMeters>1067.6334558923</DistanceMeters>
          </Trackpoint>
          <Trackpoint>
            <Time>2018-12-30T09:14:14.000Z</Time>
            <Position>
              <LatitudeDegrees>40.7428359054028987884521484375</LatitudeDegrees>
              <LongitudeDegrees>-4.0694610960781574249267578125</LongitudeDegrees>
            </Position>
            <AltitudeMeters>1195.4000244140625</AltitudeMeters>
            <DistanceMeters>1069.4785409363</DistanceMeters>
          </Trackpoint>
          <Trackpoint>
            <Time>2018-12-30T09:14:15.000Z</Time>
            <Position>
              <LatitudeDegrees>40.74285375885665416717529296875</LatitudeDegrees>
              <LongitudeDegrees>-4.069465287029743194580078125</LongitudeDegrees>
            </Position>
            <AltitudeMeters>1195.4000244140625</AltitudeMeters>
            <DistanceMeters>1071.498836596</DistanceMeters>
          </Trackpoint>
          <Trackpoint>
            <Time>2018-12-30T09:14:16.000Z</Time>
            <Position>
              <LatitudeDegrees>40.742875970900058746337890625</LatitudeDegrees>
              <LongitudeDegrees>-4.0694810450077056884765625</LongitudeDegrees>
            </Position>
            <AltitudeMeters>1195.5999755859375</AltitudeMeters>
            <DistanceMeters>1074.3065503876</DistanceMeters>
          </Trackpoint>
          <Trackpoint>
            <Time>2018-12-30T09:14:17.000Z</Time>
            <Position>
              <LatitudeDegrees>40.742890052497386932373046875</LatitudeDegrees>
              <LongitudeDegrees>-4.0694986470043659210205078125</LongitudeDegrees>
            </Position>
            <AltitudeMeters>1195.5999755859375</AltitudeMeters>
            <DistanceMeters>1076.4651423928</DistanceMeters>
          </Trackpoint>
          <Trackpoint>
            <Time>2018-12-30T09:14:18.000Z</Time>
            <Position>
              <LatitudeDegrees>40.7429037988185882568359375</LatitudeDegrees>
              <LongitudeDegrees>-4.0695120580494403839111328125</LongitudeDegrees>
            </Position>
            <AltitudeMeters>1195.800048828125</AltitudeMeters>
            <DistanceMeters>1078.3656766802</DistanceMeters>
          </Trackpoint>
          <Trackpoint>
            <Time>2018-12-30T09:14:19.000Z</Time>
            <Position>
              <LatitudeDegrees>40.74291427619755268096923828125</LatitudeDegrees>
              <LongitudeDegrees>-4.0695237927138805389404296875</LongitudeDegrees>
            </Position>
            <AltitudeMeters>1196</AltitudeMeters>
            <DistanceMeters>1079.8920317249</DistanceMeters>
          </Trackpoint>
          <Trackpoint>
            <Time>2018-12-30T09:14:20.000Z</Time>
            <Position>
              <LatitudeDegrees>40.7429257594048976898193359375</LatitudeDegrees>
              <LongitudeDegrees>-4.0695378743112087249755859375</LongitudeDegrees>
            </Position>
            <AltitudeMeters>1196.199951171875</AltitudeMeters>
            <DistanceMeters>1081.6339001715</DistanceMeters>
          </Trackpoint>
          <Trackpoint>
            <Time>2018-12-30T09:14:21.000Z</Time>
            <Position>
              <LatitudeDegrees>40.74293925426900386810302734375</LatitudeDegrees>
              <LongitudeDegrees>-4.06954935751855373382568359375</LongitudeDegrees>
            </Position>
            <AltitudeMeters>1196.199951171875</AltitudeMeters>
            <DistanceMeters>1083.421817133</DistanceMeters>
          </Trackpoint>
          <Trackpoint>
            <Time>2018-12-30T09:14:22.000Z</Time>
            <Position>
              <LatitudeDegrees>40.7429547607898712158203125</LatitudeDegrees>
              <LongitudeDegrees>-4.06955874525010585784912109375</LongitudeDegrees>
            </Position>
            <AltitudeMeters>1196.199951171875</AltitudeMeters>
            <DistanceMeters>1085.3199742659</DistanceMeters>
          </Trackpoint>
          <Trackpoint>
            <Time>2018-12-30T09:14:23.000Z</Time>
            <Position>
              <LatitudeDegrees>40.742969177663326263427734375</LatitudeDegrees>
              <LongitudeDegrees>-4.06956486403942108154296875</LongitudeDegrees>
            </Position>
            <AltitudeMeters>1196</AltitudeMeters>
            <DistanceMeters>1087.0038519347</DistanceMeters>
          </Trackpoint>
          <Trackpoint>
            <Time>2018-12-30T09:14:24.000Z</Time>
            <Position>
              <LatitudeDegrees>40.7429773919284343719482421875</LatitudeDegrees>
              <LongitudeDegrees>-4.069575928151607513427734375</LongitudeDegrees>
            </Position>
            <AltitudeMeters>1196</AltitudeMeters>
            <DistanceMeters>1088.3067925977</DistanceMeters>
          </Trackpoint>
          <Trackpoint>
            <Time>2018-12-30T09:14:25.000Z</Time>
            <Position>
              <LatitudeDegrees>40.74298434890806674957275390625</LatitudeDegrees>
              <LongitudeDegrees>-4.0695829689502716064453125</LongitudeDegrees>
            </Position>
            <AltitudeMeters>1195.800048828125</AltitudeMeters>
            <DistanceMeters>1089.2758787395</DistanceMeters>
          </Trackpoint>
          <Trackpoint>
            <Time>2018-12-30T09:14:26.000Z</Time>
            <Position>
              <LatitudeDegrees>40.74299105443060398101806640625</LatitudeDegrees>
              <LongitudeDegrees>-4.06958992592990398406982421875</LongitudeDegrees>
            </Position>
            <AltitudeMeters>1195.5999755859375</AltitudeMeters>
            <DistanceMeters>1090.2213826094</DistanceMeters>
          </Trackpoint>
          <Trackpoint>
            <Time>2018-12-30T09:14:27.000Z</Time>
            <Position>
              <LatitudeDegrees>40.74300094507634639739990234375</LatitudeDegrees>
              <LongitudeDegrees>-4.0695955418050289154052734375</LongitudeDegrees>
            </Position>
            <AltitudeMeters>1195.4000244140625</AltitudeMeters>
            <DistanceMeters>1091.4233860333</DistanceMeters>
          </Trackpoint>
          <Trackpoint>
            <Time>2018-12-30T09:14:28.000Z</Time>
            <Position>
              <LatitudeDegrees>40.7430079020559787750244140625</LatitudeDegrees>
              <LongitudeDegrees>-4.06960107386112213134765625</LongitudeDegrees>
            </Position>
            <AltitudeMeters>1195.4000244140625</AltitudeMeters>
            <DistanceMeters>1092.3298831134</DistanceMeters>
          </Trackpoint>
          <Trackpoint>
            <Time>2018-12-30T09:14:29.000Z</Time>
            <Position>
              <LatitudeDegrees>40.743018798530101776123046875</LatitudeDegrees>
              <LongitudeDegrees>-4.06960652209818363189697265625</LongitudeDegrees>
            </Position>
            <AltitudeMeters>1195.199951171875</AltitudeMeters>
            <DistanceMeters>1093.6328237765</DistanceMeters>
          </Trackpoint>
          <Trackpoint>
            <Time>2018-12-30T09:14:30.000Z</Time>
            <Position>
              <LatitudeDegrees>40.74302785098552703857421875</LatitudeDegrees>
              <LongitudeDegrees>-4.06961255706846714019775390625</LongitudeDegrees>
            </Position>
            <AltitudeMeters>1195.4000244140625</AltitudeMeters>
            <DistanceMeters>1094.7651977673</DistanceMeters>
          </Trackpoint>
          <Trackpoint>
            <Time>2018-12-30T09:14:31.000Z</Time>
            <Position>
              <LatitudeDegrees>40.74303715489804744720458984375</LatitudeDegrees>
              <LongitudeDegrees>-4.06961607746779918670654296875</LongitudeDegrees>
            </Position>
            <AltitudeMeters>1195.4000244140625</AltitudeMeters>
            <DistanceMeters>1095.8403023133</DistanceMeters>
          </Trackpoint>
          <Trackpoint>
            <Time>2018-12-30T09:14:32.000Z</Time>
            <Position>
              <LatitudeDegrees>40.74304268695414066314697265625</LatitudeDegrees>
              <LongitudeDegrees>-4.06961641274392604827880859375</LongitudeDegrees>
            </Position>
            <AltitudeMeters>1195.5999755859375</AltitudeMeters>
            <DistanceMeters>1096.4561458086</DistanceMeters>
          </Trackpoint>
          <Trackpoint>
            <Time>2018-12-30T09:14:33.000Z</Time>
            <Position>
              <LatitudeDegrees>40.743049643933773040771484375</LatitudeDegrees>
              <LongitudeDegrees>-4.0696193464100360870361328125</LongitudeDegrees>
            </Position>
            <AltitudeMeters>1195.800048828125</AltitudeMeters>
            <DistanceMeters>1097.2735965146</DistanceMeters>
          </Trackpoint>
          <Trackpoint>
            <Time>2018-12-30T09:14:34.000Z</Time>
            <Position>
              <LatitudeDegrees>40.7430575229227542877197265625</LatitudeDegrees>
              <LongitudeDegrees>-4.0696339309215545654296875</LongitudeDegrees>
            </Position>
            <AltitudeMeters>1195.800048828125</AltitudeMeters>
            <DistanceMeters>1098.7880731294</DistanceMeters>
          </Trackpoint>
          <Trackpoint>
            <Time>2018-12-30T09:14:35.000Z</Time>
            <Position>
              <LatitudeDegrees>40.74306716211140155792236328125</LatitudeDegrees>
              <LongitudeDegrees>-4.0696441568434238433837890625</LongitudeDegrees>
            </Position>
            <AltitudeMeters>1196</AltitudeMeters>
            <DistanceMeters>1100.1618584026</DistanceMeters>
          </Trackpoint>
          <Trackpoint>
            <Time>2018-12-30T09:14:36.000Z</Time>
            <Position>
              <LatitudeDegrees>40.74307437054812908172607421875</LatitudeDegrees>
              <LongitudeDegrees>-4.06964893452823162078857421875</LongitudeDegrees>
            </Position>
            <AltitudeMeters>1196</AltitudeMeters>
            <DistanceMeters>1101.053288</DistanceMeters>
          </Trackpoint>
          <Trackpoint>
            <Time>2018-12-30T09:14:37.000Z</Time>
            <Position>
              <LatitudeDegrees>40.74307939969003200531005859375</LatitudeDegrees>
              <LongitudeDegrees>-4.06965798698365688323974609375</LongitudeDegrees>
            </Position>
            <AltitudeMeters>1196</AltitudeMeters>
            <DistanceMeters>1101.9940044777</DistanceMeters>
          </Trackpoint>
          <Trackpoint>
            <Time>2018-12-30T09:14:38.000Z</Time>
            <Position>
              <LatitudeDegrees>40.74309012852609157562255859375</LatitudeDegrees>
              <LongitudeDegrees>-4.06966787762939929962158203125</LongitudeDegrees>
            </Position>
            <AltitudeMeters>1196</AltitudeMeters>
            <DistanceMeters>1103.4538325638</DistanceMeters>
          </Trackpoint>
          <Trackpoint>
            <Time>2018-12-30T09:14:39.000Z</Time>
            <Position>
              <LatitudeDegrees>40.74310353957116603851318359375</LatitudeDegrees>
              <LongitudeDegrees>-4.069673828780651092529296875</LongitudeDegrees>
            </Position>
            <AltitudeMeters>1196</AltitudeMeters>
            <DistanceMeters>1105.0296723469</DistanceMeters>
          </Trackpoint>
          <Trackpoint>
            <Time>2018-12-30T09:14:40.000Z</Time>
            <Position>
              <LatitudeDegrees>40.74311368167400360107421875</LatitudeDegrees>
              <LongitudeDegrees>-4.0696813724935054779052734375</LongitudeDegrees>
            </Position>
            <AltitudeMeters>1196.199951171875</AltitudeMeters>
            <DistanceMeters>1106.3291431219</DistanceMeters>
          </Trackpoint>
          <Trackpoint>
            <Time>2018-12-30T09:14:41.000Z</Time>
            <Position>
              <LatitudeDegrees>40.74312717653810977935791015625</LatitudeDegrees>
              <LongitudeDegrees>-4.0696902573108673095703125</LongitudeDegrees>
            </Position>
            <AltitudeMeters>1196.800048828125</AltitudeMeters>
            <DistanceMeters>1108.0076495563</DistanceMeters>
          </Trackpoint>
          <Trackpoint>
            <Time>2018-12-30T09:14:42.000Z</Time>
            <Position>
              <LatitudeDegrees>40.74314041994512081146240234375</LatitudeDegrees>
              <LongitudeDegrees>-4.0697021596133708953857421875</LongitudeDegrees>
            </Position>
            <AltitudeMeters>1197.199951171875</AltitudeMeters>
            <DistanceMeters>1109.7905087511</DistanceMeters>
          </Trackpoint>
          <Trackpoint>
            <Time>2018-12-30T09:14:43.000Z</Time>
            <Position>
              <LatitudeDegrees>40.7431534118950366973876953125</LatitudeDegrees>
              <LongitudeDegrees>-4.06970777548849582672119140625</LongitudeDegrees>
            </Position>
            <AltitudeMeters>1197.4000244140625</AltitudeMeters>
            <DistanceMeters>1111.310936181</DistanceMeters>
          </Trackpoint>
          <Trackpoint>
            <Time>2018-12-30T09:14:44.000Z</Time>
            <Position>
              <LatitudeDegrees>40.743162631988525390625</LatitudeDegrees>
              <LongitudeDegrees>-4.0697155706584453582763671875</LongitudeDegrees>
            </Position>
            <AltitudeMeters>1197.5999755859375</AltitudeMeters>
            <DistanceMeters>1112.5315764282</DistanceMeters>
          </Trackpoint>
          <Trackpoint>
            <Time>2018-12-30T09:14:45.000Z</Time>
            <Position>
              <LatitudeDegrees>40.743173696100711822509765625</LatitudeDegrees>
              <LongitudeDegrees>-4.06972789205610752105712890625</LongitudeDegrees>
            </Position>
            <AltitudeMeters>1197.5999755859375</AltitudeMeters>
            <DistanceMeters>1114.1414310613</DistanceMeters>
          </Trackpoint>
          <Trackpoint>
            <Time>2018-12-30T09:14:46.000Z</Time>
            <Position>
              <LatitudeDegrees>40.74318333528935909271240234375</LatitudeDegrees>
              <LongitudeDegrees>-4.06973694451153278350830078125</LongitudeDegrees>
            </Position>
            <AltitudeMeters>1197.5999755859375</AltitudeMeters>
            <DistanceMeters>1115.4547263825</DistanceMeters>
          </Trackpoint>
          <Trackpoint>
            <Time>2018-12-30T09:14:47.000Z</Time>
            <Position>
              <LatitudeDegrees>40.7431961596012115478515625</LatitudeDegrees>
              <LongitudeDegrees>-4.06974649988114833831787109375</LongitudeDegrees>
            </Position>
            <AltitudeMeters>1197.5999755859375</AltitudeMeters>
            <DistanceMeters>1117.0923871239</DistanceMeters>
          </Trackpoint>
          <Trackpoint>
            <Time>2018-12-30T09:14:48.000Z</Time>
            <Position>
              <LatitudeDegrees>40.74320713989436626434326171875</LatitudeDegrees>
              <LongitudeDegrees>-4.0697615034878253936767578125</LongitudeDegrees>
            </Position>
            <AltitudeMeters>1197.5999755859375</AltitudeMeters>
            <DistanceMeters>1118.84973915</DistanceMeters>
          </Trackpoint>
          <Trackpoint>
            <Time>2018-12-30T09:14:49.000Z</Time>
            <Position>
              <LatitudeDegrees>40.743215940892696380615234375</LatitudeDegrees>
              <LongitudeDegrees>-4.06977382488548755645751953125</LongitudeDegrees>
            </Position>
            <AltitudeMeters>1197.5999755859375</AltitudeMeters>
            <DistanceMeters>1120.2751398656</DistanceMeters>
          </Trackpoint>
          <Trackpoint>
            <Time>2018-12-30T09:14:50.000Z</Time>
            <Position>
              <LatitudeDegrees>40.74322633445262908935546875</LatitudeDegrees>
              <LongitudeDegrees>-4.06979276798665523529052734375</LongitudeDegrees>
            </Position>
            <AltitudeMeters>1197.4000244140625</AltitudeMeters>
            <DistanceMeters>1122.2456557551</DistanceMeters>
          </Trackpoint>
          <Trackpoint>
            <Time>2018-12-30T09:14:51.000Z</Time>
            <Position>
              <LatitudeDegrees>40.74323966167867183685302734375</LatitudeDegrees>
              <LongitudeDegrees>-4.06980752013623714447021484375</LongitudeDegrees>
            </Position>
            <AltitudeMeters>1197.4000244140625</AltitudeMeters>
            <DistanceMeters>1124.1838280386</DistanceMeters>
          </Trackpoint>
          <Trackpoint>
            <Time>2018-12-30T09:14:52.000Z</Time>
            <Position>
              <LatitudeDegrees>40.74325324036180973052978515625</LatitudeDegrees>
              <LongitudeDegrees>-4.0698181651532649993896484375</LongitudeDegrees>
            </Position>
            <AltitudeMeters>1197.4000244140625</AltitudeMeters>
            <DistanceMeters>1125.9411800648</DistanceMeters>
          </Trackpoint>
          <Trackpoint>
            <Time>2018-12-30T09:14:53.000Z</Time>
            <Position>
              <LatitudeDegrees>40.743264220654964447021484375</LatitudeDegrees>
              <LongitudeDegrees>-4.0698329173028469085693359375</LongitudeDegrees>
            </Position>
            <AltitudeMeters>1197.4000244140625</AltitudeMeters>
            <DistanceMeters>1127.6882249521</DistanceMeters>
          </Trackpoint>
          <Trackpoint>
            <Time>2018-12-30T09:14:54.000Z</Time>
            <Position>
              <LatitudeDegrees>40.74327863752841949462890625</LatitudeDegrees>
              <LongitudeDegrees>-4.06984473578631877899169921875</LongitudeDegrees>
            </Position>
            <AltitudeMeters>1197.199951171875</AltitudeMeters>
            <DistanceMeters>1129.5792326918</DistanceMeters>
          </Trackpoint>
          <Trackpoint>
            <Time>2018-12-30T09:14:55.000Z</Time>
            <Position>
              <LatitudeDegrees>40.7432922162115573883056640625</LatitudeDegrees>
              <LongitudeDegrees>-4.069857560098171234130859375</LongitudeDegrees>
            </Position>
            <AltitudeMeters>1197.199951171875</AltitudeMeters>
            <DistanceMeters>1131.4413683889</DistanceMeters>
          </Trackpoint>
          <Trackpoint>
            <Time>2018-12-30T09:14:56.000Z</Time>
            <Position>
              <LatitudeDegrees>40.74330487288534641265869140625</LatitudeDegrees>
              <LongitudeDegrees>-4.06986870802938938140869140625</LongitudeDegrees>
            </Position>
            <AltitudeMeters>1197.4000244140625</AltitudeMeters>
            <DistanceMeters>1133.1332709372</DistanceMeters>
          </Trackpoint>
          <Trackpoint>
            <Time>2018-12-30T09:14:57.000Z</Time>
            <Position>
              <LatitudeDegrees>40.74331677518784999847412109375</LatitudeDegrees>
              <LongitudeDegrees>-4.06988010741770267486572265625</LongitudeDegrees>
            </Position>
            <AltitudeMeters>1197.4000244140625</AltitudeMeters>
            <DistanceMeters>1134.7681723493</DistanceMeters>
          </Trackpoint>
          <Trackpoint>
            <Time>2018-12-30T09:14:58.000Z</Time>
            <Position>
              <LatitudeDegrees>40.7433267496526241302490234375</LatitudeDegrees>
              <LongitudeDegrees>-4.06989268027245998382568359375</LongitudeDegrees>
            </Position>
            <AltitudeMeters>1197.5999755859375</AltitudeMeters>
            <DistanceMeters>1136.3063140945</DistanceMeters>
          </Trackpoint>
          <Trackpoint>
            <Time>2018-12-30T09:14:59.000Z</Time>
            <Position>
              <LatitudeDegrees>40.74333630502223968505859375</LatitudeDegrees>
              <LongitudeDegrees>-4.0698996372520923614501953125</LongitudeDegrees>
            </Position>
            <AltitudeMeters>1197.800048828125</AltitudeMeters>
            <DistanceMeters>1137.5232498105</DistanceMeters>
          </Trackpoint>
          <Trackpoint>
            <Time>2018-12-30T09:15:00.000Z</Time>
            <Position>
              <LatitudeDegrees>40.743341334164142608642578125</LatitudeDegrees>
              <LongitudeDegrees>-4.069911874830722808837890625</LongitudeDegrees>
            </Position>
            <AltitudeMeters>1198</AltitudeMeters>
            <DistanceMeters>1138.6986653523</DistanceMeters>
          </Trackpoint>
          <Trackpoint>
            <Time>2018-12-30T09:15:01.000Z</Time>
            <Position>
              <LatitudeDegrees>40.74334996752440929412841796875</LatitudeDegrees>
              <LongitudeDegrees>-4.06992084346711635589599609375</LongitudeDegrees>
            </Position>
            <AltitudeMeters>1198.199951171875</AltitudeMeters>
            <DistanceMeters>1139.9229989219</DistanceMeters>
          </Trackpoint>
          <Trackpoint>
            <Time>2018-12-30T09:15:02.000Z</Time>
            <Position>
              <LatitudeDegrees>40.743358768522739410400390625</LatitudeDegrees>
              <LongitudeDegrees>-4.069931991398334503173828125</LongitudeDegrees>
            </Position>
            <AltitudeMeters>1198.4000244140625</AltitudeMeters>
            <DistanceMeters>1141.2802518808</DistanceMeters>
          </Trackpoint>
          <Trackpoint>
            <Time>2018-12-30T09:15:03.000Z</Time>
            <Position>
              <LatitudeDegrees>40.74336790479719638824462890625</LatitudeDegrees>
              <LongitudeDegrees>-4.069943390786647796630859375</LongitudeDegrees>
            </Position>
            <AltitudeMeters>1198.4000244140625</AltitudeMeters>
            <DistanceMeters>1142.6768536537</DistanceMeters>
          </Trackpoint>
          <Trackpoint>
            <Time>2018-12-30T09:15:04.000Z</Time>
            <Position>
              <LatitudeDegrees>40.74337645433843135833740234375</LatitudeDegrees>
              <LongitudeDegrees>-4.0699526108801364898681640625</LongitudeDegrees>
            </Position>
            <AltitudeMeters>1198.5999755859375</AltitudeMeters>
            <DistanceMeters>1143.9085406442</DistanceMeters>
          </Trackpoint>
          <Trackpoint>
            <Time>2018-12-30T09:15:05.000Z</Time>
            <Position>
              <LatitudeDegrees>40.74337947182357311248779296875</LatitudeDegrees>
              <LongitudeDegrees>-4.06996023841202259063720703125</LongitudeDegrees>
            </Position>
            <AltitudeMeters>1198.5999755859375</AltitudeMeters>
            <DistanceMeters>1144.6322425398</DistanceMeters>
          </Trackpoint>
          <Trackpoint>
            <Time>2018-12-30T09:15:06.000Z</Time>
            <Position>
              <LatitudeDegrees>40.74337787926197052001953125</LatitudeDegrees>
              <LongitudeDegrees>-4.06997230835258960723876953125</LongitudeDegrees>
            </Position>
            <AltitudeMeters>1198.800048828125</AltitudeMeters>
            <DistanceMeters>1145.6688616101</DistanceMeters>
          </Trackpoint>
          <Trackpoint>
            <Time>2018-12-30T09:15:07.000Z</Time>
            <Position>
              <LatitudeDegrees>40.7433803938329219818115234375</LatitudeDegrees>
              <LongitudeDegrees>-4.06998555175960063934326171875</LongitudeDegrees>
            </Position>
            <AltitudeMeters>1198.5999755859375</AltitudeMeters>
            <DistanceMeters>1146.8209992916</DistanceMeters>
          </Trackpoint>
          <Trackpoint>
            <Time>2018-12-30T09:15:08.000Z</Time>
            <Position>
              <LatitudeDegrees>40.74338466860353946685791015625</LatitudeDegrees>
              <LongitudeDegrees>-4.07000030390918254852294921875</LongitudeDegrees>
            </Position>
            <AltitudeMeters>1198.4000244140625</AltitudeMeters>
            <DistanceMeters>1148.1581436877</DistanceMeters>
          </Trackpoint>
          <Trackpoint>
            <Time>2018-12-30T09:15:09.000Z</Time>
            <Position>
              <LatitudeDegrees>40.74339397251605987548828125</LatitudeDegrees>
              <LongitudeDegrees>-4.07001136802136898040771484375</LongitudeDegrees>
            </Position>
            <AltitudeMeters>1198.199951171875</AltitudeMeters>
            <DistanceMeters>1149.5515088356</DistanceMeters>
          </Trackpoint>
          <Trackpoint>
            <Time>2018-12-30T09:15:10.000Z</Time>
            <Position>
              <LatitudeDegrees>40.7434052042663097381591796875</LatitudeDegrees>
              <LongitudeDegrees>-4.07002897001802921295166015625</LongitudeDegrees>
            </Position>
            <AltitudeMeters>1198.199951171875</AltitudeMeters>
            <DistanceMeters>1151.4896811192</DistanceMeters>
          </Trackpoint>
          <Trackpoint>
            <Time>2018-12-30T09:15:11.000Z</Time>
            <Position>
              <LatitudeDegrees>40.74341417290270328521728515625</LatitudeDegrees>
              <LongitudeDegrees>-4.070045650005340576171875</LongitudeDegrees>
            </Position>
            <AltitudeMeters>1198</AltitudeMeters>
            <DistanceMeters>1153.2133096029</DistanceMeters>
          </Trackpoint>
          <Trackpoint>
            <Time>2018-12-30T09:15:12.000Z</Time>
            <Position>
              <LatitudeDegrees>40.74342121370136737823486328125</LatitudeDegrees>
              <LongitudeDegrees>-4.07006149180233478546142578125</LongitudeDegrees>
            </Position>
            <AltitudeMeters>1197.800048828125</AltitudeMeters>
            <DistanceMeters>1154.7573109569</DistanceMeters>
          </Trackpoint>
          <Trackpoint>
            <Time>2018-12-30T09:15:13.000Z</Time>
            <Position>
              <LatitudeDegrees>40.74343152344226837158203125</LatitudeDegrees>
              <LongitudeDegrees>-4.07007716596126556396484375</LongitudeDegrees>
            </Position>
            <AltitudeMeters>1197.800048828125</AltitudeMeters>
            <DistanceMeters>1156.5095169925</DistanceMeters>
          </Trackpoint>
          <Trackpoint>
            <Time>2018-12-30T09:15:14.000Z</Time>
            <Position>
              <LatitudeDegrees>40.74344166554510593414306640625</LatitudeDegrees>
              <LongitudeDegrees>-4.0700957737863063812255859375</LongitudeDegrees>
            </Position>
            <AltitudeMeters>1197.800048828125</AltitudeMeters>
            <DistanceMeters>1158.4453583404</DistanceMeters>
          </Trackpoint>
          <Trackpoint>
            <Time>2018-12-30T09:15:15.000Z</Time>
            <Position>
              <LatitudeDegrees>40.74345423839986324310302734375</LatitudeDegrees>
              <LongitudeDegrees>-4.0701132081449031829833984375</LongitudeDegrees>
            </Position>
            <AltitudeMeters>1198.199951171875</AltitudeMeters>
            <DistanceMeters>1160.4745736711</DistanceMeters>
          </Trackpoint>
          <Trackpoint>
            <Time>2018-12-30T09:15:16.000Z</Time>
            <Position>
              <LatitudeDegrees>40.74346932582557201385498046875</LatitudeDegrees>
              <LongitudeDegrees>-4.070127122104167938232421875</LongitudeDegrees>
            </Position>
            <AltitudeMeters>1198.5999755859375</AltitudeMeters>
            <DistanceMeters>1162.523716308</DistanceMeters>
          </Trackpoint>
          <Trackpoint>
            <Time>2018-12-30T09:15:17.000Z</Time>
            <Position>
              <LatitudeDegrees>40.743478126823902130126953125</LatitudeDegrees>
              <LongitudeDegrees>-4.07013642601668834686279296875</LongitudeDegrees>
            </Position>
            <AltitudeMeters>1198.800048828125</AltitudeMeters>
            <DistanceMeters>1163.7772047608</DistanceMeters>
          </Trackpoint>
          <Trackpoint>
            <Time>2018-12-30T09:15:18.000Z</Time>
            <Position>
              <LatitudeDegrees>40.74348106049001216888427734375</LatitudeDegrees>
              <LongitudeDegrees>-4.070153273642063140869140625</LongitudeDegrees>
            </Position>
            <AltitudeMeters>1199.199951171875</AltitudeMeters>
            <DistanceMeters>1165.2308339735</DistanceMeters>
          </Trackpoint>
          <Trackpoint>
            <Time>2018-12-30T09:15:19.000Z</Time>
            <Position>
              <LatitudeDegrees>40.74349187314510345458984375</LatitudeDegrees>
              <LongitudeDegrees>-4.0701732225716114044189453125</LongitudeDegrees>
            </Position>
            <AltitudeMeters>1199.5999755859375</AltitudeMeters>
            <DistanceMeters>1167.2997119869</DistanceMeters>
          </Trackpoint>
          <Trackpoint>
            <Time>2018-12-30T09:15:20.000Z</Time>
            <Position>
              <LatitudeDegrees>40.74350570328533649444580078125</LatitudeDegrees>
              <LongitudeDegrees>-4.07018738798797130584716796875</LongitudeDegrees>
            </Position>
            <AltitudeMeters>1199.5999755859375</AltitudeMeters>
            <DistanceMeters>1169.2471801141</DistanceMeters>
          </Trackpoint>
          <Trackpoint>
            <Time>2018-12-30T09:15:21.000Z</Time>
            <Position>
              <LatitudeDegrees>40.743514336645603179931640625</LatitudeDegrees>
              <LongitudeDegrees>-4.07020616345107555389404296875</LongitudeDegrees>
            </Position>
            <AltitudeMeters>1200</AltitudeMeters>
            <DistanceMeters>1171.0995917985</DistanceMeters>
          </Trackpoint>
          <Trackpoint>
            <Time>2018-12-30T09:15:22.000Z</Time>
            <Position>
              <LatitudeDegrees>40.743529759347438812255859375</LatitudeDegrees>
              <LongitudeDegrees>-4.07021789811551570892333984375</LongitudeDegrees>
            </Position>
            <AltitudeMeters>1200.199951171875</AltitudeMeters>
            <DistanceMeters>1173.0815310643</DistanceMeters>
          </Trackpoint>
          <Trackpoint>
            <Time>2018-12-30T09:15:23.000Z</Time>
            <Position>
              <LatitudeDegrees>40.74354241602122783660888671875</LatitudeDegrees>
              <LongitudeDegrees>-4.07022695057094097137451171875</LongitudeDegrees>
            </Position>
            <AltitudeMeters>1200.199951171875</AltitudeMeters>
            <DistanceMeters>1174.6829497198</DistanceMeters>
          </Trackpoint>
          <Trackpoint>
            <Time>2018-12-30T09:15:24.000Z</Time>
            <Position>
              <LatitudeDegrees>40.7435590960085391998291015625</LatitudeDegrees>
              <LongitudeDegrees>-4.070239104330539703369140625</LongitudeDegrees>
            </Position>
            <AltitudeMeters>1200.4000244140625</AltitudeMeters>
            <DistanceMeters>1176.8078116498</DistanceMeters>
          </Trackpoint>
          <Trackpoint>
            <Time>2018-12-30T09:15:25.000Z</Time>
            <Position>
              <LatitudeDegrees>40.74357091449201107025146484375</LatitudeDegrees>
              <LongitudeDegrees>-4.07025293447077274322509765625</LongitudeDegrees>
            </Position>
            <AltitudeMeters>1200.5999755859375</AltitudeMeters>
            <DistanceMeters>1178.565163676</DistanceMeters>
          </Trackpoint>
          <Trackpoint>
            <Time>2018-12-30T09:15:26.000Z</Time>
            <Position>
              <LatitudeDegrees>40.743591785430908203125</LatitudeDegrees>
              <LongitudeDegrees>-4.0702603943645954132080078125</LongitudeDegrees>
            </Position>
            <AltitudeMeters>1200.800048828125</AltitudeMeters>
            <DistanceMeters>1180.9729238545</DistanceMeters>
          </Trackpoint>
          <Trackpoint>
            <Time>2018-12-30T09:15:27.000Z</Time>
            <Position>
              <LatitudeDegrees>40.7436134107410907745361328125</LatitudeDegrees>
              <LongitudeDegrees>-4.07026969827711582183837890625</LongitudeDegrees>
            </Position>
            <AltitudeMeters>1200.800048828125</AltitudeMeters>
            <DistanceMeters>1183.5049890739</DistanceMeters>
          </Trackpoint>
          <Trackpoint>
            <Time>2018-12-30T09:15:28.000Z</Time>
            <Position>
              <LatitudeDegrees>40.74362455867230892181396484375</LatitudeDegrees>
              <LongitudeDegrees>-4.07027975656092166900634765625</LongitudeDegrees>
            </Position>
            <AltitudeMeters>1200.5999755859375</AltitudeMeters>
            <DistanceMeters>1185.0074933537</DistanceMeters>
          </Trackpoint>
          <Trackpoint>
            <Time>2018-12-30T09:15:29.000Z</Time>
            <Position>
              <LatitudeDegrees>40.74363679625093936920166015625</LatitudeDegrees>
              <LongitudeDegrees>-4.07028906047344207763671875</LongitudeDegrees>
            </Position>
            <AltitudeMeters>1200.5999755859375</AltitudeMeters>
            <DistanceMeters>1186.5747140761</DistanceMeters>
          </Trackpoint>
          <Trackpoint>
            <Time>2018-12-30T09:15:30.000Z</Time>
            <Position>
              <LatitudeDegrees>40.74365473352372646331787109375</LatitudeDegrees>
              <LongitudeDegrees>-4.07029283232986927032470703125</LongitudeDegrees>
            </Position>
            <AltitudeMeters>1200.800048828125</AltitudeMeters>
            <DistanceMeters>1188.5950097358</DistanceMeters>
          </Trackpoint>
          <Trackpoint>
            <Time>2018-12-30T09:15:31.000Z</Time>
            <Position>
              <LatitudeDegrees>40.74366915039718151092529296875</LatitudeDegrees>
              <LongitudeDegrees>-4.070297442376613616943359375</LongitudeDegrees>
            </Position>
            <AltitudeMeters>1200.800048828125</AltitudeMeters>
            <DistanceMeters>1190.2463979658</DistanceMeters>
          </Trackpoint>
          <Trackpoint>
            <Time>2018-12-30T09:15:32.000Z</Time>
            <Position>
              <LatitudeDegrees>40.74367820285260677337646484375</LatitudeDegrees>
              <LongitudeDegrees>-4.070308171212673187255859375</LongitudeDegrees>
            </Position>
            <AltitudeMeters>1200.800048828125</AltitudeMeters>
            <DistanceMeters>1191.6036509248</DistanceMeters>
          </Trackpoint>
          <Trackpoint>
            <Time>2018-12-30T09:15:33.000Z</Time>
            <Position>
              <LatitudeDegrees>40.74369303882122039794921875</LatitudeDegrees>
              <LongitudeDegrees>-4.07031722366809844970703125</LongitudeDegrees>
            </Position>
            <AltitudeMeters>1201.199951171875</AltitudeMeters>
            <DistanceMeters>1193.4216190154</DistanceMeters>
          </Trackpoint>
          <Trackpoint>
            <Time>2018-12-30T09:15:34.000Z</Time>
            <Position>
              <LatitudeDegrees>40.743708796799182891845703125</LatitudeDegrees>
              <LongitudeDegrees>-4.070324935019016265869140625</LongitudeDegrees>
            </Position>
            <AltitudeMeters>1201.4000244140625</AltitudeMeters>
            <DistanceMeters>1195.2934282098</DistanceMeters>
          </Trackpoint>
          <Trackpoint>
            <Time>2018-12-30T09:15:35.000Z</Time>
            <Position>
              <LatitudeDegrees>40.7437170110642910003662109375</LatitudeDegrees>
              <LongitudeDegrees>-4.0703418664634227752685546875</LongitudeDegrees>
            </Position>
            <AltitudeMeters>1201.5999755859375</AltitudeMeters>
            <DistanceMeters>1196.9879972727</DistanceMeters>
          </Trackpoint>
          <Trackpoint>
            <Time>2018-12-30T09:15:36.000Z</Time>
            <Position>
              <LatitudeDegrees>40.7437267340719699859619140625</LatitudeDegrees>
              <LongitudeDegrees>-4.07035804353654384613037109375</LongitudeDegrees>
            </Position>
            <AltitudeMeters>1201.5999755859375</AltitudeMeters>
            <DistanceMeters>1198.7298657193</DistanceMeters>
          </Trackpoint>
          <Trackpoint>
            <Time>2018-12-30T09:15:37.000Z</Time>
            <Position>
              <LatitudeDegrees>40.74373670853674411773681640625</LatitudeDegrees>
              <LongitudeDegrees>-4.07036894001066684722900390625</LongitudeDegrees>
            </Position>
            <AltitudeMeters>1201.800048828125</AltitudeMeters>
            <DistanceMeters>1200.1710171972</DistanceMeters>
          </Trackpoint>
          <Trackpoint>
            <Time>2018-12-30T09:15:38.000Z</Time>
            <Position>
              <LatitudeDegrees>40.74374265968799591064453125</LatitudeDegrees>
              <LongitudeDegrees>-4.07038218341767787933349609375</LongitudeDegrees>
            </Position>
            <AltitudeMeters>1201.800048828125</AltitudeMeters>
            <DistanceMeters>1201.4670087938</DistanceMeters>
          </Trackpoint>
          <Trackpoint>
            <Time>2018-12-30T09:15:39.000Z</Time>
            <Position>
              <LatitudeDegrees>40.7437434978783130645751953125</LatitudeDegrees>
              <LongitudeDegrees>-4.07039945013821125030517578125</LongitudeDegrees>
            </Position>
            <AltitudeMeters>1201.800048828125</AltitudeMeters>
            <DistanceMeters>1202.9268368798</DistanceMeters>
          </Trackpoint>
          <Trackpoint>
            <Time>2018-12-30T09:15:40.000Z</Time>
            <Position>
              <LatitudeDegrees>40.7437486946582794189453125</LatitudeDegrees>
              <LongitudeDegrees>-4.070411436259746551513671875</LongitudeDegrees>
            </Position>
            <AltitudeMeters>1201.800048828125</AltitudeMeters>
            <DistanceMeters>1204.0906716905</DistanceMeters>
          </Trackpoint>
          <Trackpoint>
            <Time>2018-12-30T09:15:41.000Z</Time>
            <Position>
              <LatitudeDegrees>40.74375204741954803466796875</LatitudeDegrees>
              <LongitudeDegrees>-4.0704276971518993377685546875</LongitudeDegrees>
            </Position>
            <AltitudeMeters>1201.800048828125</AltitudeMeters>
            <DistanceMeters>1205.5129013216</DistanceMeters>
          </Trackpoint>
          <Trackpoint>
            <Time>2018-12-30T09:15:42.000Z</Time>
            <Position>
              <LatitudeDegrees>40.74375414289534091949462890625</LatitudeDegrees>
              <LongitudeDegrees>-4.07044454477727413177490234375</LongitudeDegrees>
            </Position>
            <AltitudeMeters>1201.800048828125</AltitudeMeters>
            <DistanceMeters>1206.9540527994</DistanceMeters>
          </Trackpoint>
          <Trackpoint>
            <Time>2018-12-30T09:15:43.000Z</Time>
            <Position>
              <LatitudeDegrees>40.74375900439918041229248046875</LatitudeDegrees>
              <LongitudeDegrees>-4.07046181149780750274658203125</LongitudeDegrees>
            </Position>
            <AltitudeMeters>1201.800048828125</AltitudeMeters>
            <DistanceMeters>1208.5068021065</DistanceMeters>
          </Trackpoint>
          <Trackpoint>
            <Time>2018-12-30T09:15:44.000Z</Time>
            <Position>
              <LatitudeDegrees>40.74376269243657588958740234375</LatitudeDegrees>
              <LongitudeDegrees>-4.070475138723850250244140625</LongitudeDegrees>
            </Position>
            <AltitudeMeters>1201.5999755859375</AltitudeMeters>
            <DistanceMeters>1209.7012693845</DistanceMeters>
          </Trackpoint>
          <Trackpoint>
            <Time>2018-12-30T09:15:45.000Z</Time>
            <Position>
              <LatitudeDegrees>40.74376822449266910552978515625</LatitudeDegrees>
              <LongitudeDegrees>-4.0704868733882904052734375</LongitudeDegrees>
            </Position>
            <AltitudeMeters>1201.800048828125</AltitudeMeters>
            <DistanceMeters>1210.8651041952</DistanceMeters>
          </Trackpoint>
          <Trackpoint>
            <Time>2018-12-30T09:15:46.000Z</Time>
            <Position>
              <LatitudeDegrees>40.74377216398715972900390625</LatitudeDegrees>
              <LongitudeDegrees>-4.07049617730081081390380859375</LongitudeDegrees>
            </Position>
            <AltitudeMeters>1201.800048828125</AltitudeMeters>
            <DistanceMeters>1211.7615844256</DistanceMeters>
          </Trackpoint>
          <Trackpoint>
            <Time>2018-12-30T09:15:47.000Z</Time>
            <Position>
              <LatitudeDegrees>40.74379504658281803131103515625</LatitudeDegrees>
              <LongitudeDegrees>-4.070505984127521514892578125</LongitudeDegrees>
            </Position>
            <AltitudeMeters>1201.800048828125</AltitudeMeters>
            <DistanceMeters>1214.4392477159</DistanceMeters>
          </Trackpoint>
          <Trackpoint>
            <Time>2018-12-30T09:15:48.000Z</Time>
            <Position>
              <LatitudeDegrees>40.7438011653721332550048828125</LatitudeDegrees>
              <LongitudeDegrees>-4.07051227055490016937255859375</LongitudeDegrees>
            </Position>
            <AltitudeMeters>1201.800048828125</AltitudeMeters>
            <DistanceMeters>1215.299751213</DistanceMeters>
          </Trackpoint>
          <Trackpoint>
            <Time>2018-12-30T09:15:49.000Z</Time>
            <Position>
              <LatitudeDegrees>40.743828825652599334716796875</LatitudeDegrees>
              <LongitudeDegrees>-4.070514701306819915771484375</LongitudeDegrees>
            </Position>
            <AltitudeMeters>1201.800048828125</AltitudeMeters>
            <DistanceMeters>1218.3862914522</DistanceMeters>
          </Trackpoint>
          <Trackpoint>
            <Time>2018-12-30T09:15:50.000Z</Time>
            <Position>
              <LatitudeDegrees>40.7438470982015132904052734375</LatitudeDegrees>
              <LongitudeDegrees>-4.0705192275345325469970703125</LongitudeDegrees>
            </Position>
            <AltitudeMeters>1202</AltitudeMeters>
            <DistanceMeters>1220.4551694656</DistanceMeters>
          </Trackpoint>
          <Trackpoint>
            <Time>2018-12-30T09:15:51.000Z</Time>
            <Position>
              <LatitudeDegrees>40.743814408779144287109375</LatitudeDegrees>
              <LongitudeDegrees>-4.070540852844715118408203125</LongitudeDegrees>
            </Position>
            <AltitudeMeters>1202.199951171875</AltitudeMeters>
            <DistanceMeters>1224.5258193246</DistanceMeters>
          </Trackpoint>
          <Trackpoint>
            <Time>2018-12-30T09:15:52.000Z</Time>
            <Position>
              <LatitudeDegrees>40.7438035123050212860107421875</LatitudeDegrees>
              <LongitudeDegrees>-4.0705530904233455657958984375</LongitudeDegrees>
            </Position>
            <AltitudeMeters>1202</AltitudeMeters>
            <DistanceMeters>1226.1187573274</DistanceMeters>
          </Trackpoint>
          <Trackpoint>
            <Time>2018-12-30T09:15:53.000Z</Time>
            <Position>
              <LatitudeDegrees>40.74381046928465366363525390625</LatitudeDegrees>
              <LongitudeDegrees>-4.0705711953341960906982421875</LongitudeDegrees>
            </Position>
            <AltitudeMeters>1202.199951171875</AltitudeMeters>
            <DistanceMeters>1227.8292381861</DistanceMeters>
          </Trackpoint>
          <Trackpoint>
            <Time>2018-12-30T09:15:54.000Z</Time>
            <Position>
              <LatitudeDegrees>40.74381516315042972564697265625</LatitudeDegrees>
              <LongitudeDegrees>-4.0705842711031436920166015625</LongitudeDegrees>
            </Position>
            <AltitudeMeters>1202.199951171875</AltitudeMeters>
            <DistanceMeters>1229.0498784333</DistanceMeters>
          </Trackpoint>
          <Trackpoint>
            <Time>2018-12-30T09:15:55.000Z</Time>
            <Position>
              <LatitudeDegrees>40.74382203631103038787841796875</LatitudeDegrees>
              <LongitudeDegrees>-4.0706022083759307861328125</LongitudeDegrees>
            </Position>
            <AltitudeMeters>1202.199951171875</AltitudeMeters>
            <DistanceMeters>1230.7444474963</DistanceMeters>
          </Trackpoint>
          <Trackpoint>
            <Time>2018-12-30T09:15:56.000Z</Time>
            <Position>
              <LatitudeDegrees>40.74382890947163105010986328125</LatitudeDegrees>
              <LongitudeDegrees>-4.07061251811683177947998046875</LongitudeDegrees>
            </Position>
            <AltitudeMeters>1202.199951171875</AltitudeMeters>
            <DistanceMeters>1231.9043963702</DistanceMeters>
          </Trackpoint>
          <Trackpoint>
            <Time>2018-12-30T09:15:57.000Z</Time>
            <Position>
              <LatitudeDegrees>40.74383377097547054290771484375</LatitudeDegrees>
              <LongitudeDegrees>-4.070628024637699127197265625</LongitudeDegrees>
            </Position>
            <AltitudeMeters>1202.199951171875</AltitudeMeters>
            <DistanceMeters>1233.3202625258</DistanceMeters>
          </Trackpoint>
          <Trackpoint>
            <Time>2018-12-30T09:15:58.000Z</Time>
            <Position>
              <LatitudeDegrees>40.743838213384151458740234375</LatitudeDegrees>
              <LongitudeDegrees>-4.070646464824676513671875</LongitudeDegrees>
            </Position>
            <AltitudeMeters>1202.4000244140625</AltitudeMeters>
            <DistanceMeters>1234.955163938</DistanceMeters>
          </Trackpoint>
          <Trackpoint>
            <Time>2018-12-30T09:15:59.000Z</Time>
            <Position>
              <LatitudeDegrees>40.7438434101641178131103515625</LatitudeDegrees>
              <LongitudeDegrees>-4.07066733576357364654541015625</LongitudeDegrees>
            </Position>
            <AltitudeMeters>1202.5999755859375</AltitudeMeters>
            <DistanceMeters>1236.8075756224</DistanceMeters>
          </Trackpoint>
          <Trackpoint>
            <Time>2018-12-30T09:16:00.000Z</Time>
            <Position>
              <LatitudeDegrees>40.74384684674441814422607421875</LatitudeDegrees>
              <LongitudeDegrees>-4.07068728469312191009521484375</LongitudeDegrees>
            </Position>
            <AltitudeMeters>1203</AltitudeMeters>
            <DistanceMeters>1238.5312041062</DistanceMeters>
          </Trackpoint>
          <Trackpoint>
            <Time>2018-12-30T09:16:01.000Z</Time>
            <Position>
              <LatitudeDegrees>40.74385221116244792938232421875</LatitudeDegrees>
              <LongitudeDegrees>-4.070702455937862396240234375</LongitudeDegrees>
            </Position>
            <AltitudeMeters>1203.199951171875</AltitudeMeters>
            <DistanceMeters>1239.9406780569</DistanceMeters>
          </Trackpoint>
          <Trackpoint>
            <Time>2018-12-30T09:16:02.000Z</Time>
            <Position>
              <LatitudeDegrees>40.74386092834174633026123046875</LatitudeDegrees>
              <LongitudeDegrees>-4.070721231400966644287109375</LongitudeDegrees>
            </Position>
            <AltitudeMeters>1203.4000244140625</AltitudeMeters>
            <DistanceMeters>1241.7979581116</DistanceMeters>
          </Trackpoint>
          <Trackpoint>
            <Time>2018-12-30T09:16:03.000Z</Time>
            <Position>
              <LatitudeDegrees>40.7438665442168712615966796875</LatitudeDegrees>
              <LongitudeDegrees>-4.07074495218694210052490234375</LongitudeDegrees>
            </Position>
            <AltitudeMeters>1203.5999755859375</AltitudeMeters>
            <DistanceMeters>1243.8928607709</DistanceMeters>
          </Trackpoint>
          <Trackpoint>
            <Time>2018-12-30T09:16:04.000Z</Time>
            <Position>
              <LatitudeDegrees>40.74387299828231334686279296875</LatitudeDegrees>
              <LongitudeDegrees>-4.0707636438310146331787109375</LongitudeDegrees>
            </Position>
            <AltitudeMeters>1203.5999755859375</AltitudeMeters>
            <DistanceMeters>1245.6243299099</DistanceMeters>
          </Trackpoint>
          <Trackpoint>
            <Time>2018-12-30T09:16:05.000Z</Time>
            <Position>
              <LatitudeDegrees>40.7438755966722965240478515625</LatitudeDegrees>
              <LongitudeDegrees>-4.07077680341899394989013671875</LongitudeDegrees>
            </Position>
            <AltitudeMeters>1203.4000244140625</AltitudeMeters>
            <DistanceMeters>1246.7725420683</DistanceMeters>
          </Trackpoint>
          <Trackpoint>
            <Time>2018-12-30T09:16:06.000Z</Time>
            <Position>
              <LatitudeDegrees>40.74388322420418262481689453125</LatitudeDegrees>
              <LongitudeDegrees>-4.07078971154987812042236328125</LongitudeDegrees>
            </Position>
            <AltitudeMeters>1203</AltitudeMeters>
            <DistanceMeters>1248.1561519144</DistanceMeters>
          </Trackpoint>
          <Trackpoint>
            <Time>2018-12-30T09:16:07.000Z</Time>
            <Position>
              <LatitudeDegrees>40.7438859902322292327880859375</LatitudeDegrees>
              <LongitudeDegrees>-4.07080412842333316802978515625</LongitudeDegrees>
            </Position>
            <AltitudeMeters>1203</AltitudeMeters>
            <DistanceMeters>1249.4096403672</DistanceMeters>
          </Trackpoint>
          <Trackpoint>
            <Time>2018-12-30T09:16:08.000Z</Time>
            <Position>
              <LatitudeDegrees>40.74388775043189525604248046875</LatitudeDegrees>
              <LongitudeDegrees>-4.07081619836390018463134765625</LongitudeDegrees>
            </Position>
            <AltitudeMeters>1203</AltitudeMeters>
            <DistanceMeters>1250.4462594374</DistanceMeters>
          </Trackpoint>
          <Trackpoint>
            <Time>2018-12-30T09:16:09.000Z</Time>
            <Position>
              <LatitudeDegrees>40.74390149675309658050537109375</LatitudeDegrees>
              <LongitudeDegrees>-4.07083178870379924774169921875</LongitudeDegrees>
            </Position>
            <AltitudeMeters>1203.199951171875</AltitudeMeters>
            <DistanceMeters>1252.4620804612</DistanceMeters>
          </Trackpoint>
          <Trackpoint>
            <Time>2018-12-30T09:16:10.000Z</Time>
            <Position>
              <LatitudeDegrees>40.743900574743747711181640625</LatitudeDegrees>
              <LongitudeDegrees>-4.07084318809211254119873046875</LongitudeDegrees>
            </Position>
            <AltitudeMeters>1203.4000244140625</AltitudeMeters>
            <DistanceMeters>1253.4218032322</DistanceMeters>
          </Trackpoint>
          <Trackpoint>
            <Time>2018-12-30T09:16:11.000Z</Time>
            <Position>
              <LatitudeDegrees>40.74391088448464870452880859375</LatitudeDegrees>
              <LongitudeDegrees>-4.07085659913718700408935546875</LongitudeDegrees>
            </Position>
            <AltitudeMeters>1203.5999755859375</AltitudeMeters>
            <DistanceMeters>1255.0344600512</DistanceMeters>
          </Trackpoint>
          <Trackpoint>
            <Time>2018-12-30T09:16:12.000Z</Time>
            <Position>
              <LatitudeDegrees>40.74391474016010761260986328125</LatitudeDegrees>
              <LongitudeDegrees>-4.07087017782032489776611328125</LongitudeDegrees>
            </Position>
            <AltitudeMeters>1203.800048828125</AltitudeMeters>
            <DistanceMeters>1256.2513957672</DistanceMeters>
          </Trackpoint>
          <Trackpoint>
            <Time>2018-12-30T09:16:13.000Z</Time>
            <Position>
              <LatitudeDegrees>40.74392245151102542877197265625</LatitudeDegrees>
              <LongitudeDegrees>-4.070888869464397430419921875</LongitudeDegrees>
            </Position>
            <AltitudeMeters>1203.800048828125</AltitudeMeters>
            <DistanceMeters>1258.044356228</DistanceMeters>
          </Trackpoint>
          <Trackpoint>
            <Time>2018-12-30T09:16:14.000Z</Time>
            <Position>
              <LatitudeDegrees>40.7439257204532623291015625</LatitudeDegrees>
              <LongitudeDegrees>-4.07090571708977222442626953125</LongitudeDegrees>
            </Position>
            <AltitudeMeters>1203.800048828125</AltitudeMeters>
            <DistanceMeters>1259.5072739008</DistanceMeters>
          </Trackpoint>
          <Trackpoint>
            <Time>2018-12-30T09:16:15.000Z</Time>
            <Position>
              <LatitudeDegrees>40.7439282350242137908935546875</LatitudeDegrees>
              <LongitudeDegrees>-4.070922397077083587646484375</LongitudeDegrees>
            </Position>
            <AltitudeMeters>1203.800048828125</AltitudeMeters>
            <DistanceMeters>1260.9389957148</DistanceMeters>
          </Trackpoint>
          <Trackpoint>
            <Time>2018-12-30T09:16:16.000Z</Time>
            <Position>
              <LatitudeDegrees>40.7439245469868183135986328125</LatitudeDegrees>
              <LongitudeDegrees>-4.07094226218760013580322265625</LongitudeDegrees>
            </Position>
            <AltitudeMeters>1203.800048828125</AltitudeMeters>
            <DistanceMeters>1262.6652417073</DistanceMeters>
          </Trackpoint>
          <Trackpoint>
            <Time>2018-12-30T09:16:17.000Z</Time>
            <Position>
              <LatitudeDegrees>40.74391993694007396697998046875</LatitudeDegrees>
              <LongitudeDegrees>-4.0709654800593852996826171875</LongitudeDegrees>
            </Position>
            <AltitudeMeters>1203.800048828125</AltitudeMeters>
            <DistanceMeters>1264.6900021142</DistanceMeters>
          </Trackpoint>
          <Trackpoint>
            <Time>2018-12-30T09:16:18.000Z</Time>
            <Position>
              <LatitudeDegrees>40.743925385177135467529296875</LatitudeDegrees>
              <LongitudeDegrees>-4.07098241150379180908203125</LongitudeDegrees>
            </Position>
            <AltitudeMeters>1203.800048828125</AltitudeMeters>
            <DistanceMeters>1266.2427514213</DistanceMeters>
          </Trackpoint>
          <Trackpoint>
            <Time>2018-12-30T09:16:19.000Z</Time>
            <Position>
              <LatitudeDegrees>40.7439243793487548828125</LatitudeDegrees>
              <LongitudeDegrees>-4.07099976204335689544677734375</LongitudeDegrees>
            </Position>
            <AltitudeMeters>1204</AltitudeMeters>
            <DistanceMeters>1267.7087521694</DistanceMeters>
          </Trackpoint>
          <Trackpoint>
            <Time>2018-12-30T09:16:20.000Z</Time>
            <Position>
              <LatitudeDegrees>40.74392328970134258270263671875</LatitudeDegrees>
              <LongitudeDegrees>-4.0710181184113025665283203125</LongitudeDegrees>
            </Position>
            <AltitudeMeters>1204</AltitudeMeters>
            <DistanceMeters>1269.2585909785</DistanceMeters>
          </Trackpoint>
          <Trackpoint>
            <Time>2018-12-30T09:16:21.000Z</Time>
            <Position>
              <LatitudeDegrees>40.74392815120518207550048828125</LatitudeDegrees>
              <LongitudeDegrees>-4.07103748060762882232666015625</LongitudeDegrees>
            </Position>
            <AltitudeMeters>1204</AltitudeMeters>
            <DistanceMeters>1270.9795979726</DistanceMeters>
          </Trackpoint>
          <Trackpoint>
            <Time>2018-12-30T09:16:22.000Z</Time>
            <Position>
              <LatitudeDegrees>40.743934102356433868408203125</LatitudeDegrees>
              <LongitudeDegrees>-4.07105172984302043914794921875</LongitudeDegrees>
            </Position>
            <AltitudeMeters>1204</AltitudeMeters>
            <DistanceMeters>1272.3566658915</DistanceMeters>
          </Trackpoint>
          <Trackpoint>
            <Time>2018-12-30T09:16:23.000Z</Time>
            <Position>
              <LatitudeDegrees>40.74393854476511478424072265625</LatitudeDegrees>
              <LongitudeDegrees>-4.07107285223901271820068359375</LongitudeDegrees>
            </Position>
            <AltitudeMeters>1203.5999755859375</AltitudeMeters>
            <DistanceMeters>1274.2066385865</DistanceMeters>
          </Trackpoint>
          <Trackpoint>
            <Time>2018-12-30T09:16:24.000Z</Time>
            <Position>
              <LatitudeDegrees>40.7439439930021762847900390625</LatitudeDegrees>
              <LongitudeDegrees>-4.07108928076922893524169921875</LongitudeDegrees>
            </Position>
            <AltitudeMeters>1203.4000244140625</AltitudeMeters>
            <DistanceMeters>1275.7211152013</DistanceMeters>
          </Trackpoint>
          <Trackpoint>
            <Time>2018-12-30T09:16:25.000Z</Time>
            <Position>
              <LatitudeDegrees>40.74395589530467987060546875</LatitudeDegrees>
              <LongitudeDegrees>-4.071102440357208251953125</LongitudeDegrees>
            </Position>
            <AltitudeMeters>1203.199951171875</AltitudeMeters>
            <DistanceMeters>1277.4525843403</DistanceMeters>
          </Trackpoint>
          <Trackpoint>
            <Time>2018-12-30T09:16:26.000Z</Time>
            <Position>
              <LatitudeDegrees>40.74396193027496337890625</LatitudeDegrees>
              <LongitudeDegrees>-4.07111543230712413787841796875</LongitudeDegrees>
            </Position>
            <AltitudeMeters>1203.199951171875</AltitudeMeters>
            <DistanceMeters>1278.7345648053</DistanceMeters>
          </Trackpoint>
          <Trackpoint>
            <Time>2018-12-30T09:16:27.000Z</Time>
            <Position>
              <LatitudeDegrees>40.743966959416866302490234375</LatitudeDegrees>
              <LongitudeDegrees>-4.07112984918057918548583984375</LongitudeDegrees>
            </Position>
            <AltitudeMeters>1203.199951171875</AltitudeMeters>
            <DistanceMeters>1280.075081576</DistanceMeters>
          </Trackpoint>
          <Trackpoint>
            <Time>2018-12-30T09:16:28.000Z</Time>
            <Position>
              <LatitudeDegrees>40.7439694739878177642822265625</LatitudeDegrees>
              <LongitudeDegrees>-4.0711440145969390869140625</LongitudeDegrees>
            </Position>
            <AltitudeMeters>1203.199951171875</AltitudeMeters>
            <DistanceMeters>1281.2994151456</DistanceMeters>
          </Trackpoint>
          <Trackpoint>
            <Time>2018-12-30T09:16:29.000Z</Time>
            <Position>
              <LatitudeDegrees>40.7439745031297206878662109375</LatitudeDegrees>
              <LongitudeDegrees>-4.0711619518697261810302734375</LongitudeDegrees>
            </Position>
            <AltitudeMeters>1203.4000244140625</AltitudeMeters>
            <DistanceMeters>1282.9092697786</DistanceMeters>
          </Trackpoint>
          <Trackpoint>
            <Time>2018-12-30T09:16:30.000Z</Time>
            <Position>
              <LatitudeDegrees>40.74397559277713298797607421875</LatitudeDegrees>
              <LongitudeDegrees>-4.071181900799274444580078125</LongitudeDegrees>
            </Position>
            <AltitudeMeters>1203.800048828125</AltitudeMeters>
            <DistanceMeters>1284.5931474474</DistanceMeters>
          </Trackpoint>
          <Trackpoint>
            <Time>2018-12-30T09:16:31.000Z</Time>
            <Position>
              <LatitudeDegrees>40.74398280121386051177978515625</LatitudeDegrees>
              <LongitudeDegrees>-4.0712028555572032928466796875</LongitudeDegrees>
            </Position>
            <AltitudeMeters>1204.199951171875</AltitudeMeters>
            <DistanceMeters>1286.5359732125</DistanceMeters>
          </Trackpoint>
          <Trackpoint>
            <Time>2018-12-30T09:16:32.000Z</Time>
            <Position>
              <LatitudeDegrees>40.7439916022121906280517578125</LatitudeDegrees>
              <LongitudeDegrees>-4.07122489996254444122314453125</LongitudeDegrees>
            </Position>
            <AltitudeMeters>1204.5999755859375</AltitudeMeters>
            <DistanceMeters>1288.6394792043</DistanceMeters>
          </Trackpoint>
          <Trackpoint>
            <Time>2018-12-30T09:16:33.000Z</Time>
            <Position>
              <LatitudeDegrees>40.74399554170668125152587890625</LatitudeDegrees>
              <LongitudeDegrees>-4.07124367542564868927001953125</LongitudeDegrees>
            </Position>
            <AltitudeMeters>1205</AltitudeMeters>
            <DistanceMeters>1290.2826447032</DistanceMeters>
          </Trackpoint>
          <Trackpoint>
            <Time>2018-12-30T09:16:34.000Z</Time>
            <Position>
              <LatitudeDegrees>40.7439996488392353057861328125</LatitudeDegrees>
              <LongitudeDegrees>-4.07125842757523059844970703125</LongitudeDegrees>
            </Position>
            <AltitudeMeters>1205</AltitudeMeters>
            <DistanceMeters>1291.6096205532</DistanceMeters>
          </Trackpoint>
          <Trackpoint>
            <Time>2018-12-30T09:16:35.000Z</Time>
            <Position>
              <LatitudeDegrees>40.7440157420933246612548828125</LatitudeDegrees>
              <LongitudeDegrees>-4.071273095905780792236328125</LongitudeDegrees>
            </Position>
            <AltitudeMeters>1204.800048828125</AltitudeMeters>
            <DistanceMeters>1293.7848814701</DistanceMeters>
          </Trackpoint>
          <Trackpoint>
            <Time>2018-12-30T09:16:36.000Z</Time>
            <Position>
              <LatitudeDegrees>40.74402655474841594696044921875</LatitudeDegrees>
              <LongitudeDegrees>-4.0712883509695529937744140625</LongitudeDegrees>
            </Position>
            <AltitudeMeters>1204.800048828125</AltitudeMeters>
            <DistanceMeters>1295.5422334963</DistanceMeters>
          </Trackpoint>
          <Trackpoint>
            <Time>2018-12-30T09:16:37.000Z</Time>
            <Position>
              <LatitudeDegrees>40.7440318353474140167236328125</LatitudeDegrees>
              <LongitudeDegrees>-4.0713020972907543182373046875</LongitudeDegrees>
            </Position>
            <AltitudeMeters>1204.5999755859375</AltitudeMeters>
            <DistanceMeters>1296.8417042712</DistanceMeters>
          </Trackpoint>
          <Trackpoint>
            <Time>2018-12-30T09:16:38.000Z</Time>
            <Position>
              <LatitudeDegrees>40.74403711594641208648681640625</LatitudeDegrees>
              <LongitudeDegrees>-4.07131559215486049652099609375</LongitudeDegrees>
            </Position>
            <AltitudeMeters>1204.5999755859375</AltitudeMeters>
            <DistanceMeters>1298.1236847363</DistanceMeters>
          </Trackpoint>
          <Trackpoint>
            <Time>2018-12-30T09:16:39.000Z</Time>
            <Position>
              <LatitudeDegrees>40.74404415674507617950439453125</LatitudeDegrees>
              <LongitudeDegrees>-4.07132782973349094390869140625</LongitudeDegrees>
            </Position>
            <AltitudeMeters>1204.5999755859375</AltitudeMeters>
            <DistanceMeters>1299.4231555113</DistanceMeters>
          </Trackpoint>
          <Trackpoint>
            <Time>2018-12-30T09:16:40.000Z</Time>
            <Position>
              <LatitudeDegrees>40.74404868297278881072998046875</LatitudeDegrees>
              <LongitudeDegrees>-4.071342162787914276123046875</LongitudeDegrees>
            </Position>
            <AltitudeMeters>1204.4000244140625</AltitudeMeters>
            <DistanceMeters>1300.7330083749</DistanceMeters>
          </Trackpoint>
          <Trackpoint>
            <Time>2018-12-30T09:16:41.000Z</Time>
            <Position>
              <LatitudeDegrees>40.7440475933253765106201171875</LatitudeDegrees>
              <LongitudeDegrees>-4.0713584236800670623779296875</LongitudeDegrees>
            </Position>
            <AltitudeMeters>1204.4000244140625</AltitudeMeters>
            <DistanceMeters>1302.1100762938</DistanceMeters>
          </Trackpoint>
          <Trackpoint>
            <Time>2018-12-30T09:16:42.000Z</Time>
            <Position>
              <LatitudeDegrees>40.74405421502888202667236328125</LatitudeDegrees>
              <LongitudeDegrees>-4.07137191854417324066162109375</LongitudeDegrees>
            </Position>
            <AltitudeMeters>1204.5999755859375</AltitudeMeters>
            <DistanceMeters>1303.4673292527</DistanceMeters>
          </Trackpoint>
          <Trackpoint>
            <Time>2018-12-30T09:16:43.000Z</Time>
            <Position>
              <LatitudeDegrees>40.74405874125659465789794921875</LatitudeDegrees>
              <LongitudeDegrees>-4.07139052636921405792236328125</LongitudeDegrees>
            </Position>
            <AltitudeMeters>1204.5999755859375</AltitudeMeters>
            <DistanceMeters>1305.1132402264</DistanceMeters>
          </Trackpoint>
          <Trackpoint>
            <Time>2018-12-30T09:16:44.000Z</Time>
            <Position>
              <LatitudeDegrees>40.744064189493656158447265625</LatitudeDegrees>
              <LongitudeDegrees>-4.07140829600393772125244140625</LongitudeDegrees>
            </Position>
            <AltitudeMeters>1204.5999755859375</AltitudeMeters>
            <DistanceMeters>1306.7314868605</DistanceMeters>
          </Trackpoint>
          <Trackpoint>
            <Time>2018-12-30T09:16:45.000Z</Time>
            <Position>
              <LatitudeDegrees>40.74406879954040050506591796875</LatitudeDegrees>
              <LongitudeDegrees>-4.071423299610614776611328125</LongitudeDegrees>
            </Position>
            <AltitudeMeters>1204.800048828125</AltitudeMeters>
            <DistanceMeters>1308.0953767928</DistanceMeters>
          </Trackpoint>
          <Trackpoint>
            <Time>2018-12-30T09:16:46.000Z</Time>
            <Position>
              <LatitudeDegrees>40.7440705597400665283203125</LatitudeDegrees>
              <LongitudeDegrees>-4.07143277116119861602783203125</LongitudeDegrees>
            </Position>
            <AltitudeMeters>1204.5999755859375</AltitudeMeters>
            <DistanceMeters>1308.9183322796</DistanceMeters>
          </Trackpoint>
          <Trackpoint>
            <Time>2018-12-30T09:16:47.000Z</Time>
            <Position>
              <LatitudeDegrees>40.7440747506916522979736328125</LatitudeDegrees>
              <LongitudeDegrees>-4.07144500873982906341552734375</LongitudeDegrees>
            </Position>
            <AltitudeMeters>1204.5999755859375</AltitudeMeters>
            <DistanceMeters>1310.0507062704</DistanceMeters>
          </Trackpoint>
          <Trackpoint>
            <Time>2018-12-30T09:16:48.000Z</Time>
            <Position>
              <LatitudeDegrees>40.74408195912837982177734375</LatitudeDegrees>
              <LongitudeDegrees>-4.0714578330516815185546875</LongitudeDegrees>
            </Position>
            <AltitudeMeters>1204.5999755859375</AltitudeMeters>
            <DistanceMeters>1311.3979424655</DistanceMeters>
          </Trackpoint>
          <Trackpoint>
            <Time>2018-12-30T09:16:49.000Z</Time>
            <Position>
              <LatitudeDegrees>40.7440858148038387298583984375</LatitudeDegrees>
              <LongitudeDegrees>-4.0714712440967559814453125</LongitudeDegrees>
            </Position>
            <AltitudeMeters>1204.5999755859375</AltitudeMeters>
            <DistanceMeters>1312.6074350797</DistanceMeters>
          </Trackpoint>
          <Trackpoint>
            <Time>2018-12-30T09:16:50.000Z</Time>
            <Position>
              <LatitudeDegrees>40.74408908374607563018798828125</LatitudeDegrees>
              <LongitudeDegrees>-4.0714901871979236602783203125</LongitudeDegrees>
            </Position>
            <AltitudeMeters>1204.800048828125</AltitudeMeters>
            <DistanceMeters>1314.2423364919</DistanceMeters>
          </Trackpoint>
          <Trackpoint>
            <Time>2018-12-30T09:16:51.000Z</Time>
            <Position>
              <LatitudeDegrees>40.74409176595509052276611328125</LatitudeDegrees>
              <LongitudeDegrees>-4.071507118642330169677734375</LongitudeDegrees>
            </Position>
            <AltitudeMeters>1204.800048828125</AltitudeMeters>
            <DistanceMeters>1315.7021645779</DistanceMeters>
          </Trackpoint>
          <Trackpoint>
            <Time>2018-12-30T09:16:52.000Z</Time>
            <Position>
              <LatitudeDegrees>40.744095034897327423095703125</LatitudeDegrees>
              <LongitudeDegrees>-4.07152664847671985626220703125</LongitudeDegrees>
            </Position>
            <AltitudeMeters>1205</AltitudeMeters>
            <DistanceMeters>1317.3887214491</DistanceMeters>
          </Trackpoint>
          <Trackpoint>
            <Time>2018-12-30T09:16:53.000Z</Time>
            <Position>
              <LatitudeDegrees>40.7440982200205326080322265625</LatitudeDegrees>
              <LongitudeDegrees>-4.07154374755918979644775390625</LongitudeDegrees>
            </Position>
            <AltitudeMeters>1205.199951171875</AltitudeMeters>
            <DistanceMeters>1318.8730861793</DistanceMeters>
          </Trackpoint>
          <Trackpoint>
            <Time>2018-12-30T09:16:54.000Z</Time>
            <Position>
              <LatitudeDegrees>40.7441005669534206390380859375</LatitudeDegrees>
              <LongitudeDegrees>-4.0715612657368183135986328125</LongitudeDegrees>
            </Position>
            <AltitudeMeters>1205.4000244140625</AltitudeMeters>
            <DistanceMeters>1320.3725824396</DistanceMeters>
          </Trackpoint>
          <Trackpoint>
            <Time>2018-12-30T09:16:55.000Z</Time>
            <Position>
              <LatitudeDegrees>40.744103752076625823974609375</LatitudeDegrees>
              <LongitudeDegrees>-4.07157249748706817626953125</LongitudeDegrees>
            </Position>
            <AltitudeMeters>1205.4000244140625</AltitudeMeters>
            <DistanceMeters>1321.3827302694</DistanceMeters>
          </Trackpoint>
          <Trackpoint>
            <Time>2018-12-30T09:16:56.000Z</Time>
            <Position>
              <LatitudeDegrees>40.74410752393305301666259765625</LatitudeDegrees>
              <LongitudeDegrees>-4.07158456742763519287109375</LongitudeDegrees>
            </Position>
            <AltitudeMeters>1205.4000244140625</AltitudeMeters>
            <DistanceMeters>1322.4827440164</DistanceMeters>
          </Trackpoint>
          <Trackpoint>
            <Time>2018-12-30T09:16:57.000Z</Time>
            <Position>
              <LatitudeDegrees>40.744113139808177947998046875</LatitudeDegrees>
              <LongitudeDegrees>-4.07159806229174137115478515625</LongitudeDegrees>
            </Position>
            <AltitudeMeters>1205.4000244140625</AltitudeMeters>
            <DistanceMeters>1323.7856846795</DistanceMeters>
          </Trackpoint>
          <Trackpoint>
            <Time>2018-12-30T09:16:58.000Z</Time>
            <Position>
              <LatitudeDegrees>40.74412227608263492584228515625</LatitudeDegrees>
              <LongitudeDegrees>-4.07160946168005466461181640625</LongitudeDegrees>
            </Position>
            <AltitudeMeters>1205.800048828125</AltitudeMeters>
            <DistanceMeters>1325.1855155937</DistanceMeters>
          </Trackpoint>
          <Trackpoint>
            <Time>2018-12-30T09:16:59.000Z</Time>
            <Position>
              <LatitudeDegrees>40.7441253773868083953857421875</LatitudeDegrees>
              <LongitudeDegrees>-4.07162002287805080413818359375</LongitudeDegrees>
            </Position>
            <AltitudeMeters>1206</AltitudeMeters>
            <DistanceMeters>1326.1405222538</DistanceMeters>
          </Trackpoint>
          <Trackpoint>
            <Time>2018-12-30T09:17:00.000Z</Time>
            <Position>
              <LatitudeDegrees>40.7441304065287113189697265625</LatitudeDegrees>
              <LongitudeDegrees>-4.07163175754249095916748046875</LongitudeDegrees>
            </Position>
            <AltitudeMeters>1206.199951171875</AltitudeMeters>
            <DistanceMeters>1327.2728962446</DistanceMeters>
          </Trackpoint>
          <Trackpoint>
            <Time>2018-12-30T09:17:01.000Z</Time>
            <Position>
              <LatitudeDegrees>40.74411691166460514068603515625</LatitudeDegrees>
              <LongitudeDegrees>-4.07164449803531169891357421875</LongitudeDegrees>
            </Position>
            <AltitudeMeters>1206.199951171875</AltitudeMeters>
            <DistanceMeters>1329.1204267303</DistanceMeters>
          </Trackpoint>
          <Trackpoint>
            <Time>2018-12-30T09:17:02.000Z</Time>
            <Position>
              <LatitudeDegrees>40.7440893352031707763671875</LatitudeDegrees>
              <LongitudeDegrees>-4.07165740616619586944580078125</LongitudeDegrees>
            </Position>
            <AltitudeMeters>1206.199951171875</AltitudeMeters>
            <DistanceMeters>1332.3763919858</DistanceMeters>
          </Trackpoint>
          <Trackpoint>
            <Time>2018-12-30T09:17:03.000Z</Time>
            <Position>
              <LatitudeDegrees>40.74407936073839664459228515625</LatitudeDegrees>
              <LongitudeDegrees>-4.0716698952019214630126953125</LongitudeDegrees>
            </Position>
            <AltitudeMeters>1206.4000244140625</AltitudeMeters>
            <DistanceMeters>1333.9086517143</DistanceMeters>
          </Trackpoint>
          <Trackpoint>
            <Time>2018-12-30T09:17:04.000Z</Time>
            <Position>
              <LatitudeDegrees>40.7440747506916522979736328125</LatitudeDegrees>
              <LongitudeDegrees>-4.071684814989566802978515625</LongitudeDegrees>
            </Position>
            <AltitudeMeters>1206.4000244140625</AltitudeMeters>
            <DistanceMeters>1335.2692272069</DistanceMeters>
          </Trackpoint>
          <Trackpoint>
            <Time>2018-12-30T09:17:05.000Z</Time>
            <Position>
              <LatitudeDegrees>40.744074247777462005615234375</LatitudeDegrees>
              <LongitudeDegrees>-4.0716990642249584197998046875</LongitudeDegrees>
            </Position>
            <AltitudeMeters>1206.4000244140625</AltitudeMeters>
            <DistanceMeters>1336.4712306308</DistanceMeters>
          </Trackpoint>
          <Trackpoint>
            <Time>2018-12-30T09:17:06.000Z</Time>
            <Position>
              <LatitudeDegrees>40.74407315813004970550537109375</LatitudeDegrees>
              <LongitudeDegrees>-4.07170526683330535888671875</LongitudeDegrees>
            </Position>
            <AltitudeMeters>1206.199951171875</AltitudeMeters>
            <DistanceMeters>1337.0087829038</DistanceMeters>
          </Trackpoint>
          <Trackpoint>
            <Time>2018-12-30T09:17:07.000Z</Time>
            <Position>
              <LatitudeDegrees>40.74407064355909824371337890625</LatitudeDegrees>
              <LongitudeDegrees>-4.0717124752700328826904296875</LongitudeDegrees>
            </Position>
            <AltitudeMeters>1206.199951171875</AltitudeMeters>
            <DistanceMeters>1337.680723245</DistanceMeters>
          </Trackpoint>
          <Trackpoint>
            <Time>2018-12-30T09:17:08.000Z</Time>
            <Position>
              <LatitudeDegrees>40.74406544677913188934326171875</LatitudeDegrees>
              <LongitudeDegrees>-4.07171742059290409088134765625</LongitudeDegrees>
            </Position>
            <AltitudeMeters>1206.199951171875</AltitudeMeters>
            <DistanceMeters>1338.3981592054</DistanceMeters>
          </Trackpoint>
          <Trackpoint>
            <Time>2018-12-30T09:17:09.000Z</Time>
            <Position>
              <LatitudeDegrees>40.744059495627880096435546875</LatitudeDegrees>
              <LongitudeDegrees>-4.0717228688299655914306640625</LongitudeDegrees>
            </Position>
            <AltitudeMeters>1206.4000244140625</AltitudeMeters>
            <DistanceMeters>1339.2156099115</DistanceMeters>
          </Trackpoint>
          <Trackpoint>
            <Time>2018-12-30T09:17:10.000Z</Time>
            <Position>
              <LatitudeDegrees>40.74405304156243801116943359375</LatitudeDegrees>
              <LongitudeDegrees>-4.07172915525734424591064453125</LongitudeDegrees>
            </Position>
            <AltitudeMeters>1206.199951171875</AltitudeMeters>
            <DistanceMeters>1340.1070395089</DistanceMeters>
          </Trackpoint>
          <Trackpoint>
            <Time>2018-12-30T09:17:11.000Z</Time>
            <Position>
              <LatitudeDegrees>40.7440531253814697265625</LatitudeDegrees>
              <LongitudeDegrees>-4.07173267565667629241943359375</LongitudeDegrees>
            </Position>
            <AltitudeMeters>1206</AltitudeMeters>
            <DistanceMeters>1340.4075403648</DistanceMeters>
          </Trackpoint>
          <Trackpoint>
            <Time>2018-12-30T09:17:12.000Z</Time>
            <Position>
              <LatitudeDegrees>40.74405513703823089599609375</LatitudeDegrees>
              <LongitudeDegrees>-4.07174306921660900115966796875</LongitudeDegrees>
            </Position>
            <AltitudeMeters>1206</AltitudeMeters>
            <DistanceMeters>1341.3090429328</DistanceMeters>
          </Trackpoint>
          <Trackpoint>
            <Time>2018-12-30T09:17:13.000Z</Time>
            <Position>
              <LatitudeDegrees>40.7440549694001674652099609375</LatitudeDegrees>
              <LongitudeDegrees>-4.0717580728232860565185546875</LongitudeDegrees>
            </Position>
            <AltitudeMeters>1205.800048828125</AltitudeMeters>
            <DistanceMeters>1342.5697147593</DistanceMeters>
          </Trackpoint>
          <Trackpoint>
            <Time>2018-12-30T09:17:14.000Z</Time>
            <Position>
              <LatitudeDegrees>40.74405647814273834228515625</LatitudeDegrees>
              <LongitudeDegrees>-4.0717741660773754119873046875</LongitudeDegrees>
            </Position>
            <AltitudeMeters>1205.800048828125</AltitudeMeters>
            <DistanceMeters>1343.9369110963</DistanceMeters>
          </Trackpoint>
          <Trackpoint>
            <Time>2018-12-30T09:17:15.000Z</Time>
            <Position>
              <LatitudeDegrees>40.7440613396465778350830078125</LatitudeDegrees>
              <LongitudeDegrees>-4.071791432797908782958984375</LongitudeDegrees>
            </Position>
            <AltitudeMeters>1205.5999755859375</AltitudeMeters>
            <DistanceMeters>1345.492565456</DistanceMeters>
          </Trackpoint>
          <Trackpoint>
            <Time>2018-12-30T09:17:16.000Z</Time>
            <Position>
              <LatitudeDegrees>40.74406863190233707427978515625</LatitudeDegrees>
              <LongitudeDegrees>-4.07180241309106349945068359375</LongitudeDegrees>
            </Position>
            <AltitudeMeters>1205.4000244140625</AltitudeMeters>
            <DistanceMeters>1346.7205812402</DistanceMeters>
          </Trackpoint>
          <Trackpoint>
            <Time>2018-12-30T09:17:17.000Z</Time>
            <Position>
              <LatitudeDegrees>40.7440770976245403289794921875</LatitudeDegrees>
              <LongitudeDegrees>-4.0718147344887256622314453125</LongitudeDegrees>
            </Position>
            <AltitudeMeters>1205.4000244140625</AltitudeMeters>
            <DistanceMeters>1348.1236338638</DistanceMeters>
          </Trackpoint>
          <Trackpoint>
            <Time>2018-12-30T09:17:18.000Z</Time>
            <Position>
              <LatitudeDegrees>40.7440908439457416534423828125</LatitudeDegrees>
              <LongitudeDegrees>-4.07182923518121242523193359375</LongitudeDegrees>
            </Position>
            <AltitudeMeters>1205.4000244140625</AltitudeMeters>
            <DistanceMeters>1350.0826597668</DistanceMeters>
          </Trackpoint>
          <Trackpoint>
            <Time>2018-12-30T09:17:19.000Z</Time>
            <Position>
              <LatitudeDegrees>40.74410266242921352386474609375</LatitudeDegrees>
              <LongitudeDegrees>-4.071843735873699188232421875</LongitudeDegrees>
            </Position>
            <AltitudeMeters>1205.4000244140625</AltitudeMeters>
            <DistanceMeters>1351.8756202277</DistanceMeters>
          </Trackpoint>
          <Trackpoint>
            <Time>2018-12-30T09:17:20.000Z</Time>
            <Position>
              <LatitudeDegrees>40.74410534463822841644287109375</LatitudeDegrees>
              <LongitudeDegrees>-4.07185521908104419708251953125</LongitudeDegrees>
            </Position>
            <AltitudeMeters>1205.5999755859375</AltitudeMeters>
            <DistanceMeters>1352.890227893</DistanceMeters>
          </Trackpoint>
          <Trackpoint>
            <Time>2018-12-30T09:17:21.000Z</Time>
            <Position>
              <LatitudeDegrees>40.74411473236978054046630859375</LatitudeDegrees>
              <LongitudeDegrees>-4.071873910725116729736328125</LongitudeDegrees>
            </Position>
            <AltitudeMeters>1205.800048828125</AltitudeMeters>
            <DistanceMeters>1354.7812356328</DistanceMeters>
          </Trackpoint>
          <Trackpoint>
            <Time>2018-12-30T09:17:22.000Z</Time>
            <Position>
              <LatitudeDegrees>40.7441143132746219635009765625</LatitudeDegrees>
              <LongitudeDegrees>-4.07189662568271160125732421875</LongitudeDegrees>
            </Position>
            <AltitudeMeters>1206</AltitudeMeters>
            <DistanceMeters>1356.695970872</DistanceMeters>
          </Trackpoint>
          <Trackpoint>
            <Time>2018-12-30T09:17:23.000Z</Time>
            <Position>
              <LatitudeDegrees>40.74411548674106597900390625</LatitudeDegrees>
              <LongitudeDegrees>-4.07191640697419643402099609375</LongitudeDegrees>
            </Position>
            <AltitudeMeters>1206.5999755859375</AltitudeMeters>
            <DistanceMeters>1358.3690888289</DistanceMeters>
          </Trackpoint>
          <Trackpoint>
            <Time>2018-12-30T09:17:24.000Z</Time>
            <Position>
              <LatitudeDegrees>40.74412194080650806427001953125</LatitudeDegrees>
              <LongitudeDegrees>-4.071934260427951812744140625</LongitudeDegrees>
            </Position>
            <AltitudeMeters>1207</AltitudeMeters>
            <DistanceMeters>1360.0368008977</DistanceMeters>
          </Trackpoint>
          <Trackpoint>
            <Time>2018-12-30T09:17:25.000Z</Time>
            <Position>
              <LatitudeDegrees>40.744122527539730072021484375</LatitudeDegrees>
              <LongitudeDegrees>-4.0719501860439777374267578125</LongitudeDegrees>
            </Position>
            <AltitudeMeters>1207.199951171875</AltitudeMeters>
            <DistanceMeters>1361.3806815802</DistanceMeters>
          </Trackpoint>
          <Trackpoint>
            <Time>2018-12-30T09:17:26.000Z</Time>
            <Position>
              <LatitudeDegrees>40.74412797577679157257080078125</LatitudeDegrees>
              <LongitudeDegrees>-4.0719647705554962158203125</LongitudeDegrees>
            </Position>
            <AltitudeMeters>1207.4000244140625</AltitudeMeters>
            <DistanceMeters>1362.7544668534</DistanceMeters>
          </Trackpoint>
          <Trackpoint>
            <Time>2018-12-30T09:17:27.000Z</Time>
            <Position>
              <LatitudeDegrees>40.74413183145225048065185546875</LatitudeDegrees>
              <LongitudeDegrees>-4.0719770081341266632080078125</LongitudeDegrees>
            </Position>
            <AltitudeMeters>1207.5999755859375</AltitudeMeters>
            <DistanceMeters>1363.870777988</DistanceMeters>
          </Trackpoint>
          <Trackpoint>
            <Time>2018-12-30T09:17:28.000Z</Time>
            <Position>
              <LatitudeDegrees>40.74413853697478771209716796875</LatitudeDegrees>
              <LongitudeDegrees>-4.07199234701693058013916015625</LongitudeDegrees>
            </Position>
            <AltitudeMeters>1207.5999755859375</AltitudeMeters>
            <DistanceMeters>1365.361213765</DistanceMeters>
          </Trackpoint>
          <Trackpoint>
            <Time>2018-12-30T09:17:29.000Z</Time>
            <Position>
              <LatitudeDegrees>40.7441444881260395050048828125</LatitudeDegrees>
              <LongitudeDegrees>-4.07200676389038562774658203125</LongitudeDegrees>
            </Position>
            <AltitudeMeters>1207.4000244140625</AltitudeMeters>
            <DistanceMeters>1366.7480830027</DistanceMeters>
          </Trackpoint>
          <Trackpoint>
            <Time>2018-12-30T09:17:30.000Z</Time>
            <Position>
              <LatitudeDegrees>40.74414767324924468994140625</LatitudeDegrees>
              <LongitudeDegrees>-4.072018079459667205810546875</LongitudeDegrees>
            </Position>
            <AltitudeMeters>1207.4000244140625</AltitudeMeters>
            <DistanceMeters>1367.7626906681</DistanceMeters>
          </Trackpoint>
          <Trackpoint>
            <Time>2018-12-30T09:17:31.000Z</Time>
            <Position>
              <LatitudeDegrees>40.744152702391147613525390625</LatitudeDegrees>
              <LongitudeDegrees>-4.0720319934189319610595703125</LongitudeDegrees>
            </Position>
            <AltitudeMeters>1207.4000244140625</AltitudeMeters>
            <DistanceMeters>1369.062161443</DistanceMeters>
          </Trackpoint>
          <Trackpoint>
            <Time>2018-12-30T09:17:32.000Z</Time>
            <Position>
              <LatitudeDegrees>40.74415571987628936767578125</LatitudeDegrees>
              <LongitudeDegrees>-4.07204347662627696990966796875</LongitudeDegrees>
            </Position>
            <AltitudeMeters>1207.4000244140625</AltitudeMeters>
            <DistanceMeters>1370.085630479</DistanceMeters>
          </Trackpoint>
          <Trackpoint>
            <Time>2018-12-30T09:17:33.000Z</Time>
            <Position>
              <LatitudeDegrees>40.74415362440049648284912109375</LatitudeDegrees>
              <LongitudeDegrees>-4.07205219380557537078857421875</LongitudeDegrees>
            </Position>
            <AltitudeMeters>1207.4000244140625</AltitudeMeters>
            <DistanceMeters>1370.857631156</DistanceMeters>
          </Trackpoint>
          <Trackpoint>
            <Time>2018-12-30T09:17:34.000Z</Time>
            <Position>
              <LatitudeDegrees>40.74415530078113079071044921875</LatitudeDegrees>
              <LongitudeDegrees>-4.0720671974122524261474609375</LongitudeDegrees>
            </Position>
            <AltitudeMeters>1207.5999755859375</AltitudeMeters>
            <DistanceMeters>1372.1360848455</DistanceMeters>
          </Trackpoint>
          <Trackpoint>
            <Time>2018-12-30T09:17:35.000Z</Time>
            <Position>
              <LatitudeDegrees>40.7441548816859722137451171875</LatitudeDegrees>
              <LongitudeDegrees>-4.0720827877521514892578125</LongitudeDegrees>
            </Position>
            <AltitudeMeters>1207.5999755859375</AltitudeMeters>
            <DistanceMeters>1373.4459377092</DistanceMeters>
          </Trackpoint>
          <Trackpoint>
            <Time>2018-12-30T09:17:36.000Z</Time>
            <Position>
              <LatitudeDegrees>40.74415949173271656036376953125</LatitudeDegrees>
              <LongitudeDegrees>-4.07209594734013080596923828125</LongitudeDegrees>
            </Position>
            <AltitudeMeters>1207.5999755859375</AltitudeMeters>
            <DistanceMeters>1374.6665779564</DistanceMeters>
          </Trackpoint>
          <Trackpoint>
            <Time>2018-12-30T09:17:37.000Z</Time>
            <Position>
              <LatitudeDegrees>40.7441689632833003997802734375</LatitudeDegrees>
              <LongitudeDegrees>-4.0721097774803638458251953125</LongitudeDegrees>
            </Position>
            <AltitudeMeters>1207.5999755859375</AltitudeMeters>
            <DistanceMeters>1376.2337986789</DistanceMeters>
          </Trackpoint>
          <Trackpoint>
            <Time>2018-12-30T09:17:38.000Z</Time>
            <Position>
              <LatitudeDegrees>40.74417156167328357696533203125</LatitudeDegrees>
              <LongitudeDegrees>-4.07212411053478717803955078125</LongitudeDegrees>
            </Position>
            <AltitudeMeters>1207.800048828125</AltitudeMeters>
            <DistanceMeters>1377.4727954486</DistanceMeters>
          </Trackpoint>
          <Trackpoint>
            <Time>2018-12-30T09:17:39.000Z</Time>
            <Position>
              <LatitudeDegrees>40.74417256750166416168212890625</LatitudeDegrees>
              <LongitudeDegrees>-4.07213953323662281036376953125</LongitudeDegrees>
            </Position>
            <AltitudeMeters>1207.800048828125</AltitudeMeters>
            <DistanceMeters>1378.7757361117</DistanceMeters>
          </Trackpoint>
          <Trackpoint>
            <Time>2018-12-30T09:17:40.000Z</Time>
            <Position>
              <LatitudeDegrees>40.7441736571490764617919921875</LatitudeDegrees>
              <LongitudeDegrees>-4.07215294428169727325439453125</LongitudeDegrees>
            </Position>
            <AltitudeMeters>1208</AltitudeMeters>
            <DistanceMeters>1379.9120903397</DistanceMeters>
          </Trackpoint>
          <Trackpoint>
            <Time>2018-12-30T09:17:41.000Z</Time>
            <Position>
              <LatitudeDegrees>40.74417206458747386932373046875</LatitudeDegrees>
              <LongitudeDegrees>-4.07216602005064487457275390625</LongitudeDegrees>
            </Position>
            <AltitudeMeters>1208</AltitudeMeters>
            <DistanceMeters>1381.0284014743</DistanceMeters>
          </Trackpoint>
          <Trackpoint>
            <Time>2018-12-30T09:17:42.000Z</Time>
            <Position>
              <LatitudeDegrees>40.74417650699615478515625</LatitudeDegrees>
              <LongitudeDegrees>-4.0721795149147510528564453125</LongitudeDegrees>
            </Position>
            <AltitudeMeters>1208</AltitudeMeters>
            <DistanceMeters>1382.267398244</DistanceMeters>
          </Trackpoint>
          <Trackpoint>
            <Time>2018-12-30T09:17:43.000Z</Time>
            <Position>
              <LatitudeDegrees>40.74417441152036190032958984375</LatitudeDegrees>
              <LongitudeDegrees>-4.07218873500823974609375</LongitudeDegrees>
            </Position>
            <AltitudeMeters>1208</AltitudeMeters>
            <DistanceMeters>1383.0793068475</DistanceMeters>
          </Trackpoint>
          <Trackpoint>
            <Time>2018-12-30T09:17:44.000Z</Time>
            <Position>
              <LatitudeDegrees>40.74417357333004474639892578125</LatitudeDegrees>
              <LongitudeDegrees>-4.07219300977885723114013671875</LongitudeDegrees>
            </Position>
            <AltitudeMeters>1208</AltitudeMeters>
            <DistanceMeters>1383.459413705</DistanceMeters>
          </Trackpoint>
          <Trackpoint>
            <Time>2018-12-30T09:17:45.000Z</Time>
            <Position>
              <LatitudeDegrees>40.74415245093405246734619140625</LatitudeDegrees>
              <LongitudeDegrees>-4.07220256514847278594970703125</LongitudeDegrees>
            </Position>
            <AltitudeMeters>1208</AltitudeMeters>
            <DistanceMeters>1385.9446847743</DistanceMeters>
          </Trackpoint>
          <Trackpoint>
            <Time>2018-12-30T09:17:46.000Z</Time>
            <Position>
              <LatitudeDegrees>40.744149349629878997802734375</LatitudeDegrees>
              <LongitudeDegrees>-4.0722147189080715179443359375</LongitudeDegrees>
            </Position>
            <AltitudeMeters>1208</AltitudeMeters>
            <DistanceMeters>1387.0281560188</DistanceMeters>
          </Trackpoint>
          <Trackpoint>
            <Time>2018-12-30T09:17:47.000Z</Time>
            <Position>
              <LatitudeDegrees>40.74414909817278385162353515625</LatitudeDegrees>
              <LongitudeDegrees>-4.07223240472376346588134765625</LongitudeDegrees>
            </Position>
            <AltitudeMeters>1208</AltitudeMeters>
            <DistanceMeters>1388.5185917957</DistanceMeters>
          </Trackpoint>
          <Trackpoint>
            <Time>2018-12-30T09:17:48.000Z</Time>
            <Position>
              <LatitudeDegrees>40.74414842762053012847900390625</LatitudeDegrees>
              <LongitudeDegrees>-4.0722492523491382598876953125</LongitudeDegrees>
            </Position>
            <AltitudeMeters>1207.800048828125</AltitudeMeters>
            <DistanceMeters>1389.9408214268</DistanceMeters>
          </Trackpoint>
          <Trackpoint>
            <Time>2018-12-30T09:17:49.000Z</Time>
            <Position>
              <LatitudeDegrees>40.74415429495275020599365234375</LatitudeDegrees>
              <LongitudeDegrees>-4.07226626761257648468017578125</LongitudeDegrees>
            </Position>
            <AltitudeMeters>1207.800048828125</AltitudeMeters>
            <DistanceMeters>1391.5166612099</DistanceMeters>
          </Trackpoint>
          <Trackpoint>
            <Time>2018-12-30T09:17:50.000Z</Time>
            <Position>
              <LatitudeDegrees>40.744159407913684844970703125</LatitudeDegrees>
              <LongitudeDegrees>-4.0722831152379512786865234375</LongitudeDegrees>
            </Position>
            <AltitudeMeters>1207.800048828125</AltitudeMeters>
            <DistanceMeters>1393.0489209384</DistanceMeters>
          </Trackpoint>
          <Trackpoint>
            <Time>2018-12-30T09:17:51.000Z</Time>
            <Position>
              <LatitudeDegrees>40.74416242539882659912109375</LatitudeDegrees>
              <LongitudeDegrees>-4.07229937613010406494140625</LongitudeDegrees>
            </Position>
            <AltitudeMeters>1207.800048828125</AltitudeMeters>
            <DistanceMeters>1394.461594607</DistanceMeters>
          </Trackpoint>
          <Trackpoint>
            <Time>2018-12-30T09:17:52.000Z</Time>
            <Position>
              <LatitudeDegrees>40.74416636489331722259521484375</LatitudeDegrees>
              <LongitudeDegrees>-4.07231069169938564300537109375</LongitudeDegrees>
            </Position>
            <AltitudeMeters>1208</AltitudeMeters>
            <DistanceMeters>1395.5111989735</DistanceMeters>
          </Trackpoint>
          <Trackpoint>
            <Time>2018-12-30T09:17:53.000Z</Time>
            <Position>
              <LatitudeDegrees>40.744172148406505584716796875</LatitudeDegrees>
              <LongitudeDegrees>-4.0723226778209209442138671875</LongitudeDegrees>
            </Position>
            <AltitudeMeters>1208.199951171875</AltitudeMeters>
            <DistanceMeters>1396.7056662515</DistanceMeters>
          </Trackpoint>
          <Trackpoint>
            <Time>2018-12-30T09:17:54.000Z</Time>
            <Position>
              <LatitudeDegrees>40.74417709372937679290771484375</LatitudeDegrees>
              <LongitudeDegrees>-4.0723340772092342376708984375</LongitudeDegrees>
            </Position>
            <AltitudeMeters>1208.4000244140625</AltitudeMeters>
            <DistanceMeters>1397.8138586519</DistanceMeters>
          </Trackpoint>
          <Trackpoint>
            <Time>2018-12-30T09:17:55.000Z</Time>
            <Position>
              <LatitudeDegrees>40.74418061412870883941650390625</LatitudeDegrees>
              <LongitudeDegrees>-4.07234363257884979248046875</LongitudeDegrees>
            </Position>
            <AltitudeMeters>1208.800048828125</AltitudeMeters>
            <DistanceMeters>1398.7153612198</DistanceMeters>
          </Trackpoint>
          <Trackpoint>
            <Time>2018-12-30T09:17:56.000Z</Time>
            <Position>
              <LatitudeDegrees>40.74417776428163051605224609375</LatitudeDegrees>
              <LongitudeDegrees>-4.07235176302492618560791015625</LongitudeDegrees>
            </Position>
            <AltitudeMeters>1209</AltitudeMeters>
            <DistanceMeters>1399.4755749348</DistanceMeters>
          </Trackpoint>
          <Trackpoint>
            <Time>2018-12-30T09:17:57.000Z</Time>
            <Position>
              <LatitudeDegrees>40.74417583644390106201171875</LatitudeDegrees>
              <LongitudeDegrees>-4.0723602287471294403076171875</LongitudeDegrees>
            </Position>
            <AltitudeMeters>1209.4000244140625</AltitudeMeters>
            <DistanceMeters>1400.2177572999</DistanceMeters>
          </Trackpoint>
          <Trackpoint>
            <Time>2018-12-30T09:17:58.000Z</Time>
            <Position>
              <LatitudeDegrees>40.7441756688058376312255859375</LatitudeDegrees>
              <LongitudeDegrees>-4.07237171195447444915771484375</LongitudeDegrees>
            </Position>
            <AltitudeMeters>1209.5999755859375</AltitudeMeters>
            <DistanceMeters>1401.1868434417</DistanceMeters>
          </Trackpoint>
          <Trackpoint>
            <Time>2018-12-30T09:17:59.000Z</Time>
            <Position>
              <LatitudeDegrees>40.7441853918135166168212890625</LatitudeDegrees>
              <LongitudeDegrees>-4.0723853744566440582275390625</LongitudeDegrees>
            </Position>
            <AltitudeMeters>1209.5999755859375</AltitudeMeters>
            <DistanceMeters>1402.7655457881</DistanceMeters>
          </Trackpoint>
          <Trackpoint>
            <Time>2018-12-30T09:18:00.000Z</Time>
            <Position>
              <LatitudeDegrees>40.744205005466938018798828125</LatitudeDegrees>
              <LongitudeDegrees>-4.07240054570138454437255859375</LongitudeDegrees>
            </Position>
            <AltitudeMeters>1209.5999755859375</AltitudeMeters>
            <DistanceMeters>1405.2976110075</DistanceMeters>
          </Trackpoint>
          <Trackpoint>
            <Time>2018-12-30T09:18:01.000Z</Time>
            <Position>
              <LatitudeDegrees>40.7442189194262027740478515625</LatitudeDegrees>
              <LongitudeDegrees>-4.072411023080348968505859375</LongitudeDegrees>
            </Position>
            <AltitudeMeters>1209.800048828125</AltitudeMeters>
            <DistanceMeters>1407.0804702022</DistanceMeters>
          </Trackpoint>
          <Trackpoint>
            <Time>2018-12-30T09:18:02.000Z</Time>
            <Position>
              <LatitudeDegrees>40.74424381367862224578857421875</LatitudeDegrees>
              <LongitudeDegrees>-4.072422087192535400390625</LongitudeDegrees>
            </Position>
            <AltitudeMeters>1209.800048828125</AltitudeMeters>
            <DistanceMeters>1410.003217594</DistanceMeters>
          </Trackpoint>
          <Trackpoint>
            <Time>2018-12-30T09:18:03.000Z</Time>
            <Position>
              <LatitudeDegrees>40.74426275677978992462158203125</LatitudeDegrees>
              <LongitudeDegrees>-4.07244094647467136383056640625</LongitudeDegrees>
            </Position>
            <AltitudeMeters>1209.800048828125</AltitudeMeters>
            <DistanceMeters>1412.6452336975</DistanceMeters>
          </Trackpoint>
          <Trackpoint>
            <Time>2018-12-30T09:18:04.000Z</Time>
            <Position>
              <LatitudeDegrees>40.744283460080623626708984375</LatitudeDegrees>
              <LongitudeDegrees>-4.0724571235477924346923828125</LongitudeDegrees>
            </Position>
            <AltitudeMeters>1209.800048828125</AltitudeMeters>
            <DistanceMeters>1415.3262672387</DistanceMeters>
          </Trackpoint>
          <Trackpoint>
            <Time>2018-12-30T09:18:05.000Z</Time>
            <Position>
              <LatitudeDegrees>40.74429477564990520477294921875</LatitudeDegrees>
              <LongitudeDegrees>-4.072472043335437774658203125</LongitudeDegrees>
            </Position>
            <AltitudeMeters>1210</AltitudeMeters>
            <DistanceMeters>1417.1065921618</DistanceMeters>
          </Trackpoint>
          <Trackpoint>
            <Time>2018-12-30T09:18:06.000Z</Time>
            <Position>
              <LatitudeDegrees>40.74431531131267547607421875</LatitudeDegrees>
              <LongitudeDegrees>-4.07248637638986110687255859375</LongitudeDegrees>
            </Position>
            <AltitudeMeters>1210</AltitudeMeters>
            <DistanceMeters>1419.6898510517</DistanceMeters>
          </Trackpoint>
          <Trackpoint>
            <Time>2018-12-30T09:18:07.000Z</Time>
            <Position>
              <LatitudeDegrees>40.7443218491971492767333984375</LatitudeDegrees>
              <LongitudeDegrees>-4.07249526120722293853759765625</LongitudeDegrees>
            </Position>
            <AltitudeMeters>1210</AltitudeMeters>
            <DistanceMeters>1420.7308165522</DistanceMeters>
          </Trackpoint>
          <Trackpoint>
            <Time>2018-12-30T09:18:08.000Z</Time>
            <Position>
              <LatitudeDegrees>40.7443325780332088470458984375</LatitudeDegrees>
              <LongitudeDegrees>-4.0725043974816799163818359375</LongitudeDegrees>
            </Position>
            <AltitudeMeters>1210.199951171875</AltitudeMeters>
            <DistanceMeters>1422.1530461833</DistanceMeters>
          </Trackpoint>
          <Trackpoint>
            <Time>2018-12-30T09:18:09.000Z</Time>
            <Position>
              <LatitudeDegrees>40.74434305541217327117919921875</LatitudeDegrees>
              <LongitudeDegrees>-4.07251386903226375579833984375</LongitudeDegrees>
            </Position>
            <AltitudeMeters>1210</AltitudeMeters>
            <DistanceMeters>1423.5689123389</DistanceMeters>
          </Trackpoint>
          <Trackpoint>
            <Time>2018-12-30T09:18:10.000Z</Time>
            <Position>
              <LatitudeDegrees>40.74435512535274028778076171875</LatitudeDegrees>
              <LongitudeDegrees>-4.07253096811473369598388671875</LongitudeDegrees>
            </Position>
            <AltitudeMeters>1210.199951171875</AltitudeMeters>
            <DistanceMeters>1425.5371355971</DistanceMeters>
          </Trackpoint>
          <Trackpoint>
            <Time>2018-12-30T09:18:11.000Z</Time>
            <Position>
              <LatitudeDegrees>40.74436719529330730438232421875</LatitudeDegrees>
              <LongitudeDegrees>-4.07254119403660297393798828125</LongitudeDegrees>
            </Position>
            <AltitudeMeters>1210.199951171875</AltitudeMeters>
            <DistanceMeters>1427.132905492</DistanceMeters>
          </Trackpoint>
          <Trackpoint>
            <Time>2018-12-30T09:18:12.000Z</Time>
            <Position>
              <LatitudeDegrees>40.74436493217945098876953125</LatitudeDegrees>
              <LongitudeDegrees>-4.07255695201456546783447265625</LongitudeDegrees>
            </Position>
            <AltitudeMeters>1210.4000244140625</AltitudeMeters>
            <DistanceMeters>1428.4834888628</DistanceMeters>
          </Trackpoint>
          <Trackpoint>
            <Time>2018-12-30T09:18:13.000Z</Time>
            <Position>
              <LatitudeDegrees>40.7443661056458950042724609375</LatitudeDegrees>
              <LongitudeDegrees>-4.07255820930004119873046875</LongitudeDegrees>
            </Position>
            <AltitudeMeters>1210.4000244140625</AltitudeMeters>
            <DistanceMeters>1428.6480799602</DistanceMeters>
          </Trackpoint>
          <Trackpoint>
            <Time>2018-12-30T09:18:14.000Z</Time>
            <Position>
              <LatitudeDegrees>40.744365938007831573486328125</LatitudeDegrees>
              <LongitudeDegrees>-4.07256499864161014556884765625</LongitudeDegrees>
            </Position>
            <AltitudeMeters>1210.4000244140625</AltitudeMeters>
            <DistanceMeters>1429.2182402464</DistanceMeters>
          </Trackpoint>
          <Trackpoint>
            <Time>2018-12-30T09:18:15.000Z</Time>
            <Position>
              <LatitudeDegrees>40.74436937458813190460205078125</LatitudeDegrees>
              <LongitudeDegrees>-4.0725634060800075531005859375</LongitudeDegrees>
            </Position>
            <AltitudeMeters>1210.4000244140625</AltitudeMeters>
            <DistanceMeters>1429.6214044512</DistanceMeters>
          </Trackpoint>
          <Trackpoint>
            <Time>2018-12-30T09:18:16.000Z</Time>
            <Position>
              <LatitudeDegrees>40.74436719529330730438232421875</LatitudeDegrees>
              <LongitudeDegrees>-4.0725664235651493072509765625</LongitudeDegrees>
            </Position>
            <AltitudeMeters>1210.4000244140625</AltitudeMeters>
            <DistanceMeters>1429.9640281424</DistanceMeters>
          </Trackpoint>
          <Trackpoint>
            <Time>2018-12-30T09:18:17.000Z</Time>
            <Position>
              <LatitudeDegrees>40.74436518363654613494873046875</LatitudeDegrees>
              <LongitudeDegrees>-4.072573967278003692626953125</LongitudeDegrees>
            </Position>
            <AltitudeMeters>1210.5999755859375</AltitudeMeters>
            <DistanceMeters>1430.6359684836</DistanceMeters>
          </Trackpoint>
          <Trackpoint>
            <Time>2018-12-30T09:18:18.000Z</Time>
            <Position>
              <LatitudeDegrees>40.744363926351070404052734375</LatitudeDegrees>
              <LongitudeDegrees>-4.0725744701921939849853515625</LongitudeDegrees>
            </Position>
            <AltitudeMeters>1210.5999755859375</AltitudeMeters>
            <DistanceMeters>1430.7703565519</DistanceMeters>
          </Trackpoint>
          <Trackpoint>
            <Time>2018-12-30T09:18:19.000Z</Time>
            <Position>
              <LatitudeDegrees>40.74436359107494354248046875</LatitudeDegrees>
              <LongitudeDegrees>-4.07257824204862117767333984375</LongitudeDegrees>
            </Position>
            <AltitudeMeters>1210.4000244140625</AltitudeMeters>
            <DistanceMeters>1431.0855245085</DistanceMeters>
          </Trackpoint>
          <Trackpoint>
            <Time>2018-12-30T09:18:20.000Z</Time>
            <Position>
              <LatitudeDegrees>40.7443610765039920806884765625</LatitudeDegrees>
              <LongitudeDegrees>-4.07258511520922183990478515625</LongitudeDegrees>
            </Position>
            <AltitudeMeters>1210.4000244140625</AltitudeMeters>
            <DistanceMeters>1431.7300270426</DistanceMeters>
          </Trackpoint>
          <Trackpoint>
            <Time>2018-12-30T09:18:21.000Z</Time>
            <Position>
              <LatitudeDegrees>40.744358561933040618896484375</LatitudeDegrees>
              <LongitudeDegrees>-4.0725798346102237701416015625</LongitudeDegrees>
            </Position>
            <AltitudeMeters>1210.4000244140625</AltitudeMeters>
            <DistanceMeters>1432.2505097928</DistanceMeters>
          </Trackpoint>
          <Trackpoint>
            <Time>2018-12-30T09:18:22.000Z</Time>
            <Position>
              <LatitudeDegrees>40.74435646645724773406982421875</LatitudeDegrees>
              <LongitudeDegrees>-4.0725736320018768310546875</LongitudeDegrees>
            </Position>
            <AltitudeMeters>1210.5999755859375</AltitudeMeters>
            <DistanceMeters>1432.820670079</DistanceMeters>
          </Trackpoint>
          <Trackpoint>
            <Time>2018-12-30T09:18:23.000Z</Time>
            <Position>
              <LatitudeDegrees>40.744357220828533172607421875</LatitudeDegrees>
              <LongitudeDegrees>-4.07257136888802051544189453125</LongitudeDegrees>
            </Position>
            <AltitudeMeters>1210.800048828125</AltitudeMeters>
            <DistanceMeters>1433.0107235078</DistanceMeters>
          </Trackpoint>
          <Trackpoint>
            <Time>2018-12-30T09:18:24.000Z</Time>
            <Position>
              <LatitudeDegrees>40.74435948394238948822021484375</LatitudeDegrees>
              <LongitudeDegrees>-4.0725687704980373382568359375</LongitudeDegrees>
            </Position>
            <AltitudeMeters>1210.800048828125</AltitudeMeters>
            <DistanceMeters>1433.3399057025</DistanceMeters>
          </Trackpoint>
          <Trackpoint>
            <Time>2018-12-30T09:18:25.000Z</Time>
            <Position>
              <LatitudeDegrees>40.74436317197978496551513671875</LatitudeDegrees>
              <LongitudeDegrees>-4.07256868667900562286376953125</LongitudeDegrees>
            </Position>
            <AltitudeMeters>1210.800048828125</AltitudeMeters>
            <DistanceMeters>1433.7430699073</DistanceMeters>
          </Trackpoint>
          <Trackpoint>
            <Time>2018-12-30T09:18:26.000Z</Time>
            <Position>
              <LatitudeDegrees>40.74437239207327365875244140625</LatitudeDegrees>
              <LongitudeDegrees>-4.07256868667900562286376953125</LongitudeDegrees>
            </Position>
            <AltitudeMeters>1211</AltitudeMeters>
            <DistanceMeters>1434.7709409809</DistanceMeters>
          </Trackpoint>
          <Trackpoint>
            <Time>2018-12-30T09:18:27.000Z</Time>
            <Position>
              <LatitudeDegrees>40.74438395909965038299560546875</LatitudeDegrees>
              <LongitudeDegrees>-4.07256550155580043792724609375</LongitudeDegrees>
            </Position>
            <AltitudeMeters>1211</AltitudeMeters>
            <DistanceMeters>1436.0876697598</DistanceMeters>
          </Trackpoint>
          <Trackpoint>
            <Time>2018-12-30T09:18:28.000Z</Time>
            <Position>
              <LatitudeDegrees>40.74439954943954944610595703125</LatitudeDegrees>
              <LongitudeDegrees>-4.0725640766322612762451171875</LongitudeDegrees>
            </Position>
            <AltitudeMeters>1211</AltitudeMeters>
            <DistanceMeters>1437.8295382064</DistanceMeters>
          </Trackpoint>
          <Trackpoint>
            <Time>2018-12-30T09:18:29.000Z</Time>
            <Position>
              <LatitudeDegrees>40.744412206113338470458984375</LatitudeDegrees>
              <LongitudeDegrees>-4.0725630708038806915283203125</LongitudeDegrees>
            </Position>
            <AltitudeMeters>1211</AltitudeMeters>
            <DistanceMeters>1439.245404362</DistanceMeters>
          </Trackpoint>
          <Trackpoint>
            <Time>2018-12-30T09:18:30.000Z</Time>
            <Position>
              <LatitudeDegrees>40.7444197498261928558349609375</LatitudeDegrees>
              <LongitudeDegrees>-4.0725674293935298919677734375</LongitudeDegrees>
            </Position>
            <AltitudeMeters>1211</AltitudeMeters>
            <DistanceMeters>1440.1618088083</DistanceMeters>
          </Trackpoint>
          <Trackpoint>
            <Time>2018-12-30T09:18:31.000Z</Time>
            <Position>
              <LatitudeDegrees>40.7444281317293643951416015625</LatitudeDegrees>
              <LongitudeDegrees>-4.07257321290671825408935546875</LongitudeDegrees>
            </Position>
            <AltitudeMeters>1210.800048828125</AltitudeMeters>
            <DistanceMeters>1441.2114131748</DistanceMeters>
          </Trackpoint>
          <Trackpoint>
            <Time>2018-12-30T09:18:32.000Z</Time>
            <Position>
              <LatitudeDegrees>40.74443601071834564208984375</LatitudeDegrees>
              <LongitudeDegrees>-4.072581343352794647216796875</LongitudeDegrees>
            </Position>
            <AltitudeMeters>1211</AltitudeMeters>
            <DistanceMeters>1442.3277243094</DistanceMeters>
          </Trackpoint>
          <Trackpoint>
            <Time>2018-12-30T09:18:33.000Z</Time>
            <Position>
              <LatitudeDegrees>40.74444531463086605072021484375</LatitudeDegrees>
              <LongitudeDegrees>-4.07258729450404644012451171875</LongitudeDegrees>
            </Position>
            <AltitudeMeters>1211</AltitudeMeters>
            <DistanceMeters>1443.479861991</DistanceMeters>
          </Trackpoint>
          <Trackpoint>
            <Time>2018-12-30T09:18:34.000Z</Time>
            <Position>
              <LatitudeDegrees>40.74445721693336963653564453125</LatitudeDegrees>
              <LongitudeDegrees>-4.0725925751030445098876953125</LongitudeDegrees>
            </Position>
            <AltitudeMeters>1211</AltitudeMeters>
            <DistanceMeters>1444.8764637638</DistanceMeters>
          </Trackpoint>
          <Trackpoint>
            <Time>2018-12-30T09:18:35.000Z</Time>
            <Position>
              <LatitudeDegrees>40.7444666884839534759521484375</LatitudeDegrees>
              <LongitudeDegrees>-4.07259634695947170257568359375</LongitudeDegrees>
            </Position>
            <AltitudeMeters>1211</AltitudeMeters>
            <DistanceMeters>1445.9764775108</DistanceMeters>
          </Trackpoint>
          <Trackpoint>
            <Time>2018-12-30T09:18:36.000Z</Time>
            <Position>
              <LatitudeDegrees>40.7444727234542369842529296875</LatitudeDegrees>
              <LongitudeDegrees>-4.072597436606884002685546875</LongitudeDegrees>
            </Position>
            <AltitudeMeters>1211</AltitudeMeters>
            <DistanceMeters>1446.6551039902</DistanceMeters>
          </Trackpoint>
          <Trackpoint>
            <Time>2018-12-30T09:18:37.000Z</Time>
            <Position>
              <LatitudeDegrees>40.7444854639470577239990234375</LatitudeDegrees>
              <LongitudeDegrees>-4.07260037027299404144287109375</LongitudeDegrees>
            </Position>
            <AltitudeMeters>1210.800048828125</AltitudeMeters>
            <DistanceMeters>1448.0962554681</DistanceMeters>
          </Trackpoint>
          <Trackpoint>
            <Time>2018-12-30T09:18:38.000Z</Time>
            <Position>
              <LatitudeDegrees>40.7444997131824493408203125</LatitudeDegrees>
              <LongitudeDegrees>-4.07260254956781864166259765625</LongitudeDegrees>
            </Position>
            <AltitudeMeters>1210.800048828125</AltitudeMeters>
            <DistanceMeters>1449.6920253629</DistanceMeters>
          </Trackpoint>
          <Trackpoint>
            <Time>2018-12-30T09:18:39.000Z</Time>
            <Position>
              <LatitudeDegrees>40.7445256970822811126708984375</LatitudeDegrees>
              <LongitudeDegrees>-4.07260715961456298828125</LongitudeDegrees>
            </Position>
            <AltitudeMeters>1210.800048828125</AltitudeMeters>
            <DistanceMeters>1452.6101346971</DistanceMeters>
          </Trackpoint>
          <Trackpoint>
            <Time>2018-12-30T09:18:40.000Z</Time>
            <Position>
              <LatitudeDegrees>40.74454103596508502960205078125</LatitudeDegrees>
              <LongitudeDegrees>-4.07261042855679988861083984375</LongitudeDegrees>
            </Position>
            <AltitudeMeters>1210.5999755859375</AltitudeMeters>
            <DistanceMeters>1454.3416038362</DistanceMeters>
          </Trackpoint>
          <Trackpoint>
            <Time>2018-12-30T09:18:41.000Z</Time>
            <Position>
              <LatitudeDegrees>40.7445558719336986541748046875</LatitudeDegrees>
              <LongitudeDegrees>-4.07261897809803485870361328125</LongitudeDegrees>
            </Position>
            <AltitudeMeters>1210.5999755859375</AltitudeMeters>
            <DistanceMeters>1456.144608972</DistanceMeters>
          </Trackpoint>
          <Trackpoint>
            <Time>2018-12-30T09:18:42.000Z</Time>
            <Position>
              <LatitudeDegrees>40.7445696182548999786376953125</LatitudeDegrees>
              <LongitudeDegrees>-4.07262568362057209014892578125</LongitudeDegrees>
            </Position>
            <AltitudeMeters>1210.5999755859375</AltitudeMeters>
            <DistanceMeters>1457.773977707</DistanceMeters>
          </Trackpoint>
          <Trackpoint>
            <Time>2018-12-30T09:18:43.000Z</Time>
            <Position>
              <LatitudeDegrees>40.74458294548094272613525390625</LatitudeDegrees>
              <LongitudeDegrees>-4.07263104803860187530517578125</LongitudeDegrees>
            </Position>
            <AltitudeMeters>1210.5999755859375</AltitudeMeters>
            <DistanceMeters>1459.323816516</DistanceMeters>
          </Trackpoint>
          <Trackpoint>
            <Time>2018-12-30T09:18:44.000Z</Time>
            <Position>
              <LatitudeDegrees>40.7445947639644145965576171875</LatitudeDegrees>
              <LongitudeDegrees>-4.07263507135212421417236328125</LongitudeDegrees>
            </Position>
            <AltitudeMeters>1210.800048828125</AltitudeMeters>
            <DistanceMeters>1460.6843920086</DistanceMeters>
          </Trackpoint>
          <Trackpoint>
            <Time>2018-12-30T09:18:45.000Z</Time>
            <Position>
              <LatitudeDegrees>40.74460658244788646697998046875</LatitudeDegrees>
              <LongitudeDegrees>-4.072636328637599945068359375</LongitudeDegrees>
            </Position>
            <AltitudeMeters>1210.800048828125</AltitudeMeters>
            <DistanceMeters>1462.0011207875</DistanceMeters>
          </Trackpoint>
          <Trackpoint>
            <Time>2018-12-30T09:18:46.000Z</Time>
            <Position>
              <LatitudeDegrees>40.74461546726524829864501953125</LatitudeDegrees>
              <LongitudeDegrees>-4.0726445429027080535888671875</LongitudeDegrees>
            </Position>
            <AltitudeMeters>1211</AltitudeMeters>
            <DistanceMeters>1463.2106134018</DistanceMeters>
          </Trackpoint>
          <Trackpoint>
            <Time>2018-12-30T09:18:47.000Z</Time>
            <Position>
              <LatitudeDegrees>40.74463172815740108489990234375</LatitudeDegrees>
              <LongitudeDegrees>-4.07265300862491130828857421875</LongitudeDegrees>
            </Position>
            <AltitudeMeters>1211.199951171875</AltitudeMeters>
            <DistanceMeters>1465.1557617329</DistanceMeters>
          </Trackpoint>
          <Trackpoint>
            <Time>2018-12-30T09:18:48.000Z</Time>
            <Position>
              <LatitudeDegrees>40.7446474023163318634033203125</LatitudeDegrees>
              <LongitudeDegrees>-4.07265669666230678558349609375</LongitudeDegrees>
            </Position>
            <AltitudeMeters>1211.5999755859375</AltitudeMeters>
            <DistanceMeters>1466.9284621031</DistanceMeters>
          </Trackpoint>
          <Trackpoint>
            <Time>2018-12-30T09:18:49.000Z</Time>
            <Position>
              <LatitudeDegrees>40.74466290883719921112060546875</LatitudeDegrees>
              <LongitudeDegrees>-4.0726546011865139007568359375</LongitudeDegrees>
            </Position>
            <AltitudeMeters>1211.800048828125</AltitudeMeters>
            <DistanceMeters>1468.6599312421</DistanceMeters>
          </Trackpoint>
          <Trackpoint>
            <Time>2018-12-30T09:18:50.000Z</Time>
            <Position>
              <LatitudeDegrees>40.74465771205723285675048828125</LatitudeDegrees>
              <LongitudeDegrees>-4.0726274438202381134033203125</LongitudeDegrees>
            </Position>
            <AltitudeMeters>1212</AltitudeMeters>
            <DistanceMeters>1471.0222579008</DistanceMeters>
          </Trackpoint>
          <Trackpoint>
            <Time>2018-12-30T09:18:51.000Z</Time>
            <Position>
              <LatitudeDegrees>40.744665674865245819091796875</LatitudeDegrees>
              <LongitudeDegrees>-4.072616882622241973876953125</LongitudeDegrees>
            </Position>
            <AltitudeMeters>1212.199951171875</AltitudeMeters>
            <DistanceMeters>1472.2793431715</DistanceMeters>
          </Trackpoint>
          <Trackpoint>
            <Time>2018-12-30T09:18:52.000Z</Time>
            <Position>
              <LatitudeDegrees>40.7446702010929584503173828125</LatitudeDegrees>
              <LongitudeDegrees>-4.07260648906230926513671875</LongitudeDegrees>
            </Position>
            <AltitudeMeters>1212.4000244140625</AltitudeMeters>
            <DistanceMeters>1473.2939508368</DistanceMeters>
          </Trackpoint>
          <Trackpoint>
            <Time>2018-12-30T09:18:53.000Z</Time>
            <Position>
              <LatitudeDegrees>40.7446713745594024658203125</LatitudeDegrees>
              <LongitudeDegrees>-4.0725905634462833404541015625</LongitudeDegrees>
            </Position>
            <AltitudeMeters>1212.5999755859375</AltitudeMeters>
            <DistanceMeters>1474.6445342077</DistanceMeters>
          </Trackpoint>
          <Trackpoint>
            <Time>2018-12-30T09:18:54.000Z</Time>
            <Position>
              <LatitudeDegrees>40.74468336068093776702880859375</LatitudeDegrees>
              <LongitudeDegrees>-4.07258444465696811676025390625</LongitudeDegrees>
            </Position>
            <AltitudeMeters>1212.5999755859375</AltitudeMeters>
            <DistanceMeters>1476.0730989687</DistanceMeters>
          </Trackpoint>
          <Trackpoint>
            <Time>2018-12-30T09:18:55.000Z</Time>
            <Position>
              <LatitudeDegrees>40.74469157494604587554931640625</LatitudeDegrees>
              <LongitudeDegrees>-4.0725707821547985076904296875</LongitudeDegrees>
            </Position>
            <AltitudeMeters>1212.5999755859375</AltitudeMeters>
            <DistanceMeters>1477.5452464975</DistanceMeters>
          </Trackpoint>
          <Trackpoint>
            <Time>2018-12-30T09:18:56.000Z</Time>
            <Position>
              <LatitudeDegrees>40.7447047345340251922607421875</LatitudeDegrees>
              <LongitudeDegrees>-4.0725602209568023681640625</LongitudeDegrees>
            </Position>
            <AltitudeMeters>1212.800048828125</AltitudeMeters>
            <DistanceMeters>1479.2609984961</DistanceMeters>
          </Trackpoint>
          <Trackpoint>
            <Time>2018-12-30T09:18:57.000Z</Time>
            <Position>
              <LatitudeDegrees>40.74471873231232166290283203125</LatitudeDegrees>
              <LongitudeDegrees>-4.07255276106297969818115234375</LongitudeDegrees>
            </Position>
            <AltitudeMeters>1212.800048828125</AltitudeMeters>
            <DistanceMeters>1480.9448761649</DistanceMeters>
          </Trackpoint>
          <Trackpoint>
            <Time>2018-12-30T09:18:58.000Z</Time>
            <Position>
              <LatitudeDegrees>40.74472744949162006378173828125</LatitudeDegrees>
              <LongitudeDegrees>-4.0725389309227466583251953125</LongitudeDegrees>
            </Position>
            <AltitudeMeters>1212.800048828125</AltitudeMeters>
            <DistanceMeters>1482.4623311043</DistanceMeters>
          </Trackpoint>
          <Trackpoint>
            <Time>2018-12-30T09:18:59.000Z</Time>
            <Position>
              <LatitudeDegrees>40.74473465792834758758544921875</LatitudeDegrees>
              <LongitudeDegrees>-4.07252258621156215667724609375</LongitudeDegrees>
            </Position>
            <AltitudeMeters>1212.800048828125</AltitudeMeters>
            <DistanceMeters>1484.0581009991</DistanceMeters>
          </Trackpoint>
          <Trackpoint>
            <Time>2018-12-30T09:19:00.000Z</Time>
            <Position>
              <LatitudeDegrees>40.74474035762250423431396484375</LatitudeDegrees>
              <LongitudeDegrees>-4.0725090913474559783935546875</LongitudeDegrees>
            </Position>
            <AltitudeMeters>1212.5999755859375</AltitudeMeters>
            <DistanceMeters>1485.3575717741</DistanceMeters>
          </Trackpoint>
          <Trackpoint>
            <Time>2018-12-30T09:19:01.000Z</Time>
            <Position>
              <LatitudeDegrees>40.7447466440498828887939453125</LatitudeDegrees>
              <LongitudeDegrees>-4.07249760814011096954345703125</LongitudeDegrees>
            </Position>
            <AltitudeMeters>1212.4000244140625</AltitudeMeters>
            <DistanceMeters>1486.5482530924</DistanceMeters>
          </Trackpoint>
          <Trackpoint>
            <Time>2018-12-30T09:19:02.000Z</Time>
            <Position>
              <LatitudeDegrees>40.74475527741014957427978515625</LatitudeDegrees>
              <LongitudeDegrees>-4.0724859572947025299072265625</LongitudeDegrees>
            </Position>
            <AltitudeMeters>1212.4000244140625</AltitudeMeters>
            <DistanceMeters>1487.9220383655</DistanceMeters>
          </Trackpoint>
          <Trackpoint>
            <Time>2018-12-30T09:19:03.000Z</Time>
            <Position>
              <LatitudeDegrees>40.74476550333201885223388671875</LatitudeDegrees>
              <LongitudeDegrees>-4.07247212715446949005126953125</LongitudeDegrees>
            </Position>
            <AltitudeMeters>1212.4000244140625</AltitudeMeters>
            <DistanceMeters>1489.5514071005</DistanceMeters>
          </Trackpoint>
          <Trackpoint>
            <Time>2018-12-30T09:19:04.000Z</Time>
            <Position>
              <LatitudeDegrees>40.74477422051131725311279296875</LatitudeDegrees>
              <LongitudeDegrees>-4.0724655054509639739990234375</LongitudeDegrees>
            </Position>
            <AltitudeMeters>1212.4000244140625</AltitudeMeters>
            <DistanceMeters>1490.6677182351</DistanceMeters>
          </Trackpoint>
          <Trackpoint>
            <Time>2018-12-30T09:19:05.000Z</Time>
            <Position>
              <LatitudeDegrees>40.744784362614154815673828125</LatitudeDegrees>
              <LongitudeDegrees>-4.072455950081348419189453125</LongitudeDegrees>
            </Position>
            <AltitudeMeters>1212.5999755859375</AltitudeMeters>
            <DistanceMeters>1492.0578392223</DistanceMeters>
          </Trackpoint>
          <Trackpoint>
            <Time>2018-12-30T09:19:06.000Z</Time>
            <Position>
              <LatitudeDegrees>40.74478830210864543914794921875</LatitudeDegrees>
              <LongitudeDegrees>-4.07243809662759304046630859375</LongitudeDegrees>
            </Position>
            <AltitudeMeters>1212.5999755859375</AltitudeMeters>
            <DistanceMeters>1493.6250599447</DistanceMeters>
          </Trackpoint>
          <Trackpoint>
            <Time>2018-12-30T09:19:07.000Z</Time>
            <Position>
              <LatitudeDegrees>40.744791068136692047119140625</LatitudeDegrees>
              <LongitudeDegrees>-4.0724209137260913848876953125</LongitudeDegrees>
            </Position>
            <AltitudeMeters>1212.5999755859375</AltitudeMeters>
            <DistanceMeters>1495.1033286955</DistanceMeters>
          </Trackpoint>
          <Trackpoint>
            <Time>2018-12-30T09:19:08.000Z</Time>
            <Position>
              <LatitudeDegrees>40.74479852803051471710205078125</LatitudeDegrees>
              <LongitudeDegrees>-4.07240708358585834503173828125</LongitudeDegrees>
            </Position>
            <AltitudeMeters>1212.5999755859375</AltitudeMeters>
            <DistanceMeters>1496.5318934565</DistanceMeters>
          </Trackpoint>
          <Trackpoint>
            <Time>2018-12-30T09:19:09.000Z</Time>
            <Position>
              <LatitudeDegrees>40.744801461696624755859375</LatitudeDegrees>
              <LongitudeDegrees>-4.07239015214145183563232421875</LongitudeDegrees>
            </Position>
            <AltitudeMeters>1212.5999755859375</AltitudeMeters>
            <DistanceMeters>1497.9978942046</DistanceMeters>
          </Trackpoint>
          <Trackpoint>
            <Time>2018-12-30T09:19:10.000Z</Time>
            <Position>
              <LatitudeDegrees>40.74480590410530567169189453125</LatitudeDegrees>
              <LongitudeDegrees>-4.0723702870309352874755859375</LongitudeDegrees>
            </Position>
            <AltitudeMeters>1212.5999755859375</AltitudeMeters>
            <DistanceMeters>1499.7449390919</DistanceMeters>
          </Trackpoint>
          <Trackpoint>
            <Time>2018-12-30T09:19:11.000Z</Time>
            <Position>
              <LatitudeDegrees>40.7448150403797626495361328125</LatitudeDegrees>
              <LongitudeDegrees>-4.07234958373010158538818359375</LongitudeDegrees>
            </Position>
            <AltitudeMeters>1212.5999755859375</AltitudeMeters>
            <DistanceMeters>1501.7652347516</DistanceMeters>
          </Trackpoint>
          <Trackpoint>
            <Time>2018-12-30T09:19:12.000Z</Time>
            <Position>
              <LatitudeDegrees>40.744827277958393096923828125</LatitudeDegrees>
              <LongitudeDegrees>-4.072325862944126129150390625</LongitudeDegrees>
            </Position>
            <AltitudeMeters>1212.5999755859375</AltitudeMeters>
            <DistanceMeters>1504.1842199801</DistanceMeters>
          </Trackpoint>
          <Trackpoint>
            <Time>2018-12-30T09:19:13.000Z</Time>
            <Position>
              <LatitudeDegrees>40.7448398508131504058837890625</LatitudeDegrees>
              <LongitudeDegrees>-4.072305075824260711669921875</LongitudeDegrees>
            </Position>
            <AltitudeMeters>1212.5999755859375</AltitudeMeters>
            <DistanceMeters>1506.4249168589</DistanceMeters>
          </Trackpoint>
          <Trackpoint>
            <Time>2018-12-30T09:19:14.000Z</Time>
            <Position>
              <LatitudeDegrees>40.7448582910001277923583984375</LatitudeDegrees>
              <LongitudeDegrees>-4.07229040749371051788330078125</LongitudeDegrees>
            </Position>
            <AltitudeMeters>1212.5999755859375</AltitudeMeters>
            <DistanceMeters>1508.8213994102</DistanceMeters>
          </Trackpoint>
          <Trackpoint>
            <Time>2018-12-30T09:19:15.000Z</Time>
            <Position>
              <LatitudeDegrees>40.7448639906942844390869140625</LatitudeDegrees>
              <LongitudeDegrees>-4.0722703747451305389404296875</LongitudeDegrees>
            </Position>
            <AltitudeMeters>1212.800048828125</AltitudeMeters>
            <DistanceMeters>1510.624404546</DistanceMeters>
          </Trackpoint>
          <Trackpoint>
            <Time>2018-12-30T09:19:16.000Z</Time>
            <Position>
              <LatitudeDegrees>40.74486809782683849334716796875</LatitudeDegrees>
              <LongitudeDegrees>-4.07225310802459716796875</LongitudeDegrees>
            </Position>
            <AltitudeMeters>1213</AltitudeMeters>
            <DistanceMeters>1512.1507595907</DistanceMeters>
          </Trackpoint>
          <Trackpoint>
            <Time>2018-12-30T09:19:17.000Z</Time>
            <Position>
              <LatitudeDegrees>40.744866840541362762451171875</LatitudeDegrees>
              <LongitudeDegrees>-4.07224430702626705169677734375</LongitudeDegrees>
            </Position>
            <AltitudeMeters>1213.4000244140625</AltitudeMeters>
            <DistanceMeters>1512.9109733057</DistanceMeters>
          </Trackpoint>
          <Trackpoint>
            <Time>2018-12-30T09:19:18.000Z</Time>
            <Position>
              <LatitudeDegrees>40.74486994184553623199462890625</LatitudeDegrees>
              <LongitudeDegrees>-4.07224413938820362091064453125</LongitudeDegrees>
            </Position>
            <AltitudeMeters>1213.4000244140625</AltitudeMeters>
            <DistanceMeters>1513.2665307134</DistanceMeters>
          </Trackpoint>
          <Trackpoint>
            <Time>2018-12-30T09:19:19.000Z</Time>
            <Position>
              <LatitudeDegrees>40.74487983249127864837646484375</LatitudeDegrees>
              <LongitudeDegrees>-4.07224397175014019012451171875</LongitudeDegrees>
            </Position>
            <AltitudeMeters>1213.5999755859375</AltitudeMeters>
            <DistanceMeters>1514.37064136</DistanceMeters>
          </Trackpoint>
          <Trackpoint>
            <Time>2018-12-30T09:19:20.000Z</Time>
            <Position>
              <LatitudeDegrees>40.74488821439445018768310546875</LatitudeDegrees>
              <LongitudeDegrees>-4.07224330119788646697998046875</LongitudeDegrees>
            </Position>
            <AltitudeMeters>1213.5999755859375</AltitudeMeters>
            <DistanceMeters>1515.3113578378</DistanceMeters>
          </Trackpoint>
          <Trackpoint>
            <Time>2018-12-30T09:19:21.000Z</Time>
            <Position>
              <LatitudeDegrees>40.74490145780146121978759765625</LatitudeDegrees>
              <LongitudeDegrees>-4.07224447466433048248291015625</LongitudeDegrees>
            </Position>
            <AltitudeMeters>1213.5999755859375</AltitudeMeters>
            <DistanceMeters>1516.7865691525</DistanceMeters>
          </Trackpoint>
          <Trackpoint>
            <Time>2018-12-30T09:19:22.000Z</Time>
            <Position>
              <LatitudeDegrees>40.744913108646869659423828125</LatitudeDegrees>
              <LongitudeDegrees>-4.07223877497017383575439453125</LongitudeDegrees>
            </Position>
            <AltitudeMeters>1213.5999755859375</AltitudeMeters>
            <DistanceMeters>1518.1701789985</DistanceMeters>
          </Trackpoint>
          <Trackpoint>
            <Time>2018-12-30T09:19:23.000Z</Time>
            <Position>
              <LatitudeDegrees>40.7449240051209926605224609375</LatitudeDegrees>
              <LongitudeDegrees>-4.0722298063337802886962890625</LongitudeDegrees>
            </Position>
            <AltitudeMeters>1213.5999755859375</AltitudeMeters>
            <DistanceMeters>1519.5987437595</DistanceMeters>
          </Trackpoint>
          <Trackpoint>
            <Time>2018-12-30T09:19:24.000Z</Time>
            <Position>
              <LatitudeDegrees>40.74492962099611759185791015625</LatitudeDegrees>
              <LongitudeDegrees>-4.072217233479022979736328125</LongitudeDegrees>
            </Position>
            <AltitudeMeters>1213.800048828125</AltitudeMeters>
            <DistanceMeters>1520.83043075</DistanceMeters>
          </Trackpoint>
          <Trackpoint>
            <Time>2018-12-30T09:19:25.000Z</Time>
            <Position>
              <LatitudeDegrees>40.74494068510830402374267578125</LatitudeDegrees>
              <LongitudeDegrees>-4.07220943830907344818115234375</LongitudeDegrees>
            </Position>
            <AltitudeMeters>1213.800048828125</AltitudeMeters>
            <DistanceMeters>1522.2270325229</DistanceMeters>
          </Trackpoint>
          <Trackpoint>
            <Time>2018-12-30T09:19:26.000Z</Time>
            <Position>
              <LatitudeDegrees>40.74495359323918819427490234375</LatitudeDegrees>
              <LongitudeDegrees>-4.072201140224933624267578125</LongitudeDegrees>
            </Position>
            <AltitudeMeters>1214</AltitudeMeters>
            <DistanceMeters>1523.8256292931</DistanceMeters>
          </Trackpoint>
          <Trackpoint>
            <Time>2018-12-30T09:19:27.000Z</Time>
            <Position>
              <LatitudeDegrees>40.74496264569461345672607421875</LatitudeDegrees>
              <LongitudeDegrees>-4.07218798063695430755615234375</LongitudeDegrees>
            </Position>
            <AltitudeMeters>1214.199951171875</AltitudeMeters>
            <DistanceMeters>1525.3281335729</DistanceMeters>
          </Trackpoint>
          <Trackpoint>
            <Time>2018-12-30T09:19:28.000Z</Time>
            <Position>
              <LatitudeDegrees>40.7449585385620594024658203125</LatitudeDegrees>
              <LongitudeDegrees>-4.072154201567173004150390625</LongitudeDegrees>
            </Position>
            <AltitudeMeters>1214.5999755859375</AltitudeMeters>
            <DistanceMeters>1528.2135677658</DistanceMeters>
          </Trackpoint>
          <Trackpoint>
            <Time>2018-12-30T09:19:29.000Z</Time>
            <Position>
              <LatitudeDegrees>40.74495594017207622528076171875</LatitudeDegrees>
              <LongitudeDegrees>-4.07212947495281696319580078125</LongitudeDegrees>
            </Position>
            <AltitudeMeters>1214.800048828125</AltitudeMeters>
            <DistanceMeters>1530.3213622554</DistanceMeters>
          </Trackpoint>
          <Trackpoint>
            <Time>2018-12-30T09:19:30.000Z</Time>
            <Position>
              <LatitudeDegrees>40.74496733956038951873779296875</LatitudeDegrees>
              <LongitudeDegrees>-4.07212226651608943939208984375</LongitudeDegrees>
            </Position>
            <AltitudeMeters>1214.800048828125</AltitudeMeters>
            <DistanceMeters>1531.7276292077</DistanceMeters>
          </Trackpoint>
          <Trackpoint>
            <Time>2018-12-30T09:19:31.000Z</Time>
            <Position>
              <LatitudeDegrees>40.7449813373386859893798828125</LatitudeDegrees>
              <LongitudeDegrees>-4.072111956775188446044921875</LongitudeDegrees>
            </Position>
            <AltitudeMeters>1214.800048828125</AltitudeMeters>
            <DistanceMeters>1533.5104884025</DistanceMeters>
          </Trackpoint>
          <Trackpoint>
            <Time>2018-12-30T09:19:32.000Z</Time>
            <Position>
              <LatitudeDegrees>40.74499483220279216766357421875</LatitudeDegrees>
              <LongitudeDegrees>-4.0721070952713489532470703125</LongitudeDegrees>
            </Position>
            <AltitudeMeters>1214.800048828125</AltitudeMeters>
            <DistanceMeters>1535.0661427622</DistanceMeters>
          </Trackpoint>
          <Trackpoint>
            <Time>2018-12-30T09:19:33.000Z</Time>
            <Position>
              <LatitudeDegrees>40.745004974305629730224609375</LatitudeDegrees>
              <LongitudeDegrees>-4.07210290431976318359375</LongitudeDegrees>
            </Position>
            <AltitudeMeters>1214.800048828125</AltitudeMeters>
            <DistanceMeters>1536.2492158152</DistanceMeters>
          </Trackpoint>
          <Trackpoint>
            <Time>2018-12-30T09:19:34.000Z</Time>
            <Position>
              <LatitudeDegrees>40.745016038417816162109375</LatitudeDegrees>
              <LongitudeDegrees>-4.0720923431217670440673828125</LongitudeDegrees>
            </Position>
            <AltitudeMeters>1214.800048828125</AltitudeMeters>
            <DistanceMeters>1537.7666707547</DistanceMeters>
          </Trackpoint>
          <Trackpoint>
            <Time>2018-12-30T09:19:35.000Z</Time>
            <Position>
              <LatitudeDegrees>40.745029449462890625</LatitudeDegrees>
              <LongitudeDegrees>-4.07208655960857868194580078125</LongitudeDegrees>
            </Position>
            <AltitudeMeters>1214.5999755859375</AltitudeMeters>
            <DistanceMeters>1539.3338914771</DistanceMeters>
          </Trackpoint>
          <Trackpoint>
            <Time>2018-12-30T09:19:36.000Z</Time>
            <Position>
              <LatitudeDegrees>40.7450416870415210723876953125</LatitudeDegrees>
              <LongitudeDegrees>-4.072074405848979949951171875</LongitudeDegrees>
            </Position>
            <AltitudeMeters>1214.199951171875</AltitudeMeters>
            <DistanceMeters>1541.0390849016</DistanceMeters>
          </Trackpoint>
          <Trackpoint>
            <Time>2018-12-30T09:19:37.000Z</Time>
            <Position>
              <LatitudeDegrees>40.74504914693534374237060546875</LatitudeDegrees>
              <LongitudeDegrees>-4.0720648504793643951416015625</LongitudeDegrees>
            </Position>
            <AltitudeMeters>1214.199951171875</AltitudeMeters>
            <DistanceMeters>1542.1951347767</DistanceMeters>
          </Trackpoint>
          <Trackpoint>
            <Time>2018-12-30T09:19:38.000Z</Time>
            <Position>
              <LatitudeDegrees>40.74505534954369068145751953125</LatitudeDegrees>
              <LongitudeDegrees>-4.0720547921955585479736328125</LongitudeDegrees>
            </Position>
            <AltitudeMeters>1214.199951171875</AltitudeMeters>
            <DistanceMeters>1543.2869086043</DistanceMeters>
          </Trackpoint>
          <Trackpoint>
            <Time>2018-12-30T09:19:39.000Z</Time>
            <Position>
              <LatitudeDegrees>40.7450500689446926116943359375</LatitudeDegrees>
              <LongitudeDegrees>-4.07203425653278827667236328125</LongitudeDegrees>
            </Position>
            <AltitudeMeters>1214.199951171875</AltitudeMeters>
            <DistanceMeters>1545.1172523864</DistanceMeters>
          </Trackpoint>
          <Trackpoint>
            <Time>2018-12-30T09:19:40.000Z</Time>
            <Position>
              <LatitudeDegrees>40.7450510747730731964111328125</LatitudeDegrees>
              <LongitudeDegrees>-4.07202118076384067535400390625</LongitudeDegrees>
            </Position>
            <AltitudeMeters>1214.4000244140625</AltitudeMeters>
            <DistanceMeters>1546.2295115616</DistanceMeters>
          </Trackpoint>
          <Trackpoint>
            <Time>2018-12-30T09:19:41.000Z</Time>
            <Position>
              <LatitudeDegrees>40.7450544275343418121337890625</LatitudeDegrees>
              <LongitudeDegrees>-4.0720103681087493896484375</LongitudeDegrees>
            </Position>
            <AltitudeMeters>1214.5999755859375</AltitudeMeters>
            <DistanceMeters>1547.2124755383</DistanceMeters>
          </Trackpoint>
          <Trackpoint>
            <Time>2018-12-30T09:19:42.000Z</Time>
            <Position>
              <LatitudeDegrees>40.7450576126575469970703125</LatitudeDegrees>
              <LongitudeDegrees>-4.07200056128203868865966796875</LongitudeDegrees>
            </Position>
            <AltitudeMeters>1214.5999755859375</AltitudeMeters>
            <DistanceMeters>1548.1139781062</DistanceMeters>
          </Trackpoint>
          <Trackpoint>
            <Time>2018-12-30T09:19:43.000Z</Time>
            <Position>
              <LatitudeDegrees>40.7450581155717372894287109375</LatitudeDegrees>
              <LongitudeDegrees>-4.0719900839030742645263671875</LongitudeDegrees>
            </Position>
            <AltitudeMeters>1214.800048828125</AltitudeMeters>
            <DistanceMeters>1549.0054077036</DistanceMeters>
          </Trackpoint>
          <Trackpoint>
            <Time>2018-12-30T09:19:44.000Z</Time>
            <Position>
              <LatitudeDegrees>40.74505962431430816650390625</LatitudeDegrees>
              <LongitudeDegrees>-4.07197390682995319366455078125</LongitudeDegrees>
            </Position>
            <AltitudeMeters>1215</AltitudeMeters>
            <DistanceMeters>1550.3824756225</DistanceMeters>
          </Trackpoint>
          <Trackpoint>
            <Time>2018-12-30T09:19:45.000Z</Time>
            <Position>
              <LatitudeDegrees>40.7450711913406848907470703125</LatitudeDegrees>
              <LongitudeDegrees>-4.07196418382227420806884765625</LongitudeDegrees>
            </Position>
            <AltitudeMeters>1215.199951171875</AltitudeMeters>
            <DistanceMeters>1551.9088306672</DistanceMeters>
          </Trackpoint>
          <Trackpoint>
            <Time>2018-12-30T09:19:46.000Z</Time>
            <Position>
              <LatitudeDegrees>40.745078064501285552978515625</LatitudeDegrees>
              <LongitudeDegrees>-4.07194792293012142181396484375</LongitudeDegrees>
            </Position>
            <AltitudeMeters>1215.4000244140625</AltitudeMeters>
            <DistanceMeters>1553.4760513896</DistanceMeters>
          </Trackpoint>
          <Trackpoint>
            <Time>2018-12-30T09:19:47.000Z</Time>
            <Position>
              <LatitudeDegrees>40.745088793337345123291015625</LatitudeDegrees>
              <LongitudeDegrees>-4.07193015329539775848388671875</LongitudeDegrees>
            </Position>
            <AltitudeMeters>1215.5999755859375</AltitudeMeters>
            <DistanceMeters>1555.3907866288</DistanceMeters>
          </Trackpoint>
          <Trackpoint>
            <Time>2018-12-30T09:19:48.000Z</Time>
            <Position>
              <LatitudeDegrees>40.74509323574602603912353515625</LatitudeDegrees>
              <LongitudeDegrees>-4.07190785743296146392822265625</LongitudeDegrees>
            </Position>
            <AltitudeMeters>1215.5999755859375</AltitudeMeters>
            <DistanceMeters>1557.3336123939</DistanceMeters>
          </Trackpoint>
          <Trackpoint>
            <Time>2018-12-30T09:19:49.000Z</Time>
            <Position>
              <LatitudeDegrees>40.74510145001113414764404296875</LatitudeDegrees>
              <LongitudeDegrees>-4.07189461402595043182373046875</LongitudeDegrees>
            </Position>
            <AltitudeMeters>1215.5999755859375</AltitudeMeters>
            <DistanceMeters>1558.7747638717</DistanceMeters>
          </Trackpoint>
          <Trackpoint>
            <Time>2018-12-30T09:19:50.000Z</Time>
            <Position>
              <LatitudeDegrees>40.74510966427624225616455078125</LatitudeDegrees>
              <LongitudeDegrees>-4.07187868840992450714111328125</LongitudeDegrees>
            </Position>
            <AltitudeMeters>1215.5999755859375</AltitudeMeters>
            <DistanceMeters>1560.3985810787</DistanceMeters>
          </Trackpoint>
          <Trackpoint>
            <Time>2018-12-30T09:19:51.000Z</Time>
            <Position>
              <LatitudeDegrees>40.74511620216071605682373046875</LatitudeDegrees>
              <LongitudeDegrees>-4.0718603320419788360595703125</LongitudeDegrees>
            </Position>
            <AltitudeMeters>1215.5999755859375</AltitudeMeters>
            <DistanceMeters>1562.1090619374</DistanceMeters>
          </Trackpoint>
          <Trackpoint>
            <Time>2018-12-30T09:19:52.000Z</Time>
            <Position>
              <LatitudeDegrees>40.7451238296926021575927734375</LatitudeDegrees>
              <LongitudeDegrees>-4.071846418082714080810546875</LongitudeDegrees>
            </Position>
            <AltitudeMeters>1215.5999755859375</AltitudeMeters>
            <DistanceMeters>1563.56269115</DistanceMeters>
          </Trackpoint>
          <Trackpoint>
            <Time>2018-12-30T09:19:53.000Z</Time>
            <Position>
              <LatitudeDegrees>40.745129697024822235107421875</LatitudeDegrees>
              <LongitudeDegrees>-4.071831665933132171630859375</LongitudeDegrees>
            </Position>
            <AltitudeMeters>1215.5999755859375</AltitudeMeters>
            <DistanceMeters>1564.9721651007</DistanceMeters>
          </Trackpoint>
          <Trackpoint>
            <Time>2018-12-30T09:19:54.000Z</Time>
            <Position>
              <LatitudeDegrees>40.7451372407376766204833984375</LatitudeDegrees>
              <LongitudeDegrees>-4.07181682996451854705810546875</LongitudeDegrees>
            </Position>
            <AltitudeMeters>1215.4000244140625</AltitudeMeters>
            <DistanceMeters>1566.4806674255</DistanceMeters>
          </Trackpoint>
          <Trackpoint>
            <Time>2018-12-30T09:19:55.000Z</Time>
            <Position>
              <LatitudeDegrees>40.745139755308628082275390625</LatitudeDegrees>
              <LongitudeDegrees>-4.0717957913875579833984375</LongitudeDegrees>
            </Position>
            <AltitudeMeters>1215.4000244140625</AltitudeMeters>
            <DistanceMeters>1568.2761443233</DistanceMeters>
          </Trackpoint>
          <Trackpoint>
            <Time>2018-12-30T09:19:56.000Z</Time>
            <Position>
              <LatitudeDegrees>40.74514972977340221405029296875</LatitudeDegrees>
              <LongitudeDegrees>-4.071778357028961181640625</LongitudeDegrees>
            </Position>
            <AltitudeMeters>1215.4000244140625</AltitudeMeters>
            <DistanceMeters>1570.11878068</DistanceMeters>
          </Trackpoint>
          <Trackpoint>
            <Time>2018-12-30T09:19:57.000Z</Time>
            <Position>
              <LatitudeDegrees>40.74515693821012973785400390625</LatitudeDegrees>
              <LongitudeDegrees>-4.07176217995584011077880859375</LongitudeDegrees>
            </Position>
            <AltitudeMeters>1215.4000244140625</AltitudeMeters>
            <DistanceMeters>1571.7003404085</DistanceMeters>
          </Trackpoint>
          <Trackpoint>
            <Time>2018-12-30T09:19:58.000Z</Time>
            <Position>
              <LatitudeDegrees>40.74516733177006244659423828125</LatitudeDegrees>
              <LongitudeDegrees>-4.07175061292946338653564453125</LongitudeDegrees>
            </Position>
            <AltitudeMeters>1215.5999755859375</AltitudeMeters>
            <DistanceMeters>1573.2148170233</DistanceMeters>
          </Trackpoint>
          <Trackpoint>
            <Time>2018-12-30T09:19:59.000Z</Time>
            <Position>
              <LatitudeDegrees>40.74518208391964435577392578125</LatitudeDegrees>
              <LongitudeDegrees>-4.0717426501214504241943359375</LongitudeDegrees>
            </Position>
            <AltitudeMeters>1215.5999755859375</AltitudeMeters>
            <DistanceMeters>1574.9875173935</DistanceMeters>
          </Trackpoint>
          <Trackpoint>
            <Time>2018-12-30T09:20:00.000Z</Time>
            <Position>
              <LatitudeDegrees>40.74519214220345020294189453125</LatitudeDegrees>
              <LongitudeDegrees>-4.07172915525734424591064453125</LongitudeDegrees>
            </Position>
            <AltitudeMeters>1215.5999755859375</AltitudeMeters>
            <DistanceMeters>1576.5832872883</DistanceMeters>
          </Trackpoint>
          <Trackpoint>
            <Time>2018-12-30T09:20:01.000Z</Time>
            <Position>
              <LatitudeDegrees>40.74519784189760684967041015625</LatitudeDegrees>
              <LongitudeDegrees>-4.0717111341655254364013671875</LongitudeDegrees>
            </Position>
            <AltitudeMeters>1215.5999755859375</AltitudeMeters>
            <DistanceMeters>1578.229198262</DistanceMeters>
          </Trackpoint>
          <Trackpoint>
            <Time>2018-12-30T09:20:02.000Z</Time>
            <Position>
              <LatitudeDegrees>40.7452012784779071807861328125</LatitudeDegrees>
              <LongitudeDegrees>-4.07169562764465808868408203125</LongitudeDegrees>
            </Position>
            <AltitudeMeters>1215.5999755859375</AltitudeMeters>
            <DistanceMeters>1579.5930881943</DistanceMeters>
          </Trackpoint>
          <Trackpoint>
            <Time>2018-12-30T09:20:03.000Z</Time>
            <Position>
              <LatitudeDegrees>40.74519281275570392608642578125</LatitudeDegrees>
              <LongitudeDegrees>-4.07166243530809879302978515625</LongitudeDegrees>
            </Position>
            <AltitudeMeters>1215.5999755859375</AltitudeMeters>
            <DistanceMeters>1582.5450407292</DistanceMeters>
          </Trackpoint>
          <Trackpoint>
            <Time>2018-12-30T09:20:04.000Z</Time>
            <Position>
              <LatitudeDegrees>40.7451915554702281951904296875</LatitudeDegrees>
              <LongitudeDegrees>-4.0716375410556793212890625</LongitudeDegrees>
            </Position>
            <AltitudeMeters>1215.800048828125</AltitudeMeters>
            <DistanceMeters>1584.6442494622</DistanceMeters>
          </Trackpoint>
          <Trackpoint>
            <Time>2018-12-30T09:20:05.000Z</Time>
            <Position>
              <LatitudeDegrees>40.7451952435076236724853515625</LatitudeDegrees>
              <LongitudeDegrees>-4.0716310031712055206298828125</LongitudeDegrees>
            </Position>
            <AltitudeMeters>1216.199951171875</AltitudeMeters>
            <DistanceMeters>1585.3360543852</DistanceMeters>
          </Trackpoint>
          <Trackpoint>
            <Time>2018-12-30T09:20:06.000Z</Time>
            <Position>
              <LatitudeDegrees>40.74520018883049488067626953125</LatitudeDegrees>
              <LongitudeDegrees>-4.07162019051611423492431640625</LongitudeDegrees>
            </Position>
            <AltitudeMeters>1216.5999755859375</AltitudeMeters>
            <DistanceMeters>1586.4027266085</DistanceMeters>
          </Trackpoint>
          <Trackpoint>
            <Time>2018-12-30T09:20:07.000Z</Time>
            <Position>
              <LatitudeDegrees>40.745214186608791351318359375</LatitudeDegrees>
              <LongitudeDegrees>-4.071613065898418426513671875</LongitudeDegrees>
            </Position>
            <AltitudeMeters>1216.5999755859375</AltitudeMeters>
            <DistanceMeters>1588.0704386774</DistanceMeters>
          </Trackpoint>
          <Trackpoint>
            <Time>2018-12-30T09:20:08.000Z</Time>
            <Position>
              <LatitudeDegrees>40.74522365815937519073486328125</LatitudeDegrees>
              <LongitudeDegrees>-4.07159940339624881744384765625</LongitudeDegrees>
            </Position>
            <AltitudeMeters>1216.800048828125</AltitudeMeters>
            <DistanceMeters>1589.6318869282</DistanceMeters>
          </Trackpoint>
          <Trackpoint>
            <Time>2018-12-30T09:20:09.000Z</Time>
            <Position>
              <LatitudeDegrees>40.74523204006254673004150390625</LatitudeDegrees>
              <LongitudeDegrees>-4.0715850703418254852294921875</LongitudeDegrees>
            </Position>
            <AltitudeMeters>1216.800048828125</AltitudeMeters>
            <DistanceMeters>1591.1582419729</DistanceMeters>
          </Trackpoint>
          <Trackpoint>
            <Time>2018-12-30T09:20:10.000Z</Time>
            <Position>
              <LatitudeDegrees>40.7452462054789066314697265625</LatitudeDegrees>
              <LongitudeDegrees>-4.07156067900359630584716796875</LongitudeDegrees>
            </Position>
            <AltitudeMeters>1216.800048828125</AltitudeMeters>
            <DistanceMeters>1593.7484826563</DistanceMeters>
          </Trackpoint>
          <Trackpoint>
            <Time>2018-12-30T09:20:11.000Z</Time>
            <Position>
              <LatitudeDegrees>40.7452462054789066314697265625</LatitudeDegrees>
              <LongitudeDegrees>-4.07156067900359630584716796875</LongitudeDegrees>
            </Position>
            <AltitudeMeters>1216.800048828125</AltitudeMeters>
            <DistanceMeters>1593.7484826563</DistanceMeters>
          </Trackpoint>
          <Trackpoint>
            <Time>2018-12-30T09:20:12.000Z</Time>
            <Position>
              <LatitudeDegrees>40.74524880386888980865478515625</LatitudeDegrees>
              <LongitudeDegrees>-4.07154961489140987396240234375</LongitudeDegrees>
            </Position>
            <AltitudeMeters>1216.5999755859375</AltitudeMeters>
            <DistanceMeters>1594.7175687981</DistanceMeters>
          </Trackpoint>
          <Trackpoint>
            <Time>2018-12-30T09:20:13.000Z</Time>
            <Position>
              <LatitudeDegrees>40.74525098316371440887451171875</LatitudeDegrees>
              <LongitudeDegrees>-4.071536622941493988037109375</LongitudeDegrees>
            </Position>
            <AltitudeMeters>1216.5999755859375</AltitudeMeters>
            <DistanceMeters>1595.8338799327</DistanceMeters>
          </Trackpoint>
          <Trackpoint>
            <Time>2018-12-30T09:20:14.000Z</Time>
            <Position>
              <LatitudeDegrees>40.74525651521980762481689453125</LatitudeDegrees>
              <LongitudeDegrees>-4.07152446918189525604248046875</LongitudeDegrees>
            </Position>
            <AltitudeMeters>1216.5999755859375</AltitudeMeters>
            <DistanceMeters>1597.0321212083</DistanceMeters>
          </Trackpoint>
          <Trackpoint>
            <Time>2018-12-30T09:20:15.000Z</Time>
            <Position>
              <LatitudeDegrees>40.74526213109493255615234375</LatitudeDegrees>
              <LongitudeDegrees>-4.07150946557521820068359375</LongitudeDegrees>
            </Position>
            <AltitudeMeters>1216.5999755859375</AltitudeMeters>
            <DistanceMeters>1598.4447948769</DistanceMeters>
          </Trackpoint>
          <Trackpoint>
            <Time>2018-12-30T09:20:16.000Z</Time>
            <Position>
              <LatitudeDegrees>40.745268501341342926025390625</LatitudeDegrees>
              <LongitudeDegrees>-4.07149395905435085296630859375</LongitudeDegrees>
            </Position>
            <AltitudeMeters>1216.5999755859375</AltitudeMeters>
            <DistanceMeters>1599.932198228</DistanceMeters>
          </Trackpoint>
          <Trackpoint>
            <Time>2018-12-30T09:20:17.000Z</Time>
            <Position>
              <LatitudeDegrees>40.7452716864645481109619140625</LatitudeDegrees>
              <LongitudeDegrees>-4.0714794583618640899658203125</LongitudeDegrees>
            </Position>
            <AltitudeMeters>1216.4000244140625</AltitudeMeters>
            <DistanceMeters>1601.2035690171</DistanceMeters>
          </Trackpoint>
          <Trackpoint>
            <Time>2018-12-30T09:20:18.000Z</Time>
            <Position>
              <LatitudeDegrees>40.74527981691062450408935546875</LatitudeDegrees>
              <LongitudeDegrees>-4.07146814279258251190185546875</LongitudeDegrees>
            </Position>
            <AltitudeMeters>1216.4000244140625</AltitudeMeters>
            <DistanceMeters>1602.5168643384</DistanceMeters>
          </Trackpoint>
          <Trackpoint>
            <Time>2018-12-30T09:20:19.000Z</Time>
            <Position>
              <LatitudeDegrees>40.7452877797186374664306640625</LatitudeDegrees>
              <LongitudeDegrees>-4.07145691104233264923095703125</LongitudeDegrees>
            </Position>
            <AltitudeMeters>1216.4000244140625</AltitudeMeters>
            <DistanceMeters>1603.812855935</DistanceMeters>
          </Trackpoint>
          <Trackpoint>
            <Time>2018-12-30T09:20:20.000Z</Time>
            <Position>
              <LatitudeDegrees>40.74529272504150867462158203125</LatitudeDegrees>
              <LongitudeDegrees>-4.07144634984433650970458984375</LongitudeDegrees>
            </Position>
            <AltitudeMeters>1216.5999755859375</AltitudeMeters>
            <DistanceMeters>1604.8624603015</DistanceMeters>
          </Trackpoint>
          <Trackpoint>
            <Time>2018-12-30T09:20:21.000Z</Time>
            <Position>
              <LatitudeDegrees>40.7453001849353313446044921875</LatitudeDegrees>
              <LongitudeDegrees>-4.071433357894420623779296875</LongitudeDegrees>
            </Position>
            <AltitudeMeters>1216.800048828125</AltitudeMeters>
            <DistanceMeters>1606.2329550663</DistanceMeters>
          </Trackpoint>
          <Trackpoint>
            <Time>2018-12-30T09:20:22.000Z</Time>
            <Position>
              <LatitudeDegrees>40.7453119195997714996337890625</LatitudeDegrees>
              <LongitudeDegrees>-4.0714201144874095916748046875</LongitudeDegrees>
            </Position>
            <AltitudeMeters>1217</AltitudeMeters>
            <DistanceMeters>1607.9487070649</DistanceMeters>
          </Trackpoint>
          <Trackpoint>
            <Time>2018-12-30T09:20:23.000Z</Time>
            <Position>
              <LatitudeDegrees>40.74531921185553073883056640625</LatitudeDegrees>
              <LongitudeDegrees>-4.0714053623378276824951171875</LongitudeDegrees>
            </Position>
            <AltitudeMeters>1217.199951171875</AltitudeMeters>
            <DistanceMeters>1609.4330717952</DistanceMeters>
          </Trackpoint>
          <Trackpoint>
            <Time>2018-12-30T09:20:24.000Z</Time>
            <Position>
              <LatitudeDegrees>40.74532658793032169342041015625</LatitudeDegrees>
              <LongitudeDegrees>-4.07139538787305355072021484375</LongitudeDegrees>
            </Position>
            <AltitudeMeters>1217.4000244140625</AltitudeMeters>
            <DistanceMeters>1610.6046398126</DistanceMeters>
          </Trackpoint>
          <Trackpoint>
            <Time>2018-12-30T09:20:25.000Z</Time>
            <Position>
              <LatitudeDegrees>40.74533455073833465576171875</LatitudeDegrees>
              <LongitudeDegrees>-4.0713832341134548187255859375</LongitudeDegrees>
            </Position>
            <AltitudeMeters>1217.4000244140625</AltitudeMeters>
            <DistanceMeters>1611.9618927715</DistanceMeters>
          </Trackpoint>
          <Trackpoint>
            <Time>2018-12-30T09:20:26.000Z</Time>
            <Position>
              <LatitudeDegrees>40.74534201063215732574462890625</LatitudeDegrees>
              <LongitudeDegrees>-4.07136705704033374786376953125</LongitudeDegrees>
            </Position>
            <AltitudeMeters>1217.5999755859375</AltitudeMeters>
            <DistanceMeters>1613.5548307743</DistanceMeters>
          </Trackpoint>
          <Trackpoint>
            <Time>2018-12-30T09:20:27.000Z</Time>
            <Position>
              <LatitudeDegrees>40.74534670449793338775634765625</LatitudeDegrees>
              <LongitudeDegrees>-4.07134945504367351531982421875</LongitudeDegrees>
            </Position>
            <AltitudeMeters>1217.5999755859375</AltitudeMeters>
            <DistanceMeters>1615.1278027848</DistanceMeters>
          </Trackpoint>
          <Trackpoint>
            <Time>2018-12-30T09:20:28.000Z</Time>
            <Position>
              <LatitudeDegrees>40.74535005725920200347900390625</LatitudeDegrees>
              <LongitudeDegrees>-4.07133336178958415985107421875</LongitudeDegrees>
            </Position>
            <AltitudeMeters>1217.4000244140625</AltitudeMeters>
            <DistanceMeters>1616.5340697371</DistanceMeters>
          </Trackpoint>
          <Trackpoint>
            <Time>2018-12-30T09:20:29.000Z</Time>
            <Position>
              <LatitudeDegrees>40.74535542167723178863525390625</LatitudeDegrees>
              <LongitudeDegrees>-4.0713171847164630889892578125</LongitudeDegrees>
            </Position>
            <AltitudeMeters>1217.4000244140625</AltitudeMeters>
            <DistanceMeters>1618.0184344673</DistanceMeters>
          </Trackpoint>
          <Trackpoint>
            <Time>2018-12-30T09:20:30.000Z</Time>
            <Position>
              <LatitudeDegrees>40.7453571818768978118896484375</LatitudeDegrees>
              <LongitudeDegrees>-4.07130134291946887969970703125</LongitudeDegrees>
            </Position>
            <AltitudeMeters>1217.4000244140625</AltitudeMeters>
            <DistanceMeters>1619.3656706624</DistanceMeters>
          </Trackpoint>
          <Trackpoint>
            <Time>2018-12-30T09:20:31.000Z</Time>
            <Position>
              <LatitudeDegrees>40.7453608699142932891845703125</LatitudeDegrees>
              <LongitudeDegrees>-4.07128223218023777008056640625</LongitudeDegrees>
            </Position>
            <AltitudeMeters>1217.199951171875</AltitudeMeters>
            <DistanceMeters>1621.0306732054</DistanceMeters>
          </Trackpoint>
          <Trackpoint>
            <Time>2018-12-30T09:20:32.000Z</Time>
            <Position>
              <LatitudeDegrees>40.74536229483783245086669921875</LatitudeDegrees>
              <LongitudeDegrees>-4.07126245088875293731689453125</LongitudeDegrees>
            </Position>
            <AltitudeMeters>1217.199951171875</AltitudeMeters>
            <DistanceMeters>1622.7064875669</DistanceMeters>
          </Trackpoint>
          <Trackpoint>
            <Time>2018-12-30T09:20:33.000Z</Time>
            <Position>
              <LatitudeDegrees>40.74536514468491077423095703125</LatitudeDegrees>
              <LongitudeDegrees>-4.07124660909175872802734375</LongitudeDegrees>
            </Position>
            <AltitudeMeters>1216.800048828125</AltitudeMeters>
            <DistanceMeters>1624.0769823317</DistanceMeters>
          </Trackpoint>
          <Trackpoint>
            <Time>2018-12-30T09:20:34.000Z</Time>
            <Position>
              <LatitudeDegrees>40.74536799453198909759521484375</LatitudeDegrees>
              <LongitudeDegrees>-4.071230851113796234130859375</LongitudeDegrees>
            </Position>
            <AltitudeMeters>1216.800048828125</AltitudeMeters>
            <DistanceMeters>1625.4441786687</DistanceMeters>
          </Trackpoint>
          <Trackpoint>
            <Time>2018-12-30T09:20:35.000Z</Time>
            <Position>
              <LatitudeDegrees>40.74537386186420917510986328125</LatitudeDegrees>
              <LongitudeDegrees>-4.0712159313261508941650390625</LongitudeDegrees>
            </Position>
            <AltitudeMeters>1217</AltitudeMeters>
            <DistanceMeters>1626.8600448243</DistanceMeters>
          </Trackpoint>
          <Trackpoint>
            <Time>2018-12-30T09:20:36.000Z</Time>
            <Position>
              <LatitudeDegrees>40.7453749515116214752197265625</LatitudeDegrees>
              <LongitudeDegrees>-4.0712008439004421234130859375</LongitudeDegrees>
            </Position>
            <AltitudeMeters>1217.199951171875</AltitudeMeters>
            <DistanceMeters>1628.1349619823</DistanceMeters>
          </Trackpoint>
          <Trackpoint>
            <Time>2018-12-30T09:20:37.000Z</Time>
            <Position>
              <LatitudeDegrees>40.7453726045787334442138671875</LatitudeDegrees>
              <LongitudeDegrees>-4.07118382863700389862060546875</LongitudeDegrees>
            </Position>
            <AltitudeMeters>1217.199951171875</AltitudeMeters>
            <DistanceMeters>1629.5916939289</DistanceMeters>
          </Trackpoint>
          <Trackpoint>
            <Time>2018-12-30T09:20:38.000Z</Time>
            <Position>
              <LatitudeDegrees>40.74537822045385837554931640625</LatitudeDegrees>
              <LongitudeDegrees>-4.07116748392581939697265625</LongitudeDegrees>
            </Position>
            <AltitudeMeters>1217.199951171875</AltitudeMeters>
            <DistanceMeters>1631.1031863505</DistanceMeters>
          </Trackpoint>
          <Trackpoint>
            <Time>2018-12-30T09:20:39.000Z</Time>
            <Position>
              <LatitudeDegrees>40.7453776337206363677978515625</LatitudeDegrees>
              <LongitudeDegrees>-4.0711478702723979949951171875</LongitudeDegrees>
            </Position>
            <AltitudeMeters>1217.4000244140625</AltitudeMeters>
            <DistanceMeters>1632.76003373</DistanceMeters>
          </Trackpoint>
          <Trackpoint>
            <Time>2018-12-30T09:20:40.000Z</Time>
            <Position>
              <LatitudeDegrees>40.745378471910953521728515625</LatitudeDegrees>
              <LongitudeDegrees>-4.0711306035518646240234375</LongitudeDegrees>
            </Position>
            <AltitudeMeters>1217.4000244140625</AltitudeMeters>
            <DistanceMeters>1634.219861816</DistanceMeters>
          </Trackpoint>
          <Trackpoint>
            <Time>2018-12-30T09:20:41.000Z</Time>
            <Position>
              <LatitudeDegrees>40.7453836686909198760986328125</LatitudeDegrees>
              <LongitudeDegrees>-4.0711140073835849761962890625</LongitudeDegrees>
            </Position>
            <AltitudeMeters>1217.5999755859375</AltitudeMeters>
            <DistanceMeters>1635.7343384308</DistanceMeters>
          </Trackpoint>
          <Trackpoint>
            <Time>2018-12-30T09:20:42.000Z</Time>
            <Position>
              <LatitudeDegrees>40.74539062567055225372314453125</LatitudeDegrees>
              <LongitudeDegrees>-4.07110319472849369049072265625</LongitudeDegrees>
            </Position>
            <AltitudeMeters>1217.800048828125</AltitudeMeters>
            <DistanceMeters>1636.9288057088</DistanceMeters>
          </Trackpoint>
          <Trackpoint>
            <Time>2018-12-30T09:20:43.000Z</Time>
            <Position>
              <LatitudeDegrees>40.745403952896595001220703125</LatitudeDegrees>
              <LongitudeDegrees>-4.0710898675024509429931640625</LongitudeDegrees>
            </Position>
            <AltitudeMeters>1217.800048828125</AltitudeMeters>
            <DistanceMeters>1638.7909414059</DistanceMeters>
          </Trackpoint>
          <Trackpoint>
            <Time>2018-12-30T09:20:44.000Z</Time>
            <Position>
              <LatitudeDegrees>40.74541493318974971771240234375</LatitudeDegrees>
              <LongitudeDegrees>-4.0710751153528690338134765625</LongitudeDegrees>
            </Position>
            <AltitudeMeters>1218</AltitudeMeters>
            <DistanceMeters>1640.5379862931</DistanceMeters>
          </Trackpoint>
          <Trackpoint>
            <Time>2018-12-30T09:20:45.000Z</Time>
            <Position>
              <LatitudeDegrees>40.74542197398841381072998046875</LatitudeDegrees>
              <LongitudeDegrees>-4.07106027938425540924072265625</LongitudeDegrees>
            </Position>
            <AltitudeMeters>1218</AltitudeMeters>
            <DistanceMeters>1642.0101338219</DistanceMeters>
          </Trackpoint>
          <Trackpoint>
            <Time>2018-12-30T09:20:46.000Z</Time>
            <Position>
              <LatitudeDegrees>40.74543102644383907318115234375</LatitudeDegrees>
              <LongitudeDegrees>-4.07104535959661006927490234375</LongitudeDegrees>
            </Position>
            <AltitudeMeters>1218</AltitudeMeters>
            <DistanceMeters>1643.6199884549</DistanceMeters>
          </Trackpoint>
          <Trackpoint>
            <Time>2018-12-30T09:20:47.000Z</Time>
            <Position>
              <LatitudeDegrees>40.7454477064311504364013671875</LatitudeDegrees>
              <LongitudeDegrees>-4.0710305236279964447021484375</LongitudeDegrees>
            </Position>
            <AltitudeMeters>1218.199951171875</AltitudeMeters>
            <DistanceMeters>1645.8586694118</DistanceMeters>
          </Trackpoint>
          <Trackpoint>
            <Time>2018-12-30T09:20:48.000Z</Time>
            <Position>
              <LatitudeDegrees>40.74545449577271938323974609375</LatitudeDegrees>
              <LongitudeDegrees>-4.0710137598216533660888671875</LongitudeDegrees>
            </Position>
            <AltitudeMeters>1218.199951171875</AltitudeMeters>
            <DistanceMeters>1647.4657169726</DistanceMeters>
          </Trackpoint>
          <Trackpoint>
            <Time>2018-12-30T09:20:49.000Z</Time>
            <Position>
              <LatitudeDegrees>40.74546572752296924591064453125</LatitudeDegrees>
              <LongitudeDegrees>-4.07100060023367404937744140625</LongitudeDegrees>
            </Position>
            <AltitudeMeters>1218.4000244140625</AltitudeMeters>
            <DistanceMeters>1649.1388349295</DistanceMeters>
          </Trackpoint>
          <Trackpoint>
            <Time>2018-12-30T09:20:50.000Z</Time>
            <Position>
              <LatitudeDegrees>40.74547536671161651611328125</LatitudeDegrees>
              <LongitudeDegrees>-4.0709882788360118865966796875</LongitudeDegrees>
            </Position>
            <AltitudeMeters>1218.4000244140625</AltitudeMeters>
            <DistanceMeters>1650.6292707065</DistanceMeters>
          </Trackpoint>
          <Trackpoint>
            <Time>2018-12-30T09:20:51.000Z</Time>
            <Position>
              <LatitudeDegrees>40.745477043092250823974609375</LatitudeDegrees>
              <LongitudeDegrees>-4.0709695033729076385498046875</LongitudeDegrees>
            </Position>
            <AltitudeMeters>1218.4000244140625</AltitudeMeters>
            <DistanceMeters>1652.2222087093</DistanceMeters>
          </Trackpoint>
          <Trackpoint>
            <Time>2018-12-30T09:20:52.000Z</Time>
            <Position>
              <LatitudeDegrees>40.745483078062534332275390625</LatitudeDegrees>
              <LongitudeDegrees>-4.07095734961330890655517578125</LongitudeDegrees>
            </Position>
            <AltitudeMeters>1218.4000244140625</AltitudeMeters>
            <DistanceMeters>1653.4502244934</DistanceMeters>
          </Trackpoint>
          <Trackpoint>
            <Time>2018-12-30T09:20:53.000Z</Time>
            <Position>
              <LatitudeDegrees>40.7454933039844036102294921875</LatitudeDegrees>
              <LongitudeDegrees>-4.0709480457007884979248046875</LongitudeDegrees>
            </Position>
            <AltitudeMeters>1218.5999755859375</AltitudeMeters>
            <DistanceMeters>1654.8305672515</DistanceMeters>
          </Trackpoint>
          <Trackpoint>
            <Time>2018-12-30T09:20:54.000Z</Time>
            <Position>
              <LatitudeDegrees>40.745502524077892303466796875</LatitudeDegrees>
              <LongitudeDegrees>-4.07093790359795093536376953125</LongitudeDegrees>
            </Position>
            <AltitudeMeters>1218.5999755859375</AltitudeMeters>
            <DistanceMeters>1656.164330746</DistanceMeters>
          </Trackpoint>
          <Trackpoint>
            <Time>2018-12-30T09:20:55.000Z</Time>
            <Position>
              <LatitudeDegrees>40.7455157674849033355712890625</LatitudeDegrees>
              <LongitudeDegrees>-4.0709272585809230804443359375</LongitudeDegrees>
            </Position>
            <AltitudeMeters>1218.5999755859375</AltitudeMeters>
            <DistanceMeters>1657.8905767385</DistanceMeters>
          </Trackpoint>
          <Trackpoint>
            <Time>2018-12-30T09:20:56.000Z</Time>
            <Position>
              <LatitudeDegrees>40.74553144164383411407470703125</LatitudeDegrees>
              <LongitudeDegrees>-4.07091996632516384124755859375</LongitudeDegrees>
            </Position>
            <AltitudeMeters>1218.800048828125</AltitudeMeters>
            <DistanceMeters>1659.7405494335</DistanceMeters>
          </Trackpoint>
          <Trackpoint>
            <Time>2018-12-30T09:20:57.000Z</Time>
            <Position>
              <LatitudeDegrees>40.74553831480443477630615234375</LatitudeDegrees>
              <LongitudeDegrees>-4.07090119086205959320068359375</LongitudeDegrees>
            </Position>
            <AltitudeMeters>1218.800048828125</AltitudeMeters>
            <DistanceMeters>1661.5004688124</DistanceMeters>
          </Trackpoint>
          <Trackpoint>
            <Time>2018-12-30T09:20:58.000Z</Time>
            <Position>
              <LatitudeDegrees>40.74554552324116230010986328125</LatitudeDegrees>
              <LongitudeDegrees>-4.07088124193251132965087890625</LongitudeDegrees>
            </Position>
            <AltitudeMeters>1218.800048828125</AltitudeMeters>
            <DistanceMeters>1663.3626045095</DistanceMeters>
          </Trackpoint>
          <Trackpoint>
            <Time>2018-12-30T09:20:59.000Z</Time>
            <Position>
              <LatitudeDegrees>40.74555289931595325469970703125</LatitudeDegrees>
              <LongitudeDegrees>-4.07086246646940708160400390625</LongitudeDegrees>
            </Position>
            <AltitudeMeters>1219</AltitudeMeters>
            <DistanceMeters>1665.1454637043</DistanceMeters>
          </Trackpoint>
          <Trackpoint>
            <Time>2018-12-30T09:21:00.000Z</Time>
            <Position>
              <LatitudeDegrees>40.7455580122768878936767578125</LatitudeDegrees>
              <LongitudeDegrees>-4.07083933241665363311767578125</LongitudeDegrees>
            </Position>
            <AltitudeMeters>1219</AltitudeMeters>
            <DistanceMeters>1667.174679035</DistanceMeters>
          </Trackpoint>
          <Trackpoint>
            <Time>2018-12-30T09:21:01.000Z</Time>
            <Position>
              <LatitudeDegrees>40.74556522071361541748046875</LatitudeDegrees>
              <LongitudeDegrees>-4.07082390971481800079345703125</LongitudeDegrees>
            </Position>
            <AltitudeMeters>1219</AltitudeMeters>
            <DistanceMeters>1668.7010340797</DistanceMeters>
          </Trackpoint>
          <Trackpoint>
            <Time>2018-12-30T09:21:02.000Z</Time>
            <Position>
              <LatitudeDegrees>40.745574273169040679931640625</LatitudeDegrees>
              <LongitudeDegrees>-4.0708033740520477294921875</LongitudeDegrees>
            </Position>
            <AltitudeMeters>1219</AltitudeMeters>
            <DistanceMeters>1670.7033711995</DistanceMeters>
          </Trackpoint>
          <Trackpoint>
            <Time>2018-12-30T09:21:03.000Z</Time>
            <Position>
              <LatitudeDegrees>40.74558793567121028900146484375</LatitudeDegrees>
              <LongitudeDegrees>-4.0707881189882755279541015625</LongitudeDegrees>
            </Position>
            <AltitudeMeters>1219</AltitudeMeters>
            <DistanceMeters>1672.6966683763</DistanceMeters>
          </Trackpoint>
          <Trackpoint>
            <Time>2018-12-30T09:21:04.000Z</Time>
            <Position>
              <LatitudeDegrees>40.74560721404850482940673828125</LatitudeDegrees>
              <LongitudeDegrees>-4.07077546231448650360107421875</LongitudeDegrees>
            </Position>
            <AltitudeMeters>1219.199951171875</AltitudeMeters>
            <DistanceMeters>1675.0931509276</DistanceMeters>
          </Trackpoint>
          <Trackpoint>
            <Time>2018-12-30T09:21:05.000Z</Time>
            <Position>
              <LatitudeDegrees>40.7456247322261333465576171875</LatitudeDegrees>
              <LongitudeDegrees>-4.070764482021331787109375</LongitudeDegrees>
            </Position>
            <AltitudeMeters>1219.199951171875</AltitudeMeters>
            <DistanceMeters>1677.2517429328</DistanceMeters>
          </Trackpoint>
          <Trackpoint>
            <Time>2018-12-30T09:21:06.000Z</Time>
            <Position>
              <LatitudeDegrees>40.74564627371728420257568359375</LatitudeDegrees>
              <LongitudeDegrees>-4.07075651921331882476806640625</LongitudeDegrees>
            </Position>
            <AltitudeMeters>1219.199951171875</AltitudeMeters>
            <DistanceMeters>1679.7406447872</DistanceMeters>
          </Trackpoint>
          <Trackpoint>
            <Time>2018-12-30T09:21:07.000Z</Time>
            <Position>
              <LatitudeDegrees>40.74566320516169071197509765625</LatitudeDegrees>
              <LongitudeDegrees>-4.070751406252384185791015625</LongitudeDegrees>
            </Position>
            <AltitudeMeters>1219.4000244140625</AltitudeMeters>
            <DistanceMeters>1681.6764861351</DistanceMeters>
          </Trackpoint>
          <Trackpoint>
            <Time>2018-12-30T09:21:08.000Z</Time>
            <Position>
              <LatitudeDegrees>40.74567695148289203643798828125</LatitudeDegrees>
              <LongitudeDegrees>-4.070743359625339508056640625</LongitudeDegrees>
            </Position>
            <AltitudeMeters>1219.5999755859375</AltitudeMeters>
            <DistanceMeters>1683.3496040919</DistanceMeters>
          </Trackpoint>
          <Trackpoint>
            <Time>2018-12-30T09:21:09.000Z</Time>
            <Position>
              <LatitudeDegrees>40.7456931285560131072998046875</LatitudeDegrees>
              <LongitudeDegrees>-4.0707311220467090606689453125</LongitudeDegrees>
            </Position>
            <AltitudeMeters>1219.800048828125</AltitudeMeters>
            <DistanceMeters>1685.425018861</DistanceMeters>
          </Trackpoint>
          <Trackpoint>
            <Time>2018-12-30T09:21:10.000Z</Time>
            <Position>
              <LatitudeDegrees>40.745706371963024139404296875</LatitudeDegrees>
              <LongitudeDegrees>-4.0707197226583957672119140625</LongitudeDegrees>
            </Position>
            <AltitudeMeters>1219.800048828125</AltitudeMeters>
            <DistanceMeters>1687.1849382399</DistanceMeters>
          </Trackpoint>
          <Trackpoint>
            <Time>2018-12-30T09:21:11.000Z</Time>
            <Position>
              <LatitudeDegrees>40.74571810662746429443359375</LatitudeDegrees>
              <LongitudeDegrees>-4.0707094967365264892578125</LongitudeDegrees>
            </Position>
            <AltitudeMeters>1220</AltitudeMeters>
            <DistanceMeters>1688.7492753891</DistanceMeters>
          </Trackpoint>
          <Trackpoint>
            <Time>2018-12-30T09:21:12.000Z</Time>
            <Position>
              <LatitudeDegrees>40.74573026038706302642822265625</LatitudeDegrees>
              <LongitudeDegrees>-4.07070136629045009613037109375</LongitudeDegrees>
            </Position>
            <AltitudeMeters>1220</AltitudeMeters>
            <DistanceMeters>1690.2637520039</DistanceMeters>
          </Trackpoint>
          <Trackpoint>
            <Time>2018-12-30T09:21:13.000Z</Time>
            <Position>
              <LatitudeDegrees>40.7457469403743743896484375</LatitudeDegrees>
              <LongitudeDegrees>-4.070697762072086334228515625</LongitudeDegrees>
            </Position>
            <AltitudeMeters>1219.800048828125</AltitudeMeters>
            <DistanceMeters>1692.1427836401</DistanceMeters>
          </Trackpoint>
          <Trackpoint>
            <Time>2018-12-30T09:21:14.000Z</Time>
            <Position>
              <LatitudeDegrees>40.745759345591068267822265625</LatitudeDegrees>
              <LongitudeDegrees>-4.070691056549549102783203125</LongitudeDegrees>
            </Position>
            <AltitudeMeters>1219.800048828125</AltitudeMeters>
            <DistanceMeters>1693.6392658344</DistanceMeters>
          </Trackpoint>
          <Trackpoint>
            <Time>2018-12-30T09:21:15.000Z</Time>
            <Position>
              <LatitudeDegrees>40.74577284045517444610595703125</LatitudeDegrees>
              <LongitudeDegrees>-4.07068158499896526336669921875</LongitudeDegrees>
            </Position>
            <AltitudeMeters>1219.5999755859375</AltitudeMeters>
            <DistanceMeters>1695.3418093841</DistanceMeters>
          </Trackpoint>
          <Trackpoint>
            <Time>2018-12-30T09:21:16.000Z</Time>
            <Position>
              <LatitudeDegrees>40.74578440748155117034912109375</LatitudeDegrees>
              <LongitudeDegrees>-4.0706734545528888702392578125</LongitudeDegrees>
            </Position>
            <AltitudeMeters>1219.5999755859375</AltitudeMeters>
            <DistanceMeters>1696.8016374701</DistanceMeters>
          </Trackpoint>
          <Trackpoint>
            <Time>2018-12-30T09:21:17.000Z</Time>
            <Position>
              <LatitudeDegrees>40.7457960583269596099853515625</LatitudeDegrees>
              <LongitudeDegrees>-4.070666246116161346435546875</LongitudeDegrees>
            </Position>
            <AltitudeMeters>1219.5999755859375</AltitudeMeters>
            <DistanceMeters>1698.236509391</DistanceMeters>
          </Trackpoint>
          <Trackpoint>
            <Time>2018-12-30T09:21:18.000Z</Time>
            <Position>
              <LatitudeDegrees>40.745808966457843780517578125</LatitudeDegrees>
              <LongitudeDegrees>-4.07065979205071926116943359375</LongitudeDegrees>
            </Position>
            <AltitudeMeters>1219.5999755859375</AltitudeMeters>
            <DistanceMeters>1699.7746511362</DistanceMeters>
          </Trackpoint>
          <Trackpoint>
            <Time>2018-12-30T09:21:19.000Z</Time>
            <Position>
              <LatitudeDegrees>40.7458208687603473663330078125</LatitudeDegrees>
              <LongitudeDegrees>-4.07065384089946746826171875</LongitudeDegrees>
            </Position>
            <AltitudeMeters>1219.5999755859375</AltitudeMeters>
            <DistanceMeters>1701.1905172918</DistanceMeters>
          </Trackpoint>
          <Trackpoint>
            <Time>2018-12-30T09:21:20.000Z</Time>
            <Position>
              <LatitudeDegrees>40.74583302251994609832763671875</LatitudeDegrees>
              <LongitudeDegrees>-4.070649482309818267822265625</LongitudeDegrees>
            </Position>
            <AltitudeMeters>1219.800048828125</AltitudeMeters>
            <DistanceMeters>1702.5935699154</DistanceMeters>
          </Trackpoint>
          <Trackpoint>
            <Time>2018-12-30T09:21:21.000Z</Time>
            <Position>
              <LatitudeDegrees>40.74584727175533771514892578125</LatitudeDegrees>
              <LongitudeDegrees>-4.0706483088433742523193359375</LongitudeDegrees>
            </Position>
            <AltitudeMeters>1219.800048828125</AltitudeMeters>
            <DistanceMeters>1704.1836709828</DistanceMeters>
          </Trackpoint>
          <Trackpoint>
            <Time>2018-12-30T09:21:22.000Z</Time>
            <Position>
              <LatitudeDegrees>40.745863281190395355224609375</LatitudeDegrees>
              <LongitudeDegrees>-4.0706486441195011138916015625</LongitudeDegrees>
            </Position>
            <AltitudeMeters>1220</AltitudeMeters>
            <DistanceMeters>1705.9665301775</DistanceMeters>
          </Trackpoint>
          <Trackpoint>
            <Time>2018-12-30T09:21:23.000Z</Time>
            <Position>
              <LatitudeDegrees>40.7458795420825481414794921875</LatitudeDegrees>
              <LongitudeDegrees>-4.0706479735672473907470703125</LongitudeDegrees>
            </Position>
            <AltitudeMeters>1220.199951171875</AltitudeMeters>
            <DistanceMeters>1707.7795243379</DistanceMeters>
          </Trackpoint>
          <Trackpoint>
            <Time>2018-12-30T09:21:24.000Z</Time>
            <Position>
              <LatitudeDegrees>40.7458971440792083740234375</LatitudeDegrees>
              <LongitudeDegrees>-4.07064738683402538299560546875</LongitudeDegrees>
            </Position>
            <AltitudeMeters>1220.4000244140625</AltitudeMeters>
            <DistanceMeters>1709.7385502409</DistanceMeters>
          </Trackpoint>
          <Trackpoint>
            <Time>2018-12-30T09:21:25.000Z</Time>
            <Position>
              <LatitudeDegrees>40.7459127344191074371337890625</LatitudeDegrees>
              <LongitudeDegrees>-4.0706439502537250518798828125</LongitudeDegrees>
            </Position>
            <AltitudeMeters>1220.4000244140625</AltitudeMeters>
            <DistanceMeters>1711.4984696198</DistanceMeters>
          </Trackpoint>
          <Trackpoint>
            <Time>2018-12-30T09:21:26.000Z</Time>
            <Position>
              <LatitudeDegrees>40.74589538387954235076904296875</LatitudeDegrees>
              <LongitudeDegrees>-4.07059676013886928558349609375</LongitudeDegrees>
            </Position>
            <AltitudeMeters>1220.5999755859375</AltitudeMeters>
            <DistanceMeters>1715.9210419005</DistanceMeters>
          </Trackpoint>
          <Trackpoint>
            <Time>2018-12-30T09:21:27.000Z</Time>
            <Position>
              <LatitudeDegrees>40.74588532559573650360107421875</LatitudeDegrees>
              <LongitudeDegrees>-4.070566333830356597900390625</LongitudeDegrees>
            </Position>
            <AltitudeMeters>1220.5999755859375</AltitudeMeters>
            <DistanceMeters>1718.7207037289</DistanceMeters>
          </Trackpoint>
          <Trackpoint>
            <Time>2018-12-30T09:21:28.000Z</Time>
            <Position>
              <LatitudeDegrees>40.74589052237570285797119140625</LatitudeDegrees>
              <LongitudeDegrees>-4.070558957755565643310546875</LongitudeDegrees>
            </Position>
            <AltitudeMeters>1220.5999755859375</AltitudeMeters>
            <DistanceMeters>1719.5706485009</DistanceMeters>
          </Trackpoint>
          <Trackpoint>
            <Time>2018-12-30T09:21:29.000Z</Time>
            <Position>
              <LatitudeDegrees>40.7458885945379734039306640625</LatitudeDegrees>
              <LongitudeDegrees>-4.0705343149602413177490234375</LongitudeDegrees>
            </Position>
            <AltitudeMeters>1220.800048828125</AltitudeMeters>
            <DistanceMeters>1721.661236217</DistanceMeters>
          </Trackpoint>
          <Trackpoint>
            <Time>2018-12-30T09:21:30.000Z</Time>
            <Position>
              <LatitudeDegrees>40.74589706026017665863037109375</LatitudeDegrees>
              <LongitudeDegrees>-4.07052635215222835540771484375</LongitudeDegrees>
            </Position>
            <AltitudeMeters>1221</AltitudeMeters>
            <DistanceMeters>1722.8172860921</DistanceMeters>
          </Trackpoint>
          <Trackpoint>
            <Time>2018-12-30T09:21:31.000Z</Time>
            <Position>
              <LatitudeDegrees>40.745911560952663421630859375</LatitudeDegrees>
              <LongitudeDegrees>-4.07052584923803806304931640625</LongitudeDegrees>
            </Position>
            <AltitudeMeters>1221</AltitudeMeters>
            <DistanceMeters>1724.4299429111</DistanceMeters>
          </Trackpoint>
          <Trackpoint>
            <Time>2018-12-30T09:21:32.000Z</Time>
            <Position>
              <LatitudeDegrees>40.74592086486518383026123046875</LatitudeDegrees>
              <LongitudeDegrees>-4.07051612623035907745361328125</LongitudeDegrees>
            </Position>
            <AltitudeMeters>1221.199951171875</AltitudeMeters>
            <DistanceMeters>1725.7535118856</DistanceMeters>
          </Trackpoint>
          <Trackpoint>
            <Time>2018-12-30T09:21:33.000Z</Time>
            <Position>
              <LatitudeDegrees>40.745931006968021392822265625</LatitudeDegrees>
              <LongitudeDegrees>-4.0705083310604095458984375</LongitudeDegrees>
            </Position>
            <AltitudeMeters>1221.199951171875</AltitudeMeters>
            <DistanceMeters>1727.0633647492</DistanceMeters>
          </Trackpoint>
          <Trackpoint>
            <Time>2018-12-30T09:21:34.000Z</Time>
            <Position>
              <LatitudeDegrees>40.74593863449990749359130859375</LatitudeDegrees>
              <LongitudeDegrees>-4.07049827277660369873046875</LongitudeDegrees>
            </Position>
            <AltitudeMeters>1221.199951171875</AltitudeMeters>
            <DistanceMeters>1728.2653681731</DistanceMeters>
          </Trackpoint>
          <Trackpoint>
            <Time>2018-12-30T09:21:35.000Z</Time>
            <Position>
              <LatitudeDegrees>40.745949447154998779296875</LatitudeDegrees>
              <LongitudeDegrees>-4.07049584202468395233154296875</LongitudeDegrees>
            </Position>
            <AltitudeMeters>1221.199951171875</AltitudeMeters>
            <DistanceMeters>1729.4897017427</DistanceMeters>
          </Trackpoint>
          <Trackpoint>
            <Time>2018-12-30T09:21:36.000Z</Time>
            <Position>
              <LatitudeDegrees>40.74596218764781951904296875</LatitudeDegrees>
              <LongitudeDegrees>-4.07050053589046001434326171875</LongitudeDegrees>
            </Position>
            <AltitudeMeters>1221</AltitudeMeters>
            <DistanceMeters>1730.9587790961</DistanceMeters>
          </Trackpoint>
          <Trackpoint>
            <Time>2018-12-30T09:21:37.000Z</Time>
            <Position>
              <LatitudeDegrees>40.74597652070224285125732421875</LatitudeDegrees>
              <LongitudeDegrees>-4.07050766050815582275390625</LongitudeDegrees>
            </Position>
            <AltitudeMeters>1220.800048828125</AltitudeMeters>
            <DistanceMeters>1732.6639725206</DistanceMeters>
          </Trackpoint>
          <Trackpoint>
            <Time>2018-12-30T09:21:38.000Z</Time>
            <Position>
              <LatitudeDegrees>40.745993368327617645263671875</LatitudeDegrees>
              <LongitudeDegrees>-4.07050640322268009185791015625</LongitudeDegrees>
            </Position>
            <AltitudeMeters>1220.800048828125</AltitudeMeters>
            <DistanceMeters>1734.5405997646</DistanceMeters>
          </Trackpoint>
          <Trackpoint>
            <Time>2018-12-30T09:21:39.000Z</Time>
            <Position>
              <LatitudeDegrees>40.746007449924945831298828125</LatitudeDegrees>
              <LongitudeDegrees>-4.07051034271717071533203125</LongitudeDegrees>
            </Position>
            <AltitudeMeters>1220.800048828125</AltitudeMeters>
            <DistanceMeters>1736.1420184201</DistanceMeters>
          </Trackpoint>
          <Trackpoint>
            <Time>2018-12-30T09:21:40.000Z</Time>
            <Position>
              <LatitudeDegrees>40.7460190169513225555419921875</LatitudeDegrees>
              <LongitudeDegrees>-4.07050807960331439971923828125</LongitudeDegrees>
            </Position>
            <AltitudeMeters>1220.800048828125</AltitudeMeters>
            <DistanceMeters>1737.4449590831</DistanceMeters>
          </Trackpoint>
          <Trackpoint>
            <Time>2018-12-30T09:21:41.000Z</Time>
            <Position>
              <LatitudeDegrees>40.7460337691009044647216796875</LatitudeDegrees>
              <LongitudeDegrees>-4.070512689650058746337890625</LongitudeDegrees>
            </Position>
            <AltitudeMeters>1221</AltitudeMeters>
            <DistanceMeters>1739.1315159544</DistanceMeters>
          </Trackpoint>
          <Trackpoint>
            <Time>2018-12-30T09:21:42.000Z</Time>
            <Position>
              <LatitudeDegrees>40.7460498623549938201904296875</LatitudeDegrees>
              <LongitudeDegrees>-4.07051838934421539306640625</LongitudeDegrees>
            </Position>
            <AltitudeMeters>1221.199951171875</AltitudeMeters>
            <DistanceMeters>1740.9863634212</DistanceMeters>
          </Trackpoint>
          <Trackpoint>
            <Time>2018-12-30T09:21:43.000Z</Time>
            <Position>
              <LatitudeDegrees>40.74606805108487606048583984375</LatitudeDegrees>
              <LongitudeDegrees>-4.07051973044872283935546875</LongitudeDegrees>
            </Position>
            <AltitudeMeters>1221.4000244140625</AltitudeMeters>
            <DistanceMeters>1743.0155787519</DistanceMeters>
          </Trackpoint>
          <Trackpoint>
            <Time>2018-12-30T09:21:44.000Z</Time>
            <Position>
              <LatitudeDegrees>40.74608213268220424652099609375</LatitudeDegrees>
              <LongitudeDegrees>-4.070520736277103424072265625</LongitudeDegrees>
            </Position>
            <AltitudeMeters>1221.5999755859375</AltitudeMeters>
            <DistanceMeters>1744.5885507623</DistanceMeters>
          </Trackpoint>
          <Trackpoint>
            <Time>2018-12-30T09:21:45.000Z</Time>
            <Position>
              <LatitudeDegrees>40.7460971362888813018798828125</LatitudeDegrees>
              <LongitudeDegrees>-4.0705217421054840087890625</LongitudeDegrees>
            </Position>
            <AltitudeMeters>1221.5999755859375</AltitudeMeters>
            <DistanceMeters>1746.2616687192</DistanceMeters>
          </Trackpoint>
          <Trackpoint>
            <Time>2018-12-30T09:21:46.000Z</Time>
            <Position>
              <LatitudeDegrees>40.7461118884384632110595703125</LatitudeDegrees>
              <LongitudeDegrees>-4.07052534632384777069091796875</LongitudeDegrees>
            </Position>
            <AltitudeMeters>1221.5999755859375</AltitudeMeters>
            <DistanceMeters>1747.9347866761</DistanceMeters>
          </Trackpoint>
          <Trackpoint>
            <Time>2018-12-30T09:21:47.000Z</Time>
            <Position>
              <LatitudeDegrees>40.74612714350223541259765625</LatitudeDegrees>
              <LongitudeDegrees>-4.070528782904148101806640625</LongitudeDegrees>
            </Position>
            <AltitudeMeters>1221.5999755859375</AltitudeMeters>
            <DistanceMeters>1749.6610326686</DistanceMeters>
          </Trackpoint>
          <Trackpoint>
            <Time>2018-12-30T09:21:48.000Z</Time>
            <Position>
              <LatitudeDegrees>40.7461437396705150604248046875</LatitudeDegrees>
              <LongitudeDegrees>-4.07053272239863872528076171875</LongitudeDegrees>
            </Position>
            <AltitudeMeters>1221.800048828125</AltitudeMeters>
            <DistanceMeters>1751.5400643047</DistanceMeters>
          </Trackpoint>
          <Trackpoint>
            <Time>2018-12-30T09:21:49.000Z</Time>
            <Position>
              <LatitudeDegrees>40.7461626827716827392578125</LatitudeDegrees>
              <LongitudeDegrees>-4.07053490169346332550048828125</LongitudeDegrees>
            </Position>
            <AltitudeMeters>1221.800048828125</AltitudeMeters>
            <DistanceMeters>1753.6564097198</DistanceMeters>
          </Trackpoint>
          <Trackpoint>
            <Time>2018-12-30T09:21:50.000Z</Time>
            <Position>
              <LatitudeDegrees>40.7461782731115818023681640625</LatitudeDegrees>
              <LongitudeDegrees>-4.07053875736892223358154296875</LongitudeDegrees>
            </Position>
            <AltitudeMeters>1221.800048828125</AltitudeMeters>
            <DistanceMeters>1755.4214526012</DistanceMeters>
          </Trackpoint>
          <Trackpoint>
            <Time>2018-12-30T09:21:51.000Z</Time>
            <Position>
              <LatitudeDegrees>40.746196210384368896484375</LatitudeDegrees>
              <LongitudeDegrees>-4.07054009847342967987060546875</LongitudeDegrees>
            </Position>
            <AltitudeMeters>1221.800048828125</AltitudeMeters>
            <DistanceMeters>1757.4192748627</DistanceMeters>
          </Trackpoint>
          <Trackpoint>
            <Time>2018-12-30T09:21:52.000Z</Time>
            <Position>
              <LatitudeDegrees>40.7462141476571559906005859375</LatitudeDegrees>
              <LongitudeDegrees>-4.0705393441021442413330078125</LongitudeDegrees>
            </Position>
            <AltitudeMeters>1222</AltitudeMeters>
            <DistanceMeters>1759.4170971241</DistanceMeters>
          </Trackpoint>
          <Trackpoint>
            <Time>2018-12-30T09:21:53.000Z</Time>
            <Position>
              <LatitudeDegrees>40.74622781015932559967041015625</LatitudeDegrees>
              <LongitudeDegrees>-4.0705393441021442413330078125</LongitudeDegrees>
            </Position>
            <AltitudeMeters>1222</AltitudeMeters>
            <DistanceMeters>1760.937524554</DistanceMeters>
          </Trackpoint>
          <Trackpoint>
            <Time>2018-12-30T09:21:54.000Z</Time>
            <Position>
              <LatitudeDegrees>40.74624113738536834716796875</LatitudeDegrees>
              <LongitudeDegrees>-4.070539511740207672119140625</LongitudeDegrees>
            </Position>
            <AltitudeMeters>1222</AltitudeMeters>
            <DistanceMeters>1762.4188444303</DistanceMeters>
          </Trackpoint>
          <Trackpoint>
            <Time>2018-12-30T09:21:55.000Z</Time>
            <Position>
              <LatitudeDegrees>40.74625127948820590972900390625</LatitudeDegrees>
              <LongitudeDegrees>-4.07053406350314617156982421875</LongitudeDegrees>
            </Position>
            <AltitudeMeters>1222</AltitudeMeters>
            <DistanceMeters>1763.6357801463</DistanceMeters>
          </Trackpoint>
          <Trackpoint>
            <Time>2018-12-30T09:21:56.000Z</Time>
            <Position>
              <LatitudeDegrees>40.746258236467838287353515625</LatitudeDegrees>
              <LongitudeDegrees>-4.0705326385796070098876953125</LongitudeDegrees>
            </Position>
            <AltitudeMeters>1222</AltitudeMeters>
            <DistanceMeters>1764.4193905075</DistanceMeters>
          </Trackpoint>
          <Trackpoint>
            <Time>2018-12-30T09:21:57.000Z</Time>
            <Position>
              <LatitudeDegrees>40.746270976960659027099609375</LatitudeDegrees>
              <LongitudeDegrees>-4.0705359913408756256103515625</LongitudeDegrees>
            </Position>
            <AltitudeMeters>1222</AltitudeMeters>
            <DistanceMeters>1765.8636715253</DistanceMeters>
          </Trackpoint>
          <Trackpoint>
            <Time>2018-12-30T09:21:58.000Z</Time>
            <Position>
              <LatitudeDegrees>40.74628564529120922088623046875</LatitudeDegrees>
              <LongitudeDegrees>-4.07054646871984004974365234375</LongitudeDegrees>
            </Position>
            <AltitudeMeters>1222</AltitudeMeters>
            <DistanceMeters>1767.72095158</DistanceMeters>
          </Trackpoint>
          <Trackpoint>
            <Time>2018-12-30T09:21:59.000Z</Time>
            <Position>
              <LatitudeDegrees>40.74629972688853740692138671875</LatitudeDegrees>
              <LongitudeDegrees>-4.07054898329079151153564453125</LongitudeDegrees>
            </Position>
            <AltitudeMeters>1222</AltitudeMeters>
            <DistanceMeters>1769.3053635376</DistanceMeters>
          </Trackpoint>
          <Trackpoint>
            <Time>2018-12-30T09:22:00.000Z</Time>
            <Position>
              <LatitudeDegrees>40.746327973902225494384765625</LatitudeDegrees>
              <LongitudeDegrees>-4.07055585645139217376708984375</LongitudeDegrees>
            </Position>
            <AltitudeMeters>1222</AltitudeMeters>
            <DistanceMeters>1772.501144578</DistanceMeters>
          </Trackpoint>
          <Trackpoint>
            <Time>2018-12-30T09:22:01.000Z</Time>
            <Position>
              <LatitudeDegrees>40.746327973902225494384765625</LatitudeDegrees>
              <LongitudeDegrees>-4.07055585645139217376708984375</LongitudeDegrees>
            </Position>
            <AltitudeMeters>1222</AltitudeMeters>
            <DistanceMeters>1772.501144578</DistanceMeters>
          </Trackpoint>
          <Trackpoint>
            <Time>2018-12-30T09:22:02.000Z</Time>
            <Position>
              <LatitudeDegrees>40.7463398762047290802001953125</LatitudeDegrees>
              <LongitudeDegrees>-4.07055937685072422027587890625</LongitudeDegrees>
            </Position>
            <AltitudeMeters>1222</AltitudeMeters>
            <DistanceMeters>1773.858397537</DistanceMeters>
          </Trackpoint>
          <Trackpoint>
            <Time>2018-12-30T09:22:03.000Z</Time>
            <Position>
              <LatitudeDegrees>40.74635638855397701263427734375</LatitudeDegrees>
              <LongitudeDegrees>-4.0705641545355319976806640625</LongitudeDegrees>
            </Position>
            <AltitudeMeters>1221.800048828125</AltitudeMeters>
            <DistanceMeters>1775.7398304925</DistanceMeters>
          </Trackpoint>
          <Trackpoint>
            <Time>2018-12-30T09:22:04.000Z</Time>
            <Position>
              <LatitudeDegrees>40.74636627919971942901611328125</LatitudeDegrees>
              <LongitudeDegrees>-4.07056205905973911285400390625</LongitudeDegrees>
            </Position>
            <AltitudeMeters>1221.800048828125</AltitudeMeters>
            <DistanceMeters>1776.8520896677</DistanceMeters>
          </Trackpoint>
          <Trackpoint>
            <Time>2018-12-30T09:22:05.000Z</Time>
            <Position>
              <LatitudeDegrees>40.74638270772993564605712890625</LatitudeDegrees>
              <LongitudeDegrees>-4.07056742347776889801025390625</LongitudeDegrees>
            </Position>
            <AltitudeMeters>1221.800048828125</AltitudeMeters>
            <DistanceMeters>1778.7335226232</DistanceMeters>
          </Trackpoint>
          <Trackpoint>
            <Time>2018-12-30T09:22:06.000Z</Time>
            <Position>
              <LatitudeDegrees>40.74639326892793178558349609375</LatitudeDegrees>
              <LongitudeDegrees>-4.07057337462902069091796875</LongitudeDegrees>
            </Position>
            <AltitudeMeters>1221.800048828125</AltitudeMeters>
            <DistanceMeters>1780.0119763127</DistanceMeters>
          </Trackpoint>
          <Trackpoint>
            <Time>2018-12-30T09:22:07.000Z</Time>
            <Position>
              <LatitudeDegrees>40.7464029081165790557861328125</LatitudeDegrees>
              <LongitudeDegrees>-4.07057731412351131439208984375</LongitudeDegrees>
            </Position>
            <AltitudeMeters>1221.800048828125</AltitudeMeters>
            <DistanceMeters>1781.1323247521</DistanceMeters>
          </Trackpoint>
          <Trackpoint>
            <Time>2018-12-30T09:22:08.000Z</Time>
            <Position>
              <LatitudeDegrees>40.74641145765781402587890625</LatitudeDegrees>
              <LongitudeDegrees>-4.0705825947225093841552734375</LongitudeDegrees>
            </Position>
            <AltitudeMeters>1221.800048828125</AltitudeMeters>
            <DistanceMeters>1782.1819291186</DistanceMeters>
          </Trackpoint>
          <Trackpoint>
            <Time>2018-12-30T09:22:09.000Z</Time>
            <Position>
              <LatitudeDegrees>40.746420510113239288330078125</LatitudeDegrees>
              <LongitudeDegrees>-4.07059156335890293121337890625</LongitudeDegrees>
            </Position>
            <AltitudeMeters>1222</AltitudeMeters>
            <DistanceMeters>1783.4426009451</DistanceMeters>
          </Trackpoint>
          <Trackpoint>
            <Time>2018-12-30T09:22:10.000Z</Time>
            <Position>
              <LatitudeDegrees>40.74642864055931568145751953125</LatitudeDegrees>
              <LongitudeDegrees>-4.0705980174243450164794921875</LongitudeDegrees>
            </Position>
            <AltitudeMeters>1222</AltitudeMeters>
            <DistanceMeters>1784.5007736527</DistanceMeters>
          </Trackpoint>
          <Trackpoint>
            <Time>2018-12-30T09:22:11.000Z</Time>
            <Position>
              <LatitudeDegrees>40.74644087813794612884521484375</LatitudeDegrees>
              <LongitudeDegrees>-4.07060245983302593231201171875</LongitudeDegrees>
            </Position>
            <AltitudeMeters>1222.199951171875</AltitudeMeters>
            <DistanceMeters>1785.9166398083</DistanceMeters>
          </Trackpoint>
          <Trackpoint>
            <Time>2018-12-30T09:22:12.000Z</Time>
            <Position>
              <LatitudeDegrees>40.7464511878788471221923828125</LatitudeDegrees>
              <LongitudeDegrees>-4.07060212455689907073974609375</LongitudeDegrees>
            </Position>
            <AltitudeMeters>1222.199951171875</AltitudeMeters>
            <DistanceMeters>1787.0648519668</DistanceMeters>
          </Trackpoint>
          <Trackpoint>
            <Time>2018-12-30T09:22:13.000Z</Time>
            <Position>
              <LatitudeDegrees>40.7464585639536380767822265625</LatitudeDegrees>
              <LongitudeDegrees>-4.07060044817626476287841796875</LongitudeDegrees>
            </Position>
            <AltitudeMeters>1222.199951171875</AltitudeMeters>
            <DistanceMeters>1787.8932756565</DistanceMeters>
          </Trackpoint>
          <Trackpoint>
            <Time>2018-12-30T09:22:14.000Z</Time>
            <Position>
              <LatitudeDegrees>40.74647306464612483978271484375</LatitudeDegrees>
              <LongitudeDegrees>-4.07061067409813404083251953125</LongitudeDegrees>
            </Position>
            <AltitudeMeters>1222.4000244140625</AltitudeMeters>
            <DistanceMeters>1789.7211510035</DistanceMeters>
          </Trackpoint>
          <Trackpoint>
            <Time>2018-12-30T09:22:15.000Z</Time>
            <Position>
              <LatitudeDegrees>40.74648513458669185638427734375</LatitudeDegrees>
              <LongitudeDegrees>-4.07062106765806674957275390625</LongitudeDegrees>
            </Position>
            <AltitudeMeters>1222.4000244140625</AltitudeMeters>
            <DistanceMeters>1791.322569659</DistanceMeters>
          </Trackpoint>
          <Trackpoint>
            <Time>2018-12-30T09:22:16.000Z</Time>
            <Position>
              <LatitudeDegrees>40.74649837799370288848876953125</LatitudeDegrees>
              <LongitudeDegrees>-4.07063146121799945831298828125</LongitudeDegrees>
            </Position>
            <AltitudeMeters>1222.4000244140625</AltitudeMeters>
            <DistanceMeters>1793.035688115</DistanceMeters>
          </Trackpoint>
          <Trackpoint>
            <Time>2018-12-30T09:22:17.000Z</Time>
            <Position>
              <LatitudeDegrees>40.74650960974395275115966796875</LatitudeDegrees>
              <LongitudeDegrees>-4.070637412369251251220703125</LongitudeDegrees>
            </Position>
            <AltitudeMeters>1222.199951171875</AltitudeMeters>
            <DistanceMeters>1794.3862714859</DistanceMeters>
          </Trackpoint>
          <Trackpoint>
            <Time>2018-12-30T09:22:18.000Z</Time>
            <Position>
              <LatitudeDegrees>40.7465247809886932373046875</LatitudeDegrees>
              <LongitudeDegrees>-4.07064445316791534423828125</LongitudeDegrees>
            </Position>
            <AltitudeMeters>1222.199951171875</AltitudeMeters>
            <DistanceMeters>1796.1792319467</DistanceMeters>
          </Trackpoint>
          <Trackpoint>
            <Time>2018-12-30T09:22:19.000Z</Time>
            <Position>
              <LatitudeDegrees>40.7465400360524654388427734375</LatitudeDegrees>
              <LongitudeDegrees>-4.0706449560821056365966796875</LongitudeDegrees>
            </Position>
            <AltitudeMeters>1222.199951171875</AltitudeMeters>
            <DistanceMeters>1797.8791214908</DistanceMeters>
          </Trackpoint>
          <Trackpoint>
            <Time>2018-12-30T09:22:20.000Z</Time>
            <Position>
              <LatitudeDegrees>40.7465547882020473480224609375</LatitudeDegrees>
              <LongitudeDegrees>-4.0706412680447101593017578125</LongitudeDegrees>
            </Position>
            <AltitudeMeters>1222.199951171875</AltitudeMeters>
            <DistanceMeters>1799.5522394477</DistanceMeters>
          </Trackpoint>
          <Trackpoint>
            <Time>2018-12-30T09:22:21.000Z</Time>
            <Position>
              <LatitudeDegrees>40.74656702578067779541015625</LatitudeDegrees>
              <LongitudeDegrees>-4.0706379152834415435791015625</LongitudeDegrees>
            </Position>
            <AltitudeMeters>1222.199951171875</AltitudeMeters>
            <DistanceMeters>1800.9423604348</DistanceMeters>
          </Trackpoint>
          <Trackpoint>
            <Time>2018-12-30T09:22:22.000Z</Time>
            <Position>
              <LatitudeDegrees>40.746582448482513427734375</LatitudeDegrees>
              <LongitudeDegrees>-4.0706395916640758514404296875</LongitudeDegrees>
            </Position>
            <AltitudeMeters>1222.199951171875</AltitudeMeters>
            <DistanceMeters>1802.6659889186</DistanceMeters>
          </Trackpoint>
          <Trackpoint>
            <Time>2018-12-30T09:22:23.000Z</Time>
            <Position>
              <LatitudeDegrees>40.7465950213372707366943359375</LatitudeDegrees>
              <LongitudeDegrees>-4.0706362389028072357177734375</LongitudeDegrees>
            </Position>
            <AltitudeMeters>1222.4000244140625</AltitudeMeters>
            <DistanceMeters>1804.0945536796</DistanceMeters>
          </Trackpoint>
          <Trackpoint>
            <Time>2018-12-30T09:22:24.000Z</Time>
            <Position>
              <LatitudeDegrees>40.7466084323823451995849609375</LatitudeDegrees>
              <LongitudeDegrees>-4.07063632272183895111083984375</LongitudeDegrees>
            </Position>
            <AltitudeMeters>1222.800048828125</AltitudeMeters>
            <DistanceMeters>1805.5880157252</DistanceMeters>
          </Trackpoint>
          <Trackpoint>
            <Time>2018-12-30T09:22:25.000Z</Time>
            <Position>
              <LatitudeDegrees>40.7466241903603076934814453125</LatitudeDegrees>
              <LongitudeDegrees>-4.07063799910247325897216796875</LongitudeDegrees>
            </Position>
            <AltitudeMeters>1223</AltitudeMeters>
            <DistanceMeters>1807.3453677513</DistanceMeters>
          </Trackpoint>
          <Trackpoint>
            <Time>2018-12-30T09:22:26.000Z</Time>
            <Position>
              <LatitudeDegrees>40.74664372019469738006591796875</LatitudeDegrees>
              <LongitudeDegrees>-4.07064269296824932098388671875</LongitudeDegrees>
            </Position>
            <AltitudeMeters>1223.199951171875</AltitudeMeters>
            <DistanceMeters>1809.5515434477</DistanceMeters>
          </Trackpoint>
          <Trackpoint>
            <Time>2018-12-30T09:22:27.000Z</Time>
            <Position>
              <LatitudeDegrees>40.7466523535549640655517578125</LatitudeDegrees>
              <LongitudeDegrees>-4.070641100406646728515625</LongitudeDegrees>
            </Position>
            <AltitudeMeters>1223.199951171875</AltitudeMeters>
            <DistanceMeters>1810.5206295895</DistanceMeters>
          </Trackpoint>
          <Trackpoint>
            <Time>2018-12-30T09:22:28.000Z</Time>
            <Position>
              <LatitudeDegrees>40.74666081927716732025146484375</LatitudeDegrees>
              <LongitudeDegrees>-4.07064872793853282928466796875</LongitudeDegrees>
            </Position>
            <AltitudeMeters>1223.4000244140625</AltitudeMeters>
            <DistanceMeters>1811.6609501619</DistanceMeters>
          </Trackpoint>
          <Trackpoint>
            <Time>2018-12-30T09:22:29.000Z</Time>
            <Position>
              <LatitudeDegrees>40.746675990521907806396484375</LatitudeDegrees>
              <LongitudeDegrees>-4.07065509818494319915771484375</LongitudeDegrees>
            </Position>
            <AltitudeMeters>1223.4000244140625</AltitudeMeters>
            <DistanceMeters>1813.4336505321</DistanceMeters>
          </Trackpoint>
          <Trackpoint>
            <Time>2018-12-30T09:22:30.000Z</Time>
            <Position>
              <LatitudeDegrees>40.74668931774795055389404296875</LatitudeDegrees>
              <LongitudeDegrees>-4.0706593729555606842041015625</LongitudeDegrees>
            </Position>
            <AltitudeMeters>1223.4000244140625</AltitudeMeters>
            <DistanceMeters>1814.9629607685</DistanceMeters>
          </Trackpoint>
          <Trackpoint>
            <Time>2018-12-30T09:22:31.000Z</Time>
            <Position>
              <LatitudeDegrees>40.7467026449739933013916015625</LatitudeDegrees>
              <LongitudeDegrees>-4.07066733576357364654541015625</LongitudeDegrees>
            </Position>
            <AltitudeMeters>1223.4000244140625</AltitudeMeters>
            <DistanceMeters>1816.5923295035</DistanceMeters>
          </Trackpoint>
          <Trackpoint>
            <Time>2018-12-30T09:22:32.000Z</Time>
            <Position>
              <LatitudeDegrees>40.74670507572591304779052734375</LatitudeDegrees>
              <LongitudeDegrees>-4.070663563907146453857421875</LongitudeDegrees>
            </Position>
            <AltitudeMeters>1223.5999755859375</AltitudeMeters>
            <DistanceMeters>1816.9954937082</DistanceMeters>
          </Trackpoint>
          <Trackpoint>
            <Time>2018-12-30T09:22:33.000Z</Time>
            <Position>
              <LatitudeDegrees>40.74672435410320758819580078125</LatitudeDegrees>
              <LongitudeDegrees>-4.0706687606871128082275390625</LongitudeDegrees>
            </Position>
            <AltitudeMeters>1223.4000244140625</AltitudeMeters>
            <DistanceMeters>1819.1831729615</DistanceMeters>
          </Trackpoint>
          <Trackpoint>
            <Time>2018-12-30T09:22:34.000Z</Time>
            <Position>
              <LatitudeDegrees>40.7467378489673137664794921875</LatitudeDegrees>
              <LongitudeDegrees>-4.0706741251051425933837890625</LongitudeDegrees>
            </Position>
            <AltitudeMeters>1223.5999755859375</AltitudeMeters>
            <DistanceMeters>1820.7503936839</DistanceMeters>
          </Trackpoint>
          <Trackpoint>
            <Time>2018-12-30T09:22:35.000Z</Time>
            <Position>
              <LatitudeDegrees>40.74675100855529308319091796875</LatitudeDegrees>
              <LongitudeDegrees>-4.07068091444671154022216796875</LongitudeDegrees>
            </Position>
            <AltitudeMeters>1223.5999755859375</AltitudeMeters>
            <DistanceMeters>1822.3233656944</DistanceMeters>
          </Trackpoint>
          <Trackpoint>
            <Time>2018-12-30T09:22:36.000Z</Time>
            <Position>
              <LatitudeDegrees>40.7467616535723209381103515625</LatitudeDegrees>
              <LongitudeDegrees>-4.07068393193185329437255859375</LongitudeDegrees>
            </Position>
            <AltitudeMeters>1223.5999755859375</AltitudeMeters>
            <DistanceMeters>1823.5365855674</DistanceMeters>
          </Trackpoint>
          <Trackpoint>
            <Time>2018-12-30T09:22:37.000Z</Time>
            <Position>
              <LatitudeDegrees>40.74677414260804653167724609375</LatitudeDegrees>
              <LongitudeDegrees>-4.0706813335418701171875</LongitudeDegrees>
            </Position>
            <AltitudeMeters>1223.800048828125</AltitudeMeters>
            <DistanceMeters>1824.9428525197</DistanceMeters>
          </Trackpoint>
          <Trackpoint>
            <Time>2018-12-30T09:22:38.000Z</Time>
            <Position>
              <LatitudeDegrees>40.7467891462147235870361328125</LatitudeDegrees>
              <LongitudeDegrees>-4.07068795524537563323974609375</LongitudeDegrees>
            </Position>
            <AltitudeMeters>1223.800048828125</AltitudeMeters>
            <DistanceMeters>1826.7027718987</DistanceMeters>
          </Trackpoint>
          <Trackpoint>
            <Time>2018-12-30T09:22:39.000Z</Time>
            <Position>
              <LatitudeDegrees>40.7467985339462757110595703125</LatitudeDegrees>
              <LongitudeDegrees>-4.07069030217826366424560546875</LongitudeDegrees>
            </Position>
            <AltitudeMeters>1223.5999755859375</AltitudeMeters>
            <DistanceMeters>1827.7694441219</DistanceMeters>
          </Trackpoint>
          <Trackpoint>
            <Time>2018-12-30T09:22:40.000Z</Time>
            <Position>
              <LatitudeDegrees>40.74681018479168415069580078125</LatitudeDegrees>
              <LongitudeDegrees>-4.070689715445041656494140625</LongitudeDegrees>
            </Position>
            <AltitudeMeters>1223.5999755859375</AltitudeMeters>
            <DistanceMeters>1829.0654357186</DistanceMeters>
          </Trackpoint>
          <Trackpoint>
            <Time>2018-12-30T09:22:41.000Z</Time>
            <Position>
              <LatitudeDegrees>40.74682543985545635223388671875</LatitudeDegrees>
              <LongitudeDegrees>-4.07069407403469085693359375</LongitudeDegrees>
            </Position>
            <AltitudeMeters>1223.5999755859375</AltitudeMeters>
            <DistanceMeters>1830.8021122954</DistanceMeters>
          </Trackpoint>
          <Trackpoint>
            <Time>2018-12-30T09:22:42.000Z</Time>
            <Position>
              <LatitudeDegrees>40.7468427903950214385986328125</LatitudeDegrees>
              <LongitudeDegrees>-4.07070253975689411163330078125</LongitudeDegrees>
            </Position>
            <AltitudeMeters>1223.5999755859375</AltitudeMeters>
            <DistanceMeters>1832.8600495763</DistanceMeters>
          </Trackpoint>
          <Trackpoint>
            <Time>2018-12-30T09:22:43.000Z</Time>
            <Position>
              <LatitudeDegrees>40.746853686869144439697265625</LatitudeDegrees>
              <LongitudeDegrees>-4.07070924527943134307861328125</LongitudeDegrees>
            </Position>
            <AltitudeMeters>1223.4000244140625</AltitudeMeters>
            <DistanceMeters>1834.2039302588</DistanceMeters>
          </Trackpoint>
          <Trackpoint>
            <Time>2018-12-30T09:22:44.000Z</Time>
            <Position>
              <LatitudeDegrees>40.74686785228550434112548828125</LatitudeDegrees>
              <LongitudeDegrees>-4.0707059763371944427490234375</LongitudeDegrees>
            </Position>
            <AltitudeMeters>1223.4000244140625</AltitudeMeters>
            <DistanceMeters>1835.8053489142</DistanceMeters>
          </Trackpoint>
          <Trackpoint>
            <Time>2018-12-30T09:22:45.000Z</Time>
            <Position>
              <LatitudeDegrees>40.74688260443508625030517578125</LatitudeDegrees>
              <LongitudeDegrees>-4.07071175985038280487060546875</LongitudeDegrees>
            </Position>
            <AltitudeMeters>1223.5999755859375</AltitudeMeters>
            <DistanceMeters>1837.5184673702</DistanceMeters>
          </Trackpoint>
          <Trackpoint>
            <Time>2018-12-30T09:22:46.000Z</Time>
            <Position>
              <LatitudeDegrees>40.7468937523663043975830078125</LatitudeDegrees>
              <LongitudeDegrees>-4.070712514221668243408203125</LongitudeDegrees>
            </Position>
            <AltitudeMeters>1224</AltitudeMeters>
            <DistanceMeters>1838.7647310455</DistanceMeters>
          </Trackpoint>
          <Trackpoint>
            <Time>2018-12-30T09:22:47.000Z</Time>
            <Position>
              <LatitudeDegrees>40.74690900743007659912109375</LatitudeDegrees>
              <LongitudeDegrees>-4.07072232104837894439697265625</LongitudeDegrees>
            </Position>
            <AltitudeMeters>1224.5999755859375</AltitudeMeters>
            <DistanceMeters>1840.6557387853</DistanceMeters>
          </Trackpoint>
          <Trackpoint>
            <Time>2018-12-30T09:22:48.000Z</Time>
            <Position>
              <LatitudeDegrees>40.7469297945499420166015625</LatitudeDegrees>
              <LongitudeDegrees>-4.070729948580265045166015625</LongitudeDegrees>
            </Position>
            <AltitudeMeters>1224.800048828125</AltitudeMeters>
            <DistanceMeters>1843.0559864332</DistanceMeters>
          </Trackpoint>
          <Trackpoint>
            <Time>2018-12-30T09:22:49.000Z</Time>
            <Position>
              <LatitudeDegrees>40.7469463907182216644287109375</LatitudeDegrees>
              <LongitudeDegrees>-4.070738665759563446044921875</LongitudeDegrees>
            </Position>
            <AltitudeMeters>1225</AltitudeMeters>
            <DistanceMeters>1845.0447482295</DistanceMeters>
          </Trackpoint>
          <Trackpoint>
            <Time>2018-12-30T09:22:50.000Z</Time>
            <Position>
              <LatitudeDegrees>40.74695854447782039642333984375</LatitudeDegrees>
              <LongitudeDegrees>-4.07074243761599063873291015625</LongitudeDegrees>
            </Position>
            <AltitudeMeters>1225</AltitudeMeters>
            <DistanceMeters>1846.4348692167</DistanceMeters>
          </Trackpoint>
          <Trackpoint>
            <Time>2018-12-30T09:22:51.000Z</Time>
            <Position>
              <LatitudeDegrees>40.74697614647448062896728515625</LatitudeDegrees>
              <LongitudeDegrees>-4.07073925249278545379638671875</LongitudeDegrees>
            </Position>
            <AltitudeMeters>1225.199951171875</AltitudeMeters>
            <DistanceMeters>1848.4145290806</DistanceMeters>
          </Trackpoint>
          <Trackpoint>
            <Time>2018-12-30T09:22:52.000Z</Time>
            <Position>
              <LatitudeDegrees>40.7469869591295719146728515625</LatitudeDegrees>
              <LongitudeDegrees>-4.07074646092951297760009765625</LongitudeDegrees>
            </Position>
            <AltitudeMeters>1225.4000244140625</AltitudeMeters>
            <DistanceMeters>1849.7651124514</DistanceMeters>
          </Trackpoint>
          <Trackpoint>
            <Time>2018-12-30T09:22:53.000Z</Time>
            <Position>
              <LatitudeDegrees>40.74699743650853633880615234375</LatitudeDegrees>
              <LongitudeDegrees>-4.07075551338493824005126953125</LongitudeDegrees>
            </Position>
            <AltitudeMeters>1225.4000244140625</AltitudeMeters>
            <DistanceMeters>1851.1584775994</DistanceMeters>
          </Trackpoint>
          <Trackpoint>
            <Time>2018-12-30T09:22:54.000Z</Time>
            <Position>
              <LatitudeDegrees>40.74701185338199138641357421875</LatitudeDegrees>
              <LongitudeDegrees>-4.070766158401966094970703125</LongitudeDegrees>
            </Position>
            <AltitudeMeters>1225.199951171875</AltitudeMeters>
            <DistanceMeters>1852.9962067932</DistanceMeters>
          </Trackpoint>
          <Trackpoint>
            <Time>2018-12-30T09:22:55.000Z</Time>
            <Position>
              <LatitudeDegrees>40.7470255158841609954833984375</LatitudeDegrees>
              <LongitudeDegrees>-4.07077294774353504180908203125</LongitudeDegrees>
            </Position>
            <AltitudeMeters>1225.199951171875</AltitudeMeters>
            <DistanceMeters>1854.6200240002</DistanceMeters>
          </Trackpoint>
          <Trackpoint>
            <Time>2018-12-30T09:22:56.000Z</Time>
            <Position>
              <LatitudeDegrees>40.74704756028950214385986328125</LatitudeDegrees>
              <LongitudeDegrees>-4.07077060081064701080322265625</LongitudeDegrees>
            </Position>
            <AltitudeMeters>1225.199951171875</AltitudeMeters>
            <DistanceMeters>1857.0833979812</DistanceMeters>
          </Trackpoint>
          <Trackpoint>
            <Time>2018-12-30T09:22:57.000Z</Time>
            <Position>
              <LatitudeDegrees>40.74704756028950214385986328125</LatitudeDegrees>
              <LongitudeDegrees>-4.07077060081064701080322265625</LongitudeDegrees>
            </Position>
            <AltitudeMeters>1225.199951171875</AltitudeMeters>
            <DistanceMeters>1857.0833979812</DistanceMeters>
          </Trackpoint>
          <Trackpoint>
            <Time>2018-12-30T09:22:58.000Z</Time>
            <Position>
              <LatitudeDegrees>40.74706600047647953033447265625</LatitudeDegrees>
              <LongitudeDegrees>-4.07077646814286708831787109375</LongitudeDegrees>
            </Position>
            <AltitudeMeters>1225.199951171875</AltitudeMeters>
            <DistanceMeters>1859.195472261</DistanceMeters>
          </Trackpoint>
          <Trackpoint>
            <Time>2018-12-30T09:22:59.000Z</Time>
            <Position>
              <LatitudeDegrees>40.7470768131315708160400390625</LatitudeDegrees>
              <LongitudeDegrees>-4.07076942734420299530029296875</LongitudeDegrees>
            </Position>
            <AltitudeMeters>1225.199951171875</AltitudeMeters>
            <DistanceMeters>1860.5393529435</DistanceMeters>
          </Trackpoint>
          <Trackpoint>
            <Time>2018-12-30T09:23:00.000Z</Time>
            <Position>
              <LatitudeDegrees>40.74708913452923297882080078125</LatitudeDegrees>
              <LongitudeDegrees>-4.0707690082490444183349609375</LongitudeDegrees>
            </Position>
            <AltitudeMeters>1225.4000244140625</AltitudeMeters>
            <DistanceMeters>1861.9098477083</DistanceMeters>
          </Trackpoint>
          <Trackpoint>
            <Time>2018-12-30T09:23:01.000Z</Time>
            <Position>
              <LatitudeDegrees>40.74710053391754627227783203125</LatitudeDegrees>
              <LongitudeDegrees>-4.07076506875455379486083984375</LongitudeDegrees>
            </Position>
            <AltitudeMeters>1225.4000244140625</AltitudeMeters>
            <DistanceMeters>1863.2197005719</DistanceMeters>
          </Trackpoint>
          <Trackpoint>
            <Time>2018-12-30T09:23:02.000Z</Time>
            <Position>
              <LatitudeDegrees>40.74711243622004985809326171875</LatitudeDegrees>
              <LongitudeDegrees>-4.070770181715488433837890625</LongitudeDegrees>
            </Position>
            <AltitudeMeters>1225.199951171875</AltitudeMeters>
            <DistanceMeters>1864.6163023448</DistanceMeters>
          </Trackpoint>
          <Trackpoint>
            <Time>2018-12-30T09:23:03.000Z</Time>
            <Position>
              <LatitudeDegrees>40.74712584726512432098388671875</LatitudeDegrees>
              <LongitudeDegrees>-4.070772193372249603271484375</LongitudeDegrees>
            </Position>
            <AltitudeMeters>1225</AltitudeMeters>
            <DistanceMeters>1866.1188066246</DistanceMeters>
          </Trackpoint>
          <Trackpoint>
            <Time>2018-12-30T09:23:04.000Z</Time>
            <Position>
              <LatitudeDegrees>40.74714244343340396881103515625</LatitudeDegrees>
              <LongitudeDegrees>-4.0707763843238353729248046875</LongitudeDegrees>
            </Position>
            <AltitudeMeters>1224.800048828125</AltitudeMeters>
            <DistanceMeters>1868.0002395801</DistanceMeters>
          </Trackpoint>
          <Trackpoint>
            <Time>2018-12-30T09:23:05.000Z</Time>
            <Position>
              <LatitudeDegrees>40.74715283699333667755126953125</LatitudeDegrees>
              <LongitudeDegrees>-4.0707783959805965423583984375</LongitudeDegrees>
            </Position>
            <AltitudeMeters>1224.5999755859375</AltitudeMeters>
            <DistanceMeters>1869.1640743908</DistanceMeters>
          </Trackpoint>
          <Trackpoint>
            <Time>2018-12-30T09:23:06.000Z</Time>
            <Position>
              <LatitudeDegrees>40.7471636496484279632568359375</LatitudeDegrees>
              <LongitudeDegrees>-4.0707800723612308502197265625</LongitudeDegrees>
            </Position>
            <AltitudeMeters>1224.5999755859375</AltitudeMeters>
            <DistanceMeters>1870.3735670051</DistanceMeters>
          </Trackpoint>
          <Trackpoint>
            <Time>2018-12-30T09:23:07.000Z</Time>
            <Position>
              <LatitudeDegrees>40.7471738755702972412109375</LatitudeDegrees>
              <LongitudeDegrees>-4.07077948562800884246826171875</LongitudeDegrees>
            </Position>
            <AltitudeMeters>1224.5999755859375</AltitudeMeters>
            <DistanceMeters>1871.5138875775</DistanceMeters>
          </Trackpoint>
          <Trackpoint>
            <Time>2018-12-30T09:23:08.000Z</Time>
            <Position>
              <LatitudeDegrees>40.74718016199767589569091796875</LatitudeDegrees>
              <LongitudeDegrees>-4.0707765519618988037109375</LongitudeDegrees>
            </Position>
            <AltitudeMeters>1224.5999755859375</AltitudeMeters>
            <DistanceMeters>1872.2621286747</DistanceMeters>
          </Trackpoint>
          <Trackpoint>
            <Time>2018-12-30T09:23:09.000Z</Time>
            <Position>
              <LatitudeDegrees>40.74718527495861053466796875</LatitudeDegrees>
              <LongitudeDegrees>-4.0707908011972904205322265625</LongitudeDegrees>
            </Position>
            <AltitudeMeters>1224.800048828125</AltitudeMeters>
            <DistanceMeters>1873.5925026759</DistanceMeters>
          </Trackpoint>
          <Trackpoint>
            <Time>2018-12-30T09:23:10.000Z</Time>
            <Position>
              <LatitudeDegrees>40.7471934892237186431884765625</LatitudeDegrees>
              <LongitudeDegrees>-4.0707978419959545135498046875</LongitudeDegrees>
            </Position>
            <AltitudeMeters>1225.199951171875</AltitudeMeters>
            <DistanceMeters>1874.6842765035</DistanceMeters>
          </Trackpoint>
          <Trackpoint>
            <Time>2018-12-30T09:23:11.000Z</Time>
            <Position>
              <LatitudeDegrees>40.747210085391998291015625</LatitudeDegrees>
              <LongitudeDegrees>-4.07080178149044513702392578125</LongitudeDegrees>
            </Position>
            <AltitudeMeters>1225.4000244140625</AltitudeMeters>
            <DistanceMeters>1876.5609037475</DistanceMeters>
          </Trackpoint>
          <Trackpoint>
            <Time>2018-12-30T09:23:12.000Z</Time>
            <Position>
              <LatitudeDegrees>40.7472243346273899078369140625</LatitudeDegrees>
              <LongitudeDegrees>-4.07079658471047878265380859375</LongitudeDegrees>
            </Position>
            <AltitudeMeters>1225.5999755859375</AltitudeMeters>
            <DistanceMeters>1878.2040692464</DistanceMeters>
          </Trackpoint>
          <Trackpoint>
            <Time>2018-12-30T09:23:13.000Z</Time>
            <Position>
              <LatitudeDegrees>40.74723565019667148590087890625</LatitudeDegrees>
              <LongitudeDegrees>-4.07079306431114673614501953125</LongitudeDegrees>
            </Position>
            <AltitudeMeters>1225.800048828125</AltitudeMeters>
            <DistanceMeters>1879.5000608431</DistanceMeters>
          </Trackpoint>
          <Trackpoint>
            <Time>2018-12-30T09:23:14.000Z</Time>
            <Position>
              <LatitudeDegrees>40.7472464628517627716064453125</LatitudeDegrees>
              <LongitudeDegrees>-4.07079222612082958221435546875</LongitudeDegrees>
            </Position>
            <AltitudeMeters>1225.800048828125</AltitudeMeters>
            <DistanceMeters>1880.7095534573</DistanceMeters>
          </Trackpoint>
          <Trackpoint>
            <Time>2018-12-30T09:23:15.000Z</Time>
            <Position>
              <LatitudeDegrees>40.747253000736236572265625</LatitudeDegrees>
              <LongitudeDegrees>-4.07079105265438556671142578125</LongitudeDegrees>
            </Position>
            <AltitudeMeters>1226.199951171875</AltitudeMeters>
            <DistanceMeters>1881.4456272217</DistanceMeters>
          </Trackpoint>
          <Trackpoint>
            <Time>2018-12-30T09:23:16.000Z</Time>
            <Position>
              <LatitudeDegrees>40.74725945480167865753173828125</LatitudeDegrees>
              <LongitudeDegrees>-4.07079331576824188232421875</LongitudeDegrees>
            </Position>
            <AltitudeMeters>1226.4000244140625</AltitudeMeters>
            <DistanceMeters>1882.1938683189</DistanceMeters>
          </Trackpoint>
          <Trackpoint>
            <Time>2018-12-30T09:23:17.000Z</Time>
            <Position>
              <LatitudeDegrees>40.74726951308548450469970703125</LatitudeDegrees>
              <LongitudeDegrees>-4.07079641707241535186767578125</LongitudeDegrees>
            </Position>
            <AltitudeMeters>1226.4000244140625</AltitudeMeters>
            <DistanceMeters>1883.3420804773</DistanceMeters>
          </Trackpoint>
          <Trackpoint>
            <Time>2018-12-30T09:23:18.000Z</Time>
            <Position>
              <LatitudeDegrees>40.74727403931319713592529296875</LatitudeDegrees>
              <LongitudeDegrees>-4.0707886219024658203125</LongitudeDegrees>
            </Position>
            <AltitudeMeters>1226.5999755859375</AltitudeMeters>
            <DistanceMeters>1884.1759365118</DistanceMeters>
          </Trackpoint>
          <Trackpoint>
            <Time>2018-12-30T09:23:19.000Z</Time>
            <Position>
              <LatitudeDegrees>40.74727906845510005950927734375</LatitudeDegrees>
              <LongitudeDegrees>-4.0707901306450366973876953125</LongitudeDegrees>
            </Position>
            <AltitudeMeters>1226.5999755859375</AltitudeMeters>
            <DistanceMeters>1884.7617205205</DistanceMeters>
          </Trackpoint>
          <Trackpoint>
            <Time>2018-12-30T09:23:20.000Z</Time>
            <Position>
              <LatitudeDegrees>40.74728493578732013702392578125</LatitudeDegrees>
              <LongitudeDegrees>-4.0707921423017978668212890625</LongitudeDegrees>
            </Position>
            <AltitudeMeters>1226.5999755859375</AltitudeMeters>
            <DistanceMeters>1885.4336608618</DistanceMeters>
          </Trackpoint>
          <Trackpoint>
            <Time>2018-12-30T09:23:21.000Z</Time>
            <Position>
              <LatitudeDegrees>40.74729247950017452239990234375</LatitudeDegrees>
              <LongitudeDegrees>-4.0707938186824321746826171875</LongitudeDegrees>
            </Position>
            <AltitudeMeters>1226.5999755859375</AltitudeMeters>
            <DistanceMeters>1886.2836056338</DistanceMeters>
          </Trackpoint>
          <Trackpoint>
            <Time>2018-12-30T09:23:22.000Z</Time>
            <Position>
              <LatitudeDegrees>40.747304968535900115966796875</LatitudeDegrees>
              <LongitudeDegrees>-4.07079490832984447479248046875</LongitudeDegrees>
            </Position>
            <AltitudeMeters>1226.5999755859375</AltitudeMeters>
            <DistanceMeters>1887.673726621</DistanceMeters>
          </Trackpoint>
          <Trackpoint>
            <Time>2018-12-30T09:23:23.000Z</Time>
            <Position>
              <LatitudeDegrees>40.7473175413906574249267578125</LatitudeDegrees>
              <LongitudeDegrees>-4.07079557888209819793701171875</LongitudeDegrees>
            </Position>
            <AltitudeMeters>1226.5999755859375</AltitudeMeters>
            <DistanceMeters>1889.0767792446</DistanceMeters>
          </Trackpoint>
          <Trackpoint>
            <Time>2018-12-30T09:23:24.000Z</Time>
            <Position>
              <LatitudeDegrees>40.747331120073795318603515625</LatitudeDegrees>
              <LongitudeDegrees>-4.070797003805637359619140625</LongitudeDegrees>
            </Position>
            <AltitudeMeters>1226.5999755859375</AltitudeMeters>
            <DistanceMeters>1890.5912558594</DistanceMeters>
          </Trackpoint>
          <Trackpoint>
            <Time>2018-12-30T09:23:25.000Z</Time>
            <Position>
              <LatitudeDegrees>40.74734293855726718902587890625</LatitudeDegrees>
              <LongitudeDegrees>-4.0707934834063053131103515625</LongitudeDegrees>
            </Position>
            <AltitudeMeters>1226.5999755859375</AltitudeMeters>
            <DistanceMeters>1891.9384920545</DistanceMeters>
          </Trackpoint>
          <Trackpoint>
            <Time>2018-12-30T09:23:26.000Z</Time>
            <Position>
              <LatitudeDegrees>40.74735148809850215911865234375</LatitudeDegrees>
              <LongitudeDegrees>-4.0707877837121486663818359375</LongitudeDegrees>
            </Position>
            <AltitudeMeters>1226.5999755859375</AltitudeMeters>
            <DistanceMeters>1893.0051642778</DistanceMeters>
          </Trackpoint>
          <Trackpoint>
            <Time>2018-12-30T09:23:27.000Z</Time>
            <Position>
              <LatitudeDegrees>40.74736154638230800628662109375</LatitudeDegrees>
              <LongitudeDegrees>-4.07078267075121402740478515625</LongitudeDegrees>
            </Position>
            <AltitudeMeters>1226.800048828125</AltitudeMeters>
            <DistanceMeters>1894.2071677017</DistanceMeters>
          </Trackpoint>
          <Trackpoint>
            <Time>2018-12-30T09:23:28.000Z</Time>
            <Position>
              <LatitudeDegrees>40.747372023761272430419921875</LatitudeDegrees>
              <LongitudeDegrees>-4.07078585587441921234130859375</LongitudeDegrees>
            </Position>
            <AltitudeMeters>1227</AltitudeMeters>
            <DistanceMeters>1895.4054089773</DistanceMeters>
          </Trackpoint>
          <Trackpoint>
            <Time>2018-12-30T09:23:29.000Z</Time>
            <Position>
              <LatitudeDegrees>40.74738082475960254669189453125</LatitudeDegrees>
              <LongitudeDegrees>-4.07078661024570465087890625</LongitudeDegrees>
            </Position>
            <AltitudeMeters>1227.199951171875</AltitudeMeters>
            <DistanceMeters>1896.3929555615</DistanceMeters>
          </Trackpoint>
          <Trackpoint>
            <Time>2018-12-30T09:23:30.000Z</Time>
            <Position>
              <LatitudeDegrees>40.7473884522914886474609375</LatitudeDegrees>
              <LongitudeDegrees>-4.070780910551548004150390625</LongitudeDegrees>
            </Position>
            <AltitudeMeters>1227.4000244140625</AltitudeMeters>
            <DistanceMeters>1897.3713154661</DistanceMeters>
          </Trackpoint>
          <Trackpoint>
            <Time>2018-12-30T09:23:31.000Z</Time>
            <Position>
              <LatitudeDegrees>40.7473963312804698944091796875</LatitudeDegrees>
              <LongitudeDegrees>-4.07078149728477001190185546875</LongitudeDegrees>
            </Position>
            <AltitudeMeters>1227.5999755859375</AltitudeMeters>
            <DistanceMeters>1898.2525569621</DistanceMeters>
          </Trackpoint>
          <Trackpoint>
            <Time>2018-12-30T09:23:32.000Z</Time>
            <Position>
              <LatitudeDegrees>40.74740496464073657989501953125</LatitudeDegrees>
              <LongitudeDegrees>-4.07078200019896030426025390625</LongitudeDegrees>
            </Position>
            <AltitudeMeters>1227.5999755859375</AltitudeMeters>
            <DistanceMeters>1899.2122797331</DistanceMeters>
          </Trackpoint>
          <Trackpoint>
            <Time>2018-12-30T09:23:33.000Z</Time>
            <Position>
              <LatitudeDegrees>40.747412927448749542236328125</LatitudeDegrees>
              <LongitudeDegrees>-4.07078233547508716583251953125</LongitudeDegrees>
            </Position>
            <AltitudeMeters>1227.5999755859375</AltitudeMeters>
            <DistanceMeters>1900.0986299182</DistanceMeters>
          </Trackpoint>
          <Trackpoint>
            <Time>2018-12-30T09:23:34.000Z</Time>
            <Position>
              <LatitudeDegrees>40.7474167831242084503173828125</LatitudeDegrees>
              <LongitudeDegrees>-4.070778228342533111572265625</LongitudeDegrees>
            </Position>
            <AltitudeMeters>1227.5999755859375</AltitudeMeters>
            <DistanceMeters>1900.6527261185</DistanceMeters>
          </Trackpoint>
          <Trackpoint>
            <Time>2018-12-30T09:23:35.000Z</Time>
            <Position>
              <LatitudeDegrees>40.7474251650273799896240234375</LatitudeDegrees>
              <LongitudeDegrees>-4.07077847979962825775146484375</LongitudeDegrees>
            </Position>
            <AltitudeMeters>1227.5999755859375</AltitudeMeters>
            <DistanceMeters>1901.583793967</DistanceMeters>
          </Trackpoint>
          <Trackpoint>
            <Time>2018-12-30T09:23:36.000Z</Time>
            <Position>
              <LatitudeDegrees>40.7474345527589321136474609375</LatitudeDegrees>
              <LongitudeDegrees>-4.07078334130346775054931640625</LongitudeDegrees>
            </Position>
            <AltitudeMeters>1227.5999755859375</AltitudeMeters>
            <DistanceMeters>1902.7081652145</DistanceMeters>
          </Trackpoint>
          <Trackpoint>
            <Time>2018-12-30T09:23:37.000Z</Time>
            <Position>
              <LatitudeDegrees>40.7474496401846408843994140625</LatitudeDegrees>
              <LongitudeDegrees>-4.07078853808343410491943359375</LongitudeDegrees>
            </Position>
            <AltitudeMeters>1227.5999755859375</AltitudeMeters>
            <DistanceMeters>1904.4448417913</DistanceMeters>
          </Trackpoint>
          <Trackpoint>
            <Time>2018-12-30T09:23:38.000Z</Time>
            <Position>
              <LatitudeDegrees>40.7474648952484130859375</LatitudeDegrees>
              <LongitudeDegrees>-4.0707881189882755279541015625</LongitudeDegrees>
            </Position>
            <AltitudeMeters>1227.800048828125</AltitudeMeters>
            <DistanceMeters>1906.1394108542</DistanceMeters>
          </Trackpoint>
          <Trackpoint>
            <Time>2018-12-30T09:23:39.000Z</Time>
            <Position>
              <LatitudeDegrees>40.74747562408447265625</LatitudeDegrees>
              <LongitudeDegrees>-4.0707845985889434814453125</LongitudeDegrees>
            </Position>
            <AltitudeMeters>1227.800048828125</AltitudeMeters>
            <DistanceMeters>1907.3710978447</DistanceMeters>
          </Trackpoint>
          <Trackpoint>
            <Time>2018-12-30T09:23:40.000Z</Time>
            <Position>
              <LatitudeDegrees>40.7474888674914836883544921875</LatitudeDegrees>
              <LongitudeDegrees>-4.07079088501632213592529296875</LongitudeDegrees>
            </Position>
            <AltitudeMeters>1228</AltitudeMeters>
            <DistanceMeters>1908.9383185671</DistanceMeters>
          </Trackpoint>
          <Trackpoint>
            <Time>2018-12-30T09:23:41.000Z</Time>
            <Position>
              <LatitudeDegrees>40.74750387109816074371337890625</LatitudeDegrees>
              <LongitudeDegrees>-4.0708058886229991912841796875</LongitudeDegrees>
            </Position>
            <AltitudeMeters>1228.199951171875</AltitudeMeters>
            <DistanceMeters>1911.0332212264</DistanceMeters>
          </Trackpoint>
          <Trackpoint>
            <Time>2018-12-30T09:23:42.000Z</Time>
            <Position>
              <LatitudeDegrees>40.74751309119164943695068359375</LatitudeDegrees>
              <LongitudeDegrees>-4.07081904821097850799560546875</LongitudeDegrees>
            </Position>
            <AltitudeMeters>1228.199951171875</AltitudeMeters>
            <DistanceMeters>1912.5476978412</DistanceMeters>
          </Trackpoint>
          <Trackpoint>
            <Time>2018-12-30T09:23:43.000Z</Time>
            <Position>
              <LatitudeDegrees>40.74752164073288440704345703125</LatitudeDegrees>
              <LongitudeDegrees>-4.070827849209308624267578125</LongitudeDegrees>
            </Position>
            <AltitudeMeters>1228.199951171875</AltitudeMeters>
            <DistanceMeters>1913.7497012651</DistanceMeters>
          </Trackpoint>
          <Trackpoint>
            <Time>2018-12-30T09:23:44.000Z</Time>
            <Position>
              <LatitudeDegrees>40.747532285749912261962890625</LatitudeDegrees>
              <LongitudeDegrees>-4.07083380036056041717529296875</LongitudeDegrees>
            </Position>
            <AltitudeMeters>1228.4000244140625</AltitudeMeters>
            <DistanceMeters>1915.0316817301</DistanceMeters>
          </Trackpoint>
          <Trackpoint>
            <Time>2018-12-30T09:23:45.000Z</Time>
            <Position>
              <LatitudeDegrees>40.7475475408136844635009765625</LatitudeDegrees>
              <LongitudeDegrees>-4.07083983533084392547607421875</LongitudeDegrees>
            </Position>
            <AltitudeMeters>1228.5999755859375</AltitudeMeters>
            <DistanceMeters>1916.8043821003</DistanceMeters>
          </Trackpoint>
          <Trackpoint>
            <Time>2018-12-30T09:23:46.000Z</Time>
            <Position>
              <LatitudeDegrees>40.74756220914423465728759765625</LatitudeDegrees>
              <LongitudeDegrees>-4.070849977433681488037109375</LongitudeDegrees>
            </Position>
            <AltitudeMeters>1228.800048828125</AltitudeMeters>
            <DistanceMeters>1918.647018457</DistanceMeters>
          </Trackpoint>
          <Trackpoint>
            <Time>2018-12-30T09:23:47.000Z</Time>
            <Position>
              <LatitudeDegrees>40.74757612310349941253662109375</LatitudeDegrees>
              <LongitudeDegrees>-4.0708585269749164581298828125</LongitudeDegrees>
            </Position>
            <AltitudeMeters>1228.800048828125</AltitudeMeters>
            <DistanceMeters>1920.3548576448</DistanceMeters>
          </Trackpoint>
          <Trackpoint>
            <Time>2018-12-30T09:23:48.000Z</Time>
            <Position>
              <LatitudeDegrees>40.7475897856056690216064453125</LatitudeDegrees>
              <LongitudeDegrees>-4.0708623826503753662109375</LongitudeDegrees>
            </Position>
            <AltitudeMeters>1228.800048828125</AltitudeMeters>
            <DistanceMeters>1921.9076069519</DistanceMeters>
          </Trackpoint>
          <Trackpoint>
            <Time>2018-12-30T09:23:49.000Z</Time>
            <Position>
              <LatitudeDegrees>40.74760579504072666168212890625</LatitudeDegrees>
              <LongitudeDegrees>-4.0708652324974536895751953125</LongitudeDegrees>
            </Position>
            <AltitudeMeters>1228.800048828125</AltitudeMeters>
            <DistanceMeters>1923.7055967647</DistanceMeters>
          </Trackpoint>
          <Trackpoint>
            <Time>2018-12-30T09:23:50.000Z</Time>
            <Position>
              <LatitudeDegrees>40.7476213015615940093994140625</LatitudeDegrees>
              <LongitudeDegrees>-4.070871770381927490234375</LongitudeDegrees>
            </Position>
            <AltitudeMeters>1229</AltitudeMeters>
            <DistanceMeters>1925.5185909251</DistanceMeters>
          </Trackpoint>
          <Trackpoint>
            <Time>2018-12-30T09:23:51.000Z</Time>
            <Position>
              <LatitudeDegrees>40.74764686636626720428466796875</LatitudeDegrees>
              <LongitudeDegrees>-4.07088291831314563751220703125</LongitudeDegrees>
            </Position>
            <AltitudeMeters>1229</AltitudeMeters>
            <DistanceMeters>1928.5145708958</DistanceMeters>
          </Trackpoint>
          <Trackpoint>
            <Time>2018-12-30T09:23:52.000Z</Time>
            <Position>
              <LatitudeDegrees>40.74764686636626720428466796875</LatitudeDegrees>
              <LongitudeDegrees>-4.07088291831314563751220703125</LongitudeDegrees>
            </Position>
            <AltitudeMeters>1229.199951171875</AltitudeMeters>
            <DistanceMeters>1928.5145708958</DistanceMeters>
          </Trackpoint>
          <Trackpoint>
            <Time>2018-12-30T09:23:53.000Z</Time>
            <Position>
              <LatitudeDegrees>40.7476595230400562286376953125</LatitudeDegrees>
              <LongitudeDegrees>-4.07088694162666797637939453125</LongitudeDegrees>
            </Position>
            <AltitudeMeters>1229.199951171875</AltitudeMeters>
            <DistanceMeters>1929.9619746871</DistanceMeters>
          </Trackpoint>
          <Trackpoint>
            <Time>2018-12-30T09:23:54.000Z</Time>
            <Position>
              <LatitudeDegrees>40.74767737649381160736083984375</LatitudeDegrees>
              <LongitudeDegrees>-4.07089968211948871612548828125</LongitudeDegrees>
            </Position>
            <AltitudeMeters>1229.199951171875</AltitudeMeters>
            <DistanceMeters>1932.2227319203</DistanceMeters>
          </Trackpoint>
          <Trackpoint>
            <Time>2018-12-30T09:23:55.000Z</Time>
            <Position>
              <LatitudeDegrees>40.74769355356693267822265625</LatitudeDegrees>
              <LongitudeDegrees>-4.0709068067371845245361328125</LongitudeDegrees>
            </Position>
            <AltitudeMeters>1229.199951171875</AltitudeMeters>
            <DistanceMeters>1934.1185089179</DistanceMeters>
          </Trackpoint>
          <Trackpoint>
            <Time>2018-12-30T09:23:56.000Z</Time>
            <Position>
              <LatitudeDegrees>40.74770654551684856414794921875</LatitudeDegrees>
              <LongitudeDegrees>-4.07091376371681690216064453125</LongitudeDegrees>
            </Position>
            <AltitudeMeters>1229.199951171875</AltitudeMeters>
            <DistanceMeters>1935.6770629155</DistanceMeters>
          </Trackpoint>
          <Trackpoint>
            <Time>2018-12-30T09:23:57.000Z</Time>
            <Position>
              <LatitudeDegrees>40.747715346515178680419921875</LatitudeDegrees>
              <LongitudeDegrees>-4.0709205530583858489990234375</LongitudeDegrees>
            </Position>
            <AltitudeMeters>1229.4000244140625</AltitudeMeters>
            <DistanceMeters>1936.8094369063</DistanceMeters>
          </Trackpoint>
          <Trackpoint>
            <Time>2018-12-30T09:23:58.000Z</Time>
            <Position>
              <LatitudeDegrees>40.74773135595023632049560546875</LatitudeDegrees>
              <LongitudeDegrees>-4.0709218941628932952880859375</LongitudeDegrees>
            </Position>
            <AltitudeMeters>1229.5999755859375</AltitudeMeters>
            <DistanceMeters>1938.5948267754</DistanceMeters>
          </Trackpoint>
          <Trackpoint>
            <Time>2018-12-30T09:23:59.000Z</Time>
            <Position>
              <LatitudeDegrees>40.7477460242807865142822265625</LatitudeDegrees>
              <LongitudeDegrees>-4.0709218941628932952880859375</LongitudeDegrees>
            </Position>
            <AltitudeMeters>1229.800048828125</AltitudeMeters>
            <DistanceMeters>1940.2269641933</DistanceMeters>
          </Trackpoint>
          <Trackpoint>
            <Time>2018-12-30T09:24:00.000Z</Time>
            <Position>
              <LatitudeDegrees>40.74776287190616130828857421875</LatitudeDegrees>
              <LongitudeDegrees>-4.07092600129544734954833984375</LongitudeDegrees>
            </Position>
            <AltitudeMeters>1230.199951171875</AltitudeMeters>
            <DistanceMeters>1942.1322438921</DistanceMeters>
          </Trackpoint>
          <Trackpoint>
            <Time>2018-12-30T09:24:01.000Z</Time>
            <Position>
              <LatitudeDegrees>40.747777707874774932861328125</LatitudeDegrees>
              <LongitudeDegrees>-4.07093404792249202728271484375</LongitudeDegrees>
            </Position>
            <AltitudeMeters>1230.4000244140625</AltitudeMeters>
            <DistanceMeters>1943.9151030868</DistanceMeters>
          </Trackpoint>
          <Trackpoint>
            <Time>2018-12-30T09:24:02.000Z</Time>
            <Position>
              <LatitudeDegrees>40.74779338203370571136474609375</LatitudeDegrees>
              <LongitudeDegrees>-4.07094083726406097412109375</LongitudeDegrees>
            </Position>
            <AltitudeMeters>1230.5999755859375</AltitudeMeters>
            <DistanceMeters>1945.7479119795</DistanceMeters>
          </Trackpoint>
          <Trackpoint>
            <Time>2018-12-30T09:24:03.000Z</Time>
            <Position>
              <LatitudeDegrees>40.74780486524105072021484375</LatitudeDegrees>
              <LongitudeDegrees>-4.0709473751485347747802734375</LongitudeDegrees>
            </Position>
            <AltitudeMeters>1230.5999755859375</AltitudeMeters>
            <DistanceMeters>1947.1412771274</DistanceMeters>
          </Trackpoint>
          <Trackpoint>
            <Time>2018-12-30T09:24:04.000Z</Time>
            <Position>
              <LatitudeDegrees>40.747813247144222259521484375</LatitudeDegrees>
              <LongitudeDegrees>-4.070954583585262298583984375</LongitudeDegrees>
            </Position>
            <AltitudeMeters>1230.5999755859375</AltitudeMeters>
            <DistanceMeters>1948.257588262</DistanceMeters>
          </Trackpoint>
          <Trackpoint>
            <Time>2018-12-30T09:24:05.000Z</Time>
            <Position>
              <LatitudeDegrees>40.74782523326575756072998046875</LatitudeDegrees>
              <LongitudeDegrees>-4.0709634684026241302490234375</LongitudeDegrees>
            </Position>
            <AltitudeMeters>1230.4000244140625</AltitudeMeters>
            <DistanceMeters>1949.7839433067</DistanceMeters>
          </Trackpoint>
          <Trackpoint>
            <Time>2018-12-30T09:24:06.000Z</Time>
            <Position>
              <LatitudeDegrees>40.7478342019021511077880859375</LatitudeDegrees>
              <LongitudeDegrees>-4.07097562216222286224365234375</LongitudeDegrees>
            </Position>
            <AltitudeMeters>1230.4000244140625</AltitudeMeters>
            <DistanceMeters>1951.2156651208</DistanceMeters>
          </Trackpoint>
          <Trackpoint>
            <Time>2018-12-30T09:24:07.000Z</Time>
            <Position>
              <LatitudeDegrees>40.74784199707210063934326171875</LatitudeDegrees>
              <LongitudeDegrees>-4.0709859319031238555908203125</LongitudeDegrees>
            </Position>
            <AltitudeMeters>1230.4000244140625</AltitudeMeters>
            <DistanceMeters>1952.4399986904</DistanceMeters>
          </Trackpoint>
          <Trackpoint>
            <Time>2018-12-30T09:24:08.000Z</Time>
            <Position>
              <LatitudeDegrees>40.74785725213587284088134765625</LatitudeDegrees>
              <LongitudeDegrees>-4.07099448144435882568359375</LongitudeDegrees>
            </Position>
            <AltitudeMeters>1230.4000244140625</AltitudeMeters>
            <DistanceMeters>1954.2850837343</DistanceMeters>
          </Trackpoint>
          <Trackpoint>
            <Time>2018-12-30T09:24:09.000Z</Time>
            <Position>
              <LatitudeDegrees>40.74787049554288387298583984375</LatitudeDegrees>
              <LongitudeDegrees>-4.07099448144435882568359375</LongitudeDegrees>
            </Position>
            <AltitudeMeters>1230.4000244140625</AltitudeMeters>
            <DistanceMeters>1955.7572312631</DistanceMeters>
          </Trackpoint>
          <Trackpoint>
            <Time>2018-12-30T09:24:10.000Z</Time>
            <Position>
              <LatitudeDegrees>40.74788290075957775115966796875</LatitudeDegrees>
              <LongitudeDegrees>-4.07099121250212192535400390625</LongitudeDegrees>
            </Position>
            <AltitudeMeters>1230.4000244140625</AltitudeMeters>
            <DistanceMeters>1957.1667052138</DistanceMeters>
          </Trackpoint>
          <Trackpoint>
            <Time>2018-12-30T09:24:11.000Z</Time>
            <Position>
              <LatitudeDegrees>40.7478965632617473602294921875</LatitudeDegrees>
              <LongitudeDegrees>-4.070989452302455902099609375</LongitudeDegrees>
            </Position>
            <AltitudeMeters>1230.4000244140625</AltitudeMeters>
            <DistanceMeters>1958.6930602585</DistanceMeters>
          </Trackpoint>
          <Trackpoint>
            <Time>2018-12-30T09:24:12.000Z</Time>
            <Position>
              <LatitudeDegrees>40.747907124459743499755859375</LatitudeDegrees>
              <LongitudeDegrees>-4.07099037431180477142333984375</LongitudeDegrees>
            </Position>
            <AltitudeMeters>1230.4000244140625</AltitudeMeters>
            <DistanceMeters>1959.8723107715</DistanceMeters>
          </Trackpoint>
          <Trackpoint>
            <Time>2018-12-30T09:24:13.000Z</Time>
            <Position>
              <LatitudeDegrees>40.74791844002902507781982421875</LatitudeDegrees>
              <LongitudeDegrees>-4.07099456526339054107666015625</LongitudeDegrees>
            </Position>
            <AltitudeMeters>1230.800048828125</AltitudeMeters>
            <DistanceMeters>1961.1787121065</DistanceMeters>
          </Trackpoint>
          <Trackpoint>
            <Time>2018-12-30T09:24:14.000Z</Time>
            <Position>
              <LatitudeDegrees>40.7479302585124969482421875</LatitudeDegrees>
              <LongitudeDegrees>-4.071000181138515472412109375</LongitudeDegrees>
            </Position>
            <AltitudeMeters>1230.800048828125</AltitudeMeters>
            <DistanceMeters>1962.5785430207</DistanceMeters>
          </Trackpoint>
          <Trackpoint>
            <Time>2018-12-30T09:24:15.000Z</Time>
            <Position>
              <LatitudeDegrees>40.74793654493987560272216796875</LatitudeDegrees>
              <LongitudeDegrees>-4.07100462354719638824462890625</LongitudeDegrees>
            </Position>
            <AltitudeMeters>1231</AltitudeMeters>
            <DistanceMeters>1963.3735935543</DistanceMeters>
          </Trackpoint>
          <Trackpoint>
            <Time>2018-12-30T09:24:16.000Z</Time>
            <Position>
              <LatitudeDegrees>40.74795045889914035797119140625</LatitudeDegrees>
              <LongitudeDegrees>-4.07100546173751354217529296875</LongitudeDegrees>
            </Position>
            <AltitudeMeters>1231.199951171875</AltitudeMeters>
            <DistanceMeters>1964.9263428614</DistanceMeters>
          </Trackpoint>
          <Trackpoint>
            <Time>2018-12-30T09:24:17.000Z</Time>
            <Position>
              <LatitudeDegrees>40.7479629479348659515380859375</LatitudeDegrees>
              <LongitudeDegrees>-4.0710104070603847503662109375</LongitudeDegrees>
            </Position>
            <AltitudeMeters>1231.199951171875</AltitudeMeters>
            <DistanceMeters>1966.379972074</DistanceMeters>
          </Trackpoint>
          <Trackpoint>
            <Time>2018-12-30T09:24:18.000Z</Time>
            <Position>
              <LatitudeDegrees>40.74797862209379673004150390625</LatitudeDegrees>
              <LongitudeDegrees>-4.07101233489811420440673828125</LongitudeDegrees>
            </Position>
            <AltitudeMeters>1231.199951171875</AltitudeMeters>
            <DistanceMeters>1968.1321781096</DistanceMeters>
          </Trackpoint>
          <Trackpoint>
            <Time>2018-12-30T09:24:19.000Z</Time>
            <Position>
              <LatitudeDegrees>40.747993625700473785400390625</LatitudeDegrees>
              <LongitudeDegrees>-4.07101468183100223541259765625</LongitudeDegrees>
            </Position>
            <AltitudeMeters>1231.199951171875</AltitudeMeters>
            <DistanceMeters>1969.8160557783</DistanceMeters>
          </Trackpoint>
          <Trackpoint>
            <Time>2018-12-30T09:24:20.000Z</Time>
            <Position>
              <LatitudeDegrees>40.7480038516223430633544921875</LatitudeDegrees>
              <LongitudeDegrees>-4.07101870514452457427978515625</LongitudeDegrees>
            </Position>
            <AltitudeMeters>1231.199951171875</AltitudeMeters>
            <DistanceMeters>1971.0067370966</DistanceMeters>
          </Trackpoint>
          <Trackpoint>
            <Time>2018-12-30T09:24:21.000Z</Time>
            <Position>
              <LatitudeDegrees>40.748012401163578033447265625</LatitudeDegrees>
              <LongitudeDegrees>-4.0710130892693996429443359375</LongitudeDegrees>
            </Position>
            <AltitudeMeters>1231.199951171875</AltitudeMeters>
            <DistanceMeters>1972.0734093199</DistanceMeters>
          </Trackpoint>
          <Trackpoint>
            <Time>2018-12-30T09:24:22.000Z</Time>
            <Position>
              <LatitudeDegrees>40.7480206154286861419677734375</LatitudeDegrees>
              <LongitudeDegrees>-4.07100948505103588104248046875</LongitudeDegrees>
            </Position>
            <AltitudeMeters>1231.4000244140625</AltitudeMeters>
            <DistanceMeters>1973.0378251398</DistanceMeters>
          </Trackpoint>
          <Trackpoint>
            <Time>2018-12-30T09:24:23.000Z</Time>
            <Position>
              <LatitudeDegrees>40.74802991934120655059814453125</LatitudeDegrees>
              <LongitudeDegrees>-4.07101032324135303497314453125</LongitudeDegrees>
            </Position>
            <AltitudeMeters>1231.5999755859375</AltitudeMeters>
            <DistanceMeters>1974.0787906403</DistanceMeters>
          </Trackpoint>
          <Trackpoint>
            <Time>2018-12-30T09:24:24.000Z</Time>
            <Position>
              <LatitudeDegrees>40.748034529387950897216796875</LatitudeDegrees>
              <LongitudeDegrees>-4.0710104070603847503662109375</LongitudeDegrees>
            </Position>
            <AltitudeMeters>1231.800048828125</AltitudeMeters>
            <DistanceMeters>1974.5816247486</DistanceMeters>
          </Trackpoint>
          <Trackpoint>
            <Time>2018-12-30T09:24:25.000Z</Time>
            <Position>
              <LatitudeDegrees>40.74804626405239105224609375</LatitudeDegrees>
              <LongitudeDegrees>-4.0710125863552093505859375</LongitudeDegrees>
            </Position>
            <AltitudeMeters>1232.199951171875</AltitudeMeters>
            <DistanceMeters>1975.8983535275</DistanceMeters>
          </Trackpoint>
          <Trackpoint>
            <Time>2018-12-30T09:24:26.000Z</Time>
            <Position>
              <LatitudeDegrees>40.74806042946875095367431640625</LatitudeDegrees>
              <LongitudeDegrees>-4.07101769931614398956298828125</LongitudeDegrees>
            </Position>
            <AltitudeMeters>1232.199951171875</AltitudeMeters>
            <DistanceMeters>1977.5332549397</DistanceMeters>
          </Trackpoint>
          <Trackpoint>
            <Time>2018-12-30T09:24:27.000Z</Time>
            <Position>
              <LatitudeDegrees>40.748072080314159393310546875</LatitudeDegrees>
              <LongitudeDegrees>-4.07102222554385662078857421875</LongitudeDegrees>
            </Position>
            <AltitudeMeters>1232.4000244140625</AltitudeMeters>
            <DistanceMeters>1978.8838383105</DistanceMeters>
          </Trackpoint>
          <Trackpoint>
            <Time>2018-12-30T09:24:28.000Z</Time>
            <Position>
              <LatitudeDegrees>40.7480826415121555328369140625</LatitudeDegrees>
              <LongitudeDegrees>-4.07103010453283786773681640625</LongitudeDegrees>
            </Position>
            <AltitudeMeters>1232.4000244140625</AltitudeMeters>
            <DistanceMeters>1980.2344216814</DistanceMeters>
          </Trackpoint>
          <Trackpoint>
            <Time>2018-12-30T09:24:29.000Z</Time>
            <Position>
              <LatitudeDegrees>40.7480933703482151031494140625</LatitudeDegrees>
              <LongitudeDegrees>-4.0710385702550411224365234375</LongitudeDegrees>
            </Position>
            <AltitudeMeters>1232.4000244140625</AltitudeMeters>
            <DistanceMeters>1981.6245426686</DistanceMeters>
          </Trackpoint>
          <Trackpoint>
            <Time>2018-12-30T09:24:30.000Z</Time>
            <Position>
              <LatitudeDegrees>40.74810619466006755828857421875</LatitudeDegrees>
              <LongitudeDegrees>-4.07104468904435634613037109375</LongitudeDegrees>
            </Position>
            <AltitudeMeters>1232.4000244140625</AltitudeMeters>
            <DistanceMeters>1983.1390192834</DistanceMeters>
          </Trackpoint>
          <Trackpoint>
            <Time>2018-12-30T09:24:31.000Z</Time>
            <Position>
              <LatitudeDegrees>40.74812270700931549072265625</LatitudeDegrees>
              <LongitudeDegrees>-4.071055166423320770263671875</LongitudeDegrees>
            </Position>
            <AltitudeMeters>1232.5999755859375</AltitudeMeters>
            <DistanceMeters>1985.1793293678</DistanceMeters>
          </Trackpoint>
          <Trackpoint>
            <Time>2018-12-30T09:24:32.000Z</Time>
            <Position>
              <LatitudeDegrees>40.7481362856924533843994140625</LatitudeDegrees>
              <LongitudeDegrees>-4.071054495871067047119140625</LongitudeDegrees>
            </Position>
            <AltitudeMeters>1232.800048828125</AltitudeMeters>
            <DistanceMeters>1986.6938059826</DistanceMeters>
          </Trackpoint>
          <Trackpoint>
            <Time>2018-12-30T09:24:33.000Z</Time>
            <Position>
              <LatitudeDegrees>40.74814760126173496246337890625</LatitudeDegrees>
              <LongitudeDegrees>-4.07105541788041591644287109375</LongitudeDegrees>
            </Position>
            <AltitudeMeters>1233</AltitudeMeters>
            <DistanceMeters>1987.9580541903</DistanceMeters>
          </Trackpoint>
          <Trackpoint>
            <Time>2018-12-30T09:24:34.000Z</Time>
            <Position>
              <LatitudeDegrees>40.74815413914620876312255859375</LatitudeDegrees>
              <LongitudeDegrees>-4.07105793245136737823486328125</LongitudeDegrees>
            </Position>
            <AltitudeMeters>1233.199951171875</AltitudeMeters>
            <DistanceMeters>1988.7182679052</DistanceMeters>
          </Trackpoint>
          <Trackpoint>
            <Time>2018-12-30T09:24:35.000Z</Time>
            <Position>
              <LatitudeDegrees>40.7481614314019680023193359375</LatitudeDegrees>
              <LongitudeDegrees>-4.0710650570690631866455078125</LongitudeDegrees>
            </Position>
            <AltitudeMeters>1233.199951171875</AltitudeMeters>
            <DistanceMeters>1989.7328755706</DistanceMeters>
          </Trackpoint>
          <Trackpoint>
            <Time>2018-12-30T09:24:36.000Z</Time>
            <Position>
              <LatitudeDegrees>40.74816872365772724151611328125</LatitudeDegrees>
              <LongitudeDegrees>-4.07106799073517322540283203125</LongitudeDegrees>
            </Position>
            <AltitudeMeters>1233.4000244140625</AltitudeMeters>
            <DistanceMeters>1990.5828203426</DistanceMeters>
          </Trackpoint>
          <Trackpoint>
            <Time>2018-12-30T09:24:37.000Z</Time>
            <Position>
              <LatitudeDegrees>40.74817727319896221160888671875</LatitudeDegrees>
              <LongitudeDegrees>-4.0710689127445220947265625</LongitudeDegrees>
            </Position>
            <AltitudeMeters>1233.4000244140625</AltitudeMeters>
            <DistanceMeters>1991.5425431137</DistanceMeters>
          </Trackpoint>
          <Trackpoint>
            <Time>2018-12-30T09:24:38.000Z</Time>
            <Position>
              <LatitudeDegrees>40.74819051660597324371337890625</LatitudeDegrees>
              <LongitudeDegrees>-4.07106849364936351776123046875</LongitudeDegrees>
            </Position>
            <AltitudeMeters>1233.4000244140625</AltitudeMeters>
            <DistanceMeters>1993.0208118645</DistanceMeters>
          </Trackpoint>
          <Trackpoint>
            <Time>2018-12-30T09:24:39.000Z</Time>
            <Position>
              <LatitudeDegrees>40.7482056878507137298583984375</LatitudeDegrees>
              <LongitudeDegrees>-4.0710690803825855255126953125</LongitudeDegrees>
            </Position>
            <AltitudeMeters>1233.4000244140625</AltitudeMeters>
            <DistanceMeters>1994.7100436888</DistanceMeters>
          </Trackpoint>
          <Trackpoint>
            <Time>2018-12-30T09:24:40.000Z</Time>
            <Position>
              <LatitudeDegrees>40.74821918271481990814208984375</LatitudeDegrees>
              <LongitudeDegrees>-4.0710675716400146484375</LongitudeDegrees>
            </Position>
            <AltitudeMeters>1233.5999755859375</AltitudeMeters>
            <DistanceMeters>1996.2185460136</DistanceMeters>
          </Trackpoint>
          <Trackpoint>
            <Time>2018-12-30T09:24:41.000Z</Time>
            <Position>
              <LatitudeDegrees>40.748234353959560394287109375</LatitudeDegrees>
              <LongitudeDegrees>-4.07106832601130008697509765625</LongitudeDegrees>
            </Position>
            <AltitudeMeters>1233.5999755859375</AltitudeMeters>
            <DistanceMeters>1997.9131150765</DistanceMeters>
          </Trackpoint>
          <Trackpoint>
            <Time>2018-12-30T09:24:42.000Z</Time>
            <Position>
              <LatitudeDegrees>40.748245418071746826171875</LatitudeDegrees>
              <LongitudeDegrees>-4.0710596926510334014892578125</LongitudeDegrees>
            </Position>
            <AltitudeMeters>1233.5999755859375</AltitudeMeters>
            <DistanceMeters>1999.3479869974</DistanceMeters>
          </Trackpoint>
          <Trackpoint>
            <Time>2018-12-30T09:24:43.000Z</Time>
            <Position>
              <LatitudeDegrees>40.74826561845839023590087890625</LatitudeDegrees>
              <LongitudeDegrees>-4.0710563398897647857666015625</LongitudeDegrees>
            </Position>
            <AltitudeMeters>1233.800048828125</AltitudeMeters>
            <DistanceMeters>2001.6147277184</DistanceMeters>
          </Trackpoint>
          <Trackpoint>
            <Time>2018-12-30T09:24:44.000Z</Time>
            <Position>
              <LatitudeDegrees>40.748291350901126861572265625</LatitudeDegrees>
              <LongitudeDegrees>-4.07106581144034862518310546875</LongitudeDegrees>
            </Position>
            <AltitudeMeters>1234</AltitudeMeters>
            <DistanceMeters>2004.5864973532</DistanceMeters>
          </Trackpoint>
          <Trackpoint>
            <Time>2018-12-30T09:24:45.000Z</Time>
            <Position>
              <LatitudeDegrees>40.7483196817338466644287109375</LatitudeDegrees>
              <LongitudeDegrees>-4.0710774622857570648193359375</LongitudeDegrees>
            </Position>
            <AltitudeMeters>1234.199951171875</AltitudeMeters>
            <DistanceMeters>2007.8892738132</DistanceMeters>
          </Trackpoint>
          <Trackpoint>
            <Time>2018-12-30T09:24:46.000Z</Time>
            <Position>
              <LatitudeDegrees>40.7483347691595554351806640625</LatitudeDegrees>
              <LongitudeDegrees>-4.07108576036989688873291015625</LongitudeDegrees>
            </Position>
            <AltitudeMeters>1234.4000244140625</AltitudeMeters>
            <DistanceMeters>2009.7072419038</DistanceMeters>
          </Trackpoint>
          <Trackpoint>
            <Time>2018-12-30T09:24:47.000Z</Time>
            <Position>
              <LatitudeDegrees>40.74834977276623249053955078125</LatitudeDegrees>
              <LongitudeDegrees>-4.0710979141294956207275390625</LongitudeDegrees>
            </Position>
            <AltitudeMeters>1234.4000244140625</AltitudeMeters>
            <DistanceMeters>2011.6662678068</DistanceMeters>
          </Trackpoint>
          <Trackpoint>
            <Time>2018-12-30T09:24:48.000Z</Time>
            <Position>
              <LatitudeDegrees>40.748362429440021514892578125</LatitudeDegrees>
              <LongitudeDegrees>-4.071112833917140960693359375</LongitudeDegrees>
            </Position>
            <AltitudeMeters>1234.5999755859375</AltitudeMeters>
            <DistanceMeters>2013.5548864013</DistanceMeters>
          </Trackpoint>
          <Trackpoint>
            <Time>2018-12-30T09:24:49.000Z</Time>
            <Position>
              <LatitudeDegrees>40.74837491847574710845947265625</LatitudeDegrees>
              <LongitudeDegrees>-4.07112079672515392303466796875</LongitudeDegrees>
            </Position>
            <AltitudeMeters>1234.800048828125</AltitudeMeters>
            <DistanceMeters>2015.0988877553</DistanceMeters>
          </Trackpoint>
          <Trackpoint>
            <Time>2018-12-30T09:24:50.000Z</Time>
            <Position>
              <LatitudeDegrees>40.7483793608844280242919921875</LatitudeDegrees>
              <LongitudeDegrees>-4.0711301006376743316650390625</LongitudeDegrees>
            </Position>
            <AltitudeMeters>1235</AltitudeMeters>
            <DistanceMeters>2016.0202059336</DistanceMeters>
          </Trackpoint>
          <Trackpoint>
            <Time>2018-12-30T09:24:51.000Z</Time>
            <Position>
              <LatitudeDegrees>40.74838866479694843292236328125</LatitudeDegrees>
              <LongitudeDegrees>-4.0711344592273235321044921875</LongitudeDegrees>
            </Position>
            <AltitudeMeters>1235</AltitudeMeters>
            <DistanceMeters>2017.1119797612</DistanceMeters>
          </Trackpoint>
          <Trackpoint>
            <Time>2018-12-30T09:24:52.000Z</Time>
            <Position>
              <LatitudeDegrees>40.74839687906205654144287109375</LatitudeDegrees>
              <LongitudeDegrees>-4.07114443369209766387939453125</LongitudeDegrees>
            </Position>
            <AltitudeMeters>1235.199951171875</AltitudeMeters>
            <DistanceMeters>2018.350976531</DistanceMeters>
          </Trackpoint>
          <Trackpoint>
            <Time>2018-12-30T09:24:53.000Z</Time>
            <Position>
              <LatitudeDegrees>40.7484088651835918426513671875</LatitudeDegrees>
              <LongitudeDegrees>-4.07115767709910869598388671875</LongitudeDegrees>
            </Position>
            <AltitudeMeters>1235.4000244140625</AltitudeMeters>
            <DistanceMeters>2020.0928449775</DistanceMeters>
          </Trackpoint>
          <Trackpoint>
            <Time>2018-12-30T09:24:54.000Z</Time>
            <Position>
              <LatitudeDegrees>40.7484219409525394439697265625</LatitudeDegrees>
              <LongitudeDegrees>-4.07116672955453395843505859375</LongitudeDegrees>
            </Position>
            <AltitudeMeters>1235.4000244140625</AltitudeMeters>
            <DistanceMeters>2021.7332604067</DistanceMeters>
          </Trackpoint>
          <Trackpoint>
            <Time>2018-12-30T09:24:55.000Z</Time>
            <Position>
              <LatitudeDegrees>40.7484376989305019378662109375</LatitudeDegrees>
              <LongitudeDegrees>-4.0711723454296588897705078125</LongitudeDegrees>
            </Position>
            <AltitudeMeters>1235.4000244140625</AltitudeMeters>
            <DistanceMeters>2023.5487432356</DistanceMeters>
          </Trackpoint>
          <Trackpoint>
            <Time>2018-12-30T09:24:56.000Z</Time>
            <Position>
              <LatitudeDegrees>40.74846074916422367095947265625</LatitudeDegrees>
              <LongitudeDegrees>-4.0712068788707256317138671875</LongitudeDegrees>
            </Position>
            <AltitudeMeters>1235.4000244140625</AltitudeMeters>
            <DistanceMeters>2027.4297440741</DistanceMeters>
          </Trackpoint>
          <Trackpoint>
            <Time>2018-12-30T09:24:57.000Z</Time>
            <Position>
              <LatitudeDegrees>40.74846074916422367095947265625</LatitudeDegrees>
              <LongitudeDegrees>-4.0712068788707256317138671875</LongitudeDegrees>
            </Position>
            <AltitudeMeters>1235.4000244140625</AltitudeMeters>
            <DistanceMeters>2027.4297440741</DistanceMeters>
          </Trackpoint>
          <Trackpoint>
            <Time>2018-12-30T09:24:58.000Z</Time>
            <Position>
              <LatitudeDegrees>40.7484685443341732025146484375</LatitudeDegrees>
              <LongitudeDegrees>-4.071217440068721771240234375</LongitudeDegrees>
            </Position>
            <AltitudeMeters>1235.4000244140625</AltitudeMeters>
            <DistanceMeters>2028.6687408439</DistanceMeters>
          </Trackpoint>
          <Trackpoint>
            <Time>2018-12-30T09:24:59.000Z</Time>
            <Position>
              <LatitudeDegrees>40.7484802789986133575439453125</LatitudeDegrees>
              <LongitudeDegrees>-4.07121953554451465606689453125</LongitudeDegrees>
            </Position>
            <AltitudeMeters>1235.5999755859375</AltitudeMeters>
            <DistanceMeters>2029.9820361651</DistanceMeters>
          </Trackpoint>
          <Trackpoint>
            <Time>2018-12-30T09:25:00.000Z</Time>
            <Position>
              <LatitudeDegrees>40.74848589487373828887939453125</LatitudeDegrees>
              <LongitudeDegrees>-4.0712269954383373260498046875</LongitudeDegrees>
            </Position>
            <AltitudeMeters>1235.5999755859375</AltitudeMeters>
            <DistanceMeters>2030.8683863502</DistanceMeters>
          </Trackpoint>
          <Trackpoint>
            <Time>2018-12-30T09:25:01.000Z</Time>
            <Position>
              <LatitudeDegrees>40.7484977133572101593017578125</LatitudeDegrees>
              <LongitudeDegrees>-4.07123596407473087310791015625</LongitudeDegrees>
            </Position>
            <AltitudeMeters>1235.5999755859375</AltitudeMeters>
            <DistanceMeters>2032.3888137801</DistanceMeters>
          </Trackpoint>
          <Trackpoint>
            <Time>2018-12-30T09:25:02.000Z</Time>
            <Position>
              <LatitudeDegrees>40.74850986711680889129638671875</LatitudeDegrees>
              <LongitudeDegrees>-4.0712420828640460968017578125</LongitudeDegrees>
            </Position>
            <AltitudeMeters>1235.5999755859375</AltitudeMeters>
            <DistanceMeters>2033.8362175714</DistanceMeters>
          </Trackpoint>
          <Trackpoint>
            <Time>2018-12-30T09:25:03.000Z</Time>
            <Position>
              <LatitudeDegrees>40.74851657263934612274169921875</LatitudeDegrees>
              <LongitudeDegrees>-4.0712518058717250823974609375</LongitudeDegrees>
            </Position>
            <AltitudeMeters>1235.4000244140625</AltitudeMeters>
            <DistanceMeters>2034.9484767466</DistanceMeters>
          </Trackpoint>
          <Trackpoint>
            <Time>2018-12-30T09:25:04.000Z</Time>
            <Position>
              <LatitudeDegrees>40.74852461926639080047607421875</LatitudeDegrees>
              <LongitudeDegrees>-4.07126261852681636810302734375</LongitudeDegrees>
            </Position>
            <AltitudeMeters>1235.4000244140625</AltitudeMeters>
            <DistanceMeters>2036.2304572117</DistanceMeters>
          </Trackpoint>
          <Trackpoint>
            <Time>2018-12-30T09:25:05.000Z</Time>
            <Position>
              <LatitudeDegrees>40.7485382817685604095458984375</LatitudeDegrees>
              <LongitudeDegrees>-4.07127586193382740020751953125</LongitudeDegrees>
            </Position>
            <AltitudeMeters>1235.4000244140625</AltitudeMeters>
            <DistanceMeters>2038.1166836347</DistanceMeters>
          </Trackpoint>
          <Trackpoint>
            <Time>2018-12-30T09:25:06.000Z</Time>
            <Position>
              <LatitudeDegrees>40.748549513518810272216796875</LatitudeDegrees>
              <LongitudeDegrees>-4.07128960825502872467041015625</LongitudeDegrees>
            </Position>
            <AltitudeMeters>1235.4000244140625</AltitudeMeters>
            <DistanceMeters>2039.8218770592</DistanceMeters>
          </Trackpoint>
          <Trackpoint>
            <Time>2018-12-30T09:25:07.000Z</Time>
            <Position>
              <LatitudeDegrees>40.748564265668392181396484375</LatitudeDegrees>
              <LongitudeDegrees>-4.071301259100437164306640625</LongitudeDegrees>
            </Position>
            <AltitudeMeters>1235.5999755859375</AltitudeMeters>
            <DistanceMeters>2041.7342527963</DistanceMeters>
          </Trackpoint>
          <Trackpoint>
            <Time>2018-12-30T09:25:08.000Z</Time>
            <Position>
              <LatitudeDegrees>40.74857440777122974395751953125</LatitudeDegrees>
              <LongitudeDegrees>-4.0713118202984333038330078125</LongitudeDegrees>
            </Position>
            <AltitudeMeters>1235.5999755859375</AltitudeMeters>
            <DistanceMeters>2043.1722679234</DistanceMeters>
          </Trackpoint>
          <Trackpoint>
            <Time>2018-12-30T09:25:09.000Z</Time>
            <Position>
              <LatitudeDegrees>40.7485855557024478912353515625</LatitudeDegrees>
              <LongitudeDegrees>-4.071318022906780242919921875</LongitudeDegrees>
            </Position>
            <AltitudeMeters>1235.5999755859375</AltitudeMeters>
            <DistanceMeters>2044.5195041184</DistanceMeters>
          </Trackpoint>
          <Trackpoint>
            <Time>2018-12-30T09:25:10.000Z</Time>
            <Position>
              <LatitudeDegrees>40.74859838001430034637451171875</LatitudeDegrees>
              <LongitudeDegrees>-4.07132347114384174346923828125</LongitudeDegrees>
            </Position>
            <AltitudeMeters>1236</AltitudeMeters>
            <DistanceMeters>2046.0250104078</DistanceMeters>
          </Trackpoint>
          <Trackpoint>
            <Time>2018-12-30T09:25:11.000Z</Time>
            <Position>
              <LatitudeDegrees>40.74861112050712108612060546875</LatitudeDegrees>
              <LongitudeDegrees>-4.07132095657289028167724609375</LongitudeDegrees>
            </Position>
            <AltitudeMeters>1236.199951171875</AltitudeMeters>
            <DistanceMeters>2047.4598823286</DistanceMeters>
          </Trackpoint>
          <Trackpoint>
            <Time>2018-12-30T09:25:12.000Z</Time>
            <Position>
              <LatitudeDegrees>40.74862553738057613372802734375</LatitudeDegrees>
              <LongitudeDegrees>-4.07131911255419254302978515625</LongitudeDegrees>
            </Position>
            <AltitudeMeters>1236.4000244140625</AltitudeMeters>
            <DistanceMeters>2049.0781289627</DistanceMeters>
          </Trackpoint>
          <Trackpoint>
            <Time>2018-12-30T09:25:13.000Z</Time>
            <Position>
              <LatitudeDegrees>40.748635344207286834716796875</LatitudeDegrees>
              <LongitudeDegrees>-4.07131961546838283538818359375</LongitudeDegrees>
            </Position>
            <AltitudeMeters>1236.5999755859375</AltitudeMeters>
            <DistanceMeters>2050.1699027903</DistanceMeters>
          </Trackpoint>
          <Trackpoint>
            <Time>2018-12-30T09:25:14.000Z</Time>
            <Position>
              <LatitudeDegrees>40.7486485876142978668212890625</LatitudeDegrees>
              <LongitudeDegrees>-4.0713290870189666748046875</LongitudeDegrees>
            </Position>
            <AltitudeMeters>1236.5999755859375</AltitudeMeters>
            <DistanceMeters>2051.8484092248</DistanceMeters>
          </Trackpoint>
          <Trackpoint>
            <Time>2018-12-30T09:25:15.000Z</Time>
            <Position>
              <LatitudeDegrees>40.7486566342413425445556640625</LatitudeDegrees>
              <LongitudeDegrees>-4.07133872620761394500732421875</LongitudeDegrees>
            </Position>
            <AltitudeMeters>1236.5999755859375</AltitudeMeters>
            <DistanceMeters>2053.057901839</DistanceMeters>
          </Trackpoint>
          <Trackpoint>
            <Time>2018-12-30T09:25:16.000Z</Time>
            <Position>
              <LatitudeDegrees>40.74866778217256069183349609375</LatitudeDegrees>
              <LongitudeDegrees>-4.07135347835719585418701171875</LongitudeDegrees>
            </Position>
            <AltitudeMeters>1236.5999755859375</AltitudeMeters>
            <DistanceMeters>2054.8178212179</DistanceMeters>
          </Trackpoint>
          <Trackpoint>
            <Time>2018-12-30T09:25:17.000Z</Time>
            <Position>
              <LatitudeDegrees>40.748680941760540008544921875</LatitudeDegrees>
              <LongitudeDegrees>-4.07136588357388973236083984375</LongitudeDegrees>
            </Position>
            <AltitudeMeters>1236.5999755859375</AltitudeMeters>
            <DistanceMeters>2056.6158110307</DistanceMeters>
          </Trackpoint>
          <Trackpoint>
            <Time>2018-12-30T09:25:18.000Z</Time>
            <Position>
              <LatitudeDegrees>40.74869267642498016357421875</LatitudeDegrees>
              <LongitudeDegrees>-4.0713738463819026947021484375</LongitudeDegrees>
            </Position>
            <AltitudeMeters>1236.5999755859375</AltitudeMeters>
            <DistanceMeters>2058.0848883841</DistanceMeters>
          </Trackpoint>
          <Trackpoint>
            <Time>2018-12-30T09:25:19.000Z</Time>
            <Position>
              <LatitudeDegrees>40.74870072305202484130859375</LatitudeDegrees>
              <LongitudeDegrees>-4.07139019109308719635009765625</LongitudeDegrees>
            </Position>
            <AltitudeMeters>1236.5999755859375</AltitudeMeters>
            <DistanceMeters>2059.728053883</DistanceMeters>
          </Trackpoint>
          <Trackpoint>
            <Time>2018-12-30T09:25:20.000Z</Time>
            <Position>
              <LatitudeDegrees>40.74870684184134006500244140625</LatitudeDegrees>
              <LongitudeDegrees>-4.07140444032847881317138671875</LongitudeDegrees>
            </Position>
            <AltitudeMeters>1236.800048828125</AltitudeMeters>
            <DistanceMeters>2061.108396641</DistanceMeters>
          </Trackpoint>
          <Trackpoint>
            <Time>2018-12-30T09:25:21.000Z</Time>
            <Position>
              <LatitudeDegrees>40.74871840886771678924560546875</LatitudeDegrees>
              <LongitudeDegrees>-4.071417264640331268310546875</LongitudeDegrees>
            </Position>
            <AltitudeMeters>1236.800048828125</AltitudeMeters>
            <DistanceMeters>2062.7922743098</DistanceMeters>
          </Trackpoint>
          <Trackpoint>
            <Time>2018-12-30T09:25:22.000Z</Time>
            <Position>
              <LatitudeDegrees>40.748727209866046905517578125</LatitudeDegrees>
              <LongitudeDegrees>-4.07143159769475460052490234375</LongitudeDegrees>
            </Position>
            <AltitudeMeters>1236.800048828125</AltitudeMeters>
            <DistanceMeters>2064.3479286695</DistanceMeters>
          </Trackpoint>
          <Trackpoint>
            <Time>2018-12-30T09:25:23.000Z</Time>
            <Position>
              <LatitudeDegrees>40.7487354241311550140380859375</LatitudeDegrees>
              <LongitudeDegrees>-4.07143972814083099365234375</LongitudeDegrees>
            </Position>
            <AltitudeMeters>1236.800048828125</AltitudeMeters>
            <DistanceMeters>2065.4922018381</DistanceMeters>
          </Trackpoint>
          <Trackpoint>
            <Time>2018-12-30T09:25:24.000Z</Time>
            <Position>
              <LatitudeDegrees>40.7487505115568637847900390625</LatitudeDegrees>
              <LongitudeDegrees>-4.07145070843398571014404296875</LongitudeDegrees>
            </Position>
            <AltitudeMeters>1236.800048828125</AltitudeMeters>
            <DistanceMeters>2067.4069370773</DistanceMeters>
          </Trackpoint>
          <Trackpoint>
            <Time>2018-12-30T09:25:25.000Z</Time>
            <Position>
              <LatitudeDegrees>40.7487655989825725555419921875</LatitudeDegrees>
              <LongitudeDegrees>-4.07146789133548736572265625</LongitudeDegrees>
            </Position>
            <AltitudeMeters>1236.800048828125</AltitudeMeters>
            <DistanceMeters>2069.6233218782</DistanceMeters>
          </Trackpoint>
          <Trackpoint>
            <Time>2018-12-30T09:25:26.000Z</Time>
            <Position>
              <LatitudeDegrees>40.7487738132476806640625</LatitudeDegrees>
              <LongitudeDegrees>-4.07147669233381748199462890625</LongitudeDegrees>
            </Position>
            <AltitudeMeters>1236.800048828125</AltitudeMeters>
            <DistanceMeters>2070.8025723912</DistanceMeters>
          </Trackpoint>
          <Trackpoint>
            <Time>2018-12-30T09:25:27.000Z</Time>
            <Position>
              <LatitudeDegrees>40.74878060258924961090087890625</LatitudeDegrees>
              <LongitudeDegrees>-4.07149337232112884521484375</LongitudeDegrees>
            </Position>
            <AltitudeMeters>1237</AltitudeMeters>
            <DistanceMeters>2072.398342286</DistanceMeters>
          </Trackpoint>
          <Trackpoint>
            <Time>2018-12-30T09:25:28.000Z</Time>
            <Position>
              <LatitudeDegrees>40.74878496117889881134033203125</LatitudeDegrees>
              <LongitudeDegrees>-4.0715059451758861541748046875</LongitudeDegrees>
            </Position>
            <AltitudeMeters>1237</AltitudeMeters>
            <DistanceMeters>2073.5660501018</DistanceMeters>
          </Trackpoint>
          <Trackpoint>
            <Time>2018-12-30T09:25:29.000Z</Time>
            <Position>
              <LatitudeDegrees>40.74879636056721210479736328125</LatitudeDegrees>
              <LongitudeDegrees>-4.0715160034596920013427734375</LongitudeDegrees>
            </Position>
            <AltitudeMeters>1237</AltitudeMeters>
            <DistanceMeters>2075.0924051465</DistanceMeters>
          </Trackpoint>
          <Trackpoint>
            <Time>2018-12-30T09:25:30.000Z</Time>
            <Position>
              <LatitudeDegrees>40.7488075084984302520751953125</LatitudeDegrees>
              <LongitudeDegrees>-4.0715257264673709869384765625</LongitudeDegrees>
            </Position>
            <AltitudeMeters>1237</AltitudeMeters>
            <DistanceMeters>2076.5828409234</DistanceMeters>
          </Trackpoint>
          <Trackpoint>
            <Time>2018-12-30T09:25:31.000Z</Time>
            <Position>
              <LatitudeDegrees>40.74881966225802898406982421875</LatitudeDegrees>
              <LongitudeDegrees>-4.07153938896954059600830078125</LongitudeDegrees>
            </Position>
            <AltitudeMeters>1237.199951171875</AltitudeMeters>
            <DistanceMeters>2078.3606279623</DistanceMeters>
          </Trackpoint>
          <Trackpoint>
            <Time>2018-12-30T09:25:32.000Z</Time>
            <Position>
              <LatitudeDegrees>40.74882904998958110809326171875</LatitudeDegrees>
              <LongitudeDegrees>-4.0715490281581878662109375</LongitudeDegrees>
            </Position>
            <AltitudeMeters>1237.199951171875</AltitudeMeters>
            <DistanceMeters>2079.6841969367</DistanceMeters>
          </Trackpoint>
          <Trackpoint>
            <Time>2018-12-30T09:25:33.000Z</Time>
            <Position>
              <LatitudeDegrees>40.74883474968373775482177734375</LatitudeDegrees>
              <LongitudeDegrees>-4.0715605951845645904541015625</LongitudeDegrees>
            </Position>
            <AltitudeMeters>1237.199951171875</AltitudeMeters>
            <DistanceMeters>2080.8480317474</DistanceMeters>
          </Trackpoint>
          <Trackpoint>
            <Time>2018-12-30T09:25:34.000Z</Time>
            <Position>
              <LatitudeDegrees>40.74884681962430477142333984375</LatitudeDegrees>
              <LongitudeDegrees>-4.07156973145902156829833984375</LongitudeDegrees>
            </Position>
            <AltitudeMeters>1237.4000244140625</AltitudeMeters>
            <DistanceMeters>2082.3978705565</DistanceMeters>
          </Trackpoint>
          <Trackpoint>
            <Time>2018-12-30T09:25:35.000Z</Time>
            <Position>
              <LatitudeDegrees>40.74885888956487178802490234375</LatitudeDegrees>
              <LongitudeDegrees>-4.071580879390239715576171875</LongitudeDegrees>
            </Position>
            <AltitudeMeters>1237.5999755859375</AltitudeMeters>
            <DistanceMeters>2084.0382859857</DistanceMeters>
          </Trackpoint>
          <Trackpoint>
            <Time>2018-12-30T09:25:36.000Z</Time>
            <Position>
              <LatitudeDegrees>40.74886978603899478912353515625</LatitudeDegrees>
              <LongitudeDegrees>-4.07159202732145786285400390625</LongitudeDegrees>
            </Position>
            <AltitudeMeters>1237.5999755859375</AltitudeMeters>
            <DistanceMeters>2085.5764277309</DistanceMeters>
          </Trackpoint>
          <Trackpoint>
            <Time>2018-12-30T09:25:37.000Z</Time>
            <Position>
              <LatitudeDegrees>40.74887850321829319000244140625</LatitudeDegrees>
              <LongitudeDegrees>-4.07159487716853618621826171875</LongitudeDegrees>
            </Position>
            <AltitudeMeters>1238</AltitudeMeters>
            <DistanceMeters>2086.5775962907</DistanceMeters>
          </Trackpoint>
          <Trackpoint>
            <Time>2018-12-30T09:25:38.000Z</Time>
            <Position>
              <LatitudeDegrees>40.74889677576720714569091796875</LatitudeDegrees>
              <LongitudeDegrees>-4.07160946168005466461181640625</LongitudeDegrees>
            </Position>
            <AltitudeMeters>1238</AltitudeMeters>
            <DistanceMeters>2088.95326415</DistanceMeters>
          </Trackpoint>
          <Trackpoint>
            <Time>2018-12-30T09:25:39.000Z</Time>
            <Position>
              <LatitudeDegrees>40.748905241489410400390625</LatitudeDegrees>
              <LongitudeDegrees>-4.0716222859919071197509765625</LongitudeDegrees>
            </Position>
            <AltitudeMeters>1238.199951171875</AltitudeMeters>
            <DistanceMeters>2090.3881360708</DistanceMeters>
          </Trackpoint>
          <Trackpoint>
            <Time>2018-12-30T09:25:40.000Z</Time>
            <Position>
              <LatitudeDegrees>40.7489124499261379241943359375</LatitudeDegrees>
              <LongitudeDegrees>-4.071644246578216552734375</LongitudeDegrees>
            </Position>
            <AltitudeMeters>1238.4000244140625</AltitudeMeters>
            <DistanceMeters>2092.4061956528</DistanceMeters>
          </Trackpoint>
          <Trackpoint>
            <Time>2018-12-30T09:25:41.000Z</Time>
            <Position>
              <LatitudeDegrees>40.74892334640026092529296875</LatitudeDegrees>
              <LongitudeDegrees>-4.07166763208806514739990234375</LongitudeDegrees>
            </Position>
            <AltitudeMeters>1238.4000244140625</AltitudeMeters>
            <DistanceMeters>2094.7202473659</DistanceMeters>
          </Trackpoint>
          <Trackpoint>
            <Time>2018-12-30T09:25:42.000Z</Time>
            <Position>
              <LatitudeDegrees>40.74892879463732242584228515625</LatitudeDegrees>
              <LongitudeDegrees>-4.07168355770409107208251953125</LongitudeDegrees>
            </Position>
            <AltitudeMeters>1238.4000244140625</AltitudeMeters>
            <DistanceMeters>2096.1923948947</DistanceMeters>
          </Trackpoint>
          <Trackpoint>
            <Time>2018-12-30T09:25:43.000Z</Time>
            <Position>
              <LatitudeDegrees>40.74894036166369915008544921875</LatitudeDegrees>
              <LongitudeDegrees>-4.0716960467398166656494140625</LongitudeDegrees>
            </Position>
            <AltitudeMeters>1238.5999755859375</AltitudeMeters>
            <DistanceMeters>2097.8546834954</DistanceMeters>
          </Trackpoint>
          <Trackpoint>
            <Time>2018-12-30T09:25:44.000Z</Time>
            <Position>
              <LatitudeDegrees>40.74894555844366550445556640625</LatitudeDegrees>
              <LongitudeDegrees>-4.07171172089874744415283203125</LongitudeDegrees>
            </Position>
            <AltitudeMeters>1238.5999755859375</AltitudeMeters>
            <DistanceMeters>2099.2958349732</DistanceMeters>
          </Trackpoint>
          <Trackpoint>
            <Time>2018-12-30T09:25:45.000Z</Time>
            <Position>
              <LatitudeDegrees>40.7489550299942493438720703125</LatitudeDegrees>
              <LongitudeDegrees>-4.07172580249607563018798828125</LongitudeDegrees>
            </Position>
            <AltitudeMeters>1238.5999755859375</AltitudeMeters>
            <DistanceMeters>2100.8830940346</DistanceMeters>
          </Trackpoint>
          <Trackpoint>
            <Time>2018-12-30T09:25:46.000Z</Time>
            <Position>
              <LatitudeDegrees>40.7489664293825626373291015625</LatitudeDegrees>
              <LongitudeDegrees>-4.071739800274372100830078125</LongitudeDegrees>
            </Position>
            <AltitudeMeters>1238.800048828125</AltitudeMeters>
            <DistanceMeters>2102.6145631736</DistanceMeters>
          </Trackpoint>
          <Trackpoint>
            <Time>2018-12-30T09:25:47.000Z</Time>
            <Position>
              <LatitudeDegrees>40.7489717938005924224853515625</LatitudeDegrees>
              <LongitudeDegrees>-4.07175195403397083282470703125</LongitudeDegrees>
            </Position>
            <AltitudeMeters>1238.800048828125</AltitudeMeters>
            <DistanceMeters>2103.8052444919</DistanceMeters>
          </Trackpoint>
          <Trackpoint>
            <Time>2018-12-30T09:25:48.000Z</Time>
            <Position>
              <LatitudeDegrees>40.748977996408939361572265625</LatitudeDegrees>
              <LongitudeDegrees>-4.07176620326936244964599609375</LongitudeDegrees>
            </Position>
            <AltitudeMeters>1239</AltitudeMeters>
            <DistanceMeters>2105.188854338</DistanceMeters>
          </Trackpoint>
          <Trackpoint>
            <Time>2018-12-30T09:25:49.000Z</Time>
            <Position>
              <LatitudeDegrees>40.74899199418723583221435546875</LatitudeDegrees>
              <LongitudeDegrees>-4.07177961431443691253662109375</LongitudeDegrees>
            </Position>
            <AltitudeMeters>1239</AltitudeMeters>
            <DistanceMeters>2107.1129986522</DistanceMeters>
          </Trackpoint>
          <Trackpoint>
            <Time>2018-12-30T09:25:50.000Z</Time>
            <Position>
              <LatitudeDegrees>40.748998112976551055908203125</LatitudeDegrees>
              <LongitudeDegrees>-4.07179604284465312957763671875</LongitudeDegrees>
            </Position>
            <AltitudeMeters>1239</AltitudeMeters>
            <DistanceMeters>2108.6570000062</DistanceMeters>
          </Trackpoint>
          <Trackpoint>
            <Time>2018-12-30T09:25:51.000Z</Time>
            <Position>
              <LatitudeDegrees>40.7490059919655323028564453125</LatitudeDegrees>
              <LongitudeDegrees>-4.07180962152779102325439453125</LongitudeDegrees>
            </Position>
            <AltitudeMeters>1239</AltitudeMeters>
            <DistanceMeters>2110.0981514841</DistanceMeters>
          </Trackpoint>
          <Trackpoint>
            <Time>2018-12-30T09:25:52.000Z</Time>
            <Position>
              <LatitudeDegrees>40.749008841812610626220703125</LatitudeDegrees>
              <LongitudeDegrees>-4.07182621769607067108154296875</LongitudeDegrees>
            </Position>
            <AltitudeMeters>1239</AltitudeMeters>
            <DistanceMeters>2111.5330234049</DistanceMeters>
          </Trackpoint>
          <Trackpoint>
            <Time>2018-12-30T09:25:53.000Z</Time>
            <Position>
              <LatitudeDegrees>40.74901160784065723419189453125</LatitudeDegrees>
              <LongitudeDegrees>-4.07184884883463382720947265625</LongitudeDegrees>
            </Position>
            <AltitudeMeters>1239</AltitudeMeters>
            <DistanceMeters>2113.4665310071</DistanceMeters>
          </Trackpoint>
          <Trackpoint>
            <Time>2018-12-30T09:25:54.000Z</Time>
            <Position>
              <LatitudeDegrees>40.7490200735628604888916015625</LatitudeDegrees>
              <LongitudeDegrees>-4.0718574821949005126953125</LongitudeDegrees>
            </Position>
            <AltitudeMeters>1239</AltitudeMeters>
            <DistanceMeters>2114.6609982851</DistanceMeters>
          </Trackpoint>
          <Trackpoint>
            <Time>2018-12-30T09:25:55.000Z</Time>
            <Position>
              <LatitudeDegrees>40.74902870692312717437744140625</LatitudeDegrees>
              <LongitudeDegrees>-4.07185907475650310516357421875</LongitudeDegrees>
            </Position>
            <AltitudeMeters>1239</AltitudeMeters>
            <DistanceMeters>2115.6300844268</DistanceMeters>
          </Trackpoint>
          <Trackpoint>
            <Time>2018-12-30T09:25:56.000Z</Time>
            <Position>
              <LatitudeDegrees>40.74903876520693302154541015625</LatitudeDegrees>
              <LongitudeDegrees>-4.0718623436987400054931640625</LongitudeDegrees>
            </Position>
            <AltitudeMeters>1239</AltitudeMeters>
            <DistanceMeters>2116.7861343019</DistanceMeters>
          </Trackpoint>
          <Trackpoint>
            <Time>2018-12-30T09:25:57.000Z</Time>
            <Position>
              <LatitudeDegrees>40.749046392738819122314453125</LatitudeDegrees>
              <LongitudeDegrees>-4.07187022268772125244140625</LongitudeDegrees>
            </Position>
            <AltitudeMeters>1239</AltitudeMeters>
            <DistanceMeters>2117.8612388479</DistanceMeters>
          </Trackpoint>
          <Trackpoint>
            <Time>2018-12-30T09:25:58.000Z</Time>
            <Position>
              <LatitudeDegrees>40.749054439365863800048828125</LatitudeDegrees>
              <LongitudeDegrees>-4.07188095152378082275390625</LongitudeDegrees>
            </Position>
            <AltitudeMeters>1239</AltitudeMeters>
            <DistanceMeters>2119.136156006</DistanceMeters>
          </Trackpoint>
          <Trackpoint>
            <Time>2018-12-30T09:25:59.000Z</Time>
            <Position>
              <LatitudeDegrees>40.74906776659190654754638671875</LatitudeDegrees>
              <LongitudeDegrees>-4.07189277000725269317626953125</LongitudeDegrees>
            </Position>
            <AltitudeMeters>1239</AltitudeMeters>
            <DistanceMeters>2120.9240729675</DistanceMeters>
          </Trackpoint>
          <Trackpoint>
            <Time>2018-12-30T09:26:00.000Z</Time>
            <Position>
              <LatitudeDegrees>40.74908352456986904144287109375</LatitudeDegrees>
              <LongitudeDegrees>-4.07190634869039058685302734375</LongitudeDegrees>
            </Position>
            <AltitudeMeters>1239</AltitudeMeters>
            <DistanceMeters>2123.0189756267</DistanceMeters>
          </Trackpoint>
          <Trackpoint>
            <Time>2018-12-30T09:26:01.000Z</Time>
            <Position>
              <LatitudeDegrees>40.7490970194339752197265625</LatitudeDegrees>
              <LongitudeDegrees>-4.07191975973546504974365234375</LongitudeDegrees>
            </Position>
            <AltitudeMeters>1239</AltitudeMeters>
            <DistanceMeters>2124.9004085822</DistanceMeters>
          </Trackpoint>
          <Trackpoint>
            <Time>2018-12-30T09:26:02.000Z</Time>
            <Position>
              <LatitudeDegrees>40.74911034666001796722412109375</LatitudeDegrees>
              <LongitudeDegrees>-4.07193568535149097442626953125</LongitudeDegrees>
            </Position>
            <AltitudeMeters>1239</AltitudeMeters>
            <DistanceMeters>2126.902745702</DistanceMeters>
          </Trackpoint>
          <Trackpoint>
            <Time>2018-12-30T09:26:03.000Z</Time>
            <Position>
              <LatitudeDegrees>40.7491203211247920989990234375</LatitudeDegrees>
              <LongitudeDegrees>-4.07194959931075572967529296875</LongitudeDegrees>
            </Position>
            <AltitudeMeters>1239.199951171875</AltitudeMeters>
            <DistanceMeters>2128.5209923361</DistanceMeters>
          </Trackpoint>
          <Trackpoint>
            <Time>2018-12-30T09:26:04.000Z</Time>
            <Position>
              <LatitudeDegrees>40.74913783930242061614990234375</LatitudeDegrees>
              <LongitudeDegrees>-4.07196066342294216156005859375</LongitudeDegrees>
            </Position>
            <AltitudeMeters>1239.4000244140625</AltitudeMeters>
            <DistanceMeters>2130.6795843413</DistanceMeters>
          </Trackpoint>
          <Trackpoint>
            <Time>2018-12-30T09:26:05.000Z</Time>
            <Position>
              <LatitudeDegrees>40.74914990924298763275146484375</LatitudeDegrees>
              <LongitudeDegrees>-4.07197751104831695556640625</LongitudeDegrees>
            </Position>
            <AltitudeMeters>1239.5999755859375</AltitudeMeters>
            <DistanceMeters>2132.6316837905</DistanceMeters>
          </Trackpoint>
          <Trackpoint>
            <Time>2018-12-30T09:26:06.000Z</Time>
            <Position>
              <LatitudeDegrees>40.74915401637554168701171875</LatitudeDegrees>
              <LongitudeDegrees>-4.071992598474025726318359375</LongitudeDegrees>
            </Position>
            <AltitudeMeters>1239.800048828125</AltitudeMeters>
            <DistanceMeters>2133.9822671613</DistanceMeters>
          </Trackpoint>
          <Trackpoint>
            <Time>2018-12-30T09:26:07.000Z</Time>
            <Position>
              <LatitudeDegrees>40.74916340410709381103515625</LatitudeDegrees>
              <LongitudeDegrees>-4.07200424931943416595458984375</LongitudeDegrees>
            </Position>
            <AltitudeMeters>1240</AltitudeMeters>
            <DistanceMeters>2135.4171390822</DistanceMeters>
          </Trackpoint>
          <Trackpoint>
            <Time>2018-12-30T09:26:08.000Z</Time>
            <Position>
              <LatitudeDegrees>40.7491763122379779815673828125</LatitudeDegrees>
              <LongitudeDegrees>-4.07202034257352352142333984375</LongitudeDegrees>
            </Position>
            <AltitudeMeters>1240.199951171875</AltitudeMeters>
            <DistanceMeters>2137.3922322506</DistanceMeters>
          </Trackpoint>
          <Trackpoint>
            <Time>2018-12-30T09:26:09.000Z</Time>
            <Position>
              <LatitudeDegrees>40.74918108992278575897216796875</LatitudeDegrees>
              <LongitudeDegrees>-4.0720393694937229156494140625</LongitudeDegrees>
            </Position>
            <AltitudeMeters>1240.199951171875</AltitudeMeters>
            <DistanceMeters>2139.0814640749</DistanceMeters>
          </Trackpoint>
          <Trackpoint>
            <Time>2018-12-30T09:26:10.000Z</Time>
            <Position>
              <LatitudeDegrees>40.74918352067470550537109375</LatitudeDegrees>
              <LongitudeDegrees>-4.07205286435782909393310546875</LongitudeDegrees>
            </Position>
            <AltitudeMeters>1240.199951171875</AltitudeMeters>
            <DistanceMeters>2140.2491718907</DistanceMeters>
          </Trackpoint>
          <Trackpoint>
            <Time>2018-12-30T09:26:11.000Z</Time>
            <Position>
              <LatitudeDegrees>40.74919215403497219085693359375</LatitudeDegrees>
              <LongitudeDegrees>-4.072069041430950164794921875</LongitudeDegrees>
            </Position>
            <AltitudeMeters>1240.199951171875</AltitudeMeters>
            <DistanceMeters>2141.9195890904</DistanceMeters>
          </Trackpoint>
          <Trackpoint>
            <Time>2018-12-30T09:26:12.000Z</Time>
            <Position>
              <LatitudeDegrees>40.74920170940458774566650390625</LatitudeDegrees>
              <LongitudeDegrees>-4.07208773307502269744873046875</LongitudeDegrees>
            </Position>
            <AltitudeMeters>1240.199951171875</AltitudeMeters>
            <DistanceMeters>2143.8201233778</DistanceMeters>
          </Trackpoint>
          <Trackpoint>
            <Time>2018-12-30T09:26:13.000Z</Time>
            <Position>
              <LatitudeDegrees>40.749210678040981292724609375</LatitudeDegrees>
              <LongitudeDegrees>-4.07210567034780979156494140625</LongitudeDegrees>
            </Position>
            <AltitudeMeters>1240.199951171875</AltitudeMeters>
            <DistanceMeters>2145.6331175382</DistanceMeters>
          </Trackpoint>
          <Trackpoint>
            <Time>2018-12-30T09:26:14.000Z</Time>
            <Position>
              <LatitudeDegrees>40.74921562336385250091552734375</LatitudeDegrees>
              <LongitudeDegrees>-4.0721218474209308624267578125</LongitudeDegrees>
            </Position>
            <AltitudeMeters>1240</AltitudeMeters>
            <DistanceMeters>2147.1021948915</DistanceMeters>
          </Trackpoint>
          <Trackpoint>
            <Time>2018-12-30T09:26:15.000Z</Time>
            <Position>
              <LatitudeDegrees>40.74922132305800914764404296875</LatitudeDegrees>
              <LongitudeDegrees>-4.07214908860623836517333984375</LongitudeDegrees>
            </Position>
            <AltitudeMeters>1240</AltitudeMeters>
            <DistanceMeters>2149.4835575281</DistanceMeters>
          </Trackpoint>
          <Trackpoint>
            <Time>2018-12-30T09:26:16.000Z</Time>
            <Position>
              <LatitudeDegrees>40.74922978878021240234375</LatitudeDegrees>
              <LongitudeDegrees>-4.07217037864029407501220703125</LongitudeDegrees>
            </Position>
            <AltitudeMeters>1240</AltitudeMeters>
            <DistanceMeters>2151.5127728588</DistanceMeters>
          </Trackpoint>
          <Trackpoint>
            <Time>2018-12-30T09:26:17.000Z</Time>
            <Position>
              <LatitudeDegrees>40.7492302916944026947021484375</LatitudeDegrees>
              <LongitudeDegrees>-4.0721952728927135467529296875</LongitudeDegrees>
            </Position>
            <AltitudeMeters>1240.199951171875</AltitudeMeters>
            <DistanceMeters>2153.6141313197</DistanceMeters>
          </Trackpoint>
          <Trackpoint>
            <Time>2018-12-30T09:26:18.000Z</Time>
            <Position>
              <LatitudeDegrees>40.74922978878021240234375</LatitudeDegrees>
              <LongitudeDegrees>-4.07221580855548381805419921875</LongitudeDegrees>
            </Position>
            <AltitudeMeters>1240.199951171875</AltitudeMeters>
            <DistanceMeters>2155.3482061323</DistanceMeters>
          </Trackpoint>
          <Trackpoint>
            <Time>2018-12-30T09:26:19.000Z</Time>
            <Position>
              <LatitudeDegrees>40.7492329739034175872802734375</LatitudeDegrees>
              <LongitudeDegrees>-4.072235338389873504638671875</LongitudeDegrees>
            </Position>
            <AltitudeMeters>1240.4000244140625</AltitudeMeters>
            <DistanceMeters>2157.0347630035</DistanceMeters>
          </Trackpoint>
          <Trackpoint>
            <Time>2018-12-30T09:26:20.000Z</Time>
            <Position>
              <LatitudeDegrees>40.7492349855601787567138671875</LatitudeDegrees>
              <LongitudeDegrees>-4.0722552873194217681884765625</LongitudeDegrees>
            </Position>
            <AltitudeMeters>1240.4000244140625</AltitudeMeters>
            <DistanceMeters>2158.7346525476</DistanceMeters>
          </Trackpoint>
          <Trackpoint>
            <Time>2018-12-30T09:26:21.000Z</Time>
            <Position>
              <LatitudeDegrees>40.7492336444556713104248046875</LatitudeDegrees>
              <LongitudeDegrees>-4.07227364368736743927001953125</LongitudeDegrees>
            </Position>
            <AltitudeMeters>1240.5999755859375</AltitudeMeters>
            <DistanceMeters>2160.2932065452</DistanceMeters>
          </Trackpoint>
          <Trackpoint>
            <Time>2018-12-30T09:26:22.000Z</Time>
            <Position>
              <LatitudeDegrees>40.7492292858660221099853515625</LatitudeDegrees>
              <LongitudeDegrees>-4.072290323674678802490234375</LongitudeDegrees>
            </Position>
            <AltitudeMeters>1240.5999755859375</AltitudeMeters>
            <DistanceMeters>2161.7836423222</DistanceMeters>
          </Trackpoint>
          <Trackpoint>
            <Time>2018-12-30T09:26:23.000Z</Time>
            <Position>
              <LatitudeDegrees>40.7492259331047534942626953125</LatitudeDegrees>
              <LongitudeDegrees>-4.07230314798653125762939453125</LongitudeDegrees>
            </Position>
            <AltitudeMeters>1240.800048828125</AltitudeMeters>
            <DistanceMeters>2162.9318544806</DistanceMeters>
          </Trackpoint>
          <Trackpoint>
            <Time>2018-12-30T09:26:24.000Z</Time>
            <Position>
              <LatitudeDegrees>40.7492242567241191864013671875</LatitudeDegrees>
              <LongitudeDegrees>-4.07232343219220638275146484375</LongitudeDegrees>
            </Position>
            <AltitudeMeters>1240.800048828125</AltitudeMeters>
            <DistanceMeters>2164.6528614747</DistanceMeters>
          </Trackpoint>
          <Trackpoint>
            <Time>2018-12-30T09:26:25.000Z</Time>
            <Position>
              <LatitudeDegrees>40.7492222450673580169677734375</LatitudeDegrees>
              <LongitudeDegrees>-4.07234388403594493865966796875</LongitudeDegrees>
            </Position>
            <AltitudeMeters>1240.800048828125</AltitudeMeters>
            <DistanceMeters>2166.3895380514</DistanceMeters>
          </Trackpoint>
          <Trackpoint>
            <Time>2018-12-30T09:26:26.000Z</Time>
            <Position>
              <LatitudeDegrees>40.7492229156196117401123046875</LatitudeDegrees>
              <LongitudeDegrees>-4.0723595581948757171630859375</LongitudeDegrees>
            </Position>
            <AltitudeMeters>1240.800048828125</AltitudeMeters>
            <DistanceMeters>2167.7096913583</DistanceMeters>
          </Trackpoint>
          <Trackpoint>
            <Time>2018-12-30T09:26:27.000Z</Time>
            <Position>
              <LatitudeDegrees>40.74922936968505382537841796875</LatitudeDegrees>
              <LongitudeDegrees>-4.07237045466899871826171875</LongitudeDegrees>
            </Position>
            <AltitudeMeters>1240.800048828125</AltitudeMeters>
            <DistanceMeters>2168.8812593758</DistanceMeters>
          </Trackpoint>
          <Trackpoint>
            <Time>2018-12-30T09:26:28.000Z</Time>
            <Position>
              <LatitudeDegrees>40.74923892505466938018798828125</LatitudeDegrees>
              <LongitudeDegrees>-4.072385542094707489013671875</LongitudeDegrees>
            </Position>
            <AltitudeMeters>1241</AltitudeMeters>
            <DistanceMeters>2170.5408295959</DistanceMeters>
          </Trackpoint>
          <Trackpoint>
            <Time>2018-12-30T09:26:29.000Z</Time>
            <Position>
              <LatitudeDegrees>40.7492413558065891265869140625</LatitudeDegrees>
              <LongitudeDegrees>-4.0723974443972110748291015625</LongitudeDegrees>
            </Position>
            <AltitudeMeters>1241.4000244140625</AltitudeMeters>
            <DistanceMeters>2171.5817950964</DistanceMeters>
          </Trackpoint>
          <Trackpoint>
            <Time>2018-12-30T09:26:30.000Z</Time>
            <Position>
              <LatitudeDegrees>40.7492477260529994964599609375</LatitudeDegrees>
              <LongitudeDegrees>-4.07241093926131725311279296875</LongitudeDegrees>
            </Position>
            <AltitudeMeters>1241.4000244140625</AltitudeMeters>
            <DistanceMeters>2172.922311867</DistanceMeters>
          </Trackpoint>
          <Trackpoint>
            <Time>2018-12-30T09:26:31.000Z</Time>
            <Position>
              <LatitudeDegrees>40.7492606341838836669921875</LatitudeDegrees>
              <LongitudeDegrees>-4.07242535613477230072021484375</LongitudeDegrees>
            </Position>
            <AltitudeMeters>1241.5999755859375</AltitudeMeters>
            <DistanceMeters>2174.8037448225</DistanceMeters>
          </Trackpoint>
          <Trackpoint>
            <Time>2018-12-30T09:26:32.000Z</Time>
            <Position>
              <LatitudeDegrees>40.74927337467670440673828125</LatitudeDegrees>
              <LongitudeDegrees>-4.07243340276181697845458984375</LongitudeDegrees>
            </Position>
            <AltitudeMeters>1241.5999755859375</AltitudeMeters>
            <DistanceMeters>2176.3738438223</DistanceMeters>
          </Trackpoint>
          <Trackpoint>
            <Time>2018-12-30T09:26:33.000Z</Time>
            <Position>
              <LatitudeDegrees>40.74928351677954196929931640625</LatitudeDegrees>
              <LongitudeDegrees>-4.0724376775324344635009765625</LongitudeDegrees>
            </Position>
            <AltitudeMeters>1241.5999755859375</AltitudeMeters>
            <DistanceMeters>2177.5530943353</DistanceMeters>
          </Trackpoint>
          <Trackpoint>
            <Time>2018-12-30T09:26:34.000Z</Time>
            <Position>
              <LatitudeDegrees>40.7492906413972377777099609375</LatitudeDegrees>
              <LongitudeDegrees>-4.0724484063684940338134765625</LongitudeDegrees>
            </Position>
            <AltitudeMeters>1241.5999755859375</AltitudeMeters>
            <DistanceMeters>2178.7550977592</DistanceMeters>
          </Trackpoint>
          <Trackpoint>
            <Time>2018-12-30T09:26:35.000Z</Time>
            <Position>
              <LatitudeDegrees>40.74929215013980865478515625</LatitudeDegrees>
              <LongitudeDegrees>-4.07245871610939502716064453125</LongitudeDegrees>
            </Position>
            <AltitudeMeters>1241.5999755859375</AltitudeMeters>
            <DistanceMeters>2179.6414479443</DistanceMeters>
          </Trackpoint>
          <Trackpoint>
            <Time>2018-12-30T09:26:36.000Z</Time>
            <Position>
              <LatitudeDegrees>40.7493033818900585174560546875</LatitudeDegrees>
              <LongitudeDegrees>-4.0724717080593109130859375</LongitudeDegrees>
            </Position>
            <AltitudeMeters>1241.5999755859375</AltitudeMeters>
            <DistanceMeters>2181.3037365449</DistanceMeters>
          </Trackpoint>
          <Trackpoint>
            <Time>2018-12-30T09:26:37.000Z</Time>
            <Position>
              <LatitudeDegrees>40.74932039715349674224853515625</LatitudeDegrees>
              <LongitudeDegrees>-4.072486795485019683837890625</LongitudeDegrees>
            </Position>
            <AltitudeMeters>1241.5999755859375</AltitudeMeters>
            <DistanceMeters>2183.5843776898</DistanceMeters>
          </Trackpoint>
          <Trackpoint>
            <Time>2018-12-30T09:26:38.000Z</Time>
            <Position>
              <LatitudeDegrees>40.749334394931793212890625</LatitudeDegrees>
              <LongitudeDegrees>-4.0724950097501277923583984375</LongitudeDegrees>
            </Position>
            <AltitudeMeters>1241.800048828125</AltitudeMeters>
            <DistanceMeters>2185.2895711143</DistanceMeters>
          </Trackpoint>
          <Trackpoint>
            <Time>2018-12-30T09:26:39.000Z</Time>
            <Position>
              <LatitudeDegrees>40.74934621341526508331298828125</LatitudeDegrees>
              <LongitudeDegrees>-4.07250330783426761627197265625</LongitudeDegrees>
            </Position>
            <AltitudeMeters>1241.800048828125</AltitudeMeters>
            <DistanceMeters>2186.7800068913</DistanceMeters>
          </Trackpoint>
          <Trackpoint>
            <Time>2018-12-30T09:26:40.000Z</Time>
            <Position>
              <LatitudeDegrees>40.749358199536800384521484375</LatitudeDegrees>
              <LongitudeDegrees>-4.0725154615938663482666015625</LongitudeDegrees>
            </Position>
            <AltitudeMeters>1241.800048828125</AltitudeMeters>
            <DistanceMeters>2188.46388456</DistanceMeters>
          </Trackpoint>
          <Trackpoint>
            <Time>2018-12-30T09:26:41.000Z</Time>
            <Position>
              <LatitudeDegrees>40.7493679225444793701171875</LatitudeDegrees>
              <LongitudeDegrees>-4.07253138720989227294921875</LongitudeDegrees>
            </Position>
            <AltitudeMeters>1242</AltitudeMeters>
            <DistanceMeters>2190.1901305525</DistanceMeters>
          </Trackpoint>
          <Trackpoint>
            <Time>2018-12-30T09:26:42.000Z</Time>
            <Position>
              <LatitudeDegrees>40.74937538243830204010009765625</LatitudeDegrees>
              <LongitudeDegrees>-4.07254479825496673583984375</LongitudeDegrees>
            </Position>
            <AltitudeMeters>1242</AltitudeMeters>
            <DistanceMeters>2191.5931831762</DistanceMeters>
          </Trackpoint>
          <Trackpoint>
            <Time>2018-12-30T09:26:43.000Z</Time>
            <Position>
              <LatitudeDegrees>40.74938141740858554840087890625</LatitudeDegrees>
              <LongitudeDegrees>-4.07255820930004119873046875</LongitudeDegrees>
            </Position>
            <AltitudeMeters>1242</AltitudeMeters>
            <DistanceMeters>2192.9064784974</DistanceMeters>
          </Trackpoint>
          <Trackpoint>
            <Time>2018-12-30T09:26:44.000Z</Time>
            <Position>
              <LatitudeDegrees>40.74937823228538036346435546875</LatitudeDegrees>
              <LongitudeDegrees>-4.07257405109703540802001953125</LongitudeDegrees>
            </Position>
            <AltitudeMeters>1242</AltitudeMeters>
            <DistanceMeters>2194.2835464163</DistanceMeters>
          </Trackpoint>
          <Trackpoint>
            <Time>2018-12-30T09:26:45.000Z</Time>
            <Position>
              <LatitudeDegrees>40.7493798248469829559326171875</LatitudeDegrees>
              <LongitudeDegrees>-4.07259047962725162506103515625</LongitudeDegrees>
            </Position>
            <AltitudeMeters>1242</AltitudeMeters>
            <DistanceMeters>2195.6801481891</DistanceMeters>
          </Trackpoint>
          <Trackpoint>
            <Time>2018-12-30T09:26:46.000Z</Time>
            <Position>
              <LatitudeDegrees>40.749378986656665802001953125</LatitudeDegrees>
              <LongitudeDegrees>-4.07260975800454616546630859375</LongitudeDegrees>
            </Position>
            <AltitudeMeters>1242</AltitudeMeters>
            <DistanceMeters>2197.3095169241</DistanceMeters>
          </Trackpoint>
          <Trackpoint>
            <Time>2018-12-30T09:26:47.000Z</Time>
            <Position>
              <LatitudeDegrees>40.74938393197953701019287109375</LatitudeDegrees>
              <LongitudeDegrees>-4.0726220794022083282470703125</LongitudeDegrees>
            </Position>
            <AltitudeMeters>1242</AltitudeMeters>
            <DistanceMeters>2198.4849324659</DistanceMeters>
          </Trackpoint>
          <Trackpoint>
            <Time>2018-12-30T09:26:48.000Z</Time>
            <Position>
              <LatitudeDegrees>40.74939818121492862701416015625</LatitudeDegrees>
              <LongitudeDegrees>-4.07263607718050479888916015625</LongitudeDegrees>
            </Position>
            <AltitudeMeters>1242</AltitudeMeters>
            <DistanceMeters>2200.4600256343</DistanceMeters>
          </Trackpoint>
          <Trackpoint>
            <Time>2018-12-30T09:26:49.000Z</Time>
            <Position>
              <LatitudeDegrees>40.749403797090053558349609375</LatitudeDegrees>
              <LongitudeDegrees>-4.072655104100704193115234375</LongitudeDegrees>
            </Position>
            <AltitudeMeters>1242.199951171875</AltitudeMeters>
            <DistanceMeters>2202.1810326284</DistanceMeters>
          </Trackpoint>
          <Trackpoint>
            <Time>2018-12-30T09:26:50.000Z</Time>
            <Position>
              <LatitudeDegrees>40.74940153397619724273681640625</LatitudeDegrees>
              <LongitudeDegrees>-4.07267597503960132598876953125</LongitudeDegrees>
            </Position>
            <AltitudeMeters>1242.4000244140625</AltitudeMeters>
            <DistanceMeters>2203.9588196672</DistanceMeters>
          </Trackpoint>
          <Trackpoint>
            <Time>2018-12-30T09:26:51.000Z</Time>
            <Position>
              <LatitudeDegrees>40.7494059763848781585693359375</LatitudeDegrees>
              <LongitudeDegrees>-4.072691313922405242919921875</LongitudeDegrees>
            </Position>
            <AltitudeMeters>1242.5999755859375</AltitudeMeters>
            <DistanceMeters>2205.3424295132</DistanceMeters>
          </Trackpoint>
          <Trackpoint>
            <Time>2018-12-30T09:26:52.000Z</Time>
            <Position>
              <LatitudeDegrees>40.74941192753612995147705078125</LatitudeDegrees>
              <LongitudeDegrees>-4.07270380295813083648681640625</LongitudeDegrees>
            </Position>
            <AltitudeMeters>1242.800048828125</AltitudeMeters>
            <DistanceMeters>2206.5886931885</DistanceMeters>
          </Trackpoint>
          <Trackpoint>
            <Time>2018-12-30T09:26:53.000Z</Time>
            <Position>
              <LatitudeDegrees>40.7494146935641765594482421875</LatitudeDegrees>
              <LongitudeDegrees>-4.0727166272699832916259765625</LongitudeDegrees>
            </Position>
            <AltitudeMeters>1243</AltitudeMeters>
            <DistanceMeters>2207.713064436</DistanceMeters>
          </Trackpoint>
          <Trackpoint>
            <Time>2018-12-30T09:26:54.000Z</Time>
            <Position>
              <LatitudeDegrees>40.749430619180202484130859375</LatitudeDegrees>
              <LongitudeDegrees>-4.07272517681121826171875</LongitudeDegrees>
            </Position>
            <AltitudeMeters>1243.199951171875</AltitudeMeters>
            <DistanceMeters>2209.6254401731</DistanceMeters>
          </Trackpoint>
          <Trackpoint>
            <Time>2018-12-30T09:26:55.000Z</Time>
            <Position>
              <LatitudeDegrees>40.749449394643306732177734375</LatitudeDegrees>
              <LongitudeDegrees>-4.0727343969047069549560546875</LongitudeDegrees>
            </Position>
            <AltitudeMeters>1243.199951171875</AltitudeMeters>
            <DistanceMeters>2211.8560392228</DistanceMeters>
          </Trackpoint>
          <Trackpoint>
            <Time>2018-12-30T09:26:56.000Z</Time>
            <Position>
              <LatitudeDegrees>40.74945149011909961700439453125</LatitudeDegrees>
              <LongitudeDegrees>-4.07274671830236911773681640625</LongitudeDegrees>
            </Position>
            <AltitudeMeters>1243</AltitudeMeters>
            <DistanceMeters>2212.9184701879</DistanceMeters>
          </Trackpoint>
          <Trackpoint>
            <Time>2018-12-30T09:26:57.000Z</Time>
            <Position>
              <LatitudeDegrees>40.749459452927112579345703125</LatitudeDegrees>
              <LongitudeDegrees>-4.0727560222148895263671875</LongitudeDegrees>
            </Position>
            <AltitudeMeters>1243</AltitudeMeters>
            <DistanceMeters>2214.0977207009</DistanceMeters>
          </Trackpoint>
          <Trackpoint>
            <Time>2018-12-30T09:26:58.000Z</Time>
            <Position>
              <LatitudeDegrees>40.7494644820690155029296875</LatitudeDegrees>
              <LongitudeDegrees>-4.0727685950696468353271484375</LongitudeDegrees>
            </Position>
            <AltitudeMeters>1243</AltitudeMeters>
            <DistanceMeters>2215.2997241247</DistanceMeters>
          </Trackpoint>
          <Trackpoint>
            <Time>2018-12-30T09:26:59.000Z</Time>
            <Position>
              <LatitudeDegrees>40.7494666613638401031494140625</LatitudeDegrees>
              <LongitudeDegrees>-4.07278410159051418304443359375</LongitudeDegrees>
            </Position>
            <AltitudeMeters>1242.800048828125</AltitudeMeters>
            <DistanceMeters>2216.6300981259</DistanceMeters>
          </Trackpoint>
          <Trackpoint>
            <Time>2018-12-30T09:27:00.000Z</Time>
            <Position>
              <LatitudeDegrees>40.74947898276150226593017578125</LatitudeDegrees>
              <LongitudeDegrees>-4.07279030419886112213134765625</LongitudeDegrees>
            </Position>
            <AltitudeMeters>1242.800048828125</AltitudeMeters>
            <DistanceMeters>2218.0960988741</DistanceMeters>
          </Trackpoint>
          <Trackpoint>
            <Time>2018-12-30T09:27:01.000Z</Time>
            <Position>
              <LatitudeDegrees>40.74949222616851329803466796875</LatitudeDegrees>
              <LongitudeDegrees>-4.07279566861689090728759765625</LongitudeDegrees>
            </Position>
            <AltitudeMeters>1243</AltitudeMeters>
            <DistanceMeters>2219.6342406193</DistanceMeters>
          </Trackpoint>
          <Trackpoint>
            <Time>2018-12-30T09:27:02.000Z</Time>
            <Position>
              <LatitudeDegrees>40.74949842877686023712158203125</LatitudeDegrees>
              <LongitudeDegrees>-4.07280405052006244659423828125</LongitudeDegrees>
            </Position>
            <AltitudeMeters>1243.199951171875</AltitudeMeters>
            <DistanceMeters>2220.6217872035</DistanceMeters>
          </Trackpoint>
          <Trackpoint>
            <Time>2018-12-30T09:27:03.000Z</Time>
            <Position>
              <LatitudeDegrees>40.749515108764171600341796875</LatitudeDegrees>
              <LongitudeDegrees>-4.0728182159364223480224609375</LongitudeDegrees>
            </Position>
            <AltitudeMeters>1243.4000244140625</AltitudeMeters>
            <DistanceMeters>2222.8300084967</DistanceMeters>
          </Trackpoint>
          <Trackpoint>
            <Time>2018-12-30T09:27:04.000Z</Time>
            <Position>
              <LatitudeDegrees>40.74951753951609134674072265625</LatitudeDegrees>
              <LongitudeDegrees>-4.0728376619517803192138671875</LongitudeDegrees>
            </Position>
            <AltitudeMeters>1243.5999755859375</AltitudeMeters>
            <DistanceMeters>2224.4922970973</DistanceMeters>
          </Trackpoint>
          <Trackpoint>
            <Time>2018-12-30T09:27:05.000Z</Time>
            <Position>
              <LatitudeDegrees>40.7495208084583282470703125</LatitudeDegrees>
              <LongitudeDegrees>-4.0728524141013622283935546875</LongitudeDegrees>
            </Position>
            <AltitudeMeters>1243.800048828125</AltitudeMeters>
            <DistanceMeters>2225.788288694</DistanceMeters>
          </Trackpoint>
          <Trackpoint>
            <Time>2018-12-30T09:27:06.000Z</Time>
            <Position>
              <LatitudeDegrees>40.74951653368771076202392578125</LatitudeDegrees>
              <LongitudeDegrees>-4.072863645851612091064453125</LongitudeDegrees>
            </Position>
            <AltitudeMeters>1244.199951171875</AltitudeMeters>
            <DistanceMeters>2226.8464614016</DistanceMeters>
          </Trackpoint>
          <Trackpoint>
            <Time>2018-12-30T09:27:07.000Z</Time>
            <Position>
              <LatitudeDegrees>40.7495169527828693389892578125</LatitudeDegrees>
              <LongitudeDegrees>-4.07287093810737133026123046875</LongitudeDegrees>
            </Position>
            <AltitudeMeters>1244.5999755859375</AltitudeMeters>
            <DistanceMeters>2227.4623048968</DistanceMeters>
          </Trackpoint>
          <Trackpoint>
            <Time>2018-12-30T09:27:08.000Z</Time>
            <Position>
              <LatitudeDegrees>40.74952340684831142425537109375</LatitudeDegrees>
              <LongitudeDegrees>-4.07287932001054286956787109375</LongitudeDegrees>
            </Position>
            <AltitudeMeters>1244.800048828125</AltitudeMeters>
            <DistanceMeters>2228.4679731133</DistanceMeters>
          </Trackpoint>
          <Trackpoint>
            <Time>2018-12-30T09:27:09.000Z</Time>
            <Position>
              <LatitudeDegrees>40.7495293579995632171630859375</LatitudeDegrees>
              <LongitudeDegrees>-4.072883762419223785400390625</LongitudeDegrees>
            </Position>
            <AltitudeMeters>1245.199951171875</AltitudeMeters>
            <DistanceMeters>2229.2281868283</DistanceMeters>
          </Trackpoint>
          <Trackpoint>
            <Time>2018-12-30T09:27:10.000Z</Time>
            <Position>
              <LatitudeDegrees>40.7495320402085781097412109375</LatitudeDegrees>
              <LongitudeDegrees>-4.0728856064379215240478515625</LongitudeDegrees>
            </Position>
            <AltitudeMeters>1245.4000244140625</AltitudeMeters>
            <DistanceMeters>2229.5708105195</DistanceMeters>
          </Trackpoint>
          <Trackpoint>
            <Time>2018-12-30T09:27:11.000Z</Time>
            <Position>
              <LatitudeDegrees>40.74953799135982990264892578125</LatitudeDegrees>
              <LongitudeDegrees>-4.07289541326463222503662109375</LongitudeDegrees>
            </Position>
            <AltitudeMeters>1245.4000244140625</AltitudeMeters>
            <DistanceMeters>2230.6289832271</DistanceMeters>
          </Trackpoint>
          <Trackpoint>
            <Time>2018-12-30T09:27:12.000Z</Time>
            <Position>
              <LatitudeDegrees>40.7495447807013988494873046875</LatitudeDegrees>
              <LongitudeDegrees>-4.07289214432239532470703125</LongitudeDegrees>
            </Position>
            <AltitudeMeters>1245.5999755859375</AltitudeMeters>
            <DistanceMeters>2231.4353116366</DistanceMeters>
          </Trackpoint>
          <Trackpoint>
            <Time>2018-12-30T09:27:13.000Z</Time>
            <Position>
              <LatitudeDegrees>40.749553330242633819580078125</LatitudeDegrees>
              <LongitudeDegrees>-4.072897173464298248291015625</LongitudeDegrees>
            </Position>
            <AltitudeMeters>1245.5999755859375</AltitudeMeters>
            <DistanceMeters>2232.4762771371</DistanceMeters>
          </Trackpoint>
          <Trackpoint>
            <Time>2018-12-30T09:27:14.000Z</Time>
            <Position>
              <LatitudeDegrees>40.7495622150599956512451171875</LatitudeDegrees>
              <LongitudeDegrees>-4.0729097463190555572509765625</LongitudeDegrees>
            </Position>
            <AltitudeMeters>1245.5999755859375</AltitudeMeters>
            <DistanceMeters>2233.9267969789</DistanceMeters>
          </Trackpoint>
          <Trackpoint>
            <Time>2018-12-30T09:27:15.000Z</Time>
            <Position>
              <LatitudeDegrees>40.74957319535315036773681640625</LatitudeDegrees>
              <LongitudeDegrees>-4.07291653566062450408935546875</LongitudeDegrees>
            </Position>
            <AltitudeMeters>1245.5999755859375</AltitudeMeters>
            <DistanceMeters>2235.2773803498</DistanceMeters>
          </Trackpoint>
          <Trackpoint>
            <Time>2018-12-30T09:27:16.000Z</Time>
            <Position>
              <LatitudeDegrees>40.74958023615181446075439453125</LatitudeDegrees>
              <LongitudeDegrees>-4.07292558811604976654052734375</LongitudeDegrees>
            </Position>
            <AltitudeMeters>1245.4000244140625</AltitudeMeters>
            <DistanceMeters>2236.3691541773</DistanceMeters>
          </Trackpoint>
          <Trackpoint>
            <Time>2018-12-30T09:27:17.000Z</Time>
            <Position>
              <LatitudeDegrees>40.74958761222660541534423828125</LatitudeDegrees>
              <LongitudeDegrees>-4.0729348920285701751708984375</LongitudeDegrees>
            </Position>
            <AltitudeMeters>1245.4000244140625</AltitudeMeters>
            <DistanceMeters>2237.5015281681</DistanceMeters>
          </Trackpoint>
          <Trackpoint>
            <Time>2018-12-30T09:27:18.000Z</Time>
            <Position>
              <LatitudeDegrees>40.74959255754947662353515625</LatitudeDegrees>
              <LongitudeDegrees>-4.07295542769134044647216796875</LongitudeDegrees>
            </Position>
            <AltitudeMeters>1245.4000244140625</AltitudeMeters>
            <DistanceMeters>2239.317010997</DistanceMeters>
          </Trackpoint>
          <Trackpoint>
            <Time>2018-12-30T09:27:19.000Z</Time>
            <Position>
              <LatitudeDegrees>40.7495994307100772857666015625</LatitudeDegrees>
              <LongitudeDegrees>-4.0729731135070323944091796875</LongitudeDegrees>
            </Position>
            <AltitudeMeters>1245.4000244140625</AltitudeMeters>
            <DistanceMeters>2240.9901289539</DistanceMeters>
          </Trackpoint>
          <Trackpoint>
            <Time>2018-12-30T09:27:20.000Z</Time>
            <Position>
              <LatitudeDegrees>40.7496121712028980255126953125</LatitudeDegrees>
              <LongitudeDegrees>-4.07299146987497806549072265625</LongitudeDegrees>
            </Position>
            <AltitudeMeters>1245.4000244140625</AltitudeMeters>
            <DistanceMeters>2243.0871857553</DistanceMeters>
          </Trackpoint>
          <Trackpoint>
            <Time>2018-12-30T09:27:21.000Z</Time>
            <Position>
              <LatitudeDegrees>40.74962298385798931121826171875</LatitudeDegrees>
              <LongitudeDegrees>-4.07300991006195545196533203125</LongitudeDegrees>
            </Position>
            <AltitudeMeters>1245.4000244140625</AltitudeMeters>
            <DistanceMeters>2245.0485150405</DistanceMeters>
          </Trackpoint>
          <Trackpoint>
            <Time>2018-12-30T09:27:22.000Z</Time>
            <Position>
              <LatitudeDegrees>40.7496312819421291351318359375</LatitudeDegrees>
              <LongitudeDegrees>-4.0730322897434234619140625</LongitudeDegrees>
            </Position>
            <AltitudeMeters>1245.4000244140625</AltitudeMeters>
            <DistanceMeters>2247.1477237735</DistanceMeters>
          </Trackpoint>
          <Trackpoint>
            <Time>2018-12-30T09:27:23.000Z</Time>
            <Position>
              <LatitudeDegrees>40.74963538907468318939208984375</LatitudeDegrees>
              <LongitudeDegrees>-4.073054082691669464111328125</LongitudeDegrees>
            </Position>
            <AltitudeMeters>1245.5999755859375</AltitudeMeters>
            <DistanceMeters>2249.0411176439</DistanceMeters>
          </Trackpoint>
          <Trackpoint>
            <Time>2018-12-30T09:27:24.000Z</Time>
            <Position>
              <LatitudeDegrees>40.74964427389204502105712890625</LatitudeDegrees>
              <LongitudeDegrees>-4.07307361252605915069580078125</LongitudeDegrees>
            </Position>
            <AltitudeMeters>1245.5999755859375</AltitudeMeters>
            <DistanceMeters>2250.960563186</DistanceMeters>
          </Trackpoint>
          <Trackpoint>
            <Time>2018-12-30T09:27:25.000Z</Time>
            <Position>
              <LatitudeDegrees>40.7496513985097408294677734375</LatitudeDegrees>
              <LongitudeDegrees>-4.07309188507497310638427734375</LongitudeDegrees>
            </Position>
            <AltitudeMeters>1245.5999755859375</AltitudeMeters>
            <DistanceMeters>2252.692032325</DistanceMeters>
          </Trackpoint>
          <Trackpoint>
            <Time>2018-12-30T09:27:26.000Z</Time>
            <Position>
              <LatitudeDegrees>40.74965785257518291473388671875</LatitudeDegrees>
              <LongitudeDegrees>-4.07311032526195049285888671875</LongitudeDegrees>
            </Position>
            <AltitudeMeters>1245.800048828125</AltitudeMeters>
            <DistanceMeters>2254.4025131837</DistanceMeters>
          </Trackpoint>
          <Trackpoint>
            <Time>2018-12-30T09:27:27.000Z</Time>
            <Position>
              <LatitudeDegrees>40.74965550564229488372802734375</LatitudeDegrees>
              <LongitudeDegrees>-4.073131196200847625732421875</LongitudeDegrees>
            </Position>
            <AltitudeMeters>1245.800048828125</AltitudeMeters>
            <DistanceMeters>2256.1803002225</DistanceMeters>
          </Trackpoint>
          <Trackpoint>
            <Time>2018-12-30T09:27:28.000Z</Time>
            <Position>
              <LatitudeDegrees>40.74965533800423145294189453125</LatitudeDegrees>
              <LongitudeDegrees>-4.0731498040258884429931640625</LongitudeDegrees>
            </Position>
            <AltitudeMeters>1245.800048828125</AltitudeMeters>
            <DistanceMeters>2257.7503992223</DistanceMeters>
          </Trackpoint>
          <Trackpoint>
            <Time>2018-12-30T09:27:29.000Z</Time>
            <Position>
              <LatitudeDegrees>40.749660618603229522705078125</LatitudeDegrees>
              <LongitudeDegrees>-4.0731635503470897674560546875</LongitudeDegrees>
            </Position>
            <AltitudeMeters>1245.800048828125</AltitudeMeters>
            <DistanceMeters>2259.0533398853</DistanceMeters>
          </Trackpoint>
          <Trackpoint>
            <Time>2018-12-30T09:27:30.000Z</Time>
            <Position>
              <LatitudeDegrees>40.749662630259990692138671875</LatitudeDegrees>
              <LongitudeDegrees>-4.07317377626895904541015625</LongitudeDegrees>
            </Position>
            <AltitudeMeters>1245.800048828125</AltitudeMeters>
            <DistanceMeters>2259.9447694827</DistanceMeters>
          </Trackpoint>
          <Trackpoint>
            <Time>2018-12-30T09:27:31.000Z</Time>
            <Position>
              <LatitudeDegrees>40.74967377819120883941650390625</LatitudeDegrees>
              <LongitudeDegrees>-4.07317922450602054595947265625</LongitudeDegrees>
            </Position>
            <AltitudeMeters>1246</AltitudeMeters>
            <DistanceMeters>2261.2717453328</DistanceMeters>
          </Trackpoint>
          <Trackpoint>
            <Time>2018-12-30T09:27:32.000Z</Time>
            <Position>
              <LatitudeDegrees>40.749686770141124725341796875</LatitudeDegrees>
              <LongitudeDegrees>-4.07318676821887493133544921875</LongitudeDegrees>
            </Position>
            <AltitudeMeters>1245.800048828125</AltitudeMeters>
            <DistanceMeters>2262.8504476792</DistanceMeters>
          </Trackpoint>
          <Trackpoint>
            <Time>2018-12-30T09:27:33.000Z</Time>
            <Position>
              <LatitudeDegrees>40.74969716370105743408203125</LatitudeDegrees>
              <LongitudeDegrees>-4.07319791615009307861328125</LongitudeDegrees>
            </Position>
            <AltitudeMeters>1245.5999755859375</AltitudeMeters>
            <DistanceMeters>2264.3408834561</DistanceMeters>
          </Trackpoint>
          <Trackpoint>
            <Time>2018-12-30T09:27:34.000Z</Time>
            <Position>
              <LatitudeDegrees>40.7497058808803558349609375</LatitudeDegrees>
              <LongitudeDegrees>-4.07320805825293064117431640625</LongitudeDegrees>
            </Position>
            <AltitudeMeters>1245.5999755859375</AltitudeMeters>
            <DistanceMeters>2265.6368750527</DistanceMeters>
          </Trackpoint>
          <Trackpoint>
            <Time>2018-12-30T09:27:35.000Z</Time>
            <Position>
              <LatitudeDegrees>40.74972272850573062896728515625</LatitudeDegrees>
              <LongitudeDegrees>-4.07321174629032611846923828125</LongitudeDegrees>
            </Position>
            <AltitudeMeters>1245.5999755859375</AltitudeMeters>
            <DistanceMeters>2267.5397835251</DistanceMeters>
          </Trackpoint>
          <Trackpoint>
            <Time>2018-12-30T09:27:36.000Z</Time>
            <Position>
              <LatitudeDegrees>40.74973278678953647613525390625</LatitudeDegrees>
              <LongitudeDegrees>-4.073217697441577911376953125</LongitudeDegrees>
            </Position>
            <AltitudeMeters>1245.5999755859375</AltitudeMeters>
            <DistanceMeters>2268.7714705156</DistanceMeters>
          </Trackpoint>
          <Trackpoint>
            <Time>2018-12-30T09:27:37.000Z</Time>
            <Position>
              <LatitudeDegrees>40.74974535964429378509521484375</LatitudeDegrees>
              <LongitudeDegrees>-4.07322381623089313507080078125</LongitudeDegrees>
            </Position>
            <AltitudeMeters>1245.800048828125</AltitudeMeters>
            <DistanceMeters>2270.2619062925</DistanceMeters>
          </Trackpoint>
          <Trackpoint>
            <Time>2018-12-30T09:27:38.000Z</Time>
            <Position>
              <LatitudeDegrees>40.7497546635568141937255859375</LatitudeDegrees>
              <LongitudeDegrees>-4.07323152758181095123291015625</LongitudeDegrees>
            </Position>
            <AltitudeMeters>1245.800048828125</AltitudeMeters>
            <DistanceMeters>2271.4862398621</DistanceMeters>
          </Trackpoint>
          <Trackpoint>
            <Time>2018-12-30T09:27:39.000Z</Time>
            <Position>
              <LatitudeDegrees>40.74976296164095401763916015625</LatitudeDegrees>
              <LongitudeDegrees>-4.07323873601853847503662109375</LongitudeDegrees>
            </Position>
            <AltitudeMeters>1245.800048828125</AltitudeMeters>
            <DistanceMeters>2272.5944322626</DistanceMeters>
          </Trackpoint>
          <Trackpoint>
            <Time>2018-12-30T09:27:40.000Z</Time>
            <Position>
              <LatitudeDegrees>40.7497637160122394561767578125</LatitudeDegrees>
              <LongitudeDegrees>-4.073247201740741729736328125</LongitudeDegrees>
            </Position>
            <AltitudeMeters>1246</AltitudeMeters>
            <DistanceMeters>2273.3055470781</DistanceMeters>
          </Trackpoint>
          <Trackpoint>
            <Time>2018-12-30T09:27:41.000Z</Time>
            <Position>
              <LatitudeDegrees>40.74977226555347442626953125</LatitudeDegrees>
              <LongitudeDegrees>-4.07325156033039093017578125</LongitudeDegrees>
            </Position>
            <AltitudeMeters>1245.800048828125</AltitudeMeters>
            <DistanceMeters>2274.3245950608</DistanceMeters>
          </Trackpoint>
          <Trackpoint>
            <Time>2018-12-30T09:27:42.000Z</Time>
            <Position>
              <LatitudeDegrees>40.749780647456645965576171875</LatitudeDegrees>
              <LongitudeDegrees>-4.07325633801519870758056640625</LongitudeDegrees>
            </Position>
            <AltitudeMeters>1245.800048828125</AltitudeMeters>
            <DistanceMeters>2275.3392027262</DistanceMeters>
          </Trackpoint>
          <Trackpoint>
            <Time>2018-12-30T09:27:43.000Z</Time>
            <Position>
              <LatitudeDegrees>40.749794058501720428466796875</LatitudeDegrees>
              <LongitudeDegrees>-4.07325960695743560791015625</LongitudeDegrees>
            </Position>
            <AltitudeMeters>1245.800048828125</AltitudeMeters>
            <DistanceMeters>2276.8596301561</DistanceMeters>
          </Trackpoint>
          <Trackpoint>
            <Time>2018-12-30T09:27:44.000Z</Time>
            <Position>
              <LatitudeDegrees>40.74980654753744602203369140625</LatitudeDegrees>
              <LongitudeDegrees>-4.073260612785816192626953125</LongitudeDegrees>
            </Position>
            <AltitudeMeters>1246</AltitudeMeters>
            <DistanceMeters>2278.2497511433</DistanceMeters>
          </Trackpoint>
          <Trackpoint>
            <Time>2018-12-30T09:27:45.000Z</Time>
            <Position>
              <LatitudeDegrees>40.7498212158679962158203125</LatitudeDegrees>
              <LongitudeDegrees>-4.0732644684612751007080078125</LongitudeDegrees>
            </Position>
            <AltitudeMeters>1246.199951171875</AltitudeMeters>
            <DistanceMeters>2279.9120397439</DistanceMeters>
          </Trackpoint>
          <Trackpoint>
            <Time>2018-12-30T09:27:46.000Z</Time>
            <Position>
              <LatitudeDegrees>40.74983588419854640960693359375</LatitudeDegrees>
              <LongitudeDegrees>-4.0732681564986705780029296875</LongitudeDegrees>
            </Position>
            <AltitudeMeters>1246.199951171875</AltitudeMeters>
            <DistanceMeters>2281.577042287</DistanceMeters>
          </Trackpoint>
          <Trackpoint>
            <Time>2018-12-30T09:27:47.000Z</Time>
            <Position>
              <LatitudeDegrees>40.74984560720622539520263671875</LatitudeDegrees>
              <LongitudeDegrees>-4.07327980734407901763916015625</LongitudeDegrees>
            </Position>
            <AltitudeMeters>1246.4000244140625</AltitudeMeters>
            <DistanceMeters>2283.0399599597</DistanceMeters>
          </Trackpoint>
          <Trackpoint>
            <Time>2018-12-30T09:27:48.000Z</Time>
            <Position>
              <LatitudeDegrees>40.7498505525290966033935546875</LatitudeDegrees>
              <LongitudeDegrees>-4.0732882730662822723388671875</LongitudeDegrees>
            </Position>
            <AltitudeMeters>1246.4000244140625</AltitudeMeters>
            <DistanceMeters>2283.9414625276</DistanceMeters>
          </Trackpoint>
          <Trackpoint>
            <Time>2018-12-30T09:27:49.000Z</Time>
            <Position>
              <LatitudeDegrees>40.74985943734645843505859375</LatitudeDegrees>
              <LongitudeDegrees>-4.07329757697880268096923828125</LongitudeDegrees>
            </Position>
            <AltitudeMeters>1246.5999755859375</AltitudeMeters>
            <DistanceMeters>2285.2021343541</DistanceMeters>
          </Trackpoint>
          <Trackpoint>
            <Time>2018-12-30T09:27:50.000Z</Time>
            <Position>
              <LatitudeDegrees>40.749868489801883697509765625</LatitudeDegrees>
              <LongitudeDegrees>-4.0733057074248790740966796875</LongitudeDegrees>
            </Position>
            <AltitudeMeters>1246.800048828125</AltitudeMeters>
            <DistanceMeters>2286.4153542272</DistanceMeters>
          </Trackpoint>
          <Trackpoint>
            <Time>2018-12-30T09:27:51.000Z</Time>
            <Position>
              <LatitudeDegrees>40.7498699985444545745849609375</LatitudeDegrees>
              <LongitudeDegrees>-4.073318280279636383056640625</LongitudeDegrees>
            </Position>
            <AltitudeMeters>1246.5999755859375</AltitudeMeters>
            <DistanceMeters>2287.4904587732</DistanceMeters>
          </Trackpoint>
          <Trackpoint>
            <Time>2018-12-30T09:27:52.000Z</Time>
            <Position>
              <LatitudeDegrees>40.7498736865818500518798828125</LatitudeDegrees>
              <LongitudeDegrees>-4.073331356048583984375</LongitudeDegrees>
            </Position>
            <AltitudeMeters>1246.5999755859375</AltitudeMeters>
            <DistanceMeters>2288.6697092861</DistanceMeters>
          </Trackpoint>
          <Trackpoint>
            <Time>2018-12-30T09:27:53.000Z</Time>
            <Position>
              <LatitudeDegrees>40.74987821280956268310546875</LatitudeDegrees>
              <LongitudeDegrees>-4.07334552146494388580322265625</LongitudeDegrees>
            </Position>
            <AltitudeMeters>1246.5999755859375</AltitudeMeters>
            <DistanceMeters>2289.9657008828</DistanceMeters>
          </Trackpoint>
          <Trackpoint>
            <Time>2018-12-30T09:27:54.000Z</Time>
            <Position>
              <LatitudeDegrees>40.7498857565224170684814453125</LatitudeDegrees>
              <LongitudeDegrees>-4.073355495929718017578125</LongitudeDegrees>
            </Position>
            <AltitudeMeters>1246.800048828125</AltitudeMeters>
            <DistanceMeters>2291.1563822011</DistanceMeters>
          </Trackpoint>
          <Trackpoint>
            <Time>2018-12-30T09:27:55.000Z</Time>
            <Position>
              <LatitudeDegrees>40.74988936074078083038330078125</LatitudeDegrees>
              <LongitudeDegrees>-4.07336555421352386474609375</LongitudeDegrees>
            </Position>
            <AltitudeMeters>1246.800048828125</AltitudeMeters>
            <DistanceMeters>2292.0970986788</DistanceMeters>
          </Trackpoint>
          <Trackpoint>
            <Time>2018-12-30T09:27:56.000Z</Time>
            <Position>
              <LatitudeDegrees>40.749895311892032623291015625</LatitudeDegrees>
              <LongitudeDegrees>-4.0733751095831394195556640625</LongitudeDegrees>
            </Position>
            <AltitudeMeters>1246.800048828125</AltitudeMeters>
            <DistanceMeters>2293.1423925369</DistanceMeters>
          </Trackpoint>
          <Trackpoint>
            <Time>2018-12-30T09:27:57.000Z</Time>
            <Position>
              <LatitudeDegrees>40.749905370175838470458984375</LatitudeDegrees>
              <LongitudeDegrees>-4.0733834914863109588623046875</LongitudeDegrees>
            </Position>
            <AltitudeMeters>1246.800048828125</AltitudeMeters>
            <DistanceMeters>2294.4659615113</DistanceMeters>
          </Trackpoint>
          <Trackpoint>
            <Time>2018-12-30T09:27:58.000Z</Time>
            <Position>
              <LatitudeDegrees>40.7499149255454540252685546875</LatitudeDegrees>
              <LongitudeDegrees>-4.07338709570467472076416015625</LongitudeDegrees>
            </Position>
            <AltitudeMeters>1247</AltitudeMeters>
            <DistanceMeters>2295.5741539118</DistanceMeters>
          </Trackpoint>
          <Trackpoint>
            <Time>2018-12-30T09:27:59.000Z</Time>
            <Position>
              <LatitudeDegrees>40.7499246485531330108642578125</LatitudeDegrees>
              <LongitudeDegrees>-4.073393382132053375244140625</LongitudeDegrees>
            </Position>
            <AltitudeMeters>1247.199951171875</AltitudeMeters>
            <DistanceMeters>2296.7761573357</DistanceMeters>
          </Trackpoint>
          <Trackpoint>
            <Time>2018-12-30T09:28:00.000Z</Time>
            <Position>
              <LatitudeDegrees>40.74993453919887542724609375</LatitudeDegrees>
              <LongitudeDegrees>-4.07340033911168575286865234375</LongitudeDegrees>
            </Position>
            <AltitudeMeters>1247.199951171875</AltitudeMeters>
            <DistanceMeters>2298.0224210109</DistanceMeters>
          </Trackpoint>
          <Trackpoint>
            <Time>2018-12-30T09:28:01.000Z</Time>
            <Position>
              <LatitudeDegrees>40.7499407418072223663330078125</LatitudeDegrees>
              <LongitudeDegrees>-4.07340444624423980712890625</LongitudeDegrees>
            </Position>
            <AltitudeMeters>1247.199951171875</AltitudeMeters>
            <DistanceMeters>2298.794421688</DistanceMeters>
          </Trackpoint>
          <Trackpoint>
            <Time>2018-12-30T09:28:02.000Z</Time>
            <Position>
              <LatitudeDegrees>40.74995038099586963653564453125</LatitudeDegrees>
              <LongitudeDegrees>-4.0734131634235382080078125</LongitudeDegrees>
            </Position>
            <AltitudeMeters>1247.199951171875</AltitudeMeters>
            <DistanceMeters>2300.097362351</DistanceMeters>
          </Trackpoint>
          <Trackpoint>
            <Time>2018-12-30T09:28:03.000Z</Time>
            <Position>
              <LatitudeDegrees>40.74995541013777256011962890625</LatitudeDegrees>
              <LongitudeDegrees>-4.0734250657260417938232421875</LongitudeDegrees>
            </Position>
            <AltitudeMeters>1247.199951171875</AltitudeMeters>
            <DistanceMeters>2301.2455745095</DistanceMeters>
          </Trackpoint>
          <Trackpoint>
            <Time>2018-12-30T09:28:04.000Z</Time>
            <Position>
              <LatitudeDegrees>40.74996328912675380706787109375</LatitudeDegrees>
              <LongitudeDegrees>-4.07343034632503986358642578125</LongitudeDegrees>
            </Position>
            <AltitudeMeters>1247</AltitudeMeters>
            <DistanceMeters>2302.2331210937</DistanceMeters>
          </Trackpoint>
          <Trackpoint>
            <Time>2018-12-30T09:28:05.000Z</Time>
            <Position>
              <LatitudeDegrees>40.74997007846832275390625</LatitudeDegrees>
              <LongitudeDegrees>-4.07344124279916286468505859375</LongitudeDegrees>
            </Position>
            <AltitudeMeters>1247</AltitudeMeters>
            <DistanceMeters>2303.4275883716</DistanceMeters>
          </Trackpoint>
          <Trackpoint>
            <Time>2018-12-30T09:28:06.000Z</Time>
            <Position>
              <LatitudeDegrees>40.74997150339186191558837890625</LatitudeDegrees>
              <LongitudeDegrees>-4.0734533965587615966796875</LongitudeDegrees>
            </Position>
            <AltitudeMeters>1247</AltitudeMeters>
            <DistanceMeters>2304.4685538722</DistanceMeters>
          </Trackpoint>
          <Trackpoint>
            <Time>2018-12-30T09:28:07.000Z</Time>
            <Position>
              <LatitudeDegrees>40.74997753836214542388916015625</LatitudeDegrees>
              <LongitudeDegrees>-4.07346471212804317474365234375</LongitudeDegrees>
            </Position>
            <AltitudeMeters>1247.199951171875</AltitudeMeters>
            <DistanceMeters>2305.6401218896</DistanceMeters>
          </Trackpoint>
          <Trackpoint>
            <Time>2018-12-30T09:28:08.000Z</Time>
            <Position>
              <LatitudeDegrees>40.74999212287366390228271484375</LatitudeDegrees>
              <LongitudeDegrees>-4.07347418367862701416015625</LongitudeDegrees>
            </Position>
            <AltitudeMeters>1247.199951171875</AltitudeMeters>
            <DistanceMeters>2307.4481284362</DistanceMeters>
          </Trackpoint>
          <Trackpoint>
            <Time>2018-12-30T09:28:09.000Z</Time>
            <Position>
              <LatitudeDegrees>40.75000084005296230316162109375</LatitudeDegrees>
              <LongitudeDegrees>-4.07348625361919403076171875</LongitudeDegrees>
            </Position>
            <AltitudeMeters>1247.5999755859375</AltitudeMeters>
            <DistanceMeters>2308.8576023869</DistanceMeters>
          </Trackpoint>
          <Trackpoint>
            <Time>2018-12-30T09:28:10.000Z</Time>
            <Position>
              <LatitudeDegrees>40.75002028606832027435302734375</LatitudeDegrees>
              <LongitudeDegrees>-4.073509387671947479248046875</LongitudeDegrees>
            </Position>
            <AltitudeMeters>1247.800048828125</AltitudeMeters>
            <DistanceMeters>2311.7710662802</DistanceMeters>
          </Trackpoint>
          <Trackpoint>
            <Time>2018-12-30T09:28:11.000Z</Time>
            <Position>
              <LatitudeDegrees>40.75003445148468017578125</LatitudeDegrees>
              <LongitudeDegrees>-4.07351885922253131866455078125</LongitudeDegrees>
            </Position>
            <AltitudeMeters>1247.800048828125</AltitudeMeters>
            <DistanceMeters>2313.5412178347</DistanceMeters>
          </Trackpoint>
          <Trackpoint>
            <Time>2018-12-30T09:28:12.000Z</Time>
            <Position>
              <LatitudeDegrees>40.75004911981523036956787109375</LatitudeDegrees>
              <LongitudeDegrees>-4.07352204434573650360107421875</LongitudeDegrees>
            </Position>
            <AltitudeMeters>1247.800048828125</AltitudeMeters>
            <DistanceMeters>2315.1980652142</DistanceMeters>
          </Trackpoint>
          <Trackpoint>
            <Time>2018-12-30T09:28:13.000Z</Time>
            <Position>
              <LatitudeDegrees>40.75006219558417797088623046875</LatitudeDegrees>
              <LongitudeDegrees>-4.0735290013253688812255859375</LongitudeDegrees>
            </Position>
            <AltitudeMeters>1247.800048828125</AltitudeMeters>
            <DistanceMeters>2316.7652859366</DistanceMeters>
          </Trackpoint>
          <Trackpoint>
            <Time>2018-12-30T09:28:14.000Z</Time>
            <Position>
              <LatitudeDegrees>40.75007543899118900299072265625</LatitudeDegrees>
              <LongitudeDegrees>-4.0735383890569210052490234375</LongitudeDegrees>
            </Position>
            <AltitudeMeters>1247.800048828125</AltitudeMeters>
            <DistanceMeters>2318.4357031364</DistanceMeters>
          </Trackpoint>
          <Trackpoint>
            <Time>2018-12-30T09:28:15.000Z</Time>
            <Position>
              <LatitudeDegrees>40.7500894367694854736328125</LatitudeDegrees>
              <LongitudeDegrees>-4.073555655777454376220703125</LongitudeDegrees>
            </Position>
            <AltitudeMeters>1248</AltitudeMeters>
            <DistanceMeters>2320.566930119</DistanceMeters>
          </Trackpoint>
          <Trackpoint>
            <Time>2018-12-30T09:28:16.000Z</Time>
            <Position>
              <LatitudeDegrees>40.750090777873992919921875</LatitudeDegrees>
              <LongitudeDegrees>-4.07356579788029193878173828125</LongitudeDegrees>
            </Position>
            <AltitudeMeters>1248.199951171875</AltitudeMeters>
            <DistanceMeters>2321.4326646885</DistanceMeters>
          </Trackpoint>
          <Trackpoint>
            <Time>2018-12-30T09:28:17.000Z</Time>
            <Position>
              <LatitudeDegrees>40.75009438209235668182373046875</LatitudeDegrees>
              <LongitudeDegrees>-4.0735742636024951934814453125</LongitudeDegrees>
            </Position>
            <AltitudeMeters>1248.4000244140625</AltitudeMeters>
            <DistanceMeters>2322.2501153945</DistanceMeters>
          </Trackpoint>
          <Trackpoint>
            <Time>2018-12-30T09:28:18.000Z</Time>
            <Position>
              <LatitudeDegrees>40.75010226108133792877197265625</LatitudeDegrees>
              <LongitudeDegrees>-4.07358742319047451019287109375</LongitudeDegrees>
            </Position>
            <AltitudeMeters>1248.5999755859375</AltitudeMeters>
            <DistanceMeters>2323.6659815501</DistanceMeters>
          </Trackpoint>
          <Trackpoint>
            <Time>2018-12-30T09:28:19.000Z</Time>
            <Position>
              <LatitudeDegrees>40.750109888613224029541015625</LatitudeDegrees>
              <LongitudeDegrees>-4.0736062824726104736328125</LongitudeDegrees>
            </Position>
            <AltitudeMeters>1248.5999755859375</AltitudeMeters>
            <DistanceMeters>2325.468986686</DistanceMeters>
          </Trackpoint>
          <Trackpoint>
            <Time>2018-12-30T09:28:20.000Z</Time>
            <Position>
              <LatitudeDegrees>40.75011701323091983795166015625</LatitudeDegrees>
              <LongitudeDegrees>-4.0736196935176849365234375</LongitudeDegrees>
            </Position>
            <AltitudeMeters>1248.5999755859375</AltitudeMeters>
            <DistanceMeters>2326.849329444</DistanceMeters>
          </Trackpoint>
          <Trackpoint>
            <Time>2018-12-30T09:28:21.000Z</Time>
            <Position>
              <LatitudeDegrees>40.75013034045696258544921875</LatitudeDegrees>
              <LongitudeDegrees>-4.07363017089664936065673828125</LongitudeDegrees>
            </Position>
            <AltitudeMeters>1248.5999755859375</AltitudeMeters>
            <DistanceMeters>2328.5781889822</DistanceMeters>
          </Trackpoint>
          <Trackpoint>
            <Time>2018-12-30T09:28:22.000Z</Time>
            <Position>
              <LatitudeDegrees>40.7501375488936901092529296875</LatitudeDegrees>
              <LongitudeDegrees>-4.0736396424472332000732421875</LongitudeDegrees>
            </Position>
            <AltitudeMeters>1248.4000244140625</AltitudeMeters>
            <DistanceMeters>2329.710562973</DistanceMeters>
          </Trackpoint>
          <Trackpoint>
            <Time>2018-12-30T09:28:23.000Z</Time>
            <Position>
              <LatitudeDegrees>40.75014752335846424102783203125</LatitudeDegrees>
              <LongitudeDegrees>-4.0736503712832927703857421875</LongitudeDegrees>
            </Position>
            <AltitudeMeters>1248.4000244140625</AltitudeMeters>
            <DistanceMeters>2331.1454348939</DistanceMeters>
          </Trackpoint>
          <Trackpoint>
            <Time>2018-12-30T09:28:24.000Z</Time>
            <Position>
              <LatitudeDegrees>40.75014802627265453338623046875</LatitudeDegrees>
              <LongitudeDegrees>-4.07364894635975360870361328125</LongitudeDegrees>
            </Position>
            <AltitudeMeters>1248.4000244140625</AltitudeMeters>
            <DistanceMeters>2331.3100259913</DistanceMeters>
          </Trackpoint>
          <Trackpoint>
            <Time>2018-12-30T09:28:25.000Z</Time>
            <Position>
              <LatitudeDegrees>40.75014777481555938720703125</LatitudeDegrees>
              <LongitudeDegrees>-4.073664285242557525634765625</LongitudeDegrees>
            </Position>
            <AltitudeMeters>1248.4000244140625</AltitudeMeters>
            <DistanceMeters>2332.6060175879</DistanceMeters>
          </Trackpoint>
          <Trackpoint>
            <Time>2018-12-30T09:28:26.000Z</Time>
            <Position>
              <LatitudeDegrees>40.750148110091686248779296875</LatitudeDegrees>
              <LongitudeDegrees>-4.07368062995374202728271484375</LongitudeDegrees>
            </Position>
            <AltitudeMeters>1248.5999755859375</AltitudeMeters>
            <DistanceMeters>2333.9830855068</DistanceMeters>
          </Trackpoint>
          <Trackpoint>
            <Time>2018-12-30T09:28:27.000Z</Time>
            <Position>
              <LatitudeDegrees>40.7501573301851749420166015625</LatitudeDegrees>
              <LongitudeDegrees>-4.07369622029364109039306640625</LongitudeDegrees>
            </Position>
            <AltitudeMeters>1248.800048828125</AltitudeMeters>
            <DistanceMeters>2335.6507975757</DistanceMeters>
          </Trackpoint>
          <Trackpoint>
            <Time>2018-12-30T09:28:28.000Z</Time>
            <Position>
              <LatitudeDegrees>40.75016210786998271942138671875</LatitudeDegrees>
              <LongitudeDegrees>-4.0737087093293666839599609375</LongitudeDegrees>
            </Position>
            <AltitudeMeters>1249</AltitudeMeters>
            <DistanceMeters>2336.8300480887</DistanceMeters>
          </Trackpoint>
          <Trackpoint>
            <Time>2018-12-30T09:28:29.000Z</Time>
            <Position>
              <LatitudeDegrees>40.75016479007899761199951171875</LatitudeDegrees>
              <LongitudeDegrees>-4.07371868379414081573486328125</LongitudeDegrees>
            </Position>
            <AltitudeMeters>1249.199951171875</AltitudeMeters>
            <DistanceMeters>2337.721477686</DistanceMeters>
          </Trackpoint>
          <Trackpoint>
            <Time>2018-12-30T09:28:30.000Z</Time>
            <Position>
              <LatitudeDegrees>40.7501673884689807891845703125</LatitudeDegrees>
              <LongitudeDegrees>-4.073729999363422393798828125</LongitudeDegrees>
            </Position>
            <AltitudeMeters>1249.4000244140625</AltitudeMeters>
            <DistanceMeters>2338.7226462459</DistanceMeters>
          </Trackpoint>
          <Trackpoint>
            <Time>2018-12-30T09:28:31.000Z</Time>
            <Position>
              <LatitudeDegrees>40.75017333962023258209228515625</LatitudeDegrees>
              <LongitudeDegrees>-4.073743410408496856689453125</LongitudeDegrees>
            </Position>
            <AltitudeMeters>1249.5999755859375</AltitudeMeters>
            <DistanceMeters>2340.0324991095</DistanceMeters>
          </Trackpoint>
          <Trackpoint>
            <Time>2018-12-30T09:28:32.000Z</Time>
            <Position>
              <LatitudeDegrees>40.75018188916146755218505859375</LatitudeDegrees>
              <LongitudeDegrees>-4.07375539653003215789794921875</LongitudeDegrees>
            </Position>
            <AltitudeMeters>1249.5999755859375</AltitudeMeters>
            <DistanceMeters>2341.4226200967</DistanceMeters>
          </Trackpoint>
          <Trackpoint>
            <Time>2018-12-30T09:28:33.000Z</Time>
            <Position>
              <LatitudeDegrees>40.75019412674009799957275390625</LatitudeDegrees>
              <LongitudeDegrees>-4.073770903050899505615234375</LongitudeDegrees>
            </Position>
            <AltitudeMeters>1249.4000244140625</AltitudeMeters>
            <DistanceMeters>2343.3088465197</DistanceMeters>
          </Trackpoint>
          <Trackpoint>
            <Time>2018-12-30T09:28:34.000Z</Time>
            <Position>
              <LatitudeDegrees>40.75020317919552326202392578125</LatitudeDegrees>
              <LongitudeDegrees>-4.07378406263887882232666015625</LongitudeDegrees>
            </Position>
            <AltitudeMeters>1249.4000244140625</AltitudeMeters>
            <DistanceMeters>2344.8113507996</DistanceMeters>
          </Trackpoint>
          <Trackpoint>
            <Time>2018-12-30T09:28:35.000Z</Time>
            <Position>
              <LatitudeDegrees>40.750214159488677978515625</LatitudeDegrees>
              <LongitudeDegrees>-4.07379495911300182342529296875</LongitudeDegrees>
            </Position>
            <AltitudeMeters>1249.4000244140625</AltitudeMeters>
            <DistanceMeters>2346.3436105281</DistanceMeters>
          </Trackpoint>
          <Trackpoint>
            <Time>2018-12-30T09:28:36.000Z</Time>
            <Position>
              <LatitudeDegrees>40.7502307556569576263427734375</LatitudeDegrees>
              <LongitudeDegrees>-4.0738072805106639862060546875</LongitudeDegrees>
            </Position>
            <AltitudeMeters>1249.4000244140625</AltitudeMeters>
            <DistanceMeters>2348.4620882817</DistanceMeters>
          </Trackpoint>
          <Trackpoint>
            <Time>2018-12-30T09:28:37.000Z</Time>
            <Position>
              <LatitudeDegrees>40.7502476871013641357421875</LatitudeDegrees>
              <LongitudeDegrees>-4.07382178120315074920654296875</LongitudeDegrees>
            </Position>
            <AltitudeMeters>1249.199951171875</AltitudeMeters>
            <DistanceMeters>2350.7068115733</DistanceMeters>
          </Trackpoint>
          <Trackpoint>
            <Time>2018-12-30T09:28:38.000Z</Time>
            <Position>
              <LatitudeDegrees>40.750258080661296844482421875</LatitudeDegrees>
              <LongitudeDegrees>-4.0738327614963054656982421875</LongitudeDegrees>
            </Position>
            <AltitudeMeters>1249.199951171875</AltitudeMeters>
            <DistanceMeters>2352.1911763035</DistanceMeters>
          </Trackpoint>
          <Trackpoint>
            <Time>2018-12-30T09:28:39.000Z</Time>
            <Position>
              <LatitudeDegrees>40.75026570819318294525146484375</LatitudeDegrees>
              <LongitudeDegrees>-4.07384608872234821319580078125</LongitudeDegrees>
            </Position>
            <AltitudeMeters>1249.199951171875</AltitudeMeters>
            <DistanceMeters>2353.6006502542</DistanceMeters>
          </Trackpoint>
          <Trackpoint>
            <Time>2018-12-30T09:28:40.000Z</Time>
            <Position>
              <LatitudeDegrees>40.75027492828667163848876953125</LatitudeDegrees>
              <LongitudeDegrees>-4.0738528780639171600341796875</LongitudeDegrees>
            </Position>
            <AltitudeMeters>1249.4000244140625</AltitudeMeters>
            <DistanceMeters>2354.776065796</DistanceMeters>
          </Trackpoint>
          <Trackpoint>
            <Time>2018-12-30T09:28:41.000Z</Time>
            <Position>
              <LatitudeDegrees>40.75028649531304836273193359375</LatitudeDegrees>
              <LongitudeDegrees>-4.07385514117777347564697265625</LongitudeDegrees>
            </Position>
            <AltitudeMeters>1249.4000244140625</AltitudeMeters>
            <DistanceMeters>2356.079006459</DistanceMeters>
          </Trackpoint>
          <Trackpoint>
            <Time>2018-12-30T09:28:42.000Z</Time>
            <Position>
              <LatitudeDegrees>40.75030091218650341033935546875</LatitudeDegrees>
              <LongitudeDegrees>-4.073859415948390960693359375</LongitudeDegrees>
            </Position>
            <AltitudeMeters>1249.5999755859375</AltitudeMeters>
            <DistanceMeters>2357.7249174327</DistanceMeters>
          </Trackpoint>
          <Trackpoint>
            <Time>2018-12-30T09:28:43.000Z</Time>
            <Position>
              <LatitudeDegrees>40.750311724841594696044921875</LatitudeDegrees>
              <LongitudeDegrees>-4.07386084087193012237548828125</LongitudeDegrees>
            </Position>
            <AltitudeMeters>1249.800048828125</AltitudeMeters>
            <DistanceMeters>2358.9381373057</DistanceMeters>
          </Trackpoint>
          <Trackpoint>
            <Time>2018-12-30T09:28:44.000Z</Time>
            <Position>
              <LatitudeDegrees>40.75032186694443225860595703125</LatitudeDegrees>
              <LongitudeDegrees>-4.07386578619480133056640625</LongitudeDegrees>
            </Position>
            <AltitudeMeters>1250</AltitudeMeters>
            <DistanceMeters>2360.1438911394</DistanceMeters>
          </Trackpoint>
          <Trackpoint>
            <Time>2018-12-30T09:28:45.000Z</Time>
            <Position>
              <LatitudeDegrees>40.75033242814242839813232421875</LatitudeDegrees>
              <LongitudeDegrees>-4.0738766826689243316650390625</LongitudeDegrees>
            </Position>
            <AltitudeMeters>1250</AltitudeMeters>
            <DistanceMeters>2361.6343269164</DistanceMeters>
          </Trackpoint>
          <Trackpoint>
            <Time>2018-12-30T09:28:46.000Z</Time>
            <Position>
              <LatitudeDegrees>40.7503326795995235443115234375</LatitudeDegrees>
              <LongitudeDegrees>-4.073882885277271270751953125</LongitudeDegrees>
            </Position>
            <AltitudeMeters>1250.199951171875</AltitudeMeters>
            <DistanceMeters>2362.1548096667</DistanceMeters>
          </Trackpoint>
          <Trackpoint>
            <Time>2018-12-30T09:28:47.000Z</Time>
            <Position>
              <LatitudeDegrees>40.75033460743725299835205078125</LatitudeDegrees>
              <LongitudeDegrees>-4.07389068044722080230712890625</LongitudeDegrees>
            </Position>
            <AltitudeMeters>1250.199951171875</AltitudeMeters>
            <DistanceMeters>2362.8531105531</DistanceMeters>
          </Trackpoint>
          <Trackpoint>
            <Time>2018-12-30T09:28:48.000Z</Time>
            <Position>
              <LatitudeDegrees>40.75034198351204395294189453125</LatitudeDegrees>
              <LongitudeDegrees>-4.07390291802585124969482421875</LongitudeDegrees>
            </Position>
            <AltitudeMeters>1250.199951171875</AltitudeMeters>
            <DistanceMeters>2364.169839332</DistanceMeters>
          </Trackpoint>
          <Trackpoint>
            <Time>2018-12-30T09:28:49.000Z</Time>
            <Position>
              <LatitudeDegrees>40.75035941787064075469970703125</LatitudeDegrees>
              <LongitudeDegrees>-4.073928482830524444580078125</LongitudeDegrees>
            </Position>
            <AltitudeMeters>1250.4000244140625</AltitudeMeters>
            <DistanceMeters>2367.0708790156</DistanceMeters>
          </Trackpoint>
          <Trackpoint>
            <Time>2018-12-30T09:28:50.000Z</Time>
            <Position>
              <LatitudeDegrees>40.75037970207631587982177734375</LatitudeDegrees>
              <LongitudeDegrees>-4.07394893467426300048828125</LongitudeDegrees>
            </Position>
            <AltitudeMeters>1250.4000244140625</AltitudeMeters>
            <DistanceMeters>2369.9121618844</DistanceMeters>
          </Trackpoint>
          <Trackpoint>
            <Time>2018-12-30T09:28:51.000Z</Time>
            <Position>
              <LatitudeDegrees>40.750396549701690673828125</LatitudeDegrees>
              <LongitudeDegrees>-4.0739601664245128631591796875</LongitudeDegrees>
            </Position>
            <AltitudeMeters>1250.5999755859375</AltitudeMeters>
            <DistanceMeters>2372.0135203453</DistanceMeters>
          </Trackpoint>
          <Trackpoint>
            <Time>2018-12-30T09:28:52.000Z</Time>
            <Position>
              <LatitudeDegrees>40.75041239149868488311767578125</LatitudeDegrees>
              <LongitudeDegrees>-4.0739765949547290802001953125</LongitudeDegrees>
            </Position>
            <AltitudeMeters>1250.800048828125</AltitudeMeters>
            <DistanceMeters>2374.2542172242</DistanceMeters>
          </Trackpoint>
          <Trackpoint>
            <Time>2018-12-30T09:28:53.000Z</Time>
            <Position>
              <LatitudeDegrees>40.75042781420052051544189453125</LatitudeDegrees>
              <LongitudeDegrees>-4.0739900059998035430908203125</LongitudeDegrees>
            </Position>
            <AltitudeMeters>1251</AltitudeMeters>
            <DistanceMeters>2376.3099593714</DistanceMeters>
          </Trackpoint>
          <Trackpoint>
            <Time>2018-12-30T09:28:54.000Z</Time>
            <Position>
              <LatitudeDegrees>40.7504309155046939849853515625</LatitudeDegrees>
              <LongitudeDegrees>-4.0739993937313556671142578125</LongitudeDegrees>
            </Position>
            <AltitudeMeters>1251</AltitudeMeters>
            <DistanceMeters>2377.1704628684</DistanceMeters>
          </Trackpoint>
          <Trackpoint>
            <Time>2018-12-30T09:28:55.000Z</Time>
            <Position>
              <LatitudeDegrees>40.75043502263724803924560546875</LatitudeDegrees>
              <LongitudeDegrees>-4.07400500960648059844970703125</LongitudeDegrees>
            </Position>
            <AltitudeMeters>1251</AltitudeMeters>
            <DistanceMeters>2377.8288272579</DistanceMeters>
          </Trackpoint>
          <Trackpoint>
            <Time>2018-12-30T09:28:56.000Z</Time>
            <Position>
              <LatitudeDegrees>40.7504403032362461090087890625</LatitudeDegrees>
              <LongitudeDegrees>-4.0740057639777660369873046875</LongitudeDegrees>
            </Position>
            <AltitudeMeters>1251</AltitudeMeters>
            <DistanceMeters>2378.4222688989</DistanceMeters>
          </Trackpoint>
          <Trackpoint>
            <Time>2018-12-30T09:28:57.000Z</Time>
            <Position>
              <LatitudeDegrees>40.75044541619718074798583984375</LatitudeDegrees>
              <LongitudeDegrees>-4.07400920055806636810302734375</LongitudeDegrees>
            </Position>
            <AltitudeMeters>1251</AltitudeMeters>
            <DistanceMeters>2379.0597274779</DistanceMeters>
          </Trackpoint>
          <Trackpoint>
            <Time>2018-12-30T09:28:58.000Z</Time>
            <Position>
              <LatitudeDegrees>40.75044306926429271697998046875</LatitudeDegrees>
              <LongitudeDegrees>-4.0740097872912883758544921875</LongitudeDegrees>
            </Position>
            <AltitudeMeters>1251</AltitudeMeters>
            <DistanceMeters>2379.3285036144</DistanceMeters>
          </Trackpoint>
          <Trackpoint>
            <Time>2018-12-30T09:29:56.000Z</Time>
            <Position>
              <LatitudeDegrees>40.750548429787158966064453125</LatitudeDegrees>
              <LongitudeDegrees>-4.07419812865555286407470703125</LongitudeDegrees>
            </Position>
            <AltitudeMeters>1250.199951171875</AltitudeMeters>
            <DistanceMeters>2399.0693743909</DistanceMeters>
          </Trackpoint>
          <Trackpoint>
            <Time>2018-12-30T09:29:57.000Z</Time>
            <Position>
              <LatitudeDegrees>40.75056485831737518310546875</LatitudeDegrees>
              <LongitudeDegrees>-4.07419293187558650970458984375</LongitudeDegrees>
            </Position>
            <AltitudeMeters>1250.4000244140625</AltitudeMeters>
            <DistanceMeters>2400.9484060271</DistanceMeters>
          </Trackpoint>
          <Trackpoint>
            <Time>2018-12-30T09:29:58.000Z</Time>
            <Position>
              <LatitudeDegrees>40.75058187358081340789794921875</LatitudeDegrees>
              <LongitudeDegrees>-4.07418790273368358612060546875</LongitudeDegrees>
            </Position>
            <AltitudeMeters>1250.5999755859375</AltitudeMeters>
            <DistanceMeters>2402.8889064463</DistanceMeters>
          </Trackpoint>
          <Trackpoint>
            <Time>2018-12-30T09:29:59.000Z</Time>
            <Position>
              <LatitudeDegrees>40.750586651265621185302734375</LatitudeDegrees>
              <LongitudeDegrees>-4.0741874836385250091552734375</LongitudeDegrees>
            </Position>
            <AltitudeMeters>1250.5999755859375</AltitudeMeters>
            <DistanceMeters>2403.4093891966</DistanceMeters>
          </Trackpoint>
          <Trackpoint>
            <Time>2018-12-30T09:30:00.000Z</Time>
            <Position>
              <LatitudeDegrees>40.75060081668198108673095703125</LatitudeDegrees>
              <LongitudeDegrees>-4.07418656162917613983154296875</LongitudeDegrees>
            </Position>
            <AltitudeMeters>1250.800048828125</AltitudeMeters>
            <DistanceMeters>2404.9909489251</DistanceMeters>
          </Trackpoint>
          <Trackpoint>
            <Time>2018-12-30T09:30:01.000Z</Time>
            <Position>
              <LatitudeDegrees>40.7506102882325649261474609375</LatitudeDegrees>
              <LongitudeDegrees>-4.0741921775043010711669921875</LongitudeDegrees>
            </Position>
            <AltitudeMeters>1251</AltitudeMeters>
            <DistanceMeters>2406.1469988002</DistanceMeters>
          </Trackpoint>
          <Trackpoint>
            <Time>2018-12-30T09:30:02.000Z</Time>
            <Position>
              <LatitudeDegrees>40.7506205141544342041015625</LatitudeDegrees>
              <LongitudeDegrees>-4.074192680418491363525390625</LongitudeDegrees>
            </Position>
            <AltitudeMeters>1251</AltitudeMeters>
            <DistanceMeters>2407.2873193727</DistanceMeters>
          </Trackpoint>
          <Trackpoint>
            <Time>2018-12-30T09:30:03.000Z</Time>
            <Position>
              <LatitudeDegrees>40.7506280578672885894775390625</LatitudeDegrees>
              <LongitudeDegrees>-4.074193350970745086669921875</LongitudeDegrees>
            </Position>
            <AltitudeMeters>1251.199951171875</AltitudeMeters>
            <DistanceMeters>2408.1319352848</DistanceMeters>
          </Trackpoint>
          <Trackpoint>
            <Time>2018-12-30T09:30:04.000Z</Time>
            <Position>
              <LatitudeDegrees>40.75063635595142841339111328125</LatitudeDegrees>
              <LongitudeDegrees>-4.07419393770396709442138671875</LongitudeDegrees>
            </Position>
            <AltitudeMeters>1251.199951171875</AltitudeMeters>
            <DistanceMeters>2409.0532534632</DistanceMeters>
          </Trackpoint>
          <Trackpoint>
            <Time>2018-12-30T09:30:05.000Z</Time>
            <Position>
              <LatitudeDegrees>40.75064708478748798370361328125</LatitudeDegrees>
              <LongitudeDegrees>-4.07419729046523571014404296875</LongitudeDegrees>
            </Position>
            <AltitudeMeters>1251.199951171875</AltitudeMeters>
            <DistanceMeters>2410.2775870328</DistanceMeters>
          </Trackpoint>
          <Trackpoint>
            <Time>2018-12-30T09:30:06.000Z</Time>
            <Position>
              <LatitudeDegrees>40.75066083110868930816650390625</LatitudeDegrees>
              <LongitudeDegrees>-4.07419812865555286407470703125</LongitudeDegrees>
            </Position>
            <AltitudeMeters>1251.199951171875</AltitudeMeters>
            <DistanceMeters>2411.8098467612</DistanceMeters>
          </Trackpoint>
          <Trackpoint>
            <Time>2018-12-30T09:30:07.000Z</Time>
            <Position>
              <LatitudeDegrees>40.75066820718348026275634765625</LatitudeDegrees>
              <LongitudeDegrees>-4.0742035768926143646240234375</LongitudeDegrees>
            </Position>
            <AltitudeMeters>1251.4000244140625</AltitudeMeters>
            <DistanceMeters>2412.7601139049</DistanceMeters>
          </Trackpoint>
          <Trackpoint>
            <Time>2018-12-30T09:30:08.000Z</Time>
            <Position>
              <LatitudeDegrees>40.75067658908665180206298828125</LatitudeDegrees>
              <LongitudeDegrees>-4.0742089413106441497802734375</LongitudeDegrees>
            </Position>
            <AltitudeMeters>1251.4000244140625</AltitudeMeters>
            <DistanceMeters>2413.7967329752</DistanceMeters>
          </Trackpoint>
          <Trackpoint>
            <Time>2018-12-30T09:30:09.000Z</Time>
            <Position>
              <LatitudeDegrees>40.75068564154207706451416015625</LatitudeDegrees>
              <LongitudeDegrees>-4.0742129646241664886474609375</LongitudeDegrees>
            </Position>
            <AltitudeMeters>1251.5999755859375</AltitudeMeters>
            <DistanceMeters>2414.8549056828</DistanceMeters>
          </Trackpoint>
          <Trackpoint>
            <Time>2018-12-30T09:30:10.000Z</Time>
            <Position>
              <LatitudeDegrees>40.7506907545030117034912109375</LatitudeDegrees>
              <LongitudeDegrees>-4.0742159821093082427978515625</LongitudeDegrees>
            </Position>
            <AltitudeMeters>1251.800048828125</AltitudeMeters>
            <DistanceMeters>2415.470749178</DistanceMeters>
          </Trackpoint>
          <Trackpoint>
            <Time>2018-12-30T09:30:11.000Z</Time>
            <Position>
              <LatitudeDegrees>40.75069838203489780426025390625</LatitudeDegrees>
              <LongitudeDegrees>-4.074224531650543212890625</LongitudeDegrees>
            </Position>
            <AltitudeMeters>1252</AltitudeMeters>
            <DistanceMeters>2416.5830083532</DistanceMeters>
          </Trackpoint>
          <Trackpoint>
            <Time>2018-12-30T09:30:12.000Z</Time>
            <Position>
              <LatitudeDegrees>40.7506988011300563812255859375</LatitudeDegrees>
              <LongitudeDegrees>-4.0742287226021289825439453125</LongitudeDegrees>
            </Position>
            <AltitudeMeters>1252</AltitudeMeters>
            <DistanceMeters>2416.938565761</DistanceMeters>
          </Trackpoint>
          <Trackpoint>
            <Time>2018-12-30T09:30:13.000Z</Time>
            <Position>
              <LatitudeDegrees>40.7506954483687877655029296875</LatitudeDegrees>
              <LongitudeDegrees>-4.07423048280179500579833984375</LongitudeDegrees>
            </Position>
            <AltitudeMeters>1252.199951171875</AltitudeMeters>
            <DistanceMeters>2417.3417299657</DistanceMeters>
          </Trackpoint>
          <Trackpoint>
            <Time>2018-12-30T09:30:14.000Z</Time>
            <Position>
              <LatitudeDegrees>40.75070290826261043548583984375</LatitudeDegrees>
              <LongitudeDegrees>-4.0742451511323451995849609375</LongitudeDegrees>
            </Position>
            <AltitudeMeters>1252.4000244140625</AltitudeMeters>
            <DistanceMeters>2418.8321657427</DistanceMeters>
          </Trackpoint>
          <Trackpoint>
            <Time>2018-12-30T09:30:15.000Z</Time>
            <Position>
              <LatitudeDegrees>40.750707350671291351318359375</LatitudeDegrees>
              <LongitudeDegrees>-4.07425629906356334686279296875</LongitudeDegrees>
            </Position>
            <AltitudeMeters>1252.4000244140625</AltitudeMeters>
            <DistanceMeters>2419.898837966</DistanceMeters>
          </Trackpoint>
          <Trackpoint>
            <Time>2018-12-30T09:30:16.000Z</Time>
            <Position>
              <LatitudeDegrees>40.7507105357944965362548828125</LatitudeDegrees>
              <LongitudeDegrees>-4.074271135032176971435546875</LongitudeDegrees>
            </Position>
            <AltitudeMeters>1252.4000244140625</AltitudeMeters>
            <DistanceMeters>2421.198308741</DistanceMeters>
          </Trackpoint>
          <Trackpoint>
            <Time>2018-12-30T09:30:17.000Z</Time>
            <Position>
              <LatitudeDegrees>40.75071833096444606781005859375</LatitudeDegrees>
              <LongitudeDegrees>-4.07428278587758541107177734375</LongitudeDegrees>
            </Position>
            <AltitudeMeters>1252.4000244140625</AltitudeMeters>
            <DistanceMeters>2422.5047100759</DistanceMeters>
          </Trackpoint>
          <Trackpoint>
            <Time>2018-12-30T09:30:18.000Z</Time>
            <Position>
              <LatitudeDegrees>40.75072503648698329925537109375</LatitudeDegrees>
              <LongitudeDegrees>-4.074290581047534942626953125</LongitudeDegrees>
            </Position>
            <AltitudeMeters>1252.4000244140625</AltitudeMeters>
            <DistanceMeters>2423.5013586643</DistanceMeters>
          </Trackpoint>
          <Trackpoint>
            <Time>2018-12-30T09:30:19.000Z</Time>
            <Position>
              <LatitudeDegrees>40.75072688050568103790283203125</LatitudeDegrees>
              <LongitudeDegrees>-4.0742964483797550201416015625</LongitudeDegrees>
            </Position>
            <AltitudeMeters>1252.4000244140625</AltitudeMeters>
            <DistanceMeters>2424.0304450181</DistanceMeters>
          </Trackpoint>
          <Trackpoint>
            <Time>2018-12-30T09:30:20.000Z</Time>
            <Position>
              <LatitudeDegrees>40.75074112974107265472412109375</LatitudeDegrees>
              <LongitudeDegrees>-4.07429871149361133575439453125</LongitudeDegrees>
            </Position>
            <AltitudeMeters>1252.4000244140625</AltitudeMeters>
            <DistanceMeters>2425.6262149129</DistanceMeters>
          </Trackpoint>
          <Trackpoint>
            <Time>2018-12-30T09:30:21.000Z</Time>
            <Position>
              <LatitudeDegrees>40.75074515305459499359130859375</LatitudeDegrees>
              <LongitudeDegrees>-4.07430290244519710540771484375</LongitudeDegrees>
            </Position>
            <AltitudeMeters>1252.199951171875</AltitudeMeters>
            <DistanceMeters>2426.1963751991</DistanceMeters>
          </Trackpoint>
          <Trackpoint>
            <Time>2018-12-30T09:30:22.000Z</Time>
            <Position>
              <LatitudeDegrees>40.75075529515743255615234375</LatitudeDegrees>
              <LongitudeDegrees>-4.07430558465421199798583984375</LongitudeDegrees>
            </Position>
            <AltitudeMeters>1252.199951171875</AltitudeMeters>
            <DistanceMeters>2427.3485128807</DistanceMeters>
          </Trackpoint>
          <Trackpoint>
            <Time>2018-12-30T09:30:23.000Z</Time>
            <Position>
              <LatitudeDegrees>40.7507635094225406646728515625</LatitudeDegrees>
              <LongitudeDegrees>-4.07431061379611492156982421875</LongitudeDegrees>
            </Position>
            <AltitudeMeters>1252.199951171875</AltitudeMeters>
            <DistanceMeters>2428.3586607106</DistanceMeters>
          </Trackpoint>
          <Trackpoint>
            <Time>2018-12-30T09:30:24.000Z</Time>
            <Position>
              <LatitudeDegrees>40.7507692091166973114013671875</LatitudeDegrees>
              <LongitudeDegrees>-4.074312038719654083251953125</LongitudeDegrees>
            </Position>
            <AltitudeMeters>1252</AltitudeMeters>
            <DistanceMeters>2429.0101310421</DistanceMeters>
          </Trackpoint>
          <Trackpoint>
            <Time>2018-12-30T09:30:25.000Z</Time>
            <Position>
              <LatitudeDegrees>40.7507732324302196502685546875</LatitudeDegrees>
              <LongitudeDegrees>-4.0743189118802547454833984375</LongitudeDegrees>
            </Position>
            <AltitudeMeters>1252.199951171875</AltitudeMeters>
            <DistanceMeters>2429.7462048065</DistanceMeters>
          </Trackpoint>
          <Trackpoint>
            <Time>2018-12-30T09:30:26.000Z</Time>
            <Position>
              <LatitudeDegrees>40.750781111419200897216796875</LatitudeDegrees>
              <LongitudeDegrees>-4.07432737760245800018310546875</LongitudeDegrees>
            </Position>
            <AltitudeMeters>1252.199951171875</AltitudeMeters>
            <DistanceMeters>2430.8745845203</DistanceMeters>
          </Trackpoint>
          <Trackpoint>
            <Time>2018-12-30T09:30:27.000Z</Time>
            <Position>
              <LatitudeDegrees>40.7507859729230403900146484375</LatitudeDegrees>
              <LongitudeDegrees>-4.074335508048534393310546875</LongitudeDegrees>
            </Position>
            <AltitudeMeters>1252</AltitudeMeters>
            <DistanceMeters>2431.7506875381</DistanceMeters>
          </Trackpoint>
          <Trackpoint>
            <Time>2018-12-30T09:30:28.000Z</Time>
            <Position>
              <LatitudeDegrees>40.75079284608364105224609375</LatitudeDegrees>
              <LongitudeDegrees>-4.07433995045721530914306640625</LongitudeDegrees>
            </Position>
            <AltitudeMeters>1252.199951171875</AltitudeMeters>
            <DistanceMeters>2432.6006323101</DistanceMeters>
          </Trackpoint>
          <Trackpoint>
            <Time>2018-12-30T09:30:29.000Z</Time>
            <Position>
              <LatitudeDegrees>40.75080131180584430694580078125</LatitudeDegrees>
              <LongitudeDegrees>-4.0743457339704036712646484375</LongitudeDegrees>
            </Position>
            <AltitudeMeters>1252.199951171875</AltitudeMeters>
            <DistanceMeters>2433.6588050177</DistanceMeters>
          </Trackpoint>
          <Trackpoint>
            <Time>2018-12-30T09:30:30.000Z</Time>
            <Position>
              <LatitudeDegrees>40.750809274613857269287109375</LatitudeDegrees>
              <LongitudeDegrees>-4.07435394823551177978515625</LongitudeDegrees>
            </Position>
            <AltitudeMeters>1252.199951171875</AltitudeMeters>
            <DistanceMeters>2434.7831762652</DistanceMeters>
          </Trackpoint>
          <Trackpoint>
            <Time>2018-12-30T09:30:31.000Z</Time>
            <Position>
              <LatitudeDegrees>40.7508195005357265472412109375</LatitudeDegrees>
              <LongitudeDegrees>-4.07436425797641277313232421875</LongitudeDegrees>
            </Position>
            <AltitudeMeters>1252.4000244140625</AltitudeMeters>
            <DistanceMeters>2436.218048186</DistanceMeters>
          </Trackpoint>
          <Trackpoint>
            <Time>2018-12-30T09:30:32.000Z</Time>
            <Position>
              <LatitudeDegrees>40.75083232484757900238037109375</LatitudeDegrees>
              <LongitudeDegrees>-4.074369370937347412109375</LongitudeDegrees>
            </Position>
            <AltitudeMeters>1252.5999755859375</AltitudeMeters>
            <DistanceMeters>2437.7115102316</DistanceMeters>
          </Trackpoint>
          <Trackpoint>
            <Time>2018-12-30T09:30:33.000Z</Time>
            <Position>
              <LatitudeDegrees>40.75084573589265346527099609375</LatitudeDegrees>
              <LongitudeDegrees>-4.07437448389828205108642578125</LongitudeDegrees>
            </Position>
            <AltitudeMeters>1253</AltitudeMeters>
            <DistanceMeters>2439.2671645914</DistanceMeters>
          </Trackpoint>
          <Trackpoint>
            <Time>2018-12-30T09:30:34.000Z</Time>
            <Position>
              <LatitudeDegrees>40.75085596181452274322509765625</LatitudeDegrees>
              <LongitudeDegrees>-4.0743816085159778594970703125</LongitudeDegrees>
            </Position>
            <AltitudeMeters>1253.199951171875</AltitudeMeters>
            <DistanceMeters>2440.5561696595</DistanceMeters>
          </Trackpoint>
          <Trackpoint>
            <Time>2018-12-30T09:30:35.000Z</Time>
            <Position>
              <LatitudeDegrees>40.75087188743054866790771484375</LatitudeDegrees>
              <LongitudeDegrees>-4.0743836201727390289306640625</LongitudeDegrees>
            </Position>
            <AltitudeMeters>1253.199951171875</AltitudeMeters>
            <DistanceMeters>2442.3364945826</DistanceMeters>
          </Trackpoint>
          <Trackpoint>
            <Time>2018-12-30T09:30:36.000Z</Time>
            <Position>
              <LatitudeDegrees>40.7508832029998302459716796875</LatitudeDegrees>
              <LongitudeDegrees>-4.07439158298075199127197265625</LongitudeDegrees>
            </Position>
            <AltitudeMeters>1253.4000244140625</AltitudeMeters>
            <DistanceMeters>2443.7650593436</DistanceMeters>
          </Trackpoint>
          <Trackpoint>
            <Time>2018-12-30T09:30:37.000Z</Time>
            <Position>
              <LatitudeDegrees>40.75088999234139919281005859375</LatitudeDegrees>
              <LongitudeDegrees>-4.07440164126455783843994140625</LongitudeDegrees>
            </Position>
            <AltitudeMeters>1253.4000244140625</AltitudeMeters>
            <DistanceMeters>2444.905379916</DistanceMeters>
          </Trackpoint>
          <Trackpoint>
            <Time>2018-12-30T09:30:38.000Z</Time>
            <Position>
              <LatitudeDegrees>40.7509016431868076324462890625</LatitudeDegrees>
              <LongitudeDegrees>-4.07441295683383941650390625</LongitudeDegrees>
            </Position>
            <AltitudeMeters>1253.4000244140625</AltitudeMeters>
            <DistanceMeters>2446.515234549</DistanceMeters>
          </Trackpoint>
          <Trackpoint>
            <Time>2018-12-30T09:30:39.000Z</Time>
            <Position>
              <LatitudeDegrees>40.750916562974452972412109375</LatitudeDegrees>
              <LongitudeDegrees>-4.07442444004118442535400390625</LongitudeDegrees>
            </Position>
            <AltitudeMeters>1253.4000244140625</AltitudeMeters>
            <DistanceMeters>2448.4370309133</DistanceMeters>
          </Trackpoint>
          <Trackpoint>
            <Time>2018-12-30T09:30:40.000Z</Time>
            <Position>
              <LatitudeDegrees>40.75092695653438568115234375</LatitudeDegrees>
              <LongitudeDegrees>-4.07444254495203495025634765625</LongitudeDegrees>
            </Position>
            <AltitudeMeters>1253.4000244140625</AltitudeMeters>
            <DistanceMeters>2450.3517661525</DistanceMeters>
          </Trackpoint>
          <Trackpoint>
            <Time>2018-12-30T09:30:41.000Z</Time>
            <Position>
              <LatitudeDegrees>40.7509398646652698516845703125</LatitudeDegrees>
              <LongitudeDegrees>-4.07445495016872882843017578125</LongitudeDegrees>
            </Position>
            <AltitudeMeters>1253.4000244140625</AltitudeMeters>
            <DistanceMeters>2452.1295531913</DistanceMeters>
          </Trackpoint>
          <Trackpoint>
            <Time>2018-12-30T09:30:42.000Z</Time>
            <Position>
              <LatitudeDegrees>40.750953443348407745361328125</LatitudeDegrees>
              <LongitudeDegrees>-4.07446324825286865234375</LongitudeDegrees>
            </Position>
            <AltitudeMeters>1253.5999755859375</AltitudeMeters>
            <DistanceMeters>2453.7945557343</DistanceMeters>
          </Trackpoint>
          <Trackpoint>
            <Time>2018-12-30T09:30:43.000Z</Time>
            <Position>
              <LatitudeDegrees>40.75096962042152881622314453125</LatitudeDegrees>
              <LongitudeDegrees>-4.0744681097567081451416015625</LongitudeDegrees>
            </Position>
            <AltitudeMeters>1253.5999755859375</AltitudeMeters>
            <DistanceMeters>2455.637192091</DistanceMeters>
          </Trackpoint>
          <Trackpoint>
            <Time>2018-12-30T09:30:44.000Z</Time>
            <Position>
              <LatitudeDegrees>40.75098152272403240203857421875</LatitudeDegrees>
              <LongitudeDegrees>-4.07447271980345249176025390625</LongitudeDegrees>
            </Position>
            <AltitudeMeters>1253.800048828125</AltitudeMeters>
            <DistanceMeters>2457.017534849</DistanceMeters>
          </Trackpoint>
          <Trackpoint>
            <Time>2018-12-30T09:30:45.000Z</Time>
            <Position>
              <LatitudeDegrees>40.75099711306393146514892578125</LatitudeDegrees>
              <LongitudeDegrees>-4.074485041201114654541015625</LongitudeDegrees>
            </Position>
            <AltitudeMeters>1253.800048828125</AltitudeMeters>
            <DistanceMeters>2459.0378305088</DistanceMeters>
          </Trackpoint>
          <Trackpoint>
            <Time>2018-12-30T09:30:46.000Z</Time>
            <Position>
              <LatitudeDegrees>40.7510159723460674285888671875</LatitudeDegrees>
              <LongitudeDegrees>-4.07450524158775806427001953125</LongitudeDegrees>
            </Position>
            <AltitudeMeters>1253.800048828125</AltitudeMeters>
            <DistanceMeters>2461.7406682477</DistanceMeters>
          </Trackpoint>
          <Trackpoint>
            <Time>2018-12-30T09:30:47.000Z</Time>
            <Position>
              <LatitudeDegrees>40.7510159723460674285888671875</LatitudeDegrees>
              <LongitudeDegrees>-4.07450524158775806427001953125</LongitudeDegrees>
            </Position>
            <AltitudeMeters>1253.800048828125</AltitudeMeters>
            <DistanceMeters>2461.7406682477</DistanceMeters>
          </Trackpoint>
          <Trackpoint>
            <Time>2018-12-30T09:30:48.000Z</Time>
            <Position>
              <LatitudeDegrees>40.75102779082953929901123046875</LatitudeDegrees>
              <LongitudeDegrees>-4.07451395876705646514892578125</LongitudeDegrees>
            </Position>
            <AltitudeMeters>1253.800048828125</AltitudeMeters>
            <DistanceMeters>2463.2491705725</DistanceMeters>
          </Trackpoint>
          <Trackpoint>
            <Time>2018-12-30T09:30:49.000Z</Time>
            <Position>
              <LatitudeDegrees>40.75104237534105777740478515625</LatitudeDegrees>
              <LongitudeDegrees>-4.07452167011797428131103515625</LongitudeDegrees>
            </Position>
            <AltitudeMeters>1253.800048828125</AltitudeMeters>
            <DistanceMeters>2465.001376608</DistanceMeters>
          </Trackpoint>
          <Trackpoint>
            <Time>2018-12-30T09:30:50.000Z</Time>
            <Position>
              <LatitudeDegrees>40.75105494819581508636474609375</LatitudeDegrees>
              <LongitudeDegrees>-4.0745264478027820587158203125</LongitudeDegrees>
            </Position>
            <AltitudeMeters>1253.5999755859375</AltitudeMeters>
            <DistanceMeters>2466.4581085547</DistanceMeters>
          </Trackpoint>
          <Trackpoint>
            <Time>2018-12-30T09:30:51.000Z</Time>
            <Position>
              <LatitudeDegrees>40.75106777250766754150390625</LatitudeDegrees>
              <LongitudeDegrees>-4.07452963292598724365234375</LongitudeDegrees>
            </Position>
            <AltitudeMeters>1253.5999755859375</AltitudeMeters>
            <DistanceMeters>2467.9086283965</DistanceMeters>
          </Trackpoint>
          <Trackpoint>
            <Time>2018-12-30T09:30:52.000Z</Time>
            <Position>
              <LatitudeDegrees>40.75108026154339313507080078125</LatitudeDegrees>
              <LongitudeDegrees>-4.07453306950628757476806640625</LongitudeDegrees>
            </Position>
            <AltitudeMeters>1253.5999755859375</AltitudeMeters>
            <DistanceMeters>2469.324494552</DistanceMeters>
          </Trackpoint>
          <Trackpoint>
            <Time>2018-12-30T09:30:53.000Z</Time>
            <Position>
              <LatitudeDegrees>40.751090906560420989990234375</LatitudeDegrees>
              <LongitudeDegrees>-4.0745370090007781982421875</LongitudeDegrees>
            </Position>
            <AltitudeMeters>1253.4000244140625</AltitudeMeters>
            <DistanceMeters>2470.5561815426</DistanceMeters>
          </Trackpoint>
          <Trackpoint>
            <Time>2018-12-30T09:30:54.000Z</Time>
            <Position>
              <LatitudeDegrees>40.75110641308128833770751953125</LatitudeDegrees>
              <LongitudeDegrees>-4.07453793101012706756591796875</LongitudeDegrees>
            </Position>
            <AltitudeMeters>1253.5999755859375</AltitudeMeters>
            <DistanceMeters>2472.2850410808</DistanceMeters>
          </Trackpoint>
          <Trackpoint>
            <Time>2018-12-30T09:30:55.000Z</Time>
            <Position>
              <LatitudeDegrees>40.7511202432215213775634765625</LatitudeDegrees>
              <LongitudeDegrees>-4.074540026485919952392578125</LongitudeDegrees>
            </Position>
            <AltitudeMeters>1253.5999755859375</AltitudeMeters>
            <DistanceMeters>2473.8319639159</DistanceMeters>
          </Trackpoint>
          <Trackpoint>
            <Time>2018-12-30T09:30:56.000Z</Time>
            <Position>
              <LatitudeDegrees>40.751131139695644378662109375</LatitudeDegrees>
              <LongitudeDegrees>-4.07454145140945911407470703125</LongitudeDegrees>
            </Position>
            <AltitudeMeters>1253.5999755859375</AltitudeMeters>
            <DistanceMeters>2475.0488996318</DistanceMeters>
          </Trackpoint>
          <Trackpoint>
            <Time>2018-12-30T09:30:57.000Z</Time>
            <Position>
              <LatitudeDegrees>40.751143209636211395263671875</LatitudeDegrees>
              <LongitudeDegrees>-4.07454145140945911407470703125</LongitudeDegrees>
            </Position>
            <AltitudeMeters>1253.5999755859375</AltitudeMeters>
            <DistanceMeters>2476.3927803143</DistanceMeters>
          </Trackpoint>
          <Trackpoint>
            <Time>2018-12-30T09:30:58.000Z</Time>
            <Position>
              <LatitudeDegrees>40.75115754269063472747802734375</LatitudeDegrees>
              <LongitudeDegrees>-4.0745411999523639678955078125</LongitudeDegrees>
            </Position>
            <AltitudeMeters>1253.5999755859375</AltitudeMeters>
            <DistanceMeters>2477.9885502091</DistanceMeters>
          </Trackpoint>
          <Trackpoint>
            <Time>2018-12-30T09:30:59.000Z</Time>
            <Position>
              <LatitudeDegrees>40.75117363594472408294677734375</LatitudeDegrees>
              <LongitudeDegrees>-4.07454547472298145294189453125</LongitudeDegrees>
            </Position>
            <AltitudeMeters>1253.5999755859375</AltitudeMeters>
            <DistanceMeters>2479.8164255562</DistanceMeters>
          </Trackpoint>
          <Trackpoint>
            <Time>2018-12-30T09:31:00.000Z</Time>
            <Position>
              <LatitudeDegrees>40.75118956156075000762939453125</LatitudeDegrees>
              <LongitudeDegrees>-4.074550084769725799560546875</LongitudeDegrees>
            </Position>
            <AltitudeMeters>1253.800048828125</AltitudeMeters>
            <DistanceMeters>2481.6343936468</DistanceMeters>
          </Trackpoint>
          <Trackpoint>
            <Time>2018-12-30T09:31:01.000Z</Time>
            <Position>
              <LatitudeDegrees>40.75120196677744388580322265625</LatitudeDegrees>
              <LongitudeDegrees>-4.07455469481647014617919921875</LongitudeDegrees>
            </Position>
            <AltitudeMeters>1253.800048828125</AltitudeMeters>
            <DistanceMeters>2483.0692655676</DistanceMeters>
          </Trackpoint>
          <Trackpoint>
            <Time>2018-12-30T09:31:02.000Z</Time>
            <Position>
              <LatitudeDegrees>40.7512131147086620330810546875</LatitudeDegrees>
              <LongitudeDegrees>-4.074560813605785369873046875</LongitudeDegrees>
            </Position>
            <AltitudeMeters>1254</AltitudeMeters>
            <DistanceMeters>2484.4131462501</DistanceMeters>
          </Trackpoint>
          <Trackpoint>
            <Time>2018-12-30T09:31:03.000Z</Time>
            <Position>
              <LatitudeDegrees>40.75122677721083164215087890625</LatitudeDegrees>
              <LongitudeDegrees>-4.0745606459677219390869140625</LongitudeDegrees>
            </Position>
            <AltitudeMeters>1254</AltitudeMeters>
            <DistanceMeters>2485.93357368</DistanceMeters>
          </Trackpoint>
          <Trackpoint>
            <Time>2018-12-30T09:31:04.000Z</Time>
            <Position>
              <LatitudeDegrees>40.75124077498912811279296875</LatitudeDegrees>
              <LongitudeDegrees>-4.074562489986419677734375</LongitudeDegrees>
            </Position>
            <AltitudeMeters>1254.199951171875</AltitudeMeters>
            <DistanceMeters>2487.5007944024</DistanceMeters>
          </Trackpoint>
          <Trackpoint>
            <Time>2018-12-30T09:31:05.000Z</Time>
            <Position>
              <LatitudeDegrees>40.7512535154819488525390625</LatitudeDegrees>
              <LongitudeDegrees>-4.0745593048632144927978515625</LongitudeDegrees>
            </Position>
            <AltitudeMeters>1254.199951171875</AltitudeMeters>
            <DistanceMeters>2488.9419458803</DistanceMeters>
          </Trackpoint>
          <Trackpoint>
            <Time>2018-12-30T09:31:06.000Z</Time>
            <Position>
              <LatitudeDegrees>40.75126667506992816925048828125</LatitudeDegrees>
              <LongitudeDegrees>-4.074562154710292816162109375</LongitudeDegrees>
            </Position>
            <AltitudeMeters>1254.4000244140625</AltitudeMeters>
            <DistanceMeters>2490.4263106105</DistanceMeters>
          </Trackpoint>
          <Trackpoint>
            <Time>2018-12-30T09:31:07.000Z</Time>
            <Position>
              <LatitudeDegrees>40.75127606280148029327392578125</LatitudeDegrees>
              <LongitudeDegrees>-4.07456307671964168548583984375</LongitudeDegrees>
            </Position>
            <AltitudeMeters>1254.4000244140625</AltitudeMeters>
            <DistanceMeters>2491.475914977</DistanceMeters>
          </Trackpoint>
          <Trackpoint>
            <Time>2018-12-30T09:31:08.000Z</Time>
            <Position>
              <LatitudeDegrees>40.7512835226953029632568359375</LatitudeDegrees>
              <LongitudeDegrees>-4.0745611488819122314453125</LongitudeDegrees>
            </Position>
            <AltitudeMeters>1254.5999755859375</AltitudeMeters>
            <DistanceMeters>2492.3258597491</DistanceMeters>
          </Trackpoint>
          <Trackpoint>
            <Time>2018-12-30T09:31:09.000Z</Time>
            <Position>
              <LatitudeDegrees>40.75129601173102855682373046875</LatitudeDegrees>
              <LongitudeDegrees>-4.0745619870722293853759765625</LongitudeDegrees>
            </Position>
            <AltitudeMeters>1254.800048828125</AltitudeMeters>
            <DistanceMeters>2493.7159807362</DistanceMeters>
          </Trackpoint>
          <Trackpoint>
            <Time>2018-12-30T09:31:10.000Z</Time>
            <Position>
              <LatitudeDegrees>40.751306153833866119384765625</LatitudeDegrees>
              <LongitudeDegrees>-4.07456693239510059356689453125</LongitudeDegrees>
            </Position>
            <AltitudeMeters>1255</AltitudeMeters>
            <DistanceMeters>2494.9217345699</DistanceMeters>
          </Trackpoint>
          <Trackpoint>
            <Time>2018-12-30T09:31:11.000Z</Time>
            <Position>
              <LatitudeDegrees>40.751316547393798828125</LatitudeDegrees>
              <LongitudeDegrees>-4.07456559129059314727783203125</LongitudeDegrees>
            </Position>
            <AltitudeMeters>1255</AltitudeMeters>
            <DistanceMeters>2496.0855693806</DistanceMeters>
          </Trackpoint>
          <Trackpoint>
            <Time>2018-12-30T09:31:12.000Z</Time>
            <Position>
              <LatitudeDegrees>40.7513257674872875213623046875</LatitudeDegrees>
              <LongitudeDegrees>-4.07456642948091030120849609375</LongitudeDegrees>
            </Position>
            <AltitudeMeters>1255.199951171875</AltitudeMeters>
            <DistanceMeters>2497.1178237196</DistanceMeters>
          </Trackpoint>
          <Trackpoint>
            <Time>2018-12-30T09:31:13.000Z</Time>
            <Position>
              <LatitudeDegrees>40.7513301260769367218017578125</LatitudeDegrees>
              <LongitudeDegrees>-4.0745745599269866943359375</LongitudeDegrees>
            </Position>
            <AltitudeMeters>1255.4000244140625</AltitudeMeters>
            <DistanceMeters>2497.9570769369</DistanceMeters>
          </Trackpoint>
          <Trackpoint>
            <Time>2018-12-30T09:31:14.000Z</Time>
            <Position>
              <LatitudeDegrees>40.7513366639614105224609375</LatitudeDegrees>
              <LongitudeDegrees>-4.07458134926855564117431640625</LongitudeDegrees>
            </Position>
            <AltitudeMeters>1255.4000244140625</AltitudeMeters>
            <DistanceMeters>2498.8783951152</DistanceMeters>
          </Trackpoint>
          <Trackpoint>
            <Time>2018-12-30T09:31:15.000Z</Time>
            <Position>
              <LatitudeDegrees>40.75134965591132640838623046875</LatitudeDegrees>
              <LongitudeDegrees>-4.07457883469760417938232421875</LongitudeDegrees>
            </Position>
            <AltitudeMeters>1255.4000244140625</AltitudeMeters>
            <DistanceMeters>2500.3382232012</DistanceMeters>
          </Trackpoint>
          <Trackpoint>
            <Time>2018-12-30T09:31:16.000Z</Time>
            <Position>
              <LatitudeDegrees>40.7513653300702571868896484375</LatitudeDegrees>
              <LongitudeDegrees>-4.074575565755367279052734375</LongitudeDegrees>
            </Position>
            <AltitudeMeters>1255.4000244140625</AltitudeMeters>
            <DistanceMeters>2502.1058222648</DistanceMeters>
          </Trackpoint>
          <Trackpoint>
            <Time>2018-12-30T09:31:17.000Z</Time>
            <Position>
              <LatitudeDegrees>40.75137496925890445709228515625</LatitudeDegrees>
              <LongitudeDegrees>-4.07458688132464885711669921875</LongitudeDegrees>
            </Position>
            <AltitudeMeters>1255.5999755859375</AltitudeMeters>
            <DistanceMeters>2503.5438373919</DistanceMeters>
          </Trackpoint>
          <Trackpoint>
            <Time>2018-12-30T09:31:18.000Z</Time>
            <Position>
              <LatitudeDegrees>40.751387290656566619873046875</LatitudeDegrees>
              <LongitudeDegrees>-4.074588976800441741943359375</LongitudeDegrees>
            </Position>
            <AltitudeMeters>1255.5999755859375</AltitudeMeters>
            <DistanceMeters>2504.9274472379</DistanceMeters>
          </Trackpoint>
          <Trackpoint>
            <Time>2018-12-30T09:31:19.000Z</Time>
            <Position>
              <LatitudeDegrees>40.75139542110264301300048828125</LatitudeDegrees>
              <LongitudeDegrees>-4.07458503730595111846923828125</LongitudeDegrees>
            </Position>
            <AltitudeMeters>1255.5999755859375</AltitudeMeters>
            <DistanceMeters>2505.8965333797</DistanceMeters>
          </Trackpoint>
          <Trackpoint>
            <Time>2018-12-30T09:31:20.000Z</Time>
            <Position>
              <LatitudeDegrees>40.7514045573770999908447265625</LatitudeDegrees>
              <LongitudeDegrees>-4.07460699789226055145263671875</LongitudeDegrees>
            </Position>
            <AltitudeMeters>1255.5999755859375</AltitudeMeters>
            <DistanceMeters>2508.0086076595</DistanceMeters>
          </Trackpoint>
          <Trackpoint>
            <Time>2018-12-30T09:31:21.000Z</Time>
            <Position>
              <LatitudeDegrees>40.751413442194461822509765625</LatitudeDegrees>
              <LongitudeDegrees>-4.07462107948958873748779296875</LongitudeDegrees>
            </Position>
            <AltitudeMeters>1255.5999755859375</AltitudeMeters>
            <DistanceMeters>2509.5526090135</DistanceMeters>
          </Trackpoint>
          <Trackpoint>
            <Time>2018-12-30T09:31:22.000Z</Time>
            <Position>
              <LatitudeDegrees>40.75142442248761653900146484375</LatitudeDegrees>
              <LongitudeDegrees>-4.074626863002777099609375</LongitudeDegrees>
            </Position>
            <AltitudeMeters>1255.5999755859375</AltitudeMeters>
            <DistanceMeters>2510.8693377924</DistanceMeters>
          </Trackpoint>
          <Trackpoint>
            <Time>2018-12-30T09:31:23.000Z</Time>
            <Position>
              <LatitudeDegrees>40.75143749825656414031982421875</LatitudeDegrees>
              <LongitudeDegrees>-4.0746270306408405303955078125</LongitudeDegrees>
            </Position>
            <AltitudeMeters>1255.5999755859375</AltitudeMeters>
            <DistanceMeters>2512.3229670051</DistanceMeters>
          </Trackpoint>
          <Trackpoint>
            <Time>2018-12-30T09:31:24.000Z</Time>
            <Position>
              <LatitudeDegrees>40.75144998729228973388671875</LatitudeDegrees>
              <LongitudeDegrees>-4.07462443225085735321044921875</LongitudeDegrees>
            </Position>
            <AltitudeMeters>1255.5999755859375</AltitudeMeters>
            <DistanceMeters>2513.7292339574</DistanceMeters>
          </Trackpoint>
          <Trackpoint>
            <Time>2018-12-30T09:31:25.000Z</Time>
            <Position>
              <LatitudeDegrees>40.7514662481844425201416015625</LatitudeDegrees>
              <LongitudeDegrees>-4.0746236778795719146728515625</LongitudeDegrees>
            </Position>
            <AltitudeMeters>1255.800048828125</AltitudeMeters>
            <DistanceMeters>2515.5397360284</DistanceMeters>
          </Trackpoint>
          <Trackpoint>
            <Time>2018-12-30T09:31:26.000Z</Time>
            <Position>
              <LatitudeDegrees>40.7514867000281810760498046875</LatitudeDegrees>
              <LongitudeDegrees>-4.0746122784912586212158203125</LongitudeDegrees>
            </Position>
            <AltitudeMeters>1255.800048828125</AltitudeMeters>
            <DistanceMeters>2518.0086024889</DistanceMeters>
          </Trackpoint>
          <Trackpoint>
            <Time>2018-12-30T09:31:27.000Z</Time>
            <Position>
              <LatitudeDegrees>40.7515001110732555389404296875</LatitudeDegrees>
              <LongitudeDegrees>-4.07460314221680164337158203125</LongitudeDegrees>
            </Position>
            <AltitudeMeters>1255.800048828125</AltitudeMeters>
            <DistanceMeters>2519.6897966856</DistanceMeters>
          </Trackpoint>
          <Trackpoint>
            <Time>2018-12-30T09:31:28.000Z</Time>
            <Position>
              <LatitudeDegrees>40.75150899589061737060546875</LatitudeDegrees>
              <LongitudeDegrees>-4.07460180111229419708251953125</LongitudeDegrees>
            </Position>
            <AltitudeMeters>1256</AltitudeMeters>
            <DistanceMeters>2520.686445274</DistanceMeters>
          </Trackpoint>
          <Trackpoint>
            <Time>2018-12-30T09:31:29.000Z</Time>
            <Position>
              <LatitudeDegrees>40.75151863507926464080810546875</LatitudeDegrees>
              <LongitudeDegrees>-4.074595011770725250244140625</LongitudeDegrees>
            </Position>
            <AltitudeMeters>1256</AltitudeMeters>
            <DistanceMeters>2521.90338099</DistanceMeters>
          </Trackpoint>
          <Trackpoint>
            <Time>2018-12-30T09:31:30.000Z</Time>
            <Position>
              <LatitudeDegrees>40.75152819044888019561767578125</LatitudeDegrees>
              <LongitudeDegrees>-4.07458302564918994903564453125</LongitudeDegrees>
            </Position>
            <AltitudeMeters>1256.4000244140625</AltitudeMeters>
            <DistanceMeters>2523.3693817382</DistanceMeters>
          </Trackpoint>
          <Trackpoint>
            <Time>2018-12-30T09:31:31.000Z</Time>
            <Position>
              <LatitudeDegrees>40.75153606943786144256591796875</LatitudeDegrees>
              <LongitudeDegrees>-4.0745727159082889556884765625</LongitudeDegrees>
            </Position>
            <AltitudeMeters>1256.5999755859375</AltitudeMeters>
            <DistanceMeters>2524.604729025</DistanceMeters>
          </Trackpoint>
          <Trackpoint>
            <Time>2018-12-30T09:31:32.000Z</Time>
            <Position>
              <LatitudeDegrees>40.75155199505388736724853515625</LatitudeDegrees>
              <LongitudeDegrees>-4.07456626184284687042236328125</LongitudeDegrees>
            </Position>
            <AltitudeMeters>1256.800048828125</AltitudeMeters>
            <DistanceMeters>2526.4620090797</DistanceMeters>
          </Trackpoint>
          <Trackpoint>
            <Time>2018-12-30T09:31:33.000Z</Time>
            <Position>
              <LatitudeDegrees>40.7515621371567249298095703125</LatitudeDegrees>
              <LongitudeDegrees>-4.07456173561513423919677734375</LongitudeDegrees>
            </Position>
            <AltitudeMeters>1257</AltitudeMeters>
            <DistanceMeters>2527.6564763577</DistanceMeters>
          </Trackpoint>
          <Trackpoint>
            <Time>2018-12-30T09:31:34.000Z</Time>
            <Position>
              <LatitudeDegrees>40.75156708247959613800048828125</LatitudeDegrees>
              <LongitudeDegrees>-4.074560813605785369873046875</LongitudeDegrees>
            </Position>
            <AltitudeMeters>1257.199951171875</AltitudeMeters>
            <DistanceMeters>2528.2186619814</DistanceMeters>
          </Trackpoint>
          <Trackpoint>
            <Time>2018-12-30T09:31:35.000Z</Time>
            <Position>
              <LatitudeDegrees>40.7515789009630680084228515625</LatitudeDegrees>
              <LongitudeDegrees>-4.07455452717840671539306640625</LongitudeDegrees>
            </Position>
            <AltitudeMeters>1257.5999755859375</AltitudeMeters>
            <DistanceMeters>2529.6377134417</DistanceMeters>
          </Trackpoint>
          <Trackpoint>
            <Time>2018-12-30T09:31:36.000Z</Time>
            <Position>
              <LatitudeDegrees>40.7515914738178253173828125</LatitudeDegrees>
              <LongitudeDegrees>-4.0745479054749011993408203125</LongitudeDegrees>
            </Position>
            <AltitudeMeters>1257.800048828125</AltitudeMeters>
            <DistanceMeters>2531.1462157665</DistanceMeters>
          </Trackpoint>
          <Trackpoint>
            <Time>2018-12-30T09:31:37.000Z</Time>
            <Position>
              <LatitudeDegrees>40.7516013644635677337646484375</LatitudeDegrees>
              <LongitudeDegrees>-4.074538685381412506103515625</LongitudeDegrees>
            </Position>
            <AltitudeMeters>1257.800048828125</AltitudeMeters>
            <DistanceMeters>2532.4967991374</DistanceMeters>
          </Trackpoint>
          <Trackpoint>
            <Time>2018-12-30T09:31:38.000Z</Time>
            <Position>
              <LatitudeDegrees>40.75160731561481952667236328125</LatitudeDegrees>
              <LongitudeDegrees>-4.0745365060865879058837890625</LongitudeDegrees>
            </Position>
            <AltitudeMeters>1258</AltitudeMeters>
            <DistanceMeters>2533.1886040604</DistanceMeters>
          </Trackpoint>
          <Trackpoint>
            <Time>2018-12-30T09:31:39.000Z</Time>
            <Position>
              <LatitudeDegrees>40.75162257067859172821044921875</LatitudeDegrees>
              <LongitudeDegrees>-4.07453105784952640533447265625</LongitudeDegrees>
            </Position>
            <AltitudeMeters>1258.199951171875</AltitudeMeters>
            <DistanceMeters>2534.9510870523</DistanceMeters>
          </Trackpoint>
          <Trackpoint>
            <Time>2018-12-30T09:31:40.000Z</Time>
            <Position>
              <LatitudeDegrees>40.751627348363399505615234375</LatitudeDegrees>
              <LongitudeDegrees>-4.0745170600712299346923828125</LongitudeDegrees>
            </Position>
            <AltitudeMeters>1258.199951171875</AltitudeMeters>
            <DistanceMeters>2536.2435901053</DistanceMeters>
          </Trackpoint>
          <Trackpoint>
            <Time>2018-12-30T09:31:41.000Z</Time>
            <Position>
              <LatitudeDegrees>40.751634724438190460205078125</LatitudeDegrees>
              <LongitudeDegrees>-4.07451714389026165008544921875</LongitudeDegrees>
            </Position>
            <AltitudeMeters>1258</AltitudeMeters>
            <DistanceMeters>2537.0610408114</DistanceMeters>
          </Trackpoint>
          <Trackpoint>
            <Time>2018-12-30T09:31:42.000Z</Time>
            <Position>
              <LatitudeDegrees>40.75164604000747203826904296875</LatitudeDegrees>
              <LongitudeDegrees>-4.074513204395771026611328125</LongitudeDegrees>
            </Position>
            <AltitudeMeters>1258</AltitudeMeters>
            <DistanceMeters>2538.3639814745</DistanceMeters>
          </Trackpoint>
          <Trackpoint>
            <Time>2018-12-30T09:31:43.000Z</Time>
            <Position>
              <LatitudeDegrees>40.751654170453548431396484375</LatitudeDegrees>
              <LongitudeDegrees>-4.07449769787490367889404296875</LongitudeDegrees>
            </Position>
            <AltitudeMeters>1258</AltitudeMeters>
            <DistanceMeters>2539.9540825418</DistanceMeters>
          </Trackpoint>
          <Trackpoint>
            <Time>2018-12-30T09:31:44.000Z</Time>
            <Position>
              <LatitudeDegrees>40.75165961869060993194580078125</LatitudeDegrees>
              <LongitudeDegrees>-4.074490070343017578125</LongitudeDegrees>
            </Position>
            <AltitudeMeters>1258</AltitudeMeters>
            <DistanceMeters>2540.8353240378</DistanceMeters>
          </Trackpoint>
          <Trackpoint>
            <Time>2018-12-30T09:31:45.000Z</Time>
            <Position>
              <LatitudeDegrees>40.7516665756702423095703125</LatitudeDegrees>
              <LongitudeDegrees>-4.0744845382869243621826171875</LongitudeDegrees>
            </Position>
            <AltitudeMeters>1257.800048828125</AltitudeMeters>
            <DistanceMeters>2541.7368266057</DistanceMeters>
          </Trackpoint>
          <Trackpoint>
            <Time>2018-12-30T09:31:46.000Z</Time>
            <Position>
              <LatitudeDegrees>40.75166984461247920989990234375</LatitudeDegrees>
              <LongitudeDegrees>-4.07448110170662403106689453125</LongitudeDegrees>
            </Position>
            <AltitudeMeters>1257.800048828125</AltitudeMeters>
            <DistanceMeters>2542.192558718</DistanceMeters>
          </Trackpoint>
          <Trackpoint>
            <Time>2018-12-30T09:31:47.000Z</Time>
            <Position>
              <LatitudeDegrees>40.75167219154536724090576171875</LatitudeDegrees>
              <LongitudeDegrees>-4.0744672715663909912109375</LongitudeDegrees>
            </Position>
            <AltitudeMeters>1258</AltitudeMeters>
            <DistanceMeters>2543.3832400363</DistanceMeters>
          </Trackpoint>
          <Trackpoint>
            <Time>2018-12-30T09:31:48.000Z</Time>
            <Position>
              <LatitudeDegrees>40.75167755596339702606201171875</LatitudeDegrees>
              <LongitudeDegrees>-4.07445796765387058258056640625</LongitudeDegrees>
            </Position>
            <AltitudeMeters>1258</AltitudeMeters>
            <DistanceMeters>2544.3615999409</DistanceMeters>
          </Trackpoint>
          <Trackpoint>
            <Time>2018-12-30T09:31:49.000Z</Time>
            <Position>
              <LatitudeDegrees>40.751680321991443634033203125</LatitudeDegrees>
              <LongitudeDegrees>-4.0744489990174770355224609375</LongitudeDegrees>
            </Position>
            <AltitudeMeters>1258</AltitudeMeters>
            <DistanceMeters>2545.1679283504</DistanceMeters>
          </Trackpoint>
          <Trackpoint>
            <Time>2018-12-30T09:31:50.000Z</Time>
            <Position>
              <LatitudeDegrees>40.75168174691498279571533203125</LatitudeDegrees>
              <LongitudeDegrees>-4.07444254495203495025634765625</LongitudeDegrees>
            </Position>
            <AltitudeMeters>1258</AltitudeMeters>
            <DistanceMeters>2545.7380886367</DistanceMeters>
          </Trackpoint>
          <Trackpoint>
            <Time>2018-12-30T09:31:51.000Z</Time>
            <Position>
              <LatitudeDegrees>40.7516845129430294036865234375</LatitudeDegrees>
              <LongitudeDegrees>-4.07443298958241939544677734375</LongitudeDegrees>
            </Position>
            <AltitudeMeters>1258</AltitudeMeters>
            <DistanceMeters>2546.6038232062</DistanceMeters>
          </Trackpoint>
          <Trackpoint>
            <Time>2018-12-30T09:31:52.000Z</Time>
            <Position>
              <LatitudeDegrees>40.75168962590396404266357421875</LatitudeDegrees>
              <LongitudeDegrees>-4.074422679841518402099609375</LongitudeDegrees>
            </Position>
            <AltitudeMeters>1258</AltitudeMeters>
            <DistanceMeters>2547.6447887067</DistanceMeters>
          </Trackpoint>
          <Trackpoint>
            <Time>2018-12-30T09:31:53.000Z</Time>
            <Position>
              <LatitudeDegrees>40.75169398449361324310302734375</LatitudeDegrees>
              <LongitudeDegrees>-4.074412286281585693359375</LongitudeDegrees>
            </Position>
            <AltitudeMeters>1258</AltitudeMeters>
            <DistanceMeters>2548.6504569232</DistanceMeters>
          </Trackpoint>
          <Trackpoint>
            <Time>2018-12-30T09:31:54.000Z</Time>
            <Position>
              <LatitudeDegrees>40.75169683434069156646728515625</LatitudeDegrees>
              <LongitudeDegrees>-4.07440080307424068450927734375</LongitudeDegrees>
            </Position>
            <AltitudeMeters>1258</AltitudeMeters>
            <DistanceMeters>2549.6695049059</DistanceMeters>
          </Trackpoint>
          <Trackpoint>
            <Time>2018-12-30T09:31:55.000Z</Time>
            <Position>
              <LatitudeDegrees>40.751698426902294158935546875</LatitudeDegrees>
              <LongitudeDegrees>-4.07439208589494228363037109375</LongitudeDegrees>
            </Position>
            <AltitudeMeters>1258</AltitudeMeters>
            <DistanceMeters>2550.4297186209</DistanceMeters>
          </Trackpoint>
          <Trackpoint>
            <Time>2018-12-30T09:31:56.000Z</Time>
            <Position>
              <LatitudeDegrees>40.75169918127357959747314453125</LatitudeDegrees>
              <LongitudeDegrees>-4.074379764497280120849609375</LongitudeDegrees>
            </Position>
            <AltitudeMeters>1258.4000244140625</AltitudeMeters>
            <DistanceMeters>2551.4706841214</DistanceMeters>
          </Trackpoint>
          <Trackpoint>
            <Time>2018-12-30T09:31:57.000Z</Time>
            <Position>
              <LatitudeDegrees>40.7516996003687381744384765625</LatitudeDegrees>
              <LongitudeDegrees>-4.0743645094335079193115234375</LongitudeDegrees>
            </Position>
            <AltitudeMeters>1258.800048828125</AltitudeMeters>
            <DistanceMeters>2552.7596891895</DistanceMeters>
          </Trackpoint>
          <Trackpoint>
            <Time>2018-12-30T09:31:58.000Z</Time>
            <Position>
              <LatitudeDegrees>40.75170085765421390533447265625</LatitudeDegrees>
              <LongitudeDegrees>-4.07434967346489429473876953125</LongitudeDegrees>
            </Position>
            <AltitudeMeters>1259</AltitudeMeters>
            <DistanceMeters>2554.020361016</DistanceMeters>
          </Trackpoint>
          <Trackpoint>
            <Time>2018-12-30T09:31:59.000Z</Time>
            <Position>
              <LatitudeDegrees>40.751704461872577667236328125</LatitudeDegrees>
              <LongitudeDegrees>-4.0743363462388515472412109375</LongitudeDegrees>
            </Position>
            <AltitudeMeters>1259.199951171875</AltitudeMeters>
            <DistanceMeters>2555.2072442981</DistanceMeters>
          </Trackpoint>
          <Trackpoint>
            <Time>2018-12-30T09:32:00.000Z</Time>
            <Position>
              <LatitudeDegrees>40.75170521624386310577392578125</LatitudeDegrees>
              <LongitudeDegrees>-4.0743224322795867919921875</LongitudeDegrees>
            </Position>
            <AltitudeMeters>1259.199951171875</AltitudeMeters>
            <DistanceMeters>2556.3826598399</DistanceMeters>
          </Trackpoint>
          <Trackpoint>
            <Time>2018-12-30T09:32:01.000Z</Time>
            <Position>
              <LatitudeDegrees>40.7517032884061336517333984375</LatitudeDegrees>
              <LongitudeDegrees>-4.074314720928668975830078125</LongitudeDegrees>
            </Position>
            <AltitudeMeters>1259.199951171875</AltitudeMeters>
            <DistanceMeters>2557.0679072223</DistanceMeters>
          </Trackpoint>
          <Trackpoint>
            <Time>2018-12-30T09:32:02.000Z</Time>
            <Position>
              <LatitudeDegrees>40.75170756317675113677978515625</LatitudeDegrees>
              <LongitudeDegrees>-4.07430566847324371337890625</LongitudeDegrees>
            </Position>
            <AltitudeMeters>1259.199951171875</AltitudeMeters>
            <DistanceMeters>2557.9643874527</DistanceMeters>
          </Trackpoint>
          <Trackpoint>
            <Time>2018-12-30T09:32:03.000Z</Time>
            <Position>
              <LatitudeDegrees>40.7517156936228275299072265625</LatitudeDegrees>
              <LongitudeDegrees>-4.074293263256549835205078125</LongitudeDegrees>
            </Position>
            <AltitudeMeters>1259.199951171875</AltitudeMeters>
            <DistanceMeters>2559.3447302108</DistanceMeters>
          </Trackpoint>
          <Trackpoint>
            <Time>2018-12-30T09:32:04.000Z</Time>
            <Position>
              <LatitudeDegrees>40.7517183758318424224853515625</LatitudeDegrees>
              <LongitudeDegrees>-4.0742793492972850799560546875</LongitudeDegrees>
            </Position>
            <AltitudeMeters>1259.199951171875</AltitudeMeters>
            <DistanceMeters>2560.554222825</DistanceMeters>
          </Trackpoint>
          <Trackpoint>
            <Time>2018-12-30T09:32:05.000Z</Time>
            <Position>
              <LatitudeDegrees>40.7517173700034618377685546875</LatitudeDegrees>
              <LongitudeDegrees>-4.0742661058902740478515625</LongitudeDegrees>
            </Position>
            <AltitudeMeters>1259.199951171875</AltitudeMeters>
            <DistanceMeters>2561.6785940725</DistanceMeters>
          </Trackpoint>
          <Trackpoint>
            <Time>2018-12-30T09:32:06.000Z</Time>
            <Position>
              <LatitudeDegrees>40.75171695090830326080322265625</LatitudeDegrees>
              <LongitudeDegrees>-4.0742521919310092926025390625</LongitudeDegrees>
            </Position>
            <AltitudeMeters>1259.199951171875</AltitudeMeters>
            <DistanceMeters>2562.8578445855</DistanceMeters>
          </Trackpoint>
          <Trackpoint>
            <Time>2018-12-30T09:32:07.000Z</Time>
            <Position>
              <LatitudeDegrees>40.75172080658376216888427734375</LatitudeDegrees>
              <LongitudeDegrees>-4.074236266314983367919921875</LongitudeDegrees>
            </Position>
            <AltitudeMeters>1259.199951171875</AltitudeMeters>
            <DistanceMeters>2564.2673185362</DistanceMeters>
          </Trackpoint>
          <Trackpoint>
            <Time>2018-12-30T09:32:08.000Z</Time>
            <Position>
              <LatitudeDegrees>40.7517270930111408233642578125</LatitudeDegrees>
              <LongitudeDegrees>-4.074222184717655181884765625</LongitudeDegrees>
            </Position>
            <AltitudeMeters>1259.4000244140625</AltitudeMeters>
            <DistanceMeters>2565.6443864551</DistanceMeters>
          </Trackpoint>
          <Trackpoint>
            <Time>2018-12-30T09:32:09.000Z</Time>
            <Position>
              <LatitudeDegrees>40.75173430144786834716796875</LatitudeDegrees>
              <LongitudeDegrees>-4.074205420911312103271484375</LongitudeDegrees>
            </Position>
            <AltitudeMeters>1259.5999755859375</AltitudeMeters>
            <DistanceMeters>2567.2709817944</DistanceMeters>
          </Trackpoint>
          <Trackpoint>
            <Time>2018-12-30T09:32:10.000Z</Time>
            <Position>
              <LatitudeDegrees>40.75172935612499713897705078125</LatitudeDegrees>
              <LongitudeDegrees>-4.07417935319244861602783203125</LongitudeDegrees>
            </Position>
            <AltitudeMeters>1260</AltitudeMeters>
            <DistanceMeters>2569.5377225155</DistanceMeters>
          </Trackpoint>
          <Trackpoint>
            <Time>2018-12-30T09:32:11.000Z</Time>
            <Position>
              <LatitudeDegrees>40.7517307810485363006591796875</LatitudeDegrees>
              <LongitudeDegrees>-4.07416292466223239898681640625</LongitudeDegrees>
            </Position>
            <AltitudeMeters>1260.199951171875</AltitudeMeters>
            <DistanceMeters>2570.9310876634</DistanceMeters>
          </Trackpoint>
          <Trackpoint>
            <Time>2018-12-30T09:32:12.000Z</Time>
            <Position>
              <LatitudeDegrees>40.7517301104962825775146484375</LatitudeDegrees>
              <LongitudeDegrees>-4.07414917834103107452392578125</LongitudeDegrees>
            </Position>
            <AltitudeMeters>1260.199951171875</AltitudeMeters>
            <DistanceMeters>2572.0949224741</DistanceMeters>
          </Trackpoint>
          <Trackpoint>
            <Time>2018-12-30T09:32:13.000Z</Time>
            <Position>
              <LatitudeDegrees>40.751732625067234039306640625</LatitudeDegrees>
              <LongitudeDegrees>-4.0741331689059734344482421875</LongitudeDegrees>
            </Position>
            <AltitudeMeters>1260.4000244140625</AltitudeMeters>
            <DistanceMeters>2573.471990393</DistanceMeters>
          </Trackpoint>
          <Trackpoint>
            <Time>2018-12-30T09:32:14.000Z</Time>
            <Position>
              <LatitudeDegrees>40.75173388235270977020263671875</LatitudeDegrees>
              <LongitudeDegrees>-4.0741117112338542938232421875</LongitudeDegrees>
            </Position>
            <AltitudeMeters>1260.5999755859375</AltitudeMeters>
            <DistanceMeters>2575.2899584836</DistanceMeters>
          </Trackpoint>
          <Trackpoint>
            <Time>2018-12-30T09:32:15.000Z</Time>
            <Position>
              <LatitudeDegrees>40.75174293480813503265380859375</LatitudeDegrees>
              <LongitudeDegrees>-4.0740972943603992462158203125</LongitudeDegrees>
            </Position>
            <AltitudeMeters>1260.800048828125</AltitudeMeters>
            <DistanceMeters>2576.8715182122</DistanceMeters>
          </Trackpoint>
          <Trackpoint>
            <Time>2018-12-30T09:32:16.000Z</Time>
            <Position>
              <LatitudeDegrees>40.7517465390264987945556640625</LatitudeDegrees>
              <LongitudeDegrees>-4.07408706843852996826171875</LongitudeDegrees>
            </Position>
            <AltitudeMeters>1261</AltitudeMeters>
            <DistanceMeters>2577.8217853559</DistanceMeters>
          </Trackpoint>
          <Trackpoint>
            <Time>2018-12-30T09:32:17.000Z</Time>
            <Position>
              <LatitudeDegrees>40.7517505623400211334228515625</LatitudeDegrees>
              <LongitudeDegrees>-4.07407055608928203582763671875</LongitudeDegrees>
            </Position>
            <AltitudeMeters>1261</AltitudeMeters>
            <DistanceMeters>2579.2877861041</DistanceMeters>
          </Trackpoint>
          <Trackpoint>
            <Time>2018-12-30T09:32:18.000Z</Time>
            <Position>
              <LatitudeDegrees>40.75175852514803409576416015625</LatitudeDegrees>
              <LongitudeDegrees>-4.0740553848445415496826171875</LongitudeDegrees>
            </Position>
            <AltitudeMeters>1261</AltitudeMeters>
            <DistanceMeters>2580.8463401017</DistanceMeters>
          </Trackpoint>
          <Trackpoint>
            <Time>2018-12-30T09:32:19.000Z</Time>
            <Position>
              <LatitudeDegrees>40.7517656497657299041748046875</LatitudeDegrees>
              <LongitudeDegrees>-4.07402931712567806243896484375</LongitudeDegrees>
            </Position>
            <AltitudeMeters>1261.199951171875</AltitudeMeters>
            <DistanceMeters>2583.1836882248</DistanceMeters>
          </Trackpoint>
          <Trackpoint>
            <Time>2018-12-30T09:32:20.000Z</Time>
            <Position>
              <LatitudeDegrees>40.75177746824920177459716796875</LatitudeDegrees>
              <LongitudeDegrees>-4.0740112960338592529296875</LongitudeDegrees>
            </Position>
            <AltitudeMeters>1261.199951171875</AltitudeMeters>
            <DistanceMeters>2585.1950246578</DistanceMeters>
          </Trackpoint>
          <Trackpoint>
            <Time>2018-12-30T09:32:21.000Z</Time>
            <Position>
              <LatitudeDegrees>40.751786939799785614013671875</LatitudeDegrees>
              <LongitudeDegrees>-4.073994867503643035888671875</LongitudeDegrees>
            </Position>
            <AltitudeMeters>1261.199951171875</AltitudeMeters>
            <DistanceMeters>2586.9368931044</DistanceMeters>
          </Trackpoint>
          <Trackpoint>
            <Time>2018-12-30T09:32:22.000Z</Time>
            <Position>
              <LatitudeDegrees>40.75180110521614551544189453125</LatitudeDegrees>
              <LongitudeDegrees>-4.07398514449596405029296875</LongitudeDegrees>
            </Position>
            <AltitudeMeters>1261.4000244140625</AltitudeMeters>
            <DistanceMeters>2588.7146801432</DistanceMeters>
          </Trackpoint>
          <Trackpoint>
            <Time>2018-12-30T09:32:23.000Z</Time>
            <Position>
              <LatitudeDegrees>40.751812756061553955078125</LatitudeDegrees>
              <LongitudeDegrees>-4.0739749185740947723388671875</LongitudeDegrees>
            </Position>
            <AltitudeMeters>1261.5999755859375</AltitudeMeters>
            <DistanceMeters>2590.2703345029</DistanceMeters>
          </Trackpoint>
          <Trackpoint>
            <Time>2018-12-30T09:32:24.000Z</Time>
            <Position>
              <LatitudeDegrees>40.75182817876338958740234375</LatitudeDegrees>
              <LongitudeDegrees>-4.07396829687058925628662109375</LongitudeDegrees>
            </Position>
            <AltitudeMeters>1261.800048828125</AltitudeMeters>
            <DistanceMeters>2592.0733396388</DistanceMeters>
          </Trackpoint>
          <Trackpoint>
            <Time>2018-12-30T09:32:25.000Z</Time>
            <Position>
              <LatitudeDegrees>40.75184200890362262725830078125</LatitudeDegrees>
              <LongitudeDegrees>-4.07395488582551479339599609375</LongitudeDegrees>
            </Position>
            <AltitudeMeters>1262</AltitudeMeters>
            <DistanceMeters>2593.983352959</DistanceMeters>
          </Trackpoint>
          <Trackpoint>
            <Time>2018-12-30T09:32:26.000Z</Time>
            <Position>
              <LatitudeDegrees>40.7518451102077960968017578125</LatitudeDegrees>
              <LongitudeDegrees>-4.07393778674304485321044921875</LongitudeDegrees>
            </Position>
            <AltitudeMeters>1262.199951171875</AltitudeMeters>
            <DistanceMeters>2595.4677176892</DistanceMeters>
          </Trackpoint>
          <Trackpoint>
            <Time>2018-12-30T09:32:27.000Z</Time>
            <Position>
              <LatitudeDegrees>40.75185508467257022857666015625</LatitudeDegrees>
              <LongitudeDegrees>-4.07393150031566619873046875</LongitudeDegrees>
            </Position>
            <AltitudeMeters>1262.199951171875</AltitudeMeters>
            <DistanceMeters>2596.6994046797</DistanceMeters>
          </Trackpoint>
          <Trackpoint>
            <Time>2018-12-30T09:32:28.000Z</Time>
            <Position>
              <LatitudeDegrees>40.7518612034618854522705078125</LatitudeDegrees>
              <LongitudeDegrees>-4.07392052002251148223876953125</LongitudeDegrees>
            </Position>
            <AltitudeMeters>1262.199951171875</AltitudeMeters>
            <DistanceMeters>2597.8476168382</DistanceMeters>
          </Trackpoint>
          <Trackpoint>
            <Time>2018-12-30T09:32:29.000Z</Time>
            <Position>
              <LatitudeDegrees>40.75186480768024921417236328125</LatitudeDegrees>
              <LongitudeDegrees>-4.07390308566391468048095703125</LongitudeDegrees>
            </Position>
            <AltitudeMeters>1262.199951171875</AltitudeMeters>
            <DistanceMeters>2599.3710109586</DistanceMeters>
          </Trackpoint>
          <Trackpoint>
            <Time>2018-12-30T09:32:30.000Z</Time>
            <Position>
              <LatitudeDegrees>40.75187201611697673797607421875</LatitudeDegrees>
              <LongitudeDegrees>-4.07389302738010883331298828125</LongitudeDegrees>
            </Position>
            <AltitudeMeters>1262</AltitudeMeters>
            <DistanceMeters>2600.542578976</DistanceMeters>
          </Trackpoint>
          <Trackpoint>
            <Time>2018-12-30T09:32:31.000Z</Time>
            <Position>
              <LatitudeDegrees>40.751883499324321746826171875</LatitudeDegrees>
              <LongitudeDegrees>-4.0738780237734317779541015625</LongitudeDegrees>
            </Position>
            <AltitudeMeters>1262</AltitudeMeters>
            <DistanceMeters>2602.3405687888</DistanceMeters>
          </Trackpoint>
          <Trackpoint>
            <Time>2018-12-30T09:32:32.000Z</Time>
            <Position>
              <LatitudeDegrees>40.75189263559877872467041015625</LatitudeDegrees>
              <LongitudeDegrees>-4.073867462575435638427734375</LongitudeDegrees>
            </Position>
            <AltitudeMeters>1262</AltitudeMeters>
            <DistanceMeters>2603.6944910606</DistanceMeters>
          </Trackpoint>
          <Trackpoint>
            <Time>2018-12-30T09:32:33.000Z</Time>
            <Position>
              <LatitudeDegrees>40.75189112685620784759521484375</LatitudeDegrees>
              <LongitudeDegrees>-4.07385564409196376800537109375</LongitudeDegrees>
            </Position>
            <AltitudeMeters>1262</AltitudeMeters>
            <DistanceMeters>2604.709098726</DistanceMeters>
          </Trackpoint>
          <Trackpoint>
            <Time>2018-12-30T09:32:34.000Z</Time>
            <Position>
              <LatitudeDegrees>40.75188827700912952423095703125</LatitudeDegrees>
              <LongitudeDegrees>-4.07384910620748996734619140625</LongitudeDegrees>
            </Position>
            <AltitudeMeters>1262</AltitudeMeters>
            <DistanceMeters>2605.3536012601</DistanceMeters>
          </Trackpoint>
          <Trackpoint>
            <Time>2018-12-30T09:32:35.000Z</Time>
            <Position>
              <LatitudeDegrees>40.75188660062849521636962890625</LatitudeDegrees>
              <LongitudeDegrees>-4.073839299380779266357421875</LongitudeDegrees>
            </Position>
            <AltitudeMeters>1261.800048828125</AltitudeMeters>
            <DistanceMeters>2606.2035460321</DistanceMeters>
          </Trackpoint>
          <Trackpoint>
            <Time>2018-12-30T09:32:36.000Z</Time>
            <Position>
              <LatitudeDegrees>40.75189054012298583984375</LatitudeDegrees>
              <LongitudeDegrees>-4.07383921556174755096435546875</LongitudeDegrees>
            </Position>
            <AltitudeMeters>1261.800048828125</AltitudeMeters>
            <DistanceMeters>2606.6492608308</DistanceMeters>
          </Trackpoint>
          <Trackpoint>
            <Time>2018-12-30T09:32:37.000Z</Time>
            <Position>
              <LatitudeDegrees>40.751899592578411102294921875</LatitudeDegrees>
              <LongitudeDegrees>-4.07383938319981098175048828125</LongitudeDegrees>
            </Position>
            <AltitudeMeters>1261.800048828125</AltitudeMeters>
            <DistanceMeters>2607.6594086606</DistanceMeters>
          </Trackpoint>
          <Trackpoint>
            <Time>2018-12-30T09:32:38.000Z</Time>
            <Position>
              <LatitudeDegrees>40.75191359035670757293701171875</LatitudeDegrees>
              <LongitudeDegrees>-4.07383720390498638153076171875</LongitudeDegrees>
            </Position>
            <AltitudeMeters>1261.800048828125</AltitudeMeters>
            <DistanceMeters>2609.226629383</DistanceMeters>
          </Trackpoint>
          <Trackpoint>
            <Time>2018-12-30T09:32:39.000Z</Time>
            <Position>
              <LatitudeDegrees>40.7519218884408473968505859375</LatitudeDegrees>
              <LongitudeDegrees>-4.07382463105022907257080078125</LongitudeDegrees>
            </Position>
            <AltitudeMeters>1262</AltitudeMeters>
            <DistanceMeters>2610.6361033337</DistanceMeters>
          </Trackpoint>
          <Trackpoint>
            <Time>2018-12-30T09:32:40.000Z</Time>
            <Position>
              <LatitudeDegrees>40.751931779086589813232421875</LatitudeDegrees>
              <LongitudeDegrees>-4.07381474040448665618896484375</LongitudeDegrees>
            </Position>
            <AltitudeMeters>1262</AltitudeMeters>
            <DistanceMeters>2612.0197131798</DistanceMeters>
          </Trackpoint>
          <Trackpoint>
            <Time>2018-12-30T09:32:41.000Z</Time>
            <Position>
              <LatitudeDegrees>40.75193840079009532928466796875</LatitudeDegrees>
              <LongitudeDegrees>-4.07380384393036365509033203125</LongitudeDegrees>
            </Position>
            <AltitudeMeters>1262</AltitudeMeters>
            <DistanceMeters>2613.1951287216</DistanceMeters>
          </Trackpoint>
          <Trackpoint>
            <Time>2018-12-30T09:32:42.000Z</Time>
            <Position>
              <LatitudeDegrees>40.7519487105309963226318359375</LatitudeDegrees>
              <LongitudeDegrees>-4.07379613257944583892822265625</LongitudeDegrees>
            </Position>
            <AltitudeMeters>1262</AltitudeMeters>
            <DistanceMeters>2614.5152820285</DistanceMeters>
          </Trackpoint>
          <Trackpoint>
            <Time>2018-12-30T09:32:43.000Z</Time>
            <Position>
              <LatitudeDegrees>40.751953907310962677001953125</LatitudeDegrees>
              <LongitudeDegrees>-4.07378205098211765289306640625</LongitudeDegrees>
            </Position>
            <AltitudeMeters>1262.199951171875</AltitudeMeters>
            <DistanceMeters>2615.8320108074</DistanceMeters>
          </Trackpoint>
          <Trackpoint>
            <Time>2018-12-30T09:32:44.000Z</Time>
            <Position>
              <LatitudeDegrees>40.7519557513296604156494140625</LatitudeDegrees>
              <LongitudeDegrees>-4.0737697295844554901123046875</LongitudeDegrees>
            </Position>
            <AltitudeMeters>1262.199951171875</AltitudeMeters>
            <DistanceMeters>2616.8859080522</DistanceMeters>
          </Trackpoint>
          <Trackpoint>
            <Time>2018-12-30T09:32:45.000Z</Time>
            <Position>
              <LatitudeDegrees>40.751963295042514801025390625</LatitudeDegrees>
              <LongitudeDegrees>-4.07376042567193508148193359375</LongitudeDegrees>
            </Position>
            <AltitudeMeters>1262.199951171875</AltitudeMeters>
            <DistanceMeters>2618.0301812208</DistanceMeters>
          </Trackpoint>
          <Trackpoint>
            <Time>2018-12-30T09:32:46.000Z</Time>
            <Position>
              <LatitudeDegrees>40.75197167694568634033203125</LatitudeDegrees>
              <LongitudeDegrees>-4.073752127587795257568359375</LongitudeDegrees>
            </Position>
            <AltitudeMeters>1262.4000244140625</AltitudeMeters>
            <DistanceMeters>2619.1940160315</DistanceMeters>
          </Trackpoint>
          <Trackpoint>
            <Time>2018-12-30T09:32:47.000Z</Time>
            <Position>
              <LatitudeDegrees>40.7519842498004436492919921875</LatitudeDegrees>
              <LongitudeDegrees>-4.073742069303989410400390625</LongitudeDegrees>
            </Position>
            <AltitudeMeters>1262.4000244140625</AltitudeMeters>
            <DistanceMeters>2620.8289174437</DistanceMeters>
          </Trackpoint>
          <Trackpoint>
            <Time>2018-12-30T09:32:48.000Z</Time>
            <Position>
              <LatitudeDegrees>40.75200109742581844329833984375</LatitudeDegrees>
              <LongitudeDegrees>-4.07373192720115184783935546875</LongitudeDegrees>
            </Position>
            <AltitudeMeters>1262.4000244140625</AltitudeMeters>
            <DistanceMeters>2622.8890475193</DistanceMeters>
          </Trackpoint>
          <Trackpoint>
            <Time>2018-12-30T09:32:49.000Z</Time>
            <Position>
              <LatitudeDegrees>40.75201685540378093719482421875</LatitudeDegrees>
              <LongitudeDegrees>-4.07372253946959972381591796875</LongitudeDegrees>
            </Position>
            <AltitudeMeters>1262.199951171875</AltitudeMeters>
            <DistanceMeters>2624.8131918336</DistanceMeters>
          </Trackpoint>
          <Trackpoint>
            <Time>2018-12-30T09:32:50.000Z</Time>
            <Position>
              <LatitudeDegrees>40.75202775187790393829345703125</LatitudeDegrees>
              <LongitudeDegrees>-4.07371616922318935394287109375</LongitudeDegrees>
            </Position>
            <AltitudeMeters>1262.199951171875</AltitudeMeters>
            <DistanceMeters>2626.1401676836</DistanceMeters>
          </Trackpoint>
          <Trackpoint>
            <Time>2018-12-30T09:32:51.000Z</Time>
            <Position>
              <LatitudeDegrees>40.752047784626483917236328125</LatitudeDegrees>
              <LongitudeDegrees>-4.073707200586795806884765625</LongitudeDegrees>
            </Position>
            <AltitudeMeters>1262.199951171875</AltitudeMeters>
            <DistanceMeters>2628.4948368613</DistanceMeters>
          </Trackpoint>
          <Trackpoint>
            <Time>2018-12-30T09:32:52.000Z</Time>
            <Position>
              <LatitudeDegrees>40.7520647160708904266357421875</LatitudeDegrees>
              <LongitudeDegrees>-4.07369739376008510589599609375</LongitudeDegrees>
            </Position>
            <AltitudeMeters>1262.199951171875</AltitudeMeters>
            <DistanceMeters>2630.554966937</DistanceMeters>
          </Trackpoint>
          <Trackpoint>
            <Time>2018-12-30T09:32:53.000Z</Time>
            <Position>
              <LatitudeDegrees>40.75208357535302639007568359375</LatitudeDegrees>
              <LongitudeDegrees>-4.07369202934205532073974609375</LongitudeDegrees>
            </Position>
            <AltitudeMeters>1262.199951171875</AltitudeMeters>
            <DistanceMeters>2632.7009722926</DistanceMeters>
          </Trackpoint>
          <Trackpoint>
            <Time>2018-12-30T09:32:54.000Z</Time>
            <Position>
              <LatitudeDegrees>40.75210000388324260711669921875</LatitudeDegrees>
              <LongitudeDegrees>-4.07368339598178863525390625</LongitudeDegrees>
            </Position>
            <AltitudeMeters>1262.4000244140625</AltitudeMeters>
            <DistanceMeters>2634.6714881822</DistanceMeters>
          </Trackpoint>
          <Trackpoint>
            <Time>2018-12-30T09:32:55.000Z</Time>
            <Position>
              <LatitudeDegrees>40.7521123252809047698974609375</LatitudeDegrees>
              <LongitudeDegrees>-4.07367878593504428863525390625</LongitudeDegrees>
            </Position>
            <AltitudeMeters>1262.4000244140625</AltitudeMeters>
            <DistanceMeters>2636.1000529431</DistanceMeters>
          </Trackpoint>
          <Trackpoint>
            <Time>2018-12-30T09:32:56.000Z</Time>
            <Position>
              <LatitudeDegrees>40.75213135220110416412353515625</LatitudeDegrees>
              <LongitudeDegrees>-4.07366503961384296417236328125</LongitudeDegrees>
            </Position>
            <AltitudeMeters>1262.5999755859375</AltitudeMeters>
            <DistanceMeters>2638.5153022849</DistanceMeters>
          </Trackpoint>
          <Trackpoint>
            <Time>2018-12-30T09:32:57.000Z</Time>
            <Position>
              <LatitudeDegrees>40.75213135220110416412353515625</LatitudeDegrees>
              <LongitudeDegrees>-4.07366503961384296417236328125</LongitudeDegrees>
            </Position>
            <AltitudeMeters>1262.5999755859375</AltitudeMeters>
            <DistanceMeters>2638.5153022849</DistanceMeters>
          </Trackpoint>
          <Trackpoint>
            <Time>2018-12-30T09:32:58.000Z</Time>
            <Position>
              <LatitudeDegrees>40.75214409269392490386962890625</LatitudeDegrees>
              <LongitudeDegrees>-4.073656909167766571044921875</LongitudeDegrees>
            </Position>
            <AltitudeMeters>1262.5999755859375</AltitudeMeters>
            <DistanceMeters>2640.091142068</DistanceMeters>
          </Trackpoint>
          <Trackpoint>
            <Time>2018-12-30T09:32:59.000Z</Time>
            <Position>
              <LatitudeDegrees>40.75215331278741359710693359375</LatitudeDegrees>
              <LongitudeDegrees>-4.07364643178880214691162109375</LongitudeDegrees>
            </Position>
            <AltitudeMeters>1262.4000244140625</AltitudeMeters>
            <DistanceMeters>2641.448395027</DistanceMeters>
          </Trackpoint>
          <Trackpoint>
            <Time>2018-12-30T09:33:00.000Z</Time>
            <Position>
              <LatitudeDegrees>40.75215850956737995147705078125</LatitudeDegrees>
              <LongitudeDegrees>-4.073633439838886260986328125</LongitudeDegrees>
            </Position>
            <AltitudeMeters>1262.4000244140625</AltitudeMeters>
            <DistanceMeters>2642.6946587023</DistanceMeters>
          </Trackpoint>
          <Trackpoint>
            <Time>2018-12-30T09:33:01.000Z</Time>
            <Position>
              <LatitudeDegrees>40.75216705910861492156982421875</LatitudeDegrees>
              <LongitudeDegrees>-4.073624052107334136962890625</LongitudeDegrees>
            </Position>
            <AltitudeMeters>1262.4000244140625</AltitudeMeters>
            <DistanceMeters>2643.933655472</DistanceMeters>
          </Trackpoint>
          <Trackpoint>
            <Time>2018-12-30T09:33:02.000Z</Time>
            <Position>
              <LatitudeDegrees>40.75217745266854763031005859375</LatitudeDegrees>
              <LongitudeDegrees>-4.07362195663154125213623046875</LongitudeDegrees>
            </Position>
            <AltitudeMeters>1262.5999755859375</AltitudeMeters>
            <DistanceMeters>2645.0974902827</DistanceMeters>
          </Trackpoint>
          <Trackpoint>
            <Time>2018-12-30T09:33:03.000Z</Time>
            <Position>
              <LatitudeDegrees>40.75218767859041690826416015625</LatitudeDegrees>
              <LongitudeDegrees>-4.07362597994506359100341796875</LongitudeDegrees>
            </Position>
            <AltitudeMeters>1262.800048828125</AltitudeMeters>
            <DistanceMeters>2646.2843735648</DistanceMeters>
          </Trackpoint>
          <Trackpoint>
            <Time>2018-12-30T09:33:04.000Z</Time>
            <Position>
              <LatitudeDegrees>40.752200670540332794189453125</LatitudeDegrees>
              <LongitudeDegrees>-4.0736252255737781524658203125</LongitudeDegrees>
            </Position>
            <AltitudeMeters>1263</AltitudeMeters>
            <DistanceMeters>2647.7348934066</DistanceMeters>
          </Trackpoint>
          <Trackpoint>
            <Time>2018-12-30T09:33:05.000Z</Time>
            <Position>
              <LatitudeDegrees>40.75221148319542407989501953125</LatitudeDegrees>
              <LongitudeDegrees>-4.07361659221351146697998046875</LongitudeDegrees>
            </Position>
            <AltitudeMeters>1263</AltitudeMeters>
            <DistanceMeters>2649.1411603589</DistanceMeters>
          </Trackpoint>
          <Trackpoint>
            <Time>2018-12-30T09:33:06.000Z</Time>
            <Position>
              <LatitudeDegrees>40.7522196136415004730224609375</LatitudeDegrees>
              <LongitudeDegrees>-4.07361005432903766632080078125</LongitudeDegrees>
            </Position>
            <AltitudeMeters>1263</AltitudeMeters>
            <DistanceMeters>2650.1993330665</DistanceMeters>
          </Trackpoint>
          <Trackpoint>
            <Time>2018-12-30T09:33:07.000Z</Time>
            <Position>
              <LatitudeDegrees>40.75222405605018138885498046875</LatitudeDegrees>
              <LongitudeDegrees>-4.073601253330707550048828125</LongitudeDegrees>
            </Position>
            <AltitudeMeters>1263</AltitudeMeters>
            <DistanceMeters>2651.0907626639</DistanceMeters>
          </Trackpoint>
          <Trackpoint>
            <Time>2018-12-30T09:33:08.000Z</Time>
            <Position>
              <LatitudeDegrees>40.752227492630481719970703125</LatitudeDegrees>
              <LongitudeDegrees>-4.0735876746475696563720703125</LongitudeDegrees>
            </Position>
            <AltitudeMeters>1263</AltitudeMeters>
            <DistanceMeters>2652.3002552781</DistanceMeters>
          </Trackpoint>
          <Trackpoint>
            <Time>2018-12-30T09:33:09.000Z</Time>
            <Position>
              <LatitudeDegrees>40.7522383891046047210693359375</LatitudeDegrees>
              <LongitudeDegrees>-4.0735769458115100860595703125</LongitudeDegrees>
            </Position>
            <AltitudeMeters>1263</AltitudeMeters>
            <DistanceMeters>2653.8117476996</DistanceMeters>
          </Trackpoint>
          <Trackpoint>
            <Time>2018-12-30T09:33:10.000Z</Time>
            <Position>
              <LatitudeDegrees>40.75224928557872772216796875</LatitudeDegrees>
              <LongitudeDegrees>-4.0735672228038311004638671875</LongitudeDegrees>
            </Position>
            <AltitudeMeters>1263</AltitudeMeters>
            <DistanceMeters>2655.2715757857</DistanceMeters>
          </Trackpoint>
          <Trackpoint>
            <Time>2018-12-30T09:33:11.000Z</Time>
            <Position>
              <LatitudeDegrees>40.75225926004350185394287109375</LatitudeDegrees>
              <LongitudeDegrees>-4.0735554881393909454345703125</LongitudeDegrees>
            </Position>
            <AltitudeMeters>1262.800048828125</AltitudeMeters>
            <DistanceMeters>2656.7589791367</DistanceMeters>
          </Trackpoint>
          <Trackpoint>
            <Time>2018-12-30T09:33:12.000Z</Time>
            <Position>
              <LatitudeDegrees>40.752276442945003509521484375</LatitudeDegrees>
              <LongitudeDegrees>-4.073545597493648529052734375</LongitudeDegrees>
            </Position>
            <AltitudeMeters>1262.800048828125</AltitudeMeters>
            <DistanceMeters>2658.8474060381</DistanceMeters>
          </Trackpoint>
          <Trackpoint>
            <Time>2018-12-30T09:33:13.000Z</Time>
            <Position>
              <LatitudeDegrees>40.7522915303707122802734375</LatitudeDegrees>
              <LongitudeDegrees>-4.073536209762096405029296875</LongitudeDegrees>
            </Position>
            <AltitudeMeters>1262.800048828125</AltitudeMeters>
            <DistanceMeters>2660.7046860928</DistanceMeters>
          </Trackpoint>
          <Trackpoint>
            <Time>2018-12-30T09:33:14.000Z</Time>
            <Position>
              <LatitudeDegrees>40.752307958900928497314453125</LatitudeDegrees>
              <LongitudeDegrees>-4.07353059388697147369384765625</LongitudeDegrees>
            </Position>
            <AltitudeMeters>1262.800048828125</AltitudeMeters>
            <DistanceMeters>2662.5956938326</DistanceMeters>
          </Trackpoint>
          <Trackpoint>
            <Time>2018-12-30T09:33:15.000Z</Time>
            <Position>
              <LatitudeDegrees>40.75231877155601978302001953125</LatitudeDegrees>
              <LongitudeDegrees>-4.07351986505091190338134765625</LongitudeDegrees>
            </Position>
            <AltitudeMeters>1262.800048828125</AltitudeMeters>
            <DistanceMeters>2664.1041961574</DistanceMeters>
          </Trackpoint>
          <Trackpoint>
            <Time>2018-12-30T09:33:16.000Z</Time>
            <Position>
              <LatitudeDegrees>40.7523315958678722381591796875</LatitudeDegrees>
              <LongitudeDegrees>-4.073513410985469818115234375</LongitudeDegrees>
            </Position>
            <AltitudeMeters>1262.800048828125</AltitudeMeters>
            <DistanceMeters>2665.6305512021</DistanceMeters>
          </Trackpoint>
          <Trackpoint>
            <Time>2018-12-30T09:33:17.000Z</Time>
            <Position>
              <LatitudeDegrees>40.75234643183648586273193359375</LatitudeDegrees>
              <LongitudeDegrees>-4.0735119022428989410400390625</LongitudeDegrees>
            </Position>
            <AltitudeMeters>1263</AltitudeMeters>
            <DistanceMeters>2667.2873985816</DistanceMeters>
          </Trackpoint>
          <Trackpoint>
            <Time>2018-12-30T09:33:18.000Z</Time>
            <Position>
              <LatitudeDegrees>40.75235833413898944854736328125</LatitudeDegrees>
              <LongitudeDegrees>-4.07351014204323291778564453125</LongitudeDegrees>
            </Position>
            <AltitudeMeters>1263</AltitudeMeters>
            <DistanceMeters>2668.6177725828</DistanceMeters>
          </Trackpoint>
          <Trackpoint>
            <Time>2018-12-30T09:33:19.000Z</Time>
            <Position>
              <LatitudeDegrees>40.7523666322231292724609375</LatitudeDegrees>
              <LongitudeDegrees>-4.0735048614442348480224609375</LongitudeDegrees>
            </Position>
            <AltitudeMeters>1263</AltitudeMeters>
            <DistanceMeters>2669.6500269218</DistanceMeters>
          </Trackpoint>
          <Trackpoint>
            <Time>2018-12-30T09:33:20.000Z</Time>
            <Position>
              <LatitudeDegrees>40.75236864387989044189453125</LatitudeDegrees>
              <LongitudeDegrees>-4.07349203713238239288330078125</LongitudeDegrees>
            </Position>
            <AltitudeMeters>1263</AltitudeMeters>
            <DistanceMeters>2670.7582193222</DistanceMeters>
          </Trackpoint>
          <Trackpoint>
            <Time>2018-12-30T09:33:21.000Z</Time>
            <Position>
              <LatitudeDegrees>40.7523664645850658416748046875</LatitudeDegrees>
              <LongitudeDegrees>-4.0734787099063396453857421875</LongitudeDegrees>
            </Position>
            <AltitudeMeters>1263.199951171875</AltitudeMeters>
            <DistanceMeters>2671.9142691973</DistanceMeters>
          </Trackpoint>
          <Trackpoint>
            <Time>2018-12-30T09:33:22.000Z</Time>
            <Position>
              <LatitudeDegrees>40.75237266719341278076171875</LatitudeDegrees>
              <LongitudeDegrees>-4.0734709985554218292236328125</LongitudeDegrees>
            </Position>
            <AltitudeMeters>1263.199951171875</AltitudeMeters>
            <DistanceMeters>2672.864536341</DistanceMeters>
          </Trackpoint>
          <Trackpoint>
            <Time>2018-12-30T09:33:23.000Z</Time>
            <Position>
              <LatitudeDegrees>40.75238096527755260467529296875</LatitudeDegrees>
              <LongitudeDegrees>-4.07346052117645740509033203125</LongitudeDegrees>
            </Position>
            <AltitudeMeters>1263.4000244140625</AltitudeMeters>
            <DistanceMeters>2674.146516806</DistanceMeters>
          </Trackpoint>
          <Trackpoint>
            <Time>2018-12-30T09:33:24.000Z</Time>
            <Position>
              <LatitudeDegrees>40.75239957310259342193603515625</LatitudeDegrees>
              <LongitudeDegrees>-4.07345213927328586578369140625</LongitudeDegrees>
            </Position>
            <AltitudeMeters>1263.5999755859375</AltitudeMeters>
            <DistanceMeters>2676.3341960593</DistanceMeters>
          </Trackpoint>
          <Trackpoint>
            <Time>2018-12-30T09:33:25.000Z</Time>
            <Position>
              <LatitudeDegrees>40.7524144090712070465087890625</LatitudeDegrees>
              <LongitudeDegrees>-4.07344677485525608062744140625</LongitudeDegrees>
            </Position>
            <AltitudeMeters>1263.5999755859375</AltitudeMeters>
            <DistanceMeters>2678.044676918</DistanceMeters>
          </Trackpoint>
          <Trackpoint>
            <Time>2018-12-30T09:33:26.000Z</Time>
            <Position>
              <LatitudeDegrees>40.75242639519274234771728515625</LatitudeDegrees>
              <LongitudeDegrees>-4.0734404884278774261474609375</LongitudeDegrees>
            </Position>
            <AltitudeMeters>1263.800048828125</AltitudeMeters>
            <DistanceMeters>2679.4795488388</DistanceMeters>
          </Trackpoint>
          <Trackpoint>
            <Time>2018-12-30T09:33:27.000Z</Time>
            <Position>
              <LatitudeDegrees>40.75243645347654819488525390625</LatitudeDegrees>
              <LongitudeDegrees>-4.07343118451535701751708984375</LongitudeDegrees>
            </Position>
            <AltitudeMeters>1263.800048828125</AltitudeMeters>
            <DistanceMeters>2680.8434387711</DistanceMeters>
          </Trackpoint>
          <Trackpoint>
            <Time>2018-12-30T09:33:28.000Z</Time>
            <Position>
              <LatitudeDegrees>40.75244902633130550384521484375</LatitudeDegrees>
              <LongitudeDegrees>-4.07342649064958095550537109375</LongitudeDegrees>
            </Position>
            <AltitudeMeters>1263.800048828125</AltitudeMeters>
            <DistanceMeters>2682.2970679838</DistanceMeters>
          </Trackpoint>
          <Trackpoint>
            <Time>2018-12-30T09:33:29.000Z</Time>
            <Position>
              <LatitudeDegrees>40.75246394611895084381103515625</LatitudeDegrees>
              <LongitudeDegrees>-4.07342565245926380157470703125</LongitudeDegrees>
            </Position>
            <AltitudeMeters>1263.800048828125</AltitudeMeters>
            <DistanceMeters>2683.9593565845</DistanceMeters>
          </Trackpoint>
          <Trackpoint>
            <Time>2018-12-30T09:33:30.000Z</Time>
            <Position>
              <LatitudeDegrees>40.7524794526398181915283203125</LatitudeDegrees>
              <LongitudeDegrees>-4.0734238922595977783203125</LongitudeDegrees>
            </Position>
            <AltitudeMeters>1263.800048828125</AltitudeMeters>
            <DistanceMeters>2685.6908257235</DistanceMeters>
          </Trackpoint>
          <Trackpoint>
            <Time>2018-12-30T09:33:31.000Z</Time>
            <Position>
              <LatitudeDegrees>40.75249143876135349273681640625</LatitudeDegrees>
              <LongitudeDegrees>-4.07342229969799518585205078125</LongitudeDegrees>
            </Position>
            <AltitudeMeters>1264</AltitudeMeters>
            <DistanceMeters>2687.0313424941</DistanceMeters>
          </Trackpoint>
          <Trackpoint>
            <Time>2018-12-30T09:33:32.000Z</Time>
            <Position>
              <LatitudeDegrees>40.75250132940709590911865234375</LatitudeDegrees>
              <LongitudeDegrees>-4.07342699356377124786376953125</LongitudeDegrees>
            </Position>
            <AltitudeMeters>1264</AltitudeMeters>
            <DistanceMeters>2688.2029105115</DistanceMeters>
          </Trackpoint>
          <Trackpoint>
            <Time>2018-12-30T09:33:33.000Z</Time>
            <Position>
              <LatitudeDegrees>40.75251373462378978729248046875</LatitudeDegrees>
              <LongitudeDegrees>-4.0734290890395641326904296875</LongitudeDegrees>
            </Position>
            <AltitudeMeters>1264.199951171875</AltitudeMeters>
            <DistanceMeters>2689.5930314987</DistanceMeters>
          </Trackpoint>
          <Trackpoint>
            <Time>2018-12-30T09:33:34.000Z</Time>
            <Position>
              <LatitudeDegrees>40.752525888383388519287109375</LatitudeDegrees>
              <LongitudeDegrees>-4.0734217129647731781005859375</LongitudeDegrees>
            </Position>
            <AltitudeMeters>1264.199951171875</AltitudeMeters>
            <DistanceMeters>2691.0834672757</DistanceMeters>
          </Trackpoint>
          <Trackpoint>
            <Time>2018-12-30T09:33:35.000Z</Time>
            <Position>
              <LatitudeDegrees>40.75253737159073352813720703125</LatitudeDegrees>
              <LongitudeDegrees>-4.07341274432837963104248046875</LongitudeDegrees>
            </Position>
            <AltitudeMeters>1264.4000244140625</AltitudeMeters>
            <DistanceMeters>2692.5678320059</DistanceMeters>
          </Trackpoint>
          <Trackpoint>
            <Time>2018-12-30T09:33:36.000Z</Time>
            <Position>
              <LatitudeDegrees>40.75254969298839569091796875</LatitudeDegrees>
              <LongitudeDegrees>-4.07340067438781261444091796875</LongitudeDegrees>
            </Position>
            <AltitudeMeters>1264.4000244140625</AltitudeMeters>
            <DistanceMeters>2694.2756711937</DistanceMeters>
          </Trackpoint>
          <Trackpoint>
            <Time>2018-12-30T09:33:37.000Z</Time>
            <Position>
              <LatitudeDegrees>40.7525639422237873077392578125</LatitudeDegrees>
              <LongitudeDegrees>-4.07339246012270450592041015625</LongitudeDegrees>
            </Position>
            <AltitudeMeters>1264.4000244140625</AltitudeMeters>
            <DistanceMeters>2696.0071403327</DistanceMeters>
          </Trackpoint>
          <Trackpoint>
            <Time>2018-12-30T09:33:38.000Z</Time>
            <Position>
              <LatitudeDegrees>40.752576850354671478271484375</LatitudeDegrees>
              <LongitudeDegrees>-4.07338701188564300537109375</LongitudeDegrees>
            </Position>
            <AltitudeMeters>1264.4000244140625</AltitudeMeters>
            <DistanceMeters>2697.5186327543</DistanceMeters>
          </Trackpoint>
          <Trackpoint>
            <Time>2018-12-30T09:33:39.000Z</Time>
            <Position>
              <LatitudeDegrees>40.75259168632328510284423828125</LatitudeDegrees>
              <LongitudeDegrees>-4.07338156364858150482177734375</LongitudeDegrees>
            </Position>
            <AltitudeMeters>1264.4000244140625</AltitudeMeters>
            <DistanceMeters>2699.2343847529</DistanceMeters>
          </Trackpoint>
          <Trackpoint>
            <Time>2018-12-30T09:33:40.000Z</Time>
            <Position>
              <LatitudeDegrees>40.752603001892566680908203125</LatitudeDegrees>
              <LongitudeDegrees>-4.073374271392822265625</LongitudeDegrees>
            </Position>
            <AltitudeMeters>1264.4000244140625</AltitudeMeters>
            <DistanceMeters>2700.6374373765</DistanceMeters>
          </Trackpoint>
          <Trackpoint>
            <Time>2018-12-30T09:33:41.000Z</Time>
            <Position>
              <LatitudeDegrees>40.75261532329022884368896484375</LatitudeDegrees>
              <LongitudeDegrees>-4.07337150536477565765380859375</LongitudeDegrees>
            </Position>
            <AltitudeMeters>1264.4000244140625</AltitudeMeters>
            <DistanceMeters>2702.0275583637</DistanceMeters>
          </Trackpoint>
          <Trackpoint>
            <Time>2018-12-30T09:33:42.000Z</Time>
            <Position>
              <LatitudeDegrees>40.75262823142111301422119140625</LatitudeDegrees>
              <LongitudeDegrees>-4.07336966134607791900634765625</LongitudeDegrees>
            </Position>
            <AltitudeMeters>1264.5999755859375</AltitudeMeters>
            <DistanceMeters>2703.474962155</DistanceMeters>
          </Trackpoint>
          <Trackpoint>
            <Time>2018-12-30T09:33:43.000Z</Time>
            <Position>
              <LatitudeDegrees>40.7526434026658535003662109375</LatitudeDegrees>
              <LongitudeDegrees>-4.0733667276799678802490234375</LongitudeDegrees>
            </Position>
            <AltitudeMeters>1264.5999755859375</AltitudeMeters>
            <DistanceMeters>2705.1801555795</DistanceMeters>
          </Trackpoint>
          <Trackpoint>
            <Time>2018-12-30T09:33:44.000Z</Time>
            <Position>
              <LatitudeDegrees>40.75265773572027683258056640625</LatitudeDegrees>
              <LongitudeDegrees>-4.0733650512993335723876953125</LongitudeDegrees>
            </Position>
            <AltitudeMeters>1264.5999755859375</AltitudeMeters>
            <DistanceMeters>2706.781574235</DistanceMeters>
          </Trackpoint>
          <Trackpoint>
            <Time>2018-12-30T09:33:45.000Z</Time>
            <Position>
              <LatitudeDegrees>40.7526692189276218414306640625</LatitudeDegrees>
              <LongitudeDegrees>-4.0733616985380649566650390625</LongitudeDegrees>
            </Position>
            <AltitudeMeters>1264.5999755859375</AltitudeMeters>
            <DistanceMeters>2708.0914270986</DistanceMeters>
          </Trackpoint>
          <Trackpoint>
            <Time>2018-12-30T09:33:46.000Z</Time>
            <Position>
              <LatitudeDegrees>40.75267843902111053466796875</LatitudeDegrees>
              <LongitudeDegrees>-4.07335507683455944061279296875</LongitudeDegrees>
            </Position>
            <AltitudeMeters>1264.5999755859375</AltitudeMeters>
            <DistanceMeters>2709.2552619093</DistanceMeters>
          </Trackpoint>
          <Trackpoint>
            <Time>2018-12-30T09:33:47.000Z</Time>
            <Position>
              <LatitudeDegrees>40.75268573127686977386474609375</LatitudeDegrees>
              <LongitudeDegrees>-4.0733541548252105712890625</LongitudeDegrees>
            </Position>
            <AltitudeMeters>1264.4000244140625</AltitudeMeters>
            <DistanceMeters>2710.0727126153</DistanceMeters>
          </Trackpoint>
          <Trackpoint>
            <Time>2018-12-30T09:33:48.000Z</Time>
            <Position>
              <LatitudeDegrees>40.75269679538905620574951171875</LatitudeDegrees>
              <LongitudeDegrees>-4.0733523108065128326416015625</LongitudeDegrees>
            </Position>
            <AltitudeMeters>1264.4000244140625</AltitudeMeters>
            <DistanceMeters>2711.3117093851</DistanceMeters>
          </Trackpoint>
          <Trackpoint>
            <Time>2018-12-30T09:33:49.000Z</Time>
            <Position>
              <LatitudeDegrees>40.75270685367286205291748046875</LatitudeDegrees>
              <LongitudeDegrees>-4.073349125683307647705078125</LongitudeDegrees>
            </Position>
            <AltitudeMeters>1264.4000244140625</AltitudeMeters>
            <DistanceMeters>2712.4677592602</DistanceMeters>
          </Trackpoint>
          <Trackpoint>
            <Time>2018-12-30T09:33:50.000Z</Time>
            <Position>
              <LatitudeDegrees>40.75272713787853717803955078125</LatitudeDegrees>
              <LongitudeDegrees>-4.07334820367395877838134765625</LongitudeDegrees>
            </Position>
            <AltitudeMeters>1264.4000244140625</AltitudeMeters>
            <DistanceMeters>2714.7285164934</DistanceMeters>
          </Trackpoint>
          <Trackpoint>
            <Time>2018-12-30T09:33:51.000Z</Time>
            <Position>
              <LatitudeDegrees>40.7527516968548297882080078125</LatitudeDegrees>
              <LongitudeDegrees>-4.0733583457767963409423828125</LongitudeDegrees>
            </Position>
            <AltitudeMeters>1264.199951171875</AltitudeMeters>
            <DistanceMeters>2717.5919601214</DistanceMeters>
          </Trackpoint>
          <Trackpoint>
            <Time>2018-12-30T09:33:52.000Z</Time>
            <Position>
              <LatitudeDegrees>40.75277055613696575164794921875</LatitudeDegrees>
              <LongitudeDegrees>-4.07335826195776462554931640625</LongitudeDegrees>
            </Position>
            <AltitudeMeters>1264.4000244140625</AltitudeMeters>
            <DistanceMeters>2719.6911688544</DistanceMeters>
          </Trackpoint>
          <Trackpoint>
            <Time>2018-12-30T09:33:53.000Z</Time>
            <Position>
              <LatitudeDegrees>40.7527939416468143463134765625</LatitudeDegrees>
              <LongitudeDegrees>-4.0733593516051769256591796875</LongitudeDegrees>
            </Position>
            <AltitudeMeters>1265</AltitudeMeters>
            <DistanceMeters>2722.2953169703</DistanceMeters>
          </Trackpoint>
          <Trackpoint>
            <Time>2018-12-30T09:33:54.000Z</Time>
            <Position>
              <LatitudeDegrees>40.7528091967105865478515625</LatitudeDegrees>
              <LongitudeDegrees>-4.07336044125258922576904296875</LongitudeDegrees>
            </Position>
            <AltitudeMeters>1265.4000244140625</AltitudeMeters>
            <DistanceMeters>2723.99786052</DistanceMeters>
          </Trackpoint>
          <Trackpoint>
            <Time>2018-12-30T09:33:55.000Z</Time>
            <Position>
              <LatitudeDegrees>40.75283140875399112701416015625</LatitudeDegrees>
              <LongitudeDegrees>-4.07335616648197174072265625</LongitudeDegrees>
            </Position>
            <AltitudeMeters>1265.5999755859375</AltitudeMeters>
            <DistanceMeters>2726.494008101</DistanceMeters>
          </Trackpoint>
          <Trackpoint>
            <Time>2018-12-30T09:33:56.000Z</Time>
            <Position>
              <LatitudeDegrees>40.7528494298458099365234375</LatitudeDegrees>
              <LongitudeDegrees>-4.0733509697020053863525390625</LongitudeDegrees>
            </Position>
            <AltitudeMeters>1265.800048828125</AltitudeMeters>
            <DistanceMeters>2728.5453529337</DistanceMeters>
          </Trackpoint>
          <Trackpoint>
            <Time>2018-12-30T09:33:57.000Z</Time>
            <Position>
              <LatitudeDegrees>40.7528603263199329376220703125</LatitudeDegrees>
              <LongitudeDegrees>-4.07334635965526103973388671875</LongitudeDegrees>
            </Position>
            <AltitudeMeters>1266</AltitudeMeters>
            <DistanceMeters>2729.8202700918</DistanceMeters>
          </Trackpoint>
          <Trackpoint>
            <Time>2018-12-30T09:33:58.000Z</Time>
            <Position>
              <LatitudeDegrees>40.7528740726411342620849609375</LatitudeDegrees>
              <LongitudeDegrees>-4.0733486227691173553466796875</LongitudeDegrees>
            </Position>
            <AltitudeMeters>1266</AltitudeMeters>
            <DistanceMeters>2731.3613444264</DistanceMeters>
          </Trackpoint>
          <Trackpoint>
            <Time>2018-12-30T09:33:59.000Z</Time>
            <Position>
              <LatitudeDegrees>40.752890668809413909912109375</LatitudeDegrees>
              <LongitudeDegrees>-4.07334568910300731658935546875</LongitudeDegrees>
            </Position>
            <AltitudeMeters>1266</AltitudeMeters>
            <DistanceMeters>2733.2259032029</DistanceMeters>
          </Trackpoint>
          <Trackpoint>
            <Time>2018-12-30T09:34:00.000Z</Time>
            <Position>
              <LatitudeDegrees>40.752903409302234649658203125</LatitudeDegrees>
              <LongitudeDegrees>-4.07334543764591217041015625</LongitudeDegrees>
            </Position>
            <AltitudeMeters>1266</AltitudeMeters>
            <DistanceMeters>2734.6417693585</DistanceMeters>
          </Trackpoint>
          <Trackpoint>
            <Time>2018-12-30T09:34:01.000Z</Time>
            <Position>
              <LatitudeDegrees>40.75291187502443790435791015625</LatitudeDegrees>
              <LongitudeDegrees>-4.0733439289033412933349609375</LongitudeDegrees>
            </Position>
            <AltitudeMeters>1265.5999755859375</AltitudeMeters>
            <DistanceMeters>2735.5920365022</DistanceMeters>
          </Trackpoint>
          <Trackpoint>
            <Time>2018-12-30T09:34:02.000Z</Time>
            <Position>
              <LatitudeDegrees>40.7529236935079097747802734375</LatitudeDegrees>
              <LongitudeDegrees>-4.07334837131202220916748046875</LongitudeDegrees>
            </Position>
            <AltitudeMeters>1265.4000244140625</AltitudeMeters>
            <DistanceMeters>2736.9559264345</DistanceMeters>
          </Trackpoint>
          <Trackpoint>
            <Time>2018-12-30T09:34:03.000Z</Time>
            <Position>
              <LatitudeDegrees>40.7529391162097454071044921875</LatitudeDegrees>
              <LongitudeDegrees>-4.07334686256945133209228515625</LongitudeDegrees>
            </Position>
            <AltitudeMeters>1265.4000244140625</AltitudeMeters>
            <DistanceMeters>2738.6769334285</DistanceMeters>
          </Trackpoint>
          <Trackpoint>
            <Time>2018-12-30T09:34:04.000Z</Time>
            <Position>
              <LatitudeDegrees>40.75295462273061275482177734375</LatitudeDegrees>
              <LongitudeDegrees>-4.0733407437801361083984375</LongitudeDegrees>
            </Position>
            <AltitudeMeters>1265.4000244140625</AltitudeMeters>
            <DistanceMeters>2740.4799385644</DistanceMeters>
          </Trackpoint>
          <Trackpoint>
            <Time>2018-12-30T09:34:05.000Z</Time>
            <Position>
              <LatitudeDegrees>40.75296878814697265625</LatitudeDegrees>
              <LongitudeDegrees>-4.07333747483789920806884765625</LongitudeDegrees>
            </Position>
            <AltitudeMeters>1265.4000244140625</AltitudeMeters>
            <DistanceMeters>2742.0813572198</DistanceMeters>
          </Trackpoint>
          <Trackpoint>
            <Time>2018-12-30T09:34:06.000Z</Time>
            <Position>
              <LatitudeDegrees>40.7529867254197597503662109375</LatitudeDegrees>
              <LongitudeDegrees>-4.0733326971530914306640625</LongitudeDegrees>
            </Position>
            <AltitudeMeters>1265.4000244140625</AltitudeMeters>
            <DistanceMeters>2744.1194531853</DistanceMeters>
          </Trackpoint>
          <Trackpoint>
            <Time>2018-12-30T09:34:07.000Z</Time>
            <Position>
              <LatitudeDegrees>40.75300022028386592864990234375</LatitudeDegrees>
              <LongitudeDegrees>-4.07332825474441051483154296875</LongitudeDegrees>
            </Position>
            <AltitudeMeters>1265.4000244140625</AltitudeMeters>
            <DistanceMeters>2745.6663760203</DistanceMeters>
          </Trackpoint>
          <Trackpoint>
            <Time>2018-12-30T09:34:08.000Z</Time>
            <Position>
              <LatitudeDegrees>40.753012709319591522216796875</LatitudeDegrees>
              <LongitudeDegrees>-4.073323309421539306640625</LongitudeDegrees>
            </Position>
            <AltitudeMeters>1265.4000244140625</AltitudeMeters>
            <DistanceMeters>2747.120005233</DistanceMeters>
          </Trackpoint>
          <Trackpoint>
            <Time>2018-12-30T09:34:09.000Z</Time>
            <Position>
              <LatitudeDegrees>40.75302737765014171600341796875</LatitudeDegrees>
              <LongitudeDegrees>-4.0733184479176998138427734375</LongitudeDegrees>
            </Position>
            <AltitudeMeters>1265.5999755859375</AltitudeMeters>
            <DistanceMeters>2748.7985116674</DistanceMeters>
          </Trackpoint>
          <Trackpoint>
            <Time>2018-12-30T09:34:10.000Z</Time>
            <Position>
              <LatitudeDegrees>40.7530400343239307403564453125</LatitudeDegrees>
              <LongitudeDegrees>-4.073305539786815643310546875</LongitudeDegrees>
            </Position>
            <AltitudeMeters>1265.800048828125</AltitudeMeters>
            <DistanceMeters>2750.5813708622</DistanceMeters>
          </Trackpoint>
          <Trackpoint>
            <Time>2018-12-30T09:34:11.000Z</Time>
            <Position>
              <LatitudeDegrees>40.75304816477000713348388671875</LatitudeDegrees>
              <LongitudeDegrees>-4.07329372130334377288818359375</LongitudeDegrees>
            </Position>
            <AltitudeMeters>1265.800048828125</AltitudeMeters>
            <DistanceMeters>2751.9286070572</DistanceMeters>
          </Trackpoint>
          <Trackpoint>
            <Time>2018-12-30T09:34:12.000Z</Time>
            <Position>
              <LatitudeDegrees>40.75306308455765247344970703125</LatitudeDegrees>
              <LongitudeDegrees>-4.07329154200851917266845703125</LongitudeDegrees>
            </Position>
            <AltitudeMeters>1266</AltitudeMeters>
            <DistanceMeters>2753.5963191261</DistanceMeters>
          </Trackpoint>
          <Trackpoint>
            <Time>2018-12-30T09:34:13.000Z</Time>
            <Position>
              <LatitudeDegrees>40.75307146646082401275634765625</LatitudeDegrees>
              <LongitudeDegrees>-4.073287434875965118408203125</LongitudeDegrees>
            </Position>
            <AltitudeMeters>1266.199951171875</AltitudeMeters>
            <DistanceMeters>2754.5884271507</DistanceMeters>
          </Trackpoint>
          <Trackpoint>
            <Time>2018-12-30T09:34:14.000Z</Time>
            <Position>
              <LatitudeDegrees>40.7530879788100719451904296875</LatitudeDegrees>
              <LongitudeDegrees>-4.07329380512237548828125</LongitudeDegrees>
            </Position>
            <AltitudeMeters>1266.4000244140625</AltitudeMeters>
            <DistanceMeters>2756.5031623899</DistanceMeters>
          </Trackpoint>
          <Trackpoint>
            <Time>2018-12-30T09:34:15.000Z</Time>
            <Position>
              <LatitudeDegrees>40.75309929437935352325439453125</LatitudeDegrees>
              <LongitudeDegrees>-4.07328307628631591796875</LongitudeDegrees>
            </Position>
            <AltitudeMeters>1266.5999755859375</AltitudeMeters>
            <DistanceMeters>2758.0588167496</DistanceMeters>
          </Trackpoint>
          <Trackpoint>
            <Time>2018-12-30T09:34:16.000Z</Time>
            <Position>
              <LatitudeDegrees>40.75311387889087200164794921875</LatitudeDegrees>
              <LongitudeDegrees>-4.0732763707637786865234375</LongitudeDegrees>
            </Position>
            <AltitudeMeters>1267</AltitudeMeters>
            <DistanceMeters>2759.7798237437</DistanceMeters>
          </Trackpoint>
          <Trackpoint>
            <Time>2018-12-30T09:34:17.000Z</Time>
            <Position>
              <LatitudeDegrees>40.75313198380172252655029296875</LatitudeDegrees>
              <LongitudeDegrees>-4.0732718445360660552978515625</LongitudeDegrees>
            </Position>
            <AltitudeMeters>1267.199951171875</AltitudeMeters>
            <DistanceMeters>2761.8311685764</DistanceMeters>
          </Trackpoint>
          <Trackpoint>
            <Time>2018-12-30T09:34:18.000Z</Time>
            <Position>
              <LatitudeDegrees>40.75315109454095363616943359375</LatitudeDegrees>
              <LongitudeDegrees>-4.073273353278636932373046875</LongitudeDegrees>
            </Position>
            <AltitudeMeters>1267.4000244140625</AltitudeMeters>
            <DistanceMeters>2763.964513023</DistanceMeters>
          </Trackpoint>
          <Trackpoint>
            <Time>2018-12-30T09:34:19.000Z</Time>
            <Position>
              <LatitudeDegrees>40.753163583576679229736328125</LatitudeDegrees>
              <LongitudeDegrees>-4.0732644684612751007080078125</LongitudeDegrees>
            </Position>
            <AltitudeMeters>1267.4000244140625</AltitudeMeters>
            <DistanceMeters>2765.5432153694</DistanceMeters>
          </Trackpoint>
          <Trackpoint>
            <Time>2018-12-30T09:34:20.000Z</Time>
            <Position>
              <LatitudeDegrees>40.75317707844078540802001953125</LatitudeDegrees>
              <LongitudeDegrees>-4.073262624442577362060546875</LongitudeDegrees>
            </Position>
            <AltitudeMeters>1267.4000244140625</AltitudeMeters>
            <DistanceMeters>2767.0547077909</DistanceMeters>
          </Trackpoint>
          <Trackpoint>
            <Time>2018-12-30T09:34:21.000Z</Time>
            <Position>
              <LatitudeDegrees>40.75319099240005016326904296875</LatitudeDegrees>
              <LongitudeDegrees>-4.07325650565326213836669921875</LongitudeDegrees>
            </Position>
            <AltitudeMeters>1267</AltitudeMeters>
            <DistanceMeters>2768.6868452089</DistanceMeters>
          </Trackpoint>
          <Trackpoint>
            <Time>2018-12-30T09:34:22.000Z</Time>
            <Position>
              <LatitudeDegrees>40.7532019726932048797607421875</LatitudeDegrees>
              <LongitudeDegrees>-4.07325558364391326904296875</LongitudeDegrees>
            </Position>
            <AltitudeMeters>1266.800048828125</AltitudeMeters>
            <DistanceMeters>2769.9185321994</DistanceMeters>
          </Trackpoint>
          <Trackpoint>
            <Time>2018-12-30T09:34:23.000Z</Time>
            <Position>
              <LatitudeDegrees>40.75321345590054988861083984375</LatitudeDegrees>
              <LongitudeDegrees>-4.07325600273907184600830078125</LongitudeDegrees>
            </Position>
            <AltitudeMeters>1266.5999755859375</AltitudeMeters>
            <DistanceMeters>2771.1934493574</DistanceMeters>
          </Trackpoint>
          <Trackpoint>
            <Time>2018-12-30T09:34:24.000Z</Time>
            <Position>
              <LatitudeDegrees>40.7532311417162418365478515625</LatitudeDegrees>
              <LongitudeDegrees>-4.0732544101774692535400390625</LongitudeDegrees>
            </Position>
            <AltitudeMeters>1266.4000244140625</AltitudeMeters>
            <DistanceMeters>2773.1662552139</DistanceMeters>
          </Trackpoint>
          <Trackpoint>
            <Time>2018-12-30T09:34:25.000Z</Time>
            <Position>
              <LatitudeDegrees>40.75324346311390399932861328125</LatitudeDegrees>
              <LongitudeDegrees>-4.07325290143489837646484375</LongitudeDegrees>
            </Position>
            <AltitudeMeters>1266.4000244140625</AltitudeMeters>
            <DistanceMeters>2774.5465979719</DistanceMeters>
          </Trackpoint>
          <Trackpoint>
            <Time>2018-12-30T09:34:26.000Z</Time>
            <Position>
              <LatitudeDegrees>40.7532509230077266693115234375</LatitudeDegrees>
              <LongitudeDegrees>-4.07325147651135921478271484375</LongitudeDegrees>
            </Position>
            <AltitudeMeters>1266.5999755859375</AltitudeMeters>
            <DistanceMeters>2775.3912138841</DistanceMeters>
          </Trackpoint>
          <Trackpoint>
            <Time>2018-12-30T09:34:27.000Z</Time>
            <Position>
              <LatitudeDegrees>40.7532559521496295928955078125</LatitudeDegrees>
              <LongitudeDegrees>-4.07325097359716892242431640625</LongitudeDegrees>
            </Position>
            <AltitudeMeters>1266.5999755859375</AltitudeMeters>
            <DistanceMeters>2775.9613741703</DistanceMeters>
          </Trackpoint>
          <Trackpoint>
            <Time>2018-12-30T09:34:28.000Z</Time>
            <Position>
              <LatitudeDegrees>40.75326307676732540130615234375</LatitudeDegrees>
              <LongitudeDegrees>-4.0732527337968349456787109375</LongitudeDegrees>
            </Position>
            <AltitudeMeters>1266.800048828125</AltitudeMeters>
            <DistanceMeters>2776.7677025798</DistanceMeters>
          </Trackpoint>
          <Trackpoint>
            <Time>2018-12-30T09:34:29.000Z</Time>
            <Position>
              <LatitudeDegrees>40.75327497906982898712158203125</LatitudeDegrees>
              <LongitudeDegrees>-4.07325231470167636871337890625</LongitudeDegrees>
            </Position>
            <AltitudeMeters>1266.800048828125</AltitudeMeters>
            <DistanceMeters>2778.0912715543</DistanceMeters>
          </Trackpoint>
          <Trackpoint>
            <Time>2018-12-30T09:34:30.000Z</Time>
            <Position>
              <LatitudeDegrees>40.75329090468585491180419921875</LatitudeDegrees>
              <LongitudeDegrees>-4.07325030304491519927978515625</LongitudeDegrees>
            </Position>
            <AltitudeMeters>1266.800048828125</AltitudeMeters>
            <DistanceMeters>2779.8690585931</DistanceMeters>
          </Trackpoint>
          <Trackpoint>
            <Time>2018-12-30T09:34:31.000Z</Time>
            <Position>
              <LatitudeDegrees>40.75330548919737339019775390625</LatitudeDegrees>
              <LongitudeDegrees>-4.07324862666428089141845703125</LongitudeDegrees>
            </Position>
            <AltitudeMeters>1267</AltitudeMeters>
            <DistanceMeters>2781.4984273281</DistanceMeters>
          </Trackpoint>
          <Trackpoint>
            <Time>2018-12-30T09:34:32.000Z</Time>
            <Position>
              <LatitudeDegrees>40.75331957079470157623291015625</LatitudeDegrees>
              <LongitudeDegrees>-4.073245190083980560302734375</LongitudeDegrees>
            </Position>
            <AltitudeMeters>1267</AltitudeMeters>
            <DistanceMeters>2783.0885283954</DistanceMeters>
          </Trackpoint>
          <Trackpoint>
            <Time>2018-12-30T09:34:33.000Z</Time>
            <Position>
              <LatitudeDegrees>40.75333029963076114654541015625</LatitudeDegrees>
              <LongitudeDegrees>-4.07324292697012424468994140625</LongitudeDegrees>
            </Position>
            <AltitudeMeters>1267</AltitudeMeters>
            <DistanceMeters>2784.2980210096</DistanceMeters>
          </Trackpoint>
          <Trackpoint>
            <Time>2018-12-30T09:34:34.000Z</Time>
            <Position>
              <LatitudeDegrees>40.7533374242484569549560546875</LatitudeDegrees>
              <LongitudeDegrees>-4.07324376516044139862060546875</LongitudeDegrees>
            </Position>
            <AltitudeMeters>1267</AltitudeMeters>
            <DistanceMeters>2785.0930715433</DistanceMeters>
          </Trackpoint>
          <Trackpoint>
            <Time>2018-12-30T09:34:35.000Z</Time>
            <Position>
              <LatitudeDegrees>40.7533511705696582794189453125</LatitudeDegrees>
              <LongitudeDegrees>-4.0732403285801410675048828125</LongitudeDegrees>
            </Position>
            <AltitudeMeters>1267</AltitudeMeters>
            <DistanceMeters>2786.648725903</DistanceMeters>
          </Trackpoint>
          <Trackpoint>
            <Time>2018-12-30T09:34:36.000Z</Time>
            <Position>
              <LatitudeDegrees>40.75336718000471591949462890625</LatitudeDegrees>
              <LongitudeDegrees>-4.07323488034307956695556640625</LongitudeDegrees>
            </Position>
            <AltitudeMeters>1267</AltitudeMeters>
            <DistanceMeters>2788.4913622597</DistanceMeters>
          </Trackpoint>
          <Trackpoint>
            <Time>2018-12-30T09:34:37.000Z</Time>
            <Position>
              <LatitudeDegrees>40.75338226743042469024658203125</LatitudeDegrees>
              <LongitudeDegrees>-4.07323119230568408966064453125</LongitudeDegrees>
            </Position>
            <AltitudeMeters>1267.199951171875</AltitudeMeters>
            <DistanceMeters>2790.2018431184</DistanceMeters>
          </Trackpoint>
          <Trackpoint>
            <Time>2018-12-30T09:34:38.000Z</Time>
            <Position>
              <LatitudeDegrees>40.75340263545513153076171875</LatitudeDegrees>
              <LongitudeDegrees>-4.0732302702963352203369140625</LongitudeDegrees>
            </Position>
            <AltitudeMeters>1267.199951171875</AltitudeMeters>
            <DistanceMeters>2792.4685838394</DistanceMeters>
          </Trackpoint>
          <Trackpoint>
            <Time>2018-12-30T09:34:39.000Z</Time>
            <Position>
              <LatitudeDegrees>40.75341629795730113983154296875</LatitudeDegrees>
              <LongitudeDegrees>-4.0732198767364025115966796875</LongitudeDegrees>
            </Position>
            <AltitudeMeters>1267.4000244140625</AltitudeMeters>
            <DistanceMeters>2794.2259358656</DistanceMeters>
          </Trackpoint>
          <Trackpoint>
            <Time>2018-12-30T09:34:40.000Z</Time>
            <Position>
              <LatitudeDegrees>40.75343071483075618743896484375</LatitudeDegrees>
              <LongitudeDegrees>-4.07321459613740444183349609375</LongitudeDegrees>
            </Position>
            <AltitudeMeters>1267.4000244140625</AltitudeMeters>
            <DistanceMeters>2795.8936479345</DistanceMeters>
          </Trackpoint>
          <Trackpoint>
            <Time>2018-12-30T09:34:41.000Z</Time>
            <Position>
              <LatitudeDegrees>40.7534470595419406890869140625</LatitudeDegrees>
              <LongitudeDegrees>-4.07320328056812286376953125</LongitudeDegrees>
            </Position>
            <AltitudeMeters>1267.5999755859375</AltitudeMeters>
            <DistanceMeters>2797.9471926015</DistanceMeters>
          </Trackpoint>
          <Trackpoint>
            <Time>2018-12-30T09:34:42.000Z</Time>
            <Position>
              <LatitudeDegrees>40.75346072204411029815673828125</LatitudeDegrees>
              <LongitudeDegrees>-4.07320328056812286376953125</LongitudeDegrees>
            </Position>
            <AltitudeMeters>1267.800048828125</AltitudeMeters>
            <DistanceMeters>2799.4676200314</DistanceMeters>
          </Trackpoint>
          <Trackpoint>
            <Time>2018-12-30T09:34:43.000Z</Time>
            <Position>
              <LatitudeDegrees>40.75347379781305789947509765625</LatitudeDegrees>
              <LongitudeDegrees>-4.0732074715197086334228515625</LongitudeDegrees>
            </Position>
            <AltitudeMeters>1267.800048828125</AltitudeMeters>
            <DistanceMeters>2800.9641022258</DistanceMeters>
          </Trackpoint>
          <Trackpoint>
            <Time>2018-12-30T09:34:44.000Z</Time>
            <Position>
              <LatitudeDegrees>40.75348502956330776214599609375</LatitudeDegrees>
              <LongitudeDegrees>-4.07321308739483356475830078125</LongitudeDegrees>
            </Position>
            <AltitudeMeters>1268</AltitudeMeters>
            <DistanceMeters>2802.2978657204</DistanceMeters>
          </Trackpoint>
          <Trackpoint>
            <Time>2018-12-30T09:34:45.000Z</Time>
            <Position>
              <LatitudeDegrees>40.7534990273416042327880859375</LatitudeDegrees>
              <LongitudeDegrees>-4.07321459613740444183349609375</LongitudeDegrees>
            </Position>
            <AltitudeMeters>1268</AltitudeMeters>
            <DistanceMeters>2803.8593139711</DistanceMeters>
          </Trackpoint>
          <Trackpoint>
            <Time>2018-12-30T09:34:46.000Z</Time>
            <Position>
              <LatitudeDegrees>40.75351872481405735015869140625</LatitudeDegrees>
              <LongitudeDegrees>-4.07321459613740444183349609375</LongitudeDegrees>
            </Position>
            <AltitudeMeters>1268.199951171875</AltitudeMeters>
            <DistanceMeters>2806.0511170344</DistanceMeters>
          </Trackpoint>
          <Trackpoint>
            <Time>2018-12-30T09:34:47.000Z</Time>
            <Position>
              <LatitudeDegrees>40.7535322196781635284423828125</LatitudeDegrees>
              <LongitudeDegrees>-4.07320596277713775634765625</LongitudeDegrees>
            </Position>
            <AltitudeMeters>1268.199951171875</AltitudeMeters>
            <DistanceMeters>2807.7188291033</DistanceMeters>
          </Trackpoint>
          <Trackpoint>
            <Time>2018-12-30T09:34:48.000Z</Time>
            <Position>
              <LatitudeDegrees>40.753543116152286529541015625</LatitudeDegrees>
              <LongitudeDegrees>-4.0732078067958354949951171875</LongitudeDegrees>
            </Position>
            <AltitudeMeters>1268.199951171875</AltitudeMeters>
            <DistanceMeters>2808.9431626729</DistanceMeters>
          </Trackpoint>
          <Trackpoint>
            <Time>2018-12-30T09:34:49.000Z</Time>
            <Position>
              <LatitudeDegrees>40.7535640709102153778076171875</LatitudeDegrees>
              <LongitudeDegrees>-4.0732047893106937408447265625</LongitudeDegrees>
            </Position>
            <AltitudeMeters>1268.199951171875</AltitudeMeters>
            <DistanceMeters>2811.2901493859</DistanceMeters>
          </Trackpoint>
          <Trackpoint>
            <Time>2018-12-30T09:34:50.000Z</Time>
            <Position>
              <LatitudeDegrees>40.75357538647949695587158203125</LatitudeDegrees>
              <LongitudeDegrees>-4.07320101745426654815673828125</LongitudeDegrees>
            </Position>
            <AltitudeMeters>1268.199951171875</AltitudeMeters>
            <DistanceMeters>2812.5896201609</DistanceMeters>
          </Trackpoint>
          <Trackpoint>
            <Time>2018-12-30T09:34:51.000Z</Time>
            <Position>
              <LatitudeDegrees>40.75358368456363677978515625</LatitudeDegrees>
              <LongitudeDegrees>-4.073198251426219940185546875</LongitudeDegrees>
            </Position>
            <AltitudeMeters>1268.199951171875</AltitudeMeters>
            <DistanceMeters>2813.544626821</DistanceMeters>
          </Trackpoint>
          <Trackpoint>
            <Time>2018-12-30T09:34:52.000Z</Time>
            <Position>
              <LatitudeDegrees>40.75359231792390346527099609375</LatitudeDegrees>
              <LongitudeDegrees>-4.07319850288331508636474609375</LongitudeDegrees>
            </Position>
            <AltitudeMeters>1268.199951171875</AltitudeMeters>
            <DistanceMeters>2814.5137129627</DistanceMeters>
          </Trackpoint>
          <Trackpoint>
            <Time>2018-12-30T09:34:53.000Z</Time>
            <Position>
              <LatitudeDegrees>40.75359868817031383514404296875</LatitudeDegrees>
              <LongitudeDegrees>-4.0731876902282238006591796875</LongitudeDegrees>
            </Position>
            <AltitudeMeters>1268</AltitudeMeters>
            <DistanceMeters>2815.6697628378</DistanceMeters>
          </Trackpoint>
          <Trackpoint>
            <Time>2018-12-30T09:34:54.000Z</Time>
            <Position>
              <LatitudeDegrees>40.7536113448441028594970703125</LatitudeDegrees>
              <LongitudeDegrees>-4.07318584620952606201171875</LongitudeDegrees>
            </Position>
            <AltitudeMeters>1268</AltitudeMeters>
            <DistanceMeters>2817.0856289934</DistanceMeters>
          </Trackpoint>
          <Trackpoint>
            <Time>2018-12-30T09:34:55.000Z</Time>
            <Position>
              <LatitudeDegrees>40.75362752191722393035888671875</LatitudeDegrees>
              <LongitudeDegrees>-4.073188193142414093017578125</LongitudeDegrees>
            </Position>
            <AltitudeMeters>1268</AltitudeMeters>
            <DistanceMeters>2818.8986231538</DistanceMeters>
          </Trackpoint>
          <Trackpoint>
            <Time>2018-12-30T09:34:56.000Z</Time>
            <Position>
              <LatitudeDegrees>40.75365954078733921051025390625</LatitudeDegrees>
              <LongitudeDegrees>-4.07318626530468463897705078125</LongitudeDegrees>
            </Position>
            <AltitudeMeters>1267.800048828125</AltitudeMeters>
            <DistanceMeters>2822.4668731151</DistanceMeters>
          </Trackpoint>
          <Trackpoint>
            <Time>2018-12-30T09:34:57.000Z</Time>
            <Position>
              <LatitudeDegrees>40.75365954078733921051025390625</LatitudeDegrees>
              <LongitudeDegrees>-4.07318626530468463897705078125</LongitudeDegrees>
            </Position>
            <AltitudeMeters>1267.800048828125</AltitudeMeters>
            <DistanceMeters>2822.4668731151</DistanceMeters>
          </Trackpoint>
          <Trackpoint>
            <Time>2018-12-30T09:34:58.000Z</Time>
            <Position>
              <LatitudeDegrees>40.75367529876530170440673828125</LatitudeDegrees>
              <LongitudeDegrees>-4.073183834552764892578125</LongitudeDegrees>
            </Position>
            <AltitudeMeters>1267.800048828125</AltitudeMeters>
            <DistanceMeters>2824.2344721787</DistanceMeters>
          </Trackpoint>
          <Trackpoint>
            <Time>2018-12-30T09:34:59.000Z</Time>
            <Position>
              <LatitudeDegrees>40.75369499623775482177734375</LatitudeDegrees>
              <LongitudeDegrees>-4.07318425364792346954345703125</LongitudeDegrees>
            </Position>
            <AltitudeMeters>1267.5999755859375</AltitudeMeters>
            <DistanceMeters>2826.4262752419</DistanceMeters>
          </Trackpoint>
          <Trackpoint>
            <Time>2018-12-30T09:35:00.000Z</Time>
            <Position>
              <LatitudeDegrees>40.75371972285211086273193359375</LatitudeDegrees>
              <LongitudeDegrees>-4.07318718731403350830078125</LongitudeDegrees>
            </Position>
            <AltitudeMeters>1267.5999755859375</AltitudeMeters>
            <DistanceMeters>2829.1902297769</DistanceMeters>
          </Trackpoint>
          <Trackpoint>
            <Time>2018-12-30T09:35:01.000Z</Time>
            <Position>
              <LatitudeDegrees>40.75374302454292774200439453125</LatitudeDegrees>
              <LongitudeDegrees>-4.07318676821887493133544921875</LongitudeDegrees>
            </Position>
            <AltitudeMeters>1267.800048828125</AltitudeMeters>
            <DistanceMeters>2831.7839543095</DistanceMeters>
          </Trackpoint>
          <Trackpoint>
            <Time>2018-12-30T09:35:02.000Z</Time>
            <Position>
              <LatitudeDegrees>40.75376029126346111297607421875</LatitudeDegrees>
              <LongitudeDegrees>-4.07318852841854095458984375</LongitudeDegrees>
            </Position>
            <AltitudeMeters>1267.800048828125</AltitudeMeters>
            <DistanceMeters>2833.7127859493</DistanceMeters>
          </Trackpoint>
          <Trackpoint>
            <Time>2018-12-30T09:35:03.000Z</Time>
            <Position>
              <LatitudeDegrees>40.75377923436462879180908203125</LatitudeDegrees>
              <LongitudeDegrees>-4.07319414429366588592529296875</LongitudeDegrees>
            </Position>
            <AltitudeMeters>1268</AltitudeMeters>
            <DistanceMeters>2835.8734686011</DistanceMeters>
          </Trackpoint>
          <Trackpoint>
            <Time>2018-12-30T09:35:04.000Z</Time>
            <Position>
              <LatitudeDegrees>40.75379700399935245513916015625</LatitudeDegrees>
              <LongitudeDegrees>-4.07319548539817333221435546875</LongitudeDegrees>
            </Position>
            <AltitudeMeters>1268.4000244140625</AltitudeMeters>
            <DistanceMeters>2837.853128465</DistanceMeters>
          </Trackpoint>
          <Trackpoint>
            <Time>2018-12-30T09:35:05.000Z</Time>
            <Position>
              <LatitudeDegrees>40.7538151927292346954345703125</LatitudeDegrees>
              <LongitudeDegrees>-4.07319523394107818603515625</LongitudeDegrees>
            </Position>
            <AltitudeMeters>1268.5999755859375</AltitudeMeters>
            <DistanceMeters>2839.8778888719</DistanceMeters>
          </Trackpoint>
          <Trackpoint>
            <Time>2018-12-30T09:35:06.000Z</Time>
            <Position>
              <LatitudeDegrees>40.753830783069133758544921875</LatitudeDegrees>
              <LongitudeDegrees>-4.07319984398782253265380859375</LongitudeDegrees>
            </Position>
            <AltitudeMeters>1268.800048828125</AltitudeMeters>
            <DistanceMeters>2841.6556759107</DistanceMeters>
          </Trackpoint>
          <Trackpoint>
            <Time>2018-12-30T09:35:07.000Z</Time>
            <Position>
              <LatitudeDegrees>40.7538440264761447906494140625</LatitudeDegrees>
              <LongitudeDegrees>-4.07320554368197917938232421875</LongitudeDegrees>
            </Position>
            <AltitudeMeters>1269.199951171875</AltitudeMeters>
            <DistanceMeters>2843.2055147198</DistanceMeters>
          </Trackpoint>
          <Trackpoint>
            <Time>2018-12-30T09:35:08.000Z</Time>
            <Position>
              <LatitudeDegrees>40.7538557611405849456787109375</LatitudeDegrees>
              <LongitudeDegrees>-4.07320889644324779510498046875</LongitudeDegrees>
            </Position>
            <AltitudeMeters>1269.5999755859375</AltitudeMeters>
            <DistanceMeters>2844.5426591159</DistanceMeters>
          </Trackpoint>
          <Trackpoint>
            <Time>2018-12-30T09:35:09.000Z</Time>
            <Position>
              <LatitudeDegrees>40.7538695074617862701416015625</LatitudeDegrees>
              <LongitudeDegrees>-4.07320864498615264892578125</LongitudeDegrees>
            </Position>
            <AltitudeMeters>1270</AltitudeMeters>
            <DistanceMeters>2846.0749188443</DistanceMeters>
          </Trackpoint>
          <Trackpoint>
            <Time>2018-12-30T09:35:10.000Z</Time>
            <Position>
              <LatitudeDegrees>40.753888450562953948974609375</LatitudeDegrees>
              <LongitudeDegrees>-4.07321266829967498779296875</LongitudeDegrees>
            </Position>
            <AltitudeMeters>1270.4000244140625</AltitudeMeters>
            <DistanceMeters>2848.2124919263</DistanceMeters>
          </Trackpoint>
          <Trackpoint>
            <Time>2018-12-30T09:35:11.000Z</Time>
            <Position>
              <LatitudeDegrees>40.75390412472188472747802734375</LatitudeDegrees>
              <LongitudeDegrees>-4.07321224920451641082763671875</LongitudeDegrees>
            </Position>
            <AltitudeMeters>1270.5999755859375</AltitudeMeters>
            <DistanceMeters>2849.9595368135</DistanceMeters>
          </Trackpoint>
          <Trackpoint>
            <Time>2018-12-30T09:35:12.000Z</Time>
            <Position>
              <LatitudeDegrees>40.75391686521470546722412109375</LatitudeDegrees>
              <LongitudeDegrees>-4.0732128359377384185791015625</LongitudeDegrees>
            </Position>
            <AltitudeMeters>1270.800048828125</AltitudeMeters>
            <DistanceMeters>2851.3754029691</DistanceMeters>
          </Trackpoint>
          <Trackpoint>
            <Time>2018-12-30T09:35:13.000Z</Time>
            <Position>
              <LatitudeDegrees>40.753922648727893829345703125</LatitudeDegrees>
              <LongitudeDegrees>-4.07320998609066009521484375</LongitudeDegrees>
            </Position>
            <AltitudeMeters>1271</AltitudeMeters>
            <DistanceMeters>2852.0606503515</DistanceMeters>
          </Trackpoint>
          <Trackpoint>
            <Time>2018-12-30T09:35:14.000Z</Time>
            <Position>
              <LatitudeDegrees>40.75393547303974628448486328125</LatitudeDegrees>
              <LongitudeDegrees>-4.073212333023548126220703125</LongitudeDegrees>
            </Position>
            <AltitudeMeters>1271</AltitudeMeters>
            <DistanceMeters>2853.5018018293</DistanceMeters>
          </Trackpoint>
          <Trackpoint>
            <Time>2018-12-30T09:35:15.000Z</Time>
            <Position>
              <LatitudeDegrees>40.7539491355419158935546875</LatitudeDegrees>
              <LongitudeDegrees>-4.07321308739483356475830078125</LongitudeDegrees>
            </Position>
            <AltitudeMeters>1271</AltitudeMeters>
            <DistanceMeters>2855.0281568741</DistanceMeters>
          </Trackpoint>
          <Trackpoint>
            <Time>2018-12-30T09:35:16.000Z</Time>
            <Position>
              <LatitudeDegrees>40.75396615080535411834716796875</LatitudeDegrees>
              <LongitudeDegrees>-4.07322348095476627349853515625</LongitudeDegrees>
            </Position>
            <AltitudeMeters>1271</AltitudeMeters>
            <DistanceMeters>2857.1165837754</DistanceMeters>
          </Trackpoint>
          <Trackpoint>
            <Time>2018-12-30T09:35:17.000Z</Time>
            <Position>
              <LatitudeDegrees>40.7539794780313968658447265625</LatitudeDegrees>
              <LongitudeDegrees>-4.07323203049600124359130859375</LongitudeDegrees>
            </Position>
            <AltitudeMeters>1270.800048828125</AltitudeMeters>
            <DistanceMeters>2858.7624947491</DistanceMeters>
          </Trackpoint>
          <Trackpoint>
            <Time>2018-12-30T09:35:18.000Z</Time>
            <Position>
              <LatitudeDegrees>40.75399766676127910614013671875</LatitudeDegrees>
              <LongitudeDegrees>-4.07322415150701999664306640625</LongitudeDegrees>
            </Position>
            <AltitudeMeters>1270.800048828125</AltitudeMeters>
            <DistanceMeters>2860.8916021618</DistanceMeters>
          </Trackpoint>
          <Trackpoint>
            <Time>2018-12-30T09:35:19.000Z</Time>
            <Position>
              <LatitudeDegrees>40.7540163584053516387939453125</LatitudeDegrees>
              <LongitudeDegrees>-4.073227085173130035400390625</LongitudeDegrees>
            </Position>
            <AltitudeMeters>1270.800048828125</AltitudeMeters>
            <DistanceMeters>2862.9865048211</DistanceMeters>
          </Trackpoint>
          <Trackpoint>
            <Time>2018-12-30T09:35:20.000Z</Time>
            <Position>
              <LatitudeDegrees>40.75403488241136074066162109375</LatitudeDegrees>
              <LongitudeDegrees>-4.07323018647730350494384765625</LongitudeDegrees>
            </Position>
            <AltitudeMeters>1270.800048828125</AltitudeMeters>
            <DistanceMeters>2865.0640939383</DistanceMeters>
          </Trackpoint>
          <Trackpoint>
            <Time>2018-12-30T09:35:21.000Z</Time>
            <Position>
              <LatitudeDegrees>40.754046030342578887939453125</LatitudeDegrees>
              <LongitudeDegrees>-4.07323353923857212066650390625</LongitudeDegrees>
            </Position>
            <AltitudeMeters>1270.800048828125</AltitudeMeters>
            <DistanceMeters>2866.3390110964</DistanceMeters>
          </Trackpoint>
          <Trackpoint>
            <Time>2018-12-30T09:35:22.000Z</Time>
            <Position>
              <LatitudeDegrees>40.75406271032989025115966796875</LatitudeDegrees>
              <LongitudeDegrees>-4.0732369758188724517822265625</LongitudeDegrees>
            </Position>
            <AltitudeMeters>1271</AltitudeMeters>
            <DistanceMeters>2868.2156383405</DistanceMeters>
          </Trackpoint>
          <Trackpoint>
            <Time>2018-12-30T09:35:23.000Z</Time>
            <Position>
              <LatitudeDegrees>40.7540725171566009521484375</LatitudeDegrees>
              <LongitudeDegrees>-4.07324091531336307525634765625</LongitudeDegrees>
            </Position>
            <AltitudeMeters>1271</AltitudeMeters>
            <DistanceMeters>2869.3559589129</DistanceMeters>
          </Trackpoint>
          <Trackpoint>
            <Time>2018-12-30T09:35:24.000Z</Time>
            <Position>
              <LatitudeDegrees>40.75407913886010646820068359375</LatitudeDegrees>
              <LongitudeDegrees>-4.0732466988265514373779296875</LongitudeDegrees>
            </Position>
            <AltitudeMeters>1271</AltitudeMeters>
            <DistanceMeters>2870.2372004088</DistanceMeters>
          </Trackpoint>
          <Trackpoint>
            <Time>2018-12-30T09:35:25.000Z</Time>
            <Position>
              <LatitudeDegrees>40.7540860958397388458251953125</LatitudeDegrees>
              <LongitudeDegrees>-4.07325382344424724578857421875</LongitudeDegrees>
            </Position>
            <AltitudeMeters>1270.800048828125</AltitudeMeters>
            <DistanceMeters>2871.2201643856</DistanceMeters>
          </Trackpoint>
          <Trackpoint>
            <Time>2018-12-30T09:35:26.000Z</Time>
            <Position>
              <LatitudeDegrees>40.7540954835712909698486328125</LatitudeDegrees>
              <LongitudeDegrees>-4.07326086424291133880615234375</LongitudeDegrees>
            </Position>
            <AltitudeMeters>1270.800048828125</AltitudeMeters>
            <DistanceMeters>2872.4221678094</DistanceMeters>
          </Trackpoint>
          <Trackpoint>
            <Time>2018-12-30T09:35:27.000Z</Time>
            <Position>
              <LatitudeDegrees>40.7541062124073505401611328125</LatitudeDegrees>
              <LongitudeDegrees>-4.073264636099338531494140625</LongitudeDegrees>
            </Position>
            <AltitudeMeters>1270.5999755859375</AltitudeMeters>
            <DistanceMeters>2873.6538547999</DistanceMeters>
          </Trackpoint>
          <Trackpoint>
            <Time>2018-12-30T09:35:28.000Z</Time>
            <Position>
              <LatitudeDegrees>40.75411987490952014923095703125</LatitudeDegrees>
              <LongitudeDegrees>-4.073263965547084808349609375</LongitudeDegrees>
            </Position>
            <AltitudeMeters>1270.5999755859375</AltitudeMeters>
            <DistanceMeters>2875.1772489204</DistanceMeters>
          </Trackpoint>
          <Trackpoint>
            <Time>2018-12-30T09:35:29.000Z</Time>
            <Position>
              <LatitudeDegrees>40.75413546524941921234130859375</LatitudeDegrees>
              <LongitudeDegrees>-4.07326287589967250823974609375</LongitudeDegrees>
            </Position>
            <AltitudeMeters>1270.5999755859375</AltitudeMeters>
            <DistanceMeters>2876.9139254971</DistanceMeters>
          </Trackpoint>
          <Trackpoint>
            <Time>2018-12-30T09:35:30.000Z</Time>
            <Position>
              <LatitudeDegrees>40.75415172614157199859619140625</LatitudeDegrees>
              <LongitudeDegrees>-4.0732621215283870697021484375</LongitudeDegrees>
            </Position>
            <AltitudeMeters>1270.5999755859375</AltitudeMeters>
            <DistanceMeters>2878.7269196575</DistanceMeters>
          </Trackpoint>
          <Trackpoint>
            <Time>2018-12-30T09:35:31.000Z</Time>
            <Position>
              <LatitudeDegrees>40.75416798703372478485107421875</LatitudeDegrees>
              <LongitudeDegrees>-4.07326606102287769317626953125</LongitudeDegrees>
            </Position>
            <AltitudeMeters>1270.5999755859375</AltitudeMeters>
            <DistanceMeters>2880.5646488514</DistanceMeters>
          </Trackpoint>
          <Trackpoint>
            <Time>2018-12-30T09:35:32.000Z</Time>
            <Position>
              <LatitudeDegrees>40.754180811345577239990234375</LatitudeDegrees>
              <LongitudeDegrees>-4.07326187007129192352294921875</LongitudeDegrees>
            </Position>
            <AltitudeMeters>1270.800048828125</AltitudeMeters>
            <DistanceMeters>2882.0367963802</DistanceMeters>
          </Trackpoint>
          <Trackpoint>
            <Time>2018-12-30T09:35:33.000Z</Time>
            <Position>
              <LatitudeDegrees>40.75419229455292224884033203125</LatitudeDegrees>
              <LongitudeDegrees>-4.0732580982148647308349609375</LongitudeDegrees>
            </Position>
            <AltitudeMeters>1271</AltitudeMeters>
            <DistanceMeters>2883.3535251591</DistanceMeters>
          </Trackpoint>
          <Trackpoint>
            <Time>2018-12-30T09:35:34.000Z</Time>
            <Position>
              <LatitudeDegrees>40.75419883243739604949951171875</LatitudeDegrees>
              <LongitudeDegrees>-4.07325868494808673858642578125</LongitudeDegrees>
            </Position>
            <AltitudeMeters>1271.199951171875</AltitudeMeters>
            <DistanceMeters>2884.0834392021</DistanceMeters>
          </Trackpoint>
          <Trackpoint>
            <Time>2018-12-30T09:35:35.000Z</Time>
            <Position>
              <LatitudeDegrees>40.7542031072080135345458984375</LatitudeDegrees>
              <LongitudeDegrees>-4.0732577629387378692626953125</LongitudeDegrees>
            </Position>
            <AltitudeMeters>1271.5999755859375</AltitudeMeters>
            <DistanceMeters>2884.567982273</DistanceMeters>
          </Trackpoint>
          <Trackpoint>
            <Time>2018-12-30T09:35:36.000Z</Time>
            <Position>
              <LatitudeDegrees>40.754209645092487335205078125</LatitudeDegrees>
              <LongitudeDegrees>-4.07326522283256053924560546875</LongitudeDegrees>
            </Position>
            <AltitudeMeters>1271.800048828125</AltitudeMeters>
            <DistanceMeters>2885.5277050441</DistanceMeters>
          </Trackpoint>
          <Trackpoint>
            <Time>2018-12-30T09:35:37.000Z</Time>
            <Position>
              <LatitudeDegrees>40.75421475805342197418212890625</LatitudeDegrees>
              <LongitudeDegrees>-4.07326723448932170867919921875</LongitudeDegrees>
            </Position>
            <AltitudeMeters>1272</AltitudeMeters>
            <DistanceMeters>2886.1134890528</DistanceMeters>
          </Trackpoint>
          <Trackpoint>
            <Time>2018-12-30T09:35:38.000Z</Time>
            <Position>
              <LatitudeDegrees>40.754226744174957275390625</LatitudeDegrees>
              <LongitudeDegrees>-4.07326539047062397003173828125</LongitudeDegrees>
            </Position>
            <AltitudeMeters>1272</AltitudeMeters>
            <DistanceMeters>2887.4573697353</DistanceMeters>
          </Trackpoint>
          <Trackpoint>
            <Time>2018-12-30T09:35:39.000Z</Time>
            <Position>
              <LatitudeDegrees>40.75423370115458965301513671875</LatitudeDegrees>
              <LongitudeDegrees>-4.0732611157000064849853515625</LongitudeDegrees>
            </Position>
            <AltitudeMeters>1272.199951171875</AltitudeMeters>
            <DistanceMeters>2888.3073145073</DistanceMeters>
          </Trackpoint>
          <Trackpoint>
            <Time>2018-12-30T09:35:40.000Z</Time>
            <Position>
              <LatitudeDegrees>40.7542480342090129852294921875</LatitudeDegrees>
              <LongitudeDegrees>-4.073272012174129486083984375</LongitudeDegrees>
            </Position>
            <AltitudeMeters>1272.4000244140625</AltitudeMeters>
            <DistanceMeters>2890.149950864</DistanceMeters>
          </Trackpoint>
          <Trackpoint>
            <Time>2018-12-30T09:35:41.000Z</Time>
            <Position>
              <LatitudeDegrees>40.7542601041495800018310546875</LatitudeDegrees>
              <LongitudeDegrees>-4.073275029659271240234375</LongitudeDegrees>
            </Position>
            <AltitudeMeters>1272.5999755859375</AltitudeMeters>
            <DistanceMeters>2891.517147201</DistanceMeters>
          </Trackpoint>
          <Trackpoint>
            <Time>2018-12-30T09:35:42.000Z</Time>
            <Position>
              <LatitudeDegrees>40.75426588766276836395263671875</LatitudeDegrees>
              <LongitudeDegrees>-4.073293469846248626708984375</LongitudeDegrees>
            </Position>
            <AltitudeMeters>1272.5999755859375</AltitudeMeters>
            <DistanceMeters>2893.1983413977</DistanceMeters>
          </Trackpoint>
          <Trackpoint>
            <Time>2018-12-30T09:35:43.000Z</Time>
            <Position>
              <LatitudeDegrees>40.75427728705108165740966796875</LatitudeDegrees>
              <LongitudeDegrees>-4.07330646179616451263427734375</LongitudeDegrees>
            </Position>
            <AltitudeMeters>1273</AltitudeMeters>
            <DistanceMeters>2894.8768478321</DistanceMeters>
          </Trackpoint>
          <Trackpoint>
            <Time>2018-12-30T09:35:44.000Z</Time>
            <Position>
              <LatitudeDegrees>40.754290781915187835693359375</LatitudeDegrees>
              <LongitudeDegrees>-4.073312580585479736328125</LongitudeDegrees>
            </Position>
            <AltitudeMeters>1273</AltitudeMeters>
            <DistanceMeters>2896.4669488995</DistanceMeters>
          </Trackpoint>
          <Trackpoint>
            <Time>2018-12-30T09:35:45.000Z</Time>
            <Position>
              <LatitudeDegrees>40.75430192984640598297119140625</LatitudeDegrees>
              <LongitudeDegrees>-4.07332037575542926788330078125</LongitudeDegrees>
            </Position>
            <AltitudeMeters>1273</AltitudeMeters>
            <DistanceMeters>2897.8700015231</DistanceMeters>
          </Trackpoint>
          <Trackpoint>
            <Time>2018-12-30T09:35:46.000Z</Time>
            <Position>
              <LatitudeDegrees>40.75431114993989467620849609375</LatitudeDegrees>
              <LongitudeDegrees>-4.07332590781152248382568359375</LongitudeDegrees>
            </Position>
            <AltitudeMeters>1273.199951171875</AltitudeMeters>
            <DistanceMeters>2898.998381237</DistanceMeters>
          </Trackpoint>
          <Trackpoint>
            <Time>2018-12-30T09:35:47.000Z</Time>
            <Position>
              <LatitudeDegrees>40.7543221302330493927001953125</LatitudeDegrees>
              <LongitudeDegrees>-4.07332641072571277618408203125</LongitudeDegrees>
            </Position>
            <AltitudeMeters>1273.199951171875</AltitudeMeters>
            <DistanceMeters>2900.2190214842</DistanceMeters>
          </Trackpoint>
          <Trackpoint>
            <Time>2018-12-30T09:35:48.000Z</Time>
            <Position>
              <LatitudeDegrees>40.75434098951518535614013671875</LatitudeDegrees>
              <LongitudeDegrees>-4.07332791946828365325927734375</LongitudeDegrees>
            </Position>
            <AltitudeMeters>1273</AltitudeMeters>
            <DistanceMeters>2902.322527476</DistanceMeters>
          </Trackpoint>
          <Trackpoint>
            <Time>2018-12-30T09:35:49.000Z</Time>
            <Position>
              <LatitudeDegrees>40.75435657985508441925048828125</LatitudeDegrees>
              <LongitudeDegrees>-4.07333445735275745391845703125</LongitudeDegrees>
            </Position>
            <AltitudeMeters>1272.800048828125</AltitudeMeters>
            <DistanceMeters>2904.1454559254</DistanceMeters>
          </Trackpoint>
          <Trackpoint>
            <Time>2018-12-30T09:35:50.000Z</Time>
            <Position>
              <LatitudeDegrees>40.7543687336146831512451171875</LatitudeDegrees>
              <LongitudeDegrees>-4.07334367744624614715576171875</LongitudeDegrees>
            </Position>
            <AltitudeMeters>1272.5999755859375</AltitudeMeters>
            <DistanceMeters>2905.7069041761</DistanceMeters>
          </Trackpoint>
          <Trackpoint>
            <Time>2018-12-30T09:35:51.000Z</Time>
            <Position>
              <LatitudeDegrees>40.7543784566223621368408203125</LatitudeDegrees>
              <LongitudeDegrees>-4.07334988005459308624267578125</LongitudeDegrees>
            </Position>
            <AltitudeMeters>1272.5999755859375</AltitudeMeters>
            <DistanceMeters>2906.9013714541</DistanceMeters>
          </Trackpoint>
          <Trackpoint>
            <Time>2018-12-30T09:35:52.000Z</Time>
            <Position>
              <LatitudeDegrees>40.75438440777361392974853515625</LatitudeDegrees>
              <LongitudeDegrees>-4.0733526460826396942138671875</LongitudeDegrees>
            </Position>
            <AltitudeMeters>1272.5999755859375</AltitudeMeters>
            <DistanceMeters>2907.5996723405</DistanceMeters>
          </Trackpoint>
          <Trackpoint>
            <Time>2018-12-30T09:35:53.000Z</Time>
            <Position>
              <LatitudeDegrees>40.75440033338963985443115234375</LatitudeDegrees>
              <LongitudeDegrees>-4.07335306517779827117919921875</LongitudeDegrees>
            </Position>
            <AltitudeMeters>1272.4000244140625</AltitudeMeters>
            <DistanceMeters>2909.3723727107</DistanceMeters>
          </Trackpoint>
          <Trackpoint>
            <Time>2018-12-30T09:35:54.000Z</Time>
            <Position>
              <LatitudeDegrees>40.754415504634380340576171875</LatitudeDegrees>
              <LongitudeDegrees>-4.073348455131053924560546875</LongitudeDegrees>
            </Position>
            <AltitudeMeters>1272.4000244140625</AltitudeMeters>
            <DistanceMeters>2911.1064475234</DistanceMeters>
          </Trackpoint>
          <Trackpoint>
            <Time>2018-12-30T09:35:55.000Z</Time>
            <Position>
              <LatitudeDegrees>40.75442480854690074920654296875</LatitudeDegrees>
              <LongitudeDegrees>-4.07335407100617885589599609375</LongitudeDegrees>
            </Position>
            <AltitudeMeters>1272.4000244140625</AltitudeMeters>
            <DistanceMeters>2912.2428017514</DistanceMeters>
          </Trackpoint>
          <Trackpoint>
            <Time>2018-12-30T09:35:56.000Z</Time>
            <Position>
              <LatitudeDegrees>40.754436962306499481201171875</LatitudeDegrees>
              <LongitudeDegrees>-4.07335842959582805633544921875</LongitudeDegrees>
            </Position>
            <AltitudeMeters>1272.4000244140625</AltitudeMeters>
            <DistanceMeters>2913.6426326656</DistanceMeters>
          </Trackpoint>
          <Trackpoint>
            <Time>2018-12-30T09:35:57.000Z</Time>
            <Position>
              <LatitudeDegrees>40.75445163063704967498779296875</LatitudeDegrees>
              <LongitudeDegrees>-4.07336697913706302642822265625</LongitudeDegrees>
            </Position>
            <AltitudeMeters>1272.4000244140625</AltitudeMeters>
            <DistanceMeters>2915.4254918603</DistanceMeters>
          </Trackpoint>
          <Trackpoint>
            <Time>2018-12-30T09:35:58.000Z</Time>
            <Position>
              <LatitudeDegrees>40.75446822680532932281494140625</LatitudeDegrees>
              <LongitudeDegrees>-4.07337083481252193450927734375</LongitudeDegrees>
            </Position>
            <AltitudeMeters>1272.4000244140625</AltitudeMeters>
            <DistanceMeters>2917.2997116277</DistanceMeters>
          </Trackpoint>
          <Trackpoint>
            <Time>2018-12-30T09:35:59.000Z</Time>
            <Position>
              <LatitudeDegrees>40.7544867508113384246826171875</LatitudeDegrees>
              <LongitudeDegrees>-4.0733680687844753265380859375</LongitudeDegrees>
            </Position>
            <AltitudeMeters>1272.4000244140625</AltitudeMeters>
            <DistanceMeters>2919.377300745</DistanceMeters>
          </Trackpoint>
          <Trackpoint>
            <Time>2018-12-30T09:36:00.000Z</Time>
            <Position>
              <LatitudeDegrees>40.75450393371284008026123046875</LatitudeDegrees>
              <LongitudeDegrees>-4.07336446456611156463623046875</LongitudeDegrees>
            </Position>
            <AltitudeMeters>1272.4000244140625</AltitudeMeters>
            <DistanceMeters>2921.3154730286</DistanceMeters>
          </Trackpoint>
          <Trackpoint>
            <Time>2018-12-30T09:36:01.000Z</Time>
            <Position>
              <LatitudeDegrees>40.7545186020433902740478515625</LatitudeDegrees>
              <LongitudeDegrees>-4.0733637101948261260986328125</LongitudeDegrees>
            </Position>
            <AltitudeMeters>1272.5999755859375</AltitudeMeters>
            <DistanceMeters>2922.9503744407</DistanceMeters>
          </Trackpoint>
          <Trackpoint>
            <Time>2018-12-30T09:36:02.000Z</Time>
            <Position>
              <LatitudeDegrees>40.754532516002655029296875</LatitudeDegrees>
              <LongitudeDegrees>-4.0733622014522552490234375</LongitudeDegrees>
            </Position>
            <AltitudeMeters>1272.800048828125</AltitudeMeters>
            <DistanceMeters>2924.5060288004</DistanceMeters>
          </Trackpoint>
          <Trackpoint>
            <Time>2018-12-30T09:36:03.000Z</Time>
            <Position>
              <LatitudeDegrees>40.75454751960933208465576171875</LatitudeDegrees>
              <LongitudeDegrees>-4.07336312346160411834716796875</LongitudeDegrees>
            </Position>
            <AltitudeMeters>1273.199951171875</AltitudeMeters>
            <DistanceMeters>2926.1791467573</DistanceMeters>
          </Trackpoint>
          <Trackpoint>
            <Time>2018-12-30T09:36:04.000Z</Time>
            <Position>
              <LatitudeDegrees>40.75455975718796253204345703125</LatitudeDegrees>
              <LongitudeDegrees>-4.073365889489650726318359375</LongitudeDegrees>
            </Position>
            <AltitudeMeters>1273.4000244140625</AltitudeMeters>
            <DistanceMeters>2927.5627566034</DistanceMeters>
          </Trackpoint>
          <Trackpoint>
            <Time>2018-12-30T09:36:05.000Z</Time>
            <Position>
              <LatitudeDegrees>40.7545722462236881256103515625</LatitudeDegrees>
              <LongitudeDegrees>-4.07337368465960025787353515625</LongitudeDegrees>
            </Position>
            <AltitudeMeters>1273.5999755859375</AltitudeMeters>
            <DistanceMeters>2929.1008983486</DistanceMeters>
          </Trackpoint>
          <Trackpoint>
            <Time>2018-12-30T09:36:06.000Z</Time>
            <Position>
              <LatitudeDegrees>40.75458138249814510345458984375</LatitudeDegrees>
              <LongitudeDegrees>-4.0733898617327213287353515625</LongitudeDegrees>
            </Position>
            <AltitudeMeters>1273.800048828125</AltitudeMeters>
            <DistanceMeters>2930.8034418982</DistanceMeters>
          </Trackpoint>
          <Trackpoint>
            <Time>2018-12-30T09:36:07.000Z</Time>
            <Position>
              <LatitudeDegrees>40.75458557344973087310791015625</LatitudeDegrees>
              <LongitudeDegrees>-4.0734012611210346221923828125</LongitudeDegrees>
            </Position>
            <AltitudeMeters>1274</AltitudeMeters>
            <DistanceMeters>2931.8701141215</DistanceMeters>
          </Trackpoint>
          <Trackpoint>
            <Time>2018-12-30T09:36:08.000Z</Time>
            <Position>
              <LatitudeDegrees>40.754590518772602081298828125</LatitudeDegrees>
              <LongitudeDegrees>-4.073412157595157623291015625</LongitudeDegrees>
            </Position>
            <AltitudeMeters>1274</AltitudeMeters>
            <DistanceMeters>2932.9452186675</DistanceMeters>
          </Trackpoint>
          <Trackpoint>
            <Time>2018-12-30T09:36:09.000Z</Time>
            <Position>
              <LatitudeDegrees>40.7545937038958072662353515625</LatitudeDegrees>
              <LongitudeDegrees>-4.07341978512704372406005859375</LongitudeDegrees>
            </Position>
            <AltitudeMeters>1274</AltitudeMeters>
            <DistanceMeters>2933.6812924319</DistanceMeters>
          </Trackpoint>
          <Trackpoint>
            <Time>2018-12-30T09:36:10.000Z</Time>
            <Position>
              <LatitudeDegrees>40.75459781102836132049560546875</LatitudeDegrees>
              <LongitudeDegrees>-4.0734319388866424560546875</LongitudeDegrees>
            </Position>
            <AltitudeMeters>1274</AltitudeMeters>
            <DistanceMeters>2934.8056636794</DistanceMeters>
          </Trackpoint>
          <Trackpoint>
            <Time>2018-12-30T09:36:11.000Z</Time>
            <Position>
              <LatitudeDegrees>40.75460183434188365936279296875</LatitudeDegrees>
              <LongitudeDegrees>-4.07345247454941272735595703125</LongitudeDegrees>
            </Position>
            <AltitudeMeters>1274</AltitudeMeters>
            <DistanceMeters>2936.5935806409</DistanceMeters>
          </Trackpoint>
          <Trackpoint>
            <Time>2018-12-30T09:36:12.000Z</Time>
            <Position>
              <LatitudeDegrees>40.7546067796647548675537109375</LatitudeDegrees>
              <LongitudeDegrees>-4.07347443513572216033935546875</LongitudeDegrees>
            </Position>
            <AltitudeMeters>1274</AltitudeMeters>
            <DistanceMeters>2938.5270882431</DistanceMeters>
          </Trackpoint>
          <Trackpoint>
            <Time>2018-12-30T09:36:13.000Z</Time>
            <Position>
              <LatitudeDegrees>40.7546138204634189605712890625</LatitudeDegrees>
              <LongitudeDegrees>-4.0734864212572574615478515625</LongitudeDegrees>
            </Position>
            <AltitudeMeters>1274.199951171875</AltitudeMeters>
            <DistanceMeters>2939.8090687082</DistanceMeters>
          </Trackpoint>
          <Trackpoint>
            <Time>2018-12-30T09:36:14.000Z</Time>
            <Position>
              <LatitudeDegrees>40.75461407192051410675048828125</LatitudeDegrees>
              <LongitudeDegrees>-4.07349270768463611602783203125</LongitudeDegrees>
            </Position>
            <AltitudeMeters>1274.5999755859375</AltitudeMeters>
            <DistanceMeters>2940.3466209812</DistanceMeters>
          </Trackpoint>
          <Trackpoint>
            <Time>2018-12-30T09:36:15.000Z</Time>
            <Position>
              <LatitudeDegrees>40.754618681967258453369140625</LatitudeDegrees>
              <LongitudeDegrees>-4.07351039350032806396484375</LongitudeDegrees>
            </Position>
            <AltitudeMeters>1274.800048828125</AltitudeMeters>
            <DistanceMeters>2941.9253233276</DistanceMeters>
          </Trackpoint>
          <Trackpoint>
            <Time>2018-12-30T09:36:16.000Z</Time>
            <Position>
              <LatitudeDegrees>40.754626728594303131103515625</LatitudeDegrees>
              <LongitudeDegrees>-4.0735222958028316497802734375</LongitudeDegrees>
            </Position>
            <AltitudeMeters>1275.4000244140625</AltitudeMeters>
            <DistanceMeters>2943.2692040101</DistanceMeters>
          </Trackpoint>
          <Trackpoint>
            <Time>2018-12-30T09:36:17.000Z</Time>
            <Position>
              <LatitudeDegrees>40.754639469087123870849609375</LatitudeDegrees>
              <LongitudeDegrees>-4.07353763468563556671142578125</LongitudeDegrees>
            </Position>
            <AltitudeMeters>1275.800048828125</AltitudeMeters>
            <DistanceMeters>2945.1862958474</DistanceMeters>
          </Trackpoint>
          <Trackpoint>
            <Time>2018-12-30T09:36:18.000Z</Time>
            <Position>
              <LatitudeDegrees>40.75463988818228244781494140625</LatitudeDegrees>
              <LongitudeDegrees>-4.07354769296944141387939453125</LongitudeDegrees>
            </Position>
            <AltitudeMeters>1276.199951171875</AltitudeMeters>
            <DistanceMeters>2946.0362406194</DistanceMeters>
          </Trackpoint>
          <Trackpoint>
            <Time>2018-12-30T09:36:19.000Z</Time>
            <Position>
              <LatitudeDegrees>40.754643492400646209716796875</LatitudeDegrees>
              <LongitudeDegrees>-4.07355892471969127655029296875</LongitudeDegrees>
            </Position>
            <AltitudeMeters>1276.5999755859375</AltitudeMeters>
            <DistanceMeters>2947.0597096553</DistanceMeters>
          </Trackpoint>
          <Trackpoint>
            <Time>2018-12-30T09:36:20.000Z</Time>
            <Position>
              <LatitudeDegrees>40.75464759953320026397705078125</LatitudeDegrees>
              <LongitudeDegrees>-4.0735631994903087615966796875</LongitudeDegrees>
            </Position>
            <AltitudeMeters>1276.800048828125</AltitudeMeters>
            <DistanceMeters>2947.6377345929</DistanceMeters>
          </Trackpoint>
          <Trackpoint>
            <Time>2018-12-30T09:36:21.000Z</Time>
            <Position>
              <LatitudeDegrees>40.75464827008545398712158203125</LatitudeDegrees>
              <LongitudeDegrees>-4.07356881536543369293212890625</LongitudeDegrees>
            </Position>
            <AltitudeMeters>1277</AltitudeMeters>
            <DistanceMeters>2948.1222776638</DistanceMeters>
          </Trackpoint>
          <Trackpoint>
            <Time>2018-12-30T09:36:22.000Z</Time>
            <Position>
              <LatitudeDegrees>40.75464759953320026397705078125</LatitudeDegrees>
              <LongitudeDegrees>-4.07358038239181041717529296875</LongitudeDegrees>
            </Position>
            <AltitudeMeters>1277.4000244140625</AltitudeMeters>
            <DistanceMeters>2949.1006375684</DistanceMeters>
          </Trackpoint>
          <Trackpoint>
            <Time>2018-12-30T09:36:23.000Z</Time>
            <Position>
              <LatitudeDegrees>40.75464759953320026397705078125</LatitudeDegrees>
              <LongitudeDegrees>-4.07358038239181041717529296875</LongitudeDegrees>
            </Position>
            <AltitudeMeters>1277.5999755859375</AltitudeMeters>
            <DistanceMeters>2949.1006375684</DistanceMeters>
          </Trackpoint>
          <Trackpoint>
            <Time>2018-12-30T09:36:24.000Z</Time>
            <Position>
              <LatitudeDegrees>40.75464726425707340240478515625</LatitudeDegrees>
              <LongitudeDegrees>-4.07359479926526546478271484375</LongitudeDegrees>
            </Position>
            <AltitudeMeters>1277.800048828125</AltitudeMeters>
            <DistanceMeters>2950.3175732844</DistanceMeters>
          </Trackpoint>
          <Trackpoint>
            <Time>2018-12-30T09:36:25.000Z</Time>
            <Position>
              <LatitudeDegrees>40.75464726425707340240478515625</LatitudeDegrees>
              <LongitudeDegrees>-4.07359479926526546478271484375</LongitudeDegrees>
            </Position>
            <AltitudeMeters>1278.199951171875</AltitudeMeters>
            <DistanceMeters>2950.3175732844</DistanceMeters>
          </Trackpoint>
          <Trackpoint>
            <Time>2018-12-30T09:36:26.000Z</Time>
            <Position>
              <LatitudeDegrees>40.7546503655612468719482421875</LatitudeDegrees>
              <LongitudeDegrees>-4.0736041031777858734130859375</LongitudeDegrees>
            </Position>
            <AltitudeMeters>1278.4000244140625</AltitudeMeters>
            <DistanceMeters>2951.1728137137</DistanceMeters>
          </Trackpoint>
          <Trackpoint>
            <Time>2018-12-30T09:36:27.000Z</Time>
            <Position>
              <LatitudeDegrees>40.7546557299792766571044921875</LatitudeDegrees>
              <LongitudeDegrees>-4.07361424528062343597412109375</LongitudeDegrees>
            </Position>
            <AltitudeMeters>1278.5999755859375</AltitudeMeters>
            <DistanceMeters>2952.2137792143</DistanceMeters>
          </Trackpoint>
          <Trackpoint>
            <Time>2018-12-30T09:36:28.000Z</Time>
            <Position>
              <LatitudeDegrees>40.75466327369213104248046875</LatitudeDegrees>
              <LongitudeDegrees>-4.073628075420856475830078125</LongitudeDegrees>
            </Position>
            <AltitudeMeters>1278.4000244140625</AltitudeMeters>
            <DistanceMeters>2953.6486511351</DistanceMeters>
          </Trackpoint>
          <Trackpoint>
            <Time>2018-12-30T09:36:29.000Z</Time>
            <Position>
              <LatitudeDegrees>40.75467576272785663604736328125</LatitudeDegrees>
              <LongitudeDegrees>-4.07363788224756717681884765625</LongitudeDegrees>
            </Position>
            <AltitudeMeters>1278.4000244140625</AltitudeMeters>
            <DistanceMeters>2955.2641052794</DistanceMeters>
          </Trackpoint>
          <Trackpoint>
            <Time>2018-12-30T09:36:30.000Z</Time>
            <Position>
              <LatitudeDegrees>40.7546921074390411376953125</LatitudeDegrees>
              <LongitudeDegrees>-4.07364584505558013916015625</LongitudeDegrees>
            </Position>
            <AltitudeMeters>1278.4000244140625</AltitudeMeters>
            <DistanceMeters>2957.2022775629</DistanceMeters>
          </Trackpoint>
          <Trackpoint>
            <Time>2018-12-30T09:36:31.000Z</Time>
            <Position>
              <LatitudeDegrees>40.7547056861221790313720703125</LatitudeDegrees>
              <LongitudeDegrees>-4.07364760525524616241455078125</LongitudeDegrees>
            </Position>
            <AltitudeMeters>1278.4000244140625</AltitudeMeters>
            <DistanceMeters>2958.7197325024</DistanceMeters>
          </Trackpoint>
          <Trackpoint>
            <Time>2018-12-30T09:36:32.000Z</Time>
            <Position>
              <LatitudeDegrees>40.75471079908311367034912109375</LatitudeDegrees>
              <LongitudeDegrees>-4.0736490301787853240966796875</LongitudeDegrees>
            </Position>
            <AltitudeMeters>1278.4000244140625</AltitudeMeters>
            <DistanceMeters>2959.3055165111</DistanceMeters>
          </Trackpoint>
          <Trackpoint>
            <Time>2018-12-30T09:36:33.000Z</Time>
            <Position>
              <LatitudeDegrees>40.754723288118839263916015625</LatitudeDegrees>
              <LongitudeDegrees>-4.0736543945968151092529296875</LongitudeDegrees>
            </Position>
            <AltitudeMeters>1278.4000244140625</AltitudeMeters>
            <DistanceMeters>2960.7653445971</DistanceMeters>
          </Trackpoint>
          <Trackpoint>
            <Time>2018-12-30T09:36:34.000Z</Time>
            <Position>
              <LatitudeDegrees>40.75473410077393054962158203125</LatitudeDegrees>
              <LongitudeDegrees>-4.07366068102419376373291015625</LongitudeDegrees>
            </Position>
            <AltitudeMeters>1278.4000244140625</AltitudeMeters>
            <DistanceMeters>2962.082073376</DistanceMeters>
          </Trackpoint>
          <Trackpoint>
            <Time>2018-12-30T09:36:35.000Z</Time>
            <Position>
              <LatitudeDegrees>40.754746086895465850830078125</LatitudeDegrees>
              <LongitudeDegrees>-4.0736681409180164337158203125</LongitudeDegrees>
            </Position>
            <AltitudeMeters>1278.4000244140625</AltitudeMeters>
            <DistanceMeters>2963.5603421268</DistanceMeters>
          </Trackpoint>
          <Trackpoint>
            <Time>2018-12-30T09:36:36.000Z</Time>
            <Position>
              <LatitudeDegrees>40.7547606714069843292236328125</LatitudeDegrees>
              <LongitudeDegrees>-4.0736714936792850494384765625</LongitudeDegrees>
            </Position>
            <AltitudeMeters>1278.4000244140625</AltitudeMeters>
            <DistanceMeters>2965.2117303568</DistanceMeters>
          </Trackpoint>
          <Trackpoint>
            <Time>2018-12-30T09:36:37.000Z</Time>
            <Position>
              <LatitudeDegrees>40.7547720707952976226806640625</LatitudeDegrees>
              <LongitudeDegrees>-4.07367694191634654998779296875</LongitudeDegrees>
            </Position>
            <AltitudeMeters>1278.5999755859375</AltitudeMeters>
            <DistanceMeters>2966.5623137276</DistanceMeters>
          </Trackpoint>
          <Trackpoint>
            <Time>2018-12-30T09:36:38.000Z</Time>
            <Position>
              <LatitudeDegrees>40.75478204526007175445556640625</LatitudeDegrees>
              <LongitudeDegrees>-4.07368431799113750457763671875</LongitudeDegrees>
            </Position>
            <AltitudeMeters>1279</AltitudeMeters>
            <DistanceMeters>2967.8372308857</DistanceMeters>
          </Trackpoint>
          <Trackpoint>
            <Time>2018-12-30T09:36:39.000Z</Time>
            <Position>
              <LatitudeDegrees>40.75479344464838504791259765625</LatitudeDegrees>
              <LongitudeDegrees>-4.073696136474609375</LongitudeDegrees>
            </Position>
            <AltitudeMeters>1279.199951171875</AltitudeMeters>
            <DistanceMeters>2969.4470855187</DistanceMeters>
          </Trackpoint>
          <Trackpoint>
            <Time>2018-12-30T09:36:40.000Z</Time>
            <Position>
              <LatitudeDegrees>40.75480635277926921844482421875</LatitudeDegrees>
              <LongitudeDegrees>-4.07370108179748058319091796875</LongitudeDegrees>
            </Position>
            <AltitudeMeters>1279.4000244140625</AltitudeMeters>
            <DistanceMeters>2970.9435677131</DistanceMeters>
          </Trackpoint>
          <Trackpoint>
            <Time>2018-12-30T09:36:41.000Z</Time>
            <Position>
              <LatitudeDegrees>40.75481523759663105010986328125</LatitudeDegrees>
              <LongitudeDegrees>-4.0737063623964786529541015625</LongitudeDegrees>
            </Position>
            <AltitudeMeters>1279.5999755859375</AltitudeMeters>
            <DistanceMeters>2972.0270389576</DistanceMeters>
          </Trackpoint>
          <Trackpoint>
            <Time>2018-12-30T09:36:42.000Z</Time>
            <Position>
              <LatitudeDegrees>40.7548253796994686126708984375</LatitudeDegrees>
              <LongitudeDegrees>-4.07371063716709613800048828125</LongitudeDegrees>
            </Position>
            <AltitudeMeters>1279.800048828125</AltitudeMeters>
            <DistanceMeters>2973.2101120106</DistanceMeters>
          </Trackpoint>
          <Trackpoint>
            <Time>2018-12-30T09:36:43.000Z</Time>
            <Position>
              <LatitudeDegrees>40.7548334263265132904052734375</LatitudeDegrees>
              <LongitudeDegrees>-4.0737177617847919464111328125</LongitudeDegrees>
            </Position>
            <AltitudeMeters>1280</AltitudeMeters>
            <DistanceMeters>2974.2894080132</DistanceMeters>
          </Trackpoint>
          <Trackpoint>
            <Time>2018-12-30T09:36:44.000Z</Time>
            <Position>
              <LatitudeDegrees>40.75483988039195537567138671875</LatitudeDegrees>
              <LongitudeDegrees>-4.07373301684856414794921875</LongitudeDegrees>
            </Position>
            <AltitudeMeters>1280.199951171875</AltitudeMeters>
            <DistanceMeters>2975.761555542</DistanceMeters>
          </Trackpoint>
          <Trackpoint>
            <Time>2018-12-30T09:36:45.000Z</Time>
            <Position>
              <LatitudeDegrees>40.75484893284738063812255859375</LatitudeDegrees>
              <LongitudeDegrees>-4.07375254668295383453369140625</LongitudeDegrees>
            </Position>
            <AltitudeMeters>1280.4000244140625</AltitudeMeters>
            <DistanceMeters>2977.6927265783</DistanceMeters>
          </Trackpoint>
          <Trackpoint>
            <Time>2018-12-30T09:36:46.000Z</Time>
            <Position>
              <LatitudeDegrees>40.7548555545508861541748046875</LatitudeDegrees>
              <LongitudeDegrees>-4.073764197528362274169921875</LongitudeDegrees>
            </Position>
            <AltitudeMeters>1280.800048828125</AltitudeMeters>
            <DistanceMeters>2978.9244135688</DistanceMeters>
          </Trackpoint>
          <Trackpoint>
            <Time>2018-12-30T09:36:47.000Z</Time>
            <Position>
              <LatitudeDegrees>40.754867456853389739990234375</LatitudeDegrees>
              <LongitudeDegrees>-4.07377735711634159088134765625</LongitudeDegrees>
            </Position>
            <AltitudeMeters>1281</AltitudeMeters>
            <DistanceMeters>2980.6558827079</DistanceMeters>
          </Trackpoint>
          <Trackpoint>
            <Time>2018-12-30T09:36:48.000Z</Time>
            <Position>
              <LatitudeDegrees>40.7548817060887813568115234375</LatitudeDegrees>
              <LongitudeDegrees>-4.073783643543720245361328125</LongitudeDegrees>
            </Position>
            <AltitudeMeters>1281.199951171875</AltitudeMeters>
            <DistanceMeters>2982.3290006647</DistanceMeters>
          </Trackpoint>
          <Trackpoint>
            <Time>2018-12-30T09:36:49.000Z</Time>
            <Position>
              <LatitudeDegrees>40.75489117763936519622802734375</LatitudeDegrees>
              <LongitudeDegrees>-4.073790013790130615234375</LongitudeDegrees>
            </Position>
            <AltitudeMeters>1281.199951171875</AltitudeMeters>
            <DistanceMeters>2983.5082511777</DistanceMeters>
          </Trackpoint>
          <Trackpoint>
            <Time>2018-12-30T09:36:50.000Z</Time>
            <Position>
              <LatitudeDegrees>40.754899643361568450927734375</LatitudeDegrees>
              <LongitudeDegrees>-4.07379780896008014678955078125</LongitudeDegrees>
            </Position>
            <AltitudeMeters>1281.4000244140625</AltitudeMeters>
            <DistanceMeters>2984.6564633362</DistanceMeters>
          </Trackpoint>
          <Trackpoint>
            <Time>2018-12-30T09:36:51.000Z</Time>
            <Position>
              <LatitudeDegrees>40.7549058459699153900146484375</LatitudeDegrees>
              <LongitudeDegrees>-4.0738082863390445709228515625</LongitudeDegrees>
            </Position>
            <AltitudeMeters>1281.4000244140625</AltitudeMeters>
            <DistanceMeters>2985.7808345836</DistanceMeters>
          </Trackpoint>
          <Trackpoint>
            <Time>2018-12-30T09:36:52.000Z</Time>
            <Position>
              <LatitudeDegrees>40.7549165748059749603271484375</LatitudeDegrees>
              <LongitudeDegrees>-4.07382412813603878021240234375</LongitudeDegrees>
            </Position>
            <AltitudeMeters>1281.4000244140625</AltitudeMeters>
            <DistanceMeters>2987.5737950445</DistanceMeters>
          </Trackpoint>
          <Trackpoint>
            <Time>2018-12-30T09:36:53.000Z</Time>
            <Position>
              <LatitudeDegrees>40.75493291951715946197509765625</LatitudeDegrees>
              <LongitudeDegrees>-4.073835276067256927490234375</LongitudeDegrees>
            </Position>
            <AltitudeMeters>1281.5999755859375</AltitudeMeters>
            <DistanceMeters>2989.6207331163</DistanceMeters>
          </Trackpoint>
          <Trackpoint>
            <Time>2018-12-30T09:36:54.000Z</Time>
            <Position>
              <LatitudeDegrees>40.75494750402867794036865234375</LatitudeDegrees>
              <LongitudeDegrees>-4.073844663798809051513671875</LongitudeDegrees>
            </Position>
            <AltitudeMeters>1282</AltitudeMeters>
            <DistanceMeters>2991.4262406893</DistanceMeters>
          </Trackpoint>
          <Trackpoint>
            <Time>2018-12-30T09:36:55.000Z</Time>
            <Position>
              <LatitudeDegrees>40.75495965778827667236328125</LatitudeDegrees>
              <LongitudeDegrees>-4.0738565661013126373291015625</LongitudeDegrees>
            </Position>
            <AltitudeMeters>1282.4000244140625</AltitudeMeters>
            <DistanceMeters>2993.1101183581</DistanceMeters>
          </Trackpoint>
          <Trackpoint>
            <Time>2018-12-30T09:36:56.000Z</Time>
            <Position>
              <LatitudeDegrees>40.75497499667108058929443359375</LatitudeDegrees>
              <LongitudeDegrees>-4.073876179754734039306640625</LongitudeDegrees>
            </Position>
            <AltitudeMeters>1282.800048828125</AltitudeMeters>
            <DistanceMeters>2995.487685992</DistanceMeters>
          </Trackpoint>
          <Trackpoint>
            <Time>2018-12-30T09:36:57.000Z</Time>
            <Position>
              <LatitudeDegrees>40.75497499667108058929443359375</LatitudeDegrees>
              <LongitudeDegrees>-4.073876179754734039306640625</LongitudeDegrees>
            </Position>
            <AltitudeMeters>1283.199951171875</AltitudeMeters>
            <DistanceMeters>2995.487685992</DistanceMeters>
          </Trackpoint>
          <Trackpoint>
            <Time>2018-12-30T09:36:58.000Z</Time>
            <Position>
              <LatitudeDegrees>40.75498203746974468231201171875</LatitudeDegrees>
              <LongitudeDegrees>-4.07389051280915737152099609375</LongitudeDegrees>
            </Position>
            <AltitudeMeters>1283.5999755859375</AltitudeMeters>
            <DistanceMeters>2996.9288374699</DistanceMeters>
          </Trackpoint>
          <Trackpoint>
            <Time>2018-12-30T09:36:59.000Z</Time>
            <Position>
              <LatitudeDegrees>40.7550024054944515228271484375</LatitudeDegrees>
              <LongitudeDegrees>-4.07391599379479885101318359375</LongitudeDegrees>
            </Position>
            <AltitudeMeters>1283.800048828125</AltitudeMeters>
            <DistanceMeters>3000.0517339715</DistanceMeters>
          </Trackpoint>
          <Trackpoint>
            <Time>2018-12-30T09:37:00.000Z</Time>
            <Position>
              <LatitudeDegrees>40.75502227060496807098388671875</LatitudeDegrees>
              <LongitudeDegrees>-4.0739393793046474456787109375</LongitudeDegrees>
            </Position>
            <AltitudeMeters>1284</AltitudeMeters>
            <DistanceMeters>3003.0128493402</DistanceMeters>
          </Trackpoint>
          <Trackpoint>
            <Time>2018-12-30T09:37:01.000Z</Time>
            <Position>
              <LatitudeDegrees>40.755029730498790740966796875</LatitudeDegrees>
              <LongitudeDegrees>-4.07395404763519763946533203125</LongitudeDegrees>
            </Position>
            <AltitudeMeters>1284.4000244140625</AltitudeMeters>
            <DistanceMeters>3004.5032851172</DistanceMeters>
          </Trackpoint>
          <Trackpoint>
            <Time>2018-12-30T09:37:02.000Z</Time>
            <Position>
              <LatitudeDegrees>40.75503383763134479522705078125</LatitudeDegrees>
              <LongitudeDegrees>-4.07396896742284297943115234375</LongitudeDegrees>
            </Position>
            <AltitudeMeters>1284.5999755859375</AltitudeMeters>
            <DistanceMeters>3005.8404295132</DistanceMeters>
          </Trackpoint>
          <Trackpoint>
            <Time>2018-12-30T09:37:03.000Z</Time>
            <Position>
              <LatitudeDegrees>40.75504087843000888824462890625</LatitudeDegrees>
              <LongitudeDegrees>-4.07398589886724948883056640625</LongitudeDegrees>
            </Position>
            <AltitudeMeters>1285</AltitudeMeters>
            <DistanceMeters>3007.4670248526</DistanceMeters>
          </Trackpoint>
          <Trackpoint>
            <Time>2018-12-30T09:37:04.000Z</Time>
            <Position>
              <LatitudeDegrees>40.7550443150103092193603515625</LatitudeDegrees>
              <LongitudeDegrees>-4.07400165684521198272705078125</LongitudeDegrees>
            </Position>
            <AltitudeMeters>1285.199951171875</AltitudeMeters>
            <DistanceMeters>3008.8506346987</DistanceMeters>
          </Trackpoint>
          <Trackpoint>
            <Time>2018-12-30T09:37:05.000Z</Time>
            <Position>
              <LatitudeDegrees>40.755047835409641265869140625</LatitudeDegrees>
              <LongitudeDegrees>-4.07401624135673046112060546875</LongitudeDegrees>
            </Position>
            <AltitudeMeters>1285.4000244140625</AltitudeMeters>
            <DistanceMeters>3010.1466262953</DistanceMeters>
          </Trackpoint>
          <Trackpoint>
            <Time>2018-12-30T09:37:06.000Z</Time>
            <Position>
              <LatitudeDegrees>40.75504959560930728912353515625</LatitudeDegrees>
              <LongitudeDegrees>-4.07403032295405864715576171875</LongitudeDegrees>
            </Position>
            <AltitudeMeters>1285.5999755859375</AltitudeMeters>
            <DistanceMeters>3011.3486297192</DistanceMeters>
          </Trackpoint>
          <Trackpoint>
            <Time>2018-12-30T09:37:07.000Z</Time>
            <Position>
              <LatitudeDegrees>40.75505395419895648956298828125</LatitudeDegrees>
              <LongitudeDegrees>-4.07404306344687938690185546875</LongitudeDegrees>
            </Position>
            <AltitudeMeters>1285.800048828125</AltitudeMeters>
            <DistanceMeters>3012.5278802322</DistanceMeters>
          </Trackpoint>
          <Trackpoint>
            <Time>2018-12-30T09:37:08.000Z</Time>
            <Position>
              <LatitudeDegrees>40.7550594024360179901123046875</LatitudeDegrees>
              <LongitudeDegrees>-4.074059911072254180908203125</LongitudeDegrees>
            </Position>
            <AltitudeMeters>1286</AltitudeMeters>
            <DistanceMeters>3014.0718815862</DistanceMeters>
          </Trackpoint>
          <Trackpoint>
            <Time>2018-12-30T09:37:09.000Z</Time>
            <Position>
              <LatitudeDegrees>40.7550587318837642669677734375</LatitudeDegrees>
              <LongitudeDegrees>-4.0740691311657428741455078125</LongitudeDegrees>
            </Position>
            <AltitudeMeters>1286.199951171875</AltitudeMeters>
            <DistanceMeters>3014.8554919474</DistanceMeters>
          </Trackpoint>
          <Trackpoint>
            <Time>2018-12-30T09:37:10.000Z</Time>
            <Position>
              <LatitudeDegrees>40.75506049208343029022216796875</LatitudeDegrees>
              <LongitudeDegrees>-4.0740805305540561676025390625</LongitudeDegrees>
            </Position>
            <AltitudeMeters>1286.199951171875</AltitudeMeters>
            <DistanceMeters>3015.8338518521</DistanceMeters>
          </Trackpoint>
          <Trackpoint>
            <Time>2018-12-30T09:37:11.000Z</Time>
            <Position>
              <LatitudeDegrees>40.7550594024360179901123046875</LatitudeDegrees>
              <LongitudeDegrees>-4.0740895830094814300537109375</LongitudeDegrees>
            </Position>
            <AltitudeMeters>1286.4000244140625</AltitudeMeters>
            <DistanceMeters>3016.6058525291</DistanceMeters>
          </Trackpoint>
          <Trackpoint>
            <Time>2018-12-30T09:37:12.000Z</Time>
            <Position>
              <LatitudeDegrees>40.7550627551972866058349609375</LatitudeDegrees>
              <LongitudeDegrees>-4.07410374842584133148193359375</LongitudeDegrees>
            </Position>
            <AltitudeMeters>1286.800048828125</AltitudeMeters>
            <DistanceMeters>3017.8593409818</DistanceMeters>
          </Trackpoint>
          <Trackpoint>
            <Time>2018-12-30T09:37:13.000Z</Time>
            <Position>
              <LatitudeDegrees>40.75506602413952350616455078125</LatitudeDegrees>
              <LongitudeDegrees>-4.0741096995770931243896484375</LongitudeDegrees>
            </Position>
            <AltitudeMeters>1287</AltitudeMeters>
            <DistanceMeters>3018.4751844771</DistanceMeters>
          </Trackpoint>
          <Trackpoint>
            <Time>2018-12-30T09:37:14.000Z</Time>
            <Position>
              <LatitudeDegrees>40.7550671137869358062744140625</LatitudeDegrees>
              <LongitudeDegrees>-4.0741200931370258331298828125</LongitudeDegrees>
            </Position>
            <AltitudeMeters>1287.199951171875</AltitudeMeters>
            <DistanceMeters>3019.3666140745</DistanceMeters>
          </Trackpoint>
          <Trackpoint>
            <Time>2018-12-30T09:37:15.000Z</Time>
            <Position>
              <LatitudeDegrees>40.7550654374063014984130859375</LatitudeDegrees>
              <LongitudeDegrees>-4.07413400709629058837890625</LongitudeDegrees>
            </Position>
            <AltitudeMeters>1287.5999755859375</AltitudeMeters>
            <DistanceMeters>3020.5610813524</DistanceMeters>
          </Trackpoint>
          <Trackpoint>
            <Time>2018-12-30T09:37:16.000Z</Time>
            <Position>
              <LatitudeDegrees>40.75506669469177722930908203125</LatitudeDegrees>
              <LongitudeDegrees>-4.07415403984487056732177734375</LongitudeDegrees>
            </Position>
            <AltitudeMeters>1287.800048828125</AltitudeMeters>
            <DistanceMeters>3022.2556504154</DistanceMeters>
          </Trackpoint>
          <Trackpoint>
            <Time>2018-12-30T09:37:17.000Z</Time>
            <Position>
              <LatitudeDegrees>40.7550649344921112060546875</LatitudeDegrees>
              <LongitudeDegrees>-4.07416409812867641448974609375</LongitudeDegrees>
            </Position>
            <AltitudeMeters>1288</AltitudeMeters>
            <DistanceMeters>3023.1265846387</DistanceMeters>
          </Trackpoint>
          <Trackpoint>
            <Time>2018-12-30T09:37:18.000Z</Time>
            <Position>
              <LatitudeDegrees>40.755067951977252960205078125</LatitudeDegrees>
              <LongitudeDegrees>-4.0741767548024654388427734375</LongitudeDegrees>
            </Position>
            <AltitudeMeters>1288</AltitudeMeters>
            <DistanceMeters>3024.2388438139</DistanceMeters>
          </Trackpoint>
          <Trackpoint>
            <Time>2018-12-30T09:37:19.000Z</Time>
            <Position>
              <LatitudeDegrees>40.75506786815822124481201171875</LatitudeDegrees>
              <LongitudeDegrees>-4.0741871483623981475830078125</LongitudeDegrees>
            </Position>
            <AltitudeMeters>1288.199951171875</AltitudeMeters>
            <DistanceMeters>3025.1097780372</DistanceMeters>
          </Trackpoint>
          <Trackpoint>
            <Time>2018-12-30T09:37:20.000Z</Time>
            <Position>
              <LatitudeDegrees>40.755071304738521575927734375</LatitudeDegrees>
              <LongitudeDegrees>-4.07419578172266483306884765625</LongitudeDegrees>
            </Position>
            <AltitudeMeters>1288.4000244140625</AltitudeMeters>
            <DistanceMeters>3025.9382017269</DistanceMeters>
          </Trackpoint>
          <Trackpoint>
            <Time>2018-12-30T09:37:21.000Z</Time>
            <Position>
              <LatitudeDegrees>40.75506887398660182952880859375</LatitudeDegrees>
              <LongitudeDegrees>-4.07420667819678783416748046875</LongitudeDegrees>
            </Position>
            <AltitudeMeters>1288.5999755859375</AltitudeMeters>
            <DistanceMeters>3026.897924498</DistanceMeters>
          </Trackpoint>
          <Trackpoint>
            <Time>2018-12-30T09:37:22.000Z</Time>
            <Position>
              <LatitudeDegrees>40.75506904162466526031494140625</LatitudeDegrees>
              <LongitudeDegrees>-4.07421740703284740447998046875</LongitudeDegrees>
            </Position>
            <AltitudeMeters>1288.800048828125</AltitudeMeters>
            <DistanceMeters>3027.7994270659</DistanceMeters>
          </Trackpoint>
          <Trackpoint>
            <Time>2018-12-30T09:37:23.000Z</Time>
            <Position>
              <LatitudeDegrees>40.75506736524403095245361328125</LatitudeDegrees>
              <LongitudeDegrees>-4.07423132099211215972900390625</LongitudeDegrees>
            </Position>
            <AltitudeMeters>1289.199951171875</AltitudeMeters>
            <DistanceMeters>3028.9901083842</DistanceMeters>
          </Trackpoint>
          <Trackpoint>
            <Time>2018-12-30T09:37:24.000Z</Time>
            <Position>
              <LatitudeDegrees>40.7550677843391895294189453125</LatitudeDegrees>
              <LongitudeDegrees>-4.07424263656139373779296875</LongitudeDegrees>
            </Position>
            <AltitudeMeters>1289.199951171875</AltitudeMeters>
            <DistanceMeters>3029.9403755279</DistanceMeters>
          </Trackpoint>
          <Trackpoint>
            <Time>2018-12-30T09:37:25.000Z</Time>
            <Position>
              <LatitudeDegrees>40.75506652705371379852294921875</LatitudeDegrees>
              <LongitudeDegrees>-4.07425831072032451629638671875</LongitudeDegrees>
            </Position>
            <AltitudeMeters>1289.199951171875</AltitudeMeters>
            <DistanceMeters>3031.2639445023</DistanceMeters>
          </Trackpoint>
          <Trackpoint>
            <Time>2018-12-30T09:37:26.000Z</Time>
            <Position>
              <LatitudeDegrees>40.75507055036723613739013671875</LatitudeDegrees>
              <LongitudeDegrees>-4.07426887191832065582275390625</LongitudeDegrees>
            </Position>
            <AltitudeMeters>1289.4000244140625</AltitudeMeters>
            <DistanceMeters>3032.2605930908</DistanceMeters>
          </Trackpoint>
          <Trackpoint>
            <Time>2018-12-30T09:37:27.000Z</Time>
            <Position>
              <LatitudeDegrees>40.75507826171815395355224609375</LatitudeDegrees>
              <LongitudeDegrees>-4.074277170002460479736328125</LongitudeDegrees>
            </Position>
            <AltitudeMeters>1289.5999755859375</AltitudeMeters>
            <DistanceMeters>3033.3606068377</DistanceMeters>
          </Trackpoint>
          <Trackpoint>
            <Time>2018-12-30T09:37:28.000Z</Time>
            <Position>
              <LatitudeDegrees>40.75508412905037403106689453125</LatitudeDegrees>
              <LongitudeDegrees>-4.0742862224578857421875</LongitudeDegrees>
            </Position>
            <AltitudeMeters>1289.800048828125</AltitudeMeters>
            <DistanceMeters>3034.3662750543</DistanceMeters>
          </Trackpoint>
          <Trackpoint>
            <Time>2018-12-30T09:37:29.000Z</Time>
            <Position>
              <LatitudeDegrees>40.75509049929678440093994140625</LatitudeDegrees>
              <LongitudeDegrees>-4.0742954425513744354248046875</LongitudeDegrees>
            </Position>
            <AltitudeMeters>1289.800048828125</AltitudeMeters>
            <DistanceMeters>3035.4158794207</DistanceMeters>
          </Trackpoint>
          <Trackpoint>
            <Time>2018-12-30T09:37:30.000Z</Time>
            <Position>
              <LatitudeDegrees>40.755094103515148162841796875</LatitudeDegrees>
              <LongitudeDegrees>-4.074303321540355682373046875</LongitudeDegrees>
            </Position>
            <AltitudeMeters>1290</AltitudeMeters>
            <DistanceMeters>3036.1878800978</DistanceMeters>
          </Trackpoint>
          <Trackpoint>
            <Time>2018-12-30T09:37:31.000Z</Time>
            <Position>
              <LatitudeDegrees>40.75509376823902130126953125</LatitudeDegrees>
              <LongitudeDegrees>-4.074315726757049560546875</LongitudeDegrees>
            </Position>
            <AltitudeMeters>1290.199951171875</AltitudeMeters>
            <DistanceMeters>3037.2288455983</DistanceMeters>
          </Trackpoint>
          <Trackpoint>
            <Time>2018-12-30T09:37:32.000Z</Time>
            <Position>
              <LatitudeDegrees>40.75509536080062389373779296875</LatitudeDegrees>
              <LongitudeDegrees>-4.07432637177407741546630859375</LongitudeDegrees>
            </Position>
            <AltitudeMeters>1290.199951171875</AltitudeMeters>
            <DistanceMeters>3038.1403098229</DistanceMeters>
          </Trackpoint>
          <Trackpoint>
            <Time>2018-12-30T09:37:33.000Z</Time>
            <Position>
              <LatitudeDegrees>40.75509603135287761688232421875</LatitudeDegrees>
              <LongitudeDegrees>-4.07433341257274150848388671875</LongitudeDegrees>
            </Position>
            <AltitudeMeters>1290.4000244140625</AltitudeMeters>
            <DistanceMeters>3038.7413115349</DistanceMeters>
          </Trackpoint>
          <Trackpoint>
            <Time>2018-12-30T09:37:34.000Z</Time>
            <Position>
              <LatitudeDegrees>40.75510139577090740203857421875</LatitudeDegrees>
              <LongitudeDegrees>-4.07433609478175640106201171875</LongitudeDegrees>
            </Position>
            <AltitudeMeters>1290.199951171875</AltitudeMeters>
            <DistanceMeters>3039.385814069</DistanceMeters>
          </Trackpoint>
          <Trackpoint>
            <Time>2018-12-30T09:37:35.000Z</Time>
            <Position>
              <LatitudeDegrees>40.7551083527505397796630859375</LatitudeDegrees>
              <LongitudeDegrees>-4.0743390284478664398193359375</LongitudeDegrees>
            </Position>
            <AltitudeMeters>1290.199951171875</AltitudeMeters>
            <DistanceMeters>3040.1921424785</DistanceMeters>
          </Trackpoint>
          <Trackpoint>
            <Time>2018-12-30T09:37:36.000Z</Time>
            <Position>
              <LatitudeDegrees>40.75511564500629901885986328125</LatitudeDegrees>
              <LongitudeDegrees>-4.07434347085654735565185546875</LongitudeDegrees>
            </Position>
            <AltitudeMeters>1290.199951171875</AltitudeMeters>
            <DistanceMeters>3041.0784926636</DistanceMeters>
          </Trackpoint>
          <Trackpoint>
            <Time>2018-12-30T09:37:37.000Z</Time>
            <Position>
              <LatitudeDegrees>40.75512033887207508087158203125</LatitudeDegrees>
              <LongitudeDegrees>-4.0743507631123065948486328125</LongitudeDegrees>
            </Position>
            <AltitudeMeters>1290.199951171875</AltitudeMeters>
            <DistanceMeters>3041.884821073</DistanceMeters>
          </Trackpoint>
          <Trackpoint>
            <Time>2018-12-30T09:37:38.000Z</Time>
            <Position>
              <LatitudeDegrees>40.75512536801397800445556640625</LatitudeDegrees>
              <LongitudeDegrees>-4.07435931265354156494140625</LongitudeDegrees>
            </Position>
            <AltitudeMeters>1290.199951171875</AltitudeMeters>
            <DistanceMeters>3042.7962852977</DistanceMeters>
          </Trackpoint>
          <Trackpoint>
            <Time>2018-12-30T09:37:39.000Z</Time>
            <Position>
              <LatitudeDegrees>40.75512654148042201995849609375</LatitudeDegrees>
              <LongitudeDegrees>-4.07437247224152088165283203125</LongitudeDegrees>
            </Position>
            <AltitudeMeters>1290.199951171875</AltitudeMeters>
            <DistanceMeters>3043.9206565452</DistanceMeters>
          </Trackpoint>
          <Trackpoint>
            <Time>2018-12-30T09:37:40.000Z</Time>
            <Position>
              <LatitudeDegrees>40.755128972232341766357421875</LatitudeDegrees>
              <LongitudeDegrees>-4.07438839785754680633544921875</LongitudeDegrees>
            </Position>
            <AltitudeMeters>1290.199951171875</AltitudeMeters>
            <DistanceMeters>3045.29115131</DistanceMeters>
          </Trackpoint>
          <Trackpoint>
            <Time>2018-12-30T09:37:41.000Z</Time>
            <Position>
              <LatitudeDegrees>40.75514481402933597564697265625</LatitudeDegrees>
              <LongitudeDegrees>-4.07441454939544200897216796875</LongitudeDegrees>
            </Position>
            <AltitudeMeters>1290.4000244140625</AltitudeMeters>
            <DistanceMeters>3048.1133007432</DistanceMeters>
          </Trackpoint>
          <Trackpoint>
            <Time>2018-12-30T09:37:42.000Z</Time>
            <Position>
              <LatitudeDegrees>40.75515571050345897674560546875</LatitudeDegrees>
              <LongitudeDegrees>-4.0744312293827533721923828125</LongitudeDegrees>
            </Position>
            <AltitudeMeters>1290.4000244140625</AltitudeMeters>
            <DistanceMeters>3049.9705807979</DistanceMeters>
          </Trackpoint>
          <Trackpoint>
            <Time>2018-12-30T09:37:43.000Z</Time>
            <Position>
              <LatitudeDegrees>40.75517021119594573974609375</LatitudeDegrees>
              <LongitudeDegrees>-4.0744484961032867431640625</LongitudeDegrees>
            </Position>
            <AltitudeMeters>1290.4000244140625</AltitudeMeters>
            <DistanceMeters>3052.143765093</DistanceMeters>
          </Trackpoint>
          <Trackpoint>
            <Time>2018-12-30T09:37:44.000Z</Time>
            <Position>
              <LatitudeDegrees>40.755178928375244140625</LatitudeDegrees>
              <LongitudeDegrees>-4.07446651719510555267333984375</LongitudeDegrees>
            </Position>
            <AltitudeMeters>1290.4000244140625</AltitudeMeters>
            <DistanceMeters>3053.9467702288</DistanceMeters>
          </Trackpoint>
          <Trackpoint>
            <Time>2018-12-30T09:37:45.000Z</Time>
            <Position>
              <LatitudeDegrees>40.7551896572113037109375</LatitudeDegrees>
              <LongitudeDegrees>-4.07448244281113147735595703125</LongitudeDegrees>
            </Position>
            <AltitudeMeters>1290.4000244140625</AltitudeMeters>
            <DistanceMeters>3055.7447600416</DistanceMeters>
          </Trackpoint>
          <Trackpoint>
            <Time>2018-12-30T09:37:46.000Z</Time>
            <Position>
              <LatitudeDegrees>40.7551958598196506500244140625</LatitudeDegrees>
              <LongitudeDegrees>-4.0745007991790771484375</LongitudeDegrees>
            </Position>
            <AltitudeMeters>1290.4000244140625</AltitudeMeters>
            <DistanceMeters>3057.4366625898</DistanceMeters>
          </Trackpoint>
          <Trackpoint>
            <Time>2018-12-30T09:37:47.000Z</Time>
            <Position>
              <LatitudeDegrees>40.755208432674407958984375</LatitudeDegrees>
              <LongitudeDegrees>-4.07451228238642215728759765625</LongitudeDegrees>
            </Position>
            <AltitudeMeters>1290.4000244140625</AltitudeMeters>
            <DistanceMeters>3059.1392061395</DistanceMeters>
          </Trackpoint>
          <Trackpoint>
            <Time>2018-12-30T09:37:48.000Z</Time>
            <Position>
              <LatitudeDegrees>40.75521606020629405975341796875</LatitudeDegrees>
              <LongitudeDegrees>-4.07452485524117946624755859375</LongitudeDegrees>
            </Position>
            <AltitudeMeters>1290.5999755859375</AltitudeMeters>
            <DistanceMeters>3060.4964590985</DistanceMeters>
          </Trackpoint>
          <Trackpoint>
            <Time>2018-12-30T09:37:49.000Z</Time>
            <Position>
              <LatitudeDegrees>40.755225531756877899169921875</LatitudeDegrees>
              <LongitudeDegrees>-4.07453835010528564453125</LongitudeDegrees>
            </Position>
            <AltitudeMeters>1290.5999755859375</AltitudeMeters>
            <DistanceMeters>3062.0462979075</DistanceMeters>
          </Trackpoint>
          <Trackpoint>
            <Time>2018-12-30T09:37:50.000Z</Time>
            <Position>
              <LatitudeDegrees>40.75523181818425655364990234375</LatitudeDegrees>
              <LongitudeDegrees>-4.07455385662615299224853515625</LongitudeDegrees>
            </Position>
            <AltitudeMeters>1290.5999755859375</AltitudeMeters>
            <DistanceMeters>3063.5306626377</DistanceMeters>
          </Trackpoint>
          <Trackpoint>
            <Time>2018-12-30T09:37:51.000Z</Time>
            <Position>
              <LatitudeDegrees>40.75523885898292064666748046875</LatitudeDegrees>
              <LongitudeDegrees>-4.074562825262546539306640625</LongitudeDegrees>
            </Position>
            <AltitudeMeters>1290.800048828125</AltitudeMeters>
            <DistanceMeters>3064.6182930962</DistanceMeters>
          </Trackpoint>
          <Trackpoint>
            <Time>2018-12-30T09:37:52.000Z</Time>
            <Position>
              <LatitudeDegrees>40.7552481628954410552978515625</LatitudeDegrees>
              <LongitudeDegrees>-4.0745696984231472015380859375</LongitudeDegrees>
            </Position>
            <AltitudeMeters>1290.800048828125</AltitudeMeters>
            <DistanceMeters>3065.8013661492</DistanceMeters>
          </Trackpoint>
          <Trackpoint>
            <Time>2018-12-30T09:37:53.000Z</Time>
            <Position>
              <LatitudeDegrees>40.75525495223701000213623046875</LatitudeDegrees>
              <LongitudeDegrees>-4.074576906859874725341796875</LongitudeDegrees>
            </Position>
            <AltitudeMeters>1291</AltitudeMeters>
            <DistanceMeters>3066.770452291</DistanceMeters>
          </Trackpoint>
          <Trackpoint>
            <Time>2018-12-30T09:37:54.000Z</Time>
            <Position>
              <LatitudeDegrees>40.75526132248342037200927734375</LatitudeDegrees>
              <LongitudeDegrees>-4.07458436675369739532470703125</LongitudeDegrees>
            </Position>
            <AltitudeMeters>1291.199951171875</AltitudeMeters>
            <DistanceMeters>3067.7207194347</DistanceMeters>
          </Trackpoint>
          <Trackpoint>
            <Time>2018-12-30T09:37:55.000Z</Time>
            <Position>
              <LatitudeDegrees>40.75526786036789417266845703125</LatitudeDegrees>
              <LongitudeDegrees>-4.07459442503750324249267578125</LongitudeDegrees>
            </Position>
            <AltitudeMeters>1291.4000244140625</AltitudeMeters>
            <DistanceMeters>3068.8410678741</DistanceMeters>
          </Trackpoint>
          <Trackpoint>
            <Time>2018-12-30T09:37:56.000Z</Time>
            <Position>
              <LatitudeDegrees>40.7552753202617168426513671875</LatitudeDegrees>
              <LongitudeDegrees>-4.07459962181746959686279296875</LongitudeDegrees>
            </Position>
            <AltitudeMeters>1291.800048828125</AltitudeMeters>
            <DistanceMeters>3069.7769724713</DistanceMeters>
          </Trackpoint>
          <Trackpoint>
            <Time>2018-12-30T09:37:57.000Z</Time>
            <Position>
              <LatitudeDegrees>40.7552796788513660430908203125</LatitudeDegrees>
              <LongitudeDegrees>-4.0746109373867511749267578125</LongitudeDegrees>
            </Position>
            <AltitudeMeters>1292.199951171875</AltitudeMeters>
            <DistanceMeters>3070.8436446946</DistanceMeters>
          </Trackpoint>
          <Trackpoint>
            <Time>2018-12-30T09:37:58.000Z</Time>
            <Position>
              <LatitudeDegrees>40.7552790082991123199462890625</LatitudeDegrees>
              <LongitudeDegrees>-4.07461940310895442962646484375</LongitudeDegrees>
            </Position>
            <AltitudeMeters>1292.4000244140625</AltitudeMeters>
            <DistanceMeters>3071.5547595101</DistanceMeters>
          </Trackpoint>
          <Trackpoint>
            <Time>2018-12-30T09:37:59.000Z</Time>
            <Position>
              <LatitudeDegrees>40.755278505384922027587890625</LatitudeDegrees>
              <LongitudeDegrees>-4.0746310539543628692626953125</LongitudeDegrees>
            </Position>
            <AltitudeMeters>1292.800048828125</AltitudeMeters>
            <DistanceMeters>3072.5423060943</DistanceMeters>
          </Trackpoint>
          <Trackpoint>
            <Time>2018-12-30T09:38:00.000Z</Time>
            <Position>
              <LatitudeDegrees>40.7552830316126346588134765625</LatitudeDegrees>
              <LongitudeDegrees>-4.07464002259075641632080078125</LongitudeDegrees>
            </Position>
            <AltitudeMeters>1293.199951171875</AltitudeMeters>
            <DistanceMeters>3073.453770319</DistanceMeters>
          </Trackpoint>
          <Trackpoint>
            <Time>2018-12-30T09:38:01.000Z</Time>
            <Position>
              <LatitudeDegrees>40.75528965331614017486572265625</LatitudeDegrees>
              <LongitudeDegrees>-4.07464957796037197113037109375</LongitudeDegrees>
            </Position>
            <AltitudeMeters>1293.4000244140625</AltitudeMeters>
            <DistanceMeters>3074.5455441466</DistanceMeters>
          </Trackpoint>
          <Trackpoint>
            <Time>2018-12-30T09:38:02.000Z</Time>
            <Position>
              <LatitudeDegrees>40.75529250316321849822998046875</LatitudeDegrees>
              <LongitudeDegrees>-4.0746585465967655181884765625</LongitudeDegrees>
            </Position>
            <AltitudeMeters>1293.5999755859375</AltitudeMeters>
            <DistanceMeters>3075.3629948526</DistanceMeters>
          </Trackpoint>
          <Trackpoint>
            <Time>2018-12-30T09:38:03.000Z</Time>
            <Position>
              <LatitudeDegrees>40.75529518537223339080810546875</LatitudeDegrees>
              <LongitudeDegrees>-4.07467044889926910400390625</LongitudeDegrees>
            </Position>
            <AltitudeMeters>1293.800048828125</AltitudeMeters>
            <DistanceMeters>3076.4125992191</DistanceMeters>
          </Trackpoint>
          <Trackpoint>
            <Time>2018-12-30T09:38:04.000Z</Time>
            <Position>
              <LatitudeDegrees>40.75530390255153179168701171875</LatitudeDegrees>
              <LongitudeDegrees>-4.0746783278882503509521484375</LongitudeDegrees>
            </Position>
            <AltitudeMeters>1293.800048828125</AltitudeMeters>
            <DistanceMeters>3077.5918497321</DistanceMeters>
          </Trackpoint>
          <Trackpoint>
            <Time>2018-12-30T09:38:05.000Z</Time>
            <Position>
              <LatitudeDegrees>40.75530826114118099212646484375</LatitudeDegrees>
              <LongitudeDegrees>-4.07468796707689762115478515625</LongitudeDegrees>
            </Position>
            <AltitudeMeters>1293.800048828125</AltitudeMeters>
            <DistanceMeters>3078.5325662099</DistanceMeters>
          </Trackpoint>
          <Trackpoint>
            <Time>2018-12-30T09:38:06.000Z</Time>
            <Position>
              <LatitudeDegrees>40.7553081773221492767333984375</LatitudeDegrees>
              <LongitudeDegrees>-4.07469433732330799102783203125</LongitudeDegrees>
            </Position>
            <AltitudeMeters>1293.5999755859375</AltitudeMeters>
            <DistanceMeters>3079.0701184829</DistanceMeters>
          </Trackpoint>
          <Trackpoint>
            <Time>2018-12-30T09:38:07.000Z</Time>
            <Position>
              <LatitudeDegrees>40.7553135417401790618896484375</LatitudeDegrees>
              <LongitudeDegrees>-4.07470087520778179168701171875</LongitudeDegrees>
            </Position>
            <AltitudeMeters>1293.4000244140625</AltitudeMeters>
            <DistanceMeters>3079.8820270864</DistanceMeters>
          </Trackpoint>
          <Trackpoint>
            <Time>2018-12-30T09:38:08.000Z</Time>
            <Position>
              <LatitudeDegrees>40.7553222589194774627685546875</LatitudeDegrees>
              <LongitudeDegrees>-4.07470456324517726898193359375</LongitudeDegrees>
            </Position>
            <AltitudeMeters>1293.199951171875</AltitudeMeters>
            <DistanceMeters>3080.9010750691</DistanceMeters>
          </Trackpoint>
          <Trackpoint>
            <Time>2018-12-30T09:38:09.000Z</Time>
            <Position>
              <LatitudeDegrees>40.75534011237323284149169921875</LatitudeDegrees>
              <LongitudeDegrees>-4.07472367398440837860107421875</LongitudeDegrees>
            </Position>
            <AltitudeMeters>1293.199951171875</AltitudeMeters>
            <DistanceMeters>3083.4579824482</DistanceMeters>
          </Trackpoint>
          <Trackpoint>
            <Time>2018-12-30T09:38:10.000Z</Time>
            <Position>
              <LatitudeDegrees>40.75534011237323284149169921875</LatitudeDegrees>
              <LongitudeDegrees>-4.07472367398440837860107421875</LongitudeDegrees>
            </Position>
            <AltitudeMeters>1293.199951171875</AltitudeMeters>
            <DistanceMeters>3083.4579824482</DistanceMeters>
          </Trackpoint>
          <Trackpoint>
            <Time>2018-12-30T09:38:11.000Z</Time>
            <Position>
              <LatitudeDegrees>40.7553438842296600341796875</LatitudeDegrees>
              <LongitudeDegrees>-4.07472987659275531768798828125</LongitudeDegrees>
            </Position>
            <AltitudeMeters>1293.199951171875</AltitudeMeters>
            <DistanceMeters>3084.1299227894</DistanceMeters>
          </Trackpoint>
          <Trackpoint>
            <Time>2018-12-30T09:38:12.000Z</Time>
            <Position>
              <LatitudeDegrees>40.75534991919994354248046875</LatitudeDegrees>
              <LongitudeDegrees>-4.07473406754434108734130859375</LongitudeDegrees>
            </Position>
            <AltitudeMeters>1293.199951171875</AltitudeMeters>
            <DistanceMeters>3084.8901365044</DistanceMeters>
          </Trackpoint>
          <Trackpoint>
            <Time>2018-12-30T09:38:13.000Z</Time>
            <Position>
              <LatitudeDegrees>40.755353607237339019775390625</LatitudeDegrees>
              <LongitudeDegrees>-4.07473691739141941070556640625</LongitudeDegrees>
            </Position>
            <AltitudeMeters>1293.4000244140625</AltitudeMeters>
            <DistanceMeters>3085.3556704287</DistanceMeters>
          </Trackpoint>
          <Trackpoint>
            <Time>2018-12-30T09:38:14.000Z</Time>
            <Position>
              <LatitudeDegrees>40.755353607237339019775390625</LatitudeDegrees>
              <LongitudeDegrees>-4.07474110834300518035888671875</LongitudeDegrees>
            </Position>
            <AltitudeMeters>1293.4000244140625</AltitudeMeters>
            <DistanceMeters>3085.7112278364</DistanceMeters>
          </Trackpoint>
          <Trackpoint>
            <Time>2018-12-30T09:38:15.000Z</Time>
            <Position>
              <LatitudeDegrees>40.75534882955253124237060546875</LatitudeDegrees>
              <LongitudeDegrees>-4.07474823296070098876953125</LongitudeDegrees>
            </Position>
            <AltitudeMeters>1293.4000244140625</AltitudeMeters>
            <DistanceMeters>3086.5175562459</DistanceMeters>
          </Trackpoint>
          <Trackpoint>
            <Time>2018-12-30T09:38:16.000Z</Time>
            <Position>
              <LatitudeDegrees>40.75534128583967685699462890625</LatitudeDegrees>
              <LongitudeDegrees>-4.074761979281902313232421875</LongitudeDegrees>
            </Position>
            <AltitudeMeters>1293.4000244140625</AltitudeMeters>
            <DistanceMeters>3087.9524281668</DistanceMeters>
          </Trackpoint>
          <Trackpoint>
            <Time>2018-12-30T09:38:17.000Z</Time>
            <Position>
              <LatitudeDegrees>40.7553398609161376953125</LatitudeDegrees>
              <LongitudeDegrees>-4.07477497123181819915771484375</LongitudeDegrees>
            </Position>
            <AltitudeMeters>1293.199951171875</AltitudeMeters>
            <DistanceMeters>3089.0606205672</DistanceMeters>
          </Trackpoint>
          <Trackpoint>
            <Time>2018-12-30T09:38:18.000Z</Time>
            <Position>
              <LatitudeDegrees>40.75533944182097911834716796875</LatitudeDegrees>
              <LongitudeDegrees>-4.07479441724717617034912109375</LongitudeDegrees>
            </Position>
            <AltitudeMeters>1293</AltitudeMeters>
            <DistanceMeters>3090.7010359964</DistanceMeters>
          </Trackpoint>
          <Trackpoint>
            <Time>2018-12-30T09:38:19.000Z</Time>
            <Position>
              <LatitudeDegrees>40.755342207849025726318359375</LatitudeDegrees>
              <LongitudeDegrees>-4.074816294014453887939453125</LongitudeDegrees>
            </Position>
            <AltitudeMeters>1293</AltitudeMeters>
            <DistanceMeters>3092.5728451908</DistanceMeters>
          </Trackpoint>
          <Trackpoint>
            <Time>2018-12-30T09:38:20.000Z</Time>
            <Position>
              <LatitudeDegrees>40.7553385198116302490234375</LatitudeDegrees>
              <LongitudeDegrees>-4.0748320519924163818359375</LongitudeDegrees>
            </Position>
            <AltitudeMeters>1293</AltitudeMeters>
            <DistanceMeters>3093.9694469636</DistanceMeters>
          </Trackpoint>
          <Trackpoint>
            <Time>2018-12-30T09:38:21.000Z</Time>
            <Position>
              <LatitudeDegrees>40.75533307157456874847412109375</LatitudeDegrees>
              <LongitudeDegrees>-4.07484747469425201416015625</LongitudeDegrees>
            </Position>
            <AltitudeMeters>1293.199951171875</AltitudeMeters>
            <DistanceMeters>3095.4043188845</DistanceMeters>
          </Trackpoint>
          <Trackpoint>
            <Time>2018-12-30T09:38:22.000Z</Time>
            <Position>
              <LatitudeDegrees>40.7553326524794101715087890625</LatitudeDegrees>
              <LongitudeDegrees>-4.074861891567707061767578125</LongitudeDegrees>
            </Position>
            <AltitudeMeters>1293.4000244140625</AltitudeMeters>
            <DistanceMeters>3096.6212546004</DistanceMeters>
          </Trackpoint>
          <Trackpoint>
            <Time>2018-12-30T09:38:23.000Z</Time>
            <Position>
              <LatitudeDegrees>40.755340196192264556884765625</LatitudeDegrees>
              <LongitudeDegrees>-4.0748734585940837860107421875</LongitudeDegrees>
            </Position>
            <AltitudeMeters>1293.5999755859375</AltitudeMeters>
            <DistanceMeters>3097.9102596686</DistanceMeters>
          </Trackpoint>
          <Trackpoint>
            <Time>2018-12-30T09:38:24.000Z</Time>
            <Position>
              <LatitudeDegrees>40.75534614734351634979248046875</LatitudeDegrees>
              <LongitudeDegrees>-4.07488661818206310272216796875</LongitudeDegrees>
            </Position>
            <AltitudeMeters>1293.800048828125</AltitudeMeters>
            <DistanceMeters>3099.2062512652</DistanceMeters>
          </Trackpoint>
          <Trackpoint>
            <Time>2018-12-30T09:38:25.000Z</Time>
            <Position>
              <LatitudeDegrees>40.755360983312129974365234375</LatitudeDegrees>
              <LongitudeDegrees>-4.07489634118974208831787109375</LongitudeDegrees>
            </Position>
            <AltitudeMeters>1294</AltitudeMeters>
            <DistanceMeters>3101.053781751</DistanceMeters>
          </Trackpoint>
          <Trackpoint>
            <Time>2018-12-30T09:38:26.000Z</Time>
            <Position>
              <LatitudeDegrees>40.75537028722465038299560546875</LatitudeDegrees>
              <LongitudeDegrees>-4.0748925693333148956298828125</LongitudeDegrees>
            </Position>
            <AltitudeMeters>1294.199951171875</AltitudeMeters>
            <DistanceMeters>3102.1372529955</DistanceMeters>
          </Trackpoint>
          <Trackpoint>
            <Time>2018-12-30T09:38:27.000Z</Time>
            <Position>
              <LatitudeDegrees>40.7553765736520290374755859375</LatitudeDegrees>
              <LongitudeDegrees>-4.07489902339875698089599609375</LongitudeDegrees>
            </Position>
            <AltitudeMeters>1294.199951171875</AltitudeMeters>
            <DistanceMeters>3103.0236031806</DistanceMeters>
          </Trackpoint>
          <Trackpoint>
            <Time>2018-12-30T09:38:28.000Z</Time>
            <Position>
              <LatitudeDegrees>40.7553814351558685302734375</LatitudeDegrees>
              <LongitudeDegrees>-4.0749066509306430816650390625</LongitudeDegrees>
            </Position>
            <AltitudeMeters>1294.4000244140625</AltitudeMeters>
            <DistanceMeters>3103.8628563978</DistanceMeters>
          </Trackpoint>
          <Trackpoint>
            <Time>2018-12-30T09:38:29.000Z</Time>
            <Position>
              <LatitudeDegrees>40.7553876377642154693603515625</LatitudeDegrees>
              <LongitudeDegrees>-4.0749190561473369598388671875</LongitudeDegrees>
            </Position>
            <AltitudeMeters>1294.4000244140625</AltitudeMeters>
            <DistanceMeters>3105.1163448506</DistanceMeters>
          </Trackpoint>
          <Trackpoint>
            <Time>2018-12-30T09:38:30.000Z</Time>
            <Position>
              <LatitudeDegrees>40.75539057143032550811767578125</LatitudeDegrees>
              <LongitudeDegrees>-4.07493338920176029205322265625</LongitudeDegrees>
            </Position>
            <AltitudeMeters>1294.800048828125</AltitudeMeters>
            <DistanceMeters>3106.3698333034</DistanceMeters>
          </Trackpoint>
          <Trackpoint>
            <Time>2018-12-30T09:38:31.000Z</Time>
            <Position>
              <LatitudeDegrees>40.75539157725870609283447265625</LatitudeDegrees>
              <LongitudeDegrees>-4.07494763843715190887451171875</LongitudeDegrees>
            </Position>
            <AltitudeMeters>1295.199951171875</AltitudeMeters>
            <DistanceMeters>3107.5755871371</DistanceMeters>
          </Trackpoint>
          <Trackpoint>
            <Time>2018-12-30T09:38:32.000Z</Time>
            <Position>
              <LatitudeDegrees>40.7553886435925960540771484375</LatitudeDegrees>
              <LongitudeDegrees>-4.07496021129190921783447265625</LongitudeDegrees>
            </Position>
            <AltitudeMeters>1295.5999755859375</AltitudeMeters>
            <DistanceMeters>3108.6878463123</DistanceMeters>
          </Trackpoint>
          <Trackpoint>
            <Time>2018-12-30T09:38:33.000Z</Time>
            <Position>
              <LatitudeDegrees>40.75538654811680316925048828125</LatitudeDegrees>
              <LongitudeDegrees>-4.07497077248990535736083984375</LongitudeDegrees>
            </Position>
            <AltitudeMeters>1295.800048828125</AltitudeMeters>
            <DistanceMeters>3109.6091644906</DistanceMeters>
          </Trackpoint>
          <Trackpoint>
            <Time>2018-12-30T09:38:34.000Z</Time>
            <Position>
              <LatitudeDegrees>40.75538520701229572296142578125</LatitudeDegrees>
              <LongitudeDegrees>-4.07498183660209178924560546875</LongitudeDegrees>
            </Position>
            <AltitudeMeters>1296</AltitudeMeters>
            <DistanceMeters>3110.5498809684</DistanceMeters>
          </Trackpoint>
          <Trackpoint>
            <Time>2018-12-30T09:38:35.000Z</Time>
            <Position>
              <LatitudeDegrees>40.75538570992648601531982421875</LatitudeDegrees>
              <LongitudeDegrees>-4.07499005086719989776611328125</LongitudeDegrees>
            </Position>
            <AltitudeMeters>1296.199951171875</AltitudeMeters>
            <DistanceMeters>3111.2416858914</DistanceMeters>
          </Trackpoint>
          <Trackpoint>
            <Time>2018-12-30T09:38:36.000Z</Time>
            <Position>
              <LatitudeDegrees>40.75538503937423229217529296875</LatitudeDegrees>
              <LongitudeDegrees>-4.07500044442713260650634765625</LongitudeDegrees>
            </Position>
            <AltitudeMeters>1296</AltitudeMeters>
            <DistanceMeters>3112.1177889092</DistanceMeters>
          </Trackpoint>
          <Trackpoint>
            <Time>2018-12-30T09:38:37.000Z</Time>
            <Position>
              <LatitudeDegrees>40.75539551675319671630859375</LatitudeDegrees>
              <LongitudeDegrees>-4.0750139392912387847900390625</LongitudeDegrees>
            </Position>
            <AltitudeMeters>1296</AltitudeMeters>
            <DistanceMeters>3113.7443842486</DistanceMeters>
          </Trackpoint>
          <Trackpoint>
            <Time>2018-12-30T09:38:38.000Z</Time>
            <Position>
              <LatitudeDegrees>40.755401886999607086181640625</LatitudeDegrees>
              <LongitudeDegrees>-4.0750283561646938323974609375</LongitudeDegrees>
            </Position>
            <AltitudeMeters>1296</AltitudeMeters>
            <DistanceMeters>3115.1506512009</DistanceMeters>
          </Trackpoint>
          <Trackpoint>
            <Time>2018-12-30T09:38:39.000Z</Time>
            <Position>
              <LatitudeDegrees>40.7554067485034465789794921875</LatitudeDegrees>
              <LongitudeDegrees>-4.075042940676212310791015625</LongitudeDegrees>
            </Position>
            <AltitudeMeters>1296</AltitudeMeters>
            <DistanceMeters>3116.4911679715</DistanceMeters>
          </Trackpoint>
          <Trackpoint>
            <Time>2018-12-30T09:38:40.000Z</Time>
            <Position>
              <LatitudeDegrees>40.75540892779827117919921875</LatitudeDegrees>
              <LongitudeDegrees>-4.0750573575496673583984375</LongitudeDegrees>
            </Position>
            <AltitudeMeters>1296.199951171875</AltitudeMeters>
            <DistanceMeters>3117.7301647413</DistanceMeters>
          </Trackpoint>
          <Trackpoint>
            <Time>2018-12-30T09:38:41.000Z</Time>
            <Position>
              <LatitudeDegrees>40.75540767051279544830322265625</LatitudeDegrees>
              <LongitudeDegrees>-4.075070433318614959716796875</LongitudeDegrees>
            </Position>
            <AltitudeMeters>1296.5999755859375</AltitudeMeters>
            <DistanceMeters>3118.8424239165</DistanceMeters>
          </Trackpoint>
          <Trackpoint>
            <Time>2018-12-30T09:38:42.000Z</Time>
            <Position>
              <LatitudeDegrees>40.75540867634117603302001953125</LatitudeDegrees>
              <LongitudeDegrees>-4.075082838535308837890625</LongitudeDegrees>
            </Position>
            <AltitudeMeters>1296.800048828125</AltitudeMeters>
            <DistanceMeters>3119.8963211613</DistanceMeters>
          </Trackpoint>
          <Trackpoint>
            <Time>2018-12-30T09:38:43.000Z</Time>
            <Position>
              <LatitudeDegrees>40.75541253201663494110107421875</LatitudeDegrees>
              <LongitudeDegrees>-4.07509423792362213134765625</LongitudeDegrees>
            </Position>
            <AltitudeMeters>1297</AltitudeMeters>
            <DistanceMeters>3120.9544938689</DistanceMeters>
          </Trackpoint>
          <Trackpoint>
            <Time>2018-12-30T09:38:44.000Z</Time>
            <Position>
              <LatitudeDegrees>40.7554168067872524261474609375</LatitudeDegrees>
              <LongitudeDegrees>-4.0751094929873943328857421875</LongitudeDegrees>
            </Position>
            <AltitudeMeters>1297</AltitudeMeters>
            <DistanceMeters>3122.3249886337</DistanceMeters>
          </Trackpoint>
          <Trackpoint>
            <Time>2018-12-30T09:38:45.000Z</Time>
            <Position>
              <LatitudeDegrees>40.7554225064814090728759765625</LatitudeDegrees>
              <LongitudeDegrees>-4.0751249156892299652099609375</LongitudeDegrees>
            </Position>
            <AltitudeMeters>1297.199951171875</AltitudeMeters>
            <DistanceMeters>3123.7723924249</DistanceMeters>
          </Trackpoint>
          <Trackpoint>
            <Time>2018-12-30T09:38:46.000Z</Time>
            <Position>
              <LatitudeDegrees>40.7554272003471851348876953125</LatitudeDegrees>
              <LongitudeDegrees>-4.07513991929590702056884765625</LongitudeDegrees>
            </Position>
            <AltitudeMeters>1297.199951171875</AltitudeMeters>
            <DistanceMeters>3125.1428871897</DistanceMeters>
          </Trackpoint>
          <Trackpoint>
            <Time>2018-12-30T09:38:47.000Z</Time>
            <Position>
              <LatitudeDegrees>40.75543080456554889678955078125</LatitudeDegrees>
              <LongitudeDegrees>-4.075153581798076629638671875</LongitudeDegrees>
            </Position>
            <AltitudeMeters>1297.4000244140625</AltitudeMeters>
            <DistanceMeters>3126.3672207593</DistanceMeters>
          </Trackpoint>
          <Trackpoint>
            <Time>2018-12-30T09:38:48.000Z</Time>
            <Position>
              <LatitudeDegrees>40.75543398968875408172607421875</LatitudeDegrees>
              <LongitudeDegrees>-4.0751651488244533538818359375</LongitudeDegrees>
            </Position>
            <AltitudeMeters>1297.4000244140625</AltitudeMeters>
            <DistanceMeters>3127.4081862599</DistanceMeters>
          </Trackpoint>
          <Trackpoint>
            <Time>2018-12-30T09:38:49.000Z</Time>
            <Position>
              <LatitudeDegrees>40.75543298386037349700927734375</LatitudeDegrees>
              <LongitudeDegrees>-4.07517830841243267059326171875</LongitudeDegrees>
            </Position>
            <AltitudeMeters>1297.5999755859375</AltitudeMeters>
            <DistanceMeters>3128.5285346993</DistanceMeters>
          </Trackpoint>
          <Trackpoint>
            <Time>2018-12-30T09:38:50.000Z</Time>
            <Position>
              <LatitudeDegrees>40.75543264858424663543701171875</LatitudeDegrees>
              <LongitudeDegrees>-4.07519239000976085662841796875</LongitudeDegrees>
            </Position>
            <AltitudeMeters>1298</AltitudeMeters>
            <DistanceMeters>3129.7154179814</DistanceMeters>
          </Trackpoint>
          <Trackpoint>
            <Time>2018-12-30T09:38:51.000Z</Time>
            <Position>
              <LatitudeDegrees>40.755432732403278350830078125</LatitudeDegrees>
              <LongitudeDegrees>-4.07520496286451816558837890625</LongitudeDegrees>
            </Position>
            <AltitudeMeters>1298.199951171875</AltitudeMeters>
            <DistanceMeters>3130.7778489464</DistanceMeters>
          </Trackpoint>
          <Trackpoint>
            <Time>2018-12-30T09:38:52.000Z</Time>
            <Position>
              <LatitudeDegrees>40.75543264858424663543701171875</LatitudeDegrees>
              <LongitudeDegrees>-4.07521854154765605926513671875</LongitudeDegrees>
            </Position>
            <AltitudeMeters>1298.5999755859375</AltitudeMeters>
            <DistanceMeters>3131.922122115</DistanceMeters>
          </Trackpoint>
          <Trackpoint>
            <Time>2018-12-30T09:38:53.000Z</Time>
            <Position>
              <LatitudeDegrees>40.75543264858424663543701171875</LatitudeDegrees>
              <LongitudeDegrees>-4.075234048068523406982421875</LongitudeDegrees>
            </Position>
            <AltitudeMeters>1298.800048828125</AltitudeMeters>
            <DistanceMeters>3133.2285234499</DistanceMeters>
          </Trackpoint>
          <Trackpoint>
            <Time>2018-12-30T09:38:54.000Z</Time>
            <Position>
              <LatitudeDegrees>40.75543449260294437408447265625</LatitudeDegrees>
              <LongitudeDegrees>-4.075244776904582977294921875</LongitudeDegrees>
            </Position>
            <AltitudeMeters>1299</AltitudeMeters>
            <DistanceMeters>3134.1547292922</DistanceMeters>
          </Trackpoint>
          <Trackpoint>
            <Time>2018-12-30T09:38:55.000Z</Time>
            <Position>
              <LatitudeDegrees>40.75543784536421298980712890625</LatitudeDegrees>
              <LongitudeDegrees>-4.07525517046451568603515625</LongitudeDegrees>
            </Position>
            <AltitudeMeters>1299.4000244140625</AltitudeMeters>
            <DistanceMeters>3135.1049964359</DistanceMeters>
          </Trackpoint>
          <Trackpoint>
            <Time>2018-12-30T09:38:56.000Z</Time>
            <Position>
              <LatitudeDegrees>40.75544958002865314483642578125</LatitudeDegrees>
              <LongitudeDegrees>-4.07527453266084194183349609375</LongitudeDegrees>
            </Position>
            <AltitudeMeters>1299.5999755859375</AltitudeMeters>
            <DistanceMeters>3137.195584152</DistanceMeters>
          </Trackpoint>
          <Trackpoint>
            <Time>2018-12-30T09:38:57.000Z</Time>
            <Position>
              <LatitudeDegrees>40.75544958002865314483642578125</LatitudeDegrees>
              <LongitudeDegrees>-4.07527453266084194183349609375</LongitudeDegrees>
            </Position>
            <AltitudeMeters>1299.800048828125</AltitudeMeters>
            <DistanceMeters>3137.195584152</DistanceMeters>
          </Trackpoint>
          <Trackpoint>
            <Time>2018-12-30T09:38:58.000Z</Time>
            <Position>
              <LatitudeDegrees>40.75545427389442920684814453125</LatitudeDegrees>
              <LongitudeDegrees>-4.0752865187823772430419921875</LongitudeDegrees>
            </Position>
            <AltitudeMeters>1300</AltitudeMeters>
            <DistanceMeters>3138.3359047244</DistanceMeters>
          </Trackpoint>
          <Trackpoint>
            <Time>2018-12-30T09:38:59.000Z</Time>
            <Position>
              <LatitudeDegrees>40.75545377098023891448974609375</LatitudeDegrees>
              <LongitudeDegrees>-4.07530051656067371368408203125</LongitudeDegrees>
            </Position>
            <AltitudeMeters>1300.199951171875</AltitudeMeters>
            <DistanceMeters>3139.5151552374</DistanceMeters>
          </Trackpoint>
          <Trackpoint>
            <Time>2018-12-30T09:39:00.000Z</Time>
            <Position>
              <LatitudeDegrees>40.75545527972280979156494140625</LatitudeDegrees>
              <LongitudeDegrees>-4.0753109939396381378173828125</LongitudeDegrees>
            </Position>
            <AltitudeMeters>1300.5999755859375</AltitudeMeters>
            <DistanceMeters>3140.4166578053</DistanceMeters>
          </Trackpoint>
          <Trackpoint>
            <Time>2018-12-30T09:39:01.000Z</Time>
            <Position>
              <LatitudeDegrees>40.75545276515185832977294921875</LatitudeDegrees>
              <LongitudeDegrees>-4.075324237346649169921875</LongitudeDegrees>
            </Position>
            <AltitudeMeters>1300.800048828125</AltitudeMeters>
            <DistanceMeters>3141.5687954869</DistanceMeters>
          </Trackpoint>
          <Trackpoint>
            <Time>2018-12-30T09:39:02.000Z</Time>
            <Position>
              <LatitudeDegrees>40.75545050203800201416015625</LatitudeDegrees>
              <LongitudeDegrees>-4.0753368102014064788818359375</LongitudeDegrees>
            </Position>
            <AltitudeMeters>1300.800048828125</AltitudeMeters>
            <DistanceMeters>3142.6605693145</DistanceMeters>
          </Trackpoint>
          <Trackpoint>
            <Time>2018-12-30T09:39:03.000Z</Time>
            <Position>
              <LatitudeDegrees>40.7554456405341625213623046875</LatitudeDegrees>
              <LongitudeDegrees>-4.07535030506551265716552734375</LongitudeDegrees>
            </Position>
            <AltitudeMeters>1301</AltitudeMeters>
            <DistanceMeters>3143.921241141</DistanceMeters>
          </Trackpoint>
          <Trackpoint>
            <Time>2018-12-30T09:39:04.000Z</Time>
            <Position>
              <LatitudeDegrees>40.75543616898357868194580078125</LatitudeDegrees>
              <LongitudeDegrees>-4.07536790706217288970947265625</LongitudeDegrees>
            </Position>
            <AltitudeMeters>1301.199951171875</AltitudeMeters>
            <DistanceMeters>3145.7416911005</DistanceMeters>
          </Trackpoint>
          <Trackpoint>
            <Time>2018-12-30T09:39:05.000Z</Time>
            <Position>
              <LatitudeDegrees>40.75543197803199291229248046875</LatitudeDegrees>
              <LongitudeDegrees>-4.0753840841352939605712890625</LongitudeDegrees>
            </Position>
            <AltitudeMeters>1301.199951171875</AltitudeMeters>
            <DistanceMeters>3147.1828425783</DistanceMeters>
          </Trackpoint>
          <Trackpoint>
            <Time>2018-12-30T09:39:06.000Z</Time>
            <Position>
              <LatitudeDegrees>40.7554352469742298126220703125</LatitudeDegrees>
              <LongitudeDegrees>-4.0753958187997341156005859375</LongitudeDegrees>
            </Position>
            <AltitudeMeters>1301.4000244140625</AltitudeMeters>
            <DistanceMeters>3148.2324469448</DistanceMeters>
          </Trackpoint>
          <Trackpoint>
            <Time>2018-12-30T09:39:07.000Z</Time>
            <Position>
              <LatitudeDegrees>40.7554375939071178436279296875</LatitudeDegrees>
              <LongitudeDegrees>-4.07540495507419109344482421875</LongitudeDegrees>
            </Position>
            <AltitudeMeters>1301.5999755859375</AltitudeMeters>
            <DistanceMeters>3149.0498976509</DistanceMeters>
          </Trackpoint>
          <Trackpoint>
            <Time>2018-12-30T09:39:08.000Z</Time>
            <Position>
              <LatitudeDegrees>40.7554359175264835357666015625</LatitudeDegrees>
              <LongitudeDegrees>-4.07541836611926555633544921875</LongitudeDegrees>
            </Position>
            <AltitudeMeters>1301.800048828125</AltitudeMeters>
            <DistanceMeters>3150.1981098093</DistanceMeters>
          </Trackpoint>
          <Trackpoint>
            <Time>2018-12-30T09:39:09.000Z</Time>
            <Position>
              <LatitudeDegrees>40.75543466024100780487060546875</LatitudeDegrees>
              <LongitudeDegrees>-4.0754301846027374267578125</LongitudeDegrees>
            </Position>
            <AltitudeMeters>1302</AltitudeMeters>
            <DistanceMeters>3151.2037780258</DistanceMeters>
          </Trackpoint>
          <Trackpoint>
            <Time>2018-12-30T09:39:10.000Z</Time>
            <Position>
              <LatitudeDegrees>40.75543482787907123565673828125</LatitudeDegrees>
              <LongitudeDegrees>-4.0754390694200992584228515625</LongitudeDegrees>
            </Position>
            <AltitudeMeters>1302.199951171875</AltitudeMeters>
            <DistanceMeters>3151.952019123</DistanceMeters>
          </Trackpoint>
          <Trackpoint>
            <Time>2018-12-30T09:39:11.000Z</Time>
            <Position>
              <LatitudeDegrees>40.75543432496488094329833984375</LatitudeDegrees>
              <LongitudeDegrees>-4.075451306998729705810546875</LongitudeDegrees>
            </Position>
            <AltitudeMeters>1302.4000244140625</AltitudeMeters>
            <DistanceMeters>3152.984273462</DistanceMeters>
          </Trackpoint>
          <Trackpoint>
            <Time>2018-12-30T09:39:12.000Z</Time>
            <Position>
              <LatitudeDegrees>40.75543315149843692779541015625</LatitudeDegrees>
              <LongitudeDegrees>-4.07546781934797763824462890625</LongitudeDegrees>
            </Position>
            <AltitudeMeters>1302.4000244140625</AltitudeMeters>
            <DistanceMeters>3154.3841043762</DistanceMeters>
          </Trackpoint>
          <Trackpoint>
            <Time>2018-12-30T09:39:13.000Z</Time>
            <Position>
              <LatitudeDegrees>40.75543164275586605072021484375</LatitudeDegrees>
              <LongitudeDegrees>-4.07547938637435436248779296875</LongitudeDegrees>
            </Position>
            <AltitudeMeters>1302.5999755859375</AltitudeMeters>
            <DistanceMeters>3155.3762124008</DistanceMeters>
          </Trackpoint>
          <Trackpoint>
            <Time>2018-12-30T09:39:14.000Z</Time>
            <Position>
              <LatitudeDegrees>40.7554332353174686431884765625</LatitudeDegrees>
              <LongitudeDegrees>-4.07548525370657444000244140625</LongitudeDegrees>
            </Position>
            <AltitudeMeters>1302.5999755859375</AltitudeMeters>
            <DistanceMeters>3155.896695151</DistanceMeters>
          </Trackpoint>
          <Trackpoint>
            <Time>2018-12-30T09:39:15.000Z</Time>
            <Position>
              <LatitudeDegrees>40.7554325647652149200439453125</LatitudeDegrees>
              <LongitudeDegrees>-4.0754918754100799560546875</LongitudeDegrees>
            </Position>
            <AltitudeMeters>1302.800048828125</AltitudeMeters>
            <DistanceMeters>3156.4588807748</DistanceMeters>
          </Trackpoint>
          <Trackpoint>
            <Time>2018-12-30T09:39:16.000Z</Time>
            <Position>
              <LatitudeDegrees>40.75543264858424663543701171875</LatitudeDegrees>
              <LongitudeDegrees>-4.07550268806517124176025390625</LongitudeDegrees>
            </Position>
            <AltitudeMeters>1302.800048828125</AltitudeMeters>
            <DistanceMeters>3157.3703449994</DistanceMeters>
          </Trackpoint>
          <Trackpoint>
            <Time>2018-12-30T09:39:17.000Z</Time>
            <Position>
              <LatitudeDegrees>40.755436085164546966552734375</LatitudeDegrees>
              <LongitudeDegrees>-4.07551073469221591949462890625</LongitudeDegrees>
            </Position>
            <AltitudeMeters>1303</AltitudeMeters>
            <DistanceMeters>3158.1423456765</DistanceMeters>
          </Trackpoint>
          <Trackpoint>
            <Time>2018-12-30T09:39:18.000Z</Time>
            <Position>
              <LatitudeDegrees>40.75543918646872043609619140625</LatitudeDegrees>
              <LongitudeDegrees>-4.07552347518503665924072265625</LongitudeDegrees>
            </Position>
            <AltitudeMeters>1303.199951171875</AltitudeMeters>
            <DistanceMeters>3159.2707253903</DistanceMeters>
          </Trackpoint>
          <Trackpoint>
            <Time>2018-12-30T09:39:19.000Z</Time>
            <Position>
              <LatitudeDegrees>40.75544673018157482147216796875</LatitudeDegrees>
              <LongitudeDegrees>-4.07553303055465221405029296875</LongitudeDegrees>
            </Position>
            <AltitudeMeters>1303.199951171875</AltitudeMeters>
            <DistanceMeters>3160.434560201</DistanceMeters>
          </Trackpoint>
          <Trackpoint>
            <Time>2018-12-30T09:39:20.000Z</Time>
            <Position>
              <LatitudeDegrees>40.75545175932347774505615234375</LatitudeDegrees>
              <LongitudeDegrees>-4.07554325647652149200439453125</LongitudeDegrees>
            </Position>
            <AltitudeMeters>1303.4000244140625</AltitudeMeters>
            <DistanceMeters>3161.4624312746</DistanceMeters>
          </Trackpoint>
          <Trackpoint>
            <Time>2018-12-30T09:39:21.000Z</Time>
            <Position>
              <LatitudeDegrees>40.75545544736087322235107421875</LatitudeDegrees>
              <LongitudeDegrees>-4.07555297948420047760009765625</LongitudeDegrees>
            </Position>
            <AltitudeMeters>1303.5999755859375</AltitudeMeters>
            <DistanceMeters>3162.3837494529</DistanceMeters>
          </Trackpoint>
          <Trackpoint>
            <Time>2018-12-30T09:39:22.000Z</Time>
            <Position>
              <LatitudeDegrees>40.7554620690643787384033203125</LatitudeDegrees>
              <LongitudeDegrees>-4.07556203193962574005126953125</LongitudeDegrees>
            </Position>
            <AltitudeMeters>1303.800048828125</AltitudeMeters>
            <DistanceMeters>3163.4419221605</DistanceMeters>
          </Trackpoint>
          <Trackpoint>
            <Time>2018-12-30T09:39:23.000Z</Time>
            <Position>
              <LatitudeDegrees>40.75546483509242534637451171875</LatitudeDegrees>
              <LongitudeDegrees>-4.07557359896600246429443359375</LongitudeDegrees>
            </Position>
            <AltitudeMeters>1304.199951171875</AltitudeMeters>
            <DistanceMeters>3164.4653911964</DistanceMeters>
          </Trackpoint>
          <Trackpoint>
            <Time>2018-12-30T09:39:24.000Z</Time>
            <Position>
              <LatitudeDegrees>40.75546399690210819244384765625</LatitudeDegrees>
              <LongitudeDegrees>-4.07558684237301349639892578125</LongitudeDegrees>
            </Position>
            <AltitudeMeters>1304.5999755859375</AltitudeMeters>
            <DistanceMeters>3165.5857396358</DistanceMeters>
          </Trackpoint>
          <Trackpoint>
            <Time>2018-12-30T09:39:25.000Z</Time>
            <Position>
              <LatitudeDegrees>40.75546802021563053131103515625</LatitudeDegrees>
              <LongitudeDegrees>-4.075596146285533905029296875</LongitudeDegrees>
            </Position>
            <AltitudeMeters>1304.5999755859375</AltitudeMeters>
            <DistanceMeters>3166.4872422038</DistanceMeters>
          </Trackpoint>
          <Trackpoint>
            <Time>2018-12-30T09:39:26.000Z</Time>
            <Position>
              <LatitudeDegrees>40.7554727979004383087158203125</LatitudeDegrees>
              <LongitudeDegrees>-4.075604863464832305908203125</LongitudeDegrees>
            </Position>
            <AltitudeMeters>1304.800048828125</AltitudeMeters>
            <DistanceMeters>3167.3987064284</DistanceMeters>
          </Trackpoint>
          <Trackpoint>
            <Time>2018-12-30T09:39:27.000Z</Time>
            <Position>
              <LatitudeDegrees>40.75547573156654834747314453125</LatitudeDegrees>
              <LongitudeDegrees>-4.07561383210122585296630859375</LongitudeDegrees>
            </Position>
            <AltitudeMeters>1305.199951171875</AltitudeMeters>
            <DistanceMeters>3168.2161571345</DistanceMeters>
          </Trackpoint>
          <Trackpoint>
            <Time>2018-12-30T09:39:28.000Z</Time>
            <Position>
              <LatitudeDegrees>40.75547724030911922454833984375</LatitudeDegrees>
              <LongitudeDegrees>-4.07562305219471454620361328125</LongitudeDegrees>
            </Position>
            <AltitudeMeters>1305.4000244140625</AltitudeMeters>
            <DistanceMeters>3169.0112076682</DistanceMeters>
          </Trackpoint>
          <Trackpoint>
            <Time>2018-12-30T09:39:29.000Z</Time>
            <Position>
              <LatitudeDegrees>40.755482353270053863525390625</LatitudeDegrees>
              <LongitudeDegrees>-4.0756335295736789703369140625</LongitudeDegrees>
            </Position>
            <AltitudeMeters>1305.5999755859375</AltitudeMeters>
            <DistanceMeters>3170.065104913</DistanceMeters>
          </Trackpoint>
          <Trackpoint>
            <Time>2018-12-30T09:39:30.000Z</Time>
            <Position>
              <LatitudeDegrees>40.7554855383932590484619140625</LatitudeDegrees>
              <LongitudeDegrees>-4.07564233057200908660888671875</LongitudeDegrees>
            </Position>
            <AltitudeMeters>1305.5999755859375</AltitudeMeters>
            <DistanceMeters>3170.8880603998</DistanceMeters>
          </Trackpoint>
          <Trackpoint>
            <Time>2018-12-30T09:39:31.000Z</Time>
            <Position>
              <LatitudeDegrees>40.755486376583576202392578125</LatitudeDegrees>
              <LongitudeDegrees>-4.07566152513027191162109375</LongitudeDegrees>
            </Position>
            <AltitudeMeters>1305.800048828125</AltitudeMeters>
            <DistanceMeters>3172.5090947132</DistanceMeters>
          </Trackpoint>
          <Trackpoint>
            <Time>2018-12-30T09:39:32.000Z</Time>
            <Position>
              <LatitudeDegrees>40.75549014844000339508056640625</LatitudeDegrees>
              <LongitudeDegrees>-4.0756777860224246978759765625</LongitudeDegrees>
            </Position>
            <AltitudeMeters>1305.800048828125</AltitudeMeters>
            <DistanceMeters>3173.943966634</DistanceMeters>
          </Trackpoint>
          <Trackpoint>
            <Time>2018-12-30T09:39:33.000Z</Time>
            <Position>
              <LatitudeDegrees>40.75549199245870113372802734375</LatitudeDegrees>
              <LongitudeDegrees>-4.0756938792765140533447265625</LongitudeDegrees>
            </Position>
            <AltitudeMeters>1305.800048828125</AltitudeMeters>
            <DistanceMeters>3175.3177519072</DistanceMeters>
          </Trackpoint>
          <Trackpoint>
            <Time>2018-12-30T09:39:34.000Z</Time>
            <Position>
              <LatitudeDegrees>40.7554942555725574493408203125</LatitudeDegrees>
              <LongitudeDegrees>-4.07570804469287395477294921875</LongitudeDegrees>
            </Position>
            <AltitudeMeters>1306</AltitudeMeters>
            <DistanceMeters>3176.5420854768</DistanceMeters>
          </Trackpoint>
          <Trackpoint>
            <Time>2018-12-30T09:39:35.000Z</Time>
            <Position>
              <LatitudeDegrees>40.75549853034317493438720703125</LatitudeDegrees>
              <LongitudeDegrees>-4.07572095282375812530517578125</LongitudeDegrees>
            </Position>
            <AltitudeMeters>1306</AltitudeMeters>
            <DistanceMeters>3177.7327667951</DistanceMeters>
          </Trackpoint>
          <Trackpoint>
            <Time>2018-12-30T09:39:36.000Z</Time>
            <Position>
              <LatitudeDegrees>40.75549920089542865753173828125</LatitudeDegrees>
              <LongitudeDegrees>-4.07573469914495944976806640625</LongitudeDegrees>
            </Position>
            <AltitudeMeters>1306</AltitudeMeters>
            <DistanceMeters>3178.8966016058</DistanceMeters>
          </Trackpoint>
          <Trackpoint>
            <Time>2018-12-30T09:39:37.000Z</Time>
            <Position>
              <LatitudeDegrees>40.75550473295152187347412109375</LatitudeDegrees>
              <LongitudeDegrees>-4.07574794255197048187255859375</LongitudeDegrees>
            </Position>
            <AltitudeMeters>1306.199951171875</AltitudeMeters>
            <DistanceMeters>3180.1715187638</DistanceMeters>
          </Trackpoint>
          <Trackpoint>
            <Time>2018-12-30T09:39:38.000Z</Time>
            <Position>
              <LatitudeDegrees>40.755509175360202789306640625</LatitudeDegrees>
              <LongitudeDegrees>-4.07575900666415691375732421875</LongitudeDegrees>
            </Position>
            <AltitudeMeters>1306.4000244140625</AltitudeMeters>
            <DistanceMeters>3181.2211231303</DistanceMeters>
          </Trackpoint>
          <Trackpoint>
            <Time>2018-12-30T09:39:39.000Z</Time>
            <Position>
              <LatitudeDegrees>40.755512528121471405029296875</LatitudeDegrees>
              <LongitudeDegrees>-4.07577509991824626922607421875</LongitudeDegrees>
            </Position>
            <AltitudeMeters>1306.5999755859375</AltitudeMeters>
            <DistanceMeters>3182.624175754</DistanceMeters>
          </Trackpoint>
          <Trackpoint>
            <Time>2018-12-30T09:39:40.000Z</Time>
            <Position>
              <LatitudeDegrees>40.75551629997789859771728515625</LatitudeDegrees>
              <LongitudeDegrees>-4.07578817568719387054443359375</LongitudeDegrees>
            </Position>
            <AltitudeMeters>1307</AltitudeMeters>
            <DistanceMeters>3183.807248807</DistanceMeters>
          </Trackpoint>
          <Trackpoint>
            <Time>2018-12-30T09:39:41.000Z</Time>
            <Position>
              <LatitudeDegrees>40.75551797635853290557861328125</LatitudeDegrees>
              <LongitudeDegrees>-4.07579706050455570220947265625</LongitudeDegrees>
            </Position>
            <AltitudeMeters>1307.199951171875</AltitudeMeters>
            <DistanceMeters>3184.5792494841</DistanceMeters>
          </Trackpoint>
          <Trackpoint>
            <Time>2018-12-30T09:39:42.000Z</Time>
            <Position>
              <LatitudeDegrees>40.75552015565335750579833984375</LatitudeDegrees>
              <LongitudeDegrees>-4.0758072026073932647705078125</LongitudeDegrees>
            </Position>
            <AltitudeMeters>1307.4000244140625</AltitudeMeters>
            <DistanceMeters>3185.4706790814</DistanceMeters>
          </Trackpoint>
          <Trackpoint>
            <Time>2018-12-30T09:39:43.000Z</Time>
            <Position>
              <LatitudeDegrees>40.7555220834910869598388671875</LatitudeDegrees>
              <LongitudeDegrees>-4.07582136802375316619873046875</LongitudeDegrees>
            </Position>
            <AltitudeMeters>1307.5999755859375</AltitudeMeters>
            <DistanceMeters>3186.6838989545</DistanceMeters>
          </Trackpoint>
          <Trackpoint>
            <Time>2018-12-30T09:39:44.000Z</Time>
            <Position>
              <LatitudeDegrees>40.755525939166545867919921875</LatitudeDegrees>
              <LongitudeDegrees>-4.07583427615463733673095703125</LongitudeDegrees>
            </Position>
            <AltitudeMeters>1307.800048828125</AltitudeMeters>
            <DistanceMeters>3187.8554669719</DistanceMeters>
          </Trackpoint>
          <Trackpoint>
            <Time>2018-12-30T09:39:45.000Z</Time>
            <Position>
              <LatitudeDegrees>40.75552761554718017578125</LatitudeDegrees>
              <LongitudeDegrees>-4.07584483735263347625732421875</LongitudeDegrees>
            </Position>
            <AltitudeMeters>1308</AltitudeMeters>
            <DistanceMeters>3188.7669311966</DistanceMeters>
          </Trackpoint>
          <Trackpoint>
            <Time>2018-12-30T09:39:46.000Z</Time>
            <Position>
              <LatitudeDegrees>40.75552820228040218353271484375</LatitudeDegrees>
              <LongitudeDegrees>-4.07585422508418560028076171875</LongitudeDegrees>
            </Position>
            <AltitudeMeters>1308</AltitudeMeters>
            <DistanceMeters>3189.5619817302</DistanceMeters>
          </Trackpoint>
          <Trackpoint>
            <Time>2018-12-30T09:39:47.000Z</Time>
            <Position>
              <LatitudeDegrees>40.75552887283265590667724609375</LatitudeDegrees>
              <LongitudeDegrees>-4.07586495392024517059326171875</LongitudeDegrees>
            </Position>
            <AltitudeMeters>1308</AltitudeMeters>
            <DistanceMeters>3190.4734459549</DistanceMeters>
          </Trackpoint>
          <Trackpoint>
            <Time>2018-12-30T09:39:48.000Z</Time>
            <Position>
              <LatitudeDegrees>40.7555289566516876220703125</LatitudeDegrees>
              <LongitudeDegrees>-4.07587685622274875640869140625</LongitudeDegrees>
            </Position>
            <AltitudeMeters>1308.199951171875</AltitudeMeters>
            <DistanceMeters>3191.4746145148</DistanceMeters>
          </Trackpoint>
          <Trackpoint>
            <Time>2018-12-30T09:39:49.000Z</Time>
            <Position>
              <LatitudeDegrees>40.75552962720394134521484375</LatitudeDegrees>
              <LongitudeDegrees>-4.075888507068157196044921875</LongitudeDegrees>
            </Position>
            <AltitudeMeters>1308.4000244140625</AltitudeMeters>
            <DistanceMeters>3192.462161099</DistanceMeters>
          </Trackpoint>
          <Trackpoint>
            <Time>2018-12-30T09:39:50.000Z</Time>
            <Position>
              <LatitudeDegrees>40.755531303584575653076171875</LatitudeDegrees>
              <LongitudeDegrees>-4.07590233720839023590087890625</LongitudeDegrees>
            </Position>
            <AltitudeMeters>1308.800048828125</AltitudeMeters>
            <DistanceMeters>3193.6414116119</DistanceMeters>
          </Trackpoint>
          <Trackpoint>
            <Time>2018-12-30T09:39:51.000Z</Time>
            <Position>
              <LatitudeDegrees>40.75553272850811481475830078125</LatitudeDegrees>
              <LongitudeDegrees>-4.07591625116765499114990234375</LongitudeDegrees>
            </Position>
            <AltitudeMeters>1309.199951171875</AltitudeMeters>
            <DistanceMeters>3194.828294894</DistanceMeters>
          </Trackpoint>
          <Trackpoint>
            <Time>2018-12-30T09:39:52.000Z</Time>
            <Position>
              <LatitudeDegrees>40.75553457252681255340576171875</LatitudeDegrees>
              <LongitudeDegrees>-4.07592848874628543853759765625</LongitudeDegrees>
            </Position>
            <AltitudeMeters>1309.4000244140625</AltitudeMeters>
            <DistanceMeters>3195.8778992605</DistanceMeters>
          </Trackpoint>
          <Trackpoint>
            <Time>2018-12-30T09:39:53.000Z</Time>
            <Position>
              <LatitudeDegrees>40.75553725473582744598388671875</LatitudeDegrees>
              <LongitudeDegrees>-4.07594575546681880950927734375</LongitudeDegrees>
            </Position>
            <AltitudeMeters>1309.5999755859375</AltitudeMeters>
            <DistanceMeters>3197.3653026116</DistanceMeters>
          </Trackpoint>
          <Trackpoint>
            <Time>2018-12-30T09:39:54.000Z</Time>
            <Position>
              <LatitudeDegrees>40.7555391825735569000244140625</LatitudeDegrees>
              <LongitudeDegrees>-4.075955562293529510498046875</LongitudeDegrees>
            </Position>
            <AltitudeMeters>1309.5999755859375</AltitudeMeters>
            <DistanceMeters>3198.2152473836</DistanceMeters>
          </Trackpoint>
          <Trackpoint>
            <Time>2018-12-30T09:39:55.000Z</Time>
            <Position>
              <LatitudeDegrees>40.75553742237389087677001953125</LatitudeDegrees>
              <LongitudeDegrees>-4.07596067525446414947509765625</LongitudeDegrees>
            </Position>
            <AltitudeMeters>1309.800048828125</AltitudeMeters>
            <DistanceMeters>3198.6997904545</DistanceMeters>
          </Trackpoint>
          <Trackpoint>
            <Time>2018-12-30T09:39:56.000Z</Time>
            <Position>
              <LatitudeDegrees>40.755530633032321929931640625</LatitudeDegrees>
              <LongitudeDegrees>-4.075971655547618865966796875</LongitudeDegrees>
            </Position>
            <AltitudeMeters>1309.800048828125</AltitudeMeters>
            <DistanceMeters>3199.8942577325</DistanceMeters>
          </Trackpoint>
          <Trackpoint>
            <Time>2018-12-30T09:39:57.000Z</Time>
            <Position>
              <LatitudeDegrees>40.75552568770945072174072265625</LatitudeDegrees>
              <LongitudeDegrees>-4.075981713831424713134765625</LongitudeDegrees>
            </Position>
            <AltitudeMeters>1309.800048828125</AltitudeMeters>
            <DistanceMeters>3200.9088653978</DistanceMeters>
          </Trackpoint>
          <Trackpoint>
            <Time>2018-12-30T09:39:58.000Z</Time>
            <Position>
              <LatitudeDegrees>40.75552166439592838287353515625</LatitudeDegrees>
              <LongitudeDegrees>-4.07599101774394512176513671875</LongitudeDegrees>
            </Position>
            <AltitudeMeters>1310</AltitudeMeters>
            <DistanceMeters>3201.8103679657</DistanceMeters>
          </Trackpoint>
          <Trackpoint>
            <Time>2018-12-30T09:39:59.000Z</Time>
            <Position>
              <LatitudeDegrees>40.75551579706370830535888671875</LatitudeDegrees>
              <LongitudeDegrees>-4.07600057311356067657470703125</LongitudeDegrees>
            </Position>
            <AltitudeMeters>1310</AltitudeMeters>
            <DistanceMeters>3202.846987036</DistanceMeters>
          </Trackpoint>
          <Trackpoint>
            <Time>2018-12-30T09:40:00.000Z</Time>
            <Position>
              <LatitudeDegrees>40.7555147074162960052490234375</LatitudeDegrees>
              <LongitudeDegrees>-4.0760122239589691162109375</LongitudeDegrees>
            </Position>
            <AltitudeMeters>1310.199951171875</AltitudeMeters>
            <DistanceMeters>3203.8390950606</DistanceMeters>
          </Trackpoint>
          <Trackpoint>
            <Time>2018-12-30T09:40:01.000Z</Time>
            <Position>
              <LatitudeDegrees>40.75551345013082027435302734375</LatitudeDegrees>
              <LongitudeDegrees>-4.07602228224277496337890625</LongitudeDegrees>
            </Position>
            <AltitudeMeters>1310.4000244140625</AltitudeMeters>
            <DistanceMeters>3204.6995985576</DistanceMeters>
          </Trackpoint>
          <Trackpoint>
            <Time>2018-12-30T09:40:02.000Z</Time>
            <Position>
              <LatitudeDegrees>40.7555049844086170196533203125</LatitudeDegrees>
              <LongitudeDegrees>-4.07603929750621318817138671875</LongitudeDegrees>
            </Position>
            <AltitudeMeters>1310.4000244140625</AltitudeMeters>
            <DistanceMeters>3206.4153505562</DistanceMeters>
          </Trackpoint>
          <Trackpoint>
            <Time>2018-12-30T09:40:03.000Z</Time>
            <Position>
              <LatitudeDegrees>40.75550154782831668853759765625</LatitudeDegrees>
              <LongitudeDegrees>-4.0760563127696514129638671875</LongitudeDegrees>
            </Position>
            <AltitudeMeters>1310.5999755859375</AltitudeMeters>
            <DistanceMeters>3207.8997152864</DistanceMeters>
          </Trackpoint>
          <Trackpoint>
            <Time>2018-12-30T09:40:04.000Z</Time>
            <Position>
              <LatitudeDegrees>40.75550104491412639617919921875</LatitudeDegrees>
              <LongitudeDegrees>-4.0760685503482818603515625</LongitudeDegrees>
            </Position>
            <AltitudeMeters>1310.5999755859375</AltitudeMeters>
            <DistanceMeters>3208.9363343567</DistanceMeters>
          </Trackpoint>
          <Trackpoint>
            <Time>2018-12-30T09:40:05.000Z</Time>
            <Position>
              <LatitudeDegrees>40.7554986141622066497802734375</LatitudeDegrees>
              <LongitudeDegrees>-4.07608120702207088470458984375</LongitudeDegrees>
            </Position>
            <AltitudeMeters>1310.800048828125</AltitudeMeters>
            <DistanceMeters>3210.0363481036</DistanceMeters>
          </Trackpoint>
          <Trackpoint>
            <Time>2018-12-30T09:40:06.000Z</Time>
            <Position>
              <LatitudeDegrees>40.75550548732280731201171875</LatitudeDegrees>
              <LongitudeDegrees>-4.0760955400764942169189453125</LongitudeDegrees>
            </Position>
            <AltitudeMeters>1311</AltitudeMeters>
            <DistanceMeters>3211.4649128646</DistanceMeters>
          </Trackpoint>
          <Trackpoint>
            <Time>2018-12-30T09:40:07.000Z</Time>
            <Position>
              <LatitudeDegrees>40.75551210902631282806396484375</LatitudeDegrees>
              <LongitudeDegrees>-4.0761079452931880950927734375</LongitudeDegrees>
            </Position>
            <AltitudeMeters>1311.199951171875</AltitudeMeters>
            <DistanceMeters>3212.7398300227</DistanceMeters>
          </Trackpoint>
          <Trackpoint>
            <Time>2018-12-30T09:40:08.000Z</Time>
            <Position>
              <LatitudeDegrees>40.755519568920135498046875</LatitudeDegrees>
              <LongitudeDegrees>-4.0761213563382625579833984375</LongitudeDegrees>
            </Position>
            <AltitudeMeters>1311.199951171875</AltitudeMeters>
            <DistanceMeters>3214.1428826464</DistanceMeters>
          </Trackpoint>
          <Trackpoint>
            <Time>2018-12-30T09:40:09.000Z</Time>
            <Position>
              <LatitudeDegrees>40.75552384369075298309326171875</LatitudeDegrees>
              <LongitudeDegrees>-4.07613602466881275177001953125</LongitudeDegrees>
            </Position>
            <AltitudeMeters>1311.199951171875</AltitudeMeters>
            <DistanceMeters>3215.4664516208</DistanceMeters>
          </Trackpoint>
          <Trackpoint>
            <Time>2018-12-30T09:40:10.000Z</Time>
            <Position>
              <LatitudeDegrees>40.755531974136829376220703125</LatitudeDegrees>
              <LongitudeDegrees>-4.0761545486748218536376953125</LongitudeDegrees>
            </Position>
            <AltitudeMeters>1311.4000244140625</AltitudeMeters>
            <DistanceMeters>3217.2719591938</DistanceMeters>
          </Trackpoint>
          <Trackpoint>
            <Time>2018-12-30T09:40:11.000Z</Time>
            <Position>
              <LatitudeDegrees>40.75554035604000091552734375</LatitudeDegrees>
              <LongitudeDegrees>-4.07616971991956233978271484375</LongitudeDegrees>
            </Position>
            <AltitudeMeters>1311.5999755859375</AltitudeMeters>
            <DistanceMeters>3218.8535189224</DistanceMeters>
          </Trackpoint>
          <Trackpoint>
            <Time>2018-12-30T09:40:12.000Z</Time>
            <Position>
              <LatitudeDegrees>40.7555530965328216552734375</LatitudeDegrees>
              <LongitudeDegrees>-4.0761860646307468414306640625</LongitudeDegrees>
            </Position>
            <AltitudeMeters>1311.5999755859375</AltitudeMeters>
            <DistanceMeters>3220.8308967569</DistanceMeters>
          </Trackpoint>
          <Trackpoint>
            <Time>2018-12-30T09:40:13.000Z</Time>
            <Position>
              <LatitudeDegrees>40.75556240044534206390380859375</LatitudeDegrees>
              <LongitudeDegrees>-4.07619922421872615814208984375</LongitudeDegrees>
            </Position>
            <AltitudeMeters>1311.5999755859375</AltitudeMeters>
            <DistanceMeters>3222.3513241868</DistanceMeters>
          </Trackpoint>
          <Trackpoint>
            <Time>2018-12-30T09:40:14.000Z</Time>
            <Position>
              <LatitudeDegrees>40.7555727101862430572509765625</LatitudeDegrees>
              <LongitudeDegrees>-4.07622051425278186798095703125</LongitudeDegrees>
            </Position>
            <AltitudeMeters>1311.800048828125</AltitudeMeters>
            <DistanceMeters>3224.4804315995</DistanceMeters>
          </Trackpoint>
          <Trackpoint>
            <Time>2018-12-30T09:40:15.000Z</Time>
            <Position>
              <LatitudeDegrees>40.75558871962130069732666015625</LatitudeDegrees>
              <LongitudeDegrees>-4.07624482177197933197021484375</LongitudeDegrees>
            </Position>
            <AltitudeMeters>1312.199951171875</AltitudeMeters>
            <DistanceMeters>3227.1966003083</DistanceMeters>
          </Trackpoint>
          <Trackpoint>
            <Time>2018-12-30T09:40:16.000Z</Time>
            <Position>
              <LatitudeDegrees>40.7556018792092800140380859375</LatitudeDegrees>
              <LongitudeDegrees>-4.0762628428637981414794921875</LongitudeDegrees>
            </Position>
            <AltitudeMeters>1312.5999755859375</AltitudeMeters>
            <DistanceMeters>3229.3086745881</DistanceMeters>
          </Trackpoint>
          <Trackpoint>
            <Time>2018-12-30T09:40:17.000Z</Time>
            <Position>
              <LatitudeDegrees>40.755610428750514984130859375</LatitudeDegrees>
              <LongitudeDegrees>-4.07627977430820465087890625</LongitudeDegrees>
            </Position>
            <AltitudeMeters>1312.800048828125</AltitudeMeters>
            <DistanceMeters>3231.0244265867</DistanceMeters>
          </Trackpoint>
          <Trackpoint>
            <Time>2018-12-30T09:40:18.000Z</Time>
            <Position>
              <LatitudeDegrees>40.75561151839792728424072265625</LatitudeDegrees>
              <LongitudeDegrees>-4.0762990526854991912841796875</LongitudeDegrees>
            </Position>
            <AltitudeMeters>1313.199951171875</AltitudeMeters>
            <DistanceMeters>3232.6537953217</DistanceMeters>
          </Trackpoint>
          <Trackpoint>
            <Time>2018-12-30T09:40:19.000Z</Time>
            <Position>
              <LatitudeDegrees>40.7556159608066082000732421875</LatitudeDegrees>
              <LongitudeDegrees>-4.07631489448249340057373046875</LongitudeDegrees>
            </Position>
            <AltitudeMeters>1313.4000244140625</AltitudeMeters>
            <DistanceMeters>3234.0760249527</DistanceMeters>
          </Trackpoint>
          <Trackpoint>
            <Time>2018-12-30T09:40:20.000Z</Time>
            <Position>
              <LatitudeDegrees>40.7556183077394962310791015625</LatitudeDegrees>
              <LongitudeDegrees>-4.07632939517498016357421875</LongitudeDegrees>
            </Position>
            <AltitudeMeters>1313.4000244140625</AltitudeMeters>
            <DistanceMeters>3235.322288628</DistanceMeters>
          </Trackpoint>
          <Trackpoint>
            <Time>2018-12-30T09:40:21.000Z</Time>
            <Position>
              <LatitudeDegrees>40.7556240074336528778076171875</LatitudeDegrees>
              <LongitudeDegrees>-4.0763426385819911956787109375</LongitudeDegrees>
            </Position>
            <AltitudeMeters>1313.199951171875</AltitudeMeters>
            <DistanceMeters>3236.6042690931</DistanceMeters>
          </Trackpoint>
          <Trackpoint>
            <Time>2018-12-30T09:40:22.000Z</Time>
            <Position>
              <LatitudeDegrees>40.75563021004199981689453125</LatitudeDegrees>
              <LongitudeDegrees>-4.07635143958032131195068359375</LongitudeDegrees>
            </Position>
            <AltitudeMeters>1313</AltitudeMeters>
            <DistanceMeters>3237.6099373096</DistanceMeters>
          </Trackpoint>
          <Trackpoint>
            <Time>2018-12-30T09:40:23.000Z</Time>
            <Position>
              <LatitudeDegrees>40.7556290365755558013916015625</LatitudeDegrees>
              <LongitudeDegrees>-4.07636384479701519012451171875</LongitudeDegrees>
            </Position>
            <AltitudeMeters>1313</AltitudeMeters>
            <DistanceMeters>3238.6681100172</DistanceMeters>
          </Trackpoint>
          <Trackpoint>
            <Time>2018-12-30T09:40:24.000Z</Time>
            <Position>
              <LatitudeDegrees>40.7556357420980930328369140625</LatitudeDegrees>
              <LongitudeDegrees>-4.07637055031955242156982421875</LongitudeDegrees>
            </Position>
            <AltitudeMeters>1313.199951171875</AltitudeMeters>
            <DistanceMeters>3239.6088264949</DistanceMeters>
          </Trackpoint>
          <Trackpoint>
            <Time>2018-12-30T09:40:25.000Z</Time>
            <Position>
              <LatitudeDegrees>40.75563733465969562530517578125</LatitudeDegrees>
              <LongitudeDegrees>-4.07638312317430973052978515625</LongitudeDegrees>
            </Position>
            <AltitudeMeters>1313.199951171875</AltitudeMeters>
            <DistanceMeters>3240.6839310409</DistanceMeters>
          </Trackpoint>
          <Trackpoint>
            <Time>2018-12-30T09:40:26.000Z</Time>
            <Position>
              <LatitudeDegrees>40.755639933049678802490234375</LatitudeDegrees>
              <LongitudeDegrees>-4.0763966180384159088134765625</LongitudeDegrees>
            </Position>
            <AltitudeMeters>1313.199951171875</AltitudeMeters>
            <DistanceMeters>3241.8554990584</DistanceMeters>
          </Trackpoint>
          <Trackpoint>
            <Time>2018-12-30T09:40:27.000Z</Time>
            <Position>
              <LatitudeDegrees>40.75564739294350147247314453125</LatitudeDegrees>
              <LongitudeDegrees>-4.07641145400702953338623046875</LongitudeDegrees>
            </Position>
            <AltitudeMeters>1313.4000244140625</AltitudeMeters>
            <DistanceMeters>3243.3580033382</DistanceMeters>
          </Trackpoint>
          <Trackpoint>
            <Time>2018-12-30T09:40:28.000Z</Time>
            <Position>
              <LatitudeDegrees>40.75565342791378498077392578125</LatitudeDegrees>
              <LongitudeDegrees>-4.07642729580402374267578125</LongitudeDegrees>
            </Position>
            <AltitudeMeters>1313.5999755859375</AltitudeMeters>
            <DistanceMeters>3244.8514653838</DistanceMeters>
          </Trackpoint>
          <Trackpoint>
            <Time>2018-12-30T09:40:29.000Z</Time>
            <Position>
              <LatitudeDegrees>40.7556545175611972808837890625</LatitudeDegrees>
              <LongitudeDegrees>-4.0764440596103668212890625</LongitudeDegrees>
            </Position>
            <AltitudeMeters>1313.800048828125</AltitudeMeters>
            <DistanceMeters>3246.2673315394</DistanceMeters>
          </Trackpoint>
          <Trackpoint>
            <Time>2018-12-30T09:40:30.000Z</Time>
            <Position>
              <LatitudeDegrees>40.75565644539892673492431640625</LatitudeDegrees>
              <LongitudeDegrees>-4.07646040432155132293701171875</LongitudeDegrees>
            </Position>
            <AltitudeMeters>1313.800048828125</AltitudeMeters>
            <DistanceMeters>3247.6574525266</DistanceMeters>
          </Trackpoint>
          <Trackpoint>
            <Time>2018-12-30T09:40:31.000Z</Time>
            <Position>
              <LatitudeDegrees>40.75566130690276622772216796875</LatitudeDegrees>
              <LongitudeDegrees>-4.0764750726521015167236328125</LongitudeDegrees>
            </Position>
            <AltitudeMeters>1314</AltitudeMeters>
            <DistanceMeters>3249.0080358975</DistanceMeters>
          </Trackpoint>
          <Trackpoint>
            <Time>2018-12-30T09:40:32.000Z</Time>
            <Position>
              <LatitudeDegrees>40.755664072930812835693359375</LatitudeDegrees>
              <LongitudeDegrees>-4.076488316059112548828125</LongitudeDegrees>
            </Position>
            <AltitudeMeters>1314</AltitudeMeters>
            <DistanceMeters>3250.1640857726</DistanceMeters>
          </Trackpoint>
          <Trackpoint>
            <Time>2018-12-30T09:40:33.000Z</Time>
            <Position>
              <LatitudeDegrees>40.7556709460914134979248046875</LatitudeDegrees>
              <LongitudeDegrees>-4.07649971544742584228515625</LongitudeDegrees>
            </Position>
            <AltitudeMeters>1314.199951171875</AltitudeMeters>
            <DistanceMeters>3251.3921015567</DistanceMeters>
          </Trackpoint>
          <Trackpoint>
            <Time>2018-12-30T09:40:34.000Z</Time>
            <Position>
              <LatitudeDegrees>40.75567714869976043701171875</LatitudeDegrees>
              <LongitudeDegrees>-4.07650935463607311248779296875</LongitudeDegrees>
            </Position>
            <AltitudeMeters>1314.199951171875</AltitudeMeters>
            <DistanceMeters>3252.4545325218</DistanceMeters>
          </Trackpoint>
          <Trackpoint>
            <Time>2018-12-30T09:40:35.000Z</Time>
            <Position>
              <LatitudeDegrees>40.7556836865842342376708984375</LatitudeDegrees>
              <LongitudeDegrees>-4.07651874236762523651123046875</LongitudeDegrees>
            </Position>
            <AltitudeMeters>1314.199951171875</AltitudeMeters>
            <DistanceMeters>3253.525429206</DistanceMeters>
          </Trackpoint>
          <Trackpoint>
            <Time>2018-12-30T09:40:36.000Z</Time>
            <Position>
              <LatitudeDegrees>40.7556913979351520538330078125</LatitudeDegrees>
              <LongitudeDegrees>-4.076524861156940460205078125</LongitudeDegrees>
            </Position>
            <AltitudeMeters>1314.4000244140625</AltitudeMeters>
            <DistanceMeters>3254.5310974226</DistanceMeters>
          </Trackpoint>
          <Trackpoint>
            <Time>2018-12-30T09:40:37.000Z</Time>
            <Position>
              <LatitudeDegrees>40.75569667853415012359619140625</LatitudeDegrees>
              <LongitudeDegrees>-4.07653064467012882232666015625</LongitudeDegrees>
            </Position>
            <AltitudeMeters>1314.4000244140625</AltitudeMeters>
            <DistanceMeters>3255.2913111375</DistanceMeters>
          </Trackpoint>
          <Trackpoint>
            <Time>2018-12-30T09:40:38.000Z</Time>
            <Position>
              <LatitudeDegrees>40.755700282752513885498046875</LatitudeDegrees>
              <LongitudeDegrees>-4.07653835602104663848876953125</LongitudeDegrees>
            </Position>
            <AltitudeMeters>1314.4000244140625</AltitudeMeters>
            <DistanceMeters>3256.0515248525</DistanceMeters>
          </Trackpoint>
          <Trackpoint>
            <Time>2018-12-30T09:40:39.000Z</Time>
            <Position>
              <LatitudeDegrees>40.755705647170543670654296875</LatitudeDegrees>
              <LongitudeDegrees>-4.07654774375259876251220703125</LongitudeDegrees>
            </Position>
            <AltitudeMeters>1314.4000244140625</AltitudeMeters>
            <DistanceMeters>3257.0390714367</DistanceMeters>
          </Trackpoint>
          <Trackpoint>
            <Time>2018-12-30T09:40:40.000Z</Time>
            <Position>
              <LatitudeDegrees>40.75571193359792232513427734375</LatitudeDegrees>
              <LongitudeDegrees>-4.076557047665119171142578125</LongitudeDegrees>
            </Position>
            <AltitudeMeters>1314.5999755859375</AltitudeMeters>
            <DistanceMeters>3258.0886758032</DistanceMeters>
          </Trackpoint>
          <Trackpoint>
            <Time>2018-12-30T09:40:41.000Z</Time>
            <Position>
              <LatitudeDegrees>40.7557202316820621490478515625</LatitudeDegrees>
              <LongitudeDegrees>-4.0765629149973392486572265625</LongitudeDegrees>
            </Position>
            <AltitudeMeters>1315.199951171875</AltitudeMeters>
            <DistanceMeters>3259.1382801697</DistanceMeters>
          </Trackpoint>
          <Trackpoint>
            <Time>2018-12-30T09:40:42.000Z</Time>
            <Position>
              <LatitudeDegrees>40.75572920031845569610595703125</LatitudeDegrees>
              <LongitudeDegrees>-4.07656769268214702606201171875</LongitudeDegrees>
            </Position>
            <AltitudeMeters>1315.4000244140625</AltitudeMeters>
            <DistanceMeters>3260.2133847157</DistanceMeters>
          </Trackpoint>
          <Trackpoint>
            <Time>2018-12-30T09:40:43.000Z</Time>
            <Position>
              <LatitudeDegrees>40.7557423599064350128173828125</LatitudeDegrees>
              <LongitudeDegrees>-4.07657674513757228851318359375</LongitudeDegrees>
            </Position>
            <AltitudeMeters>1315.5999755859375</AltitudeMeters>
            <DistanceMeters>3261.8620365921</DistanceMeters>
          </Trackpoint>
          <Trackpoint>
            <Time>2018-12-30T09:40:44.000Z</Time>
            <Position>
              <LatitudeDegrees>40.7557500712573528289794921875</LatitudeDegrees>
              <LongitudeDegrees>-4.0765823610126972198486328125</LongitudeDegrees>
            </Position>
            <AltitudeMeters>1315.800048828125</AltitudeMeters>
            <DistanceMeters>3262.8403964967</DistanceMeters>
          </Trackpoint>
          <Trackpoint>
            <Time>2018-12-30T09:40:45.000Z</Time>
            <Position>
              <LatitudeDegrees>40.75575769878923892974853515625</LatitudeDegrees>
              <LongitudeDegrees>-4.07658529467880725860595703125</LongitudeDegrees>
            </Position>
            <AltitudeMeters>1315.800048828125</AltitudeMeters>
            <DistanceMeters>3263.7216379927</DistanceMeters>
          </Trackpoint>
          <Trackpoint>
            <Time>2018-12-30T09:40:46.000Z</Time>
            <Position>
              <LatitudeDegrees>40.75576457194983959197998046875</LatitudeDegrees>
              <LongitudeDegrees>-4.0765900723636150360107421875</LongitudeDegrees>
            </Position>
            <AltitudeMeters>1316</AltitudeMeters>
            <DistanceMeters>3264.5873725622</DistanceMeters>
          </Trackpoint>
          <Trackpoint>
            <Time>2018-12-30T09:40:47.000Z</Time>
            <Position>
              <LatitudeDegrees>40.755774043500423431396484375</LatitudeDegrees>
              <LongitudeDegrees>-4.07659493386745452880859375</LongitudeDegrees>
            </Position>
            <AltitudeMeters>1316</AltitudeMeters>
            <DistanceMeters>3265.719746553</DistanceMeters>
          </Trackpoint>
          <Trackpoint>
            <Time>2018-12-30T09:40:48.000Z</Time>
            <Position>
              <LatitudeDegrees>40.75577370822429656982421875</LatitudeDegrees>
              <LongitudeDegrees>-4.076597951352596282958984375</LongitudeDegrees>
            </Position>
            <AltitudeMeters>1316</AltitudeMeters>
            <DistanceMeters>3265.9711636071</DistanceMeters>
          </Trackpoint>
          <Trackpoint>
            <Time>2018-12-30T09:40:49.000Z</Time>
            <Position>
              <LatitudeDegrees>40.75577530078589916229248046875</LatitudeDegrees>
              <LongitudeDegrees>-4.0765996277332305908203125</LongitudeDegrees>
            </Position>
            <AltitudeMeters>1316</AltitudeMeters>
            <DistanceMeters>3266.2039305693</DistanceMeters>
          </Trackpoint>
          <Trackpoint>
            <Time>2018-12-30T09:40:50.000Z</Time>
            <Position>
              <LatitudeDegrees>40.75577949173748493194580078125</LatitudeDegrees>
              <LongitudeDegrees>-4.07660323195159435272216796875</LongitudeDegrees>
            </Position>
            <AltitudeMeters>1316.199951171875</AltitudeMeters>
            <DistanceMeters>3266.7580267695</DistanceMeters>
          </Trackpoint>
          <Trackpoint>
            <Time>2018-12-30T09:40:51.000Z</Time>
            <Position>
              <LatitudeDegrees>40.75578309595584869384765625</LatitudeDegrees>
              <LongitudeDegrees>-4.07660960219800472259521484375</LongitudeDegrees>
            </Position>
            <AltitudeMeters>1316.4000244140625</AltitudeMeters>
            <DistanceMeters>3267.4299671107</DistanceMeters>
          </Trackpoint>
          <Trackpoint>
            <Time>2018-12-30T09:40:52.000Z</Time>
            <Position>
              <LatitudeDegrees>40.75579374097287654876708984375</LatitudeDegrees>
              <LongitudeDegrees>-4.07661748118698596954345703125</LongitudeDegrees>
            </Position>
            <AltitudeMeters>1316.5999755859375</AltitudeMeters>
            <DistanceMeters>3268.7905426033</DistanceMeters>
          </Trackpoint>
          <Trackpoint>
            <Time>2018-12-30T09:40:53.000Z</Time>
            <Position>
              <LatitudeDegrees>40.75580245815217494964599609375</LatitudeDegrees>
              <LongitudeDegrees>-4.07661815173923969268798828125</LongitudeDegrees>
            </Position>
            <AltitudeMeters>1316.800048828125</AltitudeMeters>
            <DistanceMeters>3269.7642766669</DistanceMeters>
          </Trackpoint>
          <Trackpoint>
            <Time>2018-12-30T09:40:54.000Z</Time>
            <Position>
              <LatitudeDegrees>40.7558144442737102508544921875</LatitudeDegrees>
              <LongitudeDegrees>-4.076622091233730316162109375</LongitudeDegrees>
            </Position>
            <AltitudeMeters>1316.800048828125</AltitudeMeters>
            <DistanceMeters>3271.1380619401</DistanceMeters>
          </Trackpoint>
          <Trackpoint>
            <Time>2018-12-30T09:40:55.000Z</Time>
            <Position>
              <LatitudeDegrees>40.75582458637654781341552734375</LatitudeDegrees>
              <LongitudeDegrees>-4.07662175595760345458984375</LongitudeDegrees>
            </Position>
            <AltitudeMeters>1317</AltitudeMeters>
            <DistanceMeters>3272.2704359309</DistanceMeters>
          </Trackpoint>
          <Trackpoint>
            <Time>2018-12-30T09:40:56.000Z</Time>
            <Position>
              <LatitudeDegrees>40.7558288611471652984619140625</LatitudeDegrees>
              <LongitudeDegrees>-4.07661379314959049224853515625</LongitudeDegrees>
            </Position>
            <AltitudeMeters>1317</AltitudeMeters>
            <DistanceMeters>3273.0988596206</DistanceMeters>
          </Trackpoint>
          <Trackpoint>
            <Time>2018-12-30T09:40:57.000Z</Time>
            <Position>
              <LatitudeDegrees>40.75582944788038730621337890625</LatitudeDegrees>
              <LongitudeDegrees>-4.07660004682838916778564453125</LongitudeDegrees>
            </Position>
            <AltitudeMeters>1317</AltitudeMeters>
            <DistanceMeters>3274.2626944313</DistanceMeters>
          </Trackpoint>
          <Trackpoint>
            <Time>2018-12-30T09:40:58.000Z</Time>
            <Position>
              <LatitudeDegrees>40.755839087069034576416015625</LatitudeDegrees>
              <LongitudeDegrees>-4.07659987919032573699951171875</LongitudeDegrees>
            </Position>
            <AltitudeMeters>1317.199951171875</AltitudeMeters>
            <DistanceMeters>3275.3293666546</DistanceMeters>
          </Trackpoint>
          <Trackpoint>
            <Time>2018-12-30T09:40:59.000Z</Time>
            <Position>
              <LatitudeDegrees>40.75584319420158863067626953125</LatitudeDegrees>
              <LongitudeDegrees>-4.07659434713423252105712890625</LongitudeDegrees>
            </Position>
            <AltitudeMeters>1317.4000244140625</AltitudeMeters>
            <DistanceMeters>3275.9808369862</DistanceMeters>
          </Trackpoint>
          <Trackpoint>
            <Time>2018-12-30T09:41:00.000Z</Time>
            <Position>
              <LatitudeDegrees>40.7558462955057621002197265625</LatitudeDegrees>
              <LongitudeDegrees>-4.07659468241035938262939453125</LongitudeDegrees>
            </Position>
            <AltitudeMeters>1317.5999755859375</AltitudeMeters>
            <DistanceMeters>3276.3363943939</DistanceMeters>
          </Trackpoint>
          <Trackpoint>
            <Time>2018-12-30T09:41:01.000Z</Time>
            <Position>
              <LatitudeDegrees>40.7558459602296352386474609375</LatitudeDegrees>
              <LongitudeDegrees>-4.0765835344791412353515625</LongitudeDegrees>
            </Position>
            <AltitudeMeters>1317.5999755859375</AltitudeMeters>
            <DistanceMeters>3277.2866615376</DistanceMeters>
          </Trackpoint>
          <Trackpoint>
            <Time>2018-12-30T09:41:02.000Z</Time>
            <Position>
              <LatitudeDegrees>40.75584839098155498504638671875</LatitudeDegrees>
              <LongitudeDegrees>-4.07657389529049396514892578125</LongitudeDegrees>
            </Position>
            <AltitudeMeters>1317.5999755859375</AltitudeMeters>
            <DistanceMeters>3278.1471650347</DistanceMeters>
          </Trackpoint>
          <Trackpoint>
            <Time>2018-12-30T09:41:03.000Z</Time>
            <Position>
              <LatitudeDegrees>40.75585057027637958526611328125</LatitudeDegrees>
              <LongitudeDegrees>-4.07655947841703891754150390625</LongitudeDegrees>
            </Position>
            <AltitudeMeters>1317.800048828125</AltitudeMeters>
            <DistanceMeters>3279.3861618044</DistanceMeters>
          </Trackpoint>
          <Trackpoint>
            <Time>2018-12-30T09:41:04.000Z</Time>
            <Position>
              <LatitudeDegrees>40.75585744343698024749755859375</LatitudeDegrees>
              <LongitudeDegrees>-4.0765486657619476318359375</LongitudeDegrees>
            </Position>
            <AltitudeMeters>1318</AltitudeMeters>
            <DistanceMeters>3280.5730450865</DistanceMeters>
          </Trackpoint>
          <Trackpoint>
            <Time>2018-12-30T09:41:05.000Z</Time>
            <Position>
              <LatitudeDegrees>40.75586465187370777130126953125</LatitudeDegrees>
              <LongitudeDegrees>-4.0765458159148693084716796875</LongitudeDegrees>
            </Position>
            <AltitudeMeters>1318.5999755859375</AltitudeMeters>
            <DistanceMeters>3281.4069011209</DistanceMeters>
          </Trackpoint>
          <Trackpoint>
            <Time>2018-12-30T09:41:06.000Z</Time>
            <Position>
              <LatitudeDegrees>40.75586968101561069488525390625</LatitudeDegrees>
              <LongitudeDegrees>-4.07654807902872562408447265625</LongitudeDegrees>
            </Position>
            <AltitudeMeters>1318.800048828125</AltitudeMeters>
            <DistanceMeters>3282.000342762</DistanceMeters>
          </Trackpoint>
          <Trackpoint>
            <Time>2018-12-30T09:41:07.000Z</Time>
            <Position>
              <LatitudeDegrees>40.7558707706630229949951171875</LatitudeDegrees>
              <LongitudeDegrees>-4.07654933631420135498046875</LongitudeDegrees>
            </Position>
            <AltitudeMeters>1319</AltitudeMeters>
            <DistanceMeters>3282.1649338593</DistanceMeters>
          </Trackpoint>
          <Trackpoint>
            <Time>2018-12-30T09:41:08.000Z</Time>
            <Position>
              <LatitudeDegrees>40.75587001629173755645751953125</LatitudeDegrees>
              <LongitudeDegrees>-4.07655226998031139373779296875</LongitudeDegrees>
            </Position>
            <AltitudeMeters>1319.199951171875</AltitudeMeters>
            <DistanceMeters>3282.4337099958</DistanceMeters>
          </Trackpoint>
          <Trackpoint>
            <Time>2018-12-30T09:41:09.000Z</Time>
            <Position>
              <LatitudeDegrees>40.7558764703571796417236328125</LatitudeDegrees>
              <LongitudeDegrees>-4.076552689075469970703125</LongitudeDegrees>
            </Position>
            <AltitudeMeters>1319.4000244140625</AltitudeMeters>
            <DistanceMeters>3283.1448248114</DistanceMeters>
          </Trackpoint>
          <Trackpoint>
            <Time>2018-12-30T09:41:10.000Z</Time>
            <Position>
              <LatitudeDegrees>40.755889713764190673828125</LatitudeDegrees>
              <LongitudeDegrees>-4.07656283117830753326416015625</LongitudeDegrees>
            </Position>
            <AltitudeMeters>1319.199951171875</AltitudeMeters>
            <DistanceMeters>3284.8500182359</DistanceMeters>
          </Trackpoint>
          <Trackpoint>
            <Time>2018-12-30T09:41:11.000Z</Time>
            <Position>
              <LatitudeDegrees>40.75589683838188648223876953125</LatitudeDegrees>
              <LongitudeDegrees>-4.07656517811119556427001953125</LongitudeDegrees>
            </Position>
            <AltitudeMeters>1319.199951171875</AltitudeMeters>
            <DistanceMeters>3285.6729737227</DistanceMeters>
          </Trackpoint>
          <Trackpoint>
            <Time>2018-12-30T09:41:12.000Z</Time>
            <Position>
              <LatitudeDegrees>40.75590874068439006805419921875</LatitudeDegrees>
              <LongitudeDegrees>-4.07656408846378326416015625</LongitudeDegrees>
            </Position>
            <AltitudeMeters>1319.199951171875</AltitudeMeters>
            <DistanceMeters>3287.0033477239</DistanceMeters>
          </Trackpoint>
          <Trackpoint>
            <Time>2018-12-30T09:41:13.000Z</Time>
            <Position>
              <LatitudeDegrees>40.755914859473705291748046875</LatitudeDegrees>
              <LongitudeDegrees>-4.07656610012054443359375</LongitudeDegrees>
            </Position>
            <AltitudeMeters>1319.199951171875</AltitudeMeters>
            <DistanceMeters>3287.7080846992</DistanceMeters>
          </Trackpoint>
          <Trackpoint>
            <Time>2018-12-30T09:41:14.000Z</Time>
            <Position>
              <LatitudeDegrees>40.75591695494949817657470703125</LatitudeDegrees>
              <LongitudeDegrees>-4.07656702212989330291748046875</LongitudeDegrees>
            </Position>
            <AltitudeMeters>1319.199951171875</AltitudeMeters>
            <DistanceMeters>3287.9768608357</DistanceMeters>
          </Trackpoint>
          <Trackpoint>
            <Time>2018-12-30T09:41:15.000Z</Time>
            <Position>
              <LatitudeDegrees>40.7559270970523357391357421875</LatitudeDegrees>
              <LongitudeDegrees>-4.07656534574925899505615234375</LongitudeDegrees>
            </Position>
            <AltitudeMeters>1319.199951171875</AltitudeMeters>
            <DistanceMeters>3289.1171814081</DistanceMeters>
          </Trackpoint>
          <Trackpoint>
            <Time>2018-12-30T09:41:16.000Z</Time>
            <Position>
              <LatitudeDegrees>40.75593723915517330169677734375</LatitudeDegrees>
              <LongitudeDegrees>-4.07656769268214702606201171875</LongitudeDegrees>
            </Position>
            <AltitudeMeters>1319.199951171875</AltitudeMeters>
            <DistanceMeters>3290.2653935666</DistanceMeters>
          </Trackpoint>
          <Trackpoint>
            <Time>2018-12-30T09:41:17.000Z</Time>
            <Position>
              <LatitudeDegrees>40.75595450587570667266845703125</LatitudeDegrees>
              <LongitudeDegrees>-4.07656702212989330291748046875</LongitudeDegrees>
            </Position>
            <AltitudeMeters>1319.4000244140625</AltitudeMeters>
            <DistanceMeters>3292.1895378808</DistanceMeters>
          </Trackpoint>
          <Trackpoint>
            <Time>2018-12-30T09:41:18.000Z</Time>
            <Position>
              <LatitudeDegrees>40.75596724636852741241455078125</LatitudeDegrees>
              <LongitudeDegrees>-4.07657037489116191864013671875</LongitudeDegrees>
            </Position>
            <AltitudeMeters>1319.5999755859375</AltitudeMeters>
            <DistanceMeters>3293.6338188987</DistanceMeters>
          </Trackpoint>
          <Trackpoint>
            <Time>2018-12-30T09:41:19.000Z</Time>
            <Position>
              <LatitudeDegrees>40.755979232490062713623046875</LatitudeDegrees>
              <LongitudeDegrees>-4.07657255418598651885986328125</LongitudeDegrees>
            </Position>
            <AltitudeMeters>1319.800048828125</AltitudeMeters>
            <DistanceMeters>3294.9776995812</DistanceMeters>
          </Trackpoint>
          <Trackpoint>
            <Time>2018-12-30T09:41:20.000Z</Time>
            <Position>
              <LatitudeDegrees>40.75599155388772487640380859375</LatitudeDegrees>
              <LongitudeDegrees>-4.0765773318707942962646484375</LongitudeDegrees>
            </Position>
            <AltitudeMeters>1320</AltitudeMeters>
            <DistanceMeters>3296.4062643422</DistanceMeters>
          </Trackpoint>
          <Trackpoint>
            <Time>2018-12-30T09:41:21.000Z</Time>
            <Position>
              <LatitudeDegrees>40.7560042105615139007568359375</LatitudeDegrees>
              <LongitudeDegrees>-4.07658093608915805816650390625</LongitudeDegrees>
            </Position>
            <AltitudeMeters>1320.199951171875</AltitudeMeters>
            <DistanceMeters>3297.84741582</DistanceMeters>
          </Trackpoint>
          <Trackpoint>
            <Time>2018-12-30T09:41:22.000Z</Time>
            <Position>
              <LatitudeDegrees>40.75601032935082912445068359375</LatitudeDegrees>
              <LongitudeDegrees>-4.07658110372722148895263671875</LongitudeDegrees>
            </Position>
            <AltitudeMeters>1320.199951171875</AltitudeMeters>
            <DistanceMeters>3298.5260422995</DistanceMeters>
          </Trackpoint>
          <Trackpoint>
            <Time>2018-12-30T09:41:23.000Z</Time>
            <Position>
              <LatitudeDegrees>40.7560236565768718719482421875</LatitudeDegrees>
              <LongitudeDegrees>-4.07657389529049396514892578125</LongitudeDegrees>
            </Position>
            <AltitudeMeters>1320.199951171875</AltitudeMeters>
            <DistanceMeters>3300.127460955</DistanceMeters>
          </Trackpoint>
          <Trackpoint>
            <Time>2018-12-30T09:41:24.000Z</Time>
            <Position>
              <LatitudeDegrees>40.7560380734503269195556640625</LatitudeDegrees>
              <LongitudeDegrees>-4.07657322473824024200439453125</LongitudeDegrees>
            </Position>
            <AltitudeMeters>1320.4000244140625</AltitudeMeters>
            <DistanceMeters>3301.7345085159</DistanceMeters>
          </Trackpoint>
          <Trackpoint>
            <Time>2018-12-30T09:41:25.000Z</Time>
            <Position>
              <LatitudeDegrees>40.7560511492192745208740234375</LatitudeDegrees>
              <LongitudeDegrees>-4.07658009789884090423583984375</LongitudeDegrees>
            </Position>
            <AltitudeMeters>1320.4000244140625</AltitudeMeters>
            <DistanceMeters>3303.2988456651</DistanceMeters>
          </Trackpoint>
          <Trackpoint>
            <Time>2018-12-30T09:41:26.000Z</Time>
            <Position>
              <LatitudeDegrees>40.75605894438922405242919921875</LatitudeDegrees>
              <LongitudeDegrees>-4.076588563621044158935546875</LongitudeDegrees>
            </Position>
            <AltitudeMeters>1320.4000244140625</AltitudeMeters>
            <DistanceMeters>3304.4232169125</DistanceMeters>
          </Trackpoint>
          <Trackpoint>
            <Time>2018-12-30T09:41:27.000Z</Time>
            <Position>
              <LatitudeDegrees>40.75607411563396453857421875</LatitudeDegrees>
              <LongitudeDegrees>-4.07658822834491729736328125</LongitudeDegrees>
            </Position>
            <AltitudeMeters>1320.5999755859375</AltitudeMeters>
            <DistanceMeters>3306.1124487368</DistanceMeters>
          </Trackpoint>
          <Trackpoint>
            <Time>2018-12-30T09:41:28.000Z</Time>
            <Position>
              <LatitudeDegrees>40.75608551502227783203125</LatitudeDegrees>
              <LongitudeDegrees>-4.07658579759299755096435546875</LongitudeDegrees>
            </Position>
            <AltitudeMeters>1320.5999755859375</AltitudeMeters>
            <DistanceMeters>3307.401453805</DistanceMeters>
          </Trackpoint>
          <Trackpoint>
            <Time>2018-12-30T09:41:29.000Z</Time>
            <Position>
              <LatitudeDegrees>40.7560949027538299560546875</LatitudeDegrees>
              <LongitudeDegrees>-4.07658596523106098175048828125</LongitudeDegrees>
            </Position>
            <AltitudeMeters>1320.5999755859375</AltitudeMeters>
            <DistanceMeters>3308.4424193055</DistanceMeters>
          </Trackpoint>
          <Trackpoint>
            <Time>2018-12-30T09:41:30.000Z</Time>
            <Position>
              <LatitudeDegrees>40.75609733350574970245361328125</LatitudeDegrees>
              <LongitudeDegrees>-4.076589904725551605224609375</LongitudeDegrees>
            </Position>
            <AltitudeMeters>1320.5999755859375</AltitudeMeters>
            <DistanceMeters>3308.8673916915</DistanceMeters>
          </Trackpoint>
          <Trackpoint>
            <Time>2018-12-30T09:41:31.000Z</Time>
            <Position>
              <LatitudeDegrees>40.75611292384564876556396484375</LatitudeDegrees>
              <LongitudeDegrees>-4.07658965326845645904541015625</LongitudeDegrees>
            </Position>
            <AltitudeMeters>1320.5999755859375</AltitudeMeters>
            <DistanceMeters>3310.6040682683</DistanceMeters>
          </Trackpoint>
          <Trackpoint>
            <Time>2018-12-30T09:41:32.000Z</Time>
            <Position>
              <LatitudeDegrees>40.75612901709973812103271484375</LatitudeDegrees>
              <LongitudeDegrees>-4.07659015618264675140380859375</LongitudeDegrees>
            </Position>
            <AltitudeMeters>1320.800048828125</AltitudeMeters>
            <DistanceMeters>3312.3970287291</DistanceMeters>
          </Trackpoint>
          <Trackpoint>
            <Time>2018-12-30T09:41:33.000Z</Time>
            <Position>
              <LatitudeDegrees>40.7561487145721912384033203125</LatitudeDegrees>
              <LongitudeDegrees>-4.0765900723636150360107421875</LongitudeDegrees>
            </Position>
            <AltitudeMeters>1321</AltitudeMeters>
            <DistanceMeters>3314.5888317924</DistanceMeters>
          </Trackpoint>
          <Trackpoint>
            <Time>2018-12-30T09:41:34.000Z</Time>
            <Position>
              <LatitudeDegrees>40.75616153888404369354248046875</LatitudeDegrees>
              <LongitudeDegrees>-4.076590575277805328369140625</LongitudeDegrees>
            </Position>
            <AltitudeMeters>1321</AltitudeMeters>
            <DistanceMeters>3316.0173965534</DistanceMeters>
          </Trackpoint>
          <Trackpoint>
            <Time>2018-12-30T09:41:35.000Z</Time>
            <Position>
              <LatitudeDegrees>40.75617738068103790283203125</LatitudeDegrees>
              <LongitudeDegrees>-4.07659585587680339813232421875</LongitudeDegrees>
            </Position>
            <AltitudeMeters>1321</AltitudeMeters>
            <DistanceMeters>3317.835364644</DistanceMeters>
          </Trackpoint>
          <Trackpoint>
            <Time>2018-12-30T09:41:36.000Z</Time>
            <Position>
              <LatitudeDegrees>40.75619280338287353515625</LatitudeDegrees>
              <LongitudeDegrees>-4.076600633561611175537109375</LongitudeDegrees>
            </Position>
            <AltitudeMeters>1321</AltitudeMeters>
            <DistanceMeters>3319.5978476359</DistanceMeters>
          </Trackpoint>
          <Trackpoint>
            <Time>2018-12-30T09:41:37.000Z</Time>
            <Position>
              <LatitudeDegrees>40.75621015392243862152099609375</LatitudeDegrees>
              <LongitudeDegrees>-4.07660976983606815338134765625</LongitudeDegrees>
            </Position>
            <AltitudeMeters>1321.199951171875</AltitudeMeters>
            <DistanceMeters>3321.6776088281</DistanceMeters>
          </Trackpoint>
          <Trackpoint>
            <Time>2018-12-30T09:41:38.000Z</Time>
            <Position>
              <LatitudeDegrees>40.75622205622494220733642578125</LatitudeDegrees>
              <LongitudeDegrees>-4.07661505043506622314453125</LongitudeDegrees>
            </Position>
            <AltitudeMeters>1321.4000244140625</AltitudeMeters>
            <DistanceMeters>3323.0742106009</DistanceMeters>
          </Trackpoint>
          <Trackpoint>
            <Time>2018-12-30T09:41:39.000Z</Time>
            <Position>
              <LatitudeDegrees>40.756241418421268463134765625</LatitudeDegrees>
              <LongitudeDegrees>-4.0766212530434131622314453125</LongitudeDegrees>
            </Position>
            <AltitudeMeters>1321.199951171875</AltitudeMeters>
            <DistanceMeters>3325.2905954018</DistanceMeters>
          </Trackpoint>
          <Trackpoint>
            <Time>2018-12-30T09:41:40.000Z</Time>
            <Position>
              <LatitudeDegrees>40.75626111589372158050537109375</LatitudeDegrees>
              <LongitudeDegrees>-4.0766262821853160858154296875</LongitudeDegrees>
            </Position>
            <AltitudeMeters>1321.199951171875</AltitudeMeters>
            <DistanceMeters>3327.523217671</DistanceMeters>
          </Trackpoint>
          <Trackpoint>
            <Time>2018-12-30T09:41:41.000Z</Time>
            <Position>
              <LatitudeDegrees>40.75627905316650867462158203125</LatitudeDegrees>
              <LongitudeDegrees>-4.07663256861269474029541015625</LongitudeDegrees>
            </Position>
            <AltitudeMeters>1321.4000244140625</AltitudeMeters>
            <DistanceMeters>3329.587726349</DistanceMeters>
          </Trackpoint>
          <Trackpoint>
            <Time>2018-12-30T09:41:42.000Z</Time>
            <Position>
              <LatitudeDegrees>40.75629866681993007659912109375</LatitudeDegrees>
              <LongitudeDegrees>-4.07663994468748569488525390625</LongitudeDegrees>
            </Position>
            <AltitudeMeters>1321.5999755859375</AltitudeMeters>
            <DistanceMeters>3331.860434805</DistanceMeters>
          </Trackpoint>
          <Trackpoint>
            <Time>2018-12-30T09:41:43.000Z</Time>
            <Position>
              <LatitudeDegrees>40.75631283223628997802734375</LatitudeDegrees>
              <LongitudeDegrees>-4.0766484104096889495849609375</LongitudeDegrees>
            </Position>
            <AltitudeMeters>1321.5999755859375</AltitudeMeters>
            <DistanceMeters>3333.591903944</DistanceMeters>
          </Trackpoint>
          <Trackpoint>
            <Time>2018-12-30T09:41:44.000Z</Time>
            <Position>
              <LatitudeDegrees>40.75632330961525440216064453125</LatitudeDegrees>
              <LongitudeDegrees>-4.0766574628651142120361328125</LongitudeDegrees>
            </Position>
            <AltitudeMeters>1321.800048828125</AltitudeMeters>
            <DistanceMeters>3334.9885057169</DistanceMeters>
          </Trackpoint>
          <Trackpoint>
            <Time>2018-12-30T09:41:45.000Z</Time>
            <Position>
              <LatitudeDegrees>40.75633018277585506439208984375</LatitudeDegrees>
              <LongitudeDegrees>-4.07666609622538089752197265625</LongitudeDegrees>
            </Position>
            <AltitudeMeters>1321.800048828125</AltitudeMeters>
            <DistanceMeters>3336.0424029617</DistanceMeters>
          </Trackpoint>
          <Trackpoint>
            <Time>2018-12-30T09:41:46.000Z</Time>
            <Position>
              <LatitudeDegrees>40.75633705593645572662353515625</LatitudeDegrees>
              <LongitudeDegrees>-4.07667540013790130615234375</LongitudeDegrees>
            </Position>
            <AltitudeMeters>1321.800048828125</AltitudeMeters>
            <DistanceMeters>3337.1383044933</DistanceMeters>
          </Trackpoint>
          <Trackpoint>
            <Time>2018-12-30T09:41:47.000Z</Time>
            <Position>
              <LatitudeDegrees>40.75633822940289974212646484375</LatitudeDegrees>
              <LongitudeDegrees>-4.07668218947947025299072265625</LongitudeDegrees>
            </Position>
            <AltitudeMeters>1321.800048828125</AltitudeMeters>
            <DistanceMeters>3337.724088502</DistanceMeters>
          </Trackpoint>
          <Trackpoint>
            <Time>2018-12-30T09:41:48.000Z</Time>
            <Position>
              <LatitudeDegrees>40.75634258799254894256591796875</LatitudeDegrees>
              <LongitudeDegrees>-4.076689146459102630615234375</LongitudeDegrees>
            </Position>
            <AltitudeMeters>1321.800048828125</AltitudeMeters>
            <DistanceMeters>3338.484302217</DistanceMeters>
          </Trackpoint>
          <Trackpoint>
            <Time>2018-12-30T09:41:49.000Z</Time>
            <Position>
              <LatitudeDegrees>40.75634242035448551177978515625</LatitudeDegrees>
              <LongitudeDegrees>-4.0766953490674495697021484375</LongitudeDegrees>
            </Position>
            <AltitudeMeters>1321.5999755859375</AltitudeMeters>
            <DistanceMeters>3339.0047849673</DistanceMeters>
          </Trackpoint>
          <Trackpoint>
            <Time>2018-12-30T09:41:50.000Z</Time>
            <Position>
              <LatitudeDegrees>40.7563401572406291961669921875</LatitudeDegrees>
              <LongitudeDegrees>-4.07669811509549617767333984375</LongitudeDegrees>
            </Position>
            <AltitudeMeters>1321.5999755859375</AltitudeMeters>
            <DistanceMeters>3339.360342375</DistanceMeters>
          </Trackpoint>
          <Trackpoint>
            <Time>2018-12-30T09:41:51.000Z</Time>
            <Position>
              <LatitudeDegrees>40.75633973814547061920166015625</LatitudeDegrees>
              <LongitudeDegrees>-4.07669962383806705474853515625</LongitudeDegrees>
            </Position>
            <AltitudeMeters>1321.4000244140625</AltitudeMeters>
            <DistanceMeters>3339.4947304433</DistanceMeters>
          </Trackpoint>
          <Trackpoint>
            <Time>2018-12-30T09:41:52.000Z</Time>
            <Position>
              <LatitudeDegrees>40.7563411630690097808837890625</LatitudeDegrees>
              <LongitudeDegrees>-4.07670012675225734710693359375</LongitudeDegrees>
            </Position>
            <AltitudeMeters>1321.5999755859375</AltitudeMeters>
            <DistanceMeters>3339.6593215406</DistanceMeters>
          </Trackpoint>
          <Trackpoint>
            <Time>2018-12-30T09:41:53.000Z</Time>
            <Position>
              <LatitudeDegrees>40.7563435100018978118896484375</LatitudeDegrees>
              <LongitudeDegrees>-4.07670079730451107025146484375</LongitudeDegrees>
            </Position>
            <AltitudeMeters>1321.5999755859375</AltitudeMeters>
            <DistanceMeters>3339.9280976771</DistanceMeters>
          </Trackpoint>
          <Trackpoint>
            <Time>2018-12-30T09:41:54.000Z</Time>
            <Position>
              <LatitudeDegrees>40.75634409673511981964111328125</LatitudeDegrees>
              <LongitudeDegrees>-4.07670180313289165496826171875</LongitudeDegrees>
            </Position>
            <AltitudeMeters>1321.800048828125</AltitudeMeters>
            <DistanceMeters>3340.0231243915</DistanceMeters>
          </Trackpoint>
          <Trackpoint>
            <Time>2018-12-30T09:41:55.000Z</Time>
            <Position>
              <LatitudeDegrees>40.75634367763996124267578125</LatitudeDegrees>
              <LongitudeDegrees>-4.07670314423739910125732421875</LongitudeDegrees>
            </Position>
            <AltitudeMeters>1322</AltitudeMeters>
            <DistanceMeters>3340.1575124598</DistanceMeters>
          </Trackpoint>
          <Trackpoint>
            <Time>2018-12-30T09:41:56.000Z</Time>
            <Position>
              <LatitudeDegrees>40.75634174980223178863525390625</LatitudeDegrees>
              <LongitudeDegrees>-4.07670582644641399383544921875</LongitudeDegrees>
            </Position>
            <AltitudeMeters>1322</AltitudeMeters>
            <DistanceMeters>3340.4726804164</DistanceMeters>
          </Trackpoint>
          <Trackpoint>
            <Time>2018-12-30T09:41:57.000Z</Time>
            <Position>
              <LatitudeDegrees>40.756338648498058319091796875</LatitudeDegrees>
              <LongitudeDegrees>-4.0767109394073486328125</LongitudeDegrees>
            </Position>
            <AltitudeMeters>1322</AltitudeMeters>
            <DistanceMeters>3341.0267766166</DistanceMeters>
          </Trackpoint>
          <Trackpoint>
            <Time>2018-12-30T09:41:58.000Z</Time>
            <Position>
              <LatitudeDegrees>40.75633655302226543426513671875</LatitudeDegrees>
              <LongitudeDegrees>-4.076722003519535064697265625</LongitudeDegrees>
            </Position>
            <AltitudeMeters>1322</AltitudeMeters>
            <DistanceMeters>3341.9864993877</DistanceMeters>
          </Trackpoint>
          <Trackpoint>
            <Time>2018-12-30T09:41:59.000Z</Time>
            <Position>
              <LatitudeDegrees>40.7563361339271068572998046875</LatitudeDegrees>
              <LongitudeDegrees>-4.07674035988748073577880859375</LongitudeDegrees>
            </Position>
            <AltitudeMeters>1322</AltitudeMeters>
            <DistanceMeters>3343.5363381967</DistanceMeters>
          </Trackpoint>
          <Trackpoint>
            <Time>2018-12-30T09:42:00.000Z</Time>
            <Position>
              <LatitudeDegrees>40.75633973814547061920166015625</LatitudeDegrees>
              <LongitudeDegrees>-4.0767563693225383758544921875</LongitudeDegrees>
            </Position>
            <AltitudeMeters>1322</AltitudeMeters>
            <DistanceMeters>3344.9458121474</DistanceMeters>
          </Trackpoint>
          <Trackpoint>
            <Time>2018-12-30T09:42:01.000Z</Time>
            <Position>
              <LatitudeDegrees>40.756345689296722412109375</LatitudeDegrees>
              <LongitudeDegrees>-4.076768942177295684814453125</LongitudeDegrees>
            </Position>
            <AltitudeMeters>1322</AltitudeMeters>
            <DistanceMeters>3346.1993006002</DistanceMeters>
          </Trackpoint>
          <Trackpoint>
            <Time>2018-12-30T09:42:02.000Z</Time>
            <Position>
              <LatitudeDegrees>40.75635449029505252838134765625</LatitudeDegrees>
              <LongitudeDegrees>-4.07678193412721157073974609375</LongitudeDegrees>
            </Position>
            <AltitudeMeters>1322.199951171875</AltitudeMeters>
            <DistanceMeters>3347.6683779535</DistanceMeters>
          </Trackpoint>
          <Trackpoint>
            <Time>2018-12-30T09:42:03.000Z</Time>
            <Position>
              <LatitudeDegrees>40.75636186636984348297119140625</LatitudeDegrees>
              <LongitudeDegrees>-4.076791740953922271728515625</LongitudeDegrees>
            </Position>
            <AltitudeMeters>1322.4000244140625</AltitudeMeters>
            <DistanceMeters>3348.8322127642</DistanceMeters>
          </Trackpoint>
          <Trackpoint>
            <Time>2018-12-30T09:42:04.000Z</Time>
            <Position>
              <LatitudeDegrees>40.75636924244463443756103515625</LatitudeDegrees>
              <LongitudeDegrees>-4.0768019668757915496826171875</LongitudeDegrees>
            </Position>
            <AltitudeMeters>1322.5999755859375</AltitudeMeters>
            <DistanceMeters>3350.0190960463</DistanceMeters>
          </Trackpoint>
          <Trackpoint>
            <Time>2018-12-30T09:42:05.000Z</Time>
            <Position>
              <LatitudeDegrees>40.75638097710907459259033203125</LatitudeDegrees>
              <LongitudeDegrees>-4.07681328244507312774658203125</LongitudeDegrees>
            </Position>
            <AltitudeMeters>1322.800048828125</AltitudeMeters>
            <DistanceMeters>3351.6373426804</DistanceMeters>
          </Trackpoint>
          <Trackpoint>
            <Time>2018-12-30T09:42:06.000Z</Time>
            <Position>
              <LatitudeDegrees>40.75639237649738788604736328125</LatitudeDegrees>
              <LongitudeDegrees>-4.0768197365105152130126953125</LongitudeDegrees>
            </Position>
            <AltitudeMeters>1323</AltitudeMeters>
            <DistanceMeters>3353.0209525265</DistanceMeters>
          </Trackpoint>
          <Trackpoint>
            <Time>2018-12-30T09:42:07.000Z</Time>
            <Position>
              <LatitudeDegrees>40.75640679337084293365478515625</LatitudeDegrees>
              <LongitudeDegrees>-4.07682250253856182098388671875</LongitudeDegrees>
            </Position>
            <AltitudeMeters>1323.199951171875</AltitudeMeters>
            <DistanceMeters>3354.6447697334</DistanceMeters>
          </Trackpoint>
          <Trackpoint>
            <Time>2018-12-30T09:42:08.000Z</Time>
            <Position>
              <LatitudeDegrees>40.75641986913979053497314453125</LatitudeDegrees>
              <LongitudeDegrees>-4.076825939118862152099609375</LongitudeDegrees>
            </Position>
            <AltitudeMeters>1323.4000244140625</AltitudeMeters>
            <DistanceMeters>3356.1291344636</DistanceMeters>
          </Trackpoint>
          <Trackpoint>
            <Time>2018-12-30T09:42:09.000Z</Time>
            <Position>
              <LatitudeDegrees>40.7564326934516429901123046875</LatitudeDegrees>
              <LongitudeDegrees>-4.07682736404240131378173828125</LongitudeDegrees>
            </Position>
            <AltitudeMeters>1323.4000244140625</AltitudeMeters>
            <DistanceMeters>3357.5640063845</DistanceMeters>
          </Trackpoint>
          <Trackpoint>
            <Time>2018-12-30T09:42:10.000Z</Time>
            <Position>
              <LatitudeDegrees>40.75644685886800289154052734375</LatitudeDegrees>
              <LongitudeDegrees>-4.07683155499398708343505859375</LongitudeDegrees>
            </Position>
            <AltitudeMeters>1323.5999755859375</AltitudeMeters>
            <DistanceMeters>3359.1794605288</DistanceMeters>
          </Trackpoint>
          <Trackpoint>
            <Time>2018-12-30T09:42:11.000Z</Time>
            <Position>
              <LatitudeDegrees>40.75646035373210906982421875</LatitudeDegrees>
              <LongitudeDegrees>-4.07683457247912883758544921875</LongitudeDegrees>
            </Position>
            <AltitudeMeters>1323.5999755859375</AltitudeMeters>
            <DistanceMeters>3360.6998879587</DistanceMeters>
          </Trackpoint>
          <Trackpoint>
            <Time>2018-12-30T09:42:12.000Z</Time>
            <Position>
              <LatitudeDegrees>40.7564705796539783477783203125</LatitudeDegrees>
              <LongitudeDegrees>-4.07683222554624080657958984375</LongitudeDegrees>
            </Position>
            <AltitudeMeters>1323.5999755859375</AltitudeMeters>
            <DistanceMeters>3361.8559378338</DistanceMeters>
          </Trackpoint>
          <Trackpoint>
            <Time>2018-12-30T09:42:13.000Z</Time>
            <Position>
              <LatitudeDegrees>40.75648340396583080291748046875</LatitudeDegrees>
              <LongitudeDegrees>-4.076835997402667999267578125</LongitudeDegrees>
            </Position>
            <AltitudeMeters>1323.5999755859375</AltitudeMeters>
            <DistanceMeters>3363.3157659198</DistanceMeters>
          </Trackpoint>
          <Trackpoint>
            <Time>2018-12-30T09:42:14.000Z</Time>
            <Position>
              <LatitudeDegrees>40.756494216620922088623046875</LatitudeDegrees>
              <LongitudeDegrees>-4.076841361820697784423828125</LongitudeDegrees>
            </Position>
            <AltitudeMeters>1323.800048828125</AltitudeMeters>
            <DistanceMeters>3364.5977463849</DistanceMeters>
          </Trackpoint>
          <Trackpoint>
            <Time>2018-12-30T09:42:15.000Z</Time>
            <Position>
              <LatitudeDegrees>40.7565017603337764739990234375</LatitudeDegrees>
              <LongitudeDegrees>-4.07684681005775928497314453125</LongitudeDegrees>
            </Position>
            <AltitudeMeters>1324</AltitudeMeters>
            <DistanceMeters>3365.5574691559</DistanceMeters>
          </Trackpoint>
          <Trackpoint>
            <Time>2018-12-30T09:42:16.000Z</Time>
            <Position>
              <LatitudeDegrees>40.75650184415280818939208984375</LatitudeDegrees>
              <LongitudeDegrees>-4.07684027217328548431396484375</LongitudeDegrees>
            </Position>
            <AltitudeMeters>1324</AltitudeMeters>
            <DistanceMeters>3366.1196547797</DistanceMeters>
          </Trackpoint>
          <Trackpoint>
            <Time>2018-12-30T09:42:17.000Z</Time>
            <Position>
              <LatitudeDegrees>40.75650863349437713623046875</LatitudeDegrees>
              <LongitudeDegrees>-4.07684211619198322296142578125</LongitudeDegrees>
            </Position>
            <AltitudeMeters>1324.199951171875</AltitudeMeters>
            <DistanceMeters>3366.8916554567</DistanceMeters>
          </Trackpoint>
          <Trackpoint>
            <Time>2018-12-30T09:42:18.000Z</Time>
            <Position>
              <LatitudeDegrees>40.75651827268302440643310546875</LatitudeDegrees>
              <LongitudeDegrees>-4.07684613950550556182861328125</LongitudeDegrees>
            </Position>
            <AltitudeMeters>1324.199951171875</AltitudeMeters>
            <DistanceMeters>3368.0160267042</DistanceMeters>
          </Trackpoint>
          <Trackpoint>
            <Time>2018-12-30T09:42:19.000Z</Time>
            <Position>
              <LatitudeDegrees>40.75653009116649627685546875</LatitudeDegrees>
              <LongitudeDegrees>-4.07682937569916248321533203125</LongitudeDegrees>
            </Position>
            <AltitudeMeters>1324.4000244140625</AltitudeMeters>
            <DistanceMeters>3369.944858344</DistanceMeters>
          </Trackpoint>
          <Trackpoint>
            <Time>2018-12-30T09:42:20.000Z</Time>
            <Position>
              <LatitudeDegrees>40.75654484331607818603515625</LatitudeDegrees>
              <LongitudeDegrees>-4.07683406956493854522705078125</LongitudeDegrees>
            </Position>
            <AltitudeMeters>1324.5999755859375</AltitudeMeters>
            <DistanceMeters>3371.6340901683</DistanceMeters>
          </Trackpoint>
          <Trackpoint>
            <Time>2018-12-30T09:42:21.000Z</Time>
            <Position>
              <LatitudeDegrees>40.7565564103424549102783203125</LatitudeDegrees>
              <LongitudeDegrees>-4.07683306373655796051025390625</LongitudeDegrees>
            </Position>
            <AltitudeMeters>1324.800048828125</AltitudeMeters>
            <DistanceMeters>3372.9265932214</DistanceMeters>
          </Trackpoint>
          <Trackpoint>
            <Time>2018-12-30T09:42:22.000Z</Time>
            <Position>
              <LatitudeDegrees>40.75657007284462451934814453125</LatitudeDegrees>
              <LongitudeDegrees>-4.0768396854400634765625</LongitudeDegrees>
            </Position>
            <AltitudeMeters>1325</AltitudeMeters>
            <DistanceMeters>3374.5448398555</DistanceMeters>
          </Trackpoint>
          <Trackpoint>
            <Time>2018-12-30T09:42:23.000Z</Time>
            <Position>
              <LatitudeDegrees>40.75657971203327178955078125</LatitudeDegrees>
              <LongitudeDegrees>-4.07684731297194957733154296875</LongitudeDegrees>
            </Position>
            <AltitudeMeters>1325.4000244140625</AltitudeMeters>
            <DistanceMeters>3375.7947211398</DistanceMeters>
          </Trackpoint>
          <Trackpoint>
            <Time>2018-12-30T09:42:24.000Z</Time>
            <Position>
              <LatitudeDegrees>40.7565892674028873443603515625</LatitudeDegrees>
              <LongitudeDegrees>-4.07685133628547191619873046875</LongitudeDegrees>
            </Position>
            <AltitudeMeters>1325.4000244140625</AltitudeMeters>
            <DistanceMeters>3376.906980315</DistanceMeters>
          </Trackpoint>
          <Trackpoint>
            <Time>2018-12-30T09:42:25.000Z</Time>
            <Position>
              <LatitudeDegrees>40.75659848749637603759765625</LatitudeDegrees>
              <LongitudeDegrees>-4.07686105929315090179443359375</LongitudeDegrees>
            </Position>
            <AltitudeMeters>1325.4000244140625</AltitudeMeters>
            <DistanceMeters>3378.2202756362</DistanceMeters>
          </Trackpoint>
          <Trackpoint>
            <Time>2018-12-30T09:42:26.000Z</Time>
            <Position>
              <LatitudeDegrees>40.7566083781421184539794921875</LatitudeDegrees>
              <LongitudeDegrees>-4.07686826772987842559814453125</LongitudeDegrees>
            </Position>
            <AltitudeMeters>1325.4000244140625</AltitudeMeters>
            <DistanceMeters>3379.4773609069</DistanceMeters>
          </Trackpoint>
          <Trackpoint>
            <Time>2018-12-30T09:42:27.000Z</Time>
            <Position>
              <LatitudeDegrees>40.7566211186349391937255859375</LatitudeDegrees>
              <LongitudeDegrees>-4.07687631435692310333251953125</LongitudeDegrees>
            </Position>
            <AltitudeMeters>1325.4000244140625</AltitudeMeters>
            <DistanceMeters>3381.0503329173</DistanceMeters>
          </Trackpoint>
          <Trackpoint>
            <Time>2018-12-30T09:42:28.000Z</Time>
            <Position>
              <LatitudeDegrees>40.75662891380488872528076171875</LatitudeDegrees>
              <LongitudeDegrees>-4.07688419334590435028076171875</LongitudeDegrees>
            </Position>
            <AltitudeMeters>1325.4000244140625</AltitudeMeters>
            <DistanceMeters>3382.1421067449</DistanceMeters>
          </Trackpoint>
          <Trackpoint>
            <Time>2018-12-30T09:42:29.000Z</Time>
            <Position>
              <LatitudeDegrees>40.7566378824412822723388671875</LatitudeDegrees>
              <LongitudeDegrees>-4.07689073123037815093994140625</LongitudeDegrees>
            </Position>
            <AltitudeMeters>1325.5999755859375</AltitudeMeters>
            <DistanceMeters>3383.2863799135</DistanceMeters>
          </Trackpoint>
          <Trackpoint>
            <Time>2018-12-30T09:42:30.000Z</Time>
            <Position>
              <LatitudeDegrees>40.75665037147700786590576171875</LatitudeDegrees>
              <LongitudeDegrees>-4.07689626328647136688232421875</LongitudeDegrees>
            </Position>
            <AltitudeMeters>1325.5999755859375</AltitudeMeters>
            <DistanceMeters>3384.7554572668</DistanceMeters>
          </Trackpoint>
          <Trackpoint>
            <Time>2018-12-30T09:42:31.000Z</Time>
            <Position>
              <LatitudeDegrees>40.75665925629436969757080078125</LatitudeDegrees>
              <LongitudeDegrees>-4.07690045423805713653564453125</LongitudeDegrees>
            </Position>
            <AltitudeMeters>1325.800048828125</AltitudeMeters>
            <DistanceMeters>3385.8093545116</DistanceMeters>
          </Trackpoint>
          <Trackpoint>
            <Time>2018-12-30T09:42:32.000Z</Time>
            <Position>
              <LatitudeDegrees>40.75666956603527069091796875</LatitudeDegrees>
              <LongitudeDegrees>-4.07690162770450115203857421875</LongitudeDegrees>
            </Position>
            <AltitudeMeters>1326</AltitudeMeters>
            <DistanceMeters>3386.9654043867</DistanceMeters>
          </Trackpoint>
          <Trackpoint>
            <Time>2018-12-30T09:42:33.000Z</Time>
            <Position>
              <LatitudeDegrees>40.756680630147457122802734375</LatitudeDegrees>
              <LongitudeDegrees>-4.0769162960350513458251953125</LongitudeDegrees>
            </Position>
            <AltitudeMeters>1326.199951171875</AltitudeMeters>
            <DistanceMeters>3388.712449274</DistanceMeters>
          </Trackpoint>
          <Trackpoint>
            <Time>2018-12-30T09:42:34.000Z</Time>
            <Position>
              <LatitudeDegrees>40.75669563375413417816162109375</LatitudeDegrees>
              <LongitudeDegrees>-4.07694253139197826385498046875</LongitudeDegrees>
            </Position>
            <AltitudeMeters>1326.4000244140625</AltitudeMeters>
            <DistanceMeters>3391.4829302751</DistanceMeters>
          </Trackpoint>
          <Trackpoint>
            <Time>2018-12-30T09:42:35.000Z</Time>
            <Position>
              <LatitudeDegrees>40.756712146103382110595703125</LatitudeDegrees>
              <LongitudeDegrees>-4.076955020427703857421875</LongitudeDegrees>
            </Position>
            <AltitudeMeters>1326.5999755859375</AltitudeMeters>
            <DistanceMeters>3393.6035382231</DistanceMeters>
          </Trackpoint>
          <Trackpoint>
            <Time>2018-12-30T09:42:36.000Z</Time>
            <Position>
              <LatitudeDegrees>40.7567287422716617584228515625</LatitudeDegrees>
              <LongitudeDegrees>-4.076973460614681243896484375</LongitudeDegrees>
            </Position>
            <AltitudeMeters>1326.5999755859375</AltitudeMeters>
            <DistanceMeters>3396.0150458904</DistanceMeters>
          </Trackpoint>
          <Trackpoint>
            <Time>2018-12-30T09:42:37.000Z</Time>
            <Position>
              <LatitudeDegrees>40.75673234649002552032470703125</LatitudeDegrees>
              <LongitudeDegrees>-4.0769846923649311065673828125</LongitudeDegrees>
            </Position>
            <AltitudeMeters>1326.800048828125</AltitudeMeters>
            <DistanceMeters>3397.0385149264</DistanceMeters>
          </Trackpoint>
          <Trackpoint>
            <Time>2018-12-30T09:42:38.000Z</Time>
            <Position>
              <LatitudeDegrees>40.75673662126064300537109375</LatitudeDegrees>
              <LongitudeDegrees>-4.07699500210583209991455078125</LongitudeDegrees>
            </Position>
            <AltitudeMeters>1327</AltitudeMeters>
            <DistanceMeters>3398.0306229509</DistanceMeters>
          </Trackpoint>
          <Trackpoint>
            <Time>2018-12-30T09:42:39.000Z</Time>
            <Position>
              <LatitudeDegrees>40.75674341060221195220947265625</LatitudeDegrees>
              <LongitudeDegrees>-4.07700531184673309326171875</LongitudeDegrees>
            </Position>
            <AltitudeMeters>1327.199951171875</AltitudeMeters>
            <DistanceMeters>3399.186672826</DistanceMeters>
          </Trackpoint>
          <Trackpoint>
            <Time>2018-12-30T09:42:40.000Z</Time>
            <Position>
              <LatitudeDegrees>40.75674944557249546051025390625</LatitudeDegrees>
              <LongitudeDegrees>-4.0770098380744457244873046875</LongitudeDegrees>
            </Position>
            <AltitudeMeters>1327.4000244140625</AltitudeMeters>
            <DistanceMeters>3399.958673503</DistanceMeters>
          </Trackpoint>
          <Trackpoint>
            <Time>2018-12-30T09:42:41.000Z</Time>
            <Position>
              <LatitudeDegrees>40.75675539672374725341796875</LatitudeDegrees>
              <LongitudeDegrees>-4.07700874842703342437744140625</LongitudeDegrees>
            </Position>
            <AltitudeMeters>1327.5999755859375</AltitudeMeters>
            <DistanceMeters>3400.6306138443</DistanceMeters>
          </Trackpoint>
          <Trackpoint>
            <Time>2018-12-30T09:42:42.000Z</Time>
            <Position>
              <LatitudeDegrees>40.75676118023693561553955078125</LatitudeDegrees>
              <LongitudeDegrees>-4.077011011540889739990234375</LongitudeDegrees>
            </Position>
            <AltitudeMeters>1327.800048828125</AltitudeMeters>
            <DistanceMeters>3401.3025541855</DistanceMeters>
          </Trackpoint>
          <Trackpoint>
            <Time>2018-12-30T09:42:43.000Z</Time>
            <Position>
              <LatitudeDegrees>40.7567656226456165313720703125</LatitudeDegrees>
              <LongitudeDegrees>-4.07700137235224246978759765625</LongitudeDegrees>
            </Position>
            <AltitudeMeters>1328</AltitudeMeters>
            <DistanceMeters>3402.2528213292</DistanceMeters>
          </Trackpoint>
          <Trackpoint>
            <Time>2018-12-30T09:42:44.000Z</Time>
            <Position>
              <LatitudeDegrees>40.75677291490137577056884765625</LatitudeDegrees>
              <LongitudeDegrees>-4.07699366100132465362548828125</LongitudeDegrees>
            </Position>
            <AltitudeMeters>1328.199951171875</AltitudeMeters>
            <DistanceMeters>3403.2894403995</DistanceMeters>
          </Trackpoint>
          <Trackpoint>
            <Time>2018-12-30T09:42:45.000Z</Time>
            <Position>
              <LatitudeDegrees>40.756783224642276763916015625</LatitudeDegrees>
              <LongitudeDegrees>-4.07700019888579845428466796875</LongitudeDegrees>
            </Position>
            <AltitudeMeters>1328.4000244140625</AltitudeMeters>
            <DistanceMeters>3404.5643575575</DistanceMeters>
          </Trackpoint>
          <Trackpoint>
            <Time>2018-12-30T09:42:46.000Z</Time>
            <Position>
              <LatitudeDegrees>40.75679336674511432647705078125</LatitudeDegrees>
              <LongitudeDegrees>-4.07700573094189167022705078125</LongitudeDegrees>
            </Position>
            <AltitudeMeters>1328.5999755859375</AltitudeMeters>
            <DistanceMeters>3405.7886911272</DistanceMeters>
          </Trackpoint>
          <Trackpoint>
            <Time>2018-12-30T09:42:47.000Z</Time>
            <Position>
              <LatitudeDegrees>40.75680476613342761993408203125</LatitudeDegrees>
              <LongitudeDegrees>-4.0770100057125091552734375</LongitudeDegrees>
            </Position>
            <AltitudeMeters>1328.5999755859375</AltitudeMeters>
            <DistanceMeters>3407.1054199061</DistanceMeters>
          </Trackpoint>
          <Trackpoint>
            <Time>2018-12-30T09:42:48.000Z</Time>
            <Position>
              <LatitudeDegrees>40.7568112201988697052001953125</LatitudeDegrees>
              <LongitudeDegrees>-4.0770141966640949249267578125</LongitudeDegrees>
            </Position>
            <AltitudeMeters>1328.800048828125</AltitudeMeters>
            <DistanceMeters>3407.9061292338</DistanceMeters>
          </Trackpoint>
          <Trackpoint>
            <Time>2018-12-30T09:42:49.000Z</Time>
            <Position>
              <LatitudeDegrees>40.756812728941440582275390625</LatitudeDegrees>
              <LongitudeDegrees>-4.07701411284506320953369140625</LongitudeDegrees>
            </Position>
            <AltitudeMeters>1328.800048828125</AltitudeMeters>
            <DistanceMeters>3408.0707203312</DistanceMeters>
          </Trackpoint>
          <Trackpoint>
            <Time>2018-12-30T09:42:50.000Z</Time>
            <Position>
              <LatitudeDegrees>40.75680526904761791229248046875</LatitudeDegrees>
              <LongitudeDegrees>-4.07701260410249233245849609375</LongitudeDegrees>
            </Position>
            <AltitudeMeters>1329</AltitudeMeters>
            <DistanceMeters>3408.9099735484</DistanceMeters>
          </Trackpoint>
          <Trackpoint>
            <Time>2018-12-30T09:42:51.000Z</Time>
            <Position>
              <LatitudeDegrees>40.756803341209888458251953125</LatitudeDegrees>
              <LongitudeDegrees>-4.07701612450182437896728515625</LongitudeDegrees>
            </Position>
            <AltitudeMeters>1329</AltitudeMeters>
            <DistanceMeters>3409.2655309562</DistanceMeters>
          </Trackpoint>
          <Trackpoint>
            <Time>2018-12-30T09:42:52.000Z</Time>
            <Position>
              <LatitudeDegrees>40.75680409558117389678955078125</LatitudeDegrees>
              <LongitudeDegrees>-4.077008999884128570556640625</LongitudeDegrees>
            </Position>
            <AltitudeMeters>1329.199951171875</AltitudeMeters>
            <DistanceMeters>3409.8665326681</DistanceMeters>
          </Trackpoint>
          <Trackpoint>
            <Time>2018-12-30T09:42:53.000Z</Time>
            <Position>
              <LatitudeDegrees>40.75681842863559722900390625</LatitudeDegrees>
              <LongitudeDegrees>-4.0770289488136768341064453125</LongitudeDegrees>
            </Position>
            <AltitudeMeters>1329.199951171875</AltitudeMeters>
            <DistanceMeters>3412.184483376</DistanceMeters>
          </Trackpoint>
          <Trackpoint>
            <Time>2018-12-30T09:42:54.000Z</Time>
            <Position>
              <LatitudeDegrees>40.75683628208935260772705078125</LatitudeDegrees>
              <LongitudeDegrees>-4.07703339122235774993896484375</LongitudeDegrees>
            </Position>
            <AltitudeMeters>1329.199951171875</AltitudeMeters>
            <DistanceMeters>3414.2047790357</DistanceMeters>
          </Trackpoint>
          <Trackpoint>
            <Time>2018-12-30T09:42:55.000Z</Time>
            <Position>
              <LatitudeDegrees>40.7568487711250782012939453125</LatitudeDegrees>
              <LongitudeDegrees>-4.07703842036426067352294921875</LongitudeDegrees>
            </Position>
            <AltitudeMeters>1329.199951171875</AltitudeMeters>
            <DistanceMeters>3415.6584082484</DistanceMeters>
          </Trackpoint>
          <Trackpoint>
            <Time>2018-12-30T09:42:56.000Z</Time>
            <Position>
              <LatitudeDegrees>40.75687349773943424224853515625</LatitudeDegrees>
              <LongitudeDegrees>-4.07705384306609630584716796875</LongitudeDegrees>
            </Position>
            <AltitudeMeters>1329.199951171875</AltitudeMeters>
            <DistanceMeters>3418.7022312445</DistanceMeters>
          </Trackpoint>
          <Trackpoint>
            <Time>2018-12-30T09:42:57.000Z</Time>
            <Position>
              <LatitudeDegrees>40.75687349773943424224853515625</LatitudeDegrees>
              <LongitudeDegrees>-4.07705384306609630584716796875</LongitudeDegrees>
            </Position>
            <AltitudeMeters>1329.199951171875</AltitudeMeters>
            <DistanceMeters>3418.7022312445</DistanceMeters>
          </Trackpoint>
          <Trackpoint>
            <Time>2018-12-30T09:42:58.000Z</Time>
            <Position>
              <LatitudeDegrees>40.756887160241603851318359375</LatitudeDegrees>
              <LongitudeDegrees>-4.07705618999898433685302734375</LongitudeDegrees>
            </Position>
            <AltitudeMeters>1329.199951171875</AltitudeMeters>
            <DistanceMeters>3420.2344909729</DistanceMeters>
          </Trackpoint>
          <Trackpoint>
            <Time>2018-12-30T09:42:59.000Z</Time>
            <Position>
              <LatitudeDegrees>40.75689830817282199859619140625</LatitudeDegrees>
              <LongitudeDegrees>-4.0770624764263629913330078125</LongitudeDegrees>
            </Position>
            <AltitudeMeters>1329.199951171875</AltitudeMeters>
            <DistanceMeters>3421.581727168</DistanceMeters>
          </Trackpoint>
          <Trackpoint>
            <Time>2018-12-30T09:43:00.000Z</Time>
            <Position>
              <LatitudeDegrees>40.75691088102757930755615234375</LatitudeDegrees>
              <LongitudeDegrees>-4.0770718641579151153564453125</LongitudeDegrees>
            </Position>
            <AltitudeMeters>1329.199951171875</AltitudeMeters>
            <DistanceMeters>3423.1887747288</DistanceMeters>
          </Trackpoint>
          <Trackpoint>
            <Time>2018-12-30T09:43:01.000Z</Time>
            <Position>
              <LatitudeDegrees>40.7569215260446071624755859375</LatitudeDegrees>
              <LongitudeDegrees>-4.07707580365240573883056640625</LongitudeDegrees>
            </Position>
            <AltitudeMeters>1329.4000244140625</AltitudeMeters>
            <DistanceMeters>3424.4204617194</DistanceMeters>
          </Trackpoint>
          <Trackpoint>
            <Time>2018-12-30T09:43:02.000Z</Time>
            <Position>
              <LatitudeDegrees>40.75693284161388874053955078125</LatitudeDegrees>
              <LongitudeDegrees>-4.0770832635462284088134765625</LongitudeDegrees>
            </Position>
            <AltitudeMeters>1329.4000244140625</AltitudeMeters>
            <DistanceMeters>3425.82993567</DistanceMeters>
          </Trackpoint>
          <Trackpoint>
            <Time>2018-12-30T09:43:03.000Z</Time>
            <Position>
              <LatitudeDegrees>40.75694440864026546478271484375</LatitudeDegrees>
              <LongitudeDegrees>-4.0770856104791164398193359375</LongitudeDegrees>
            </Position>
            <AltitudeMeters>1329.5999755859375</AltitudeMeters>
            <DistanceMeters>3427.136337005</DistanceMeters>
          </Trackpoint>
          <Trackpoint>
            <Time>2018-12-30T09:43:04.000Z</Time>
            <Position>
              <LatitudeDegrees>40.7569533772766590118408203125</LatitudeDegrees>
              <LongitudeDegrees>-4.07709273509681224822998046875</LongitudeDegrees>
            </Position>
            <AltitudeMeters>1329.800048828125</AltitudeMeters>
            <DistanceMeters>3428.3079050224</DistanceMeters>
          </Trackpoint>
          <Trackpoint>
            <Time>2018-12-30T09:43:05.000Z</Time>
            <Position>
              <LatitudeDegrees>40.7569634355604648590087890625</LatitudeDegrees>
              <LongitudeDegrees>-4.07709709368646144866943359375</LongitudeDegrees>
            </Position>
            <AltitudeMeters>1330</AltitudeMeters>
            <DistanceMeters>3429.4871555354</DistanceMeters>
          </Trackpoint>
          <Trackpoint>
            <Time>2018-12-30T09:43:06.000Z</Time>
            <Position>
              <LatitudeDegrees>40.756973326206207275390625</LatitudeDegrees>
              <LongitudeDegrees>-4.07710187137126922607421875</LongitudeDegrees>
            </Position>
            <AltitudeMeters>1330</AltitudeMeters>
            <DistanceMeters>3430.6587235528</DistanceMeters>
          </Trackpoint>
          <Trackpoint>
            <Time>2018-12-30T09:43:07.000Z</Time>
            <Position>
              <LatitudeDegrees>40.7569812051951885223388671875</LatitudeDegrees>
              <LongitudeDegrees>-4.07710715197026729583740234375</LongitudeDegrees>
            </Position>
            <AltitudeMeters>1329.800048828125</AltitudeMeters>
            <DistanceMeters>3431.646270137</DistanceMeters>
          </Trackpoint>
          <Trackpoint>
            <Time>2018-12-30T09:43:08.000Z</Time>
            <Position>
              <LatitudeDegrees>40.7569902576506137847900390625</LatitudeDegrees>
              <LongitudeDegrees>-4.07711301930248737335205078125</LongitudeDegrees>
            </Position>
            <AltitudeMeters>1329.800048828125</AltitudeMeters>
            <DistanceMeters>3432.7666185764</DistanceMeters>
          </Trackpoint>
          <Trackpoint>
            <Time>2018-12-30T09:43:09.000Z</Time>
            <Position>
              <LatitudeDegrees>40.75700375251471996307373046875</LatitudeDegrees>
              <LongitudeDegrees>-4.07710815779864788055419921875</LongitudeDegrees>
            </Position>
            <AltitudeMeters>1330</AltitudeMeters>
            <DistanceMeters>3434.3222729362</DistanceMeters>
          </Trackpoint>
          <Trackpoint>
            <Time>2018-12-30T09:43:10.000Z</Time>
            <Position>
              <LatitudeDegrees>40.757010541856288909912109375</LatitudeDegrees>
              <LongitudeDegrees>-4.0771094150841236114501953125</LongitudeDegrees>
            </Position>
            <AltitudeMeters>1330</AltitudeMeters>
            <DistanceMeters>3435.0824866511</DistanceMeters>
          </Trackpoint>
          <Trackpoint>
            <Time>2018-12-30T09:43:11.000Z</Time>
            <Position>
              <LatitudeDegrees>40.75701934285461902618408203125</LatitudeDegrees>
              <LongitudeDegrees>-4.0771134383976459503173828125</LongitudeDegrees>
            </Position>
            <AltitudeMeters>1329.800048828125</AltitudeMeters>
            <DistanceMeters>3436.1191057214</DistanceMeters>
          </Trackpoint>
          <Trackpoint>
            <Time>2018-12-30T09:43:12.000Z</Time>
            <Position>
              <LatitudeDegrees>40.757029317319393157958984375</LatitudeDegrees>
              <LongitudeDegrees>-4.0771127678453922271728515625</LongitudeDegrees>
            </Position>
            <AltitudeMeters>1330</AltitudeMeters>
            <DistanceMeters>3437.235416856</DistanceMeters>
          </Trackpoint>
          <Trackpoint>
            <Time>2018-12-30T09:43:13.000Z</Time>
            <Position>
              <LatitudeDegrees>40.75703996233642101287841796875</LatitudeDegrees>
              <LongitudeDegrees>-4.0771151147782802581787109375</LongitudeDegrees>
            </Position>
            <AltitudeMeters>1330</AltitudeMeters>
            <DistanceMeters>3438.4411706897</DistanceMeters>
          </Trackpoint>
          <Trackpoint>
            <Time>2018-12-30T09:43:14.000Z</Time>
            <Position>
              <LatitudeDegrees>40.75704884715378284454345703125</LatitudeDegrees>
              <LongitudeDegrees>-4.077118970453739166259765625</LongitudeDegrees>
            </Position>
            <AltitudeMeters>1330.199951171875</AltitudeMeters>
            <DistanceMeters>3439.4821361902</DistanceMeters>
          </Trackpoint>
          <Trackpoint>
            <Time>2018-12-30T09:43:15.000Z</Time>
            <Position>
              <LatitudeDegrees>40.757059156894683837890625</LatitudeDegrees>
              <LongitudeDegrees>-4.07711737789213657379150390625</LongitudeDegrees>
            </Position>
            <AltitudeMeters>1330.4000244140625</AltitudeMeters>
            <DistanceMeters>3440.6381860653</DistanceMeters>
          </Trackpoint>
          <Trackpoint>
            <Time>2018-12-30T09:43:16.000Z</Time>
            <Position>
              <LatitudeDegrees>40.7570750825107097625732421875</LatitudeDegrees>
              <LongitudeDegrees>-4.0771171264350414276123046875</LongitudeDegrees>
            </Position>
            <AltitudeMeters>1330.5999755859375</AltitudeMeters>
            <DistanceMeters>3442.4108864355</DistanceMeters>
          </Trackpoint>
          <Trackpoint>
            <Time>2018-12-30T09:43:17.000Z</Time>
            <Position>
              <LatitudeDegrees>40.7570881582796573638916015625</LatitudeDegrees>
              <LongitudeDegrees>-4.07711922191083431243896484375</LongitudeDegrees>
            </Position>
            <AltitudeMeters>1330.800048828125</AltitudeMeters>
            <DistanceMeters>3443.8738041083</DistanceMeters>
          </Trackpoint>
          <Trackpoint>
            <Time>2018-12-30T09:43:18.000Z</Time>
            <Position>
              <LatitudeDegrees>40.757099725306034088134765625</LatitudeDegrees>
              <LongitudeDegrees>-4.07711620442569255828857421875</LongitudeDegrees>
            </Position>
            <AltitudeMeters>1331.199951171875</AltitudeMeters>
            <DistanceMeters>3445.1870994295</DistanceMeters>
          </Trackpoint>
          <Trackpoint>
            <Time>2018-12-30T09:43:19.000Z</Time>
            <Position>
              <LatitudeDegrees>40.75710676610469818115234375</LatitudeDegrees>
              <LongitudeDegrees>-4.07711922191083431243896484375</LongitudeDegrees>
            </Position>
            <AltitudeMeters>1331.4000244140625</AltitudeMeters>
            <DistanceMeters>3446.0155231193</DistanceMeters>
          </Trackpoint>
          <Trackpoint>
            <Time>2018-12-30T09:43:20.000Z</Time>
            <Position>
              <LatitudeDegrees>40.75711523182690143585205078125</LatitudeDegrees>
              <LongitudeDegrees>-4.0771255083382129669189453125</LongitudeDegrees>
            </Position>
            <AltitudeMeters>1331.5999755859375</AltitudeMeters>
            <DistanceMeters>3447.0948191219</DistanceMeters>
          </Trackpoint>
          <Trackpoint>
            <Time>2018-12-30T09:43:21.000Z</Time>
            <Position>
              <LatitudeDegrees>40.7571277208626270294189453125</LatitudeDegrees>
              <LongitudeDegrees>-4.0771360695362091064453125</LongitudeDegrees>
            </Position>
            <AltitudeMeters>1331.5999755859375</AltitudeMeters>
            <DistanceMeters>3448.7462073518</DistanceMeters>
          </Trackpoint>
          <Trackpoint>
            <Time>2018-12-30T09:43:22.000Z</Time>
            <Position>
              <LatitudeDegrees>40.757130570709705352783203125</LatitudeDegrees>
              <LongitudeDegrees>-4.07714118249714374542236328125</LongitudeDegrees>
            </Position>
            <AltitudeMeters>1331.800048828125</AltitudeMeters>
            <DistanceMeters>3449.2837596248</DistanceMeters>
          </Trackpoint>
          <Trackpoint>
            <Time>2018-12-30T09:43:23.000Z</Time>
            <Position>
              <LatitudeDegrees>40.75713803060352802276611328125</LatitudeDegrees>
              <LongitudeDegrees>-4.07713615335524082183837890625</LongitudeDegrees>
            </Position>
            <AltitudeMeters>1331.800048828125</AltitudeMeters>
            <DistanceMeters>3450.2148274734</DistanceMeters>
          </Trackpoint>
          <Trackpoint>
            <Time>2018-12-30T09:43:24.000Z</Time>
            <Position>
              <LatitudeDegrees>40.75714255683124065399169921875</LatitudeDegrees>
              <LongitudeDegrees>-4.07714017666876316070556640625</LongitudeDegrees>
            </Position>
            <AltitudeMeters>1331.800048828125</AltitudeMeters>
            <DistanceMeters>3450.8158291853</DistanceMeters>
          </Trackpoint>
          <Trackpoint>
            <Time>2018-12-30T09:43:25.000Z</Time>
            <Position>
              <LatitudeDegrees>40.75715445913374423980712890625</LatitudeDegrees>
              <LongitudeDegrees>-4.07714403234422206878662109375</LongitudeDegrees>
            </Position>
            <AltitudeMeters>1331.800048828125</AltitudeMeters>
            <DistanceMeters>3452.1730821443</DistanceMeters>
          </Trackpoint>
          <Trackpoint>
            <Time>2018-12-30T09:43:26.000Z</Time>
            <Position>
              <LatitudeDegrees>40.75718312524259090423583984375</LatitudeDegrees>
              <LongitudeDegrees>-4.077147133648395538330078125</LongitudeDegrees>
            </Position>
            <AltitudeMeters>1332</AltitudeMeters>
            <DistanceMeters>3455.3730988142</DistanceMeters>
          </Trackpoint>
          <Trackpoint>
            <Time>2018-12-30T09:43:27.000Z</Time>
            <Position>
              <LatitudeDegrees>40.75718312524259090423583984375</LatitudeDegrees>
              <LongitudeDegrees>-4.077147133648395538330078125</LongitudeDegrees>
            </Position>
            <AltitudeMeters>1332</AltitudeMeters>
            <DistanceMeters>3455.3730988142</DistanceMeters>
          </Trackpoint>
          <Trackpoint>
            <Time>2018-12-30T09:43:28.000Z</Time>
            <Position>
              <LatitudeDegrees>40.757197625935077667236328125</LatitudeDegrees>
              <LongitudeDegrees>-4.0771469660103321075439453125</LongitudeDegrees>
            </Position>
            <AltitudeMeters>1331.800048828125</AltitudeMeters>
            <DistanceMeters>3456.9857556332</DistanceMeters>
          </Trackpoint>
          <Trackpoint>
            <Time>2018-12-30T09:43:29.000Z</Time>
            <Position>
              <LatitudeDegrees>40.75721464119851589202880859375</LatitudeDegrees>
              <LongitudeDegrees>-4.07714906148612499237060546875</LongitudeDegrees>
            </Position>
            <AltitudeMeters>1331.800048828125</AltitudeMeters>
            <DistanceMeters>3458.8886641055</DistanceMeters>
          </Trackpoint>
          <Trackpoint>
            <Time>2018-12-30T09:43:30.000Z</Time>
            <Position>
              <LatitudeDegrees>40.757231824100017547607421875</LatitudeDegrees>
              <LongitudeDegrees>-4.077152498066425323486328125</LongitudeDegrees>
            </Position>
            <AltitudeMeters>1332</AltitudeMeters>
            <DistanceMeters>3460.8221717077</DistanceMeters>
          </Trackpoint>
          <Trackpoint>
            <Time>2018-12-30T09:43:31.000Z</Time>
            <Position>
              <LatitudeDegrees>40.75724800117313861846923828125</LatitudeDegrees>
              <LongitudeDegrees>-4.0771600417792797088623046875</LongitudeDegrees>
            </Position>
            <AltitudeMeters>1332.199951171875</AltitudeMeters>
            <DistanceMeters>3462.7321850279</DistanceMeters>
          </Trackpoint>
          <Trackpoint>
            <Time>2018-12-30T09:43:32.000Z</Time>
            <Position>
              <LatitudeDegrees>40.75726099312305450439453125</LatitudeDegrees>
              <LongitudeDegrees>-4.07716599293053150177001953125</LongitudeDegrees>
            </Position>
            <AltitudeMeters>1332.4000244140625</AltitudeMeters>
            <DistanceMeters>3464.2614952642</DistanceMeters>
          </Trackpoint>
          <Trackpoint>
            <Time>2018-12-30T09:43:33.000Z</Time>
            <Position>
              <LatitudeDegrees>40.75726501643657684326171875</LatitudeDegrees>
              <LongitudeDegrees>-4.07717504538595676422119140625</LongitudeDegrees>
            </Position>
            <AltitudeMeters>1332.5999755859375</AltitudeMeters>
            <DistanceMeters>3465.1427367602</DistanceMeters>
          </Trackpoint>
          <Trackpoint>
            <Time>2018-12-30T09:43:34.000Z</Time>
            <Position>
              <LatitudeDegrees>40.75727482326328754425048828125</LatitudeDegrees>
              <LongitudeDegrees>-4.07718108035624027252197265625</LongitudeDegrees>
            </Position>
            <AltitudeMeters>1332.4000244140625</AltitudeMeters>
            <DistanceMeters>3466.3484905939</DistanceMeters>
          </Trackpoint>
          <Trackpoint>
            <Time>2018-12-30T09:43:35.000Z</Time>
            <Position>
              <LatitudeDegrees>40.7572849653661251068115234375</LatitudeDegrees>
              <LongitudeDegrees>-4.07718862406909465789794921875</LongitudeDegrees>
            </Position>
            <AltitudeMeters>1332.5999755859375</AltitudeMeters>
            <DistanceMeters>3467.6444821905</DistanceMeters>
          </Trackpoint>
          <Trackpoint>
            <Time>2018-12-30T09:43:36.000Z</Time>
            <Position>
              <LatitudeDegrees>40.75728907249867916107177734375</LatitudeDegrees>
              <LongitudeDegrees>-4.0771928988397121429443359375</LongitudeDegrees>
            </Position>
            <AltitudeMeters>1332.800048828125</AltitudeMeters>
            <DistanceMeters>3468.2302661992</DistanceMeters>
          </Trackpoint>
          <Trackpoint>
            <Time>2018-12-30T09:43:37.000Z</Time>
            <Position>
              <LatitudeDegrees>40.7572873122990131378173828125</LatitudeDegrees>
              <LongitudeDegrees>-4.0771902166306972503662109375</LongitudeDegrees>
            </Position>
            <AltitudeMeters>1332.800048828125</AltitudeMeters>
            <DistanceMeters>3468.5307670552</DistanceMeters>
          </Trackpoint>
          <Trackpoint>
            <Time>2018-12-30T09:43:38.000Z</Time>
            <Position>
              <LatitudeDegrees>40.75728781521320343017578125</LatitudeDegrees>
              <LongitudeDegrees>-4.077185355126857757568359375</LongitudeDegrees>
            </Position>
            <AltitudeMeters>1332.800048828125</AltitudeMeters>
            <DistanceMeters>3468.93393126</DistanceMeters>
          </Trackpoint>
          <Trackpoint>
            <Time>2018-12-30T09:43:39.000Z</Time>
            <Position>
              <LatitudeDegrees>40.7572856359183788299560546875</LatitudeDegrees>
              <LongitudeDegrees>-4.07718560658395290374755859375</LongitudeDegrees>
            </Position>
            <AltitudeMeters>1332.5999755859375</AltitudeMeters>
            <DistanceMeters>3469.1666982221</DistanceMeters>
          </Trackpoint>
          <Trackpoint>
            <Time>2018-12-30T09:43:40.000Z</Time>
            <Position>
              <LatitudeDegrees>40.75727951712906360626220703125</LatitudeDegrees>
              <LongitudeDegrees>-4.0771915577352046966552734375</LongitudeDegrees>
            </Position>
            <AltitudeMeters>1332.5999755859375</AltitudeMeters>
            <DistanceMeters>3470.0059514393</DistanceMeters>
          </Trackpoint>
          <Trackpoint>
            <Time>2018-12-30T09:43:41.000Z</Time>
            <Position>
              <LatitudeDegrees>40.75728245079517364501953125</LatitudeDegrees>
              <LongitudeDegrees>-4.07719247974455356597900390625</LongitudeDegrees>
            </Position>
            <AltitudeMeters>1332.800048828125</AltitudeMeters>
            <DistanceMeters>3470.3351336341</DistanceMeters>
          </Trackpoint>
          <Trackpoint>
            <Time>2018-12-30T09:43:42.000Z</Time>
            <Position>
              <LatitudeDegrees>40.75728991068899631500244140625</LatitudeDegrees>
              <LongitudeDegrees>-4.0771868638694286346435546875</LongitudeDegrees>
            </Position>
            <AltitudeMeters>1332.800048828125</AltitudeMeters>
            <DistanceMeters>3471.2901402942</DistanceMeters>
          </Trackpoint>
          <Trackpoint>
            <Time>2018-12-30T09:43:43.000Z</Time>
            <Position>
              <LatitudeDegrees>40.7573000527918338775634765625</LatitudeDegrees>
              <LongitudeDegrees>-4.0771801583468914031982421875</LongitudeDegrees>
            </Position>
            <AltitudeMeters>1332.800048828125</AltitudeMeters>
            <DistanceMeters>3472.5508121207</DistanceMeters>
          </Trackpoint>
          <Trackpoint>
            <Time>2018-12-30T09:43:44.000Z</Time>
            <Position>
              <LatitudeDegrees>40.757306255400180816650390625</LatitudeDegrees>
              <LongitudeDegrees>-4.07717353664338588714599609375</LongitudeDegrees>
            </Position>
            <AltitudeMeters>1332.800048828125</AltitudeMeters>
            <DistanceMeters>3473.4320536166</DistanceMeters>
          </Trackpoint>
          <Trackpoint>
            <Time>2018-12-30T09:43:45.000Z</Time>
            <Position>
              <LatitudeDegrees>40.7573154754936695098876953125</LatitudeDegrees>
              <LongitudeDegrees>-4.07717764377593994140625</LongitudeDegrees>
            </Position>
            <AltitudeMeters>1333</AltitudeMeters>
            <DistanceMeters>3474.5113496192</DistanceMeters>
          </Trackpoint>
          <Trackpoint>
            <Time>2018-12-30T09:43:46.000Z</Time>
            <Position>
              <LatitudeDegrees>40.75732394121587276458740234375</LatitudeDegrees>
              <LongitudeDegrees>-4.077175967395305633544921875</LongitudeDegrees>
            </Position>
            <AltitudeMeters>1333</AltitudeMeters>
            <DistanceMeters>3475.4616167629</DistanceMeters>
          </Trackpoint>
          <Trackpoint>
            <Time>2018-12-30T09:43:47.000Z</Time>
            <Position>
              <LatitudeDegrees>40.7573332451283931732177734375</LatitudeDegrees>
              <LongitudeDegrees>-4.077175296843051910400390625</LongitudeDegrees>
            </Position>
            <AltitudeMeters>1333</AltitudeMeters>
            <DistanceMeters>3476.4982358332</DistanceMeters>
          </Trackpoint>
          <Trackpoint>
            <Time>2018-12-30T09:43:48.000Z</Time>
            <Position>
              <LatitudeDegrees>40.7573443092405796051025390625</LatitudeDegrees>
              <LongitudeDegrees>-4.077176637947559356689453125</LongitudeDegrees>
            </Position>
            <AltitudeMeters>1333</AltitudeMeters>
            <DistanceMeters>3477.7299228237</DistanceMeters>
          </Trackpoint>
          <Trackpoint>
            <Time>2018-12-30T09:43:49.000Z</Time>
            <Position>
              <LatitudeDegrees>40.757359229028224945068359375</LatitudeDegrees>
              <LongitudeDegrees>-4.07718024216592311859130859375</LongitudeDegrees>
            </Position>
            <AltitudeMeters>1333</AltitudeMeters>
            <DistanceMeters>3479.419154648</DistanceMeters>
          </Trackpoint>
          <Trackpoint>
            <Time>2018-12-30T09:43:50.000Z</Time>
            <Position>
              <LatitudeDegrees>40.75737004168331623077392578125</LatitudeDegrees>
              <LongitudeDegrees>-4.077188037335872650146484375</LongitudeDegrees>
            </Position>
            <AltitudeMeters>1333</AltitudeMeters>
            <DistanceMeters>3480.7929399212</DistanceMeters>
          </Trackpoint>
          <Trackpoint>
            <Time>2018-12-30T09:43:51.000Z</Time>
            <Position>
              <LatitudeDegrees>40.7573811896145343780517578125</LatitudeDegrees>
              <LongitudeDegrees>-4.07719708979129791259765625</LongitudeDegrees>
            </Position>
            <AltitudeMeters>1333.199951171875</AltitudeMeters>
            <DistanceMeters>3482.2465691338</DistanceMeters>
          </Trackpoint>
          <Trackpoint>
            <Time>2018-12-30T09:43:52.000Z</Time>
            <Position>
              <LatitudeDegrees>40.75738881714642047882080078125</LatitudeDegrees>
              <LongitudeDegrees>-4.0772073157131671905517578125</LongitudeDegrees>
            </Position>
            <AltitudeMeters>1333.199951171875</AltitudeMeters>
            <DistanceMeters>3483.4560617481</DistanceMeters>
          </Trackpoint>
          <Trackpoint>
            <Time>2018-12-30T09:43:53.000Z</Time>
            <Position>
              <LatitudeDegrees>40.7573952712118625640869140625</LatitudeDegrees>
              <LongitudeDegrees>-4.07721293158829212188720703125</LongitudeDegrees>
            </Position>
            <AltitudeMeters>1333.199951171875</AltitudeMeters>
            <DistanceMeters>3484.3165652451</DistanceMeters>
          </Trackpoint>
          <Trackpoint>
            <Time>2018-12-30T09:43:54.000Z</Time>
            <Position>
              <LatitudeDegrees>40.757404826581478118896484375</LatitudeDegrees>
              <LongitudeDegrees>-4.07721091993153095245361328125</LongitudeDegrees>
            </Position>
            <AltitudeMeters>1333.4000244140625</AltitudeMeters>
            <DistanceMeters>3485.3916697911</DistanceMeters>
          </Trackpoint>
          <Trackpoint>
            <Time>2018-12-30T09:43:55.000Z</Time>
            <Position>
              <LatitudeDegrees>40.75741463340818881988525390625</LatitudeDegrees>
              <LongitudeDegrees>-4.0772083215415477752685546875</LongitudeDegrees>
            </Position>
            <AltitudeMeters>1333.5999755859375</AltitudeMeters>
            <DistanceMeters>3486.4998621916</DistanceMeters>
          </Trackpoint>
          <Trackpoint>
            <Time>2018-12-30T09:43:56.000Z</Time>
            <Position>
              <LatitudeDegrees>40.7574217580258846282958984375</LatitudeDegrees>
              <LongitudeDegrees>-4.0772056393325328826904296875</LongitudeDegrees>
            </Position>
            <AltitudeMeters>1333.5999755859375</AltitudeMeters>
            <DistanceMeters>3487.333718226</DistanceMeters>
          </Trackpoint>
          <Trackpoint>
            <Time>2018-12-30T09:43:57.000Z</Time>
            <Position>
              <LatitudeDegrees>40.75742703862488269805908203125</LatitudeDegrees>
              <LongitudeDegrees>-4.07719683833420276641845703125</LongitudeDegrees>
            </Position>
            <AltitudeMeters>1333.800048828125</AltitudeMeters>
            <DistanceMeters>3488.2744347038</DistanceMeters>
          </Trackpoint>
          <Trackpoint>
            <Time>2018-12-30T09:43:58.000Z</Time>
            <Position>
              <LatitudeDegrees>40.75743474997580051422119140625</LatitudeDegrees>
              <LongitudeDegrees>-4.07720379531383514404296875</LongitudeDegrees>
            </Position>
            <AltitudeMeters>1334</AltitudeMeters>
            <DistanceMeters>3489.311053774</DistanceMeters>
          </Trackpoint>
          <Trackpoint>
            <Time>2018-12-30T09:43:59.000Z</Time>
            <Position>
              <LatitudeDegrees>40.757443718612194061279296875</LatitudeDegrees>
              <LongitudeDegrees>-4.07720488496124744415283203125</LongitudeDegrees>
            </Position>
            <AltitudeMeters>1334</AltitudeMeters>
            <DistanceMeters>3490.3167219905</DistanceMeters>
          </Trackpoint>
          <Trackpoint>
            <Time>2018-12-30T09:44:00.000Z</Time>
            <Position>
              <LatitudeDegrees>40.7574539445340633392333984375</LatitudeDegrees>
              <LongitudeDegrees>-4.07720555551350116729736328125</LongitudeDegrees>
            </Position>
            <AltitudeMeters>1334.199951171875</AltitudeMeters>
            <DistanceMeters>3491.457042563</DistanceMeters>
          </Trackpoint>
          <Trackpoint>
            <Time>2018-12-30T09:44:01.000Z</Time>
            <Position>
              <LatitudeDegrees>40.757463835179805755615234375</LatitudeDegrees>
              <LongitudeDegrees>-4.07720522023737430572509765625</LongitudeDegrees>
            </Position>
            <AltitudeMeters>1334.199951171875</AltitudeMeters>
            <DistanceMeters>3492.5570563099</DistanceMeters>
          </Trackpoint>
          <Trackpoint>
            <Time>2018-12-30T09:44:02.000Z</Time>
            <Position>
              <LatitudeDegrees>40.7574789226055145263671875</LatitudeDegrees>
              <LongitudeDegrees>-4.077207148075103759765625</LongitudeDegrees>
            </Position>
            <AltitudeMeters>1334.199951171875</AltitudeMeters>
            <DistanceMeters>3494.2409339787</DistanceMeters>
          </Trackpoint>
          <Trackpoint>
            <Time>2018-12-30T09:44:03.000Z</Time>
            <Position>
              <LatitudeDegrees>40.75748906470835208892822265625</LatitudeDegrees>
              <LongitudeDegrees>-4.07721318304538726806640625</LongitudeDegrees>
            </Position>
            <AltitudeMeters>1334.199951171875</AltitudeMeters>
            <DistanceMeters>3495.4799307485</DistanceMeters>
          </Trackpoint>
          <Trackpoint>
            <Time>2018-12-30T09:44:04.000Z</Time>
            <Position>
              <LatitudeDegrees>40.7574995420873165130615234375</LatitudeDegrees>
              <LongitudeDegrees>-4.077220223844051361083984375</LongitudeDegrees>
            </Position>
            <AltitudeMeters>1334.4000244140625</AltitudeMeters>
            <DistanceMeters>3496.7897836121</DistanceMeters>
          </Trackpoint>
          <Trackpoint>
            <Time>2018-12-30T09:44:05.000Z</Time>
            <Position>
              <LatitudeDegrees>40.7575079239904880523681640625</LatitudeDegrees>
              <LongitudeDegrees>-4.07722483389079570770263671875</LongitudeDegrees>
            </Position>
            <AltitudeMeters>1334.4000244140625</AltitudeMeters>
            <DistanceMeters>3497.8043912775</DistanceMeters>
          </Trackpoint>
          <Trackpoint>
            <Time>2018-12-30T09:44:06.000Z</Time>
            <Position>
              <LatitudeDegrees>40.75751848518848419189453125</LatitudeDegrees>
              <LongitudeDegrees>-4.0772368200123310089111328125</LongitudeDegrees>
            </Position>
            <AltitudeMeters>1334.5999755859375</AltitudeMeters>
            <DistanceMeters>3499.3571405845</DistanceMeters>
          </Trackpoint>
          <Trackpoint>
            <Time>2018-12-30T09:44:07.000Z</Time>
            <Position>
              <LatitudeDegrees>40.7575334049761295318603515625</LatitudeDegrees>
              <LongitudeDegrees>-4.07724830321967601776123046875</LongitudeDegrees>
            </Position>
            <AltitudeMeters>1335</AltitudeMeters>
            <DistanceMeters>3501.2812848987</DistanceMeters>
          </Trackpoint>
          <Trackpoint>
            <Time>2018-12-30T09:44:08.000Z</Time>
            <Position>
              <LatitudeDegrees>40.75754052959382534027099609375</LatitudeDegrees>
              <LongitudeDegrees>-4.07725601457059383392333984375</LongitudeDegrees>
            </Position>
            <AltitudeMeters>1335.199951171875</AltitudeMeters>
            <DistanceMeters>3502.3047539347</DistanceMeters>
          </Trackpoint>
          <Trackpoint>
            <Time>2018-12-30T09:44:09.000Z</Time>
            <Position>
              <LatitudeDegrees>40.75754790566861629486083984375</LatitudeDegrees>
              <LongitudeDegrees>-4.07726858742535114288330078125</LongitudeDegrees>
            </Position>
            <AltitudeMeters>1335.4000244140625</AltitudeMeters>
            <DistanceMeters>3503.6452707053</DistanceMeters>
          </Trackpoint>
          <Trackpoint>
            <Time>2018-12-30T09:44:10.000Z</Time>
            <Position>
              <LatitudeDegrees>40.75755595229566097259521484375</LatitudeDegrees>
              <LongitudeDegrees>-4.0772755444049835205078125</LongitudeDegrees>
            </Position>
            <AltitudeMeters>1335.4000244140625</AltitudeMeters>
            <DistanceMeters>3504.7119429286</DistanceMeters>
          </Trackpoint>
          <Trackpoint>
            <Time>2018-12-30T09:44:11.000Z</Time>
            <Position>
              <LatitudeDegrees>40.75756617821753025054931640625</LatitudeDegrees>
              <LongitudeDegrees>-4.077275879681110382080078125</LongitudeDegrees>
            </Position>
            <AltitudeMeters>1335.4000244140625</AltitudeMeters>
            <DistanceMeters>3505.852263501</DistanceMeters>
          </Trackpoint>
          <Trackpoint>
            <Time>2018-12-30T09:44:12.000Z</Time>
            <Position>
              <LatitudeDegrees>40.7575759850442409515380859375</LatitudeDegrees>
              <LongitudeDegrees>-4.0772690065205097198486328125</LongitudeDegrees>
            </Position>
            <AltitudeMeters>1335.4000244140625</AltitudeMeters>
            <DistanceMeters>3507.0912602708</DistanceMeters>
          </Trackpoint>
          <Trackpoint>
            <Time>2018-12-30T09:44:13.000Z</Time>
            <Position>
              <LatitudeDegrees>40.75757925398647785186767578125</LatitudeDegrees>
              <LongitudeDegrees>-4.07726875506341457366943359375</LongitudeDegrees>
            </Position>
            <AltitudeMeters>1335.4000244140625</AltitudeMeters>
            <DistanceMeters>3507.4468176786</DistanceMeters>
          </Trackpoint>
          <Trackpoint>
            <Time>2018-12-30T09:44:14.000Z</Time>
            <Position>
              <LatitudeDegrees>40.75758227147161960601806640625</LatitudeDegrees>
              <LongitudeDegrees>-4.0772646479308605194091796875</LongitudeDegrees>
            </Position>
            <AltitudeMeters>1335.4000244140625</AltitudeMeters>
            <DistanceMeters>3507.9313607494</DistanceMeters>
          </Trackpoint>
          <Trackpoint>
            <Time>2018-12-30T09:44:15.000Z</Time>
            <Position>
              <LatitudeDegrees>40.75758512131869792938232421875</LatitudeDegrees>
              <LongitudeDegrees>-4.07726556994020938873291015625</LongitudeDegrees>
            </Position>
            <AltitudeMeters>1335.199951171875</AltitudeMeters>
            <DistanceMeters>3508.2869181572</DistanceMeters>
          </Trackpoint>
          <Trackpoint>
            <Time>2018-12-30T09:44:16.000Z</Time>
            <Position>
              <LatitudeDegrees>40.75758528895676136016845703125</LatitudeDegrees>
              <LongitudeDegrees>-4.0772653184831142425537109375</LongitudeDegrees>
            </Position>
            <AltitudeMeters>1335.199951171875</AltitudeMeters>
            <DistanceMeters>3508.2869181572</DistanceMeters>
          </Trackpoint>
          <Trackpoint>
            <Time>2018-12-30T09:44:17.000Z</Time>
            <Position>
              <LatitudeDegrees>40.75758688151836395263671875</LatitudeDegrees>
              <LongitudeDegrees>-4.0772576071321964263916015625</LongitudeDegrees>
            </Position>
            <AltitudeMeters>1335.199951171875</AltitudeMeters>
            <DistanceMeters>3508.9588584984</DistanceMeters>
          </Trackpoint>
          <Trackpoint>
            <Time>2018-12-30T09:44:18.000Z</Time>
            <Position>
              <LatitudeDegrees>40.757585875689983367919921875</LatitudeDegrees>
              <LongitudeDegrees>-4.07725232653319835662841796875</LongitudeDegrees>
            </Position>
            <AltitudeMeters>1335.199951171875</AltitudeMeters>
            <DistanceMeters>3509.4045732971</DistanceMeters>
          </Trackpoint>
          <Trackpoint>
            <Time>2018-12-30T09:44:19.000Z</Time>
            <Position>
              <LatitudeDegrees>40.757590234279632568359375</LatitudeDegrees>
              <LongitudeDegrees>-4.07725836150348186492919921875</LongitudeDegrees>
            </Position>
            <AltitudeMeters>1335.4000244140625</AltitudeMeters>
            <DistanceMeters>3510.1093102725</DistanceMeters>
          </Trackpoint>
          <Trackpoint>
            <Time>2018-12-30T09:44:20.000Z</Time>
            <Position>
              <LatitudeDegrees>40.75759802944958209991455078125</LatitudeDegrees>
              <LongitudeDegrees>-4.07727227546274662017822265625</LongitudeDegrees>
            </Position>
            <AltitudeMeters>1335.4000244140625</AltitudeMeters>
            <DistanceMeters>3511.5691383585</DistanceMeters>
          </Trackpoint>
          <Trackpoint>
            <Time>2018-12-30T09:44:21.000Z</Time>
            <Position>
              <LatitudeDegrees>40.75760976411402225494384765625</LatitudeDegrees>
              <LongitudeDegrees>-4.0772782266139984130859375</LongitudeDegrees>
            </Position>
            <AltitudeMeters>1335.5999755859375</AltitudeMeters>
            <DistanceMeters>3512.9657401314</DistanceMeters>
          </Trackpoint>
          <Trackpoint>
            <Time>2018-12-30T09:44:22.000Z</Time>
            <Position>
              <LatitudeDegrees>40.7576145417988300323486328125</LatitudeDegrees>
              <LongitudeDegrees>-4.07727881334722042083740234375</LongitudeDegrees>
            </Position>
            <AltitudeMeters>1335.4000244140625</AltitudeMeters>
            <DistanceMeters>3513.5032924044</DistanceMeters>
          </Trackpoint>
          <Trackpoint>
            <Time>2018-12-30T09:44:23.000Z</Time>
            <Position>
              <LatitudeDegrees>40.75761864893138408660888671875</LatitudeDegrees>
              <LongitudeDegrees>-4.077276550233364105224609375</LongitudeDegrees>
            </Position>
            <AltitudeMeters>1335.4000244140625</AltitudeMeters>
            <DistanceMeters>3513.9970656964</DistanceMeters>
          </Trackpoint>
          <Trackpoint>
            <Time>2018-12-30T09:44:24.000Z</Time>
            <Position>
              <LatitudeDegrees>40.757624767720699310302734375</LatitudeDegrees>
              <LongitudeDegrees>-4.077272526919841766357421875</LongitudeDegrees>
            </Position>
            <AltitudeMeters>1335.4000244140625</AltitudeMeters>
            <DistanceMeters>3514.7572794114</DistanceMeters>
          </Trackpoint>
          <Trackpoint>
            <Time>2018-12-30T09:44:25.000Z</Time>
            <Position>
              <LatitudeDegrees>40.7576329819858074188232421875</LatitudeDegrees>
              <LongitudeDegrees>-4.0772700123488903045654296875</LongitudeDegrees>
            </Position>
            <AltitudeMeters>1335.4000244140625</AltitudeMeters>
            <DistanceMeters>3515.6979958892</DistanceMeters>
          </Trackpoint>
          <Trackpoint>
            <Time>2018-12-30T09:44:26.000Z</Time>
            <Position>
              <LatitudeDegrees>40.757643878459930419921875</LatitudeDegrees>
              <LongitudeDegrees>-4.0772676654160022735595703125</LongitudeDegrees>
            </Position>
            <AltitudeMeters>1335.199951171875</AltitudeMeters>
            <DistanceMeters>3516.9296828797</DistanceMeters>
          </Trackpoint>
          <Trackpoint>
            <Time>2018-12-30T09:44:27.000Z</Time>
            <Position>
              <LatitudeDegrees>40.7576551102101802825927734375</LatitudeDegrees>
              <LongitudeDegrees>-4.077259786427021026611328125</LongitudeDegrees>
            </Position>
            <AltitudeMeters>1335.199951171875</AltitudeMeters>
            <DistanceMeters>3518.34873434</DistanceMeters>
          </Trackpoint>
          <Trackpoint>
            <Time>2018-12-30T09:44:28.000Z</Time>
            <Position>
              <LatitudeDegrees>40.7576641626656055450439453125</LatitudeDegrees>
              <LongitudeDegrees>-4.07725852914154529571533203125</LongitudeDegrees>
            </Position>
            <AltitudeMeters>1335</AltitudeMeters>
            <DistanceMeters>3519.3633420053</DistanceMeters>
          </Trackpoint>
          <Trackpoint>
            <Time>2018-12-30T09:44:29.000Z</Time>
            <Position>
              <LatitudeDegrees>40.7576738856732845306396484375</LatitudeDegrees>
              <LongitudeDegrees>-4.0772502310574054718017578125</LongitudeDegrees>
            </Position>
            <AltitudeMeters>1334.800048828125</AltitudeMeters>
            <DistanceMeters>3520.6523470735</DistanceMeters>
          </Trackpoint>
          <Trackpoint>
            <Time>2018-12-30T09:44:30.000Z</Time>
            <Position>
              <LatitudeDegrees>40.7576869614422321319580078125</LatitudeDegrees>
              <LongitudeDegrees>-4.07724377699196338653564453125</LongitudeDegrees>
            </Position>
            <AltitudeMeters>1334.5999755859375</AltitudeMeters>
            <DistanceMeters>3522.2021858825</DistanceMeters>
          </Trackpoint>
          <Trackpoint>
            <Time>2018-12-30T09:44:31.000Z</Time>
            <Position>
              <LatitudeDegrees>40.7576960138976573944091796875</LatitudeDegrees>
              <LongitudeDegrees>-4.0772326290607452392578125</LongitudeDegrees>
            </Position>
            <AltitudeMeters>1334.4000244140625</AltitudeMeters>
            <DistanceMeters>3523.5792538014</DistanceMeters>
          </Trackpoint>
          <Trackpoint>
            <Time>2018-12-30T09:44:32.000Z</Time>
            <Position>
              <LatitudeDegrees>40.757700540125370025634765625</LatitudeDegrees>
              <LongitudeDegrees>-4.07722248695790767669677734375</LongitudeDegrees>
            </Position>
            <AltitudeMeters>1334.4000244140625</AltitudeMeters>
            <DistanceMeters>3524.5668003856</DistanceMeters>
          </Trackpoint>
          <Trackpoint>
            <Time>2018-12-30T09:44:33.000Z</Time>
            <Position>
              <LatitudeDegrees>40.75770464725792407989501953125</LatitudeDegrees>
              <LongitudeDegrees>-4.07721024937927722930908203125</LongitudeDegrees>
            </Position>
            <AltitudeMeters>1334.199951171875</AltitudeMeters>
            <DistanceMeters>3525.6911716331</DistanceMeters>
          </Trackpoint>
          <Trackpoint>
            <Time>2018-12-30T09:44:34.000Z</Time>
            <Position>
              <LatitudeDegrees>40.75771068222820758819580078125</LatitudeDegrees>
              <LongitudeDegrees>-4.0771985985338687896728515625</LongitudeDegrees>
            </Position>
            <AltitudeMeters>1334</AltitudeMeters>
            <DistanceMeters>3526.8818529514</DistanceMeters>
          </Trackpoint>
          <Trackpoint>
            <Time>2018-12-30T09:44:35.000Z</Time>
            <Position>
              <LatitudeDegrees>40.75771252624690532684326171875</LatitudeDegrees>
              <LongitudeDegrees>-4.07718644477427005767822265625</LongitudeDegrees>
            </Position>
            <AltitudeMeters>1333.800048828125</AltitudeMeters>
            <DistanceMeters>3527.9271468094</DistanceMeters>
          </Trackpoint>
          <Trackpoint>
            <Time>2018-12-30T09:44:36.000Z</Time>
            <Position>
              <LatitudeDegrees>40.75771353207528591156005859375</LatitudeDegrees>
              <LongitudeDegrees>-4.07718275673687458038330078125</LongitudeDegrees>
            </Position>
            <AltitudeMeters>1333.5999755859375</AltitudeMeters>
            <DistanceMeters>3528.2563290042</DistanceMeters>
          </Trackpoint>
          <Trackpoint>
            <Time>2018-12-30T09:44:37.000Z</Time>
            <Position>
              <LatitudeDegrees>40.7577127777040004730224609375</LatitudeDegrees>
              <LongitudeDegrees>-4.077177979052066802978515625</LongitudeDegrees>
            </Position>
            <AltitudeMeters>1333.4000244140625</AltitudeMeters>
            <DistanceMeters>3528.6594932089</DistanceMeters>
          </Trackpoint>
          <Trackpoint>
            <Time>2018-12-30T09:44:38.000Z</Time>
            <Position>
              <LatitudeDegrees>40.757710598409175872802734375</LatitudeDegrees>
              <LongitudeDegrees>-4.0771694295108318328857421875</LongitudeDegrees>
            </Position>
            <AltitudeMeters>1333</AltitudeMeters>
            <DistanceMeters>3529.4197069239</DistanceMeters>
          </Trackpoint>
          <Trackpoint>
            <Time>2018-12-30T09:44:39.000Z</Time>
            <Position>
              <LatitudeDegrees>40.757706575095653533935546875</LatitudeDegrees>
              <LongitudeDegrees>-4.07716331072151660919189453125</LongitudeDegrees>
            </Position>
            <AltitudeMeters>1332.5999755859375</AltitudeMeters>
            <DistanceMeters>3530.1049543063</DistanceMeters>
          </Trackpoint>
          <Trackpoint>
            <Time>2018-12-30T09:44:40.000Z</Time>
            <Position>
              <LatitudeDegrees>40.757703892886638641357421875</LatitudeDegrees>
              <LongitudeDegrees>-4.0771523304283618927001953125</LongitudeDegrees>
            </Position>
            <AltitudeMeters>1332.4000244140625</AltitudeMeters>
            <DistanceMeters>3531.0833142109</DistanceMeters>
          </Trackpoint>
          <Trackpoint>
            <Time>2018-12-30T09:44:41.000Z</Time>
            <Position>
              <LatitudeDegrees>40.75770565308630466461181640625</LatitudeDegrees>
              <LongitudeDegrees>-4.07714151777327060699462890625</LongitudeDegrees>
            </Position>
            <AltitudeMeters>1332.199951171875</AltitudeMeters>
            <DistanceMeters>3532.0192188081</DistanceMeters>
          </Trackpoint>
          <Trackpoint>
            <Time>2018-12-30T09:44:42.000Z</Time>
            <Position>
              <LatitudeDegrees>40.757713280618190765380859375</LatitudeDegrees>
              <LongitudeDegrees>-4.07712860964238643646240234375</LongitudeDegrees>
            </Position>
            <AltitudeMeters>1332</AltitudeMeters>
            <DistanceMeters>3533.4028286542</DistanceMeters>
          </Trackpoint>
          <Trackpoint>
            <Time>2018-12-30T09:44:43.000Z</Time>
            <Position>
              <LatitudeDegrees>40.75772342272102832794189453125</LatitudeDegrees>
              <LongitudeDegrees>-4.0771161206066608428955078125</LongitudeDegrees>
            </Position>
            <AltitudeMeters>1331.800048828125</AltitudeMeters>
            <DistanceMeters>3534.9468300082</DistanceMeters>
          </Trackpoint>
          <Trackpoint>
            <Time>2018-12-30T09:44:44.000Z</Time>
            <Position>
              <LatitudeDegrees>40.757734738290309906005859375</LatitudeDegrees>
              <LongitudeDegrees>-4.07711151055991649627685546875</LongitudeDegrees>
            </Position>
            <AltitudeMeters>1331.4000244140625</AltitudeMeters>
            <DistanceMeters>3536.2635587871</DistanceMeters>
          </Trackpoint>
          <Trackpoint>
            <Time>2018-12-30T09:44:45.000Z</Time>
            <Position>
              <LatitudeDegrees>40.75774672441184520721435546875</LatitudeDegrees>
              <LongitudeDegrees>-4.07710011117160320281982421875</LongitudeDegrees>
            </Position>
            <AltitudeMeters>1331.199951171875</AltitudeMeters>
            <DistanceMeters>3537.906724286</DistanceMeters>
          </Trackpoint>
          <Trackpoint>
            <Time>2018-12-30T09:44:46.000Z</Time>
            <Position>
              <LatitudeDegrees>40.7577597163617610931396484375</LatitudeDegrees>
              <LongitudeDegrees>-4.0770904719829559326171875</LongitudeDegrees>
            </Position>
            <AltitudeMeters>1331</AltitudeMeters>
            <DistanceMeters>3539.5635716655</DistanceMeters>
          </Trackpoint>
          <Trackpoint>
            <Time>2018-12-30T09:44:47.000Z</Time>
            <Position>
              <LatitudeDegrees>40.75777170248329639434814453125</LatitudeDegrees>
              <LongitudeDegrees>-4.07707597129046916961669921875</LongitudeDegrees>
            </Position>
            <AltitudeMeters>1330.800048828125</AltitudeMeters>
            <DistanceMeters>3541.3715782122</DistanceMeters>
          </Trackpoint>
          <Trackpoint>
            <Time>2018-12-30T09:44:48.000Z</Time>
            <Position>
              <LatitudeDegrees>40.7577788271009922027587890625</LatitudeDegrees>
              <LongitudeDegrees>-4.07705887220799922943115234375</LongitudeDegrees>
            </Position>
            <AltitudeMeters>1330.5999755859375</AltitudeMeters>
            <DistanceMeters>3543.0174891858</DistanceMeters>
          </Trackpoint>
          <Trackpoint>
            <Time>2018-12-30T09:44:49.000Z</Time>
            <Position>
              <LatitudeDegrees>40.7577855326235294342041015625</LatitudeDegrees>
              <LongitudeDegrees>-4.0770467184484004974365234375</LongitudeDegrees>
            </Position>
            <AltitudeMeters>1330.4000244140625</AltitudeMeters>
            <DistanceMeters>3544.2817373935</DistanceMeters>
          </Trackpoint>
          <Trackpoint>
            <Time>2018-12-30T09:44:50.000Z</Time>
            <Position>
              <LatitudeDegrees>40.757797099649906158447265625</LatitudeDegrees>
              <LongitudeDegrees>-4.07704529352486133575439453125</LongitudeDegrees>
            </Position>
            <AltitudeMeters>1330.4000244140625</AltitudeMeters>
            <DistanceMeters>3545.5777289901</DistanceMeters>
          </Trackpoint>
          <Trackpoint>
            <Time>2018-12-30T09:44:51.000Z</Time>
            <Position>
              <LatitudeDegrees>40.757803805172443389892578125</LatitudeDegrees>
              <LongitudeDegrees>-4.07704780809581279754638671875</LongitudeDegrees>
            </Position>
            <AltitudeMeters>1330.4000244140625</AltitudeMeters>
            <DistanceMeters>3546.3497296672</DistanceMeters>
          </Trackpoint>
          <Trackpoint>
            <Time>2018-12-30T09:44:52.000Z</Time>
            <Position>
              <LatitudeDegrees>40.757820904254913330078125</LatitudeDegrees>
              <LongitudeDegrees>-4.07707027159631252288818359375</LongitudeDegrees>
            </Position>
            <AltitudeMeters>1330.4000244140625</AltitudeMeters>
            <DistanceMeters>3549.034129228</DistanceMeters>
          </Trackpoint>
          <Trackpoint>
            <Time>2018-12-30T09:44:53.000Z</Time>
            <Position>
              <LatitudeDegrees>40.757836662232875823974609375</LatitudeDegrees>
              <LongitudeDegrees>-4.0770892985165119171142578125</LongitudeDegrees>
            </Position>
            <AltitudeMeters>1330.4000244140625</AltitudeMeters>
            <DistanceMeters>3551.4116968619</DistanceMeters>
          </Trackpoint>
          <Trackpoint>
            <Time>2018-12-30T09:44:54.000Z</Time>
            <Position>
              <LatitudeDegrees>40.7578512467443943023681640625</LatitudeDegrees>
              <LongitudeDegrees>-4.077099859714508056640625</LongitudeDegrees>
            </Position>
            <AltitudeMeters>1330.5999755859375</AltitudeMeters>
            <DistanceMeters>3553.2641085464</DistanceMeters>
          </Trackpoint>
          <Trackpoint>
            <Time>2018-12-30T09:44:55.000Z</Time>
            <Position>
              <LatitudeDegrees>40.75786457397043704986572265625</LatitudeDegrees>
              <LongitudeDegrees>-4.07711016945540904998779296875</LongitudeDegrees>
            </Position>
            <AltitudeMeters>1330.800048828125</AltitudeMeters>
            <DistanceMeters>3554.9851155404</DistanceMeters>
          </Trackpoint>
          <Trackpoint>
            <Time>2018-12-30T09:44:56.000Z</Time>
            <Position>
              <LatitudeDegrees>40.75787790119647979736328125</LatitudeDegrees>
              <LongitudeDegrees>-4.07711972482502460479736328125</LongitudeDegrees>
            </Position>
            <AltitudeMeters>1331</AltitudeMeters>
            <DistanceMeters>3556.6743473648</DistanceMeters>
          </Trackpoint>
          <Trackpoint>
            <Time>2018-12-30T09:44:57.000Z</Time>
            <Position>
              <LatitudeDegrees>40.75789173133671283721923828125</LatitudeDegrees>
              <LongitudeDegrees>-4.07712710089981555938720703125</LongitudeDegrees>
            </Position>
            <AltitudeMeters>1331.4000244140625</AltitudeMeters>
            <DistanceMeters>3558.3339175849</DistanceMeters>
          </Trackpoint>
          <Trackpoint>
            <Time>2018-12-30T09:44:58.000Z</Time>
            <Position>
              <LatitudeDegrees>40.7579062320291996002197265625</LatitudeDegrees>
              <LongitudeDegrees>-4.07713246531784534454345703125</LongitudeDegrees>
            </Position>
            <AltitudeMeters>1331.800048828125</AltitudeMeters>
            <DistanceMeters>3560.0070355417</DistanceMeters>
          </Trackpoint>
          <Trackpoint>
            <Time>2018-12-30T09:44:59.000Z</Time>
            <Position>
              <LatitudeDegrees>40.75791411101818084716796875</LatitudeDegrees>
              <LongitudeDegrees>-4.07713950611650943756103515625</LongitudeDegrees>
            </Position>
            <AltitudeMeters>1332.199951171875</AltitudeMeters>
            <DistanceMeters>3561.0652082493</DistanceMeters>
          </Trackpoint>
          <Trackpoint>
            <Time>2018-12-30T09:45:00.000Z</Time>
            <Position>
              <LatitudeDegrees>40.75791754759848117828369140625</LatitudeDegrees>
              <LongitudeDegrees>-4.077150821685791015625</LongitudeDegrees>
            </Position>
            <AltitudeMeters>1332.4000244140625</AltitudeMeters>
            <DistanceMeters>3562.0886772852</DistanceMeters>
          </Trackpoint>
          <Trackpoint>
            <Time>2018-12-30T09:45:01.000Z</Time>
            <Position>
              <LatitudeDegrees>40.75792140327394008636474609375</LatitudeDegrees>
              <LongitudeDegrees>-4.077159203588962554931640625</LongitudeDegrees>
            </Position>
            <AltitudeMeters>1332.4000244140625</AltitudeMeters>
            <DistanceMeters>3562.917100975</DistanceMeters>
          </Trackpoint>
          <Trackpoint>
            <Time>2018-12-30T09:45:02.000Z</Time>
            <Position>
              <LatitudeDegrees>40.75793129391968250274658203125</LatitudeDegrees>
              <LongitudeDegrees>-4.0771690942347049713134765625</LongitudeDegrees>
            </Position>
            <AltitudeMeters>1332.4000244140625</AltitudeMeters>
            <DistanceMeters>3564.2941688939</DistanceMeters>
          </Trackpoint>
          <Trackpoint>
            <Time>2018-12-30T09:45:03.000Z</Time>
            <Position>
              <LatitudeDegrees>40.7579441182315349578857421875</LatitudeDegrees>
              <LongitudeDegrees>-4.0771741233766078948974609375</LongitudeDegrees>
            </Position>
            <AltitudeMeters>1332.5999755859375</AltitudeMeters>
            <DistanceMeters>3565.7815722449</DistanceMeters>
          </Trackpoint>
          <Trackpoint>
            <Time>2018-12-30T09:45:04.000Z</Time>
            <Position>
              <LatitudeDegrees>40.757956020534038543701171875</LatitudeDegrees>
              <LongitudeDegrees>-4.077180661261081695556640625</LongitudeDegrees>
            </Position>
            <AltitudeMeters>1332.800048828125</AltitudeMeters>
            <DistanceMeters>3567.2164441658</DistanceMeters>
          </Trackpoint>
          <Trackpoint>
            <Time>2018-12-30T09:45:05.000Z</Time>
            <Position>
              <LatitudeDegrees>40.75796834193170070648193359375</LatitudeDegrees>
              <LongitudeDegrees>-4.0771962516009807586669921875</LongitudeDegrees>
            </Position>
            <AltitudeMeters>1333</AltitudeMeters>
            <DistanceMeters>3569.1146012987</DistanceMeters>
          </Trackpoint>
          <Trackpoint>
            <Time>2018-12-30T09:45:06.000Z</Time>
            <Position>
              <LatitudeDegrees>40.75797873549163341522216796875</LatitudeDegrees>
              <LongitudeDegrees>-4.07720689661800861358642578125</LongitudeDegrees>
            </Position>
            <AltitudeMeters>1333</AltitudeMeters>
            <DistanceMeters>3570.5775189714</DistanceMeters>
          </Trackpoint>
          <Trackpoint>
            <Time>2018-12-30T09:45:07.000Z</Time>
            <Position>
              <LatitudeDegrees>40.757994242012500762939453125</LatitudeDegrees>
              <LongitudeDegrees>-4.07722416333854198455810546875</LongitudeDegrees>
            </Position>
            <AltitudeMeters>1333</AltitudeMeters>
            <DistanceMeters>3572.8382762046</DistanceMeters>
          </Trackpoint>
          <Trackpoint>
            <Time>2018-12-30T09:45:08.000Z</Time>
            <Position>
              <LatitudeDegrees>40.7580048032104969024658203125</LatitudeDegrees>
              <LongitudeDegrees>-4.0772401727735996246337890625</LongitudeDegrees>
            </Position>
            <AltitudeMeters>1333.199951171875</AltitudeMeters>
            <DistanceMeters>3574.6287166916</DistanceMeters>
          </Trackpoint>
          <Trackpoint>
            <Time>2018-12-30T09:45:09.000Z</Time>
            <Position>
              <LatitudeDegrees>40.75801159255206584930419921875</LatitudeDegrees>
              <LongitudeDegrees>-4.077253751456737518310546875</LongitudeDegrees>
            </Position>
            <AltitudeMeters>1333.199951171875</AltitudeMeters>
            <DistanceMeters>3575.9992114564</DistanceMeters>
          </Trackpoint>
          <Trackpoint>
            <Time>2018-12-30T09:45:10.000Z</Time>
            <Position>
              <LatitudeDegrees>40.75801477767527103424072265625</LatitudeDegrees>
              <LongitudeDegrees>-4.07726707868278026580810546875</LongitudeDegrees>
            </Position>
            <AltitudeMeters>1333.199951171875</AltitudeMeters>
            <DistanceMeters>3577.1784619694</DistanceMeters>
          </Trackpoint>
          <Trackpoint>
            <Time>2018-12-30T09:45:11.000Z</Time>
            <Position>
              <LatitudeDegrees>40.75801846571266651153564453125</LatitudeDegrees>
              <LongitudeDegrees>-4.0772782266139984130859375</LongitudeDegrees>
            </Position>
            <AltitudeMeters>1333.199951171875</AltitudeMeters>
            <DistanceMeters>3578.206333043</DistanceMeters>
          </Trackpoint>
          <Trackpoint>
            <Time>2018-12-30T09:45:12.000Z</Time>
            <Position>
              <LatitudeDegrees>40.7580220699310302734375</LatitudeDegrees>
              <LongitudeDegrees>-4.07728970982134342193603515625</LongitudeDegrees>
            </Position>
            <AltitudeMeters>1333.199951171875</AltitudeMeters>
            <DistanceMeters>3579.2559374095</DistanceMeters>
          </Trackpoint>
          <Trackpoint>
            <Time>2018-12-30T09:45:13.000Z</Time>
            <Position>
              <LatitudeDegrees>40.75802818872034549713134765625</LatitudeDegrees>
              <LongitudeDegrees>-4.07729909755289554595947265625</LongitudeDegrees>
            </Position>
            <AltitudeMeters>1333.4000244140625</AltitudeMeters>
            <DistanceMeters>3580.29690291</DistanceMeters>
          </Trackpoint>
          <Trackpoint>
            <Time>2018-12-30T09:45:14.000Z</Time>
            <Position>
              <LatitudeDegrees>40.75803187675774097442626953125</LatitudeDegrees>
              <LongitudeDegrees>-4.077310748398303985595703125</LongitudeDegrees>
            </Position>
            <AltitudeMeters>1333.5999755859375</AltitudeMeters>
            <DistanceMeters>3581.3635751333</DistanceMeters>
          </Trackpoint>
          <Trackpoint>
            <Time>2018-12-30T09:45:15.000Z</Time>
            <Position>
              <LatitudeDegrees>40.758039839565753936767578125</LatitudeDegrees>
              <LongitudeDegrees>-4.07731770537793636322021484375</LongitudeDegrees>
            </Position>
            <AltitudeMeters>1333.800048828125</AltitudeMeters>
            <DistanceMeters>3582.4260060983</DistanceMeters>
          </Trackpoint>
          <Trackpoint>
            <Time>2018-12-30T09:45:16.000Z</Time>
            <Position>
              <LatitudeDegrees>40.758044533431529998779296875</LatitudeDegrees>
              <LongitudeDegrees>-4.0773310326039791107177734375</LongitudeDegrees>
            </Position>
            <AltitudeMeters>1333.800048828125</AltitudeMeters>
            <DistanceMeters>3583.6650028681</DistanceMeters>
          </Trackpoint>
          <Trackpoint>
            <Time>2018-12-30T09:45:17.000Z</Time>
            <Position>
              <LatitudeDegrees>40.75804579071700572967529296875</LatitudeDegrees>
              <LongitudeDegrees>-4.0773484669625759124755859375</LongitudeDegrees>
            </Position>
            <AltitudeMeters>1334</AltitudeMeters>
            <DistanceMeters>3585.1402141828</DistanceMeters>
          </Trackpoint>
          <Trackpoint>
            <Time>2018-12-30T09:45:18.000Z</Time>
            <Position>
              <LatitudeDegrees>40.75804696418344974517822265625</LatitudeDegrees>
              <LongitudeDegrees>-4.07736984081566333770751953125</LongitudeDegrees>
            </Position>
            <AltitudeMeters>1334</AltitudeMeters>
            <DistanceMeters>3586.9457217558</DistanceMeters>
          </Trackpoint>
          <Trackpoint>
            <Time>2018-12-30T09:45:19.000Z</Time>
            <Position>
              <LatitudeDegrees>40.75805601663887500762939453125</LatitudeDegrees>
              <LongitudeDegrees>-4.07738291658461093902587890625</LongitudeDegrees>
            </Position>
            <AltitudeMeters>1334.199951171875</AltitudeMeters>
            <DistanceMeters>3588.4391838014</DistanceMeters>
          </Trackpoint>
          <Trackpoint>
            <Time>2018-12-30T09:45:20.000Z</Time>
            <Position>
              <LatitudeDegrees>40.7580636441707611083984375</LatitudeDegrees>
              <LongitudeDegrees>-4.0773923881351947784423828125</LongitudeDegrees>
            </Position>
            <AltitudeMeters>1334.4000244140625</AltitudeMeters>
            <DistanceMeters>3589.6068916172</DistanceMeters>
          </Trackpoint>
          <Trackpoint>
            <Time>2018-12-30T09:45:21.000Z</Time>
            <Position>
              <LatitudeDegrees>40.75807034969329833984375</LatitudeDegrees>
              <LongitudeDegrees>-4.07740320079028606414794921875</LongitudeDegrees>
            </Position>
            <AltitudeMeters>1334.5999755859375</AltitudeMeters>
            <DistanceMeters>3590.7861421302</DistanceMeters>
          </Trackpoint>
          <Trackpoint>
            <Time>2018-12-30T09:45:22.000Z</Time>
            <Position>
              <LatitudeDegrees>40.758077390491962432861328125</LatitudeDegrees>
              <LongitudeDegrees>-4.0774165280163288116455078125</LongitudeDegrees>
            </Position>
            <AltitudeMeters>1334.800048828125</AltitudeMeters>
            <DistanceMeters>3592.156636895</DistanceMeters>
          </Trackpoint>
          <Trackpoint>
            <Time>2018-12-30T09:45:23.000Z</Time>
            <Position>
              <LatitudeDegrees>40.75808937661349773406982421875</LatitudeDegrees>
              <LongitudeDegrees>-4.07743052579462528228759765625</LongitudeDegrees>
            </Position>
            <AltitudeMeters>1335.199951171875</AltitudeMeters>
            <DistanceMeters>3593.9394960897</DistanceMeters>
          </Trackpoint>
          <Trackpoint>
            <Time>2018-12-30T09:45:24.000Z</Time>
            <Position>
              <LatitudeDegrees>40.75810111127793788909912109375</LatitudeDegrees>
              <LongitudeDegrees>-4.07744008116424083709716796875</LongitudeDegrees>
            </Position>
            <AltitudeMeters>1335.4000244140625</AltitudeMeters>
            <DistanceMeters>3595.4776378349</DistanceMeters>
          </Trackpoint>
          <Trackpoint>
            <Time>2018-12-30T09:45:25.000Z</Time>
            <Position>
              <LatitudeDegrees>40.75811150483787059783935546875</LatitudeDegrees>
              <LongitudeDegrees>-4.07744879834353923797607421875</LongitudeDegrees>
            </Position>
            <AltitudeMeters>1335.4000244140625</AltitudeMeters>
            <DistanceMeters>3596.8481325997</DistanceMeters>
          </Trackpoint>
          <Trackpoint>
            <Time>2018-12-30T09:45:26.000Z</Time>
            <Position>
              <LatitudeDegrees>40.75811753980815410614013671875</LatitudeDegrees>
              <LongitudeDegrees>-4.07745885662734508514404296875</LongitudeDegrees>
            </Position>
            <AltitudeMeters>1335.4000244140625</AltitudeMeters>
            <DistanceMeters>3597.9316038442</DistanceMeters>
          </Trackpoint>
          <Trackpoint>
            <Time>2018-12-30T09:45:27.000Z</Time>
            <Position>
              <LatitudeDegrees>40.75813245959579944610595703125</LatitudeDegrees>
              <LongitudeDegrees>-4.07746841199696063995361328125</LongitudeDegrees>
            </Position>
            <AltitudeMeters>1335.5999755859375</AltitudeMeters>
            <DistanceMeters>3599.77913433</DistanceMeters>
          </Trackpoint>
          <Trackpoint>
            <Time>2018-12-30T09:45:28.000Z</Time>
            <Position>
              <LatitudeDegrees>40.758144445717334747314453125</LatitudeDegrees>
              <LongitudeDegrees>-4.07747444696724414825439453125</LongitudeDegrees>
            </Position>
            <AltitudeMeters>1335.5999755859375</AltitudeMeters>
            <DistanceMeters>3601.207699091</DistanceMeters>
          </Trackpoint>
          <Trackpoint>
            <Time>2018-12-30T09:45:29.000Z</Time>
            <Position>
              <LatitudeDegrees>40.75815609656274318695068359375</LatitudeDegrees>
              <LongitudeDegrees>-4.0774819068610668182373046875</LongitudeDegrees>
            </Position>
            <AltitudeMeters>1335.800048828125</AltitudeMeters>
            <DistanceMeters>3602.6457142181</DistanceMeters>
          </Trackpoint>
          <Trackpoint>
            <Time>2018-12-30T09:45:30.000Z</Time>
            <Position>
              <LatitudeDegrees>40.758169256150722503662109375</LatitudeDegrees>
              <LongitudeDegrees>-4.077495150268077850341796875</LongitudeDegrees>
            </Position>
            <AltitudeMeters>1336</AltitudeMeters>
            <DistanceMeters>3604.4883505747</DistanceMeters>
          </Trackpoint>
          <Trackpoint>
            <Time>2018-12-30T09:45:31.000Z</Time>
            <Position>
              <LatitudeDegrees>40.7581731118261814117431640625</LatitudeDegrees>
              <LongitudeDegrees>-4.077504537999629974365234375</LongitudeDegrees>
            </Position>
            <AltitudeMeters>1336</AltitudeMeters>
            <DistanceMeters>3605.3898531426</DistanceMeters>
          </Trackpoint>
          <Trackpoint>
            <Time>2018-12-30T09:45:32.000Z</Time>
            <Position>
              <LatitudeDegrees>40.75818610377609729766845703125</LatitudeDegrees>
              <LongitudeDegrees>-4.07751300372183322906494140625</LongitudeDegrees>
            </Position>
            <AltitudeMeters>1336.199951171875</AltitudeMeters>
            <DistanceMeters>3607.0025099616</DistanceMeters>
          </Trackpoint>
          <Trackpoint>
            <Time>2018-12-30T09:45:33.000Z</Time>
            <Position>
              <LatitudeDegrees>40.7581952400505542755126953125</LatitudeDegrees>
              <LongitudeDegrees>-4.07752138562500476837158203125</LongitudeDegrees>
            </Position>
            <AltitudeMeters>1336.199951171875</AltitudeMeters>
            <DistanceMeters>3608.2378572484</DistanceMeters>
          </Trackpoint>
          <Trackpoint>
            <Time>2018-12-30T09:45:34.000Z</Time>
            <Position>
              <LatitudeDegrees>40.75820446014404296875</LatitudeDegrees>
              <LongitudeDegrees>-4.0775278396904468536376953125</LongitudeDegrees>
            </Position>
            <AltitudeMeters>1336.4000244140625</AltitudeMeters>
            <DistanceMeters>3609.4016920591</DistanceMeters>
          </Trackpoint>
          <Trackpoint>
            <Time>2018-12-30T09:45:35.000Z</Time>
            <Position>
              <LatitudeDegrees>40.75820739381015300750732421875</LatitudeDegrees>
              <LongitudeDegrees>-4.07753638923168182373046875</LongitudeDegrees>
            </Position>
            <AltitudeMeters>1336.199951171875</AltitudeMeters>
            <DistanceMeters>3610.1967425928</DistanceMeters>
          </Trackpoint>
          <Trackpoint>
            <Time>2018-12-30T09:45:36.000Z</Time>
            <Position>
              <LatitudeDegrees>40.75821527279913425445556640625</LatitudeDegrees>
              <LongitudeDegrees>-4.07754435203969478607177734375</LongitudeDegrees>
            </Position>
            <AltitudeMeters>1336</AltitudeMeters>
            <DistanceMeters>3611.3049349932</DistanceMeters>
          </Trackpoint>
          <Trackpoint>
            <Time>2018-12-30T09:45:37.000Z</Time>
            <Position>
              <LatitudeDegrees>40.75822968967258930206298828125</LatitudeDegrees>
              <LongitudeDegrees>-4.0775496326386928558349609375</LongitudeDegrees>
            </Position>
            <AltitudeMeters>1336</AltitudeMeters>
            <DistanceMeters>3612.9726470621</DistanceMeters>
          </Trackpoint>
          <Trackpoint>
            <Time>2018-12-30T09:45:38.000Z</Time>
            <Position>
              <LatitudeDegrees>40.75824008323252201080322265625</LatitudeDegrees>
              <LongitudeDegrees>-4.07755675725638866424560546875</LongitudeDegrees>
            </Position>
            <AltitudeMeters>1335.800048828125</AltitudeMeters>
            <DistanceMeters>3614.2755877252</DistanceMeters>
          </Trackpoint>
          <Trackpoint>
            <Time>2018-12-30T09:45:39.000Z</Time>
            <Position>
              <LatitudeDegrees>40.75825081206858158111572265625</LatitudeDegrees>
              <LongitudeDegrees>-4.077561199665069580078125</LongitudeDegrees>
            </Position>
            <AltitudeMeters>1335.5999755859375</AltitudeMeters>
            <DistanceMeters>3615.5254690095</DistanceMeters>
          </Trackpoint>
          <Trackpoint>
            <Time>2018-12-30T09:45:40.000Z</Time>
            <Position>
              <LatitudeDegrees>40.75825382955372333526611328125</LatitudeDegrees>
              <LongitudeDegrees>-4.0775670669972896575927734375</LongitudeDegrees>
            </Position>
            <AltitudeMeters>1335.5999755859375</AltitudeMeters>
            <DistanceMeters>3616.1264707214</DistanceMeters>
          </Trackpoint>
          <Trackpoint>
            <Time>2018-12-30T09:45:41.000Z</Time>
            <Position>
              <LatitudeDegrees>40.75825936160981655120849609375</LatitudeDegrees>
              <LongitudeDegrees>-4.0775731019675731658935546875</LongitudeDegrees>
            </Position>
            <AltitudeMeters>1335.5999755859375</AltitudeMeters>
            <DistanceMeters>3616.9327991309</DistanceMeters>
          </Trackpoint>
          <Trackpoint>
            <Time>2018-12-30T09:45:42.000Z</Time>
            <Position>
              <LatitudeDegrees>40.758267827332019805908203125</LatitudeDegrees>
              <LongitudeDegrees>-4.0775871835649013519287109375</LongitudeDegrees>
            </Position>
            <AltitudeMeters>1335.5999755859375</AltitudeMeters>
            <DistanceMeters>3618.4502540704</DistanceMeters>
          </Trackpoint>
          <Trackpoint>
            <Time>2018-12-30T09:45:43.000Z</Time>
            <Position>
              <LatitudeDegrees>40.7582726888358592987060546875</LatitudeDegrees>
              <LongitudeDegrees>-4.07759673893451690673828125</LongitudeDegrees>
            </Position>
            <AltitudeMeters>1335.5999755859375</AltitudeMeters>
            <DistanceMeters>3619.4193402121</DistanceMeters>
          </Trackpoint>
          <Trackpoint>
            <Time>2018-12-30T09:45:44.000Z</Time>
            <Position>
              <LatitudeDegrees>40.7582804001867771148681640625</LatitudeDegrees>
              <LongitudeDegrees>-4.0776052884757518768310546875</LongitudeDegrees>
            </Position>
            <AltitudeMeters>1335.5999755859375</AltitudeMeters>
            <DistanceMeters>3620.5356513467</DistanceMeters>
          </Trackpoint>
          <Trackpoint>
            <Time>2018-12-30T09:45:45.000Z</Time>
            <Position>
              <LatitudeDegrees>40.75829003937542438507080078125</LatitudeDegrees>
              <LongitudeDegrees>-4.077614508569240570068359375</LongitudeDegrees>
            </Position>
            <AltitudeMeters>1335.800048828125</AltitudeMeters>
            <DistanceMeters>3621.8592203212</DistanceMeters>
          </Trackpoint>
          <Trackpoint>
            <Time>2018-12-30T09:45:46.000Z</Time>
            <Position>
              <LatitudeDegrees>40.7583008520305156707763671875</LatitudeDegrees>
              <LongitudeDegrees>-4.077622555196285247802734375</LongitudeDegrees>
            </Position>
            <AltitudeMeters>1335.800048828125</AltitudeMeters>
            <DistanceMeters>3623.2362882401</DistanceMeters>
          </Trackpoint>
          <Trackpoint>
            <Time>2018-12-30T09:45:47.000Z</Time>
            <Position>
              <LatitudeDegrees>40.75831116177141666412353515625</LatitudeDegrees>
              <LongitudeDegrees>-4.077630601823329925537109375</LongitudeDegrees>
            </Position>
            <AltitudeMeters>1336</AltitudeMeters>
            <DistanceMeters>3624.5700517347</DistanceMeters>
          </Trackpoint>
          <Trackpoint>
            <Time>2018-12-30T09:45:48.000Z</Time>
            <Position>
              <LatitudeDegrees>40.75831904076039791107177734375</LatitudeDegrees>
              <LongitudeDegrees>-4.07763923518359661102294921875</LongitudeDegrees>
            </Position>
            <AltitudeMeters>1336.199951171875</AltitudeMeters>
            <DistanceMeters>3625.7103723071</DistanceMeters>
          </Trackpoint>
          <Trackpoint>
            <Time>2018-12-30T09:45:49.000Z</Time>
            <Position>
              <LatitudeDegrees>40.75832608155906200408935546875</LatitudeDegrees>
              <LongitudeDegrees>-4.0776492096483707427978515625</LongitudeDegrees>
            </Position>
            <AltitudeMeters>1336.199951171875</AltitudeMeters>
            <DistanceMeters>3626.8585844655</DistanceMeters>
          </Trackpoint>
          <Trackpoint>
            <Time>2018-12-30T09:45:50.000Z</Time>
            <Position>
              <LatitudeDegrees>40.75833446346223354339599609375</LatitudeDegrees>
              <LongitudeDegrees>-4.0776585973799228668212890625</LongitudeDegrees>
            </Position>
            <AltitudeMeters>1336.4000244140625</AltitudeMeters>
            <DistanceMeters>3628.0792247128</DistanceMeters>
          </Trackpoint>
          <Trackpoint>
            <Time>2018-12-30T09:45:51.000Z</Time>
            <Position>
              <LatitudeDegrees>40.75834318064153194427490234375</LatitudeDegrees>
              <LongitudeDegrees>-4.0776671469211578369140625</LongitudeDegrees>
            </Position>
            <AltitudeMeters>1336.5999755859375</AltitudeMeters>
            <DistanceMeters>3629.2849785465</DistanceMeters>
          </Trackpoint>
          <Trackpoint>
            <Time>2018-12-30T09:45:52.000Z</Time>
            <Position>
              <LatitudeDegrees>40.75835307128727436065673828125</LatitudeDegrees>
              <LongitudeDegrees>-4.07767427153885364532470703125</LongitudeDegrees>
            </Position>
            <AltitudeMeters>1336.5999755859375</AltitudeMeters>
            <DistanceMeters>3630.5420638172</DistanceMeters>
          </Trackpoint>
          <Trackpoint>
            <Time>2018-12-30T09:45:53.000Z</Time>
            <Position>
              <LatitudeDegrees>40.7583612017333507537841796875</LatitudeDegrees>
              <LongitudeDegrees>-4.07768525183200836181640625</LongitudeDegrees>
            </Position>
            <AltitudeMeters>1336.5999755859375</AltitudeMeters>
            <DistanceMeters>3631.8380554138</DistanceMeters>
          </Trackpoint>
          <Trackpoint>
            <Time>2018-12-30T09:45:54.000Z</Time>
            <Position>
              <LatitudeDegrees>40.75836866162717342376708984375</LatitudeDegrees>
              <LongitudeDegrees>-4.077697657048702239990234375</LongitudeDegrees>
            </Position>
            <AltitudeMeters>1336.800048828125</AltitudeMeters>
            <DistanceMeters>3633.1751998099</DistanceMeters>
          </Trackpoint>
          <Trackpoint>
            <Time>2018-12-30T09:45:55.000Z</Time>
            <Position>
              <LatitudeDegrees>40.75837545096874237060546875</LatitudeDegrees>
              <LongitudeDegrees>-4.07770897261798381805419921875</LongitudeDegrees>
            </Position>
            <AltitudeMeters>1337</AltitudeMeters>
            <DistanceMeters>3634.3921355258</DistanceMeters>
          </Trackpoint>
          <Trackpoint>
            <Time>2018-12-30T09:45:56.000Z</Time>
            <Position>
              <LatitudeDegrees>40.75838341377675533294677734375</LatitudeDegrees>
              <LongitudeDegrees>-4.07772087492048740386962890625</LongitudeDegrees>
            </Position>
            <AltitudeMeters>1337</AltitudeMeters>
            <DistanceMeters>3635.7292799219</DistanceMeters>
          </Trackpoint>
          <Trackpoint>
            <Time>2018-12-30T09:45:57.000Z</Time>
            <Position>
              <LatitudeDegrees>40.7583897002041339874267578125</LatitudeDegrees>
              <LongitudeDegrees>-4.07773009501397609710693359375</LongitudeDegrees>
            </Position>
            <AltitudeMeters>1337</AltitudeMeters>
            <DistanceMeters>3636.77457378</DistanceMeters>
          </Trackpoint>
          <Trackpoint>
            <Time>2018-12-30T09:45:58.000Z</Time>
            <Position>
              <LatitudeDegrees>40.75839414261281490325927734375</LatitudeDegrees>
              <LongitudeDegrees>-4.0777397342026233673095703125</LongitudeDegrees>
            </Position>
            <AltitudeMeters>1337.199951171875</AltitudeMeters>
            <DistanceMeters>3637.7200776498</DistanceMeters>
          </Trackpoint>
          <Trackpoint>
            <Time>2018-12-30T09:45:59.000Z</Time>
            <Position>
              <LatitudeDegrees>40.75840051285922527313232421875</LatitudeDegrees>
              <LongitudeDegrees>-4.07774702645838260650634765625</LongitudeDegrees>
            </Position>
            <AltitudeMeters>1337.4000244140625</AltitudeMeters>
            <DistanceMeters>3638.6511454984</DistanceMeters>
          </Trackpoint>
          <Trackpoint>
            <Time>2018-12-30T09:46:00.000Z</Time>
            <Position>
              <LatitudeDegrees>40.75841224752366542816162109375</LatitudeDegrees>
              <LongitudeDegrees>-4.0777528099715709686279296875</LongitudeDegrees>
            </Position>
            <AltitudeMeters>1337.4000244140625</AltitudeMeters>
            <DistanceMeters>3640.0412664856</DistanceMeters>
          </Trackpoint>
          <Trackpoint>
            <Time>2018-12-30T09:46:01.000Z</Time>
            <Position>
              <LatitudeDegrees>40.75842414982616901397705078125</LatitudeDegrees>
              <LongitudeDegrees>-4.07775943167507648468017578125</LongitudeDegrees>
            </Position>
            <AltitudeMeters>1337.4000244140625</AltitudeMeters>
            <DistanceMeters>3641.4761384064</DistanceMeters>
          </Trackpoint>
          <Trackpoint>
            <Time>2018-12-30T09:46:02.000Z</Time>
            <Position>
              <LatitudeDegrees>40.758434124290943145751953125</LatitudeDegrees>
              <LongitudeDegrees>-4.07776596955955028533935546875</LongitudeDegrees>
            </Position>
            <AltitudeMeters>1337.5999755859375</AltitudeMeters>
            <DistanceMeters>3642.7187739411</DistanceMeters>
          </Trackpoint>
          <Trackpoint>
            <Time>2018-12-30T09:46:03.000Z</Time>
            <Position>
              <LatitudeDegrees>40.7584393210709095001220703125</LatitudeDegrees>
              <LongitudeDegrees>-4.07777133397758007049560546875</LongitudeDegrees>
            </Position>
            <AltitudeMeters>1337.5999755859375</AltitudeMeters>
            <DistanceMeters>3643.4486879841</DistanceMeters>
          </Trackpoint>
          <Trackpoint>
            <Time>2018-12-30T09:46:04.000Z</Time>
            <Position>
              <LatitudeDegrees>40.758436806499958038330078125</LatitudeDegrees>
              <LongitudeDegrees>-4.0777746029198169708251953125</LongitudeDegrees>
            </Position>
            <AltitudeMeters>1337.800048828125</AltitudeMeters>
            <DistanceMeters>3643.8518521888</DistanceMeters>
          </Trackpoint>
          <Trackpoint>
            <Time>2018-12-30T09:46:05.000Z</Time>
            <Position>
              <LatitudeDegrees>40.75843848288059234619140625</LatitudeDegrees>
              <LongitudeDegrees>-4.0777771174907684326171875</LongitudeDegrees>
            </Position>
            <AltitudeMeters>1337.800048828125</AltitudeMeters>
            <DistanceMeters>3644.1206283253</DistanceMeters>
          </Trackpoint>
          <Trackpoint>
            <Time>2018-12-30T09:46:06.000Z</Time>
            <Position>
              <LatitudeDegrees>40.7584418356418609619140625</LatitudeDegrees>
              <LongitudeDegrees>-4.07778390683233737945556640625</LongitudeDegrees>
            </Position>
            <AltitudeMeters>1338</AltitudeMeters>
            <DistanceMeters>3644.8058757077</DistanceMeters>
          </Trackpoint>
          <Trackpoint>
            <Time>2018-12-30T09:46:07.000Z</Time>
            <Position>
              <LatitudeDegrees>40.7584426738321781158447265625</LatitudeDegrees>
              <LongitudeDegrees>-4.07778851687908172607421875</LongitudeDegrees>
            </Position>
            <AltitudeMeters>1338</AltitudeMeters>
            <DistanceMeters>3645.2090399125</DistanceMeters>
          </Trackpoint>
          <Trackpoint>
            <Time>2018-12-30T09:46:08.000Z</Time>
            <Position>
              <LatitudeDegrees>40.75844661332666873931884765625</LatitudeDegrees>
              <LongitudeDegrees>-4.07779061235487461090087890625</LongitudeDegrees>
            </Position>
            <AltitudeMeters>1338.199951171875</AltitudeMeters>
            <DistanceMeters>3645.6745738367</DistanceMeters>
          </Trackpoint>
          <Trackpoint>
            <Time>2018-12-30T09:46:09.000Z</Time>
            <Position>
              <LatitudeDegrees>40.7584525644779205322265625</LatitudeDegrees>
              <LongitudeDegrees>-4.07779312692582607269287109375</LongitudeDegrees>
            </Position>
            <AltitudeMeters>1338.4000244140625</AltitudeMeters>
            <DistanceMeters>3646.3728747232</DistanceMeters>
          </Trackpoint>
          <Trackpoint>
            <Time>2018-12-30T09:46:10.000Z</Time>
            <Position>
              <LatitudeDegrees>40.7584552466869354248046875</LatitudeDegrees>
              <LongitudeDegrees>-4.077794887125492095947265625</LongitudeDegrees>
            </Position>
            <AltitudeMeters>1338.800048828125</AltitudeMeters>
            <DistanceMeters>3646.7020569179</DistanceMeters>
          </Trackpoint>
          <Trackpoint>
            <Time>2018-12-30T09:46:11.000Z</Time>
            <Position>
              <LatitudeDegrees>40.75846538878977298736572265625</LatitudeDegrees>
              <LongitudeDegrees>-4.0778052806854248046875</LongitudeDegrees>
            </Position>
            <AltitudeMeters>1339</AltitudeMeters>
            <DistanceMeters>3648.1274576334</DistanceMeters>
          </Trackpoint>
          <Trackpoint>
            <Time>2018-12-30T09:46:12.000Z</Time>
            <Position>
              <LatitudeDegrees>40.7584762014448642730712890625</LatitudeDegrees>
              <LongitudeDegrees>-4.0778289176523685455322265625</LongitudeDegrees>
            </Position>
            <AltitudeMeters>1339.199951171875</AltitudeMeters>
            <DistanceMeters>3650.4512445672</DistanceMeters>
          </Trackpoint>
          <Trackpoint>
            <Time>2018-12-30T09:46:13.000Z</Time>
            <Position>
              <LatitudeDegrees>40.75848131440579891204833984375</LatitudeDegrees>
              <LongitudeDegrees>-4.077833779156208038330078125</LongitudeDegrees>
            </Position>
            <AltitudeMeters>1339.5999755859375</AltitudeMeters>
            <DistanceMeters>3651.1430494902</DistanceMeters>
          </Trackpoint>
          <Trackpoint>
            <Time>2018-12-30T09:46:14.000Z</Time>
            <Position>
              <LatitudeDegrees>40.75849346816539764404296875</LatitudeDegrees>
              <LongitudeDegrees>-4.07784157432615756988525390625</LongitudeDegrees>
            </Position>
            <AltitudeMeters>1339.800048828125</AltitudeMeters>
            <DistanceMeters>3652.6455537701</DistanceMeters>
          </Trackpoint>
          <Trackpoint>
            <Time>2018-12-30T09:46:15.000Z</Time>
            <Position>
              <LatitudeDegrees>40.75851383619010448455810546875</LatitudeDegrees>
              <LongitudeDegrees>-4.0778503753244876861572265625</LongitudeDegrees>
            </Position>
            <AltitudeMeters>1339.800048828125</AltitudeMeters>
            <DistanceMeters>3655.032597598</DistanceMeters>
          </Trackpoint>
          <Trackpoint>
            <Time>2018-12-30T09:46:16.000Z</Time>
            <Position>
              <LatitudeDegrees>40.75852674432098865509033203125</LatitudeDegrees>
              <LongitudeDegrees>-4.07786085270345211029052734375</LongitudeDegrees>
            </Position>
            <AltitudeMeters>1339.800048828125</AltitudeMeters>
            <DistanceMeters>3656.7218294223</DistanceMeters>
          </Trackpoint>
          <Trackpoint>
            <Time>2018-12-30T09:46:17.000Z</Time>
            <Position>
              <LatitudeDegrees>40.7585435919463634490966796875</LatitudeDegrees>
              <LongitudeDegrees>-4.0778711624443531036376953125</LongitudeDegrees>
            </Position>
            <AltitudeMeters>1339.800048828125</AltitudeMeters>
            <DistanceMeters>3658.7907074357</DistanceMeters>
          </Trackpoint>
          <Trackpoint>
            <Time>2018-12-30T09:46:18.000Z</Time>
            <Position>
              <LatitudeDegrees>40.75855054892599582672119140625</LatitudeDegrees>
              <LongitudeDegrees>-4.07788331620395183563232421875</LongitudeDegrees>
            </Position>
            <AltitudeMeters>1339.5999755859375</AltitudeMeters>
            <DistanceMeters>3660.0726879008</DistanceMeters>
          </Trackpoint>
          <Trackpoint>
            <Time>2018-12-30T09:46:19.000Z</Time>
            <Position>
              <LatitudeDegrees>40.7585556618869304656982421875</LatitudeDegrees>
              <LongitudeDegrees>-4.077889434993267059326171875</LongitudeDegrees>
            </Position>
            <AltitudeMeters>1339.5999755859375</AltitudeMeters>
            <DistanceMeters>3660.8446885778</DistanceMeters>
          </Trackpoint>
          <Trackpoint>
            <Time>2018-12-30T09:46:20.000Z</Time>
            <Position>
              <LatitudeDegrees>40.7585620321333408355712890625</LatitudeDegrees>
              <LongitudeDegrees>-4.0778916142880916595458984375</LongitudeDegrees>
            </Position>
            <AltitudeMeters>1339.4000244140625</AltitudeMeters>
            <DistanceMeters>3661.5807623422</DistanceMeters>
          </Trackpoint>
          <Trackpoint>
            <Time>2018-12-30T09:46:21.000Z</Time>
            <Position>
              <LatitudeDegrees>40.75856278650462627410888671875</LatitudeDegrees>
              <LongitudeDegrees>-4.0778911113739013671875</LongitudeDegrees>
            </Position>
            <AltitudeMeters>1339.4000244140625</AltitudeMeters>
            <DistanceMeters>3661.6757890565</DistanceMeters>
          </Trackpoint>
          <Trackpoint>
            <Time>2018-12-30T09:46:22.000Z</Time>
            <Position>
              <LatitudeDegrees>40.7585603557527065277099609375</LatitudeDegrees>
              <LongitudeDegrees>-4.07788801006972789764404296875</LongitudeDegrees>
            </Position>
            <AltitudeMeters>1339.4000244140625</AltitudeMeters>
            <DistanceMeters>3662.055895914</DistanceMeters>
          </Trackpoint>
          <Trackpoint>
            <Time>2018-12-30T09:46:23.000Z</Time>
            <Position>
              <LatitudeDegrees>40.75855691917240619659423828125</LatitudeDegrees>
              <LongitudeDegrees>-4.07788700424134731292724609375</LongitudeDegrees>
            </Position>
            <AltitudeMeters>1339.5999755859375</AltitudeMeters>
            <DistanceMeters>3662.4590601188</DistanceMeters>
          </Trackpoint>
          <Trackpoint>
            <Time>2018-12-30T09:46:24.000Z</Time>
            <Position>
              <LatitudeDegrees>40.758552141487598419189453125</LatitudeDegrees>
              <LongitudeDegrees>-4.07788700424134731292724609375</LongitudeDegrees>
            </Position>
            <AltitudeMeters>1339.5999755859375</AltitudeMeters>
            <DistanceMeters>3662.9966123918</DistanceMeters>
          </Trackpoint>
          <Trackpoint>
            <Time>2018-12-30T09:46:25.000Z</Time>
            <Position>
              <LatitudeDegrees>40.758543424308300018310546875</LatitudeDegrees>
              <LongitudeDegrees>-4.07788935117423534393310546875</LongitudeDegrees>
            </Position>
            <AltitudeMeters>1339.5999755859375</AltitudeMeters>
            <DistanceMeters>3663.9932609802</DistanceMeters>
          </Trackpoint>
          <Trackpoint>
            <Time>2018-12-30T09:46:26.000Z</Time>
            <Position>
              <LatitudeDegrees>40.75853093527257442474365234375</LatitudeDegrees>
              <LongitudeDegrees>-4.0778911113739013671875</LongitudeDegrees>
            </Position>
            <AltitudeMeters>1339.5999755859375</AltitudeMeters>
            <DistanceMeters>3665.389862753</DistanceMeters>
          </Trackpoint>
          <Trackpoint>
            <Time>2018-12-30T09:46:27.000Z</Time>
            <Position>
              <LatitudeDegrees>40.7585211284458637237548828125</LatitudeDegrees>
              <LongitudeDegrees>-4.07789303921163082122802734375</LongitudeDegrees>
            </Position>
            <AltitudeMeters>1339.5999755859375</AltitudeMeters>
            <DistanceMeters>3666.4980551535</DistanceMeters>
          </Trackpoint>
          <Trackpoint>
            <Time>2018-12-30T09:46:28.000Z</Time>
            <Position>
              <LatitudeDegrees>40.758511237800121307373046875</LatitudeDegrees>
              <LongitudeDegrees>-4.07789555378258228302001953125</LongitudeDegrees>
            </Position>
            <AltitudeMeters>1339.4000244140625</AltitudeMeters>
            <DistanceMeters>3667.6224264009</DistanceMeters>
          </Trackpoint>
          <Trackpoint>
            <Time>2018-12-30T09:46:29.000Z</Time>
            <Position>
              <LatitudeDegrees>40.7585070468485355377197265625</LatitudeDegrees>
              <LongitudeDegrees>-4.07789505086839199066162109375</LongitudeDegrees>
            </Position>
            <AltitudeMeters>1339.4000244140625</AltitudeMeters>
            <DistanceMeters>3668.0879603252</DistanceMeters>
          </Trackpoint>
          <Trackpoint>
            <Time>2018-12-30T09:46:30.000Z</Time>
            <Position>
              <LatitudeDegrees>40.75850210152566432952880859375</LatitudeDegrees>
              <LongitudeDegrees>-4.07789588905870914459228515625</LongitudeDegrees>
            </Position>
            <AltitudeMeters>1339.4000244140625</AltitudeMeters>
            <DistanceMeters>3668.6420565254</DistanceMeters>
          </Trackpoint>
          <Trackpoint>
            <Time>2018-12-30T09:46:31.000Z</Time>
            <Position>
              <LatitudeDegrees>40.75849774293601512908935546875</LatitudeDegrees>
              <LongitudeDegrees>-4.077896811068058013916015625</LongitudeDegrees>
            </Position>
            <AltitudeMeters>1339.4000244140625</AltitudeMeters>
            <DistanceMeters>3669.1448906337</DistanceMeters>
          </Trackpoint>
          <Trackpoint>
            <Time>2018-12-30T09:46:32.000Z</Time>
            <Position>
              <LatitudeDegrees>40.75849623419344425201416015625</LatitudeDegrees>
              <LongitudeDegrees>-4.0778973139822483062744140625</LongitudeDegrees>
            </Position>
            <AltitudeMeters>1339.4000244140625</AltitudeMeters>
            <DistanceMeters>3669.3094817311</DistanceMeters>
          </Trackpoint>
          <Trackpoint>
            <Time>2018-12-30T09:46:33.000Z</Time>
            <Position>
              <LatitudeDegrees>40.75849707238376140594482421875</LatitudeDegrees>
              <LongitudeDegrees>-4.0778966434299945831298828125</LongitudeDegrees>
            </Position>
            <AltitudeMeters>1339.199951171875</AltitudeMeters>
            <DistanceMeters>3669.4045084454</DistanceMeters>
          </Trackpoint>
          <Trackpoint>
            <Time>2018-12-30T09:46:34.000Z</Time>
            <Position>
              <LatitudeDegrees>40.75849724002182483673095703125</LatitudeDegrees>
              <LongitudeDegrees>-4.07789639197289943695068359375</LongitudeDegrees>
            </Position>
            <AltitudeMeters>1339.199951171875</AltitudeMeters>
            <DistanceMeters>3669.4045084454</DistanceMeters>
          </Trackpoint>
          <Trackpoint>
            <Time>2018-12-30T09:46:35.000Z</Time>
            <Position>
              <LatitudeDegrees>40.75848818756639957427978515625</LatitudeDegrees>
              <LongitudeDegrees>-4.07788775861263275146484375</LongitudeDegrees>
            </Position>
            <AltitudeMeters>1339.199951171875</AltitudeMeters>
            <DistanceMeters>3670.6507721207</DistanceMeters>
          </Trackpoint>
          <Trackpoint>
            <Time>2018-12-30T09:46:36.000Z</Time>
            <Position>
              <LatitudeDegrees>40.758487768471240997314453125</LatitudeDegrees>
              <LongitudeDegrees>-4.07788432203233242034912109375</LongitudeDegrees>
            </Position>
            <AltitudeMeters>1339.199951171875</AltitudeMeters>
            <DistanceMeters>3670.9358522638</DistanceMeters>
          </Trackpoint>
          <Trackpoint>
            <Time>2018-12-30T09:46:37.000Z</Time>
            <Position>
              <LatitudeDegrees>40.75848835520446300506591796875</LatitudeDegrees>
              <LongitudeDegrees>-4.07788231037557125091552734375</LongitudeDegrees>
            </Position>
            <AltitudeMeters>1339.199951171875</AltitudeMeters>
            <DistanceMeters>3671.1259056926</DistanceMeters>
          </Trackpoint>
          <Trackpoint>
            <Time>2018-12-30T09:46:38.000Z</Time>
            <Position>
              <LatitudeDegrees>40.75848936103284358978271484375</LatitudeDegrees>
              <LongitudeDegrees>-4.0778802148997783660888671875</LongitudeDegrees>
            </Position>
            <AltitudeMeters>1339.4000244140625</AltitudeMeters>
            <DistanceMeters>3671.3159591213</DistanceMeters>
          </Trackpoint>
          <Trackpoint>
            <Time>2018-12-30T09:46:39.000Z</Time>
            <Position>
              <LatitudeDegrees>40.75849120505154132843017578125</LatitudeDegrees>
              <LongitudeDegrees>-4.07787862233817577362060546875</LongitudeDegrees>
            </Position>
            <AltitudeMeters>1339.4000244140625</AltitudeMeters>
            <DistanceMeters>3671.5487260835</DistanceMeters>
          </Trackpoint>
          <Trackpoint>
            <Time>2018-12-30T09:46:40.000Z</Time>
            <Position>
              <LatitudeDegrees>40.758494473993778228759765625</LatitudeDegrees>
              <LongitudeDegrees>-4.07787811942398548126220703125</LongitudeDegrees>
            </Position>
            <AltitudeMeters>1339.5999755859375</AltitudeMeters>
            <DistanceMeters>3671.9288329409</DistanceMeters>
          </Trackpoint>
          <Trackpoint>
            <Time>2018-12-30T09:46:41.000Z</Time>
            <Position>
              <LatitudeDegrees>40.75849640183150768280029296875</LatitudeDegrees>
              <LongitudeDegrees>-4.07787526957690715789794921875</LongitudeDegrees>
            </Position>
            <AltitudeMeters>1339.4000244140625</AltitudeMeters>
            <DistanceMeters>3672.2580151357</DistanceMeters>
          </Trackpoint>
          <Trackpoint>
            <Time>2018-12-30T09:46:42.000Z</Time>
            <Position>
              <LatitudeDegrees>40.75849338434636592864990234375</LatitudeDegrees>
              <LongitudeDegrees>-4.077861607074737548828125</LongitudeDegrees>
            </Position>
            <AltitudeMeters>1339.5999755859375</AltitudeMeters>
            <DistanceMeters>3673.4600185596</DistanceMeters>
          </Trackpoint>
          <Trackpoint>
            <Time>2018-12-30T09:46:43.000Z</Time>
            <Position>
              <LatitudeDegrees>40.758493132889270782470703125</LatitudeDegrees>
              <LongitudeDegrees>-4.0778597630560398101806640625</LongitudeDegrees>
            </Position>
            <AltitudeMeters>1339.5999755859375</AltitudeMeters>
            <DistanceMeters>3673.5944066278</DistanceMeters>
          </Trackpoint>
          <Trackpoint>
            <Time>2018-12-30T09:46:44.000Z</Time>
            <Position>
              <LatitudeDegrees>40.7584936358034610748291015625</LatitudeDegrees>
              <LongitudeDegrees>-4.07785951159894466400146484375</LongitudeDegrees>
            </Position>
            <AltitudeMeters>1339.800048828125</AltitudeMeters>
            <DistanceMeters>3673.5944066278</DistanceMeters>
          </Trackpoint>
          <Trackpoint>
            <Time>2018-12-30T09:46:45.000Z</Time>
            <Position>
              <LatitudeDegrees>40.75849455781280994415283203125</LatitudeDegrees>
              <LongitudeDegrees>-4.077858589589595794677734375</LongitudeDegrees>
            </Position>
            <AltitudeMeters>1339.800048828125</AltitudeMeters>
            <DistanceMeters>3673.7287946961</DistanceMeters>
          </Trackpoint>
          <Trackpoint>
            <Time>2018-12-30T09:46:46.000Z</Time>
            <Position>
              <LatitudeDegrees>40.75849472545087337493896484375</LatitudeDegrees>
              <LongitudeDegrees>-4.07785548828542232513427734375</LongitudeDegrees>
            </Position>
            <AltitudeMeters>1339.800048828125</AltitudeMeters>
            <DistanceMeters>3673.9975708326</DistanceMeters>
          </Trackpoint>
          <Trackpoint>
            <Time>2018-12-30T09:46:47.000Z</Time>
            <Position>
              <LatitudeDegrees>40.75850210152566432952880859375</LatitudeDegrees>
              <LongitudeDegrees>-4.07786772586405277252197265625</LongitudeDegrees>
            </Position>
            <AltitudeMeters>1339.800048828125</AltitudeMeters>
            <DistanceMeters>3675.3142996115</DistanceMeters>
          </Trackpoint>
          <Trackpoint>
            <Time>2018-12-30T09:46:48.000Z</Time>
            <Position>
              <LatitudeDegrees>40.7585120759904384613037109375</LatitudeDegrees>
              <LongitudeDegrees>-4.07788985408842563629150390625</LongitudeDegrees>
            </Position>
            <AltitudeMeters>1339.800048828125</AltitudeMeters>
            <DistanceMeters>3677.4895605284</DistanceMeters>
          </Trackpoint>
          <Trackpoint>
            <Time>2018-12-30T09:46:49.000Z</Time>
            <Position>
              <LatitudeDegrees>40.75851718895137310028076171875</LatitudeDegrees>
              <LongitudeDegrees>-4.0779030136764049530029296875</LongitudeDegrees>
            </Position>
            <AltitudeMeters>1339.800048828125</AltitudeMeters>
            <DistanceMeters>3678.7394418127</DistanceMeters>
          </Trackpoint>
          <Trackpoint>
            <Time>2018-12-30T09:46:50.000Z</Time>
            <Position>
              <LatitudeDegrees>40.75852154754102230072021484375</LatitudeDegrees>
              <LongitudeDegrees>-4.0779130719602108001708984375</LongitudeDegrees>
            </Position>
            <AltitudeMeters>1339.800048828125</AltitudeMeters>
            <DistanceMeters>3679.7178017173</DistanceMeters>
          </Trackpoint>
          <Trackpoint>
            <Time>2018-12-30T09:46:51.000Z</Time>
            <Position>
              <LatitudeDegrees>40.75852691195905208587646484375</LatitudeDegrees>
              <LongitudeDegrees>-4.0779204480350017547607421875</LongitudeDegrees>
            </Position>
            <AltitudeMeters>1340</AltitudeMeters>
            <DistanceMeters>3680.5783052144</DistanceMeters>
          </Trackpoint>
          <Trackpoint>
            <Time>2018-12-30T09:46:52.000Z</Time>
            <Position>
              <LatitudeDegrees>40.7585318572819232940673828125</LatitudeDegrees>
              <LongitudeDegrees>-4.0779201127588748931884765625</LongitudeDegrees>
            </Position>
            <AltitudeMeters>1340.199951171875</AltitudeMeters>
            <DistanceMeters>3681.1324014146</DistanceMeters>
          </Trackpoint>
          <Trackpoint>
            <Time>2018-12-30T09:46:53.000Z</Time>
            <Position>
              <LatitudeDegrees>40.758534707129001617431640625</LatitudeDegrees>
              <LongitudeDegrees>-4.0779204480350017547607421875</LongitudeDegrees>
            </Position>
            <AltitudeMeters>1340.199951171875</AltitudeMeters>
            <DistanceMeters>3681.4615836093</DistanceMeters>
          </Trackpoint>
          <Trackpoint>
            <Time>2018-12-30T09:46:54.000Z</Time>
            <Position>
              <LatitudeDegrees>40.75853613205254077911376953125</LatitudeDegrees>
              <LongitudeDegrees>-4.07791432924568653106689453125</LongitudeDegrees>
            </Position>
            <AltitudeMeters>1340.199951171875</AltitudeMeters>
            <DistanceMeters>3681.9991358823</DistanceMeters>
          </Trackpoint>
          <Trackpoint>
            <Time>2018-12-30T09:46:55.000Z</Time>
            <Position>
              <LatitudeDegrees>40.75853797607123851776123046875</LatitudeDegrees>
              <LongitudeDegrees>-4.07790477387607097625732421875</LongitudeDegrees>
            </Position>
            <AltitudeMeters>1340.4000244140625</AltitudeMeters>
            <DistanceMeters>3682.8275595721</DistanceMeters>
          </Trackpoint>
          <Trackpoint>
            <Time>2018-12-30T09:46:56.000Z</Time>
            <Position>
              <LatitudeDegrees>40.75853914953768253326416015625</LatitudeDegrees>
              <LongitudeDegrees>-4.07789370976388454437255859375</LongitudeDegrees>
            </Position>
            <AltitudeMeters>1340.4000244140625</AltitudeMeters>
            <DistanceMeters>3683.7634641693</DistanceMeters>
          </Trackpoint>
          <Trackpoint>
            <Time>2018-12-30T09:46:57.000Z</Time>
            <Position>
              <LatitudeDegrees>40.75853596441447734832763671875</LatitudeDegrees>
              <LongitudeDegrees>-4.07788180746138095855712890625</LongitudeDegrees>
            </Position>
            <AltitudeMeters>1340.4000244140625</AltitudeMeters>
            <DistanceMeters>3684.8216368768</DistanceMeters>
          </Trackpoint>
          <Trackpoint>
            <Time>2018-12-30T09:46:58.000Z</Time>
            <Position>
              <LatitudeDegrees>40.758530683815479278564453125</LatitudeDegrees>
              <LongitudeDegrees>-4.07785699702799320220947265625</LongitudeDegrees>
            </Position>
            <AltitudeMeters>1340.199951171875</AltitudeMeters>
            <DistanceMeters>3686.9927425638</DistanceMeters>
          </Trackpoint>
          <Trackpoint>
            <Time>2018-12-30T09:46:59.000Z</Time>
            <Position>
              <LatitudeDegrees>40.75852775014936923980712890625</LatitudeDegrees>
              <LongitudeDegrees>-4.07784492708742618560791015625</LongitudeDegrees>
            </Position>
            <AltitudeMeters>1340</AltitudeMeters>
            <DistanceMeters>3688.059414787</DistanceMeters>
          </Trackpoint>
          <Trackpoint>
            <Time>2018-12-30T09:47:00.000Z</Time>
            <Position>
              <LatitudeDegrees>40.75852473266422748565673828125</LatitudeDegrees>
              <LongitudeDegrees>-4.07782648690044879913330078125</LongitudeDegrees>
            </Position>
            <AltitudeMeters>1340</AltitudeMeters>
            <DistanceMeters>3689.6495158544</DistanceMeters>
          </Trackpoint>
          <Trackpoint>
            <Time>2018-12-30T09:47:01.000Z</Time>
            <Position>
              <LatitudeDegrees>40.75852439738810062408447265625</LatitudeDegrees>
              <LongitudeDegrees>-4.07781173475086688995361328125</LongitudeDegrees>
            </Position>
            <AltitudeMeters>1340</AltitudeMeters>
            <DistanceMeters>3690.8993971387</DistanceMeters>
          </Trackpoint>
          <Trackpoint>
            <Time>2018-12-30T09:47:02.000Z</Time>
            <Position>
              <LatitudeDegrees>40.7585308514535427093505859375</LatitudeDegrees>
              <LongitudeDegrees>-4.0778361260890960693359375</LongitudeDegrees>
            </Position>
            <AltitudeMeters>1340</AltitudeMeters>
            <DistanceMeters>3693.0788053633</DistanceMeters>
          </Trackpoint>
          <Trackpoint>
            <Time>2018-12-30T09:47:03.000Z</Time>
            <Position>
              <LatitudeDegrees>40.7585214637219905853271484375</LatitudeDegrees>
              <LongitudeDegrees>-4.07782196067273616790771484375</LongitudeDegrees>
            </Position>
            <AltitudeMeters>1340</AltitudeMeters>
            <DistanceMeters>3694.6632173209</DistanceMeters>
          </Trackpoint>
          <Trackpoint>
            <Time>2018-12-30T09:47:04.000Z</Time>
            <Position>
              <LatitudeDegrees>40.75852473266422748565673828125</LatitudeDegrees>
              <LongitudeDegrees>-4.0778379701077938079833984375</LongitudeDegrees>
            </Position>
            <AltitudeMeters>1340</AltitudeMeters>
            <DistanceMeters>3696.0662699445</DistanceMeters>
          </Trackpoint>
          <Trackpoint>
            <Time>2018-12-30T09:47:05.000Z</Time>
            <Position>
              <LatitudeDegrees>40.75852775014936923980712890625</LatitudeDegrees>
              <LongitudeDegrees>-4.0778456814587116241455078125</LongitudeDegrees>
            </Position>
            <AltitudeMeters>1340</AltitudeMeters>
            <DistanceMeters>3696.8023437089</DistanceMeters>
          </Trackpoint>
          <Trackpoint>
            <Time>2018-12-30T09:47:06.000Z</Time>
            <Position>
              <LatitudeDegrees>40.75852741487324237823486328125</LatitudeDegrees>
              <LongitudeDegrees>-4.0778483636677265167236328125</LongitudeDegrees>
            </Position>
            <AltitudeMeters>1340</AltitudeMeters>
            <DistanceMeters>3697.0351106711</DistanceMeters>
          </Trackpoint>
          <Trackpoint>
            <Time>2018-12-30T09:47:07.000Z</Time>
            <Position>
              <LatitudeDegrees>40.758528001606464385986328125</LatitudeDegrees>
              <LongitudeDegrees>-4.07785045914351940155029296875</LongitudeDegrees>
            </Position>
            <AltitudeMeters>1340.199951171875</AltitudeMeters>
            <DistanceMeters>3697.2251640998</DistanceMeters>
          </Trackpoint>
          <Trackpoint>
            <Time>2018-12-30T09:47:08.000Z</Time>
            <Position>
              <LatitudeDegrees>40.75852490030229091644287109375</LatitudeDegrees>
              <LongitudeDegrees>-4.0778549015522003173828125</LongitudeDegrees>
            </Position>
            <AltitudeMeters>1340.4000244140625</AltitudeMeters>
            <DistanceMeters>3697.7368986178</DistanceMeters>
          </Trackpoint>
          <Trackpoint>
            <Time>2018-12-30T09:47:09.000Z</Time>
            <Position>
              <LatitudeDegrees>40.758523978292942047119140625</LatitudeDegrees>
              <LongitudeDegrees>-4.07785565592348575592041015625</LongitudeDegrees>
            </Position>
            <AltitudeMeters>1340.4000244140625</AltitudeMeters>
            <DistanceMeters>3697.9014897152</DistanceMeters>
          </Trackpoint>
          <Trackpoint>
            <Time>2018-12-30T09:47:10.000Z</Time>
            <Position>
              <LatitudeDegrees>40.75852372683584690093994140625</LatitudeDegrees>
              <LongitudeDegrees>-4.07785649411380290985107421875</LongitudeDegrees>
            </Position>
            <AltitudeMeters>1340.5999755859375</AltitudeMeters>
            <DistanceMeters>3698.0358777834</DistanceMeters>
          </Trackpoint>
          <Trackpoint>
            <Time>2018-12-30T09:47:11.000Z</Time>
            <Position>
              <LatitudeDegrees>40.758523643016815185546875</LatitudeDegrees>
              <LongitudeDegrees>-4.07785682938992977142333984375</LongitudeDegrees>
            </Position>
            <AltitudeMeters>1340.5999755859375</AltitudeMeters>
            <DistanceMeters>3698.0358777834</DistanceMeters>
          </Trackpoint>
          <Trackpoint>
            <Time>2018-12-30T09:47:12.000Z</Time>
            <Position>
              <LatitudeDegrees>40.75852490030229091644287109375</LatitudeDegrees>
              <LongitudeDegrees>-4.07786319963634014129638671875</LongitudeDegrees>
            </Position>
            <AltitudeMeters>1340.800048828125</AltitudeMeters>
            <DistanceMeters>3698.5899739836</DistanceMeters>
          </Trackpoint>
          <Trackpoint>
            <Time>2018-12-30T09:47:13.000Z</Time>
            <Position>
              <LatitudeDegrees>40.75852406211197376251220703125</LatitudeDegrees>
              <LongitudeDegrees>-4.07787434756755828857421875</LongitudeDegrees>
            </Position>
            <AltitudeMeters>1340.800048828125</AltitudeMeters>
            <DistanceMeters>3699.5354778535</DistanceMeters>
          </Trackpoint>
          <Trackpoint>
            <Time>2018-12-30T09:47:14.000Z</Time>
            <Position>
              <LatitudeDegrees>40.75852020643651485443115234375</LatitudeDegrees>
              <LongitudeDegrees>-4.0778870880603790283203125</LongitudeDegrees>
            </Position>
            <AltitudeMeters>1340.800048828125</AltitudeMeters>
            <DistanceMeters>3700.6915277286</DistanceMeters>
          </Trackpoint>
          <Trackpoint>
            <Time>2018-12-30T09:47:15.000Z</Time>
            <Position>
              <LatitudeDegrees>40.7585167698562145233154296875</LatitudeDegrees>
              <LongitudeDegrees>-4.0779003314673900604248046875</LongitudeDegrees>
            </Position>
            <AltitudeMeters>1340.800048828125</AltitudeMeters>
            <DistanceMeters>3701.8707782416</DistanceMeters>
          </Trackpoint>
          <Trackpoint>
            <Time>2018-12-30T09:47:16.000Z</Time>
            <Position>
              <LatitudeDegrees>40.7585174404084682464599609375</LatitudeDegrees>
              <LongitudeDegrees>-4.0779157541692256927490234375</LongitudeDegrees>
            </Position>
            <AltitudeMeters>1340.5999755859375</AltitudeMeters>
            <DistanceMeters>3703.1702490166</DistanceMeters>
          </Trackpoint>
          <Trackpoint>
            <Time>2018-12-30T09:47:17.000Z</Time>
            <Position>
              <LatitudeDegrees>40.7585207931697368621826171875</LatitudeDegrees>
              <LongitudeDegrees>-4.07793092541396617889404296875</LongitudeDegrees>
            </Position>
            <AltitudeMeters>1340.5999755859375</AltitudeMeters>
            <DistanceMeters>3704.5006230177</DistanceMeters>
          </Trackpoint>
          <Trackpoint>
            <Time>2018-12-30T09:47:18.000Z</Time>
            <Position>
              <LatitudeDegrees>40.75852339155972003936767578125</LatitudeDegrees>
              <LongitudeDegrees>-4.07794886268675327301025390625</LongitudeDegrees>
            </Position>
            <AltitudeMeters>1340.5999755859375</AltitudeMeters>
            <DistanceMeters>3706.0387647629</DistanceMeters>
          </Trackpoint>
          <Trackpoint>
            <Time>2018-12-30T09:47:19.000Z</Time>
            <Position>
              <LatitudeDegrees>40.75852724723517894744873046875</LatitudeDegrees>
              <LongitudeDegrees>-4.07797384075820446014404296875</LongitudeDegrees>
            </Position>
            <AltitudeMeters>1340.5999755859375</AltitudeMeters>
            <DistanceMeters>3708.1889738549</DistanceMeters>
          </Trackpoint>
          <Trackpoint>
            <Time>2018-12-30T09:47:20.000Z</Time>
            <Position>
              <LatitudeDegrees>40.75852188281714916229248046875</LatitudeDegrees>
              <LongitudeDegrees>-4.077990688383579254150390625</LongitudeDegrees>
            </Position>
            <AltitudeMeters>1341</AltitudeMeters>
            <DistanceMeters>3709.7329752089</DistanceMeters>
          </Trackpoint>
          <Trackpoint>
            <Time>2018-12-30T09:47:21.000Z</Time>
            <Position>
              <LatitudeDegrees>40.758515261113643646240234375</LatitudeDegrees>
              <LongitudeDegrees>-4.07800736837089061737060546875</LongitudeDegrees>
            </Position>
            <AltitudeMeters>1341</AltitudeMeters>
            <DistanceMeters>3711.3230762763</DistanceMeters>
          </Trackpoint>
          <Trackpoint>
            <Time>2018-12-30T09:47:22.000Z</Time>
            <Position>
              <LatitudeDegrees>40.75850729830563068389892578125</LatitudeDegrees>
              <LongitudeDegrees>-4.0780247189104557037353515625</LongitudeDegrees>
            </Position>
            <AltitudeMeters>1341.199951171875</AltitudeMeters>
            <DistanceMeters>3713.0335571349</DistanceMeters>
          </Trackpoint>
          <Trackpoint>
            <Time>2018-12-30T09:47:23.000Z</Time>
            <Position>
              <LatitudeDegrees>40.7584956474602222442626953125</LatitudeDegrees>
              <LongitudeDegrees>-4.0780451707541942596435546875</LongitudeDegrees>
            </Position>
            <AltitudeMeters>1341.5999755859375</AltitudeMeters>
            <DistanceMeters>3715.1879617608</DistanceMeters>
          </Trackpoint>
          <Trackpoint>
            <Time>2018-12-30T09:47:24.000Z</Time>
            <Position>
              <LatitudeDegrees>40.7584886066615581512451171875</LatitudeDegrees>
              <LongitudeDegrees>-4.078055061399936676025390625</LongitudeDegrees>
            </Position>
            <AltitudeMeters>1342</AltitudeMeters>
            <DistanceMeters>3716.3282823333</DistanceMeters>
          </Trackpoint>
          <Trackpoint>
            <Time>2018-12-30T09:47:25.000Z</Time>
            <Position>
              <LatitudeDegrees>40.75848349370062351226806640625</LatitudeDegrees>
              <LongitudeDegrees>-4.07806185074150562286376953125</LongitudeDegrees>
            </Position>
            <AltitudeMeters>1342.199951171875</AltitudeMeters>
            <DistanceMeters>3717.1346107428</DistanceMeters>
          </Trackpoint>
          <Trackpoint>
            <Time>2018-12-30T09:47:26.000Z</Time>
            <Position>
              <LatitudeDegrees>40.75848047621548175811767578125</LatitudeDegrees>
              <LongitudeDegrees>-4.07806738279759883880615234375</LongitudeDegrees>
            </Position>
            <AltitudeMeters>1342.4000244140625</AltitudeMeters>
            <DistanceMeters>3717.704771029</DistanceMeters>
          </Trackpoint>
          <Trackpoint>
            <Time>2018-12-30T09:47:27.000Z</Time>
            <Position>
              <LatitudeDegrees>40.75847737491130828857421875</LatitudeDegrees>
              <LongitudeDegrees>-4.07807257957756519317626953125</LongitudeDegrees>
            </Position>
            <AltitudeMeters>1342.5999755859375</AltitudeMeters>
            <DistanceMeters>3718.2588672292</DistanceMeters>
          </Trackpoint>
          <Trackpoint>
            <Time>2018-12-30T09:47:28.000Z</Time>
            <Position>
              <LatitudeDegrees>40.75847561471164226531982421875</LatitudeDegrees>
              <LongitudeDegrees>-4.07807417213916778564453125</LongitudeDegrees>
            </Position>
            <AltitudeMeters>1342.800048828125</AltitudeMeters>
            <DistanceMeters>3718.4916341914</DistanceMeters>
          </Trackpoint>
          <Trackpoint>
            <Time>2018-12-30T09:47:29.000Z</Time>
            <Position>
              <LatitudeDegrees>40.75847578234970569610595703125</LatitudeDegrees>
              <LongitudeDegrees>-4.0780766867101192474365234375</LongitudeDegrees>
            </Position>
            <AltitudeMeters>1343</AltitudeMeters>
            <DistanceMeters>3718.7244011535</DistanceMeters>
          </Trackpoint>
          <Trackpoint>
            <Time>2018-12-30T09:47:30.000Z</Time>
            <Position>
              <LatitudeDegrees>40.75847879983484745025634765625</LatitudeDegrees>
              <LongitudeDegrees>-4.0780735015869140625</LongitudeDegrees>
            </Position>
            <AltitudeMeters>1343</AltitudeMeters>
            <DistanceMeters>3719.1493735395</DistanceMeters>
          </Trackpoint>
          <Trackpoint>
            <Time>2018-12-30T09:47:31.000Z</Time>
            <Position>
              <LatitudeDegrees>40.75847846455872058868408203125</LatitudeDegrees>
              <LongitudeDegrees>-4.078083895146846771240234375</LongitudeDegrees>
            </Position>
            <AltitudeMeters>1343</AltitudeMeters>
            <DistanceMeters>3720.0203077628</DistanceMeters>
          </Trackpoint>
          <Trackpoint>
            <Time>2018-12-30T09:47:32.000Z</Time>
            <Position>
              <LatitudeDegrees>40.75847645290195941925048828125</LatitudeDegrees>
              <LongitudeDegrees>-4.0780850686132907867431640625</LongitudeDegrees>
            </Position>
            <AltitudeMeters>1343</AltitudeMeters>
            <DistanceMeters>3720.2530747249</DistanceMeters>
          </Trackpoint>
          <Trackpoint>
            <Time>2018-12-30T09:47:33.000Z</Time>
            <Position>
              <LatitudeDegrees>40.75847645290195941925048828125</LatitudeDegrees>
              <LongitudeDegrees>-4.0780592523515224456787109375</LongitudeDegrees>
            </Position>
            <AltitudeMeters>1343</AltitudeMeters>
            <DistanceMeters>3722.4283356419</DistanceMeters>
          </Trackpoint>
          <Trackpoint>
            <Time>2018-12-30T09:47:34.000Z</Time>
            <Position>
              <LatitudeDegrees>40.75847209431231021881103515625</LatitudeDegrees>
              <LongitudeDegrees>-4.07803335227072238922119140625</LongitudeDegrees>
            </Position>
            <AltitudeMeters>1342.800048828125</AltitudeMeters>
            <DistanceMeters>3724.6649988597</DistanceMeters>
          </Trackpoint>
          <Trackpoint>
            <Time>2018-12-30T09:47:35.000Z</Time>
            <Position>
              <LatitudeDegrees>40.7584726810455322265625</LatitudeDegrees>
              <LongitudeDegrees>-4.0780265629291534423828125</LongitudeDegrees>
            </Position>
            <AltitudeMeters>1342.800048828125</AltitudeMeters>
            <DistanceMeters>3725.2351591459</DistanceMeters>
          </Trackpoint>
          <Trackpoint>
            <Time>2018-12-30T09:47:36.000Z</Time>
            <Position>
              <LatitudeDegrees>40.7584708370268344879150390625</LatitudeDegrees>
              <LongitudeDegrees>-4.07802547328174114227294921875</LongitudeDegrees>
            </Position>
            <AltitudeMeters>1342.800048828125</AltitudeMeters>
            <DistanceMeters>3725.467926108</DistanceMeters>
          </Trackpoint>
          <Trackpoint>
            <Time>2018-12-30T09:47:37.000Z</Time>
            <Position>
              <LatitudeDegrees>40.7584701664745807647705078125</LatitudeDegrees>
              <LongitudeDegrees>-4.07802597619593143463134765625</LongitudeDegrees>
            </Position>
            <AltitudeMeters>1342.5999755859375</AltitudeMeters>
            <DistanceMeters>3725.467926108</DistanceMeters>
          </Trackpoint>
          <Trackpoint>
            <Time>2018-12-30T09:47:38.000Z</Time>
            <Position>
              <LatitudeDegrees>40.7584607787430286407470703125</LatitudeDegrees>
              <LongitudeDegrees>-4.0780230425298213958740234375</LongitudeDegrees>
            </Position>
            <AltitudeMeters>1342.5999755859375</AltitudeMeters>
            <DistanceMeters>3726.5388227923</DistanceMeters>
          </Trackpoint>
          <Trackpoint>
            <Time>2018-12-30T09:47:39.000Z</Time>
            <Position>
              <LatitudeDegrees>40.75845331884920597076416015625</LatitudeDegrees>
              <LongitudeDegrees>-4.07802513800561428070068359375</LongitudeDegrees>
            </Position>
            <AltitudeMeters>1342.5999755859375</AltitudeMeters>
            <DistanceMeters>3727.3780760095</DistanceMeters>
          </Trackpoint>
          <Trackpoint>
            <Time>2018-12-30T09:47:40.000Z</Time>
            <Position>
              <LatitudeDegrees>40.75844728387892246246337890625</LatitudeDegrees>
              <LongitudeDegrees>-4.07803125679492950439453125</LongitudeDegrees>
            </Position>
            <AltitudeMeters>1342.5999755859375</AltitudeMeters>
            <DistanceMeters>3728.2173292268</DistanceMeters>
          </Trackpoint>
          <Trackpoint>
            <Time>2018-12-30T09:47:41.000Z</Time>
            <Position>
              <LatitudeDegrees>40.75843102298676967620849609375</LatitudeDegrees>
              <LongitudeDegrees>-4.07802044413983821868896484375</LongitudeDegrees>
            </Position>
            <AltitudeMeters>1342.5999755859375</AltitudeMeters>
            <DistanceMeters>3730.2465445575</DistanceMeters>
          </Trackpoint>
          <Trackpoint>
            <Time>2018-12-30T09:47:42.000Z</Time>
            <Position>
              <LatitudeDegrees>40.75842716731131076812744140625</LatitudeDegrees>
              <LongitudeDegrees>-4.07801575027406215667724609375</LongitudeDegrees>
            </Position>
            <AltitudeMeters>1342.800048828125</AltitudeMeters>
            <DistanceMeters>3730.8323285662</DistanceMeters>
          </Trackpoint>
          <Trackpoint>
            <Time>2018-12-30T09:47:43.000Z</Time>
            <Position>
              <LatitudeDegrees>40.75842683203518390655517578125</LatitudeDegrees>
              <LongitudeDegrees>-4.07801558263599872589111328125</LongitudeDegrees>
            </Position>
            <AltitudeMeters>1342.800048828125</AltitudeMeters>
            <DistanceMeters>3730.8323285662</DistanceMeters>
          </Trackpoint>
          <Trackpoint>
            <Time>2018-12-30T09:47:44.000Z</Time>
            <Position>
              <LatitudeDegrees>40.7584265805780887603759765625</LatitudeDegrees>
              <LongitudeDegrees>-4.0780158340930938720703125</LongitudeDegrees>
            </Position>
            <AltitudeMeters>1342.800048828125</AltitudeMeters>
            <DistanceMeters>3730.8323285662</DistanceMeters>
          </Trackpoint>
          <Trackpoint>
            <Time>2018-12-30T09:47:45.000Z</Time>
            <Position>
              <LatitudeDegrees>40.7584265805780887603759765625</LatitudeDegrees>
              <LongitudeDegrees>-4.07801591791212558746337890625</LongitudeDegrees>
            </Position>
            <AltitudeMeters>1342.800048828125</AltitudeMeters>
            <DistanceMeters>3730.8323285662</DistanceMeters>
          </Trackpoint>
          <Trackpoint>
            <Time>2018-12-30T09:47:46.000Z</Time>
            <Position>
              <LatitudeDegrees>40.75842632912099361419677734375</LatitudeDegrees>
              <LongitudeDegrees>-4.078016169369220733642578125</LongitudeDegrees>
            </Position>
            <AltitudeMeters>1342.800048828125</AltitudeMeters>
            <DistanceMeters>3730.8323285662</DistanceMeters>
          </Trackpoint>
          <Trackpoint>
            <Time>2018-12-30T09:47:47.000Z</Time>
            <Position>
              <LatitudeDegrees>40.75842666439712047576904296875</LatitudeDegrees>
              <LongitudeDegrees>-4.07801642082631587982177734375</LongitudeDegrees>
            </Position>
            <AltitudeMeters>1342.800048828125</AltitudeMeters>
            <DistanceMeters>3730.8323285662</DistanceMeters>
          </Trackpoint>
          <Trackpoint>
            <Time>2018-12-30T09:47:48.000Z</Time>
            <Position>
              <LatitudeDegrees>40.758427083492279052734375</LatitudeDegrees>
              <LongitudeDegrees>-4.0780166722834110260009765625</LongitudeDegrees>
            </Position>
            <AltitudeMeters>1342.800048828125</AltitudeMeters>
            <DistanceMeters>3730.9273552806</DistanceMeters>
          </Trackpoint>
          <Trackpoint>
            <Time>2018-12-30T09:47:49.000Z</Time>
            <Position>
              <LatitudeDegrees>40.75842767022550106048583984375</LatitudeDegrees>
              <LongitudeDegrees>-4.078017510473728179931640625</LongitudeDegrees>
            </Position>
            <AltitudeMeters>1342.800048828125</AltitudeMeters>
            <DistanceMeters>3731.0617433488</DistanceMeters>
          </Trackpoint>
          <Trackpoint>
            <Time>2018-12-30T09:47:50.000Z</Time>
            <Position>
              <LatitudeDegrees>40.75842767022550106048583984375</LatitudeDegrees>
              <LongitudeDegrees>-4.07801910303533077239990234375</LongitudeDegrees>
            </Position>
            <AltitudeMeters>1342.800048828125</AltitudeMeters>
            <DistanceMeters>3731.1961314171</DistanceMeters>
          </Trackpoint>
          <Trackpoint>
            <Time>2018-12-30T09:47:51.000Z</Time>
            <Position>
              <LatitudeDegrees>40.75842733494937419891357421875</LatitudeDegrees>
              <LongitudeDegrees>-4.07802027650177478790283203125</LongitudeDegrees>
            </Position>
            <AltitudeMeters>1342.800048828125</AltitudeMeters>
            <DistanceMeters>3731.3305194853</DistanceMeters>
          </Trackpoint>
          <Trackpoint>
            <Time>2018-12-30T09:47:52.000Z</Time>
            <Position>
              <LatitudeDegrees>40.75842683203518390655517578125</LatitudeDegrees>
              <LongitudeDegrees>-4.07802111469209194183349609375</LongitudeDegrees>
            </Position>
            <AltitudeMeters>1342.800048828125</AltitudeMeters>
            <DistanceMeters>3731.4255461997</DistanceMeters>
          </Trackpoint>
          <Trackpoint>
            <Time>2018-12-30T09:47:53.000Z</Time>
            <Position>
              <LatitudeDegrees>40.7584257423877716064453125</LatitudeDegrees>
              <LongitudeDegrees>-4.078021533787250518798828125</LongitudeDegrees>
            </Position>
            <AltitudeMeters>1342.800048828125</AltitudeMeters>
            <DistanceMeters>3731.4255461997</DistanceMeters>
          </Trackpoint>
          <Trackpoint>
            <Time>2018-12-30T09:47:54.000Z</Time>
            <Position>
              <LatitudeDegrees>40.758424736559391021728515625</LatitudeDegrees>
              <LongitudeDegrees>-4.07802228815853595733642578125</LongitudeDegrees>
            </Position>
            <AltitudeMeters>1342.800048828125</AltitudeMeters>
            <DistanceMeters>3731.5599342679</DistanceMeters>
          </Trackpoint>
          <Trackpoint>
            <Time>2018-12-30T09:47:55.000Z</Time>
            <Position>
              <LatitudeDegrees>40.75842331163585186004638671875</LatitudeDegrees>
              <LongitudeDegrees>-4.0780280716717243194580078125</LongitudeDegrees>
            </Position>
            <AltitudeMeters>1343</AltitudeMeters>
            <DistanceMeters>3732.0716687859</DistanceMeters>
          </Trackpoint>
          <Trackpoint>
            <Time>2018-12-30T09:47:56.000Z</Time>
            <Position>
              <LatitudeDegrees>40.758421719074249267578125</LatitudeDegrees>
              <LongitudeDegrees>-4.07803595066070556640625</LongitudeDegrees>
            </Position>
            <AltitudeMeters>1343</AltitudeMeters>
            <DistanceMeters>3732.7569161683</DistanceMeters>
          </Trackpoint>
          <Trackpoint>
            <Time>2018-12-30T09:47:57.000Z</Time>
            <Position>
              <LatitudeDegrees>40.758421719074249267578125</LatitudeDegrees>
              <LongitudeDegrees>-4.078036956489086151123046875</LongitudeDegrees>
            </Position>
            <AltitudeMeters>1343</AltitudeMeters>
            <DistanceMeters>3732.7569161683</DistanceMeters>
          </Trackpoint>
          <Trackpoint>
            <Time>2018-12-30T09:47:58.000Z</Time>
            <Position>
              <LatitudeDegrees>40.7584222219884395599365234375</LatitudeDegrees>
              <LongitudeDegrees>-4.07803787849843502044677734375</LongitudeDegrees>
            </Position>
            <AltitudeMeters>1343</AltitudeMeters>
            <DistanceMeters>3732.8519428827</DistanceMeters>
          </Trackpoint>
          <Trackpoint>
            <Time>2018-12-30T09:47:59.000Z</Time>
            <Position>
              <LatitudeDegrees>40.7584212161600589752197265625</LatitudeDegrees>
              <LongitudeDegrees>-4.0780334360897541046142578125</LongitudeDegrees>
            </Position>
            <AltitudeMeters>1342.800048828125</AltitudeMeters>
            <DistanceMeters>3733.2320497402</DistanceMeters>
          </Trackpoint>
          <Trackpoint>
            <Time>2018-12-30T09:48:00.000Z</Time>
            <Position>
              <LatitudeDegrees>40.75842230580747127532958984375</LatitudeDegrees>
              <LongitudeDegrees>-4.078031592071056365966796875</LongitudeDegrees>
            </Position>
            <AltitudeMeters>1342.800048828125</AltitudeMeters>
            <DistanceMeters>3733.4221031689</DistanceMeters>
          </Trackpoint>
          <Trackpoint>
            <Time>2018-12-30T09:48:01.000Z</Time>
            <Position>
              <LatitudeDegrees>40.75842180289328098297119140625</LatitudeDegrees>
              <LongitudeDegrees>-4.0780287422239780426025390625</LongitudeDegrees>
            </Position>
            <AltitudeMeters>1342.800048828125</AltitudeMeters>
            <DistanceMeters>3733.654870131</DistanceMeters>
          </Trackpoint>
          <Trackpoint>
            <Time>2018-12-30T09:48:02.000Z</Time>
            <Position>
              <LatitudeDegrees>40.75842733494937419891357421875</LatitudeDegrees>
              <LongitudeDegrees>-4.07802413217723369598388671875</LongitudeDegrees>
            </Position>
            <AltitudeMeters>1342.800048828125</AltitudeMeters>
            <DistanceMeters>3734.3909438954</DistanceMeters>
          </Trackpoint>
          <Trackpoint>
            <Time>2018-12-30T09:48:03.000Z</Time>
            <Position>
              <LatitudeDegrees>40.75843336991965770721435546875</LatitudeDegrees>
              <LongitudeDegrees>-4.0780183486640453338623046875</LongitudeDegrees>
            </Position>
            <AltitudeMeters>1342.5999755859375</AltitudeMeters>
            <DistanceMeters>3735.2193675852</DistanceMeters>
          </Trackpoint>
          <Trackpoint>
            <Time>2018-12-30T09:48:04.000Z</Time>
            <Position>
              <LatitudeDegrees>40.75844024308025836944580078125</LatitudeDegrees>
              <LongitudeDegrees>-4.0780079551041126251220703125</LongitudeDegrees>
            </Position>
            <AltitudeMeters>1342.5999755859375</AltitudeMeters>
            <DistanceMeters>3736.3832023959</DistanceMeters>
          </Trackpoint>
          <Trackpoint>
            <Time>2018-12-30T09:48:05.000Z</Time>
            <Position>
              <LatitudeDegrees>40.75844208709895610809326171875</LatitudeDegrees>
              <LongitudeDegrees>-4.078007452189922332763671875</LongitudeDegrees>
            </Position>
            <AltitudeMeters>1342.4000244140625</AltitudeMeters>
            <DistanceMeters>3736.615969358</DistanceMeters>
          </Trackpoint>
          <Trackpoint>
            <Time>2018-12-30T09:48:06.000Z</Time>
            <Position>
              <LatitudeDegrees>40.7584403268992900848388671875</LatitudeDegrees>
              <LongitudeDegrees>-4.07799781300127506256103515625</LongitudeDegrees>
            </Position>
            <AltitudeMeters>1342.199951171875</AltitudeMeters>
            <DistanceMeters>3737.4443930478</DistanceMeters>
          </Trackpoint>
          <Trackpoint>
            <Time>2018-12-30T09:48:07.000Z</Time>
            <Position>
              <LatitudeDegrees>40.75843621976673603057861328125</LatitudeDegrees>
              <LongitudeDegrees>-4.0779895149171352386474609375</LongitudeDegrees>
            </Position>
            <AltitudeMeters>1342</AltitudeMeters>
            <DistanceMeters>3738.2782490822</DistanceMeters>
          </Trackpoint>
          <Trackpoint>
            <Time>2018-12-30T09:48:08.000Z</Time>
            <Position>
              <LatitudeDegrees>40.7584259100258350372314453125</LatitudeDegrees>
              <LongitudeDegrees>-4.0779754333198070526123046875</LongitudeDegrees>
            </Position>
            <AltitudeMeters>1341.5999755859375</AltitudeMeters>
            <DistanceMeters>3739.9296373122</DistanceMeters>
          </Trackpoint>
          <Trackpoint>
            <Time>2018-12-30T09:48:09.000Z</Time>
            <Position>
              <LatitudeDegrees>40.75841878540813922882080078125</LatitudeDegrees>
              <LongitudeDegrees>-4.07796378247439861297607421875</LongitudeDegrees>
            </Position>
            <AltitudeMeters>1341.4000244140625</AltitudeMeters>
            <DistanceMeters>3741.1903091387</DistanceMeters>
          </Trackpoint>
          <Trackpoint>
            <Time>2018-12-30T09:48:10.000Z</Time>
            <Position>
              <LatitudeDegrees>40.75841166079044342041015625</LatitudeDegrees>
              <LongitudeDegrees>-4.0779596753418445587158203125</LongitudeDegrees>
            </Position>
            <AltitudeMeters>1341</AltitudeMeters>
            <DistanceMeters>3742.0560437082</DistanceMeters>
          </Trackpoint>
          <Trackpoint>
            <Time>2018-12-30T09:48:11.000Z</Time>
            <Position>
              <LatitudeDegrees>40.75840319506824016571044921875</LatitudeDegrees>
              <LongitudeDegrees>-4.0779435820877552032470703125</LongitudeDegrees>
            </Position>
            <AltitudeMeters>1340.800048828125</AltitudeMeters>
            <DistanceMeters>3743.7101637651</DistanceMeters>
          </Trackpoint>
          <Trackpoint>
            <Time>2018-12-30T09:48:12.000Z</Time>
            <Position>
              <LatitudeDegrees>40.75839933939278125762939453125</LatitudeDegrees>
              <LongitudeDegrees>-4.07793561927974224090576171875</LongitudeDegrees>
            </Position>
            <AltitudeMeters>1340.5999755859375</AltitudeMeters>
            <DistanceMeters>3744.5108730928</DistanceMeters>
          </Trackpoint>
          <Trackpoint>
            <Time>2018-12-30T09:48:13.000Z</Time>
            <Position>
              <LatitudeDegrees>40.7583957351744174957275390625</LatitudeDegrees>
              <LongitudeDegrees>-4.077918939292430877685546875</LongitudeDegrees>
            </Position>
            <AltitudeMeters>1340.5999755859375</AltitudeMeters>
            <DistanceMeters>3745.976873841</DistanceMeters>
          </Trackpoint>
          <Trackpoint>
            <Time>2018-12-30T09:48:14.000Z</Time>
            <Position>
              <LatitudeDegrees>40.75838743709027767181396484375</LatitudeDegrees>
              <LongitudeDegrees>-4.0778978168964385986328125</LongitudeDegrees>
            </Position>
            <AltitudeMeters>1340.5999755859375</AltitudeMeters>
            <DistanceMeters>3747.9837156619</DistanceMeters>
          </Trackpoint>
          <Trackpoint>
            <Time>2018-12-30T09:48:15.000Z</Time>
            <Position>
              <LatitudeDegrees>40.7583920471370220184326171875</LatitudeDegrees>
              <LongitudeDegrees>-4.07789253629744052886962890625</LongitudeDegrees>
            </Position>
            <AltitudeMeters>1340.5999755859375</AltitudeMeters>
            <DistanceMeters>3748.6623421413</DistanceMeters>
          </Trackpoint>
          <Trackpoint>
            <Time>2018-12-30T09:48:16.000Z</Time>
            <Position>
              <LatitudeDegrees>40.758397579193115234375</LatitudeDegrees>
              <LongitudeDegrees>-4.07788775861263275146484375</LongitudeDegrees>
            </Position>
            <AltitudeMeters>1340.5999755859375</AltitudeMeters>
            <DistanceMeters>3749.3984159057</DistanceMeters>
          </Trackpoint>
          <Trackpoint>
            <Time>2018-12-30T09:48:17.000Z</Time>
            <Position>
              <LatitudeDegrees>40.75840353034436702728271484375</LatitudeDegrees>
              <LongitudeDegrees>-4.0778859145939350128173828125</LongitudeDegrees>
            </Position>
            <AltitudeMeters>1340.800048828125</AltitudeMeters>
            <DistanceMeters>3750.0836632881</DistanceMeters>
          </Trackpoint>
          <Trackpoint>
            <Time>2018-12-30T09:48:18.000Z</Time>
            <Position>
              <LatitudeDegrees>40.758416019380092620849609375</LatitudeDegrees>
              <LongitudeDegrees>-4.07791047357022762298583984375</LongitudeDegrees>
            </Position>
            <AltitudeMeters>1340.800048828125</AltitudeMeters>
            <DistanceMeters>3752.5761906387</DistanceMeters>
          </Trackpoint>
          <Trackpoint>
            <Time>2018-12-30T09:48:19.000Z</Time>
            <Position>
              <LatitudeDegrees>40.7584265805780887603759765625</LatitudeDegrees>
              <LongitudeDegrees>-4.077926985919475555419921875</LongitudeDegrees>
            </Position>
            <AltitudeMeters>1340.800048828125</AltitudeMeters>
            <DistanceMeters>3754.399119088</DistanceMeters>
          </Trackpoint>
          <Trackpoint>
            <Time>2018-12-30T09:48:20.000Z</Time>
            <Position>
              <LatitudeDegrees>40.75842850841581821441650390625</LatitudeDegrees>
              <LongitudeDegrees>-4.0779268182814121246337890625</LongitudeDegrees>
            </Position>
            <AltitudeMeters>1340.800048828125</AltitudeMeters>
            <DistanceMeters>3754.6318860502</DistanceMeters>
          </Trackpoint>
          <Trackpoint>
            <Time>2018-12-30T09:48:21.000Z</Time>
            <Position>
              <LatitudeDegrees>40.75842917896807193756103515625</LatitudeDegrees>
              <LongitudeDegrees>-4.07792706973850727081298828125</LongitudeDegrees>
            </Position>
            <AltitudeMeters>1340.800048828125</AltitudeMeters>
            <DistanceMeters>3754.6318860502</DistanceMeters>
          </Trackpoint>
          <Trackpoint>
            <Time>2018-12-30T09:48:22.000Z</Time>
            <Position>
              <LatitudeDegrees>40.7584309391677379608154296875</LatitudeDegrees>
              <LongitudeDegrees>-4.077928327023983001708984375</LongitudeDegrees>
            </Position>
            <AltitudeMeters>1340.5999755859375</AltitudeMeters>
            <DistanceMeters>3754.8219394789</DistanceMeters>
          </Trackpoint>
          <Trackpoint>
            <Time>2018-12-30T09:48:23.000Z</Time>
            <Position>
              <LatitudeDegrees>40.75843253172934055328369140625</LatitudeDegrees>
              <LongitudeDegrees>-4.0779288299381732940673828125</LongitudeDegrees>
            </Position>
            <AltitudeMeters>1340.5999755859375</AltitudeMeters>
            <DistanceMeters>3755.0119929077</DistanceMeters>
          </Trackpoint>
          <Trackpoint>
            <Time>2018-12-30T09:48:24.000Z</Time>
            <Position>
              <LatitudeDegrees>40.75843404047191143035888671875</LatitudeDegrees>
              <LongitudeDegrees>-4.0779325179755687713623046875</LongitudeDegrees>
            </Position>
            <AltitudeMeters>1340.5999755859375</AltitudeMeters>
            <DistanceMeters>3755.3675503154</DistanceMeters>
          </Trackpoint>
          <Trackpoint>
            <Time>2018-12-30T09:48:25.000Z</Time>
            <Position>
              <LatitudeDegrees>40.75843018479645252227783203125</LatitudeDegrees>
              <LongitudeDegrees>-4.07792866230010986328125</LongitudeDegrees>
            </Position>
            <AltitudeMeters>1340.4000244140625</AltitudeMeters>
            <DistanceMeters>3755.9051025884</DistanceMeters>
          </Trackpoint>
          <Trackpoint>
            <Time>2018-12-30T09:48:26.000Z</Time>
            <Position>
              <LatitudeDegrees>40.75842909514904022216796875</LatitudeDegrees>
              <LongitudeDegrees>-4.07792455516755580902099609375</LongitudeDegrees>
            </Position>
            <AltitudeMeters>1340.199951171875</AltitudeMeters>
            <DistanceMeters>3756.2852094459</DistanceMeters>
          </Trackpoint>
          <Trackpoint>
            <Time>2018-12-30T09:48:27.000Z</Time>
            <Position>
              <LatitudeDegrees>40.75843043625354766845703125</LatitudeDegrees>
              <LongitudeDegrees>-4.07791885547339916229248046875</LongitudeDegrees>
            </Position>
            <AltitudeMeters>1340</AltitudeMeters>
            <DistanceMeters>3756.7880435542</DistanceMeters>
          </Trackpoint>
          <Trackpoint>
            <Time>2018-12-30T09:48:28.000Z</Time>
            <Position>
              <LatitudeDegrees>40.758430771529674530029296875</LatitudeDegrees>
              <LongitudeDegrees>-4.0779174305498600006103515625</LongitudeDegrees>
            </Position>
            <AltitudeMeters>1340</AltitudeMeters>
            <DistanceMeters>3756.9224316224</DistanceMeters>
          </Trackpoint>
          <Trackpoint>
            <Time>2018-12-30T09:48:29.000Z</Time>
            <Position>
              <LatitudeDegrees>40.7584312744438648223876953125</LatitudeDegrees>
              <LongitudeDegrees>-4.07791717909276485443115234375</LongitudeDegrees>
            </Position>
            <AltitudeMeters>1339.800048828125</AltitudeMeters>
            <DistanceMeters>3756.9224316224</DistanceMeters>
          </Trackpoint>
          <Trackpoint>
            <Time>2018-12-30T09:48:30.000Z</Time>
            <Position>
              <LatitudeDegrees>40.7584319449961185455322265625</LatitudeDegrees>
              <LongitudeDegrees>-4.07791717909276485443115234375</LongitudeDegrees>
            </Position>
            <AltitudeMeters>1339.800048828125</AltitudeMeters>
            <DistanceMeters>3756.9224316224</DistanceMeters>
          </Trackpoint>
          <Trackpoint>
            <Time>2018-12-30T09:48:31.000Z</Time>
            <Position>
              <LatitudeDegrees>40.75843311846256256103515625</LatitudeDegrees>
              <LongitudeDegrees>-4.0779181011021137237548828125</LongitudeDegrees>
            </Position>
            <AltitudeMeters>1339.800048828125</AltitudeMeters>
            <DistanceMeters>3757.0870227198</DistanceMeters>
          </Trackpoint>
          <Trackpoint>
            <Time>2018-12-30T09:48:32.000Z</Time>
            <Position>
              <LatitudeDegrees>40.75843588449060916900634765625</LatitudeDegrees>
              <LongitudeDegrees>-4.07791717909276485443115234375</LongitudeDegrees>
            </Position>
            <AltitudeMeters>1339.800048828125</AltitudeMeters>
            <DistanceMeters>3757.4162049145</DistanceMeters>
          </Trackpoint>
          <Trackpoint>
            <Time>2018-12-30T09:48:33.000Z</Time>
            <Position>
              <LatitudeDegrees>40.7584379799664020538330078125</LatitudeDegrees>
              <LongitudeDegrees>-4.07791458070278167724609375</LongitudeDegrees>
            </Position>
            <AltitudeMeters>1339.5999755859375</AltitudeMeters>
            <DistanceMeters>3757.7167057705</DistanceMeters>
          </Trackpoint>
          <Trackpoint>
            <Time>2018-12-30T09:48:34.000Z</Time>
            <Position>
              <LatitudeDegrees>40.75843873433768749237060546875</LatitudeDegrees>
              <LongitudeDegrees>-4.07790921628475189208984375</LongitudeDegrees>
            </Position>
            <AltitudeMeters>1339.5999755859375</AltitudeMeters>
            <DistanceMeters>3758.1624205692</DistanceMeters>
          </Trackpoint>
          <Trackpoint>
            <Time>2018-12-30T09:48:35.000Z</Time>
            <Position>
              <LatitudeDegrees>40.7584389857947826385498046875</LatitudeDegrees>
              <LongitudeDegrees>-4.07790393568575382232666015625</LongitudeDegrees>
            </Position>
            <AltitudeMeters>1339.5999755859375</AltitudeMeters>
            <DistanceMeters>3758.6081353679</DistanceMeters>
          </Trackpoint>
          <Trackpoint>
            <Time>2018-12-30T09:48:36.000Z</Time>
            <Position>
              <LatitudeDegrees>40.7584393210709095001220703125</LatitudeDegrees>
              <LongitudeDegrees>-4.07789940945804119110107421875</LongitudeDegrees>
            </Position>
            <AltitudeMeters>1339.5999755859375</AltitudeMeters>
            <DistanceMeters>3758.9882422253</DistanceMeters>
          </Trackpoint>
          <Trackpoint>
            <Time>2018-12-30T09:48:37.000Z</Time>
            <Position>
              <LatitudeDegrees>40.75844091363251209259033203125</LatitudeDegrees>
              <LongitudeDegrees>-4.07789186574518680572509765625</LongitudeDegrees>
            </Position>
            <AltitudeMeters>1339.5999755859375</AltitudeMeters>
            <DistanceMeters>3759.6466066148</DistanceMeters>
          </Trackpoint>
          <Trackpoint>
            <Time>2018-12-30T09:48:38.000Z</Time>
            <Position>
              <LatitudeDegrees>40.7584446854889392852783203125</LatitudeDegrees>
              <LongitudeDegrees>-4.07788130454719066619873046875</LongitudeDegrees>
            </Position>
            <AltitudeMeters>1339.5999755859375</AltitudeMeters>
            <DistanceMeters>3760.6295705915</DistanceMeters>
          </Trackpoint>
          <Trackpoint>
            <Time>2018-12-30T09:48:39.000Z</Time>
            <Position>
              <LatitudeDegrees>40.758448205888271331787109375</LatitudeDegrees>
              <LongitudeDegrees>-4.07787158153951168060302734375</LongitudeDegrees>
            </Position>
            <AltitudeMeters>1339.5999755859375</AltitudeMeters>
            <DistanceMeters>3761.5410348162</DistanceMeters>
          </Trackpoint>
          <Trackpoint>
            <Time>2018-12-30T09:48:40.000Z</Time>
            <Position>
              <LatitudeDegrees>40.7584587670862674713134765625</LatitudeDegrees>
              <LongitudeDegrees>-4.07786772586405277252197265625</LongitudeDegrees>
            </Position>
            <AltitudeMeters>1339.5999755859375</AltitudeMeters>
            <DistanceMeters>3762.7579705321</DistanceMeters>
          </Trackpoint>
          <Trackpoint>
            <Time>2018-12-30T09:48:41.000Z</Time>
            <Position>
              <LatitudeDegrees>40.75846304185688495635986328125</LatitudeDegrees>
              <LongitudeDegrees>-4.07787208445370197296142578125</LongitudeDegrees>
            </Position>
            <AltitudeMeters>1339.5999755859375</AltitudeMeters>
            <DistanceMeters>3763.3589722441</DistanceMeters>
          </Trackpoint>
          <Trackpoint>
            <Time>2018-12-30T09:50:24.000Z</Time>
            <Position>
              <LatitudeDegrees>40.75878557749092578887939453125</LatitudeDegrees>
              <LongitudeDegrees>-4.07782363705337047576904296875</LongitudeDegrees>
            </Position>
            <AltitudeMeters>1338.800048828125</AltitudeMeters>
            <DistanceMeters>3799.4892487559</DistanceMeters>
          </Trackpoint>
          <Trackpoint>
            <Time>2018-12-30T09:50:25.000Z</Time>
            <Position>
              <LatitudeDegrees>40.758795551955699920654296875</LatitudeDegrees>
              <LongitudeDegrees>-4.0778084658086299896240234375</LongitudeDegrees>
            </Position>
            <AltitudeMeters>1339</AltitudeMeters>
            <DistanceMeters>3801.1811513041</DistanceMeters>
          </Trackpoint>
          <Trackpoint>
            <Time>2018-12-30T09:50:26.000Z</Time>
            <Position>
              <LatitudeDegrees>40.75880150310695171356201171875</LatitudeDegrees>
              <LongitudeDegrees>-4.07779924571514129638671875</LongitudeDegrees>
            </Position>
            <AltitudeMeters>1339.199951171875</AltitudeMeters>
            <DistanceMeters>3802.1957589695</DistanceMeters>
          </Trackpoint>
          <Trackpoint>
            <Time>2018-12-30T09:50:27.000Z</Time>
            <Position>
              <LatitudeDegrees>40.758804269134998321533203125</LatitudeDegrees>
              <LongitudeDegrees>-4.0777910314500331878662109375</LongitudeDegrees>
            </Position>
            <AltitudeMeters>1339.4000244140625</AltitudeMeters>
            <DistanceMeters>3802.9559726844</DistanceMeters>
          </Trackpoint>
          <Trackpoint>
            <Time>2018-12-30T09:50:28.000Z</Time>
            <Position>
              <LatitudeDegrees>40.7588057778775691986083984375</LatitudeDegrees>
              <LongitudeDegrees>-4.07778407447040081024169921875</LongitudeDegrees>
            </Position>
            <AltitudeMeters>1339.4000244140625</AltitudeMeters>
            <DistanceMeters>3803.5644405424</DistanceMeters>
          </Trackpoint>
          <Trackpoint>
            <Time>2018-12-30T09:50:29.000Z</Time>
            <Position>
              <LatitudeDegrees>40.75880804099142551422119140625</LatitudeDegrees>
              <LongitudeDegrees>-4.07777669839560985565185546875</LongitudeDegrees>
            </Position>
            <AltitudeMeters>1339.4000244140625</AltitudeMeters>
            <DistanceMeters>3804.2363808837</DistanceMeters>
          </Trackpoint>
          <Trackpoint>
            <Time>2018-12-30T09:50:30.000Z</Time>
            <Position>
              <LatitudeDegrees>40.758814997971057891845703125</LatitudeDegrees>
              <LongitudeDegrees>-4.07777108252048492431640625</LongitudeDegrees>
            </Position>
            <AltitudeMeters>1339.4000244140625</AltitudeMeters>
            <DistanceMeters>3805.1378834516</DistanceMeters>
          </Trackpoint>
          <Trackpoint>
            <Time>2018-12-30T09:50:31.000Z</Time>
            <Position>
              <LatitudeDegrees>40.758818686008453369140625</LatitudeDegrees>
              <LongitudeDegrees>-4.07776747830212116241455078125</LongitudeDegrees>
            </Position>
            <AltitudeMeters>1339.5999755859375</AltitudeMeters>
            <DistanceMeters>3805.6407175598</DistanceMeters>
          </Trackpoint>
          <Trackpoint>
            <Time>2018-12-30T09:50:32.000Z</Time>
            <Position>
              <LatitudeDegrees>40.75881843455135822296142578125</LatitudeDegrees>
              <LongitudeDegrees>-4.077767394483089447021484375</LongitudeDegrees>
            </Position>
            <AltitudeMeters>1339.5999755859375</AltitudeMeters>
            <DistanceMeters>3805.6407175598</DistanceMeters>
          </Trackpoint>
          <Trackpoint>
            <Time>2018-12-30T09:50:33.000Z</Time>
            <Position>
              <LatitudeDegrees>40.75881005264818668365478515625</LatitudeDegrees>
              <LongitudeDegrees>-4.0777628682553768157958984375</LongitudeDegrees>
            </Position>
            <AltitudeMeters>1339.4000244140625</AltitudeMeters>
            <DistanceMeters>3806.6508653897</DistanceMeters>
          </Trackpoint>
          <Trackpoint>
            <Time>2018-12-30T09:50:34.000Z</Time>
            <Position>
              <LatitudeDegrees>40.7588041014969348907470703125</LatitudeDegrees>
              <LongitudeDegrees>-4.07775658182799816131591796875</LongitudeDegrees>
            </Position>
            <AltitudeMeters>1339.4000244140625</AltitudeMeters>
            <DistanceMeters>3807.5008101617</DistanceMeters>
          </Trackpoint>
          <Trackpoint>
            <Time>2018-12-30T09:50:35.000Z</Time>
            <Position>
              <LatitudeDegrees>40.75879580341279506683349609375</LatitudeDegrees>
              <LongitudeDegrees>-4.0777521394193172454833984375</LongitudeDegrees>
            </Position>
            <AltitudeMeters>1339.4000244140625</AltitudeMeters>
            <DistanceMeters>3808.4974587502</DistanceMeters>
          </Trackpoint>
          <Trackpoint>
            <Time>2018-12-30T09:50:36.000Z</Time>
            <Position>
              <LatitudeDegrees>40.7587893493473529815673828125</LatitudeDegrees>
              <LongitudeDegrees>-4.07774250023066997528076171875</LongitudeDegrees>
            </Position>
            <AltitudeMeters>1339.5999755859375</AltitudeMeters>
            <DistanceMeters>3809.5809299947</DistanceMeters>
          </Trackpoint>
          <Trackpoint>
            <Time>2018-12-30T09:50:37.000Z</Time>
            <Position>
              <LatitudeDegrees>40.75878088362514972686767578125</LatitudeDegrees>
              <LongitudeDegrees>-4.07772950828075408935546875</LongitudeDegrees>
            </Position>
            <AltitudeMeters>1339.5999755859375</AltitudeMeters>
            <DistanceMeters>3811.0252110126</DistanceMeters>
          </Trackpoint>
          <Trackpoint>
            <Time>2018-12-30T09:50:38.000Z</Time>
            <Position>
              <LatitudeDegrees>40.75877434574067592620849609375</LatitudeDegrees>
              <LongitudeDegrees>-4.07771869562566280364990234375</LongitudeDegrees>
            </Position>
            <AltitudeMeters>1339.800048828125</AltitudeMeters>
            <DistanceMeters>3812.1929188283</DistanceMeters>
          </Trackpoint>
          <Trackpoint>
            <Time>2018-12-30T09:50:39.000Z</Time>
            <Position>
              <LatitudeDegrees>40.7587699033319950103759765625</LatitudeDegrees>
              <LongitudeDegrees>-4.07770763151347637176513671875</LongitudeDegrees>
            </Position>
            <AltitudeMeters>1340</AltitudeMeters>
            <DistanceMeters>3813.2468160731</DistanceMeters>
          </Trackpoint>
          <Trackpoint>
            <Time>2018-12-30T09:50:40.000Z</Time>
            <Position>
              <LatitudeDegrees>40.75876428745687007904052734375</LatitudeDegrees>
              <LongitudeDegrees>-4.07769598066806793212890625</LongitudeDegrees>
            </Position>
            <AltitudeMeters>1340</AltitudeMeters>
            <DistanceMeters>3814.4106508838</DistanceMeters>
          </Trackpoint>
          <Trackpoint>
            <Time>2018-12-30T09:50:41.000Z</Time>
            <Position>
              <LatitudeDegrees>40.75876160524785518646240234375</LatitudeDegrees>
              <LongitudeDegrees>-4.0776881016790866851806640625</LongitudeDegrees>
            </Position>
            <AltitudeMeters>1340</AltitudeMeters>
            <DistanceMeters>3815.1405649269</DistanceMeters>
          </Trackpoint>
          <Trackpoint>
            <Time>2018-12-30T09:50:42.000Z</Time>
            <Position>
              <LatitudeDegrees>40.75875372625887393951416015625</LatitudeDegrees>
              <LongitudeDegrees>-4.0776753611862659454345703125</LongitudeDegrees>
            </Position>
            <AltitudeMeters>1339.800048828125</AltitudeMeters>
            <DistanceMeters>3816.530685914</DistanceMeters>
          </Trackpoint>
          <Trackpoint>
            <Time>2018-12-30T09:50:43.000Z</Time>
            <Position>
              <LatitudeDegrees>40.75874827802181243896484375</LatitudeDegrees>
              <LongitudeDegrees>-4.0776626206934452056884765625</LongitudeDegrees>
            </Position>
            <AltitudeMeters>1339.5999755859375</AltitudeMeters>
            <DistanceMeters>3817.7623729045</DistanceMeters>
          </Trackpoint>
          <Trackpoint>
            <Time>2018-12-30T09:50:44.000Z</Time>
            <Position>
              <LatitudeDegrees>40.75874165631830692291259765625</LatitudeDegrees>
              <LongitudeDegrees>-4.07764996401965618133544921875</LongitudeDegrees>
            </Position>
            <AltitudeMeters>1339.4000244140625</AltitudeMeters>
            <DistanceMeters>3819.0548759576</DistanceMeters>
          </Trackpoint>
          <Trackpoint>
            <Time>2018-12-30T09:50:45.000Z</Time>
            <Position>
              <LatitudeDegrees>40.7587350346148014068603515625</LatitudeDegrees>
              <LongitudeDegrees>-4.077635295689105987548828125</LongitudeDegrees>
            </Position>
            <AltitudeMeters>1339.199951171875</AltitudeMeters>
            <DistanceMeters>3820.4928910847</DistanceMeters>
          </Trackpoint>
          <Trackpoint>
            <Time>2018-12-30T09:50:46.000Z</Time>
            <Position>
              <LatitudeDegrees>40.7587313465774059295654296875</LatitudeDegrees>
              <LongitudeDegrees>-4.07762398011982440948486328125</LongitudeDegrees>
            </Position>
            <AltitudeMeters>1339.199951171875</AltitudeMeters>
            <DistanceMeters>3821.5338565852</DistanceMeters>
          </Trackpoint>
          <Trackpoint>
            <Time>2018-12-30T09:50:47.000Z</Time>
            <Position>
              <LatitudeDegrees>40.75872522778809070587158203125</LatitudeDegrees>
              <LongitudeDegrees>-4.077607132494449615478515625</LongitudeDegrees>
            </Position>
            <AltitudeMeters>1339</AltitudeMeters>
            <DistanceMeters>3823.1125589316</DistanceMeters>
          </Trackpoint>
          <Trackpoint>
            <Time>2018-12-30T09:50:48.000Z</Time>
            <Position>
              <LatitudeDegrees>40.7587176002562046051025390625</LatitudeDegrees>
              <LongitudeDegrees>-4.07757972367107868194580078125</LongitudeDegrees>
            </Position>
            <AltitudeMeters>1339</AltitudeMeters>
            <DistanceMeters>3825.5759329126</DistanceMeters>
          </Trackpoint>
          <Trackpoint>
            <Time>2018-12-30T09:50:49.000Z</Time>
            <Position>
              <LatitudeDegrees>40.7587159238755702972412109375</LatitudeDegrees>
              <LongitudeDegrees>-4.07756078056991100311279296875</LongitudeDegrees>
            </Position>
            <AltitudeMeters>1339</AltitudeMeters>
            <DistanceMeters>3827.1829804735</DistanceMeters>
          </Trackpoint>
          <Trackpoint>
            <Time>2018-12-30T09:50:50.000Z</Time>
            <Position>
              <LatitudeDegrees>40.75871818698942661285400390625</LatitudeDegrees>
              <LongitudeDegrees>-4.0775472857058048248291015625</LongitudeDegrees>
            </Position>
            <AltitudeMeters>1339</AltitudeMeters>
            <DistanceMeters>3828.3468152842</DistanceMeters>
          </Trackpoint>
          <Trackpoint>
            <Time>2018-12-30T09:50:51.000Z</Time>
            <Position>
              <LatitudeDegrees>40.75871952809393405914306640625</LatitudeDegrees>
              <LongitudeDegrees>-4.07753479667007923126220703125</LongitudeDegrees>
            </Position>
            <AltitudeMeters>1338.800048828125</AltitudeMeters>
            <DistanceMeters>3829.4092462492</DistanceMeters>
          </Trackpoint>
          <Trackpoint>
            <Time>2018-12-30T09:50:52.000Z</Time>
            <Position>
              <LatitudeDegrees>40.75871600769460201263427734375</LatitudeDegrees>
              <LongitudeDegrees>-4.07752222381532192230224609375</LongitudeDegrees>
            </Position>
            <AltitudeMeters>1338.800048828125</AltitudeMeters>
            <DistanceMeters>3830.54162024</DistanceMeters>
          </Trackpoint>
          <Trackpoint>
            <Time>2018-12-30T09:50:53.000Z</Time>
            <Position>
              <LatitudeDegrees>40.7587095536291599273681640625</LatitudeDegrees>
              <LongitudeDegrees>-4.0774969942867755889892578125</LongitudeDegrees>
            </Position>
            <AltitudeMeters>1339</AltitudeMeters>
            <DistanceMeters>3832.7863435316</DistanceMeters>
          </Trackpoint>
          <Trackpoint>
            <Time>2018-12-30T09:50:54.000Z</Time>
            <Position>
              <LatitudeDegrees>40.75870829634368419647216796875</LatitudeDegrees>
              <LongitudeDegrees>-4.07747696153819561004638671875</LongitudeDegrees>
            </Position>
            <AltitudeMeters>1339</AltitudeMeters>
            <DistanceMeters>3834.4809125946</DistanceMeters>
          </Trackpoint>
          <Trackpoint>
            <Time>2018-12-30T09:50:55.000Z</Time>
            <Position>
              <LatitudeDegrees>40.7587108947336673736572265625</LatitudeDegrees>
              <LongitudeDegrees>-4.0774705074727535247802734375</LongitudeDegrees>
            </Position>
            <AltitudeMeters>1339</AltitudeMeters>
            <DistanceMeters>3835.0967560898</DistanceMeters>
          </Trackpoint>
          <Trackpoint>
            <Time>2018-12-30T09:50:56.000Z</Time>
            <Position>
              <LatitudeDegrees>40.75870326720178127288818359375</LatitudeDegrees>
              <LongitudeDegrees>-4.07746036536991596221923828125</LongitudeDegrees>
            </Position>
            <AltitudeMeters>1339</AltitudeMeters>
            <DistanceMeters>3836.2987595137</DistanceMeters>
          </Trackpoint>
          <Trackpoint>
            <Time>2018-12-30T09:50:57.000Z</Time>
            <Position>
              <LatitudeDegrees>40.75870594941079616546630859375</LatitudeDegrees>
              <LongitudeDegrees>-4.077442176640033721923828125</LongitudeDegrees>
            </Position>
            <AltitudeMeters>1338.800048828125</AltitudeMeters>
            <DistanceMeters>3837.8602077645</DistanceMeters>
          </Trackpoint>
          <Trackpoint>
            <Time>2018-12-30T09:50:58.000Z</Time>
            <Position>
              <LatitudeDegrees>40.7587095536291599273681640625</LatitudeDegrees>
              <LongitudeDegrees>-4.07742884941399097442626953125</LongitudeDegrees>
            </Position>
            <AltitudeMeters>1338.5999755859375</AltitudeMeters>
            <DistanceMeters>3839.0546750425</DistanceMeters>
          </Trackpoint>
          <Trackpoint>
            <Time>2018-12-30T09:50:59.000Z</Time>
            <Position>
              <LatitudeDegrees>40.75870938599109649658203125</LatitudeDegrees>
              <LongitudeDegrees>-4.07741568982601165771484375</LongitudeDegrees>
            </Position>
            <AltitudeMeters>1338.5999755859375</AltitudeMeters>
            <DistanceMeters>3840.1709861771</DistanceMeters>
          </Trackpoint>
          <Trackpoint>
            <Time>2018-12-30T09:51:00.000Z</Time>
            <Position>
              <LatitudeDegrees>40.75871072709560394287109375</LatitudeDegrees>
              <LongitudeDegrees>-4.07740822993218898773193359375</LongitudeDegrees>
            </Position>
            <AltitudeMeters>1338.5999755859375</AltitudeMeters>
            <DistanceMeters>3840.8154887112</DistanceMeters>
          </Trackpoint>
          <Trackpoint>
            <Time>2018-12-30T09:51:01.000Z</Time>
            <Position>
              <LatitudeDegrees>40.7587082125246524810791015625</LatitudeDegrees>
              <LongitudeDegrees>-4.0774000994861125946044921875</LongitudeDegrees>
            </Position>
            <AltitudeMeters>1338.5999755859375</AltitudeMeters>
            <DistanceMeters>3841.5515624756</DistanceMeters>
          </Trackpoint>
          <Trackpoint>
            <Time>2018-12-30T09:51:02.000Z</Time>
            <Position>
              <LatitudeDegrees>40.758701674640178680419921875</LatitudeDegrees>
              <LongitudeDegrees>-4.0773816592991352081298828125</LongitudeDegrees>
            </Position>
            <AltitudeMeters>1338.800048828125</AltitudeMeters>
            <DistanceMeters>3843.2673144742</DistanceMeters>
          </Trackpoint>
          <Trackpoint>
            <Time>2018-12-30T09:51:03.000Z</Time>
            <Position>
              <LatitudeDegrees>40.75869890861213207244873046875</LatitudeDegrees>
              <LongitudeDegrees>-4.0773652307689189910888671875</LongitudeDegrees>
            </Position>
            <AltitudeMeters>1338.800048828125</AltitudeMeters>
            <DistanceMeters>3844.6863659345</DistanceMeters>
          </Trackpoint>
          <Trackpoint>
            <Time>2018-12-30T09:51:04.000Z</Time>
            <Position>
              <LatitudeDegrees>40.7587025128304958343505859375</LatitudeDegrees>
              <LongitudeDegrees>-4.0773762948811054229736328125</LongitudeDegrees>
            </Position>
            <AltitudeMeters>1338.800048828125</AltitudeMeters>
            <DistanceMeters>3845.7009735998</DistanceMeters>
          </Trackpoint>
          <Trackpoint>
            <Time>2018-12-30T09:51:05.000Z</Time>
            <Position>
              <LatitudeDegrees>40.7587035186588764190673828125</LatitudeDegrees>
              <LongitudeDegrees>-4.077368415892124176025390625</LongitudeDegrees>
            </Position>
            <AltitudeMeters>1338.800048828125</AltitudeMeters>
            <DistanceMeters>3846.3729139411</DistanceMeters>
          </Trackpoint>
          <Trackpoint>
            <Time>2018-12-30T09:51:06.000Z</Time>
            <Position>
              <LatitudeDegrees>40.75870402157306671142578125</LatitudeDegrees>
              <LongitudeDegrees>-4.077365063130855560302734375</LongitudeDegrees>
            </Position>
            <AltitudeMeters>1338.5999755859375</AltitudeMeters>
            <DistanceMeters>3846.6579940842</DistanceMeters>
          </Trackpoint>
          <Trackpoint>
            <Time>2018-12-30T09:51:07.000Z</Time>
            <Position>
              <LatitudeDegrees>40.75870259664952754974365234375</LatitudeDegrees>
              <LongitudeDegrees>-4.077362380921840667724609375</LongitudeDegrees>
            </Position>
            <AltitudeMeters>1338.5999755859375</AltitudeMeters>
            <DistanceMeters>3846.9430742273</DistanceMeters>
          </Trackpoint>
          <Trackpoint>
            <Time>2018-12-30T09:51:08.000Z</Time>
            <Position>
              <LatitudeDegrees>40.75869840569794178009033203125</LatitudeDegrees>
              <LongitudeDegrees>-4.0773506462574005126953125</LongitudeDegrees>
            </Position>
            <AltitudeMeters>1338.5999755859375</AltitudeMeters>
            <DistanceMeters>3848.0348480549</DistanceMeters>
          </Trackpoint>
          <Trackpoint>
            <Time>2018-12-30T09:51:09.000Z</Time>
            <Position>
              <LatitudeDegrees>40.75869589112699031829833984375</LatitudeDegrees>
              <LongitudeDegrees>-4.0773360617458820343017578125</LongitudeDegrees>
            </Position>
            <AltitudeMeters>1338.5999755859375</AltitudeMeters>
            <DistanceMeters>3849.2955198814</DistanceMeters>
          </Trackpoint>
          <Trackpoint>
            <Time>2018-12-30T09:51:10.000Z</Time>
            <Position>
              <LatitudeDegrees>40.75869572348892688751220703125</LatitudeDegrees>
              <LongitudeDegrees>-4.0773186273872852325439453125</LongitudeDegrees>
            </Position>
            <AltitudeMeters>1338.800048828125</AltitudeMeters>
            <DistanceMeters>3850.7615206296</DistanceMeters>
          </Trackpoint>
          <Trackpoint>
            <Time>2018-12-30T09:51:11.000Z</Time>
            <Position>
              <LatitudeDegrees>40.7586958073079586029052734375</LatitudeDegrees>
              <LongitudeDegrees>-4.077303372323513031005859375</LongitudeDegrees>
            </Position>
            <AltitudeMeters>1338.800048828125</AltitudeMeters>
            <DistanceMeters>3852.0435010946</DistanceMeters>
          </Trackpoint>
          <Trackpoint>
            <Time>2018-12-30T09:51:12.000Z</Time>
            <Position>
              <LatitudeDegrees>40.75869488529860973358154296875</LatitudeDegrees>
              <LongitudeDegrees>-4.07728853635489940643310546875</LongitudeDegrees>
            </Position>
            <AltitudeMeters>1339</AltitudeMeters>
            <DistanceMeters>3853.2969895474</DistanceMeters>
          </Trackpoint>
          <Trackpoint>
            <Time>2018-12-30T09:51:13.000Z</Time>
            <Position>
              <LatitudeDegrees>40.75869421474635601043701171875</LatitudeDegrees>
              <LongitudeDegrees>-4.07727361656725406646728515625</LongitudeDegrees>
            </Position>
            <AltitudeMeters>1339.199951171875</AltitudeMeters>
            <DistanceMeters>3854.5540748181</DistanceMeters>
          </Trackpoint>
          <Trackpoint>
            <Time>2018-12-30T09:51:14.000Z</Time>
            <Position>
              <LatitudeDegrees>40.75869170017540454864501953125</LatitudeDegrees>
              <LongitudeDegrees>-4.07726003788411617279052734375</LongitudeDegrees>
            </Position>
            <AltitudeMeters>1339.199951171875</AltitudeMeters>
            <DistanceMeters>3855.7294903599</DistanceMeters>
          </Trackpoint>
          <Trackpoint>
            <Time>2018-12-30T09:51:15.000Z</Time>
            <Position>
              <LatitudeDegrees>40.75869220308959484100341796875</LatitudeDegrees>
              <LongitudeDegrees>-4.07724578864872455596923828125</LongitudeDegrees>
            </Position>
            <AltitudeMeters>1339.4000244140625</AltitudeMeters>
            <DistanceMeters>3856.9314937838</DistanceMeters>
          </Trackpoint>
          <Trackpoint>
            <Time>2018-12-30T09:51:16.000Z</Time>
            <Position>
              <LatitudeDegrees>40.75869907625019550323486328125</LatitudeDegrees>
              <LongitudeDegrees>-4.07722852192819118499755859375</LongitudeDegrees>
            </Position>
            <AltitudeMeters>1339.4000244140625</AltitudeMeters>
            <DistanceMeters>3858.5774047574</DistanceMeters>
          </Trackpoint>
          <Trackpoint>
            <Time>2018-12-30T09:51:17.000Z</Time>
            <Position>
              <LatitudeDegrees>40.758707039058208465576171875</LatitudeDegrees>
              <LongitudeDegrees>-4.077213518321514129638671875</LongitudeDegrees>
            </Position>
            <AltitudeMeters>1339.4000244140625</AltitudeMeters>
            <DistanceMeters>3860.1214061114</DistanceMeters>
          </Trackpoint>
          <Trackpoint>
            <Time>2018-12-30T09:51:18.000Z</Time>
            <Position>
              <LatitudeDegrees>40.75871114619076251983642578125</LatitudeDegrees>
              <LongitudeDegrees>-4.0772029571235179901123046875</LongitudeDegrees>
            </Position>
            <AltitudeMeters>1339.4000244140625</AltitudeMeters>
            <DistanceMeters>3861.1225746713</DistanceMeters>
          </Trackpoint>
          <Trackpoint>
            <Time>2018-12-30T09:51:19.000Z</Time>
            <Position>
              <LatitudeDegrees>40.7587129063904285430908203125</LatitudeDegrees>
              <LongitudeDegrees>-4.07718845643103122711181640625</LongitudeDegrees>
            </Position>
            <AltitudeMeters>1339.4000244140625</AltitudeMeters>
            <DistanceMeters>3862.3615714411</DistanceMeters>
          </Trackpoint>
          <Trackpoint>
            <Time>2018-12-30T09:51:20.000Z</Time>
            <Position>
              <LatitudeDegrees>40.75871718116104602813720703125</LatitudeDegrees>
              <LongitudeDegrees>-4.07717403955757617950439453125</LongitudeDegrees>
            </Position>
            <AltitudeMeters>1339.199951171875</AltitudeMeters>
            <DistanceMeters>3863.667972776</DistanceMeters>
          </Trackpoint>
          <Trackpoint>
            <Time>2018-12-30T09:51:21.000Z</Time>
            <Position>
              <LatitudeDegrees>40.7587186060845851898193359375</LatitudeDegrees>
              <LongitudeDegrees>-4.0771697647869586944580078125</LongitudeDegrees>
            </Position>
            <AltitudeMeters>1339.199951171875</AltitudeMeters>
            <DistanceMeters>3864.0711369807</DistanceMeters>
          </Trackpoint>
          <Trackpoint>
            <Time>2018-12-30T09:51:22.000Z</Time>
            <Position>
              <LatitudeDegrees>40.75872480869293212890625</LatitudeDegrees>
              <LongitudeDegrees>-4.0771610476076602935791015625</LongitudeDegrees>
            </Position>
            <AltitudeMeters>1339.199951171875</AltitudeMeters>
            <DistanceMeters>3865.0812848106</DistanceMeters>
          </Trackpoint>
          <Trackpoint>
            <Time>2018-12-30T09:51:23.000Z</Time>
            <Position>
              <LatitudeDegrees>40.758732520043849945068359375</LatitudeDegrees>
              <LongitudeDegrees>-4.07714704982936382293701171875</LongitudeDegrees>
            </Position>
            <AltitudeMeters>1339</AltitudeMeters>
            <DistanceMeters>3866.5411128966</DistanceMeters>
          </Trackpoint>
          <Trackpoint>
            <Time>2018-12-30T09:51:24.000Z</Time>
            <Position>
              <LatitudeDegrees>40.7587444223463535308837890625</LatitudeDegrees>
              <LongitudeDegrees>-4.07713045366108417510986328125</LongitudeDegrees>
            </Position>
            <AltitudeMeters>1339</AltitudeMeters>
            <DistanceMeters>3868.4676022993</DistanceMeters>
          </Trackpoint>
          <Trackpoint>
            <Time>2018-12-30T09:51:25.000Z</Time>
            <Position>
              <LatitudeDegrees>40.7587494514882564544677734375</LatitudeDegrees>
              <LongitudeDegrees>-4.07711721025407314300537109375</LongitudeDegrees>
            </Position>
            <AltitudeMeters>1338.800048828125</AltitudeMeters>
            <DistanceMeters>3869.7174835835</DistanceMeters>
          </Trackpoint>
          <Trackpoint>
            <Time>2018-12-30T09:51:26.000Z</Time>
            <Position>
              <LatitudeDegrees>40.75875498354434967041015625</LatitudeDegrees>
              <LongitudeDegrees>-4.07710832543671131134033203125</LongitudeDegrees>
            </Position>
            <AltitudeMeters>1338.800048828125</AltitudeMeters>
            <DistanceMeters>3870.6865697253</DistanceMeters>
          </Trackpoint>
          <Trackpoint>
            <Time>2018-12-30T09:51:27.000Z</Time>
            <Position>
              <LatitudeDegrees>40.7587642036378383636474609375</LatitudeDegrees>
              <LongitudeDegrees>-4.07709390856325626373291015625</LongitudeDegrees>
            </Position>
            <AltitudeMeters>1338.800048828125</AltitudeMeters>
            <DistanceMeters>3872.2823396201</DistanceMeters>
          </Trackpoint>
          <Trackpoint>
            <Time>2018-12-30T09:51:28.000Z</Time>
            <Position>
              <LatitudeDegrees>40.758774094283580780029296875</LatitudeDegrees>
              <LongitudeDegrees>-4.07708435319364070892333984375</LongitudeDegrees>
            </Position>
            <AltitudeMeters>1338.800048828125</AltitudeMeters>
            <DistanceMeters>3873.6462295524</DistanceMeters>
          </Trackpoint>
          <Trackpoint>
            <Time>2018-12-30T09:51:29.000Z</Time>
            <Position>
              <LatitudeDegrees>40.758782811462879180908203125</LatitudeDegrees>
              <LongitudeDegrees>-4.07707714475691318511962890625</LongitudeDegrees>
            </Position>
            <AltitudeMeters>1338.800048828125</AltitudeMeters>
            <DistanceMeters>3874.790502721</DistanceMeters>
          </Trackpoint>
          <Trackpoint>
            <Time>2018-12-30T09:51:30.000Z</Time>
            <Position>
              <LatitudeDegrees>40.758789516985416412353515625</LatitudeDegrees>
              <LongitudeDegrees>-4.077063985168933868408203125</LongitudeDegrees>
            </Position>
            <AltitudeMeters>1338.800048828125</AltitudeMeters>
            <DistanceMeters>3876.1276471171</DistanceMeters>
          </Trackpoint>
          <Trackpoint>
            <Time>2018-12-30T09:51:31.000Z</Time>
            <Position>
              <LatitudeDegrees>40.7587994076311588287353515625</LatitudeDegrees>
              <LongitudeDegrees>-4.07705183140933513641357421875</LongitudeDegrees>
            </Position>
            <AltitudeMeters>1338.800048828125</AltitudeMeters>
            <DistanceMeters>3877.6301513969</DistanceMeters>
          </Trackpoint>
          <Trackpoint>
            <Time>2018-12-30T09:51:32.000Z</Time>
            <Position>
              <LatitudeDegrees>40.75880820862948894500732421875</LatitudeDegrees>
              <LongitudeDegrees>-4.0770386718213558197021484375</LongitudeDegrees>
            </Position>
            <AltitudeMeters>1338.5999755859375</AltitudeMeters>
            <DistanceMeters>3879.1084201477</DistanceMeters>
          </Trackpoint>
          <Trackpoint>
            <Time>2018-12-30T09:51:33.000Z</Time>
            <Position>
              <LatitudeDegrees>40.7588191889226436614990234375</LatitudeDegrees>
              <LongitudeDegrees>-4.07702132128179073333740234375</LongitudeDegrees>
            </Position>
            <AltitudeMeters>1338.5999755859375</AltitudeMeters>
            <DistanceMeters>3881.0136998464</DistanceMeters>
          </Trackpoint>
          <Trackpoint>
            <Time>2018-12-30T09:51:34.000Z</Time>
            <Position>
              <LatitudeDegrees>40.75883536599576473236083984375</LatitudeDegrees>
              <LongitudeDegrees>-4.0770048089325428009033203125</LongitudeDegrees>
            </Position>
            <AltitudeMeters>1338.5999755859375</AltitudeMeters>
            <DistanceMeters>3883.2903781019</DistanceMeters>
          </Trackpoint>
          <Trackpoint>
            <Time>2018-12-30T09:51:35.000Z</Time>
            <Position>
              <LatitudeDegrees>40.7588543929159641265869140625</LatitudeDegrees>
              <LongitudeDegrees>-4.07699047587811946868896484375</LongitudeDegrees>
            </Position>
            <AltitudeMeters>1338.5999755859375</AltitudeMeters>
            <DistanceMeters>3885.7298084404</DistanceMeters>
          </Trackpoint>
          <Trackpoint>
            <Time>2018-12-30T09:51:36.000Z</Time>
            <Position>
              <LatitudeDegrees>40.75886704958975315093994140625</LatitudeDegrees>
              <LongitudeDegrees>-4.076974801719188690185546875</LongitudeDegrees>
            </Position>
            <AltitudeMeters>1338.4000244140625</AltitudeMeters>
            <DistanceMeters>3887.6609794767</DistanceMeters>
          </Trackpoint>
          <Trackpoint>
            <Time>2018-12-30T09:51:37.000Z</Time>
            <Position>
              <LatitudeDegrees>40.7588815502822399139404296875</LatitudeDegrees>
              <LongitudeDegrees>-4.0769582055509090423583984375</LongitudeDegrees>
            </Position>
            <AltitudeMeters>1338.4000244140625</AltitudeMeters>
            <DistanceMeters>3889.7985525586</DistanceMeters>
          </Trackpoint>
          <Trackpoint>
            <Time>2018-12-30T09:51:38.000Z</Time>
            <Position>
              <LatitudeDegrees>40.758885405957698822021484375</LatitudeDegrees>
              <LongitudeDegrees>-4.0769461356103420257568359375</LongitudeDegrees>
            </Position>
            <AltitudeMeters>1338.5999755859375</AltitudeMeters>
            <DistanceMeters>3890.9067449591</DistanceMeters>
          </Trackpoint>
          <Trackpoint>
            <Time>2018-12-30T09:51:39.000Z</Time>
            <Position>
              <LatitudeDegrees>40.75889370404183864593505859375</LatitudeDegrees>
              <LongitudeDegrees>-4.0769255161285400390625</LongitudeDegrees>
            </Position>
            <AltitudeMeters>1338.5999755859375</AltitudeMeters>
            <DistanceMeters>3892.8726729125</DistanceMeters>
          </Trackpoint>
          <Trackpoint>
            <Time>2018-12-30T09:51:40.000Z</Time>
            <Position>
              <LatitudeDegrees>40.758911557495594024658203125</LatitudeDegrees>
              <LongitudeDegrees>-4.07691939733922481536865234375</LongitudeDegrees>
            </Position>
            <AltitudeMeters>1339</AltitudeMeters>
            <DistanceMeters>3894.9284150597</DistanceMeters>
          </Trackpoint>
          <Trackpoint>
            <Time>2018-12-30T09:51:41.000Z</Time>
            <Position>
              <LatitudeDegrees>40.75892102904617786407470703125</LatitudeDegrees>
              <LongitudeDegrees>-4.0769082494080066680908203125</LongitudeDegrees>
            </Position>
            <AltitudeMeters>1339.199951171875</AltitudeMeters>
            <DistanceMeters>3896.3378890104</DistanceMeters>
          </Trackpoint>
          <Trackpoint>
            <Time>2018-12-30T09:51:42.000Z</Time>
            <Position>
              <LatitudeDegrees>40.7589264772832393646240234375</LatitudeDegrees>
              <LongitudeDegrees>-4.07689274288713932037353515625</LongitudeDegrees>
            </Position>
            <AltitudeMeters>1339.4000244140625</AltitudeMeters>
            <DistanceMeters>3897.7790404882</DistanceMeters>
          </Trackpoint>
          <Trackpoint>
            <Time>2018-12-30T09:51:43.000Z</Time>
            <Position>
              <LatitudeDegrees>40.75893737375736236572265625</LatitudeDegrees>
              <LongitudeDegrees>-4.0768800862133502960205078125</LongitudeDegrees>
            </Position>
            <AltitudeMeters>1339.5999755859375</AltitudeMeters>
            <DistanceMeters>3899.3916973072</DistanceMeters>
          </Trackpoint>
          <Trackpoint>
            <Time>2018-12-30T09:51:44.000Z</Time>
            <Position>
              <LatitudeDegrees>40.7589522935450077056884765625</LatitudeDegrees>
              <LongitudeDegrees>-4.07687614671885967254638671875</LongitudeDegrees>
            </Position>
            <AltitudeMeters>1339.800048828125</AltitudeMeters>
            <DistanceMeters>3901.0862663702</DistanceMeters>
          </Trackpoint>
          <Trackpoint>
            <Time>2018-12-30T09:51:45.000Z</Time>
            <Position>
              <LatitudeDegrees>40.7589653693139553070068359375</LatitudeDegrees>
              <LongitudeDegrees>-4.0768774040043354034423828125</LongitudeDegrees>
            </Position>
            <AltitudeMeters>1340</AltitudeMeters>
            <DistanceMeters>3902.5460944562</DistanceMeters>
          </Trackpoint>
          <Trackpoint>
            <Time>2018-12-30T09:51:46.000Z</Time>
            <Position>
              <LatitudeDegrees>40.7589747570455074310302734375</LatitudeDegrees>
              <LongitudeDegrees>-4.07688067294657230377197265625</LongitudeDegrees>
            </Position>
            <AltitudeMeters>1340</AltitudeMeters>
            <DistanceMeters>3903.6295657008</DistanceMeters>
          </Trackpoint>
          <Trackpoint>
            <Time>2018-12-30T09:51:47.000Z</Time>
            <Position>
              <LatitudeDegrees>40.75898406095802783966064453125</LatitudeDegrees>
              <LongitudeDegrees>-4.07688318751752376556396484375</LongitudeDegrees>
            </Position>
            <AltitudeMeters>1340.199951171875</AltitudeMeters>
            <DistanceMeters>3904.6877384083</DistanceMeters>
          </Trackpoint>
          <Trackpoint>
            <Time>2018-12-30T09:51:48.000Z</Time>
            <Position>
              <LatitudeDegrees>40.75899302959442138671875</LatitudeDegrees>
              <LongitudeDegrees>-4.0768810920417308807373046875</LongitudeDegrees>
            </Position>
            <AltitudeMeters>1340.4000244140625</AltitudeMeters>
            <DistanceMeters>3905.7023460737</DistanceMeters>
          </Trackpoint>
          <Trackpoint>
            <Time>2018-12-30T09:51:49.000Z</Time>
            <Position>
              <LatitudeDegrees>40.759011469781398773193359375</LatitudeDegrees>
              <LongitudeDegrees>-4.07687815837562084197998046875</LongitudeDegrees>
            </Position>
            <AltitudeMeters>1340.4000244140625</AltitudeMeters>
            <DistanceMeters>3907.7690405741</DistanceMeters>
          </Trackpoint>
          <Trackpoint>
            <Time>2018-12-30T09:51:50.000Z</Time>
            <Position>
              <LatitudeDegrees>40.7590347714722156524658203125</LatitudeDegrees>
              <LongitudeDegrees>-4.0768730454146862030029296875</LongitudeDegrees>
            </Position>
            <AltitudeMeters>1340.5999755859375</AltitudeMeters>
            <DistanceMeters>3910.3990669154</DistanceMeters>
          </Trackpoint>
          <Trackpoint>
            <Time>2018-12-30T09:51:51.000Z</Time>
            <Position>
              <LatitudeDegrees>40.75905002653598785400390625</LatitudeDegrees>
              <LongitudeDegrees>-4.07686650753021240234375</LongitudeDegrees>
            </Position>
            <AltitudeMeters>1340.800048828125</AltitudeMeters>
            <DistanceMeters>3912.1869838769</DistanceMeters>
          </Trackpoint>
          <Trackpoint>
            <Time>2018-12-30T09:51:52.000Z</Time>
            <Position>
              <LatitudeDegrees>40.75906452722847461700439453125</LatitudeDegrees>
              <LongitudeDegrees>-4.07686072401702404022216796875</LongitudeDegrees>
            </Position>
            <AltitudeMeters>1340.800048828125</AltitudeMeters>
            <DistanceMeters>3913.8708615457</DistanceMeters>
          </Trackpoint>
          <Trackpoint>
            <Time>2018-12-30T09:51:53.000Z</Time>
            <Position>
              <LatitudeDegrees>40.75908397324383258819580078125</LatitudeDegrees>
              <LongitudeDegrees>-4.07685779035091400146484375</LongitudeDegrees>
            </Position>
            <AltitudeMeters>1341</AltitudeMeters>
            <DistanceMeters>3916.0502697703</DistanceMeters>
          </Trackpoint>
          <Trackpoint>
            <Time>2018-12-30T09:51:54.000Z</Time>
            <Position>
              <LatitudeDegrees>40.7591038383543491363525390625</LatitudeDegrees>
              <LongitudeDegrees>-4.07685167156159877777099609375</LongitudeDegrees>
            </Position>
            <AltitudeMeters>1341</AltitudeMeters>
            <DistanceMeters>3918.3190014805</DistanceMeters>
          </Trackpoint>
          <Trackpoint>
            <Time>2018-12-30T09:51:55.000Z</Time>
            <Position>
              <LatitudeDegrees>40.75911766849458217620849609375</LatitudeDegrees>
              <LongitudeDegrees>-4.07684144563972949981689453125</LongitudeDegrees>
            </Position>
            <AltitudeMeters>1341</AltitudeMeters>
            <DistanceMeters>3920.0814844724</DistanceMeters>
          </Trackpoint>
          <Trackpoint>
            <Time>2018-12-30T09:51:56.000Z</Time>
            <Position>
              <LatitudeDegrees>40.759124793112277984619140625</LatitudeDegrees>
              <LongitudeDegrees>-4.076831303536891937255859375</LongitudeDegrees>
            </Position>
            <AltitudeMeters>1341</AltitudeMeters>
            <DistanceMeters>3921.2491922882</DistanceMeters>
          </Trackpoint>
          <Trackpoint>
            <Time>2018-12-30T09:51:57.000Z</Time>
            <Position>
              <LatitudeDegrees>40.75913258828222751617431640625</LatitudeDegrees>
              <LongitudeDegrees>-4.07683071680366992950439453125</LongitudeDegrees>
            </Position>
            <AltitudeMeters>1341</AltitudeMeters>
            <DistanceMeters>3922.1201265115</DistanceMeters>
          </Trackpoint>
          <Trackpoint>
            <Time>2018-12-30T09:51:58.000Z</Time>
            <Position>
              <LatitudeDegrees>40.75914247892796993255615234375</LatitudeDegrees>
              <LongitudeDegrees>-4.0768267773091793060302734375</LongitudeDegrees>
            </Position>
            <AltitudeMeters>1341</AltitudeMeters>
            <DistanceMeters>3923.26833867</DistanceMeters>
          </Trackpoint>
          <Trackpoint>
            <Time>2018-12-30T09:51:59.000Z</Time>
            <Position>
              <LatitudeDegrees>40.75915890745818614959716796875</LatitudeDegrees>
              <LongitudeDegrees>-4.0768163837492465972900390625</LongitudeDegrees>
            </Position>
            <AltitudeMeters>1341</AltitudeMeters>
            <DistanceMeters>3925.2953277627</DistanceMeters>
          </Trackpoint>
          <Trackpoint>
            <Time>2018-12-30T09:52:00.000Z</Time>
            <Position>
              <LatitudeDegrees>40.75917399488389492034912109375</LatitudeDegrees>
              <LongitudeDegrees>-4.0768133662641048431396484375</LongitudeDegrees>
            </Position>
            <AltitudeMeters>1341</AltitudeMeters>
            <DistanceMeters>3926.9952173067</DistanceMeters>
          </Trackpoint>
          <Trackpoint>
            <Time>2018-12-30T09:52:01.000Z</Time>
            <Position>
              <LatitudeDegrees>40.7591816224157810211181640625</LatitudeDegrees>
              <LongitudeDegrees>-4.076797775924205780029296875</LongitudeDegrees>
            </Position>
            <AltitudeMeters>1341</AltitudeMeters>
            <DistanceMeters>3928.5624380292</DistanceMeters>
          </Trackpoint>
          <Trackpoint>
            <Time>2018-12-30T09:52:02.000Z</Time>
            <Position>
              <LatitudeDegrees>40.759189166128635406494140625</LatitudeDegrees>
              <LongitudeDegrees>-4.07678796909749507904052734375</LongitudeDegrees>
            </Position>
            <AltitudeMeters>1340.800048828125</AltitudeMeters>
            <DistanceMeters>3929.7416885421</DistanceMeters>
          </Trackpoint>
          <Trackpoint>
            <Time>2018-12-30T09:52:03.000Z</Time>
            <Position>
              <LatitudeDegrees>40.75919763185083866119384765625</LatitudeDegrees>
              <LongitudeDegrees>-4.07677941955626010894775390625</LongitudeDegrees>
            </Position>
            <AltitudeMeters>1340.800048828125</AltitudeMeters>
            <DistanceMeters>3930.9247615952</DistanceMeters>
          </Trackpoint>
          <Trackpoint>
            <Time>2018-12-30T09:52:04.000Z</Time>
            <Position>
              <LatitudeDegrees>40.7592037506401538848876953125</LatitudeDegrees>
              <LongitudeDegrees>-4.07675846479833126068115234375</LongitudeDegrees>
            </Position>
            <AltitudeMeters>1340.800048828125</AltitudeMeters>
            <DistanceMeters>3932.8157693349</DistanceMeters>
          </Trackpoint>
          <Trackpoint>
            <Time>2018-12-30T09:52:05.000Z</Time>
            <Position>
              <LatitudeDegrees>40.75921322219073772430419921875</LatitudeDegrees>
              <LongitudeDegrees>-4.0767349116504192352294921875</LongitudeDegrees>
            </Position>
            <AltitudeMeters>1340.800048828125</AltitudeMeters>
            <DistanceMeters>3935.0645118299</DistanceMeters>
          </Trackpoint>
          <Trackpoint>
            <Time>2018-12-30T09:52:06.000Z</Time>
            <Position>
              <LatitudeDegrees>40.75922411866486072540283203125</LatitudeDegrees>
              <LongitudeDegrees>-4.07672359608113765716552734375</LongitudeDegrees>
            </Position>
            <AltitudeMeters>1340.800048828125</AltitudeMeters>
            <DistanceMeters>3936.6085131839</DistanceMeters>
          </Trackpoint>
          <Trackpoint>
            <Time>2018-12-30T09:52:07.000Z</Time>
            <Position>
              <LatitudeDegrees>40.75924021191895008087158203125</LatitudeDegrees>
              <LongitudeDegrees>-4.0767149627208709716796875</LongitudeDegrees>
            </Position>
            <AltitudeMeters>1340.5999755859375</AltitudeMeters>
            <DistanceMeters>3938.5420207861</DistanceMeters>
          </Trackpoint>
          <Trackpoint>
            <Time>2018-12-30T09:52:08.000Z</Time>
            <Position>
              <LatitudeDegrees>40.7592547126114368438720703125</LatitudeDegrees>
              <LongitudeDegrees>-4.07670934684574604034423828125</LongitudeDegrees>
            </Position>
            <AltitudeMeters>1340.5999755859375</AltitudeMeters>
            <DistanceMeters>3940.2258984549</DistanceMeters>
          </Trackpoint>
          <Trackpoint>
            <Time>2018-12-30T09:52:09.000Z</Time>
            <Position>
              <LatitudeDegrees>40.759262256324291229248046875</LatitudeDegrees>
              <LongitudeDegrees>-4.07670163549482822418212890625</LongitudeDegrees>
            </Position>
            <AltitudeMeters>1340.5999755859375</AltitudeMeters>
            <DistanceMeters>3941.2925706782</DistanceMeters>
          </Trackpoint>
          <Trackpoint>
            <Time>2018-12-30T09:52:10.000Z</Time>
            <Position>
              <LatitudeDegrees>40.75927290134131908416748046875</LatitudeDegrees>
              <LongitudeDegrees>-4.0766873024404048919677734375</LongitudeDegrees>
            </Position>
            <AltitudeMeters>1340.5999755859375</AltitudeMeters>
            <DistanceMeters>3942.9844732264</DistanceMeters>
          </Trackpoint>
          <Trackpoint>
            <Time>2018-12-30T09:52:11.000Z</Time>
            <Position>
              <LatitudeDegrees>40.7592813670635223388671875</LatitudeDegrees>
              <LongitudeDegrees>-4.0766816027462482452392578125</LongitudeDegrees>
            </Position>
            <AltitudeMeters>1340.800048828125</AltitudeMeters>
            <DistanceMeters>3944.042645934</DistanceMeters>
          </Trackpoint>
          <Trackpoint>
            <Time>2018-12-30T09:52:12.000Z</Time>
            <Position>
              <LatitudeDegrees>40.75929435901343822479248046875</LatitudeDegrees>
              <LongitudeDegrees>-4.07667581923305988311767578125</LongitudeDegrees>
            </Position>
            <AltitudeMeters>1340.800048828125</AltitudeMeters>
            <DistanceMeters>3945.5630733639</DistanceMeters>
          </Trackpoint>
          <Trackpoint>
            <Time>2018-12-30T09:52:13.000Z</Time>
            <Position>
              <LatitudeDegrees>40.759310536086559295654296875</LatitudeDegrees>
              <LongitudeDegrees>-4.07667296938598155975341796875</LongitudeDegrees>
            </Position>
            <AltitudeMeters>1340.5999755859375</AltitudeMeters>
            <DistanceMeters>3947.3760675243</DistanceMeters>
          </Trackpoint>
          <Trackpoint>
            <Time>2018-12-30T09:52:14.000Z</Time>
            <Position>
              <LatitudeDegrees>40.7593221031129360198974609375</LatitudeDegrees>
              <LongitudeDegrees>-4.07665972597897052764892578125</LongitudeDegrees>
            </Position>
            <AltitudeMeters>1340.5999755859375</AltitudeMeters>
            <DistanceMeters>3949.0812609488</DistanceMeters>
          </Trackpoint>
          <Trackpoint>
            <Time>2018-12-30T09:52:15.000Z</Time>
            <Position>
              <LatitudeDegrees>40.759332664310932159423828125</LatitudeDegrees>
              <LongitudeDegrees>-4.076650924980640411376953125</LongitudeDegrees>
            </Position>
            <AltitudeMeters>1340.5999755859375</AltitudeMeters>
            <DistanceMeters>3950.471381936</DistanceMeters>
          </Trackpoint>
          <Trackpoint>
            <Time>2018-12-30T09:52:16.000Z</Time>
            <Position>
              <LatitudeDegrees>40.7593425549566745758056640625</LatitudeDegrees>
              <LongitudeDegrees>-4.07665419392287731170654296875</LongitudeDegrees>
            </Position>
            <AltitudeMeters>1340.4000244140625</AltitudeMeters>
            <DistanceMeters>3951.607736164</DistanceMeters>
          </Trackpoint>
          <Trackpoint>
            <Time>2018-12-30T09:52:17.000Z</Time>
            <Position>
              <LatitudeDegrees>40.75935604982078075408935546875</LatitudeDegrees>
              <LongitudeDegrees>-4.07664530910551548004150390625</LongitudeDegrees>
            </Position>
            <AltitudeMeters>1340.4000244140625</AltitudeMeters>
            <DistanceMeters>3953.2862425984</DistanceMeters>
          </Trackpoint>
          <Trackpoint>
            <Time>2018-12-30T09:52:18.000Z</Time>
            <Position>
              <LatitudeDegrees>40.75937264598906040191650390625</LatitudeDegrees>
              <LongitudeDegrees>-4.07664111815392971038818359375</LongitudeDegrees>
            </Position>
            <AltitudeMeters>1340.4000244140625</AltitudeMeters>
            <DistanceMeters>3955.1676755539</DistanceMeters>
          </Trackpoint>
          <Trackpoint>
            <Time>2018-12-30T09:52:19.000Z</Time>
            <Position>
              <LatitudeDegrees>40.75939125381410121917724609375</LatitudeDegrees>
              <LongitudeDegrees>-4.07663793303072452545166015625</LongitudeDegrees>
            </Position>
            <AltitudeMeters>1340.4000244140625</AltitudeMeters>
            <DistanceMeters>3957.2561024553</DistanceMeters>
          </Trackpoint>
          <Trackpoint>
            <Time>2018-12-30T09:52:20.000Z</Time>
            <Position>
              <LatitudeDegrees>40.75940516777336597442626953125</LatitudeDegrees>
              <LongitudeDegrees>-4.0766420401632785797119140625</LongitudeDegrees>
            </Position>
            <AltitudeMeters>1340.4000244140625</AltitudeMeters>
            <DistanceMeters>3958.8405144129</DistanceMeters>
          </Trackpoint>
          <Trackpoint>
            <Time>2018-12-30T09:52:21.000Z</Time>
            <Position>
              <LatitudeDegrees>40.7594206742942333221435546875</LatitudeDegrees>
              <LongitudeDegrees>-4.07664346508681774139404296875</LongitudeDegrees>
            </Position>
            <AltitudeMeters>1340.5999755859375</AltitudeMeters>
            <DistanceMeters>3960.5719835519</DistanceMeters>
          </Trackpoint>
          <Trackpoint>
            <Time>2018-12-30T09:52:22.000Z</Time>
            <Position>
              <LatitudeDegrees>40.759435929358005523681640625</LatitudeDegrees>
              <LongitudeDegrees>-4.0766427107155323028564453125</LongitudeDegrees>
            </Position>
            <AltitudeMeters>1340.800048828125</AltitudeMeters>
            <DistanceMeters>3962.271873096</DistanceMeters>
          </Trackpoint>
          <Trackpoint>
            <Time>2018-12-30T09:52:23.000Z</Time>
            <Position>
              <LatitudeDegrees>40.75944456271827220916748046875</LatitudeDegrees>
              <LongitudeDegrees>-4.07663960941135883331298828125</LongitudeDegrees>
            </Position>
            <AltitudeMeters>1340.800048828125</AltitudeMeters>
            <DistanceMeters>3963.2594196802</DistanceMeters>
          </Trackpoint>
          <Trackpoint>
            <Time>2018-12-30T09:52:24.000Z</Time>
            <Position>
              <LatitudeDegrees>40.75945504009723663330078125</LatitudeDegrees>
              <LongitudeDegrees>-4.07663784921169281005859375</LongitudeDegrees>
            </Position>
            <AltitudeMeters>1341</AltitudeMeters>
            <DistanceMeters>3964.4309876976</DistanceMeters>
          </Trackpoint>
          <Trackpoint>
            <Time>2018-12-30T09:52:25.000Z</Time>
            <Position>
              <LatitudeDegrees>40.7594652660191059112548828125</LatitudeDegrees>
              <LongitudeDegrees>-4.076630137860774993896484375</LongitudeDegrees>
            </Position>
            <AltitudeMeters>1341</AltitudeMeters>
            <DistanceMeters>3965.7408405613</DistanceMeters>
          </Trackpoint>
          <Trackpoint>
            <Time>2018-12-30T09:52:26.000Z</Time>
            <Position>
              <LatitudeDegrees>40.7594798505306243896484375</LatitudeDegrees>
              <LongitudeDegrees>-4.07662033103406429290771484375</LongitudeDegrees>
            </Position>
            <AltitudeMeters>1341</AltitudeMeters>
            <DistanceMeters>3967.5637690106</DistanceMeters>
          </Trackpoint>
          <Trackpoint>
            <Time>2018-12-30T09:52:27.000Z</Time>
            <Position>
              <LatitudeDegrees>40.7594977878034114837646484375</LatitudeDegrees>
              <LongitudeDegrees>-4.076605327427387237548828125</LongitudeDegrees>
            </Position>
            <AltitudeMeters>1341</AltitudeMeters>
            <DistanceMeters>3969.9260956693</DistanceMeters>
          </Trackpoint>
          <Trackpoint>
            <Time>2018-12-30T09:52:28.000Z</Time>
            <Position>
              <LatitudeDegrees>40.759507678449153900146484375</LatitudeDegrees>
              <LongitudeDegrees>-4.07660105265676975250244140625</LongitudeDegrees>
            </Position>
            <AltitudeMeters>1341.199951171875</AltitudeMeters>
            <DistanceMeters>3971.0860445432</DistanceMeters>
          </Trackpoint>
          <Trackpoint>
            <Time>2018-12-30T09:52:29.000Z</Time>
            <Position>
              <LatitudeDegrees>40.7595256157219409942626953125</LatitudeDegrees>
              <LongitudeDegrees>-4.07659283839166164398193359375</LongitudeDegrees>
            </Position>
            <AltitudeMeters>1341.199951171875</AltitudeMeters>
            <DistanceMeters>3973.198118823</DistanceMeters>
          </Trackpoint>
          <Trackpoint>
            <Time>2018-12-30T09:52:30.000Z</Time>
            <Position>
              <LatitudeDegrees>40.7595390267670154571533203125</LatitudeDegrees>
              <LongitudeDegrees>-4.076581187546253204345703125</LongitudeDegrees>
            </Position>
            <AltitudeMeters>1341.199951171875</AltitudeMeters>
            <DistanceMeters>3974.9860357845</DistanceMeters>
          </Trackpoint>
          <Trackpoint>
            <Time>2018-12-30T09:52:31.000Z</Time>
            <Position>
              <LatitudeDegrees>40.7595497556030750274658203125</LatitudeDegrees>
              <LongitudeDegrees>-4.0765783376991748809814453125</LongitudeDegrees>
            </Position>
            <AltitudeMeters>1341.199951171875</AltitudeMeters>
            <DistanceMeters>3976.2066760318</DistanceMeters>
          </Trackpoint>
          <Trackpoint>
            <Time>2018-12-30T09:52:32.000Z</Time>
            <Position>
              <LatitudeDegrees>40.75955939479172229766845703125</LatitudeDegrees>
              <LongitudeDegrees>-4.076573140919208526611328125</LongitudeDegrees>
            </Position>
            <AltitudeMeters>1341.199951171875</AltitudeMeters>
            <DistanceMeters>3977.3666249057</DistanceMeters>
          </Trackpoint>
          <Trackpoint>
            <Time>2018-12-30T09:52:33.000Z</Time>
            <Position>
              <LatitudeDegrees>40.75957247056066989898681640625</LatitudeDegrees>
              <LongitudeDegrees>-4.0765669383108615875244140625</LongitudeDegrees>
            </Position>
            <AltitudeMeters>1341</AltitudeMeters>
            <DistanceMeters>3978.9106262597</DistanceMeters>
          </Trackpoint>
          <Trackpoint>
            <Time>2018-12-30T09:52:34.000Z</Time>
            <Position>
              <LatitudeDegrees>40.75959040783345699310302734375</LatitudeDegrees>
              <LongitudeDegrees>-4.07656048424541950225830078125</LongitudeDegrees>
            </Position>
            <AltitudeMeters>1340.800048828125</AltitudeMeters>
            <DistanceMeters>3980.9795042731</DistanceMeters>
          </Trackpoint>
          <Trackpoint>
            <Time>2018-12-30T09:52:35.000Z</Time>
            <Position>
              <LatitudeDegrees>40.75960515998303890228271484375</LatitudeDegrees>
              <LongitudeDegrees>-4.07655277289450168609619140625</LongitudeDegrees>
            </Position>
            <AltitudeMeters>1340.5999755859375</AltitudeMeters>
            <DistanceMeters>3982.7471033367</DistanceMeters>
          </Trackpoint>
          <Trackpoint>
            <Time>2018-12-30T09:52:36.000Z</Time>
            <Position>
              <LatitudeDegrees>40.7596204988658428192138671875</LatitudeDegrees>
              <LongitudeDegrees>-4.0765417926013469696044921875</LongitudeDegrees>
            </Position>
            <AltitudeMeters>1340.4000244140625</AltitudeMeters>
            <DistanceMeters>3984.6899291018</DistanceMeters>
          </Trackpoint>
          <Trackpoint>
            <Time>2018-12-30T09:52:37.000Z</Time>
            <Position>
              <LatitudeDegrees>40.75963675975799560546875</LatitudeDegrees>
              <LongitudeDegrees>-4.07653818838298320770263671875</LongitudeDegrees>
            </Position>
            <AltitudeMeters>1340.199951171875</AltitudeMeters>
            <DistanceMeters>3986.5276582957</DistanceMeters>
          </Trackpoint>
          <Trackpoint>
            <Time>2018-12-30T09:52:38.000Z</Time>
            <Position>
              <LatitudeDegrees>40.7596461474895477294921875</LatitudeDegrees>
              <LongitudeDegrees>-4.076531566679477691650390625</LongitudeDegrees>
            </Position>
            <AltitudeMeters>1340.199951171875</AltitudeMeters>
            <DistanceMeters>3987.7069088087</DistanceMeters>
          </Trackpoint>
          <Trackpoint>
            <Time>2018-12-30T09:52:39.000Z</Time>
            <Position>
              <LatitudeDegrees>40.75965578667819499969482421875</LatitudeDegrees>
              <LongitudeDegrees>-4.07651924528181552886962890625</LongitudeDegrees>
            </Position>
            <AltitudeMeters>1340.199951171875</AltitudeMeters>
            <DistanceMeters>3989.1973445857</DistanceMeters>
          </Trackpoint>
          <Trackpoint>
            <Time>2018-12-30T09:52:40.000Z</Time>
            <Position>
              <LatitudeDegrees>40.75966970063745975494384765625</LatitudeDegrees>
              <LongitudeDegrees>-4.0765153057873249053955078125</LongitudeDegrees>
            </Position>
            <AltitudeMeters>1340.199951171875</AltitudeMeters>
            <DistanceMeters>3990.7817565433</DistanceMeters>
          </Trackpoint>
          <Trackpoint>
            <Time>2018-12-30T09:52:41.000Z</Time>
            <Position>
              <LatitudeDegrees>40.75968093238770961761474609375</LatitudeDegrees>
              <LongitudeDegrees>-4.076515138149261474609375</LongitudeDegrees>
            </Position>
            <AltitudeMeters>1340.199951171875</AltitudeMeters>
            <DistanceMeters>3992.035244996</DistanceMeters>
          </Trackpoint>
          <Trackpoint>
            <Time>2018-12-30T09:52:42.000Z</Time>
            <Position>
              <LatitudeDegrees>40.75969283469021320343017578125</LatitudeDegrees>
              <LongitudeDegrees>-4.0765166468918323516845703125</LongitudeDegrees>
            </Position>
            <AltitudeMeters>1340.4000244140625</AltitudeMeters>
            <DistanceMeters>3993.3656189972</DistanceMeters>
          </Trackpoint>
          <Trackpoint>
            <Time>2018-12-30T09:52:43.000Z</Time>
            <Position>
              <LatitudeDegrees>40.75970716774463653564453125</LatitudeDegrees>
              <LongitudeDegrees>-4.076514132320880889892578125</LongitudeDegrees>
            </Position>
            <AltitudeMeters>1340.800048828125</AltitudeMeters>
            <DistanceMeters>3994.9726665581</DistanceMeters>
          </Trackpoint>
          <Trackpoint>
            <Time>2018-12-30T09:52:44.000Z</Time>
            <Position>
              <LatitudeDegrees>40.759718231856822967529296875</LatitudeDegrees>
              <LongitudeDegrees>-4.07651471905410289764404296875</LongitudeDegrees>
            </Position>
            <AltitudeMeters>1341.199951171875</AltitudeMeters>
            <DistanceMeters>3996.2043535486</DistanceMeters>
          </Trackpoint>
          <Trackpoint>
            <Time>2018-12-30T09:52:45.000Z</Time>
            <Position>
              <LatitudeDegrees>40.75972887687385082244873046875</LatitudeDegrees>
              <LongitudeDegrees>-4.0765183232724666595458984375</LongitudeDegrees>
            </Position>
            <AltitudeMeters>1341.4000244140625</AltitudeMeters>
            <DistanceMeters>3997.4286871182</DistanceMeters>
          </Trackpoint>
          <Trackpoint>
            <Time>2018-12-30T09:52:46.000Z</Time>
            <Position>
              <LatitudeDegrees>40.75974128209054470062255859375</LatitudeDegrees>
              <LongitudeDegrees>-4.0765196643769741058349609375</LongitudeDegrees>
            </Position>
            <AltitudeMeters>1341.5999755859375</AltitudeMeters>
            <DistanceMeters>3998.8122969643</DistanceMeters>
          </Trackpoint>
          <Trackpoint>
            <Time>2018-12-30T09:52:47.000Z</Time>
            <Position>
              <LatitudeDegrees>40.7597549445927143096923828125</LatitudeDegrees>
              <LongitudeDegrees>-4.0765169821679592132568359375</LongitudeDegrees>
            </Position>
            <AltitudeMeters>1341.5999755859375</AltitudeMeters>
            <DistanceMeters>4000.3504387095</DistanceMeters>
          </Trackpoint>
          <Trackpoint>
            <Time>2018-12-30T09:52:48.000Z</Time>
            <Position>
              <LatitudeDegrees>40.7597760669887065887451171875</LatitudeDegrees>
              <LongitudeDegrees>-4.07651237212121486663818359375</LongitudeDegrees>
            </Position>
            <AltitudeMeters>1341.800048828125</AltitudeMeters>
            <DistanceMeters>4002.7336965812</DistanceMeters>
          </Trackpoint>
          <Trackpoint>
            <Time>2018-12-30T09:52:49.000Z</Time>
            <Position>
              <LatitudeDegrees>40.75978855602443218231201171875</LatitudeDegrees>
              <LongitudeDegrees>-4.07649979926645755767822265625</LongitudeDegrees>
            </Position>
            <AltitudeMeters>1341.800048828125</AltitudeMeters>
            <DistanceMeters>4004.4833239457</DistanceMeters>
          </Trackpoint>
          <Trackpoint>
            <Time>2018-12-30T09:52:50.000Z</Time>
            <Position>
              <LatitudeDegrees>40.7597995363175868988037109375</LatitudeDegrees>
              <LongitudeDegrees>-4.07649275846779346466064453125</LongitudeDegrees>
            </Position>
            <AltitudeMeters>1341.800048828125</AltitudeMeters>
            <DistanceMeters>4005.8405769047</DistanceMeters>
          </Trackpoint>
          <Trackpoint>
            <Time>2018-12-30T09:52:51.000Z</Time>
            <Position>
              <LatitudeDegrees>40.7598099298775196075439453125</LatitudeDegrees>
              <LongitudeDegrees>-4.07648471184074878692626953125</LongitudeDegrees>
            </Position>
            <AltitudeMeters>1342</AltitudeMeters>
            <DistanceMeters>4007.1777213007</DistanceMeters>
          </Trackpoint>
          <Trackpoint>
            <Time>2018-12-30T09:52:52.000Z</Time>
            <Position>
              <LatitudeDegrees>40.7598213292658329010009765625</LatitudeDegrees>
              <LongitudeDegrees>-4.0764770843088626861572265625</LongitudeDegrees>
            </Position>
            <AltitudeMeters>1342</AltitudeMeters>
            <DistanceMeters>4008.5999509318</DistanceMeters>
          </Trackpoint>
          <Trackpoint>
            <Time>2018-12-30T09:52:53.000Z</Time>
            <Position>
              <LatitudeDegrees>40.75983323156833648681640625</LatitudeDegrees>
              <LongitudeDegrees>-4.07647012732923030853271484375</LongitudeDegrees>
            </Position>
            <AltitudeMeters>1341.800048828125</AltitudeMeters>
            <DistanceMeters>4010.047354723</DistanceMeters>
          </Trackpoint>
          <Trackpoint>
            <Time>2018-12-30T09:52:54.000Z</Time>
            <Position>
              <LatitudeDegrees>40.75984756462275981903076171875</LatitudeDegrees>
              <LongitudeDegrees>-4.076464511454105377197265625</LongitudeDegrees>
            </Position>
            <AltitudeMeters>1341.800048828125</AltitudeMeters>
            <DistanceMeters>4011.7096433237</DistanceMeters>
          </Trackpoint>
          <Trackpoint>
            <Time>2018-12-30T09:52:55.000Z</Time>
            <Position>
              <LatitudeDegrees>40.7598572038114070892333984375</LatitudeDegrees>
              <LongitudeDegrees>-4.07645621336996555328369140625</LongitudeDegrees>
            </Position>
            <AltitudeMeters>1341.800048828125</AltitudeMeters>
            <DistanceMeters>4012.9916237888</DistanceMeters>
          </Trackpoint>
          <Trackpoint>
            <Time>2018-12-30T09:52:56.000Z</Time>
            <Position>
              <LatitudeDegrees>40.759870447218418121337890625</LatitudeDegrees>
              <LongitudeDegrees>-4.0764333307743072509765625</LongitudeDegrees>
            </Position>
            <AltitudeMeters>1341.800048828125</AltitudeMeters>
            <DistanceMeters>4015.4180635349</DistanceMeters>
          </Trackpoint>
          <Trackpoint>
            <Time>2018-12-30T09:52:57.000Z</Time>
            <Position>
              <LatitudeDegrees>40.759870447218418121337890625</LatitudeDegrees>
              <LongitudeDegrees>-4.0764333307743072509765625</LongitudeDegrees>
            </Position>
            <AltitudeMeters>1341.5999755859375</AltitudeMeters>
            <DistanceMeters>4015.4180635349</DistanceMeters>
          </Trackpoint>
          <Trackpoint>
            <Time>2018-12-30T09:52:58.000Z</Time>
            <Position>
              <LatitudeDegrees>40.75987975113093852996826171875</LatitudeDegrees>
              <LongitudeDegrees>-4.0764226019382476806640625</LongitudeDegrees>
            </Position>
            <AltitudeMeters>1341.800048828125</AltitudeMeters>
            <DistanceMeters>4016.7951314537</DistanceMeters>
          </Trackpoint>
          <Trackpoint>
            <Time>2018-12-30T09:52:59.000Z</Time>
            <Position>
              <LatitudeDegrees>40.7598867081105709075927734375</LatitudeDegrees>
              <LongitudeDegrees>-4.07641245983541011810302734375</LongitudeDegrees>
            </Position>
            <AltitudeMeters>1341.800048828125</AltitudeMeters>
            <DistanceMeters>4017.9511813288</DistanceMeters>
          </Trackpoint>
          <Trackpoint>
            <Time>2018-12-30T09:53:00.000Z</Time>
            <Position>
              <LatitudeDegrees>40.7598924078047275543212890625</LatitudeDegrees>
              <LongitudeDegrees>-4.07640072517096996307373046875</LongitudeDegrees>
            </Position>
            <AltitudeMeters>1342</AltitudeMeters>
            <DistanceMeters>4019.1265968707</DistanceMeters>
          </Trackpoint>
          <Trackpoint>
            <Time>2018-12-30T09:53:01.000Z</Time>
            <Position>
              <LatitudeDegrees>40.759900622069835662841796875</LatitudeDegrees>
              <LongitudeDegrees>-4.07639150507748126983642578125</LongitudeDegrees>
            </Position>
            <AltitudeMeters>1342</AltitudeMeters>
            <DistanceMeters>4020.3286002945</DistanceMeters>
          </Trackpoint>
          <Trackpoint>
            <Time>2018-12-30T09:53:02.000Z</Time>
            <Position>
              <LatitudeDegrees>40.7599103450775146484375</LatitudeDegrees>
              <LongitudeDegrees>-4.07637256197631359100341796875</LongitudeDegrees>
            </Position>
            <AltitudeMeters>1342.199951171875</AltitudeMeters>
            <DistanceMeters>4022.2574319344</DistanceMeters>
          </Trackpoint>
          <Trackpoint>
            <Time>2018-12-30T09:53:03.000Z</Time>
            <Position>
              <LatitudeDegrees>40.75992199592292308807373046875</LatitudeDegrees>
              <LongitudeDegrees>-4.0763600729405879974365234375</LongitudeDegrees>
            </Position>
            <AltitudeMeters>1342.4000244140625</AltitudeMeters>
            <DistanceMeters>4023.9305498913</DistanceMeters>
          </Trackpoint>
          <Trackpoint>
            <Time>2018-12-30T09:53:04.000Z</Time>
            <Position>
              <LatitudeDegrees>40.75993792153894901275634765625</LatitudeDegrees>
              <LongitudeDegrees>-4.0763533674180507659912109375</LongitudeDegrees>
            </Position>
            <AltitudeMeters>1342.4000244140625</AltitudeMeters>
            <DistanceMeters>4025.7926855884</DistanceMeters>
          </Trackpoint>
          <Trackpoint>
            <Time>2018-12-30T09:53:05.000Z</Time>
            <Position>
              <LatitudeDegrees>40.7599492371082305908203125</LatitudeDegrees>
              <LongitudeDegrees>-4.076341800391674041748046875</LongitudeDegrees>
            </Position>
            <AltitudeMeters>1342.5999755859375</AltitudeMeters>
            <DistanceMeters>4027.3856235912</DistanceMeters>
          </Trackpoint>
          <Trackpoint>
            <Time>2018-12-30T09:53:06.000Z</Time>
            <Position>
              <LatitudeDegrees>40.75995870865881443023681640625</LatitudeDegrees>
              <LongitudeDegrees>-4.07633434049785137176513671875</LongitudeDegrees>
            </Position>
            <AltitudeMeters>1342.800048828125</AltitudeMeters>
            <DistanceMeters>4028.6136393753</DistanceMeters>
          </Trackpoint>
          <Trackpoint>
            <Time>2018-12-30T09:53:07.000Z</Time>
            <Position>
              <LatitudeDegrees>40.759970359504222869873046875</LatitudeDegrees>
              <LongitudeDegrees>-4.07632495276629924774169921875</LongitudeDegrees>
            </Position>
            <AltitudeMeters>1342.800048828125</AltitudeMeters>
            <DistanceMeters>4030.1310943148</DistanceMeters>
          </Trackpoint>
          <Trackpoint>
            <Time>2018-12-30T09:53:08.000Z</Time>
            <Position>
              <LatitudeDegrees>40.7599856145679950714111328125</LatitudeDegrees>
              <LongitudeDegrees>-4.0763188339769840240478515625</LongitudeDegrees>
            </Position>
            <AltitudeMeters>1343</AltitudeMeters>
            <DistanceMeters>4031.903794685</DistanceMeters>
          </Trackpoint>
          <Trackpoint>
            <Time>2018-12-30T09:53:09.000Z</Time>
            <Position>
              <LatitudeDegrees>40.759999193251132965087890625</LatitudeDegrees>
              <LongitudeDegrees>-4.07631556503474712371826171875</LongitudeDegrees>
            </Position>
            <AltitudeMeters>1343</AltitudeMeters>
            <DistanceMeters>4033.4419364302</DistanceMeters>
          </Trackpoint>
          <Trackpoint>
            <Time>2018-12-30T09:53:10.000Z</Time>
            <Position>
              <LatitudeDegrees>40.76001620851457118988037109375</LatitudeDegrees>
              <LongitudeDegrees>-4.07630751840770244598388671875</LongitudeDegrees>
            </Position>
            <AltitudeMeters>1343</AltitudeMeters>
            <DistanceMeters>4035.4532728632</DistanceMeters>
          </Trackpoint>
          <Trackpoint>
            <Time>2018-12-30T09:53:11.000Z</Time>
            <Position>
              <LatitudeDegrees>40.76003230176866054534912109375</LatitudeDegrees>
              <LongitudeDegrees>-4.0763074345886707305908203125</LongitudeDegrees>
            </Position>
            <AltitudeMeters>1343</AltitudeMeters>
            <DistanceMeters>4037.246233324</DistanceMeters>
          </Trackpoint>
          <Trackpoint>
            <Time>2018-12-30T09:53:12.000Z</Time>
            <Position>
              <LatitudeDegrees>40.760042108595371246337890625</LatitudeDegrees>
              <LongitudeDegrees>-4.0763037465512752532958984375</LongitudeDegrees>
            </Position>
            <AltitudeMeters>1343</AltitudeMeters>
            <DistanceMeters>4038.3786073148</DistanceMeters>
          </Trackpoint>
          <Trackpoint>
            <Time>2018-12-30T09:53:13.000Z</Time>
            <Position>
              <LatitudeDegrees>40.760051496326923370361328125</LatitudeDegrees>
              <LongitudeDegrees>-4.07629326917231082916259765625</LongitudeDegrees>
            </Position>
            <AltitudeMeters>1343</AltitudeMeters>
            <DistanceMeters>4039.7491020796</DistanceMeters>
          </Trackpoint>
          <Trackpoint>
            <Time>2018-12-30T09:53:14.000Z</Time>
            <Position>
              <LatitudeDegrees>40.76006214134395122528076171875</LatitudeDegrees>
              <LongitudeDegrees>-4.076284468173980712890625</LongitudeDegrees>
            </Position>
            <AltitudeMeters>1343.199951171875</AltitudeMeters>
            <DistanceMeters>4041.1457038525</DistanceMeters>
          </Trackpoint>
          <Trackpoint>
            <Time>2018-12-30T09:53:15.000Z</Time>
            <Position>
              <LatitudeDegrees>40.76007052324712276458740234375</LatitudeDegrees>
              <LongitudeDegrees>-4.0762765891849994659423828125</LongitudeDegrees>
            </Position>
            <AltitudeMeters>1343.199951171875</AltitudeMeters>
            <DistanceMeters>4042.2939160109</DistanceMeters>
          </Trackpoint>
          <Trackpoint>
            <Time>2018-12-30T09:53:16.000Z</Time>
            <Position>
              <LatitudeDegrees>40.76007706113159656524658203125</LatitudeDegrees>
              <LongitudeDegrees>-4.0762625075876712799072265625</LongitudeDegrees>
            </Position>
            <AltitudeMeters>1343.199951171875</AltitudeMeters>
            <DistanceMeters>4043.6872811588</DistanceMeters>
          </Trackpoint>
          <Trackpoint>
            <Time>2018-12-30T09:53:17.000Z</Time>
            <Position>
              <LatitudeDegrees>40.76008745469152927398681640625</LatitudeDegrees>
              <LongitudeDegrees>-4.07625831663608551025390625</LongitudeDegrees>
            </Position>
            <AltitudeMeters>1343.4000244140625</AltitudeMeters>
            <DistanceMeters>4044.8967737731</DistanceMeters>
          </Trackpoint>
          <Trackpoint>
            <Time>2018-12-30T09:53:18.000Z</Time>
            <Position>
              <LatitudeDegrees>40.76009809970855712890625</LatitudeDegrees>
              <LongitudeDegrees>-4.07625404186546802520751953125</LongitudeDegrees>
            </Position>
            <AltitudeMeters>1343.4000244140625</AltitudeMeters>
            <DistanceMeters>4046.1357705429</DistanceMeters>
          </Trackpoint>
          <Trackpoint>
            <Time>2018-12-30T09:53:19.000Z</Time>
            <Position>
              <LatitudeDegrees>40.76010589487850666046142578125</LatitudeDegrees>
              <LongitudeDegrees>-4.0762430615723133087158203125</LongitudeDegrees>
            </Position>
            <AltitudeMeters>1343.4000244140625</AltitudeMeters>
            <DistanceMeters>4047.4035850431</DistanceMeters>
          </Trackpoint>
          <Trackpoint>
            <Time>2018-12-30T09:53:20.000Z</Time>
            <Position>
              <LatitudeDegrees>40.76011352241039276123046875</LatitudeDegrees>
              <LongitudeDegrees>-4.0762360207736492156982421875</LongitudeDegrees>
            </Position>
            <AltitudeMeters>1343.4000244140625</AltitudeMeters>
            <DistanceMeters>4048.4358393821</DistanceMeters>
          </Trackpoint>
          <Trackpoint>
            <Time>2018-12-30T09:53:21.000Z</Time>
            <Position>
              <LatitudeDegrees>40.76011913828551769256591796875</LatitudeDegrees>
              <LongitudeDegrees>-4.0762296505272388458251953125</LongitudeDegrees>
            </Position>
            <AltitudeMeters>1343.4000244140625</AltitudeMeters>
            <DistanceMeters>4049.2642630718</DistanceMeters>
          </Trackpoint>
          <Trackpoint>
            <Time>2018-12-30T09:53:22.000Z</Time>
            <Position>
              <LatitudeDegrees>40.76012517325580120086669921875</LatitudeDegrees>
              <LongitudeDegrees>-4.07622571103274822235107421875</LongitudeDegrees>
            </Position>
            <AltitudeMeters>1343.5999755859375</AltitudeMeters>
            <DistanceMeters>4050.0185142342</DistanceMeters>
          </Trackpoint>
          <Trackpoint>
            <Time>2018-12-30T09:53:23.000Z</Time>
            <Position>
              <LatitudeDegrees>40.760131962597370147705078125</LatitudeDegrees>
              <LongitudeDegrees>-4.07621732912957668304443359375</LongitudeDegrees>
            </Position>
            <AltitudeMeters>1343.5999755859375</AltitudeMeters>
            <DistanceMeters>4051.0507685732</DistanceMeters>
          </Trackpoint>
          <Trackpoint>
            <Time>2018-12-30T09:53:24.000Z</Time>
            <Position>
              <LatitudeDegrees>40.760139338672161102294921875</LatitudeDegrees>
              <LongitudeDegrees>-4.07621347345411777496337890625</LongitudeDegrees>
            </Position>
            <AltitudeMeters>1343.5999755859375</AltitudeMeters>
            <DistanceMeters>4051.926871591</DistanceMeters>
          </Trackpoint>
          <Trackpoint>
            <Time>2018-12-30T09:53:25.000Z</Time>
            <Position>
              <LatitudeDegrees>40.7601462118327617645263671875</LatitudeDegrees>
              <LongitudeDegrees>-4.07620794139802455902099609375</LongitudeDegrees>
            </Position>
            <AltitudeMeters>1343.5999755859375</AltitudeMeters>
            <DistanceMeters>4052.8183011884</DistanceMeters>
          </Trackpoint>
          <Trackpoint>
            <Time>2018-12-30T09:53:26.000Z</Time>
            <Position>
              <LatitudeDegrees>40.76015467755496501922607421875</LatitudeDegrees>
              <LongitudeDegrees>-4.0762068517506122589111328125</LongitudeDegrees>
            </Position>
            <AltitudeMeters>1343.800048828125</AltitudeMeters>
            <DistanceMeters>4053.7638050582</DistanceMeters>
          </Trackpoint>
          <Trackpoint>
            <Time>2018-12-30T09:53:27.000Z</Time>
            <Position>
              <LatitudeDegrees>40.7601691782474517822265625</LatitudeDegrees>
              <LongitudeDegrees>-4.0762004815042018890380859375</LongitudeDegrees>
            </Position>
            <AltitudeMeters>1343.800048828125</AltitudeMeters>
            <DistanceMeters>4055.4636946023</DistanceMeters>
          </Trackpoint>
          <Trackpoint>
            <Time>2018-12-30T09:53:28.000Z</Time>
            <Position>
              <LatitudeDegrees>40.760184265673160552978515625</LatitudeDegrees>
              <LongitudeDegrees>-4.07619838602840900421142578125</LongitudeDegrees>
            </Position>
            <AltitudeMeters>1344</AltitudeMeters>
            <DistanceMeters>4057.1529264266</DistanceMeters>
          </Trackpoint>
          <Trackpoint>
            <Time>2018-12-30T09:53:29.000Z</Time>
            <Position>
              <LatitudeDegrees>40.76020128093659877777099609375</LatitudeDegrees>
              <LongitudeDegrees>-4.076185561716556549072265625</LongitudeDegrees>
            </Position>
            <AltitudeMeters>1344.4000244140625</AltitudeMeters>
            <DistanceMeters>4059.3344053484</DistanceMeters>
          </Trackpoint>
          <Trackpoint>
            <Time>2018-12-30T09:53:30.000Z</Time>
            <Position>
              <LatitudeDegrees>40.76021050103008747100830078125</LatitudeDegrees>
              <LongitudeDegrees>-4.07617810182273387908935546875</LongitudeDegrees>
            </Position>
            <AltitudeMeters>1344.800048828125</AltitudeMeters>
            <DistanceMeters>4060.5364087723</DistanceMeters>
          </Trackpoint>
          <Trackpoint>
            <Time>2018-12-30T09:53:31.000Z</Time>
            <Position>
              <LatitudeDegrees>40.76022542081773281097412109375</LatitudeDegrees>
              <LongitudeDegrees>-4.07617340795695781707763671875</LongitudeDegrees>
            </Position>
            <AltitudeMeters>1345</AltitudeMeters>
            <DistanceMeters>4062.2442479601</DistanceMeters>
          </Trackpoint>
          <Trackpoint>
            <Time>2018-12-30T09:53:32.000Z</Time>
            <Position>
              <LatitudeDegrees>40.76023346744477748870849609375</LatitudeDegrees>
              <LongitudeDegrees>-4.07616569660604000091552734375</LongitudeDegrees>
            </Position>
            <AltitudeMeters>1345.199951171875</AltitudeMeters>
            <DistanceMeters>4063.3524403605</DistanceMeters>
          </Trackpoint>
          <Trackpoint>
            <Time>2018-12-30T09:53:33.000Z</Time>
            <Position>
              <LatitudeDegrees>40.76024319045245647430419921875</LatitudeDegrees>
              <LongitudeDegrees>-4.07615932635962963104248046875</LongitudeDegrees>
            </Position>
            <AltitudeMeters>1345.4000244140625</AltitudeMeters>
            <DistanceMeters>4064.5544437844</DistanceMeters>
          </Trackpoint>
          <Trackpoint>
            <Time>2018-12-30T09:53:34.000Z</Time>
            <Position>
              <LatitudeDegrees>40.76025056652724742889404296875</LatitudeDegrees>
              <LongitudeDegrees>-4.076148681342601776123046875</LongitudeDegrees>
            </Position>
            <AltitudeMeters>1345.5999755859375</AltitudeMeters>
            <DistanceMeters>4065.7676636574</DistanceMeters>
          </Trackpoint>
          <Trackpoint>
            <Time>2018-12-30T09:53:35.000Z</Time>
            <Position>
              <LatitudeDegrees>40.76025660149753093719482421875</LatitudeDegrees>
              <LongitudeDegrees>-4.07614222727715969085693359375</LongitudeDegrees>
            </Position>
            <AltitudeMeters>1345.800048828125</AltitudeMeters>
            <DistanceMeters>4066.6385978807</DistanceMeters>
          </Trackpoint>
          <Trackpoint>
            <Time>2018-12-30T09:53:36.000Z</Time>
            <Position>
              <LatitudeDegrees>40.760267414152622222900390625</LatitudeDegrees>
              <LongitudeDegrees>-4.07613887451589107513427734375</LongitudeDegrees>
            </Position>
            <AltitudeMeters>1346</AltitudeMeters>
            <DistanceMeters>4067.8775946505</DistanceMeters>
          </Trackpoint>
          <Trackpoint>
            <Time>2018-12-30T09:53:37.000Z</Time>
            <Position>
              <LatitudeDegrees>40.7602769695222377777099609375</LatitudeDegrees>
              <LongitudeDegrees>-4.07613133080303668975830078125</LongitudeDegrees>
            </Position>
            <AltitudeMeters>1346</AltitudeMeters>
            <DistanceMeters>4069.1202301851</DistanceMeters>
          </Trackpoint>
          <Trackpoint>
            <Time>2018-12-30T09:53:38.000Z</Time>
            <Position>
              <LatitudeDegrees>40.76028652489185333251953125</LatitudeDegrees>
              <LongitudeDegrees>-4.0761203505098819732666015625</LongitudeDegrees>
            </Position>
            <AltitudeMeters>1346</AltitudeMeters>
            <DistanceMeters>4070.5297041358</DistanceMeters>
          </Trackpoint>
          <Trackpoint>
            <Time>2018-12-30T09:53:39.000Z</Time>
            <Position>
              <LatitudeDegrees>40.76029482297599315643310546875</LatitudeDegrees>
              <LongitudeDegrees>-4.0761129744350910186767578125</LongitudeDegrees>
            </Position>
            <AltitudeMeters>1346</AltitudeMeters>
            <DistanceMeters>4071.6460152704</DistanceMeters>
          </Trackpoint>
          <Trackpoint>
            <Time>2018-12-30T09:53:40.000Z</Time>
            <Position>
              <LatitudeDegrees>40.76030270196497440338134765625</LatitudeDegrees>
              <LongitudeDegrees>-4.0761032514274120330810546875</LongitudeDegrees>
            </Position>
            <AltitudeMeters>1346</AltitudeMeters>
            <DistanceMeters>4072.8480186943</DistanceMeters>
          </Trackpoint>
          <Trackpoint>
            <Time>2018-12-30T09:53:41.000Z</Time>
            <Position>
              <LatitudeDegrees>40.76031510718166828155517578125</LatitudeDegrees>
              <LongitudeDegrees>-4.07609495334327220916748046875</LongitudeDegrees>
            </Position>
            <AltitudeMeters>1346</AltitudeMeters>
            <DistanceMeters>4074.3978575034</DistanceMeters>
          </Trackpoint>
          <Trackpoint>
            <Time>2018-12-30T09:53:42.000Z</Time>
            <Position>
              <LatitudeDegrees>40.7603269256651401519775390625</LatitudeDegrees>
              <LongitudeDegrees>-4.076081626117229461669921875</LongitudeDegrees>
            </Position>
            <AltitudeMeters>1346.199951171875</AltitudeMeters>
            <DistanceMeters>4076.1293266424</DistanceMeters>
          </Trackpoint>
          <Trackpoint>
            <Time>2018-12-30T09:53:43.000Z</Time>
            <Position>
              <LatitudeDegrees>40.76033606193959712982177734375</LatitudeDegrees>
              <LongitudeDegrees>-4.0760767646133899688720703125</LongitudeDegrees>
            </Position>
            <AltitudeMeters>1346.199951171875</AltitudeMeters>
            <DistanceMeters>4077.22110047</DistanceMeters>
          </Trackpoint>
          <Trackpoint>
            <Time>2018-12-30T09:53:44.000Z</Time>
            <Position>
              <LatitudeDegrees>40.76034846715629100799560546875</LatitudeDegrees>
              <LongitudeDegrees>-4.07606997527182102203369140625</LongitudeDegrees>
            </Position>
            <AltitudeMeters>1346.4000244140625</AltitudeMeters>
            <DistanceMeters>4078.7175826644</DistanceMeters>
          </Trackpoint>
          <Trackpoint>
            <Time>2018-12-30T09:53:45.000Z</Time>
            <Position>
              <LatitudeDegrees>40.760359279811382293701171875</LatitudeDegrees>
              <LongitudeDegrees>-4.07606243155896663665771484375</LongitudeDegrees>
            </Position>
            <AltitudeMeters>1346.5999755859375</AltitudeMeters>
            <DistanceMeters>4080.0814725967</DistanceMeters>
          </Trackpoint>
          <Trackpoint>
            <Time>2018-12-30T09:53:46.000Z</Time>
            <Position>
              <LatitudeDegrees>40.76037512160837650299072265625</LatitudeDegrees>
              <LongitudeDegrees>-4.076053798198699951171875</LongitudeDegrees>
            </Position>
            <AltitudeMeters>1347</AltitudeMeters>
            <DistanceMeters>4081.9914859169</DistanceMeters>
          </Trackpoint>
          <Trackpoint>
            <Time>2018-12-30T09:53:47.000Z</Time>
            <Position>
              <LatitudeDegrees>40.76038585044443607330322265625</LatitudeDegrees>
              <LongitudeDegrees>-4.0760452486574649810791015625</LongitudeDegrees>
            </Position>
            <AltitudeMeters>1347.4000244140625</AltitudeMeters>
            <DistanceMeters>4083.3880876897</DistanceMeters>
          </Trackpoint>
          <Trackpoint>
            <Time>2018-12-30T09:53:48.000Z</Time>
            <Position>
              <LatitudeDegrees>40.76040227897465229034423828125</LatitudeDegrees>
              <LongitudeDegrees>-4.07603912986814975738525390625</LongitudeDegrees>
            </Position>
            <AltitudeMeters>1347.5999755859375</AltitudeMeters>
            <DistanceMeters>4085.2862448226</DistanceMeters>
          </Trackpoint>
          <Trackpoint>
            <Time>2018-12-30T09:53:49.000Z</Time>
            <Position>
              <LatitudeDegrees>40.7604208029806613922119140625</LatitudeDegrees>
              <LongitudeDegrees>-4.0760336816310882568359375</LongitudeDegrees>
            </Position>
            <AltitudeMeters>1347.5999755859375</AltitudeMeters>
            <DistanceMeters>4087.3983191024</DistanceMeters>
          </Trackpoint>
          <Trackpoint>
            <Time>2018-12-30T09:53:50.000Z</Time>
            <Position>
              <LatitudeDegrees>40.7604415901005268096923828125</LatitudeDegrees>
              <LongitudeDegrees>-4.0760278142988681793212890625</LongitudeDegrees>
            </Position>
            <AltitudeMeters>1347.800048828125</AltitudeMeters>
            <DistanceMeters>4089.7625562561</DistanceMeters>
          </Trackpoint>
          <Trackpoint>
            <Time>2018-12-30T09:53:51.000Z</Time>
            <Position>
              <LatitudeDegrees>40.76046028174459934234619140625</LatitudeDegrees>
              <LongitudeDegrees>-4.0760231204330921173095703125</LongitudeDegrees>
            </Position>
            <AltitudeMeters>1347.800048828125</AltitudeMeters>
            <DistanceMeters>4091.8810340097</DistanceMeters>
          </Trackpoint>
          <Trackpoint>
            <Time>2018-12-30T09:53:52.000Z</Time>
            <Position>
              <LatitudeDegrees>40.76047872193157672882080078125</LatitudeDegrees>
              <LongitudeDegrees>-4.0760190971195697784423828125</LongitudeDegrees>
            </Position>
            <AltitudeMeters>1347.800048828125</AltitudeMeters>
            <DistanceMeters>4093.9629650107</DistanceMeters>
          </Trackpoint>
          <Trackpoint>
            <Time>2018-12-30T09:53:53.000Z</Time>
            <Position>
              <LatitudeDegrees>40.76049531809985637664794921875</LatitudeDegrees>
              <LongitudeDegrees>-4.07601733691990375518798828125</LongitudeDegrees>
            </Position>
            <AltitudeMeters>1347.800048828125</AltitudeMeters>
            <DistanceMeters>4095.8153766952</DistanceMeters>
          </Trackpoint>
          <Trackpoint>
            <Time>2018-12-30T09:53:54.000Z</Time>
            <Position>
              <LatitudeDegrees>40.76050872914493083953857421875</LatitudeDegrees>
              <LongitudeDegrees>-4.07600727863609790802001953125</LongitudeDegrees>
            </Position>
            <AltitudeMeters>1347.800048828125</AltitudeMeters>
            <DistanceMeters>4097.5311286938</DistanceMeters>
          </Trackpoint>
          <Trackpoint>
            <Time>2018-12-30T09:53:55.000Z</Time>
            <Position>
              <LatitudeDegrees>40.76052331365644931793212890625</LatitudeDegrees>
              <LongitudeDegrees>-4.07599789090454578399658203125</LongitudeDegrees>
            </Position>
            <AltitudeMeters>1347.800048828125</AltitudeMeters>
            <DistanceMeters>4099.3341338296</DistanceMeters>
          </Trackpoint>
          <Trackpoint>
            <Time>2018-12-30T09:53:56.000Z</Time>
            <Position>
              <LatitudeDegrees>40.76053798198699951171875</LatitudeDegrees>
              <LongitudeDegrees>-4.075992442667484283447265625</LongitudeDegrees>
            </Position>
            <AltitudeMeters>1347.800048828125</AltitudeMeters>
            <DistanceMeters>4101.0340233737</DistanceMeters>
          </Trackpoint>
          <Trackpoint>
            <Time>2018-12-30T09:53:57.000Z</Time>
            <Position>
              <LatitudeDegrees>40.76055147685110569000244140625</LatitudeDegrees>
              <LongitudeDegrees>-4.07599403522908687591552734375</LongitudeDegrees>
            </Position>
            <AltitudeMeters>1347.800048828125</AltitudeMeters>
            <DistanceMeters>4102.5425256985</DistanceMeters>
          </Trackpoint>
          <Trackpoint>
            <Time>2018-12-30T09:53:58.000Z</Time>
            <Position>
              <LatitudeDegrees>40.76056337915360927581787109375</LatitudeDegrees>
              <LongitudeDegrees>-4.0759854018688201904296875</LongitudeDegrees>
            </Position>
            <AltitudeMeters>1347.800048828125</AltitudeMeters>
            <DistanceMeters>4104.0570023133</DistanceMeters>
          </Trackpoint>
          <Trackpoint>
            <Time>2018-12-30T09:53:59.000Z</Time>
            <Position>
              <LatitudeDegrees>40.7605715095996856689453125</LatitudeDegrees>
              <LongitudeDegrees>-4.0759825520217418670654296875</LongitudeDegrees>
            </Position>
            <AltitudeMeters>1348</AltitudeMeters>
            <DistanceMeters>4104.9880701618</DistanceMeters>
          </Trackpoint>
          <Trackpoint>
            <Time>2018-12-30T09:54:00.000Z</Time>
            <Position>
              <LatitudeDegrees>40.76057444326579570770263671875</LatitudeDegrees>
              <LongitudeDegrees>-4.07597358338534832000732421875</LongitudeDegrees>
            </Position>
            <AltitudeMeters>1348</AltitudeMeters>
            <DistanceMeters>4105.8110256487</DistanceMeters>
          </Trackpoint>
          <Trackpoint>
            <Time>2018-12-30T09:54:01.000Z</Time>
            <Position>
              <LatitudeDegrees>40.76058114878833293914794921875</LatitudeDegrees>
              <LongitudeDegrees>-4.07596721313893795013427734375</LongitudeDegrees>
            </Position>
            <AltitudeMeters>1348</AltitudeMeters>
            <DistanceMeters>4106.732343827</DistanceMeters>
          </Trackpoint>
          <Trackpoint>
            <Time>2018-12-30T09:54:02.000Z</Time>
            <Position>
              <LatitudeDegrees>40.76058802194893360137939453125</LatitudeDegrees>
              <LongitudeDegrees>-4.07595765776932239532470703125</LongitudeDegrees>
            </Position>
            <AltitudeMeters>1348.199951171875</AltitudeMeters>
            <DistanceMeters>4107.8405362274</DistanceMeters>
          </Trackpoint>
          <Trackpoint>
            <Time>2018-12-30T09:54:03.000Z</Time>
            <Position>
              <LatitudeDegrees>40.76059590093791484832763671875</LatitudeDegrees>
              <LongitudeDegrees>-4.07595120370388031005859375</LongitudeDegrees>
            </Position>
            <AltitudeMeters>1348.4000244140625</AltitudeMeters>
            <DistanceMeters>4108.8727905664</DistanceMeters>
          </Trackpoint>
          <Trackpoint>
            <Time>2018-12-30T09:54:04.000Z</Time>
            <Position>
              <LatitudeDegrees>40.76060528866946697235107421875</LatitudeDegrees>
              <LongitudeDegrees>-4.0759436599910259246826171875</LongitudeDegrees>
            </Position>
            <AltitudeMeters>1348.5999755859375</AltitudeMeters>
            <DistanceMeters>4110.097124136</DistanceMeters>
          </Trackpoint>
          <Trackpoint>
            <Time>2018-12-30T09:54:05.000Z</Time>
            <Position>
              <LatitudeDegrees>40.76061266474425792694091796875</LatitudeDegrees>
              <LongitudeDegrees>-4.07593485899269580841064453125</LongitudeDegrees>
            </Position>
            <AltitudeMeters>1348.800048828125</AltitudeMeters>
            <DistanceMeters>4111.2012347826</DistanceMeters>
          </Trackpoint>
          <Trackpoint>
            <Time>2018-12-30T09:54:06.000Z</Time>
            <Position>
              <LatitudeDegrees>40.760622806847095489501953125</LatitudeDegrees>
              <LongitudeDegrees>-4.0759302489459514617919921875</LongitudeDegrees>
            </Position>
            <AltitudeMeters>1348.800048828125</AltitudeMeters>
            <DistanceMeters>4112.3957020606</DistanceMeters>
          </Trackpoint>
          <Trackpoint>
            <Time>2018-12-30T09:54:07.000Z</Time>
            <Position>
              <LatitudeDegrees>40.7606360502541065216064453125</LatitudeDegrees>
              <LongitudeDegrees>-4.0759237110614776611328125</LongitudeDegrees>
            </Position>
            <AltitudeMeters>1348.800048828125</AltitudeMeters>
            <DistanceMeters>4113.9686740711</DistanceMeters>
          </Trackpoint>
          <Trackpoint>
            <Time>2018-12-30T09:54:08.000Z</Time>
            <Position>
              <LatitudeDegrees>40.76064669527113437652587890625</LatitudeDegrees>
              <LongitudeDegrees>-4.0759178437292575836181640625</LongitudeDegrees>
            </Position>
            <AltitudeMeters>1348.800048828125</AltitudeMeters>
            <DistanceMeters>4115.2506545361</DistanceMeters>
          </Trackpoint>
          <Trackpoint>
            <Time>2018-12-30T09:54:09.000Z</Time>
            <Position>
              <LatitudeDegrees>40.7606528140604496002197265625</LatitudeDegrees>
              <LongitudeDegrees>-4.075905270874500274658203125</LongitudeDegrees>
            </Position>
            <AltitudeMeters>1348.800048828125</AltitudeMeters>
            <DistanceMeters>4116.5077398068</DistanceMeters>
          </Trackpoint>
          <Trackpoint>
            <Time>2018-12-30T09:54:10.000Z</Time>
            <Position>
              <LatitudeDegrees>40.76066337525844573974609375</LatitudeDegrees>
              <LongitudeDegrees>-4.0758963860571384429931640625</LongitudeDegrees>
            </Position>
            <AltitudeMeters>1348.5999755859375</AltitudeMeters>
            <DistanceMeters>4117.897860794</DistanceMeters>
          </Trackpoint>
          <Trackpoint>
            <Time>2018-12-30T09:54:11.000Z</Time>
            <Position>
              <LatitudeDegrees>40.760669410228729248046875</LatitudeDegrees>
              <LongitudeDegrees>-4.07588741742074489593505859375</LongitudeDegrees>
            </Position>
            <AltitudeMeters>1348.5999755859375</AltitudeMeters>
            <DistanceMeters>4118.9080086238</DistanceMeters>
          </Trackpoint>
          <Trackpoint>
            <Time>2018-12-30T09:54:12.000Z</Time>
            <Position>
              <LatitudeDegrees>40.76067745685577392578125</LatitudeDegrees>
              <LongitudeDegrees>-4.07588071189820766448974609375</LongitudeDegrees>
            </Position>
            <AltitudeMeters>1348.4000244140625</AltitudeMeters>
            <DistanceMeters>4119.9704395889</DistanceMeters>
          </Trackpoint>
          <Trackpoint>
            <Time>2018-12-30T09:54:13.000Z</Time>
            <Position>
              <LatitudeDegrees>40.76068709604442119598388671875</LatitudeDegrees>
              <LongitudeDegrees>-4.0758740901947021484375</LongitudeDegrees>
            </Position>
            <AltitudeMeters>1348.4000244140625</AltitudeMeters>
            <DistanceMeters>4121.1799322031</DistanceMeters>
          </Trackpoint>
          <Trackpoint>
            <Time>2018-12-30T09:54:14.000Z</Time>
            <Position>
              <LatitudeDegrees>40.7607027702033519744873046875</LatitudeDegrees>
              <LongitudeDegrees>-4.07586897723376750946044921875</LongitudeDegrees>
            </Position>
            <AltitudeMeters>1348.5999755859375</AltitudeMeters>
            <DistanceMeters>4122.9804314237</DistanceMeters>
          </Trackpoint>
          <Trackpoint>
            <Time>2018-12-30T09:54:15.000Z</Time>
            <Position>
              <LatitudeDegrees>40.76070955954492092132568359375</LatitudeDegrees>
              <LongitudeDegrees>-4.07585841603577136993408203125</LongitudeDegrees>
            </Position>
            <AltitudeMeters>1348.800048828125</AltitudeMeters>
            <DistanceMeters>4124.1519994412</DistanceMeters>
          </Trackpoint>
          <Trackpoint>
            <Time>2018-12-30T09:54:16.000Z</Time>
            <Position>
              <LatitudeDegrees>40.76071894727647304534912109375</LatitudeDegrees>
              <LongitudeDegrees>-4.0758486092090606689453125</LongitudeDegrees>
            </Position>
            <AltitudeMeters>1348.800048828125</AltitudeMeters>
            <DistanceMeters>4125.4823734423</DistanceMeters>
          </Trackpoint>
          <Trackpoint>
            <Time>2018-12-30T09:54:17.000Z</Time>
            <Position>
              <LatitudeDegrees>40.76072908937931060791015625</LatitudeDegrees>
              <LongitudeDegrees>-4.07584114931523799896240234375</LongitudeDegrees>
            </Position>
            <AltitudeMeters>1349</AltitudeMeters>
            <DistanceMeters>4126.778365039</DistanceMeters>
          </Trackpoint>
          <Trackpoint>
            <Time>2018-12-30T09:54:18.000Z</Time>
            <Position>
              <LatitudeDegrees>40.7607403211295604705810546875</LatitudeDegrees>
              <LongitudeDegrees>-4.075833521783351898193359375</LongitudeDegrees>
            </Position>
            <AltitudeMeters>1349</AltitudeMeters>
            <DistanceMeters>4128.1878389897</DistanceMeters>
          </Trackpoint>
          <Trackpoint>
            <Time>2018-12-30T09:54:19.000Z</Time>
            <Position>
              <LatitudeDegrees>40.76075163669884204864501953125</LatitudeDegrees>
              <LongitudeDegrees>-4.075828492641448974609375</LongitudeDegrees>
            </Position>
            <AltitudeMeters>1349.199951171875</AltitudeMeters>
            <DistanceMeters>4129.5182129908</DistanceMeters>
          </Trackpoint>
          <Trackpoint>
            <Time>2018-12-30T09:54:20.000Z</Time>
            <Position>
              <LatitudeDegrees>40.760772339999675750732421875</LatitudeDegrees>
              <LongitudeDegrees>-4.075824134051799774169921875</LongitudeDegrees>
            </Position>
            <AltitudeMeters>1349.199951171875</AltitudeMeters>
            <DistanceMeters>4131.8497588341</DistanceMeters>
          </Trackpoint>
          <Trackpoint>
            <Time>2018-12-30T09:54:21.000Z</Time>
            <Position>
              <LatitudeDegrees>40.76078231446444988250732421875</LatitudeDegrees>
              <LongitudeDegrees>-4.07581550069153308868408203125</LongitudeDegrees>
            </Position>
            <AltitudeMeters>1349.199951171875</AltitudeMeters>
            <DistanceMeters>4133.1801328353</DistanceMeters>
          </Trackpoint>
          <Trackpoint>
            <Time>2018-12-30T09:54:22.000Z</Time>
            <Position>
              <LatitudeDegrees>40.76079078018665313720703125</LatitudeDegrees>
              <LongitudeDegrees>-4.07580561004579067230224609375</LongitudeDegrees>
            </Position>
            <AltitudeMeters>1349.199951171875</AltitudeMeters>
            <DistanceMeters>4134.4372181059</DistanceMeters>
          </Trackpoint>
          <Trackpoint>
            <Time>2018-12-30T09:54:23.000Z</Time>
            <Position>
              <LatitudeDegrees>40.76080310158431529998779296875</LatitudeDegrees>
              <LongitudeDegrees>-4.07580208964645862579345703125</LongitudeDegrees>
            </Position>
            <AltitudeMeters>1349.199951171875</AltitudeMeters>
            <DistanceMeters>4135.8402707296</DistanceMeters>
          </Trackpoint>
          <Trackpoint>
            <Time>2018-12-30T09:54:24.000Z</Time>
            <Position>
              <LatitudeDegrees>40.7608124054968357086181640625</LatitudeDegrees>
              <LongitudeDegrees>-4.075799994170665740966796875</LongitudeDegrees>
            </Position>
            <AltitudeMeters>1349.199951171875</AltitudeMeters>
            <DistanceMeters>4136.8898750961</DistanceMeters>
          </Trackpoint>
          <Trackpoint>
            <Time>2018-12-30T09:54:25.000Z</Time>
            <Position>
              <LatitudeDegrees>40.7608238048851490020751953125</LatitudeDegrees>
              <LongitudeDegrees>-4.07579873688519001007080078125</LongitudeDegrees>
            </Position>
            <AltitudeMeters>1349.199951171875</AltitudeMeters>
            <DistanceMeters>4138.1612458852</DistanceMeters>
          </Trackpoint>
          <Trackpoint>
            <Time>2018-12-30T09:54:26.000Z</Time>
            <Position>
              <LatitudeDegrees>40.760835707187652587890625</LatitudeDegrees>
              <LongitudeDegrees>-4.07579404301941394805908203125</LongitudeDegrees>
            </Position>
            <AltitudeMeters>1349.199951171875</AltitudeMeters>
            <DistanceMeters>4139.5448557313</DistanceMeters>
          </Trackpoint>
          <Trackpoint>
            <Time>2018-12-30T09:54:27.000Z</Time>
            <Position>
              <LatitudeDegrees>40.76084752567112445831298828125</LatitudeDegrees>
              <LongitudeDegrees>-4.07578893005847930908203125</LongitudeDegrees>
            </Position>
            <AltitudeMeters>1349.199951171875</AltitudeMeters>
            <DistanceMeters>4140.9284655774</DistanceMeters>
          </Trackpoint>
          <Trackpoint>
            <Time>2018-12-30T09:54:28.000Z</Time>
            <Position>
              <LatitudeDegrees>40.76086227782070636749267578125</LatitudeDegrees>
              <LongitudeDegrees>-4.07577945850789546966552734375</LongitudeDegrees>
            </Position>
            <AltitudeMeters>1349.199951171875</AltitudeMeters>
            <DistanceMeters>4142.7538691513</DistanceMeters>
          </Trackpoint>
          <Trackpoint>
            <Time>2018-12-30T09:54:29.000Z</Time>
            <Position>
              <LatitudeDegrees>40.7608744315803050994873046875</LatitudeDegrees>
              <LongitudeDegrees>-4.075774513185024261474609375</LongitudeDegrees>
            </Position>
            <AltitudeMeters>1349.199951171875</AltitudeMeters>
            <DistanceMeters>4144.1697353069</DistanceMeters>
          </Trackpoint>
          <Trackpoint>
            <Time>2018-12-30T09:54:30.000Z</Time>
            <Position>
              <LatitudeDegrees>40.76088591478765010833740234375</LatitudeDegrees>
              <LongitudeDegrees>-4.07576051540672779083251953125</LongitudeDegrees>
            </Position>
            <AltitudeMeters>1349.4000244140625</AltitudeMeters>
            <DistanceMeters>4145.9064118837</DistanceMeters>
          </Trackpoint>
          <Trackpoint>
            <Time>2018-12-30T09:54:31.000Z</Time>
            <Position>
              <LatitudeDegrees>40.76089764945209026336669921875</LatitudeDegrees>
              <LongitudeDegrees>-4.07575297169387340545654296875</LongitudeDegrees>
            </Position>
            <AltitudeMeters>1349.4000244140625</AltitudeMeters>
            <DistanceMeters>4147.3600410963</DistanceMeters>
          </Trackpoint>
          <Trackpoint>
            <Time>2018-12-30T09:54:32.000Z</Time>
            <Position>
              <LatitudeDegrees>40.76090603135526180267333984375</LatitudeDegrees>
              <LongitudeDegrees>-4.07574928365647792816162109375</LongitudeDegrees>
            </Position>
            <AltitudeMeters>1349.4000244140625</AltitudeMeters>
            <DistanceMeters>4148.3475876805</DistanceMeters>
          </Trackpoint>
          <Trackpoint>
            <Time>2018-12-30T09:54:33.000Z</Time>
            <Position>
              <LatitudeDegrees>40.76092363335192203521728515625</LatitudeDegrees>
              <LongitudeDegrees>-4.0757505409419536590576171875</LongitudeDegrees>
            </Position>
            <AltitudeMeters>1349.5999755859375</AltitudeMeters>
            <DistanceMeters>4150.3089169658</DistanceMeters>
          </Trackpoint>
          <Trackpoint>
            <Time>2018-12-30T09:54:34.000Z</Time>
            <Position>
              <LatitudeDegrees>40.76093587093055248260498046875</LatitudeDegrees>
              <LongitudeDegrees>-4.07574199140071868896484375</LongitudeDegrees>
            </Position>
            <AltitudeMeters>1349.800048828125</AltitudeMeters>
            <DistanceMeters>4151.847058711</DistanceMeters>
          </Trackpoint>
          <Trackpoint>
            <Time>2018-12-30T09:54:35.000Z</Time>
            <Position>
              <LatitudeDegrees>40.7609448395669460296630859375</LatitudeDegrees>
              <LongitudeDegrees>-4.0757347829639911651611328125</LongitudeDegrees>
            </Position>
            <AltitudeMeters>1350</AltitudeMeters>
            <DistanceMeters>4153.0186267284</DistanceMeters>
          </Trackpoint>
          <Trackpoint>
            <Time>2018-12-30T09:54:36.000Z</Time>
            <Position>
              <LatitudeDegrees>40.76095246709883213043212890625</LatitudeDegrees>
              <LongitudeDegrees>-4.07573235221207141876220703125</LongitudeDegrees>
            </Position>
            <AltitudeMeters>1350</AltitudeMeters>
            <DistanceMeters>4153.8895609517</DistanceMeters>
          </Trackpoint>
          <Trackpoint>
            <Time>2018-12-30T09:54:37.000Z</Time>
            <Position>
              <LatitudeDegrees>40.76095313765108585357666015625</LatitudeDegrees>
              <LongitudeDegrees>-4.07572363503277301788330078125</LongitudeDegrees>
            </Position>
            <AltitudeMeters>1350</AltitudeMeters>
            <DistanceMeters>4154.6256347161</DistanceMeters>
          </Trackpoint>
          <Trackpoint>
            <Time>2018-12-30T09:54:38.000Z</Time>
            <Position>
              <LatitudeDegrees>40.76095112599432468414306640625</LatitudeDegrees>
              <LongitudeDegrees>-4.0757143311202526092529296875</LongitudeDegrees>
            </Position>
            <AltitudeMeters>1350</AltitudeMeters>
            <DistanceMeters>4155.4430854222</DistanceMeters>
          </Trackpoint>
          <Trackpoint>
            <Time>2018-12-30T09:54:39.000Z</Time>
            <Position>
              <LatitudeDegrees>40.76097057200968265533447265625</LatitudeDegrees>
              <LongitudeDegrees>-4.07571005634963512420654296875</LongitudeDegrees>
            </Position>
            <AltitudeMeters>1350.199951171875</AltitudeMeters>
            <DistanceMeters>4157.6348884854</DistanceMeters>
          </Trackpoint>
          <Trackpoint>
            <Time>2018-12-30T09:54:40.000Z</Time>
            <Position>
              <LatitudeDegrees>40.7609845697879791259765625</LatitudeDegrees>
              <LongitudeDegrees>-4.0757032670080661773681640625</LongitudeDegrees>
            </Position>
            <AltitudeMeters>1350.199951171875</AltitudeMeters>
            <DistanceMeters>4159.2944587055</DistanceMeters>
          </Trackpoint>
          <Trackpoint>
            <Time>2018-12-30T09:54:41.000Z</Time>
            <Position>
              <LatitudeDegrees>40.7609968073666095733642578125</LatitudeDegrees>
              <LongitudeDegrees>-4.0756935440003871917724609375</LongitudeDegrees>
            </Position>
            <AltitudeMeters>1350.5999755859375</AltitudeMeters>
            <DistanceMeters>4160.8873967083</DistanceMeters>
          </Trackpoint>
          <Trackpoint>
            <Time>2018-12-30T09:54:42.000Z</Time>
            <Position>
              <LatitudeDegrees>40.76100762002170085906982421875</LatitudeDegrees>
              <LongitudeDegrees>-4.07568298280239105224609375</LongitudeDegrees>
            </Position>
            <AltitudeMeters>1351</AltitudeMeters>
            <DistanceMeters>4162.3838789027</DistanceMeters>
          </Trackpoint>
          <Trackpoint>
            <Time>2018-12-30T09:54:43.000Z</Time>
            <Position>
              <LatitudeDegrees>40.76102036051452159881591796875</LatitudeDegrees>
              <LongitudeDegrees>-4.07567552290856838226318359375</LongitudeDegrees>
            </Position>
            <AltitudeMeters>1351.4000244140625</AltitudeMeters>
            <DistanceMeters>4163.9337177118</DistanceMeters>
          </Trackpoint>
          <Trackpoint>
            <Time>2018-12-30T09:54:44.000Z</Time>
            <Position>
              <LatitudeDegrees>40.76103243045508861541748046875</LatitudeDegrees>
              <LongitudeDegrees>-4.07566948793828487396240234375</LongitudeDegrees>
            </Position>
            <AltitudeMeters>1351.5999755859375</AltitudeMeters>
            <DistanceMeters>4165.3685896326</DistanceMeters>
          </Trackpoint>
          <Trackpoint>
            <Time>2018-12-30T09:54:45.000Z</Time>
            <Position>
              <LatitudeDegrees>40.76104483567178249359130859375</LatitudeDegrees>
              <LongitudeDegrees>-4.07566345296800136566162109375</LongitudeDegrees>
            </Position>
            <AltitudeMeters>1351.5999755859375</AltitudeMeters>
            <DistanceMeters>4166.8407371614</DistanceMeters>
          </Trackpoint>
          <Trackpoint>
            <Time>2018-12-30T09:54:46.000Z</Time>
            <Position>
              <LatitudeDegrees>40.761062689125537872314453125</LatitudeDegrees>
              <LongitudeDegrees>-4.075653143227100372314453125</LongitudeDegrees>
            </Position>
            <AltitudeMeters>1351.5999755859375</AltitudeMeters>
            <DistanceMeters>4169.0097622482</DistanceMeters>
          </Trackpoint>
          <Trackpoint>
            <Time>2018-12-30T09:54:47.000Z</Time>
            <Position>
              <LatitudeDegrees>40.761076770722866058349609375</LatitudeDegrees>
              <LongitudeDegrees>-4.075640402734279632568359375</LongitudeDegrees>
            </Position>
            <AltitudeMeters>1351.5999755859375</AltitudeMeters>
            <DistanceMeters>4170.9102965356</DistanceMeters>
          </Trackpoint>
          <Trackpoint>
            <Time>2018-12-30T09:54:48.000Z</Time>
            <Position>
              <LatitudeDegrees>40.76109395362436771392822265625</LatitudeDegrees>
              <LongitudeDegrees>-4.07563478685915470123291015625</LongitudeDegrees>
            </Position>
            <AltitudeMeters>1351.5999755859375</AltitudeMeters>
            <DistanceMeters>4172.8808124252</DistanceMeters>
          </Trackpoint>
          <Trackpoint>
            <Time>2018-12-30T09:54:49.000Z</Time>
            <Position>
              <LatitudeDegrees>40.76110996305942535400390625</LatitudeDegrees>
              <LongitudeDegrees>-4.0756238065659999847412109375</LongitudeDegrees>
            </Position>
            <AltitudeMeters>1351.5999755859375</AltitudeMeters>
            <DistanceMeters>4174.887654246</DistanceMeters>
          </Trackpoint>
          <Trackpoint>
            <Time>2018-12-30T09:54:50.000Z</Time>
            <Position>
              <LatitudeDegrees>40.76112664304673671722412109375</LatitudeDegrees>
              <LongitudeDegrees>-4.0756167657673358917236328125</LongitudeDegrees>
            </Position>
            <AltitudeMeters>1351.5999755859375</AltitudeMeters>
            <DistanceMeters>4176.8351223732</DistanceMeters>
          </Trackpoint>
          <Trackpoint>
            <Time>2018-12-30T09:54:51.000Z</Time>
            <Position>
              <LatitudeDegrees>40.7611389644443988800048828125</LatitudeDegrees>
              <LongitudeDegrees>-4.07561182044446468353271484375</LongitudeDegrees>
            </Position>
            <AltitudeMeters>1351.5999755859375</AltitudeMeters>
            <DistanceMeters>4178.2699942941</DistanceMeters>
          </Trackpoint>
          <Trackpoint>
            <Time>2018-12-30T09:54:52.000Z</Time>
            <Position>
              <LatitudeDegrees>40.7611483521759510040283203125</LatitudeDegrees>
              <LongitudeDegrees>-4.075604863464832305908203125</LongitudeDegrees>
            </Position>
            <AltitudeMeters>1351.5999755859375</AltitudeMeters>
            <DistanceMeters>4179.4682355697</DistanceMeters>
          </Trackpoint>
          <Trackpoint>
            <Time>2018-12-30T09:54:53.000Z</Time>
            <Position>
              <LatitudeDegrees>40.76115631498396396636962890625</LatitudeDegrees>
              <LongitudeDegrees>-4.07559907995164394378662109375</LongitudeDegrees>
            </Position>
            <AltitudeMeters>1351.5999755859375</AltitudeMeters>
            <DistanceMeters>4180.4828432351</DistanceMeters>
          </Trackpoint>
          <Trackpoint>
            <Time>2018-12-30T09:54:54.000Z</Time>
            <Position>
              <LatitudeDegrees>40.7611647807061672210693359375</LatitudeDegrees>
              <LongitudeDegrees>-4.0755973197519779205322265625</LongitudeDegrees>
            </Position>
            <AltitudeMeters>1351.800048828125</AltitudeMeters>
            <DistanceMeters>4181.4331103788</DistanceMeters>
          </Trackpoint>
          <Trackpoint>
            <Time>2018-12-30T09:54:55.000Z</Time>
            <Position>
              <LatitudeDegrees>40.761173330247402191162109375</LatitudeDegrees>
              <LongitudeDegrees>-4.07559069804847240447998046875</LongitudeDegrees>
            </Position>
            <AltitudeMeters>1352</AltitudeMeters>
            <DistanceMeters>4182.5331241257</DistanceMeters>
          </Trackpoint>
          <Trackpoint>
            <Time>2018-12-30T09:54:56.000Z</Time>
            <Position>
              <LatitudeDegrees>40.7611830532550811767578125</LatitudeDegrees>
              <LongitudeDegrees>-4.075585417449474334716796875</LongitudeDegrees>
            </Position>
            <AltitudeMeters>1352.199951171875</AltitudeMeters>
            <DistanceMeters>4183.7046921431</DistanceMeters>
          </Trackpoint>
          <Trackpoint>
            <Time>2018-12-30T09:54:57.000Z</Time>
            <Position>
              <LatitudeDegrees>40.76119051314890384674072265625</LatitudeDegrees>
              <LongitudeDegrees>-4.075578041374683380126953125</LongitudeDegrees>
            </Position>
            <AltitudeMeters>1352.4000244140625</AltitudeMeters>
            <DistanceMeters>4184.7456576437</DistanceMeters>
          </Trackpoint>
          <Trackpoint>
            <Time>2018-12-30T09:54:58.000Z</Time>
            <Position>
              <LatitudeDegrees>40.7612016610801219940185546875</LatitudeDegrees>
              <LongitudeDegrees>-4.07557309605181217193603515625</LongitudeDegrees>
            </Position>
            <AltitudeMeters>1352.5999755859375</AltitudeMeters>
            <DistanceMeters>4186.0555105073</DistanceMeters>
          </Trackpoint>
          <Trackpoint>
            <Time>2018-12-30T09:54:59.000Z</Time>
            <Position>
              <LatitudeDegrees>40.76121054589748382568359375</LatitudeDegrees>
              <LongitudeDegrees>-4.0755589306354522705078125</LongitudeDegrees>
            </Position>
            <AltitudeMeters>1352.800048828125</AltitudeMeters>
            <DistanceMeters>4187.6082598143</DistanceMeters>
          </Trackpoint>
          <Trackpoint>
            <Time>2018-12-30T09:55:00.000Z</Time>
            <Position>
              <LatitudeDegrees>40.76121415011584758758544921875</LatitudeDegrees>
              <LongitudeDegrees>-4.07555214129388332366943359375</LongitudeDegrees>
            </Position>
            <AltitudeMeters>1353</AltitudeMeters>
            <DistanceMeters>4188.3065607008</DistanceMeters>
          </Trackpoint>
          <Trackpoint>
            <Time>2018-12-30T09:55:01.000Z</Time>
            <Position>
              <LatitudeDegrees>40.761223621666431427001953125</LatitudeDegrees>
              <LongitudeDegrees>-4.075554572045803070068359375</LongitudeDegrees>
            </Position>
            <AltitudeMeters>1353.199951171875</AltitudeMeters>
            <DistanceMeters>4189.3816652468</DistanceMeters>
          </Trackpoint>
          <Trackpoint>
            <Time>2018-12-30T09:55:02.000Z</Time>
            <Position>
              <LatitudeDegrees>40.76123275794088840484619140625</LatitudeDegrees>
              <LongitudeDegrees>-4.07554493285715579986572265625</LongitudeDegrees>
            </Position>
            <AltitudeMeters>1353.199951171875</AltitudeMeters>
            <DistanceMeters>4190.6846059098</DistanceMeters>
          </Trackpoint>
          <Trackpoint>
            <Time>2018-12-30T09:55:03.000Z</Time>
            <Position>
              <LatitudeDegrees>40.76123468577861785888671875</LatitudeDegrees>
              <LongitudeDegrees>-4.07553537748754024505615234375</LongitudeDegrees>
            </Position>
            <AltitudeMeters>1353</AltitudeMeters>
            <DistanceMeters>4191.5184619443</DistanceMeters>
          </Trackpoint>
          <Trackpoint>
            <Time>2018-12-30T09:55:04.000Z</Time>
            <Position>
              <LatitudeDegrees>40.76123812235891819000244140625</LatitudeDegrees>
              <LongitudeDegrees>-4.07553613185882568359375</LongitudeDegrees>
            </Position>
            <AltitudeMeters>1353</AltitudeMeters>
            <DistanceMeters>4191.921626149</DistanceMeters>
          </Trackpoint>
          <Trackpoint>
            <Time>2018-12-30T09:55:05.000Z</Time>
            <Position>
              <LatitudeDegrees>40.7612472586333751678466796875</LatitudeDegrees>
              <LongitudeDegrees>-4.075539819896221160888671875</LongitudeDegrees>
            </Position>
            <AltitudeMeters>1353</AltitudeMeters>
            <DistanceMeters>4192.9882983723</DistanceMeters>
          </Trackpoint>
          <Trackpoint>
            <Time>2018-12-30T09:55:06.000Z</Time>
            <Position>
              <LatitudeDegrees>40.76125538907945156097412109375</LatitudeDegrees>
              <LongitudeDegrees>-4.07554426230490207672119140625</LongitudeDegrees>
            </Position>
            <AltitudeMeters>1353</AltitudeMeters>
            <DistanceMeters>4193.966658277</DistanceMeters>
          </Trackpoint>
          <Trackpoint>
            <Time>2018-12-30T09:55:07.000Z</Time>
            <Position>
              <LatitudeDegrees>40.76126259751617908477783203125</LatitudeDegrees>
              <LongitudeDegrees>-4.07555096782743930816650390625</LongitudeDegrees>
            </Position>
            <AltitudeMeters>1353</AltitudeMeters>
            <DistanceMeters>4194.9496222537</DistanceMeters>
          </Trackpoint>
          <Trackpoint>
            <Time>2018-12-30T09:55:08.000Z</Time>
            <Position>
              <LatitudeDegrees>40.76126745902001857757568359375</LatitudeDegrees>
              <LongitudeDegrees>-4.0755533985793590545654296875</LongitudeDegrees>
            </Position>
            <AltitudeMeters>1353</AltitudeMeters>
            <DistanceMeters>4195.5276471912</DistanceMeters>
          </Trackpoint>
          <Trackpoint>
            <Time>2018-12-30T09:55:09.000Z</Time>
            <Position>
              <LatitudeDegrees>40.76127491891384124755859375</LatitudeDegrees>
              <LongitudeDegrees>-4.07554945908486843109130859375</LongitudeDegrees>
            </Position>
            <AltitudeMeters>1352.800048828125</AltitudeMeters>
            <DistanceMeters>4196.4241274216</DistanceMeters>
          </Trackpoint>
          <Trackpoint>
            <Time>2018-12-30T09:55:10.000Z</Time>
            <Position>
              <LatitudeDegrees>40.7612822949886322021484375</LatitudeDegrees>
              <LongitudeDegrees>-4.07554241828620433807373046875</LongitudeDegrees>
            </Position>
            <AltitudeMeters>1352.800048828125</AltitudeMeters>
            <DistanceMeters>4197.438735087</DistanceMeters>
          </Trackpoint>
          <Trackpoint>
            <Time>2018-12-30T09:55:11.000Z</Time>
            <Position>
              <LatitudeDegrees>40.76128740794956684112548828125</LatitudeDegrees>
              <LongitudeDegrees>-4.075529761612415313720703125</LongitudeDegrees>
            </Position>
            <AltitudeMeters>1353</AltitudeMeters>
            <DistanceMeters>4198.6482277013</DistanceMeters>
          </Trackpoint>
          <Trackpoint>
            <Time>2018-12-30T09:55:12.000Z</Time>
            <Position>
              <LatitudeDegrees>40.7612952031195163726806640625</LatitudeDegrees>
              <LongitudeDegrees>-4.0755148418247699737548828125</LongitudeDegrees>
            </Position>
            <AltitudeMeters>1353</AltitudeMeters>
            <DistanceMeters>4200.1775379376</DistanceMeters>
          </Trackpoint>
          <Trackpoint>
            <Time>2018-12-30T09:55:13.000Z</Time>
            <Position>
              <LatitudeDegrees>40.76130048371851444244384765625</LatitudeDegrees>
              <LongitudeDegrees>-4.07550285570323467254638671875</LongitudeDegrees>
            </Position>
            <AltitudeMeters>1353</AltitudeMeters>
            <DistanceMeters>4201.3413727483</DistanceMeters>
          </Trackpoint>
          <Trackpoint>
            <Time>2018-12-30T09:55:14.000Z</Time>
            <Position>
              <LatitudeDegrees>40.76131054200232028961181640625</LatitudeDegrees>
              <LongitudeDegrees>-4.0754953958094120025634765625</LongitudeDegrees>
            </Position>
            <AltitudeMeters>1353.199951171875</AltitudeMeters>
            <DistanceMeters>4202.6233532134</DistanceMeters>
          </Trackpoint>
          <Trackpoint>
            <Time>2018-12-30T09:55:15.000Z</Time>
            <Position>
              <LatitudeDegrees>40.76132051646709442138671875</LatitudeDegrees>
              <LongitudeDegrees>-4.07548726536333560943603515625</LongitudeDegrees>
            </Position>
            <AltitudeMeters>1353.199951171875</AltitudeMeters>
            <DistanceMeters>4203.9262938764</DistanceMeters>
          </Trackpoint>
          <Trackpoint>
            <Time>2018-12-30T09:55:16.000Z</Time>
            <Position>
              <LatitudeDegrees>40.761328898370265960693359375</LatitudeDegrees>
              <LongitudeDegrees>-4.0754784643650054931640625</LongitudeDegrees>
            </Position>
            <AltitudeMeters>1353.199951171875</AltitudeMeters>
            <DistanceMeters>4205.1169751947</DistanceMeters>
          </Trackpoint>
          <Trackpoint>
            <Time>2018-12-30T09:55:17.000Z</Time>
            <Position>
              <LatitudeDegrees>40.76133250258862972259521484375</LatitudeDegrees>
              <LongitudeDegrees>-4.075460694730281829833984375</LongitudeDegrees>
            </Position>
            <AltitudeMeters>1353.199951171875</AltitudeMeters>
            <DistanceMeters>4206.6668140038</DistanceMeters>
          </Trackpoint>
          <Trackpoint>
            <Time>2018-12-30T09:55:18.000Z</Time>
            <Position>
              <LatitudeDegrees>40.76133795082569122314453125</LatitudeDegrees>
              <LongitudeDegrees>-4.07544166781008243560791015625</LongitudeDegrees>
            </Position>
            <AltitudeMeters>1353.4000244140625</AltitudeMeters>
            <DistanceMeters>4208.3825660024</DistanceMeters>
          </Trackpoint>
          <Trackpoint>
            <Time>2018-12-30T09:55:19.000Z</Time>
            <Position>
              <LatitudeDegrees>40.76134608127176761627197265625</LatitudeDegrees>
              <LongitudeDegrees>-4.075431190431118011474609375</LongitudeDegrees>
            </Position>
            <AltitudeMeters>1353.4000244140625</AltitudeMeters>
            <DistanceMeters>4209.64681421</DistanceMeters>
          </Trackpoint>
          <Trackpoint>
            <Time>2018-12-30T09:55:20.000Z</Time>
            <Position>
              <LatitudeDegrees>40.7613525353372097015380859375</LatitudeDegrees>
              <LongitudeDegrees>-4.07542272470891475677490234375</LongitudeDegrees>
            </Position>
            <AltitudeMeters>1353.800048828125</AltitudeMeters>
            <DistanceMeters>4210.6524824266</DistanceMeters>
          </Trackpoint>
          <Trackpoint>
            <Time>2018-12-30T09:55:21.000Z</Time>
            <Position>
              <LatitudeDegrees>40.7613573968410491943359375</LatitudeDegrees>
              <LongitudeDegrees>-4.07541744410991668701171875</LongitudeDegrees>
            </Position>
            <AltitudeMeters>1354.199951171875</AltitudeMeters>
            <DistanceMeters>4211.350783313</DistanceMeters>
          </Trackpoint>
          <Trackpoint>
            <Time>2018-12-30T09:55:22.000Z</Time>
            <Position>
              <LatitudeDegrees>40.761362425982952117919921875</LatitudeDegrees>
              <LongitudeDegrees>-4.075410068035125732421875</LongitudeDegrees>
            </Position>
            <AltitudeMeters>1354.4000244140625</AltitudeMeters>
            <DistanceMeters>4212.1900365302</DistanceMeters>
          </Trackpoint>
          <Trackpoint>
            <Time>2018-12-30T09:55:23.000Z</Time>
            <Position>
              <LatitudeDegrees>40.76136837713420391082763671875</LatitudeDegrees>
              <LongitudeDegrees>-4.07540545798838138580322265625</LongitudeDegrees>
            </Position>
            <AltitudeMeters>1354.4000244140625</AltitudeMeters>
            <DistanceMeters>4212.9620372072</DistanceMeters>
          </Trackpoint>
          <Trackpoint>
            <Time>2018-12-30T09:55:24.000Z</Time>
            <Position>
              <LatitudeDegrees>40.76137483119964599609375</LatitudeDegrees>
              <LongitudeDegrees>-4.07540646381676197052001953125</LongitudeDegrees>
            </Position>
            <AltitudeMeters>1354.5999755859375</AltitudeMeters>
            <DistanceMeters>4213.6857391028</DistanceMeters>
          </Trackpoint>
          <Trackpoint>
            <Time>2018-12-30T09:55:25.000Z</Time>
            <Position>
              <LatitudeDegrees>40.76138514094054698944091796875</LatitudeDegrees>
              <LongitudeDegrees>-4.0754021890461444854736328125</LongitudeDegrees>
            </Position>
            <AltitudeMeters>1354.5999755859375</AltitudeMeters>
            <DistanceMeters>4214.8877425267</DistanceMeters>
          </Trackpoint>
          <Trackpoint>
            <Time>2018-12-30T09:55:26.000Z</Time>
            <Position>
              <LatitudeDegrees>40.761398635804653167724609375</LatitudeDegrees>
              <LongitudeDegrees>-4.07539674080908298492431640625</LongitudeDegrees>
            </Position>
            <AltitudeMeters>1354.800048828125</AltitudeMeters>
            <DistanceMeters>4216.4607145372</DistanceMeters>
          </Trackpoint>
          <Trackpoint>
            <Time>2018-12-30T09:55:27.000Z</Time>
            <Position>
              <LatitudeDegrees>40.7614051736891269683837890625</LatitudeDegrees>
              <LongitudeDegrees>-4.07538567669689655303955078125</LongitudeDegrees>
            </Position>
            <AltitudeMeters>1354.800048828125</AltitudeMeters>
            <DistanceMeters>4217.6399650502</DistanceMeters>
          </Trackpoint>
          <Trackpoint>
            <Time>2018-12-30T09:55:28.000Z</Time>
            <Position>
              <LatitudeDegrees>40.761414058506488800048828125</LatitudeDegrees>
              <LongitudeDegrees>-4.07538416795432567596435546875</LongitudeDegrees>
            </Position>
            <AltitudeMeters>1355</AltitudeMeters>
            <DistanceMeters>4218.64113361</DistanceMeters>
          </Trackpoint>
          <Trackpoint>
            <Time>2018-12-30T09:55:29.000Z</Time>
            <Position>
              <LatitudeDegrees>40.761422775685787200927734375</LatitudeDegrees>
              <LongitudeDegrees>-4.075377546250820159912109375</LongitudeDegrees>
            </Position>
            <AltitudeMeters>1355</AltitudeMeters>
            <DistanceMeters>4219.7574447447</DistanceMeters>
          </Trackpoint>
          <Trackpoint>
            <Time>2018-12-30T09:55:30.000Z</Time>
            <Position>
              <LatitudeDegrees>40.76142621226608753204345703125</LatitudeDegrees>
              <LongitudeDegrees>-4.07536916434764862060546875</LongitudeDegrees>
            </Position>
            <AltitudeMeters>1355.199951171875</AltitudeMeters>
            <DistanceMeters>4220.5637731542</DistanceMeters>
          </Trackpoint>
          <Trackpoint>
            <Time>2018-12-30T09:55:31.000Z</Time>
            <Position>
              <LatitudeDegrees>40.76143182814121246337890625</LatitudeDegrees>
              <LongitudeDegrees>-4.07536111772060394287109375</LongitudeDegrees>
            </Position>
            <AltitudeMeters>1355.4000244140625</AltitudeMeters>
            <DistanceMeters>4221.4899789964</DistanceMeters>
          </Trackpoint>
          <Trackpoint>
            <Time>2018-12-30T09:55:32.000Z</Time>
            <Position>
              <LatitudeDegrees>40.7614366896450519561767578125</LatitudeDegrees>
              <LongitudeDegrees>-4.0753562562167644500732421875</LongitudeDegrees>
            </Position>
            <AltitudeMeters>1355.5999755859375</AltitudeMeters>
            <DistanceMeters>4222.1686054759</DistanceMeters>
          </Trackpoint>
          <Trackpoint>
            <Time>2018-12-30T09:55:33.000Z</Time>
            <Position>
              <LatitudeDegrees>40.7614417187869548797607421875</LatitudeDegrees>
              <LongitudeDegrees>-4.07535885460674762725830078125</LongitudeDegrees>
            </Position>
            <AltitudeMeters>1355.800048828125</AltitudeMeters>
            <DistanceMeters>4222.7696071878</DistanceMeters>
          </Trackpoint>
          <Trackpoint>
            <Time>2018-12-30T09:55:34.000Z</Time>
            <Position>
              <LatitudeDegrees>40.76145169325172901153564453125</LatitudeDegrees>
              <LongitudeDegrees>-4.0753539092838764190673828125</LongitudeDegrees>
            </Position>
            <AltitudeMeters>1355.800048828125</AltitudeMeters>
            <DistanceMeters>4223.9564904699</DistanceMeters>
          </Trackpoint>
          <Trackpoint>
            <Time>2018-12-30T09:55:35.000Z</Time>
            <Position>
              <LatitudeDegrees>40.76145806349813938140869140625</LatitudeDegrees>
              <LongitudeDegrees>-4.07534628175199031829833984375</LongitudeDegrees>
            </Position>
            <AltitudeMeters>1356</AltitudeMeters>
            <DistanceMeters>4224.9162132409</DistanceMeters>
          </Trackpoint>
          <Trackpoint>
            <Time>2018-12-30T09:55:36.000Z</Time>
            <Position>
              <LatitudeDegrees>40.76146208681166172027587890625</LatitudeDegrees>
              <LongitudeDegrees>-4.07533689402043819427490234375</LongitudeDegrees>
            </Position>
            <AltitudeMeters>1356</AltitudeMeters>
            <DistanceMeters>4225.8276774656</DistanceMeters>
          </Trackpoint>
          <Trackpoint>
            <Time>2018-12-30T09:55:37.000Z</Time>
            <Position>
              <LatitudeDegrees>40.76147901825606822967529296875</LatitudeDegrees>
              <LongitudeDegrees>-4.07532750628888607025146484375</LongitudeDegrees>
            </Position>
            <AltitudeMeters>1356</AltitudeMeters>
            <DistanceMeters>4227.8701992689</DistanceMeters>
          </Trackpoint>
          <Trackpoint>
            <Time>2018-12-30T09:55:38.000Z</Time>
            <Position>
              <LatitudeDegrees>40.76149092055857181549072265625</LatitudeDegrees>
              <LongitudeDegrees>-4.07532247714698314666748046875</LongitudeDegrees>
            </Position>
            <AltitudeMeters>1356</AltitudeMeters>
            <DistanceMeters>4229.2603202561</DistanceMeters>
          </Trackpoint>
          <Trackpoint>
            <Time>2018-12-30T09:55:39.000Z</Time>
            <Position>
              <LatitudeDegrees>40.76150651089847087860107421875</LatitudeDegrees>
              <LongitudeDegrees>-4.0753183700144290924072265625</LongitudeDegrees>
            </Position>
            <AltitudeMeters>1356</AltitudeMeters>
            <DistanceMeters>4231.0304718106</DistanceMeters>
          </Trackpoint>
          <Trackpoint>
            <Time>2018-12-30T09:55:40.000Z</Time>
            <Position>
              <LatitudeDegrees>40.761517994105815887451171875</LatitudeDegrees>
              <LongitudeDegrees>-4.075313508510589599609375</LongitudeDegrees>
            </Position>
            <AltitudeMeters>1356</AltitudeMeters>
            <DistanceMeters>4232.3709885813</DistanceMeters>
          </Trackpoint>
          <Trackpoint>
            <Time>2018-12-30T09:55:41.000Z</Time>
            <Position>
              <LatitudeDegrees>40.76152696274220943450927734375</LatitudeDegrees>
              <LongitudeDegrees>-4.07530789263546466827392578125</LongitudeDegrees>
            </Position>
            <AltitudeMeters>1356.199951171875</AltitudeMeters>
            <DistanceMeters>4233.4750992279</DistanceMeters>
          </Trackpoint>
          <Trackpoint>
            <Time>2018-12-30T09:55:42.000Z</Time>
            <Position>
              <LatitudeDegrees>40.76154087670147418975830078125</LatitudeDegrees>
              <LongitudeDegrees>-4.07529599033296108245849609375</LongitudeDegrees>
            </Position>
            <AltitudeMeters>1356.5999755859375</AltitudeMeters>
            <DistanceMeters>4235.3177355846</DistanceMeters>
          </Trackpoint>
          <Trackpoint>
            <Time>2018-12-30T09:55:43.000Z</Time>
            <Position>
              <LatitudeDegrees>40.76155026443302631378173828125</LatitudeDegrees>
              <LongitudeDegrees>-4.0752885304391384124755859375</LongitudeDegrees>
            </Position>
            <AltitudeMeters>1356.800048828125</AltitudeMeters>
            <DistanceMeters>4236.5420691542</DistanceMeters>
          </Trackpoint>
          <Trackpoint>
            <Time>2018-12-30T09:55:44.000Z</Time>
            <Position>
              <LatitudeDegrees>40.76155546121299266815185546875</LatitudeDegrees>
              <LongitudeDegrees>-4.0752799808979034423828125</LongitudeDegrees>
            </Position>
            <AltitudeMeters>1357.199951171875</AltitudeMeters>
            <DistanceMeters>4237.4633873325</DistanceMeters>
          </Trackpoint>
          <Trackpoint>
            <Time>2018-12-30T09:55:45.000Z</Time>
            <Position>
              <LatitudeDegrees>40.76156149618327617645263671875</LatitudeDegrees>
              <LongitudeDegrees>-4.07527185045182704925537109375</LongitudeDegrees>
            </Position>
            <AltitudeMeters>1357.4000244140625</AltitudeMeters>
            <DistanceMeters>4238.4231101036</DistanceMeters>
          </Trackpoint>
          <Trackpoint>
            <Time>2018-12-30T09:55:46.000Z</Time>
            <Position>
              <LatitudeDegrees>40.7615674473345279693603515625</LatitudeDegrees>
              <LongitudeDegrees>-4.07527067698538303375244140625</LongitudeDegrees>
            </Position>
            <AltitudeMeters>1357.5999755859375</AltitudeMeters>
            <DistanceMeters>4239.0950504448</DistanceMeters>
          </Trackpoint>
          <Trackpoint>
            <Time>2018-12-30T09:55:47.000Z</Time>
            <Position>
              <LatitudeDegrees>40.76157524250447750091552734375</LatitudeDegrees>
              <LongitudeDegrees>-4.0752697549760341644287109375</LongitudeDegrees>
            </Position>
            <AltitudeMeters>1357.5999755859375</AltitudeMeters>
            <DistanceMeters>4239.9659846681</DistanceMeters>
          </Trackpoint>
          <Trackpoint>
            <Time>2018-12-30T09:55:48.000Z</Time>
            <Position>
              <LatitudeDegrees>40.76158328913152217864990234375</LatitudeDegrees>
              <LongitudeDegrees>-4.07526799477636814117431640625</LongitudeDegrees>
            </Position>
            <AltitudeMeters>1357.5999755859375</AltitudeMeters>
            <DistanceMeters>4240.867487236</DistanceMeters>
          </Trackpoint>
          <Trackpoint>
            <Time>2018-12-30T09:55:49.000Z</Time>
            <Position>
              <LatitudeDegrees>40.761597454547882080078125</LatitudeDegrees>
              <LongitudeDegrees>-4.07527134753763675689697265625</LongitudeDegrees>
            </Position>
            <AltitudeMeters>1357.5999755859375</AltitudeMeters>
            <DistanceMeters>4242.4689058915</DistanceMeters>
          </Trackpoint>
          <Trackpoint>
            <Time>2018-12-30T09:55:50.000Z</Time>
            <Position>
              <LatitudeDegrees>40.76161690056324005126953125</LatitudeDegrees>
              <LongitudeDegrees>-4.07526464201509952545166015625</LongitudeDegrees>
            </Position>
            <AltitudeMeters>1357.5999755859375</AltitudeMeters>
            <DistanceMeters>4244.7075868483</DistanceMeters>
          </Trackpoint>
          <Trackpoint>
            <Time>2018-12-30T09:55:51.000Z</Time>
            <Position>
              <LatitudeDegrees>40.7616375200450420379638671875</LatitudeDegrees>
              <LongitudeDegrees>-4.075256176292896270751953125</LongitudeDegrees>
            </Position>
            <AltitudeMeters>1357.5999755859375</AltitudeMeters>
            <DistanceMeters>4247.1115936961</DistanceMeters>
          </Trackpoint>
          <Trackpoint>
            <Time>2018-12-30T09:55:52.000Z</Time>
            <Position>
              <LatitudeDegrees>40.7616497576236724853515625</LatitudeDegrees>
              <LongitudeDegrees>-4.07525491900742053985595703125</LongitudeDegrees>
            </Position>
            <AltitudeMeters>1357.800048828125</AltitudeMeters>
            <DistanceMeters>4248.4754836284</DistanceMeters>
          </Trackpoint>
          <Trackpoint>
            <Time>2018-12-30T09:55:53.000Z</Time>
            <Position>
              <LatitudeDegrees>40.76166744343936443328857421875</LatitudeDegrees>
              <LongitudeDegrees>-4.07524569891393184661865234375</LongitudeDegrees>
            </Position>
            <AltitudeMeters>1357.800048828125</AltitudeMeters>
            <DistanceMeters>4250.5918290435</DistanceMeters>
          </Trackpoint>
          <Trackpoint>
            <Time>2018-12-30T09:55:54.000Z</Time>
            <Position>
              <LatitudeDegrees>40.76168638654053211212158203125</LatitudeDegrees>
              <LongitudeDegrees>-4.07523907721042633056640625</LongitudeDegrees>
            </Position>
            <AltitudeMeters>1357.800048828125</AltitudeMeters>
            <DistanceMeters>4252.7712372681</DistanceMeters>
          </Trackpoint>
          <Trackpoint>
            <Time>2018-12-30T09:55:55.000Z</Time>
            <Position>
              <LatitudeDegrees>40.76170499436557292938232421875</LatitudeDegrees>
              <LongitudeDegrees>-4.0752328746020793914794921875</LongitudeDegrees>
            </Position>
            <AltitudeMeters>1357.800048828125</AltitudeMeters>
            <DistanceMeters>4254.9088103501</DistanceMeters>
          </Trackpoint>
          <Trackpoint>
            <Time>2018-12-30T09:55:56.000Z</Time>
            <Position>
              <LatitudeDegrees>40.76171756722033023834228515625</LatitudeDegrees>
              <LongitudeDegrees>-4.075230024755001068115234375</LongitudeDegrees>
            </Position>
            <AltitudeMeters>1358</AltitudeMeters>
            <DistanceMeters>4256.3246765057</DistanceMeters>
          </Trackpoint>
          <Trackpoint>
            <Time>2018-12-30T09:55:57.000Z</Time>
            <Position>
              <LatitudeDegrees>40.761733911931514739990234375</LatitudeDegrees>
              <LongitudeDegrees>-4.0752288512885570526123046875</LongitudeDegrees>
            </Position>
            <AltitudeMeters>1358</AltitudeMeters>
            <DistanceMeters>4258.1451264651</DistanceMeters>
          </Trackpoint>
          <Trackpoint>
            <Time>2018-12-30T09:55:58.000Z</Time>
            <Position>
              <LatitudeDegrees>40.76174774207174777984619140625</LatitudeDegrees>
              <LongitudeDegrees>-4.07522574998438358306884765625</LongitudeDegrees>
            </Position>
            <AltitudeMeters>1358.199951171875</AltitudeMeters>
            <DistanceMeters>4259.7036804627</DistanceMeters>
          </Trackpoint>
          <Trackpoint>
            <Time>2018-12-30T09:55:59.000Z</Time>
            <Position>
              <LatitudeDegrees>40.7617588900029659271240234375</LatitudeDegrees>
              <LongitudeDegrees>-4.07522432506084442138671875</LongitudeDegrees>
            </Position>
            <AltitudeMeters>1358.199951171875</AltitudeMeters>
            <DistanceMeters>4260.949944138</DistanceMeters>
          </Trackpoint>
          <Trackpoint>
            <Time>2018-12-30T09:56:00.000Z</Time>
            <Position>
              <LatitudeDegrees>40.761773474514484405517578125</LatitudeDegrees>
              <LongitudeDegrees>-4.0752263367176055908203125</LongitudeDegrees>
            </Position>
            <AltitudeMeters>1358.199951171875</AltitudeMeters>
            <DistanceMeters>4262.579312873</DistanceMeters>
          </Trackpoint>
          <Trackpoint>
            <Time>2018-12-30T09:56:01.000Z</Time>
            <Position>
              <LatitudeDegrees>40.76178059913218021392822265625</LatitudeDegrees>
              <LongitudeDegrees>-4.075227677822113037109375</LongitudeDegrees>
            </Position>
            <AltitudeMeters>1358.199951171875</AltitudeMeters>
            <DistanceMeters>4263.3743634067</DistanceMeters>
          </Trackpoint>
          <Trackpoint>
            <Time>2018-12-30T09:56:02.000Z</Time>
            <Position>
              <LatitudeDegrees>40.76178319752216339111328125</LatitudeDegrees>
              <LongitudeDegrees>-4.0752117522060871124267578125</LongitudeDegrees>
            </Position>
            <AltitudeMeters>1358.199951171875</AltitudeMeters>
            <DistanceMeters>4264.7514313256</DistanceMeters>
          </Trackpoint>
          <Trackpoint>
            <Time>2018-12-30T09:56:03.000Z</Time>
            <Position>
              <LatitudeDegrees>40.7617944292724132537841796875</LatitudeDegrees>
              <LongitudeDegrees>-4.0752050466835498809814453125</LongitudeDegrees>
            </Position>
            <AltitudeMeters>1358.4000244140625</AltitudeMeters>
            <DistanceMeters>4266.1284992444</DistanceMeters>
          </Trackpoint>
          <Trackpoint>
            <Time>2018-12-30T09:56:04.000Z</Time>
            <Position>
              <LatitudeDegrees>40.761804990470409393310546875</LatitudeDegrees>
              <LongitudeDegrees>-4.07519959844648838043212890625</LongitudeDegrees>
            </Position>
            <AltitudeMeters>1358.4000244140625</AltitudeMeters>
            <DistanceMeters>4267.3963137447</DistanceMeters>
          </Trackpoint>
          <Trackpoint>
            <Time>2018-12-30T09:56:05.000Z</Time>
            <Position>
              <LatitudeDegrees>40.76181580312550067901611328125</LatitudeDegrees>
              <LongitudeDegrees>-4.0752030350267887115478515625</LongitudeDegrees>
            </Position>
            <AltitudeMeters>1358.4000244140625</AltitudeMeters>
            <DistanceMeters>4268.6353105144</DistanceMeters>
          </Trackpoint>
          <Trackpoint>
            <Time>2018-12-30T09:56:06.000Z</Time>
            <Position>
              <LatitudeDegrees>40.76182535849511623382568359375</LatitudeDegrees>
              <LongitudeDegrees>-4.07520211301743984222412109375</LongitudeDegrees>
            </Position>
            <AltitudeMeters>1358.4000244140625</AltitudeMeters>
            <DistanceMeters>4269.7019827377</DistanceMeters>
          </Trackpoint>
          <Trackpoint>
            <Time>2018-12-30T09:56:07.000Z</Time>
            <Position>
              <LatitudeDegrees>40.761833488941192626953125</LatitudeDegrees>
              <LongitudeDegrees>-4.0752006880939006805419921875</LongitudeDegrees>
            </Position>
            <AltitudeMeters>1358.4000244140625</AltitudeMeters>
            <DistanceMeters>4270.6134469624</DistanceMeters>
          </Trackpoint>
          <Trackpoint>
            <Time>2018-12-30T09:56:08.000Z</Time>
            <Position>
              <LatitudeDegrees>40.7618410326540470123291015625</LatitudeDegrees>
              <LongitudeDegrees>-4.075199849903583526611328125</LongitudeDegrees>
            </Position>
            <AltitudeMeters>1358.5999755859375</AltitudeMeters>
            <DistanceMeters>4271.4527001796</DistanceMeters>
          </Trackpoint>
          <Trackpoint>
            <Time>2018-12-30T09:56:09.000Z</Time>
            <Position>
              <LatitudeDegrees>40.76184849254786968231201171875</LatitudeDegrees>
              <LongitudeDegrees>-4.0752021968364715576171875</LongitudeDegrees>
            </Position>
            <AltitudeMeters>1358.5999755859375</AltitudeMeters>
            <DistanceMeters>4272.3026449517</DistanceMeters>
          </Trackpoint>
          <Trackpoint>
            <Time>2018-12-30T09:56:10.000Z</Time>
            <Position>
              <LatitudeDegrees>40.7618561200797557830810546875</LatitudeDegrees>
              <LongitudeDegrees>-4.07520244829356670379638671875</LongitudeDegrees>
            </Position>
            <AltitudeMeters>1358.5999755859375</AltitudeMeters>
            <DistanceMeters>4273.1525897237</DistanceMeters>
          </Trackpoint>
          <Trackpoint>
            <Time>2018-12-30T09:56:11.000Z</Time>
            <Position>
              <LatitudeDegrees>40.76186542399227619171142578125</LatitudeDegrees>
              <LongitudeDegrees>-4.0752090699970722198486328125</LongitudeDegrees>
            </Position>
            <AltitudeMeters>1358.5999755859375</AltitudeMeters>
            <DistanceMeters>4274.3318402367</DistanceMeters>
          </Trackpoint>
          <Trackpoint>
            <Time>2018-12-30T09:56:12.000Z</Time>
            <Position>
              <LatitudeDegrees>40.7618755660951137542724609375</LatitudeDegrees>
              <LongitudeDegrees>-4.0752075612545013427734375</LongitudeDegrees>
            </Position>
            <AltitudeMeters>1358.5999755859375</AltitudeMeters>
            <DistanceMeters>4275.4721608091</DistanceMeters>
          </Trackpoint>
          <Trackpoint>
            <Time>2018-12-30T09:56:13.000Z</Time>
            <Position>
              <LatitudeDegrees>40.76189476065337657928466796875</LatitudeDegrees>
              <LongitudeDegrees>-4.0751980058848857879638671875</LongitudeDegrees>
            </Position>
            <AltitudeMeters>1358.5999755859375</AltitudeMeters>
            <DistanceMeters>4277.7567579694</DistanceMeters>
          </Trackpoint>
          <Trackpoint>
            <Time>2018-12-30T09:56:14.000Z</Time>
            <Position>
              <LatitudeDegrees>40.76191152445971965789794921875</LatitudeDegrees>
              <LongitudeDegrees>-4.0751941502094268798828125</LongitudeDegrees>
            </Position>
            <AltitudeMeters>1358.5999755859375</AltitudeMeters>
            <DistanceMeters>4279.6477657091</DistanceMeters>
          </Trackpoint>
          <Trackpoint>
            <Time>2018-12-30T09:56:15.000Z</Time>
            <Position>
              <LatitudeDegrees>40.7619285397231578826904296875</LatitudeDegrees>
              <LongitudeDegrees>-4.075191803276538848876953125</LongitudeDegrees>
            </Position>
            <AltitudeMeters>1358.4000244140625</AltitudeMeters>
            <DistanceMeters>4281.5554136869</DistanceMeters>
          </Trackpoint>
          <Trackpoint>
            <Time>2018-12-30T09:56:16.000Z</Time>
            <Position>
              <LatitudeDegrees>40.76194203458726406097412109375</LatitudeDegrees>
              <LongitudeDegrees>-4.07518719322979450225830078125</LongitudeDegrees>
            </Position>
            <AltitudeMeters>1358.199951171875</AltitudeMeters>
            <DistanceMeters>4283.1081629939</DistanceMeters>
          </Trackpoint>
          <Trackpoint>
            <Time>2018-12-30T09:56:17.000Z</Time>
            <Position>
              <LatitudeDegrees>40.76195695437490940093994140625</LatitudeDegrees>
              <LongitudeDegrees>-4.0751772187650203704833984375</LongitudeDegrees>
            </Position>
            <AltitudeMeters>1358</AltitudeMeters>
            <DistanceMeters>4284.970298691</DistanceMeters>
          </Trackpoint>
          <Trackpoint>
            <Time>2018-12-30T09:56:18.000Z</Time>
            <Position>
              <LatitudeDegrees>40.76196868903934955596923828125</LatitudeDegrees>
              <LongitudeDegrees>-4.0751654841005802154541015625</LongitudeDegrees>
            </Position>
            <AltitudeMeters>1358</AltitudeMeters>
            <DistanceMeters>4286.6052001032</DistanceMeters>
          </Trackpoint>
          <Trackpoint>
            <Time>2018-12-30T09:56:19.000Z</Time>
            <Position>
              <LatitudeDegrees>40.7619808427989482879638671875</LatitudeDegrees>
              <LongitudeDegrees>-4.0751534141600131988525390625</LongitudeDegrees>
            </Position>
            <AltitudeMeters>1357.800048828125</AltitudeMeters>
            <DistanceMeters>4288.2997691661</DistanceMeters>
          </Trackpoint>
          <Trackpoint>
            <Time>2018-12-30T09:56:20.000Z</Time>
            <Position>
              <LatitudeDegrees>40.7619892247021198272705078125</LatitudeDegrees>
              <LongitudeDegrees>-4.075144194066524505615234375</LongitudeDegrees>
            </Position>
            <AltitudeMeters>1357.800048828125</AltitudeMeters>
            <DistanceMeters>4289.5167048821</DistanceMeters>
          </Trackpoint>
          <Trackpoint>
            <Time>2018-12-30T09:56:21.000Z</Time>
            <Position>
              <LatitudeDegrees>40.76200188137590885162353515625</LatitudeDegrees>
              <LongitudeDegrees>-4.07513924874365329742431640625</LongitudeDegrees>
            </Position>
            <AltitudeMeters>1357.800048828125</AltitudeMeters>
            <DistanceMeters>4290.9888524109</DistanceMeters>
          </Trackpoint>
          <Trackpoint>
            <Time>2018-12-30T09:56:22.000Z</Time>
            <Position>
              <LatitudeDegrees>40.76201462186872959136962890625</LatitudeDegrees>
              <LongitudeDegrees>-4.075132124125957489013671875</LongitudeDegrees>
            </Position>
            <AltitudeMeters>1357.800048828125</AltitudeMeters>
            <DistanceMeters>4292.5269941561</DistanceMeters>
          </Trackpoint>
          <Trackpoint>
            <Time>2018-12-30T09:56:23.000Z</Time>
            <Position>
              <LatitudeDegrees>40.76202065683901309967041015625</LatitudeDegrees>
              <LongitudeDegrees>-4.07511443831026554107666015625</LongitudeDegrees>
            </Position>
            <AltitudeMeters>1357.800048828125</AltitudeMeters>
            <DistanceMeters>4294.159131574</DistanceMeters>
          </Trackpoint>
          <Trackpoint>
            <Time>2018-12-30T09:56:24.000Z</Time>
            <Position>
              <LatitudeDegrees>40.76203054748475551605224609375</LatitudeDegrees>
              <LongitudeDegrees>-4.0751101635396480560302734375</LongitudeDegrees>
            </Position>
            <AltitudeMeters>1357.800048828125</AltitudeMeters>
            <DistanceMeters>4295.3151814491</DistanceMeters>
          </Trackpoint>
          <Trackpoint>
            <Time>2018-12-30T09:56:25.000Z</Time>
            <Position>
              <LatitudeDegrees>40.7620418630540370941162109375</LatitudeDegrees>
              <LongitudeDegrees>-4.07510605640709400177001953125</LongitudeDegrees>
            </Position>
            <AltitudeMeters>1357.800048828125</AltitudeMeters>
            <DistanceMeters>4296.621582784</DistanceMeters>
          </Trackpoint>
          <Trackpoint>
            <Time>2018-12-30T09:56:26.000Z</Time>
            <Position>
              <LatitudeDegrees>40.76205334626138210296630859375</LatitudeDegrees>
              <LongitudeDegrees>-4.075099267065525054931640625</LongitudeDegrees>
            </Position>
            <AltitudeMeters>1357.800048828125</AltitudeMeters>
            <DistanceMeters>4298.0214136982</DistanceMeters>
          </Trackpoint>
          <Trackpoint>
            <Time>2018-12-30T09:56:27.000Z</Time>
            <Position>
              <LatitudeDegrees>40.76206876896321773529052734375</LatitudeDegrees>
              <LongitudeDegrees>-4.07509314827620983123779296875</LongitudeDegrees>
            </Position>
            <AltitudeMeters>1357.800048828125</AltitudeMeters>
            <DistanceMeters>4299.814374159</DistanceMeters>
          </Trackpoint>
          <Trackpoint>
            <Time>2018-12-30T09:56:28.000Z</Time>
            <Position>
              <LatitudeDegrees>40.76208637095987796783447265625</LatitudeDegrees>
              <LongitudeDegrees>-4.0750877000391483306884765625</LongitudeDegrees>
            </Position>
            <AltitudeMeters>1357.5999755859375</AltitudeMeters>
            <DistanceMeters>4301.8257105921</DistanceMeters>
          </Trackpoint>
          <Trackpoint>
            <Time>2018-12-30T09:56:29.000Z</Time>
            <Position>
              <LatitudeDegrees>40.7621048949658870697021484375</LatitudeDegrees>
              <LongitudeDegrees>-4.07508107833564281463623046875</LongitudeDegrees>
            </Position>
            <AltitudeMeters>1357.5999755859375</AltitudeMeters>
            <DistanceMeters>4303.963283674</DistanceMeters>
          </Trackpoint>
          <Trackpoint>
            <Time>2018-12-30T09:56:30.000Z</Time>
            <Position>
              <LatitudeDegrees>40.76211973093450069427490234375</LatitudeDegrees>
              <LongitudeDegrees>-4.0750702656805515289306640625</LongitudeDegrees>
            </Position>
            <AltitudeMeters>1357.4000244140625</AltitudeMeters>
            <DistanceMeters>4305.8519022685</DistanceMeters>
          </Trackpoint>
          <Trackpoint>
            <Time>2018-12-30T09:56:31.000Z</Time>
            <Position>
              <LatitudeDegrees>40.7621256820857524871826171875</LatitudeDegrees>
              <LongitudeDegrees>-4.07506397925317287445068359375</LongitudeDegrees>
            </Position>
            <AltitudeMeters>1357.4000244140625</AltitudeMeters>
            <DistanceMeters>4306.7018470405</DistanceMeters>
          </Trackpoint>
          <Trackpoint>
            <Time>2018-12-30T09:56:32.000Z</Time>
            <Position>
              <LatitudeDegrees>40.762126855552196502685546875</LatitudeDegrees>
              <LongitudeDegrees>-4.0750586986541748046875</LongitudeDegrees>
            </Position>
            <AltitudeMeters>1357.4000244140625</AltitudeMeters>
            <DistanceMeters>4307.1673809648</DistanceMeters>
          </Trackpoint>
          <Trackpoint>
            <Time>2018-12-30T09:56:33.000Z</Time>
            <Position>
              <LatitudeDegrees>40.7621266879141330718994140625</LatitudeDegrees>
              <LongitudeDegrees>-4.0750504843890666961669921875</LongitudeDegrees>
            </Position>
            <AltitudeMeters>1357.4000244140625</AltitudeMeters>
            <DistanceMeters>4307.8591858878</DistanceMeters>
          </Trackpoint>
          <Trackpoint>
            <Time>2018-12-30T09:56:34.000Z</Time>
            <Position>
              <LatitudeDegrees>40.7621260173618793487548828125</LatitudeDegrees>
              <LongitudeDegrees>-4.07504822127521038055419921875</LongitudeDegrees>
            </Position>
            <AltitudeMeters>1357.4000244140625</AltitudeMeters>
            <DistanceMeters>4308.0492393166</DistanceMeters>
          </Trackpoint>
          <Trackpoint>
            <Time>2018-12-30T09:56:35.000Z</Time>
            <Position>
              <LatitudeDegrees>40.7621253468096256256103515625</LatitudeDegrees>
              <LongitudeDegrees>-4.07504319213330745697021484375</LongitudeDegrees>
            </Position>
            <AltitudeMeters>1357.4000244140625</AltitudeMeters>
            <DistanceMeters>4308.4742117026</DistanceMeters>
          </Trackpoint>
          <Trackpoint>
            <Time>2018-12-30T09:56:36.000Z</Time>
            <Position>
              <LatitudeDegrees>40.76212526299059391021728515625</LatitudeDegrees>
              <LongitudeDegrees>-4.075041599571704864501953125</LongitudeDegrees>
            </Position>
            <AltitudeMeters>1357.4000244140625</AltitudeMeters>
            <DistanceMeters>4308.6085997709</DistanceMeters>
          </Trackpoint>
          <Trackpoint>
            <Time>2018-12-30T09:56:37.000Z</Time>
            <Position>
              <LatitudeDegrees>40.7621245086193084716796875</LatitudeDegrees>
              <LongitudeDegrees>-4.075039587914943695068359375</LongitudeDegrees>
            </Position>
            <AltitudeMeters>1357.4000244140625</AltitudeMeters>
            <DistanceMeters>4308.7986531996</DistanceMeters>
          </Trackpoint>
          <Trackpoint>
            <Time>2018-12-30T09:56:38.000Z</Time>
            <Position>
              <LatitudeDegrees>40.7621253468096256256103515625</LatitudeDegrees>
              <LongitudeDegrees>-4.07503732480108737945556640625</LongitudeDegrees>
            </Position>
            <AltitudeMeters>1357.4000244140625</AltitudeMeters>
            <DistanceMeters>4309.0314201617</DistanceMeters>
          </Trackpoint>
          <Trackpoint>
            <Time>2018-12-30T09:56:39.000Z</Time>
            <Position>
              <LatitudeDegrees>40.76212962158024311065673828125</LatitudeDegrees>
              <LongitudeDegrees>-4.07502978108823299407958984375</LongitudeDegrees>
            </Position>
            <AltitudeMeters>1357.4000244140625</AltitudeMeters>
            <DistanceMeters>4309.8264706954</DistanceMeters>
          </Trackpoint>
          <Trackpoint>
            <Time>2018-12-30T09:56:40.000Z</Time>
            <Position>
              <LatitudeDegrees>40.762132219970226287841796875</LatitudeDegrees>
              <LongitudeDegrees>-4.07502609305083751678466796875</LongitudeDegrees>
            </Position>
            <AltitudeMeters>1357.5999755859375</AltitudeMeters>
            <DistanceMeters>4310.2514430814</DistanceMeters>
          </Trackpoint>
          <Trackpoint>
            <Time>2018-12-30T09:56:41.000Z</Time>
            <Position>
              <LatitudeDegrees>40.7621333934366703033447265625</LatitudeDegrees>
              <LongitudeDegrees>-4.07502274028956890106201171875</LongitudeDegrees>
            </Position>
            <AltitudeMeters>1358</AltitudeMeters>
            <DistanceMeters>4310.566611038</DistanceMeters>
          </Trackpoint>
          <Trackpoint>
            <Time>2018-12-30T09:56:42.000Z</Time>
            <Position>
              <LatitudeDegrees>40.7621379196643829345703125</LatitudeDegrees>
              <LongitudeDegrees>-4.0750199742615222930908203125</LongitudeDegrees>
            </Position>
            <AltitudeMeters>1358.4000244140625</AltitudeMeters>
            <DistanceMeters>4311.1207072383</DistanceMeters>
          </Trackpoint>
          <Trackpoint>
            <Time>2018-12-30T09:56:43.000Z</Time>
            <Position>
              <LatitudeDegrees>40.76214051805436611175537109375</LatitudeDegrees>
              <LongitudeDegrees>-4.07501905225217342376708984375</LongitudeDegrees>
            </Position>
            <AltitudeMeters>1358.5999755859375</AltitudeMeters>
            <DistanceMeters>4311.4212080942</DistanceMeters>
          </Trackpoint>
          <Trackpoint>
            <Time>2018-12-30T09:56:44.000Z</Time>
            <Position>
              <LatitudeDegrees>40.762142948806285858154296875</LatitudeDegrees>
              <LongitudeDegrees>-4.0750199742615222930908203125</LongitudeDegrees>
            </Position>
            <AltitudeMeters>1358.800048828125</AltitudeMeters>
            <DistanceMeters>4311.7217089502</DistanceMeters>
          </Trackpoint>
          <Trackpoint>
            <Time>2018-12-30T09:56:45.000Z</Time>
            <Position>
              <LatitudeDegrees>40.762144625186920166015625</LatitudeDegrees>
              <LongitudeDegrees>-4.0750236622989177703857421875</LongitudeDegrees>
            </Position>
            <AltitudeMeters>1358.800048828125</AltitudeMeters>
            <DistanceMeters>4312.077266358</DistanceMeters>
          </Trackpoint>
          <Trackpoint>
            <Time>2018-12-30T09:56:46.000Z</Time>
            <Position>
              <LatitudeDegrees>40.7621454633772373199462890625</LatitudeDegrees>
              <LongitudeDegrees>-4.07502626068890094757080078125</LongitudeDegrees>
            </Position>
            <AltitudeMeters>1358.800048828125</AltitudeMeters>
            <DistanceMeters>4312.3100333201</DistanceMeters>
          </Trackpoint>
          <Trackpoint>
            <Time>2018-12-30T09:56:47.000Z</Time>
            <Position>
              <LatitudeDegrees>40.76214621774852275848388671875</LatitudeDegrees>
              <LongitudeDegrees>-4.0750286914408206939697265625</LongitudeDegrees>
            </Position>
            <AltitudeMeters>1358.800048828125</AltitudeMeters>
            <DistanceMeters>4312.5428002822</DistanceMeters>
          </Trackpoint>
          <Trackpoint>
            <Time>2018-12-30T09:56:48.000Z</Time>
            <Position>
              <LatitudeDegrees>40.76214906759560108184814453125</LatitudeDegrees>
              <LongitudeDegrees>-4.0750332176685333251953125</LongitudeDegrees>
            </Position>
            <AltitudeMeters>1358.800048828125</AltitudeMeters>
            <DistanceMeters>4313.0365735743</DistanceMeters>
          </Trackpoint>
          <Trackpoint>
            <Time>2018-12-30T09:56:49.000Z</Time>
            <Position>
              <LatitudeDegrees>40.76214772649109363555908203125</LatitudeDegrees>
              <LongitudeDegrees>-4.07503782771527767181396484375</LongitudeDegrees>
            </Position>
            <AltitudeMeters>1358.800048828125</AltitudeMeters>
            <DistanceMeters>4313.4615459604</DistanceMeters>
          </Trackpoint>
          <Trackpoint>
            <Time>2018-12-30T09:56:50.000Z</Time>
            <Position>
              <LatitudeDegrees>40.76215736567974090576171875</LatitudeDegrees>
              <LongitudeDegrees>-4.0750424377620220184326171875</LongitudeDegrees>
            </Position>
            <AltitudeMeters>1358.5999755859375</AltitudeMeters>
            <DistanceMeters>4314.6018665328</DistanceMeters>
          </Trackpoint>
          <Trackpoint>
            <Time>2018-12-30T09:56:51.000Z</Time>
            <Position>
              <LatitudeDegrees>40.76216247864067554473876953125</LatitudeDegrees>
              <LongitudeDegrees>-4.0750467963516712188720703125</LongitudeDegrees>
            </Position>
            <AltitudeMeters>1358.5999755859375</AltitudeMeters>
            <DistanceMeters>4315.273806874</DistanceMeters>
          </Trackpoint>
          <Trackpoint>
            <Time>2018-12-30T09:56:52.000Z</Time>
            <Position>
              <LatitudeDegrees>40.762166418135166168212890625</LatitudeDegrees>
              <LongitudeDegrees>-4.075045622885227203369140625</LongitudeDegrees>
            </Position>
            <AltitudeMeters>1358.5999755859375</AltitudeMeters>
            <DistanceMeters>4315.7195216727</DistanceMeters>
          </Trackpoint>
          <Trackpoint>
            <Time>2018-12-30T09:56:53.000Z</Time>
            <Position>
              <LatitudeDegrees>40.76217035762965679168701171875</LatitudeDegrees>
              <LongitudeDegrees>-4.07503900118172168731689453125</LongitudeDegrees>
            </Position>
            <AltitudeMeters>1358.5999755859375</AltitudeMeters>
            <DistanceMeters>4316.4242586481</DistanceMeters>
          </Trackpoint>
          <Trackpoint>
            <Time>2018-12-30T09:56:54.000Z</Time>
            <Position>
              <LatitudeDegrees>40.76217622496187686920166015625</LatitudeDegrees>
              <LongitudeDegrees>-4.07503497786819934844970703125</LongitudeDegrees>
            </Position>
            <AltitudeMeters>1358.5999755859375</AltitudeMeters>
            <DistanceMeters>4317.1603324125</DistanceMeters>
          </Trackpoint>
          <Trackpoint>
            <Time>2018-12-30T09:56:55.000Z</Time>
            <Position>
              <LatitudeDegrees>40.76218175701797008514404296875</LatitudeDegrees>
              <LongitudeDegrees>-4.0750343911349773406982421875</LongitudeDegrees>
            </Position>
            <AltitudeMeters>1358.5999755859375</AltitudeMeters>
            <DistanceMeters>4317.7761759077</DistanceMeters>
          </Trackpoint>
          <Trackpoint>
            <Time>2018-12-30T09:56:56.000Z</Time>
            <Position>
              <LatitudeDegrees>40.7621920667588710784912109375</LatitudeDegrees>
              <LongitudeDegrees>-4.0750360675156116485595703125</LongitudeDegrees>
            </Position>
            <AltitudeMeters>1358.800048828125</AltitudeMeters>
            <DistanceMeters>4318.9322257828</DistanceMeters>
          </Trackpoint>
          <Trackpoint>
            <Time>2018-12-30T09:56:57.000Z</Time>
            <Position>
              <LatitudeDegrees>40.76220220886170864105224609375</LatitudeDegrees>
              <LongitudeDegrees>-4.07504168339073657989501953125</LongitudeDegrees>
            </Position>
            <AltitudeMeters>1358.800048828125</AltitudeMeters>
            <DistanceMeters>4320.1565593524</DistanceMeters>
          </Trackpoint>
          <Trackpoint>
            <Time>2018-12-30T09:56:58.000Z</Time>
            <Position>
              <LatitudeDegrees>40.7622103393077850341796875</LatitudeDegrees>
              <LongitudeDegrees>-4.075048305094242095947265625</LongitudeDegrees>
            </Position>
            <AltitudeMeters>1358.800048828125</AltitudeMeters>
            <DistanceMeters>4321.21473206</DistanceMeters>
          </Trackpoint>
          <Trackpoint>
            <Time>2018-12-30T09:56:59.000Z</Time>
            <Position>
              <LatitudeDegrees>40.7622111774981021881103515625</LatitudeDegrees>
              <LongitudeDegrees>-4.07504838891327381134033203125</LongitudeDegrees>
            </Position>
            <AltitudeMeters>1358.800048828125</AltitudeMeters>
            <DistanceMeters>4321.3491201283</DistanceMeters>
          </Trackpoint>
          <Trackpoint>
            <Time>2018-12-30T09:57:00.000Z</Time>
            <Position>
              <LatitudeDegrees>40.76221159659326076507568359375</LatitudeDegrees>
              <LongitudeDegrees>-4.0750481374561786651611328125</LongitudeDegrees>
            </Position>
            <AltitudeMeters>1358.5999755859375</AltitudeMeters>
            <DistanceMeters>4321.3491201283</DistanceMeters>
          </Trackpoint>
          <Trackpoint>
            <Time>2018-12-30T09:57:01.000Z</Time>
            <Position>
              <LatitudeDegrees>40.76221159659326076507568359375</LatitudeDegrees>
              <LongitudeDegrees>-4.07504729926586151123046875</LongitudeDegrees>
            </Position>
            <AltitudeMeters>1358.5999755859375</AltitudeMeters>
            <DistanceMeters>4321.3491201283</DistanceMeters>
          </Trackpoint>
          <Trackpoint>
            <Time>2018-12-30T09:57:02.000Z</Time>
            <Position>
              <LatitudeDegrees>40.7622115127742290496826171875</LatitudeDegrees>
              <LongitudeDegrees>-4.075045287609100341796875</LongitudeDegrees>
            </Position>
            <AltitudeMeters>1358.5999755859375</AltitudeMeters>
            <DistanceMeters>4321.539173557</DistanceMeters>
          </Trackpoint>
          <Trackpoint>
            <Time>2018-12-30T09:57:03.000Z</Time>
            <Position>
              <LatitudeDegrees>40.76221059076488018035888671875</LatitudeDegrees>
              <LongitudeDegrees>-4.0750439465045928955078125</LongitudeDegrees>
            </Position>
            <AltitudeMeters>1358.5999755859375</AltitudeMeters>
            <DistanceMeters>4321.7037646544</DistanceMeters>
          </Trackpoint>
          <Trackpoint>
            <Time>2018-12-30T09:57:04.000Z</Time>
            <Position>
              <LatitudeDegrees>40.76220874674618244171142578125</LatitudeDegrees>
              <LongitudeDegrees>-4.07504067756235599517822265625</LongitudeDegrees>
            </Position>
            <AltitudeMeters>1358.5999755859375</AltitudeMeters>
            <DistanceMeters>4322.0593220621</DistanceMeters>
          </Trackpoint>
          <Trackpoint>
            <Time>2018-12-30T09:57:05.000Z</Time>
            <Position>
              <LatitudeDegrees>40.76220941729843616485595703125</LatitudeDegrees>
              <LongitudeDegrees>-4.07504503615200519561767578125</LongitudeDegrees>
            </Position>
            <AltitudeMeters>1358.5999755859375</AltitudeMeters>
            <DistanceMeters>4322.4394289196</DistanceMeters>
          </Trackpoint>
          <Trackpoint>
            <Time>2018-12-30T09:57:06.000Z</Time>
            <Position>
              <LatitudeDegrees>40.76221310533583164215087890625</LatitudeDegrees>
              <LongitudeDegrees>-4.07504771836102008819580078125</LongitudeDegrees>
            </Position>
            <AltitudeMeters>1358.4000244140625</AltitudeMeters>
            <DistanceMeters>4322.9145624915</DistanceMeters>
          </Trackpoint>
          <Trackpoint>
            <Time>2018-12-30T09:57:07.000Z</Time>
            <Position>
              <LatitudeDegrees>40.76221637427806854248046875</LatitudeDegrees>
              <LongitudeDegrees>-4.0750541724264621734619140625</LongitudeDegrees>
            </Position>
            <AltitudeMeters>1358.4000244140625</AltitudeMeters>
            <DistanceMeters>4323.5729268809</DistanceMeters>
          </Trackpoint>
          <Trackpoint>
            <Time>2018-12-30T09:57:08.000Z</Time>
            <Position>
              <LatitudeDegrees>40.762218721210956573486328125</LatitudeDegrees>
              <LongitudeDegrees>-4.07505526207387447357177734375</LongitudeDegrees>
            </Position>
            <AltitudeMeters>1358.4000244140625</AltitudeMeters>
            <DistanceMeters>4323.858007024</DistanceMeters>
          </Trackpoint>
          <Trackpoint>
            <Time>2018-12-30T09:57:09.000Z</Time>
            <Position>
              <LatitudeDegrees>40.76222266070544719696044921875</LatitudeDegrees>
              <LongitudeDegrees>-4.07505727373063564300537109375</LongitudeDegrees>
            </Position>
            <AltitudeMeters>1358.4000244140625</AltitudeMeters>
            <DistanceMeters>4324.3235409483</DistanceMeters>
          </Trackpoint>
          <Trackpoint>
            <Time>2018-12-30T09:57:10.000Z</Time>
            <Position>
              <LatitudeDegrees>40.76222844421863555908203125</LatitudeDegrees>
              <LongitudeDegrees>-4.07505660317838191986083984375</LongitudeDegrees>
            </Position>
            <AltitudeMeters>1358.4000244140625</AltitudeMeters>
            <DistanceMeters>4324.9750112798</DistanceMeters>
          </Trackpoint>
          <Trackpoint>
            <Time>2018-12-30T09:57:11.000Z</Time>
            <Position>
              <LatitudeDegrees>40.76223690994083881378173828125</LatitudeDegrees>
              <LongitudeDegrees>-4.0750541724264621734619140625</LongitudeDegrees>
            </Position>
            <AltitudeMeters>1358.199951171875</AltitudeMeters>
            <DistanceMeters>4325.9440974216</DistanceMeters>
          </Trackpoint>
          <Trackpoint>
            <Time>2018-12-30T09:57:12.000Z</Time>
            <Position>
              <LatitudeDegrees>40.76224512420594692230224609375</LatitudeDegrees>
              <LongitudeDegrees>-4.07505274750292301177978515625</LongitudeDegrees>
            </Position>
            <AltitudeMeters>1358.199951171875</AltitudeMeters>
            <DistanceMeters>4326.8751652702</DistanceMeters>
          </Trackpoint>
          <Trackpoint>
            <Time>2018-12-30T09:57:13.000Z</Time>
            <Position>
              <LatitudeDegrees>40.76225551776587963104248046875</LatitudeDegrees>
              <LongitudeDegrees>-4.0750493109226226806640625</LongitudeDegrees>
            </Position>
            <AltitudeMeters>1358.199951171875</AltitudeMeters>
            <DistanceMeters>4328.0658465885</DistanceMeters>
          </Trackpoint>
          <Trackpoint>
            <Time>2018-12-30T09:57:14.000Z</Time>
            <Position>
              <LatitudeDegrees>40.76226540841162204742431640625</LatitudeDegrees>
              <LongitudeDegrees>-4.07504838891327381134033203125</LongitudeDegrees>
            </Position>
            <AltitudeMeters>1358</AltitudeMeters>
            <DistanceMeters>4329.1740389889</DistanceMeters>
          </Trackpoint>
          <Trackpoint>
            <Time>2018-12-30T09:57:15.000Z</Time>
            <Position>
              <LatitudeDegrees>40.762283094227313995361328125</LatitudeDegrees>
              <LongitudeDegrees>-4.07504872418940067291259765625</LongitudeDegrees>
            </Position>
            <AltitudeMeters>1358</AltitudeMeters>
            <DistanceMeters>4331.1445548784</DistanceMeters>
          </Trackpoint>
          <Trackpoint>
            <Time>2018-12-30T09:57:16.000Z</Time>
            <Position>
              <LatitudeDegrees>40.76229558326303958892822265625</LatitudeDegrees>
              <LongitudeDegrees>-4.07504252158105373382568359375</LongitudeDegrees>
            </Position>
            <AltitudeMeters>1358</AltitudeMeters>
            <DistanceMeters>4332.6289196086</DistanceMeters>
          </Trackpoint>
          <Trackpoint>
            <Time>2018-12-30T09:57:17.000Z</Time>
            <Position>
              <LatitudeDegrees>40.76231293380260467529296875</LatitudeDegrees>
              <LongitudeDegrees>-4.07503631897270679473876953125</LongitudeDegrees>
            </Position>
            <AltitudeMeters>1358</AltitudeMeters>
            <DistanceMeters>4334.6290005732</DistanceMeters>
          </Trackpoint>
          <Trackpoint>
            <Time>2018-12-30T09:57:18.000Z</Time>
            <Position>
              <LatitudeDegrees>40.76232827268540859222412109375</LatitudeDegrees>
              <LongitudeDegrees>-4.07502927817404270172119140625</LongitudeDegrees>
            </Position>
            <AltitudeMeters>1358</AltitudeMeters>
            <DistanceMeters>4336.4370071198</DistanceMeters>
          </Trackpoint>
          <Trackpoint>
            <Time>2018-12-30T09:57:19.000Z</Time>
            <Position>
              <LatitudeDegrees>40.7623390853404998779296875</LatitudeDegrees>
              <LongitudeDegrees>-4.07502408139407634735107421875</LongitudeDegrees>
            </Position>
            <AltitudeMeters>1358</AltitudeMeters>
            <DistanceMeters>4337.7189875849</DistanceMeters>
          </Trackpoint>
          <Trackpoint>
            <Time>2018-12-30T09:57:20.000Z</Time>
            <Position>
              <LatitudeDegrees>40.7623553462326526641845703125</LatitudeDegrees>
              <LongitudeDegrees>-4.07501687295734882354736328125</LongitudeDegrees>
            </Position>
            <AltitudeMeters>1358</AltitudeMeters>
            <DistanceMeters>4339.6290009051</DistanceMeters>
          </Trackpoint>
          <Trackpoint>
            <Time>2018-12-30T09:57:21.000Z</Time>
            <Position>
              <LatitudeDegrees>40.762366242706775665283203125</LatitudeDegrees>
              <LongitudeDegrees>-4.07501033507287502288818359375</LongitudeDegrees>
            </Position>
            <AltitudeMeters>1358</AltitudeMeters>
            <DistanceMeters>4340.9627643997</DistanceMeters>
          </Trackpoint>
          <Trackpoint>
            <Time>2018-12-30T09:57:22.000Z</Time>
            <Position>
              <LatitudeDegrees>40.76237521134316921234130859375</LatitudeDegrees>
              <LongitudeDegrees>-4.0750042162835597991943359375</LongitudeDegrees>
            </Position>
            <AltitudeMeters>1358.199951171875</AltitudeMeters>
            <DistanceMeters>4342.0831128391</DistanceMeters>
          </Trackpoint>
          <Trackpoint>
            <Time>2018-12-30T09:57:23.000Z</Time>
            <Position>
              <LatitudeDegrees>40.76238476671278476715087890625</LatitudeDegrees>
              <LongitudeDegrees>-4.07499927096068859100341796875</LongitudeDegrees>
            </Position>
            <AltitudeMeters>1358.199951171875</AltitudeMeters>
            <DistanceMeters>4343.2234334115</DistanceMeters>
          </Trackpoint>
          <Trackpoint>
            <Time>2018-12-30T09:57:24.000Z</Time>
            <Position>
              <LatitudeDegrees>40.762394405901432037353515625</LatitudeDegrees>
              <LongitudeDegrees>-4.07498963177204132080078125</LongitudeDegrees>
            </Position>
            <AltitudeMeters>1358.199951171875</AltitudeMeters>
            <DistanceMeters>4344.567314094</DistanceMeters>
          </Trackpoint>
          <Trackpoint>
            <Time>2018-12-30T09:57:25.000Z</Time>
            <Position>
              <LatitudeDegrees>40.7624061405658721923828125</LatitudeDegrees>
              <LongitudeDegrees>-4.07498284243047237396240234375</LongitudeDegrees>
            </Position>
            <AltitudeMeters>1358.199951171875</AltitudeMeters>
            <DistanceMeters>4345.9927148096</DistanceMeters>
          </Trackpoint>
          <Trackpoint>
            <Time>2018-12-30T09:57:26.000Z</Time>
            <Position>
              <LatitudeDegrees>40.76241561211645603179931640625</LatitudeDegrees>
              <LongitudeDegrees>-4.0749770589172840118408203125</LongitudeDegrees>
            </Position>
            <AltitudeMeters>1358.4000244140625</AltitudeMeters>
            <DistanceMeters>4347.1526636835</DistanceMeters>
          </Trackpoint>
          <Trackpoint>
            <Time>2018-12-30T09:57:27.000Z</Time>
            <Position>
              <LatitudeDegrees>40.7624254189431667327880859375</LatitudeDegrees>
              <LongitudeDegrees>-4.07497110776603221893310546875</LongitudeDegrees>
            </Position>
            <AltitudeMeters>1358.4000244140625</AltitudeMeters>
            <DistanceMeters>4348.3546671074</DistanceMeters>
          </Trackpoint>
          <Trackpoint>
            <Time>2018-12-30T09:57:28.000Z</Time>
            <Position>
              <LatitudeDegrees>40.76243338175117969512939453125</LatitudeDegrees>
              <LongitudeDegrees>-4.0749527513980865478515625</LongitudeDegrees>
            </Position>
            <AltitudeMeters>1358.4000244140625</AltitudeMeters>
            <DistanceMeters>4350.1375263021</DistanceMeters>
          </Trackpoint>
          <Trackpoint>
            <Time>2018-12-30T09:57:29.000Z</Time>
            <Position>
              <LatitudeDegrees>40.76244679279625415802001953125</LatitudeDegrees>
              <LongitudeDegrees>-4.07494311220943927764892578125</LongitudeDegrees>
            </Position>
            <AltitudeMeters>1358.4000244140625</AltitudeMeters>
            <DistanceMeters>4351.8374158462</DistanceMeters>
          </Trackpoint>
          <Trackpoint>
            <Time>2018-12-30T09:57:30.000Z</Time>
            <Position>
              <LatitudeDegrees>40.76245383359491825103759765625</LatitudeDegrees>
              <LongitudeDegrees>-4.074931629002094268798828125</LongitudeDegrees>
            </Position>
            <AltitudeMeters>1358.5999755859375</AltitudeMeters>
            <DistanceMeters>4353.0836795215</DistanceMeters>
          </Trackpoint>
          <Trackpoint>
            <Time>2018-12-30T09:57:31.000Z</Time>
            <Position>
              <LatitudeDegrees>40.7624633051455020904541015625</LatitudeDegrees>
              <LongitudeDegrees>-4.07491981051862239837646484375</LongitudeDegrees>
            </Position>
            <AltitudeMeters>1358.5999755859375</AltitudeMeters>
            <DistanceMeters>4354.5373087342</DistanceMeters>
          </Trackpoint>
          <Trackpoint>
            <Time>2018-12-30T09:57:32.000Z</Time>
            <Position>
              <LatitudeDegrees>40.76247428543865680694580078125</LatitudeDegrees>
              <LongitudeDegrees>-4.0749083273112773895263671875</LongitudeDegrees>
            </Position>
            <AltitudeMeters>1358.800048828125</AltitudeMeters>
            <DistanceMeters>4356.0958627318</DistanceMeters>
          </Trackpoint>
          <Trackpoint>
            <Time>2018-12-30T09:57:33.000Z</Time>
            <Position>
              <LatitudeDegrees>40.7624834217131137847900390625</LatitudeDegrees>
              <LongitudeDegrees>-4.074900113046169281005859375</LongitudeDegrees>
            </Position>
            <AltitudeMeters>1359</AltitudeMeters>
            <DistanceMeters>4357.3275497223</DistanceMeters>
          </Trackpoint>
          <Trackpoint>
            <Time>2018-12-30T09:57:34.000Z</Time>
            <Position>
              <LatitudeDegrees>40.76248954050242900848388671875</LatitudeDegrees>
              <LongitudeDegrees>-4.07487991265952587127685546875</LongitudeDegrees>
            </Position>
            <AltitudeMeters>1359.199951171875</AltitudeMeters>
            <DistanceMeters>4359.1628204144</DistanceMeters>
          </Trackpoint>
          <Trackpoint>
            <Time>2018-12-30T09:57:35.000Z</Time>
            <Position>
              <LatitudeDegrees>40.76249708421528339385986328125</LatitudeDegrees>
              <LongitudeDegrees>-4.0748741291463375091552734375</LongitudeDegrees>
            </Position>
            <AltitudeMeters>1359.199951171875</AltitudeMeters>
            <DistanceMeters>4360.1319065562</DistanceMeters>
          </Trackpoint>
          <Trackpoint>
            <Time>2018-12-30T09:57:36.000Z</Time>
            <Position>
              <LatitudeDegrees>40.7625146023929119110107421875</LatitudeDegrees>
              <LongitudeDegrees>-4.0748830139636993408203125</LongitudeDegrees>
            </Position>
            <AltitudeMeters>1359.4000244140625</AltitudeMeters>
            <DistanceMeters>4362.2181704048</DistanceMeters>
          </Trackpoint>
          <Trackpoint>
            <Time>2018-12-30T09:57:37.000Z</Time>
            <Position>
              <LatitudeDegrees>40.76252910308539867401123046875</LatitudeDegrees>
              <LongitudeDegrees>-4.07488209195435047149658203125</LongitudeDegrees>
            </Position>
            <AltitudeMeters>1359.800048828125</AltitudeMeters>
            <DistanceMeters>4363.8364170389</DistanceMeters>
          </Trackpoint>
          <Trackpoint>
            <Time>2018-12-30T09:57:38.000Z</Time>
            <Position>
              <LatitudeDegrees>40.762541927397251129150390625</LatitudeDegrees>
              <LongitudeDegrees>-4.0748830139636993408203125</LongitudeDegrees>
            </Position>
            <AltitudeMeters>1360.199951171875</AltitudeMeters>
            <DistanceMeters>4365.2681388529</DistanceMeters>
          </Trackpoint>
          <Trackpoint>
            <Time>2018-12-30T09:57:39.000Z</Time>
            <Position>
              <LatitudeDegrees>40.7625565119087696075439453125</LatitudeDegrees>
              <LongitudeDegrees>-4.07488276250660419464111328125</LongitudeDegrees>
            </Position>
            <AltitudeMeters>1360.4000244140625</AltitudeMeters>
            <DistanceMeters>4366.8919560599</DistanceMeters>
          </Trackpoint>
          <Trackpoint>
            <Time>2018-12-30T09:57:40.000Z</Time>
            <Position>
              <LatitudeDegrees>40.76257067732512950897216796875</LatitudeDegrees>
              <LongitudeDegrees>-4.074879996478557586669921875</LongitudeDegrees>
            </Position>
            <AltitudeMeters>1360.4000244140625</AltitudeMeters>
            <DistanceMeters>4368.4848940627</DistanceMeters>
          </Trackpoint>
          <Trackpoint>
            <Time>2018-12-30T09:57:41.000Z</Time>
            <Position>
              <LatitudeDegrees>40.7625876925885677337646484375</LatitudeDegrees>
              <LongitudeDegrees>-4.0748768113553524017333984375</LongitudeDegrees>
            </Position>
            <AltitudeMeters>1360.5999755859375</AltitudeMeters>
            <DistanceMeters>4370.3972697998</DistanceMeters>
          </Trackpoint>
          <Trackpoint>
            <Time>2018-12-30T09:57:42.000Z</Time>
            <Position>
              <LatitudeDegrees>40.7626034505665302276611328125</LatitudeDegrees>
              <LongitudeDegrees>-4.07487622462213039398193359375</LongitudeDegrees>
            </Position>
            <AltitudeMeters>1360.5999755859375</AltitudeMeters>
            <DistanceMeters>4372.1494758353</DistanceMeters>
          </Trackpoint>
          <Trackpoint>
            <Time>2018-12-30T09:57:43.000Z</Time>
            <Position>
              <LatitudeDegrees>40.76262784190475940704345703125</LatitudeDegrees>
              <LongitudeDegrees>-4.07488293014466762542724609375</LongitudeDegrees>
            </Position>
            <AltitudeMeters>1360.800048828125</AltitudeMeters>
            <DistanceMeters>4374.9232143108</DistanceMeters>
          </Trackpoint>
          <Trackpoint>
            <Time>2018-12-30T09:57:44.000Z</Time>
            <Position>
              <LatitudeDegrees>40.762643516063690185546875</LatitudeDegrees>
              <LongitudeDegrees>-4.07488770782947540283203125</LongitudeDegrees>
            </Position>
            <AltitudeMeters>1360.800048828125</AltitudeMeters>
            <DistanceMeters>4376.7136547978</DistanceMeters>
          </Trackpoint>
          <Trackpoint>
            <Time>2018-12-30T09:57:45.000Z</Time>
            <Position>
              <LatitudeDegrees>40.76266086660325527191162109375</LatitudeDegrees>
              <LongitudeDegrees>-4.07489164732396602630615234375</LongitudeDegrees>
            </Position>
            <AltitudeMeters>1360.5999755859375</AltitudeMeters>
            <DistanceMeters>4378.6726807008</DistanceMeters>
          </Trackpoint>
          <Trackpoint>
            <Time>2018-12-30T09:57:46.000Z</Time>
            <Position>
              <LatitudeDegrees>40.7626783847808837890625</LatitudeDegrees>
              <LongitudeDegrees>-4.0748964250087738037109375</LongitudeDegrees>
            </Position>
            <AltitudeMeters>1360.5999755859375</AltitudeMeters>
            <DistanceMeters>4380.6659778777</DistanceMeters>
          </Trackpoint>
          <Trackpoint>
            <Time>2018-12-30T09:57:47.000Z</Time>
            <Position>
              <LatitudeDegrees>40.76269472949206829071044921875</LatitudeDegrees>
              <LongitudeDegrees>-4.07490069977939128875732421875</LongitudeDegrees>
            </Position>
            <AltitudeMeters>1360.5999755859375</AltitudeMeters>
            <DistanceMeters>4382.5183895622</DistanceMeters>
          </Trackpoint>
          <Trackpoint>
            <Time>2018-12-30T09:57:48.000Z</Time>
            <Position>
              <LatitudeDegrees>40.76271258294582366943359375</LatitudeDegrees>
              <LongitudeDegrees>-4.07490204088389873504638671875</LongitudeDegrees>
            </Position>
            <AltitudeMeters>1360.5999755859375</AltitudeMeters>
            <DistanceMeters>4384.5071513585</DistanceMeters>
          </Trackpoint>
          <Trackpoint>
            <Time>2018-12-30T09:57:49.000Z</Time>
            <Position>
              <LatitudeDegrees>40.762729011476039886474609375</LatitudeDegrees>
              <LongitudeDegrees>-4.07490589655935764312744140625</LongitudeDegrees>
            </Position>
            <AltitudeMeters>1360.5999755859375</AltitudeMeters>
            <DistanceMeters>4386.3644314132</DistanceMeters>
          </Trackpoint>
          <Trackpoint>
            <Time>2018-12-30T09:57:50.000Z</Time>
            <Position>
              <LatitudeDegrees>40.7627440989017486572265625</LatitudeDegrees>
              <LongitudeDegrees>-4.0749110095202922821044921875</LongitudeDegrees>
            </Position>
            <AltitudeMeters>1360.5999755859375</AltitudeMeters>
            <DistanceMeters>4388.1011079899</DistanceMeters>
          </Trackpoint>
          <Trackpoint>
            <Time>2018-12-30T09:57:51.000Z</Time>
            <Position>
              <LatitudeDegrees>40.76275658793747425079345703125</LatitudeDegrees>
              <LongitudeDegrees>-4.0749143622815608978271484375</LongitudeDegrees>
            </Position>
            <AltitudeMeters>1360.800048828125</AltitudeMeters>
            <DistanceMeters>4389.5201594502</DistanceMeters>
          </Trackpoint>
          <Trackpoint>
            <Time>2018-12-30T09:57:52.000Z</Time>
            <Position>
              <LatitudeDegrees>40.7627684064209461212158203125</LatitudeDegrees>
              <LongitudeDegrees>-4.07491913996636867523193359375</LongitudeDegrees>
            </Position>
            <AltitudeMeters>1361</AltitudeMeters>
            <DistanceMeters>4390.8972273691</DistanceMeters>
          </Trackpoint>
          <Trackpoint>
            <Time>2018-12-30T09:57:53.000Z</Time>
            <Position>
              <LatitudeDegrees>40.76278206892311573028564453125</LatitudeDegrees>
              <LongitudeDegrees>-4.074919223785400390625</LongitudeDegrees>
            </Position>
            <AltitudeMeters>1361</AltitudeMeters>
            <DistanceMeters>4392.417654799</DistanceMeters>
          </Trackpoint>
          <Trackpoint>
            <Time>2018-12-30T09:57:54.000Z</Time>
            <Position>
              <LatitudeDegrees>40.76279413886368274688720703125</LatitudeDegrees>
              <LongitudeDegrees>-4.07492584548890590667724609375</LongitudeDegrees>
            </Position>
            <AltitudeMeters>1361.199951171875</AltitudeMeters>
            <DistanceMeters>4393.8681746408</DistanceMeters>
          </Trackpoint>
          <Trackpoint>
            <Time>2018-12-30T09:57:55.000Z</Time>
            <Position>
              <LatitudeDegrees>40.76280654408037662506103515625</LatitudeDegrees>
              <LongitudeDegrees>-4.07493037171661853790283203125</LongitudeDegrees>
            </Position>
            <AltitudeMeters>1361</AltitudeMeters>
            <DistanceMeters>4395.2998964549</DistanceMeters>
          </Trackpoint>
          <Trackpoint>
            <Time>2018-12-30T09:57:56.000Z</Time>
            <Position>
              <LatitudeDegrees>40.762814171612262725830078125</LatitudeDegrees>
              <LongitudeDegrees>-4.07493690960109233856201171875</LongitudeDegrees>
            </Position>
            <AltitudeMeters>1361</AltitudeMeters>
            <DistanceMeters>4396.3145041202</DistanceMeters>
          </Trackpoint>
          <Trackpoint>
            <Time>2018-12-30T09:57:57.000Z</Time>
            <Position>
              <LatitudeDegrees>40.76281760819256305694580078125</LatitudeDegrees>
              <LongitudeDegrees>-4.07493732869625091552734375</LongitudeDegrees>
            </Position>
            <AltitudeMeters>1360.800048828125</AltitudeMeters>
            <DistanceMeters>4396.6946109777</DistanceMeters>
          </Trackpoint>
          <Trackpoint>
            <Time>2018-12-30T09:57:58.000Z</Time>
            <Position>
              <LatitudeDegrees>40.7628220506012439727783203125</LatitudeDegrees>
              <LongitudeDegrees>-4.07493690960109233856201171875</LongitudeDegrees>
            </Position>
            <AltitudeMeters>1360.5999755859375</AltitudeMeters>
            <DistanceMeters>4397.1791540486</DistanceMeters>
          </Trackpoint>
          <Trackpoint>
            <Time>2018-12-30T09:57:59.000Z</Time>
            <Position>
              <LatitudeDegrees>40.7628314383327960968017578125</LatitudeDegrees>
              <LongitudeDegrees>-4.0749351494014263153076171875</LongitudeDegrees>
            </Position>
            <AltitudeMeters>1360.5999755859375</AltitudeMeters>
            <DistanceMeters>4398.2373267562</DistanceMeters>
          </Trackpoint>
          <Trackpoint>
            <Time>2018-12-30T09:58:00.000Z</Time>
            <Position>
              <LatitudeDegrees>40.76283873058855533599853515625</LatitudeDegrees>
              <LongitudeDegrees>-4.07493841834366321563720703125</LongitudeDegrees>
            </Position>
            <AltitudeMeters>1360.4000244140625</AltitudeMeters>
            <DistanceMeters>4399.0978302532</DistanceMeters>
          </Trackpoint>
          <Trackpoint>
            <Time>2018-12-30T09:58:01.000Z</Time>
            <Position>
              <LatitudeDegrees>40.76284803450107574462890625</LatitudeDegrees>
              <LongitudeDegrees>-4.07494529150426387786865234375</LongitudeDegrees>
            </Position>
            <AltitudeMeters>1360.199951171875</AltitudeMeters>
            <DistanceMeters>4400.2847135353</DistanceMeters>
          </Trackpoint>
          <Trackpoint>
            <Time>2018-12-30T09:58:02.000Z</Time>
            <Position>
              <LatitudeDegrees>40.76285876333713531494140625</LatitudeDegrees>
              <LongitudeDegrees>-4.07495182938873767852783203125</LongitudeDegrees>
            </Position>
            <AltitudeMeters>1360</AltitudeMeters>
            <DistanceMeters>4401.6014423142</DistanceMeters>
          </Trackpoint>
          <Trackpoint>
            <Time>2018-12-30T09:58:03.000Z</Time>
            <Position>
              <LatitudeDegrees>40.76286890543997287750244140625</LatitudeDegrees>
              <LongitudeDegrees>-4.07495769672095775604248046875</LongitudeDegrees>
            </Position>
            <AltitudeMeters>1360</AltitudeMeters>
            <DistanceMeters>4402.8331293047</DistanceMeters>
          </Trackpoint>
          <Trackpoint>
            <Time>2018-12-30T09:58:04.000Z</Time>
            <Position>
              <LatitudeDegrees>40.76287753880023956298828125</LatitudeDegrees>
              <LongitudeDegrees>-4.0749673359096050262451171875</LongitudeDegrees>
            </Position>
            <AltitudeMeters>1359.800048828125</AltitudeMeters>
            <DistanceMeters>4404.0902145754</DistanceMeters>
          </Trackpoint>
          <Trackpoint>
            <Time>2018-12-30T09:58:05.000Z</Time>
            <Position>
              <LatitudeDegrees>40.7628808915615081787109375</LatitudeDegrees>
              <LongitudeDegrees>-4.074969850480556488037109375</LongitudeDegrees>
            </Position>
            <AltitudeMeters>1359.800048828125</AltitudeMeters>
            <DistanceMeters>4404.5151869614</DistanceMeters>
          </Trackpoint>
          <Trackpoint>
            <Time>2018-12-30T09:58:06.000Z</Time>
            <Position>
              <LatitudeDegrees>40.7628844119608402252197265625</LatitudeDegrees>
              <LongitudeDegrees>-4.0749666653573513031005859375</LongitudeDegrees>
            </Position>
            <AltitudeMeters>1359.5999755859375</AltitudeMeters>
            <DistanceMeters>4404.9903205332</DistanceMeters>
          </Trackpoint>
          <Trackpoint>
            <Time>2018-12-30T09:58:07.000Z</Time>
            <Position>
              <LatitudeDegrees>40.76289421878755092620849609375</LatitudeDegrees>
              <LongitudeDegrees>-4.07496373169124126434326171875</LongitudeDegrees>
            </Position>
            <AltitudeMeters>1359.4000244140625</AltitudeMeters>
            <DistanceMeters>4406.1106689726</DistanceMeters>
          </Trackpoint>
          <Trackpoint>
            <Time>2018-12-30T09:58:08.000Z</Time>
            <Position>
              <LatitudeDegrees>40.7629001699388027191162109375</LatitudeDegrees>
              <LongitudeDegrees>-4.07496004365384578704833984375</LongitudeDegrees>
            </Position>
            <AltitudeMeters>1359.199951171875</AltitudeMeters>
            <DistanceMeters>4406.8405830157</DistanceMeters>
          </Trackpoint>
          <Trackpoint>
            <Time>2018-12-30T09:58:09.000Z</Time>
            <Position>
              <LatitudeDegrees>40.7629051990807056427001953125</LatitudeDegrees>
              <LongitudeDegrees>-4.07496280968189239501953125</LongitudeDegrees>
            </Position>
            <AltitudeMeters>1358.800048828125</AltitudeMeters>
            <DistanceMeters>4407.4415847276</DistanceMeters>
          </Trackpoint>
          <Trackpoint>
            <Time>2018-12-30T09:58:10.000Z</Time>
            <Position>
              <LatitudeDegrees>40.7629162631928920745849609375</LatitudeDegrees>
              <LongitudeDegrees>-4.07496222294867038726806640625</LongitudeDegrees>
            </Position>
            <AltitudeMeters>1358.5999755859375</AltitudeMeters>
            <DistanceMeters>4408.6732717181</DistanceMeters>
          </Trackpoint>
          <Trackpoint>
            <Time>2018-12-30T09:58:11.000Z</Time>
            <Position>
              <LatitudeDegrees>40.76292581856250762939453125</LatitudeDegrees>
              <LongitudeDegrees>-4.07496473751962184906005859375</LongitudeDegrees>
            </Position>
            <AltitudeMeters>1358.5999755859375</AltitudeMeters>
            <DistanceMeters>4409.7609021766</DistanceMeters>
          </Trackpoint>
          <Trackpoint>
            <Time>2018-12-30T09:58:12.000Z</Time>
            <Position>
              <LatitudeDegrees>40.76293629594147205352783203125</LatitudeDegrees>
              <LongitudeDegrees>-4.0749676711857318878173828125</LongitudeDegrees>
            </Position>
            <AltitudeMeters>1358.5999755859375</AltitudeMeters>
            <DistanceMeters>4410.9553694545</DistanceMeters>
          </Trackpoint>
          <Trackpoint>
            <Time>2018-12-30T09:58:13.000Z</Time>
            <Position>
              <LatitudeDegrees>40.7629533112049102783203125</LatitudeDegrees>
              <LongitudeDegrees>-4.074972532689571380615234375</LongitudeDegrees>
            </Position>
            <AltitudeMeters>1358.4000244140625</AltitudeMeters>
            <DistanceMeters>4412.8888770567</DistanceMeters>
          </Trackpoint>
          <Trackpoint>
            <Time>2018-12-30T09:58:14.000Z</Time>
            <Position>
              <LatitudeDegrees>40.7629675604403018951416015625</LatitudeDegrees>
              <LongitudeDegrees>-4.07497462816536426544189453125</LongitudeDegrees>
            </Position>
            <AltitudeMeters>1358.199951171875</AltitudeMeters>
            <DistanceMeters>4414.4818150595</DistanceMeters>
          </Trackpoint>
          <Trackpoint>
            <Time>2018-12-30T09:58:15.000Z</Time>
            <Position>
              <LatitudeDegrees>40.76297678053379058837890625</LatitudeDegrees>
              <LongitudeDegrees>-4.07498066313564777374267578125</LongitudeDegrees>
            </Position>
            <AltitudeMeters>1358</AltitudeMeters>
            <DistanceMeters>4415.630027218</DistanceMeters>
          </Trackpoint>
          <Trackpoint>
            <Time>2018-12-30T09:58:16.000Z</Time>
            <Position>
              <LatitudeDegrees>40.7629913650453090667724609375</LatitudeDegrees>
              <LongitudeDegrees>-4.07498552463948726654052734375</LongitudeDegrees>
            </Position>
            <AltitudeMeters>1357.5999755859375</AltitudeMeters>
            <DistanceMeters>4417.3031451749</DistanceMeters>
          </Trackpoint>
          <Trackpoint>
            <Time>2018-12-30T09:58:17.000Z</Time>
            <Position>
              <LatitudeDegrees>40.763008296489715576171875</LatitudeDegrees>
              <LongitudeDegrees>-4.074989967048168182373046875</LongitudeDegrees>
            </Position>
            <AltitudeMeters>1357.199951171875</AltitudeMeters>
            <DistanceMeters>4419.222590717</DistanceMeters>
          </Trackpoint>
          <Trackpoint>
            <Time>2018-12-30T09:58:18.000Z</Time>
            <Position>
              <LatitudeDegrees>40.7630208693444728851318359375</LatitudeDegrees>
              <LongitudeDegrees>-4.07498971559107303619384765625</LongitudeDegrees>
            </Position>
            <AltitudeMeters>1357</AltitudeMeters>
            <DistanceMeters>4420.6224216312</DistanceMeters>
          </Trackpoint>
          <Trackpoint>
            <Time>2018-12-30T09:58:19.000Z</Time>
            <Position>
              <LatitudeDegrees>40.76302950270473957061767578125</LatitudeDegrees>
              <LongitudeDegrees>-4.0749914757907390594482421875</LongitudeDegrees>
            </Position>
            <AltitudeMeters>1356.800048828125</AltitudeMeters>
            <DistanceMeters>4421.5915077729</DistanceMeters>
          </Trackpoint>
          <Trackpoint>
            <Time>2018-12-30T09:58:20.000Z</Time>
            <Position>
              <LatitudeDegrees>40.763038136065006256103515625</LatitudeDegrees>
              <LongitudeDegrees>-4.07499239780008792877197265625</LongitudeDegrees>
            </Position>
            <AltitudeMeters>1356.5999755859375</AltitudeMeters>
            <DistanceMeters>4422.551230544</DistanceMeters>
          </Trackpoint>
          <Trackpoint>
            <Time>2018-12-30T09:58:21.000Z</Time>
            <Position>
              <LatitudeDegrees>40.76304743997752666473388671875</LatitudeDegrees>
              <LongitudeDegrees>-4.0749931521713733673095703125</LongitudeDegrees>
            </Position>
            <AltitudeMeters>1356.4000244140625</AltitudeMeters>
            <DistanceMeters>4423.5921960445</DistanceMeters>
          </Trackpoint>
          <Trackpoint>
            <Time>2018-12-30T09:58:22.000Z</Time>
            <Position>
              <LatitudeDegrees>40.76305598951876163482666015625</LatitudeDegrees>
              <LongitudeDegrees>-4.0749884583055973052978515625</LongitudeDegrees>
            </Position>
            <AltitudeMeters>1356.199951171875</AltitudeMeters>
            <DistanceMeters>4424.6244503835</DistanceMeters>
          </Trackpoint>
          <Trackpoint>
            <Time>2018-12-30T09:58:23.000Z</Time>
            <Position>
              <LatitudeDegrees>40.76306923292577266693115234375</LatitudeDegrees>
              <LongitudeDegrees>-4.07498619519174098968505859375</LongitudeDegrees>
            </Position>
            <AltitudeMeters>1356</AltitudeMeters>
            <DistanceMeters>4426.1088151137</DistanceMeters>
          </Trackpoint>
          <Trackpoint>
            <Time>2018-12-30T09:58:24.000Z</Time>
            <Position>
              <LatitudeDegrees>40.76308071613311767578125</LatitudeDegrees>
              <LongitudeDegrees>-4.07497932203114032745361328125</LongitudeDegrees>
            </Position>
            <AltitudeMeters>1355.5999755859375</AltitudeMeters>
            <DistanceMeters>4427.5118677374</DistanceMeters>
          </Trackpoint>
          <Trackpoint>
            <Time>2018-12-30T09:58:25.000Z</Time>
            <Position>
              <LatitudeDegrees>40.763091780245304107666015625</LatitudeDegrees>
              <LongitudeDegrees>-4.07499767839908599853515625</LongitudeDegrees>
            </Position>
            <AltitudeMeters>1355.4000244140625</AltitudeMeters>
            <DistanceMeters>4429.4915276013</DistanceMeters>
          </Trackpoint>
          <Trackpoint>
            <Time>2018-12-30T09:58:26.000Z</Time>
            <Position>
              <LatitudeDegrees>40.763099156320095062255859375</LatitudeDegrees>
              <LongitudeDegrees>-4.0750072337687015533447265625</LongitudeDegrees>
            </Position>
            <AltitudeMeters>1355</AltitudeMeters>
            <DistanceMeters>4430.6397397598</DistanceMeters>
          </Trackpoint>
          <Trackpoint>
            <Time>2018-12-30T09:58:27.000Z</Time>
            <Position>
              <LatitudeDegrees>40.76311223208904266357421875</LatitudeDegrees>
              <LongitudeDegrees>-4.07501687295734882354736328125</LongitudeDegrees>
            </Position>
            <AltitudeMeters>1354.5999755859375</AltitudeMeters>
            <DistanceMeters>4432.3074518286</DistanceMeters>
          </Trackpoint>
          <Trackpoint>
            <Time>2018-12-30T09:58:28.000Z</Time>
            <Position>
              <LatitudeDegrees>40.76313595287501811981201171875</LatitudeDegrees>
              <LongitudeDegrees>-4.0750293619930744171142578125</LongitudeDegrees>
            </Position>
            <AltitudeMeters>1354.5999755859375</AltitudeMeters>
            <DistanceMeters>4435.1503233378</DistanceMeters>
          </Trackpoint>
          <Trackpoint>
            <Time>2018-12-30T09:58:29.000Z</Time>
            <Position>
              <LatitudeDegrees>40.76315104030072689056396484375</LatitudeDegrees>
              <LongitudeDegrees>-4.0750410966575145721435546875</LongitudeDegrees>
            </Position>
            <AltitudeMeters>1354.4000244140625</AltitudeMeters>
            <DistanceMeters>4437.097791465</DistanceMeters>
          </Trackpoint>
          <Trackpoint>
            <Time>2018-12-30T09:58:30.000Z</Time>
            <Position>
              <LatitudeDegrees>40.76316813938319683074951171875</LatitudeDegrees>
              <LongitudeDegrees>-4.07505090348422527313232421875</LongitudeDegrees>
            </Position>
            <AltitudeMeters>1354.4000244140625</AltitudeMeters>
            <DistanceMeters>4439.1732062341</DistanceMeters>
          </Trackpoint>
          <Trackpoint>
            <Time>2018-12-30T09:58:31.000Z</Time>
            <Position>
              <LatitudeDegrees>40.7631784491240978240966796875</LatitudeDegrees>
              <LongitudeDegrees>-4.07505802810192108154296875</LongitudeDegrees>
            </Position>
            <AltitudeMeters>1354.5999755859375</AltitudeMeters>
            <DistanceMeters>4440.4691978307</DistanceMeters>
          </Trackpoint>
          <Trackpoint>
            <Time>2018-12-30T09:58:32.000Z</Time>
            <Position>
              <LatitudeDegrees>40.7631881721317768096923828125</LatitudeDegrees>
              <LongitudeDegrees>-4.07506649382412433624267578125</LongitudeDegrees>
            </Position>
            <AltitudeMeters>1354.5999755859375</AltitudeMeters>
            <DistanceMeters>4441.7651894273</DistanceMeters>
          </Trackpoint>
          <Trackpoint>
            <Time>2018-12-30T09:58:33.000Z</Time>
            <Position>
              <LatitudeDegrees>40.7632069475948810577392578125</LatitudeDegrees>
              <LongitudeDegrees>-4.0751044638454914093017578125</LongitudeDegrees>
            </Position>
            <AltitudeMeters>1354.800048828125</AltitudeMeters>
            <DistanceMeters>4445.5875792147</DistanceMeters>
          </Trackpoint>
          <Trackpoint>
            <Time>2018-12-30T09:58:34.000Z</Time>
            <Position>
              <LatitudeDegrees>40.7632123120129108428955078125</LatitudeDegrees>
              <LongitudeDegrees>-4.07512248493731021881103515625</LongitudeDegrees>
            </Position>
            <AltitudeMeters>1354.800048828125</AltitudeMeters>
            <DistanceMeters>4447.2197166326</DistanceMeters>
          </Trackpoint>
          <Trackpoint>
            <Time>2018-12-30T09:58:35.000Z</Time>
            <Position>
              <LatitudeDegrees>40.76322295702993869781494140625</LatitudeDegrees>
              <LongitudeDegrees>-4.07514193095266819000244140625</LongitudeDegrees>
            </Position>
            <AltitudeMeters>1354.800048828125</AltitudeMeters>
            <DistanceMeters>4449.2422458979</DistanceMeters>
          </Trackpoint>
          <Trackpoint>
            <Time>2018-12-30T09:58:36.000Z</Time>
            <Position>
              <LatitudeDegrees>40.76322983019053936004638671875</LatitudeDegrees>
              <LongitudeDegrees>-4.07514763064682483673095703125</LongitudeDegrees>
            </Position>
            <AltitudeMeters>1354.800048828125</AltitudeMeters>
            <DistanceMeters>4450.1437484658</DistanceMeters>
          </Trackpoint>
          <Trackpoint>
            <Time>2018-12-30T09:58:37.000Z</Time>
            <Position>
              <LatitudeDegrees>40.76323720626533031463623046875</LatitudeDegrees>
              <LongitudeDegrees>-4.07515953294932842254638671875</LongitudeDegrees>
            </Position>
            <AltitudeMeters>1354.800048828125</AltitudeMeters>
            <DistanceMeters>4451.4362515189</DistanceMeters>
          </Trackpoint>
          <Trackpoint>
            <Time>2018-12-30T09:58:38.000Z</Time>
            <Position>
              <LatitudeDegrees>40.7632585801184177398681640625</LatitudeDegrees>
              <LongitudeDegrees>-4.0751772187650203704833984375</LongitudeDegrees>
            </Position>
            <AltitudeMeters>1354.800048828125</AltitudeMeters>
            <DistanceMeters>4454.2423567662</DistanceMeters>
          </Trackpoint>
          <Trackpoint>
            <Time>2018-12-30T09:58:39.000Z</Time>
            <Position>
              <LatitudeDegrees>40.7632585801184177398681640625</LatitudeDegrees>
              <LongitudeDegrees>-4.0751772187650203704833984375</LongitudeDegrees>
            </Position>
            <AltitudeMeters>1354.800048828125</AltitudeMeters>
            <DistanceMeters>4454.2423567662</DistanceMeters>
          </Trackpoint>
          <Trackpoint>
            <Time>2018-12-30T09:58:40.000Z</Time>
            <Position>
              <LatitudeDegrees>40.763272829353809356689453125</LatitudeDegrees>
              <LongitudeDegrees>-4.07519079744815826416015625</LongitudeDegrees>
            </Position>
            <AltitudeMeters>1354.5999755859375</AltitudeMeters>
            <DistanceMeters>4456.1990765756</DistanceMeters>
          </Trackpoint>
          <Trackpoint>
            <Time>2018-12-30T09:58:41.000Z</Time>
            <Position>
              <LatitudeDegrees>40.76328699477016925811767578125</LatitudeDegrees>
              <LongitudeDegrees>-4.07519540749490261077880859375</LongitudeDegrees>
            </Position>
            <AltitudeMeters>1354.5999755859375</AltitudeMeters>
            <DistanceMeters>4457.8228937825</DistanceMeters>
          </Trackpoint>
          <Trackpoint>
            <Time>2018-12-30T09:58:42.000Z</Time>
            <Position>
              <LatitudeDegrees>40.76329789124429225921630859375</LatitudeDegrees>
              <LongitudeDegrees>-4.075196497142314910888671875</LongitudeDegrees>
            </Position>
            <AltitudeMeters>1354.5999755859375</AltitudeMeters>
            <DistanceMeters>4459.0398294985</DistanceMeters>
          </Trackpoint>
          <Trackpoint>
            <Time>2018-12-30T09:58:43.000Z</Time>
            <Position>
              <LatitudeDegrees>40.7633105479180812835693359375</LatitudeDegrees>
              <LongitudeDegrees>-4.07519892789423465728759765625</LongitudeDegrees>
            </Position>
            <AltitudeMeters>1354.800048828125</AltitudeMeters>
            <DistanceMeters>4460.465230214</DistanceMeters>
          </Trackpoint>
          <Trackpoint>
            <Time>2018-12-30T09:58:44.000Z</Time>
            <Position>
              <LatitudeDegrees>40.7633259706199169158935546875</LatitudeDegrees>
              <LongitudeDegrees>-4.075208567082881927490234375</LongitudeDegrees>
            </Position>
            <AltitudeMeters>1354.800048828125</AltitudeMeters>
            <DistanceMeters>4462.3633873469</DistanceMeters>
          </Trackpoint>
          <Trackpoint>
            <Time>2018-12-30T09:58:45.000Z</Time>
            <Position>
              <LatitudeDegrees>40.7633368670940399169921875</LatitudeDegrees>
              <LongitudeDegrees>-4.07521418295800685882568359375</LongitudeDegrees>
            </Position>
            <AltitudeMeters>1354.800048828125</AltitudeMeters>
            <DistanceMeters>4463.66632801</DistanceMeters>
          </Trackpoint>
          <Trackpoint>
            <Time>2018-12-30T09:58:46.000Z</Time>
            <Position>
              <LatitudeDegrees>40.7633650302886962890625</LatitudeDegrees>
              <LongitudeDegrees>-4.07523161731660366058349609375</LongitudeDegrees>
            </Position>
            <AltitudeMeters>1355</AltitudeMeters>
            <DistanceMeters>4467.129266288</DistanceMeters>
          </Trackpoint>
          <Trackpoint>
            <Time>2018-12-30T09:58:47.000Z</Time>
            <Position>
              <LatitudeDegrees>40.7633812911808490753173828125</LatitudeDegrees>
              <LongitudeDegrees>-4.0752402506768703460693359375</LongitudeDegrees>
            </Position>
            <AltitudeMeters>1355</AltitudeMeters>
            <DistanceMeters>4469.0813657372</DistanceMeters>
          </Trackpoint>
          <Trackpoint>
            <Time>2018-12-30T09:58:48.000Z</Time>
            <Position>
              <LatitudeDegrees>40.7633920200169086456298828125</LatitudeDegrees>
              <LongitudeDegrees>-4.075242094695568084716796875</LongitudeDegrees>
            </Position>
            <AltitudeMeters>1355.199951171875</AltitudeMeters>
            <DistanceMeters>4470.2908583514</DistanceMeters>
          </Trackpoint>
          <Trackpoint>
            <Time>2018-12-30T09:58:49.000Z</Time>
            <Position>
              <LatitudeDegrees>40.7634101249277591705322265625</LatitudeDegrees>
              <LongitudeDegrees>-4.075244776904582977294921875</LongitudeDegrees>
            </Position>
            <AltitudeMeters>1355.4000244140625</AltitudeMeters>
            <DistanceMeters>4472.3200736822</DistanceMeters>
          </Trackpoint>
          <Trackpoint>
            <Time>2018-12-30T09:58:50.000Z</Time>
            <Position>
              <LatitudeDegrees>40.7634292356669902801513671875</LatitudeDegrees>
              <LongitudeDegrees>-4.0752456150949001312255859375</LongitudeDegrees>
            </Position>
            <AltitudeMeters>1355.4000244140625</AltitudeMeters>
            <DistanceMeters>4474.4491810949</DistanceMeters>
          </Trackpoint>
          <Trackpoint>
            <Time>2018-12-30T09:58:51.000Z</Time>
            <Position>
              <LatitudeDegrees>40.76344482600688934326171875</LatitudeDegrees>
              <LongitudeDegrees>-4.0752482973039150238037109375</LongitudeDegrees>
            </Position>
            <AltitudeMeters>1355.5999755859375</AltitudeMeters>
            <DistanceMeters>4476.2013871304</DistanceMeters>
          </Trackpoint>
          <Trackpoint>
            <Time>2018-12-30T09:58:52.000Z</Time>
            <Position>
              <LatitudeDegrees>40.76345815323293209075927734375</LatitudeDegrees>
              <LongitudeDegrees>-4.07525324262678623199462890625</LongitudeDegrees>
            </Position>
            <AltitudeMeters>1355.5999755859375</AltitudeMeters>
            <DistanceMeters>4477.7453884844</DistanceMeters>
          </Trackpoint>
          <Trackpoint>
            <Time>2018-12-30T09:58:53.000Z</Time>
            <Position>
              <LatitudeDegrees>40.76347273774445056915283203125</LatitudeDegrees>
              <LongitudeDegrees>-4.07525718212127685546875</LongitudeDegrees>
            </Position>
            <AltitudeMeters>1355.5999755859375</AltitudeMeters>
            <DistanceMeters>4479.4022358639</DistanceMeters>
          </Trackpoint>
          <Trackpoint>
            <Time>2018-12-30T09:58:54.000Z</Time>
            <Position>
              <LatitudeDegrees>40.7634843885898590087890625</LatitudeDegrees>
              <LongitudeDegrees>-4.0752576850354671478271484375</LongitudeDegrees>
            </Position>
            <AltitudeMeters>1355.800048828125</AltitudeMeters>
            <DistanceMeters>4480.6982274606</DistanceMeters>
          </Trackpoint>
          <Trackpoint>
            <Time>2018-12-30T09:58:55.000Z</Time>
            <Position>
              <LatitudeDegrees>40.7634996436536312103271484375</LatitudeDegrees>
              <LongitudeDegrees>-4.07526665367186069488525390625</LongitudeDegrees>
            </Position>
            <AltitudeMeters>1355.800048828125</AltitudeMeters>
            <DistanceMeters>4482.5555075153</DistanceMeters>
          </Trackpoint>
          <Trackpoint>
            <Time>2018-12-30T09:58:56.000Z</Time>
            <Position>
              <LatitudeDegrees>40.763508193194866180419921875</LatitudeDegrees>
              <LongitudeDegrees>-4.075270928442478179931640625</LongitudeDegrees>
            </Position>
            <AltitudeMeters>1355.800048828125</AltitudeMeters>
            <DistanceMeters>4483.5701151806</DistanceMeters>
          </Trackpoint>
          <Trackpoint>
            <Time>2018-12-30T09:58:57.000Z</Time>
            <Position>
              <LatitudeDegrees>40.763520933687686920166015625</LatitudeDegrees>
              <LongitudeDegrees>-4.0752771310508251190185546875</LongitudeDegrees>
            </Position>
            <AltitudeMeters>1355.800048828125</AltitudeMeters>
            <DistanceMeters>4485.0816076022</DistanceMeters>
          </Trackpoint>
          <Trackpoint>
            <Time>2018-12-30T09:58:58.000Z</Time>
            <Position>
              <LatitudeDegrees>40.76353258453309535980224609375</LatitudeDegrees>
              <LongitudeDegrees>-4.07528308220207691192626953125</LongitudeDegrees>
            </Position>
            <AltitudeMeters>1356</AltitudeMeters>
            <DistanceMeters>4486.4749727501</DistanceMeters>
          </Trackpoint>
          <Trackpoint>
            <Time>2018-12-30T09:58:59.000Z</Time>
            <Position>
              <LatitudeDegrees>40.7635449059307575225830078125</LatitudeDegrees>
              <LongitudeDegrees>-4.07528811134397983551025390625</LongitudeDegrees>
            </Position>
            <AltitudeMeters>1356.199951171875</AltitudeMeters>
            <DistanceMeters>4487.9129878771</DistanceMeters>
          </Trackpoint>
          <Trackpoint>
            <Time>2018-12-30T09:59:00.000Z</Time>
            <Position>
              <LatitudeDegrees>40.76355613768100738525390625</LatitudeDegrees>
              <LongitudeDegrees>-4.07529062591493129730224609375</LongitudeDegrees>
            </Position>
            <AltitudeMeters>1356.4000244140625</AltitudeMeters>
            <DistanceMeters>4489.1808023774</DistanceMeters>
          </Trackpoint>
          <Trackpoint>
            <Time>2018-12-30T09:59:01.000Z</Time>
            <Position>
              <LatitudeDegrees>40.76356225647032260894775390625</LatitudeDegrees>
              <LongitudeDegrees>-4.07528995536267757415771484375</LongitudeDegrees>
            </Position>
            <AltitudeMeters>1356.4000244140625</AltitudeMeters>
            <DistanceMeters>4489.8660497598</DistanceMeters>
          </Trackpoint>
          <Trackpoint>
            <Time>2018-12-30T09:59:02.000Z</Time>
            <Position>
              <LatitudeDegrees>40.7635703869163990020751953125</LatitudeDegrees>
              <LongitudeDegrees>-4.0752960741519927978515625</LongitudeDegrees>
            </Position>
            <AltitudeMeters>1356.5999755859375</AltitudeMeters>
            <DistanceMeters>4490.9070152603</DistanceMeters>
          </Trackpoint>
          <Trackpoint>
            <Time>2018-12-30T09:59:03.000Z</Time>
            <Position>
              <LatitudeDegrees>40.76357734389603137969970703125</LatitudeDegrees>
              <LongitudeDegrees>-4.0753036178648471832275390625</LongitudeDegrees>
            </Position>
            <AltitudeMeters>1356.5999755859375</AltitudeMeters>
            <DistanceMeters>4491.9126834768</DistanceMeters>
          </Trackpoint>
          <Trackpoint>
            <Time>2018-12-30T09:59:04.000Z</Time>
            <Position>
              <LatitudeDegrees>40.76358337886631488800048828125</LatitudeDegrees>
              <LongitudeDegrees>-4.07531375996768474578857421875</LongitudeDegrees>
            </Position>
            <AltitudeMeters>1356.800048828125</AltitudeMeters>
            <DistanceMeters>4492.9961547214</DistanceMeters>
          </Trackpoint>
          <Trackpoint>
            <Time>2018-12-30T09:59:05.000Z</Time>
            <Position>
              <LatitudeDegrees>40.76359092257916927337646484375</LatitudeDegrees>
              <LongitudeDegrees>-4.07532784156501293182373046875</LongitudeDegrees>
            </Position>
            <AltitudeMeters>1356.800048828125</AltitudeMeters>
            <DistanceMeters>4494.449783934</DistanceMeters>
          </Trackpoint>
          <Trackpoint>
            <Time>2018-12-30T09:59:06.000Z</Time>
            <Position>
              <LatitudeDegrees>40.76359762810170650482177734375</LatitudeDegrees>
              <LongitudeDegrees>-4.0753381513059139251708984375</LongitudeDegrees>
            </Position>
            <AltitudeMeters>1357</AltitudeMeters>
            <DistanceMeters>4495.5979960925</DistanceMeters>
          </Trackpoint>
          <Trackpoint>
            <Time>2018-12-30T09:59:07.000Z</Time>
            <Position>
              <LatitudeDegrees>40.76360450126230716705322265625</LatitudeDegrees>
              <LongitudeDegrees>-4.07534292899072170257568359375</LongitudeDegrees>
            </Position>
            <AltitudeMeters>1357</AltitudeMeters>
            <DistanceMeters>4496.463730662</DistanceMeters>
          </Trackpoint>
          <Trackpoint>
            <Time>2018-12-30T09:59:08.000Z</Time>
            <Position>
              <LatitudeDegrees>40.76361807994544506072998046875</LatitudeDegrees>
              <LongitudeDegrees>-4.0753502212464809417724609375</LongitudeDegrees>
            </Position>
            <AltitudeMeters>1357</AltitudeMeters>
            <DistanceMeters>4498.0986320741</DistanceMeters>
          </Trackpoint>
          <Trackpoint>
            <Time>2018-12-30T09:59:09.000Z</Time>
            <Position>
              <LatitudeDegrees>40.7636314071714878082275390625</LatitudeDegrees>
              <LongitudeDegrees>-4.07535667531192302703857421875</LongitudeDegrees>
            </Position>
            <AltitudeMeters>1357</AltitudeMeters>
            <DistanceMeters>4499.6801918027</DistanceMeters>
          </Trackpoint>
          <Trackpoint>
            <Time>2018-12-30T09:59:10.000Z</Time>
            <Position>
              <LatitudeDegrees>40.7636453211307525634765625</LatitudeDegrees>
              <LongitudeDegrees>-4.075371511280536651611328125</LongitudeDegrees>
            </Position>
            <AltitudeMeters>1357</AltitudeMeters>
            <DistanceMeters>4501.6712225806</DistanceMeters>
          </Trackpoint>
          <Trackpoint>
            <Time>2018-12-30T09:59:11.000Z</Time>
            <Position>
              <LatitudeDegrees>40.76365982182323932647705078125</LatitudeDegrees>
              <LongitudeDegrees>-4.07538617961108684539794921875</LongitudeDegrees>
            </Position>
            <AltitudeMeters>1357</AltitudeMeters>
            <DistanceMeters>4503.7071020191</DistanceMeters>
          </Trackpoint>
          <Trackpoint>
            <Time>2018-12-30T09:59:12.000Z</Time>
            <Position>
              <LatitudeDegrees>40.76366870664060115814208984375</LatitudeDegrees>
              <LongitudeDegrees>-4.07540512271225452423095703125</LongitudeDegrees>
            </Position>
            <AltitudeMeters>1357</AltitudeMeters>
            <DistanceMeters>4505.5837292631</DistanceMeters>
          </Trackpoint>
          <Trackpoint>
            <Time>2018-12-30T09:59:13.000Z</Time>
            <Position>
              <LatitudeDegrees>40.7636796869337558746337890625</LatitudeDegrees>
              <LongitudeDegrees>-4.07541417516767978668212890625</LongitudeDegrees>
            </Position>
            <AltitudeMeters>1357</AltitudeMeters>
            <DistanceMeters>4507.024880741</DistanceMeters>
          </Trackpoint>
          <Trackpoint>
            <Time>2018-12-30T09:59:14.000Z</Time>
            <Position>
              <LatitudeDegrees>40.76369049958884716033935546875</LatitudeDegrees>
              <LongitudeDegrees>-4.0754172764718532562255859375</LongitudeDegrees>
            </Position>
            <AltitudeMeters>1356.800048828125</AltitudeMeters>
            <DistanceMeters>4508.2565677315</DistanceMeters>
          </Trackpoint>
          <Trackpoint>
            <Time>2018-12-30T09:59:15.000Z</Time>
            <Position>
              <LatitudeDegrees>40.76370541937649250030517578125</LatitudeDegrees>
              <LongitudeDegrees>-4.075427167117595672607421875</LongitudeDegrees>
            </Position>
            <AltitudeMeters>1356.800048828125</AltitudeMeters>
            <DistanceMeters>4510.1138477862</DistanceMeters>
          </Trackpoint>
          <Trackpoint>
            <Time>2018-12-30T09:59:16.000Z</Time>
            <Position>
              <LatitudeDegrees>40.7637179084122180938720703125</LatitudeDegrees>
              <LongitudeDegrees>-4.07543362118303775787353515625</LongitudeDegrees>
            </Position>
            <AltitudeMeters>1356.800048828125</AltitudeMeters>
            <DistanceMeters>4511.6042835631</DistanceMeters>
          </Trackpoint>
          <Trackpoint>
            <Time>2018-12-30T09:59:17.000Z</Time>
            <Position>
              <LatitudeDegrees>40.76373090036213397979736328125</LatitudeDegrees>
              <LongitudeDegrees>-4.07544694840908050537109375</LongitudeDegrees>
            </Position>
            <AltitudeMeters>1356.800048828125</AltitudeMeters>
            <DistanceMeters>4513.4321589102</DistanceMeters>
          </Trackpoint>
          <Trackpoint>
            <Time>2018-12-30T09:59:18.000Z</Time>
            <Position>
              <LatitudeDegrees>40.763740204274654388427734375</LatitudeDegrees>
              <LongitudeDegrees>-4.075454659759998321533203125</LongitudeDegrees>
            </Position>
            <AltitudeMeters>1356.800048828125</AltitudeMeters>
            <DistanceMeters>4514.6564924798</DistanceMeters>
          </Trackpoint>
          <Trackpoint>
            <Time>2018-12-30T09:59:19.000Z</Time>
            <Position>
              <LatitudeDegrees>40.76374665834009647369384765625</LatitudeDegrees>
              <LongitudeDegrees>-4.07546480186283588409423828125</LongitudeDegrees>
            </Position>
            <AltitudeMeters>1356.5999755859375</AltitudeMeters>
            <DistanceMeters>4515.7728036144</DistanceMeters>
          </Trackpoint>
          <Trackpoint>
            <Time>2018-12-30T09:59:20.000Z</Time>
            <Position>
              <LatitudeDegrees>40.7637579739093780517578125</LatitudeDegrees>
              <LongitudeDegrees>-4.07547167502343654632568359375</LongitudeDegrees>
            </Position>
            <AltitudeMeters>1356.199951171875</AltitudeMeters>
            <DistanceMeters>4517.1564134605</DistanceMeters>
          </Trackpoint>
          <Trackpoint>
            <Time>2018-12-30T09:59:21.000Z</Time>
            <Position>
              <LatitudeDegrees>40.7637695409357547760009765625</LatitudeDegrees>
              <LongitudeDegrees>-4.075474441051483154296875</LongitudeDegrees>
            </Position>
            <AltitudeMeters>1356.199951171875</AltitudeMeters>
            <DistanceMeters>4518.4662663241</DistanceMeters>
          </Trackpoint>
          <Trackpoint>
            <Time>2018-12-30T09:59:22.000Z</Time>
            <Position>
              <LatitudeDegrees>40.763777755200862884521484375</LatitudeDegrees>
              <LongitudeDegrees>-4.075477123260498046875</LongitudeDegrees>
            </Position>
            <AltitudeMeters>1355.800048828125</AltitudeMeters>
            <DistanceMeters>4519.4069828018</DistanceMeters>
          </Trackpoint>
          <Trackpoint>
            <Time>2018-12-30T09:59:23.000Z</Time>
            <Position>
              <LatitudeDegrees>40.76378068886697292327880859375</LatitudeDegrees>
              <LongitudeDegrees>-4.0754819847643375396728515625</LongitudeDegrees>
            </Position>
            <AltitudeMeters>1355.5999755859375</AltitudeMeters>
            <DistanceMeters>4519.9360691556</DistanceMeters>
          </Trackpoint>
          <Trackpoint>
            <Time>2018-12-30T09:59:24.000Z</Time>
            <Position>
              <LatitudeDegrees>40.763780772686004638671875</LatitudeDegrees>
              <LongitudeDegrees>-4.07548039220273494720458984375</LongitudeDegrees>
            </Position>
            <AltitudeMeters>1355.4000244140625</AltitudeMeters>
            <DistanceMeters>4520.0704572239</DistanceMeters>
          </Trackpoint>
          <Trackpoint>
            <Time>2018-12-30T09:59:25.000Z</Time>
            <Position>
              <LatitudeDegrees>40.76378219760954380035400390625</LatitudeDegrees>
              <LongitudeDegrees>-4.07548248767852783203125</LongitudeDegrees>
            </Position>
            <AltitudeMeters>1355</AltitudeMeters>
            <DistanceMeters>4520.2829434169</DistanceMeters>
          </Trackpoint>
          <Trackpoint>
            <Time>2018-12-30T09:59:26.000Z</Time>
            <Position>
              <LatitudeDegrees>40.76378588564693927764892578125</LatitudeDegrees>
              <LongitudeDegrees>-4.07547821290791034698486328125</LongitudeDegrees>
            </Position>
            <AltitudeMeters>1355</AltitudeMeters>
            <DistanceMeters>4520.8288303307</DistanceMeters>
          </Trackpoint>
          <Trackpoint>
            <Time>2018-12-30T09:59:27.000Z</Time>
            <Position>
              <LatitudeDegrees>40.76379007659852504730224609375</LatitudeDegrees>
              <LongitudeDegrees>-4.07548005692660808563232421875</LongitudeDegrees>
            </Position>
            <AltitudeMeters>1354.800048828125</AltitudeMeters>
            <DistanceMeters>4521.3133734016</DistanceMeters>
          </Trackpoint>
          <Trackpoint>
            <Time>2018-12-30T09:59:28.000Z</Time>
            <Position>
              <LatitudeDegrees>40.76379175297915935516357421875</LatitudeDegrees>
              <LongitudeDegrees>-4.075479470193386077880859375</LongitudeDegrees>
            </Position>
            <AltitudeMeters>1354.800048828125</AltitudeMeters>
            <DistanceMeters>4521.4779644989</DistanceMeters>
          </Trackpoint>
          <Trackpoint>
            <Time>2018-12-30T09:59:29.000Z</Time>
            <Position>
              <LatitudeDegrees>40.76379443518817424774169921875</LatitudeDegrees>
              <LongitudeDegrees>-4.07547603361308574676513671875</LongitudeDegrees>
            </Position>
            <AltitudeMeters>1354.800048828125</AltitudeMeters>
            <DistanceMeters>4521.8811287037</DistanceMeters>
          </Trackpoint>
          <Trackpoint>
            <Time>2018-12-30T09:59:30.000Z</Time>
            <Position>
              <LatitudeDegrees>40.76379485428333282470703125</LatitudeDegrees>
              <LongitudeDegrees>-4.0754628740251064300537109375</LongitudeDegrees>
            </Position>
            <AltitudeMeters>1354.800048828125</AltitudeMeters>
            <DistanceMeters>4522.9974398383</DistanceMeters>
          </Trackpoint>
          <Trackpoint>
            <Time>2018-12-30T09:59:31.000Z</Time>
            <Position>
              <LatitudeDegrees>40.76380231417715549468994140625</LatitudeDegrees>
              <LongitudeDegrees>-4.0754588507115840911865234375</LongitudeDegrees>
            </Position>
            <AltitudeMeters>1354.800048828125</AltitudeMeters>
            <DistanceMeters>4523.8989424062</DistanceMeters>
          </Trackpoint>
          <Trackpoint>
            <Time>2018-12-30T09:59:32.000Z</Time>
            <Position>
              <LatitudeDegrees>40.763811282813549041748046875</LatitudeDegrees>
              <LongitudeDegrees>-4.07545591704547405242919921875</LongitudeDegrees>
            </Position>
            <AltitudeMeters>1354.800048828125</AltitudeMeters>
            <DistanceMeters>4524.9268134798</DistanceMeters>
          </Trackpoint>
          <Trackpoint>
            <Time>2018-12-30T09:59:33.000Z</Time>
            <Position>
              <LatitudeDegrees>40.76382100582122802734375</LatitudeDegrees>
              <LongitudeDegrees>-4.07544904388487339019775390625</LongitudeDegrees>
            </Position>
            <AltitudeMeters>1354.800048828125</AltitudeMeters>
            <DistanceMeters>4526.1511470494</DistanceMeters>
          </Trackpoint>
          <Trackpoint>
            <Time>2018-12-30T09:59:34.000Z</Time>
            <Position>
              <LatitudeDegrees>40.76382243074476718902587890625</LatitudeDegrees>
              <LongitudeDegrees>-4.0754296816885471343994140625</LongitudeDegrees>
            </Position>
            <AltitudeMeters>1354.800048828125</AltitudeMeters>
            <DistanceMeters>4527.7915624786</DistanceMeters>
          </Trackpoint>
          <Trackpoint>
            <Time>2018-12-30T09:59:35.000Z</Time>
            <Position>
              <LatitudeDegrees>40.7638268731534481048583984375</LatitudeDegrees>
              <LongitudeDegrees>-4.075419791042804718017578125</LongitudeDegrees>
            </Position>
            <AltitudeMeters>1355</AltitudeMeters>
            <DistanceMeters>4528.7606486204</DistanceMeters>
          </Trackpoint>
          <Trackpoint>
            <Time>2018-12-30T09:59:36.000Z</Time>
            <Position>
              <LatitudeDegrees>40.76382846571505069732666015625</LatitudeDegrees>
              <LongitudeDegrees>-4.07541015185415744781494140625</LongitudeDegrees>
            </Position>
            <AltitudeMeters>1355</AltitudeMeters>
            <DistanceMeters>4529.5890723101</DistanceMeters>
          </Trackpoint>
          <Trackpoint>
            <Time>2018-12-30T09:59:37.000Z</Time>
            <Position>
              <LatitudeDegrees>40.7638298906385898590087890625</LatitudeDegrees>
              <LongitudeDegrees>-4.07540746964514255523681640625</LongitudeDegrees>
            </Position>
            <AltitudeMeters>1355</AltitudeMeters>
            <DistanceMeters>4529.8741524532</DistanceMeters>
          </Trackpoint>
          <Trackpoint>
            <Time>2018-12-30T09:59:38.000Z</Time>
            <Position>
              <LatitudeDegrees>40.76382963918149471282958984375</LatitudeDegrees>
              <LongitudeDegrees>-4.0754114091396331787109375</LongitudeDegrees>
            </Position>
            <AltitudeMeters>1355</AltitudeMeters>
            <DistanceMeters>4530.203334648</DistanceMeters>
          </Trackpoint>
          <Trackpoint>
            <Time>2018-12-30T09:59:39.000Z</Time>
            <Position>
              <LatitudeDegrees>40.76383131556212902069091796875</LatitudeDegrees>
              <LongitudeDegrees>-4.07541266642510890960693359375</LongitudeDegrees>
            </Position>
            <AltitudeMeters>1355.199951171875</AltitudeMeters>
            <DistanceMeters>4530.415820841</DistanceMeters>
          </Trackpoint>
          <Trackpoint>
            <Time>2018-12-30T09:59:40.000Z</Time>
            <Position>
              <LatitudeDegrees>40.7638308964669704437255859375</LatitudeDegrees>
              <LongitudeDegrees>-4.07541618682444095611572265625</LongitudeDegrees>
            </Position>
            <AltitudeMeters>1355.199951171875</AltitudeMeters>
            <DistanceMeters>4530.7163216969</DistanceMeters>
          </Trackpoint>
          <Trackpoint>
            <Time>2018-12-30T09:59:41.000Z</Time>
            <Position>
              <LatitudeDegrees>40.763828717172145843505859375</LatitudeDegrees>
              <LongitudeDegrees>-4.0754202939569950103759765625</LongitudeDegrees>
            </Position>
            <AltitudeMeters>1355.199951171875</AltitudeMeters>
            <DistanceMeters>4531.141294083</DistanceMeters>
          </Trackpoint>
          <Trackpoint>
            <Time>2018-12-30T09:59:42.000Z</Time>
            <Position>
              <LatitudeDegrees>40.76382963918149471282958984375</LatitudeDegrees>
              <LongitudeDegrees>-4.07541568391025066375732421875</LongitudeDegrees>
            </Position>
            <AltitudeMeters>1355.199951171875</AltitudeMeters>
            <DistanceMeters>4531.5444582877</DistanceMeters>
          </Trackpoint>
          <Trackpoint>
            <Time>2018-12-30T09:59:43.000Z</Time>
            <Position>
              <LatitudeDegrees>40.763836093246936798095703125</LatitudeDegrees>
              <LongitudeDegrees>-4.07539975829422473907470703125</LongitudeDegrees>
            </Position>
            <AltitudeMeters>1355.4000244140625</AltitudeMeters>
            <DistanceMeters>4533.0678524081</DistanceMeters>
          </Trackpoint>
          <Trackpoint>
            <Time>2018-12-30T09:59:44.000Z</Time>
            <Position>
              <LatitudeDegrees>40.7638439722359180450439453125</LatitudeDegrees>
              <LongitudeDegrees>-4.07538785599172115325927734375</LongitudeDegrees>
            </Position>
            <AltitudeMeters>1355.5999755859375</AltitudeMeters>
            <DistanceMeters>4534.3982264093</DistanceMeters>
          </Trackpoint>
          <Trackpoint>
            <Time>2018-12-30T09:59:45.000Z</Time>
            <Position>
              <LatitudeDegrees>40.76385327614843845367431640625</LatitudeDegrees>
              <LongitudeDegrees>-4.07537444494664669036865234375</LongitudeDegrees>
            </Position>
            <AltitudeMeters>1355.5999755859375</AltitudeMeters>
            <DistanceMeters>4535.9304861378</DistanceMeters>
          </Trackpoint>
          <Trackpoint>
            <Time>2018-12-30T09:59:46.000Z</Time>
            <Position>
              <LatitudeDegrees>40.76386484317481517791748046875</LatitudeDegrees>
              <LongitudeDegrees>-4.07536354847252368927001953125</LongitudeDegrees>
            </Position>
            <AltitudeMeters>1355.4000244140625</AltitudeMeters>
            <DistanceMeters>4537.5148980954</DistanceMeters>
          </Trackpoint>
          <Trackpoint>
            <Time>2018-12-30T09:59:47.000Z</Time>
            <Position>
              <LatitudeDegrees>40.7638768292963504791259765625</LatitudeDegrees>
              <LongitudeDegrees>-4.0753550827503204345703125</LongitudeDegrees>
            </Position>
            <AltitudeMeters>1355.5999755859375</AltitudeMeters>
            <DistanceMeters>4539.0234004201</DistanceMeters>
          </Trackpoint>
          <Trackpoint>
            <Time>2018-12-30T09:59:48.000Z</Time>
            <Position>
              <LatitudeDegrees>40.763889737427234649658203125</LatitudeDegrees>
              <LongitudeDegrees>-4.07534711994230747222900390625</LongitudeDegrees>
            </Position>
            <AltitudeMeters>1355.4000244140625</AltitudeMeters>
            <DistanceMeters>4540.6078123778</DistanceMeters>
          </Trackpoint>
          <Trackpoint>
            <Time>2018-12-30T09:59:49.000Z</Time>
            <Position>
              <LatitudeDegrees>40.763899125158786773681640625</LatitudeDegrees>
              <LongitudeDegrees>-4.07533991150557994842529296875</LongitudeDegrees>
            </Position>
            <AltitudeMeters>1355.4000244140625</AltitudeMeters>
            <DistanceMeters>4541.817304992</DistanceMeters>
          </Trackpoint>
          <Trackpoint>
            <Time>2018-12-30T09:59:50.000Z</Time>
            <Position>
              <LatitudeDegrees>40.76391027309000492095947265625</LatitudeDegrees>
              <LongitudeDegrees>-4.07533831894397735595703125</LongitudeDegrees>
            </Position>
            <AltitudeMeters>1355.4000244140625</AltitudeMeters>
            <DistanceMeters>4543.0635686673</DistanceMeters>
          </Trackpoint>
          <Trackpoint>
            <Time>2018-12-30T09:59:51.000Z</Time>
            <Position>
              <LatitudeDegrees>40.7639200799167156219482421875</LatitudeDegrees>
              <LongitudeDegrees>-4.07533069141209125518798828125</LongitudeDegrees>
            </Position>
            <AltitudeMeters>1355.4000244140625</AltitudeMeters>
            <DistanceMeters>4544.3313831675</DistanceMeters>
          </Trackpoint>
          <Trackpoint>
            <Time>2018-12-30T09:59:52.000Z</Time>
            <Position>
              <LatitudeDegrees>40.76392971910536289215087890625</LatitudeDegrees>
              <LongitudeDegrees>-4.0753301046788692474365234375</LongitudeDegrees>
            </Position>
            <AltitudeMeters>1355.5999755859375</AltitudeMeters>
            <DistanceMeters>4545.4064877135</DistanceMeters>
          </Trackpoint>
          <Trackpoint>
            <Time>2018-12-30T09:59:53.000Z</Time>
            <Position>
              <LatitudeDegrees>40.763937346637248992919921875</LatitudeDegrees>
              <LongitudeDegrees>-4.0753290988504886627197265625</LongitudeDegrees>
            </Position>
            <AltitudeMeters>1355.800048828125</AltitudeMeters>
            <DistanceMeters>4546.2564324856</DistanceMeters>
          </Trackpoint>
          <Trackpoint>
            <Time>2018-12-30T09:59:54.000Z</Time>
            <Position>
              <LatitudeDegrees>40.76394631527364253997802734375</LatitudeDegrees>
              <LongitudeDegrees>-4.07532599754631519317626953125</LongitudeDegrees>
            </Position>
            <AltitudeMeters>1356</AltitudeMeters>
            <DistanceMeters>4547.2843035592</DistanceMeters>
          </Trackpoint>
          <Trackpoint>
            <Time>2018-12-30T09:59:55.000Z</Time>
            <Position>
              <LatitudeDegrees>40.76395318843424320220947265625</LatitudeDegrees>
              <LongitudeDegrees>-4.075322560966014862060546875</LongitudeDegrees>
            </Position>
            <AltitudeMeters>1356.4000244140625</AltitudeMeters>
            <DistanceMeters>4548.1017542652</DistanceMeters>
          </Trackpoint>
          <Trackpoint>
            <Time>2018-12-30T09:59:56.000Z</Time>
            <Position>
              <LatitudeDegrees>40.7639583013951778411865234375</LatitudeDegrees>
              <LongitudeDegrees>-4.07531778328120708465576171875</LongitudeDegrees>
            </Position>
            <AltitudeMeters>1356.4000244140625</AltitudeMeters>
            <DistanceMeters>4548.8000551517</DistanceMeters>
          </Trackpoint>
          <Trackpoint>
            <Time>2018-12-30T09:59:57.000Z</Time>
            <Position>
              <LatitudeDegrees>40.7639686949551105499267578125</LatitudeDegrees>
              <LongitudeDegrees>-4.0753083117306232452392578125</LongitudeDegrees>
            </Position>
            <AltitudeMeters>1356.5999755859375</AltitudeMeters>
            <DistanceMeters>4550.206322104</DistanceMeters>
          </Trackpoint>
          <Trackpoint>
            <Time>2018-12-30T09:59:58.000Z</Time>
            <Position>
              <LatitudeDegrees>40.76397917233407497406005859375</LatitudeDegrees>
              <LongitudeDegrees>-4.07530655153095722198486328125</LongitudeDegrees>
            </Position>
            <AltitudeMeters>1356.5999755859375</AltitudeMeters>
            <DistanceMeters>4551.3778901214</DistanceMeters>
          </Trackpoint>
          <Trackpoint>
            <Time>2018-12-30T09:59:59.000Z</Time>
            <Position>
              <LatitudeDegrees>40.763994343578815460205078125</LatitudeDegrees>
              <LongitudeDegrees>-4.07530135475099086761474609375</LongitudeDegrees>
            </Position>
            <AltitudeMeters>1356.5999755859375</AltitudeMeters>
            <DistanceMeters>4553.119758568</DistanceMeters>
          </Trackpoint>
          <Trackpoint>
            <Time>2018-12-30T10:00:00.000Z</Time>
            <Position>
              <LatitudeDegrees>40.764006413519382476806640625</LatitudeDegrees>
              <LongitudeDegrees>-4.07530118711292743682861328125</LongitudeDegrees>
            </Position>
            <AltitudeMeters>1356.5999755859375</AltitudeMeters>
            <DistanceMeters>4554.4636392505</DistanceMeters>
          </Trackpoint>
          <Trackpoint>
            <Time>2018-12-30T10:00:01.000Z</Time>
            <Position>
              <LatitudeDegrees>40.76401873491704463958740234375</LatitudeDegrees>
              <LongitudeDegrees>-4.0752999298274517059326171875</LongitudeDegrees>
            </Position>
            <AltitudeMeters>1356.5999755859375</AltitudeMeters>
            <DistanceMeters>4555.8341340153</DistanceMeters>
          </Trackpoint>
          <Trackpoint>
            <Time>2018-12-30T10:00:02.000Z</Time>
            <Position>
              <LatitudeDegrees>40.764031894505023956298828125</LatitudeDegrees>
              <LongitudeDegrees>-4.075297079980373382568359375</LongitudeDegrees>
            </Position>
            <AltitudeMeters>1356.800048828125</AltitudeMeters>
            <DistanceMeters>4557.3154538916</DistanceMeters>
          </Trackpoint>
          <Trackpoint>
            <Time>2018-12-30T10:00:03.000Z</Time>
            <Position>
              <LatitudeDegrees>40.76404186896979808807373046875</LatitudeDegrees>
              <LongitudeDegrees>-4.0752922184765338897705078125</LongitudeDegrees>
            </Position>
            <AltitudeMeters>1356.800048828125</AltitudeMeters>
            <DistanceMeters>4558.4947044046</DistanceMeters>
          </Trackpoint>
          <Trackpoint>
            <Time>2018-12-30T10:00:04.000Z</Time>
            <Position>
              <LatitudeDegrees>40.76405695639550685882568359375</LatitudeDegrees>
              <LongitudeDegrees>-4.07528811134397983551025390625</LongitudeDegrees>
            </Position>
            <AltitudeMeters>1357</AltitudeMeters>
            <DistanceMeters>4560.2078228606</DistanceMeters>
          </Trackpoint>
          <Trackpoint>
            <Time>2018-12-30T10:00:05.000Z</Time>
            <Position>
              <LatitudeDegrees>40.76406852342188358306884765625</LatitudeDegrees>
              <LongitudeDegrees>-4.07529029063880443572998046875</LongitudeDegrees>
            </Position>
            <AltitudeMeters>1357.199951171875</AltitudeMeters>
            <DistanceMeters>4561.5072936355</DistanceMeters>
          </Trackpoint>
          <Trackpoint>
            <Time>2018-12-30T10:00:06.000Z</Time>
            <Position>
              <LatitudeDegrees>40.76407925225794315338134765625</LatitudeDegrees>
              <LongitudeDegrees>-4.0752878598868846893310546875</LongitudeDegrees>
            </Position>
            <AltitudeMeters>1357.4000244140625</AltitudeMeters>
            <DistanceMeters>4562.7167862498</DistanceMeters>
          </Trackpoint>
          <Trackpoint>
            <Time>2018-12-30T10:00:07.000Z</Time>
            <Position>
              <LatitudeDegrees>40.76409484259784221649169921875</LatitudeDegrees>
              <LongitudeDegrees>-4.0752835012972354888916015625</LongitudeDegrees>
            </Position>
            <AltitudeMeters>1357.800048828125</AltitudeMeters>
            <DistanceMeters>4564.48948662</DistanceMeters>
          </Trackpoint>
          <Trackpoint>
            <Time>2018-12-30T10:00:08.000Z</Time>
            <Position>
              <LatitudeDegrees>40.764103643596172332763671875</LatitudeDegrees>
              <LongitudeDegrees>-4.0752848424017429351806640625</LongitudeDegrees>
            </Position>
            <AltitudeMeters>1357.800048828125</AltitudeMeters>
            <DistanceMeters>4565.4678465247</DistanceMeters>
          </Trackpoint>
          <Trackpoint>
            <Time>2018-12-30T10:00:09.000Z</Time>
            <Position>
              <LatitudeDegrees>40.76411814428865909576416015625</LatitudeDegrees>
              <LongitudeDegrees>-4.07528056763112545013427734375</LongitudeDegrees>
            </Position>
            <AltitudeMeters>1358</AltitudeMeters>
            <DistanceMeters>4567.1192347546</DistanceMeters>
          </Trackpoint>
          <Trackpoint>
            <Time>2018-12-30T10:00:10.000Z</Time>
            <Position>
              <LatitudeDegrees>40.7641249336302280426025390625</LatitudeDegrees>
              <LongitudeDegrees>-4.07527863979339599609375</LongitudeDegrees>
            </Position>
            <AltitudeMeters>1358</AltitudeMeters>
            <DistanceMeters>4567.8912354316</DistanceMeters>
          </Trackpoint>
          <Trackpoint>
            <Time>2018-12-30T10:00:11.000Z</Time>
            <Position>
              <LatitudeDegrees>40.7641313038766384124755859375</LatitudeDegrees>
              <LongitudeDegrees>-4.07527637667953968048095703125</LongitudeDegrees>
            </Position>
            <AltitudeMeters>1358</AltitudeMeters>
            <DistanceMeters>4568.627309196</DistanceMeters>
          </Trackpoint>
          <Trackpoint>
            <Time>2018-12-30T10:00:12.000Z</Time>
            <Position>
              <LatitudeDegrees>40.764139853417873382568359375</LatitudeDegrees>
              <LongitudeDegrees>-4.0752692520618438720703125</LongitudeDegrees>
            </Position>
            <AltitudeMeters>1358</AltitudeMeters>
            <DistanceMeters>4569.7516804435</DistanceMeters>
          </Trackpoint>
          <Trackpoint>
            <Time>2018-12-30T10:00:13.000Z</Time>
            <Position>
              <LatitudeDegrees>40.76415301300585269927978515625</LatitudeDegrees>
              <LongitudeDegrees>-4.0752566792070865631103515625</LongitudeDegrees>
            </Position>
            <AltitudeMeters>1358.199951171875</AltitudeMeters>
            <DistanceMeters>4571.5596869902</DistanceMeters>
          </Trackpoint>
          <Trackpoint>
            <Time>2018-12-30T10:00:14.000Z</Time>
            <Position>
              <LatitudeDegrees>40.7641651667654514312744140625</LatitudeDegrees>
              <LongitudeDegrees>-4.07525341026484966278076171875</LongitudeDegrees>
            </Position>
            <AltitudeMeters>1358.199951171875</AltitudeMeters>
            <DistanceMeters>4572.9432968362</DistanceMeters>
          </Trackpoint>
          <Trackpoint>
            <Time>2018-12-30T10:00:15.000Z</Time>
            <Position>
              <LatitudeDegrees>40.76417715288698673248291015625</LatitudeDegrees>
              <LongitudeDegrees>-4.07524536363780498504638671875</LongitudeDegrees>
            </Position>
            <AltitudeMeters>1358.199951171875</AltitudeMeters>
            <DistanceMeters>4574.4397790306</DistanceMeters>
          </Trackpoint>
          <Trackpoint>
            <Time>2018-12-30T10:00:16.000Z</Time>
            <Position>
              <LatitudeDegrees>40.7641871273517608642578125</LatitudeDegrees>
              <LongitudeDegrees>-4.07523446716368198394775390625</LongitudeDegrees>
            </Position>
            <AltitudeMeters>1358.199951171875</AltitudeMeters>
            <DistanceMeters>4575.8840600485</DistanceMeters>
          </Trackpoint>
          <Trackpoint>
            <Time>2018-12-30T10:00:17.000Z</Time>
            <Position>
              <LatitudeDegrees>40.76419676654040813446044921875</LatitudeDegrees>
              <LongitudeDegrees>-4.07522038556635379791259765625</LongitudeDegrees>
            </Position>
            <AltitudeMeters>1358.199951171875</AltitudeMeters>
            <DistanceMeters>4577.4854787039</DistanceMeters>
          </Trackpoint>
          <Trackpoint>
            <Time>2018-12-30T10:00:18.000Z</Time>
            <Position>
              <LatitudeDegrees>40.76420732773840427398681640625</LatitudeDegrees>
              <LongitudeDegrees>-4.075213260948657989501953125</LongitudeDegrees>
            </Position>
            <AltitudeMeters>1358.199951171875</AltitudeMeters>
            <DistanceMeters>4578.8090476784</DistanceMeters>
          </Trackpoint>
          <Trackpoint>
            <Time>2018-12-30T10:00:19.000Z</Time>
            <Position>
              <LatitudeDegrees>40.76421554200351238250732421875</LatitudeDegrees>
              <LongitudeDegrees>-4.07520211301743984222412109375</LongitudeDegrees>
            </Position>
            <AltitudeMeters>1358.199951171875</AltitudeMeters>
            <DistanceMeters>4580.1257764573</DistanceMeters>
          </Trackpoint>
          <Trackpoint>
            <Time>2018-12-30T10:00:20.000Z</Time>
            <Position>
              <LatitudeDegrees>40.764223672449588775634765625</LatitudeDegrees>
              <LongitudeDegrees>-4.07519373111426830291748046875</LongitudeDegrees>
            </Position>
            <AltitudeMeters>1358.199951171875</AltitudeMeters>
            <DistanceMeters>4581.2739886158</DistanceMeters>
          </Trackpoint>
          <Trackpoint>
            <Time>2018-12-30T10:00:21.000Z</Time>
            <Position>
              <LatitudeDegrees>40.7642354071140289306640625</LatitudeDegrees>
              <LongitudeDegrees>-4.075184762477874755859375</LongitudeDegrees>
            </Position>
            <AltitudeMeters>1358.199951171875</AltitudeMeters>
            <DistanceMeters>4582.7824909405</DistanceMeters>
          </Trackpoint>
          <Trackpoint>
            <Time>2018-12-30T10:00:22.000Z</Time>
            <Position>
              <LatitudeDegrees>40.76425091363489627838134765625</LatitudeDegrees>
              <LongitudeDegrees>-4.07517327927052974700927734375</LongitudeDegrees>
            </Position>
            <AltitudeMeters>1358.199951171875</AltitudeMeters>
            <DistanceMeters>4584.7621508044</DistanceMeters>
          </Trackpoint>
          <Trackpoint>
            <Time>2018-12-30T10:00:23.000Z</Time>
            <Position>
              <LatitudeDegrees>40.76426281593739986419677734375</LatitudeDegrees>
              <LongitudeDegrees>-4.075164310634136199951171875</LongitudeDegrees>
            </Position>
            <AltitudeMeters>1358.199951171875</AltitudeMeters>
            <DistanceMeters>4586.2885058491</DistanceMeters>
          </Trackpoint>
          <Trackpoint>
            <Time>2018-12-30T10:00:24.000Z</Time>
            <Position>
              <LatitudeDegrees>40.7642788253724575042724609375</LatitudeDegrees>
              <LongitudeDegrees>-4.07515735365450382232666015625</LongitudeDegrees>
            </Position>
            <AltitudeMeters>1358.199951171875</AltitudeMeters>
            <DistanceMeters>4588.1651330932</DistanceMeters>
          </Trackpoint>
          <Trackpoint>
            <Time>2018-12-30T10:00:25.000Z</Time>
            <Position>
              <LatitudeDegrees>40.76429718174040317535400390625</LatitudeDegrees>
              <LongitudeDegrees>-4.075150899589061737060546875</LongitudeDegrees>
            </Position>
            <AltitudeMeters>1358.199951171875</AltitudeMeters>
            <DistanceMeters>4590.2793440192</DistanceMeters>
          </Trackpoint>
          <Trackpoint>
            <Time>2018-12-30T10:00:26.000Z</Time>
            <Position>
              <LatitudeDegrees>40.76431520283222198486328125</LatitudeDegrees>
              <LongitudeDegrees>-4.07514193095266819000244140625</LongitudeDegrees>
            </Position>
            <AltitudeMeters>1358.199951171875</AltitudeMeters>
            <DistanceMeters>4592.4211373878</DistanceMeters>
          </Trackpoint>
          <Trackpoint>
            <Time>2018-12-30T10:00:27.000Z</Time>
            <Position>
              <LatitudeDegrees>40.7643304578959941864013671875</LatitudeDegrees>
              <LongitudeDegrees>-4.0751275978982448577880859375</LongitudeDegrees>
            </Position>
            <AltitudeMeters>1358.199951171875</AltitudeMeters>
            <DistanceMeters>4594.5052359386</DistanceMeters>
          </Trackpoint>
          <Trackpoint>
            <Time>2018-12-30T10:00:28.000Z</Time>
            <Position>
              <LatitudeDegrees>40.7643418572843074798583984375</LatitudeDegrees>
              <LongitudeDegrees>-4.07511896453797817230224609375</LongitudeDegrees>
            </Position>
            <AltitudeMeters>1358</AltitudeMeters>
            <DistanceMeters>4595.9650640246</DistanceMeters>
          </Trackpoint>
          <Trackpoint>
            <Time>2018-12-30T10:00:29.000Z</Time>
            <Position>
              <LatitudeDegrees>40.7643559388816356658935546875</LatitudeDegrees>
              <LongitudeDegrees>-4.07511125318706035614013671875</LongitudeDegrees>
            </Position>
            <AltitudeMeters>1358</AltitudeMeters>
            <DistanceMeters>4597.662295413</DistanceMeters>
          </Trackpoint>
          <Trackpoint>
            <Time>2018-12-30T10:00:30.000Z</Time>
            <Position>
              <LatitudeDegrees>40.76437027193605899810791015625</LatitudeDegrees>
              <LongitudeDegrees>-4.0751017816364765167236328125</LongitudeDegrees>
            </Position>
            <AltitudeMeters>1358</AltitudeMeters>
            <DistanceMeters>4599.4451546077</DistanceMeters>
          </Trackpoint>
          <Trackpoint>
            <Time>2018-12-30T10:00:31.000Z</Time>
            <Position>
              <LatitudeDegrees>40.76438116841018199920654296875</LatitudeDegrees>
              <LongitudeDegrees>-4.07509298063814640045166015625</LongitudeDegrees>
            </Position>
            <AltitudeMeters>1358</AltitudeMeters>
            <DistanceMeters>4600.8673842388</DistanceMeters>
          </Trackpoint>
          <Trackpoint>
            <Time>2018-12-30T10:00:32.000Z</Time>
            <Position>
              <LatitudeDegrees>40.764398016035556793212890625</LatitudeDegrees>
              <LongitudeDegrees>-4.07508174888789653778076171875</LongitudeDegrees>
            </Position>
            <AltitudeMeters>1358</AltitudeMeters>
            <DistanceMeters>4602.9665929718</DistanceMeters>
          </Trackpoint>
          <Trackpoint>
            <Time>2018-12-30T10:00:33.000Z</Time>
            <Position>
              <LatitudeDegrees>40.76441519893705844879150390625</LatitudeDegrees>
              <LongitudeDegrees>-4.07507420517504215240478515625</LongitudeDegrees>
            </Position>
            <AltitudeMeters>1358</AltitudeMeters>
            <DistanceMeters>4604.9824139955</DistanceMeters>
          </Trackpoint>
          <Trackpoint>
            <Time>2018-12-30T10:00:34.000Z</Time>
            <Position>
              <LatitudeDegrees>40.7644260115921497344970703125</LatitudeDegrees>
              <LongitudeDegrees>-4.07506029121577739715576171875</LongitudeDegrees>
            </Position>
            <AltitudeMeters>1358</AltitudeMeters>
            <DistanceMeters>4606.6662916643</DistanceMeters>
          </Trackpoint>
          <Trackpoint>
            <Time>2018-12-30T10:00:35.000Z</Time>
            <Position>
              <LatitudeDegrees>40.7644365727901458740234375</LatitudeDegrees>
              <LongitudeDegrees>-4.0750548429787158966064453125</LongitudeDegrees>
            </Position>
            <AltitudeMeters>1358.199951171875</AltitudeMeters>
            <DistanceMeters>4607.930539872</DistanceMeters>
          </Trackpoint>
          <Trackpoint>
            <Time>2018-12-30T10:00:36.000Z</Time>
            <Position>
              <LatitudeDegrees>40.7644478045403957366943359375</LatitudeDegrees>
              <LongitudeDegrees>-4.07504939474165439605712890625</LongitudeDegrees>
            </Position>
            <AltitudeMeters>1358.199951171875</AltitudeMeters>
            <DistanceMeters>4609.2643033665</DistanceMeters>
          </Trackpoint>
          <Trackpoint>
            <Time>2018-12-30T10:00:37.000Z</Time>
            <Position>
              <LatitudeDegrees>40.76446062885224819183349609375</LatitudeDegrees>
              <LongitudeDegrees>-4.0750437788665294647216796875</LongitudeDegrees>
            </Position>
            <AltitudeMeters>1358.4000244140625</AltitudeMeters>
            <DistanceMeters>4610.7698096559</DistanceMeters>
          </Trackpoint>
          <Trackpoint>
            <Time>2018-12-30T10:00:38.000Z</Time>
            <Position>
              <LatitudeDegrees>40.764472447335720062255859375</LatitudeDegrees>
              <LongitudeDegrees>-4.0750377438962459564208984375</LongitudeDegrees>
            </Position>
            <AltitudeMeters>1358.4000244140625</AltitudeMeters>
            <DistanceMeters>4612.1792836066</DistanceMeters>
          </Trackpoint>
          <Trackpoint>
            <Time>2018-12-30T10:00:39.000Z</Time>
            <Position>
              <LatitudeDegrees>40.764480493962764739990234375</LatitudeDegrees>
              <LongitudeDegrees>-4.07503254711627960205078125</LongitudeDegrees>
            </Position>
            <AltitudeMeters>1358.4000244140625</AltitudeMeters>
            <DistanceMeters>4613.1759321951</DistanceMeters>
          </Trackpoint>
          <Trackpoint>
            <Time>2018-12-30T10:00:40.000Z</Time>
            <Position>
              <LatitudeDegrees>40.76448862440884113311767578125</LatitudeDegrees>
              <LongitudeDegrees>-4.07502114772796630859375</LongitudeDegrees>
            </Position>
            <AltitudeMeters>1358.4000244140625</AltitudeMeters>
            <DistanceMeters>4614.492660974</DistanceMeters>
          </Trackpoint>
          <Trackpoint>
            <Time>2018-12-30T10:00:41.000Z</Time>
            <Position>
              <LatitudeDegrees>40.76449432410299777984619140625</LatitudeDegrees>
              <LongitudeDegrees>-4.075011424720287322998046875</LongitudeDegrees>
            </Position>
            <AltitudeMeters>1358.199951171875</AltitudeMeters>
            <DistanceMeters>4615.524915313</DistanceMeters>
          </Trackpoint>
          <Trackpoint>
            <Time>2018-12-30T10:00:42.000Z</Time>
            <Position>
              <LatitudeDegrees>40.764498598873615264892578125</LatitudeDegrees>
              <LongitudeDegrees>-4.07500145025551319122314453125</LongitudeDegrees>
            </Position>
            <AltitudeMeters>1358.199951171875</AltitudeMeters>
            <DistanceMeters>4616.4940014548</DistanceMeters>
          </Trackpoint>
          <Trackpoint>
            <Time>2018-12-30T10:00:43.000Z</Time>
            <Position>
              <LatitudeDegrees>40.7645068131387233734130859375</LatitudeDegrees>
              <LongitudeDegrees>-4.07499206252396106719970703125</LongitudeDegrees>
            </Position>
            <AltitudeMeters>1358</AltitudeMeters>
            <DistanceMeters>4617.703494069</DistanceMeters>
          </Trackpoint>
          <Trackpoint>
            <Time>2018-12-30T10:00:44.000Z</Time>
            <Position>
              <LatitudeDegrees>40.76451896689832210540771484375</LatitudeDegrees>
              <LongitudeDegrees>-4.074983932077884674072265625</LongitudeDegrees>
            </Position>
            <AltitudeMeters>1358</AltitudeMeters>
            <DistanceMeters>4619.2209490084</DistanceMeters>
          </Trackpoint>
          <Trackpoint>
            <Time>2018-12-30T10:00:45.000Z</Time>
            <Position>
              <LatitudeDegrees>40.76453070156276226043701171875</LatitudeDegrees>
              <LongitudeDegrees>-4.0749715268611907958984375</LongitudeDegrees>
            </Position>
            <AltitudeMeters>1358</AltitudeMeters>
            <DistanceMeters>4620.8940669653</DistanceMeters>
          </Trackpoint>
          <Trackpoint>
            <Time>2018-12-30T10:00:46.000Z</Time>
            <Position>
              <LatitudeDegrees>40.76454243622720241546630859375</LatitudeDegrees>
              <LongitudeDegrees>-4.074966497719287872314453125</LongitudeDegrees>
            </Position>
            <AltitudeMeters>1358</AltitudeMeters>
            <DistanceMeters>4622.2678522385</DistanceMeters>
          </Trackpoint>
          <Trackpoint>
            <Time>2018-12-30T10:00:47.000Z</Time>
            <Position>
              <LatitudeDegrees>40.764555595815181732177734375</LatitudeDegrees>
              <LongitudeDegrees>-4.07495786435902118682861328125</LongitudeDegrees>
            </Position>
            <AltitudeMeters>1358.199951171875</AltitudeMeters>
            <DistanceMeters>4623.9055129799</DistanceMeters>
          </Trackpoint>
          <Trackpoint>
            <Time>2018-12-30T10:00:48.000Z</Time>
            <Position>
              <LatitudeDegrees>40.7645671628415584564208984375</LatitudeDegrees>
              <LongitudeDegrees>-4.0749500691890716552734375</LongitudeDegrees>
            </Position>
            <AltitudeMeters>1358.4000244140625</AltitudeMeters>
            <DistanceMeters>4625.3497939977</DistanceMeters>
          </Trackpoint>
          <Trackpoint>
            <Time>2018-12-30T10:00:49.000Z</Time>
            <Position>
              <LatitudeDegrees>40.76457881368696689605712890625</LatitudeDegrees>
              <LongitudeDegrees>-4.07493690960109233856201171875</LongitudeDegrees>
            </Position>
            <AltitudeMeters>1358.5999755859375</AltitudeMeters>
            <DistanceMeters>4627.0576331855</DistanceMeters>
          </Trackpoint>
          <Trackpoint>
            <Time>2018-12-30T10:00:50.000Z</Time>
            <Position>
              <LatitudeDegrees>40.76459239237010478973388671875</LatitudeDegrees>
              <LongitudeDegrees>-4.074925594031810760498046875</LongitudeDegrees>
            </Position>
            <AltitudeMeters>1358.5999755859375</AltitudeMeters>
            <DistanceMeters>4628.8430230546</DistanceMeters>
          </Trackpoint>
          <Trackpoint>
            <Time>2018-12-30T10:00:51.000Z</Time>
            <Position>
              <LatitudeDegrees>40.76460664160549640655517578125</LatitudeDegrees>
              <LongitudeDegrees>-4.07491109333932399749755859375</LongitudeDegrees>
            </Position>
            <AltitudeMeters>1358.5999755859375</AltitudeMeters>
            <DistanceMeters>4630.8453601744</DistanceMeters>
          </Trackpoint>
          <Trackpoint>
            <Time>2018-12-30T10:00:52.000Z</Time>
            <Position>
              <LatitudeDegrees>40.7646224834024906158447265625</LatitudeDegrees>
              <LongitudeDegrees>-4.07489843666553497314453125</LongitudeDegrees>
            </Position>
            <AltitudeMeters>1358.5999755859375</AltitudeMeters>
            <DistanceMeters>4632.9076807133</DistanceMeters>
          </Trackpoint>
          <Trackpoint>
            <Time>2018-12-30T10:00:53.000Z</Time>
            <Position>
              <LatitudeDegrees>40.76463648118078708648681640625</LatitudeDegrees>
              <LongitudeDegrees>-4.07489298842847347259521484375</LongitudeDegrees>
            </Position>
            <AltitudeMeters>1358.4000244140625</AltitudeMeters>
            <DistanceMeters>4634.5370494482</DistanceMeters>
          </Trackpoint>
          <Trackpoint>
            <Time>2018-12-30T10:00:54.000Z</Time>
            <Position>
              <LatitudeDegrees>40.76464754529297351837158203125</LatitudeDegrees>
              <LongitudeDegrees>-4.07488460652530193328857421875</LongitudeDegrees>
            </Position>
            <AltitudeMeters>1358.4000244140625</AltitudeMeters>
            <DistanceMeters>4635.9592790793</DistanceMeters>
          </Trackpoint>
          <Trackpoint>
            <Time>2018-12-30T10:00:55.000Z</Time>
            <Position>
              <LatitudeDegrees>40.76465710066258907318115234375</LatitudeDegrees>
              <LongitudeDegrees>-4.0748747996985912322998046875</LongitudeDegrees>
            </Position>
            <AltitudeMeters>1358.199951171875</AltitudeMeters>
            <DistanceMeters>4637.3065152743</DistanceMeters>
          </Trackpoint>
          <Trackpoint>
            <Time>2018-12-30T10:00:56.000Z</Time>
            <Position>
              <LatitudeDegrees>40.76466715894639492034912109375</LatitudeDegrees>
              <LongitudeDegrees>-4.07486331649124622344970703125</LongitudeDegrees>
            </Position>
            <AltitudeMeters>1358.199951171875</AltitudeMeters>
            <DistanceMeters>4638.7847840251</DistanceMeters>
          </Trackpoint>
          <Trackpoint>
            <Time>2018-12-30T10:00:57.000Z</Time>
            <Position>
              <LatitudeDegrees>40.76468073762953281402587890625</LatitudeDegrees>
              <LongitudeDegrees>-4.07485459931194782257080078125</LongitudeDegrees>
            </Position>
            <AltitudeMeters>1358.199951171875</AltitudeMeters>
            <DistanceMeters>4640.4686616939</DistanceMeters>
          </Trackpoint>
          <Trackpoint>
            <Time>2018-12-30T10:00:58.000Z</Time>
            <Position>
              <LatitudeDegrees>40.7646915502846240997314453125</LatitudeDegrees>
              <LongitudeDegrees>-4.07484705559909343719482421875</LongitudeDegrees>
            </Position>
            <AltitudeMeters>1358.199951171875</AltitudeMeters>
            <DistanceMeters>4641.8292371864</DistanceMeters>
          </Trackpoint>
          <Trackpoint>
            <Time>2018-12-30T10:00:59.000Z</Time>
            <Position>
              <LatitudeDegrees>40.7647012732923030853271484375</LatitudeDegrees>
              <LongitudeDegrees>-4.07483465038239955902099609375</LongitudeDegrees>
            </Position>
            <AltitudeMeters>1358.199951171875</AltitudeMeters>
            <DistanceMeters>4643.3317414663</DistanceMeters>
          </Trackpoint>
          <Trackpoint>
            <Time>2018-12-30T10:01:00.000Z</Time>
            <Position>
              <LatitudeDegrees>40.76471074484288692474365234375</LatitudeDegrees>
              <LongitudeDegrees>-4.07482610084116458892822265625</LongitudeDegrees>
            </Position>
            <AltitudeMeters>1358</AltitudeMeters>
            <DistanceMeters>4644.6066586244</DistanceMeters>
          </Trackpoint>
          <Trackpoint>
            <Time>2018-12-30T10:01:01.000Z</Time>
            <Position>
              <LatitudeDegrees>40.764721892774105072021484375</LatitudeDegrees>
              <LongitudeDegrees>-4.07481168396770954132080078125</LongitudeDegrees>
            </Position>
            <AltitudeMeters>1358</AltitudeMeters>
            <DistanceMeters>4646.3433352011</DistanceMeters>
          </Trackpoint>
          <Trackpoint>
            <Time>2018-12-30T10:01:02.000Z</Time>
            <Position>
              <LatitudeDegrees>40.764730609953403472900390625</LatitudeDegrees>
              <LongitudeDegrees>-4.0747980214655399322509765625</LongitudeDegrees>
            </Position>
            <AltitudeMeters>1357.800048828125</AltitudeMeters>
            <DistanceMeters>4647.8488414905</DistanceMeters>
          </Trackpoint>
          <Trackpoint>
            <Time>2018-12-30T10:01:03.000Z</Time>
            <Position>
              <LatitudeDegrees>40.7647384889423847198486328125</LatitudeDegrees>
              <LongitudeDegrees>-4.07479156740009784698486328125</LongitudeDegrees>
            </Position>
            <AltitudeMeters>1357.800048828125</AltitudeMeters>
            <DistanceMeters>4648.8810958295</DistanceMeters>
          </Trackpoint>
          <Trackpoint>
            <Time>2018-12-30T10:01:04.000Z</Time>
            <Position>
              <LatitudeDegrees>40.76474829576909542083740234375</LatitudeDegrees>
              <LongitudeDegrees>-4.07477983273565769195556640625</LongitudeDegrees>
            </Position>
            <AltitudeMeters>1357.5999755859375</AltitudeMeters>
            <DistanceMeters>4650.3532433583</DistanceMeters>
          </Trackpoint>
          <Trackpoint>
            <Time>2018-12-30T10:01:05.000Z</Time>
            <Position>
              <LatitudeDegrees>40.76475684531033039093017578125</LatitudeDegrees>
              <LongitudeDegrees>-4.074769355356693267822265625</LongitudeDegrees>
            </Position>
            <AltitudeMeters>1357.4000244140625</AltitudeMeters>
            <DistanceMeters>4651.6527141333</DistanceMeters>
          </Trackpoint>
          <Trackpoint>
            <Time>2018-12-30T10:01:06.000Z</Time>
            <Position>
              <LatitudeDegrees>40.76476505957543849945068359375</LatitudeDegrees>
              <LongitudeDegrees>-4.07475535757839679718017578125</LongitudeDegrees>
            </Position>
            <AltitudeMeters>1357.4000244140625</AltitudeMeters>
            <DistanceMeters>4653.1461761789</DistanceMeters>
          </Trackpoint>
          <Trackpoint>
            <Time>2018-12-30T10:01:07.000Z</Time>
            <Position>
              <LatitudeDegrees>40.76477427966892719268798828125</LatitudeDegrees>
              <LongitudeDegrees>-4.074749238789081573486328125</LongitudeDegrees>
            </Position>
            <AltitudeMeters>1357.4000244140625</AltitudeMeters>
            <DistanceMeters>4654.2943883374</DistanceMeters>
          </Trackpoint>
          <Trackpoint>
            <Time>2018-12-30T10:01:08.000Z</Time>
            <Position>
              <LatitudeDegrees>40.764786936342716217041015625</LatitudeDegrees>
              <LongitudeDegrees>-4.07473574392497539520263671875</LongitudeDegrees>
            </Position>
            <AltitudeMeters>1357.199951171875</AltitudeMeters>
            <DistanceMeters>4656.1073824977</DistanceMeters>
          </Trackpoint>
          <Trackpoint>
            <Time>2018-12-30T10:01:09.000Z</Time>
            <Position>
              <LatitudeDegrees>40.7647958211600780487060546875</LatitudeDegrees>
              <LongitudeDegrees>-4.074724428355693817138671875</LongitudeDegrees>
            </Position>
            <AltitudeMeters>1357.199951171875</AltitudeMeters>
            <DistanceMeters>4657.4811677709</DistanceMeters>
          </Trackpoint>
          <Trackpoint>
            <Time>2018-12-30T10:01:10.000Z</Time>
            <Position>
              <LatitudeDegrees>40.76480872929096221923828125</LatitudeDegrees>
              <LongitudeDegrees>-4.074714370071887969970703125</LongitudeDegrees>
            </Position>
            <AltitudeMeters>1357.199951171875</AltitudeMeters>
            <DistanceMeters>4659.1515849707</DistanceMeters>
          </Trackpoint>
          <Trackpoint>
            <Time>2018-12-30T10:01:11.000Z</Time>
            <Position>
              <LatitudeDegrees>40.76481409370899200439453125</LatitudeDegrees>
              <LongitudeDegrees>-4.07470389269292354583740234375</LongitudeDegrees>
            </Position>
            <AltitudeMeters>1357</AltitudeMeters>
            <DistanceMeters>4660.2182571939</DistanceMeters>
          </Trackpoint>
          <Trackpoint>
            <Time>2018-12-30T10:01:12.000Z</Time>
            <Position>
              <LatitudeDegrees>40.76482088305056095123291015625</LatitudeDegrees>
              <LongitudeDegrees>-4.07468679361045360565185546875</LongitudeDegrees>
            </Position>
            <AltitudeMeters>1357</AltitudeMeters>
            <DistanceMeters>4661.8420744009</DistanceMeters>
          </Trackpoint>
          <Trackpoint>
            <Time>2018-12-30T10:01:13.000Z</Time>
            <Position>
              <LatitudeDegrees>40.76483094133436679840087890625</LatitudeDegrees>
              <LongitudeDegrees>-4.0746709518134593963623046875</LongitudeDegrees>
            </Position>
            <AltitudeMeters>1356.800048828125</AltitudeMeters>
            <DistanceMeters>4663.5839428475</DistanceMeters>
          </Trackpoint>
          <Trackpoint>
            <Time>2018-12-30T10:01:14.000Z</Time>
            <Position>
              <LatitudeDegrees>40.764842592179775238037109375</LatitudeDegrees>
              <LongitudeDegrees>-4.07466064207255840301513671875</LongitudeDegrees>
            </Position>
            <AltitudeMeters>1356.800048828125</AltitudeMeters>
            <DistanceMeters>4665.1453910983</DistanceMeters>
          </Trackpoint>
          <Trackpoint>
            <Time>2018-12-30T10:01:15.000Z</Time>
            <Position>
              <LatitudeDegrees>40.76485172845423221588134765625</LatitudeDegrees>
              <LongitudeDegrees>-4.0746538527309894561767578125</LongitudeDegrees>
            </Position>
            <AltitudeMeters>1356.5999755859375</AltitudeMeters>
            <DistanceMeters>4666.309225909</DistanceMeters>
          </Trackpoint>
          <Trackpoint>
            <Time>2018-12-30T10:01:16.000Z</Time>
            <Position>
              <LatitudeDegrees>40.7648603618144989013671875</LatitudeDegrees>
              <LongitudeDegrees>-4.0746444649994373321533203125</LongitudeDegrees>
            </Position>
            <AltitudeMeters>1356.5999755859375</AltitudeMeters>
            <DistanceMeters>4667.5518614436</DistanceMeters>
          </Trackpoint>
          <Trackpoint>
            <Time>2018-12-30T10:01:17.000Z</Time>
            <Position>
              <LatitudeDegrees>40.76487435959279537200927734375</LatitudeDegrees>
              <LongitudeDegrees>-4.07462208531796932220458984375</LongitudeDegrees>
            </Position>
            <AltitudeMeters>1356.5999755859375</AltitudeMeters>
            <DistanceMeters>4670.0005285828</DistanceMeters>
          </Trackpoint>
          <Trackpoint>
            <Time>2018-12-30T10:01:18.000Z</Time>
            <Position>
              <LatitudeDegrees>40.76488651335239410400390625</LatitudeDegrees>
              <LongitudeDegrees>-4.0746067464351654052734375</LongitudeDegrees>
            </Position>
            <AltitudeMeters>1356.5999755859375</AltitudeMeters>
            <DistanceMeters>4671.8723377772</DistanceMeters>
          </Trackpoint>
          <Trackpoint>
            <Time>2018-12-30T10:01:19.000Z</Time>
            <Position>
              <LatitudeDegrees>40.76489598490297794342041015625</LatitudeDegrees>
              <LongitudeDegrees>-4.0745931677520275115966796875</LongitudeDegrees>
            </Position>
            <AltitudeMeters>1356.4000244140625</AltitudeMeters>
            <DistanceMeters>4673.427992137</DistanceMeters>
          </Trackpoint>
          <Trackpoint>
            <Time>2018-12-30T10:01:20.000Z</Time>
            <Position>
              <LatitudeDegrees>40.76490570791065692901611328125</LatitudeDegrees>
              <LongitudeDegrees>-4.07457715831696987152099609375</LongitudeDegrees>
            </Position>
            <AltitudeMeters>1356.199951171875</AltitudeMeters>
            <DistanceMeters>4675.159461276</DistanceMeters>
          </Trackpoint>
          <Trackpoint>
            <Time>2018-12-30T10:01:21.000Z</Time>
            <Position>
              <LatitudeDegrees>40.76491593383252620697021484375</LatitudeDegrees>
              <LongitudeDegrees>-4.07457145862281322479248046875</LongitudeDegrees>
            </Position>
            <AltitudeMeters>1356</AltitudeMeters>
            <DistanceMeters>4676.3984580458</DistanceMeters>
          </Trackpoint>
          <Trackpoint>
            <Time>2018-12-30T10:01:22.000Z</Time>
            <Position>
              <LatitudeDegrees>40.76492498628795146942138671875</LatitudeDegrees>
              <LongitudeDegrees>-4.07456559129059314727783203125</LongitudeDegrees>
            </Position>
            <AltitudeMeters>1356</AltitudeMeters>
            <DistanceMeters>4677.5228292932</DistanceMeters>
          </Trackpoint>
          <Trackpoint>
            <Time>2018-12-30T10:01:23.000Z</Time>
            <Position>
              <LatitudeDegrees>40.7649306021630764007568359375</LatitudeDegrees>
              <LongitudeDegrees>-4.07455184496939182281494140625</LongitudeDegrees>
            </Position>
            <AltitudeMeters>1356</AltitudeMeters>
            <DistanceMeters>4678.8395580722</DistanceMeters>
          </Trackpoint>
          <Trackpoint>
            <Time>2018-12-30T10:01:24.000Z</Time>
            <Position>
              <LatitudeDegrees>40.76493537984788417816162109375</LatitudeDegrees>
              <LongitudeDegrees>-4.0745425410568714141845703125</LongitudeDegrees>
            </Position>
            <AltitudeMeters>1355.800048828125</AltitudeMeters>
            <DistanceMeters>4679.7802745499</DistanceMeters>
          </Trackpoint>
          <Trackpoint>
            <Time>2018-12-30T10:01:25.000Z</Time>
            <Position>
              <LatitudeDegrees>40.76493906788527965545654296875</LatitudeDegrees>
              <LongitudeDegrees>-4.0745301358401775360107421875</LongitudeDegrees>
            </Position>
            <AltitudeMeters>1355.5999755859375</AltitudeMeters>
            <DistanceMeters>4680.9046457974</DistanceMeters>
          </Trackpoint>
          <Trackpoint>
            <Time>2018-12-30T10:01:26.000Z</Time>
            <Position>
              <LatitudeDegrees>40.764943175017833709716796875</LatitudeDegrees>
              <LongitudeDegrees>-4.07451848499476909637451171875</LongitudeDegrees>
            </Position>
            <AltitudeMeters>1355.5999755859375</AltitudeMeters>
            <DistanceMeters>4681.9881170419</DistanceMeters>
          </Trackpoint>
          <Trackpoint>
            <Time>2018-12-30T10:01:27.000Z</Time>
            <Position>
              <LatitudeDegrees>40.764949880540370941162109375</LatitudeDegrees>
              <LongitudeDegrees>-4.0745036490261554718017578125</LongitudeDegrees>
            </Position>
            <AltitudeMeters>1355.4000244140625</AltitudeMeters>
            <DistanceMeters>4683.4448489885</DistanceMeters>
          </Trackpoint>
          <Trackpoint>
            <Time>2018-12-30T10:01:28.000Z</Time>
            <Position>
              <LatitudeDegrees>40.764955915510654449462890625</LatitudeDegrees>
              <LongitudeDegrees>-4.07449610531330108642578125</LongitudeDegrees>
            </Position>
            <AltitudeMeters>1355.199951171875</AltitudeMeters>
            <DistanceMeters>4684.3759168371</DistanceMeters>
          </Trackpoint>
          <Trackpoint>
            <Time>2018-12-30T10:01:29.000Z</Time>
            <Position>
              <LatitudeDegrees>40.76496588997542858123779296875</LatitudeDegrees>
              <LongitudeDegrees>-4.0744885616004467010498046875</LongitudeDegrees>
            </Position>
            <AltitudeMeters>1354.800048828125</AltitudeMeters>
            <DistanceMeters>4685.6578973022</DistanceMeters>
          </Trackpoint>
          <Trackpoint>
            <Time>2018-12-30T10:01:30.000Z</Time>
            <Position>
              <LatitudeDegrees>40.7649768702685832977294921875</LatitudeDegrees>
              <LongitudeDegrees>-4.07448269426822662353515625</LongitudeDegrees>
            </Position>
            <AltitudeMeters>1354.800048828125</AltitudeMeters>
            <DistanceMeters>4686.9746260811</DistanceMeters>
          </Trackpoint>
          <Trackpoint>
            <Time>2018-12-30T10:01:31.000Z</Time>
            <Position>
              <LatitudeDegrees>40.764982067048549652099609375</LatitudeDegrees>
              <LongitudeDegrees>-4.07447204925119876861572265625</LongitudeDegrees>
            </Position>
            <AltitudeMeters>1354.5999755859375</AltitudeMeters>
            <DistanceMeters>4688.0412983044</DistanceMeters>
          </Trackpoint>
          <Trackpoint>
            <Time>2018-12-30T10:01:32.000Z</Time>
            <Position>
              <LatitudeDegrees>40.7649875991046428680419921875</LatitudeDegrees>
              <LongitudeDegrees>-4.07446517609059810638427734375</LongitudeDegrees>
            </Position>
            <AltitudeMeters>1354.5999755859375</AltitudeMeters>
            <DistanceMeters>4688.8859142165</DistanceMeters>
          </Trackpoint>
          <Trackpoint>
            <Time>2018-12-30T10:01:33.000Z</Time>
            <Position>
              <LatitudeDegrees>40.76499070040881633758544921875</LatitudeDegrees>
              <LongitudeDegrees>-4.0744570456445217132568359375</LongitudeDegrees>
            </Position>
            <AltitudeMeters>1354.4000244140625</AltitudeMeters>
            <DistanceMeters>4689.6520440807</DistanceMeters>
          </Trackpoint>
          <Trackpoint>
            <Time>2018-12-30T10:01:34.000Z</Time>
            <Position>
              <LatitudeDegrees>40.7649963162839412689208984375</LatitudeDegrees>
              <LongitudeDegrees>-4.0744496695697307586669921875</LongitudeDegrees>
            </Position>
            <AltitudeMeters>1354.4000244140625</AltitudeMeters>
            <DistanceMeters>4690.5332855767</DistanceMeters>
          </Trackpoint>
          <Trackpoint>
            <Time>2018-12-30T10:01:35.000Z</Time>
            <Position>
              <LatitudeDegrees>40.7650043629109859466552734375</LatitudeDegrees>
              <LongitudeDegrees>-4.074441455304622650146484375</LongitudeDegrees>
            </Position>
            <AltitudeMeters>1354.199951171875</AltitudeMeters>
            <DistanceMeters>4691.6696398047</DistanceMeters>
          </Trackpoint>
          <Trackpoint>
            <Time>2018-12-30T10:01:36.000Z</Time>
            <Position>
              <LatitudeDegrees>40.7650110684335231781005859375</LatitudeDegrees>
              <LongitudeDegrees>-4.0744298882782459259033203125</LongitudeDegrees>
            </Position>
            <AltitudeMeters>1354</AltitudeMeters>
            <DistanceMeters>4692.8976555888</DistanceMeters>
          </Trackpoint>
          <Trackpoint>
            <Time>2018-12-30T10:01:37.000Z</Time>
            <Position>
              <LatitudeDegrees>40.76501701958477497100830078125</LatitudeDegrees>
              <LongitudeDegrees>-4.07441689632833003997802734375</LongitudeDegrees>
            </Position>
            <AltitudeMeters>1354</AltitudeMeters>
            <DistanceMeters>4694.1796360539</DistanceMeters>
          </Trackpoint>
          <Trackpoint>
            <Time>2018-12-30T10:01:38.000Z</Time>
            <Position>
              <LatitudeDegrees>40.76502271927893161773681640625</LatitudeDegrees>
              <LongitudeDegrees>-4.07440164126455783843994140625</LongitudeDegrees>
            </Position>
            <AltitudeMeters>1354</AltitudeMeters>
            <DistanceMeters>4695.6145079748</DistanceMeters>
          </Trackpoint>
          <Trackpoint>
            <Time>2018-12-30T10:01:39.000Z</Time>
            <Position>
              <LatitudeDegrees>40.76502741314470767974853515625</LatitudeDegrees>
              <LongitudeDegrees>-4.074387140572071075439453125</LongitudeDegrees>
            </Position>
            <AltitudeMeters>1353.800048828125</AltitudeMeters>
            <DistanceMeters>4696.9414838248</DistanceMeters>
          </Trackpoint>
          <Trackpoint>
            <Time>2018-12-30T10:01:40.000Z</Time>
            <Position>
              <LatitudeDegrees>40.7650335319340229034423828125</LatitudeDegrees>
              <LongitudeDegrees>-4.07437632791697978973388671875</LongitudeDegrees>
            </Position>
            <AltitudeMeters>1353.5999755859375</AltitudeMeters>
            <DistanceMeters>4698.0738578156</DistanceMeters>
          </Trackpoint>
          <Trackpoint>
            <Time>2018-12-30T10:01:41.000Z</Time>
            <Position>
              <LatitudeDegrees>40.7650400698184967041015625</LatitudeDegrees>
              <LongitudeDegrees>-4.0743668563663959503173828125</LongitudeDegrees>
            </Position>
            <AltitudeMeters>1353.5999755859375</AltitudeMeters>
            <DistanceMeters>4699.1573290601</DistanceMeters>
          </Trackpoint>
          <Trackpoint>
            <Time>2018-12-30T10:01:42.000Z</Time>
            <Position>
              <LatitudeDegrees>40.76504887081682682037353515625</LatitudeDegrees>
              <LongitudeDegrees>-4.07435637898743152618408203125</LongitudeDegrees>
            </Position>
            <AltitudeMeters>1353.4000244140625</AltitudeMeters>
            <DistanceMeters>4700.4808980346</DistanceMeters>
          </Trackpoint>
          <Trackpoint>
            <Time>2018-12-30T10:01:43.000Z</Time>
            <Position>
              <LatitudeDegrees>40.7650600187480449676513671875</LatitudeDegrees>
              <LongitudeDegrees>-4.07435067929327487945556640625</LongitudeDegrees>
            </Position>
            <AltitudeMeters>1353.4000244140625</AltitudeMeters>
            <DistanceMeters>4701.8146615291</DistanceMeters>
          </Trackpoint>
          <Trackpoint>
            <Time>2018-12-30T10:01:44.000Z</Time>
            <Position>
              <LatitudeDegrees>40.7650687359273433685302734375</LatitudeDegrees>
              <LongitudeDegrees>-4.074346236884593963623046875</LongitudeDegrees>
            </Position>
            <AltitudeMeters>1353.199951171875</AltitudeMeters>
            <DistanceMeters>4702.8556270297</DistanceMeters>
          </Trackpoint>
          <Trackpoint>
            <Time>2018-12-30T10:01:45.000Z</Time>
            <Position>
              <LatitudeDegrees>40.7650777883827686309814453125</LatitudeDegrees>
              <LongitudeDegrees>-4.07433324493467807769775390625</LongitudeDegrees>
            </Position>
            <AltitudeMeters>1353.199951171875</AltitudeMeters>
            <DistanceMeters>4704.3430303807</DistanceMeters>
          </Trackpoint>
          <Trackpoint>
            <Time>2018-12-30T10:01:46.000Z</Time>
            <Position>
              <LatitudeDegrees>40.76508709229528903961181640625</LatitudeDegrees>
              <LongitudeDegrees>-4.074324108660221099853515625</LongitudeDegrees>
            </Position>
            <AltitudeMeters>1353</AltitudeMeters>
            <DistanceMeters>4705.6390219774</DistanceMeters>
          </Trackpoint>
          <Trackpoint>
            <Time>2018-12-30T10:01:47.000Z</Time>
            <Position>
              <LatitudeDegrees>40.76509178616106510162353515625</LatitudeDegrees>
              <LongitudeDegrees>-4.07431514002382755279541015625</LongitudeDegrees>
            </Position>
            <AltitudeMeters>1353</AltitudeMeters>
            <DistanceMeters>4706.5603401557</DistanceMeters>
          </Trackpoint>
          <Trackpoint>
            <Time>2018-12-30T10:01:48.000Z</Time>
            <Position>
              <LatitudeDegrees>40.76510100625455379486083984375</LatitudeDegrees>
              <LongitudeDegrees>-4.074306674301624298095703125</LongitudeDegrees>
            </Position>
            <AltitudeMeters>1353</AltitudeMeters>
            <DistanceMeters>4707.806603831</DistanceMeters>
          </Trackpoint>
          <Trackpoint>
            <Time>2018-12-30T10:01:49.000Z</Time>
            <Position>
              <LatitudeDegrees>40.7651079632341861724853515625</LatitudeDegrees>
              <LongitudeDegrees>-4.07429183833301067352294921875</LongitudeDegrees>
            </Position>
            <AltitudeMeters>1353</AltitudeMeters>
            <DistanceMeters>4709.2787513598</DistanceMeters>
          </Trackpoint>
          <Trackpoint>
            <Time>2018-12-30T10:01:50.000Z</Time>
            <Position>
              <LatitudeDegrees>40.76512162573635578155517578125</LatitudeDegrees>
              <LongitudeDegrees>-4.07428178004920482635498046875</LongitudeDegrees>
            </Position>
            <AltitudeMeters>1352.5999755859375</AltitudeMeters>
            <DistanceMeters>4711.0206198064</DistanceMeters>
          </Trackpoint>
          <Trackpoint>
            <Time>2018-12-30T10:01:51.000Z</Time>
            <Position>
              <LatitudeDegrees>40.7651267386972904205322265625</LatitudeDegrees>
              <LongitudeDegrees>-4.07426753081381320953369140625</LongitudeDegrees>
            </Position>
            <AltitudeMeters>1352.4000244140625</AltitudeMeters>
            <DistanceMeters>4712.3509938076</DistanceMeters>
          </Trackpoint>
          <Trackpoint>
            <Time>2018-12-30T10:01:52.000Z</Time>
            <Position>
              <LatitudeDegrees>40.765137635171413421630859375</LatitudeDegrees>
              <LongitudeDegrees>-4.07425227575004100799560546875</LongitudeDegrees>
            </Position>
            <AltitudeMeters>1352.199951171875</AltitudeMeters>
            <DistanceMeters>4714.1185928711</DistanceMeters>
          </Trackpoint>
          <Trackpoint>
            <Time>2018-12-30T10:01:53.000Z</Time>
            <Position>
              <LatitudeDegrees>40.76514400541782379150390625</LatitudeDegrees>
              <LongitudeDegrees>-4.074230231344699859619140625</LongitudeDegrees>
            </Position>
            <AltitudeMeters>1352.199951171875</AltitudeMeters>
            <DistanceMeters>4716.1073546675</DistanceMeters>
          </Trackpoint>
          <Trackpoint>
            <Time>2018-12-30T10:01:54.000Z</Time>
            <Position>
              <LatitudeDegrees>40.7651585899293422698974609375</LatitudeDegrees>
              <LongitudeDegrees>-4.07421422190964221954345703125</LongitudeDegrees>
            </Position>
            <AltitudeMeters>1351.800048828125</AltitudeMeters>
            <DistanceMeters>4718.2194289472</DistanceMeters>
          </Trackpoint>
          <Trackpoint>
            <Time>2018-12-30T10:01:55.000Z</Time>
            <Position>
              <LatitudeDegrees>40.7651679776608943939208984375</LatitudeDegrees>
              <LongitudeDegrees>-4.07420751638710498809814453125</LongitudeDegrees>
            </Position>
            <AltitudeMeters>1351.5999755859375</AltitudeMeters>
            <DistanceMeters>4719.4101102655</DistanceMeters>
          </Trackpoint>
          <Trackpoint>
            <Time>2018-12-30T10:01:56.000Z</Time>
            <Position>
              <LatitudeDegrees>40.765181891620159149169921875</LatitudeDegrees>
              <LongitudeDegrees>-4.07420433126389980316162109375</LongitudeDegrees>
            </Position>
            <AltitudeMeters>1351.5999755859375</AltitudeMeters>
            <DistanceMeters>4720.983082276</DistanceMeters>
          </Trackpoint>
          <Trackpoint>
            <Time>2018-12-30T10:01:57.000Z</Time>
            <Position>
              <LatitudeDegrees>40.7651956379413604736328125</LatitudeDegrees>
              <LongitudeDegrees>-4.07419427298009395599365234375</LongitudeDegrees>
            </Position>
            <AltitudeMeters>1351.199951171875</AltitudeMeters>
            <DistanceMeters>4722.7352883115</DistanceMeters>
          </Trackpoint>
          <Trackpoint>
            <Time>2018-12-30T10:01:58.000Z</Time>
            <Position>
              <LatitudeDegrees>40.7652063667774200439453125</LatitudeDegrees>
              <LongitudeDegrees>-4.07418170012533664703369140625</LongitudeDegrees>
            </Position>
            <AltitudeMeters>1351</AltitudeMeters>
            <DistanceMeters>4724.3310582063</DistanceMeters>
          </Trackpoint>
          <Trackpoint>
            <Time>2018-12-30T10:01:59.000Z</Time>
            <Position>
              <LatitudeDegrees>40.76521969400346279144287109375</LatitudeDegrees>
              <LongitudeDegrees>-4.07416527159512042999267578125</LongitudeDegrees>
            </Position>
            <AltitudeMeters>1351</AltitudeMeters>
            <DistanceMeters>4726.360273537</DistanceMeters>
          </Trackpoint>
          <Trackpoint>
            <Time>2018-12-30T10:02:00.000Z</Time>
            <Position>
              <LatitudeDegrees>40.7652310095727443695068359375</LatitudeDegrees>
              <LongitudeDegrees>-4.07416351139545440673828125</LongitudeDegrees>
            </Position>
            <AltitudeMeters>1351</AltitudeMeters>
            <DistanceMeters>4727.6280880373</DistanceMeters>
          </Trackpoint>
          <Trackpoint>
            <Time>2018-12-30T10:02:01.000Z</Time>
            <Position>
              <LatitudeDegrees>40.7652439177036285400390625</LatitudeDegrees>
              <LongitudeDegrees>-4.0741586498916149139404296875</LongitudeDegrees>
            </Position>
            <AltitudeMeters>1351</AltitudeMeters>
            <DistanceMeters>4729.1215500829</DistanceMeters>
          </Trackpoint>
          <Trackpoint>
            <Time>2018-12-30T10:02:02.000Z</Time>
            <Position>
              <LatitudeDegrees>40.765248946845531463623046875</LatitudeDegrees>
              <LongitudeDegrees>-4.07414465211331844329833984375</LongitudeDegrees>
            </Position>
            <AltitudeMeters>1350.800048828125</AltitudeMeters>
            <DistanceMeters>4730.4244907459</DistanceMeters>
          </Trackpoint>
          <Trackpoint>
            <Time>2018-12-30T10:02:03.000Z</Time>
            <Position>
              <LatitudeDegrees>40.765254311263561248779296875</LatitudeDegrees>
              <LongitudeDegrees>-4.0741358511149883270263671875</LongitudeDegrees>
            </Position>
            <AltitudeMeters>1350.800048828125</AltitudeMeters>
            <DistanceMeters>4731.3747578896</DistanceMeters>
          </Trackpoint>
          <Trackpoint>
            <Time>2018-12-30T10:02:04.000Z</Time>
            <Position>
              <LatitudeDegrees>40.76526596210896968841552734375</LatitudeDegrees>
              <LongitudeDegrees>-4.07413157634437084197998046875</LongitudeDegrees>
            </Position>
            <AltitudeMeters>1350.5999755859375</AltitudeMeters>
            <DistanceMeters>4732.7219940847</DistanceMeters>
          </Trackpoint>
          <Trackpoint>
            <Time>2018-12-30T10:02:05.000Z</Time>
            <Position>
              <LatitudeDegrees>40.76527417637407779693603515625</LatitudeDegrees>
              <LongitudeDegrees>-4.07411933876574039459228515625</LongitudeDegrees>
            </Position>
            <AltitudeMeters>1350.4000244140625</AltitudeMeters>
            <DistanceMeters>4734.0990620036</DistanceMeters>
          </Trackpoint>
          <Trackpoint>
            <Time>2018-12-30T10:02:06.000Z</Time>
            <Position>
              <LatitudeDegrees>40.76528079807758331298828125</LatitudeDegrees>
              <LongitudeDegrees>-4.07410576008260250091552734375</LongitudeDegrees>
            </Position>
            <AltitudeMeters>1350.4000244140625</AltitudeMeters>
            <DistanceMeters>4735.4596374961</DistanceMeters>
          </Trackpoint>
          <Trackpoint>
            <Time>2018-12-30T10:02:07.000Z</Time>
            <Position>
              <LatitudeDegrees>40.76528758741915225982666015625</LatitudeDegrees>
              <LongitudeDegrees>-4.07408396713435649871826171875</LongitudeDegrees>
            </Position>
            <AltitudeMeters>1350.4000244140625</AltitudeMeters>
            <DistanceMeters>4737.4483992925</DistanceMeters>
          </Trackpoint>
          <Trackpoint>
            <Time>2018-12-30T10:02:08.000Z</Time>
            <Position>
              <LatitudeDegrees>40.765293538570404052734375</LatitudeDegrees>
              <LongitudeDegrees>-4.074068963527679443359375</LongitudeDegrees>
            </Position>
            <AltitudeMeters>1350.4000244140625</AltitudeMeters>
            <DistanceMeters>4738.8769640534</DistanceMeters>
          </Trackpoint>
          <Trackpoint>
            <Time>2018-12-30T10:02:09.000Z</Time>
            <Position>
              <LatitudeDegrees>40.765299238264560699462890625</LatitudeDegrees>
              <LongitudeDegrees>-4.0740691311657428741455078125</LongitudeDegrees>
            </Position>
            <AltitudeMeters>1350.4000244140625</AltitudeMeters>
            <DistanceMeters>4739.5072999667</DistanceMeters>
          </Trackpoint>
          <Trackpoint>
            <Time>2018-12-30T10:02:10.000Z</Time>
            <Position>
              <LatitudeDegrees>40.76529982499778270721435546875</LatitudeDegrees>
              <LongitudeDegrees>-4.0740624256432056427001953125</LongitudeDegrees>
            </Position>
            <AltitudeMeters>1350.4000244140625</AltitudeMeters>
            <DistanceMeters>4740.0774602529</DistanceMeters>
          </Trackpoint>
          <Trackpoint>
            <Time>2018-12-30T10:02:11.000Z</Time>
            <Position>
              <LatitudeDegrees>40.7653044350445270538330078125</LatitudeDegrees>
              <LongitudeDegrees>-4.0740595757961273193359375</LongitudeDegrees>
            </Position>
            <AltitudeMeters>1350.5999755859375</AltitudeMeters>
            <DistanceMeters>4740.6476205391</DistanceMeters>
          </Trackpoint>
          <Trackpoint>
            <Time>2018-12-30T10:02:12.000Z</Time>
            <Position>
              <LatitudeDegrees>40.76531155966222286224365234375</LatitudeDegrees>
              <LongitudeDegrees>-4.0740542113780975341796875</LongitudeDegrees>
            </Position>
            <AltitudeMeters>1350.5999755859375</AltitudeMeters>
            <DistanceMeters>4741.5590847638</DistanceMeters>
          </Trackpoint>
          <Trackpoint>
            <Time>2018-12-30T10:02:13.000Z</Time>
            <Position>
              <LatitudeDegrees>40.7653198577463626861572265625</LatitudeDegrees>
              <LongitudeDegrees>-4.0740300714969635009765625</LongitudeDegrees>
            </Position>
            <AltitudeMeters>1350.5999755859375</AltitudeMeters>
            <DistanceMeters>4743.791707033</DistanceMeters>
          </Trackpoint>
          <Trackpoint>
            <Time>2018-12-30T10:02:14.000Z</Time>
            <Position>
              <LatitudeDegrees>40.7653198577463626861572265625</LatitudeDegrees>
              <LongitudeDegrees>-4.0740300714969635009765625</LongitudeDegrees>
            </Position>
            <AltitudeMeters>1350.800048828125</AltitudeMeters>
            <DistanceMeters>4743.791707033</DistanceMeters>
          </Trackpoint>
          <Trackpoint>
            <Time>2018-12-30T10:02:15.000Z</Time>
            <Position>
              <LatitudeDegrees>40.7653238810598850250244140625</LatitudeDegrees>
              <LongitudeDegrees>-4.07400853000581264495849609375</LongitudeDegrees>
            </Position>
            <AltitudeMeters>1351.199951171875</AltitudeMeters>
            <DistanceMeters>4745.6635162274</DistanceMeters>
          </Trackpoint>
          <Trackpoint>
            <Time>2018-12-30T10:02:16.000Z</Time>
            <Position>
              <LatitudeDegrees>40.76532949693500995635986328125</LatitudeDegrees>
              <LongitudeDegrees>-4.0739993937313556671142578125</LongitudeDegrees>
            </Position>
            <AltitudeMeters>1351.4000244140625</AltitudeMeters>
            <DistanceMeters>4746.655624252</DistanceMeters>
          </Trackpoint>
          <Trackpoint>
            <Time>2018-12-30T10:02:17.000Z</Time>
            <Position>
              <LatitudeDegrees>40.7653366215527057647705078125</LatitudeDegrees>
              <LongitudeDegrees>-4.073989503085613250732421875</LongitudeDegrees>
            </Position>
            <AltitudeMeters>1351.4000244140625</AltitudeMeters>
            <DistanceMeters>4747.8038364104</DistanceMeters>
          </Trackpoint>
          <Trackpoint>
            <Time>2018-12-30T10:02:18.000Z</Time>
            <Position>
              <LatitudeDegrees>40.7653490267693996429443359375</LatitudeDegrees>
              <LongitudeDegrees>-4.07397978007793426513671875</LongitudeDegrees>
            </Position>
            <AltitudeMeters>1351.5999755859375</AltitudeMeters>
            <DistanceMeters>4749.4108839713</DistanceMeters>
          </Trackpoint>
          <Trackpoint>
            <Time>2018-12-30T10:02:19.000Z</Time>
            <Position>
              <LatitudeDegrees>40.76536838896572589874267578125</LatitudeDegrees>
              <LongitudeDegrees>-4.07396779395639896392822265625</LongitudeDegrees>
            </Position>
            <AltitudeMeters>1351.5999755859375</AltitudeMeters>
            <DistanceMeters>4751.7903498632</DistanceMeters>
          </Trackpoint>
          <Trackpoint>
            <Time>2018-12-30T10:02:20.000Z</Time>
            <Position>
              <LatitudeDegrees>40.76538817025721073150634765625</LatitudeDegrees>
              <LongitudeDegrees>-4.07395756803452968597412109375</LongitudeDegrees>
            </Position>
            <AltitudeMeters>1351.5999755859375</AltitudeMeters>
            <DistanceMeters>4754.1545870168</DistanceMeters>
          </Trackpoint>
          <Trackpoint>
            <Time>2018-12-30T10:02:21.000Z</Time>
            <Position>
              <LatitudeDegrees>40.765399821102619171142578125</LatitudeDegrees>
              <LongitudeDegrees>-4.07395564019680023193359375</LongitudeDegrees>
            </Position>
            <AltitudeMeters>1351.5999755859375</AltitudeMeters>
            <DistanceMeters>4755.4644398805</DistanceMeters>
          </Trackpoint>
          <Trackpoint>
            <Time>2018-12-30T10:02:22.000Z</Time>
            <Position>
              <LatitudeDegrees>40.7654110528528690338134765625</LatitudeDegrees>
              <LongitudeDegrees>-4.07395488582551479339599609375</LongitudeDegrees>
            </Position>
            <AltitudeMeters>1351.4000244140625</AltitudeMeters>
            <DistanceMeters>4756.7215251511</DistanceMeters>
          </Trackpoint>
          <Trackpoint>
            <Time>2018-12-30T10:02:23.000Z</Time>
            <Position>
              <LatitudeDegrees>40.7654261402785778045654296875</LatitudeDegrees>
              <LongitudeDegrees>-4.0739517845213413238525390625</LongitudeDegrees>
            </Position>
            <AltitudeMeters>1351.4000244140625</AltitudeMeters>
            <DistanceMeters>4758.4214146952</DistanceMeters>
          </Trackpoint>
          <Trackpoint>
            <Time>2018-12-30T10:02:24.000Z</Time>
            <Position>
              <LatitudeDegrees>40.76543862931430339813232421875</LatitudeDegrees>
              <LongitudeDegrees>-4.0739496052265167236328125</LongitudeDegrees>
            </Position>
            <AltitudeMeters>1351.199951171875</AltitudeMeters>
            <DistanceMeters>4759.8244673189</DistanceMeters>
          </Trackpoint>
          <Trackpoint>
            <Time>2018-12-30T10:02:25.000Z</Time>
            <Position>
              <LatitudeDegrees>40.76545019634068012237548828125</LatitudeDegrees>
              <LongitudeDegrees>-4.0739491023123264312744140625</LongitudeDegrees>
            </Position>
            <AltitudeMeters>1351.199951171875</AltitudeMeters>
            <DistanceMeters>4761.113472387</DistanceMeters>
          </Trackpoint>
          <Trackpoint>
            <Time>2018-12-30T10:02:26.000Z</Time>
            <Position>
              <LatitudeDegrees>40.7654584944248199462890625</LatitudeDegrees>
              <LongitudeDegrees>-4.07395069487392902374267578125</LongitudeDegrees>
            </Position>
            <AltitudeMeters>1351.199951171875</AltitudeMeters>
            <DistanceMeters>4762.0541888647</DistanceMeters>
          </Trackpoint>
          <Trackpoint>
            <Time>2018-12-30T10:02:27.000Z</Time>
            <Position>
              <LatitudeDegrees>40.76546729542315006256103515625</LatitudeDegrees>
              <LongitudeDegrees>-4.0739504434168338775634765625</LongitudeDegrees>
            </Position>
            <AltitudeMeters>1351</AltitudeMeters>
            <DistanceMeters>4763.0325487694</DistanceMeters>
          </Trackpoint>
          <Trackpoint>
            <Time>2018-12-30T10:02:28.000Z</Time>
            <Position>
              <LatitudeDegrees>40.7654791139066219329833984375</LatitudeDegrees>
              <LongitudeDegrees>-4.0739457495510578155517578125</LongitudeDegrees>
            </Position>
            <AltitudeMeters>1351</AltitudeMeters>
            <DistanceMeters>4764.4030435342</DistanceMeters>
          </Trackpoint>
          <Trackpoint>
            <Time>2018-12-30T10:02:29.000Z</Time>
            <Position>
              <LatitudeDegrees>40.765492022037506103515625</LatitudeDegrees>
              <LongitudeDegrees>-4.07393644563853740692138671875</LongitudeDegrees>
            </Position>
            <AltitudeMeters>1351</AltitudeMeters>
            <DistanceMeters>4766.0379449463</DistanceMeters>
          </Trackpoint>
          <Trackpoint>
            <Time>2018-12-30T10:02:30.000Z</Time>
            <Position>
              <LatitudeDegrees>40.7655049301683902740478515625</LatitudeDegrees>
              <LongitudeDegrees>-4.0739336796104907989501953125</LongitudeDegrees>
            </Position>
            <AltitudeMeters>1351</AltitudeMeters>
            <DistanceMeters>4767.491574159</DistanceMeters>
          </Trackpoint>
          <Trackpoint>
            <Time>2018-12-30T10:02:31.000Z</Time>
            <Position>
              <LatitudeDegrees>40.7655126415193080902099609375</LatitudeDegrees>
              <LongitudeDegrees>-4.07393150031566619873046875</LongitudeDegrees>
            </Position>
            <AltitudeMeters>1351</AltitudeMeters>
            <DistanceMeters>4768.3728156549</DistanceMeters>
          </Trackpoint>
          <Trackpoint>
            <Time>2018-12-30T10:02:32.000Z</Time>
            <Position>
              <LatitudeDegrees>40.76552010141313076019287109375</LatitudeDegrees>
              <LongitudeDegrees>-4.0739326737821102142333984375</LongitudeDegrees>
            </Position>
            <AltitudeMeters>1351</AltitudeMeters>
            <DistanceMeters>4769.2120688722</DistanceMeters>
          </Trackpoint>
          <Trackpoint>
            <Time>2018-12-30T10:02:33.000Z</Time>
            <Position>
              <LatitudeDegrees>40.765525214374065399169921875</LatitudeDegrees>
              <LongitudeDegrees>-4.07393309287726879119873046875</LongitudeDegrees>
            </Position>
            <AltitudeMeters>1351.199951171875</AltitudeMeters>
            <DistanceMeters>4769.7822291584</DistanceMeters>
          </Trackpoint>
          <Trackpoint>
            <Time>2018-12-30T10:02:34.000Z</Time>
            <Position>
              <LatitudeDegrees>40.7655384577810764312744140625</LatitudeDegrees>
              <LongitudeDegrees>-4.07393007539212703704833984375</LongitudeDegrees>
            </Position>
            <AltitudeMeters>1351.199951171875</AltitudeMeters>
            <DistanceMeters>4771.2787113528</DistanceMeters>
          </Trackpoint>
          <Trackpoint>
            <Time>2018-12-30T10:02:35.000Z</Time>
            <Position>
              <LatitudeDegrees>40.76555036008358001708984375</LatitudeDegrees>
              <LongitudeDegrees>-4.073936529457569122314453125</LongitudeDegrees>
            </Position>
            <AltitudeMeters>1351.5999755859375</AltitudeMeters>
            <DistanceMeters>4772.7135832736</DistanceMeters>
          </Trackpoint>
          <Trackpoint>
            <Time>2018-12-30T10:02:36.000Z</Time>
            <Position>
              <LatitudeDegrees>40.76556636951863765716552734375</LatitudeDegrees>
              <LongitudeDegrees>-4.07394113950431346893310546875</LongitudeDegrees>
            </Position>
            <AltitudeMeters>1351.5999755859375</AltitudeMeters>
            <DistanceMeters>4774.5389868476</DistanceMeters>
          </Trackpoint>
          <Trackpoint>
            <Time>2018-12-30T10:02:37.000Z</Time>
            <Position>
              <LatitudeDegrees>40.7655756734311580657958984375</LatitudeDegrees>
              <LongitudeDegrees>-4.0739450789988040924072265625</LongitudeDegrees>
            </Position>
            <AltitudeMeters>1351.5999755859375</AltitudeMeters>
            <DistanceMeters>4775.6307606752</DistanceMeters>
          </Trackpoint>
          <Trackpoint>
            <Time>2018-12-30T10:02:38.000Z</Time>
            <Position>
              <LatitudeDegrees>40.7655951194465160369873046875</LatitudeDegrees>
              <LongitudeDegrees>-4.073943234980106353759765625</LongitudeDegrees>
            </Position>
            <AltitudeMeters>1351.800048828125</AltitudeMeters>
            <DistanceMeters>4777.8018663621</DistanceMeters>
          </Trackpoint>
          <Trackpoint>
            <Time>2018-12-30T10:02:39.000Z</Time>
            <Position>
              <LatitudeDegrees>40.76560844667255878448486328125</LatitudeDegrees>
              <LongitudeDegrees>-4.0739413909614086151123046875</LongitudeDegrees>
            </Position>
            <AltitudeMeters>1351.800048828125</AltitudeMeters>
            <DistanceMeters>4779.292302139</DistanceMeters>
          </Trackpoint>
          <Trackpoint>
            <Time>2018-12-30T10:02:40.000Z</Time>
            <Position>
              <LatitudeDegrees>40.76562345027923583984375</LatitudeDegrees>
              <LongitudeDegrees>-4.073939211666584014892578125</LongitudeDegrees>
            </Position>
            <AltitudeMeters>1351.5999755859375</AltitudeMeters>
            <DistanceMeters>4780.9734963357</DistanceMeters>
          </Trackpoint>
          <Trackpoint>
            <Time>2018-12-30T10:02:41.000Z</Time>
            <Position>
              <LatitudeDegrees>40.76563744805753231048583984375</LatitudeDegrees>
              <LongitudeDegrees>-4.0739323385059833526611328125</LongitudeDegrees>
            </Position>
            <AltitudeMeters>1351.5999755859375</AltitudeMeters>
            <DistanceMeters>4782.6330665558</DistanceMeters>
          </Trackpoint>
          <Trackpoint>
            <Time>2018-12-30T10:02:42.000Z</Time>
            <Position>
              <LatitudeDegrees>40.76565572060644626617431640625</LatitudeDegrees>
              <LongitudeDegrees>-4.07392479479312896728515625</LongitudeDegrees>
            </Position>
            <AltitudeMeters>1351.4000244140625</AltitudeMeters>
            <DistanceMeters>4784.7621739685</DistanceMeters>
          </Trackpoint>
          <Trackpoint>
            <Time>2018-12-30T10:02:43.000Z</Time>
            <Position>
              <LatitudeDegrees>40.7656742446124553680419921875</LatitudeDegrees>
              <LongitudeDegrees>-4.07392018474638462066650390625</LongitudeDegrees>
            </Position>
            <AltitudeMeters>1351.199951171875</AltitudeMeters>
            <DistanceMeters>4786.8613827015</DistanceMeters>
          </Trackpoint>
          <Trackpoint>
            <Time>2018-12-30T10:02:44.000Z</Time>
            <Position>
              <LatitudeDegrees>40.7656891644001007080078125</LatitudeDegrees>
              <LongitudeDegrees>-4.0739147365093231201171875</LongitudeDegrees>
            </Position>
            <AltitudeMeters>1351.199951171875</AltitudeMeters>
            <DistanceMeters>4788.587628694</DistanceMeters>
          </Trackpoint>
          <Trackpoint>
            <Time>2018-12-30T10:02:45.000Z</Time>
            <Position>
              <LatitudeDegrees>40.76570165343582630157470703125</LatitudeDegrees>
              <LongitudeDegrees>-4.073907695710659027099609375</LongitudeDegrees>
            </Position>
            <AltitudeMeters>1351</AltitudeMeters>
            <DistanceMeters>4790.0991211155</DistanceMeters>
          </Trackpoint>
          <Trackpoint>
            <Time>2018-12-30T10:02:46.000Z</Time>
            <Position>
              <LatitudeDegrees>40.76571154408156871795654296875</LatitudeDegrees>
              <LongitudeDegrees>-4.07390124164521694183349609375</LongitudeDegrees>
            </Position>
            <AltitudeMeters>1351</AltitudeMeters>
            <DistanceMeters>4791.330808106</DistanceMeters>
          </Trackpoint>
          <Trackpoint>
            <Time>2018-12-30T10:02:47.000Z</Time>
            <Position>
              <LatitudeDegrees>40.76572126708924770355224609375</LatitudeDegrees>
              <LongitudeDegrees>-4.0738981403410434722900390625</LongitudeDegrees>
            </Position>
            <AltitudeMeters>1351</AltitudeMeters>
            <DistanceMeters>4792.4471192406</DistanceMeters>
          </Trackpoint>
          <Trackpoint>
            <Time>2018-12-30T10:02:48.000Z</Time>
            <Position>
              <LatitudeDegrees>40.7657332532107830047607421875</LatitudeDegrees>
              <LongitudeDegrees>-4.0738994814455509185791015625</LongitudeDegrees>
            </Position>
            <AltitudeMeters>1351</AltitudeMeters>
            <DistanceMeters>4793.7842636367</DistanceMeters>
          </Trackpoint>
          <Trackpoint>
            <Time>2018-12-30T10:02:49.000Z</Time>
            <Position>
              <LatitudeDegrees>40.7657473348081111907958984375</LatitudeDegrees>
              <LongitudeDegrees>-4.07389537431299686431884765625</LongitudeDegrees>
            </Position>
            <AltitudeMeters>1351</AltitudeMeters>
            <DistanceMeters>4795.3884992137</DistanceMeters>
          </Trackpoint>
          <Trackpoint>
            <Time>2018-12-30T10:02:50.000Z</Time>
            <Position>
              <LatitudeDegrees>40.76576015911996364593505859375</LatitudeDegrees>
              <LongitudeDegrees>-4.07389394938945770263671875</LongitudeDegrees>
            </Position>
            <AltitudeMeters>1351</AltitudeMeters>
            <DistanceMeters>4796.8233711345</DistanceMeters>
          </Trackpoint>
          <Trackpoint>
            <Time>2018-12-30T10:02:51.000Z</Time>
            <Position>
              <LatitudeDegrees>40.7657744921743869781494140625</LatitudeDegrees>
              <LongitudeDegrees>-4.07389420084655284881591796875</LongitudeDegrees>
            </Position>
            <AltitudeMeters>1350.800048828125</AltitudeMeters>
            <DistanceMeters>4798.4191410293</DistanceMeters>
          </Trackpoint>
          <Trackpoint>
            <Time>2018-12-30T10:02:52.000Z</Time>
            <Position>
              <LatitudeDegrees>40.76578966341912746429443359375</LatitudeDegrees>
              <LongitudeDegrees>-4.07389336265623569488525390625</LongitudeDegrees>
            </Position>
            <AltitudeMeters>1350.5999755859375</AltitudeMeters>
            <DistanceMeters>4800.1083728536</DistanceMeters>
          </Trackpoint>
          <Trackpoint>
            <Time>2018-12-30T10:02:53.000Z</Time>
            <Position>
              <LatitudeDegrees>40.765805505216121673583984375</LatitudeDegrees>
              <LongitudeDegrees>-4.073889590799808502197265625</LongitudeDegrees>
            </Position>
            <AltitudeMeters>1350.4000244140625</AltitudeMeters>
            <DistanceMeters>4801.8962898151</DistanceMeters>
          </Trackpoint>
          <Trackpoint>
            <Time>2018-12-30T10:02:54.000Z</Time>
            <Position>
              <LatitudeDegrees>40.76582101173698902130126953125</LatitudeDegrees>
              <LongitudeDegrees>-4.07388724386692047119140625</LongitudeDegrees>
            </Position>
            <AltitudeMeters>1350.199951171875</AltitudeMeters>
            <DistanceMeters>4803.6329663919</DistanceMeters>
          </Trackpoint>
          <Trackpoint>
            <Time>2018-12-30T10:02:55.000Z</Time>
            <Position>
              <LatitudeDegrees>40.76583241112530231475830078125</LatitudeDegrees>
              <LongitudeDegrees>-4.07388816587626934051513671875</LongitudeDegrees>
            </Position>
            <AltitudeMeters>1350.199951171875</AltitudeMeters>
            <DistanceMeters>4804.9078835499</DistanceMeters>
          </Trackpoint>
          <Trackpoint>
            <Time>2018-12-30T10:02:56.000Z</Time>
            <Position>
              <LatitudeDegrees>40.7658581435680389404296875</LatitudeDegrees>
              <LongitudeDegrees>-4.07387257553637027740478515625</LongitudeDegrees>
            </Position>
            <AltitudeMeters>1350.199951171875</AltitudeMeters>
            <DistanceMeters>4808.0581302088</DistanceMeters>
          </Trackpoint>
          <Trackpoint>
            <Time>2018-12-30T10:02:57.000Z</Time>
            <Position>
              <LatitudeDegrees>40.7658581435680389404296875</LatitudeDegrees>
              <LongitudeDegrees>-4.07387257553637027740478515625</LongitudeDegrees>
            </Position>
            <AltitudeMeters>1350.199951171875</AltitudeMeters>
            <DistanceMeters>4808.0581302088</DistanceMeters>
          </Trackpoint>
          <Trackpoint>
            <Time>2018-12-30T10:02:58.000Z</Time>
            <Position>
              <LatitudeDegrees>40.76587214134633541107177734375</LatitudeDegrees>
              <LongitudeDegrees>-4.07387257553637027740478515625</LongitudeDegrees>
            </Position>
            <AltitudeMeters>1350</AltitudeMeters>
            <DistanceMeters>4809.6137845686</DistanceMeters>
          </Trackpoint>
          <Trackpoint>
            <Time>2018-12-30T10:02:59.000Z</Time>
            <Position>
              <LatitudeDegrees>40.76588287018239498138427734375</LatitudeDegrees>
              <LongitudeDegrees>-4.0738785266876220703125</LongitudeDegrees>
            </Position>
            <AltitudeMeters>1349.800048828125</AltitudeMeters>
            <DistanceMeters>4810.9097761652</DistanceMeters>
          </Trackpoint>
          <Trackpoint>
            <Time>2018-12-30T10:03:00.000Z</Time>
            <Position>
              <LatitudeDegrees>40.7658955268561840057373046875</LatitudeDegrees>
              <LongitudeDegrees>-4.07388347201049327850341796875</LongitudeDegrees>
            </Position>
            <AltitudeMeters>1349.800048828125</AltitudeMeters>
            <DistanceMeters>4812.381923694</DistanceMeters>
          </Trackpoint>
          <Trackpoint>
            <Time>2018-12-30T10:03:01.000Z</Time>
            <Position>
              <LatitudeDegrees>40.7659092731773853302001953125</LatitudeDegrees>
              <LongitudeDegrees>-4.073878861963748931884765625</LongitudeDegrees>
            </Position>
            <AltitudeMeters>1349.800048828125</AltitudeMeters>
            <DistanceMeters>4813.9634834226</DistanceMeters>
          </Trackpoint>
          <Trackpoint>
            <Time>2018-12-30T10:03:02.000Z</Time>
            <Position>
              <LatitudeDegrees>40.7659230194985866546630859375</LatitudeDegrees>
              <LongitudeDegrees>-4.07387106679379940032958984375</LongitudeDegrees>
            </Position>
            <AltitudeMeters>1349.5999755859375</AltitudeMeters>
            <DistanceMeters>4815.6284859656</DistanceMeters>
          </Trackpoint>
          <Trackpoint>
            <Time>2018-12-30T10:03:03.000Z</Time>
            <Position>
              <LatitudeDegrees>40.76593752019107341766357421875</LatitudeDegrees>
              <LongitudeDegrees>-4.07386871986091136932373046875</LongitudeDegrees>
            </Position>
            <AltitudeMeters>1349.800048828125</AltitudeMeters>
            <DistanceMeters>4817.255081305</DistanceMeters>
          </Trackpoint>
          <Trackpoint>
            <Time>2018-12-30T10:03:04.000Z</Time>
            <Position>
              <LatitudeDegrees>40.76594590209424495697021484375</LatitudeDegrees>
              <LongitudeDegrees>-4.073863439261913299560546875</LongitudeDegrees>
            </Position>
            <AltitudeMeters>1349.800048828125</AltitudeMeters>
            <DistanceMeters>4818.287335644</DistanceMeters>
          </Trackpoint>
          <Trackpoint>
            <Time>2018-12-30T10:03:05.000Z</Time>
            <Position>
              <LatitudeDegrees>40.76595495454967021942138671875</LatitudeDegrees>
              <LongitudeDegrees>-4.073852710425853729248046875</LongitudeDegrees>
            </Position>
            <AltitudeMeters>1349.800048828125</AltitudeMeters>
            <DistanceMeters>4819.6412579158</DistanceMeters>
          </Trackpoint>
          <Trackpoint>
            <Time>2018-12-30T10:03:06.000Z</Time>
            <Position>
              <LatitudeDegrees>40.76596476137638092041015625</LatitudeDegrees>
              <LongitudeDegrees>-4.07384164631366729736328125</LongitudeDegrees>
            </Position>
            <AltitudeMeters>1349.800048828125</AltitudeMeters>
            <DistanceMeters>4821.0761298366</DistanceMeters>
          </Trackpoint>
          <Trackpoint>
            <Time>2018-12-30T10:03:07.000Z</Time>
            <Position>
              <LatitudeDegrees>40.76597406528890132904052734375</LatitudeDegrees>
              <LongitudeDegrees>-4.073838628828525543212890625</LongitudeDegrees>
            </Position>
            <AltitudeMeters>1349.800048828125</AltitudeMeters>
            <DistanceMeters>4822.1428020599</DistanceMeters>
          </Trackpoint>
          <Trackpoint>
            <Time>2018-12-30T10:03:08.000Z</Time>
            <Position>
              <LatitudeDegrees>40.7659820280969142913818359375</LatitudeDegrees>
              <LongitudeDegrees>-4.0738196857273578643798828125</LongitudeDegrees>
            </Position>
            <AltitudeMeters>1349.800048828125</AltitudeMeters>
            <DistanceMeters>4823.970677407</DistanceMeters>
          </Trackpoint>
          <Trackpoint>
            <Time>2018-12-30T10:03:09.000Z</Time>
            <Position>
              <LatitudeDegrees>40.76598512940108776092529296875</LatitudeDegrees>
              <LongitudeDegrees>-4.0738079510629177093505859375</LongitudeDegrees>
            </Position>
            <AltitudeMeters>1349.800048828125</AltitudeMeters>
            <DistanceMeters>4825.0202817735</DistanceMeters>
          </Trackpoint>
          <Trackpoint>
            <Time>2018-12-30T10:03:10.000Z</Time>
            <Position>
              <LatitudeDegrees>40.76598831452429294586181640625</LatitudeDegrees>
              <LongitudeDegrees>-4.0737978927791118621826171875</LongitudeDegrees>
            </Position>
            <AltitudeMeters>1349.800048828125</AltitudeMeters>
            <DistanceMeters>4825.9415999518</DistanceMeters>
          </Trackpoint>
          <Trackpoint>
            <Time>2018-12-30T10:03:11.000Z</Time>
            <Position>
              <LatitudeDegrees>40.76599183492362499237060546875</LatitudeDegrees>
              <LongitudeDegrees>-4.07377953641116619110107421875</LongitudeDegrees>
            </Position>
            <AltitudeMeters>1349.800048828125</AltitudeMeters>
            <DistanceMeters>4827.5373698466</DistanceMeters>
          </Trackpoint>
          <Trackpoint>
            <Time>2018-12-30T10:03:12.000Z</Time>
            <Position>
              <LatitudeDegrees>40.76599719934165477752685546875</LatitudeDegrees>
              <LongitudeDegrees>-4.0737647004425525665283203125</LongitudeDegrees>
            </Position>
            <AltitudeMeters>1349.5999755859375</AltitudeMeters>
            <DistanceMeters>4828.9209796927</DistanceMeters>
          </Trackpoint>
          <Trackpoint>
            <Time>2018-12-30T10:03:13.000Z</Time>
            <Position>
              <LatitudeDegrees>40.76600440777838230133056640625</LatitudeDegrees>
              <LongitudeDegrees>-4.07374919392168521881103515625</LongitudeDegrees>
            </Position>
            <AltitudeMeters>1349.5999755859375</AltitudeMeters>
            <DistanceMeters>4830.4532394211</DistanceMeters>
          </Trackpoint>
          <Trackpoint>
            <Time>2018-12-30T10:03:14.000Z</Time>
            <Position>
              <LatitudeDegrees>40.76601245440542697906494140625</LatitudeDegrees>
              <LongitudeDegrees>-4.0737368725240230560302734375</LongitudeDegrees>
            </Position>
            <AltitudeMeters>1349.5999755859375</AltitudeMeters>
            <DistanceMeters>4831.8237341859</DistanceMeters>
          </Trackpoint>
          <Trackpoint>
            <Time>2018-12-30T10:03:15.000Z</Time>
            <Position>
              <LatitudeDegrees>40.766016729176044464111328125</LatitudeDegrees>
              <LongitudeDegrees>-4.07372471876442432403564453125</LongitudeDegrees>
            </Position>
            <AltitudeMeters>1349.5999755859375</AltitudeMeters>
            <DistanceMeters>4832.9481054334</DistanceMeters>
          </Trackpoint>
          <Trackpoint>
            <Time>2018-12-30T10:03:16.000Z</Time>
            <Position>
              <LatitudeDegrees>40.76601840555667877197265625</LatitudeDegrees>
              <LongitudeDegrees>-4.0737160854041576385498046875</LongitudeDegrees>
            </Position>
            <AltitudeMeters>1349.5999755859375</AltitudeMeters>
            <DistanceMeters>4833.6963465306</DistanceMeters>
          </Trackpoint>
          <Trackpoint>
            <Time>2018-12-30T10:03:17.000Z</Time>
            <Position>
              <LatitudeDegrees>40.76602485962212085723876953125</LatitudeDegrees>
              <LongitudeDegrees>-4.07371197827160358428955078125</LongitudeDegrees>
            </Position>
            <AltitudeMeters>1349.800048828125</AltitudeMeters>
            <DistanceMeters>4834.4913970642</DistanceMeters>
          </Trackpoint>
          <Trackpoint>
            <Time>2018-12-30T10:03:18.000Z</Time>
            <Position>
              <LatitudeDegrees>40.766028463840484619140625</LatitudeDegrees>
              <LongitudeDegrees>-4.07370661385357379913330078125</LongitudeDegrees>
            </Position>
            <AltitudeMeters>1350</AltitudeMeters>
            <DistanceMeters>4835.0923987762</DistanceMeters>
          </Trackpoint>
          <Trackpoint>
            <Time>2018-12-30T10:03:19.000Z</Time>
            <Position>
              <LatitudeDegrees>40.76603039167821407318115234375</LatitudeDegrees>
              <LongitudeDegrees>-4.07370577566325664520263671875</LongitudeDegrees>
            </Position>
            <AltitudeMeters>1350.4000244140625</AltitudeMeters>
            <DistanceMeters>4835.3251657383</DistanceMeters>
          </Trackpoint>
          <Trackpoint>
            <Time>2018-12-30T10:03:20.000Z</Time>
            <Position>
              <LatitudeDegrees>40.76603039167821407318115234375</LatitudeDegrees>
              <LongitudeDegrees>-4.07370527274906635284423828125</LongitudeDegrees>
            </Position>
            <AltitudeMeters>1350.5999755859375</AltitudeMeters>
            <DistanceMeters>NAN</DistanceMeters>
          </Trackpoint>
          <Trackpoint>
            <Time>2018-12-30T10:03:21.000Z</Time>
            <Position>
              <LatitudeDegrees>40.76603307388722896575927734375</LatitudeDegrees>
              <LongitudeDegrees>-4.07370309345424175262451171875</LongitudeDegrees>
            </Position>
            <AltitudeMeters>1350.800048828125</AltitudeMeters>
            <DistanceMeters>NAN</DistanceMeters>
          </Trackpoint>
          <Trackpoint>
            <Time>2018-12-30T10:03:22.000Z</Time>
            <Position>
              <LatitudeDegrees>40.76603642664849758148193359375</LatitudeDegrees>
              <LongitudeDegrees>-4.07369806431233882904052734375</LongitudeDegrees>
            </Position>
            <AltitudeMeters>1350.800048828125</AltitudeMeters>
            <DistanceMeters>NAN</DistanceMeters>
          </Trackpoint>
          <Trackpoint>
            <Time>2018-12-30T10:03:23.000Z</Time>
            <Position>
              <LatitudeDegrees>40.76603877358138561248779296875</LatitudeDegrees>
              <LongitudeDegrees>-4.07369320280849933624267578125</LongitudeDegrees>
            </Position>
            <AltitudeMeters>1350.800048828125</AltitudeMeters>
            <DistanceMeters>NAN</DistanceMeters>
          </Trackpoint>
          <Trackpoint>
            <Time>2018-12-30T10:03:24.000Z</Time>
            <Position>
              <LatitudeDegrees>40.76603860594332218170166015625</LatitudeDegrees>
              <LongitudeDegrees>-4.07368130050599575042724609375</LongitudeDegrees>
            </Position>
            <AltitudeMeters>1351</AltitudeMeters>
            <DistanceMeters>NAN</DistanceMeters>
          </Trackpoint>
          <Trackpoint>
            <Time>2018-12-30T10:03:25.000Z</Time>
            <Position>
              <LatitudeDegrees>40.76603491790592670440673828125</LatitudeDegrees>
              <LongitudeDegrees>-4.0736691467463970184326171875</LongitudeDegrees>
            </Position>
            <AltitudeMeters>1351</AltitudeMeters>
            <DistanceMeters>NAN</DistanceMeters>
          </Trackpoint>
          <Trackpoint>
            <Time>2018-12-30T10:03:26.000Z</Time>
            <Position>
              <LatitudeDegrees>40.7660309784114360809326171875</LatitudeDegrees>
              <LongitudeDegrees>-4.073658920824527740478515625</LongitudeDegrees>
            </Position>
            <AltitudeMeters>1351</AltitudeMeters>
            <DistanceMeters>NAN</DistanceMeters>
          </Trackpoint>
          <Trackpoint>
            <Time>2018-12-30T10:03:27.000Z</Time>
            <Position>
              <LatitudeDegrees>40.766028463840484619140625</LatitudeDegrees>
              <LongitudeDegrees>-4.0736476890742778778076171875</LongitudeDegrees>
            </Position>
            <AltitudeMeters>1351</AltitudeMeters>
            <DistanceMeters>NAN</DistanceMeters>
          </Trackpoint>
          <Trackpoint>
            <Time>2018-12-30T10:03:28.000Z</Time>
            <Position>
              <LatitudeDegrees>40.7660306431353092193603515625</LatitudeDegrees>
              <LongitudeDegrees>-4.07363855279982089996337890625</LongitudeDegrees>
            </Position>
            <AltitudeMeters>1351</AltitudeMeters>
            <DistanceMeters>NAN</DistanceMeters>
          </Trackpoint>
          <Trackpoint>
            <Time>2018-12-30T10:03:29.000Z</Time>
            <Position>
              <LatitudeDegrees>40.766036845743656158447265625</LatitudeDegrees>
              <LongitudeDegrees>-4.07363251782953739166259765625</LongitudeDegrees>
            </Position>
            <AltitudeMeters>1351.199951171875</AltitudeMeters>
            <DistanceMeters>NAN</DistanceMeters>
          </Trackpoint>
          <Trackpoint>
            <Time>2018-12-30T10:03:30.000Z</Time>
            <Position>
              <LatitudeDegrees>40.7660494185984134674072265625</LatitudeDegrees>
              <LongitudeDegrees>-4.07362614758312702178955078125</LongitudeDegrees>
            </Position>
            <AltitudeMeters>1351.5999755859375</AltitudeMeters>
            <DistanceMeters>NAN</DistanceMeters>
          </Trackpoint>
          <Trackpoint>
            <Time>2018-12-30T10:03:31.000Z</Time>
            <Position>
              <LatitudeDegrees>40.7660638354718685150146484375</LatitudeDegrees>
              <LongitudeDegrees>-4.073618017137050628662109375</LongitudeDegrees>
            </Position>
            <AltitudeMeters>1352.199951171875</AltitudeMeters>
            <DistanceMeters>NAN</DistanceMeters>
          </Trackpoint>
          <Trackpoint>
            <Time>2018-12-30T10:03:32.000Z</Time>
            <Position>
              <LatitudeDegrees>40.76607280410826206207275390625</LatitudeDegrees>
              <LongitudeDegrees>-4.073609970510005950927734375</LongitudeDegrees>
            </Position>
            <AltitudeMeters>1352.4000244140625</AltitudeMeters>
            <DistanceMeters>NAN</DistanceMeters>
          </Trackpoint>
          <Trackpoint>
            <Time>2018-12-30T10:03:33.000Z</Time>
            <Position>
              <LatitudeDegrees>40.76608520932495594024658203125</LatitudeDegrees>
              <LongitudeDegrees>-4.0735950507223606109619140625</LongitudeDegrees>
            </Position>
            <AltitudeMeters>1352.4000244140625</AltitudeMeters>
            <DistanceMeters>NAN</DistanceMeters>
          </Trackpoint>
          <Trackpoint>
            <Time>2018-12-30T10:03:34.000Z</Time>
            <Position>
              <LatitudeDegrees>40.76609694398939609527587890625</LatitudeDegrees>
              <LongitudeDegrees>-4.07357468269765377044677734375</LongitudeDegrees>
            </Position>
            <AltitudeMeters>1352.5999755859375</AltitudeMeters>
            <DistanceMeters>NAN</DistanceMeters>
          </Trackpoint>
          <Trackpoint>
            <Time>2018-12-30T10:03:35.000Z</Time>
            <Position>
              <LatitudeDegrees>40.76611052267253398895263671875</LatitudeDegrees>
              <LongitudeDegrees>-4.07356965355575084686279296875</LongitudeDegrees>
            </Position>
            <AltitudeMeters>1352.5999755859375</AltitudeMeters>
            <DistanceMeters>NAN</DistanceMeters>
          </Trackpoint>
          <Trackpoint>
            <Time>2018-12-30T10:03:36.000Z</Time>
            <Position>
              <LatitudeDegrees>40.7661228440701961517333984375</LatitudeDegrees>
              <LongitudeDegrees>-4.0735621936619281768798828125</LongitudeDegrees>
            </Position>
            <AltitudeMeters>1352.5999755859375</AltitudeMeters>
            <DistanceMeters>NAN</DistanceMeters>
          </Trackpoint>
          <Trackpoint>
            <Time>2018-12-30T10:03:37.000Z</Time>
            <Position>
              <LatitudeDegrees>40.7661265321075916290283203125</LatitudeDegrees>
              <LongitudeDegrees>-4.07353830523788928985595703125</LongitudeDegrees>
            </Position>
            <AltitudeMeters>1352.800048828125</AltitudeMeters>
            <DistanceMeters>NAN</DistanceMeters>
          </Trackpoint>
          <Trackpoint>
            <Time>2018-12-30T10:03:38.000Z</Time>
            <Position>
              <LatitudeDegrees>40.7661372609436511993408203125</LatitudeDegrees>
              <LongitudeDegrees>-4.07353076152503490447998046875</LongitudeDegrees>
            </Position>
            <AltitudeMeters>1352.800048828125</AltitudeMeters>
            <DistanceMeters>NAN</DistanceMeters>
          </Trackpoint>
          <Trackpoint>
            <Time>2018-12-30T10:03:39.000Z</Time>
            <Position>
              <LatitudeDegrees>40.76613885350525379180908203125</LatitudeDegrees>
              <LongitudeDegrees>-4.0735075436532497406005859375</LongitudeDegrees>
            </Position>
            <AltitudeMeters>1352.800048828125</AltitudeMeters>
            <DistanceMeters>NAN</DistanceMeters>
          </Trackpoint>
          <Trackpoint>
            <Time>2018-12-30T10:03:40.000Z</Time>
            <Position>
              <LatitudeDegrees>40.76613868586719036102294921875</LatitudeDegrees>
              <LongitudeDegrees>-4.07349153421819210052490234375</LongitudeDegrees>
            </Position>
            <AltitudeMeters>1353</AltitudeMeters>
            <DistanceMeters>NAN</DistanceMeters>
          </Trackpoint>
          <Trackpoint>
            <Time>2018-12-30T10:03:41.000Z</Time>
            <Position>
              <LatitudeDegrees>40.7661359198391437530517578125</LatitudeDegrees>
              <LongitudeDegrees>-4.073466472327709197998046875</LongitudeDegrees>
            </Position>
            <AltitudeMeters>1352.800048828125</AltitudeMeters>
            <DistanceMeters>NAN</DistanceMeters>
          </Trackpoint>
          <Trackpoint>
            <Time>2018-12-30T10:03:42.000Z</Time>
            <Position>
              <LatitudeDegrees>40.7661370933055877685546875</LatitudeDegrees>
              <LongitudeDegrees>-4.0734421648085117340087890625</LongitudeDegrees>
            </Position>
            <AltitudeMeters>1353</AltitudeMeters>
            <DistanceMeters>NAN</DistanceMeters>
          </Trackpoint>
          <Trackpoint>
            <Time>2018-12-30T10:03:43.000Z</Time>
            <Position>
              <LatitudeDegrees>40.76613684184849262237548828125</LatitudeDegrees>
              <LongitudeDegrees>-4.0734197013080120086669921875</LongitudeDegrees>
            </Position>
            <AltitudeMeters>1353</AltitudeMeters>
            <DistanceMeters>NAN</DistanceMeters>
          </Trackpoint>
          <Trackpoint>
            <Time>2018-12-30T10:03:44.000Z</Time>
            <Position>
              <LatitudeDegrees>40.766136758029460906982421875</LatitudeDegrees>
              <LongitudeDegrees>-4.07340419478714466094970703125</LongitudeDegrees>
            </Position>
            <AltitudeMeters>1353</AltitudeMeters>
            <DistanceMeters>NAN</DistanceMeters>
          </Trackpoint>
          <Trackpoint>
            <Time>2018-12-30T10:03:45.000Z</Time>
            <Position>
              <LatitudeDegrees>40.76613164506852626800537109375</LatitudeDegrees>
              <LongitudeDegrees>-4.073383994400501251220703125</LongitudeDegrees>
            </Position>
            <AltitudeMeters>1352.800048828125</AltitudeMeters>
            <DistanceMeters>NAN</DistanceMeters>
          </Trackpoint>
          <Trackpoint>
            <Time>2018-12-30T10:03:46.000Z</Time>
            <Position>
              <LatitudeDegrees>40.76612661592662334442138671875</LatitudeDegrees>
              <LongitudeDegrees>-4.073360860347747802734375</LongitudeDegrees>
            </Position>
            <AltitudeMeters>1352.800048828125</AltitudeMeters>
            <DistanceMeters>NAN</DistanceMeters>
          </Trackpoint>
          <Trackpoint>
            <Time>2018-12-30T10:03:47.000Z</Time>
            <Position>
              <LatitudeDegrees>40.76612192206084728240966796875</LatitudeDegrees>
              <LongitudeDegrees>-4.07334283925592899322509765625</LongitudeDegrees>
            </Position>
            <AltitudeMeters>1352.800048828125</AltitudeMeters>
            <DistanceMeters>NAN</DistanceMeters>
          </Trackpoint>
          <Trackpoint>
            <Time>2018-12-30T10:03:48.000Z</Time>
            <Position>
              <LatitudeDegrees>40.766118653118610382080078125</LatitudeDegrees>
              <LongitudeDegrees>-4.07332657836377620697021484375</LongitudeDegrees>
            </Position>
            <AltitudeMeters>1352.800048828125</AltitudeMeters>
            <DistanceMeters>NAN</DistanceMeters>
          </Trackpoint>
          <Trackpoint>
            <Time>2018-12-30T10:03:49.000Z</Time>
            <Position>
              <LatitudeDegrees>40.76611588709056377410888671875</LatitudeDegrees>
              <LongitudeDegrees>-4.0733171068131923675537109375</LongitudeDegrees>
            </Position>
            <AltitudeMeters>1352.800048828125</AltitudeMeters>
            <DistanceMeters>NAN</DistanceMeters>
          </Trackpoint>
          <Trackpoint>
            <Time>2018-12-30T10:03:50.000Z</Time>
            <Position>
              <LatitudeDegrees>40.76611303724348545074462890625</LatitudeDegrees>
              <LongitudeDegrees>-4.0733110718429088592529296875</LongitudeDegrees>
            </Position>
            <AltitudeMeters>1352.800048828125</AltitudeMeters>
            <DistanceMeters>NAN</DistanceMeters>
          </Trackpoint>
          <Trackpoint>
            <Time>2018-12-30T10:03:51.000Z</Time>
            <Position>
              <LatitudeDegrees>40.76611001975834369659423828125</LatitudeDegrees>
              <LongitudeDegrees>-4.07329908572137355804443359375</LongitudeDegrees>
            </Position>
            <AltitudeMeters>1352.800048828125</AltitudeMeters>
            <DistanceMeters>NAN</DistanceMeters>
          </Trackpoint>
          <Trackpoint>
            <Time>2018-12-30T10:03:52.000Z</Time>
            <Position>
              <LatitudeDegrees>40.76610557734966278076171875</LatitudeDegrees>
              <LongitudeDegrees>-4.073284752666950225830078125</LongitudeDegrees>
            </Position>
            <AltitudeMeters>1352.800048828125</AltitudeMeters>
            <DistanceMeters>NAN</DistanceMeters>
          </Trackpoint>
          <Trackpoint>
            <Time>2018-12-30T10:03:53.000Z</Time>
            <Position>
              <LatitudeDegrees>40.76610155403614044189453125</LatitudeDegrees>
              <LongitudeDegrees>-4.07327167689800262451171875</LongitudeDegrees>
            </Position>
            <AltitudeMeters>1352.800048828125</AltitudeMeters>
            <DistanceMeters>NAN</DistanceMeters>
          </Trackpoint>
          <Trackpoint>
            <Time>2018-12-30T10:03:54.000Z</Time>
            <Position>
              <LatitudeDegrees>40.7660966925323009490966796875</LatitudeDegrees>
              <LongitudeDegrees>-4.0732497163116931915283203125</LongitudeDegrees>
            </Position>
            <AltitudeMeters>1352.800048828125</AltitudeMeters>
            <DistanceMeters>NAN</DistanceMeters>
          </Trackpoint>
          <Trackpoint>
            <Time>2018-12-30T10:03:55.000Z</Time>
            <Position>
              <LatitudeDegrees>40.76609141193330287933349609375</LatitudeDegrees>
              <LongitudeDegrees>-4.07322834245860576629638671875</LongitudeDegrees>
            </Position>
            <AltitudeMeters>1352.800048828125</AltitudeMeters>
            <DistanceMeters>NAN</DistanceMeters>
          </Trackpoint>
          <Trackpoint>
            <Time>2018-12-30T10:03:56.000Z</Time>
            <Position>
              <LatitudeDegrees>40.76608587987720966339111328125</LatitudeDegrees>
              <LongitudeDegrees>-4.07320990227162837982177734375</LongitudeDegrees>
            </Position>
            <AltitudeMeters>1352.800048828125</AltitudeMeters>
            <DistanceMeters>NAN</DistanceMeters>
          </Trackpoint>
          <Trackpoint>
            <Time>2018-12-30T10:03:57.000Z</Time>
            <Position>
              <LatitudeDegrees>40.76608068309724330902099609375</LatitudeDegrees>
              <LongitudeDegrees>-4.073192887008190155029296875</LongitudeDegrees>
            </Position>
            <AltitudeMeters>1352.5999755859375</AltitudeMeters>
            <DistanceMeters>NAN</DistanceMeters>
          </Trackpoint>
          <Trackpoint>
            <Time>2018-12-30T10:03:58.000Z</Time>
            <Position>
              <LatitudeDegrees>40.76607632450759410858154296875</LatitudeDegrees>
              <LongitudeDegrees>-4.0731799788773059844970703125</LongitudeDegrees>
            </Position>
            <AltitudeMeters>1352.199951171875</AltitudeMeters>
            <DistanceMeters>NAN</DistanceMeters>
          </Trackpoint>
          <Trackpoint>
            <Time>2018-12-30T10:03:59.000Z</Time>
            <Position>
              <LatitudeDegrees>40.76607230119407176971435546875</LatitudeDegrees>
              <LongitudeDegrees>-4.07316916622221469879150390625</LongitudeDegrees>
            </Position>
            <AltitudeMeters>1352</AltitudeMeters>
            <DistanceMeters>NAN</DistanceMeters>
          </Trackpoint>
          <Trackpoint>
            <Time>2018-12-30T10:04:00.000Z</Time>
            <Position>
              <LatitudeDegrees>40.766069032251834869384765625</LatitudeDegrees>
              <LongitudeDegrees>-4.07315776683390140533447265625</LongitudeDegrees>
            </Position>
            <AltitudeMeters>1351.800048828125</AltitudeMeters>
            <DistanceMeters>NAN</DistanceMeters>
          </Trackpoint>
          <Trackpoint>
            <Time>2018-12-30T10:04:01.000Z</Time>
            <Position>
              <LatitudeDegrees>40.7660648413002490997314453125</LatitudeDegrees>
              <LongitudeDegrees>-4.0731300227344036102294921875</LongitudeDegrees>
            </Position>
            <AltitudeMeters>1351.800048828125</AltitudeMeters>
            <DistanceMeters>NAN</DistanceMeters>
          </Trackpoint>
          <Trackpoint>
            <Time>2018-12-30T10:04:02.000Z</Time>
            <Position>
              <LatitudeDegrees>40.7660648413002490997314453125</LatitudeDegrees>
              <LongitudeDegrees>-4.0731300227344036102294921875</LongitudeDegrees>
            </Position>
            <AltitudeMeters>1351.800048828125</AltitudeMeters>
            <DistanceMeters>NAN</DistanceMeters>
          </Trackpoint>
          <Trackpoint>
            <Time>2018-12-30T10:04:03.000Z</Time>
            <Position>
              <LatitudeDegrees>40.76605855487287044525146484375</LatitudeDegrees>
              <LongitudeDegrees>-4.0731127560138702392578125</LongitudeDegrees>
            </Position>
            <AltitudeMeters>1351.5999755859375</AltitudeMeters>
            <DistanceMeters>NAN</DistanceMeters>
          </Trackpoint>
          <Trackpoint>
            <Time>2018-12-30T10:04:04.000Z</Time>
            <Position>
              <LatitudeDegrees>40.7660584710538387298583984375</LatitudeDegrees>
              <LongitudeDegrees>-4.07310630194842815399169921875</LongitudeDegrees>
            </Position>
            <AltitudeMeters>1351.5999755859375</AltitudeMeters>
            <DistanceMeters>NAN</DistanceMeters>
          </Trackpoint>
          <Trackpoint>
            <Time>2018-12-30T10:04:05.000Z</Time>
            <Position>
              <LatitudeDegrees>40.7660581357777118682861328125</LatitudeDegrees>
              <LongitudeDegrees>-4.0730938129127025604248046875</LongitudeDegrees>
            </Position>
            <AltitudeMeters>1351.5999755859375</AltitudeMeters>
            <DistanceMeters>NAN</DistanceMeters>
          </Trackpoint>
          <Trackpoint>
            <Time>2018-12-30T10:04:06.000Z</Time>
            <Position>
              <LatitudeDegrees>40.7660567946732044219970703125</LatitudeDegrees>
              <LongitudeDegrees>-4.0730805695056915283203125</LongitudeDegrees>
            </Position>
            <AltitudeMeters>1351.5999755859375</AltitudeMeters>
            <DistanceMeters>NAN</DistanceMeters>
          </Trackpoint>
          <Trackpoint>
            <Time>2018-12-30T10:04:07.000Z</Time>
            <Position>
              <LatitudeDegrees>40.76605587266385555267333984375</LatitudeDegrees>
              <LongitudeDegrees>-4.07306573353707790374755859375</LongitudeDegrees>
            </Position>
            <AltitudeMeters>1351.5999755859375</AltitudeMeters>
            <DistanceMeters>NAN</DistanceMeters>
          </Trackpoint>
          <Trackpoint>
            <Time>2018-12-30T10:04:08.000Z</Time>
            <Position>
              <LatitudeDegrees>40.76605469919741153717041015625</LatitudeDegrees>
              <LongitudeDegrees>-4.0730498917400836944580078125</LongitudeDegrees>
            </Position>
            <AltitudeMeters>1351.800048828125</AltitudeMeters>
            <DistanceMeters>NAN</DistanceMeters>
          </Trackpoint>
          <Trackpoint>
            <Time>2018-12-30T10:04:09.000Z</Time>
            <Position>
              <LatitudeDegrees>40.76605327427387237548828125</LatitudeDegrees>
              <LongitudeDegrees>-4.07303404994308948516845703125</LongitudeDegrees>
            </Position>
            <AltitudeMeters>1351.800048828125</AltitudeMeters>
            <DistanceMeters>NAN</DistanceMeters>
          </Trackpoint>
          <Trackpoint>
            <Time>2018-12-30T10:04:10.000Z</Time>
            <Position>
              <LatitudeDegrees>40.76605117879807949066162109375</LatitudeDegrees>
              <LongitudeDegrees>-4.0730153582990169525146484375</LongitudeDegrees>
            </Position>
            <AltitudeMeters>1351.800048828125</AltitudeMeters>
            <DistanceMeters>NAN</DistanceMeters>
          </Trackpoint>
          <Trackpoint>
            <Time>2018-12-30T10:04:11.000Z</Time>
            <Position>
              <LatitudeDegrees>40.76604967005550861358642578125</LatitudeDegrees>
              <LongitudeDegrees>-4.07299666665494441986083984375</LongitudeDegrees>
            </Position>
            <AltitudeMeters>1351.800048828125</AltitudeMeters>
            <DistanceMeters>NAN</DistanceMeters>
          </Trackpoint>
          <Trackpoint>
            <Time>2018-12-30T10:04:12.000Z</Time>
            <Position>
              <LatitudeDegrees>40.76605117879807949066162109375</LatitudeDegrees>
              <LongitudeDegrees>-4.0729814954102039337158203125</LongitudeDegrees>
            </Position>
            <AltitudeMeters>1351.800048828125</AltitudeMeters>
            <DistanceMeters>NAN</DistanceMeters>
          </Trackpoint>
          <Trackpoint>
            <Time>2018-12-30T10:04:13.000Z</Time>
            <Position>
              <LatitudeDegrees>40.7660566270351409912109375</LatitudeDegrees>
              <LongitudeDegrees>-4.07296749763190746307373046875</LongitudeDegrees>
            </Position>
            <AltitudeMeters>1351.800048828125</AltitudeMeters>
            <DistanceMeters>NAN</DistanceMeters>
          </Trackpoint>
          <Trackpoint>
            <Time>2018-12-30T10:04:14.000Z</Time>
            <Position>
              <LatitudeDegrees>40.7660655118525028228759765625</LatitudeDegrees>
              <LongitudeDegrees>-4.0729529969394207000732421875</LongitudeDegrees>
            </Position>
            <AltitudeMeters>1351.800048828125</AltitudeMeters>
            <DistanceMeters>NAN</DistanceMeters>
          </Trackpoint>
          <Trackpoint>
            <Time>2018-12-30T10:04:15.000Z</Time>
            <Position>
              <LatitudeDegrees>40.766073726117610931396484375</LatitudeDegrees>
              <LongitudeDegrees>-4.0729372389614582061767578125</LongitudeDegrees>
            </Position>
            <AltitudeMeters>1351.5999755859375</AltitudeMeters>
            <DistanceMeters>NAN</DistanceMeters>
          </Trackpoint>
          <Trackpoint>
            <Time>2018-12-30T10:04:16.000Z</Time>
            <Position>
              <LatitudeDegrees>40.76608051545917987823486328125</LatitudeDegrees>
              <LongitudeDegrees>-4.0729208104312419891357421875</LongitudeDegrees>
            </Position>
            <AltitudeMeters>1351.5999755859375</AltitudeMeters>
            <DistanceMeters>NAN</DistanceMeters>
          </Trackpoint>
          <Trackpoint>
            <Time>2018-12-30T10:04:17.000Z</Time>
            <Position>
              <LatitudeDegrees>40.76608805917203426361083984375</LatitudeDegrees>
              <LongitudeDegrees>-4.0729057230055332183837890625</LongitudeDegrees>
            </Position>
            <AltitudeMeters>1351.4000244140625</AltitudeMeters>
            <DistanceMeters>NAN</DistanceMeters>
          </Trackpoint>
          <Trackpoint>
            <Time>2018-12-30T10:04:18.000Z</Time>
            <Position>
              <LatitudeDegrees>40.7660963572561740875244140625</LatitudeDegrees>
              <LongitudeDegrees>-4.0728923119604587554931640625</LongitudeDegrees>
            </Position>
            <AltitudeMeters>1351.4000244140625</AltitudeMeters>
            <DistanceMeters>NAN</DistanceMeters>
          </Trackpoint>
          <Trackpoint>
            <Time>2018-12-30T10:04:19.000Z</Time>
            <Position>
              <LatitudeDegrees>40.76610163785517215728759765625</LatitudeDegrees>
              <LongitudeDegrees>-4.0728815831243991851806640625</LongitudeDegrees>
            </Position>
            <AltitudeMeters>1351.4000244140625</AltitudeMeters>
            <DistanceMeters>NAN</DistanceMeters>
          </Trackpoint>
          <Trackpoint>
            <Time>2018-12-30T10:04:20.000Z</Time>
            <Position>
              <LatitudeDegrees>40.766108594834804534912109375</LatitudeDegrees>
              <LongitudeDegrees>-4.0728732012212276458740234375</LongitudeDegrees>
            </Position>
            <AltitudeMeters>1351.199951171875</AltitudeMeters>
            <DistanceMeters>NAN</DistanceMeters>
          </Trackpoint>
          <Trackpoint>
            <Time>2018-12-30T10:04:21.000Z</Time>
            <Position>
              <LatitudeDegrees>40.76611706055700778961181640625</LatitudeDegrees>
              <LongitudeDegrees>-4.07286507077515125274658203125</LongitudeDegrees>
            </Position>
            <AltitudeMeters>1351.199951171875</AltitudeMeters>
            <DistanceMeters>NAN</DistanceMeters>
          </Trackpoint>
          <Trackpoint>
            <Time>2018-12-30T10:04:22.000Z</Time>
            <Position>
              <LatitudeDegrees>40.766125358641147613525390625</LatitudeDegrees>
              <LongitudeDegrees>-4.07285802997648715972900390625</LongitudeDegrees>
            </Position>
            <AltitudeMeters>1351.199951171875</AltitudeMeters>
            <DistanceMeters>NAN</DistanceMeters>
          </Trackpoint>
          <Trackpoint>
            <Time>2018-12-30T10:04:23.000Z</Time>
            <Position>
              <LatitudeDegrees>40.76613499782979488372802734375</LatitudeDegrees>
              <LongitudeDegrees>-4.07284864224493503570556640625</LongitudeDegrees>
            </Position>
            <AltitudeMeters>1351.4000244140625</AltitudeMeters>
            <DistanceMeters>NAN</DistanceMeters>
          </Trackpoint>
          <Trackpoint>
            <Time>2018-12-30T10:04:24.000Z</Time>
            <Position>
              <LatitudeDegrees>40.7661419548094272613525390625</LatitudeDegrees>
              <LongitudeDegrees>-4.07283925451338291168212890625</LongitudeDegrees>
            </Position>
            <AltitudeMeters>1351.4000244140625</AltitudeMeters>
            <DistanceMeters>NAN</DistanceMeters>
          </Trackpoint>
          <Trackpoint>
            <Time>2018-12-30T10:04:25.000Z</Time>
            <Position>
              <LatitudeDegrees>40.7661503367125988006591796875</LatitudeDegrees>
              <LongitudeDegrees>-4.072830118238925933837890625</LongitudeDegrees>
            </Position>
            <AltitudeMeters>1351.4000244140625</AltitudeMeters>
            <DistanceMeters>NAN</DistanceMeters>
          </Trackpoint>
          <Trackpoint>
            <Time>2018-12-30T10:04:26.000Z</Time>
            <Position>
              <LatitudeDegrees>40.7661597244441509246826171875</LatitudeDegrees>
              <LongitudeDegrees>-4.07282249070703983306884765625</LongitudeDegrees>
            </Position>
            <AltitudeMeters>1351.4000244140625</AltitudeMeters>
            <DistanceMeters>NAN</DistanceMeters>
          </Trackpoint>
          <Trackpoint>
            <Time>2018-12-30T10:04:27.000Z</Time>
            <Position>
              <LatitudeDegrees>40.7661714591085910797119140625</LatitudeDegrees>
              <LongitudeDegrees>-4.0728123486042022705078125</LongitudeDegrees>
            </Position>
            <AltitudeMeters>1351.4000244140625</AltitudeMeters>
            <DistanceMeters>NAN</DistanceMeters>
          </Trackpoint>
          <Trackpoint>
            <Time>2018-12-30T10:04:28.000Z</Time>
            <Position>
              <LatitudeDegrees>40.766185708343982696533203125</LatitudeDegrees>
              <LongitudeDegrees>-4.07280363142490386962890625</LongitudeDegrees>
            </Position>
            <AltitudeMeters>1351.199951171875</AltitudeMeters>
            <DistanceMeters>NAN</DistanceMeters>
          </Trackpoint>
          <Trackpoint>
            <Time>2018-12-30T10:04:29.000Z</Time>
            <Position>
              <LatitudeDegrees>40.76620037667453289031982421875</LatitudeDegrees>
              <LongitudeDegrees>-4.07278896309435367584228515625</LongitudeDegrees>
            </Position>
            <AltitudeMeters>1351</AltitudeMeters>
            <DistanceMeters>NAN</DistanceMeters>
          </Trackpoint>
          <Trackpoint>
            <Time>2018-12-30T10:04:30.000Z</Time>
            <Position>
              <LatitudeDegrees>40.766214542090892791748046875</LatitudeDegrees>
              <LongitudeDegrees>-4.07277622260153293609619140625</LongitudeDegrees>
            </Position>
            <AltitudeMeters>1350.800048828125</AltitudeMeters>
            <DistanceMeters>NAN</DistanceMeters>
          </Trackpoint>
          <Trackpoint>
            <Time>2018-12-30T10:04:31.000Z</Time>
            <Position>
              <LatitudeDegrees>40.76623172499239444732666015625</LatitudeDegrees>
              <LongitudeDegrees>-4.072761721909046173095703125</LongitudeDegrees>
            </Position>
            <AltitudeMeters>1350.800048828125</AltitudeMeters>
            <DistanceMeters>NAN</DistanceMeters>
          </Trackpoint>
          <Trackpoint>
            <Time>2018-12-30T10:04:32.000Z</Time>
            <Position>
              <LatitudeDegrees>40.76623641885817050933837890625</LatitudeDegrees>
              <LongitudeDegrees>-4.07274755649268627166748046875</LongitudeDegrees>
            </Position>
            <AltitudeMeters>1350.5999755859375</AltitudeMeters>
            <DistanceMeters>NAN</DistanceMeters>
          </Trackpoint>
          <Trackpoint>
            <Time>2018-12-30T10:04:33.000Z</Time>
            <Position>
              <LatitudeDegrees>40.7662468962371349334716796875</LatitudeDegrees>
              <LongitudeDegrees>-4.07272676937282085418701171875</LongitudeDegrees>
            </Position>
            <AltitudeMeters>1350.5999755859375</AltitudeMeters>
            <DistanceMeters>NAN</DistanceMeters>
          </Trackpoint>
          <Trackpoint>
            <Time>2018-12-30T10:04:34.000Z</Time>
            <Position>
              <LatitudeDegrees>40.7662515901029109954833984375</LatitudeDegrees>
              <LongitudeDegrees>-4.07270346768200397491455078125</LongitudeDegrees>
            </Position>
            <AltitudeMeters>1350.5999755859375</AltitudeMeters>
            <DistanceMeters>NAN</DistanceMeters>
          </Trackpoint>
          <Trackpoint>
            <Time>2018-12-30T10:04:35.000Z</Time>
            <Position>
              <LatitudeDegrees>40.7662650011479854583740234375</LatitudeDegrees>
              <LongitudeDegrees>-4.0726918168365955352783203125</LongitudeDegrees>
            </Position>
            <AltitudeMeters>1350.800048828125</AltitudeMeters>
            <DistanceMeters>NAN</DistanceMeters>
          </Trackpoint>
          <Trackpoint>
            <Time>2018-12-30T10:04:36.000Z</Time>
            <Position>
              <LatitudeDegrees>40.76627816073596477508544921875</LatitudeDegrees>
              <LongitudeDegrees>-4.07267379574477672576904296875</LongitudeDegrees>
            </Position>
            <AltitudeMeters>1350.800048828125</AltitudeMeters>
            <DistanceMeters>NAN</DistanceMeters>
          </Trackpoint>
          <Trackpoint>
            <Time>2018-12-30T10:04:37.000Z</Time>
            <Position>
              <LatitudeDegrees>40.7662908174097537994384765625</LatitudeDegrees>
              <LongitudeDegrees>-4.072657786309719085693359375</LongitudeDegrees>
            </Position>
            <AltitudeMeters>1350.800048828125</AltitudeMeters>
            <DistanceMeters>NAN</DistanceMeters>
          </Trackpoint>
          <Trackpoint>
            <Time>2018-12-30T10:04:38.000Z</Time>
            <Position>
              <LatitudeDegrees>40.76630732975900173187255859375</LatitudeDegrees>
              <LongitudeDegrees>-4.07264663837850093841552734375</LongitudeDegrees>
            </Position>
            <AltitudeMeters>1350.800048828125</AltitudeMeters>
            <DistanceMeters>NAN</DistanceMeters>
          </Trackpoint>
          <Trackpoint>
            <Time>2018-12-30T10:04:39.000Z</Time>
            <Position>
              <LatitudeDegrees>40.76631671749055385589599609375</LatitudeDegrees>
              <LongitudeDegrees>-4.072638340294361114501953125</LongitudeDegrees>
            </Position>
            <AltitudeMeters>1350.800048828125</AltitudeMeters>
            <DistanceMeters>NAN</DistanceMeters>
          </Trackpoint>
          <Trackpoint>
            <Time>2018-12-30T10:04:40.000Z</Time>
            <Position>
              <LatitudeDegrees>40.76632627286016941070556640625</LatitudeDegrees>
              <LongitudeDegrees>-4.0726281143724918365478515625</LongitudeDegrees>
            </Position>
            <AltitudeMeters>1350.800048828125</AltitudeMeters>
            <DistanceMeters>NAN</DistanceMeters>
          </Trackpoint>
          <Trackpoint>
            <Time>2018-12-30T10:04:41.000Z</Time>
            <Position>
              <LatitudeDegrees>40.766333900392055511474609375</LatitudeDegrees>
              <LongitudeDegrees>-4.0726204030215740203857421875</LongitudeDegrees>
            </Position>
            <AltitudeMeters>1350.800048828125</AltitudeMeters>
            <DistanceMeters>NAN</DistanceMeters>
          </Trackpoint>
          <Trackpoint>
            <Time>2018-12-30T10:04:42.000Z</Time>
            <Position>
              <LatitudeDegrees>40.766339264810085296630859375</LatitudeDegrees>
              <LongitudeDegrees>-4.07260640524327754974365234375</LongitudeDegrees>
            </Position>
            <AltitudeMeters>1350.800048828125</AltitudeMeters>
            <DistanceMeters>NAN</DistanceMeters>
          </Trackpoint>
          <Trackpoint>
            <Time>2018-12-30T10:04:43.000Z</Time>
            <Position>
              <LatitudeDegrees>40.76634253375232219696044921875</LatitudeDegrees>
              <LongitudeDegrees>-4.0725905634462833404541015625</LongitudeDegrees>
            </Position>
            <AltitudeMeters>1350.800048828125</AltitudeMeters>
            <DistanceMeters>NAN</DistanceMeters>
          </Trackpoint>
          <Trackpoint>
            <Time>2018-12-30T10:04:44.000Z</Time>
            <Position>
              <LatitudeDegrees>40.76635024510324001312255859375</LatitudeDegrees>
              <LongitudeDegrees>-4.07258209772408008575439453125</LongitudeDegrees>
            </Position>
            <AltitudeMeters>1351</AltitudeMeters>
            <DistanceMeters>NAN</DistanceMeters>
          </Trackpoint>
          <Trackpoint>
            <Time>2018-12-30T10:04:45.000Z</Time>
            <Position>
              <LatitudeDegrees>40.76635845936834812164306640625</LatitudeDegrees>
              <LongitudeDegrees>-4.07256491482257843017578125</LongitudeDegrees>
            </Position>
            <AltitudeMeters>1351</AltitudeMeters>
            <DistanceMeters>NAN</DistanceMeters>
          </Trackpoint>
          <Trackpoint>
            <Time>2018-12-30T10:04:46.000Z</Time>
            <Position>
              <LatitudeDegrees>40.7663679309189319610595703125</LatitudeDegrees>
              <LongitudeDegrees>-4.0725526772439479827880859375</LongitudeDegrees>
            </Position>
            <AltitudeMeters>1351.199951171875</AltitudeMeters>
            <DistanceMeters>NAN</DistanceMeters>
          </Trackpoint>
          <Trackpoint>
            <Time>2018-12-30T10:04:47.000Z</Time>
            <Position>
              <LatitudeDegrees>40.766376145184040069580078125</LatitudeDegrees>
              <LongitudeDegrees>-4.07254655845463275909423828125</LongitudeDegrees>
            </Position>
            <AltitudeMeters>1351.199951171875</AltitudeMeters>
            <DistanceMeters>NAN</DistanceMeters>
          </Trackpoint>
          <Trackpoint>
            <Time>2018-12-30T10:04:48.000Z</Time>
            <Position>
              <LatitudeDegrees>40.7663836888968944549560546875</LatitudeDegrees>
              <LongitudeDegrees>-4.07253272831439971923828125</LongitudeDegrees>
            </Position>
            <AltitudeMeters>1351.199951171875</AltitudeMeters>
            <DistanceMeters>NAN</DistanceMeters>
          </Trackpoint>
          <Trackpoint>
            <Time>2018-12-30T10:04:49.000Z</Time>
            <Position>
              <LatitudeDegrees>40.76638679020106792449951171875</LatitudeDegrees>
              <LongitudeDegrees>-4.0725141204893589019775390625</LongitudeDegrees>
            </Position>
            <AltitudeMeters>1351.4000244140625</AltitudeMeters>
            <DistanceMeters>NAN</DistanceMeters>
          </Trackpoint>
          <Trackpoint>
            <Time>2018-12-30T10:04:50.000Z</Time>
            <Position>
              <LatitudeDegrees>40.7663873769342899322509765625</LatitudeDegrees>
              <LongitudeDegrees>-4.07248620875179767608642578125</LongitudeDegrees>
            </Position>
            <AltitudeMeters>1351.4000244140625</AltitudeMeters>
            <DistanceMeters>NAN</DistanceMeters>
          </Trackpoint>
          <Trackpoint>
            <Time>2018-12-30T10:04:51.000Z</Time>
            <Position>
              <LatitudeDegrees>40.76639684848487377166748046875</LatitudeDegrees>
              <LongitudeDegrees>-4.07247967086732387542724609375</LongitudeDegrees>
            </Position>
            <AltitudeMeters>1351.4000244140625</AltitudeMeters>
            <DistanceMeters>NAN</DistanceMeters>
          </Trackpoint>
          <Trackpoint>
            <Time>2018-12-30T10:04:52.000Z</Time>
            <Position>
              <LatitudeDegrees>40.766397602856159210205078125</LatitudeDegrees>
              <LongitudeDegrees>-4.0724725462496280670166015625</LongitudeDegrees>
            </Position>
            <AltitudeMeters>1351.4000244140625</AltitudeMeters>
            <DistanceMeters>NAN</DistanceMeters>
          </Trackpoint>
          <Trackpoint>
            <Time>2018-12-30T10:04:53.000Z</Time>
            <Position>
              <LatitudeDegrees>40.7664106786251068115234375</LatitudeDegrees>
              <LongitudeDegrees>-4.0724661760032176971435546875</LongitudeDegrees>
            </Position>
            <AltitudeMeters>1351.199951171875</AltitudeMeters>
            <DistanceMeters>NAN</DistanceMeters>
          </Trackpoint>
          <Trackpoint>
            <Time>2018-12-30T10:04:54.000Z</Time>
            <Position>
              <LatitudeDegrees>40.766422748565673828125</LatitudeDegrees>
              <LongitudeDegrees>-4.0724618174135684967041015625</LongitudeDegrees>
            </Position>
            <AltitudeMeters>1351.199951171875</AltitudeMeters>
            <DistanceMeters>NAN</DistanceMeters>
          </Trackpoint>
          <Trackpoint>
            <Time>2018-12-30T10:04:55.000Z</Time>
            <Position>
              <LatitudeDegrees>40.76643012464046478271484375</LatitudeDegrees>
              <LongitudeDegrees>-4.0724561177194118499755859375</LongitudeDegrees>
            </Position>
            <AltitudeMeters>1351.199951171875</AltitudeMeters>
            <DistanceMeters>NAN</DistanceMeters>
          </Trackpoint>
          <Trackpoint>
            <Time>2018-12-30T10:04:56.000Z</Time>
            <Position>
              <LatitudeDegrees>40.76643406413495540618896484375</LatitudeDegrees>
              <LongitudeDegrees>-4.07245452515780925750732421875</LongitudeDegrees>
            </Position>
            <AltitudeMeters>1351.199951171875</AltitudeMeters>
            <DistanceMeters>NAN</DistanceMeters>
          </Trackpoint>
          <Trackpoint>
            <Time>2018-12-30T10:04:57.000Z</Time>
            <Position>
              <LatitudeDegrees>40.76644110493361949920654296875</LatitudeDegrees>
              <LongitudeDegrees>-4.07245486043393611907958984375</LongitudeDegrees>
            </Position>
            <AltitudeMeters>1351.4000244140625</AltitudeMeters>
            <DistanceMeters>NAN</DistanceMeters>
          </Trackpoint>
          <Trackpoint>
            <Time>2018-12-30T10:04:58.000Z</Time>
            <Position>
              <LatitudeDegrees>40.766448564827442169189453125</LatitudeDegrees>
              <LongitudeDegrees>-4.0724502503871917724609375</LongitudeDegrees>
            </Position>
            <AltitudeMeters>1351.4000244140625</AltitudeMeters>
            <DistanceMeters>NAN</DistanceMeters>
          </Trackpoint>
          <Trackpoint>
            <Time>2018-12-30T10:04:59.000Z</Time>
            <Position>
              <LatitudeDegrees>40.766457617282867431640625</LatitudeDegrees>
              <LongitudeDegrees>-4.07245083712041378021240234375</LongitudeDegrees>
            </Position>
            <AltitudeMeters>1351.5999755859375</AltitudeMeters>
            <DistanceMeters>NAN</DistanceMeters>
          </Trackpoint>
          <Trackpoint>
            <Time>2018-12-30T10:05:00.000Z</Time>
            <Position>
              <LatitudeDegrees>40.76646507717669010162353515625</LatitudeDegrees>
              <LongitudeDegrees>-4.0724470652639865875244140625</LongitudeDegrees>
            </Position>
            <AltitudeMeters>1351.5999755859375</AltitudeMeters>
            <DistanceMeters>NAN</DistanceMeters>
          </Trackpoint>
          <Trackpoint>
            <Time>2018-12-30T10:05:01.000Z</Time>
            <Position>
              <LatitudeDegrees>40.76647161506116390228271484375</LatitudeDegrees>
              <LongitudeDegrees>-4.072437845170497894287109375</LongitudeDegrees>
            </Position>
            <AltitudeMeters>1351.5999755859375</AltitudeMeters>
            <DistanceMeters>NAN</DistanceMeters>
          </Trackpoint>
          <Trackpoint>
            <Time>2018-12-30T10:05:02.000Z</Time>
            <Position>
              <LatitudeDegrees>40.7664829306304454803466796875</LatitudeDegrees>
              <LongitudeDegrees>-4.07243189401924610137939453125</LongitudeDegrees>
            </Position>
            <AltitudeMeters>1351.5999755859375</AltitudeMeters>
            <DistanceMeters>NAN</DistanceMeters>
          </Trackpoint>
          <Trackpoint>
            <Time>2018-12-30T10:05:03.000Z</Time>
            <Position>
              <LatitudeDegrees>40.766491480171680450439453125</LatitudeDegrees>
              <LongitudeDegrees>-4.07242099754512310028076171875</LongitudeDegrees>
            </Position>
            <AltitudeMeters>1351.5999755859375</AltitudeMeters>
            <DistanceMeters>NAN</DistanceMeters>
          </Trackpoint>
          <Trackpoint>
            <Time>2018-12-30T10:05:04.000Z</Time>
            <Position>
              <LatitudeDegrees>40.76649843715131282806396484375</LatitudeDegrees>
              <LongitudeDegrees>-4.0724182315170764923095703125</LongitudeDegrees>
            </Position>
            <AltitudeMeters>1351.800048828125</AltitudeMeters>
            <DistanceMeters>NAN</DistanceMeters>
          </Trackpoint>
          <Trackpoint>
            <Time>2018-12-30T10:05:05.000Z</Time>
            <Position>
              <LatitudeDegrees>40.76650656759738922119140625</LatitudeDegrees>
              <LongitudeDegrees>-4.07240909524261951446533203125</LongitudeDegrees>
            </Position>
            <AltitudeMeters>1351.800048828125</AltitudeMeters>
            <DistanceMeters>NAN</DistanceMeters>
          </Trackpoint>
          <Trackpoint>
            <Time>2018-12-30T10:05:06.000Z</Time>
            <Position>
              <LatitudeDegrees>40.76651855371892452239990234375</LatitudeDegrees>
              <LongitudeDegrees>-4.07240591011941432952880859375</LongitudeDegrees>
            </Position>
            <AltitudeMeters>1352</AltitudeMeters>
            <DistanceMeters>NAN</DistanceMeters>
          </Trackpoint>
          <Trackpoint>
            <Time>2018-12-30T10:05:07.000Z</Time>
            <Position>
              <LatitudeDegrees>40.7665258459746837615966796875</LatitudeDegrees>
              <LongitudeDegrees>-4.07239719294011592864990234375</LongitudeDegrees>
            </Position>
            <AltitudeMeters>1352</AltitudeMeters>
            <DistanceMeters>NAN</DistanceMeters>
          </Trackpoint>
          <Trackpoint>
            <Time>2018-12-30T10:05:08.000Z</Time>
            <Position>
              <LatitudeDegrees>40.76652894727885723114013671875</LatitudeDegrees>
              <LongitudeDegrees>-4.07239182852208614349365234375</LongitudeDegrees>
            </Position>
            <AltitudeMeters>1352.199951171875</AltitudeMeters>
            <DistanceMeters>NAN</DistanceMeters>
          </Trackpoint>
          <Trackpoint>
            <Time>2018-12-30T10:05:09.000Z</Time>
            <Position>
              <LatitudeDegrees>40.76653070747852325439453125</LatitudeDegrees>
              <LongitudeDegrees>-4.07239652238786220550537109375</LongitudeDegrees>
            </Position>
            <AltitudeMeters>1352.199951171875</AltitudeMeters>
            <DistanceMeters>NAN</DistanceMeters>
          </Trackpoint>
          <Trackpoint>
            <Time>2018-12-30T10:05:10.000Z</Time>
            <Position>
              <LatitudeDegrees>40.766530372202396392822265625</LatitudeDegrees>
              <LongitudeDegrees>-4.07239861786365509033203125</LongitudeDegrees>
            </Position>
            <AltitudeMeters>1352.4000244140625</AltitudeMeters>
            <DistanceMeters>NAN</DistanceMeters>
          </Trackpoint>
          <Trackpoint>
            <Time>2018-12-30T10:05:11.000Z</Time>
            <Position>
              <LatitudeDegrees>40.76652911491692066192626953125</LatitudeDegrees>
              <LongitudeDegrees>-4.07240389846265316009521484375</LongitudeDegrees>
            </Position>
            <AltitudeMeters>1353</AltitudeMeters>
            <DistanceMeters>NAN</DistanceMeters>
          </Trackpoint>
          <Trackpoint>
            <Time>2018-12-30T10:05:12.000Z</Time>
            <Position>
              <LatitudeDegrees>40.7665342278778553009033203125</LatitudeDegrees>
              <LongitudeDegrees>-4.07240130007266998291015625</LongitudeDegrees>
            </Position>
            <AltitudeMeters>1353.199951171875</AltitudeMeters>
            <DistanceMeters>NAN</DistanceMeters>
          </Trackpoint>
          <Trackpoint>
            <Time>2018-12-30T10:05:13.000Z</Time>
            <Position>
              <LatitudeDegrees>40.7665422745048999786376953125</LatitudeDegrees>
              <LongitudeDegrees>-4.07240155152976512908935546875</LongitudeDegrees>
            </Position>
            <AltitudeMeters>1353.199951171875</AltitudeMeters>
            <DistanceMeters>NAN</DistanceMeters>
          </Trackpoint>
          <Trackpoint>
            <Time>2018-12-30T10:05:14.000Z</Time>
            <Position>
              <LatitudeDegrees>40.7665523327887058258056640625</LatitudeDegrees>
              <LongitudeDegrees>-4.07239853404462337493896484375</LongitudeDegrees>
            </Position>
            <AltitudeMeters>1353.199951171875</AltitudeMeters>
            <DistanceMeters>NAN</DistanceMeters>
          </Trackpoint>
          <Trackpoint>
            <Time>2018-12-30T10:05:15.000Z</Time>
            <Position>
              <LatitudeDegrees>40.766559876501560211181640625</LatitudeDegrees>
              <LongitudeDegrees>-4.07238981686532497406005859375</LongitudeDegrees>
            </Position>
            <AltitudeMeters>1353.199951171875</AltitudeMeters>
            <DistanceMeters>NAN</DistanceMeters>
          </Trackpoint>
          <Trackpoint>
            <Time>2018-12-30T10:05:16.000Z</Time>
            <Position>
              <LatitudeDegrees>40.76656557619571685791015625</LatitudeDegrees>
              <LongitudeDegrees>-4.07237716019153594970703125</LongitudeDegrees>
            </Position>
            <AltitudeMeters>1353</AltitudeMeters>
            <DistanceMeters>NAN</DistanceMeters>
          </Trackpoint>
          <Trackpoint>
            <Time>2018-12-30T10:05:17.000Z</Time>
            <Position>
              <LatitudeDegrees>40.76656918041408061981201171875</LatitudeDegrees>
              <LongitudeDegrees>-4.07236819155514240264892578125</LongitudeDegrees>
            </Position>
            <AltitudeMeters>1352.800048828125</AltitudeMeters>
            <DistanceMeters>NAN</DistanceMeters>
          </Trackpoint>
          <Trackpoint>
            <Time>2018-12-30T10:05:18.000Z</Time>
            <Position>
              <LatitudeDegrees>40.7665731199085712432861328125</LatitudeDegrees>
              <LongitudeDegrees>-4.07236299477517604827880859375</LongitudeDegrees>
            </Position>
            <AltitudeMeters>1352.800048828125</AltitudeMeters>
            <DistanceMeters>NAN</DistanceMeters>
          </Trackpoint>
          <Trackpoint>
            <Time>2018-12-30T10:05:19.000Z</Time>
            <Position>
              <LatitudeDegrees>40.7665788196027278900146484375</LatitudeDegrees>
              <LongitudeDegrees>-4.072360731661319732666015625</LongitudeDegrees>
            </Position>
            <AltitudeMeters>1352.800048828125</AltitudeMeters>
            <DistanceMeters>NAN</DistanceMeters>
          </Trackpoint>
          <Trackpoint>
            <Time>2018-12-30T10:05:20.000Z</Time>
            <Position>
              <LatitudeDegrees>40.766586698591709136962890625</LatitudeDegrees>
              <LongitudeDegrees>-4.07235679216682910919189453125</LongitudeDegrees>
            </Position>
            <AltitudeMeters>1352.800048828125</AltitudeMeters>
            <DistanceMeters>NAN</DistanceMeters>
          </Trackpoint>
          <Trackpoint>
            <Time>2018-12-30T10:05:21.000Z</Time>
            <Position>
              <LatitudeDegrees>40.76659449376165866851806640625</LatitudeDegrees>
              <LongitudeDegrees>-4.07235092483460903167724609375</LongitudeDegrees>
            </Position>
            <AltitudeMeters>1352.800048828125</AltitudeMeters>
            <DistanceMeters>NAN</DistanceMeters>
          </Trackpoint>
          <Trackpoint>
            <Time>2018-12-30T10:05:22.000Z</Time>
            <Position>
              <LatitudeDegrees>40.76660220511257648468017578125</LatitudeDegrees>
              <LongitudeDegrees>-4.07234891317784786224365234375</LongitudeDegrees>
            </Position>
            <AltitudeMeters>1353</AltitudeMeters>
            <DistanceMeters>NAN</DistanceMeters>
          </Trackpoint>
          <Trackpoint>
            <Time>2018-12-30T10:05:23.000Z</Time>
            <Position>
              <LatitudeDegrees>40.766604803502559661865234375</LatitudeDegrees>
              <LongitudeDegrees>-4.072341620922088623046875</LongitudeDegrees>
            </Position>
            <AltitudeMeters>1353</AltitudeMeters>
            <DistanceMeters>NAN</DistanceMeters>
          </Trackpoint>
          <Trackpoint>
            <Time>2018-12-30T10:05:24.000Z</Time>
            <Position>
              <LatitudeDegrees>40.7666143588721752166748046875</LatitudeDegrees>
              <LongitudeDegrees>-4.0723417885601520538330078125</LongitudeDegrees>
            </Position>
            <AltitudeMeters>1353.4000244140625</AltitudeMeters>
            <DistanceMeters>NAN</DistanceMeters>
          </Trackpoint>
          <Trackpoint>
            <Time>2018-12-30T10:05:25.000Z</Time>
            <Position>
              <LatitudeDegrees>40.76662383042275905609130859375</LatitudeDegrees>
              <LongitudeDegrees>-4.07233265228569507598876953125</LongitudeDegrees>
            </Position>
            <AltitudeMeters>1353.5999755859375</AltitudeMeters>
            <DistanceMeters>NAN</DistanceMeters>
          </Trackpoint>
          <Trackpoint>
            <Time>2018-12-30T10:05:26.000Z</Time>
            <Position>
              <LatitudeDegrees>40.76663757674396038055419921875</LatitudeDegrees>
              <LongitudeDegrees>-4.0723280422389507293701171875</LongitudeDegrees>
            </Position>
            <AltitudeMeters>1354</AltitudeMeters>
            <DistanceMeters>NAN</DistanceMeters>
          </Trackpoint>
          <Trackpoint>
            <Time>2018-12-30T10:05:27.000Z</Time>
            <Position>
              <LatitudeDegrees>40.766647718846797943115234375</LatitudeDegrees>
              <LongitudeDegrees>-4.07232485711574554443359375</LongitudeDegrees>
            </Position>
            <AltitudeMeters>1354.199951171875</AltitudeMeters>
            <DistanceMeters>NAN</DistanceMeters>
          </Trackpoint>
          <Trackpoint>
            <Time>2018-12-30T10:05:28.000Z</Time>
            <Position>
              <LatitudeDegrees>40.76665534637868404388427734375</LatitudeDegrees>
              <LongitudeDegrees>-4.072320498526096343994140625</LongitudeDegrees>
            </Position>
            <AltitudeMeters>1354.199951171875</AltitudeMeters>
            <DistanceMeters>NAN</DistanceMeters>
          </Trackpoint>
          <Trackpoint>
            <Time>2018-12-30T10:05:29.000Z</Time>
            <Position>
              <LatitudeDegrees>40.7666649855673313140869140625</LatitudeDegrees>
              <LongitudeDegrees>-4.0723189897835254669189453125</LongitudeDegrees>
            </Position>
            <AltitudeMeters>1354.4000244140625</AltitudeMeters>
            <DistanceMeters>NAN</DistanceMeters>
          </Trackpoint>
          <Trackpoint>
            <Time>2018-12-30T10:05:30.000Z</Time>
            <Position>
              <LatitudeDegrees>40.7666737027466297149658203125</LatitudeDegrees>
              <LongitudeDegrees>-4.07231622375547885894775390625</LongitudeDegrees>
            </Position>
            <AltitudeMeters>1354.4000244140625</AltitudeMeters>
            <DistanceMeters>NAN</DistanceMeters>
          </Trackpoint>
          <Trackpoint>
            <Time>2018-12-30T10:05:31.000Z</Time>
            <Position>
              <LatitudeDegrees>40.76668384484946727752685546875</LatitudeDegrees>
              <LongitudeDegrees>-4.07232175581157207489013671875</LongitudeDegrees>
            </Position>
            <AltitudeMeters>1354.5999755859375</AltitudeMeters>
            <DistanceMeters>NAN</DistanceMeters>
          </Trackpoint>
          <Trackpoint>
            <Time>2018-12-30T10:05:32.000Z</Time>
            <Position>
              <LatitudeDegrees>40.76668987981975078582763671875</LatitudeDegrees>
              <LongitudeDegrees>-4.07231370918452739715576171875</LongitudeDegrees>
            </Position>
            <AltitudeMeters>1354.5999755859375</AltitudeMeters>
            <DistanceMeters>NAN</DistanceMeters>
          </Trackpoint>
          <Trackpoint>
            <Time>2018-12-30T10:05:33.000Z</Time>
            <Position>
              <LatitudeDegrees>40.76669725589454174041748046875</LatitudeDegrees>
              <LongitudeDegrees>-4.07230834476649761199951171875</LongitudeDegrees>
            </Position>
            <AltitudeMeters>1354.800048828125</AltitudeMeters>
            <DistanceMeters>NAN</DistanceMeters>
          </Trackpoint>
          <Trackpoint>
            <Time>2018-12-30T10:05:34.000Z</Time>
            <Position>
              <LatitudeDegrees>40.76670295558869838714599609375</LatitudeDegrees>
              <LongitudeDegrees>-4.072309099137783050537109375</LongitudeDegrees>
            </Position>
            <AltitudeMeters>1355</AltitudeMeters>
            <DistanceMeters>NAN</DistanceMeters>
          </Trackpoint>
          <Trackpoint>
            <Time>2018-12-30T10:05:35.000Z</Time>
            <Position>
              <LatitudeDegrees>40.7667136006057262420654296875</LatitudeDegrees>
              <LongitudeDegrees>-4.07231857068836688995361328125</LongitudeDegrees>
            </Position>
            <AltitudeMeters>1355.199951171875</AltitudeMeters>
            <DistanceMeters>NAN</DistanceMeters>
          </Trackpoint>
          <Trackpoint>
            <Time>2018-12-30T10:05:36.000Z</Time>
            <Position>
              <LatitudeDegrees>40.76672608964145183563232421875</LatitudeDegrees>
              <LongitudeDegrees>-4.07232427038252353668212890625</LongitudeDegrees>
            </Position>
            <AltitudeMeters>1355.199951171875</AltitudeMeters>
            <DistanceMeters>NAN</DistanceMeters>
          </Trackpoint>
          <Trackpoint>
            <Time>2018-12-30T10:05:37.000Z</Time>
            <Position>
              <LatitudeDegrees>40.7667367346584796905517578125</LatitudeDegrees>
              <LongitudeDegrees>-4.0723216719925403594970703125</LongitudeDegrees>
            </Position>
            <AltitudeMeters>1355.4000244140625</AltitudeMeters>
            <DistanceMeters>NAN</DistanceMeters>
          </Trackpoint>
          <Trackpoint>
            <Time>2018-12-30T10:05:38.000Z</Time>
            <Position>
              <LatitudeDegrees>40.7667407579720020294189453125</LatitudeDegrees>
              <LongitudeDegrees>-4.07231002114713191986083984375</LongitudeDegrees>
            </Position>
            <AltitudeMeters>1355.4000244140625</AltitudeMeters>
            <DistanceMeters>NAN</DistanceMeters>
          </Trackpoint>
          <Trackpoint>
            <Time>2018-12-30T10:05:39.000Z</Time>
            <Position>
              <LatitudeDegrees>40.76675039716064929962158203125</LatitudeDegrees>
              <LongitudeDegrees>-4.0723075903952121734619140625</LongitudeDegrees>
            </Position>
            <AltitudeMeters>1355.5999755859375</AltitudeMeters>
            <DistanceMeters>NAN</DistanceMeters>
          </Trackpoint>
          <Trackpoint>
            <Time>2018-12-30T10:05:40.000Z</Time>
            <Position>
              <LatitudeDegrees>40.76675869524478912353515625</LatitudeDegrees>
              <LongitudeDegrees>-4.07230499200522899627685546875</LongitudeDegrees>
            </Position>
            <AltitudeMeters>1355.5999755859375</AltitudeMeters>
            <DistanceMeters>NAN</DistanceMeters>
          </Trackpoint>
          <Trackpoint>
            <Time>2018-12-30T10:05:41.000Z</Time>
            <Position>
              <LatitudeDegrees>40.76677252538502216339111328125</LatitudeDegrees>
              <LongitudeDegrees>-4.07230742275714874267578125</LongitudeDegrees>
            </Position>
            <AltitudeMeters>1355.5999755859375</AltitudeMeters>
            <DistanceMeters>NAN</DistanceMeters>
          </Trackpoint>
          <Trackpoint>
            <Time>2018-12-30T10:05:42.000Z</Time>
            <Position>
              <LatitudeDegrees>40.76678727753460407257080078125</LatitudeDegrees>
              <LongitudeDegrees>-4.072298705577850341796875</LongitudeDegrees>
            </Position>
            <AltitudeMeters>1355.800048828125</AltitudeMeters>
            <DistanceMeters>NAN</DistanceMeters>
          </Trackpoint>
          <Trackpoint>
            <Time>2018-12-30T10:05:43.000Z</Time>
            <Position>
              <LatitudeDegrees>40.7667984254658222198486328125</LatitudeDegrees>
              <LongitudeDegrees>-4.07229443080723285675048828125</LongitudeDegrees>
            </Position>
            <AltitudeMeters>1355.800048828125</AltitudeMeters>
            <DistanceMeters>NAN</DistanceMeters>
          </Trackpoint>
          <Trackpoint>
            <Time>2018-12-30T10:05:44.000Z</Time>
            <Position>
              <LatitudeDegrees>40.76680839993059635162353515625</LatitudeDegrees>
              <LongitudeDegrees>-4.07228772528469562530517578125</LongitudeDegrees>
            </Position>
            <AltitudeMeters>1356</AltitudeMeters>
            <DistanceMeters>NAN</DistanceMeters>
          </Trackpoint>
          <Trackpoint>
            <Time>2018-12-30T10:05:45.000Z</Time>
            <Position>
              <LatitudeDegrees>40.76681912876665592193603515625</LatitudeDegrees>
              <LongitudeDegrees>-4.0722864679992198944091796875</LongitudeDegrees>
            </Position>
            <AltitudeMeters>1356</AltitudeMeters>
            <DistanceMeters>NAN</DistanceMeters>
          </Trackpoint>
          <Trackpoint>
            <Time>2018-12-30T10:05:46.000Z</Time>
            <Position>
              <LatitudeDegrees>40.76683379709720611572265625</LatitudeDegrees>
              <LongitudeDegrees>-4.07227791845798492431640625</LongitudeDegrees>
            </Position>
            <AltitudeMeters>1356.199951171875</AltitudeMeters>
            <DistanceMeters>NAN</DistanceMeters>
          </Trackpoint>
          <Trackpoint>
            <Time>2018-12-30T10:05:47.000Z</Time>
            <Position>
              <LatitudeDegrees>40.76685751788318157196044921875</LatitudeDegrees>
              <LongitudeDegrees>-4.07227062620222568511962890625</LongitudeDegrees>
            </Position>
            <AltitudeMeters>1356.199951171875</AltitudeMeters>
            <DistanceMeters>NAN</DistanceMeters>
          </Trackpoint>
          <Trackpoint>
            <Time>2018-12-30T10:05:48.000Z</Time>
            <Position>
              <LatitudeDegrees>40.76685751788318157196044921875</LatitudeDegrees>
              <LongitudeDegrees>-4.07227062620222568511962890625</LongitudeDegrees>
            </Position>
            <AltitudeMeters>1356.4000244140625</AltitudeMeters>
            <DistanceMeters>NAN</DistanceMeters>
          </Trackpoint>
          <Trackpoint>
            <Time>2018-12-30T10:05:49.000Z</Time>
            <Position>
              <LatitudeDegrees>40.766872353851795196533203125</LatitudeDegrees>
              <LongitudeDegrees>-4.07226224429905414581298828125</LongitudeDegrees>
            </Position>
            <AltitudeMeters>1356.4000244140625</AltitudeMeters>
            <DistanceMeters>NAN</DistanceMeters>
          </Trackpoint>
          <Trackpoint>
            <Time>2018-12-30T10:05:50.000Z</Time>
            <Position>
              <LatitudeDegrees>40.766884423792362213134765625</LatitudeDegrees>
              <LongitudeDegrees>-4.0722593106329441070556640625</LongitudeDegrees>
            </Position>
            <AltitudeMeters>1356.4000244140625</AltitudeMeters>
            <DistanceMeters>NAN</DistanceMeters>
          </Trackpoint>
          <Trackpoint>
            <Time>2018-12-30T10:05:51.000Z</Time>
            <Position>
              <LatitudeDegrees>40.766897164285182952880859375</LatitudeDegrees>
              <LongitudeDegrees>-4.07225721515715122222900390625</LongitudeDegrees>
            </Position>
            <AltitudeMeters>1356.4000244140625</AltitudeMeters>
            <DistanceMeters>NAN</DistanceMeters>
          </Trackpoint>
          <Trackpoint>
            <Time>2018-12-30T10:05:52.000Z</Time>
            <Position>
              <LatitudeDegrees>40.766905881464481353759765625</LatitudeDegrees>
              <LongitudeDegrees>-4.07224866561591625213623046875</LongitudeDegrees>
            </Position>
            <AltitudeMeters>1356.199951171875</AltitudeMeters>
            <DistanceMeters>NAN</DistanceMeters>
          </Trackpoint>
          <Trackpoint>
            <Time>2018-12-30T10:05:53.000Z</Time>
            <Position>
              <LatitudeDegrees>40.766916610300540924072265625</LatitudeDegrees>
              <LongitudeDegrees>-4.07223877497017383575439453125</LongitudeDegrees>
            </Position>
            <AltitudeMeters>1356.199951171875</AltitudeMeters>
            <DistanceMeters>NAN</DistanceMeters>
          </Trackpoint>
          <Trackpoint>
            <Time>2018-12-30T10:05:54.000Z</Time>
            <Position>
              <LatitudeDegrees>40.76692901551723480224609375</LatitudeDegrees>
              <LongitudeDegrees>-4.072231315076351165771484375</LongitudeDegrees>
            </Position>
            <AltitudeMeters>1356</AltitudeMeters>
            <DistanceMeters>NAN</DistanceMeters>
          </Trackpoint>
          <Trackpoint>
            <Time>2018-12-30T10:05:55.000Z</Time>
            <Position>
              <LatitudeDegrees>40.76694452203810214996337890625</LatitudeDegrees>
              <LongitudeDegrees>-4.07222536392509937286376953125</LongitudeDegrees>
            </Position>
            <AltitudeMeters>1356</AltitudeMeters>
            <DistanceMeters>NAN</DistanceMeters>
          </Trackpoint>
          <Trackpoint>
            <Time>2018-12-30T10:05:56.000Z</Time>
            <Position>
              <LatitudeDegrees>40.766956843435764312744140625</LatitudeDegrees>
              <LongitudeDegrees>-4.07221614383161067962646484375</LongitudeDegrees>
            </Position>
            <AltitudeMeters>1356.199951171875</AltitudeMeters>
            <DistanceMeters>NAN</DistanceMeters>
          </Trackpoint>
          <Trackpoint>
            <Time>2018-12-30T10:05:57.000Z</Time>
            <Position>
              <LatitudeDegrees>40.76696648262441158294677734375</LatitudeDegrees>
              <LongitudeDegrees>-4.07220876775681972503662109375</LongitudeDegrees>
            </Position>
            <AltitudeMeters>1356.199951171875</AltitudeMeters>
            <DistanceMeters>NAN</DistanceMeters>
          </Trackpoint>
          <Trackpoint>
            <Time>2018-12-30T10:05:58.000Z</Time>
            <Position>
              <LatitudeDegrees>40.76697838492691516876220703125</LatitudeDegrees>
              <LongitudeDegrees>-4.0722016431391239166259765625</LongitudeDegrees>
            </Position>
            <AltitudeMeters>1356.4000244140625</AltitudeMeters>
            <DistanceMeters>NAN</DistanceMeters>
          </Trackpoint>
          <Trackpoint>
            <Time>2018-12-30T10:05:59.000Z</Time>
            <Position>
              <LatitudeDegrees>40.7669878564774990081787109375</LatitudeDegrees>
              <LongitudeDegrees>-4.07217641361057758331298828125</LongitudeDegrees>
            </Position>
            <AltitudeMeters>1356.4000244140625</AltitudeMeters>
            <DistanceMeters>NAN</DistanceMeters>
          </Trackpoint>
          <Trackpoint>
            <Time>2018-12-30T10:06:00.000Z</Time>
            <Position>
              <LatitudeDegrees>40.7669980823993682861328125</LatitudeDegrees>
              <LongitudeDegrees>-4.072166271507740020751953125</LongitudeDegrees>
            </Position>
            <AltitudeMeters>1356.800048828125</AltitudeMeters>
            <DistanceMeters>NAN</DistanceMeters>
          </Trackpoint>
          <Trackpoint>
            <Time>2018-12-30T10:06:01.000Z</Time>
            <Position>
              <LatitudeDegrees>40.7670114934444427490234375</LatitudeDegrees>
              <LongitudeDegrees>-4.0721614100039005279541015625</LongitudeDegrees>
            </Position>
            <AltitudeMeters>1357.199951171875</AltitudeMeters>
            <DistanceMeters>NAN</DistanceMeters>
          </Trackpoint>
          <Trackpoint>
            <Time>2018-12-30T10:06:02.000Z</Time>
            <Position>
              <LatitudeDegrees>40.767023898661136627197265625</LatitudeDegrees>
              <LongitudeDegrees>-4.07215059734880924224853515625</LongitudeDegrees>
            </Position>
            <AltitudeMeters>1357.4000244140625</AltitudeMeters>
            <DistanceMeters>NAN</DistanceMeters>
          </Trackpoint>
          <Trackpoint>
            <Time>2018-12-30T10:06:03.000Z</Time>
            <Position>
              <LatitudeDegrees>40.7670347951352596282958984375</LatitudeDegrees>
              <LongitudeDegrees>-4.07214514911174774169921875</LongitudeDegrees>
            </Position>
            <AltitudeMeters>1357.5999755859375</AltitudeMeters>
            <DistanceMeters>NAN</DistanceMeters>
          </Trackpoint>
          <Trackpoint>
            <Time>2018-12-30T10:06:04.000Z</Time>
            <Position>
              <LatitudeDegrees>40.767045356333255767822265625</LatitudeDegrees>
              <LongitudeDegrees>-4.072139449417591094970703125</LongitudeDegrees>
            </Position>
            <AltitudeMeters>1357.800048828125</AltitudeMeters>
            <DistanceMeters>NAN</DistanceMeters>
          </Trackpoint>
          <Trackpoint>
            <Time>2018-12-30T10:06:05.000Z</Time>
            <Position>
              <LatitudeDegrees>40.7670552469789981842041015625</LatitudeDegrees>
              <LongitudeDegrees>-4.07213039696216583251953125</LongitudeDegrees>
            </Position>
            <AltitudeMeters>1358</AltitudeMeters>
            <DistanceMeters>NAN</DistanceMeters>
          </Trackpoint>
          <Trackpoint>
            <Time>2018-12-30T10:06:06.000Z</Time>
            <Position>
              <LatitudeDegrees>40.767067484557628631591796875</LatitudeDegrees>
              <LongitudeDegrees>-4.07213031314313411712646484375</LongitudeDegrees>
            </Position>
            <AltitudeMeters>1358</AltitudeMeters>
            <DistanceMeters>NAN</DistanceMeters>
          </Trackpoint>
          <Trackpoint>
            <Time>2018-12-30T10:06:07.000Z</Time>
            <Position>
              <LatitudeDegrees>40.76707829721271991729736328125</LatitudeDegrees>
              <LongitudeDegrees>-4.07212796621024608612060546875</LongitudeDegrees>
            </Position>
            <AltitudeMeters>1358.199951171875</AltitudeMeters>
            <DistanceMeters>NAN</DistanceMeters>
          </Trackpoint>
          <Trackpoint>
            <Time>2018-12-30T10:06:08.000Z</Time>
            <Position>
              <LatitudeDegrees>40.76708399690687656402587890625</LatitudeDegrees>
              <LongitudeDegrees>-4.0721138007938861846923828125</LongitudeDegrees>
            </Position>
            <AltitudeMeters>1358.4000244140625</AltitudeMeters>
            <DistanceMeters>NAN</DistanceMeters>
          </Trackpoint>
          <Trackpoint>
            <Time>2018-12-30T10:06:09.000Z</Time>
            <Position>
              <LatitudeDegrees>40.76709455810487270355224609375</LatitudeDegrees>
              <LongitudeDegrees>-4.07210667617619037628173828125</LongitudeDegrees>
            </Position>
            <AltitudeMeters>1358.5999755859375</AltitudeMeters>
            <DistanceMeters>NAN</DistanceMeters>
          </Trackpoint>
          <Trackpoint>
            <Time>2018-12-30T10:06:10.000Z</Time>
            <Position>
              <LatitudeDegrees>40.76710277236998081207275390625</LatitudeDegrees>
              <LongitudeDegrees>-4.07210483215749263763427734375</LongitudeDegrees>
            </Position>
            <AltitudeMeters>1358.5999755859375</AltitudeMeters>
            <DistanceMeters>NAN</DistanceMeters>
          </Trackpoint>
          <Trackpoint>
            <Time>2018-12-30T10:06:11.000Z</Time>
            <Position>
              <LatitudeDegrees>40.76710595749318599700927734375</LatitudeDegrees>
              <LongitudeDegrees>-4.07210290431976318359375</LongitudeDegrees>
            </Position>
            <AltitudeMeters>1358.800048828125</AltitudeMeters>
            <DistanceMeters>NAN</DistanceMeters>
          </Trackpoint>
          <Trackpoint>
            <Time>2018-12-30T10:06:12.000Z</Time>
            <Position>
              <LatitudeDegrees>40.76711132191121578216552734375</LatitudeDegrees>
              <LongitudeDegrees>-4.0720993839204311370849609375</LongitudeDegrees>
            </Position>
            <AltitudeMeters>1359</AltitudeMeters>
            <DistanceMeters>NAN</DistanceMeters>
          </Trackpoint>
          <Trackpoint>
            <Time>2018-12-30T10:06:13.000Z</Time>
            <Position>
              <LatitudeDegrees>40.76711970381438732147216796875</LatitudeDegrees>
              <LongitudeDegrees>-4.0720963664352893829345703125</LongitudeDegrees>
            </Position>
            <AltitudeMeters>1359.4000244140625</AltitudeMeters>
            <DistanceMeters>NAN</DistanceMeters>
          </Trackpoint>
          <Trackpoint>
            <Time>2018-12-30T10:06:14.000Z</Time>
            <Position>
              <LatitudeDegrees>40.76712674461305141448974609375</LatitudeDegrees>
              <LongitudeDegrees>-4.0720975399017333984375</LongitudeDegrees>
            </Position>
            <AltitudeMeters>1359.5999755859375</AltitudeMeters>
            <DistanceMeters>NAN</DistanceMeters>
          </Trackpoint>
          <Trackpoint>
            <Time>2018-12-30T10:06:15.000Z</Time>
            <Position>
              <LatitudeDegrees>40.76714887283742427825927734375</LatitudeDegrees>
              <LongitudeDegrees>-4.0720879845321178436279296875</LongitudeDegrees>
            </Position>
            <AltitudeMeters>1359.800048828125</AltitudeMeters>
            <DistanceMeters>NAN</DistanceMeters>
          </Trackpoint>
          <Trackpoint>
            <Time>2018-12-30T10:06:16.000Z</Time>
            <Position>
              <LatitudeDegrees>40.7671652175486087799072265625</LatitudeDegrees>
              <LongitudeDegrees>-4.072081781923770904541015625</LongitudeDegrees>
            </Position>
            <AltitudeMeters>1360</AltitudeMeters>
            <DistanceMeters>NAN</DistanceMeters>
          </Trackpoint>
          <Trackpoint>
            <Time>2018-12-30T10:06:17.000Z</Time>
            <Position>
              <LatitudeDegrees>40.76717703603208065032958984375</LatitudeDegrees>
              <LongitudeDegrees>-4.07208035700023174285888671875</LongitudeDegrees>
            </Position>
            <AltitudeMeters>1360.199951171875</AltitudeMeters>
            <DistanceMeters>NAN</DistanceMeters>
          </Trackpoint>
          <Trackpoint>
            <Time>2018-12-30T10:06:18.000Z</Time>
            <Position>
              <LatitudeDegrees>40.767190195620059967041015625</LatitudeDegrees>
              <LongitudeDegrees>-4.072081781923770904541015625</LongitudeDegrees>
            </Position>
            <AltitudeMeters>1360.199951171875</AltitudeMeters>
            <DistanceMeters>NAN</DistanceMeters>
          </Trackpoint>
          <Trackpoint>
            <Time>2018-12-30T10:06:19.000Z</Time>
            <Position>
              <LatitudeDegrees>40.767202936112880706787109375</LatitudeDegrees>
              <LongitudeDegrees>-4.07208220101892948150634765625</LongitudeDegrees>
            </Position>
            <AltitudeMeters>1360.4000244140625</AltitudeMeters>
            <DistanceMeters>NAN</DistanceMeters>
          </Trackpoint>
          <Trackpoint>
            <Time>2018-12-30T10:06:20.000Z</Time>
            <Position>
              <LatitudeDegrees>40.7672124914824962615966796875</LatitudeDegrees>
              <LongitudeDegrees>-4.07208287157118320465087890625</LongitudeDegrees>
            </Position>
            <AltitudeMeters>1360.5999755859375</AltitudeMeters>
            <DistanceMeters>NAN</DistanceMeters>
          </Trackpoint>
          <Trackpoint>
            <Time>2018-12-30T10:06:21.000Z</Time>
            <Position>
              <LatitudeDegrees>40.767226405441761016845703125</LatitudeDegrees>
              <LongitudeDegrees>-4.07207666896283626556396484375</LongitudeDegrees>
            </Position>
            <AltitudeMeters>1360.800048828125</AltitudeMeters>
            <DistanceMeters>NAN</DistanceMeters>
          </Trackpoint>
          <Trackpoint>
            <Time>2018-12-30T10:06:22.000Z</Time>
            <Position>
              <LatitudeDegrees>40.76723420061171054840087890625</LatitudeDegrees>
              <LongitudeDegrees>-4.07206795178353786468505859375</LongitudeDegrees>
            </Position>
            <AltitudeMeters>1361</AltitudeMeters>
            <DistanceMeters>NAN</DistanceMeters>
          </Trackpoint>
          <Trackpoint>
            <Time>2018-12-30T10:06:23.000Z</Time>
            <Position>
              <LatitudeDegrees>40.767243839800357818603515625</LatitudeDegrees>
              <LongitudeDegrees>-4.07205889932811260223388671875</LongitudeDegrees>
            </Position>
            <AltitudeMeters>1361</AltitudeMeters>
            <DistanceMeters>NAN</DistanceMeters>
          </Trackpoint>
          <Trackpoint>
            <Time>2018-12-30T10:06:24.000Z</Time>
            <Position>
              <LatitudeDegrees>40.7672547362744808197021484375</LatitudeDegrees>
              <LongitudeDegrees>-4.07205672003328800201416015625</LongitudeDegrees>
            </Position>
            <AltitudeMeters>1361.199951171875</AltitudeMeters>
            <DistanceMeters>NAN</DistanceMeters>
          </Trackpoint>
          <Trackpoint>
            <Time>2018-12-30T10:06:25.000Z</Time>
            <Position>
              <LatitudeDegrees>40.76726152561604976654052734375</LatitudeDegrees>
              <LongitudeDegrees>-4.0720581449568271636962890625</LongitudeDegrees>
            </Position>
            <AltitudeMeters>1361.199951171875</AltitudeMeters>
            <DistanceMeters>NAN</DistanceMeters>
          </Trackpoint>
          <Trackpoint>
            <Time>2018-12-30T10:06:26.000Z</Time>
            <Position>
              <LatitudeDegrees>40.76726471073925495147705078125</LatitudeDegrees>
              <LongitudeDegrees>-4.072056971490383148193359375</LongitudeDegrees>
            </Position>
            <AltitudeMeters>1361.4000244140625</AltitudeMeters>
            <DistanceMeters>NAN</DistanceMeters>
          </Trackpoint>
          <Trackpoint>
            <Time>2018-12-30T10:06:27.000Z</Time>
            <Position>
              <LatitudeDegrees>40.76727233827114105224609375</LatitudeDegrees>
              <LongitudeDegrees>-4.0720537863671779632568359375</LongitudeDegrees>
            </Position>
            <AltitudeMeters>1361.5999755859375</AltitudeMeters>
            <DistanceMeters>NAN</DistanceMeters>
          </Trackpoint>
          <Trackpoint>
            <Time>2018-12-30T10:06:28.000Z</Time>
            <Position>
              <LatitudeDegrees>40.7672797143459320068359375</LatitudeDegrees>
              <LongitudeDegrees>-4.07204783521592617034912109375</LongitudeDegrees>
            </Position>
            <AltitudeMeters>1362</AltitudeMeters>
            <DistanceMeters>NAN</DistanceMeters>
          </Trackpoint>
          <Trackpoint>
            <Time>2018-12-30T10:06:29.000Z</Time>
            <Position>
              <LatitudeDegrees>40.767290778458118438720703125</LatitudeDegrees>
              <LongitudeDegrees>-4.07203677110373973846435546875</LongitudeDegrees>
            </Position>
            <AltitudeMeters>1362.4000244140625</AltitudeMeters>
            <DistanceMeters>NAN</DistanceMeters>
          </Trackpoint>
          <Trackpoint>
            <Time>2018-12-30T10:06:30.000Z</Time>
            <Position>
              <LatitudeDegrees>40.76730444096028804779052734375</LatitudeDegrees>
              <LongitudeDegrees>-4.07203107140958309173583984375</LongitudeDegrees>
            </Position>
            <AltitudeMeters>1362.5999755859375</AltitudeMeters>
            <DistanceMeters>NAN</DistanceMeters>
          </Trackpoint>
          <Trackpoint>
            <Time>2018-12-30T10:06:31.000Z</Time>
            <Position>
              <LatitudeDegrees>40.767315924167633056640625</LatitudeDegrees>
              <LongitudeDegrees>-4.0720329992473125457763671875</LongitudeDegrees>
            </Position>
            <AltitudeMeters>1362.800048828125</AltitudeMeters>
            <DistanceMeters>NAN</DistanceMeters>
          </Trackpoint>
          <Trackpoint>
            <Time>2018-12-30T10:06:32.000Z</Time>
            <Position>
              <LatitudeDegrees>40.76732556335628032684326171875</LatitudeDegrees>
              <LongitudeDegrees>-4.07203475944697856903076171875</LongitudeDegrees>
            </Position>
            <AltitudeMeters>1363.199951171875</AltitudeMeters>
            <DistanceMeters>NAN</DistanceMeters>
          </Trackpoint>
          <Trackpoint>
            <Time>2018-12-30T10:06:33.000Z</Time>
            <Position>
              <LatitudeDegrees>40.7673358730971813201904296875</LatitudeDegrees>
              <LongitudeDegrees>-4.07203844748437404632568359375</LongitudeDegrees>
            </Position>
            <AltitudeMeters>1363.199951171875</AltitudeMeters>
            <DistanceMeters>NAN</DistanceMeters>
          </Trackpoint>
          <Trackpoint>
            <Time>2018-12-30T10:06:34.000Z</Time>
            <Position>
              <LatitudeDegrees>40.76734752394258975982666015625</LatitudeDegrees>
              <LongitudeDegrees>-4.07205102033913135528564453125</LongitudeDegrees>
            </Position>
            <AltitudeMeters>1363.199951171875</AltitudeMeters>
            <DistanceMeters>NAN</DistanceMeters>
          </Trackpoint>
          <Trackpoint>
            <Time>2018-12-30T10:06:35.000Z</Time>
            <Position>
              <LatitudeDegrees>40.7673569954931735992431640625</LatitudeDegrees>
              <LongitudeDegrees>-4.0720574744045734405517578125</LongitudeDegrees>
            </Position>
            <AltitudeMeters>1363.199951171875</AltitudeMeters>
            <DistanceMeters>NAN</DistanceMeters>
          </Trackpoint>
          <Trackpoint>
            <Time>2018-12-30T10:06:36.000Z</Time>
            <Position>
              <LatitudeDegrees>40.76736629940569400787353515625</LatitudeDegrees>
              <LongitudeDegrees>-4.07206493429839611053466796875</LongitudeDegrees>
            </Position>
            <AltitudeMeters>1363.199951171875</AltitudeMeters>
            <DistanceMeters>NAN</DistanceMeters>
          </Trackpoint>
          <Trackpoint>
            <Time>2018-12-30T10:06:37.000Z</Time>
            <Position>
              <LatitudeDegrees>40.76737551949918270111083984375</LatitudeDegrees>
              <LongitudeDegrees>-4.07206811942160129547119140625</LongitudeDegrees>
            </Position>
            <AltitudeMeters>1363.199951171875</AltitudeMeters>
            <DistanceMeters>NAN</DistanceMeters>
          </Trackpoint>
          <Trackpoint>
            <Time>2018-12-30T10:06:38.000Z</Time>
            <Position>
              <LatitudeDegrees>40.76738691888749599456787109375</LatitudeDegrees>
              <LongitudeDegrees>-4.072070382535457611083984375</LongitudeDegrees>
            </Position>
            <AltitudeMeters>1363.4000244140625</AltitudeMeters>
            <DistanceMeters>NAN</DistanceMeters>
          </Trackpoint>
          <Trackpoint>
            <Time>2018-12-30T10:06:39.000Z</Time>
            <Position>
              <LatitudeDegrees>40.76739546842873096466064453125</LatitudeDegrees>
              <LongitudeDegrees>-4.07207633368670940399169921875</LongitudeDegrees>
            </Position>
            <AltitudeMeters>1363.4000244140625</AltitudeMeters>
            <DistanceMeters>NAN</DistanceMeters>
          </Trackpoint>
          <Trackpoint>
            <Time>2018-12-30T10:06:40.000Z</Time>
            <Position>
              <LatitudeDegrees>40.76740552671253681182861328125</LatitudeDegrees>
              <LongitudeDegrees>-4.07208169810473918914794921875</LongitudeDegrees>
            </Position>
            <AltitudeMeters>1363.800048828125</AltitudeMeters>
            <DistanceMeters>NAN</DistanceMeters>
          </Trackpoint>
          <Trackpoint>
            <Time>2018-12-30T10:06:41.000Z</Time>
            <Position>
              <LatitudeDegrees>40.76741592027246952056884765625</LatitudeDegrees>
              <LongitudeDegrees>-4.07209075056016445159912109375</LongitudeDegrees>
            </Position>
            <AltitudeMeters>1364</AltitudeMeters>
            <DistanceMeters>NAN</DistanceMeters>
          </Trackpoint>
          <Trackpoint>
            <Time>2018-12-30T10:06:42.000Z</Time>
            <Position>
              <LatitudeDegrees>40.7674250565469264984130859375</LatitudeDegrees>
              <LongitudeDegrees>-4.07209150493144989013671875</LongitudeDegrees>
            </Position>
            <AltitudeMeters>1364</AltitudeMeters>
            <DistanceMeters>NAN</DistanceMeters>
          </Trackpoint>
          <Trackpoint>
            <Time>2018-12-30T10:06:43.000Z</Time>
            <Position>
              <LatitudeDegrees>40.7674367912113666534423828125</LatitudeDegrees>
              <LongitudeDegrees>-4.07209376804530620574951171875</LongitudeDegrees>
            </Position>
            <AltitudeMeters>1364.199951171875</AltitudeMeters>
            <DistanceMeters>NAN</DistanceMeters>
          </Trackpoint>
          <Trackpoint>
            <Time>2018-12-30T10:06:44.000Z</Time>
            <Position>
              <LatitudeDegrees>40.76744425110518932342529296875</LatitudeDegrees>
              <LongitudeDegrees>-4.07209812663495540618896484375</LongitudeDegrees>
            </Position>
            <AltitudeMeters>1364.199951171875</AltitudeMeters>
            <DistanceMeters>NAN</DistanceMeters>
          </Trackpoint>
          <Trackpoint>
            <Time>2018-12-30T10:06:45.000Z</Time>
            <Position>
              <LatitudeDegrees>40.7674540579319000244140625</LatitudeDegrees>
              <LongitudeDegrees>-4.07208790071308612823486328125</LongitudeDegrees>
            </Position>
            <AltitudeMeters>1364.199951171875</AltitudeMeters>
            <DistanceMeters>NAN</DistanceMeters>
          </Trackpoint>
          <Trackpoint>
            <Time>2018-12-30T10:06:46.000Z</Time>
            <Position>
              <LatitudeDegrees>40.7674673013389110565185546875</LatitudeDegrees>
              <LongitudeDegrees>-4.07209879718720912933349609375</LongitudeDegrees>
            </Position>
            <AltitudeMeters>1364.199951171875</AltitudeMeters>
            <DistanceMeters>NAN</DistanceMeters>
          </Trackpoint>
          <Trackpoint>
            <Time>2018-12-30T10:06:47.000Z</Time>
            <Position>
              <LatitudeDegrees>40.7674776948988437652587890625</LatitudeDegrees>
              <LongitudeDegrees>-4.07209628261625766754150390625</LongitudeDegrees>
            </Position>
            <AltitudeMeters>1364.4000244140625</AltitudeMeters>
            <DistanceMeters>NAN</DistanceMeters>
          </Trackpoint>
          <Trackpoint>
            <Time>2018-12-30T10:06:48.000Z</Time>
            <Position>
              <LatitudeDegrees>40.76748934574425220489501953125</LatitudeDegrees>
              <LongitudeDegrees>-4.07210064120590686798095703125</LongitudeDegrees>
            </Position>
            <AltitudeMeters>1364.5999755859375</AltitudeMeters>
            <DistanceMeters>NAN</DistanceMeters>
          </Trackpoint>
          <Trackpoint>
            <Time>2018-12-30T10:06:49.000Z</Time>
            <Position>
              <LatitudeDegrees>40.76750175096094608306884765625</LatitudeDegrees>
              <LongitudeDegrees>-4.07210365869104862213134765625</LongitudeDegrees>
            </Position>
            <AltitudeMeters>1364.800048828125</AltitudeMeters>
            <DistanceMeters>NAN</DistanceMeters>
          </Trackpoint>
          <Trackpoint>
            <Time>2018-12-30T10:06:50.000Z</Time>
            <Position>
              <LatitudeDegrees>40.7675095461308956146240234375</LatitudeDegrees>
              <LongitudeDegrees>-4.07210650853812694549560546875</LongitudeDegrees>
            </Position>
            <AltitudeMeters>1365.199951171875</AltitudeMeters>
            <DistanceMeters>NAN</DistanceMeters>
          </Trackpoint>
          <Trackpoint>
            <Time>2018-12-30T10:06:51.000Z</Time>
            <Position>
              <LatitudeDegrees>40.7675159163773059844970703125</LatitudeDegrees>
              <LongitudeDegrees>-4.07210533507168292999267578125</LongitudeDegrees>
            </Position>
            <AltitudeMeters>1365.199951171875</AltitudeMeters>
            <DistanceMeters>NAN</DistanceMeters>
          </Trackpoint>
          <Trackpoint>
            <Time>2018-12-30T10:06:52.000Z</Time>
            <Position>
              <LatitudeDegrees>40.767524801194667816162109375</LatitudeDegrees>
              <LongitudeDegrees>-4.07210491597652435302734375</LongitudeDegrees>
            </Position>
            <AltitudeMeters>1365.4000244140625</AltitudeMeters>
            <DistanceMeters>NAN</DistanceMeters>
          </Trackpoint>
          <Trackpoint>
            <Time>2018-12-30T10:06:53.000Z</Time>
            <Position>
              <LatitudeDegrees>40.7675420679152011871337890625</LatitudeDegrees>
              <LongitudeDegrees>-4.07210533507168292999267578125</LongitudeDegrees>
            </Position>
            <AltitudeMeters>1365.5999755859375</AltitudeMeters>
            <DistanceMeters>NAN</DistanceMeters>
          </Trackpoint>
          <Trackpoint>
            <Time>2018-12-30T10:06:54.000Z</Time>
            <Position>
              <LatitudeDegrees>40.76755221001803874969482421875</LatitudeDegrees>
              <LongitudeDegrees>-4.0721034072339534759521484375</LongitudeDegrees>
            </Position>
            <AltitudeMeters>1365.5999755859375</AltitudeMeters>
            <DistanceMeters>NAN</DistanceMeters>
          </Trackpoint>
          <Trackpoint>
            <Time>2018-12-30T10:06:55.000Z</Time>
            <Position>
              <LatitudeDegrees>40.76756008900701999664306640625</LatitudeDegrees>
              <LongitudeDegrees>-4.072097204625606536865234375</LongitudeDegrees>
            </Position>
            <AltitudeMeters>1365.5999755859375</AltitudeMeters>
            <DistanceMeters>NAN</DistanceMeters>
          </Trackpoint>
          <Trackpoint>
            <Time>2018-12-30T10:06:56.000Z</Time>
            <Position>
              <LatitudeDegrees>40.76757081784307956695556640625</LatitudeDegrees>
              <LongitudeDegrees>-4.07208940945565700531005859375</LongitudeDegrees>
            </Position>
            <AltitudeMeters>1365.800048828125</AltitudeMeters>
            <DistanceMeters>NAN</DistanceMeters>
          </Trackpoint>
          <Trackpoint>
            <Time>2018-12-30T10:06:57.000Z</Time>
            <Position>
              <LatitudeDegrees>40.76758087612688541412353515625</LatitudeDegrees>
              <LongitudeDegrees>-4.07207951880991458892822265625</LongitudeDegrees>
            </Position>
            <AltitudeMeters>1366</AltitudeMeters>
            <DistanceMeters>NAN</DistanceMeters>
          </Trackpoint>
          <Trackpoint>
            <Time>2018-12-30T10:06:58.000Z</Time>
            <Position>
              <LatitudeDegrees>40.76759160496294498443603515625</LatitudeDegrees>
              <LongitudeDegrees>-4.07207532785832881927490234375</LongitudeDegrees>
            </Position>
            <AltitudeMeters>1366</AltitudeMeters>
            <DistanceMeters>NAN</DistanceMeters>
          </Trackpoint>
          <Trackpoint>
            <Time>2018-12-30T10:06:59.000Z</Time>
            <Position>
              <LatitudeDegrees>40.76759948395192623138427734375</LatitudeDegrees>
              <LongitudeDegrees>-4.07207407057285308837890625</LongitudeDegrees>
            </Position>
            <AltitudeMeters>1366.199951171875</AltitudeMeters>
            <DistanceMeters>NAN</DistanceMeters>
          </Trackpoint>
          <Trackpoint>
            <Time>2018-12-30T10:07:00.000Z</Time>
            <Position>
              <LatitudeDegrees>40.76760585419833660125732421875</LatitudeDegrees>
              <LongitudeDegrees>-4.07207516022026538848876953125</LongitudeDegrees>
            </Position>
            <AltitudeMeters>1366.4000244140625</AltitudeMeters>
            <DistanceMeters>NAN</DistanceMeters>
          </Trackpoint>
          <Trackpoint>
            <Time>2018-12-30T10:07:01.000Z</Time>
            <Position>
              <LatitudeDegrees>40.76761507429182529449462890625</LatitudeDegrees>
              <LongitudeDegrees>-4.0720611624419689178466796875</LongitudeDegrees>
            </Position>
            <AltitudeMeters>1366.5999755859375</AltitudeMeters>
            <DistanceMeters>NAN</DistanceMeters>
          </Trackpoint>
          <Trackpoint>
            <Time>2018-12-30T10:07:02.000Z</Time>
            <Position>
              <LatitudeDegrees>40.76762236654758453369140625</LatitudeDegrees>
              <LongitudeDegrees>-4.07206091098487377166748046875</LongitudeDegrees>
            </Position>
            <AltitudeMeters>1366.5999755859375</AltitudeMeters>
            <DistanceMeters>NAN</DistanceMeters>
          </Trackpoint>
          <Trackpoint>
            <Time>2018-12-30T10:07:03.000Z</Time>
            <Position>
              <LatitudeDegrees>40.767630748450756072998046875</LatitudeDegrees>
              <LongitudeDegrees>-4.07206761650741100311279296875</LongitudeDegrees>
            </Position>
            <AltitudeMeters>1366.5999755859375</AltitudeMeters>
            <DistanceMeters>NAN</DistanceMeters>
          </Trackpoint>
          <Trackpoint>
            <Time>2018-12-30T10:07:04.000Z</Time>
            <Position>
              <LatitudeDegrees>40.7676396332681179046630859375</LatitudeDegrees>
              <LongitudeDegrees>-4.072067700326442718505859375</LongitudeDegrees>
            </Position>
            <AltitudeMeters>1366.800048828125</AltitudeMeters>
            <DistanceMeters>NAN</DistanceMeters>
          </Trackpoint>
          <Trackpoint>
            <Time>2018-12-30T10:07:05.000Z</Time>
            <Position>
              <LatitudeDegrees>40.767651535570621490478515625</LatitudeDegrees>
              <LongitudeDegrees>-4.072064347565174102783203125</LongitudeDegrees>
            </Position>
            <AltitudeMeters>1367</AltitudeMeters>
            <DistanceMeters>NAN</DistanceMeters>
          </Trackpoint>
          <Trackpoint>
            <Time>2018-12-30T10:07:06.000Z</Time>
            <Position>
              <LatitudeDegrees>40.76766519807279109954833984375</LatitudeDegrees>
              <LongitudeDegrees>-4.07206602394580841064453125</LongitudeDegrees>
            </Position>
            <AltitudeMeters>1367.199951171875</AltitudeMeters>
            <DistanceMeters>NAN</DistanceMeters>
          </Trackpoint>
          <Trackpoint>
            <Time>2018-12-30T10:07:07.000Z</Time>
            <Position>
              <LatitudeDegrees>40.76767978258430957794189453125</LatitudeDegrees>
              <LongitudeDegrees>-4.07206661067903041839599609375</LongitudeDegrees>
            </Position>
            <AltitudeMeters>1367.199951171875</AltitudeMeters>
            <DistanceMeters>NAN</DistanceMeters>
          </Trackpoint>
          <Trackpoint>
            <Time>2018-12-30T10:07:08.000Z</Time>
            <Position>
              <LatitudeDegrees>40.76769067905843257904052734375</LatitudeDegrees>
              <LongitudeDegrees>-4.07206468284130096435546875</LongitudeDegrees>
            </Position>
            <AltitudeMeters>1367.4000244140625</AltitudeMeters>
            <DistanceMeters>NAN</DistanceMeters>
          </Trackpoint>
          <Trackpoint>
            <Time>2018-12-30T10:07:09.000Z</Time>
            <Position>
              <LatitudeDegrees>40.76770241372287273406982421875</LatitudeDegrees>
              <LongitudeDegrees>-4.07206065952777862548828125</LongitudeDegrees>
            </Position>
            <AltitudeMeters>1367.5999755859375</AltitudeMeters>
            <DistanceMeters>NAN</DistanceMeters>
          </Trackpoint>
          <Trackpoint>
            <Time>2018-12-30T10:07:10.000Z</Time>
            <Position>
              <LatitudeDegrees>40.76771498657763004302978515625</LatitudeDegrees>
              <LongitudeDegrees>-4.072058312594890594482421875</LongitudeDegrees>
            </Position>
            <AltitudeMeters>1367.800048828125</AltitudeMeters>
            <DistanceMeters>NAN</DistanceMeters>
          </Trackpoint>
          <Trackpoint>
            <Time>2018-12-30T10:07:11.000Z</Time>
            <Position>
              <LatitudeDegrees>40.7677222788333892822265625</LatitudeDegrees>
              <LongitudeDegrees>-4.0720494277775287628173828125</LongitudeDegrees>
            </Position>
            <AltitudeMeters>1368</AltitudeMeters>
            <DistanceMeters>NAN</DistanceMeters>
          </Trackpoint>
          <Trackpoint>
            <Time>2018-12-30T10:07:12.000Z</Time>
            <Position>
              <LatitudeDegrees>40.7677301578223705291748046875</LatitudeDegrees>
              <LongitudeDegrees>-4.0720479190349578857421875</LongitudeDegrees>
            </Position>
            <AltitudeMeters>1368.199951171875</AltitudeMeters>
            <DistanceMeters>NAN</DistanceMeters>
          </Trackpoint>
          <Trackpoint>
            <Time>2018-12-30T10:07:13.000Z</Time>
            <Position>
              <LatitudeDegrees>40.767740719020366668701171875</LatitudeDegrees>
              <LongitudeDegrees>-4.07205169089138507843017578125</LongitudeDegrees>
            </Position>
            <AltitudeMeters>1368.5999755859375</AltitudeMeters>
            <DistanceMeters>NAN</DistanceMeters>
          </Trackpoint>
          <Trackpoint>
            <Time>2018-12-30T10:07:14.000Z</Time>
            <Position>
              <LatitudeDegrees>40.76775304041802883148193359375</LatitudeDegrees>
              <LongitudeDegrees>-4.0720534510910511016845703125</LongitudeDegrees>
            </Position>
            <AltitudeMeters>1369</AltitudeMeters>
            <DistanceMeters>NAN</DistanceMeters>
          </Trackpoint>
          <Trackpoint>
            <Time>2018-12-30T10:07:15.000Z</Time>
            <Position>
              <LatitudeDegrees>40.7677625119686126708984375</LatitudeDegrees>
              <LongitudeDegrees>-4.0720521099865436553955078125</LongitudeDegrees>
            </Position>
            <AltitudeMeters>1369.199951171875</AltitudeMeters>
            <DistanceMeters>NAN</DistanceMeters>
          </Trackpoint>
          <Trackpoint>
            <Time>2018-12-30T10:07:16.000Z</Time>
            <Position>
              <LatitudeDegrees>40.76777516864240169525146484375</LatitudeDegrees>
              <LongitudeDegrees>-4.07205261290073394775390625</LongitudeDegrees>
            </Position>
            <AltitudeMeters>1369.4000244140625</AltitudeMeters>
            <DistanceMeters>NAN</DistanceMeters>
          </Trackpoint>
          <Trackpoint>
            <Time>2018-12-30T10:07:17.000Z</Time>
            <Position>
              <LatitudeDegrees>40.76778489165008068084716796875</LatitudeDegrees>
              <LongitudeDegrees>-4.072053618729114532470703125</LongitudeDegrees>
            </Position>
            <AltitudeMeters>1369.5999755859375</AltitudeMeters>
            <DistanceMeters>NAN</DistanceMeters>
          </Trackpoint>
          <Trackpoint>
            <Time>2018-12-30T10:07:18.000Z</Time>
            <Position>
              <LatitudeDegrees>40.7677952013909816741943359375</LatitudeDegrees>
              <LongitudeDegrees>-4.0720470808446407318115234375</LongitudeDegrees>
            </Position>
            <AltitudeMeters>1369.800048828125</AltitudeMeters>
            <DistanceMeters>NAN</DistanceMeters>
          </Trackpoint>
          <Trackpoint>
            <Time>2018-12-30T10:07:19.000Z</Time>
            <Position>
              <LatitudeDegrees>40.7678054273128509521484375</LatitudeDegrees>
              <LongitudeDegrees>-4.0720524452626705169677734375</LongitudeDegrees>
            </Position>
            <AltitudeMeters>1370</AltitudeMeters>
            <DistanceMeters>NAN</DistanceMeters>
          </Trackpoint>
          <Trackpoint>
            <Time>2018-12-30T10:07:20.000Z</Time>
            <Position>
              <LatitudeDegrees>40.767815150320529937744140625</LatitudeDegrees>
              <LongitudeDegrees>-4.0720521099865436553955078125</LongitudeDegrees>
            </Position>
            <AltitudeMeters>1370.199951171875</AltitudeMeters>
            <DistanceMeters>NAN</DistanceMeters>
          </Trackpoint>
          <Trackpoint>
            <Time>2018-12-30T10:07:21.000Z</Time>
            <Position>
              <LatitudeDegrees>40.7678287290036678314208984375</LatitudeDegrees>
              <LongitudeDegrees>-4.07205889932811260223388671875</LongitudeDegrees>
            </Position>
            <AltitudeMeters>1370.199951171875</AltitudeMeters>
            <DistanceMeters>NAN</DistanceMeters>
          </Trackpoint>
          <Trackpoint>
            <Time>2018-12-30T10:07:22.000Z</Time>
            <Position>
              <LatitudeDegrees>40.76784440316259860992431640625</LatitudeDegrees>
              <LongitudeDegrees>-4.072056971490383148193359375</LongitudeDegrees>
            </Position>
            <AltitudeMeters>1370.4000244140625</AltitudeMeters>
            <DistanceMeters>NAN</DistanceMeters>
          </Trackpoint>
          <Trackpoint>
            <Time>2018-12-30T10:07:23.000Z</Time>
            <Position>
              <LatitudeDegrees>40.7678548805415630340576171875</LatitudeDegrees>
              <LongitudeDegrees>-4.07206007279455661773681640625</LongitudeDegrees>
            </Position>
            <AltitudeMeters>1370.4000244140625</AltitudeMeters>
            <DistanceMeters>NAN</DistanceMeters>
          </Trackpoint>
          <Trackpoint>
            <Time>2018-12-30T10:07:24.000Z</Time>
            <Position>
              <LatitudeDegrees>40.7678617537021636962890625</LatitudeDegrees>
              <LongitudeDegrees>-4.0720584802329540252685546875</LongitudeDegrees>
            </Position>
            <AltitudeMeters>1370.5999755859375</AltitudeMeters>
            <DistanceMeters>NAN</DistanceMeters>
          </Trackpoint>
          <Trackpoint>
            <Time>2018-12-30T10:07:25.000Z</Time>
            <Position>
              <LatitudeDegrees>40.767872147262096405029296875</LatitudeDegrees>
              <LongitudeDegrees>-4.07205663621425628662109375</LongitudeDegrees>
            </Position>
            <AltitudeMeters>1370.5999755859375</AltitudeMeters>
            <DistanceMeters>NAN</DistanceMeters>
          </Trackpoint>
          <Trackpoint>
            <Time>2018-12-30T10:07:26.000Z</Time>
            <Position>
              <LatitudeDegrees>40.76788027770817279815673828125</LatitudeDegrees>
              <LongitudeDegrees>-4.0720613300800323486328125</LongitudeDegrees>
            </Position>
            <AltitudeMeters>1370.5999755859375</AltitudeMeters>
            <DistanceMeters>NAN</DistanceMeters>
          </Trackpoint>
          <Trackpoint>
            <Time>2018-12-30T10:07:27.000Z</Time>
            <Position>
              <LatitudeDegrees>40.76788765378296375274658203125</LatitudeDegrees>
              <LongitudeDegrees>-4.07206728123128414154052734375</LongitudeDegrees>
            </Position>
            <AltitudeMeters>1370.800048828125</AltitudeMeters>
            <DistanceMeters>NAN</DistanceMeters>
          </Trackpoint>
          <Trackpoint>
            <Time>2018-12-30T10:07:28.000Z</Time>
            <Position>
              <LatitudeDegrees>40.767911709845066070556640625</LatitudeDegrees>
              <LongitudeDegrees>-4.07208622433245182037353515625</LongitudeDegrees>
            </Position>
            <AltitudeMeters>1371.199951171875</AltitudeMeters>
            <DistanceMeters>NAN</DistanceMeters>
          </Trackpoint>
          <Trackpoint>
            <Time>2018-12-30T10:07:29.000Z</Time>
            <Position>
              <LatitudeDegrees>40.767911709845066070556640625</LatitudeDegrees>
              <LongitudeDegrees>-4.07208622433245182037353515625</LongitudeDegrees>
            </Position>
            <AltitudeMeters>1371.199951171875</AltitudeMeters>
            <DistanceMeters>NAN</DistanceMeters>
          </Trackpoint>
          <Trackpoint>
            <Time>2018-12-30T10:07:30.000Z</Time>
            <Position>
              <LatitudeDegrees>40.76793015003204345703125</LatitudeDegrees>
              <LongitudeDegrees>-4.0720950253307819366455078125</LongitudeDegrees>
            </Position>
            <AltitudeMeters>1371.4000244140625</AltitudeMeters>
            <DistanceMeters>NAN</DistanceMeters>
          </Trackpoint>
          <Trackpoint>
            <Time>2018-12-30T10:07:31.000Z</Time>
            <Position>
              <LatitudeDegrees>40.76794850639998912811279296875</LatitudeDegrees>
              <LongitudeDegrees>-4.072108604013919830322265625</LongitudeDegrees>
            </Position>
            <AltitudeMeters>1371.4000244140625</AltitudeMeters>
            <DistanceMeters>NAN</DistanceMeters>
          </Trackpoint>
          <Trackpoint>
            <Time>2018-12-30T10:07:32.000Z</Time>
            <Position>
              <LatitudeDegrees>40.7679628394544124603271484375</LatitudeDegrees>
              <LongitudeDegrees>-4.07212377525866031646728515625</LongitudeDegrees>
            </Position>
            <AltitudeMeters>1371.5999755859375</AltitudeMeters>
            <DistanceMeters>NAN</DistanceMeters>
          </Trackpoint>
          <Trackpoint>
            <Time>2018-12-30T10:07:33.000Z</Time>
            <Position>
              <LatitudeDegrees>40.76797398738563060760498046875</LatitudeDegrees>
              <LongitudeDegrees>-4.07213701866567134857177734375</LongitudeDegrees>
            </Position>
            <AltitudeMeters>1371.800048828125</AltitudeMeters>
            <DistanceMeters>NAN</DistanceMeters>
          </Trackpoint>
          <Trackpoint>
            <Time>2018-12-30T10:07:34.000Z</Time>
            <Position>
              <LatitudeDegrees>40.76798044145107269287109375</LatitudeDegrees>
              <LongitudeDegrees>-4.0721444785594940185546875</LongitudeDegrees>
            </Position>
            <AltitudeMeters>1372.199951171875</AltitudeMeters>
            <DistanceMeters>NAN</DistanceMeters>
          </Trackpoint>
          <Trackpoint>
            <Time>2018-12-30T10:07:35.000Z</Time>
            <Position>
              <LatitudeDegrees>40.76798907481133937835693359375</LatitudeDegrees>
              <LongitudeDegrees>-4.07214137725532054901123046875</LongitudeDegrees>
            </Position>
            <AltitudeMeters>1372.4000244140625</AltitudeMeters>
            <DistanceMeters>NAN</DistanceMeters>
          </Trackpoint>
          <Trackpoint>
            <Time>2018-12-30T10:07:36.000Z</Time>
            <Position>
              <LatitudeDegrees>40.76799896545708179473876953125</LatitudeDegrees>
              <LongitudeDegrees>-4.0721444785594940185546875</LongitudeDegrees>
            </Position>
            <AltitudeMeters>1372.5999755859375</AltitudeMeters>
            <DistanceMeters>NAN</DistanceMeters>
          </Trackpoint>
          <Trackpoint>
            <Time>2018-12-30T10:07:37.000Z</Time>
            <Position>
              <LatitudeDegrees>40.76800650916993618011474609375</LatitudeDegrees>
              <LongitudeDegrees>-4.07215177081525325775146484375</LongitudeDegrees>
            </Position>
            <AltitudeMeters>1372.800048828125</AltitudeMeters>
            <DistanceMeters>NAN</DistanceMeters>
          </Trackpoint>
          <Trackpoint>
            <Time>2018-12-30T10:07:38.000Z</Time>
            <Position>
              <LatitudeDegrees>40.76801799237728118896484375</LatitudeDegrees>
              <LongitudeDegrees>-4.072153531014919281005859375</LongitudeDegrees>
            </Position>
            <AltitudeMeters>1372.800048828125</AltitudeMeters>
            <DistanceMeters>NAN</DistanceMeters>
          </Trackpoint>
          <Trackpoint>
            <Time>2018-12-30T10:07:39.000Z</Time>
            <Position>
              <LatitudeDegrees>40.7680292241275310516357421875</LatitudeDegrees>
              <LongitudeDegrees>-4.07215763814747333526611328125</LongitudeDegrees>
            </Position>
            <AltitudeMeters>1372.800048828125</AltitudeMeters>
            <DistanceMeters>NAN</DistanceMeters>
          </Trackpoint>
          <Trackpoint>
            <Time>2018-12-30T10:07:40.000Z</Time>
            <Position>
              <LatitudeDegrees>40.7680345885455608367919921875</LatitudeDegrees>
              <LongitudeDegrees>-4.0721604041755199432373046875</LongitudeDegrees>
            </Position>
            <AltitudeMeters>1372.800048828125</AltitudeMeters>
            <DistanceMeters>NAN</DistanceMeters>
          </Trackpoint>
          <Trackpoint>
            <Time>2018-12-30T10:07:41.000Z</Time>
            <Position>
              <LatitudeDegrees>40.76803735457360744476318359375</LatitudeDegrees>
              <LongitudeDegrees>-4.07216317020356655120849609375</LongitudeDegrees>
            </Position>
            <AltitudeMeters>1372.800048828125</AltitudeMeters>
            <DistanceMeters>NAN</DistanceMeters>
          </Trackpoint>
          <Trackpoint>
            <Time>2018-12-30T10:07:42.000Z</Time>
            <Position>
              <LatitudeDegrees>40.76804439537227153778076171875</LatitudeDegrees>
              <LongitudeDegrees>-4.07216367311775684356689453125</LongitudeDegrees>
            </Position>
            <AltitudeMeters>1372.800048828125</AltitudeMeters>
            <DistanceMeters>NAN</DistanceMeters>
          </Trackpoint>
          <Trackpoint>
            <Time>2018-12-30T10:07:43.000Z</Time>
            <Position>
              <LatitudeDegrees>40.76805151998996734619140625</LatitudeDegrees>
              <LongitudeDegrees>-4.072154872119426727294921875</LongitudeDegrees>
            </Position>
            <AltitudeMeters>1372.800048828125</AltitudeMeters>
            <DistanceMeters>NAN</DistanceMeters>
          </Trackpoint>
          <Trackpoint>
            <Time>2018-12-30T10:07:44.000Z</Time>
            <Position>
              <LatitudeDegrees>40.76805596239864826202392578125</LatitudeDegrees>
              <LongitudeDegrees>-4.0721476636826992034912109375</LongitudeDegrees>
            </Position>
            <AltitudeMeters>1372.800048828125</AltitudeMeters>
            <DistanceMeters>NAN</DistanceMeters>
          </Trackpoint>
          <Trackpoint>
            <Time>2018-12-30T10:07:45.000Z</Time>
            <Position>
              <LatitudeDegrees>40.768062584102153778076171875</LatitudeDegrees>
              <LongitudeDegrees>-4.07214112579822540283203125</LongitudeDegrees>
            </Position>
            <AltitudeMeters>1372.800048828125</AltitudeMeters>
            <DistanceMeters>NAN</DistanceMeters>
          </Trackpoint>
          <Trackpoint>
            <Time>2018-12-30T10:07:46.000Z</Time>
            <Position>
              <LatitudeDegrees>40.76807306148111820220947265625</LatitudeDegrees>
              <LongitudeDegrees>-4.0721376053988933563232421875</LongitudeDegrees>
            </Position>
            <AltitudeMeters>1372.800048828125</AltitudeMeters>
            <DistanceMeters>NAN</DistanceMeters>
          </Trackpoint>
          <Trackpoint>
            <Time>2018-12-30T10:07:47.000Z</Time>
            <Position>
              <LatitudeDegrees>40.76808395795524120330810546875</LatitudeDegrees>
              <LongitudeDegrees>-4.07213601283729076385498046875</LongitudeDegrees>
            </Position>
            <AltitudeMeters>1372.800048828125</AltitudeMeters>
            <DistanceMeters>NAN</DistanceMeters>
          </Trackpoint>
          <Trackpoint>
            <Time>2018-12-30T10:07:48.000Z</Time>
            <Position>
              <LatitudeDegrees>40.76809250749647617340087890625</LatitudeDegrees>
              <LongitudeDegrees>-4.07212729565799236297607421875</LongitudeDegrees>
            </Position>
            <AltitudeMeters>1372.800048828125</AltitudeMeters>
            <DistanceMeters>NAN</DistanceMeters>
          </Trackpoint>
          <Trackpoint>
            <Time>2018-12-30T10:07:49.000Z</Time>
            <Position>
              <LatitudeDegrees>40.76810122467577457427978515625</LatitudeDegrees>
              <LongitudeDegrees>-4.072115980088710784912109375</LongitudeDegrees>
            </Position>
            <AltitudeMeters>1373</AltitudeMeters>
            <DistanceMeters>NAN</DistanceMeters>
          </Trackpoint>
          <Trackpoint>
            <Time>2018-12-30T10:07:50.000Z</Time>
            <Position>
              <LatitudeDegrees>40.768112875521183013916015625</LatitudeDegrees>
              <LongitudeDegrees>-4.07211304642260074615478515625</LongitudeDegrees>
            </Position>
            <AltitudeMeters>1373</AltitudeMeters>
            <DistanceMeters>NAN</DistanceMeters>
          </Trackpoint>
          <Trackpoint>
            <Time>2018-12-30T10:07:51.000Z</Time>
            <Position>
              <LatitudeDegrees>40.76812033541500568389892578125</LatitudeDegrees>
              <LongitudeDegrees>-4.0720950253307819366455078125</LongitudeDegrees>
            </Position>
            <AltitudeMeters>1373.199951171875</AltitudeMeters>
            <DistanceMeters>NAN</DistanceMeters>
          </Trackpoint>
          <Trackpoint>
            <Time>2018-12-30T10:07:52.000Z</Time>
            <Position>
              <LatitudeDegrees>40.76812662184238433837890625</LatitudeDegrees>
              <LongitudeDegrees>-4.0720792673528194427490234375</LongitudeDegrees>
            </Position>
            <AltitudeMeters>1373.199951171875</AltitudeMeters>
            <DistanceMeters>NAN</DistanceMeters>
          </Trackpoint>
          <Trackpoint>
            <Time>2018-12-30T10:07:53.000Z</Time>
            <Position>
              <LatitudeDegrees>40.76813240535557270050048828125</LatitudeDegrees>
              <LongitudeDegrees>-4.07206744886934757232666015625</LongitudeDegrees>
            </Position>
            <AltitudeMeters>1373.4000244140625</AltitudeMeters>
            <DistanceMeters>NAN</DistanceMeters>
          </Trackpoint>
          <Trackpoint>
            <Time>2018-12-30T10:07:54.000Z</Time>
            <Position>
              <LatitudeDegrees>40.7681391946971416473388671875</LatitudeDegrees>
              <LongitudeDegrees>-4.072065688669681549072265625</LongitudeDegrees>
            </Position>
            <AltitudeMeters>1373.5999755859375</AltitudeMeters>
            <DistanceMeters>NAN</DistanceMeters>
          </Trackpoint>
          <Trackpoint>
            <Time>2018-12-30T10:07:55.000Z</Time>
            <Position>
              <LatitudeDegrees>40.76814631931483745574951171875</LatitudeDegrees>
              <LongitudeDegrees>-4.07206728123128414154052734375</LongitudeDegrees>
            </Position>
            <AltitudeMeters>1373.800048828125</AltitudeMeters>
            <DistanceMeters>NAN</DistanceMeters>
          </Trackpoint>
          <Trackpoint>
            <Time>2018-12-30T10:07:56.000Z</Time>
            <Position>
              <LatitudeDegrees>40.76815587468445301055908203125</LatitudeDegrees>
              <LongitudeDegrees>-4.07206543721258640289306640625</LongitudeDegrees>
            </Position>
            <AltitudeMeters>1374</AltitudeMeters>
            <DistanceMeters>NAN</DistanceMeters>
          </Trackpoint>
          <Trackpoint>
            <Time>2018-12-30T10:07:57.000Z</Time>
            <Position>
              <LatitudeDegrees>40.7681621611118316650390625</LatitudeDegrees>
              <LongitudeDegrees>-4.07207029871642589569091796875</LongitudeDegrees>
            </Position>
            <AltitudeMeters>1374</AltitudeMeters>
            <DistanceMeters>NAN</DistanceMeters>
          </Trackpoint>
          <Trackpoint>
            <Time>2018-12-30T10:07:58.000Z</Time>
            <Position>
              <LatitudeDegrees>40.7681703753769397735595703125</LatitudeDegrees>
              <LongitudeDegrees>-4.0720671974122524261474609375</LongitudeDegrees>
            </Position>
            <AltitudeMeters>1374.199951171875</AltitudeMeters>
            <DistanceMeters>NAN</DistanceMeters>
          </Trackpoint>
          <Trackpoint>
            <Time>2018-12-30T10:07:59.000Z</Time>
            <Position>
              <LatitudeDegrees>40.76817699708044528961181640625</LatitudeDegrees>
              <LongitudeDegrees>-4.07206342555582523345947265625</LongitudeDegrees>
            </Position>
            <AltitudeMeters>1374.199951171875</AltitudeMeters>
            <DistanceMeters>NAN</DistanceMeters>
          </Trackpoint>
          <Trackpoint>
            <Time>2018-12-30T10:08:00.000Z</Time>
            <Position>
              <LatitudeDegrees>40.76818856410682201385498046875</LatitudeDegrees>
              <LongitudeDegrees>-4.0720601566135883331298828125</LongitudeDegrees>
            </Position>
            <AltitudeMeters>1374.199951171875</AltitudeMeters>
            <DistanceMeters>NAN</DistanceMeters>
          </Trackpoint>
          <Trackpoint>
            <Time>2018-12-30T10:08:01.000Z</Time>
            <Position>
              <LatitudeDegrees>40.76820180751383304595947265625</LatitudeDegrees>
              <LongitudeDegrees>-4.0720635093748569488525390625</LongitudeDegrees>
            </Position>
            <AltitudeMeters>1374.4000244140625</AltitudeMeters>
            <DistanceMeters>NAN</DistanceMeters>
          </Trackpoint>
          <Trackpoint>
            <Time>2018-12-30T10:08:02.000Z</Time>
            <Position>
              <LatitudeDegrees>40.768211781978607177734375</LatitudeDegrees>
              <LongitudeDegrees>-4.072065018117427825927734375</LongitudeDegrees>
            </Position>
            <AltitudeMeters>1374.4000244140625</AltitudeMeters>
            <DistanceMeters>NAN</DistanceMeters>
          </Trackpoint>
          <Trackpoint>
            <Time>2018-12-30T10:08:03.000Z</Time>
            <Position>
              <LatitudeDegrees>40.76822393573820590972900390625</LatitudeDegrees>
              <LongitudeDegrees>-4.07206208445131778717041015625</LongitudeDegrees>
            </Position>
            <AltitudeMeters>1374.800048828125</AltitudeMeters>
            <DistanceMeters>NAN</DistanceMeters>
          </Trackpoint>
          <Trackpoint>
            <Time>2018-12-30T10:08:04.000Z</Time>
            <Position>
              <LatitudeDegrees>40.76823365874588489532470703125</LatitudeDegrees>
              <LongitudeDegrees>-4.07206912524998188018798828125</LongitudeDegrees>
            </Position>
            <AltitudeMeters>1375</AltitudeMeters>
            <DistanceMeters>NAN</DistanceMeters>
          </Trackpoint>
          <Trackpoint>
            <Time>2018-12-30T10:08:05.000Z</Time>
            <Position>
              <LatitudeDegrees>40.7682451419532299041748046875</LatitudeDegrees>
              <LongitudeDegrees>-4.0720712207257747650146484375</LongitudeDegrees>
            </Position>
            <AltitudeMeters>1375.4000244140625</AltitudeMeters>
            <DistanceMeters>NAN</DistanceMeters>
          </Trackpoint>
          <Trackpoint>
            <Time>2018-12-30T10:08:06.000Z</Time>
            <Position>
              <LatitudeDegrees>40.76825679279863834381103515625</LatitudeDegrees>
              <LongitudeDegrees>-4.07207951880991458892822265625</LongitudeDegrees>
            </Position>
            <AltitudeMeters>1375.5999755859375</AltitudeMeters>
            <DistanceMeters>NAN</DistanceMeters>
          </Trackpoint>
          <Trackpoint>
            <Time>2018-12-30T10:08:07.000Z</Time>
            <Position>
              <LatitudeDegrees>40.7682699523866176605224609375</LatitudeDegrees>
              <LongitudeDegrees>-4.072081111371517181396484375</LongitudeDegrees>
            </Position>
            <AltitudeMeters>1375.5999755859375</AltitudeMeters>
            <DistanceMeters>NAN</DistanceMeters>
          </Trackpoint>
          <Trackpoint>
            <Time>2018-12-30T10:08:08.000Z</Time>
            <Position>
              <LatitudeDegrees>40.76828210614621639251708984375</LatitudeDegrees>
              <LongitudeDegrees>-4.0720801055431365966796875</LongitudeDegrees>
            </Position>
            <AltitudeMeters>1375.800048828125</AltitudeMeters>
            <DistanceMeters>NAN</DistanceMeters>
          </Trackpoint>
          <Trackpoint>
            <Time>2018-12-30T10:08:09.000Z</Time>
            <Position>
              <LatitudeDegrees>40.768292583525180816650390625</LatitudeDegrees>
              <LongitudeDegrees>-4.07207281328737735748291015625</LongitudeDegrees>
            </Position>
            <AltitudeMeters>1376</AltitudeMeters>
            <DistanceMeters>NAN</DistanceMeters>
          </Trackpoint>
          <Trackpoint>
            <Time>2018-12-30T10:08:10.000Z</Time>
            <Position>
              <LatitudeDegrees>40.76830155216157436370849609375</LatitudeDegrees>
              <LongitudeDegrees>-4.07207247801125049591064453125</LongitudeDegrees>
            </Position>
            <AltitudeMeters>1376</AltitudeMeters>
            <DistanceMeters>NAN</DistanceMeters>
          </Trackpoint>
          <Trackpoint>
            <Time>2018-12-30T10:08:11.000Z</Time>
            <Position>
              <LatitudeDegrees>40.76831194572150707244873046875</LatitudeDegrees>
              <LongitudeDegrees>-4.07207365147769451141357421875</LongitudeDegrees>
            </Position>
            <AltitudeMeters>1376</AltitudeMeters>
            <DistanceMeters>NAN</DistanceMeters>
          </Trackpoint>
          <Trackpoint>
            <Time>2018-12-30T10:08:12.000Z</Time>
            <Position>
              <LatitudeDegrees>40.7683252729475498199462890625</LatitudeDegrees>
              <LongitudeDegrees>-4.07208035700023174285888671875</LongitudeDegrees>
            </Position>
            <AltitudeMeters>1376</AltitudeMeters>
            <DistanceMeters>NAN</DistanceMeters>
          </Trackpoint>
          <Trackpoint>
            <Time>2018-12-30T10:08:13.000Z</Time>
            <Position>
              <LatitudeDegrees>40.768338851630687713623046875</LatitudeDegrees>
              <LongitudeDegrees>-4.07209686934947967529296875</LongitudeDegrees>
            </Position>
            <AltitudeMeters>1376</AltitudeMeters>
            <DistanceMeters>NAN</DistanceMeters>
          </Trackpoint>
          <Trackpoint>
            <Time>2018-12-30T10:08:14.000Z</Time>
            <Position>
              <LatitudeDegrees>40.7683497481048107147216796875</LatitudeDegrees>
              <LongitudeDegrees>-4.07210298813879489898681640625</LongitudeDegrees>
            </Position>
            <AltitudeMeters>1376.199951171875</AltitudeMeters>
            <DistanceMeters>NAN</DistanceMeters>
          </Trackpoint>
          <Trackpoint>
            <Time>2018-12-30T10:08:15.000Z</Time>
            <Position>
              <LatitudeDegrees>40.76836257241666316986083984375</LatitudeDegrees>
              <LongitudeDegrees>-4.07210759818553924560546875</LongitudeDegrees>
            </Position>
            <AltitudeMeters>1376.4000244140625</AltitudeMeters>
            <DistanceMeters>NAN</DistanceMeters>
          </Trackpoint>
          <Trackpoint>
            <Time>2018-12-30T10:08:16.000Z</Time>
            <Position>
              <LatitudeDegrees>40.76838009059429168701171875</LatitudeDegrees>
              <LongitudeDegrees>-4.0721104480326175689697265625</LongitudeDegrees>
            </Position>
            <AltitudeMeters>1376.800048828125</AltitudeMeters>
            <DistanceMeters>NAN</DistanceMeters>
          </Trackpoint>
          <Trackpoint>
            <Time>2018-12-30T10:08:17.000Z</Time>
            <Position>
              <LatitudeDegrees>40.76839140616357326507568359375</LatitudeDegrees>
              <LongitudeDegrees>-4.07211740501224994659423828125</LongitudeDegrees>
            </Position>
            <AltitudeMeters>1377</AltitudeMeters>
            <DistanceMeters>NAN</DistanceMeters>
          </Trackpoint>
          <Trackpoint>
            <Time>2018-12-30T10:08:18.000Z</Time>
            <Position>
              <LatitudeDegrees>40.76839660294353961944580078125</LatitudeDegrees>
              <LongitudeDegrees>-4.072124697268009185791015625</LongitudeDegrees>
            </Position>
            <AltitudeMeters>1377</AltitudeMeters>
            <DistanceMeters>NAN</DistanceMeters>
          </Trackpoint>
          <Trackpoint>
            <Time>2018-12-30T10:08:19.000Z</Time>
            <Position>
              <LatitudeDegrees>40.7684047333896160125732421875</LatitudeDegrees>
              <LongitudeDegrees>-4.07212595455348491668701171875</LongitudeDegrees>
            </Position>
            <AltitudeMeters>1377.199951171875</AltitudeMeters>
            <DistanceMeters>NAN</DistanceMeters>
          </Trackpoint>
          <Trackpoint>
            <Time>2018-12-30T10:08:20.000Z</Time>
            <Position>
              <LatitudeDegrees>40.76840850524604320526123046875</LatitudeDegrees>
              <LongitudeDegrees>-4.07212100923061370849609375</LongitudeDegrees>
            </Position>
            <AltitudeMeters>1377.4000244140625</AltitudeMeters>
            <DistanceMeters>NAN</DistanceMeters>
          </Trackpoint>
          <Trackpoint>
            <Time>2018-12-30T10:08:21.000Z</Time>
            <Position>
              <LatitudeDegrees>40.7684094272553920745849609375</LatitudeDegrees>
              <LongitudeDegrees>-4.07211857847869396209716796875</LongitudeDegrees>
            </Position>
            <AltitudeMeters>1377.5999755859375</AltitudeMeters>
            <DistanceMeters>NAN</DistanceMeters>
          </Trackpoint>
          <Trackpoint>
            <Time>2018-12-30T10:08:22.000Z</Time>
            <Position>
              <LatitudeDegrees>40.76841630041599273681640625</LatitudeDegrees>
              <LongitudeDegrees>-4.07211053185164928436279296875</LongitudeDegrees>
            </Position>
            <AltitudeMeters>1377.800048828125</AltitudeMeters>
            <DistanceMeters>NAN</DistanceMeters>
          </Trackpoint>
          <Trackpoint>
            <Time>2018-12-30T10:08:23.000Z</Time>
            <Position>
              <LatitudeDegrees>40.768427364528179168701171875</LatitudeDegrees>
              <LongitudeDegrees>-4.0721070952713489532470703125</LongitudeDegrees>
            </Position>
            <AltitudeMeters>1377.800048828125</AltitudeMeters>
            <DistanceMeters>NAN</DistanceMeters>
          </Trackpoint>
          <Trackpoint>
            <Time>2018-12-30T10:08:24.000Z</Time>
            <Position>
              <LatitudeDegrees>40.76843775808811187744140625</LatitudeDegrees>
              <LongitudeDegrees>-4.0720987133681774139404296875</LongitudeDegrees>
            </Position>
            <AltitudeMeters>1378</AltitudeMeters>
            <DistanceMeters>NAN</DistanceMeters>
          </Trackpoint>
          <Trackpoint>
            <Time>2018-12-30T10:08:25.000Z</Time>
            <Position>
              <LatitudeDegrees>40.76844689436256885528564453125</LatitudeDegrees>
              <LongitudeDegrees>-4.0720943547785282135009765625</LongitudeDegrees>
            </Position>
            <AltitudeMeters>1378</AltitudeMeters>
            <DistanceMeters>NAN</DistanceMeters>
          </Trackpoint>
          <Trackpoint>
            <Time>2018-12-30T10:08:26.000Z</Time>
            <Position>
              <LatitudeDegrees>40.7684550248086452484130859375</LatitudeDegrees>
              <LongitudeDegrees>-4.07208748161792755126953125</LongitudeDegrees>
            </Position>
            <AltitudeMeters>1378.199951171875</AltitudeMeters>
            <DistanceMeters>NAN</DistanceMeters>
          </Trackpoint>
          <Trackpoint>
            <Time>2018-12-30T10:08:27.000Z</Time>
            <Position>
              <LatitudeDegrees>40.76846231706440448760986328125</LatitudeDegrees>
              <LongitudeDegrees>-4.0720752440392971038818359375</LongitudeDegrees>
            </Position>
            <AltitudeMeters>1378.199951171875</AltitudeMeters>
            <DistanceMeters>NAN</DistanceMeters>
          </Trackpoint>
          <Trackpoint>
            <Time>2018-12-30T10:08:28.000Z</Time>
            <Position>
              <LatitudeDegrees>40.7684697769582271575927734375</LatitudeDegrees>
              <LongitudeDegrees>-4.072062335908412933349609375</LongitudeDegrees>
            </Position>
            <AltitudeMeters>1378.4000244140625</AltitudeMeters>
            <DistanceMeters>NAN</DistanceMeters>
          </Trackpoint>
          <Trackpoint>
            <Time>2018-12-30T10:08:29.000Z</Time>
            <Position>
              <LatitudeDegrees>40.76848126016557216644287109375</LatitudeDegrees>
              <LongitudeDegrees>-4.07206325791776180267333984375</LongitudeDegrees>
            </Position>
            <AltitudeMeters>1378.5999755859375</AltitudeMeters>
            <DistanceMeters>NAN</DistanceMeters>
          </Trackpoint>
          <Trackpoint>
            <Time>2018-12-30T10:08:30.000Z</Time>
            <Position>
              <LatitudeDegrees>40.76849165372550487518310546875</LatitudeDegrees>
              <LongitudeDegrees>-4.0720631740987300872802734375</LongitudeDegrees>
            </Position>
            <AltitudeMeters>1378.800048828125</AltitudeMeters>
            <DistanceMeters>NAN</DistanceMeters>
          </Trackpoint>
          <Trackpoint>
            <Time>2018-12-30T10:08:31.000Z</Time>
            <Position>
              <LatitudeDegrees>40.76850372366607189178466796875</LatitudeDegrees>
              <LongitudeDegrees>-4.072065018117427825927734375</LongitudeDegrees>
            </Position>
            <AltitudeMeters>1378.800048828125</AltitudeMeters>
            <DistanceMeters>NAN</DistanceMeters>
          </Trackpoint>
          <Trackpoint>
            <Time>2018-12-30T10:08:32.000Z</Time>
            <Position>
              <LatitudeDegrees>40.76851210556924343109130859375</LatitudeDegrees>
              <LongitudeDegrees>-4.0720554627478122711181640625</LongitudeDegrees>
            </Position>
            <AltitudeMeters>1379</AltitudeMeters>
            <DistanceMeters>NAN</DistanceMeters>
          </Trackpoint>
          <Trackpoint>
            <Time>2018-12-30T10:08:33.000Z</Time>
            <Position>
              <LatitudeDegrees>40.76852492988109588623046875</LatitudeDegrees>
              <LongitudeDegrees>-4.0720537863671779632568359375</LongitudeDegrees>
            </Position>
            <AltitudeMeters>1379.199951171875</AltitudeMeters>
            <DistanceMeters>NAN</DistanceMeters>
          </Trackpoint>
          <Trackpoint>
            <Time>2018-12-30T10:08:34.000Z</Time>
            <Position>
              <LatitudeDegrees>40.76853339560329914093017578125</LatitudeDegrees>
              <LongitudeDegrees>-4.07204582355916500091552734375</LongitudeDegrees>
            </Position>
            <AltitudeMeters>1379.4000244140625</AltitudeMeters>
            <DistanceMeters>NAN</DistanceMeters>
          </Trackpoint>
          <Trackpoint>
            <Time>2018-12-30T10:08:35.000Z</Time>
            <Position>
              <LatitudeDegrees>40.7685428671538829803466796875</LatitudeDegrees>
              <LongitudeDegrees>-4.07204833813011646270751953125</LongitudeDegrees>
            </Position>
            <AltitudeMeters>1379.5999755859375</AltitudeMeters>
            <DistanceMeters>NAN</DistanceMeters>
          </Trackpoint>
          <Trackpoint>
            <Time>2018-12-30T10:08:36.000Z</Time>
            <Position>
              <LatitudeDegrees>40.76855166815221309661865234375</LatitudeDegrees>
              <LongitudeDegrees>-4.072053618729114532470703125</LongitudeDegrees>
            </Position>
            <AltitudeMeters>1379.800048828125</AltitudeMeters>
            <DistanceMeters>NAN</DistanceMeters>
          </Trackpoint>
          <Trackpoint>
            <Time>2018-12-30T10:08:37.000Z</Time>
            <Position>
              <LatitudeDegrees>40.7685649953782558441162109375</LatitudeDegrees>
              <LongitudeDegrees>-4.07205931842327117919921875</LongitudeDegrees>
            </Position>
            <AltitudeMeters>1380</AltitudeMeters>
            <DistanceMeters>NAN</DistanceMeters>
          </Trackpoint>
          <Trackpoint>
            <Time>2018-12-30T10:08:38.000Z</Time>
            <Position>
              <LatitudeDegrees>40.76857631094753742218017578125</LatitudeDegrees>
              <LongitudeDegrees>-4.07205102033913135528564453125</LongitudeDegrees>
            </Position>
            <AltitudeMeters>1380.199951171875</AltitudeMeters>
            <DistanceMeters>NAN</DistanceMeters>
          </Trackpoint>
          <Trackpoint>
            <Time>2018-12-30T10:08:39.000Z</Time>
            <Position>
              <LatitudeDegrees>40.76859056018292903900146484375</LatitudeDegrees>
              <LongitudeDegrees>-4.07204783521592617034912109375</LongitudeDegrees>
            </Position>
            <AltitudeMeters>1380.4000244140625</AltitudeMeters>
            <DistanceMeters>NAN</DistanceMeters>
          </Trackpoint>
          <Trackpoint>
            <Time>2018-12-30T10:08:40.000Z</Time>
            <Position>
              <LatitudeDegrees>40.76860246248543262481689453125</LatitudeDegrees>
              <LongitudeDegrees>-4.072044901549816131591796875</LongitudeDegrees>
            </Position>
            <AltitudeMeters>1380.5999755859375</AltitudeMeters>
            <DistanceMeters>NAN</DistanceMeters>
          </Trackpoint>
          <Trackpoint>
            <Time>2018-12-30T10:08:41.000Z</Time>
            <Position>
              <LatitudeDegrees>40.768614448606967926025390625</LatitudeDegrees>
              <LongitudeDegrees>-4.07204590737819671630859375</LongitudeDegrees>
            </Position>
            <AltitudeMeters>1381</AltitudeMeters>
            <DistanceMeters>NAN</DistanceMeters>
          </Trackpoint>
          <Trackpoint>
            <Time>2018-12-30T10:08:42.000Z</Time>
            <Position>
              <LatitudeDegrees>40.76862861402332782745361328125</LatitudeDegrees>
              <LongitudeDegrees>-4.07206376083195209503173828125</LongitudeDegrees>
            </Position>
            <AltitudeMeters>1381</AltitudeMeters>
            <DistanceMeters>NAN</DistanceMeters>
          </Trackpoint>
          <Trackpoint>
            <Time>2018-12-30T10:08:43.000Z</Time>
            <Position>
              <LatitudeDegrees>40.76863917522132396697998046875</LatitudeDegrees>
              <LongitudeDegrees>-4.0720775909721851348876953125</LongitudeDegrees>
            </Position>
            <AltitudeMeters>1381.199951171875</AltitudeMeters>
            <DistanceMeters>NAN</DistanceMeters>
          </Trackpoint>
          <Trackpoint>
            <Time>2018-12-30T10:08:44.000Z</Time>
            <Position>
              <LatitudeDegrees>40.76864965260028839111328125</LatitudeDegrees>
              <LongitudeDegrees>-4.0720876492559909820556640625</LongitudeDegrees>
            </Position>
            <AltitudeMeters>1381.199951171875</AltitudeMeters>
            <DistanceMeters>NAN</DistanceMeters>
          </Trackpoint>
          <Trackpoint>
            <Time>2018-12-30T10:08:45.000Z</Time>
            <Position>
              <LatitudeDegrees>40.76865895651280879974365234375</LatitudeDegrees>
              <LongitudeDegrees>-4.07209427095949649810791015625</LongitudeDegrees>
            </Position>
            <AltitudeMeters>1381.4000244140625</AltitudeMeters>
            <DistanceMeters>NAN</DistanceMeters>
          </Trackpoint>
          <Trackpoint>
            <Time>2018-12-30T10:08:46.000Z</Time>
            <Position>
              <LatitudeDegrees>40.76866717077791690826416015625</LatitudeDegrees>
              <LongitudeDegrees>-4.07210231758654117584228515625</LongitudeDegrees>
            </Position>
            <AltitudeMeters>1381.5999755859375</AltitudeMeters>
            <DistanceMeters>NAN</DistanceMeters>
          </Trackpoint>
          <Trackpoint>
            <Time>2018-12-30T10:08:47.000Z</Time>
            <Position>
              <LatitudeDegrees>40.768676809966564178466796875</LatitudeDegrees>
              <LongitudeDegrees>-4.07210751436650753021240234375</LongitudeDegrees>
            </Position>
            <AltitudeMeters>1381.800048828125</AltitudeMeters>
            <DistanceMeters>NAN</DistanceMeters>
          </Trackpoint>
          <Trackpoint>
            <Time>2018-12-30T10:08:48.000Z</Time>
            <Position>
              <LatitudeDegrees>40.76868695206940174102783203125</LatitudeDegrees>
              <LongitudeDegrees>-4.0721101127564907073974609375</LongitudeDegrees>
            </Position>
            <AltitudeMeters>1382</AltitudeMeters>
            <DistanceMeters>NAN</DistanceMeters>
          </Trackpoint>
          <Trackpoint>
            <Time>2018-12-30T10:08:49.000Z</Time>
            <Position>
              <LatitudeDegrees>40.768699608743190765380859375</LatitudeDegrees>
              <LongitudeDegrees>-4.07211137004196643829345703125</LongitudeDegrees>
            </Position>
            <AltitudeMeters>1382</AltitudeMeters>
            <DistanceMeters>NAN</DistanceMeters>
          </Trackpoint>
          <Trackpoint>
            <Time>2018-12-30T10:08:50.000Z</Time>
            <Position>
              <LatitudeDegrees>40.76871000230312347412109375</LatitudeDegrees>
              <LongitudeDegrees>-4.07210835255682468414306640625</LongitudeDegrees>
            </Position>
            <AltitudeMeters>1382.199951171875</AltitudeMeters>
            <DistanceMeters>NAN</DistanceMeters>
          </Trackpoint>
          <Trackpoint>
            <Time>2018-12-30T10:08:51.000Z</Time>
            <Position>
              <LatitudeDegrees>40.768717713654041290283203125</LatitudeDegrees>
              <LongitudeDegrees>-4.07210935838520526885986328125</LongitudeDegrees>
            </Position>
            <AltitudeMeters>1382.199951171875</AltitudeMeters>
            <DistanceMeters>NAN</DistanceMeters>
          </Trackpoint>
          <Trackpoint>
            <Time>2018-12-30T10:08:52.000Z</Time>
            <Position>
              <LatitudeDegrees>40.7687262631952762603759765625</LatitudeDegrees>
              <LongitudeDegrees>-4.07211606390774250030517578125</LongitudeDegrees>
            </Position>
            <AltitudeMeters>1382.4000244140625</AltitudeMeters>
            <DistanceMeters>NAN</DistanceMeters>
          </Trackpoint>
          <Trackpoint>
            <Time>2018-12-30T10:08:53.000Z</Time>
            <Position>
              <LatitudeDegrees>40.76873640529811382293701171875</LatitudeDegrees>
              <LongitudeDegrees>-4.07211338169872760772705078125</LongitudeDegrees>
            </Position>
            <AltitudeMeters>1382.4000244140625</AltitudeMeters>
            <DistanceMeters>NAN</DistanceMeters>
          </Trackpoint>
          <Trackpoint>
            <Time>2018-12-30T10:08:54.000Z</Time>
            <Position>
              <LatitudeDegrees>40.7687487266957759857177734375</LatitudeDegrees>
              <LongitudeDegrees>-4.0721107833087444305419921875</LongitudeDegrees>
            </Position>
            <AltitudeMeters>1382.4000244140625</AltitudeMeters>
            <DistanceMeters>NAN</DistanceMeters>
          </Trackpoint>
          <Trackpoint>
            <Time>2018-12-30T10:08:55.000Z</Time>
            <Position>
              <LatitudeDegrees>40.76875819824635982513427734375</LatitudeDegrees>
              <LongitudeDegrees>-4.07211204059422016143798828125</LongitudeDegrees>
            </Position>
            <AltitudeMeters>1382.5999755859375</AltitudeMeters>
            <DistanceMeters>NAN</DistanceMeters>
          </Trackpoint>
          <Trackpoint>
            <Time>2018-12-30T10:08:56.000Z</Time>
            <Position>
              <LatitudeDegrees>40.76877261511981487274169921875</LatitudeDegrees>
              <LongitudeDegrees>-4.0721097774803638458251953125</LongitudeDegrees>
            </Position>
            <AltitudeMeters>1382.800048828125</AltitudeMeters>
            <DistanceMeters>NAN</DistanceMeters>
          </Trackpoint>
          <Trackpoint>
            <Time>2018-12-30T10:08:57.000Z</Time>
            <Position>
              <LatitudeDegrees>40.76877261511981487274169921875</LatitudeDegrees>
              <LongitudeDegrees>-4.0721097774803638458251953125</LongitudeDegrees>
            </Position>
            <AltitudeMeters>1382.800048828125</AltitudeMeters>
            <DistanceMeters>NAN</DistanceMeters>
          </Trackpoint>
          <Trackpoint>
            <Time>2018-12-30T10:08:58.000Z</Time>
            <Position>
              <LatitudeDegrees>40.76878300867974758148193359375</LatitudeDegrees>
              <LongitudeDegrees>-4.07210919074714183807373046875</LongitudeDegrees>
            </Position>
            <AltitudeMeters>1382.800048828125</AltitudeMeters>
            <DistanceMeters>NAN</DistanceMeters>
          </Trackpoint>
          <Trackpoint>
            <Time>2018-12-30T10:08:59.000Z</Time>
            <Position>
              <LatitudeDegrees>40.76879289932548999786376953125</LatitudeDegrees>
              <LongitudeDegrees>-4.0721060894429683685302734375</LongitudeDegrees>
            </Position>
            <AltitudeMeters>1383</AltitudeMeters>
            <DistanceMeters>NAN</DistanceMeters>
          </Trackpoint>
          <Trackpoint>
            <Time>2018-12-30T10:09:00.000Z</Time>
            <Position>
              <LatitudeDegrees>40.76880480162799358367919921875</LatitudeDegrees>
              <LongitudeDegrees>-4.07210600562393665313720703125</LongitudeDegrees>
            </Position>
            <AltitudeMeters>1383.199951171875</AltitudeMeters>
            <DistanceMeters>NAN</DistanceMeters>
          </Trackpoint>
          <Trackpoint>
            <Time>2018-12-30T10:09:01.000Z</Time>
            <Position>
              <LatitudeDegrees>40.76881770975887775421142578125</LatitudeDegrees>
              <LongitudeDegrees>-4.072105251252651214599609375</LongitudeDegrees>
            </Position>
            <AltitudeMeters>1383.4000244140625</AltitudeMeters>
            <DistanceMeters>NAN</DistanceMeters>
          </Trackpoint>
          <Trackpoint>
            <Time>2018-12-30T10:09:02.000Z</Time>
            <Position>
              <LatitudeDegrees>40.768829695880413055419921875</LatitudeDegrees>
              <LongitudeDegrees>-4.0721057541668415069580078125</LongitudeDegrees>
            </Position>
            <AltitudeMeters>1383.4000244140625</AltitudeMeters>
            <DistanceMeters>NAN</DistanceMeters>
          </Trackpoint>
          <Trackpoint>
            <Time>2018-12-30T10:09:03.000Z</Time>
            <Position>
              <LatitudeDegrees>40.76883866451680660247802734375</LatitudeDegrees>
              <LongitudeDegrees>-4.0721070952713489532470703125</LongitudeDegrees>
            </Position>
            <AltitudeMeters>1383.4000244140625</AltitudeMeters>
            <DistanceMeters>NAN</DistanceMeters>
          </Trackpoint>
          <Trackpoint>
            <Time>2018-12-30T10:09:04.000Z</Time>
            <Position>
              <LatitudeDegrees>40.7688486389815807342529296875</LatitudeDegrees>
              <LongitudeDegrees>-4.072108604013919830322265625</LongitudeDegrees>
            </Position>
            <AltitudeMeters>1383.5999755859375</AltitudeMeters>
            <DistanceMeters>NAN</DistanceMeters>
          </Trackpoint>
          <Trackpoint>
            <Time>2018-12-30T10:09:05.000Z</Time>
            <Position>
              <LatitudeDegrees>40.7688597030937671661376953125</LatitudeDegrees>
              <LongitudeDegrees>-4.072109945118427276611328125</LongitudeDegrees>
            </Position>
            <AltitudeMeters>1383.5999755859375</AltitudeMeters>
            <DistanceMeters>NAN</DistanceMeters>
          </Trackpoint>
          <Trackpoint>
            <Time>2018-12-30T10:09:06.000Z</Time>
            <Position>
              <LatitudeDegrees>40.76887152157723903656005859375</LatitudeDegrees>
              <LongitudeDegrees>-4.07211296260356903076171875</LongitudeDegrees>
            </Position>
            <AltitudeMeters>1383.5999755859375</AltitudeMeters>
            <DistanceMeters>NAN</DistanceMeters>
          </Trackpoint>
          <Trackpoint>
            <Time>2018-12-30T10:09:07.000Z</Time>
            <Position>
              <LatitudeDegrees>40.76888308860361576080322265625</LatitudeDegrees>
              <LongitudeDegrees>-4.07210600562393665313720703125</LongitudeDegrees>
            </Position>
            <AltitudeMeters>1383.800048828125</AltitudeMeters>
            <DistanceMeters>NAN</DistanceMeters>
          </Trackpoint>
          <Trackpoint>
            <Time>2018-12-30T10:09:08.000Z</Time>
            <Position>
              <LatitudeDegrees>40.76889515854418277740478515625</LatitudeDegrees>
              <LongitudeDegrees>-4.07210214994847774505615234375</LongitudeDegrees>
            </Position>
            <AltitudeMeters>1383.800048828125</AltitudeMeters>
            <DistanceMeters>NAN</DistanceMeters>
          </Trackpoint>
          <Trackpoint>
            <Time>2018-12-30T10:09:09.000Z</Time>
            <Position>
              <LatitudeDegrees>40.7689024507999420166015625</LatitudeDegrees>
              <LongitudeDegrees>-4.07209460623562335968017578125</LongitudeDegrees>
            </Position>
            <AltitudeMeters>1384</AltitudeMeters>
            <DistanceMeters>NAN</DistanceMeters>
          </Trackpoint>
          <Trackpoint>
            <Time>2018-12-30T10:09:10.000Z</Time>
            <Position>
              <LatitudeDegrees>40.7689123414456844329833984375</LatitudeDegrees>
              <LongitudeDegrees>-4.07209779135882854461669921875</LongitudeDegrees>
            </Position>
            <AltitudeMeters>1384</AltitudeMeters>
            <DistanceMeters>NAN</DistanceMeters>
          </Trackpoint>
          <Trackpoint>
            <Time>2018-12-30T10:09:11.000Z</Time>
            <Position>
              <LatitudeDegrees>40.76892466284334659576416015625</LatitudeDegrees>
              <LongitudeDegrees>-4.07210399396717548370361328125</LongitudeDegrees>
            </Position>
            <AltitudeMeters>1384.199951171875</AltitudeMeters>
            <DistanceMeters>NAN</DistanceMeters>
          </Trackpoint>
          <Trackpoint>
            <Time>2018-12-30T10:09:12.000Z</Time>
            <Position>
              <LatitudeDegrees>40.76893388293683528900146484375</LatitudeDegrees>
              <LongitudeDegrees>-4.072103239595890045166015625</LongitudeDegrees>
            </Position>
            <AltitudeMeters>1384.4000244140625</AltitudeMeters>
            <DistanceMeters>NAN</DistanceMeters>
          </Trackpoint>
          <Trackpoint>
            <Time>2018-12-30T10:09:13.000Z</Time>
            <Position>
              <LatitudeDegrees>40.76893891207873821258544921875</LatitudeDegrees>
              <LongitudeDegrees>-4.0720906667411327362060546875</LongitudeDegrees>
            </Position>
            <AltitudeMeters>1384.5999755859375</AltitudeMeters>
            <DistanceMeters>NAN</DistanceMeters>
          </Trackpoint>
          <Trackpoint>
            <Time>2018-12-30T10:09:14.000Z</Time>
            <Position>
              <LatitudeDegrees>40.7689582742750644683837890625</LatitudeDegrees>
              <LongitudeDegrees>-4.0720866434276103973388671875</LongitudeDegrees>
            </Position>
            <AltitudeMeters>1385</AltitudeMeters>
            <DistanceMeters>NAN</DistanceMeters>
          </Trackpoint>
          <Trackpoint>
            <Time>2018-12-30T10:09:15.000Z</Time>
            <Position>
              <LatitudeDegrees>40.7689582742750644683837890625</LatitudeDegrees>
              <LongitudeDegrees>-4.0720866434276103973388671875</LongitudeDegrees>
            </Position>
            <AltitudeMeters>1385.199951171875</AltitudeMeters>
            <DistanceMeters>NAN</DistanceMeters>
          </Trackpoint>
          <Trackpoint>
            <Time>2018-12-30T10:09:16.000Z</Time>
            <Position>
              <LatitudeDegrees>40.768973194062709808349609375</LatitudeDegrees>
              <LongitudeDegrees>-4.0720760822296142578125</LongitudeDegrees>
            </Position>
            <AltitudeMeters>1385.199951171875</AltitudeMeters>
            <DistanceMeters>NAN</DistanceMeters>
          </Trackpoint>
          <Trackpoint>
            <Time>2018-12-30T10:09:17.000Z</Time>
            <Position>
              <LatitudeDegrees>40.76898635365068912506103515625</LatitudeDegrees>
              <LongitudeDegrees>-4.0720745734870433807373046875</LongitudeDegrees>
            </Position>
            <AltitudeMeters>1385.4000244140625</AltitudeMeters>
            <DistanceMeters>NAN</DistanceMeters>
          </Trackpoint>
          <Trackpoint>
            <Time>2018-12-30T10:09:18.000Z</Time>
            <Position>
              <LatitudeDegrees>40.7690001837909221649169921875</LatitudeDegrees>
              <LongitudeDegrees>-4.072074405848979949951171875</LongitudeDegrees>
            </Position>
            <AltitudeMeters>1385.4000244140625</AltitudeMeters>
            <DistanceMeters>NAN</DistanceMeters>
          </Trackpoint>
          <Trackpoint>
            <Time>2018-12-30T10:09:19.000Z</Time>
            <Position>
              <LatitudeDegrees>40.76900982297956943511962890625</LatitudeDegrees>
              <LongitudeDegrees>-4.07207549549639225006103515625</LongitudeDegrees>
            </Position>
            <AltitudeMeters>1385.4000244140625</AltitudeMeters>
            <DistanceMeters>NAN</DistanceMeters>
          </Trackpoint>
          <Trackpoint>
            <Time>2018-12-30T10:09:20.000Z</Time>
            <Position>
              <LatitudeDegrees>40.76902306638658046722412109375</LatitudeDegrees>
              <LongitudeDegrees>-4.07207817770540714263916015625</LongitudeDegrees>
            </Position>
            <AltitudeMeters>1385.5999755859375</AltitudeMeters>
            <DistanceMeters>NAN</DistanceMeters>
          </Trackpoint>
          <Trackpoint>
            <Time>2018-12-30T10:09:21.000Z</Time>
            <Position>
              <LatitudeDegrees>40.76903731562197208404541015625</LatitudeDegrees>
              <LongitudeDegrees>-4.0720849670469760894775390625</LongitudeDegrees>
            </Position>
            <AltitudeMeters>1385.800048828125</AltitudeMeters>
            <DistanceMeters>NAN</DistanceMeters>
          </Trackpoint>
          <Trackpoint>
            <Time>2018-12-30T10:09:22.000Z</Time>
            <Position>
              <LatitudeDegrees>40.76905005611479282379150390625</LatitudeDegrees>
              <LongitudeDegrees>-4.0720869787037372589111328125</LongitudeDegrees>
            </Position>
            <AltitudeMeters>1385.800048828125</AltitudeMeters>
            <DistanceMeters>NAN</DistanceMeters>
          </Trackpoint>
          <Trackpoint>
            <Time>2018-12-30T10:09:23.000Z</Time>
            <Position>
              <LatitudeDegrees>40.76906229369342327117919921875</LatitudeDegrees>
              <LongitudeDegrees>-4.0720997191965579986572265625</LongitudeDegrees>
            </Position>
            <AltitudeMeters>1386</AltitudeMeters>
            <DistanceMeters>NAN</DistanceMeters>
          </Trackpoint>
          <Trackpoint>
            <Time>2018-12-30T10:09:24.000Z</Time>
            <Position>
              <LatitudeDegrees>40.76907520182430744171142578125</LatitudeDegrees>
              <LongitudeDegrees>-4.07211338169872760772705078125</LongitudeDegrees>
            </Position>
            <AltitudeMeters>1386.199951171875</AltitudeMeters>
            <DistanceMeters>NAN</DistanceMeters>
          </Trackpoint>
          <Trackpoint>
            <Time>2018-12-30T10:09:25.000Z</Time>
            <Position>
              <LatitudeDegrees>40.76908475719392299652099609375</LatitudeDegrees>
              <LongitudeDegrees>-4.0721176564693450927734375</LongitudeDegrees>
            </Position>
            <AltitudeMeters>1386.199951171875</AltitudeMeters>
            <DistanceMeters>NAN</DistanceMeters>
          </Trackpoint>
          <Trackpoint>
            <Time>2018-12-30T10:09:26.000Z</Time>
            <Position>
              <LatitudeDegrees>40.76909883879125118255615234375</LatitudeDegrees>
              <LongitudeDegrees>-4.07212059013545513153076171875</LongitudeDegrees>
            </Position>
            <AltitudeMeters>1386.199951171875</AltitudeMeters>
            <DistanceMeters>NAN</DistanceMeters>
          </Trackpoint>
          <Trackpoint>
            <Time>2018-12-30T10:09:27.000Z</Time>
            <Position>
              <LatitudeDegrees>40.76911258511245250701904296875</LatitudeDegrees>
              <LongitudeDegrees>-4.07212059013545513153076171875</LongitudeDegrees>
            </Position>
            <AltitudeMeters>1386.199951171875</AltitudeMeters>
            <DistanceMeters>NAN</DistanceMeters>
          </Trackpoint>
          <Trackpoint>
            <Time>2018-12-30T10:09:28.000Z</Time>
            <Position>
              <LatitudeDegrees>40.76912482269108295440673828125</LatitudeDegrees>
              <LongitudeDegrees>-4.0721205063164234161376953125</LongitudeDegrees>
            </Position>
            <AltitudeMeters>1386.4000244140625</AltitudeMeters>
            <DistanceMeters>NAN</DistanceMeters>
          </Trackpoint>
          <Trackpoint>
            <Time>2018-12-30T10:09:29.000Z</Time>
            <Position>
              <LatitudeDegrees>40.76913588680326938629150390625</LatitudeDegrees>
              <LongitudeDegrees>-4.07212411053478717803955078125</LongitudeDegrees>
            </Position>
            <AltitudeMeters>1386.4000244140625</AltitudeMeters>
            <DistanceMeters>NAN</DistanceMeters>
          </Trackpoint>
          <Trackpoint>
            <Time>2018-12-30T10:09:30.000Z</Time>
            <Position>
              <LatitudeDegrees>40.76914443634450435638427734375</LatitudeDegrees>
              <LongitudeDegrees>-4.0721218474209308624267578125</LongitudeDegrees>
            </Position>
            <AltitudeMeters>1386.800048828125</AltitudeMeters>
            <DistanceMeters>NAN</DistanceMeters>
          </Trackpoint>
          <Trackpoint>
            <Time>2018-12-30T10:09:31.000Z</Time>
            <Position>
              <LatitudeDegrees>40.76915390789508819580078125</LatitudeDegrees>
              <LongitudeDegrees>-4.07212109304964542388916015625</LongitudeDegrees>
            </Position>
            <AltitudeMeters>1387</AltitudeMeters>
            <DistanceMeters>NAN</DistanceMeters>
          </Trackpoint>
          <Trackpoint>
            <Time>2018-12-30T10:09:32.000Z</Time>
            <Position>
              <LatitudeDegrees>40.769162960350513458251953125</LatitudeDegrees>
              <LongitudeDegrees>-4.07211908139288425445556640625</LongitudeDegrees>
            </Position>
            <AltitudeMeters>1387.199951171875</AltitudeMeters>
            <DistanceMeters>NAN</DistanceMeters>
          </Trackpoint>
          <Trackpoint>
            <Time>2018-12-30T10:09:33.000Z</Time>
            <Position>
              <LatitudeDegrees>40.76917142607271671295166015625</LatitudeDegrees>
              <LongitudeDegrees>-4.0721188299357891082763671875</LongitudeDegrees>
            </Position>
            <AltitudeMeters>1387.4000244140625</AltitudeMeters>
            <DistanceMeters>NAN</DistanceMeters>
          </Trackpoint>
          <Trackpoint>
            <Time>2018-12-30T10:09:34.000Z</Time>
            <Position>
              <LatitudeDegrees>40.76917913742363452911376953125</LatitudeDegrees>
              <LongitudeDegrees>-4.07211296260356903076171875</LongitudeDegrees>
            </Position>
            <AltitudeMeters>1387.5999755859375</AltitudeMeters>
            <DistanceMeters>NAN</DistanceMeters>
          </Trackpoint>
          <Trackpoint>
            <Time>2018-12-30T10:09:35.000Z</Time>
            <Position>
              <LatitudeDegrees>40.76918718405067920684814453125</LatitudeDegrees>
              <LongitudeDegrees>-4.0721117891371250152587890625</LongitudeDegrees>
            </Position>
            <AltitudeMeters>1387.800048828125</AltitudeMeters>
            <DistanceMeters>NAN</DistanceMeters>
          </Trackpoint>
          <Trackpoint>
            <Time>2018-12-30T10:09:36.000Z</Time>
            <Position>
              <LatitudeDegrees>40.7691948115825653076171875</LatitudeDegrees>
              <LongitudeDegrees>-4.0720910020172595977783203125</LongitudeDegrees>
            </Position>
            <AltitudeMeters>1387.800048828125</AltitudeMeters>
            <DistanceMeters>NAN</DistanceMeters>
          </Trackpoint>
          <Trackpoint>
            <Time>2018-12-30T10:09:37.000Z</Time>
            <Position>
              <LatitudeDegrees>40.769204199314117431640625</LatitudeDegrees>
              <LongitudeDegrees>-4.0720854699611663818359375</LongitudeDegrees>
            </Position>
            <AltitudeMeters>1387.800048828125</AltitudeMeters>
            <DistanceMeters>NAN</DistanceMeters>
          </Trackpoint>
          <Trackpoint>
            <Time>2018-12-30T10:09:38.000Z</Time>
            <Position>
              <LatitudeDegrees>40.76921450905501842498779296875</LatitudeDegrees>
              <LongitudeDegrees>-4.072089157998561859130859375</LongitudeDegrees>
            </Position>
            <AltitudeMeters>1388</AltitudeMeters>
            <DistanceMeters>NAN</DistanceMeters>
          </Trackpoint>
          <Trackpoint>
            <Time>2018-12-30T10:09:39.000Z</Time>
            <Position>
              <LatitudeDegrees>40.769222639501094818115234375</LatitudeDegrees>
              <LongitudeDegrees>-4.0720879845321178436279296875</LongitudeDegrees>
            </Position>
            <AltitudeMeters>1388</AltitudeMeters>
            <DistanceMeters>NAN</DistanceMeters>
          </Trackpoint>
          <Trackpoint>
            <Time>2018-12-30T10:09:40.000Z</Time>
            <Position>
              <LatitudeDegrees>40.76923345215618610382080078125</LatitudeDegrees>
              <LongitudeDegrees>-4.0720910020172595977783203125</LongitudeDegrees>
            </Position>
            <AltitudeMeters>1388.199951171875</AltitudeMeters>
            <DistanceMeters>NAN</DistanceMeters>
          </Trackpoint>
          <Trackpoint>
            <Time>2018-12-30T10:09:41.000Z</Time>
            <Position>
              <LatitudeDegrees>40.76924418099224567413330078125</LatitudeDegrees>
              <LongitudeDegrees>-4.07208387739956378936767578125</LongitudeDegrees>
            </Position>
            <AltitudeMeters>1388.199951171875</AltitudeMeters>
            <DistanceMeters>NAN</DistanceMeters>
          </Trackpoint>
          <Trackpoint>
            <Time>2018-12-30T10:09:42.000Z</Time>
            <Position>
              <LatitudeDegrees>40.76925088651478290557861328125</LatitudeDegrees>
              <LongitudeDegrees>-4.07208102755248546600341796875</LongitudeDegrees>
            </Position>
            <AltitudeMeters>1388.199951171875</AltitudeMeters>
            <DistanceMeters>NAN</DistanceMeters>
          </Trackpoint>
          <Trackpoint>
            <Time>2018-12-30T10:09:43.000Z</Time>
            <Position>
              <LatitudeDegrees>40.76925574801862239837646484375</LatitudeDegrees>
              <LongitudeDegrees>-4.072079770267009735107421875</LongitudeDegrees>
            </Position>
            <AltitudeMeters>1388.199951171875</AltitudeMeters>
            <DistanceMeters>NAN</DistanceMeters>
          </Trackpoint>
          <Trackpoint>
            <Time>2018-12-30T10:09:44.000Z</Time>
            <Position>
              <LatitudeDegrees>40.76926052570343017578125</LatitudeDegrees>
              <LongitudeDegrees>-4.0720826201140880584716796875</LongitudeDegrees>
            </Position>
            <AltitudeMeters>1388.4000244140625</AltitudeMeters>
            <DistanceMeters>NAN</DistanceMeters>
          </Trackpoint>
          <Trackpoint>
            <Time>2018-12-30T10:09:45.000Z</Time>
            <Position>
              <LatitudeDegrees>40.76926656067371368408203125</LatitudeDegrees>
              <LongitudeDegrees>-4.072083793580532073974609375</LongitudeDegrees>
            </Position>
            <AltitudeMeters>1388.5999755859375</AltitudeMeters>
            <DistanceMeters>NAN</DistanceMeters>
          </Trackpoint>
          <Trackpoint>
            <Time>2018-12-30T10:09:46.000Z</Time>
            <Position>
              <LatitudeDegrees>40.769274272024631500244140625</LatitudeDegrees>
              <LongitudeDegrees>-4.07209041528403759002685546875</LongitudeDegrees>
            </Position>
            <AltitudeMeters>1388.800048828125</AltitudeMeters>
            <DistanceMeters>NAN</DistanceMeters>
          </Trackpoint>
          <Trackpoint>
            <Time>2018-12-30T10:09:47.000Z</Time>
            <Position>
              <LatitudeDegrees>40.76928474940359592437744140625</LatitudeDegrees>
              <LongitudeDegrees>-4.07208957709372043609619140625</LongitudeDegrees>
            </Position>
            <AltitudeMeters>1389</AltitudeMeters>
            <DistanceMeters>NAN</DistanceMeters>
          </Trackpoint>
          <Trackpoint>
            <Time>2018-12-30T10:09:48.000Z</Time>
            <Position>
              <LatitudeDegrees>40.7692999206483364105224609375</LatitudeDegrees>
              <LongitudeDegrees>-4.0720910020172595977783203125</LongitudeDegrees>
            </Position>
            <AltitudeMeters>1389.4000244140625</AltitudeMeters>
            <DistanceMeters>NAN</DistanceMeters>
          </Trackpoint>
          <Trackpoint>
            <Time>2018-12-30T10:09:49.000Z</Time>
            <Position>
              <LatitudeDegrees>40.7693103142082691192626953125</LatitudeDegrees>
              <LongitudeDegrees>-4.0720742382109165191650390625</LongitudeDegrees>
            </Position>
            <AltitudeMeters>1389.5999755859375</AltitudeMeters>
            <DistanceMeters>NAN</DistanceMeters>
          </Trackpoint>
          <Trackpoint>
            <Time>2018-12-30T10:09:50.000Z</Time>
            <Position>
              <LatitudeDegrees>40.76931861229240894317626953125</LatitudeDegrees>
              <LongitudeDegrees>-4.07207314856350421905517578125</LongitudeDegrees>
            </Position>
            <AltitudeMeters>1390</AltitudeMeters>
            <DistanceMeters>NAN</DistanceMeters>
          </Trackpoint>
          <Trackpoint>
            <Time>2018-12-30T10:09:51.000Z</Time>
            <Position>
              <LatitudeDegrees>40.7693277485668659210205078125</LatitudeDegrees>
              <LongitudeDegrees>-4.0720749087631702423095703125</LongitudeDegrees>
            </Position>
            <AltitudeMeters>1390.5999755859375</AltitudeMeters>
            <DistanceMeters>NAN</DistanceMeters>
          </Trackpoint>
          <Trackpoint>
            <Time>2018-12-30T10:09:52.000Z</Time>
            <Position>
              <LatitudeDegrees>40.76933772303164005279541015625</LatitudeDegrees>
              <LongitudeDegrees>-4.0720537863671779632568359375</LongitudeDegrees>
            </Position>
            <AltitudeMeters>1391</AltitudeMeters>
            <DistanceMeters>NAN</DistanceMeters>
          </Trackpoint>
          <Trackpoint>
            <Time>2018-12-30T10:09:53.000Z</Time>
            <Position>
              <LatitudeDegrees>40.769346021115779876708984375</LatitudeDegrees>
              <LongitudeDegrees>-4.07207004725933074951171875</LongitudeDegrees>
            </Position>
            <AltitudeMeters>1391.4000244140625</AltitudeMeters>
            <DistanceMeters>NAN</DistanceMeters>
          </Trackpoint>
          <Trackpoint>
            <Time>2018-12-30T10:09:54.000Z</Time>
            <Position>
              <LatitudeDegrees>40.7693559117615222930908203125</LatitudeDegrees>
              <LongitudeDegrees>-4.072082452476024627685546875</LongitudeDegrees>
            </Position>
            <AltitudeMeters>1391.5999755859375</AltitudeMeters>
            <DistanceMeters>NAN</DistanceMeters>
          </Trackpoint>
          <Trackpoint>
            <Time>2018-12-30T10:09:55.000Z</Time>
            <Position>
              <LatitudeDegrees>40.76936823315918445587158203125</LatitudeDegrees>
              <LongitudeDegrees>-4.0720935165882110595703125</LongitudeDegrees>
            </Position>
            <AltitudeMeters>1391.800048828125</AltitudeMeters>
            <DistanceMeters>NAN</DistanceMeters>
          </Trackpoint>
          <Trackpoint>
            <Time>2018-12-30T10:09:56.000Z</Time>
            <Position>
              <LatitudeDegrees>40.76937929727137088775634765625</LatitudeDegrees>
              <LongitudeDegrees>-4.07210491597652435302734375</LongitudeDegrees>
            </Position>
            <AltitudeMeters>1391.800048828125</AltitudeMeters>
            <DistanceMeters>NAN</DistanceMeters>
          </Trackpoint>
          <Trackpoint>
            <Time>2018-12-30T10:09:57.000Z</Time>
            <Position>
              <LatitudeDegrees>40.769392289221286773681640625</LatitudeDegrees>
              <LongitudeDegrees>-4.07211857847869396209716796875</LongitudeDegrees>
            </Position>
            <AltitudeMeters>1392</AltitudeMeters>
            <DistanceMeters>NAN</DistanceMeters>
          </Trackpoint>
          <Trackpoint>
            <Time>2018-12-30T10:09:58.000Z</Time>
            <Position>
              <LatitudeDegrees>40.7694035209715366363525390625</LatitudeDegrees>
              <LongitudeDegrees>-4.072126038372516632080078125</LongitudeDegrees>
            </Position>
            <AltitudeMeters>1392</AltitudeMeters>
            <DistanceMeters>NAN</DistanceMeters>
          </Trackpoint>
          <Trackpoint>
            <Time>2018-12-30T10:09:59.000Z</Time>
            <Position>
              <LatitudeDegrees>40.76941818930208683013916015625</LatitudeDegrees>
              <LongitudeDegrees>-4.072137437760829925537109375</LongitudeDegrees>
            </Position>
            <AltitudeMeters>1392.199951171875</AltitudeMeters>
            <DistanceMeters>NAN</DistanceMeters>
          </Trackpoint>
          <Trackpoint>
            <Time>2018-12-30T10:10:00.000Z</Time>
            <Position>
              <LatitudeDegrees>40.76943260617554187774658203125</LatitudeDegrees>
              <LongitudeDegrees>-4.072140119969844818115234375</LongitudeDegrees>
            </Position>
            <AltitudeMeters>1392.199951171875</AltitudeMeters>
            <DistanceMeters>NAN</DistanceMeters>
          </Trackpoint>
          <Trackpoint>
            <Time>2018-12-30T10:10:01.000Z</Time>
            <Position>
              <LatitudeDegrees>40.7694444246590137481689453125</LatitudeDegrees>
              <LongitudeDegrees>-4.07214238308370113372802734375</LongitudeDegrees>
            </Position>
            <AltitudeMeters>1392.199951171875</AltitudeMeters>
            <DistanceMeters>NAN</DistanceMeters>
          </Trackpoint>
          <Trackpoint>
            <Time>2018-12-30T10:10:02.000Z</Time>
            <Position>
              <LatitudeDegrees>40.76945364475250244140625</LatitudeDegrees>
              <LongitudeDegrees>-4.0721433050930500030517578125</LongitudeDegrees>
            </Position>
            <AltitudeMeters>1392.199951171875</AltitudeMeters>
            <DistanceMeters>NAN</DistanceMeters>
          </Trackpoint>
          <Trackpoint>
            <Time>2018-12-30T10:10:03.000Z</Time>
            <Position>
              <LatitudeDegrees>40.76945574022829532623291015625</LatitudeDegrees>
              <LongitudeDegrees>-4.0721402876079082489013671875</LongitudeDegrees>
            </Position>
            <AltitudeMeters>1392.199951171875</AltitudeMeters>
            <DistanceMeters>NAN</DistanceMeters>
          </Trackpoint>
          <Trackpoint>
            <Time>2018-12-30T10:10:04.000Z</Time>
            <Position>
              <LatitudeDegrees>40.7694601826369762420654296875</LatitudeDegrees>
              <LongitudeDegrees>-4.0721429698169231414794921875</LongitudeDegrees>
            </Position>
            <AltitudeMeters>1392.4000244140625</AltitudeMeters>
            <DistanceMeters>NAN</DistanceMeters>
          </Trackpoint>
          <Trackpoint>
            <Time>2018-12-30T10:10:05.000Z</Time>
            <Position>
              <LatitudeDegrees>40.76946730725467205047607421875</LatitudeDegrees>
              <LongitudeDegrees>-4.0721479989588260650634765625</LongitudeDegrees>
            </Position>
            <AltitudeMeters>1392.5999755859375</AltitudeMeters>
            <DistanceMeters>NAN</DistanceMeters>
          </Trackpoint>
          <Trackpoint>
            <Time>2018-12-30T10:10:06.000Z</Time>
            <Position>
              <LatitudeDegrees>40.7694715820252895355224609375</LatitudeDegrees>
              <LongitudeDegrees>-4.072149507701396942138671875</LongitudeDegrees>
            </Position>
            <AltitudeMeters>1392.5999755859375</AltitudeMeters>
            <DistanceMeters>NAN</DistanceMeters>
          </Trackpoint>
          <Trackpoint>
            <Time>2018-12-30T10:10:07.000Z</Time>
            <Position>
              <LatitudeDegrees>40.7694772817194461822509765625</LatitudeDegrees>
              <LongitudeDegrees>-4.0721463225781917572021484375</LongitudeDegrees>
            </Position>
            <AltitudeMeters>1392.4000244140625</AltitudeMeters>
            <DistanceMeters>NAN</DistanceMeters>
          </Trackpoint>
          <Trackpoint>
            <Time>2018-12-30T10:10:08.000Z</Time>
            <Position>
              <LatitudeDegrees>40.7694804668426513671875</LatitudeDegrees>
              <LongitudeDegrees>-4.072141461074352264404296875</LongitudeDegrees>
            </Position>
            <AltitudeMeters>1392.4000244140625</AltitudeMeters>
            <DistanceMeters>NAN</DistanceMeters>
          </Trackpoint>
          <Trackpoint>
            <Time>2018-12-30T10:10:09.000Z</Time>
            <Position>
              <LatitudeDegrees>40.76948784291744232177734375</LatitudeDegrees>
              <LongitudeDegrees>-4.0721369348466396331787109375</LongitudeDegrees>
            </Position>
            <AltitudeMeters>1392.4000244140625</AltitudeMeters>
            <DistanceMeters>NAN</DistanceMeters>
          </Trackpoint>
          <Trackpoint>
            <Time>2018-12-30T10:10:10.000Z</Time>
            <Position>
              <LatitudeDegrees>40.76949597336351871490478515625</LatitudeDegrees>
              <LongitudeDegrees>-4.072126708924770355224609375</LongitudeDegrees>
            </Position>
            <AltitudeMeters>1392.4000244140625</AltitudeMeters>
            <DistanceMeters>NAN</DistanceMeters>
          </Trackpoint>
          <Trackpoint>
            <Time>2018-12-30T10:10:11.000Z</Time>
            <Position>
              <LatitudeDegrees>40.76950569637119770050048828125</LatitudeDegrees>
              <LongitudeDegrees>-4.07211975194513797760009765625</LongitudeDegrees>
            </Position>
            <AltitudeMeters>1392.199951171875</AltitudeMeters>
            <DistanceMeters>NAN</DistanceMeters>
          </Trackpoint>
          <Trackpoint>
            <Time>2018-12-30T10:10:12.000Z</Time>
            <Position>
              <LatitudeDegrees>40.7695175148546695709228515625</LatitudeDegrees>
              <LongitudeDegrees>-4.07211430370807647705078125</LongitudeDegrees>
            </Position>
            <AltitudeMeters>1392</AltitudeMeters>
            <DistanceMeters>NAN</DistanceMeters>
          </Trackpoint>
          <Trackpoint>
            <Time>2018-12-30T10:10:13.000Z</Time>
            <Position>
              <LatitudeDegrees>40.76953084208071231842041015625</LatitudeDegrees>
              <LongitudeDegrees>-4.07211388461291790008544921875</LongitudeDegrees>
            </Position>
            <AltitudeMeters>1392</AltitudeMeters>
            <DistanceMeters>NAN</DistanceMeters>
          </Trackpoint>
          <Trackpoint>
            <Time>2018-12-30T10:10:14.000Z</Time>
            <Position>
              <LatitudeDegrees>40.7695429958403110504150390625</LatitudeDegrees>
              <LongitudeDegrees>-4.07211723737418651580810546875</LongitudeDegrees>
            </Position>
            <AltitudeMeters>1392</AltitudeMeters>
            <DistanceMeters>NAN</DistanceMeters>
          </Trackpoint>
          <Trackpoint>
            <Time>2018-12-30T10:10:15.000Z</Time>
            <Position>
              <LatitudeDegrees>40.76955146156251430511474609375</LatitudeDegrees>
              <LongitudeDegrees>-4.07212059013545513153076171875</LongitudeDegrees>
            </Position>
            <AltitudeMeters>1392.199951171875</AltitudeMeters>
            <DistanceMeters>NAN</DistanceMeters>
          </Trackpoint>
          <Trackpoint>
            <Time>2018-12-30T10:10:16.000Z</Time>
            <Position>
              <LatitudeDegrees>40.76955934055149555206298828125</LatitudeDegrees>
              <LongitudeDegrees>-4.072118662297725677490234375</LongitudeDegrees>
            </Position>
            <AltitudeMeters>1392.4000244140625</AltitudeMeters>
            <DistanceMeters>NAN</DistanceMeters>
          </Trackpoint>
          <Trackpoint>
            <Time>2018-12-30T10:10:17.000Z</Time>
            <Position>
              <LatitudeDegrees>40.76956889592111110687255859375</LatitudeDegrees>
              <LongitudeDegrees>-4.072121679782867431640625</LongitudeDegrees>
            </Position>
            <AltitudeMeters>1392.5999755859375</AltitudeMeters>
            <DistanceMeters>NAN</DistanceMeters>
          </Trackpoint>
          <Trackpoint>
            <Time>2018-12-30T10:10:18.000Z</Time>
            <Position>
              <LatitudeDegrees>40.76957945711910724639892578125</LatitudeDegrees>
              <LongitudeDegrees>-4.07211966812610626220703125</LongitudeDegrees>
            </Position>
            <AltitudeMeters>1392.800048828125</AltitudeMeters>
            <DistanceMeters>NAN</DistanceMeters>
          </Trackpoint>
          <Trackpoint>
            <Time>2018-12-30T10:10:19.000Z</Time>
            <Position>
              <LatitudeDegrees>40.7695892639458179473876953125</LatitudeDegrees>
              <LongitudeDegrees>-4.0721178241074085235595703125</LongitudeDegrees>
            </Position>
            <AltitudeMeters>1393</AltitudeMeters>
            <DistanceMeters>NAN</DistanceMeters>
          </Trackpoint>
          <Trackpoint>
            <Time>2018-12-30T10:10:20.000Z</Time>
            <Position>
              <LatitudeDegrees>40.76960854232311248779296875</LatitudeDegrees>
              <LongitudeDegrees>-4.07211698591709136962890625</LongitudeDegrees>
            </Position>
            <AltitudeMeters>1393.199951171875</AltitudeMeters>
            <DistanceMeters>NAN</DistanceMeters>
          </Trackpoint>
          <Trackpoint>
            <Time>2018-12-30T10:10:21.000Z</Time>
            <Position>
              <LatitudeDegrees>40.769622623920440673828125</LatitudeDegrees>
              <LongitudeDegrees>-4.07211556099355220794677734375</LongitudeDegrees>
            </Position>
            <AltitudeMeters>1393.4000244140625</AltitudeMeters>
            <DistanceMeters>NAN</DistanceMeters>
          </Trackpoint>
          <Trackpoint>
            <Time>2018-12-30T10:10:22.000Z</Time>
            <Position>
              <LatitudeDegrees>40.769633352756500244140625</LatitudeDegrees>
              <LongitudeDegrees>-4.07213014550507068634033203125</LongitudeDegrees>
            </Position>
            <AltitudeMeters>1393.5999755859375</AltitudeMeters>
            <DistanceMeters>NAN</DistanceMeters>
          </Trackpoint>
          <Trackpoint>
            <Time>2018-12-30T10:10:23.000Z</Time>
            <Position>
              <LatitudeDegrees>40.76964315958321094512939453125</LatitudeDegrees>
              <LongitudeDegrees>-4.07215478830039501190185546875</LongitudeDegrees>
            </Position>
            <AltitudeMeters>1393.800048828125</AltitudeMeters>
            <DistanceMeters>NAN</DistanceMeters>
          </Trackpoint>
          <Trackpoint>
            <Time>2018-12-30T10:10:24.000Z</Time>
            <Position>
              <LatitudeDegrees>40.769651122391223907470703125</LatitudeDegrees>
              <LongitudeDegrees>-4.07215679995715618133544921875</LongitudeDegrees>
            </Position>
            <AltitudeMeters>1393.800048828125</AltitudeMeters>
            <DistanceMeters>NAN</DistanceMeters>
          </Trackpoint>
          <Trackpoint>
            <Time>2018-12-30T10:10:25.000Z</Time>
            <Position>
              <LatitudeDegrees>40.76965489424765110015869140625</LatitudeDegrees>
              <LongitudeDegrees>-4.07214808277785778045654296875</LongitudeDegrees>
            </Position>
            <AltitudeMeters>1393.800048828125</AltitudeMeters>
            <DistanceMeters>NAN</DistanceMeters>
          </Trackpoint>
          <Trackpoint>
            <Time>2018-12-30T10:10:26.000Z</Time>
            <Position>
              <LatitudeDegrees>40.76966159977018833160400390625</LatitudeDegrees>
              <LongitudeDegrees>-4.0721510164439678192138671875</LongitudeDegrees>
            </Position>
            <AltitudeMeters>1393.800048828125</AltitudeMeters>
            <DistanceMeters>NAN</DistanceMeters>
          </Trackpoint>
          <Trackpoint>
            <Time>2018-12-30T10:10:27.000Z</Time>
            <Position>
              <LatitudeDegrees>40.7696704007685184478759765625</LatitudeDegrees>
              <LongitudeDegrees>-4.0721593983471393585205078125</LongitudeDegrees>
            </Position>
            <AltitudeMeters>1393.800048828125</AltitudeMeters>
            <DistanceMeters>NAN</DistanceMeters>
          </Trackpoint>
          <Trackpoint>
            <Time>2018-12-30T10:10:28.000Z</Time>
            <Position>
              <LatitudeDegrees>40.7696794532239437103271484375</LatitudeDegrees>
              <LongitudeDegrees>-4.0721637569367885589599609375</LongitudeDegrees>
            </Position>
            <AltitudeMeters>1393.800048828125</AltitudeMeters>
            <DistanceMeters>NAN</DistanceMeters>
          </Trackpoint>
          <Trackpoint>
            <Time>2018-12-30T10:10:29.000Z</Time>
            <Position>
              <LatitudeDegrees>40.76968909241259098052978515625</LatitudeDegrees>
              <LongitudeDegrees>-4.072170965373516082763671875</LongitudeDegrees>
            </Position>
            <AltitudeMeters>1394</AltitudeMeters>
            <DistanceMeters>NAN</DistanceMeters>
          </Trackpoint>
          <Trackpoint>
            <Time>2018-12-30T10:10:30.000Z</Time>
            <Position>
              <LatitudeDegrees>40.76970283873379230499267578125</LatitudeDegrees>
              <LongitudeDegrees>-4.072173647582530975341796875</LongitudeDegrees>
            </Position>
            <AltitudeMeters>1394.199951171875</AltitudeMeters>
            <DistanceMeters>NAN</DistanceMeters>
          </Trackpoint>
          <Trackpoint>
            <Time>2018-12-30T10:10:31.000Z</Time>
            <Position>
              <LatitudeDegrees>40.76971574686467647552490234375</LatitudeDegrees>
              <LongitudeDegrees>-4.07218093983829021453857421875</LongitudeDegrees>
            </Position>
            <AltitudeMeters>1394.199951171875</AltitudeMeters>
            <DistanceMeters>NAN</DistanceMeters>
          </Trackpoint>
          <Trackpoint>
            <Time>2018-12-30T10:10:32.000Z</Time>
            <Position>
              <LatitudeDegrees>40.76973401941359043121337890625</LatitudeDegrees>
              <LongitudeDegrees>-4.072189070284366607666015625</LongitudeDegrees>
            </Position>
            <AltitudeMeters>1394.4000244140625</AltitudeMeters>
            <DistanceMeters>NAN</DistanceMeters>
          </Trackpoint>
          <Trackpoint>
            <Time>2018-12-30T10:10:33.000Z</Time>
            <Position>
              <LatitudeDegrees>40.7697455026209354400634765625</LatitudeDegrees>
              <LongitudeDegrees>-4.0721892379224300384521484375</LongitudeDegrees>
            </Position>
            <AltitudeMeters>1394.5999755859375</AltitudeMeters>
            <DistanceMeters>NAN</DistanceMeters>
          </Trackpoint>
          <Trackpoint>
            <Time>2018-12-30T10:10:34.000Z</Time>
            <Position>
              <LatitudeDegrees>40.769757740199565887451171875</LatitudeDegrees>
              <LongitudeDegrees>-4.07218932174146175384521484375</LongitudeDegrees>
            </Position>
            <AltitudeMeters>1394.800048828125</AltitudeMeters>
            <DistanceMeters>NAN</DistanceMeters>
          </Trackpoint>
          <Trackpoint>
            <Time>2018-12-30T10:10:35.000Z</Time>
            <Position>
              <LatitudeDegrees>40.76977341435849666595458984375</LatitudeDegrees>
              <LongitudeDegrees>-4.072191752493381500244140625</LongitudeDegrees>
            </Position>
            <AltitudeMeters>1395</AltitudeMeters>
            <DistanceMeters>NAN</DistanceMeters>
          </Trackpoint>
          <Trackpoint>
            <Time>2018-12-30T10:10:36.000Z</Time>
            <Position>
              <LatitudeDegrees>40.76978288590908050537109375</LatitudeDegrees>
              <LongitudeDegrees>-4.072199799120426177978515625</LongitudeDegrees>
            </Position>
            <AltitudeMeters>1395.199951171875</AltitudeMeters>
            <DistanceMeters>NAN</DistanceMeters>
          </Trackpoint>
          <Trackpoint>
            <Time>2018-12-30T10:10:37.000Z</Time>
            <Position>
              <LatitudeDegrees>40.769791938364505767822265625</LatitudeDegrees>
              <LongitudeDegrees>-4.0722026489675045013427734375</LongitudeDegrees>
            </Position>
            <AltitudeMeters>1395.199951171875</AltitudeMeters>
            <DistanceMeters>NAN</DistanceMeters>
          </Trackpoint>
          <Trackpoint>
            <Time>2018-12-30T10:10:38.000Z</Time>
            <Position>
              <LatitudeDegrees>40.7698008231818675994873046875</LatitudeDegrees>
              <LongitudeDegrees>-4.0722060017287731170654296875</LongitudeDegrees>
            </Position>
            <AltitudeMeters>1395.199951171875</AltitudeMeters>
            <DistanceMeters>NAN</DistanceMeters>
          </Trackpoint>
          <Trackpoint>
            <Time>2018-12-30T10:10:39.000Z</Time>
            <Position>
              <LatitudeDegrees>40.769808702170848846435546875</LatitudeDegrees>
              <LongitudeDegrees>-4.07220893539488315582275390625</LongitudeDegrees>
            </Position>
            <AltitudeMeters>1395.4000244140625</AltitudeMeters>
            <DistanceMeters>NAN</DistanceMeters>
          </Trackpoint>
          <Trackpoint>
            <Time>2018-12-30T10:10:40.000Z</Time>
            <Position>
              <LatitudeDegrees>40.76981641352176666259765625</LatitudeDegrees>
              <LongitudeDegrees>-4.07221279107034206390380859375</LongitudeDegrees>
            </Position>
            <AltitudeMeters>1395.199951171875</AltitudeMeters>
            <DistanceMeters>NAN</DistanceMeters>
          </Trackpoint>
          <Trackpoint>
            <Time>2018-12-30T10:10:41.000Z</Time>
            <Position>
              <LatitudeDegrees>40.7698263041675090789794921875</LatitudeDegrees>
              <LongitudeDegrees>-4.072215557098388671875</LongitudeDegrees>
            </Position>
            <AltitudeMeters>1395.199951171875</AltitudeMeters>
            <DistanceMeters>NAN</DistanceMeters>
          </Trackpoint>
          <Trackpoint>
            <Time>2018-12-30T10:10:42.000Z</Time>
            <Position>
              <LatitudeDegrees>40.76983711682260036468505859375</LatitudeDegrees>
              <LongitudeDegrees>-4.07221631146967411041259765625</LongitudeDegrees>
            </Position>
            <AltitudeMeters>1395.199951171875</AltitudeMeters>
            <DistanceMeters>NAN</DistanceMeters>
          </Trackpoint>
          <Trackpoint>
            <Time>2018-12-30T10:10:43.000Z</Time>
            <Position>
              <LatitudeDegrees>40.769847594201564788818359375</LatitudeDegrees>
              <LongitudeDegrees>-4.07221731729805469512939453125</LongitudeDegrees>
            </Position>
            <AltitudeMeters>1395.199951171875</AltitudeMeters>
            <DistanceMeters>NAN</DistanceMeters>
          </Trackpoint>
          <Trackpoint>
            <Time>2018-12-30T10:10:44.000Z</Time>
            <Position>
              <LatitudeDegrees>40.76985874213278293609619140625</LatitudeDegrees>
              <LongitudeDegrees>-4.07221597619354724884033203125</LongitudeDegrees>
            </Position>
            <AltitudeMeters>1395.4000244140625</AltitudeMeters>
            <DistanceMeters>NAN</DistanceMeters>
          </Trackpoint>
          <Trackpoint>
            <Time>2018-12-30T10:10:45.000Z</Time>
            <Position>
              <LatitudeDegrees>40.769868381321430206298828125</LatitudeDegrees>
              <LongitudeDegrees>-4.0722096897661685943603515625</LongitudeDegrees>
            </Position>
            <AltitudeMeters>1395.800048828125</AltitudeMeters>
            <DistanceMeters>NAN</DistanceMeters>
          </Trackpoint>
          <Trackpoint>
            <Time>2018-12-30T10:10:46.000Z</Time>
            <Position>
              <LatitudeDegrees>40.76988170854747295379638671875</LatitudeDegrees>
              <LongitudeDegrees>-4.07221094705164432525634765625</LongitudeDegrees>
            </Position>
            <AltitudeMeters>1396</AltitudeMeters>
            <DistanceMeters>NAN</DistanceMeters>
          </Trackpoint>
          <Trackpoint>
            <Time>2018-12-30T10:10:47.000Z</Time>
            <Position>
              <LatitudeDegrees>40.76989646069705486297607421875</LatitudeDegrees>
              <LongitudeDegrees>-4.0722143836319446563720703125</LongitudeDegrees>
            </Position>
            <AltitudeMeters>1396.199951171875</AltitudeMeters>
            <DistanceMeters>NAN</DistanceMeters>
          </Trackpoint>
          <Trackpoint>
            <Time>2018-12-30T10:10:48.000Z</Time>
            <Position>
              <LatitudeDegrees>40.76990894973278045654296875</LatitudeDegrees>
              <LongitudeDegrees>-4.07220692373812198638916015625</LongitudeDegrees>
            </Position>
            <AltitudeMeters>1396.4000244140625</AltitudeMeters>
            <DistanceMeters>NAN</DistanceMeters>
          </Trackpoint>
          <Trackpoint>
            <Time>2018-12-30T10:10:49.000Z</Time>
            <Position>
              <LatitudeDegrees>40.76991590671241283416748046875</LatitudeDegrees>
              <LongitudeDegrees>-4.0722023136913776397705078125</LongitudeDegrees>
            </Position>
            <AltitudeMeters>1396.4000244140625</AltitudeMeters>
            <DistanceMeters>NAN</DistanceMeters>
          </Trackpoint>
          <Trackpoint>
            <Time>2018-12-30T10:10:50.000Z</Time>
            <Position>
              <LatitudeDegrees>40.76992596499621868133544921875</LatitudeDegrees>
              <LongitudeDegrees>-4.07219946384429931640625</LongitudeDegrees>
            </Position>
            <AltitudeMeters>1396.5999755859375</AltitudeMeters>
            <DistanceMeters>NAN</DistanceMeters>
          </Trackpoint>
          <Trackpoint>
            <Time>2018-12-30T10:10:51.000Z</Time>
            <Position>
              <LatitudeDegrees>40.7699305750429630279541015625</LatitudeDegrees>
              <LongitudeDegrees>-4.07218898646533489227294921875</LongitudeDegrees>
            </Position>
            <AltitudeMeters>1396.5999755859375</AltitudeMeters>
            <DistanceMeters>NAN</DistanceMeters>
          </Trackpoint>
          <Trackpoint>
            <Time>2018-12-30T10:10:52.000Z</Time>
            <Position>
              <LatitudeDegrees>40.76993954367935657501220703125</LatitudeDegrees>
              <LongitudeDegrees>-4.0721808560192584991455078125</LongitudeDegrees>
            </Position>
            <AltitudeMeters>1396.800048828125</AltitudeMeters>
            <DistanceMeters>NAN</DistanceMeters>
          </Trackpoint>
          <Trackpoint>
            <Time>2018-12-30T10:10:53.000Z</Time>
            <Position>
              <LatitudeDegrees>40.7699490152299404144287109375</LatitudeDegrees>
              <LongitudeDegrees>-4.07217306084930896759033203125</LongitudeDegrees>
            </Position>
            <AltitudeMeters>1397</AltitudeMeters>
            <DistanceMeters>NAN</DistanceMeters>
          </Trackpoint>
          <Trackpoint>
            <Time>2018-12-30T10:10:54.000Z</Time>
            <Position>
              <LatitudeDegrees>40.7699560560286045074462890625</LatitudeDegrees>
              <LongitudeDegrees>-4.0721691213548183441162109375</LongitudeDegrees>
            </Position>
            <AltitudeMeters>1397</AltitudeMeters>
            <DistanceMeters>NAN</DistanceMeters>
          </Trackpoint>
          <Trackpoint>
            <Time>2018-12-30T10:10:55.000Z</Time>
            <Position>
              <LatitudeDegrees>40.76996351592242717742919921875</LatitudeDegrees>
              <LongitudeDegrees>-4.07216803170740604400634765625</LongitudeDegrees>
            </Position>
            <AltitudeMeters>1397.199951171875</AltitudeMeters>
            <DistanceMeters>NAN</DistanceMeters>
          </Trackpoint>
          <Trackpoint>
            <Time>2018-12-30T10:10:56.000Z</Time>
            <Position>
              <LatitudeDegrees>40.7699726521968841552734375</LatitudeDegrees>
              <LongitudeDegrees>-4.072164259850978851318359375</LongitudeDegrees>
            </Position>
            <AltitudeMeters>1397.4000244140625</AltitudeMeters>
            <DistanceMeters>NAN</DistanceMeters>
          </Trackpoint>
          <Trackpoint>
            <Time>2018-12-30T10:10:57.000Z</Time>
            <Position>
              <LatitudeDegrees>40.769981704652309417724609375</LatitudeDegrees>
              <LongitudeDegrees>-4.0721674449741840362548828125</LongitudeDegrees>
            </Position>
            <AltitudeMeters>1397.4000244140625</AltitudeMeters>
            <DistanceMeters>NAN</DistanceMeters>
          </Trackpoint>
          <Trackpoint>
            <Time>2018-12-30T10:10:58.000Z</Time>
            <Position>
              <LatitudeDegrees>40.77000978402793407440185546875</LatitudeDegrees>
              <LongitudeDegrees>-4.072177000343799591064453125</LongitudeDegrees>
            </Position>
            <AltitudeMeters>1397.5999755859375</AltitudeMeters>
            <DistanceMeters>NAN</DistanceMeters>
          </Trackpoint>
          <Trackpoint>
            <Time>2018-12-30T10:10:59.000Z</Time>
            <Position>
              <LatitudeDegrees>40.77000978402793407440185546875</LatitudeDegrees>
              <LongitudeDegrees>-4.072177000343799591064453125</LongitudeDegrees>
            </Position>
            <AltitudeMeters>1397.5999755859375</AltitudeMeters>
            <DistanceMeters>NAN</DistanceMeters>
          </Trackpoint>
          <Trackpoint>
            <Time>2018-12-30T10:11:00.000Z</Time>
            <Position>
              <LatitudeDegrees>40.770023949444293975830078125</LatitudeDegrees>
              <LongitudeDegrees>-4.07218228094279766082763671875</LongitudeDegrees>
            </Position>
            <AltitudeMeters>1397.5999755859375</AltitudeMeters>
            <DistanceMeters>NAN</DistanceMeters>
          </Trackpoint>
          <Trackpoint>
            <Time>2018-12-30T10:11:01.000Z</Time>
            <Position>
              <LatitudeDegrees>40.77003928832709789276123046875</LatitudeDegrees>
              <LongitudeDegrees>-4.07218479551374912261962890625</LongitudeDegrees>
            </Position>
            <AltitudeMeters>1397.5999755859375</AltitudeMeters>
            <DistanceMeters>NAN</DistanceMeters>
          </Trackpoint>
          <Trackpoint>
            <Time>2018-12-30T10:11:02.000Z</Time>
            <Position>
              <LatitudeDegrees>40.77005244791507720947265625</LatitudeDegrees>
              <LongitudeDegrees>-4.072184376418590545654296875</LongitudeDegrees>
            </Position>
            <AltitudeMeters>1397.5999755859375</AltitudeMeters>
            <DistanceMeters>NAN</DistanceMeters>
          </Trackpoint>
          <Trackpoint>
            <Time>2018-12-30T10:11:03.000Z</Time>
            <Position>
              <LatitudeDegrees>40.77006720006465911865234375</LatitudeDegrees>
              <LongitudeDegrees>-4.07219133339822292327880859375</LongitudeDegrees>
            </Position>
            <AltitudeMeters>1397.5999755859375</AltitudeMeters>
            <DistanceMeters>NAN</DistanceMeters>
          </Trackpoint>
          <Trackpoint>
            <Time>2018-12-30T10:11:04.000Z</Time>
            <Position>
              <LatitudeDegrees>40.77007667161524295806884765625</LatitudeDegrees>
              <LongitudeDegrees>-4.07219317741692066192626953125</LongitudeDegrees>
            </Position>
            <AltitudeMeters>1397.800048828125</AltitudeMeters>
            <DistanceMeters>NAN</DistanceMeters>
          </Trackpoint>
          <Trackpoint>
            <Time>2018-12-30T10:11:05.000Z</Time>
            <Position>
              <LatitudeDegrees>40.7700834609568119049072265625</LatitudeDegrees>
              <LongitudeDegrees>-4.07219569198787212371826171875</LongitudeDegrees>
            </Position>
            <AltitudeMeters>1397.800048828125</AltitudeMeters>
            <DistanceMeters>NAN</DistanceMeters>
          </Trackpoint>
          <Trackpoint>
            <Time>2018-12-30T10:11:06.000Z</Time>
            <Position>
              <LatitudeDegrees>40.77009175904095172882080078125</LatitudeDegrees>
              <LongitudeDegrees>-4.07219418324530124664306640625</LongitudeDegrees>
            </Position>
            <AltitudeMeters>1398</AltitudeMeters>
            <DistanceMeters>NAN</DistanceMeters>
          </Trackpoint>
          <Trackpoint>
            <Time>2018-12-30T10:11:07.000Z</Time>
            <Position>
              <LatitudeDegrees>40.770096369087696075439453125</LatitudeDegrees>
              <LongitudeDegrees>-4.07218663953244686126708984375</LongitudeDegrees>
            </Position>
            <AltitudeMeters>1398</AltitudeMeters>
            <DistanceMeters>NAN</DistanceMeters>
          </Trackpoint>
          <Trackpoint>
            <Time>2018-12-30T10:11:08.000Z</Time>
            <Position>
              <LatitudeDegrees>40.77010282315313816070556640625</LatitudeDegrees>
              <LongitudeDegrees>-4.07217725180089473724365234375</LongitudeDegrees>
            </Position>
            <AltitudeMeters>1398.199951171875</AltitudeMeters>
            <DistanceMeters>NAN</DistanceMeters>
          </Trackpoint>
          <Trackpoint>
            <Time>2018-12-30T10:11:09.000Z</Time>
            <Position>
              <LatitudeDegrees>40.77011011540889739990234375</LatitudeDegrees>
              <LongitudeDegrees>-4.0721734799444675445556640625</LongitudeDegrees>
            </Position>
            <AltitudeMeters>1398.199951171875</AltitudeMeters>
            <DistanceMeters>NAN</DistanceMeters>
          </Trackpoint>
          <Trackpoint>
            <Time>2018-12-30T10:11:10.000Z</Time>
            <Position>
              <LatitudeDegrees>40.770119838416576385498046875</LatitudeDegrees>
              <LongitudeDegrees>-4.07216602005064487457275390625</LongitudeDegrees>
            </Position>
            <AltitudeMeters>1398.4000244140625</AltitudeMeters>
            <DistanceMeters>NAN</DistanceMeters>
          </Trackpoint>
          <Trackpoint>
            <Time>2018-12-30T10:11:11.000Z</Time>
            <Position>
              <LatitudeDegrees>40.77012947760522365570068359375</LatitudeDegrees>
              <LongitudeDegrees>-4.07216333784162998199462890625</LongitudeDegrees>
            </Position>
            <AltitudeMeters>1398.5999755859375</AltitudeMeters>
            <DistanceMeters>NAN</DistanceMeters>
          </Trackpoint>
          <Trackpoint>
            <Time>2018-12-30T10:11:12.000Z</Time>
            <Position>
              <LatitudeDegrees>40.77013920061290264129638671875</LatitudeDegrees>
              <LongitudeDegrees>-4.07214992679655551910400390625</LongitudeDegrees>
            </Position>
            <AltitudeMeters>1398.800048828125</AltitudeMeters>
            <DistanceMeters>NAN</DistanceMeters>
          </Trackpoint>
          <Trackpoint>
            <Time>2018-12-30T10:11:13.000Z</Time>
            <Position>
              <LatitudeDegrees>40.770148001611232757568359375</LatitudeDegrees>
              <LongitudeDegrees>-4.0721433050930500030517578125</LongitudeDegrees>
            </Position>
            <AltitudeMeters>1399</AltitudeMeters>
            <DistanceMeters>NAN</DistanceMeters>
          </Trackpoint>
          <Trackpoint>
            <Time>2018-12-30T10:11:14.000Z</Time>
            <Position>
              <LatitudeDegrees>40.7701562158763408660888671875</LatitudeDegrees>
              <LongitudeDegrees>-4.07214112579822540283203125</LongitudeDegrees>
            </Position>
            <AltitudeMeters>1399.199951171875</AltitudeMeters>
            <DistanceMeters>NAN</DistanceMeters>
          </Trackpoint>
          <Trackpoint>
            <Time>2018-12-30T10:11:15.000Z</Time>
            <Position>
              <LatitudeDegrees>40.770165435969829559326171875</LatitudeDegrees>
              <LongitudeDegrees>-4.07213165424764156341552734375</LongitudeDegrees>
            </Position>
            <AltitudeMeters>1399.4000244140625</AltitudeMeters>
            <DistanceMeters>NAN</DistanceMeters>
          </Trackpoint>
          <Trackpoint>
            <Time>2018-12-30T10:11:16.000Z</Time>
            <Position>
              <LatitudeDegrees>40.77017524279654026031494140625</LatitudeDegrees>
              <LongitudeDegrees>-4.07213148660957813262939453125</LongitudeDegrees>
            </Position>
            <AltitudeMeters>1399.5999755859375</AltitudeMeters>
            <DistanceMeters>NAN</DistanceMeters>
          </Trackpoint>
          <Trackpoint>
            <Time>2018-12-30T10:11:17.000Z</Time>
            <Position>
              <LatitudeDegrees>40.77018697746098041534423828125</LatitudeDegrees>
              <LongitudeDegrees>-4.07213173806667327880859375</LongitudeDegrees>
            </Position>
            <AltitudeMeters>1399.800048828125</AltitudeMeters>
            <DistanceMeters>NAN</DistanceMeters>
          </Trackpoint>
          <Trackpoint>
            <Time>2018-12-30T10:11:18.000Z</Time>
            <Position>
              <LatitudeDegrees>40.77019971795380115509033203125</LatitudeDegrees>
              <LongitudeDegrees>-4.072129391133785247802734375</LongitudeDegrees>
            </Position>
            <AltitudeMeters>1400</AltitudeMeters>
            <DistanceMeters>NAN</DistanceMeters>
          </Trackpoint>
          <Trackpoint>
            <Time>2018-12-30T10:11:19.000Z</Time>
            <Position>
              <LatitudeDegrees>40.77020994387567043304443359375</LatitudeDegrees>
              <LongitudeDegrees>-4.0721308998763561248779296875</LongitudeDegrees>
            </Position>
            <AltitudeMeters>1400</AltitudeMeters>
            <DistanceMeters>NAN</DistanceMeters>
          </Trackpoint>
          <Trackpoint>
            <Time>2018-12-30T10:11:20.000Z</Time>
            <Position>
              <LatitudeDegrees>40.77022033743560314178466796875</LatitudeDegrees>
              <LongitudeDegrees>-4.07213416881859302520751953125</LongitudeDegrees>
            </Position>
            <AltitudeMeters>1400</AltitudeMeters>
            <DistanceMeters>NAN</DistanceMeters>
          </Trackpoint>
          <Trackpoint>
            <Time>2018-12-30T10:11:21.000Z</Time>
            <Position>
              <LatitudeDegrees>40.770232491195201873779296875</LatitudeDegrees>
              <LongitudeDegrees>-4.07213215716183185577392578125</LongitudeDegrees>
            </Position>
            <AltitudeMeters>1400.199951171875</AltitudeMeters>
            <DistanceMeters>NAN</DistanceMeters>
          </Trackpoint>
          <Trackpoint>
            <Time>2018-12-30T10:11:22.000Z</Time>
            <Position>
              <LatitudeDegrees>40.77024363912642002105712890625</LatitudeDegrees>
              <LongitudeDegrees>-4.07212628982961177825927734375</LongitudeDegrees>
            </Position>
            <AltitudeMeters>1400.199951171875</AltitudeMeters>
            <DistanceMeters>NAN</DistanceMeters>
          </Trackpoint>
          <Trackpoint>
            <Time>2018-12-30T10:11:23.000Z</Time>
            <Position>
              <LatitudeDegrees>40.770255625247955322265625</LatitudeDegrees>
              <LongitudeDegrees>-4.072127044200897216796875</LongitudeDegrees>
            </Position>
            <AltitudeMeters>1400.4000244140625</AltitudeMeters>
            <DistanceMeters>NAN</DistanceMeters>
          </Trackpoint>
          <Trackpoint>
            <Time>2018-12-30T10:11:24.000Z</Time>
            <Position>
              <LatitudeDegrees>40.77026610262691974639892578125</LatitudeDegrees>
              <LongitudeDegrees>-4.0721215121448040008544921875</LongitudeDegrees>
            </Position>
            <AltitudeMeters>1400.4000244140625</AltitudeMeters>
            <DistanceMeters>NAN</DistanceMeters>
          </Trackpoint>
          <Trackpoint>
            <Time>2018-12-30T10:11:25.000Z</Time>
            <Position>
              <LatitudeDegrees>40.7702738977968692779541015625</LatitudeDegrees>
              <LongitudeDegrees>-4.07212461344897747039794921875</LongitudeDegrees>
            </Position>
            <AltitudeMeters>1400.5999755859375</AltitudeMeters>
            <DistanceMeters>NAN</DistanceMeters>
          </Trackpoint>
          <Trackpoint>
            <Time>2018-12-30T10:11:26.000Z</Time>
            <Position>
              <LatitudeDegrees>40.7702829502522945404052734375</LatitudeDegrees>
              <LongitudeDegrees>-4.07211757265031337738037109375</LongitudeDegrees>
            </Position>
            <AltitudeMeters>1400.5999755859375</AltitudeMeters>
            <DistanceMeters>NAN</DistanceMeters>
          </Trackpoint>
          <Trackpoint>
            <Time>2018-12-30T10:11:27.000Z</Time>
            <Position>
              <LatitudeDegrees>40.77029476873576641082763671875</LatitudeDegrees>
              <LongitudeDegrees>-4.07211740501224994659423828125</LongitudeDegrees>
            </Position>
            <AltitudeMeters>1400.5999755859375</AltitudeMeters>
            <DistanceMeters>NAN</DistanceMeters>
          </Trackpoint>
          <Trackpoint>
            <Time>2018-12-30T10:11:28.000Z</Time>
            <Position>
              <LatitudeDegrees>40.77030885033309459686279296875</LatitudeDegrees>
              <LongitudeDegrees>-4.072122015058994293212890625</LongitudeDegrees>
            </Position>
            <AltitudeMeters>1400.800048828125</AltitudeMeters>
            <DistanceMeters>NAN</DistanceMeters>
          </Trackpoint>
          <Trackpoint>
            <Time>2018-12-30T10:11:29.000Z</Time>
            <Position>
              <LatitudeDegrees>40.77032226137816905975341796875</LatitudeDegrees>
              <LongitudeDegrees>-4.07211656682193279266357421875</LongitudeDegrees>
            </Position>
            <AltitudeMeters>1400.800048828125</AltitudeMeters>
            <DistanceMeters>NAN</DistanceMeters>
          </Trackpoint>
          <Trackpoint>
            <Time>2018-12-30T10:11:30.000Z</Time>
            <Position>
              <LatitudeDegrees>40.770334415137767791748046875</LatitudeDegrees>
              <LongitudeDegrees>-4.07211807556450366973876953125</LongitudeDegrees>
            </Position>
            <AltitudeMeters>1400.800048828125</AltitudeMeters>
            <DistanceMeters>NAN</DistanceMeters>
          </Trackpoint>
          <Trackpoint>
            <Time>2018-12-30T10:11:31.000Z</Time>
            <Position>
              <LatitudeDegrees>40.77034221030771732330322265625</LatitudeDegrees>
              <LongitudeDegrees>-4.0721171535551548004150390625</LongitudeDegrees>
            </Position>
            <AltitudeMeters>1401</AltitudeMeters>
            <DistanceMeters>NAN</DistanceMeters>
          </Trackpoint>
          <Trackpoint>
            <Time>2018-12-30T10:11:32.000Z</Time>
            <Position>
              <LatitudeDegrees>40.77035059221088886260986328125</LatitudeDegrees>
              <LongitudeDegrees>-4.0721154771745204925537109375</LongitudeDegrees>
            </Position>
            <AltitudeMeters>1401.199951171875</AltitudeMeters>
            <DistanceMeters>NAN</DistanceMeters>
          </Trackpoint>
          <Trackpoint>
            <Time>2018-12-30T10:11:33.000Z</Time>
            <Position>
              <LatitudeDegrees>40.7703573815524578094482421875</LatitudeDegrees>
              <LongitudeDegrees>-4.0721141360700130462646484375</LongitudeDegrees>
            </Position>
            <AltitudeMeters>1401.199951171875</AltitudeMeters>
            <DistanceMeters>NAN</DistanceMeters>
          </Trackpoint>
          <Trackpoint>
            <Time>2018-12-30T10:11:34.000Z</Time>
            <Position>
              <LatitudeDegrees>40.77036358416080474853515625</LatitudeDegrees>
              <LongitudeDegrees>-4.07210986129939556121826171875</LongitudeDegrees>
            </Position>
            <AltitudeMeters>1401.4000244140625</AltitudeMeters>
            <DistanceMeters>NAN</DistanceMeters>
          </Trackpoint>
          <Trackpoint>
            <Time>2018-12-30T10:11:35.000Z</Time>
            <Position>
              <LatitudeDegrees>40.77036953531205654144287109375</LatitudeDegrees>
              <LongitudeDegrees>-4.0721064247190952301025390625</LongitudeDegrees>
            </Position>
            <AltitudeMeters>1401.5999755859375</AltitudeMeters>
            <DistanceMeters>NAN</DistanceMeters>
          </Trackpoint>
          <Trackpoint>
            <Time>2018-12-30T10:11:36.000Z</Time>
            <Position>
              <LatitudeDegrees>40.77037590555846691131591796875</LatitudeDegrees>
              <LongitudeDegrees>-4.07211086712777614593505859375</LongitudeDegrees>
            </Position>
            <AltitudeMeters>1401.5999755859375</AltitudeMeters>
            <DistanceMeters>NAN</DistanceMeters>
          </Trackpoint>
          <Trackpoint>
            <Time>2018-12-30T10:11:37.000Z</Time>
            <Position>
              <LatitudeDegrees>40.7703825272619724273681640625</LatitudeDegrees>
              <LongitudeDegrees>-4.0721101127564907073974609375</LongitudeDegrees>
            </Position>
            <AltitudeMeters>1401.800048828125</AltitudeMeters>
            <DistanceMeters>NAN</DistanceMeters>
          </Trackpoint>
          <Trackpoint>
            <Time>2018-12-30T10:11:38.000Z</Time>
            <Position>
              <LatitudeDegrees>40.77039434574544429779052734375</LatitudeDegrees>
              <LongitudeDegrees>-4.0721124596893787384033203125</LongitudeDegrees>
            </Position>
            <AltitudeMeters>1402</AltitudeMeters>
            <DistanceMeters>NAN</DistanceMeters>
          </Trackpoint>
          <Trackpoint>
            <Time>2018-12-30T10:11:39.000Z</Time>
            <Position>
              <LatitudeDegrees>40.77040490694344043731689453125</LatitudeDegrees>
              <LongitudeDegrees>-4.0721154771745204925537109375</LongitudeDegrees>
            </Position>
            <AltitudeMeters>1402.4000244140625</AltitudeMeters>
            <DistanceMeters>NAN</DistanceMeters>
          </Trackpoint>
          <Trackpoint>
            <Time>2018-12-30T10:11:40.000Z</Time>
            <Position>
              <LatitudeDegrees>40.7704140432178974151611328125</LatitudeDegrees>
              <LongitudeDegrees>-4.072117321193218231201171875</LongitudeDegrees>
            </Position>
            <AltitudeMeters>1402.5999755859375</AltitudeMeters>
            <DistanceMeters>NAN</DistanceMeters>
          </Trackpoint>
          <Trackpoint>
            <Time>2018-12-30T10:11:41.000Z</Time>
            <Position>
              <LatitudeDegrees>40.77041798271238803863525390625</LatitudeDegrees>
              <LongitudeDegrees>-4.0721201710402965545654296875</LongitudeDegrees>
            </Position>
            <AltitudeMeters>1403</AltitudeMeters>
            <DistanceMeters>NAN</DistanceMeters>
          </Trackpoint>
          <Trackpoint>
            <Time>2018-12-30T10:11:42.000Z</Time>
            <Position>
              <LatitudeDegrees>40.7704190723598003387451171875</LatitudeDegrees>
              <LongitudeDegrees>-4.07212746329605579376220703125</LongitudeDegrees>
            </Position>
            <AltitudeMeters>1403.4000244140625</AltitudeMeters>
            <DistanceMeters>NAN</DistanceMeters>
          </Trackpoint>
          <Trackpoint>
            <Time>2018-12-30T10:11:43.000Z</Time>
            <Position>
              <LatitudeDegrees>40.770425610244274139404296875</LatitudeDegrees>
              <LongitudeDegrees>-4.0721365995705127716064453125</LongitudeDegrees>
            </Position>
            <AltitudeMeters>1403.800048828125</AltitudeMeters>
            <DistanceMeters>NAN</DistanceMeters>
          </Trackpoint>
          <Trackpoint>
            <Time>2018-12-30T10:11:44.000Z</Time>
            <Position>
              <LatitudeDegrees>40.770435668528079986572265625</LatitudeDegrees>
              <LongitudeDegrees>-4.07214573584496974945068359375</LongitudeDegrees>
            </Position>
            <AltitudeMeters>1404</AltitudeMeters>
            <DistanceMeters>NAN</DistanceMeters>
          </Trackpoint>
          <Trackpoint>
            <Time>2018-12-30T10:11:45.000Z</Time>
            <Position>
              <LatitudeDegrees>40.7704448886215686798095703125</LatitudeDegrees>
              <LongitudeDegrees>-4.07215344719588756561279296875</LongitudeDegrees>
            </Position>
            <AltitudeMeters>1404</AltitudeMeters>
            <DistanceMeters>NAN</DistanceMeters>
          </Trackpoint>
          <Trackpoint>
            <Time>2018-12-30T10:11:46.000Z</Time>
            <Position>
              <LatitudeDegrees>40.7704536058008670806884765625</LatitudeDegrees>
              <LongitudeDegrees>-4.07215319573879241943359375</LongitudeDegrees>
            </Position>
            <AltitudeMeters>1404</AltitudeMeters>
            <DistanceMeters>NAN</DistanceMeters>
          </Trackpoint>
          <Trackpoint>
            <Time>2018-12-30T10:11:47.000Z</Time>
            <Position>
              <LatitudeDegrees>40.770463161170482635498046875</LatitudeDegrees>
              <LongitudeDegrees>-4.072157554328441619873046875</LongitudeDegrees>
            </Position>
            <AltitudeMeters>1404.199951171875</AltitudeMeters>
            <DistanceMeters>NAN</DistanceMeters>
          </Trackpoint>
          <Trackpoint>
            <Time>2018-12-30T10:11:48.000Z</Time>
            <Position>
              <LatitudeDegrees>40.77047355473041534423828125</LatitudeDegrees>
              <LongitudeDegrees>-4.072164595127105712890625</LongitudeDegrees>
            </Position>
            <AltitudeMeters>1404.199951171875</AltitudeMeters>
            <DistanceMeters>NAN</DistanceMeters>
          </Trackpoint>
          <Trackpoint>
            <Time>2018-12-30T10:11:49.000Z</Time>
            <Position>
              <LatitudeDegrees>40.77048386447131633758544921875</LatitudeDegrees>
              <LongitudeDegrees>-4.07216216437518596649169921875</LongitudeDegrees>
            </Position>
            <AltitudeMeters>1404.4000244140625</AltitudeMeters>
            <DistanceMeters>NAN</DistanceMeters>
          </Trackpoint>
          <Trackpoint>
            <Time>2018-12-30T10:11:50.000Z</Time>
            <Position>
              <LatitudeDegrees>40.77049459330737590789794921875</LatitudeDegrees>
              <LongitudeDegrees>-4.072160236537456512451171875</LongitudeDegrees>
            </Position>
            <AltitudeMeters>1404.4000244140625</AltitudeMeters>
            <DistanceMeters>NAN</DistanceMeters>
          </Trackpoint>
          <Trackpoint>
            <Time>2018-12-30T10:11:51.000Z</Time>
            <Position>
              <LatitudeDegrees>40.77050498686730861663818359375</LatitudeDegrees>
              <LongitudeDegrees>-4.07215830869972705841064453125</LongitudeDegrees>
            </Position>
            <AltitudeMeters>1404.5999755859375</AltitudeMeters>
            <DistanceMeters>NAN</DistanceMeters>
          </Trackpoint>
          <Trackpoint>
            <Time>2018-12-30T10:11:52.000Z</Time>
            <Position>
              <LatitudeDegrees>40.77051378786563873291015625</LatitudeDegrees>
              <LongitudeDegrees>-4.07215780578553676605224609375</LongitudeDegrees>
            </Position>
            <AltitudeMeters>1404.5999755859375</AltitudeMeters>
            <DistanceMeters>NAN</DistanceMeters>
          </Trackpoint>
          <Trackpoint>
            <Time>2018-12-30T10:11:53.000Z</Time>
            <Position>
              <LatitudeDegrees>40.77052543871104717254638671875</LatitudeDegrees>
              <LongitudeDegrees>-4.0721630863845348358154296875</LongitudeDegrees>
            </Position>
            <AltitudeMeters>1404.5999755859375</AltitudeMeters>
            <DistanceMeters>NAN</DistanceMeters>
          </Trackpoint>
          <Trackpoint>
            <Time>2018-12-30T10:11:54.000Z</Time>
            <Position>
              <LatitudeDegrees>40.7705374248325824737548828125</LatitudeDegrees>
              <LongitudeDegrees>-4.07216752879321575164794921875</LongitudeDegrees>
            </Position>
            <AltitudeMeters>1404.5999755859375</AltitudeMeters>
            <DistanceMeters>NAN</DistanceMeters>
          </Trackpoint>
          <Trackpoint>
            <Time>2018-12-30T10:11:55.000Z</Time>
            <Position>
              <LatitudeDegrees>40.770549662411212921142578125</LatitudeDegrees>
              <LongitudeDegrees>-4.072168283164501190185546875</LongitudeDegrees>
            </Position>
            <AltitudeMeters>1404.800048828125</AltitudeMeters>
            <DistanceMeters>NAN</DistanceMeters>
          </Trackpoint>
          <Trackpoint>
            <Time>2018-12-30T10:11:56.000Z</Time>
            <Position>
              <LatitudeDegrees>40.7705605588853359222412109375</LatitudeDegrees>
              <LongitudeDegrees>-4.07216467894613742828369140625</LongitudeDegrees>
            </Position>
            <AltitudeMeters>1405</AltitudeMeters>
            <DistanceMeters>NAN</DistanceMeters>
          </Trackpoint>
          <Trackpoint>
            <Time>2018-12-30T10:11:57.000Z</Time>
            <Position>
              <LatitudeDegrees>40.77057958580553531646728515625</LatitudeDegrees>
              <LongitudeDegrees>-4.07220306806266307830810546875</LongitudeDegrees>
            </Position>
            <AltitudeMeters>1405.199951171875</AltitudeMeters>
            <DistanceMeters>NAN</DistanceMeters>
          </Trackpoint>
          <Trackpoint>
            <Time>2018-12-30T10:11:58.000Z</Time>
            <Position>
              <LatitudeDegrees>40.77059148810803890228271484375</LatitudeDegrees>
              <LongitudeDegrees>-4.07221086323261260986328125</LongitudeDegrees>
            </Position>
            <AltitudeMeters>1405.5999755859375</AltitudeMeters>
            <DistanceMeters>NAN</DistanceMeters>
          </Trackpoint>
          <Trackpoint>
            <Time>2018-12-30T10:11:59.000Z</Time>
            <Position>
              <LatitudeDegrees>40.77059668488800525665283203125</LatitudeDegrees>
              <LongitudeDegrees>-4.07220927067101001739501953125</LongitudeDegrees>
            </Position>
            <AltitudeMeters>1405.5999755859375</AltitudeMeters>
            <DistanceMeters>NAN</DistanceMeters>
          </Trackpoint>
          <Trackpoint>
            <Time>2018-12-30T10:12:00.000Z</Time>
            <Position>
              <LatitudeDegrees>40.7706058211624622344970703125</LatitudeDegrees>
              <LongitudeDegrees>-4.07221564091742038726806640625</LongitudeDegrees>
            </Position>
            <AltitudeMeters>1406</AltitudeMeters>
            <DistanceMeters>NAN</DistanceMeters>
          </Trackpoint>
          <Trackpoint>
            <Time>2018-12-30T10:12:01.000Z</Time>
            <Position>
              <LatitudeDegrees>40.77061613090336322784423828125</LatitudeDegrees>
              <LongitudeDegrees>-4.0722210891544818878173828125</LongitudeDegrees>
            </Position>
            <AltitudeMeters>1406.199951171875</AltitudeMeters>
            <DistanceMeters>NAN</DistanceMeters>
          </Trackpoint>
          <Trackpoint>
            <Time>2018-12-30T10:12:02.000Z</Time>
            <Position>
              <LatitudeDegrees>40.77062350697815418243408203125</LatitudeDegrees>
              <LongitudeDegrees>-4.07222251407802104949951171875</LongitudeDegrees>
            </Position>
            <AltitudeMeters>1406.5999755859375</AltitudeMeters>
            <DistanceMeters>NAN</DistanceMeters>
          </Trackpoint>
          <Trackpoint>
            <Time>2018-12-30T10:12:03.000Z</Time>
            <Position>
              <LatitudeDegrees>40.77063406817615032196044921875</LatitudeDegrees>
              <LongitudeDegrees>-4.0722288005053997039794921875</LongitudeDegrees>
            </Position>
            <AltitudeMeters>1406.800048828125</AltitudeMeters>
            <DistanceMeters>NAN</DistanceMeters>
          </Trackpoint>
          <Trackpoint>
            <Time>2018-12-30T10:12:04.000Z</Time>
            <Position>
              <LatitudeDegrees>40.77064362354576587677001953125</LatitudeDegrees>
              <LongitudeDegrees>-4.0722318179905414581298828125</LongitudeDegrees>
            </Position>
            <AltitudeMeters>1407</AltitudeMeters>
            <DistanceMeters>NAN</DistanceMeters>
          </Trackpoint>
          <Trackpoint>
            <Time>2018-12-30T10:12:05.000Z</Time>
            <Position>
              <LatitudeDegrees>40.770652592182159423828125</LatitudeDegrees>
              <LongitudeDegrees>-4.0722341649234294891357421875</LongitudeDegrees>
            </Position>
            <AltitudeMeters>1407.199951171875</AltitudeMeters>
            <DistanceMeters>NAN</DistanceMeters>
          </Trackpoint>
          <Trackpoint>
            <Time>2018-12-30T10:12:06.000Z</Time>
            <Position>
              <LatitudeDegrees>40.77066189609467983245849609375</LatitudeDegrees>
              <LongitudeDegrees>-4.072234332561492919921875</LongitudeDegrees>
            </Position>
            <AltitudeMeters>1407.4000244140625</AltitudeMeters>
            <DistanceMeters>NAN</DistanceMeters>
          </Trackpoint>
          <Trackpoint>
            <Time>2018-12-30T10:12:07.000Z</Time>
            <Position>
              <LatitudeDegrees>40.77067078091204166412353515625</LatitudeDegrees>
              <LongitudeDegrees>-4.0722338296473026275634765625</LongitudeDegrees>
            </Position>
            <AltitudeMeters>1407.5999755859375</AltitudeMeters>
            <DistanceMeters>NAN</DistanceMeters>
          </Trackpoint>
          <Trackpoint>
            <Time>2018-12-30T10:12:08.000Z</Time>
            <Position>
              <LatitudeDegrees>40.77068234793841838836669921875</LatitudeDegrees>
              <LongitudeDegrees>-4.07223391346633434295654296875</LongitudeDegrees>
            </Position>
            <AltitudeMeters>1407.800048828125</AltitudeMeters>
            <DistanceMeters>NAN</DistanceMeters>
          </Trackpoint>
          <Trackpoint>
            <Time>2018-12-30T10:12:09.000Z</Time>
            <Position>
              <LatitudeDegrees>40.77070397324860095977783203125</LatitudeDegrees>
              <LongitudeDegrees>-4.0722428821027278900146484375</LongitudeDegrees>
            </Position>
            <AltitudeMeters>1408</AltitudeMeters>
            <DistanceMeters>NAN</DistanceMeters>
          </Trackpoint>
          <Trackpoint>
            <Time>2018-12-30T10:12:10.000Z</Time>
            <Position>
              <LatitudeDegrees>40.770714618265628814697265625</LatitudeDegrees>
              <LongitudeDegrees>-4.072242714464664459228515625</LongitudeDegrees>
            </Position>
            <AltitudeMeters>1408.199951171875</AltitudeMeters>
            <DistanceMeters>NAN</DistanceMeters>
          </Trackpoint>
          <Trackpoint>
            <Time>2018-12-30T10:12:11.000Z</Time>
            <Position>
              <LatitudeDegrees>40.77072593383491039276123046875</LatitudeDegrees>
              <LongitudeDegrees>-4.072242714464664459228515625</LongitudeDegrees>
            </Position>
            <AltitudeMeters>1408.4000244140625</AltitudeMeters>
            <DistanceMeters>NAN</DistanceMeters>
          </Trackpoint>
          <Trackpoint>
            <Time>2018-12-30T10:12:12.000Z</Time>
            <Position>
              <LatitudeDegrees>40.77074169181287288665771484375</LatitudeDegrees>
              <LongitudeDegrees>-4.0722452290356159210205078125</LongitudeDegrees>
            </Position>
            <AltitudeMeters>1408.5999755859375</AltitudeMeters>
            <DistanceMeters>NAN</DistanceMeters>
          </Trackpoint>
          <Trackpoint>
            <Time>2018-12-30T10:12:13.000Z</Time>
            <Position>
              <LatitudeDegrees>40.770756192505359649658203125</LatitudeDegrees>
              <LongitudeDegrees>-4.07224665395915508270263671875</LongitudeDegrees>
            </Position>
            <AltitudeMeters>1408.5999755859375</AltitudeMeters>
            <DistanceMeters>NAN</DistanceMeters>
          </Trackpoint>
          <Trackpoint>
            <Time>2018-12-30T10:12:14.000Z</Time>
            <Position>
              <LatitudeDegrees>40.770772285759449005126953125</LatitudeDegrees>
              <LongitudeDegrees>-4.07226048409938812255859375</LongitudeDegrees>
            </Position>
            <AltitudeMeters>1408.800048828125</AltitudeMeters>
            <DistanceMeters>NAN</DistanceMeters>
          </Trackpoint>
          <Trackpoint>
            <Time>2018-12-30T10:12:15.000Z</Time>
            <Position>
              <LatitudeDegrees>40.7707848586142063140869140625</LatitudeDegrees>
              <LongitudeDegrees>-4.07226559706032276153564453125</LongitudeDegrees>
            </Position>
            <AltitudeMeters>1409</AltitudeMeters>
            <DistanceMeters>NAN</DistanceMeters>
          </Trackpoint>
          <Trackpoint>
            <Time>2018-12-30T10:12:16.000Z</Time>
            <Position>
              <LatitudeDegrees>40.7708002813160419464111328125</LatitudeDegrees>
              <LongitudeDegrees>-4.0722730569541454315185546875</LongitudeDegrees>
            </Position>
            <AltitudeMeters>1409.199951171875</AltitudeMeters>
            <DistanceMeters>NAN</DistanceMeters>
          </Trackpoint>
          <Trackpoint>
            <Time>2018-12-30T10:12:17.000Z</Time>
            <Position>
              <LatitudeDegrees>40.77081008814275264739990234375</LatitudeDegrees>
              <LongitudeDegrees>-4.0722764097154140472412109375</LongitudeDegrees>
            </Position>
            <AltitudeMeters>1409.199951171875</AltitudeMeters>
            <DistanceMeters>NAN</DistanceMeters>
          </Trackpoint>
          <Trackpoint>
            <Time>2018-12-30T10:12:18.000Z</Time>
            <Position>
              <LatitudeDegrees>40.77081955969333648681640625</LatitudeDegrees>
              <LongitudeDegrees>-4.07227967865765094757080078125</LongitudeDegrees>
            </Position>
            <AltitudeMeters>1409.199951171875</AltitudeMeters>
            <DistanceMeters>NAN</DistanceMeters>
          </Trackpoint>
          <Trackpoint>
            <Time>2018-12-30T10:12:19.000Z</Time>
            <Position>
              <LatitudeDegrees>40.77082785777747631072998046875</LatitudeDegrees>
              <LongitudeDegrees>-4.0722888149321079254150390625</LongitudeDegrees>
            </Position>
            <AltitudeMeters>1409.199951171875</AltitudeMeters>
            <DistanceMeters>NAN</DistanceMeters>
          </Trackpoint>
          <Trackpoint>
            <Time>2018-12-30T10:12:20.000Z</Time>
            <Position>
              <LatitudeDegrees>40.7708338089287281036376953125</LatitudeDegrees>
              <LongitudeDegrees>-4.07230029813945293426513671875</LongitudeDegrees>
            </Position>
            <AltitudeMeters>1409.199951171875</AltitudeMeters>
            <DistanceMeters>NAN</DistanceMeters>
          </Trackpoint>
          <Trackpoint>
            <Time>2018-12-30T10:12:21.000Z</Time>
            <Position>
              <LatitudeDegrees>40.7708442024886608123779296875</LatitudeDegrees>
              <LongitudeDegrees>-4.07230742275714874267578125</LongitudeDegrees>
            </Position>
            <AltitudeMeters>1409.199951171875</AltitudeMeters>
            <DistanceMeters>NAN</DistanceMeters>
          </Trackpoint>
          <Trackpoint>
            <Time>2018-12-30T10:12:22.000Z</Time>
            <Position>
              <LatitudeDegrees>40.77085367403924465179443359375</LatitudeDegrees>
              <LongitudeDegrees>-4.07231370918452739715576171875</LongitudeDegrees>
            </Position>
            <AltitudeMeters>1409.199951171875</AltitudeMeters>
            <DistanceMeters>NAN</DistanceMeters>
          </Trackpoint>
          <Trackpoint>
            <Time>2018-12-30T10:12:23.000Z</Time>
            <Position>
              <LatitudeDegrees>40.77086205594241619110107421875</LatitudeDegrees>
              <LongitudeDegrees>-4.072313793003559112548828125</LongitudeDegrees>
            </Position>
            <AltitudeMeters>1409.199951171875</AltitudeMeters>
            <DistanceMeters>NAN</DistanceMeters>
          </Trackpoint>
          <Trackpoint>
            <Time>2018-12-30T10:12:24.000Z</Time>
            <Position>
              <LatitudeDegrees>40.77086959965527057647705078125</LatitudeDegrees>
              <LongitudeDegrees>-4.072317145764827728271484375</LongitudeDegrees>
            </Position>
            <AltitudeMeters>1409.4000244140625</AltitudeMeters>
            <DistanceMeters>NAN</DistanceMeters>
          </Trackpoint>
          <Trackpoint>
            <Time>2018-12-30T10:12:25.000Z</Time>
            <Position>
              <LatitudeDegrees>40.7708765566349029541015625</LatitudeDegrees>
              <LongitudeDegrees>-4.07232326455414295196533203125</LongitudeDegrees>
            </Position>
            <AltitudeMeters>1409.5999755859375</AltitudeMeters>
            <DistanceMeters>NAN</DistanceMeters>
          </Trackpoint>
          <Trackpoint>
            <Time>2018-12-30T10:12:26.000Z</Time>
            <Position>
              <LatitudeDegrees>40.770886950194835662841796875</LatitudeDegrees>
              <LongitudeDegrees>-4.07232494093477725982666015625</LongitudeDegrees>
            </Position>
            <AltitudeMeters>1409.800048828125</AltitudeMeters>
            <DistanceMeters>NAN</DistanceMeters>
          </Trackpoint>
          <Trackpoint>
            <Time>2018-12-30T10:12:27.000Z</Time>
            <Position>
              <LatitudeDegrees>40.770897008478641510009765625</LatitudeDegrees>
              <LongitudeDegrees>-4.0723357535898685455322265625</LongitudeDegrees>
            </Position>
            <AltitudeMeters>1410.199951171875</AltitudeMeters>
            <DistanceMeters>NAN</DistanceMeters>
          </Trackpoint>
          <Trackpoint>
            <Time>2018-12-30T10:12:28.000Z</Time>
            <Position>
              <LatitudeDegrees>40.77091033570468425750732421875</LatitudeDegrees>
              <LongitudeDegrees>-4.07233600504696369171142578125</LongitudeDegrees>
            </Position>
            <AltitudeMeters>1410.4000244140625</AltitudeMeters>
            <DistanceMeters>NAN</DistanceMeters>
          </Trackpoint>
          <Trackpoint>
            <Time>2018-12-30T10:12:29.000Z</Time>
            <Position>
              <LatitudeDegrees>40.77091687358915805816650390625</LatitudeDegrees>
              <LongitudeDegrees>-4.07234237529337406158447265625</LongitudeDegrees>
            </Position>
            <AltitudeMeters>1410.5999755859375</AltitudeMeters>
            <DistanceMeters>NAN</DistanceMeters>
          </Trackpoint>
          <Trackpoint>
            <Time>2018-12-30T10:12:30.000Z</Time>
            <Position>
              <LatitudeDegrees>40.7709209807217121124267578125</LatitudeDegrees>
              <LongitudeDegrees>-4.0723474882543087005615234375</LongitudeDegrees>
            </Position>
            <AltitudeMeters>1411</AltitudeMeters>
            <DistanceMeters>NAN</DistanceMeters>
          </Trackpoint>
          <Trackpoint>
            <Time>2018-12-30T10:12:31.000Z</Time>
            <Position>
              <LatitudeDegrees>40.77092860825359821319580078125</LatitudeDegrees>
              <LongitudeDegrees>-4.0723474882543087005615234375</LongitudeDegrees>
            </Position>
            <AltitudeMeters>1411.4000244140625</AltitudeMeters>
            <DistanceMeters>NAN</DistanceMeters>
          </Trackpoint>
          <Trackpoint>
            <Time>2018-12-30T10:12:32.000Z</Time>
            <Position>
              <LatitudeDegrees>40.770941935479640960693359375</LatitudeDegrees>
              <LongitudeDegrees>-4.07235695980489253997802734375</LongitudeDegrees>
            </Position>
            <AltitudeMeters>1411.800048828125</AltitudeMeters>
            <DistanceMeters>NAN</DistanceMeters>
          </Trackpoint>
          <Trackpoint>
            <Time>2018-12-30T10:12:33.000Z</Time>
            <Position>
              <LatitudeDegrees>40.770952999591827392578125</LatitudeDegrees>
              <LongitudeDegrees>-4.0723602287471294403076171875</LongitudeDegrees>
            </Position>
            <AltitudeMeters>1412</AltitudeMeters>
            <DistanceMeters>NAN</DistanceMeters>
          </Trackpoint>
          <Trackpoint>
            <Time>2018-12-30T10:12:34.000Z</Time>
            <Position>
              <LatitudeDegrees>40.77095769345760345458984375</LatitudeDegrees>
              <LongitudeDegrees>-4.0723655931651592254638671875</LongitudeDegrees>
            </Position>
            <AltitudeMeters>1412</AltitudeMeters>
            <DistanceMeters>NAN</DistanceMeters>
          </Trackpoint>
          <Trackpoint>
            <Time>2018-12-30T10:12:35.000Z</Time>
            <Position>
              <LatitudeDegrees>40.770963393151760101318359375</LatitudeDegrees>
              <LongitudeDegrees>-4.0723766572773456573486328125</LongitudeDegrees>
            </Position>
            <AltitudeMeters>1412</AltitudeMeters>
            <DistanceMeters>NAN</DistanceMeters>
          </Trackpoint>
          <Trackpoint>
            <Time>2018-12-30T10:12:36.000Z</Time>
            <Position>
              <LatitudeDegrees>40.77096976339817047119140625</LatitudeDegrees>
              <LongitudeDegrees>-4.072389900684356689453125</LongitudeDegrees>
            </Position>
            <AltitudeMeters>1412</AltitudeMeters>
            <DistanceMeters>NAN</DistanceMeters>
          </Trackpoint>
          <Trackpoint>
            <Time>2018-12-30T10:12:37.000Z</Time>
            <Position>
              <LatitudeDegrees>40.770979821681976318359375</LatitudeDegrees>
              <LongitudeDegrees>-4.07239459455013275146484375</LongitudeDegrees>
            </Position>
            <AltitudeMeters>1412</AltitudeMeters>
            <DistanceMeters>NAN</DistanceMeters>
          </Trackpoint>
          <Trackpoint>
            <Time>2018-12-30T10:12:38.000Z</Time>
            <Position>
              <LatitudeDegrees>40.77098778448998928070068359375</LatitudeDegrees>
              <LongitudeDegrees>-4.072401635348796844482421875</LongitudeDegrees>
            </Position>
            <AltitudeMeters>1412</AltitudeMeters>
            <DistanceMeters>NAN</DistanceMeters>
          </Trackpoint>
          <Trackpoint>
            <Time>2018-12-30T10:12:39.000Z</Time>
            <Position>
              <LatitudeDegrees>40.77101611532270908355712890625</LatitudeDegrees>
              <LongitudeDegrees>-4.07240540720522403717041015625</LongitudeDegrees>
            </Position>
            <AltitudeMeters>1412</AltitudeMeters>
            <DistanceMeters>NAN</DistanceMeters>
          </Trackpoint>
          <Trackpoint>
            <Time>2018-12-30T10:12:40.000Z</Time>
            <Position>
              <LatitudeDegrees>40.77101611532270908355712890625</LatitudeDegrees>
              <LongitudeDegrees>-4.07240540720522403717041015625</LongitudeDegrees>
            </Position>
            <AltitudeMeters>1411.800048828125</AltitudeMeters>
            <DistanceMeters>NAN</DistanceMeters>
          </Trackpoint>
          <Trackpoint>
            <Time>2018-12-30T10:12:41.000Z</Time>
            <Position>
              <LatitudeDegrees>40.77102852053940296173095703125</LatitudeDegrees>
              <LongitudeDegrees>-4.0724098496139049530029296875</LongitudeDegrees>
            </Position>
            <AltitudeMeters>1411.800048828125</AltitudeMeters>
            <DistanceMeters>NAN</DistanceMeters>
          </Trackpoint>
          <Trackpoint>
            <Time>2018-12-30T10:12:42.000Z</Time>
            <Position>
              <LatitudeDegrees>40.771039836108684539794921875</LatitudeDegrees>
              <LongitudeDegrees>-4.072415716946125030517578125</LongitudeDegrees>
            </Position>
            <AltitudeMeters>1411.800048828125</AltitudeMeters>
            <DistanceMeters>NAN</DistanceMeters>
          </Trackpoint>
          <Trackpoint>
            <Time>2018-12-30T10:12:43.000Z</Time>
            <Position>
              <LatitudeDegrees>40.77105031348764896392822265625</LatitudeDegrees>
              <LongitudeDegrees>-4.072420410811901092529296875</LongitudeDegrees>
            </Position>
            <AltitudeMeters>1411.800048828125</AltitudeMeters>
            <DistanceMeters>NAN</DistanceMeters>
          </Trackpoint>
          <Trackpoint>
            <Time>2018-12-30T10:12:44.000Z</Time>
            <Position>
              <LatitudeDegrees>40.7710574381053447723388671875</LatitudeDegrees>
              <LongitudeDegrees>-4.07242275774478912353515625</LongitudeDegrees>
            </Position>
            <AltitudeMeters>1412</AltitudeMeters>
            <DistanceMeters>NAN</DistanceMeters>
          </Trackpoint>
          <Trackpoint>
            <Time>2018-12-30T10:12:45.000Z</Time>
            <Position>
              <LatitudeDegrees>40.77106523327529430389404296875</LatitudeDegrees>
              <LongitudeDegrees>-4.07242552377283573150634765625</LongitudeDegrees>
            </Position>
            <AltitudeMeters>1412.199951171875</AltitudeMeters>
            <DistanceMeters>NAN</DistanceMeters>
          </Trackpoint>
          <Trackpoint>
            <Time>2018-12-30T10:12:46.000Z</Time>
            <Position>
              <LatitudeDegrees>40.77107034623622894287109375</LatitudeDegrees>
              <LongitudeDegrees>-4.07242552377283573150634765625</LongitudeDegrees>
            </Position>
            <AltitudeMeters>1412.4000244140625</AltitudeMeters>
            <DistanceMeters>NAN</DistanceMeters>
          </Trackpoint>
          <Trackpoint>
            <Time>2018-12-30T10:12:47.000Z</Time>
            <Position>
              <LatitudeDegrees>40.771077387034893035888671875</LatitudeDegrees>
              <LongitudeDegrees>-4.07242837361991405487060546875</LongitudeDegrees>
            </Position>
            <AltitudeMeters>1412.4000244140625</AltitudeMeters>
            <DistanceMeters>NAN</DistanceMeters>
          </Trackpoint>
          <Trackpoint>
            <Time>2018-12-30T10:12:48.000Z</Time>
            <Position>
              <LatitudeDegrees>40.77108635567128658294677734375</LatitudeDegrees>
              <LongitudeDegrees>-4.0724269486963748931884765625</LongitudeDegrees>
            </Position>
            <AltitudeMeters>1412.5999755859375</AltitudeMeters>
            <DistanceMeters>NAN</DistanceMeters>
          </Trackpoint>
          <Trackpoint>
            <Time>2018-12-30T10:12:49.000Z</Time>
            <Position>
              <LatitudeDegrees>40.77109104953706264495849609375</LatitudeDegrees>
              <LongitudeDegrees>-4.0724346600472927093505859375</LongitudeDegrees>
            </Position>
            <AltitudeMeters>1412.800048828125</AltitudeMeters>
            <DistanceMeters>NAN</DistanceMeters>
          </Trackpoint>
          <Trackpoint>
            <Time>2018-12-30T10:12:50.000Z</Time>
            <Position>
              <LatitudeDegrees>40.77109850943088531494140625</LatitudeDegrees>
              <LongitudeDegrees>-4.07244932837784290313720703125</LongitudeDegrees>
            </Position>
            <AltitudeMeters>1413</AltitudeMeters>
            <DistanceMeters>NAN</DistanceMeters>
          </Trackpoint>
          <Trackpoint>
            <Time>2018-12-30T10:12:51.000Z</Time>
            <Position>
              <LatitudeDegrees>40.7711060531437397003173828125</LatitudeDegrees>
              <LongitudeDegrees>-4.072453938424587249755859375</LongitudeDegrees>
            </Position>
            <AltitudeMeters>1413.199951171875</AltitudeMeters>
            <DistanceMeters>NAN</DistanceMeters>
          </Trackpoint>
          <Trackpoint>
            <Time>2018-12-30T10:12:52.000Z</Time>
            <Position>
              <LatitudeDegrees>40.77111518941819667816162109375</LatitudeDegrees>
              <LongitudeDegrees>-4.07247497700154781341552734375</LongitudeDegrees>
            </Position>
            <AltitudeMeters>1413.4000244140625</AltitudeMeters>
            <DistanceMeters>NAN</DistanceMeters>
          </Trackpoint>
          <Trackpoint>
            <Time>2018-12-30T10:12:53.000Z</Time>
            <Position>
              <LatitudeDegrees>40.77112558297812938690185546875</LatitudeDegrees>
              <LongitudeDegrees>-4.07248486764729022979736328125</LongitudeDegrees>
            </Position>
            <AltitudeMeters>1413.5999755859375</AltitudeMeters>
            <DistanceMeters>NAN</DistanceMeters>
          </Trackpoint>
          <Trackpoint>
            <Time>2018-12-30T10:12:54.000Z</Time>
            <Position>
              <LatitudeDegrees>40.7711325399577617645263671875</LatitudeDegrees>
              <LongitudeDegrees>-4.0724960155785083770751953125</LongitudeDegrees>
            </Position>
            <AltitudeMeters>1413.800048828125</AltitudeMeters>
            <DistanceMeters>NAN</DistanceMeters>
          </Trackpoint>
          <Trackpoint>
            <Time>2018-12-30T10:12:55.000Z</Time>
            <Position>
              <LatitudeDegrees>40.77113849110901355743408203125</LatitudeDegrees>
              <LongitudeDegrees>-4.0725060738623142242431640625</LongitudeDegrees>
            </Position>
            <AltitudeMeters>1414</AltitudeMeters>
            <DistanceMeters>NAN</DistanceMeters>
          </Trackpoint>
          <Trackpoint>
            <Time>2018-12-30T10:12:56.000Z</Time>
            <Position>
              <LatitudeDegrees>40.77114670537412166595458984375</LatitudeDegrees>
              <LongitudeDegrees>-4.07253205776214599609375</LongitudeDegrees>
            </Position>
            <AltitudeMeters>1414</AltitudeMeters>
            <DistanceMeters>NAN</DistanceMeters>
          </Trackpoint>
          <Trackpoint>
            <Time>2018-12-30T10:12:57.000Z</Time>
            <Position>
              <LatitudeDegrees>40.77114670537412166595458984375</LatitudeDegrees>
              <LongitudeDegrees>-4.07253205776214599609375</LongitudeDegrees>
            </Position>
            <AltitudeMeters>1414.199951171875</AltitudeMeters>
            <DistanceMeters>NAN</DistanceMeters>
          </Trackpoint>
          <Trackpoint>
            <Time>2018-12-30T10:12:58.000Z</Time>
            <Position>
              <LatitudeDegrees>40.771153829991817474365234375</LatitudeDegrees>
              <LongitudeDegrees>-4.0725429542362689971923828125</LongitudeDegrees>
            </Position>
            <AltitudeMeters>1414.199951171875</AltitudeMeters>
            <DistanceMeters>NAN</DistanceMeters>
          </Trackpoint>
          <Trackpoint>
            <Time>2018-12-30T10:12:59.000Z</Time>
            <Position>
              <LatitudeDegrees>40.771163888275623321533203125</LatitudeDegrees>
              <LongitudeDegrees>-4.0725553594529628753662109375</LongitudeDegrees>
            </Position>
            <AltitudeMeters>1414.199951171875</AltitudeMeters>
            <DistanceMeters>NAN</DistanceMeters>
          </Trackpoint>
          <Trackpoint>
            <Time>2018-12-30T10:13:00.000Z</Time>
            <Position>
              <LatitudeDegrees>40.77117486856877803802490234375</LatitudeDegrees>
              <LongitudeDegrees>-4.07256818376481533050537109375</LongitudeDegrees>
            </Position>
            <AltitudeMeters>1414.199951171875</AltitudeMeters>
            <DistanceMeters>NAN</DistanceMeters>
          </Trackpoint>
          <Trackpoint>
            <Time>2018-12-30T10:13:01.000Z</Time>
            <Position>
              <LatitudeDegrees>40.77119146473705768585205078125</LatitudeDegrees>
              <LongitudeDegrees>-4.07257027924060821533203125</LongitudeDegrees>
            </Position>
            <AltitudeMeters>1414.199951171875</AltitudeMeters>
            <DistanceMeters>NAN</DistanceMeters>
          </Trackpoint>
          <Trackpoint>
            <Time>2018-12-30T10:13:02.000Z</Time>
            <Position>
              <LatitudeDegrees>40.77120940200984477996826171875</LatitudeDegrees>
              <LongitudeDegrees>-4.07257807441055774688720703125</LongitudeDegrees>
            </Position>
            <AltitudeMeters>1414.199951171875</AltitudeMeters>
            <DistanceMeters>NAN</DistanceMeters>
          </Trackpoint>
          <Trackpoint>
            <Time>2018-12-30T10:13:03.000Z</Time>
            <Position>
              <LatitudeDegrees>40.77122549526393413543701171875</LatitudeDegrees>
              <LongitudeDegrees>-4.07257773913443088531494140625</LongitudeDegrees>
            </Position>
            <AltitudeMeters>1414.199951171875</AltitudeMeters>
            <DistanceMeters>NAN</DistanceMeters>
          </Trackpoint>
          <Trackpoint>
            <Time>2018-12-30T10:13:04.000Z</Time>
            <Position>
              <LatitudeDegrees>40.77123488299548625946044921875</LatitudeDegrees>
              <LongitudeDegrees>-4.072568602859973907470703125</LongitudeDegrees>
            </Position>
            <AltitudeMeters>1414.4000244140625</AltitudeMeters>
            <DistanceMeters>NAN</DistanceMeters>
          </Trackpoint>
          <Trackpoint>
            <Time>2018-12-30T10:13:05.000Z</Time>
            <Position>
              <LatitudeDegrees>40.77123790048062801361083984375</LatitudeDegrees>
              <LongitudeDegrees>-4.0725590474903583526611328125</LongitudeDegrees>
            </Position>
            <AltitudeMeters>1414.4000244140625</AltitudeMeters>
            <DistanceMeters>NAN</DistanceMeters>
          </Trackpoint>
          <Trackpoint>
            <Time>2018-12-30T10:13:06.000Z</Time>
            <Position>
              <LatitudeDegrees>40.77123622409999370574951171875</LatitudeDegrees>
              <LongitudeDegrees>-4.07254840247333049774169921875</LongitudeDegrees>
            </Position>
            <AltitudeMeters>1414.4000244140625</AltitudeMeters>
            <DistanceMeters>NAN</DistanceMeters>
          </Trackpoint>
          <Trackpoint>
            <Time>2018-12-30T10:13:07.000Z</Time>
            <Position>
              <LatitudeDegrees>40.77123102732002735137939453125</LatitudeDegrees>
              <LongitudeDegrees>-4.07253096811473369598388671875</LongitudeDegrees>
            </Position>
            <AltitudeMeters>1414.4000244140625</AltitudeMeters>
            <DistanceMeters>NAN</DistanceMeters>
          </Trackpoint>
          <Trackpoint>
            <Time>2018-12-30T10:13:08.000Z</Time>
            <Position>
              <LatitudeDegrees>40.7712210528552532196044921875</LatitudeDegrees>
              <LongitudeDegrees>-4.072518981993198394775390625</LongitudeDegrees>
            </Position>
            <AltitudeMeters>1414.4000244140625</AltitudeMeters>
            <DistanceMeters>NAN</DistanceMeters>
          </Trackpoint>
          <Trackpoint>
            <Time>2018-12-30T10:13:09.000Z</Time>
            <Position>
              <LatitudeDegrees>40.7712136767804622650146484375</LatitudeDegrees>
              <LongitudeDegrees>-4.07251303084194660186767578125</LongitudeDegrees>
            </Position>
            <AltitudeMeters>1414.5999755859375</AltitudeMeters>
            <DistanceMeters>NAN</DistanceMeters>
          </Trackpoint>
          <Trackpoint>
            <Time>2018-12-30T10:13:10.000Z</Time>
            <Position>
              <LatitudeDegrees>40.7712096534669399261474609375</LatitudeDegrees>
              <LongitudeDegrees>-4.07250498421490192413330078125</LongitudeDegrees>
            </Position>
            <AltitudeMeters>1414.800048828125</AltitudeMeters>
            <DistanceMeters>NAN</DistanceMeters>
          </Trackpoint>
          <Trackpoint>
            <Time>2018-12-30T10:13:11.000Z</Time>
            <Position>
              <LatitudeDegrees>40.7712103240191936492919921875</LatitudeDegrees>
              <LongitudeDegrees>-4.07249987125396728515625</LongitudeDegrees>
            </Position>
            <AltitudeMeters>1415</AltitudeMeters>
            <DistanceMeters>NAN</DistanceMeters>
          </Trackpoint>
          <Trackpoint>
            <Time>2018-12-30T10:13:12.000Z</Time>
            <Position>
              <LatitudeDegrees>40.77121107839047908782958984375</LatitudeDegrees>
              <LongitudeDegrees>-4.07248981297016143798828125</LongitudeDegrees>
            </Position>
            <AltitudeMeters>1415.199951171875</AltitudeMeters>
            <DistanceMeters>NAN</DistanceMeters>
          </Trackpoint>
          <Trackpoint>
            <Time>2018-12-30T10:13:13.000Z</Time>
            <Position>
              <LatitudeDegrees>40.77120973728597164154052734375</LatitudeDegrees>
              <LongitudeDegrees>-4.07248713076114654541015625</LongitudeDegrees>
            </Position>
            <AltitudeMeters>1415.199951171875</AltitudeMeters>
            <DistanceMeters>NAN</DistanceMeters>
          </Trackpoint>
          <Trackpoint>
            <Time>2018-12-30T10:13:14.000Z</Time>
            <Position>
              <LatitudeDegrees>40.77120940200984477996826171875</LatitudeDegrees>
              <LongitudeDegrees>-4.0724805928766727447509765625</LongitudeDegrees>
            </Position>
            <AltitudeMeters>1415.199951171875</AltitudeMeters>
            <DistanceMeters>NAN</DistanceMeters>
          </Trackpoint>
          <Trackpoint>
            <Time>2018-12-30T10:13:15.000Z</Time>
            <Position>
              <LatitudeDegrees>40.771212168037891387939453125</LatitudeDegrees>
              <LongitudeDegrees>-4.07246877439320087432861328125</LongitudeDegrees>
            </Position>
            <AltitudeMeters>1415.4000244140625</AltitudeMeters>
            <DistanceMeters>NAN</DistanceMeters>
          </Trackpoint>
          <Trackpoint>
            <Time>2018-12-30T10:13:16.000Z</Time>
            <Position>
              <LatitudeDegrees>40.77122147195041179656982421875</LatitudeDegrees>
              <LongitudeDegrees>-4.07246709801256656646728515625</LongitudeDegrees>
            </Position>
            <AltitudeMeters>1415.5999755859375</AltitudeMeters>
            <DistanceMeters>NAN</DistanceMeters>
          </Trackpoint>
          <Trackpoint>
            <Time>2018-12-30T10:13:17.000Z</Time>
            <Position>
              <LatitudeDegrees>40.77122725546360015869140625</LatitudeDegrees>
              <LongitudeDegrees>-4.0724601410329341888427734375</LongitudeDegrees>
            </Position>
            <AltitudeMeters>1415.5999755859375</AltitudeMeters>
            <DistanceMeters>NAN</DistanceMeters>
          </Trackpoint>
          <Trackpoint>
            <Time>2018-12-30T10:13:18.000Z</Time>
            <Position>
              <LatitudeDegrees>40.7712331227958202362060546875</LatitudeDegrees>
              <LongitudeDegrees>-4.07245184294879436492919921875</LongitudeDegrees>
            </Position>
            <AltitudeMeters>1415.800048828125</AltitudeMeters>
            <DistanceMeters>NAN</DistanceMeters>
          </Trackpoint>
          <Trackpoint>
            <Time>2018-12-30T10:13:19.000Z</Time>
            <Position>
              <LatitudeDegrees>40.77123957686126232147216796875</LatitudeDegrees>
              <LongitudeDegrees>-4.07242569141089916229248046875</LongitudeDegrees>
            </Position>
            <AltitudeMeters>1415.800048828125</AltitudeMeters>
            <DistanceMeters>NAN</DistanceMeters>
          </Trackpoint>
          <Trackpoint>
            <Time>2018-12-30T10:13:20.000Z</Time>
            <Position>
              <LatitudeDegrees>40.771245025098323822021484375</LatitudeDegrees>
              <LongitudeDegrees>-4.07241781242191791534423828125</LongitudeDegrees>
            </Position>
            <AltitudeMeters>1415.800048828125</AltitudeMeters>
            <DistanceMeters>NAN</DistanceMeters>
          </Trackpoint>
          <Trackpoint>
            <Time>2018-12-30T10:13:21.000Z</Time>
            <Position>
              <LatitudeDegrees>40.7712492160499095916748046875</LatitudeDegrees>
              <LongitudeDegrees>-4.07240188680589199066162109375</LongitudeDegrees>
            </Position>
            <AltitudeMeters>1415.800048828125</AltitudeMeters>
            <DistanceMeters>NAN</DistanceMeters>
          </Trackpoint>
          <Trackpoint>
            <Time>2018-12-30T10:13:22.000Z</Time>
            <Position>
              <LatitudeDegrees>40.77125499956309795379638671875</LatitudeDegrees>
              <LongitudeDegrees>-4.072391577064990997314453125</LongitudeDegrees>
            </Position>
            <AltitudeMeters>1416</AltitudeMeters>
            <DistanceMeters>NAN</DistanceMeters>
          </Trackpoint>
          <Trackpoint>
            <Time>2018-12-30T10:13:23.000Z</Time>
            <Position>
              <LatitudeDegrees>40.771259106695652008056640625</LatitudeDegrees>
              <LongitudeDegrees>-4.0723676048219203948974609375</LongitudeDegrees>
            </Position>
            <AltitudeMeters>1416</AltitudeMeters>
            <DistanceMeters>NAN</DistanceMeters>
          </Trackpoint>
          <Trackpoint>
            <Time>2018-12-30T10:13:24.000Z</Time>
            <Position>
              <LatitudeDegrees>40.77126438729465007781982421875</LatitudeDegrees>
              <LongitudeDegrees>-4.07236098311841487884521484375</LongitudeDegrees>
            </Position>
            <AltitudeMeters>1416</AltitudeMeters>
            <DistanceMeters>NAN</DistanceMeters>
          </Trackpoint>
          <Trackpoint>
            <Time>2018-12-30T10:13:25.000Z</Time>
            <Position>
              <LatitudeDegrees>40.77127528376877307891845703125</LatitudeDegrees>
              <LongitudeDegrees>-4.0723401121795177459716796875</LongitudeDegrees>
            </Position>
            <AltitudeMeters>1416</AltitudeMeters>
            <DistanceMeters>NAN</DistanceMeters>
          </Trackpoint>
          <Trackpoint>
            <Time>2018-12-30T10:13:26.000Z</Time>
            <Position>
              <LatitudeDegrees>40.77129389159381389617919921875</LatitudeDegrees>
              <LongitudeDegrees>-4.072333239018917083740234375</LongitudeDegrees>
            </Position>
            <AltitudeMeters>1416</AltitudeMeters>
            <DistanceMeters>NAN</DistanceMeters>
          </Trackpoint>
          <Trackpoint>
            <Time>2018-12-30T10:13:27.000Z</Time>
            <Position>
              <LatitudeDegrees>40.77130244113504886627197265625</LatitudeDegrees>
              <LongitudeDegrees>-4.0723267011344432830810546875</LongitudeDegrees>
            </Position>
            <AltitudeMeters>1416</AltitudeMeters>
            <DistanceMeters>NAN</DistanceMeters>
          </Trackpoint>
          <Trackpoint>
            <Time>2018-12-30T10:13:28.000Z</Time>
            <Position>
              <LatitudeDegrees>40.7713119126856327056884765625</LatitudeDegrees>
              <LongitudeDegrees>-4.072323851287364959716796875</LongitudeDegrees>
            </Position>
            <AltitudeMeters>1416</AltitudeMeters>
            <DistanceMeters>NAN</DistanceMeters>
          </Trackpoint>
          <Trackpoint>
            <Time>2018-12-30T10:13:29.000Z</Time>
            <Position>
              <LatitudeDegrees>40.77132255770266056060791015625</LatitudeDegrees>
              <LongitudeDegrees>-4.072311781346797943115234375</LongitudeDegrees>
            </Position>
            <AltitudeMeters>1415.800048828125</AltitudeMeters>
            <DistanceMeters>NAN</DistanceMeters>
          </Trackpoint>
          <Trackpoint>
            <Time>2018-12-30T10:13:30.000Z</Time>
            <Position>
              <LatitudeDegrees>40.7713316939771175384521484375</LatitudeDegrees>
              <LongitudeDegrees>-4.07230666838586330413818359375</LongitudeDegrees>
            </Position>
            <AltitudeMeters>1415.5999755859375</AltitudeMeters>
            <DistanceMeters>NAN</DistanceMeters>
          </Trackpoint>
          <Trackpoint>
            <Time>2018-12-30T10:13:31.000Z</Time>
            <Position>
              <LatitudeDegrees>40.77134284190833568572998046875</LatitudeDegrees>
              <LongitudeDegrees>-4.0722941793501377105712890625</LongitudeDegrees>
            </Position>
            <AltitudeMeters>1415.5999755859375</AltitudeMeters>
            <DistanceMeters>NAN</DistanceMeters>
          </Trackpoint>
          <Trackpoint>
            <Time>2018-12-30T10:13:32.000Z</Time>
            <Position>
              <LatitudeDegrees>40.77135642059147357940673828125</LatitudeDegrees>
              <LongitudeDegrees>-4.072270877659320831298828125</LongitudeDegrees>
            </Position>
            <AltitudeMeters>1415.4000244140625</AltitudeMeters>
            <DistanceMeters>NAN</DistanceMeters>
          </Trackpoint>
          <Trackpoint>
            <Time>2018-12-30T10:13:33.000Z</Time>
            <Position>
              <LatitudeDegrees>40.7713727653026580810546875</LatitudeDegrees>
              <LongitudeDegrees>-4.07226861454546451568603515625</LongitudeDegrees>
            </Position>
            <AltitudeMeters>1415.4000244140625</AltitudeMeters>
            <DistanceMeters>NAN</DistanceMeters>
          </Trackpoint>
          <Trackpoint>
            <Time>2018-12-30T10:13:34.000Z</Time>
            <Position>
              <LatitudeDegrees>40.771386511623859405517578125</LatitudeDegrees>
              <LongitudeDegrees>-4.072255454957485198974609375</LongitudeDegrees>
            </Position>
            <AltitudeMeters>1415.4000244140625</AltitudeMeters>
            <DistanceMeters>NAN</DistanceMeters>
          </Trackpoint>
          <Trackpoint>
            <Time>2018-12-30T10:13:35.000Z</Time>
            <Position>
              <LatitudeDegrees>40.7713994197547435760498046875</LatitudeDegrees>
              <LongitudeDegrees>-4.07224397175014019012451171875</LongitudeDegrees>
            </Position>
            <AltitudeMeters>1415.4000244140625</AltitudeMeters>
            <DistanceMeters>NAN</DistanceMeters>
          </Trackpoint>
          <Trackpoint>
            <Time>2018-12-30T10:13:36.000Z</Time>
            <Position>
              <LatitudeDegrees>40.77141098678112030029296875</LatitudeDegrees>
              <LongitudeDegrees>-4.07224397175014019012451171875</LongitudeDegrees>
            </Position>
            <AltitudeMeters>1415.4000244140625</AltitudeMeters>
            <DistanceMeters>NAN</DistanceMeters>
          </Trackpoint>
          <Trackpoint>
            <Time>2018-12-30T10:13:37.000Z</Time>
            <Position>
              <LatitudeDegrees>40.77141945250332355499267578125</LatitudeDegrees>
              <LongitudeDegrees>-4.07224397175014019012451171875</LongitudeDegrees>
            </Position>
            <AltitudeMeters>1415.4000244140625</AltitudeMeters>
            <DistanceMeters>NAN</DistanceMeters>
          </Trackpoint>
          <Trackpoint>
            <Time>2018-12-30T10:13:38.000Z</Time>
            <Position>
              <LatitudeDegrees>40.77142766676843166351318359375</LatitudeDegrees>
              <LongitudeDegrees>-4.0722489170730113983154296875</LongitudeDegrees>
            </Position>
            <AltitudeMeters>1415.4000244140625</AltitudeMeters>
            <DistanceMeters>NAN</DistanceMeters>
          </Trackpoint>
          <Trackpoint>
            <Time>2018-12-30T10:13:39.000Z</Time>
            <Position>
              <LatitudeDegrees>40.771435797214508056640625</LatitudeDegrees>
              <LongitudeDegrees>-4.0722509287297725677490234375</LongitudeDegrees>
            </Position>
            <AltitudeMeters>1415.4000244140625</AltitudeMeters>
            <DistanceMeters>NAN</DistanceMeters>
          </Trackpoint>
          <Trackpoint>
            <Time>2018-12-30T10:13:40.000Z</Time>
            <Position>
              <LatitudeDegrees>40.77144451439380645751953125</LatitudeDegrees>
              <LongitudeDegrees>-4.07225537113845348358154296875</LongitudeDegrees>
            </Position>
            <AltitudeMeters>1415.5999755859375</AltitudeMeters>
            <DistanceMeters>NAN</DistanceMeters>
          </Trackpoint>
          <Trackpoint>
            <Time>2018-12-30T10:13:41.000Z</Time>
            <Position>
              <LatitudeDegrees>40.77145080082118511199951171875</LatitudeDegrees>
              <LongitudeDegrees>-4.07225511968135833740234375</LongitudeDegrees>
            </Position>
            <AltitudeMeters>1415.5999755859375</AltitudeMeters>
            <DistanceMeters>NAN</DistanceMeters>
          </Trackpoint>
          <Trackpoint>
            <Time>2018-12-30T10:13:42.000Z</Time>
            <Position>
              <LatitudeDegrees>40.7714611105620861053466796875</LatitudeDegrees>
              <LongitudeDegrees>-4.0722512640058994293212890625</LongitudeDegrees>
            </Position>
            <AltitudeMeters>1415.5999755859375</AltitudeMeters>
            <DistanceMeters>NAN</DistanceMeters>
          </Trackpoint>
          <Trackpoint>
            <Time>2018-12-30T10:13:43.000Z</Time>
            <Position>
              <LatitudeDegrees>40.7714684866368770599365234375</LatitudeDegrees>
              <LongitudeDegrees>-4.0722469054162502288818359375</LongitudeDegrees>
            </Position>
            <AltitudeMeters>1415.5999755859375</AltitudeMeters>
            <DistanceMeters>NAN</DistanceMeters>
          </Trackpoint>
          <Trackpoint>
            <Time>2018-12-30T10:13:44.000Z</Time>
            <Position>
              <LatitudeDegrees>40.77148214913904666900634765625</LatitudeDegrees>
              <LongitudeDegrees>-4.07225185073912143707275390625</LongitudeDegrees>
            </Position>
            <AltitudeMeters>1415.5999755859375</AltitudeMeters>
            <DistanceMeters>NAN</DistanceMeters>
          </Trackpoint>
          <Trackpoint>
            <Time>2018-12-30T10:13:45.000Z</Time>
            <Position>
              <LatitudeDegrees>40.77150008641183376312255859375</LatitudeDegrees>
              <LongitudeDegrees>-4.0722546167671680450439453125</LongitudeDegrees>
            </Position>
            <AltitudeMeters>1415.800048828125</AltitudeMeters>
            <DistanceMeters>NAN</DistanceMeters>
          </Trackpoint>
          <Trackpoint>
            <Time>2018-12-30T10:13:46.000Z</Time>
            <Position>
              <LatitudeDegrees>40.7715110667049884796142578125</LatitudeDegrees>
              <LongitudeDegrees>-4.0722539462149143218994140625</LongitudeDegrees>
            </Position>
            <AltitudeMeters>1415.800048828125</AltitudeMeters>
            <DistanceMeters>NAN</DistanceMeters>
          </Trackpoint>
          <Trackpoint>
            <Time>2018-12-30T10:13:47.000Z</Time>
            <Position>
              <LatitudeDegrees>40.77151693403720855712890625</LatitudeDegrees>
              <LongitudeDegrees>-4.07225109636783599853515625</LongitudeDegrees>
            </Position>
            <AltitudeMeters>1416</AltitudeMeters>
            <DistanceMeters>NAN</DistanceMeters>
          </Trackpoint>
          <Trackpoint>
            <Time>2018-12-30T10:13:48.000Z</Time>
            <Position>
              <LatitudeDegrees>40.7715221308171749114990234375</LatitudeDegrees>
              <LongitudeDegrees>-4.07224799506366252899169921875</LongitudeDegrees>
            </Position>
            <AltitudeMeters>1416</AltitudeMeters>
            <DistanceMeters>NAN</DistanceMeters>
          </Trackpoint>
          <Trackpoint>
            <Time>2018-12-30T10:13:49.000Z</Time>
            <Position>
              <LatitudeDegrees>40.771517939865589141845703125</LatitudeDegrees>
              <LongitudeDegrees>-4.07223810441792011260986328125</LongitudeDegrees>
            </Position>
            <AltitudeMeters>1416.199951171875</AltitudeMeters>
            <DistanceMeters>NAN</DistanceMeters>
          </Trackpoint>
          <Trackpoint>
            <Time>2018-12-30T10:13:50.000Z</Time>
            <Position>
              <LatitudeDegrees>40.771536715328693389892578125</LatitudeDegrees>
              <LongitudeDegrees>-4.0722489170730113983154296875</LongitudeDegrees>
            </Position>
            <AltitudeMeters>1416.4000244140625</AltitudeMeters>
            <DistanceMeters>NAN</DistanceMeters>
          </Trackpoint>
          <Trackpoint>
            <Time>2018-12-30T10:13:51.000Z</Time>
            <Position>
              <LatitudeDegrees>40.7715462706983089447021484375</LatitudeDegrees>
              <LongitudeDegrees>-4.072256796061992645263671875</LongitudeDegrees>
            </Position>
            <AltitudeMeters>1416.4000244140625</AltitudeMeters>
            <DistanceMeters>NAN</DistanceMeters>
          </Trackpoint>
          <Trackpoint>
            <Time>2018-12-30T10:13:52.000Z</Time>
            <Position>
              <LatitudeDegrees>40.77155406586825847625732421875</LatitudeDegrees>
              <LongitudeDegrees>-4.0722653456032276153564453125</LongitudeDegrees>
            </Position>
            <AltitudeMeters>1416.4000244140625</AltitudeMeters>
            <DistanceMeters>NAN</DistanceMeters>
          </Trackpoint>
          <Trackpoint>
            <Time>2018-12-30T10:13:53.000Z</Time>
            <Position>
              <LatitudeDegrees>40.77155775390565395355224609375</LatitudeDegrees>
              <LongitudeDegrees>-4.07227112911641597747802734375</LongitudeDegrees>
            </Position>
            <AltitudeMeters>1416.4000244140625</AltitudeMeters>
            <DistanceMeters>NAN</DistanceMeters>
          </Trackpoint>
          <Trackpoint>
            <Time>2018-12-30T10:13:54.000Z</Time>
            <Position>
              <LatitudeDegrees>40.77156328596174716949462890625</LatitudeDegrees>
              <LongitudeDegrees>-4.0722807683050632476806640625</LongitudeDegrees>
            </Position>
            <AltitudeMeters>1416.4000244140625</AltitudeMeters>
            <DistanceMeters>NAN</DistanceMeters>
          </Trackpoint>
          <Trackpoint>
            <Time>2018-12-30T10:13:55.000Z</Time>
            <Position>
              <LatitudeDegrees>40.7715781219303607940673828125</LatitudeDegrees>
              <LongitudeDegrees>-4.0722914971411228179931640625</LongitudeDegrees>
            </Position>
            <AltitudeMeters>1416.4000244140625</AltitudeMeters>
            <DistanceMeters>NAN</DistanceMeters>
          </Trackpoint>
          <Trackpoint>
            <Time>2018-12-30T10:13:56.000Z</Time>
            <Position>
              <LatitudeDegrees>40.7715761102735996246337890625</LatitudeDegrees>
              <LongitudeDegrees>-4.07228889875113964080810546875</LongitudeDegrees>
            </Position>
            <AltitudeMeters>1416.4000244140625</AltitudeMeters>
            <DistanceMeters>NAN</DistanceMeters>
          </Trackpoint>
          <Trackpoint>
            <Time>2018-12-30T10:13:57.000Z</Time>
            <Position>
              <LatitudeDegrees>40.77156881801784038543701171875</LatitudeDegrees>
              <LongitudeDegrees>-4.0722817741334438323974609375</LongitudeDegrees>
            </Position>
            <AltitudeMeters>1416.4000244140625</AltitudeMeters>
            <DistanceMeters>NAN</DistanceMeters>
          </Trackpoint>
          <Trackpoint>
            <Time>2018-12-30T10:13:58.000Z</Time>
            <Position>
              <LatitudeDegrees>40.77156932093203067779541015625</LatitudeDegrees>
              <LongitudeDegrees>-4.07227599062025547027587890625</LongitudeDegrees>
            </Position>
            <AltitudeMeters>1416.4000244140625</AltitudeMeters>
            <DistanceMeters>NAN</DistanceMeters>
          </Trackpoint>
          <Trackpoint>
            <Time>2018-12-30T10:13:59.000Z</Time>
            <Position>
              <LatitudeDegrees>40.77157166786491870880126953125</LatitudeDegrees>
              <LongitudeDegrees>-4.0722690336406230926513671875</LongitudeDegrees>
            </Position>
            <AltitudeMeters>1416.4000244140625</AltitudeMeters>
            <DistanceMeters>NAN</DistanceMeters>
          </Trackpoint>
          <Trackpoint>
            <Time>2018-12-30T10:14:00.000Z</Time>
            <Position>
              <LatitudeDegrees>40.77156881801784038543701171875</LatitudeDegrees>
              <LongitudeDegrees>-4.07226140610873699188232421875</LongitudeDegrees>
            </Position>
            <AltitudeMeters>1416.4000244140625</AltitudeMeters>
            <DistanceMeters>NAN</DistanceMeters>
          </Trackpoint>
          <Trackpoint>
            <Time>2018-12-30T10:14:01.000Z</Time>
            <Position>
              <LatitudeDegrees>40.7715687341988086700439453125</LatitudeDegrees>
              <LongitudeDegrees>-4.072260819375514984130859375</LongitudeDegrees>
            </Position>
            <AltitudeMeters>1416.4000244140625</AltitudeMeters>
            <DistanceMeters>NAN</DistanceMeters>
          </Trackpoint>
          <Trackpoint>
            <Time>2018-12-30T10:14:02.000Z</Time>
            <Position>
              <LatitudeDegrees>40.771568901836872100830078125</LatitudeDegrees>
              <LongitudeDegrees>-4.072261489927768707275390625</LongitudeDegrees>
            </Position>
            <AltitudeMeters>1416.5999755859375</AltitudeMeters>
            <DistanceMeters>NAN</DistanceMeters>
          </Trackpoint>
          <Trackpoint>
            <Time>2018-12-30T10:14:03.000Z</Time>
            <Position>
              <LatitudeDegrees>40.7715694047510623931884765625</LatitudeDegrees>
              <LongitudeDegrees>-4.07226123847067356109619140625</LongitudeDegrees>
            </Position>
            <AltitudeMeters>1416.5999755859375</AltitudeMeters>
            <DistanceMeters>NAN</DistanceMeters>
          </Trackpoint>
          <Trackpoint>
            <Time>2018-12-30T10:14:04.000Z</Time>
            <Position>
              <LatitudeDegrees>40.77156982384622097015380859375</LatitudeDegrees>
              <LongitudeDegrees>-4.0722613222897052764892578125</LongitudeDegrees>
            </Position>
            <AltitudeMeters>1416.4000244140625</AltitudeMeters>
            <DistanceMeters>NAN</DistanceMeters>
          </Trackpoint>
          <Trackpoint>
            <Time>2018-12-30T10:14:05.000Z</Time>
            <Position>
              <LatitudeDegrees>40.77156932093203067779541015625</LatitudeDegrees>
              <LongitudeDegrees>-4.07226023264229297637939453125</LongitudeDegrees>
            </Position>
            <AltitudeMeters>1416.4000244140625</AltitudeMeters>
            <DistanceMeters>NAN</DistanceMeters>
          </Trackpoint>
          <Trackpoint>
            <Time>2018-12-30T10:14:06.000Z</Time>
            <Position>
              <LatitudeDegrees>40.77156923711299896240234375</LatitudeDegrees>
              <LongitudeDegrees>-4.0722502581775188446044921875</LongitudeDegrees>
            </Position>
            <AltitudeMeters>1416.4000244140625</AltitudeMeters>
            <DistanceMeters>NAN</DistanceMeters>
          </Trackpoint>
          <Trackpoint>
            <Time>2018-12-30T10:14:07.000Z</Time>
            <Position>
              <LatitudeDegrees>40.7715690694749355316162109375</LatitudeDegrees>
              <LongitudeDegrees>-4.072245396673679351806640625</LongitudeDegrees>
            </Position>
            <AltitudeMeters>1416.4000244140625</AltitudeMeters>
            <DistanceMeters>NAN</DistanceMeters>
          </Trackpoint>
          <Trackpoint>
            <Time>2018-12-30T10:14:08.000Z</Time>
            <Position>
              <LatitudeDegrees>40.77156831510365009307861328125</LatitudeDegrees>
              <LongitudeDegrees>-4.07224237918853759765625</LongitudeDegrees>
            </Position>
            <AltitudeMeters>1416.4000244140625</AltitudeMeters>
            <DistanceMeters>NAN</DistanceMeters>
          </Trackpoint>
          <Trackpoint>
            <Time>2018-12-30T10:14:09.000Z</Time>
            <Position>
              <LatitudeDegrees>40.771569572389125823974609375</LatitudeDegrees>
              <LongitudeDegrees>-4.07223676331341266632080078125</LongitudeDegrees>
            </Position>
            <AltitudeMeters>1416.4000244140625</AltitudeMeters>
            <DistanceMeters>NAN</DistanceMeters>
          </Trackpoint>
          <Trackpoint>
            <Time>2018-12-30T10:14:10.000Z</Time>
            <Position>
              <LatitudeDegrees>40.77157267369329929351806640625</LatitudeDegrees>
              <LongitudeDegrees>-4.07223173417150974273681640625</LongitudeDegrees>
            </Position>
            <AltitudeMeters>1416.199951171875</AltitudeMeters>
            <DistanceMeters>NAN</DistanceMeters>
          </Trackpoint>
          <Trackpoint>
            <Time>2018-12-30T10:14:11.000Z</Time>
            <Position>
              <LatitudeDegrees>40.7715777866542339324951171875</LatitudeDegrees>
              <LongitudeDegrees>-4.07222653739154338836669921875</LongitudeDegrees>
            </Position>
            <AltitudeMeters>1416.199951171875</AltitudeMeters>
            <DistanceMeters>NAN</DistanceMeters>
          </Trackpoint>
          <Trackpoint>
            <Time>2018-12-30T10:14:12.000Z</Time>
            <Position>
              <LatitudeDegrees>40.77158491127192974090576171875</LatitudeDegrees>
              <LongitudeDegrees>-4.072218239307403564453125</LongitudeDegrees>
            </Position>
            <AltitudeMeters>1416.199951171875</AltitudeMeters>
            <DistanceMeters>NAN</DistanceMeters>
          </Trackpoint>
          <Trackpoint>
            <Time>2018-12-30T10:14:13.000Z</Time>
            <Position>
              <LatitudeDegrees>40.771590359508991241455078125</LatitudeDegrees>
              <LongitudeDegrees>-4.07221396453678607940673828125</LongitudeDegrees>
            </Position>
            <AltitudeMeters>1416.4000244140625</AltitudeMeters>
            <DistanceMeters>NAN</DistanceMeters>
          </Trackpoint>
          <Trackpoint>
            <Time>2018-12-30T10:14:14.000Z</Time>
            <Position>
              <LatitudeDegrees>40.77159429900348186492919921875</LatitudeDegrees>
              <LongitudeDegrees>-4.07221228815615177154541015625</LongitudeDegrees>
            </Position>
            <AltitudeMeters>1416.4000244140625</AltitudeMeters>
            <DistanceMeters>NAN</DistanceMeters>
          </Trackpoint>
          <Trackpoint>
            <Time>2018-12-30T10:14:15.000Z</Time>
            <Position>
              <LatitudeDegrees>40.77159999869763851165771484375</LatitudeDegrees>
              <LongitudeDegrees>-4.0722110308706760406494140625</LongitudeDegrees>
            </Position>
            <AltitudeMeters>1416.4000244140625</AltitudeMeters>
            <DistanceMeters>NAN</DistanceMeters>
          </Trackpoint>
          <Trackpoint>
            <Time>2018-12-30T10:14:16.000Z</Time>
            <Position>
              <LatitudeDegrees>40.7716056145727634429931640625</LatitudeDegrees>
              <LongitudeDegrees>-4.07221580855548381805419921875</LongitudeDegrees>
            </Position>
            <AltitudeMeters>1416.4000244140625</AltitudeMeters>
            <DistanceMeters>NAN</DistanceMeters>
          </Trackpoint>
          <Trackpoint>
            <Time>2018-12-30T10:14:17.000Z</Time>
            <Position>
              <LatitudeDegrees>40.77160812914371490478515625</LatitudeDegrees>
              <LongitudeDegrees>-4.07221782021224498748779296875</LongitudeDegrees>
            </Position>
            <AltitudeMeters>1416.4000244140625</AltitudeMeters>
            <DistanceMeters>NAN</DistanceMeters>
          </Trackpoint>
          <Trackpoint>
            <Time>2018-12-30T10:14:18.000Z</Time>
            <Position>
              <LatitudeDegrees>40.77160972170531749725341796875</LatitudeDegrees>
              <LongitudeDegrees>-4.07221564091742038726806640625</LongitudeDegrees>
            </Position>
            <AltitudeMeters>1416.4000244140625</AltitudeMeters>
            <DistanceMeters>NAN</DistanceMeters>
          </Trackpoint>
          <Trackpoint>
            <Time>2018-12-30T10:14:19.000Z</Time>
            <Position>
              <LatitudeDegrees>40.7716106437146663665771484375</LatitudeDegrees>
              <LongitudeDegrees>-4.0722168982028961181640625</LongitudeDegrees>
            </Position>
            <AltitudeMeters>1416.4000244140625</AltitudeMeters>
            <DistanceMeters>NAN</DistanceMeters>
          </Trackpoint>
          <Trackpoint>
            <Time>2018-12-30T10:14:20.000Z</Time>
            <Position>
              <LatitudeDegrees>40.77161508612334728240966796875</LatitudeDegrees>
              <LongitudeDegrees>-4.072218239307403564453125</LongitudeDegrees>
            </Position>
            <AltitudeMeters>1416.5999755859375</AltitudeMeters>
            <DistanceMeters>NAN</DistanceMeters>
          </Trackpoint>
          <Trackpoint>
            <Time>2018-12-30T10:14:21.000Z</Time>
            <Position>
              <LatitudeDegrees>40.77161693014204502105712890625</LatitudeDegrees>
              <LongitudeDegrees>-4.072219915688037872314453125</LongitudeDegrees>
            </Position>
            <AltitudeMeters>1416.800048828125</AltitudeMeters>
            <DistanceMeters>NAN</DistanceMeters>
          </Trackpoint>
          <Trackpoint>
            <Time>2018-12-30T10:14:22.000Z</Time>
            <Position>
              <LatitudeDegrees>40.77162598259747028350830078125</LatitudeDegrees>
              <LongitudeDegrees>-4.07223005779087543487548828125</LongitudeDegrees>
            </Position>
            <AltitudeMeters>1416.800048828125</AltitudeMeters>
            <DistanceMeters>NAN</DistanceMeters>
          </Trackpoint>
          <Trackpoint>
            <Time>2018-12-30T10:14:23.000Z</Time>
            <Position>
              <LatitudeDegrees>40.7716262340545654296875</LatitudeDegrees>
              <LongitudeDegrees>-4.07223978079855442047119140625</LongitudeDegrees>
            </Position>
            <AltitudeMeters>1417</AltitudeMeters>
            <DistanceMeters>NAN</DistanceMeters>
          </Trackpoint>
          <Trackpoint>
            <Time>2018-12-30T10:14:24.000Z</Time>
            <Position>
              <LatitudeDegrees>40.77162631787359714508056640625</LatitudeDegrees>
              <LongitudeDegrees>-4.07224665395915508270263671875</LongitudeDegrees>
            </Position>
            <AltitudeMeters>1417</AltitudeMeters>
            <DistanceMeters>NAN</DistanceMeters>
          </Trackpoint>
          <Trackpoint>
            <Time>2018-12-30T10:14:25.000Z</Time>
            <Position>
              <LatitudeDegrees>40.7716275751590728759765625</LatitudeDegrees>
              <LongitudeDegrees>-4.0722502581775188446044921875</LongitudeDegrees>
            </Position>
            <AltitudeMeters>1417.199951171875</AltitudeMeters>
            <DistanceMeters>NAN</DistanceMeters>
          </Trackpoint>
          <Trackpoint>
            <Time>2018-12-30T10:14:26.000Z</Time>
            <Position>
              <LatitudeDegrees>40.7716317661106586456298828125</LatitudeDegrees>
              <LongitudeDegrees>-4.072249419987201690673828125</LongitudeDegrees>
            </Position>
            <AltitudeMeters>1417.199951171875</AltitudeMeters>
            <DistanceMeters>NAN</DistanceMeters>
          </Trackpoint>
          <Trackpoint>
            <Time>2018-12-30T10:14:27.000Z</Time>
            <Position>
              <LatitudeDegrees>40.7716317661106586456298828125</LatitudeDegrees>
              <LongitudeDegrees>-4.072249419987201690673828125</LongitudeDegrees>
            </Position>
            <AltitudeMeters>1417</AltitudeMeters>
            <DistanceMeters>NAN</DistanceMeters>
          </Trackpoint>
          <Trackpoint>
            <Time>2018-12-30T10:14:28.000Z</Time>
            <Position>
              <LatitudeDegrees>40.77163553796708583831787109375</LatitudeDegrees>
              <LongitudeDegrees>-4.07224866561591625213623046875</LongitudeDegrees>
            </Position>
            <AltitudeMeters>1417</AltitudeMeters>
            <DistanceMeters>NAN</DistanceMeters>
          </Trackpoint>
          <Trackpoint>
            <Time>2018-12-30T10:14:29.000Z</Time>
            <Position>
              <LatitudeDegrees>40.771638639271259307861328125</LatitudeDegrees>
              <LongitudeDegrees>-4.0722475759685039520263671875</LongitudeDegrees>
            </Position>
            <AltitudeMeters>1416.800048828125</AltitudeMeters>
            <DistanceMeters>NAN</DistanceMeters>
          </Trackpoint>
          <Trackpoint>
            <Time>2018-12-30T10:14:30.000Z</Time>
            <Position>
              <LatitudeDegrees>40.77163939364254474639892578125</LatitudeDegrees>
              <LongitudeDegrees>-4.0722401998937129974365234375</LongitudeDegrees>
            </Position>
            <AltitudeMeters>1416.5999755859375</AltitudeMeters>
            <DistanceMeters>NAN</DistanceMeters>
          </Trackpoint>
          <Trackpoint>
            <Time>2018-12-30T10:14:31.000Z</Time>
            <Position>
              <LatitudeDegrees>40.77164358459413051605224609375</LatitudeDegrees>
              <LongitudeDegrees>-4.0722381882369518280029296875</LongitudeDegrees>
            </Position>
            <AltitudeMeters>1416.4000244140625</AltitudeMeters>
            <DistanceMeters>NAN</DistanceMeters>
          </Trackpoint>
          <Trackpoint>
            <Time>2018-12-30T10:14:32.000Z</Time>
            <Position>
              <LatitudeDegrees>40.77165062539279460906982421875</LatitudeDegrees>
              <LongitudeDegrees>-4.07223793677985668182373046875</LongitudeDegrees>
            </Position>
            <AltitudeMeters>1416.4000244140625</AltitudeMeters>
            <DistanceMeters>NAN</DistanceMeters>
          </Trackpoint>
          <Trackpoint>
            <Time>2018-12-30T10:14:33.000Z</Time>
            <Position>
              <LatitudeDegrees>40.7716555707156658172607421875</LatitudeDegrees>
              <LongitudeDegrees>-4.07223408110439777374267578125</LongitudeDegrees>
            </Position>
            <AltitudeMeters>1416.4000244140625</AltitudeMeters>
            <DistanceMeters>NAN</DistanceMeters>
          </Trackpoint>
          <Trackpoint>
            <Time>2018-12-30T10:14:34.000Z</Time>
            <Position>
              <LatitudeDegrees>40.77165632508695125579833984375</LatitudeDegrees>
              <LongitudeDegrees>-4.07223056070506572723388671875</LongitudeDegrees>
            </Position>
            <AltitudeMeters>1416.5999755859375</AltitudeMeters>
            <DistanceMeters>NAN</DistanceMeters>
          </Trackpoint>
          <Trackpoint>
            <Time>2018-12-30T10:14:35.000Z</Time>
            <Position>
              <LatitudeDegrees>40.7716585882008075714111328125</LatitudeDegrees>
              <LongitudeDegrees>-4.0722294710576534271240234375</LongitudeDegrees>
            </Position>
            <AltitudeMeters>1416.5999755859375</AltitudeMeters>
            <DistanceMeters>NAN</DistanceMeters>
          </Trackpoint>
          <Trackpoint>
            <Time>2018-12-30T10:14:36.000Z</Time>
            <Position>
              <LatitudeDegrees>40.77165800146758556365966796875</LatitudeDegrees>
              <LongitudeDegrees>-4.072227291762828826904296875</LongitudeDegrees>
            </Position>
            <AltitudeMeters>1416.5999755859375</AltitudeMeters>
            <DistanceMeters>NAN</DistanceMeters>
          </Trackpoint>
          <Trackpoint>
            <Time>2018-12-30T10:14:37.000Z</Time>
            <Position>
              <LatitudeDegrees>40.7716562412679195404052734375</LatitudeDegrees>
              <LongitudeDegrees>-4.0722241066396236419677734375</LongitudeDegrees>
            </Position>
            <AltitudeMeters>1416.800048828125</AltitudeMeters>
            <DistanceMeters>NAN</DistanceMeters>
          </Trackpoint>
          <Trackpoint>
            <Time>2018-12-30T10:14:38.000Z</Time>
            <Position>
              <LatitudeDegrees>40.77165934257209300994873046875</LatitudeDegrees>
              <LongitudeDegrees>-4.07222217880189418792724609375</LongitudeDegrees>
            </Position>
            <AltitudeMeters>1416.5999755859375</AltitudeMeters>
            <DistanceMeters>NAN</DistanceMeters>
          </Trackpoint>
          <Trackpoint>
            <Time>2018-12-30T10:14:39.000Z</Time>
            <Position>
              <LatitudeDegrees>40.77165800146758556365966796875</LatitudeDegrees>
              <LongitudeDegrees>-4.07221077941358089447021484375</LongitudeDegrees>
            </Position>
            <AltitudeMeters>1416.5999755859375</AltitudeMeters>
            <DistanceMeters>NAN</DistanceMeters>
          </Trackpoint>
          <Trackpoint>
            <Time>2018-12-30T10:14:40.000Z</Time>
            <Position>
              <LatitudeDegrees>40.77165230177342891693115234375</LatitudeDegrees>
              <LongitudeDegrees>-4.0721996314823627471923828125</LongitudeDegrees>
            </Position>
            <AltitudeMeters>1416.800048828125</AltitudeMeters>
            <DistanceMeters>NAN</DistanceMeters>
          </Trackpoint>
          <Trackpoint>
            <Time>2018-12-30T10:14:41.000Z</Time>
            <Position>
              <LatitudeDegrees>40.77164559625089168548583984375</LatitudeDegrees>
              <LongitudeDegrees>-4.07218529842793941497802734375</LongitudeDegrees>
            </Position>
            <AltitudeMeters>1416.5999755859375</AltitudeMeters>
            <DistanceMeters>NAN</DistanceMeters>
          </Trackpoint>
          <Trackpoint>
            <Time>2018-12-30T10:14:42.000Z</Time>
            <Position>
              <LatitudeDegrees>40.7716431654989719390869140625</LatitudeDegrees>
              <LongitudeDegrees>-4.0721721388399600982666015625</LongitudeDegrees>
            </Position>
            <AltitudeMeters>1416.5999755859375</AltitudeMeters>
            <DistanceMeters>NAN</DistanceMeters>
          </Trackpoint>
          <Trackpoint>
            <Time>2018-12-30T10:14:43.000Z</Time>
            <Position>
              <LatitudeDegrees>40.77162246219813823699951171875</LatitudeDegrees>
              <LongitudeDegrees>-4.07214456237852573394775390625</LongitudeDegrees>
            </Position>
            <AltitudeMeters>1416.4000244140625</AltitudeMeters>
            <DistanceMeters>NAN</DistanceMeters>
          </Trackpoint>
          <Trackpoint>
            <Time>2018-12-30T10:14:44.000Z</Time>
            <Position>
              <LatitudeDegrees>40.77160838060081005096435546875</LatitudeDegrees>
              <LongitudeDegrees>-4.07213064841926097869873046875</LongitudeDegrees>
            </Position>
            <AltitudeMeters>1416.199951171875</AltitudeMeters>
            <DistanceMeters>NAN</DistanceMeters>
          </Trackpoint>
          <Trackpoint>
            <Time>2018-12-30T10:14:45.000Z</Time>
            <Position>
              <LatitudeDegrees>40.77160284854471683502197265625</LatitudeDegrees>
              <LongitudeDegrees>-4.07211623154580593109130859375</LongitudeDegrees>
            </Position>
            <AltitudeMeters>1416.199951171875</AltitudeMeters>
            <DistanceMeters>NAN</DistanceMeters>
          </Trackpoint>
          <Trackpoint>
            <Time>2018-12-30T10:14:46.000Z</Time>
            <Position>
              <LatitudeDegrees>40.77159815467894077301025390625</LatitudeDegrees>
              <LongitudeDegrees>-4.072103910148143768310546875</LongitudeDegrees>
            </Position>
            <AltitudeMeters>1416</AltitudeMeters>
            <DistanceMeters>NAN</DistanceMeters>
          </Trackpoint>
          <Trackpoint>
            <Time>2018-12-30T10:14:47.000Z</Time>
            <Position>
              <LatitudeDegrees>40.7715945504605770111083984375</LatitudeDegrees>
              <LongitudeDegrees>-4.0720910020172595977783203125</LongitudeDegrees>
            </Position>
            <AltitudeMeters>1415.800048828125</AltitudeMeters>
            <DistanceMeters>NAN</DistanceMeters>
          </Trackpoint>
          <Trackpoint>
            <Time>2018-12-30T10:14:48.000Z</Time>
            <Position>
              <LatitudeDegrees>40.7715898565948009490966796875</LatitudeDegrees>
              <LongitudeDegrees>-4.072084128856658935546875</LongitudeDegrees>
            </Position>
            <AltitudeMeters>1415.800048828125</AltitudeMeters>
            <DistanceMeters>NAN</DistanceMeters>
          </Trackpoint>
          <Trackpoint>
            <Time>2018-12-30T10:14:49.000Z</Time>
            <Position>
              <LatitudeDegrees>40.77158667147159576416015625</LatitudeDegrees>
              <LongitudeDegrees>-4.07207272946834564208984375</LongitudeDegrees>
            </Position>
            <AltitudeMeters>1415.800048828125</AltitudeMeters>
            <DistanceMeters>NAN</DistanceMeters>
          </Trackpoint>
          <Trackpoint>
            <Time>2018-12-30T10:14:50.000Z</Time>
            <Position>
              <LatitudeDegrees>40.77157921157777309417724609375</LatitudeDegrees>
              <LongitudeDegrees>-4.0720588155090808868408203125</LongitudeDegrees>
            </Position>
            <AltitudeMeters>1415.800048828125</AltitudeMeters>
            <DistanceMeters>NAN</DistanceMeters>
          </Trackpoint>
          <Trackpoint>
            <Time>2018-12-30T10:14:51.000Z</Time>
            <Position>
              <LatitudeDegrees>40.77157594263553619384765625</LatitudeDegrees>
              <LongitudeDegrees>-4.0720571391284465789794921875</LongitudeDegrees>
            </Position>
            <AltitudeMeters>1415.800048828125</AltitudeMeters>
            <DistanceMeters>NAN</DistanceMeters>
          </Trackpoint>
          <Trackpoint>
            <Time>2018-12-30T10:14:52.000Z</Time>
            <Position>
              <LatitudeDegrees>40.77157594263553619384765625</LatitudeDegrees>
              <LongitudeDegrees>-4.0720571391284465789794921875</LongitudeDegrees>
            </Position>
            <AltitudeMeters>1415.5999755859375</AltitudeMeters>
            <DistanceMeters>NAN</DistanceMeters>
          </Trackpoint>
          <Trackpoint>
            <Time>2018-12-30T10:14:53.000Z</Time>
            <Position>
              <LatitudeDegrees>40.771573595702648162841796875</LatitudeDegrees>
              <LongitudeDegrees>-4.07206309027969837188720703125</LongitudeDegrees>
            </Position>
            <AltitudeMeters>1415.800048828125</AltitudeMeters>
            <DistanceMeters>NAN</DistanceMeters>
          </Trackpoint>
          <Trackpoint>
            <Time>2018-12-30T10:14:54.000Z</Time>
            <Position>
              <LatitudeDegrees>40.77156848274171352386474609375</LatitudeDegrees>
              <LongitudeDegrees>-4.0720666944980621337890625</LongitudeDegrees>
            </Position>
            <AltitudeMeters>1415.800048828125</AltitudeMeters>
            <DistanceMeters>NAN</DistanceMeters>
          </Trackpoint>
          <Trackpoint>
            <Time>2018-12-30T10:14:55.000Z</Time>
            <Position>
              <LatitudeDegrees>40.77156345359981060028076171875</LatitudeDegrees>
              <LongitudeDegrees>-4.07206996344029903411865234375</LongitudeDegrees>
            </Position>
            <AltitudeMeters>1415.800048828125</AltitudeMeters>
            <DistanceMeters>NAN</DistanceMeters>
          </Trackpoint>
          <Trackpoint>
            <Time>2018-12-30T10:14:56.000Z</Time>
            <Position>
              <LatitudeDegrees>40.7715657167136669158935546875</LatitudeDegrees>
              <LongitudeDegrees>-4.07206225208938121795654296875</LongitudeDegrees>
            </Position>
            <AltitudeMeters>1415.800048828125</AltitudeMeters>
            <DistanceMeters>NAN</DistanceMeters>
          </Trackpoint>
          <Trackpoint>
            <Time>2018-12-30T10:14:57.000Z</Time>
            <Position>
              <LatitudeDegrees>40.77157401479780673980712890625</LatitudeDegrees>
              <LongitudeDegrees>-4.07205261290073394775390625</LongitudeDegrees>
            </Position>
            <AltitudeMeters>1416</AltitudeMeters>
            <DistanceMeters>NAN</DistanceMeters>
          </Trackpoint>
          <Trackpoint>
            <Time>2018-12-30T10:14:58.000Z</Time>
            <Position>
              <LatitudeDegrees>40.7715846598148345947265625</LatitudeDegrees>
              <LongitudeDegrees>-4.07205739058554172515869140625</LongitudeDegrees>
            </Position>
            <AltitudeMeters>1416.199951171875</AltitudeMeters>
            <DistanceMeters>NAN</DistanceMeters>
          </Trackpoint>
          <Trackpoint>
            <Time>2018-12-30T10:14:59.000Z</Time>
            <Position>
              <LatitudeDegrees>40.771597065031528472900390625</LatitudeDegrees>
              <LongitudeDegrees>-4.07206761650741100311279296875</LongitudeDegrees>
            </Position>
            <AltitudeMeters>1416.4000244140625</AltitudeMeters>
            <DistanceMeters>NAN</DistanceMeters>
          </Trackpoint>
          <Trackpoint>
            <Time>2018-12-30T10:15:00.000Z</Time>
            <Position>
              <LatitudeDegrees>40.77160502783954143524169921875</LatitudeDegrees>
              <LongitudeDegrees>-4.0720728971064090728759765625</LongitudeDegrees>
            </Position>
            <AltitudeMeters>1416.5999755859375</AltitudeMeters>
            <DistanceMeters>NAN</DistanceMeters>
          </Trackpoint>
          <Trackpoint>
            <Time>2018-12-30T10:15:01.000Z</Time>
            <Position>
              <LatitudeDegrees>40.771615505218505859375</LatitudeDegrees>
              <LongitudeDegrees>-4.07208479940891265869140625</LongitudeDegrees>
            </Position>
            <AltitudeMeters>1416.5999755859375</AltitudeMeters>
            <DistanceMeters>NAN</DistanceMeters>
          </Trackpoint>
          <Trackpoint>
            <Time>2018-12-30T10:15:02.000Z</Time>
            <Position>
              <LatitudeDegrees>40.771628916263580322265625</LatitudeDegrees>
              <LongitudeDegrees>-4.07210089266300201416015625</LongitudeDegrees>
            </Position>
            <AltitudeMeters>1416.800048828125</AltitudeMeters>
            <DistanceMeters>NAN</DistanceMeters>
          </Trackpoint>
          <Trackpoint>
            <Time>2018-12-30T10:15:03.000Z</Time>
            <Position>
              <LatitudeDegrees>40.77163805253803730010986328125</LatitudeDegrees>
              <LongitudeDegrees>-4.0721096098423004150390625</LongitudeDegrees>
            </Position>
            <AltitudeMeters>1416.800048828125</AltitudeMeters>
            <DistanceMeters>NAN</DistanceMeters>
          </Trackpoint>
          <Trackpoint>
            <Time>2018-12-30T10:15:04.000Z</Time>
            <Position>
              <LatitudeDegrees>40.77164777554571628570556640625</LatitudeDegrees>
              <LongitudeDegrees>-4.07211421988904476165771484375</LongitudeDegrees>
            </Position>
            <AltitudeMeters>1416.800048828125</AltitudeMeters>
            <DistanceMeters>NAN</DistanceMeters>
          </Trackpoint>
          <Trackpoint>
            <Time>2018-12-30T10:15:05.000Z</Time>
            <Position>
              <LatitudeDegrees>40.77166068367660045623779296875</LatitudeDegrees>
              <LongitudeDegrees>-4.072116315364837646484375</LongitudeDegrees>
            </Position>
            <AltitudeMeters>1416.800048828125</AltitudeMeters>
            <DistanceMeters>NAN</DistanceMeters>
          </Trackpoint>
          <Trackpoint>
            <Time>2018-12-30T10:15:06.000Z</Time>
            <Position>
              <LatitudeDegrees>40.77167191542685031890869140625</LatitudeDegrees>
              <LongitudeDegrees>-4.07211556099355220794677734375</LongitudeDegrees>
            </Position>
            <AltitudeMeters>1416.800048828125</AltitudeMeters>
            <DistanceMeters>NAN</DistanceMeters>
          </Trackpoint>
          <Trackpoint>
            <Time>2018-12-30T10:15:07.000Z</Time>
            <Position>
              <LatitudeDegrees>40.77168163843452930450439453125</LatitudeDegrees>
              <LongitudeDegrees>-4.07212142832577228546142578125</LongitudeDegrees>
            </Position>
            <AltitudeMeters>1416.800048828125</AltitudeMeters>
            <DistanceMeters>NAN</DistanceMeters>
          </Trackpoint>
          <Trackpoint>
            <Time>2018-12-30T10:15:08.000Z</Time>
            <Position>
              <LatitudeDegrees>40.77168859541416168212890625</LatitudeDegrees>
              <LongitudeDegrees>-4.07212561927735805511474609375</LongitudeDegrees>
            </Position>
            <AltitudeMeters>1416.800048828125</AltitudeMeters>
            <DistanceMeters>NAN</DistanceMeters>
          </Trackpoint>
          <Trackpoint>
            <Time>2018-12-30T10:15:09.000Z</Time>
            <Position>
              <LatitudeDegrees>40.77169387601315975189208984375</LatitudeDegrees>
              <LongitudeDegrees>-4.072130732238292694091796875</LongitudeDegrees>
            </Position>
            <AltitudeMeters>1416.800048828125</AltitudeMeters>
            <DistanceMeters>NAN</DistanceMeters>
          </Trackpoint>
          <Trackpoint>
            <Time>2018-12-30T10:15:10.000Z</Time>
            <Position>
              <LatitudeDegrees>40.7716978155076503753662109375</LatitudeDegrees>
              <LongitudeDegrees>-4.0721337497234344482421875</LongitudeDegrees>
            </Position>
            <AltitudeMeters>1416.800048828125</AltitudeMeters>
            <DistanceMeters>NAN</DistanceMeters>
          </Trackpoint>
          <Trackpoint>
            <Time>2018-12-30T10:15:11.000Z</Time>
            <Position>
              <LatitudeDegrees>40.77170066535472869873046875</LatitudeDegrees>
              <LongitudeDegrees>-4.07213718630373477935791015625</LongitudeDegrees>
            </Position>
            <AltitudeMeters>1416.800048828125</AltitudeMeters>
            <DistanceMeters>NAN</DistanceMeters>
          </Trackpoint>
          <Trackpoint>
            <Time>2018-12-30T10:15:12.000Z</Time>
            <Position>
              <LatitudeDegrees>40.77170259319245815277099609375</LatitudeDegrees>
              <LongitudeDegrees>-4.07214204780757427215576171875</LongitudeDegrees>
            </Position>
            <AltitudeMeters>1416.4000244140625</AltitudeMeters>
            <DistanceMeters>NAN</DistanceMeters>
          </Trackpoint>
          <Trackpoint>
            <Time>2018-12-30T10:15:13.000Z</Time>
            <Position>
              <LatitudeDegrees>40.77170678414404392242431640625</LatitudeDegrees>
              <LongitudeDegrees>-4.07214992679655551910400390625</LongitudeDegrees>
            </Position>
            <AltitudeMeters>1416.4000244140625</AltitudeMeters>
            <DistanceMeters>NAN</DistanceMeters>
          </Trackpoint>
          <Trackpoint>
            <Time>2018-12-30T10:15:14.000Z</Time>
            <Position>
              <LatitudeDegrees>40.771710388362407684326171875</LatitudeDegrees>
              <LongitudeDegrees>-4.07215931452810764312744140625</LongitudeDegrees>
            </Position>
            <AltitudeMeters>1416.4000244140625</AltitudeMeters>
            <DistanceMeters>NAN</DistanceMeters>
          </Trackpoint>
          <Trackpoint>
            <Time>2018-12-30T10:15:15.000Z</Time>
            <Position>
              <LatitudeDegrees>40.77171541750431060791015625</LatitudeDegrees>
              <LongitudeDegrees>-4.072164595127105712890625</LongitudeDegrees>
            </Position>
            <AltitudeMeters>1416.4000244140625</AltitudeMeters>
            <DistanceMeters>NAN</DistanceMeters>
          </Trackpoint>
          <Trackpoint>
            <Time>2018-12-30T10:15:16.000Z</Time>
            <Position>
              <LatitudeDegrees>40.77172371558845043182373046875</LatitudeDegrees>
              <LongitudeDegrees>-4.0721768327057361602783203125</LongitudeDegrees>
            </Position>
            <AltitudeMeters>1416.4000244140625</AltitudeMeters>
            <DistanceMeters>NAN</DistanceMeters>
          </Trackpoint>
          <Trackpoint>
            <Time>2018-12-30T10:15:17.000Z</Time>
            <Position>
              <LatitudeDegrees>40.7717330195009708404541015625</LatitudeDegrees>
              <LongitudeDegrees>-4.07218731008470058441162109375</LongitudeDegrees>
            </Position>
            <AltitudeMeters>1416.4000244140625</AltitudeMeters>
            <DistanceMeters>NAN</DistanceMeters>
          </Trackpoint>
          <Trackpoint>
            <Time>2018-12-30T10:15:18.000Z</Time>
            <Position>
              <LatitudeDegrees>40.77174265868961811065673828125</LatitudeDegrees>
              <LongitudeDegrees>-4.07219820655882358551025390625</LongitudeDegrees>
            </Position>
            <AltitudeMeters>1416.4000244140625</AltitudeMeters>
            <DistanceMeters>NAN</DistanceMeters>
          </Trackpoint>
          <Trackpoint>
            <Time>2018-12-30T10:15:19.000Z</Time>
            <Position>
              <LatitudeDegrees>40.77175422571599483489990234375</LatitudeDegrees>
              <LongitudeDegrees>-4.07221086323261260986328125</LongitudeDegrees>
            </Position>
            <AltitudeMeters>1416.4000244140625</AltitudeMeters>
            <DistanceMeters>NAN</DistanceMeters>
          </Trackpoint>
          <Trackpoint>
            <Time>2018-12-30T10:15:20.000Z</Time>
            <Position>
              <LatitudeDegrees>40.77176780439913272857666015625</LatitudeDegrees>
              <LongitudeDegrees>-4.07223022542893886566162109375</LongitudeDegrees>
            </Position>
            <AltitudeMeters>1416.4000244140625</AltitudeMeters>
            <DistanceMeters>NAN</DistanceMeters>
          </Trackpoint>
          <Trackpoint>
            <Time>2018-12-30T10:15:21.000Z</Time>
            <Position>
              <LatitudeDegrees>40.7717739231884479522705078125</LatitudeDegrees>
              <LongitudeDegrees>-4.0722338296473026275634765625</LongitudeDegrees>
            </Position>
            <AltitudeMeters>1416.4000244140625</AltitudeMeters>
            <DistanceMeters>NAN</DistanceMeters>
          </Trackpoint>
          <Trackpoint>
            <Time>2018-12-30T10:15:22.000Z</Time>
            <Position>
              <LatitudeDegrees>40.7717769406735897064208984375</LatitudeDegrees>
              <LongitudeDegrees>-4.07223366200923919677734375</LongitudeDegrees>
            </Position>
            <AltitudeMeters>1416.4000244140625</AltitudeMeters>
            <DistanceMeters>NAN</DistanceMeters>
          </Trackpoint>
          <Trackpoint>
            <Time>2018-12-30T10:15:23.000Z</Time>
            <Position>
              <LatitudeDegrees>40.7717829756438732147216796875</LatitudeDegrees>
              <LongitudeDegrees>-4.07223592512309551239013671875</LongitudeDegrees>
            </Position>
            <AltitudeMeters>1416.4000244140625</AltitudeMeters>
            <DistanceMeters>NAN</DistanceMeters>
          </Trackpoint>
          <Trackpoint>
            <Time>2018-12-30T10:15:24.000Z</Time>
            <Position>
              <LatitudeDegrees>40.77178917825222015380859375</LatitudeDegrees>
              <LongitudeDegrees>-4.0722338296473026275634765625</LongitudeDegrees>
            </Position>
            <AltitudeMeters>1416.4000244140625</AltitudeMeters>
            <DistanceMeters>NAN</DistanceMeters>
          </Trackpoint>
          <Trackpoint>
            <Time>2018-12-30T10:15:25.000Z</Time>
            <Position>
              <LatitudeDegrees>40.7717938721179962158203125</LatitudeDegrees>
              <LongitudeDegrees>-4.07223123125731945037841796875</LongitudeDegrees>
            </Position>
            <AltitudeMeters>1416.5999755859375</AltitudeMeters>
            <DistanceMeters>NAN</DistanceMeters>
          </Trackpoint>
          <Trackpoint>
            <Time>2018-12-30T10:15:26.000Z</Time>
            <Position>
              <LatitudeDegrees>40.771808624267578125</LatitudeDegrees>
              <LongitudeDegrees>-4.0722220949828624725341796875</LongitudeDegrees>
            </Position>
            <AltitudeMeters>1416.5999755859375</AltitudeMeters>
            <DistanceMeters>NAN</DistanceMeters>
          </Trackpoint>
          <Trackpoint>
            <Time>2018-12-30T10:15:27.000Z</Time>
            <Position>
              <LatitudeDegrees>40.77181859873235225677490234375</LatitudeDegrees>
              <LongitudeDegrees>-4.0722093544900417327880859375</LongitudeDegrees>
            </Position>
            <AltitudeMeters>1416.800048828125</AltitudeMeters>
            <DistanceMeters>NAN</DistanceMeters>
          </Trackpoint>
          <Trackpoint>
            <Time>2018-12-30T10:15:28.000Z</Time>
            <Position>
              <LatitudeDegrees>40.77182471752166748046875</LatitudeDegrees>
              <LongitudeDegrees>-4.0721962787210941314697265625</LongitudeDegrees>
            </Position>
            <AltitudeMeters>1416.800048828125</AltitudeMeters>
            <DistanceMeters>NAN</DistanceMeters>
          </Trackpoint>
          <Trackpoint>
            <Time>2018-12-30T10:15:29.000Z</Time>
            <Position>
              <LatitudeDegrees>40.77182781882584095001220703125</LatitudeDegrees>
              <LongitudeDegrees>-4.072192423045635223388671875</LongitudeDegrees>
            </Position>
            <AltitudeMeters>1416.800048828125</AltitudeMeters>
            <DistanceMeters>NAN</DistanceMeters>
          </Trackpoint>
          <Trackpoint>
            <Time>2018-12-30T10:15:30.000Z</Time>
            <Position>
              <LatitudeDegrees>40.7718463428318500518798828125</LatitudeDegrees>
              <LongitudeDegrees>-4.072190411388874053955078125</LongitudeDegrees>
            </Position>
            <AltitudeMeters>1416.800048828125</AltitudeMeters>
            <DistanceMeters>NAN</DistanceMeters>
          </Trackpoint>
          <Trackpoint>
            <Time>2018-12-30T10:15:31.000Z</Time>
            <Position>
              <LatitudeDegrees>40.7718644477427005767822265625</LatitudeDegrees>
              <LongitudeDegrees>-4.07220139168202877044677734375</LongitudeDegrees>
            </Position>
            <AltitudeMeters>1416.800048828125</AltitudeMeters>
            <DistanceMeters>NAN</DistanceMeters>
          </Trackpoint>
          <Trackpoint>
            <Time>2018-12-30T10:15:32.000Z</Time>
            <Position>
              <LatitudeDegrees>40.7718942873179912567138671875</LatitudeDegrees>
              <LongitudeDegrees>-4.0722267888486385345458984375</LongitudeDegrees>
            </Position>
            <AltitudeMeters>1416.800048828125</AltitudeMeters>
            <DistanceMeters>NAN</DistanceMeters>
          </Trackpoint>
          <Trackpoint>
            <Time>2018-12-30T10:15:33.000Z</Time>
            <Position>
              <LatitudeDegrees>40.77191649936139583587646484375</LatitudeDegrees>
              <LongitudeDegrees>-4.07224095426499843597412109375</LongitudeDegrees>
            </Position>
            <AltitudeMeters>1416.5999755859375</AltitudeMeters>
            <DistanceMeters>NAN</DistanceMeters>
          </Trackpoint>
          <Trackpoint>
            <Time>2018-12-30T10:15:34.000Z</Time>
            <Position>
              <LatitudeDegrees>40.771931000053882598876953125</LatitudeDegrees>
              <LongitudeDegrees>-4.07225319184362888336181640625</LongitudeDegrees>
            </Position>
            <AltitudeMeters>1416.5999755859375</AltitudeMeters>
            <DistanceMeters>NAN</DistanceMeters>
          </Trackpoint>
          <Trackpoint>
            <Time>2018-12-30T10:15:35.000Z</Time>
            <Position>
              <LatitudeDegrees>40.77194273471832275390625</LatitudeDegrees>
              <LongitudeDegrees>-4.07226962037384510040283203125</LongitudeDegrees>
            </Position>
            <AltitudeMeters>1416.4000244140625</AltitudeMeters>
            <DistanceMeters>NAN</DistanceMeters>
          </Trackpoint>
          <Trackpoint>
            <Time>2018-12-30T10:15:36.000Z</Time>
            <Position>
              <LatitudeDegrees>40.77195488847792148590087890625</LatitudeDegrees>
              <LongitudeDegrees>-4.07225939445197582244873046875</LongitudeDegrees>
            </Position>
            <AltitudeMeters>1416.5999755859375</AltitudeMeters>
            <DistanceMeters>NAN</DistanceMeters>
          </Trackpoint>
          <Trackpoint>
            <Time>2018-12-30T10:15:37.000Z</Time>
            <Position>
              <LatitudeDegrees>40.77195949852466583251953125</LatitudeDegrees>
              <LongitudeDegrees>-4.07225218601524829864501953125</LongitudeDegrees>
            </Position>
            <AltitudeMeters>1416.5999755859375</AltitudeMeters>
            <DistanceMeters>NAN</DistanceMeters>
          </Trackpoint>
          <Trackpoint>
            <Time>2018-12-30T10:15:38.000Z</Time>
            <Position>
              <LatitudeDegrees>40.7719633542001247406005859375</LatitudeDegrees>
              <LongitudeDegrees>-4.07225109636783599853515625</LongitudeDegrees>
            </Position>
            <AltitudeMeters>1416.5999755859375</AltitudeMeters>
            <DistanceMeters>NAN</DistanceMeters>
          </Trackpoint>
          <Trackpoint>
            <Time>2018-12-30T10:15:39.000Z</Time>
            <Position>
              <LatitudeDegrees>40.77196829952299594879150390625</LatitudeDegrees>
              <LongitudeDegrees>-4.0722502581775188446044921875</LongitudeDegrees>
            </Position>
            <AltitudeMeters>1416.5999755859375</AltitudeMeters>
            <DistanceMeters>NAN</DistanceMeters>
          </Trackpoint>
          <Trackpoint>
            <Time>2018-12-30T10:15:40.000Z</Time>
            <Position>
              <LatitudeDegrees>40.77196176163852214813232421875</LatitudeDegrees>
              <LongitudeDegrees>-4.07222720794379711151123046875</LongitudeDegrees>
            </Position>
            <AltitudeMeters>1416.4000244140625</AltitudeMeters>
            <DistanceMeters>NAN</DistanceMeters>
          </Trackpoint>
          <Trackpoint>
            <Time>2018-12-30T10:15:41.000Z</Time>
            <Position>
              <LatitudeDegrees>40.77196419239044189453125</LatitudeDegrees>
              <LongitudeDegrees>-4.0722174011170864105224609375</LongitudeDegrees>
            </Position>
            <AltitudeMeters>1416.5999755859375</AltitudeMeters>
            <DistanceMeters>NAN</DistanceMeters>
          </Trackpoint>
          <Trackpoint>
            <Time>2018-12-30T10:15:42.000Z</Time>
            <Position>
              <LatitudeDegrees>40.77198095619678497314453125</LatitudeDegrees>
              <LongitudeDegrees>-4.07222385518252849578857421875</LongitudeDegrees>
            </Position>
            <AltitudeMeters>1416.5999755859375</AltitudeMeters>
            <DistanceMeters>NAN</DistanceMeters>
          </Trackpoint>
          <Trackpoint>
            <Time>2018-12-30T10:15:43.000Z</Time>
            <Position>
              <LatitudeDegrees>40.77199411578476428985595703125</LatitudeDegrees>
              <LongitudeDegrees>-4.07221966423094272613525390625</LongitudeDegrees>
            </Position>
            <AltitudeMeters>1416.5999755859375</AltitudeMeters>
            <DistanceMeters>NAN</DistanceMeters>
          </Trackpoint>
          <Trackpoint>
            <Time>2018-12-30T10:15:44.000Z</Time>
            <Position>
              <LatitudeDegrees>40.772003419697284698486328125</LatitudeDegrees>
              <LongitudeDegrees>-4.07222134061157703399658203125</LongitudeDegrees>
            </Position>
            <AltitudeMeters>1416.5999755859375</AltitudeMeters>
            <DistanceMeters>NAN</DistanceMeters>
          </Trackpoint>
          <Trackpoint>
            <Time>2018-12-30T10:15:45.000Z</Time>
            <Position>
              <LatitudeDegrees>40.77200836502015590667724609375</LatitudeDegrees>
              <LongitudeDegrees>-4.072213210165500640869140625</LongitudeDegrees>
            </Position>
            <AltitudeMeters>1416.800048828125</AltitudeMeters>
            <DistanceMeters>NAN</DistanceMeters>
          </Trackpoint>
          <Trackpoint>
            <Time>2018-12-30T10:15:46.000Z</Time>
            <Position>
              <LatitudeDegrees>40.772012807428836822509765625</LatitudeDegrees>
              <LongitudeDegrees>-4.0722076781094074249267578125</LongitudeDegrees>
            </Position>
            <AltitudeMeters>1416.800048828125</AltitudeMeters>
            <DistanceMeters>NAN</DistanceMeters>
          </Trackpoint>
          <Trackpoint>
            <Time>2018-12-30T10:15:47.000Z</Time>
            <Position>
              <LatitudeDegrees>40.77201523818075656890869140625</LatitudeDegrees>
              <LongitudeDegrees>-4.07221128232777118682861328125</LongitudeDegrees>
            </Position>
            <AltitudeMeters>1416.800048828125</AltitudeMeters>
            <DistanceMeters>NAN</DistanceMeters>
          </Trackpoint>
          <Trackpoint>
            <Time>2018-12-30T10:15:48.000Z</Time>
            <Position>
              <LatitudeDegrees>40.772017501294612884521484375</LatitudeDegrees>
              <LongitudeDegrees>-4.0722080133855342864990234375</LongitudeDegrees>
            </Position>
            <AltitudeMeters>1416.800048828125</AltitudeMeters>
            <DistanceMeters>NAN</DistanceMeters>
          </Trackpoint>
          <Trackpoint>
            <Time>2018-12-30T10:15:49.000Z</Time>
            <Position>
              <LatitudeDegrees>40.77201825566589832305908203125</LatitudeDegrees>
              <LongitudeDegrees>-4.0722096897661685943603515625</LongitudeDegrees>
            </Position>
            <AltitudeMeters>1416.800048828125</AltitudeMeters>
            <DistanceMeters>NAN</DistanceMeters>
          </Trackpoint>
          <Trackpoint>
            <Time>2018-12-30T10:15:50.000Z</Time>
            <Position>
              <LatitudeDegrees>40.77201859094202518463134765625</LatitudeDegrees>
              <LongitudeDegrees>-4.07221161760389804840087890625</LongitudeDegrees>
            </Position>
            <AltitudeMeters>1416.800048828125</AltitudeMeters>
            <DistanceMeters>NAN</DistanceMeters>
          </Trackpoint>
          <Trackpoint>
            <Time>2018-12-30T10:15:51.000Z</Time>
            <Position>
              <LatitudeDegrees>40.77202211134135723114013671875</LatitudeDegrees>
              <LongitudeDegrees>-4.07220843248069286346435546875</LongitudeDegrees>
            </Position>
            <AltitudeMeters>1416.800048828125</AltitudeMeters>
            <DistanceMeters>NAN</DistanceMeters>
          </Trackpoint>
          <Trackpoint>
            <Time>2018-12-30T10:15:52.000Z</Time>
            <Position>
              <LatitudeDegrees>40.772025883197784423828125</LatitudeDegrees>
              <LongitudeDegrees>-4.07220273278653621673583984375</LongitudeDegrees>
            </Position>
            <AltitudeMeters>1416.800048828125</AltitudeMeters>
            <DistanceMeters>NAN</DistanceMeters>
          </Trackpoint>
          <Trackpoint>
            <Time>2018-12-30T10:15:53.000Z</Time>
            <Position>
              <LatitudeDegrees>40.7720320858061313629150390625</LatitudeDegrees>
              <LongitudeDegrees>-4.07219803892076015472412109375</LongitudeDegrees>
            </Position>
            <AltitudeMeters>1416.800048828125</AltitudeMeters>
            <DistanceMeters>NAN</DistanceMeters>
          </Trackpoint>
          <Trackpoint>
            <Time>2018-12-30T10:15:54.000Z</Time>
            <Position>
              <LatitudeDegrees>40.7720367796719074249267578125</LatitudeDegrees>
              <LongitudeDegrees>-4.07218848355114459991455078125</LongitudeDegrees>
            </Position>
            <AltitudeMeters>1417</AltitudeMeters>
            <DistanceMeters>NAN</DistanceMeters>
          </Trackpoint>
          <Trackpoint>
            <Time>2018-12-30T10:15:55.000Z</Time>
            <Position>
              <LatitudeDegrees>40.772047340869903564453125</LatitudeDegrees>
              <LongitudeDegrees>-4.07218429259955883026123046875</LongitudeDegrees>
            </Position>
            <AltitudeMeters>1417</AltitudeMeters>
            <DistanceMeters>NAN</DistanceMeters>
          </Trackpoint>
          <Trackpoint>
            <Time>2018-12-30T10:15:56.000Z</Time>
            <Position>
              <LatitudeDegrees>40.77205781824886798858642578125</LatitudeDegrees>
              <LongitudeDegrees>-4.0721835382282733917236328125</LongitudeDegrees>
            </Position>
            <AltitudeMeters>1417.199951171875</AltitudeMeters>
            <DistanceMeters>NAN</DistanceMeters>
          </Trackpoint>
          <Trackpoint>
            <Time>2018-12-30T10:15:57.000Z</Time>
            <Position>
              <LatitudeDegrees>40.77206452377140522003173828125</LatitudeDegrees>
              <LongitudeDegrees>-4.0721855498850345611572265625</LongitudeDegrees>
            </Position>
            <AltitudeMeters>1417.199951171875</AltitudeMeters>
            <DistanceMeters>NAN</DistanceMeters>
          </Trackpoint>
          <Trackpoint>
            <Time>2018-12-30T10:15:58.000Z</Time>
            <Position>
              <LatitudeDegrees>40.7720713131129741668701171875</LatitudeDegrees>
              <LongitudeDegrees>-4.07219368033111095428466796875</LongitudeDegrees>
            </Position>
            <AltitudeMeters>1417.4000244140625</AltitudeMeters>
            <DistanceMeters>NAN</DistanceMeters>
          </Trackpoint>
          <Trackpoint>
            <Time>2018-12-30T10:15:59.000Z</Time>
            <Position>
              <LatitudeDegrees>40.77207542024552822113037109375</LatitudeDegrees>
              <LongitudeDegrees>-4.07219342887401580810546875</LongitudeDegrees>
            </Position>
            <AltitudeMeters>1417.4000244140625</AltitudeMeters>
            <DistanceMeters>NAN</DistanceMeters>
          </Trackpoint>
          <Trackpoint>
            <Time>2018-12-30T10:16:00.000Z</Time>
            <Position>
              <LatitudeDegrees>40.77207827009260654449462890625</LatitudeDegrees>
              <LongitudeDegrees>-4.07219451852142810821533203125</LongitudeDegrees>
            </Position>
            <AltitudeMeters>1417.5999755859375</AltitudeMeters>
            <DistanceMeters>NAN</DistanceMeters>
          </Trackpoint>
          <Trackpoint>
            <Time>2018-12-30T10:16:01.000Z</Time>
            <Position>
              <LatitudeDegrees>40.77208262868225574493408203125</LatitudeDegrees>
              <LongitudeDegrees>-4.0721999667584896087646484375</LongitudeDegrees>
            </Position>
            <AltitudeMeters>1417.5999755859375</AltitudeMeters>
            <DistanceMeters>NAN</DistanceMeters>
          </Trackpoint>
          <Trackpoint>
            <Time>2018-12-30T10:16:02.000Z</Time>
            <Position>
              <LatitudeDegrees>40.77208480797708034515380859375</LatitudeDegrees>
              <LongitudeDegrees>-4.0722113661468029022216796875</LongitudeDegrees>
            </Position>
            <AltitudeMeters>1417.800048828125</AltitudeMeters>
            <DistanceMeters>NAN</DistanceMeters>
          </Trackpoint>
          <Trackpoint>
            <Time>2018-12-30T10:16:03.000Z</Time>
            <Position>
              <LatitudeDegrees>40.77208799310028553009033203125</LatitudeDegrees>
              <LongitudeDegrees>-4.07222385518252849578857421875</LongitudeDegrees>
            </Position>
            <AltitudeMeters>1417.800048828125</AltitudeMeters>
            <DistanceMeters>NAN</DistanceMeters>
          </Trackpoint>
          <Trackpoint>
            <Time>2018-12-30T10:16:04.000Z</Time>
            <Position>
              <LatitudeDegrees>40.772093273699283599853515625</LatitudeDegrees>
              <LongitudeDegrees>-4.0722324885427951812744140625</LongitudeDegrees>
            </Position>
            <AltitudeMeters>1418</AltitudeMeters>
            <DistanceMeters>NAN</DistanceMeters>
          </Trackpoint>
          <Trackpoint>
            <Time>2018-12-30T10:16:05.000Z</Time>
            <Position>
              <LatitudeDegrees>40.7720988057553768157958984375</LatitudeDegrees>
              <LongitudeDegrees>-4.072242714464664459228515625</LongitudeDegrees>
            </Position>
            <AltitudeMeters>1418</AltitudeMeters>
            <DistanceMeters>NAN</DistanceMeters>
          </Trackpoint>
          <Trackpoint>
            <Time>2018-12-30T10:16:06.000Z</Time>
            <Position>
              <LatitudeDegrees>40.7721011526882648468017578125</LatitudeDegrees>
              <LongitudeDegrees>-4.0722559578716754913330078125</LongitudeDegrees>
            </Position>
            <AltitudeMeters>1418.199951171875</AltitudeMeters>
            <DistanceMeters>NAN</DistanceMeters>
          </Trackpoint>
          <Trackpoint>
            <Time>2018-12-30T10:16:07.000Z</Time>
            <Position>
              <LatitudeDegrees>40.772096626460552215576171875</LatitudeDegrees>
              <LongitudeDegrees>-4.0722643397748470306396484375</LongitudeDegrees>
            </Position>
            <AltitudeMeters>1418</AltitudeMeters>
            <DistanceMeters>NAN</DistanceMeters>
          </Trackpoint>
          <Trackpoint>
            <Time>2018-12-30T10:16:08.000Z</Time>
            <Position>
              <LatitudeDegrees>40.77210391871631145477294921875</LatitudeDegrees>
              <LongitudeDegrees>-4.07226945273578166961669921875</LongitudeDegrees>
            </Position>
            <AltitudeMeters>1418</AltitudeMeters>
            <DistanceMeters>NAN</DistanceMeters>
          </Trackpoint>
          <Trackpoint>
            <Time>2018-12-30T10:16:09.000Z</Time>
            <Position>
              <LatitudeDegrees>40.7721085287630558013916015625</LatitudeDegrees>
              <LongitudeDegrees>-4.07227255403995513916015625</LongitudeDegrees>
            </Position>
            <AltitudeMeters>1418</AltitudeMeters>
            <DistanceMeters>NAN</DistanceMeters>
          </Trackpoint>
          <Trackpoint>
            <Time>2018-12-30T10:16:10.000Z</Time>
            <Position>
              <LatitudeDegrees>40.77211179770529270172119140625</LatitudeDegrees>
              <LongitudeDegrees>-4.0722777508199214935302734375</LongitudeDegrees>
            </Position>
            <AltitudeMeters>1417.800048828125</AltitudeMeters>
            <DistanceMeters>NAN</DistanceMeters>
          </Trackpoint>
          <Trackpoint>
            <Time>2018-12-30T10:16:11.000Z</Time>
            <Position>
              <LatitudeDegrees>40.7721155695617198944091796875</LatitudeDegrees>
              <LongitudeDegrees>-4.0722814388573169708251953125</LongitudeDegrees>
            </Position>
            <AltitudeMeters>1417.4000244140625</AltitudeMeters>
            <DistanceMeters>NAN</DistanceMeters>
          </Trackpoint>
          <Trackpoint>
            <Time>2018-12-30T10:16:12.000Z</Time>
            <Position>
              <LatitudeDegrees>40.77212604694068431854248046875</LatitudeDegrees>
              <LongitudeDegrees>-4.07228554598987102508544921875</LongitudeDegrees>
            </Position>
            <AltitudeMeters>1417.199951171875</AltitudeMeters>
            <DistanceMeters>NAN</DistanceMeters>
          </Trackpoint>
          <Trackpoint>
            <Time>2018-12-30T10:16:13.000Z</Time>
            <Position>
              <LatitudeDegrees>40.77213409356772899627685546875</LatitudeDegrees>
              <LongitudeDegrees>-4.07228370197117328643798828125</LongitudeDegrees>
            </Position>
            <AltitudeMeters>1417.199951171875</AltitudeMeters>
            <DistanceMeters>NAN</DistanceMeters>
          </Trackpoint>
          <Trackpoint>
            <Time>2018-12-30T10:16:14.000Z</Time>
            <Position>
              <LatitudeDegrees>40.77213560231029987335205078125</LatitudeDegrees>
              <LongitudeDegrees>-4.07227431423962116241455078125</LongitudeDegrees>
            </Position>
            <AltitudeMeters>1417.199951171875</AltitudeMeters>
            <DistanceMeters>NAN</DistanceMeters>
          </Trackpoint>
          <Trackpoint>
            <Time>2018-12-30T10:16:15.000Z</Time>
            <Position>
              <LatitudeDegrees>40.77214465476572513580322265625</LatitudeDegrees>
              <LongitudeDegrees>-4.07226718962192535400390625</LongitudeDegrees>
            </Position>
            <AltitudeMeters>1417.199951171875</AltitudeMeters>
            <DistanceMeters>NAN</DistanceMeters>
          </Trackpoint>
          <Trackpoint>
            <Time>2018-12-30T10:16:16.000Z</Time>
            <Position>
              <LatitudeDegrees>40.77214079909026622772216796875</LatitudeDegrees>
              <LongitudeDegrees>-4.0722517669200897216796875</LongitudeDegrees>
            </Position>
            <AltitudeMeters>1417.5999755859375</AltitudeMeters>
            <DistanceMeters>NAN</DistanceMeters>
          </Trackpoint>
          <Trackpoint>
            <Time>2018-12-30T10:16:17.000Z</Time>
            <Position>
              <LatitudeDegrees>40.77214582823216915130615234375</LatitudeDegrees>
              <LongitudeDegrees>-4.07224883325397968292236328125</LongitudeDegrees>
            </Position>
            <AltitudeMeters>1418</AltitudeMeters>
            <DistanceMeters>NAN</DistanceMeters>
          </Trackpoint>
          <Trackpoint>
            <Time>2018-12-30T10:16:18.000Z</Time>
            <Position>
              <LatitudeDegrees>40.77215320430696010589599609375</LatitudeDegrees>
              <LongitudeDegrees>-4.07224237918853759765625</LongitudeDegrees>
            </Position>
            <AltitudeMeters>1418.4000244140625</AltitudeMeters>
            <DistanceMeters>NAN</DistanceMeters>
          </Trackpoint>
          <Trackpoint>
            <Time>2018-12-30T10:16:19.000Z</Time>
            <Position>
              <LatitudeDegrees>40.772156976163387298583984375</LatitudeDegrees>
              <LongitudeDegrees>-4.072237350046634674072265625</LongitudeDegrees>
            </Position>
            <AltitudeMeters>1418.5999755859375</AltitudeMeters>
            <DistanceMeters>NAN</DistanceMeters>
          </Trackpoint>
          <Trackpoint>
            <Time>2018-12-30T10:16:20.000Z</Time>
            <Position>
              <LatitudeDegrees>40.772163011133670806884765625</LatitudeDegrees>
              <LongitudeDegrees>-4.0722321532666683197021484375</LongitudeDegrees>
            </Position>
            <AltitudeMeters>1418.5999755859375</AltitudeMeters>
            <DistanceMeters>NAN</DistanceMeters>
          </Trackpoint>
          <Trackpoint>
            <Time>2018-12-30T10:16:21.000Z</Time>
            <Position>
              <LatitudeDegrees>40.77216862700879573822021484375</LatitudeDegrees>
              <LongitudeDegrees>-4.07222150824964046478271484375</LongitudeDegrees>
            </Position>
            <AltitudeMeters>1418.800048828125</AltitudeMeters>
            <DistanceMeters>NAN</DistanceMeters>
          </Trackpoint>
          <Trackpoint>
            <Time>2018-12-30T10:16:22.000Z</Time>
            <Position>
              <LatitudeDegrees>40.77217700891196727752685546875</LatitudeDegrees>
              <LongitudeDegrees>-4.07221497036516666412353515625</LongitudeDegrees>
            </Position>
            <AltitudeMeters>1418.5999755859375</AltitudeMeters>
            <DistanceMeters>NAN</DistanceMeters>
          </Trackpoint>
          <Trackpoint>
            <Time>2018-12-30T10:16:23.000Z</Time>
            <Position>
              <LatitudeDegrees>40.77218790538609027862548828125</LatitudeDegrees>
              <LongitudeDegrees>-4.0722090192139148712158203125</LongitudeDegrees>
            </Position>
            <AltitudeMeters>1418.5999755859375</AltitudeMeters>
            <DistanceMeters>NAN</DistanceMeters>
          </Trackpoint>
          <Trackpoint>
            <Time>2018-12-30T10:16:24.000Z</Time>
            <Position>
              <LatitudeDegrees>40.77219687402248382568359375</LatitudeDegrees>
              <LongitudeDegrees>-4.07220206223428249359130859375</LongitudeDegrees>
            </Position>
            <AltitudeMeters>1418.5999755859375</AltitudeMeters>
            <DistanceMeters>NAN</DistanceMeters>
          </Trackpoint>
          <Trackpoint>
            <Time>2018-12-30T10:16:25.000Z</Time>
            <Position>
              <LatitudeDegrees>40.77220064587891101837158203125</LatitudeDegrees>
              <LongitudeDegrees>-4.072197116911411285400390625</LongitudeDegrees>
            </Position>
            <AltitudeMeters>1418.800048828125</AltitudeMeters>
            <DistanceMeters>NAN</DistanceMeters>
          </Trackpoint>
          <Trackpoint>
            <Time>2018-12-30T10:16:26.000Z</Time>
            <Position>
              <LatitudeDegrees>40.77220751903951168060302734375</LatitudeDegrees>
              <LongitudeDegrees>-4.0721900761127471923828125</LongitudeDegrees>
            </Position>
            <AltitudeMeters>1418.800048828125</AltitudeMeters>
            <DistanceMeters>NAN</DistanceMeters>
          </Trackpoint>
          <Trackpoint>
            <Time>2018-12-30T10:16:27.000Z</Time>
            <Position>
              <LatitudeDegrees>40.77221430838108062744140625</LatitudeDegrees>
              <LongitudeDegrees>-4.07217892818152904510498046875</LongitudeDegrees>
            </Position>
            <AltitudeMeters>1419</AltitudeMeters>
            <DistanceMeters>NAN</DistanceMeters>
          </Trackpoint>
          <Trackpoint>
            <Time>2018-12-30T10:16:28.000Z</Time>
            <Position>
              <LatitudeDegrees>40.77221992425620555877685546875</LatitudeDegrees>
              <LongitudeDegrees>-4.07217037864029407501220703125</LongitudeDegrees>
            </Position>
            <AltitudeMeters>1419</AltitudeMeters>
            <DistanceMeters>NAN</DistanceMeters>
          </Trackpoint>
          <Trackpoint>
            <Time>2018-12-30T10:16:29.000Z</Time>
            <Position>
              <LatitudeDegrees>40.77222914434969425201416015625</LatitudeDegrees>
              <LongitudeDegrees>-4.07215462066233158111572265625</LongitudeDegrees>
            </Position>
            <AltitudeMeters>1419.199951171875</AltitudeMeters>
            <DistanceMeters>NAN</DistanceMeters>
          </Trackpoint>
          <Trackpoint>
            <Time>2018-12-30T10:16:30.000Z</Time>
            <Position>
              <LatitudeDegrees>40.77222914434969425201416015625</LatitudeDegrees>
              <LongitudeDegrees>-4.07215462066233158111572265625</LongitudeDegrees>
            </Position>
            <AltitudeMeters>1419.5999755859375</AltitudeMeters>
            <DistanceMeters>NAN</DistanceMeters>
          </Trackpoint>
          <Trackpoint>
            <Time>2018-12-30T10:16:31.000Z</Time>
            <Position>
              <LatitudeDegrees>40.77223417349159717559814453125</LatitudeDegrees>
              <LongitudeDegrees>-4.072153531014919281005859375</LongitudeDegrees>
            </Position>
            <AltitudeMeters>1419.800048828125</AltitudeMeters>
            <DistanceMeters>NAN</DistanceMeters>
          </Trackpoint>
          <Trackpoint>
            <Time>2018-12-30T10:16:32.000Z</Time>
            <Position>
              <LatitudeDegrees>40.7722456566989421844482421875</LatitudeDegrees>
              <LongitudeDegrees>-4.0721513517200946807861328125</LongitudeDegrees>
            </Position>
            <AltitudeMeters>1419.800048828125</AltitudeMeters>
            <DistanceMeters>NAN</DistanceMeters>
          </Trackpoint>
          <Trackpoint>
            <Time>2018-12-30T10:16:33.000Z</Time>
            <Position>
              <LatitudeDegrees>40.77226066030561923980712890625</LatitudeDegrees>
              <LongitudeDegrees>-4.07214255072176456451416015625</LongitudeDegrees>
            </Position>
            <AltitudeMeters>1420</AltitudeMeters>
            <DistanceMeters>NAN</DistanceMeters>
          </Trackpoint>
          <Trackpoint>
            <Time>2018-12-30T10:16:34.000Z</Time>
            <Position>
              <LatitudeDegrees>40.7722741551697254180908203125</LatitudeDegrees>
              <LongitudeDegrees>-4.07213710248470306396484375</LongitudeDegrees>
            </Position>
            <AltitudeMeters>1420.4000244140625</AltitudeMeters>
            <DistanceMeters>NAN</DistanceMeters>
          </Trackpoint>
          <Trackpoint>
            <Time>2018-12-30T10:16:35.000Z</Time>
            <Position>
              <LatitudeDegrees>40.77228580601513385772705078125</LatitudeDegrees>
              <LongitudeDegrees>-4.07212796621024608612060546875</LongitudeDegrees>
            </Position>
            <AltitudeMeters>1420.5999755859375</AltitudeMeters>
            <DistanceMeters>NAN</DistanceMeters>
          </Trackpoint>
          <Trackpoint>
            <Time>2018-12-30T10:16:36.000Z</Time>
            <Position>
              <LatitudeDegrees>40.77229452319443225860595703125</LatitudeDegrees>
              <LongitudeDegrees>-4.0721225179731845855712890625</LongitudeDegrees>
            </Position>
            <AltitudeMeters>1420.5999755859375</AltitudeMeters>
            <DistanceMeters>NAN</DistanceMeters>
          </Trackpoint>
          <Trackpoint>
            <Time>2018-12-30T10:16:37.000Z</Time>
            <Position>
              <LatitudeDegrees>40.77230324037373065948486328125</LatitudeDegrees>
              <LongitudeDegrees>-4.07211832702159881591796875</LongitudeDegrees>
            </Position>
            <AltitudeMeters>1420.800048828125</AltitudeMeters>
            <DistanceMeters>NAN</DistanceMeters>
          </Trackpoint>
          <Trackpoint>
            <Time>2018-12-30T10:16:38.000Z</Time>
            <Position>
              <LatitudeDegrees>40.7723100297152996063232421875</LatitudeDegrees>
              <LongitudeDegrees>-4.07211388461291790008544921875</LongitudeDegrees>
            </Position>
            <AltitudeMeters>1420.800048828125</AltitudeMeters>
            <DistanceMeters>NAN</DistanceMeters>
          </Trackpoint>
          <Trackpoint>
            <Time>2018-12-30T10:16:39.000Z</Time>
            <Position>
              <LatitudeDegrees>40.77231933362782001495361328125</LatitudeDegrees>
              <LongitudeDegrees>-4.07211103476583957672119140625</LongitudeDegrees>
            </Position>
            <AltitudeMeters>1420.800048828125</AltitudeMeters>
            <DistanceMeters>NAN</DistanceMeters>
          </Trackpoint>
          <Trackpoint>
            <Time>2018-12-30T10:16:40.000Z</Time>
            <Position>
              <LatitudeDegrees>40.77232972718775272369384765625</LatitudeDegrees>
              <LongitudeDegrees>-4.07210282050073146820068359375</LongitudeDegrees>
            </Position>
            <AltitudeMeters>1420.800048828125</AltitudeMeters>
            <DistanceMeters>NAN</DistanceMeters>
          </Trackpoint>
          <Trackpoint>
            <Time>2018-12-30T10:16:41.000Z</Time>
            <Position>
              <LatitudeDegrees>40.7723351754248142242431640625</LatitudeDegrees>
              <LongitudeDegrees>-4.0720975399017333984375</LongitudeDegrees>
            </Position>
            <AltitudeMeters>1420.800048828125</AltitudeMeters>
            <DistanceMeters>NAN</DistanceMeters>
          </Trackpoint>
          <Trackpoint>
            <Time>2018-12-30T10:16:42.000Z</Time>
            <Position>
              <LatitudeDegrees>40.772339366376399993896484375</LatitudeDegrees>
              <LongitudeDegrees>-4.07208588905632495880126953125</LongitudeDegrees>
            </Position>
            <AltitudeMeters>1421.199951171875</AltitudeMeters>
            <DistanceMeters>NAN</DistanceMeters>
          </Trackpoint>
          <Trackpoint>
            <Time>2018-12-30T10:16:43.000Z</Time>
            <Position>
              <LatitudeDegrees>40.772345066070556640625</LatitudeDegrees>
              <LongitudeDegrees>-4.07208521850407123565673828125</LongitudeDegrees>
            </Position>
            <AltitudeMeters>1421.199951171875</AltitudeMeters>
            <DistanceMeters>NAN</DistanceMeters>
          </Trackpoint>
          <Trackpoint>
            <Time>2018-12-30T10:16:44.000Z</Time>
            <Position>
              <LatitudeDegrees>40.7723559625446796417236328125</LatitudeDegrees>
              <LongitudeDegrees>-4.0720879845321178436279296875</LongitudeDegrees>
            </Position>
            <AltitudeMeters>1421.5999755859375</AltitudeMeters>
            <DistanceMeters>NAN</DistanceMeters>
          </Trackpoint>
          <Trackpoint>
            <Time>2018-12-30T10:16:45.000Z</Time>
            <Position>
              <LatitudeDegrees>40.77236409299075603485107421875</LatitudeDegrees>
              <LongitudeDegrees>-4.0720819495618343353271484375</LongitudeDegrees>
            </Position>
            <AltitudeMeters>1421.5999755859375</AltitudeMeters>
            <DistanceMeters>NAN</DistanceMeters>
          </Trackpoint>
          <Trackpoint>
            <Time>2018-12-30T10:16:46.000Z</Time>
            <Position>
              <LatitudeDegrees>40.772378928959369659423828125</LatitudeDegrees>
              <LongitudeDegrees>-4.072075746953487396240234375</LongitudeDegrees>
            </Position>
            <AltitudeMeters>1421.800048828125</AltitudeMeters>
            <DistanceMeters>NAN</DistanceMeters>
          </Trackpoint>
          <Trackpoint>
            <Time>2018-12-30T10:16:47.000Z</Time>
            <Position>
              <LatitudeDegrees>40.77238705940544605255126953125</LatitudeDegrees>
              <LongitudeDegrees>-4.072079099714756011962890625</LongitudeDegrees>
            </Position>
            <AltitudeMeters>1422</AltitudeMeters>
            <DistanceMeters>NAN</DistanceMeters>
          </Trackpoint>
          <Trackpoint>
            <Time>2018-12-30T10:16:48.000Z</Time>
            <Position>
              <LatitudeDegrees>40.77239678241312503814697265625</LatitudeDegrees>
              <LongitudeDegrees>-4.0720762498676776885986328125</LongitudeDegrees>
            </Position>
            <AltitudeMeters>1422</AltitudeMeters>
            <DistanceMeters>NAN</DistanceMeters>
          </Trackpoint>
          <Trackpoint>
            <Time>2018-12-30T10:16:49.000Z</Time>
            <Position>
              <LatitudeDegrees>40.77240583486855030059814453125</LatitudeDegrees>
              <LongitudeDegrees>-4.0720682032406330108642578125</LongitudeDegrees>
            </Position>
            <AltitudeMeters>1422</AltitudeMeters>
            <DistanceMeters>NAN</DistanceMeters>
          </Trackpoint>
          <Trackpoint>
            <Time>2018-12-30T10:16:50.000Z</Time>
            <Position>
              <LatitudeDegrees>40.77241941355168819427490234375</LatitudeDegrees>
              <LongitudeDegrees>-4.072060994803905487060546875</LongitudeDegrees>
            </Position>
            <AltitudeMeters>1422.199951171875</AltitudeMeters>
            <DistanceMeters>NAN</DistanceMeters>
          </Trackpoint>
          <Trackpoint>
            <Time>2018-12-30T10:16:51.000Z</Time>
            <Position>
              <LatitudeDegrees>40.77242947183549404144287109375</LatitudeDegrees>
              <LongitudeDegrees>-4.0720561333000659942626953125</LongitudeDegrees>
            </Position>
            <AltitudeMeters>1422.199951171875</AltitudeMeters>
            <DistanceMeters>NAN</DistanceMeters>
          </Trackpoint>
          <Trackpoint>
            <Time>2018-12-30T10:16:52.000Z</Time>
            <Position>
              <LatitudeDegrees>40.77243802137672901153564453125</LatitudeDegrees>
              <LongitudeDegrees>-4.07205051742494106292724609375</LongitudeDegrees>
            </Position>
            <AltitudeMeters>1422.4000244140625</AltitudeMeters>
            <DistanceMeters>NAN</DistanceMeters>
          </Trackpoint>
          <Trackpoint>
            <Time>2018-12-30T10:16:53.000Z</Time>
            <Position>
              <LatitudeDegrees>40.7724525220692157745361328125</LatitudeDegrees>
              <LongitudeDegrees>-4.07205127179622650146484375</LongitudeDegrees>
            </Position>
            <AltitudeMeters>1422.5999755859375</AltitudeMeters>
            <DistanceMeters>NAN</DistanceMeters>
          </Trackpoint>
          <Trackpoint>
            <Time>2018-12-30T10:16:54.000Z</Time>
            <Position>
              <LatitudeDegrees>40.77246132306754589080810546875</LatitudeDegrees>
              <LongitudeDegrees>-4.07204582355916500091552734375</LongitudeDegrees>
            </Position>
            <AltitudeMeters>1422.5999755859375</AltitudeMeters>
            <DistanceMeters>NAN</DistanceMeters>
          </Trackpoint>
          <Trackpoint>
            <Time>2018-12-30T10:16:55.000Z</Time>
            <Position>
              <LatitudeDegrees>40.7724736444652080535888671875</LatitudeDegrees>
              <LongitudeDegrees>-4.07203341834247112274169921875</LongitudeDegrees>
            </Position>
            <AltitudeMeters>1422.5999755859375</AltitudeMeters>
            <DistanceMeters>NAN</DistanceMeters>
          </Trackpoint>
          <Trackpoint>
            <Time>2018-12-30T10:16:56.000Z</Time>
            <Position>
              <LatitudeDegrees>40.77248445712029933929443359375</LatitudeDegrees>
              <LongitudeDegrees>-4.072016738355159759521484375</LongitudeDegrees>
            </Position>
            <AltitudeMeters>1422.800048828125</AltitudeMeters>
            <DistanceMeters>NAN</DistanceMeters>
          </Trackpoint>
          <Trackpoint>
            <Time>2018-12-30T10:16:57.000Z</Time>
            <Position>
              <LatitudeDegrees>40.7724974490702152252197265625</LatitudeDegrees>
              <LongitudeDegrees>-4.07200424931943416595458984375</LongitudeDegrees>
            </Position>
            <AltitudeMeters>1422.800048828125</AltitudeMeters>
            <DistanceMeters>NAN</DistanceMeters>
          </Trackpoint>
          <Trackpoint>
            <Time>2018-12-30T10:16:58.000Z</Time>
            <Position>
              <LatitudeDegrees>40.7725059986114501953125</LatitudeDegrees>
              <LongitudeDegrees>-4.0719907544553279876708984375</LongitudeDegrees>
            </Position>
            <AltitudeMeters>1422.800048828125</AltitudeMeters>
            <DistanceMeters>NAN</DistanceMeters>
          </Trackpoint>
          <Trackpoint>
            <Time>2018-12-30T10:16:59.000Z</Time>
            <Position>
              <LatitudeDegrees>40.77251496724784374237060546875</LatitudeDegrees>
              <LongitudeDegrees>-4.07198488712310791015625</LongitudeDegrees>
            </Position>
            <AltitudeMeters>1422.800048828125</AltitudeMeters>
            <DistanceMeters>NAN</DistanceMeters>
          </Trackpoint>
          <Trackpoint>
            <Time>2018-12-30T10:17:00.000Z</Time>
            <Position>
              <LatitudeDegrees>40.7725287973880767822265625</LatitudeDegrees>
              <LongitudeDegrees>-4.0719850547611713409423828125</LongitudeDegrees>
            </Position>
            <AltitudeMeters>1423</AltitudeMeters>
            <DistanceMeters>NAN</DistanceMeters>
          </Trackpoint>
          <Trackpoint>
            <Time>2018-12-30T10:17:01.000Z</Time>
            <Position>
              <LatitudeDegrees>40.77254287898540496826171875</LatitudeDegrees>
              <LongitudeDegrees>-4.0719853900372982025146484375</LongitudeDegrees>
            </Position>
            <AltitudeMeters>1423.199951171875</AltitudeMeters>
            <DistanceMeters>NAN</DistanceMeters>
          </Trackpoint>
          <Trackpoint>
            <Time>2018-12-30T10:17:02.000Z</Time>
            <Position>
              <LatitudeDegrees>40.772555954754352569580078125</LatitudeDegrees>
              <LongitudeDegrees>-4.0719870664179325103759765625</LongitudeDegrees>
            </Position>
            <AltitudeMeters>1423.4000244140625</AltitudeMeters>
            <DistanceMeters>NAN</DistanceMeters>
          </Trackpoint>
          <Trackpoint>
            <Time>2018-12-30T10:17:03.000Z</Time>
            <Position>
              <LatitudeDegrees>40.772564001381397247314453125</LatitudeDegrees>
              <LongitudeDegrees>-4.07198865897953510284423828125</LongitudeDegrees>
            </Position>
            <AltitudeMeters>1423.5999755859375</AltitudeMeters>
            <DistanceMeters>NAN</DistanceMeters>
          </Trackpoint>
          <Trackpoint>
            <Time>2018-12-30T10:17:04.000Z</Time>
            <Position>
              <LatitudeDegrees>40.77257615514099597930908203125</LatitudeDegrees>
              <LongitudeDegrees>-4.07199469394981861114501953125</LongitudeDegrees>
            </Position>
            <AltitudeMeters>1423.5999755859375</AltitudeMeters>
            <DistanceMeters>NAN</DistanceMeters>
          </Trackpoint>
          <Trackpoint>
            <Time>2018-12-30T10:17:05.000Z</Time>
            <Position>
              <LatitudeDegrees>40.772590152919292449951171875</LatitudeDegrees>
              <LongitudeDegrees>-4.0719991363584995269775390625</LongitudeDegrees>
            </Position>
            <AltitudeMeters>1423.800048828125</AltitudeMeters>
            <DistanceMeters>NAN</DistanceMeters>
          </Trackpoint>
          <Trackpoint>
            <Time>2018-12-30T10:17:06.000Z</Time>
            <Position>
              <LatitudeDegrees>40.77260482124984264373779296875</LatitudeDegrees>
              <LongitudeDegrees>-4.07200307585299015045166015625</LongitudeDegrees>
            </Position>
            <AltitudeMeters>1424</AltitudeMeters>
            <DistanceMeters>NAN</DistanceMeters>
          </Trackpoint>
          <Trackpoint>
            <Time>2018-12-30T10:17:07.000Z</Time>
            <Position>
              <LatitudeDegrees>40.77261990867555141448974609375</LatitudeDegrees>
              <LongitudeDegrees>-4.07200911082327365875244140625</LongitudeDegrees>
            </Position>
            <AltitudeMeters>1424</AltitudeMeters>
            <DistanceMeters>NAN</DistanceMeters>
          </Trackpoint>
          <Trackpoint>
            <Time>2018-12-30T10:17:08.000Z</Time>
            <Position>
              <LatitudeDegrees>40.77262946404516696929931640625</LatitudeDegrees>
              <LongitudeDegrees>-4.07200944609940052032470703125</LongitudeDegrees>
            </Position>
            <AltitudeMeters>1424.199951171875</AltitudeMeters>
            <DistanceMeters>NAN</DistanceMeters>
          </Trackpoint>
          <Trackpoint>
            <Time>2018-12-30T10:17:09.000Z</Time>
            <Position>
              <LatitudeDegrees>40.77263700775802135467529296875</LatitudeDegrees>
              <LongitudeDegrees>-4.072009362280368804931640625</LongitudeDegrees>
            </Position>
            <AltitudeMeters>1424.199951171875</AltitudeMeters>
            <DistanceMeters>NAN</DistanceMeters>
          </Trackpoint>
          <Trackpoint>
            <Time>2018-12-30T10:17:10.000Z</Time>
            <Position>
              <LatitudeDegrees>40.7726443000137805938720703125</LatitudeDegrees>
              <LongitudeDegrees>-4.07201363705098628997802734375</LongitudeDegrees>
            </Position>
            <AltitudeMeters>1424.4000244140625</AltitudeMeters>
            <DistanceMeters>NAN</DistanceMeters>
          </Trackpoint>
          <Trackpoint>
            <Time>2018-12-30T10:17:11.000Z</Time>
            <Position>
              <LatitudeDegrees>40.772655196487903594970703125</LatitudeDegrees>
              <LongitudeDegrees>-4.07202218659222126007080078125</LongitudeDegrees>
            </Position>
            <AltitudeMeters>1424.5999755859375</AltitudeMeters>
            <DistanceMeters>NAN</DistanceMeters>
          </Trackpoint>
          <Trackpoint>
            <Time>2018-12-30T10:17:12.000Z</Time>
            <Position>
              <LatitudeDegrees>40.7726709544658660888671875</LatitudeDegrees>
              <LongitudeDegrees>-4.0720182470977306365966796875</LongitudeDegrees>
            </Position>
            <AltitudeMeters>1424.5999755859375</AltitudeMeters>
            <DistanceMeters>NAN</DistanceMeters>
          </Trackpoint>
          <Trackpoint>
            <Time>2018-12-30T10:17:13.000Z</Time>
            <Position>
              <LatitudeDegrees>40.77268243767321109771728515625</LatitudeDegrees>
              <LongitudeDegrees>-4.0720199234783649444580078125</LongitudeDegrees>
            </Position>
            <AltitudeMeters>1424.800048828125</AltitudeMeters>
            <DistanceMeters>NAN</DistanceMeters>
          </Trackpoint>
          <Trackpoint>
            <Time>2018-12-30T10:17:14.000Z</Time>
            <Position>
              <LatitudeDegrees>40.7726950943470001220703125</LatitudeDegrees>
              <LongitudeDegrees>-4.07202201895415782928466796875</LongitudeDegrees>
            </Position>
            <AltitudeMeters>1425</AltitudeMeters>
            <DistanceMeters>NAN</DistanceMeters>
          </Trackpoint>
          <Trackpoint>
            <Time>2018-12-30T10:17:15.000Z</Time>
            <Position>
              <LatitudeDegrees>40.7727036438882350921630859375</LatitudeDegrees>
              <LongitudeDegrees>-4.07202051021158695220947265625</LongitudeDegrees>
            </Position>
            <AltitudeMeters>1425.199951171875</AltitudeMeters>
            <DistanceMeters>NAN</DistanceMeters>
          </Trackpoint>
          <Trackpoint>
            <Time>2018-12-30T10:17:16.000Z</Time>
            <Position>
              <LatitudeDegrees>40.77270993031561374664306640625</LatitudeDegrees>
              <LongitudeDegrees>-4.07202386297285556793212890625</LongitudeDegrees>
            </Position>
            <AltitudeMeters>1425.4000244140625</AltitudeMeters>
            <DistanceMeters>NAN</DistanceMeters>
          </Trackpoint>
          <Trackpoint>
            <Time>2018-12-30T10:17:17.000Z</Time>
            <Position>
              <LatitudeDegrees>40.772714875638484954833984375</LatitudeDegrees>
              <LongitudeDegrees>-4.0720291435718536376953125</LongitudeDegrees>
            </Position>
            <AltitudeMeters>1425.5999755859375</AltitudeMeters>
            <DistanceMeters>NAN</DistanceMeters>
          </Trackpoint>
          <Trackpoint>
            <Time>2018-12-30T10:17:18.000Z</Time>
            <Position>
              <LatitudeDegrees>40.77272149734199047088623046875</LatitudeDegrees>
              <LongitudeDegrees>-4.07203123904764652252197265625</LongitudeDegrees>
            </Position>
            <AltitudeMeters>1425.5999755859375</AltitudeMeters>
            <DistanceMeters>NAN</DistanceMeters>
          </Trackpoint>
          <Trackpoint>
            <Time>2018-12-30T10:17:19.000Z</Time>
            <Position>
              <LatitudeDegrees>40.77272401191294193267822265625</LatitudeDegrees>
              <LongitudeDegrees>-4.0720346756279468536376953125</LongitudeDegrees>
            </Position>
            <AltitudeMeters>1425.800048828125</AltitudeMeters>
            <DistanceMeters>NAN</DistanceMeters>
          </Trackpoint>
          <Trackpoint>
            <Time>2018-12-30T10:17:20.000Z</Time>
            <Position>
              <LatitudeDegrees>40.772726275026798248291015625</LatitudeDegrees>
              <LongitudeDegrees>-4.07203844748437404632568359375</LongitudeDegrees>
            </Position>
            <AltitudeMeters>1425.800048828125</AltitudeMeters>
            <DistanceMeters>NAN</DistanceMeters>
          </Trackpoint>
          <Trackpoint>
            <Time>2018-12-30T10:17:21.000Z</Time>
            <Position>
              <LatitudeDegrees>40.77272795140743255615234375</LatitudeDegrees>
              <LongitudeDegrees>-4.07204188406467437744140625</LongitudeDegrees>
            </Position>
            <AltitudeMeters>1425.800048828125</AltitudeMeters>
            <DistanceMeters>NAN</DistanceMeters>
          </Trackpoint>
          <Trackpoint>
            <Time>2018-12-30T10:17:22.000Z</Time>
            <Position>
              <LatitudeDegrees>40.77273088507354259490966796875</LatitudeDegrees>
              <LongitudeDegrees>-4.07204465009272098541259765625</LongitudeDegrees>
            </Position>
            <AltitudeMeters>1425.5999755859375</AltitudeMeters>
            <DistanceMeters>NAN</DistanceMeters>
          </Trackpoint>
          <Trackpoint>
            <Time>2018-12-30T10:17:23.000Z</Time>
            <Position>
              <LatitudeDegrees>40.77273624949157238006591796875</LatitudeDegrees>
              <LongitudeDegrees>-4.07204456627368927001953125</LongitudeDegrees>
            </Position>
            <AltitudeMeters>1425.5999755859375</AltitudeMeters>
            <DistanceMeters>NAN</DistanceMeters>
          </Trackpoint>
          <Trackpoint>
            <Time>2018-12-30T10:17:24.000Z</Time>
            <Position>
              <LatitudeDegrees>40.7727353274822235107421875</LatitudeDegrees>
              <LongitudeDegrees>-4.0720246173441410064697265625</LongitudeDegrees>
            </Position>
            <AltitudeMeters>1425.5999755859375</AltitudeMeters>
            <DistanceMeters>NAN</DistanceMeters>
          </Trackpoint>
          <Trackpoint>
            <Time>2018-12-30T10:17:25.000Z</Time>
            <Position>
              <LatitudeDegrees>40.77273842878639698028564453125</LatitudeDegrees>
              <LongitudeDegrees>-4.0720142237842082977294921875</LongitudeDegrees>
            </Position>
            <AltitudeMeters>1425.5999755859375</AltitudeMeters>
            <DistanceMeters>NAN</DistanceMeters>
          </Trackpoint>
          <Trackpoint>
            <Time>2018-12-30T10:17:26.000Z</Time>
            <Position>
              <LatitudeDegrees>40.77274764887988567352294921875</LatitudeDegrees>
              <LongitudeDegrees>-4.07200626097619533538818359375</LongitudeDegrees>
            </Position>
            <AltitudeMeters>1425.5999755859375</AltitudeMeters>
            <DistanceMeters>NAN</DistanceMeters>
          </Trackpoint>
          <Trackpoint>
            <Time>2018-12-30T10:17:27.000Z</Time>
            <Position>
              <LatitudeDegrees>40.7727542705833911895751953125</LatitudeDegrees>
              <LongitudeDegrees>-4.07200005836784839630126953125</LongitudeDegrees>
            </Position>
            <AltitudeMeters>1425.5999755859375</AltitudeMeters>
            <DistanceMeters>NAN</DistanceMeters>
          </Trackpoint>
          <Trackpoint>
            <Time>2018-12-30T10:17:28.000Z</Time>
            <Position>
              <LatitudeDegrees>40.77275619842112064361572265625</LatitudeDegrees>
              <LongitudeDegrees>-4.0719984658062458038330078125</LongitudeDegrees>
            </Position>
            <AltitudeMeters>1425.5999755859375</AltitudeMeters>
            <DistanceMeters>NAN</DistanceMeters>
          </Trackpoint>
          <Trackpoint>
            <Time>2018-12-30T10:17:29.000Z</Time>
            <Position>
              <LatitudeDegrees>40.772761143743991851806640625</LatitudeDegrees>
              <LongitudeDegrees>-4.07199385575950145721435546875</LongitudeDegrees>
            </Position>
            <AltitudeMeters>1425.5999755859375</AltitudeMeters>
            <DistanceMeters>NAN</DistanceMeters>
          </Trackpoint>
          <Trackpoint>
            <Time>2018-12-30T10:17:30.000Z</Time>
            <Position>
              <LatitudeDegrees>40.77277028001844882965087890625</LatitudeDegrees>
              <LongitudeDegrees>-4.0719830431044101715087890625</LongitudeDegrees>
            </Position>
            <AltitudeMeters>1425.5999755859375</AltitudeMeters>
            <DistanceMeters>NAN</DistanceMeters>
          </Trackpoint>
          <Trackpoint>
            <Time>2018-12-30T10:17:31.000Z</Time>
            <Position>
              <LatitudeDegrees>40.77277933247387409210205078125</LatitudeDegrees>
              <LongitudeDegrees>-4.0719914250075817108154296875</LongitudeDegrees>
            </Position>
            <AltitudeMeters>1425.800048828125</AltitudeMeters>
            <DistanceMeters>NAN</DistanceMeters>
          </Trackpoint>
          <Trackpoint>
            <Time>2018-12-30T10:17:32.000Z</Time>
            <Position>
              <LatitudeDegrees>40.7727834396064281463623046875</LatitudeDegrees>
              <LongitudeDegrees>-4.07199670560657978057861328125</LongitudeDegrees>
            </Position>
            <AltitudeMeters>1425.800048828125</AltitudeMeters>
            <DistanceMeters>NAN</DistanceMeters>
          </Trackpoint>
          <Trackpoint>
            <Time>2018-12-30T10:17:33.000Z</Time>
            <Position>
              <LatitudeDegrees>40.7727891393005847930908203125</LatitudeDegrees>
              <LongitudeDegrees>-4.07199771143496036529541015625</LongitudeDegrees>
            </Position>
            <AltitudeMeters>1425.800048828125</AltitudeMeters>
            <DistanceMeters>NAN</DistanceMeters>
          </Trackpoint>
          <Trackpoint>
            <Time>2018-12-30T10:17:34.000Z</Time>
            <Position>
              <LatitudeDegrees>40.772794671356678009033203125</LatitudeDegrees>
              <LongitudeDegrees>-4.07199905253946781158447265625</LongitudeDegrees>
            </Position>
            <AltitudeMeters>1425.800048828125</AltitudeMeters>
            <DistanceMeters>NAN</DistanceMeters>
          </Trackpoint>
          <Trackpoint>
            <Time>2018-12-30T10:17:35.000Z</Time>
            <Position>
              <LatitudeDegrees>40.77279894612729549407958984375</LatitudeDegrees>
              <LongitudeDegrees>-4.0720001421868801116943359375</LongitudeDegrees>
            </Position>
            <AltitudeMeters>1425.800048828125</AltitudeMeters>
            <DistanceMeters>NAN</DistanceMeters>
          </Trackpoint>
          <Trackpoint>
            <Time>2018-12-30T10:17:36.000Z</Time>
            <Position>
              <LatitudeDegrees>40.772805400192737579345703125</LatitudeDegrees>
              <LongitudeDegrees>-4.0719954483211040496826171875</LongitudeDegrees>
            </Position>
            <AltitudeMeters>1426</AltitudeMeters>
            <DistanceMeters>NAN</DistanceMeters>
          </Trackpoint>
          <Trackpoint>
            <Time>2018-12-30T10:17:37.000Z</Time>
            <Position>
              <LatitudeDegrees>40.77280707657337188720703125</LatitudeDegrees>
              <LongitudeDegrees>-4.07199335284531116485595703125</LongitudeDegrees>
            </Position>
            <AltitudeMeters>1426</AltitudeMeters>
            <DistanceMeters>NAN</DistanceMeters>
          </Trackpoint>
          <Trackpoint>
            <Time>2018-12-30T10:17:38.000Z</Time>
            <Position>
              <LatitudeDegrees>40.77280732803046703338623046875</LatitudeDegrees>
              <LongitudeDegrees>-4.0719920955598354339599609375</LongitudeDegrees>
            </Position>
            <AltitudeMeters>1426</AltitudeMeters>
            <DistanceMeters>NAN</DistanceMeters>
          </Trackpoint>
          <Trackpoint>
            <Time>2018-12-30T10:17:39.000Z</Time>
            <Position>
              <LatitudeDegrees>40.772807411849498748779296875</LatitudeDegrees>
              <LongitudeDegrees>-4.07199335284531116485595703125</LongitudeDegrees>
            </Position>
            <AltitudeMeters>1426</AltitudeMeters>
            <DistanceMeters>NAN</DistanceMeters>
          </Trackpoint>
          <Trackpoint>
            <Time>2018-12-30T10:17:40.000Z</Time>
            <Position>
              <LatitudeDegrees>40.7728077471256256103515625</LatitudeDegrees>
              <LongitudeDegrees>-4.07199620269238948822021484375</LongitudeDegrees>
            </Position>
            <AltitudeMeters>1426</AltitudeMeters>
            <DistanceMeters>NAN</DistanceMeters>
          </Trackpoint>
          <Trackpoint>
            <Time>2018-12-30T10:17:41.000Z</Time>
            <Position>
              <LatitudeDegrees>40.772809088230133056640625</LatitudeDegrees>
              <LongitudeDegrees>-4.07199871726334095001220703125</LongitudeDegrees>
            </Position>
            <AltitudeMeters>1426</AltitudeMeters>
            <DistanceMeters>NAN</DistanceMeters>
          </Trackpoint>
          <Trackpoint>
            <Time>2018-12-30T10:17:42.000Z</Time>
            <Position>
              <LatitudeDegrees>40.7728109322488307952880859375</LatitudeDegrees>
              <LongitudeDegrees>-4.07200357876718044281005859375</LongitudeDegrees>
            </Position>
            <AltitudeMeters>1426</AltitudeMeters>
            <DistanceMeters>NAN</DistanceMeters>
          </Trackpoint>
          <Trackpoint>
            <Time>2018-12-30T10:17:43.000Z</Time>
            <Position>
              <LatitudeDegrees>40.772810094058513641357421875</LatitudeDegrees>
              <LongitudeDegrees>-4.07200701534748077392578125</LongitudeDegrees>
            </Position>
            <AltitudeMeters>1426</AltitudeMeters>
            <DistanceMeters>NAN</DistanceMeters>
          </Trackpoint>
          <Trackpoint>
            <Time>2018-12-30T10:17:44.000Z</Time>
            <Position>
              <LatitudeDegrees>40.772808752954006195068359375</LatitudeDegrees>
              <LongitudeDegrees>-4.072008021175861358642578125</LongitudeDegrees>
            </Position>
            <AltitudeMeters>1426.199951171875</AltitudeMeters>
            <DistanceMeters>NAN</DistanceMeters>
          </Trackpoint>
          <Trackpoint>
            <Time>2018-12-30T10:17:45.000Z</Time>
            <Position>
              <LatitudeDegrees>40.7728077471256256103515625</LatitudeDegrees>
              <LongitudeDegrees>-4.0720076858997344970703125</LongitudeDegrees>
            </Position>
            <AltitudeMeters>1426.4000244140625</AltitudeMeters>
            <DistanceMeters>NAN</DistanceMeters>
          </Trackpoint>
          <Trackpoint>
            <Time>2018-12-30T10:17:46.000Z</Time>
            <Position>
              <LatitudeDegrees>40.772806741297245025634765625</LatitudeDegrees>
              <LongitudeDegrees>-4.072007350623607635498046875</LongitudeDegrees>
            </Position>
            <AltitudeMeters>1426.4000244140625</AltitudeMeters>
            <DistanceMeters>NAN</DistanceMeters>
          </Trackpoint>
          <Trackpoint>
            <Time>2018-12-30T10:17:47.000Z</Time>
            <Position>
              <LatitudeDegrees>40.77280447818338871002197265625</LatitudeDegrees>
              <LongitudeDegrees>-4.0720071829855442047119140625</LongitudeDegrees>
            </Position>
            <AltitudeMeters>1426.4000244140625</AltitudeMeters>
            <DistanceMeters>NAN</DistanceMeters>
          </Trackpoint>
          <Trackpoint>
            <Time>2018-12-30T10:17:48.000Z</Time>
            <Position>
              <LatitudeDegrees>40.77280447818338871002197265625</LatitudeDegrees>
              <LongitudeDegrees>-4.072010032832622528076171875</LongitudeDegrees>
            </Position>
            <AltitudeMeters>1426.199951171875</AltitudeMeters>
            <DistanceMeters>NAN</DistanceMeters>
          </Trackpoint>
          <Trackpoint>
            <Time>2018-12-30T10:17:49.000Z</Time>
            <Position>
              <LatitudeDegrees>40.772803723812103271484375</LatitudeDegrees>
              <LongitudeDegrees>-4.072014391422271728515625</LongitudeDegrees>
            </Position>
            <AltitudeMeters>1426.199951171875</AltitudeMeters>
            <DistanceMeters>NAN</DistanceMeters>
          </Trackpoint>
          <Trackpoint>
            <Time>2018-12-30T10:17:50.000Z</Time>
            <Position>
              <LatitudeDegrees>40.77280414290726184844970703125</LatitudeDegrees>
              <LongitudeDegrees>-4.072016738355159759521484375</LongitudeDegrees>
            </Position>
            <AltitudeMeters>1426.199951171875</AltitudeMeters>
            <DistanceMeters>NAN</DistanceMeters>
          </Trackpoint>
          <Trackpoint>
            <Time>2018-12-30T10:17:51.000Z</Time>
            <Position>
              <LatitudeDegrees>40.77280699275434017181396484375</LatitudeDegrees>
              <LongitudeDegrees>-4.0720212645828723907470703125</LongitudeDegrees>
            </Position>
            <AltitudeMeters>1426.199951171875</AltitudeMeters>
            <DistanceMeters>NAN</DistanceMeters>
          </Trackpoint>
          <Trackpoint>
            <Time>2018-12-30T10:17:52.000Z</Time>
            <Position>
              <LatitudeDegrees>40.7728038914501667022705078125</LatitudeDegrees>
              <LongitudeDegrees>-4.07202503643929958343505859375</LongitudeDegrees>
            </Position>
            <AltitudeMeters>1426</AltitudeMeters>
            <DistanceMeters>NAN</DistanceMeters>
          </Trackpoint>
          <Trackpoint>
            <Time>2018-12-30T10:17:53.000Z</Time>
            <Position>
              <LatitudeDegrees>40.77280363999307155609130859375</LatitudeDegrees>
              <LongitudeDegrees>-4.0720289759337902069091796875</LongitudeDegrees>
            </Position>
            <AltitudeMeters>1425.800048828125</AltitudeMeters>
            <DistanceMeters>NAN</DistanceMeters>
          </Trackpoint>
          <Trackpoint>
            <Time>2018-12-30T10:17:54.000Z</Time>
            <Position>
              <LatitudeDegrees>40.77280037105083465576171875</LatitudeDegrees>
              <LongitudeDegrees>-4.07203727401793003082275390625</LongitudeDegrees>
            </Position>
            <AltitudeMeters>1425.800048828125</AltitudeMeters>
            <DistanceMeters>NAN</DistanceMeters>
          </Trackpoint>
          <Trackpoint>
            <Time>2018-12-30T10:17:55.000Z</Time>
            <Position>
              <LatitudeDegrees>40.772799365222454071044921875</LatitudeDegrees>
              <LongitudeDegrees>-4.072043560445308685302734375</LongitudeDegrees>
            </Position>
            <AltitudeMeters>1426</AltitudeMeters>
            <DistanceMeters>NAN</DistanceMeters>
          </Trackpoint>
          <Trackpoint>
            <Time>2018-12-30T10:17:56.000Z</Time>
            <Position>
              <LatitudeDegrees>40.77279894612729549407958984375</LatitudeDegrees>
              <LongitudeDegrees>-4.07204900868237018585205078125</LongitudeDegrees>
            </Position>
            <AltitudeMeters>1426</AltitudeMeters>
            <DistanceMeters>NAN</DistanceMeters>
          </Trackpoint>
          <Trackpoint>
            <Time>2018-12-30T10:17:57.000Z</Time>
            <Position>
              <LatitudeDegrees>40.77280011959373950958251953125</LatitudeDegrees>
              <LongitudeDegrees>-4.072059653699398040771484375</LongitudeDegrees>
            </Position>
            <AltitudeMeters>1426</AltitudeMeters>
            <DistanceMeters>NAN</DistanceMeters>
          </Trackpoint>
          <Trackpoint>
            <Time>2018-12-30T10:17:58.000Z</Time>
            <Position>
              <LatitudeDegrees>40.77280171215534210205078125</LatitudeDegrees>
              <LongitudeDegrees>-4.07206476666033267974853515625</LongitudeDegrees>
            </Position>
            <AltitudeMeters>1426</AltitudeMeters>
            <DistanceMeters>NAN</DistanceMeters>
          </Trackpoint>
          <Trackpoint>
            <Time>2018-12-30T10:17:59.000Z</Time>
            <Position>
              <LatitudeDegrees>40.7728005386888980865478515625</LatitudeDegrees>
              <LongitudeDegrees>-4.07206878997385501861572265625</LongitudeDegrees>
            </Position>
            <AltitudeMeters>1426</AltitudeMeters>
            <DistanceMeters>NAN</DistanceMeters>
          </Trackpoint>
          <Trackpoint>
            <Time>2018-12-30T10:18:00.000Z</Time>
            <Position>
              <LatitudeDegrees>40.77279475517570972442626953125</LatitudeDegrees>
              <LongitudeDegrees>-4.07208873890340328216552734375</LongitudeDegrees>
            </Position>
            <AltitudeMeters>1426</AltitudeMeters>
            <DistanceMeters>NAN</DistanceMeters>
          </Trackpoint>
          <Trackpoint>
            <Time>2018-12-30T10:18:01.000Z</Time>
            <Position>
              <LatitudeDegrees>40.7728022150695323944091796875</LatitudeDegrees>
              <LongitudeDegrees>-4.07209008000791072845458984375</LongitudeDegrees>
            </Position>
            <AltitudeMeters>1426</AltitudeMeters>
            <DistanceMeters>NAN</DistanceMeters>
          </Trackpoint>
          <Trackpoint>
            <Time>2018-12-30T10:18:02.000Z</Time>
            <Position>
              <LatitudeDegrees>40.77282727696001529693603515625</LatitudeDegrees>
              <LongitudeDegrees>-4.07208102755248546600341796875</LongitudeDegrees>
            </Position>
            <AltitudeMeters>1425.800048828125</AltitudeMeters>
            <DistanceMeters>NAN</DistanceMeters>
          </Trackpoint>
          <Trackpoint>
            <Time>2018-12-30T10:18:03.000Z</Time>
            <Position>
              <LatitudeDegrees>40.77284974046051502227783203125</LatitudeDegrees>
              <LongitudeDegrees>-4.0720702148973941802978515625</LongitudeDegrees>
            </Position>
            <AltitudeMeters>1425.800048828125</AltitudeMeters>
            <DistanceMeters>NAN</DistanceMeters>
          </Trackpoint>
          <Trackpoint>
            <Time>2018-12-30T10:18:04.000Z</Time>
            <Position>
              <LatitudeDegrees>40.7728508301079273223876953125</LatitudeDegrees>
              <LongitudeDegrees>-4.072061665356159210205078125</LongitudeDegrees>
            </Position>
            <AltitudeMeters>1425.5999755859375</AltitudeMeters>
            <DistanceMeters>NAN</DistanceMeters>
          </Trackpoint>
          <Trackpoint>
            <Time>2018-12-30T10:18:05.000Z</Time>
            <Position>
              <LatitudeDegrees>40.77285041101276874542236328125</LatitudeDegrees>
              <LongitudeDegrees>-4.07206677831709384918212890625</LongitudeDegrees>
            </Position>
            <AltitudeMeters>1425.5999755859375</AltitudeMeters>
            <DistanceMeters>NAN</DistanceMeters>
          </Trackpoint>
          <Trackpoint>
            <Time>2018-12-30T10:18:06.000Z</Time>
            <Position>
              <LatitudeDegrees>40.77284856699407100677490234375</LatitudeDegrees>
              <LongitudeDegrees>-4.0720722265541553497314453125</LongitudeDegrees>
            </Position>
            <AltitudeMeters>1425.5999755859375</AltitudeMeters>
            <DistanceMeters>NAN</DistanceMeters>
          </Trackpoint>
          <Trackpoint>
            <Time>2018-12-30T10:18:07.000Z</Time>
            <Position>
              <LatitudeDegrees>40.77283783815801143646240234375</LatitudeDegrees>
              <LongitudeDegrees>-4.0720537863671779632568359375</LongitudeDegrees>
            </Position>
            <AltitudeMeters>1425.800048828125</AltitudeMeters>
            <DistanceMeters>NAN</DistanceMeters>
          </Trackpoint>
          <Trackpoint>
            <Time>2018-12-30T10:18:08.000Z</Time>
            <Position>
              <LatitudeDegrees>40.77283884398639202117919921875</LatitudeDegrees>
              <LongitudeDegrees>-4.07205638475716114044189453125</LongitudeDegrees>
            </Position>
            <AltitudeMeters>1425.800048828125</AltitudeMeters>
            <DistanceMeters>NAN</DistanceMeters>
          </Trackpoint>
          <Trackpoint>
            <Time>2018-12-30T10:18:09.000Z</Time>
            <Position>
              <LatitudeDegrees>40.77284219674766063690185546875</LatitudeDegrees>
              <LongitudeDegrees>-4.072059653699398040771484375</LongitudeDegrees>
            </Position>
            <AltitudeMeters>1426</AltitudeMeters>
            <DistanceMeters>NAN</DistanceMeters>
          </Trackpoint>
          <Trackpoint>
            <Time>2018-12-30T10:18:10.000Z</Time>
            <Position>
              <LatitudeDegrees>40.77283130027353763580322265625</LatitudeDegrees>
              <LongitudeDegrees>-4.07205906696617603302001953125</LongitudeDegrees>
            </Position>
            <AltitudeMeters>1426.199951171875</AltitudeMeters>
            <DistanceMeters>NAN</DistanceMeters>
          </Trackpoint>
          <Trackpoint>
            <Time>2018-12-30T10:18:11.000Z</Time>
            <Position>
              <LatitudeDegrees>40.77282995916903018951416015625</LatitudeDegrees>
              <LongitudeDegrees>-4.0720658563077449798583984375</LongitudeDegrees>
            </Position>
            <AltitudeMeters>1426.199951171875</AltitudeMeters>
            <DistanceMeters>NAN</DistanceMeters>
          </Trackpoint>
          <Trackpoint>
            <Time>2018-12-30T10:18:12.000Z</Time>
            <Position>
              <LatitudeDegrees>40.772826857864856719970703125</LatitudeDegrees>
              <LongitudeDegrees>-4.072068035602569580078125</LongitudeDegrees>
            </Position>
            <AltitudeMeters>1426.199951171875</AltitudeMeters>
            <DistanceMeters>NAN</DistanceMeters>
          </Trackpoint>
          <Trackpoint>
            <Time>2018-12-30T10:18:13.000Z</Time>
            <Position>
              <LatitudeDegrees>40.77281872741878032684326171875</LatitudeDegrees>
              <LongitudeDegrees>-4.072064347565174102783203125</LongitudeDegrees>
            </Position>
            <AltitudeMeters>1426.199951171875</AltitudeMeters>
            <DistanceMeters>NAN</DistanceMeters>
          </Trackpoint>
          <Trackpoint>
            <Time>2018-12-30T10:18:14.000Z</Time>
            <Position>
              <LatitudeDegrees>40.7728102616965770721435546875</LatitudeDegrees>
              <LongitudeDegrees>-4.07206309027969837188720703125</LongitudeDegrees>
            </Position>
            <AltitudeMeters>1426</AltitudeMeters>
            <DistanceMeters>NAN</DistanceMeters>
          </Trackpoint>
          <Trackpoint>
            <Time>2018-12-30T10:18:15.000Z</Time>
            <Position>
              <LatitudeDegrees>40.772812776267528533935546875</LatitudeDegrees>
              <LongitudeDegrees>-4.07206342555582523345947265625</LongitudeDegrees>
            </Position>
            <AltitudeMeters>1425.800048828125</AltitudeMeters>
            <DistanceMeters>NAN</DistanceMeters>
          </Trackpoint>
          <Trackpoint>
            <Time>2018-12-30T10:18:16.000Z</Time>
            <Position>
              <LatitudeDegrees>40.77281688340008258819580078125</LatitudeDegrees>
              <LongitudeDegrees>-4.07206074334681034088134765625</LongitudeDegrees>
            </Position>
            <AltitudeMeters>1425.800048828125</AltitudeMeters>
            <DistanceMeters>NAN</DistanceMeters>
          </Trackpoint>
          <Trackpoint>
            <Time>2018-12-30T10:18:17.000Z</Time>
            <Position>
              <LatitudeDegrees>40.77281956560909748077392578125</LatitudeDegrees>
              <LongitudeDegrees>-4.07205889932811260223388671875</LongitudeDegrees>
            </Position>
            <AltitudeMeters>1425.5999755859375</AltitudeMeters>
            <DistanceMeters>NAN</DistanceMeters>
          </Trackpoint>
          <Trackpoint>
            <Time>2018-12-30T10:18:18.000Z</Time>
            <Position>
              <LatitudeDegrees>40.77282023616135120391845703125</LatitudeDegrees>
              <LongitudeDegrees>-4.07205655239522457122802734375</LongitudeDegrees>
            </Position>
            <AltitudeMeters>1425.5999755859375</AltitudeMeters>
            <DistanceMeters>NAN</DistanceMeters>
          </Trackpoint>
          <Trackpoint>
            <Time>2018-12-30T10:18:19.000Z</Time>
            <Position>
              <LatitudeDegrees>40.77282585203647613525390625</LatitudeDegrees>
              <LongitudeDegrees>-4.072050265967845916748046875</LongitudeDegrees>
            </Position>
            <AltitudeMeters>1425.5999755859375</AltitudeMeters>
            <DistanceMeters>NAN</DistanceMeters>
          </Trackpoint>
          <Trackpoint>
            <Time>2018-12-30T10:18:20.000Z</Time>
            <Position>
              <LatitudeDegrees>40.77282526530325412750244140625</LatitudeDegrees>
              <LongitudeDegrees>-4.0720407105982303619384765625</LongitudeDegrees>
            </Position>
            <AltitudeMeters>1425.5999755859375</AltitudeMeters>
            <DistanceMeters>NAN</DistanceMeters>
          </Trackpoint>
          <Trackpoint>
            <Time>2018-12-30T10:18:21.000Z</Time>
            <Position>
              <LatitudeDegrees>40.77283046208322048187255859375</LatitudeDegrees>
              <LongitudeDegrees>-4.07204079441726207733154296875</LongitudeDegrees>
            </Position>
            <AltitudeMeters>1425.5999755859375</AltitudeMeters>
            <DistanceMeters>NAN</DistanceMeters>
          </Trackpoint>
          <Trackpoint>
            <Time>2018-12-30T10:18:22.000Z</Time>
            <Position>
              <LatitudeDegrees>40.772832892835140228271484375</LatitudeDegrees>
              <LongitudeDegrees>-4.07202176749706268310546875</LongitudeDegrees>
            </Position>
            <AltitudeMeters>1425.800048828125</AltitudeMeters>
            <DistanceMeters>NAN</DistanceMeters>
          </Trackpoint>
          <Trackpoint>
            <Time>2018-12-30T10:18:23.000Z</Time>
            <Position>
              <LatitudeDegrees>40.772832892835140228271484375</LatitudeDegrees>
              <LongitudeDegrees>-4.07202176749706268310546875</LongitudeDegrees>
            </Position>
            <AltitudeMeters>1425.800048828125</AltitudeMeters>
            <DistanceMeters>NAN</DistanceMeters>
          </Trackpoint>
          <Trackpoint>
            <Time>2018-12-30T10:18:24.000Z</Time>
            <Position>
              <LatitudeDegrees>40.772835575044155120849609375</LatitudeDegrees>
              <LongitudeDegrees>-4.072013385593891143798828125</LongitudeDegrees>
            </Position>
            <AltitudeMeters>1425.800048828125</AltitudeMeters>
            <DistanceMeters>NAN</DistanceMeters>
          </Trackpoint>
          <Trackpoint>
            <Time>2018-12-30T10:18:25.000Z</Time>
            <Position>
              <LatitudeDegrees>40.77284085564315319061279296875</LatitudeDegrees>
              <LongitudeDegrees>-4.072009362280368804931640625</LongitudeDegrees>
            </Position>
            <AltitudeMeters>1426</AltitudeMeters>
            <DistanceMeters>NAN</DistanceMeters>
          </Trackpoint>
          <Trackpoint>
            <Time>2018-12-30T10:18:26.000Z</Time>
            <Position>
              <LatitudeDegrees>40.77284404076635837554931640625</LatitudeDegrees>
              <LongitudeDegrees>-4.07200944609940052032470703125</LongitudeDegrees>
            </Position>
            <AltitudeMeters>1426.199951171875</AltitudeMeters>
            <DistanceMeters>NAN</DistanceMeters>
          </Trackpoint>
          <Trackpoint>
            <Time>2018-12-30T10:18:27.000Z</Time>
            <Position>
              <LatitudeDegrees>40.7728488184511661529541015625</LatitudeDegrees>
              <LongitudeDegrees>-4.0720145590603351593017578125</LongitudeDegrees>
            </Position>
            <AltitudeMeters>1426.4000244140625</AltitudeMeters>
            <DistanceMeters>NAN</DistanceMeters>
          </Trackpoint>
          <Trackpoint>
            <Time>2018-12-30T10:18:28.000Z</Time>
            <Position>
              <LatitudeDegrees>40.7728545181453227996826171875</LatitudeDegrees>
              <LongitudeDegrees>-4.0720192529261112213134765625</LongitudeDegrees>
            </Position>
            <AltitudeMeters>1426.4000244140625</AltitudeMeters>
            <DistanceMeters>NAN</DistanceMeters>
          </Trackpoint>
          <Trackpoint>
            <Time>2018-12-30T10:18:29.000Z</Time>
            <Position>
              <LatitudeDegrees>40.7728592120110988616943359375</LatitudeDegrees>
              <LongitudeDegrees>-4.0720175765454769134521484375</LongitudeDegrees>
            </Position>
            <AltitudeMeters>1426.5999755859375</AltitudeMeters>
            <DistanceMeters>NAN</DistanceMeters>
          </Trackpoint>
          <Trackpoint>
            <Time>2018-12-30T10:18:30.000Z</Time>
            <Position>
              <LatitudeDegrees>40.77286331914365291595458984375</LatitudeDegrees>
              <LongitudeDegrees>-4.07201229594647884368896484375</LongitudeDegrees>
            </Position>
            <AltitudeMeters>1426.800048828125</AltitudeMeters>
            <DistanceMeters>NAN</DistanceMeters>
          </Trackpoint>
          <Trackpoint>
            <Time>2018-12-30T10:18:31.000Z</Time>
            <Position>
              <LatitudeDegrees>40.7728689350187778472900390625</LatitudeDegrees>
              <LongitudeDegrees>-4.07201447524130344390869140625</LongitudeDegrees>
            </Position>
            <AltitudeMeters>1426.800048828125</AltitudeMeters>
            <DistanceMeters>NAN</DistanceMeters>
          </Trackpoint>
          <Trackpoint>
            <Time>2018-12-30T10:18:32.000Z</Time>
            <Position>
              <LatitudeDegrees>40.77287471853196620941162109375</LatitudeDegrees>
              <LongitudeDegrees>-4.07201162539422512054443359375</LongitudeDegrees>
            </Position>
            <AltitudeMeters>1427</AltitudeMeters>
            <DistanceMeters>NAN</DistanceMeters>
          </Trackpoint>
          <Trackpoint>
            <Time>2018-12-30T10:18:33.000Z</Time>
            <Position>
              <LatitudeDegrees>40.772880502045154571533203125</LatitudeDegrees>
              <LongitudeDegrees>-4.072010703384876251220703125</LongitudeDegrees>
            </Position>
            <AltitudeMeters>1427.199951171875</AltitudeMeters>
            <DistanceMeters>NAN</DistanceMeters>
          </Trackpoint>
          <Trackpoint>
            <Time>2018-12-30T10:18:34.000Z</Time>
            <Position>
              <LatitudeDegrees>40.7728882133960723876953125</LatitudeDegrees>
              <LongitudeDegrees>-4.07201129011809825897216796875</LongitudeDegrees>
            </Position>
            <AltitudeMeters>1427.5999755859375</AltitudeMeters>
            <DistanceMeters>NAN</DistanceMeters>
          </Trackpoint>
          <Trackpoint>
            <Time>2018-12-30T10:18:35.000Z</Time>
            <Position>
              <LatitudeDegrees>40.7728989422321319580078125</LatitudeDegrees>
              <LongitudeDegrees>-4.07200969755649566650390625</LongitudeDegrees>
            </Position>
            <AltitudeMeters>1427.800048828125</AltitudeMeters>
            <DistanceMeters>NAN</DistanceMeters>
          </Trackpoint>
          <Trackpoint>
            <Time>2018-12-30T10:18:36.000Z</Time>
            <Position>
              <LatitudeDegrees>40.77290807850658893585205078125</LatitudeDegrees>
              <LongitudeDegrees>-4.07201212830841541290283203125</LongitudeDegrees>
            </Position>
            <AltitudeMeters>1428</AltitudeMeters>
            <DistanceMeters>NAN</DistanceMeters>
          </Trackpoint>
          <Trackpoint>
            <Time>2018-12-30T10:18:37.000Z</Time>
            <Position>
              <LatitudeDegrees>40.77291570603847503662109375</LatitudeDegrees>
              <LongitudeDegrees>-4.07201380468904972076416015625</LongitudeDegrees>
            </Position>
            <AltitudeMeters>1428.199951171875</AltitudeMeters>
            <DistanceMeters>NAN</DistanceMeters>
          </Trackpoint>
          <Trackpoint>
            <Time>2018-12-30T10:18:38.000Z</Time>
            <Position>
              <LatitudeDegrees>40.77292685396969318389892578125</LatitudeDegrees>
              <LongitudeDegrees>-4.0720189176499843597412109375</LongitudeDegrees>
            </Position>
            <AltitudeMeters>1428.4000244140625</AltitudeMeters>
            <DistanceMeters>NAN</DistanceMeters>
          </Trackpoint>
          <Trackpoint>
            <Time>2018-12-30T10:18:39.000Z</Time>
            <Position>
              <LatitudeDegrees>40.7729386724531650543212890625</LatitudeDegrees>
              <LongitudeDegrees>-4.072024114429950714111328125</LongitudeDegrees>
            </Position>
            <AltitudeMeters>1428.5999755859375</AltitudeMeters>
            <DistanceMeters>NAN</DistanceMeters>
          </Trackpoint>
          <Trackpoint>
            <Time>2018-12-30T10:18:40.000Z</Time>
            <Position>
              <LatitudeDegrees>40.772950239479541778564453125</LatitudeDegrees>
              <LongitudeDegrees>-4.07202403061091899871826171875</LongitudeDegrees>
            </Position>
            <AltitudeMeters>1428.800048828125</AltitudeMeters>
            <DistanceMeters>NAN</DistanceMeters>
          </Trackpoint>
          <Trackpoint>
            <Time>2018-12-30T10:18:41.000Z</Time>
            <Position>
              <LatitudeDegrees>40.772959291934967041015625</LatitudeDegrees>
              <LongitudeDegrees>-4.0720264613628387451171875</LongitudeDegrees>
            </Position>
            <AltitudeMeters>1429</AltitudeMeters>
            <DistanceMeters>NAN</DistanceMeters>
          </Trackpoint>
          <Trackpoint>
            <Time>2018-12-30T10:18:42.000Z</Time>
            <Position>
              <LatitudeDegrees>40.77296675182878971099853515625</LatitudeDegrees>
              <LongitudeDegrees>-4.07202956266701221466064453125</LongitudeDegrees>
            </Position>
            <AltitudeMeters>1429</AltitudeMeters>
            <DistanceMeters>NAN</DistanceMeters>
          </Trackpoint>
          <Trackpoint>
            <Time>2018-12-30T10:18:43.000Z</Time>
            <Position>
              <LatitudeDegrees>40.77297580428421497344970703125</LatitudeDegrees>
              <LongitudeDegrees>-4.07203811220824718475341796875</LongitudeDegrees>
            </Position>
            <AltitudeMeters>1429.199951171875</AltitudeMeters>
            <DistanceMeters>NAN</DistanceMeters>
          </Trackpoint>
          <Trackpoint>
            <Time>2018-12-30T10:18:44.000Z</Time>
            <Position>
              <LatitudeDegrees>40.77298737131059169769287109375</LatitudeDegrees>
              <LongitudeDegrees>-4.07204548828303813934326171875</LongitudeDegrees>
            </Position>
            <AltitudeMeters>1429.4000244140625</AltitudeMeters>
            <DistanceMeters>NAN</DistanceMeters>
          </Trackpoint>
          <Trackpoint>
            <Time>2018-12-30T10:18:45.000Z</Time>
            <Position>
              <LatitudeDegrees>40.7730008661746978759765625</LatitudeDegrees>
              <LongitudeDegrees>-4.07205387018620967864990234375</LongitudeDegrees>
            </Position>
            <AltitudeMeters>1429.4000244140625</AltitudeMeters>
            <DistanceMeters>NAN</DistanceMeters>
          </Trackpoint>
          <Trackpoint>
            <Time>2018-12-30T10:18:46.000Z</Time>
            <Position>
              <LatitudeDegrees>40.77301151119172573089599609375</LatitudeDegrees>
              <LongitudeDegrees>-4.07206426374614238739013671875</LongitudeDegrees>
            </Position>
            <AltitudeMeters>1429.5999755859375</AltitudeMeters>
            <DistanceMeters>NAN</DistanceMeters>
          </Trackpoint>
          <Trackpoint>
            <Time>2018-12-30T10:18:47.000Z</Time>
            <Position>
              <LatitudeDegrees>40.7730204798281192779541015625</LatitudeDegrees>
              <LongitudeDegrees>-4.0720742382109165191650390625</LongitudeDegrees>
            </Position>
            <AltitudeMeters>1429.5999755859375</AltitudeMeters>
            <DistanceMeters>NAN</DistanceMeters>
          </Trackpoint>
          <Trackpoint>
            <Time>2018-12-30T10:18:48.000Z</Time>
            <Position>
              <LatitudeDegrees>40.77303011901676654815673828125</LatitudeDegrees>
              <LongitudeDegrees>-4.07207901589572429656982421875</LongitudeDegrees>
            </Position>
            <AltitudeMeters>1429.800048828125</AltitudeMeters>
            <DistanceMeters>NAN</DistanceMeters>
          </Trackpoint>
          <Trackpoint>
            <Time>2018-12-30T10:18:49.000Z</Time>
            <Position>
              <LatitudeDegrees>40.77303640544414520263671875</LatitudeDegrees>
              <LongitudeDegrees>-4.07208806835114955902099609375</LongitudeDegrees>
            </Position>
            <AltitudeMeters>1430</AltitudeMeters>
            <DistanceMeters>NAN</DistanceMeters>
          </Trackpoint>
          <Trackpoint>
            <Time>2018-12-30T10:18:50.000Z</Time>
            <Position>
              <LatitudeDegrees>40.77304353006184101104736328125</LatitudeDegrees>
              <LongitudeDegrees>-4.0720988810062408447265625</LongitudeDegrees>
            </Position>
            <AltitudeMeters>1430</AltitudeMeters>
            <DistanceMeters>NAN</DistanceMeters>
          </Trackpoint>
          <Trackpoint>
            <Time>2018-12-30T10:18:51.000Z</Time>
            <Position>
              <LatitudeDegrees>40.77304956503212451934814453125</LatitudeDegrees>
              <LongitudeDegrees>-4.07210617326200008392333984375</LongitudeDegrees>
            </Position>
            <AltitudeMeters>1430.199951171875</AltitudeMeters>
            <DistanceMeters>NAN</DistanceMeters>
          </Trackpoint>
          <Trackpoint>
            <Time>2018-12-30T10:18:52.000Z</Time>
            <Position>
              <LatitudeDegrees>40.7730580307543277740478515625</LatitudeDegrees>
              <LongitudeDegrees>-4.07211028039455413818359375</LongitudeDegrees>
            </Position>
            <AltitudeMeters>1430.199951171875</AltitudeMeters>
            <DistanceMeters>NAN</DistanceMeters>
          </Trackpoint>
          <Trackpoint>
            <Time>2018-12-30T10:18:53.000Z</Time>
            <Position>
              <LatitudeDegrees>40.7730677537620067596435546875</LatitudeDegrees>
              <LongitudeDegrees>-4.072111956775188446044921875</LongitudeDegrees>
            </Position>
            <AltitudeMeters>1430.199951171875</AltitudeMeters>
            <DistanceMeters>NAN</DistanceMeters>
          </Trackpoint>
          <Trackpoint>
            <Time>2018-12-30T10:18:54.000Z</Time>
            <Position>
              <LatitudeDegrees>40.77308074571192264556884765625</LatitudeDegrees>
              <LongitudeDegrees>-4.07211572863161563873291015625</LongitudeDegrees>
            </Position>
            <AltitudeMeters>1430.5999755859375</AltitudeMeters>
            <DistanceMeters>NAN</DistanceMeters>
          </Trackpoint>
          <Trackpoint>
            <Time>2018-12-30T10:18:55.000Z</Time>
            <Position>
              <LatitudeDegrees>40.77309097163379192352294921875</LatitudeDegrees>
              <LongitudeDegrees>-4.072121344506740570068359375</LongitudeDegrees>
            </Position>
            <AltitudeMeters>1430.5999755859375</AltitudeMeters>
            <DistanceMeters>NAN</DistanceMeters>
          </Trackpoint>
          <Trackpoint>
            <Time>2018-12-30T10:18:56.000Z</Time>
            <Position>
              <LatitudeDegrees>40.773101113736629486083984375</LatitudeDegrees>
              <LongitudeDegrees>-4.0721268765628337860107421875</LongitudeDegrees>
            </Position>
            <AltitudeMeters>1430.800048828125</AltitudeMeters>
            <DistanceMeters>NAN</DistanceMeters>
          </Trackpoint>
          <Trackpoint>
            <Time>2018-12-30T10:18:57.000Z</Time>
            <Position>
              <LatitudeDegrees>40.77311209402978420257568359375</LatitudeDegrees>
              <LongitudeDegrees>-4.072124026715755462646484375</LongitudeDegrees>
            </Position>
            <AltitudeMeters>1431</AltitudeMeters>
            <DistanceMeters>NAN</DistanceMeters>
          </Trackpoint>
          <Trackpoint>
            <Time>2018-12-30T10:18:58.000Z</Time>
            <Position>
              <LatitudeDegrees>40.773123912513256072998046875</LatitudeDegrees>
              <LongitudeDegrees>-4.07212411053478717803955078125</LongitudeDegrees>
            </Position>
            <AltitudeMeters>1431.199951171875</AltitudeMeters>
            <DistanceMeters>NAN</DistanceMeters>
          </Trackpoint>
          <Trackpoint>
            <Time>2018-12-30T10:18:59.000Z</Time>
            <Position>
              <LatitudeDegrees>40.77313564717769622802734375</LatitudeDegrees>
              <LongitudeDegrees>-4.07212461344897747039794921875</LongitudeDegrees>
            </Position>
            <AltitudeMeters>1431.4000244140625</AltitudeMeters>
            <DistanceMeters>NAN</DistanceMeters>
          </Trackpoint>
          <Trackpoint>
            <Time>2018-12-30T10:19:00.000Z</Time>
            <Position>
              <LatitudeDegrees>40.77314511872828006744384765625</LatitudeDegrees>
              <LongitudeDegrees>-4.07212746329605579376220703125</LongitudeDegrees>
            </Position>
            <AltitudeMeters>1431.5999755859375</AltitudeMeters>
            <DistanceMeters>NAN</DistanceMeters>
          </Trackpoint>
          <Trackpoint>
            <Time>2018-12-30T10:19:01.000Z</Time>
            <Position>
              <LatitudeDegrees>40.77315165661275386810302734375</LatitudeDegrees>
              <LongitudeDegrees>-4.07213735394179821014404296875</LongitudeDegrees>
            </Position>
            <AltitudeMeters>1431.800048828125</AltitudeMeters>
            <DistanceMeters>NAN</DistanceMeters>
          </Trackpoint>
          <Trackpoint>
            <Time>2018-12-30T10:19:02.000Z</Time>
            <Position>
              <LatitudeDegrees>40.77315903268754482269287109375</LatitudeDegrees>
              <LongitudeDegrees>-4.07214372418820858001708984375</LongitudeDegrees>
            </Position>
            <AltitudeMeters>1431.800048828125</AltitudeMeters>
            <DistanceMeters>NAN</DistanceMeters>
          </Trackpoint>
          <Trackpoint>
            <Time>2018-12-30T10:19:03.000Z</Time>
            <Position>
              <LatitudeDegrees>40.7731669954955577850341796875</LatitudeDegrees>
              <LongitudeDegrees>-4.0721456520259380340576171875</LongitudeDegrees>
            </Position>
            <AltitudeMeters>1432</AltitudeMeters>
            <DistanceMeters>NAN</DistanceMeters>
          </Trackpoint>
          <Trackpoint>
            <Time>2018-12-30T10:19:04.000Z</Time>
            <Position>
              <LatitudeDegrees>40.77317722141742706298828125</LatitudeDegrees>
              <LongitudeDegrees>-4.0721459873020648956298828125</LongitudeDegrees>
            </Position>
            <AltitudeMeters>1432.199951171875</AltitudeMeters>
            <DistanceMeters>NAN</DistanceMeters>
          </Trackpoint>
          <Trackpoint>
            <Time>2018-12-30T10:19:05.000Z</Time>
            <Position>
              <LatitudeDegrees>40.7731874473392963409423828125</LatitudeDegrees>
              <LongitudeDegrees>-4.07214724458754062652587890625</LongitudeDegrees>
            </Position>
            <AltitudeMeters>1432.4000244140625</AltitudeMeters>
            <DistanceMeters>NAN</DistanceMeters>
          </Trackpoint>
          <Trackpoint>
            <Time>2018-12-30T10:19:06.000Z</Time>
            <Position>
              <LatitudeDegrees>40.77319859527051448822021484375</LatitudeDegrees>
              <LongitudeDegrees>-4.0721503458917140960693359375</LongitudeDegrees>
            </Position>
            <AltitudeMeters>1432.5999755859375</AltitudeMeters>
            <DistanceMeters>NAN</DistanceMeters>
          </Trackpoint>
          <Trackpoint>
            <Time>2018-12-30T10:19:07.000Z</Time>
            <Position>
              <LatitudeDegrees>40.77320781536400318145751953125</LatitudeDegrees>
              <LongitudeDegrees>-4.072147496044635772705078125</LongitudeDegrees>
            </Position>
            <AltitudeMeters>1432.5999755859375</AltitudeMeters>
            <DistanceMeters>NAN</DistanceMeters>
          </Trackpoint>
          <Trackpoint>
            <Time>2018-12-30T10:19:08.000Z</Time>
            <Position>
              <LatitudeDegrees>40.77321686781942844390869140625</LatitudeDegrees>
              <LongitudeDegrees>-4.07214506529271602630615234375</LongitudeDegrees>
            </Position>
            <AltitudeMeters>1432.800048828125</AltitudeMeters>
            <DistanceMeters>NAN</DistanceMeters>
          </Trackpoint>
          <Trackpoint>
            <Time>2018-12-30T10:19:09.000Z</Time>
            <Position>
              <LatitudeDegrees>40.7732276804745197296142578125</LatitudeDegrees>
              <LongitudeDegrees>-4.07213970087468624114990234375</LongitudeDegrees>
            </Position>
            <AltitudeMeters>1432.800048828125</AltitudeMeters>
            <DistanceMeters>NAN</DistanceMeters>
          </Trackpoint>
          <Trackpoint>
            <Time>2018-12-30T10:19:10.000Z</Time>
            <Position>
              <LatitudeDegrees>40.77323849312961101531982421875</LatitudeDegrees>
              <LongitudeDegrees>-4.07214020378887653350830078125</LongitudeDegrees>
            </Position>
            <AltitudeMeters>1433</AltitudeMeters>
            <DistanceMeters>NAN</DistanceMeters>
          </Trackpoint>
          <Trackpoint>
            <Time>2018-12-30T10:19:11.000Z</Time>
            <Position>
              <LatitudeDegrees>40.7732491381466388702392578125</LatitudeDegrees>
              <LongitudeDegrees>-4.07214514911174774169921875</LongitudeDegrees>
            </Position>
            <AltitudeMeters>1433.199951171875</AltitudeMeters>
            <DistanceMeters>NAN</DistanceMeters>
          </Trackpoint>
          <Trackpoint>
            <Time>2018-12-30T10:19:12.000Z</Time>
            <Position>
              <LatitudeDegrees>40.77325743623077869415283203125</LatitudeDegrees>
              <LongitudeDegrees>-4.072151519358158111572265625</LongitudeDegrees>
            </Position>
            <AltitudeMeters>1433.199951171875</AltitudeMeters>
            <DistanceMeters>NAN</DistanceMeters>
          </Trackpoint>
          <Trackpoint>
            <Time>2018-12-30T10:19:13.000Z</Time>
            <Position>
              <LatitudeDegrees>40.7732655666768550872802734375</LatitudeDegrees>
              <LongitudeDegrees>-4.072159230709075927734375</LongitudeDegrees>
            </Position>
            <AltitudeMeters>1433.4000244140625</AltitudeMeters>
            <DistanceMeters>NAN</DistanceMeters>
          </Trackpoint>
          <Trackpoint>
            <Time>2018-12-30T10:19:14.000Z</Time>
            <Position>
              <LatitudeDegrees>40.7732766307890415191650390625</LatitudeDegrees>
              <LongitudeDegrees>-4.07217222265899181365966796875</LongitudeDegrees>
            </Position>
            <AltitudeMeters>1433.5999755859375</AltitudeMeters>
            <DistanceMeters>NAN</DistanceMeters>
          </Trackpoint>
          <Trackpoint>
            <Time>2018-12-30T10:19:15.000Z</Time>
            <Position>
              <LatitudeDegrees>40.773284845054149627685546875</LatitudeDegrees>
              <LongitudeDegrees>-4.07217842526733875274658203125</LongitudeDegrees>
            </Position>
            <AltitudeMeters>1433.800048828125</AltitudeMeters>
            <DistanceMeters>NAN</DistanceMeters>
          </Trackpoint>
          <Trackpoint>
            <Time>2018-12-30T10:19:16.000Z</Time>
            <Position>
              <LatitudeDegrees>40.7732927240431308746337890625</LatitudeDegrees>
              <LongitudeDegrees>-4.072181023657321929931640625</LongitudeDegrees>
            </Position>
            <AltitudeMeters>1434</AltitudeMeters>
            <DistanceMeters>NAN</DistanceMeters>
          </Trackpoint>
          <Trackpoint>
            <Time>2018-12-30T10:19:17.000Z</Time>
            <Position>
              <LatitudeDegrees>40.7732999324798583984375</LatitudeDegrees>
              <LongitudeDegrees>-4.07219208776950836181640625</LongitudeDegrees>
            </Position>
            <AltitudeMeters>1434.199951171875</AltitudeMeters>
            <DistanceMeters>NAN</DistanceMeters>
          </Trackpoint>
          <Trackpoint>
            <Time>2018-12-30T10:19:18.000Z</Time>
            <Position>
              <LatitudeDegrees>40.7733031176030635833740234375</LatitudeDegrees>
              <LongitudeDegrees>-4.07219820655882358551025390625</LongitudeDegrees>
            </Position>
            <AltitudeMeters>1434.4000244140625</AltitudeMeters>
            <DistanceMeters>NAN</DistanceMeters>
          </Trackpoint>
          <Trackpoint>
            <Time>2018-12-30T10:19:19.000Z</Time>
            <Position>
              <LatitudeDegrees>40.7733125053346157073974609375</LatitudeDegrees>
              <LongitudeDegrees>-4.0722117014229297637939453125</LongitudeDegrees>
            </Position>
            <AltitudeMeters>1434.5999755859375</AltitudeMeters>
            <DistanceMeters>NAN</DistanceMeters>
          </Trackpoint>
          <Trackpoint>
            <Time>2018-12-30T10:19:20.000Z</Time>
            <Position>
              <LatitudeDegrees>40.7733262516558170318603515625</LatitudeDegrees>
              <LongitudeDegrees>-4.07221865840256214141845703125</LongitudeDegrees>
            </Position>
            <AltitudeMeters>1435</AltitudeMeters>
            <DistanceMeters>NAN</DistanceMeters>
          </Trackpoint>
          <Trackpoint>
            <Time>2018-12-30T10:19:21.000Z</Time>
            <Position>
              <LatitudeDegrees>40.77333773486316204071044921875</LatitudeDegrees>
              <LongitudeDegrees>-4.072225280106067657470703125</LongitudeDegrees>
            </Position>
            <AltitudeMeters>1435.199951171875</AltitudeMeters>
            <DistanceMeters>NAN</DistanceMeters>
          </Trackpoint>
          <Trackpoint>
            <Time>2018-12-30T10:19:22.000Z</Time>
            <Position>
              <LatitudeDegrees>40.77335014007985591888427734375</LatitudeDegrees>
              <LongitudeDegrees>-4.072234332561492919921875</LongitudeDegrees>
            </Position>
            <AltitudeMeters>1435.4000244140625</AltitudeMeters>
            <DistanceMeters>NAN</DistanceMeters>
          </Trackpoint>
          <Trackpoint>
            <Time>2018-12-30T10:19:23.000Z</Time>
            <Position>
              <LatitudeDegrees>40.7733607850968837738037109375</LatitudeDegrees>
              <LongitudeDegrees>-4.07224514521658420562744140625</LongitudeDegrees>
            </Position>
            <AltitudeMeters>1435.4000244140625</AltitudeMeters>
            <DistanceMeters>NAN</DistanceMeters>
          </Trackpoint>
          <Trackpoint>
            <Time>2018-12-30T10:19:24.000Z</Time>
            <Position>
              <LatitudeDegrees>40.77337143011391162872314453125</LatitudeDegrees>
              <LongitudeDegrees>-4.07225872389972209930419921875</LongitudeDegrees>
            </Position>
            <AltitudeMeters>1435.4000244140625</AltitudeMeters>
            <DistanceMeters>NAN</DistanceMeters>
          </Trackpoint>
          <Trackpoint>
            <Time>2018-12-30T10:19:25.000Z</Time>
            <Position>
              <LatitudeDegrees>40.77338039875030517578125</LatitudeDegrees>
              <LongitudeDegrees>-4.0722666867077350616455078125</LongitudeDegrees>
            </Position>
            <AltitudeMeters>1435.5999755859375</AltitudeMeters>
            <DistanceMeters>NAN</DistanceMeters>
          </Trackpoint>
          <Trackpoint>
            <Time>2018-12-30T10:19:26.000Z</Time>
            <Position>
              <LatitudeDegrees>40.77339422889053821563720703125</LatitudeDegrees>
              <LongitudeDegrees>-4.07228889875113964080810546875</LongitudeDegrees>
            </Position>
            <AltitudeMeters>1435.800048828125</AltitudeMeters>
            <DistanceMeters>NAN</DistanceMeters>
          </Trackpoint>
          <Trackpoint>
            <Time>2018-12-30T10:19:27.000Z</Time>
            <Position>
              <LatitudeDegrees>40.7734040357172489166259765625</LatitudeDegrees>
              <LongitudeDegrees>-4.07229778356850147247314453125</LongitudeDegrees>
            </Position>
            <AltitudeMeters>1436</AltitudeMeters>
            <DistanceMeters>NAN</DistanceMeters>
          </Trackpoint>
          <Trackpoint>
            <Time>2018-12-30T10:19:28.000Z</Time>
            <Position>
              <LatitudeDegrees>40.77341149561107158660888671875</LatitudeDegrees>
              <LongitudeDegrees>-4.07230281271040439605712890625</LongitudeDegrees>
            </Position>
            <AltitudeMeters>1436</AltitudeMeters>
            <DistanceMeters>NAN</DistanceMeters>
          </Trackpoint>
          <Trackpoint>
            <Time>2018-12-30T10:19:29.000Z</Time>
            <Position>
              <LatitudeDegrees>40.773437060415744781494140625</LatitudeDegrees>
              <LongitudeDegrees>-4.07232225872576236724853515625</LongitudeDegrees>
            </Position>
            <AltitudeMeters>1436</AltitudeMeters>
            <DistanceMeters>NAN</DistanceMeters>
          </Trackpoint>
          <Trackpoint>
            <Time>2018-12-30T10:19:30.000Z</Time>
            <Position>
              <LatitudeDegrees>40.7734487950801849365234375</LatitudeDegrees>
              <LongitudeDegrees>-4.072325192391872406005859375</LongitudeDegrees>
            </Position>
            <AltitudeMeters>1436.199951171875</AltitudeMeters>
            <DistanceMeters>NAN</DistanceMeters>
          </Trackpoint>
          <Trackpoint>
            <Time>2018-12-30T10:19:31.000Z</Time>
            <Position>
              <LatitudeDegrees>40.77345960773527622222900390625</LatitudeDegrees>
              <LongitudeDegrees>-4.072329886257648468017578125</LongitudeDegrees>
            </Position>
            <AltitudeMeters>1436.199951171875</AltitudeMeters>
            <DistanceMeters>NAN</DistanceMeters>
          </Trackpoint>
          <Trackpoint>
            <Time>2018-12-30T10:19:32.000Z</Time>
            <Position>
              <LatitudeDegrees>40.77347318641841411590576171875</LatitudeDegrees>
              <LongitudeDegrees>-4.07234019599854946136474609375</LongitudeDegrees>
            </Position>
            <AltitudeMeters>1436.4000244140625</AltitudeMeters>
            <DistanceMeters>NAN</DistanceMeters>
          </Trackpoint>
          <Trackpoint>
            <Time>2018-12-30T10:19:33.000Z</Time>
            <Position>
              <LatitudeDegrees>40.7734838314354419708251953125</LatitudeDegrees>
              <LongitudeDegrees>-4.0723478235304355621337890625</LongitudeDegrees>
            </Position>
            <AltitudeMeters>1436.800048828125</AltitudeMeters>
            <DistanceMeters>NAN</DistanceMeters>
          </Trackpoint>
          <Trackpoint>
            <Time>2018-12-30T10:19:34.000Z</Time>
            <Position>
              <LatitudeDegrees>40.7734898664057254791259765625</LatitudeDegrees>
              <LongitudeDegrees>-4.07235343940556049346923828125</LongitudeDegrees>
            </Position>
            <AltitudeMeters>1437</AltitudeMeters>
            <DistanceMeters>NAN</DistanceMeters>
          </Trackpoint>
          <Trackpoint>
            <Time>2018-12-30T10:19:35.000Z</Time>
            <Position>
              <LatitudeDegrees>40.7734962366521358489990234375</LatitudeDegrees>
              <LongitudeDegrees>-4.072356037795543670654296875</LongitudeDegrees>
            </Position>
            <AltitudeMeters>1437</AltitudeMeters>
            <DistanceMeters>NAN</DistanceMeters>
          </Trackpoint>
          <Trackpoint>
            <Time>2018-12-30T10:19:36.000Z</Time>
            <Position>
              <LatitudeDegrees>40.7734997570514678955078125</LatitudeDegrees>
              <LongitudeDegrees>-4.07236416824162006378173828125</LongitudeDegrees>
            </Position>
            <AltitudeMeters>1437</AltitudeMeters>
            <DistanceMeters>NAN</DistanceMeters>
          </Trackpoint>
          <Trackpoint>
            <Time>2018-12-30T10:19:37.000Z</Time>
            <Position>
              <LatitudeDegrees>40.773509480059146881103515625</LatitudeDegrees>
              <LongitudeDegrees>-4.07236902974545955657958984375</LongitudeDegrees>
            </Position>
            <AltitudeMeters>1437.199951171875</AltitudeMeters>
            <DistanceMeters>NAN</DistanceMeters>
          </Trackpoint>
          <Trackpoint>
            <Time>2018-12-30T10:19:38.000Z</Time>
            <Position>
              <LatitudeDegrees>40.77351576648652553558349609375</LatitudeDegrees>
              <LongitudeDegrees>-4.0723716281354427337646484375</LongitudeDegrees>
            </Position>
            <AltitudeMeters>1437.199951171875</AltitudeMeters>
            <DistanceMeters>NAN</DistanceMeters>
          </Trackpoint>
          <Trackpoint>
            <Time>2018-12-30T10:19:39.000Z</Time>
            <Position>
              <LatitudeDegrees>40.77352347783744335174560546875</LatitudeDegrees>
              <LongitudeDegrees>-4.07237422652542591094970703125</LongitudeDegrees>
            </Position>
            <AltitudeMeters>1437.4000244140625</AltitudeMeters>
            <DistanceMeters>NAN</DistanceMeters>
          </Trackpoint>
          <Trackpoint>
            <Time>2018-12-30T10:19:40.000Z</Time>
            <Position>
              <LatitudeDegrees>40.7735280878841876983642578125</LatitudeDegrees>
              <LongitudeDegrees>-4.072372801601886749267578125</LongitudeDegrees>
            </Position>
            <AltitudeMeters>1437.5999755859375</AltitudeMeters>
            <DistanceMeters>NAN</DistanceMeters>
          </Trackpoint>
          <Trackpoint>
            <Time>2018-12-30T10:19:41.000Z</Time>
            <Position>
              <LatitudeDegrees>40.77353554777801036834716796875</LatitudeDegrees>
              <LongitudeDegrees>-4.07237607054412364959716796875</LongitudeDegrees>
            </Position>
            <AltitudeMeters>1437.800048828125</AltitudeMeters>
            <DistanceMeters>NAN</DistanceMeters>
          </Trackpoint>
          <Trackpoint>
            <Time>2018-12-30T10:19:42.000Z</Time>
            <Position>
              <LatitudeDegrees>40.77353797852993011474609375</LatitudeDegrees>
              <LongitudeDegrees>-4.07238193787634372711181640625</LongitudeDegrees>
            </Position>
            <AltitudeMeters>1438.199951171875</AltitudeMeters>
            <DistanceMeters>NAN</DistanceMeters>
          </Trackpoint>
          <Trackpoint>
            <Time>2018-12-30T10:19:43.000Z</Time>
            <Position>
              <LatitudeDegrees>40.773540325462818145751953125</LatitudeDegrees>
              <LongitudeDegrees>-4.07239048741757869720458984375</LongitudeDegrees>
            </Position>
            <AltitudeMeters>1438.199951171875</AltitudeMeters>
            <DistanceMeters>NAN</DistanceMeters>
          </Trackpoint>
          <Trackpoint>
            <Time>2018-12-30T10:19:44.000Z</Time>
            <Position>
              <LatitudeDegrees>40.77354527078568935394287109375</LatitudeDegrees>
              <LongitudeDegrees>-4.07239249907433986663818359375</LongitudeDegrees>
            </Position>
            <AltitudeMeters>1438.4000244140625</AltitudeMeters>
            <DistanceMeters>NAN</DistanceMeters>
          </Trackpoint>
          <Trackpoint>
            <Time>2018-12-30T10:19:45.000Z</Time>
            <Position>
              <LatitudeDegrees>40.7735534012317657470703125</LatitudeDegrees>
              <LongitudeDegrees>-4.0723950974643230438232421875</LongitudeDegrees>
            </Position>
            <AltitudeMeters>1438.5999755859375</AltitudeMeters>
            <DistanceMeters>NAN</DistanceMeters>
          </Trackpoint>
          <Trackpoint>
            <Time>2018-12-30T10:19:46.000Z</Time>
            <Position>
              <LatitudeDegrees>40.77355809509754180908203125</LatitudeDegrees>
              <LongitudeDegrees>-4.07239995896816253662109375</LongitudeDegrees>
            </Position>
            <AltitudeMeters>1438.5999755859375</AltitudeMeters>
            <DistanceMeters>NAN</DistanceMeters>
          </Trackpoint>
          <Trackpoint>
            <Time>2018-12-30T10:19:47.000Z</Time>
            <Position>
              <LatitudeDegrees>40.7735585980117321014404296875</LatitudeDegrees>
              <LongitudeDegrees>-4.07239995896816253662109375</LongitudeDegrees>
            </Position>
            <AltitudeMeters>1438.5999755859375</AltitudeMeters>
            <DistanceMeters>NAN</DistanceMeters>
          </Trackpoint>
          <Trackpoint>
            <Time>2018-12-30T10:19:48.000Z</Time>
            <Position>
              <LatitudeDegrees>40.77356220223009586334228515625</LatitudeDegrees>
              <LongitudeDegrees>-4.07240130007266998291015625</LongitudeDegrees>
            </Position>
            <AltitudeMeters>1438.5999755859375</AltitudeMeters>
            <DistanceMeters>NAN</DistanceMeters>
          </Trackpoint>
          <Trackpoint>
            <Time>2018-12-30T10:19:49.000Z</Time>
            <Position>
              <LatitudeDegrees>40.773569829761981964111328125</LatitudeDegrees>
              <LongitudeDegrees>-4.07240591011941432952880859375</LongitudeDegrees>
            </Position>
            <AltitudeMeters>1438.5999755859375</AltitudeMeters>
            <DistanceMeters>NAN</DistanceMeters>
          </Trackpoint>
          <Trackpoint>
            <Time>2018-12-30T10:19:50.000Z</Time>
            <Position>
              <LatitudeDegrees>40.7735780440270900726318359375</LatitudeDegrees>
              <LongitudeDegrees>-4.0724054910242557525634765625</LongitudeDegrees>
            </Position>
            <AltitudeMeters>1438.5999755859375</AltitudeMeters>
            <DistanceMeters>NAN</DistanceMeters>
          </Trackpoint>
          <Trackpoint>
            <Time>2018-12-30T10:19:51.000Z</Time>
            <Position>
              <LatitudeDegrees>40.77358424663543701171875</LatitudeDegrees>
              <LongitudeDegrees>-4.07240456901490688323974609375</LongitudeDegrees>
            </Position>
            <AltitudeMeters>1438.5999755859375</AltitudeMeters>
            <DistanceMeters>NAN</DistanceMeters>
          </Trackpoint>
          <Trackpoint>
            <Time>2018-12-30T10:19:52.000Z</Time>
            <Position>
              <LatitudeDegrees>40.7735901139676570892333984375</LatitudeDegrees>
              <LongitudeDegrees>-4.07239258289337158203125</LongitudeDegrees>
            </Position>
            <AltitudeMeters>1438.4000244140625</AltitudeMeters>
            <DistanceMeters>NAN</DistanceMeters>
          </Trackpoint>
          <Trackpoint>
            <Time>2018-12-30T10:19:53.000Z</Time>
            <Position>
              <LatitudeDegrees>40.77359505929052829742431640625</LatitudeDegrees>
              <LongitudeDegrees>-4.07238252460956573486328125</LongitudeDegrees>
            </Position>
            <AltitudeMeters>1438.4000244140625</AltitudeMeters>
            <DistanceMeters>NAN</DistanceMeters>
          </Trackpoint>
          <Trackpoint>
            <Time>2018-12-30T10:19:54.000Z</Time>
            <Position>
              <LatitudeDegrees>40.77359589748084545135498046875</LatitudeDegrees>
              <LongitudeDegrees>-4.07237724401056766510009765625</LongitudeDegrees>
            </Position>
            <AltitudeMeters>1438.5999755859375</AltitudeMeters>
            <DistanceMeters>NAN</DistanceMeters>
          </Trackpoint>
          <Trackpoint>
            <Time>2018-12-30T10:19:55.000Z</Time>
            <Position>
              <LatitudeDegrees>40.773600675165653228759765625</LatitudeDegrees>
              <LongitudeDegrees>-4.072368107736110687255859375</LongitudeDegrees>
            </Position>
            <AltitudeMeters>1438.5999755859375</AltitudeMeters>
            <DistanceMeters>NAN</DistanceMeters>
          </Trackpoint>
          <Trackpoint>
            <Time>2018-12-30T10:19:56.000Z</Time>
            <Position>
              <LatitudeDegrees>40.77360478229820728302001953125</LatitudeDegrees>
              <LongitudeDegrees>-4.07236098311841487884521484375</LongitudeDegrees>
            </Position>
            <AltitudeMeters>1438.5999755859375</AltitudeMeters>
            <DistanceMeters>NAN</DistanceMeters>
          </Trackpoint>
          <Trackpoint>
            <Time>2018-12-30T10:19:57.000Z</Time>
            <Position>
              <LatitudeDegrees>40.77361115254461765289306640625</LatitudeDegrees>
              <LongitudeDegrees>-4.07234354875981807708740234375</LongitudeDegrees>
            </Position>
            <AltitudeMeters>1438.800048828125</AltitudeMeters>
            <DistanceMeters>NAN</DistanceMeters>
          </Trackpoint>
          <Trackpoint>
            <Time>2018-12-30T10:19:58.000Z</Time>
            <Position>
              <LatitudeDegrees>40.77361601404845714569091796875</LatitudeDegrees>
              <LongitudeDegrees>-4.07233751378953456878662109375</LongitudeDegrees>
            </Position>
            <AltitudeMeters>1438.800048828125</AltitudeMeters>
            <DistanceMeters>NAN</DistanceMeters>
          </Trackpoint>
          <Trackpoint>
            <Time>2018-12-30T10:19:59.000Z</Time>
            <Position>
              <LatitudeDegrees>40.77362355776131153106689453125</LatitudeDegrees>
              <LongitudeDegrees>-4.07232929952442646026611328125</LongitudeDegrees>
            </Position>
            <AltitudeMeters>1438.800048828125</AltitudeMeters>
            <DistanceMeters>NAN</DistanceMeters>
          </Trackpoint>
          <Trackpoint>
            <Time>2018-12-30T10:20:00.000Z</Time>
            <Position>
              <LatitudeDegrees>40.77362607233226299285888671875</LatitudeDegrees>
              <LongitudeDegrees>-4.0723161399364471435546875</LongitudeDegrees>
            </Position>
            <AltitudeMeters>1439</AltitudeMeters>
            <DistanceMeters>NAN</DistanceMeters>
          </Trackpoint>
          <Trackpoint>
            <Time>2018-12-30T10:20:01.000Z</Time>
            <Position>
              <LatitudeDegrees>40.7736290059983730316162109375</LatitudeDegrees>
              <LongitudeDegrees>-4.07230583019554615020751953125</LongitudeDegrees>
            </Position>
            <AltitudeMeters>1439</AltitudeMeters>
            <DistanceMeters>NAN</DistanceMeters>
          </Trackpoint>
          <Trackpoint>
            <Time>2018-12-30T10:20:02.000Z</Time>
            <Position>
              <LatitudeDegrees>40.773635543882846832275390625</LatitudeDegrees>
              <LongitudeDegrees>-4.07229627482593059539794921875</LongitudeDegrees>
            </Position>
            <AltitudeMeters>1439.199951171875</AltitudeMeters>
            <DistanceMeters>NAN</DistanceMeters>
          </Trackpoint>
          <Trackpoint>
            <Time>2018-12-30T10:20:03.000Z</Time>
            <Position>
              <LatitudeDegrees>40.77363998629152774810791015625</LatitudeDegrees>
              <LongitudeDegrees>-4.07229275442659854888916015625</LongitudeDegrees>
            </Position>
            <AltitudeMeters>1439.199951171875</AltitudeMeters>
            <DistanceMeters>NAN</DistanceMeters>
          </Trackpoint>
          <Trackpoint>
            <Time>2018-12-30T10:20:04.000Z</Time>
            <Position>
              <LatitudeDegrees>40.77364468015730381011962890625</LatitudeDegrees>
              <LongitudeDegrees>-4.07229627482593059539794921875</LongitudeDegrees>
            </Position>
            <AltitudeMeters>1439.4000244140625</AltitudeMeters>
            <DistanceMeters>NAN</DistanceMeters>
          </Trackpoint>
          <Trackpoint>
            <Time>2018-12-30T10:20:05.000Z</Time>
            <Position>
              <LatitudeDegrees>40.773644931614398956298828125</LatitudeDegrees>
              <LongitudeDegrees>-4.0723027288913726806640625</LongitudeDegrees>
            </Position>
            <AltitudeMeters>1439.4000244140625</AltitudeMeters>
            <DistanceMeters>NAN</DistanceMeters>
          </Trackpoint>
          <Trackpoint>
            <Time>2018-12-30T10:20:06.000Z</Time>
            <Position>
              <LatitudeDegrees>40.77364937402307987213134765625</LatitudeDegrees>
              <LongitudeDegrees>-4.0723080933094024658203125</LongitudeDegrees>
            </Position>
            <AltitudeMeters>1439.4000244140625</AltitudeMeters>
            <DistanceMeters>NAN</DistanceMeters>
          </Trackpoint>
          <Trackpoint>
            <Time>2018-12-30T10:20:07.000Z</Time>
            <Position>
              <LatitudeDegrees>40.7736580073833465576171875</LatitudeDegrees>
              <LongitudeDegrees>-4.072309099137783050537109375</LongitudeDegrees>
            </Position>
            <AltitudeMeters>1439.5999755859375</AltitudeMeters>
            <DistanceMeters>NAN</DistanceMeters>
          </Trackpoint>
          <Trackpoint>
            <Time>2018-12-30T10:20:08.000Z</Time>
            <Position>
              <LatitudeDegrees>40.7736647129058837890625</LatitudeDegrees>
              <LongitudeDegrees>-4.07230113632977008819580078125</LongitudeDegrees>
            </Position>
            <AltitudeMeters>1440</AltitudeMeters>
            <DistanceMeters>NAN</DistanceMeters>
          </Trackpoint>
          <Trackpoint>
            <Time>2018-12-30T10:20:09.000Z</Time>
            <Position>
              <LatitudeDegrees>40.77366999350488185882568359375</LatitudeDegrees>
              <LongitudeDegrees>-4.0722904913127422332763671875</LongitudeDegrees>
            </Position>
            <AltitudeMeters>1440.199951171875</AltitudeMeters>
            <DistanceMeters>NAN</DistanceMeters>
          </Trackpoint>
          <Trackpoint>
            <Time>2018-12-30T10:20:10.000Z</Time>
            <Position>
              <LatitudeDegrees>40.773679129779338836669921875</LatitudeDegrees>
              <LongitudeDegrees>-4.07228336669504642486572265625</LongitudeDegrees>
            </Position>
            <AltitudeMeters>1440.4000244140625</AltitudeMeters>
            <DistanceMeters>NAN</DistanceMeters>
          </Trackpoint>
          <Trackpoint>
            <Time>2018-12-30T10:20:11.000Z</Time>
            <Position>
              <LatitudeDegrees>40.77368960715830326080322265625</LatitudeDegrees>
              <LongitudeDegrees>-4.0722666867077350616455078125</LongitudeDegrees>
            </Position>
            <AltitudeMeters>1440.5999755859375</AltitudeMeters>
            <DistanceMeters>NAN</DistanceMeters>
          </Trackpoint>
          <Trackpoint>
            <Time>2018-12-30T10:20:12.000Z</Time>
            <Position>
              <LatitudeDegrees>40.77369849197566509246826171875</LatitudeDegrees>
              <LongitudeDegrees>-4.0722571313381195068359375</LongitudeDegrees>
            </Position>
            <AltitudeMeters>1440.800048828125</AltitudeMeters>
            <DistanceMeters>NAN</DistanceMeters>
          </Trackpoint>
          <Trackpoint>
            <Time>2018-12-30T10:20:13.000Z</Time>
            <Position>
              <LatitudeDegrees>40.77370553277432918548583984375</LatitudeDegrees>
              <LongitudeDegrees>-4.07225151546299457550048828125</LongitudeDegrees>
            </Position>
            <AltitudeMeters>1441</AltitudeMeters>
            <DistanceMeters>NAN</DistanceMeters>
          </Trackpoint>
          <Trackpoint>
            <Time>2018-12-30T10:20:14.000Z</Time>
            <Position>
              <LatitudeDegrees>40.77371089719235897064208984375</LatitudeDegrees>
              <LongitudeDegrees>-4.07224975526332855224609375</LongitudeDegrees>
            </Position>
            <AltitudeMeters>1441.4000244140625</AltitudeMeters>
            <DistanceMeters>NAN</DistanceMeters>
          </Trackpoint>
          <Trackpoint>
            <Time>2018-12-30T10:20:15.000Z</Time>
            <Position>
              <LatitudeDegrees>40.7737168483436107635498046875</LatitudeDegrees>
              <LongitudeDegrees>-4.07224439084529876708984375</LongitudeDegrees>
            </Position>
            <AltitudeMeters>1441.5999755859375</AltitudeMeters>
            <DistanceMeters>NAN</DistanceMeters>
          </Trackpoint>
          <Trackpoint>
            <Time>2018-12-30T10:20:16.000Z</Time>
            <Position>
              <LatitudeDegrees>40.773724056780338287353515625</LatitudeDegrees>
              <LongitudeDegrees>-4.07223894260823726654052734375</LongitudeDegrees>
            </Position>
            <AltitudeMeters>1441.800048828125</AltitudeMeters>
            <DistanceMeters>NAN</DistanceMeters>
          </Trackpoint>
          <Trackpoint>
            <Time>2018-12-30T10:20:17.000Z</Time>
            <Position>
              <LatitudeDegrees>40.77373352833092212677001953125</LatitudeDegrees>
              <LongitudeDegrees>-4.07221756875514984130859375</LongitudeDegrees>
            </Position>
            <AltitudeMeters>1442</AltitudeMeters>
            <DistanceMeters>NAN</DistanceMeters>
          </Trackpoint>
          <Trackpoint>
            <Time>2018-12-30T10:20:18.000Z</Time>
            <Position>
              <LatitudeDegrees>40.77373352833092212677001953125</LatitudeDegrees>
              <LongitudeDegrees>-4.07221756875514984130859375</LongitudeDegrees>
            </Position>
            <AltitudeMeters>1442.199951171875</AltitudeMeters>
            <DistanceMeters>NAN</DistanceMeters>
          </Trackpoint>
          <Trackpoint>
            <Time>2018-12-30T10:20:19.000Z</Time>
            <Position>
              <LatitudeDegrees>40.77373637817800045013427734375</LatitudeDegrees>
              <LongitudeDegrees>-4.07220407389104366302490234375</LongitudeDegrees>
            </Position>
            <AltitudeMeters>1442.4000244140625</AltitudeMeters>
            <DistanceMeters>NAN</DistanceMeters>
          </Trackpoint>
          <Trackpoint>
            <Time>2018-12-30T10:20:20.000Z</Time>
            <Position>
              <LatitudeDegrees>40.7737416587769985198974609375</LatitudeDegrees>
              <LongitudeDegrees>-4.0721919201314449310302734375</LongitudeDegrees>
            </Position>
            <AltitudeMeters>1442.5999755859375</AltitudeMeters>
            <DistanceMeters>NAN</DistanceMeters>
          </Trackpoint>
          <Trackpoint>
            <Time>2018-12-30T10:20:21.000Z</Time>
            <Position>
              <LatitudeDegrees>40.7737470231950283050537109375</LatitudeDegrees>
              <LongitudeDegrees>-4.07218127511441707611083984375</LongitudeDegrees>
            </Position>
            <AltitudeMeters>1442.800048828125</AltitudeMeters>
            <DistanceMeters>NAN</DistanceMeters>
          </Trackpoint>
          <Trackpoint>
            <Time>2018-12-30T10:20:22.000Z</Time>
            <Position>
              <LatitudeDegrees>40.77375230379402637481689453125</LatitudeDegrees>
              <LongitudeDegrees>-4.0721738152205944061279296875</LongitudeDegrees>
            </Position>
            <AltitudeMeters>1442.800048828125</AltitudeMeters>
            <DistanceMeters>NAN</DistanceMeters>
          </Trackpoint>
          <Trackpoint>
            <Time>2018-12-30T10:20:23.000Z</Time>
            <Position>
              <LatitudeDegrees>40.7737547345459461212158203125</LatitudeDegrees>
              <LongitudeDegrees>-4.072164259850978851318359375</LongitudeDegrees>
            </Position>
            <AltitudeMeters>1443</AltitudeMeters>
            <DistanceMeters>NAN</DistanceMeters>
          </Trackpoint>
          <Trackpoint>
            <Time>2018-12-30T10:20:24.000Z</Time>
            <Position>
              <LatitudeDegrees>40.77375582419335842132568359375</LatitudeDegrees>
              <LongitudeDegrees>-4.072155542671680450439453125</LongitudeDegrees>
            </Position>
            <AltitudeMeters>1443</AltitudeMeters>
            <DistanceMeters>NAN</DistanceMeters>
          </Trackpoint>
          <Trackpoint>
            <Time>2018-12-30T10:20:25.000Z</Time>
            <Position>
              <LatitudeDegrees>40.77375666238367557525634765625</LatitudeDegrees>
              <LongitudeDegrees>-4.07214389182627201080322265625</LongitudeDegrees>
            </Position>
            <AltitudeMeters>1443</AltitudeMeters>
            <DistanceMeters>NAN</DistanceMeters>
          </Trackpoint>
          <Trackpoint>
            <Time>2018-12-30T10:20:26.000Z</Time>
            <Position>
              <LatitudeDegrees>40.77375230379402637481689453125</LatitudeDegrees>
              <LongitudeDegrees>-4.07212813384830951690673828125</LongitudeDegrees>
            </Position>
            <AltitudeMeters>1443.199951171875</AltitudeMeters>
            <DistanceMeters>NAN</DistanceMeters>
          </Trackpoint>
          <Trackpoint>
            <Time>2018-12-30T10:20:27.000Z</Time>
            <Position>
              <LatitudeDegrees>40.77374987304210662841796875</LatitudeDegrees>
              <LongitudeDegrees>-4.07211673445999622344970703125</LongitudeDegrees>
            </Position>
            <AltitudeMeters>1443.199951171875</AltitudeMeters>
            <DistanceMeters>NAN</DistanceMeters>
          </Trackpoint>
          <Trackpoint>
            <Time>2018-12-30T10:20:28.000Z</Time>
            <Position>
              <LatitudeDegrees>40.77374408952891826629638671875</LatitudeDegrees>
              <LongitudeDegrees>-4.07210298813879489898681640625</LongitudeDegrees>
            </Position>
            <AltitudeMeters>1443.5999755859375</AltitudeMeters>
            <DistanceMeters>NAN</DistanceMeters>
          </Trackpoint>
          <Trackpoint>
            <Time>2018-12-30T10:20:29.000Z</Time>
            <Position>
              <LatitudeDegrees>40.7737419940531253814697265625</LatitudeDegrees>
              <LongitudeDegrees>-4.072099886834621429443359375</LongitudeDegrees>
            </Position>
            <AltitudeMeters>1444</AltitudeMeters>
            <DistanceMeters>NAN</DistanceMeters>
          </Trackpoint>
          <Trackpoint>
            <Time>2018-12-30T10:20:30.000Z</Time>
            <Position>
              <LatitudeDegrees>40.7737342827022075653076171875</LatitudeDegrees>
              <LongitudeDegrees>-4.07208882272243499755859375</LongitudeDegrees>
            </Position>
            <AltitudeMeters>1444.199951171875</AltitudeMeters>
            <DistanceMeters>NAN</DistanceMeters>
          </Trackpoint>
          <Trackpoint>
            <Time>2018-12-30T10:20:31.000Z</Time>
            <Position>
              <LatitudeDegrees>40.77372363768517971038818359375</LatitudeDegrees>
              <LongitudeDegrees>-4.0720745734870433807373046875</LongitudeDegrees>
            </Position>
            <AltitudeMeters>1444.5999755859375</AltitudeMeters>
            <DistanceMeters>NAN</DistanceMeters>
          </Trackpoint>
          <Trackpoint>
            <Time>2018-12-30T10:20:32.000Z</Time>
            <Position>
              <LatitudeDegrees>40.773722045123577117919921875</LatitudeDegrees>
              <LongitudeDegrees>-4.07207063399255275726318359375</LongitudeDegrees>
            </Position>
            <AltitudeMeters>1444.800048828125</AltitudeMeters>
            <DistanceMeters>NAN</DistanceMeters>
          </Trackpoint>
          <Trackpoint>
            <Time>2018-12-30T10:20:33.000Z</Time>
            <Position>
              <LatitudeDegrees>40.7737134955823421478271484375</LatitudeDegrees>
              <LongitudeDegrees>-4.07206468284130096435546875</LongitudeDegrees>
            </Position>
            <AltitudeMeters>1444.800048828125</AltitudeMeters>
            <DistanceMeters>NAN</DistanceMeters>
          </Trackpoint>
          <Trackpoint>
            <Time>2018-12-30T10:20:34.000Z</Time>
            <Position>
              <LatitudeDegrees>40.7737091369926929473876953125</LatitudeDegrees>
              <LongitudeDegrees>-4.0720568038523197174072265625</LongitudeDegrees>
            </Position>
            <AltitudeMeters>1445</AltitudeMeters>
            <DistanceMeters>NAN</DistanceMeters>
          </Trackpoint>
          <Trackpoint>
            <Time>2018-12-30T10:20:35.000Z</Time>
            <Position>
              <LatitudeDegrees>40.773704946041107177734375</LatitudeDegrees>
              <LongitudeDegrees>-4.07205236144363880157470703125</LongitudeDegrees>
            </Position>
            <AltitudeMeters>1445.199951171875</AltitudeMeters>
            <DistanceMeters>NAN</DistanceMeters>
          </Trackpoint>
          <Trackpoint>
            <Time>2018-12-30T10:20:36.000Z</Time>
            <Position>
              <LatitudeDegrees>40.77369756996631622314453125</LatitudeDegrees>
              <LongitudeDegrees>-4.07204615883529186248779296875</LongitudeDegrees>
            </Position>
            <AltitudeMeters>1445.199951171875</AltitudeMeters>
            <DistanceMeters>NAN</DistanceMeters>
          </Trackpoint>
          <Trackpoint>
            <Time>2018-12-30T10:20:37.000Z</Time>
            <Position>
              <LatitudeDegrees>40.77369865961372852325439453125</LatitudeDegrees>
              <LongitudeDegrees>-4.0720413811504840850830078125</LongitudeDegrees>
            </Position>
            <AltitudeMeters>1445.4000244140625</AltitudeMeters>
            <DistanceMeters>NAN</DistanceMeters>
          </Trackpoint>
          <Trackpoint>
            <Time>2018-12-30T10:20:38.000Z</Time>
            <Position>
              <LatitudeDegrees>40.77370025217533111572265625</LatitudeDegrees>
              <LongitudeDegrees>-4.072032161056995391845703125</LongitudeDegrees>
            </Position>
            <AltitudeMeters>1445.5999755859375</AltitudeMeters>
            <DistanceMeters>NAN</DistanceMeters>
          </Trackpoint>
          <Trackpoint>
            <Time>2018-12-30T10:20:39.000Z</Time>
            <Position>
              <LatitudeDegrees>40.77370335347950458526611328125</LatitudeDegrees>
              <LongitudeDegrees>-4.0720249526202678680419921875</LongitudeDegrees>
            </Position>
            <AltitudeMeters>1445.800048828125</AltitudeMeters>
            <DistanceMeters>NAN</DistanceMeters>
          </Trackpoint>
          <Trackpoint>
            <Time>2018-12-30T10:20:40.000Z</Time>
            <Position>
              <LatitudeDegrees>40.7737007550895214080810546875</LatitudeDegrees>
              <LongitudeDegrees>-4.0720192529261112213134765625</LongitudeDegrees>
            </Position>
            <AltitudeMeters>1445.800048828125</AltitudeMeters>
            <DistanceMeters>NAN</DistanceMeters>
          </Trackpoint>
          <Trackpoint>
            <Time>2018-12-30T10:20:41.000Z</Time>
            <Position>
              <LatitudeDegrees>40.773697905242443084716796875</LatitudeDegrees>
              <LongitudeDegrees>-4.07200634479522705078125</LongitudeDegrees>
            </Position>
            <AltitudeMeters>1445.800048828125</AltitudeMeters>
            <DistanceMeters>NAN</DistanceMeters>
          </Trackpoint>
          <Trackpoint>
            <Time>2018-12-30T10:20:42.000Z</Time>
            <Position>
              <LatitudeDegrees>40.77369153499603271484375</LatitudeDegrees>
              <LongitudeDegrees>-4.07198715023696422576904296875</LongitudeDegrees>
            </Position>
            <AltitudeMeters>1445.800048828125</AltitudeMeters>
            <DistanceMeters>NAN</DistanceMeters>
          </Trackpoint>
          <Trackpoint>
            <Time>2018-12-30T10:20:43.000Z</Time>
            <Position>
              <LatitudeDegrees>40.77368952333927154541015625</LatitudeDegrees>
              <LongitudeDegrees>-4.0719682909548282623291015625</LongitudeDegrees>
            </Position>
            <AltitudeMeters>1445.800048828125</AltitudeMeters>
            <DistanceMeters>NAN</DistanceMeters>
          </Trackpoint>
          <Trackpoint>
            <Time>2018-12-30T10:20:44.000Z</Time>
            <Position>
              <LatitudeDegrees>40.77368281781673431396484375</LatitudeDegrees>
              <LongitudeDegrees>-4.0719468332827091217041015625</LongitudeDegrees>
            </Position>
            <AltitudeMeters>1446</AltitudeMeters>
            <DistanceMeters>NAN</DistanceMeters>
          </Trackpoint>
          <Trackpoint>
            <Time>2018-12-30T10:20:45.000Z</Time>
            <Position>
              <LatitudeDegrees>40.77367879450321197509765625</LatitudeDegrees>
              <LongitudeDegrees>-4.07193199731409549713134765625</LongitudeDegrees>
            </Position>
            <AltitudeMeters>1446</AltitudeMeters>
            <DistanceMeters>NAN</DistanceMeters>
          </Trackpoint>
          <Trackpoint>
            <Time>2018-12-30T10:20:46.000Z</Time>
            <Position>
              <LatitudeDegrees>40.7736687362194061279296875</LatitudeDegrees>
              <LongitudeDegrees>-4.07191573642194271087646484375</LongitudeDegrees>
            </Position>
            <AltitudeMeters>1446</AltitudeMeters>
            <DistanceMeters>NAN</DistanceMeters>
          </Trackpoint>
          <Trackpoint>
            <Time>2018-12-30T10:20:47.000Z</Time>
            <Position>
              <LatitudeDegrees>40.77365725301206111907958984375</LatitudeDegrees>
              <LongitudeDegrees>-4.07189830206334590911865234375</LongitudeDegrees>
            </Position>
            <AltitudeMeters>1446</AltitudeMeters>
            <DistanceMeters>NAN</DistanceMeters>
          </Trackpoint>
          <Trackpoint>
            <Time>2018-12-30T10:20:48.000Z</Time>
            <Position>
              <LatitudeDegrees>40.7736484520137310028076171875</LatitudeDegrees>
              <LongitudeDegrees>-4.071880280971527099609375</LongitudeDegrees>
            </Position>
            <AltitudeMeters>1446</AltitudeMeters>
            <DistanceMeters>NAN</DistanceMeters>
          </Trackpoint>
          <Trackpoint>
            <Time>2018-12-30T10:20:49.000Z</Time>
            <Position>
              <LatitudeDegrees>40.773644931614398956298828125</LatitudeDegrees>
              <LongitudeDegrees>-4.07186695374548435211181640625</LongitudeDegrees>
            </Position>
            <AltitudeMeters>1446</AltitudeMeters>
            <DistanceMeters>NAN</DistanceMeters>
          </Trackpoint>
          <Trackpoint>
            <Time>2018-12-30T10:20:50.000Z</Time>
            <Position>
              <LatitudeDegrees>40.77364065684378147125244140625</LatitudeDegrees>
              <LongitudeDegrees>-4.0718566440045833587646484375</LongitudeDegrees>
            </Position>
            <AltitudeMeters>1446</AltitudeMeters>
            <DistanceMeters>NAN</DistanceMeters>
          </Trackpoint>
          <Trackpoint>
            <Time>2018-12-30T10:20:51.000Z</Time>
            <Position>
              <LatitudeDegrees>40.77363529242575168609619140625</LatitudeDegrees>
              <LongitudeDegrees>-4.0718494355678558349609375</LongitudeDegrees>
            </Position>
            <AltitudeMeters>1446</AltitudeMeters>
            <DistanceMeters>NAN</DistanceMeters>
          </Trackpoint>
          <Trackpoint>
            <Time>2018-12-30T10:20:52.000Z</Time>
            <Position>
              <LatitudeDegrees>40.77363059855997562408447265625</LatitudeDegrees>
              <LongitudeDegrees>-4.0718440711498260498046875</LongitudeDegrees>
            </Position>
            <AltitudeMeters>1446</AltitudeMeters>
            <DistanceMeters>NAN</DistanceMeters>
          </Trackpoint>
          <Trackpoint>
            <Time>2018-12-30T10:20:53.000Z</Time>
            <Position>
              <LatitudeDegrees>40.77362137846648693084716796875</LatitudeDegrees>
              <LongitudeDegrees>-4.0718321688473224639892578125</LongitudeDegrees>
            </Position>
            <AltitudeMeters>1446.199951171875</AltitudeMeters>
            <DistanceMeters>NAN</DistanceMeters>
          </Trackpoint>
          <Trackpoint>
            <Time>2018-12-30T10:20:54.000Z</Time>
            <Position>
              <LatitudeDegrees>40.77360981144011020660400390625</LatitudeDegrees>
              <LongitudeDegrees>-4.07181867398321628570556640625</LongitudeDegrees>
            </Position>
            <AltitudeMeters>1446.199951171875</AltitudeMeters>
            <DistanceMeters>NAN</DistanceMeters>
          </Trackpoint>
          <Trackpoint>
            <Time>2018-12-30T10:20:55.000Z</Time>
            <Position>
              <LatitudeDegrees>40.77360562048852443695068359375</LatitudeDegrees>
              <LongitudeDegrees>-4.07180157490074634552001953125</LongitudeDegrees>
            </Position>
            <AltitudeMeters>1446.4000244140625</AltitudeMeters>
            <DistanceMeters>NAN</DistanceMeters>
          </Trackpoint>
          <Trackpoint>
            <Time>2018-12-30T10:20:56.000Z</Time>
            <Position>
              <LatitudeDegrees>40.7736062072217464447021484375</LatitudeDegrees>
              <LongitudeDegrees>-4.0717882476747035980224609375</LongitudeDegrees>
            </Position>
            <AltitudeMeters>1446.5999755859375</AltitudeMeters>
            <DistanceMeters>NAN</DistanceMeters>
          </Trackpoint>
          <Trackpoint>
            <Time>2018-12-30T10:20:57.000Z</Time>
            <Position>
              <LatitudeDegrees>40.7736125774681568145751953125</LatitudeDegrees>
              <LongitudeDegrees>-4.0717745013535022735595703125</LongitudeDegrees>
            </Position>
            <AltitudeMeters>1446.800048828125</AltitudeMeters>
            <DistanceMeters>NAN</DistanceMeters>
          </Trackpoint>
          <Trackpoint>
            <Time>2018-12-30T10:20:58.000Z</Time>
            <Position>
              <LatitudeDegrees>40.77361844480037689208984375</LatitudeDegrees>
              <LongitudeDegrees>-4.0717677958309650421142578125</LongitudeDegrees>
            </Position>
            <AltitudeMeters>1446.800048828125</AltitudeMeters>
            <DistanceMeters>NAN</DistanceMeters>
          </Trackpoint>
          <Trackpoint>
            <Time>2018-12-30T10:20:59.000Z</Time>
            <Position>
              <LatitudeDegrees>40.773618109524250030517578125</LatitudeDegrees>
              <LongitudeDegrees>-4.071761928498744964599609375</LongitudeDegrees>
            </Position>
            <AltitudeMeters>1447</AltitudeMeters>
            <DistanceMeters>NAN</DistanceMeters>
          </Trackpoint>
          <Trackpoint>
            <Time>2018-12-30T10:21:00.000Z</Time>
            <Position>
              <LatitudeDegrees>40.7736199535429477691650390625</LatitudeDegrees>
              <LongitudeDegrees>-4.07174323685467243194580078125</LongitudeDegrees>
            </Position>
            <AltitudeMeters>1447</AltitudeMeters>
            <DistanceMeters>NAN</DistanceMeters>
          </Trackpoint>
          <Trackpoint>
            <Time>2018-12-30T10:21:01.000Z</Time>
            <Position>
              <LatitudeDegrees>40.77361978590488433837890625</LatitudeDegrees>
              <LongitudeDegrees>-4.07172538340091705322265625</LongitudeDegrees>
            </Position>
            <AltitudeMeters>1447.199951171875</AltitudeMeters>
            <DistanceMeters>NAN</DistanceMeters>
          </Trackpoint>
          <Trackpoint>
            <Time>2018-12-30T10:21:02.000Z</Time>
            <Position>
              <LatitudeDegrees>40.7736186124384403228759765625</LatitudeDegrees>
              <LongitudeDegrees>-4.07170585356652736663818359375</LongitudeDegrees>
            </Position>
            <AltitudeMeters>1447.199951171875</AltitudeMeters>
            <DistanceMeters>NAN</DistanceMeters>
          </Trackpoint>
          <Trackpoint>
            <Time>2018-12-30T10:21:03.000Z</Time>
            <Position>
              <LatitudeDegrees>40.7736249826848506927490234375</LatitudeDegrees>
              <LongitudeDegrees>-4.0716804563999176025390625</LongitudeDegrees>
            </Position>
            <AltitudeMeters>1447.199951171875</AltitudeMeters>
            <DistanceMeters>NAN</DistanceMeters>
          </Trackpoint>
          <Trackpoint>
            <Time>2018-12-30T10:21:04.000Z</Time>
            <Position>
              <LatitudeDegrees>40.77362925745546817779541015625</LatitudeDegrees>
              <LongitudeDegrees>-4.07165975309908390045166015625</LongitudeDegrees>
            </Position>
            <AltitudeMeters>1447.199951171875</AltitudeMeters>
            <DistanceMeters>NAN</DistanceMeters>
          </Trackpoint>
          <Trackpoint>
            <Time>2018-12-30T10:21:05.000Z</Time>
            <Position>
              <LatitudeDegrees>40.7736340351402759552001953125</LatitudeDegrees>
              <LongitudeDegrees>-4.07163896597921848297119140625</LongitudeDegrees>
            </Position>
            <AltitudeMeters>1447.4000244140625</AltitudeMeters>
            <DistanceMeters>NAN</DistanceMeters>
          </Trackpoint>
          <Trackpoint>
            <Time>2018-12-30T10:21:06.000Z</Time>
            <Position>
              <LatitudeDegrees>40.77363931573927402496337890625</LatitudeDegrees>
              <LongitudeDegrees>-4.07161918468773365020751953125</LongitudeDegrees>
            </Position>
            <AltitudeMeters>1447.4000244140625</AltitudeMeters>
            <DistanceMeters>NAN</DistanceMeters>
          </Trackpoint>
          <Trackpoint>
            <Time>2018-12-30T10:21:07.000Z</Time>
            <Position>
              <LatitudeDegrees>40.773639567196369171142578125</LatitudeDegrees>
              <LongitudeDegrees>-4.07160057686269283294677734375</LongitudeDegrees>
            </Position>
            <AltitudeMeters>1447.4000244140625</AltitudeMeters>
            <DistanceMeters>NAN</DistanceMeters>
          </Trackpoint>
          <Trackpoint>
            <Time>2018-12-30T10:21:08.000Z</Time>
            <Position>
              <LatitudeDegrees>40.7736407406628131866455078125</LatitudeDegrees>
              <LongitudeDegrees>-4.0715870819985866546630859375</LongitudeDegrees>
            </Position>
            <AltitudeMeters>1447.5999755859375</AltitudeMeters>
            <DistanceMeters>NAN</DistanceMeters>
          </Trackpoint>
          <Trackpoint>
            <Time>2018-12-30T10:21:09.000Z</Time>
            <Position>
              <LatitudeDegrees>40.773644261062145233154296875</LatitudeDegrees>
              <LongitudeDegrees>-4.07157191075384616851806640625</LongitudeDegrees>
            </Position>
            <AltitudeMeters>1447.5999755859375</AltitudeMeters>
            <DistanceMeters>NAN</DistanceMeters>
          </Trackpoint>
          <Trackpoint>
            <Time>2018-12-30T10:21:10.000Z</Time>
            <Position>
              <LatitudeDegrees>40.77364820055663585662841796875</LatitudeDegrees>
              <LongitudeDegrees>-4.0715579129755496978759765625</LongitudeDegrees>
            </Position>
            <AltitudeMeters>1447.800048828125</AltitudeMeters>
            <DistanceMeters>NAN</DistanceMeters>
          </Trackpoint>
          <Trackpoint>
            <Time>2018-12-30T10:21:11.000Z</Time>
            <Position>
              <LatitudeDegrees>40.77365121804177761077880859375</LatitudeDegrees>
              <LongitudeDegrees>-4.07153536565601825714111328125</LongitudeDegrees>
            </Position>
            <AltitudeMeters>1447.800048828125</AltitudeMeters>
            <DistanceMeters>NAN</DistanceMeters>
          </Trackpoint>
          <Trackpoint>
            <Time>2018-12-30T10:21:12.000Z</Time>
            <Position>
              <LatitudeDegrees>40.77365641482174396514892578125</LatitudeDegrees>
              <LongitudeDegrees>-4.0715230442583560943603515625</LongitudeDegrees>
            </Position>
            <AltitudeMeters>1447.800048828125</AltitudeMeters>
            <DistanceMeters>NAN</DistanceMeters>
          </Trackpoint>
          <Trackpoint>
            <Time>2018-12-30T10:21:13.000Z</Time>
            <Position>
              <LatitudeDegrees>40.77366144396364688873291015625</LatitudeDegrees>
              <LongitudeDegrees>-4.0715059451758861541748046875</LongitudeDegrees>
            </Position>
            <AltitudeMeters>1447.800048828125</AltitudeMeters>
            <DistanceMeters>NAN</DistanceMeters>
          </Trackpoint>
          <Trackpoint>
            <Time>2018-12-30T10:21:14.000Z</Time>
            <Position>
              <LatitudeDegrees>40.77366538345813751220703125</LatitudeDegrees>
              <LongitudeDegrees>-4.0714942105114459991455078125</LongitudeDegrees>
            </Position>
            <AltitudeMeters>1448</AltitudeMeters>
            <DistanceMeters>NAN</DistanceMeters>
          </Trackpoint>
          <Trackpoint>
            <Time>2018-12-30T10:21:15.000Z</Time>
            <Position>
              <LatitudeDegrees>40.7736714184284210205078125</LatitudeDegrees>
              <LongitudeDegrees>-4.0714819729328155517578125</LongitudeDegrees>
            </Position>
            <AltitudeMeters>1448</AltitudeMeters>
            <DistanceMeters>NAN</DistanceMeters>
          </Trackpoint>
          <Trackpoint>
            <Time>2018-12-30T10:21:16.000Z</Time>
            <Position>
              <LatitudeDegrees>40.7736803032457828521728515625</LatitudeDegrees>
              <LongitudeDegrees>-4.07146864570677280426025390625</LongitudeDegrees>
            </Position>
            <AltitudeMeters>1448.199951171875</AltitudeMeters>
            <DistanceMeters>NAN</DistanceMeters>
          </Trackpoint>
          <Trackpoint>
            <Time>2018-12-30T10:21:17.000Z</Time>
            <Position>
              <LatitudeDegrees>40.77368508093059062957763671875</LatitudeDegrees>
              <LongitudeDegrees>-4.0714533068239688873291015625</LongitudeDegrees>
            </Position>
            <AltitudeMeters>1448.199951171875</AltitudeMeters>
            <DistanceMeters>NAN</DistanceMeters>
          </Trackpoint>
          <Trackpoint>
            <Time>2018-12-30T10:21:18.000Z</Time>
            <Position>
              <LatitudeDegrees>40.7736901938915252685546875</LatitudeDegrees>
              <LongitudeDegrees>-4.07143771648406982421875</LongitudeDegrees>
            </Position>
            <AltitudeMeters>1448.199951171875</AltitudeMeters>
            <DistanceMeters>NAN</DistanceMeters>
          </Trackpoint>
          <Trackpoint>
            <Time>2018-12-30T10:21:19.000Z</Time>
            <Position>
              <LatitudeDegrees>40.773693211376667022705078125</LatitudeDegrees>
              <LongitudeDegrees>-4.0714202821254730224609375</LongitudeDegrees>
            </Position>
            <AltitudeMeters>1448.4000244140625</AltitudeMeters>
            <DistanceMeters>NAN</DistanceMeters>
          </Trackpoint>
          <Trackpoint>
            <Time>2018-12-30T10:21:20.000Z</Time>
            <Position>
              <LatitudeDegrees>40.7736903615295886993408203125</LatitudeDegrees>
              <LongitudeDegrees>-4.07140217721462249755859375</LongitudeDegrees>
            </Position>
            <AltitudeMeters>1448.4000244140625</AltitudeMeters>
            <DistanceMeters>NAN</DistanceMeters>
          </Trackpoint>
          <Trackpoint>
            <Time>2018-12-30T10:21:21.000Z</Time>
            <Position>
              <LatitudeDegrees>40.77369011007249355316162109375</LatitudeDegrees>
              <LongitudeDegrees>-4.07138817943632602691650390625</LongitudeDegrees>
            </Position>
            <AltitudeMeters>1448.4000244140625</AltitudeMeters>
            <DistanceMeters>NAN</DistanceMeters>
          </Trackpoint>
          <Trackpoint>
            <Time>2018-12-30T10:21:22.000Z</Time>
            <Position>
              <LatitudeDegrees>40.77369446866214275360107421875</LatitudeDegrees>
              <LongitudeDegrees>-4.07137426547706127166748046875</LongitudeDegrees>
            </Position>
            <AltitudeMeters>1448.5999755859375</AltitudeMeters>
            <DistanceMeters>NAN</DistanceMeters>
          </Trackpoint>
          <Trackpoint>
            <Time>2018-12-30T10:21:23.000Z</Time>
            <Position>
              <LatitudeDegrees>40.7737007550895214080810546875</LatitudeDegrees>
              <LongitudeDegrees>-4.07135599292814731597900390625</LongitudeDegrees>
            </Position>
            <AltitudeMeters>1448.800048828125</AltitudeMeters>
            <DistanceMeters>NAN</DistanceMeters>
          </Trackpoint>
          <Trackpoint>
            <Time>2018-12-30T10:21:24.000Z</Time>
            <Position>
              <LatitudeDegrees>40.77370905317366123199462890625</LatitudeDegrees>
              <LongitudeDegrees>-4.071338810026645660400390625</LongitudeDegrees>
            </Position>
            <AltitudeMeters>1448.800048828125</AltitudeMeters>
            <DistanceMeters>NAN</DistanceMeters>
          </Trackpoint>
          <Trackpoint>
            <Time>2018-12-30T10:21:25.000Z</Time>
            <Position>
              <LatitudeDegrees>40.7737116515636444091796875</LatitudeDegrees>
              <LongitudeDegrees>-4.0713302604854106903076171875</LongitudeDegrees>
            </Position>
            <AltitudeMeters>1449</AltitudeMeters>
            <DistanceMeters>NAN</DistanceMeters>
          </Trackpoint>
          <Trackpoint>
            <Time>2018-12-30T10:21:26.000Z</Time>
            <Position>
              <LatitudeDegrees>40.773718692362308502197265625</LatitudeDegrees>
              <LongitudeDegrees>-4.07131693325936794281005859375</LongitudeDegrees>
            </Position>
            <AltitudeMeters>1449</AltitudeMeters>
            <DistanceMeters>NAN</DistanceMeters>
          </Trackpoint>
          <Trackpoint>
            <Time>2018-12-30T10:21:27.000Z</Time>
            <Position>
              <LatitudeDegrees>40.77372330240905284881591796875</LatitudeDegrees>
              <LongitudeDegrees>-4.07130788080394268035888671875</LongitudeDegrees>
            </Position>
            <AltitudeMeters>1449</AltitudeMeters>
            <DistanceMeters>NAN</DistanceMeters>
          </Trackpoint>
          <Trackpoint>
            <Time>2018-12-30T10:21:28.000Z</Time>
            <Position>
              <LatitudeDegrees>40.7737269066274166107177734375</LatitudeDegrees>
              <LongitudeDegrees>-4.0712940506637096405029296875</LongitudeDegrees>
            </Position>
            <AltitudeMeters>1449</AltitudeMeters>
            <DistanceMeters>NAN</DistanceMeters>
          </Trackpoint>
          <Trackpoint>
            <Time>2018-12-30T10:21:29.000Z</Time>
            <Position>
              <LatitudeDegrees>40.7737292535603046417236328125</LatitudeDegrees>
              <LongitudeDegrees>-4.0712754428386688232421875</LongitudeDegrees>
            </Position>
            <AltitudeMeters>1449</AltitudeMeters>
            <DistanceMeters>NAN</DistanceMeters>
          </Trackpoint>
          <Trackpoint>
            <Time>2018-12-30T10:21:30.000Z</Time>
            <Position>
              <LatitudeDegrees>40.773743502795696258544921875</LatitudeDegrees>
              <LongitudeDegrees>-4.0712672285735607147216796875</LongitudeDegrees>
            </Position>
            <AltitudeMeters>1449</AltitudeMeters>
            <DistanceMeters>NAN</DistanceMeters>
          </Trackpoint>
          <Trackpoint>
            <Time>2018-12-30T10:21:31.000Z</Time>
            <Position>
              <LatitudeDegrees>40.7737500406801700592041015625</LatitudeDegrees>
              <LongitudeDegrees>-4.07124795019626617431640625</LongitudeDegrees>
            </Position>
            <AltitudeMeters>1449.199951171875</AltitudeMeters>
            <DistanceMeters>NAN</DistanceMeters>
          </Trackpoint>
          <Trackpoint>
            <Time>2018-12-30T10:21:32.000Z</Time>
            <Position>
              <LatitudeDegrees>40.77375389635562896728515625</LatitudeDegrees>
              <LongitudeDegrees>-4.0712271630764007568359375</LongitudeDegrees>
            </Position>
            <AltitudeMeters>1449.4000244140625</AltitudeMeters>
            <DistanceMeters>NAN</DistanceMeters>
          </Trackpoint>
          <Trackpoint>
            <Time>2018-12-30T10:21:33.000Z</Time>
            <Position>
              <LatitudeDegrees>40.77375850640237331390380859375</LatitudeDegrees>
              <LongitudeDegrees>-4.07121534459292888641357421875</LongitudeDegrees>
            </Position>
            <AltitudeMeters>1449.4000244140625</AltitudeMeters>
            <DistanceMeters>NAN</DistanceMeters>
          </Trackpoint>
          <Trackpoint>
            <Time>2018-12-30T10:21:34.000Z</Time>
            <Position>
              <LatitudeDegrees>40.773760937154293060302734375</LatitudeDegrees>
              <LongitudeDegrees>-4.07120545394718647003173828125</LongitudeDegrees>
            </Position>
            <AltitudeMeters>1449.5999755859375</AltitudeMeters>
            <DistanceMeters>NAN</DistanceMeters>
          </Trackpoint>
          <Trackpoint>
            <Time>2018-12-30T10:21:35.000Z</Time>
            <Position>
              <LatitudeDegrees>40.77376269735395908355712890625</LatitudeDegrees>
              <LongitudeDegrees>-4.07119807787239551544189453125</LongitudeDegrees>
            </Position>
            <AltitudeMeters>1449.800048828125</AltitudeMeters>
            <DistanceMeters>NAN</DistanceMeters>
          </Trackpoint>
          <Trackpoint>
            <Time>2018-12-30T10:21:36.000Z</Time>
            <Position>
              <LatitudeDegrees>40.77377225272357463836669921875</LatitudeDegrees>
              <LongitudeDegrees>-4.07119941897690296173095703125</LongitudeDegrees>
            </Position>
            <AltitudeMeters>1450</AltitudeMeters>
            <DistanceMeters>NAN</DistanceMeters>
          </Trackpoint>
          <Trackpoint>
            <Time>2018-12-30T10:21:37.000Z</Time>
            <Position>
              <LatitudeDegrees>40.77377292327582836151123046875</LatitudeDegrees>
              <LongitudeDegrees>-4.07119506038725376129150390625</LongitudeDegrees>
            </Position>
            <AltitudeMeters>1450</AltitudeMeters>
            <DistanceMeters>NAN</DistanceMeters>
          </Trackpoint>
          <Trackpoint>
            <Time>2018-12-30T10:21:38.000Z</Time>
            <Position>
              <LatitudeDegrees>40.77377828769385814666748046875</LatitudeDegrees>
              <LongitudeDegrees>-4.07118936069309711456298828125</LongitudeDegrees>
            </Position>
            <AltitudeMeters>1450</AltitudeMeters>
            <DistanceMeters>NAN</DistanceMeters>
          </Trackpoint>
          <Trackpoint>
            <Time>2018-12-30T10:21:39.000Z</Time>
            <Position>
              <LatitudeDegrees>40.77378449030220508575439453125</LatitudeDegrees>
              <LongitudeDegrees>-4.0711810626089572906494140625</LongitudeDegrees>
            </Position>
            <AltitudeMeters>1450.199951171875</AltitudeMeters>
            <DistanceMeters>NAN</DistanceMeters>
          </Trackpoint>
          <Trackpoint>
            <Time>2018-12-30T10:21:40.000Z</Time>
            <Position>
              <LatitudeDegrees>40.77378734014928340911865234375</LatitudeDegrees>
              <LongitudeDegrees>-4.07117779366672039031982421875</LongitudeDegrees>
            </Position>
            <AltitudeMeters>1450.199951171875</AltitudeMeters>
            <DistanceMeters>NAN</DistanceMeters>
          </Trackpoint>
          <Trackpoint>
            <Time>2018-12-30T10:21:41.000Z</Time>
            <Position>
              <LatitudeDegrees>40.7737932913005352020263671875</LatitudeDegrees>
              <LongitudeDegrees>-4.07116807065904140472412109375</LongitudeDegrees>
            </Position>
            <AltitudeMeters>1450.199951171875</AltitudeMeters>
            <DistanceMeters>NAN</DistanceMeters>
          </Trackpoint>
          <Trackpoint>
            <Time>2018-12-30T10:21:42.000Z</Time>
            <Position>
              <LatitudeDegrees>40.773795135319232940673828125</LatitudeDegrees>
              <LongitudeDegrees>-4.07116186805069446563720703125</LongitudeDegrees>
            </Position>
            <AltitudeMeters>1450.199951171875</AltitudeMeters>
            <DistanceMeters>NAN</DistanceMeters>
          </Trackpoint>
          <Trackpoint>
            <Time>2018-12-30T10:21:43.000Z</Time>
            <Position>
              <LatitudeDegrees>40.77379706315696239471435546875</LatitudeDegrees>
              <LongitudeDegrees>-4.071153737604618072509765625</LongitudeDegrees>
            </Position>
            <AltitudeMeters>1450.5999755859375</AltitudeMeters>
            <DistanceMeters>NAN</DistanceMeters>
          </Trackpoint>
          <Trackpoint>
            <Time>2018-12-30T10:21:44.000Z</Time>
            <Position>
              <LatitudeDegrees>40.77379806898534297943115234375</LatitudeDegrees>
              <LongitudeDegrees>-4.07114057801663875579833984375</LongitudeDegrees>
            </Position>
            <AltitudeMeters>1450.800048828125</AltitudeMeters>
            <DistanceMeters>NAN</DistanceMeters>
          </Trackpoint>
          <Trackpoint>
            <Time>2018-12-30T10:21:45.000Z</Time>
            <Position>
              <LatitudeDegrees>40.77379941008985042572021484375</LatitudeDegrees>
              <LongitudeDegrees>-4.07112448476254940032958984375</LongitudeDegrees>
            </Position>
            <AltitudeMeters>1450.800048828125</AltitudeMeters>
            <DistanceMeters>NAN</DistanceMeters>
          </Trackpoint>
          <Trackpoint>
            <Time>2018-12-30T10:21:46.000Z</Time>
            <Position>
              <LatitudeDegrees>40.773808546364307403564453125</LatitudeDegrees>
              <LongitudeDegrees>-4.07110713422298431396484375</LongitudeDegrees>
            </Position>
            <AltitudeMeters>1450.800048828125</AltitudeMeters>
            <DistanceMeters>NAN</DistanceMeters>
          </Trackpoint>
          <Trackpoint>
            <Time>2018-12-30T10:21:47.000Z</Time>
            <Position>
              <LatitudeDegrees>40.7738113962113857269287109375</LatitudeDegrees>
              <LongitudeDegrees>-4.07108894549310207366943359375</LongitudeDegrees>
            </Position>
            <AltitudeMeters>1451</AltitudeMeters>
            <DistanceMeters>NAN</DistanceMeters>
          </Trackpoint>
          <Trackpoint>
            <Time>2018-12-30T10:21:48.000Z</Time>
            <Position>
              <LatitudeDegrees>40.7738140784204006195068359375</LatitudeDegrees>
              <LongitudeDegrees>-4.07106983475387096405029296875</LongitudeDegrees>
            </Position>
            <AltitudeMeters>1451</AltitudeMeters>
            <DistanceMeters>NAN</DistanceMeters>
          </Trackpoint>
          <Trackpoint>
            <Time>2018-12-30T10:21:49.000Z</Time>
            <Position>
              <LatitudeDegrees>40.773821957409381866455078125</LatitudeDegrees>
              <LongitudeDegrees>-4.07106128521263599395751953125</LongitudeDegrees>
            </Position>
            <AltitudeMeters>1451.199951171875</AltitudeMeters>
            <DistanceMeters>NAN</DistanceMeters>
          </Trackpoint>
          <Trackpoint>
            <Time>2018-12-30T10:21:50.000Z</Time>
            <Position>
              <LatitudeDegrees>40.77382924966514110565185546875</LatitudeDegrees>
              <LongitudeDegrees>-4.07105147838592529296875</LongitudeDegrees>
            </Position>
            <AltitudeMeters>1451.4000244140625</AltitudeMeters>
            <DistanceMeters>NAN</DistanceMeters>
          </Trackpoint>
          <Trackpoint>
            <Time>2018-12-30T10:21:51.000Z</Time>
            <Position>
              <LatitudeDegrees>40.77384484000504016876220703125</LatitudeDegrees>
              <LongitudeDegrees>-4.07104535959661006927490234375</LongitudeDegrees>
            </Position>
            <AltitudeMeters>1451.4000244140625</AltitudeMeters>
            <DistanceMeters>NAN</DistanceMeters>
          </Trackpoint>
          <Trackpoint>
            <Time>2018-12-30T10:21:52.000Z</Time>
            <Position>
              <LatitudeDegrees>40.7738539762794971466064453125</LatitudeDegrees>
              <LongitudeDegrees>-4.071039073169231414794921875</LongitudeDegrees>
            </Position>
            <AltitudeMeters>1451.4000244140625</AltitudeMeters>
            <DistanceMeters>NAN</DistanceMeters>
          </Trackpoint>
          <Trackpoint>
            <Time>2018-12-30T10:21:53.000Z</Time>
            <Position>
              <LatitudeDegrees>40.77386227436363697052001953125</LatitudeDegrees>
              <LongitudeDegrees>-4.071031026542186737060546875</LongitudeDegrees>
            </Position>
            <AltitudeMeters>1451.5999755859375</AltitudeMeters>
            <DistanceMeters>NAN</DistanceMeters>
          </Trackpoint>
          <Trackpoint>
            <Time>2018-12-30T10:21:54.000Z</Time>
            <Position>
              <LatitudeDegrees>40.77386914752423763275146484375</LatitudeDegrees>
              <LongitudeDegrees>-4.0710224770009517669677734375</LongitudeDegrees>
            </Position>
            <AltitudeMeters>1451.800048828125</AltitudeMeters>
            <DistanceMeters>NAN</DistanceMeters>
          </Trackpoint>
          <Trackpoint>
            <Time>2018-12-30T10:21:55.000Z</Time>
            <Position>
              <LatitudeDegrees>40.77388004399836063385009765625</LatitudeDegrees>
              <LongitudeDegrees>-4.07101803459227085113525390625</LongitudeDegrees>
            </Position>
            <AltitudeMeters>1452</AltitudeMeters>
            <DistanceMeters>NAN</DistanceMeters>
          </Trackpoint>
          <Trackpoint>
            <Time>2018-12-30T10:21:56.000Z</Time>
            <Position>
              <LatitudeDegrees>40.77388398349285125732421875</LatitudeDegrees>
              <LongitudeDegrees>-4.0710124187171459197998046875</LongitudeDegrees>
            </Position>
            <AltitudeMeters>1452.199951171875</AltitudeMeters>
            <DistanceMeters>NAN</DistanceMeters>
          </Trackpoint>
          <Trackpoint>
            <Time>2018-12-30T10:21:57.000Z</Time>
            <Position>
              <LatitudeDegrees>40.7738886773586273193359375</LatitudeDegrees>
              <LongitudeDegrees>-4.07100579701364040374755859375</LongitudeDegrees>
            </Position>
            <AltitudeMeters>1452.4000244140625</AltitudeMeters>
            <DistanceMeters>NAN</DistanceMeters>
          </Trackpoint>
          <Trackpoint>
            <Time>2018-12-30T10:21:58.000Z</Time>
            <Position>
              <LatitudeDegrees>40.77389295212924480438232421875</LatitudeDegrees>
              <LongitudeDegrees>-4.0709949843585491180419921875</LongitudeDegrees>
            </Position>
            <AltitudeMeters>1452.4000244140625</AltitudeMeters>
            <DistanceMeters>NAN</DistanceMeters>
          </Trackpoint>
          <Trackpoint>
            <Time>2018-12-30T10:21:59.000Z</Time>
            <Position>
              <LatitudeDegrees>40.7738948799669742584228515625</LatitudeDegrees>
              <LongitudeDegrees>-4.07098433934152126312255859375</LongitudeDegrees>
            </Position>
            <AltitudeMeters>1452.4000244140625</AltitudeMeters>
            <DistanceMeters>NAN</DistanceMeters>
          </Trackpoint>
          <Trackpoint>
            <Time>2018-12-30T10:22:00.000Z</Time>
            <Position>
              <LatitudeDegrees>40.77389764599502086639404296875</LatitudeDegrees>
              <LongitudeDegrees>-4.07097226940095424652099609375</LongitudeDegrees>
            </Position>
            <AltitudeMeters>1452.4000244140625</AltitudeMeters>
            <DistanceMeters>NAN</DistanceMeters>
          </Trackpoint>
          <Trackpoint>
            <Time>2018-12-30T10:22:01.000Z</Time>
            <Position>
              <LatitudeDegrees>40.77390099875628948211669921875</LatitudeDegrees>
              <LongitudeDegrees>-4.07096254639327526092529296875</LongitudeDegrees>
            </Position>
            <AltitudeMeters>1452.4000244140625</AltitudeMeters>
            <DistanceMeters>NAN</DistanceMeters>
          </Trackpoint>
          <Trackpoint>
            <Time>2018-12-30T10:22:02.000Z</Time>
            <Position>
              <LatitudeDegrees>40.77390854246914386749267578125</LatitudeDegrees>
              <LongitudeDegrees>-4.07095693051815032958984375</LongitudeDegrees>
            </Position>
            <AltitudeMeters>1452.4000244140625</AltitudeMeters>
            <DistanceMeters>NAN</DistanceMeters>
          </Trackpoint>
          <Trackpoint>
            <Time>2018-12-30T10:22:03.000Z</Time>
            <Position>
              <LatitudeDegrees>40.77392647974193096160888671875</LatitudeDegrees>
              <LongitudeDegrees>-4.07093589194118976593017578125</LongitudeDegrees>
            </Position>
            <AltitudeMeters>1452.4000244140625</AltitudeMeters>
            <DistanceMeters>NAN</DistanceMeters>
          </Trackpoint>
          <Trackpoint>
            <Time>2018-12-30T10:22:04.000Z</Time>
            <Position>
              <LatitudeDegrees>40.77392647974193096160888671875</LatitudeDegrees>
              <LongitudeDegrees>-4.07093589194118976593017578125</LongitudeDegrees>
            </Position>
            <AltitudeMeters>1452.4000244140625</AltitudeMeters>
            <DistanceMeters>NAN</DistanceMeters>
          </Trackpoint>
          <Trackpoint>
            <Time>2018-12-30T10:22:05.000Z</Time>
            <Position>
              <LatitudeDegrees>40.77393385581672191619873046875</LatitudeDegrees>
              <LongitudeDegrees>-4.07092432491481304168701171875</LongitudeDegrees>
            </Position>
            <AltitudeMeters>1452.5999755859375</AltitudeMeters>
            <DistanceMeters>NAN</DistanceMeters>
          </Trackpoint>
          <Trackpoint>
            <Time>2018-12-30T10:22:06.000Z</Time>
            <Position>
              <LatitudeDegrees>40.77393955551087856292724609375</LatitudeDegrees>
              <LongitudeDegrees>-4.07091577537357807159423828125</LongitudeDegrees>
            </Position>
            <AltitudeMeters>1452.800048828125</AltitudeMeters>
            <DistanceMeters>NAN</DistanceMeters>
          </Trackpoint>
          <Trackpoint>
            <Time>2018-12-30T10:22:07.000Z</Time>
            <Position>
              <LatitudeDegrees>40.773944668471813201904296875</LatitudeDegrees>
              <LongitudeDegrees>-4.07090923748910427093505859375</LongitudeDegrees>
            </Position>
            <AltitudeMeters>1453.199951171875</AltitudeMeters>
            <DistanceMeters>NAN</DistanceMeters>
          </Trackpoint>
          <Trackpoint>
            <Time>2018-12-30T10:22:08.000Z</Time>
            <Position>
              <LatitudeDegrees>40.77395363710820674896240234375</LatitudeDegrees>
              <LongitudeDegrees>-4.0709007717669010162353515625</LongitudeDegrees>
            </Position>
            <AltitudeMeters>1453.4000244140625</AltitudeMeters>
            <DistanceMeters>NAN</DistanceMeters>
          </Trackpoint>
          <Trackpoint>
            <Time>2018-12-30T10:22:09.000Z</Time>
            <Position>
              <LatitudeDegrees>40.77395866625010967254638671875</LatitudeDegrees>
              <LongitudeDegrees>-4.07089096494019031524658203125</LongitudeDegrees>
            </Position>
            <AltitudeMeters>1453.5999755859375</AltitudeMeters>
            <DistanceMeters>NAN</DistanceMeters>
          </Trackpoint>
          <Trackpoint>
            <Time>2018-12-30T10:22:10.000Z</Time>
            <Position>
              <LatitudeDegrees>40.7739626057446002960205078125</LatitudeDegrees>
              <LongitudeDegrees>-4.0708776377141475677490234375</LongitudeDegrees>
            </Position>
            <AltitudeMeters>1453.800048828125</AltitudeMeters>
            <DistanceMeters>NAN</DistanceMeters>
          </Trackpoint>
          <Trackpoint>
            <Time>2018-12-30T10:22:11.000Z</Time>
            <Position>
              <LatitudeDegrees>40.77396755106747150421142578125</LatitudeDegrees>
              <LongitudeDegrees>-4.07086716033518314361572265625</LongitudeDegrees>
            </Position>
            <AltitudeMeters>1454</AltitudeMeters>
            <DistanceMeters>NAN</DistanceMeters>
          </Trackpoint>
          <Trackpoint>
            <Time>2018-12-30T10:22:12.000Z</Time>
            <Position>
              <LatitudeDegrees>40.773971490561962127685546875</LatitudeDegrees>
              <LongitudeDegrees>-4.07086296938359737396240234375</LongitudeDegrees>
            </Position>
            <AltitudeMeters>1454.199951171875</AltitudeMeters>
            <DistanceMeters>NAN</DistanceMeters>
          </Trackpoint>
          <Trackpoint>
            <Time>2018-12-30T10:22:13.000Z</Time>
            <Position>
              <LatitudeDegrees>40.77397786080837249755859375</LatitudeDegrees>
              <LongitudeDegrees>-4.070858024060726165771484375</LongitudeDegrees>
            </Position>
            <AltitudeMeters>1454.4000244140625</AltitudeMeters>
            <DistanceMeters>NAN</DistanceMeters>
          </Trackpoint>
          <Trackpoint>
            <Time>2018-12-30T10:22:14.000Z</Time>
            <Position>
              <LatitudeDegrees>40.77398364432156085968017578125</LatitudeDegrees>
              <LongitudeDegrees>-4.07085123471915721893310546875</LongitudeDegrees>
            </Position>
            <AltitudeMeters>1454.5999755859375</AltitudeMeters>
            <DistanceMeters>NAN</DistanceMeters>
          </Trackpoint>
          <Trackpoint>
            <Time>2018-12-30T10:22:15.000Z</Time>
            <Position>
              <LatitudeDegrees>40.773987583816051483154296875</LatitudeDegrees>
              <LongitudeDegrees>-4.070844948291778564453125</LongitudeDegrees>
            </Position>
            <AltitudeMeters>1454.800048828125</AltitudeMeters>
            <DistanceMeters>NAN</DistanceMeters>
          </Trackpoint>
          <Trackpoint>
            <Time>2018-12-30T10:22:16.000Z</Time>
            <Position>
              <LatitudeDegrees>40.773986913263797760009765625</LatitudeDegrees>
              <LongitudeDegrees>-4.07083899714052677154541015625</LongitudeDegrees>
            </Position>
            <AltitudeMeters>1454.800048828125</AltitudeMeters>
            <DistanceMeters>NAN</DistanceMeters>
          </Trackpoint>
          <Trackpoint>
            <Time>2018-12-30T10:22:17.000Z</Time>
            <Position>
              <LatitudeDegrees>40.7739879190921783447265625</LatitudeDegrees>
              <LongitudeDegrees>-4.07082960940897464752197265625</LongitudeDegrees>
            </Position>
            <AltitudeMeters>1454.800048828125</AltitudeMeters>
            <DistanceMeters>NAN</DistanceMeters>
          </Trackpoint>
          <Trackpoint>
            <Time>2018-12-30T10:22:18.000Z</Time>
            <Position>
              <LatitudeDegrees>40.773990936577320098876953125</LatitudeDegrees>
              <LongitudeDegrees>-4.0708196349442005157470703125</LongitudeDegrees>
            </Position>
            <AltitudeMeters>1455</AltitudeMeters>
            <DistanceMeters>NAN</DistanceMeters>
          </Trackpoint>
          <Trackpoint>
            <Time>2018-12-30T10:22:19.000Z</Time>
            <Position>
              <LatitudeDegrees>40.77399705536663532257080078125</LatitudeDegrees>
              <LongitudeDegrees>-4.070807062089443206787109375</LongitudeDegrees>
            </Position>
            <AltitudeMeters>1455</AltitudeMeters>
            <DistanceMeters>NAN</DistanceMeters>
          </Trackpoint>
          <Trackpoint>
            <Time>2018-12-30T10:22:20.000Z</Time>
            <Position>
              <LatitudeDegrees>40.7740038447082042694091796875</LatitudeDegrees>
              <LongitudeDegrees>-4.07079398632049560546875</LongitudeDegrees>
            </Position>
            <AltitudeMeters>1455</AltitudeMeters>
            <DistanceMeters>NAN</DistanceMeters>
          </Trackpoint>
          <Trackpoint>
            <Time>2018-12-30T10:22:21.000Z</Time>
            <Position>
              <LatitudeDegrees>40.77400862239301204681396484375</LatitudeDegrees>
              <LongitudeDegrees>-4.0707834251224994659423828125</LongitudeDegrees>
            </Position>
            <AltitudeMeters>1455</AltitudeMeters>
            <DistanceMeters>NAN</DistanceMeters>
          </Trackpoint>
          <Trackpoint>
            <Time>2018-12-30T10:22:22.000Z</Time>
            <Position>
              <LatitudeDegrees>40.7740145735442638397216796875</LatitudeDegrees>
              <LongitudeDegrees>-4.07077412120997905731201171875</LongitudeDegrees>
            </Position>
            <AltitudeMeters>1455</AltitudeMeters>
            <DistanceMeters>NAN</DistanceMeters>
          </Trackpoint>
          <Trackpoint>
            <Time>2018-12-30T10:22:23.000Z</Time>
            <Position>
              <LatitudeDegrees>40.77402035705745220184326171875</LatitudeDegrees>
              <LongitudeDegrees>-4.070767499506473541259765625</LongitudeDegrees>
            </Position>
            <AltitudeMeters>1455</AltitudeMeters>
            <DistanceMeters>NAN</DistanceMeters>
          </Trackpoint>
          <Trackpoint>
            <Time>2018-12-30T10:22:24.000Z</Time>
            <Position>
              <LatitudeDegrees>40.77402890659868717193603515625</LatitudeDegrees>
              <LongitudeDegrees>-4.07075635157525539398193359375</LongitudeDegrees>
            </Position>
            <AltitudeMeters>1455.199951171875</AltitudeMeters>
            <DistanceMeters>NAN</DistanceMeters>
          </Trackpoint>
          <Trackpoint>
            <Time>2018-12-30T10:22:25.000Z</Time>
            <Position>
              <LatitudeDegrees>40.77403343282639980316162109375</LatitudeDegrees>
              <LongitudeDegrees>-4.07074059359729290008544921875</LongitudeDegrees>
            </Position>
            <AltitudeMeters>1455.5999755859375</AltitudeMeters>
            <DistanceMeters>NAN</DistanceMeters>
          </Trackpoint>
          <Trackpoint>
            <Time>2018-12-30T10:22:26.000Z</Time>
            <Position>
              <LatitudeDegrees>40.7740367017686367034912109375</LatitudeDegrees>
              <LongitudeDegrees>-4.07072651199996471405029296875</LongitudeDegrees>
            </Position>
            <AltitudeMeters>1455.800048828125</AltitudeMeters>
            <DistanceMeters>NAN</DistanceMeters>
          </Trackpoint>
          <Trackpoint>
            <Time>2018-12-30T10:22:27.000Z</Time>
            <Position>
              <LatitudeDegrees>40.7740410603582859039306640625</LatitudeDegrees>
              <LongitudeDegrees>-4.07071561552584171295166015625</LongitudeDegrees>
            </Position>
            <AltitudeMeters>1456</AltitudeMeters>
            <DistanceMeters>NAN</DistanceMeters>
          </Trackpoint>
          <Trackpoint>
            <Time>2018-12-30T10:22:28.000Z</Time>
            <Position>
              <LatitudeDegrees>40.77404625713825225830078125</LatitudeDegrees>
              <LongitudeDegrees>-4.07070857472717761993408203125</LongitudeDegrees>
            </Position>
            <AltitudeMeters>1456.199951171875</AltitudeMeters>
            <DistanceMeters>NAN</DistanceMeters>
          </Trackpoint>
          <Trackpoint>
            <Time>2018-12-30T10:22:29.000Z</Time>
            <Position>
              <LatitudeDegrees>40.77404969371855258941650390625</LatitudeDegrees>
              <LongitudeDegrees>-4.07069834880530834197998046875</LongitudeDegrees>
            </Position>
            <AltitudeMeters>1456.4000244140625</AltitudeMeters>
            <DistanceMeters>NAN</DistanceMeters>
          </Trackpoint>
          <Trackpoint>
            <Time>2018-12-30T10:22:30.000Z</Time>
            <Position>
              <LatitudeDegrees>40.77405120246112346649169921875</LatitudeDegrees>
              <LongitudeDegrees>-4.07068761996924877166748046875</LongitudeDegrees>
            </Position>
            <AltitudeMeters>1456.5999755859375</AltitudeMeters>
            <DistanceMeters>NAN</DistanceMeters>
          </Trackpoint>
          <Trackpoint>
            <Time>2018-12-30T10:22:31.000Z</Time>
            <Position>
              <LatitudeDegrees>40.774054639041423797607421875</LatitudeDegrees>
              <LongitudeDegrees>-4.07067404128611087799072265625</LongitudeDegrees>
            </Position>
            <AltitudeMeters>1456.5999755859375</AltitudeMeters>
            <DistanceMeters>NAN</DistanceMeters>
          </Trackpoint>
          <Trackpoint>
            <Time>2018-12-30T10:22:32.000Z</Time>
            <Position>
              <LatitudeDegrees>40.7740591652691364288330078125</LatitudeDegrees>
              <LongitudeDegrees>-4.07066817395389080047607421875</LongitudeDegrees>
            </Position>
            <AltitudeMeters>1456.5999755859375</AltitudeMeters>
            <DistanceMeters>NAN</DistanceMeters>
          </Trackpoint>
          <Trackpoint>
            <Time>2018-12-30T10:22:33.000Z</Time>
            <Position>
              <LatitudeDegrees>40.77406427823007106781005859375</LatitudeDegrees>
              <LongitudeDegrees>-4.07066348008811473846435546875</LongitudeDegrees>
            </Position>
            <AltitudeMeters>1456.800048828125</AltitudeMeters>
            <DistanceMeters>NAN</DistanceMeters>
          </Trackpoint>
          <Trackpoint>
            <Time>2018-12-30T10:22:34.000Z</Time>
            <Position>
              <LatitudeDegrees>40.774070061743259429931640625</LatitudeDegrees>
              <LongitudeDegrees>-4.0706504881381988525390625</LongitudeDegrees>
            </Position>
            <AltitudeMeters>1456.800048828125</AltitudeMeters>
            <DistanceMeters>NAN</DistanceMeters>
          </Trackpoint>
          <Trackpoint>
            <Time>2018-12-30T10:22:35.000Z</Time>
            <Position>
              <LatitudeDegrees>40.7740782760083675384521484375</LatitudeDegrees>
              <LongitudeDegrees>-4.07064051367342472076416015625</LongitudeDegrees>
            </Position>
            <AltitudeMeters>1457.199951171875</AltitudeMeters>
            <DistanceMeters>NAN</DistanceMeters>
          </Trackpoint>
          <Trackpoint>
            <Time>2018-12-30T10:22:36.000Z</Time>
            <Position>
              <LatitudeDegrees>40.77408456243574619293212890625</LatitudeDegrees>
              <LongitudeDegrees>-4.07063229940831661224365234375</LongitudeDegrees>
            </Position>
            <AltitudeMeters>1457.4000244140625</AltitudeMeters>
            <DistanceMeters>NAN</DistanceMeters>
          </Trackpoint>
          <Trackpoint>
            <Time>2018-12-30T10:22:37.000Z</Time>
            <Position>
              <LatitudeDegrees>40.774090848863124847412109375</LatitudeDegrees>
              <LongitudeDegrees>-4.0706268511712551116943359375</LongitudeDegrees>
            </Position>
            <AltitudeMeters>1457.5999755859375</AltitudeMeters>
            <DistanceMeters>NAN</DistanceMeters>
          </Trackpoint>
          <Trackpoint>
            <Time>2018-12-30T10:22:38.000Z</Time>
            <Position>
              <LatitudeDegrees>40.77410300262272357940673828125</LatitudeDegrees>
              <LongitudeDegrees>-4.07062106765806674957275390625</LongitudeDegrees>
            </Position>
            <AltitudeMeters>1457.800048828125</AltitudeMeters>
            <DistanceMeters>NAN</DistanceMeters>
          </Trackpoint>
          <Trackpoint>
            <Time>2018-12-30T10:22:39.000Z</Time>
            <Position>
              <LatitudeDegrees>40.77410769648849964141845703125</LatitudeDegrees>
              <LongitudeDegrees>-4.07060849480330944061279296875</LongitudeDegrees>
            </Position>
            <AltitudeMeters>1458</AltitudeMeters>
            <DistanceMeters>NAN</DistanceMeters>
          </Trackpoint>
          <Trackpoint>
            <Time>2018-12-30T10:22:40.000Z</Time>
            <Position>
              <LatitudeDegrees>40.77411599457263946533203125</LatitudeDegrees>
              <LongitudeDegrees>-4.0706006996333599090576171875</LongitudeDegrees>
            </Position>
            <AltitudeMeters>1458.199951171875</AltitudeMeters>
            <DistanceMeters>NAN</DistanceMeters>
          </Trackpoint>
          <Trackpoint>
            <Time>2018-12-30T10:22:41.000Z</Time>
            <Position>
              <LatitudeDegrees>40.77412798069417476654052734375</LatitudeDegrees>
              <LongitudeDegrees>-4.0705976821482181549072265625</LongitudeDegrees>
            </Position>
            <AltitudeMeters>1458.199951171875</AltitudeMeters>
            <DistanceMeters>NAN</DistanceMeters>
          </Trackpoint>
          <Trackpoint>
            <Time>2018-12-30T10:22:42.000Z</Time>
            <Position>
              <LatitudeDegrees>40.77413267455995082855224609375</LatitudeDegrees>
              <LongitudeDegrees>-4.07059323973953723907470703125</LongitudeDegrees>
            </Position>
            <AltitudeMeters>1458.4000244140625</AltitudeMeters>
            <DistanceMeters>NAN</DistanceMeters>
          </Trackpoint>
          <Trackpoint>
            <Time>2018-12-30T10:22:43.000Z</Time>
            <Position>
              <LatitudeDegrees>40.77413150109350681304931640625</LatitudeDegrees>
              <LongitudeDegrees>-4.0705919824540615081787109375</LongitudeDegrees>
            </Position>
            <AltitudeMeters>1458.4000244140625</AltitudeMeters>
            <DistanceMeters>NAN</DistanceMeters>
          </Trackpoint>
          <Trackpoint>
            <Time>2018-12-30T10:22:44.000Z</Time>
            <Position>
              <LatitudeDegrees>40.77413435094058513641357421875</LatitudeDegrees>
              <LongitudeDegrees>-4.07058418728411197662353515625</LongitudeDegrees>
            </Position>
            <AltitudeMeters>1458.5999755859375</AltitudeMeters>
            <DistanceMeters>NAN</DistanceMeters>
          </Trackpoint>
          <Trackpoint>
            <Time>2018-12-30T10:22:45.000Z</Time>
            <Position>
              <LatitudeDegrees>40.77413770370185375213623046875</LatitudeDegrees>
              <LongitudeDegrees>-4.07057614065706729888916015625</LongitudeDegrees>
            </Position>
            <AltitudeMeters>1458.5999755859375</AltitudeMeters>
            <DistanceMeters>NAN</DistanceMeters>
          </Trackpoint>
          <Trackpoint>
            <Time>2018-12-30T10:22:46.000Z</Time>
            <Position>
              <LatitudeDegrees>40.77414340339601039886474609375</LatitudeDegrees>
              <LongitudeDegrees>-4.0705644898116588592529296875</LongitudeDegrees>
            </Position>
            <AltitudeMeters>1458.5999755859375</AltitudeMeters>
            <DistanceMeters>NAN</DistanceMeters>
          </Trackpoint>
          <Trackpoint>
            <Time>2018-12-30T10:22:47.000Z</Time>
            <Position>
              <LatitudeDegrees>40.77415161766111850738525390625</LatitudeDegrees>
              <LongitudeDegrees>-4.07055216841399669647216796875</LongitudeDegrees>
            </Position>
            <AltitudeMeters>1458.4000244140625</AltitudeMeters>
            <DistanceMeters>NAN</DistanceMeters>
          </Trackpoint>
          <Trackpoint>
            <Time>2018-12-30T10:22:48.000Z</Time>
            <Position>
              <LatitudeDegrees>40.77416016720235347747802734375</LatitudeDegrees>
              <LongitudeDegrees>-4.070541858673095703125</LongitudeDegrees>
            </Position>
            <AltitudeMeters>1458.4000244140625</AltitudeMeters>
            <DistanceMeters>NAN</DistanceMeters>
          </Trackpoint>
          <Trackpoint>
            <Time>2018-12-30T10:22:49.000Z</Time>
            <Position>
              <LatitudeDegrees>40.77416829764842987060546875</LatitudeDegrees>
              <LongitudeDegrees>-4.07053255476057529449462890625</LongitudeDegrees>
            </Position>
            <AltitudeMeters>1458.4000244140625</AltitudeMeters>
            <DistanceMeters>NAN</DistanceMeters>
          </Trackpoint>
          <Trackpoint>
            <Time>2018-12-30T10:22:50.000Z</Time>
            <Position>
              <LatitudeDegrees>40.774179361760616302490234375</LatitudeDegrees>
              <LongitudeDegrees>-4.0705296210944652557373046875</LongitudeDegrees>
            </Position>
            <AltitudeMeters>1458.5999755859375</AltitudeMeters>
            <DistanceMeters>NAN</DistanceMeters>
          </Trackpoint>
          <Trackpoint>
            <Time>2018-12-30T10:22:51.000Z</Time>
            <Position>
              <LatitudeDegrees>40.7741895876824855804443359375</LatitudeDegrees>
              <LongitudeDegrees>-4.070528447628021240234375</LongitudeDegrees>
            </Position>
            <AltitudeMeters>1458.5999755859375</AltitudeMeters>
            <DistanceMeters>NAN</DistanceMeters>
          </Trackpoint>
          <Trackpoint>
            <Time>2018-12-30T10:22:52.000Z</Time>
            <Position>
              <LatitudeDegrees>40.77419855631887912750244140625</LatitudeDegrees>
              <LongitudeDegrees>-4.07052509486675262451171875</LongitudeDegrees>
            </Position>
            <AltitudeMeters>1459</AltitudeMeters>
            <DistanceMeters>NAN</DistanceMeters>
          </Trackpoint>
          <Trackpoint>
            <Time>2018-12-30T10:22:53.000Z</Time>
            <Position>
              <LatitudeDegrees>40.77421062625944614410400390625</LatitudeDegrees>
              <LongitudeDegrees>-4.07052920199930667877197265625</LongitudeDegrees>
            </Position>
            <AltitudeMeters>1459.199951171875</AltitudeMeters>
            <DistanceMeters>NAN</DistanceMeters>
          </Trackpoint>
          <Trackpoint>
            <Time>2018-12-30T10:22:54.000Z</Time>
            <Position>
              <LatitudeDegrees>40.7742217741906642913818359375</LatitudeDegrees>
              <LongitudeDegrees>-4.07053180038928985595703125</LongitudeDegrees>
            </Position>
            <AltitudeMeters>1459.4000244140625</AltitudeMeters>
            <DistanceMeters>NAN</DistanceMeters>
          </Trackpoint>
          <Trackpoint>
            <Time>2018-12-30T10:22:55.000Z</Time>
            <Position>
              <LatitudeDegrees>40.77423040755093097686767578125</LatitudeDegrees>
              <LongitudeDegrees>-4.07053389586508274078369140625</LongitudeDegrees>
            </Position>
            <AltitudeMeters>1459.5999755859375</AltitudeMeters>
            <DistanceMeters>NAN</DistanceMeters>
          </Trackpoint>
          <Trackpoint>
            <Time>2018-12-30T10:22:56.000Z</Time>
            <Position>
              <LatitudeDegrees>40.7742479257285594940185546875</LatitudeDegrees>
              <LongitudeDegrees>-4.070524089038372039794921875</LongitudeDegrees>
            </Position>
            <AltitudeMeters>1459.800048828125</AltitudeMeters>
            <DistanceMeters>NAN</DistanceMeters>
          </Trackpoint>
          <Trackpoint>
            <Time>2018-12-30T10:22:57.000Z</Time>
            <Position>
              <LatitudeDegrees>40.7742479257285594940185546875</LatitudeDegrees>
              <LongitudeDegrees>-4.070524089038372039794921875</LongitudeDegrees>
            </Position>
            <AltitudeMeters>1459.800048828125</AltitudeMeters>
            <DistanceMeters>NAN</DistanceMeters>
          </Trackpoint>
          <Trackpoint>
            <Time>2018-12-30T10:22:58.000Z</Time>
            <Position>
              <LatitudeDegrees>40.7742599956691265106201171875</LatitudeDegrees>
              <LongitudeDegrees>-4.0705225802958011627197265625</LongitudeDegrees>
            </Position>
            <AltitudeMeters>1460</AltitudeMeters>
            <DistanceMeters>NAN</DistanceMeters>
          </Trackpoint>
          <Trackpoint>
            <Time>2018-12-30T10:22:59.000Z</Time>
            <Position>
              <LatitudeDegrees>40.77426929958164691925048828125</LatitudeDegrees>
              <LongitudeDegrees>-4.07052584923803806304931640625</LongitudeDegrees>
            </Position>
            <AltitudeMeters>1460.4000244140625</AltitudeMeters>
            <DistanceMeters>NAN</DistanceMeters>
          </Trackpoint>
          <Trackpoint>
            <Time>2018-12-30T10:23:00.000Z</Time>
            <Position>
              <LatitudeDegrees>40.77427768148481845855712890625</LatitudeDegrees>
              <LongitudeDegrees>-4.0705343149602413177490234375</LongitudeDegrees>
            </Position>
            <AltitudeMeters>1460.5999755859375</AltitudeMeters>
            <DistanceMeters>NAN</DistanceMeters>
          </Trackpoint>
          <Trackpoint>
            <Time>2018-12-30T10:23:01.000Z</Time>
            <Position>
              <LatitudeDegrees>40.77428388409316539764404296875</LatitudeDegrees>
              <LongitudeDegrees>-4.0705380029976367950439453125</LongitudeDegrees>
            </Position>
            <AltitudeMeters>1460.5999755859375</AltitudeMeters>
            <DistanceMeters>NAN</DistanceMeters>
          </Trackpoint>
          <Trackpoint>
            <Time>2018-12-30T10:23:02.000Z</Time>
            <Position>
              <LatitudeDegrees>40.77428765594959259033203125</LatitudeDegrees>
              <LongitudeDegrees>-4.07054462470114231109619140625</LongitudeDegrees>
            </Position>
            <AltitudeMeters>1460.800048828125</AltitudeMeters>
            <DistanceMeters>NAN</DistanceMeters>
          </Trackpoint>
          <Trackpoint>
            <Time>2018-12-30T10:23:03.000Z</Time>
            <Position>
              <LatitudeDegrees>40.7742936909198760986328125</LatitudeDegrees>
              <LongitudeDegrees>-4.07055057585239410400390625</LongitudeDegrees>
            </Position>
            <AltitudeMeters>1460.800048828125</AltitudeMeters>
            <DistanceMeters>NAN</DistanceMeters>
          </Trackpoint>
          <Trackpoint>
            <Time>2018-12-30T10:23:04.000Z</Time>
            <Position>
              <LatitudeDegrees>40.77430282719433307647705078125</LatitudeDegrees>
              <LongitudeDegrees>-4.07055384479463100433349609375</LongitudeDegrees>
            </Position>
            <AltitudeMeters>1460.800048828125</AltitudeMeters>
            <DistanceMeters>NAN</DistanceMeters>
          </Trackpoint>
          <Trackpoint>
            <Time>2018-12-30T10:23:05.000Z</Time>
            <Position>
              <LatitudeDegrees>40.77431187964975833892822265625</LatitudeDegrees>
              <LongitudeDegrees>-4.07055594027042388916015625</LongitudeDegrees>
            </Position>
            <AltitudeMeters>1460.800048828125</AltitudeMeters>
            <DistanceMeters>NAN</DistanceMeters>
          </Trackpoint>
          <Trackpoint>
            <Time>2018-12-30T10:23:06.000Z</Time>
            <Position>
              <LatitudeDegrees>40.774324201047420501708984375</LatitudeDegrees>
              <LongitudeDegrees>-4.0705577842891216278076171875</LongitudeDegrees>
            </Position>
            <AltitudeMeters>1461</AltitudeMeters>
            <DistanceMeters>NAN</DistanceMeters>
          </Trackpoint>
          <Trackpoint>
            <Time>2018-12-30T10:23:07.000Z</Time>
            <Position>
              <LatitudeDegrees>40.77433384023606777191162109375</LatitudeDegrees>
              <LongitudeDegrees>-4.07055300660431385040283203125</LongitudeDegrees>
            </Position>
            <AltitudeMeters>1461</AltitudeMeters>
            <DistanceMeters>NAN</DistanceMeters>
          </Trackpoint>
          <Trackpoint>
            <Time>2018-12-30T10:23:08.000Z</Time>
            <Position>
              <LatitudeDegrees>40.77434255741536617279052734375</LatitudeDegrees>
              <LongitudeDegrees>-4.07055166549980640411376953125</LongitudeDegrees>
            </Position>
            <AltitudeMeters>1461.199951171875</AltitudeMeters>
            <DistanceMeters>NAN</DistanceMeters>
          </Trackpoint>
          <Trackpoint>
            <Time>2018-12-30T10:23:09.000Z</Time>
            <Position>
              <LatitudeDegrees>40.77434959821403026580810546875</LatitudeDegrees>
              <LongitudeDegrees>-4.07054445706307888031005859375</LongitudeDegrees>
            </Position>
            <AltitudeMeters>1461.4000244140625</AltitudeMeters>
            <DistanceMeters>NAN</DistanceMeters>
          </Trackpoint>
          <Trackpoint>
            <Time>2018-12-30T10:23:10.000Z</Time>
            <Position>
              <LatitudeDegrees>40.7743599079549312591552734375</LatitudeDegrees>
              <LongitudeDegrees>-4.07053984701633453369140625</LongitudeDegrees>
            </Position>
            <AltitudeMeters>1461.4000244140625</AltitudeMeters>
            <DistanceMeters>NAN</DistanceMeters>
          </Trackpoint>
          <Trackpoint>
            <Time>2018-12-30T10:23:11.000Z</Time>
            <Position>
              <LatitudeDegrees>40.77436971478164196014404296875</LatitudeDegrees>
              <LongitudeDegrees>-4.0705353207886219024658203125</LongitudeDegrees>
            </Position>
            <AltitudeMeters>1461.5999755859375</AltitudeMeters>
            <DistanceMeters>NAN</DistanceMeters>
          </Trackpoint>
          <Trackpoint>
            <Time>2018-12-30T10:23:12.000Z</Time>
            <Position>
              <LatitudeDegrees>40.7743713073432445526123046875</LatitudeDegrees>
              <LongitudeDegrees>-4.0705195628106594085693359375</LongitudeDegrees>
            </Position>
            <AltitudeMeters>1461.800048828125</AltitudeMeters>
            <DistanceMeters>NAN</DistanceMeters>
          </Trackpoint>
          <Trackpoint>
            <Time>2018-12-30T10:23:13.000Z</Time>
            <Position>
              <LatitudeDegrees>40.77437910251319408416748046875</LatitudeDegrees>
              <LongitudeDegrees>-4.07051294110715389251708984375</LongitudeDegrees>
            </Position>
            <AltitudeMeters>1461.800048828125</AltitudeMeters>
            <DistanceMeters>NAN</DistanceMeters>
          </Trackpoint>
          <Trackpoint>
            <Time>2018-12-30T10:23:14.000Z</Time>
            <Position>
              <LatitudeDegrees>40.77438647858798503875732421875</LatitudeDegrees>
              <LongitudeDegrees>-4.07050372101366519927978515625</LongitudeDegrees>
            </Position>
            <AltitudeMeters>1462</AltitudeMeters>
            <DistanceMeters>NAN</DistanceMeters>
          </Trackpoint>
          <Trackpoint>
            <Time>2018-12-30T10:23:15.000Z</Time>
            <Position>
              <LatitudeDegrees>40.7743974588811397552490234375</LatitudeDegrees>
              <LongitudeDegrees>-4.0704974345862865447998046875</LongitudeDegrees>
            </Position>
            <AltitudeMeters>1462.4000244140625</AltitudeMeters>
            <DistanceMeters>NAN</DistanceMeters>
          </Trackpoint>
          <Trackpoint>
            <Time>2018-12-30T10:23:16.000Z</Time>
            <Position>
              <LatitudeDegrees>40.77440827153623104095458984375</LatitudeDegrees>
              <LongitudeDegrees>-4.0704930759966373443603515625</LongitudeDegrees>
            </Position>
            <AltitudeMeters>1462.800048828125</AltitudeMeters>
            <DistanceMeters>NAN</DistanceMeters>
          </Trackpoint>
          <Trackpoint>
            <Time>2018-12-30T10:23:17.000Z</Time>
            <Position>
              <LatitudeDegrees>40.77441832982003688812255859375</LatitudeDegrees>
              <LongitudeDegrees>-4.07048678956925868988037109375</LongitudeDegrees>
            </Position>
            <AltitudeMeters>1463</AltitudeMeters>
            <DistanceMeters>NAN</DistanceMeters>
          </Trackpoint>
          <Trackpoint>
            <Time>2018-12-30T10:23:18.000Z</Time>
            <Position>
              <LatitudeDegrees>40.77442578971385955810546875</LatitudeDegrees>
              <LongitudeDegrees>-4.0704776532948017120361328125</LongitudeDegrees>
            </Position>
            <AltitudeMeters>1463.199951171875</AltitudeMeters>
            <DistanceMeters>NAN</DistanceMeters>
          </Trackpoint>
          <Trackpoint>
            <Time>2018-12-30T10:23:19.000Z</Time>
            <Position>
              <LatitudeDegrees>40.774428136646747589111328125</LatitudeDegrees>
              <LongitudeDegrees>-4.07046885229647159576416015625</LongitudeDegrees>
            </Position>
            <AltitudeMeters>1463.199951171875</AltitudeMeters>
            <DistanceMeters>NAN</DistanceMeters>
          </Trackpoint>
          <Trackpoint>
            <Time>2018-12-30T10:23:20.000Z</Time>
            <Position>
              <LatitudeDegrees>40.7744346745312213897705078125</LatitudeDegrees>
              <LongitudeDegrees>-4.07046801410615444183349609375</LongitudeDegrees>
            </Position>
            <AltitudeMeters>1463.4000244140625</AltitudeMeters>
            <DistanceMeters>NAN</DistanceMeters>
          </Trackpoint>
          <Trackpoint>
            <Time>2018-12-30T10:23:21.000Z</Time>
            <Position>
              <LatitudeDegrees>40.77443911693990230560302734375</LatitudeDegrees>
              <LongitudeDegrees>-4.07046533189713954925537109375</LongitudeDegrees>
            </Position>
            <AltitudeMeters>1463.4000244140625</AltitudeMeters>
            <DistanceMeters>NAN</DistanceMeters>
          </Trackpoint>
          <Trackpoint>
            <Time>2018-12-30T10:23:22.000Z</Time>
            <Position>
              <LatitudeDegrees>40.7744519412517547607421875</LatitudeDegrees>
              <LongitudeDegrees>-4.070455022156238555908203125</LongitudeDegrees>
            </Position>
            <AltitudeMeters>1463.4000244140625</AltitudeMeters>
            <DistanceMeters>NAN</DistanceMeters>
          </Trackpoint>
          <Trackpoint>
            <Time>2018-12-30T10:23:23.000Z</Time>
            <Position>
              <LatitudeDegrees>40.7744519412517547607421875</LatitudeDegrees>
              <LongitudeDegrees>-4.070455022156238555908203125</LongitudeDegrees>
            </Position>
            <AltitudeMeters>1463.4000244140625</AltitudeMeters>
            <DistanceMeters>NAN</DistanceMeters>
          </Trackpoint>
          <Trackpoint>
            <Time>2018-12-30T10:23:24.000Z</Time>
            <Position>
              <LatitudeDegrees>40.7744591496884822845458984375</LatitudeDegrees>
              <LongitudeDegrees>-4.0704491548240184783935546875</LongitudeDegrees>
            </Position>
            <AltitudeMeters>1463.5999755859375</AltitudeMeters>
            <DistanceMeters>NAN</DistanceMeters>
          </Trackpoint>
          <Trackpoint>
            <Time>2018-12-30T10:23:25.000Z</Time>
            <Position>
              <LatitudeDegrees>40.7744661904871463775634765625</LatitudeDegrees>
              <LongitudeDegrees>-4.07044387422502040863037109375</LongitudeDegrees>
            </Position>
            <AltitudeMeters>1463.5999755859375</AltitudeMeters>
            <DistanceMeters>NAN</DistanceMeters>
          </Trackpoint>
          <Trackpoint>
            <Time>2018-12-30T10:23:26.000Z</Time>
            <Position>
              <LatitudeDegrees>40.7744739018380641937255859375</LatitudeDegrees>
              <LongitudeDegrees>-4.0704344026744365692138671875</LongitudeDegrees>
            </Position>
            <AltitudeMeters>1463.5999755859375</AltitudeMeters>
            <DistanceMeters>NAN</DistanceMeters>
          </Trackpoint>
          <Trackpoint>
            <Time>2018-12-30T10:23:27.000Z</Time>
            <Position>
              <LatitudeDegrees>40.77448320575058460235595703125</LatitudeDegrees>
              <LongitudeDegrees>-4.07042576931416988372802734375</LongitudeDegrees>
            </Position>
            <AltitudeMeters>1463.5999755859375</AltitudeMeters>
            <DistanceMeters>NAN</DistanceMeters>
          </Trackpoint>
          <Trackpoint>
            <Time>2018-12-30T10:23:28.000Z</Time>
            <Position>
              <LatitudeDegrees>40.77449393458664417266845703125</LatitudeDegrees>
              <LongitudeDegrees>-4.0704219974577426910400390625</LongitudeDegrees>
            </Position>
            <AltitudeMeters>1463.5999755859375</AltitudeMeters>
            <DistanceMeters>NAN</DistanceMeters>
          </Trackpoint>
          <Trackpoint>
            <Time>2018-12-30T10:23:29.000Z</Time>
            <Position>
              <LatitudeDegrees>40.774503909051418304443359375</LatitudeDegrees>
              <LongitudeDegrees>-4.07041872851550579071044921875</LongitudeDegrees>
            </Position>
            <AltitudeMeters>1463.800048828125</AltitudeMeters>
            <DistanceMeters>NAN</DistanceMeters>
          </Trackpoint>
          <Trackpoint>
            <Time>2018-12-30T10:23:30.000Z</Time>
            <Position>
              <LatitudeDegrees>40.77451229095458984375</LatitudeDegrees>
              <LongitudeDegrees>-4.07041512429714202880859375</LongitudeDegrees>
            </Position>
            <AltitudeMeters>1464</AltitudeMeters>
            <DistanceMeters>NAN</DistanceMeters>
          </Trackpoint>
          <Trackpoint>
            <Time>2018-12-30T10:23:31.000Z</Time>
            <Position>
              <LatitudeDegrees>40.774520002305507659912109375</LatitudeDegrees>
              <LongitudeDegrees>-4.07041017897427082061767578125</LongitudeDegrees>
            </Position>
            <AltitudeMeters>1464.199951171875</AltitudeMeters>
            <DistanceMeters>NAN</DistanceMeters>
          </Trackpoint>
          <Trackpoint>
            <Time>2018-12-30T10:23:32.000Z</Time>
            <Position>
              <LatitudeDegrees>40.77452947385609149932861328125</LatitudeDegrees>
              <LongitudeDegrees>-4.07039978541433811187744140625</LongitudeDegrees>
            </Position>
            <AltitudeMeters>1464.4000244140625</AltitudeMeters>
            <DistanceMeters>NAN</DistanceMeters>
          </Trackpoint>
          <Trackpoint>
            <Time>2018-12-30T10:23:33.000Z</Time>
            <Position>
              <LatitudeDegrees>40.77453869394958019256591796875</LatitudeDegrees>
              <LongitudeDegrees>-4.0703888051211833953857421875</LongitudeDegrees>
            </Position>
            <AltitudeMeters>1464.800048828125</AltitudeMeters>
            <DistanceMeters>NAN</DistanceMeters>
          </Trackpoint>
          <Trackpoint>
            <Time>2018-12-30T10:23:34.000Z</Time>
            <Position>
              <LatitudeDegrees>40.77454858459532260894775390625</LatitudeDegrees>
              <LongitudeDegrees>-4.07038570381700992584228515625</LongitudeDegrees>
            </Position>
            <AltitudeMeters>1465</AltitudeMeters>
            <DistanceMeters>NAN</DistanceMeters>
          </Trackpoint>
          <Trackpoint>
            <Time>2018-12-30T10:23:35.000Z</Time>
            <Position>
              <LatitudeDegrees>40.77455813996493816375732421875</LatitudeDegrees>
              <LongitudeDegrees>-4.07038436271250247955322265625</LongitudeDegrees>
            </Position>
            <AltitudeMeters>1465.199951171875</AltitudeMeters>
            <DistanceMeters>NAN</DistanceMeters>
          </Trackpoint>
          <Trackpoint>
            <Time>2018-12-30T10:23:36.000Z</Time>
            <Position>
              <LatitudeDegrees>40.77456836588680744171142578125</LatitudeDegrees>
              <LongitudeDegrees>-4.070383273065090179443359375</LongitudeDegrees>
            </Position>
            <AltitudeMeters>1465.4000244140625</AltitudeMeters>
            <DistanceMeters>NAN</DistanceMeters>
          </Trackpoint>
          <Trackpoint>
            <Time>2018-12-30T10:23:37.000Z</Time>
            <Position>
              <LatitudeDegrees>40.77457942999899387359619140625</LatitudeDegrees>
              <LongitudeDegrees>-4.07038293778896331787109375</LongitudeDegrees>
            </Position>
            <AltitudeMeters>1465.4000244140625</AltitudeMeters>
            <DistanceMeters>NAN</DistanceMeters>
          </Trackpoint>
          <Trackpoint>
            <Time>2018-12-30T10:23:38.000Z</Time>
            <Position>
              <LatitudeDegrees>40.77458948828279972076416015625</LatitudeDegrees>
              <LongitudeDegrees>-4.07038084231317043304443359375</LongitudeDegrees>
            </Position>
            <AltitudeMeters>1465.4000244140625</AltitudeMeters>
            <DistanceMeters>NAN</DistanceMeters>
          </Trackpoint>
          <Trackpoint>
            <Time>2018-12-30T10:23:39.000Z</Time>
            <Position>
              <LatitudeDegrees>40.7745982892811298370361328125</LatitudeDegrees>
              <LongitudeDegrees>-4.07037011347711086273193359375</LongitudeDegrees>
            </Position>
            <AltitudeMeters>1465.5999755859375</AltitudeMeters>
            <DistanceMeters>NAN</DistanceMeters>
          </Trackpoint>
          <Trackpoint>
            <Time>2018-12-30T10:23:40.000Z</Time>
            <Position>
              <LatitudeDegrees>40.77460474334657192230224609375</LatitudeDegrees>
              <LongitudeDegrees>-4.0703581273555755615234375</LongitudeDegrees>
            </Position>
            <AltitudeMeters>1465.5999755859375</AltitudeMeters>
            <DistanceMeters>NAN</DistanceMeters>
          </Trackpoint>
          <Trackpoint>
            <Time>2018-12-30T10:23:41.000Z</Time>
            <Position>
              <LatitudeDegrees>40.77461262233555316925048828125</LatitudeDegrees>
              <LongitudeDegrees>-4.07034882344305515289306640625</LongitudeDegrees>
            </Position>
            <AltitudeMeters>1465.5999755859375</AltitudeMeters>
            <DistanceMeters>NAN</DistanceMeters>
          </Trackpoint>
          <Trackpoint>
            <Time>2018-12-30T10:23:42.000Z</Time>
            <Position>
              <LatitudeDegrees>40.77461622655391693115234375</LatitudeDegrees>
              <LongitudeDegrees>-4.0703366696834564208984375</LongitudeDegrees>
            </Position>
            <AltitudeMeters>1465.800048828125</AltitudeMeters>
            <DistanceMeters>NAN</DistanceMeters>
          </Trackpoint>
          <Trackpoint>
            <Time>2018-12-30T10:23:43.000Z</Time>
            <Position>
              <LatitudeDegrees>40.77461999841034412384033203125</LatitudeDegrees>
              <LongitudeDegrees>-4.07032703049480915069580078125</LongitudeDegrees>
            </Position>
            <AltitudeMeters>1466.199951171875</AltitudeMeters>
            <DistanceMeters>NAN</DistanceMeters>
          </Trackpoint>
          <Trackpoint>
            <Time>2018-12-30T10:23:44.000Z</Time>
            <Position>
              <LatitudeDegrees>40.77462368644773960113525390625</LatitudeDegrees>
              <LongitudeDegrees>-4.07032267190515995025634765625</LongitudeDegrees>
            </Position>
            <AltitudeMeters>1466.5999755859375</AltitudeMeters>
            <DistanceMeters>NAN</DistanceMeters>
          </Trackpoint>
          <Trackpoint>
            <Time>2018-12-30T10:23:45.000Z</Time>
            <Position>
              <LatitudeDegrees>40.7746287994086742401123046875</LatitudeDegrees>
              <LongitudeDegrees>-4.0703205764293670654296875</LongitudeDegrees>
            </Position>
            <AltitudeMeters>1467</AltitudeMeters>
            <DistanceMeters>NAN</DistanceMeters>
          </Trackpoint>
          <Trackpoint>
            <Time>2018-12-30T10:23:46.000Z</Time>
            <Position>
              <LatitudeDegrees>40.774635337293148040771484375</LatitudeDegrees>
              <LongitudeDegrees>-4.07031454145908355712890625</LongitudeDegrees>
            </Position>
            <AltitudeMeters>1467.5999755859375</AltitudeMeters>
            <DistanceMeters>NAN</DistanceMeters>
          </Trackpoint>
          <Trackpoint>
            <Time>2018-12-30T10:23:47.000Z</Time>
            <Position>
              <LatitudeDegrees>40.7746450603008270263671875</LatitudeDegrees>
              <LongitudeDegrees>-4.070308841764926910400390625</LongitudeDegrees>
            </Position>
            <AltitudeMeters>1468</AltitudeMeters>
            <DistanceMeters>NAN</DistanceMeters>
          </Trackpoint>
          <Trackpoint>
            <Time>2018-12-30T10:23:48.000Z</Time>
            <Position>
              <LatitudeDegrees>40.77465369366109371185302734375</LatitudeDegrees>
              <LongitudeDegrees>-4.07030590809881687164306640625</LongitudeDegrees>
            </Position>
            <AltitudeMeters>1468.199951171875</AltitudeMeters>
            <DistanceMeters>NAN</DistanceMeters>
          </Trackpoint>
          <Trackpoint>
            <Time>2018-12-30T10:23:49.000Z</Time>
            <Position>
              <LatitudeDegrees>40.7746633328497409820556640625</LatitudeDegrees>
              <LongitudeDegrees>-4.07030708156526088714599609375</LongitudeDegrees>
            </Position>
            <AltitudeMeters>1468.199951171875</AltitudeMeters>
            <DistanceMeters>NAN</DistanceMeters>
          </Trackpoint>
          <Trackpoint>
            <Time>2018-12-30T10:23:50.000Z</Time>
            <Position>
              <LatitudeDegrees>40.77467523515224456787109375</LatitudeDegrees>
              <LongitudeDegrees>-4.0703103505074977874755859375</LongitudeDegrees>
            </Position>
            <AltitudeMeters>1468.4000244140625</AltitudeMeters>
            <DistanceMeters>NAN</DistanceMeters>
          </Trackpoint>
          <Trackpoint>
            <Time>2018-12-30T10:23:51.000Z</Time>
            <Position>
              <LatitudeDegrees>40.7746851257979869842529296875</LatitudeDegrees>
              <LongitudeDegrees>-4.070308841764926910400390625</LongitudeDegrees>
            </Position>
            <AltitudeMeters>1468.4000244140625</AltitudeMeters>
            <DistanceMeters>NAN</DistanceMeters>
          </Trackpoint>
          <Trackpoint>
            <Time>2018-12-30T10:23:52.000Z</Time>
            <Position>
              <LatitudeDegrees>40.77469669282436370849609375</LatitudeDegrees>
              <LongitudeDegrees>-4.07029886730015277862548828125</LongitudeDegrees>
            </Position>
            <AltitudeMeters>1468.4000244140625</AltitudeMeters>
            <DistanceMeters>NAN</DistanceMeters>
          </Trackpoint>
          <Trackpoint>
            <Time>2018-12-30T10:23:53.000Z</Time>
            <Position>
              <LatitudeDegrees>40.77469669282436370849609375</LatitudeDegrees>
              <LongitudeDegrees>-4.07029886730015277862548828125</LongitudeDegrees>
            </Position>
            <AltitudeMeters>1468.5999755859375</AltitudeMeters>
            <DistanceMeters>NAN</DistanceMeters>
          </Trackpoint>
          <Trackpoint>
            <Time>2018-12-30T10:23:54.000Z</Time>
            <Position>
              <LatitudeDegrees>40.7747022248804569244384765625</LatitudeDegrees>
              <LongitudeDegrees>-4.07029584981501102447509765625</LongitudeDegrees>
            </Position>
            <AltitudeMeters>1468.5999755859375</AltitudeMeters>
            <DistanceMeters>NAN</DistanceMeters>
          </Trackpoint>
          <Trackpoint>
            <Time>2018-12-30T10:23:55.000Z</Time>
            <Position>
              <LatitudeDegrees>40.77470448799431324005126953125</LatitudeDegrees>
              <LongitudeDegrees>-4.0702989511191844940185546875</LongitudeDegrees>
            </Position>
            <AltitudeMeters>1468.5999755859375</AltitudeMeters>
            <DistanceMeters>NAN</DistanceMeters>
          </Trackpoint>
          <Trackpoint>
            <Time>2018-12-30T10:23:56.000Z</Time>
            <Position>
              <LatitudeDegrees>40.77470448799431324005126953125</LatitudeDegrees>
              <LongitudeDegrees>-4.07029752619564533233642578125</LongitudeDegrees>
            </Position>
            <AltitudeMeters>1468.800048828125</AltitudeMeters>
            <DistanceMeters>NAN</DistanceMeters>
          </Trackpoint>
          <Trackpoint>
            <Time>2018-12-30T10:23:57.000Z</Time>
            <Position>
              <LatitudeDegrees>40.7747067511081695556640625</LatitudeDegrees>
              <LongitudeDegrees>-4.07029165886342525482177734375</LongitudeDegrees>
            </Position>
            <AltitudeMeters>1468.800048828125</AltitudeMeters>
            <DistanceMeters>NAN</DistanceMeters>
          </Trackpoint>
          <Trackpoint>
            <Time>2018-12-30T10:23:58.000Z</Time>
            <Position>
              <LatitudeDegrees>40.77471270225942134857177734375</LatitudeDegrees>
              <LongitudeDegrees>-4.0702905692160129547119140625</LongitudeDegrees>
            </Position>
            <AltitudeMeters>1468.800048828125</AltitudeMeters>
            <DistanceMeters>NAN</DistanceMeters>
          </Trackpoint>
          <Trackpoint>
            <Time>2018-12-30T10:23:59.000Z</Time>
            <Position>
              <LatitudeDegrees>40.77472242526710033416748046875</LatitudeDegrees>
              <LongitudeDegrees>-4.070292748510837554931640625</LongitudeDegrees>
            </Position>
            <AltitudeMeters>1468.800048828125</AltitudeMeters>
            <DistanceMeters>NAN</DistanceMeters>
          </Trackpoint>
          <Trackpoint>
            <Time>2018-12-30T10:24:00.000Z</Time>
            <Position>
              <LatitudeDegrees>40.7747317291796207427978515625</LatitudeDegrees>
              <LongitudeDegrees>-4.0702905692160129547119140625</LongitudeDegrees>
            </Position>
            <AltitudeMeters>1468.800048828125</AltitudeMeters>
            <DistanceMeters>NAN</DistanceMeters>
          </Trackpoint>
          <Trackpoint>
            <Time>2018-12-30T10:24:01.000Z</Time>
            <Position>
              <LatitudeDegrees>40.7747375965118408203125</LatitudeDegrees>
              <LongitudeDegrees>-4.07028973102569580078125</LongitudeDegrees>
            </Position>
            <AltitudeMeters>1468.800048828125</AltitudeMeters>
            <DistanceMeters>NAN</DistanceMeters>
          </Trackpoint>
          <Trackpoint>
            <Time>2018-12-30T10:24:02.000Z</Time>
            <Position>
              <LatitudeDegrees>40.77474505640566349029541015625</LatitudeDegrees>
              <LongitudeDegrees>-4.0702875517308712005615234375</LongitudeDegrees>
            </Position>
            <AltitudeMeters>1468.800048828125</AltitudeMeters>
            <DistanceMeters>NAN</DistanceMeters>
          </Trackpoint>
          <Trackpoint>
            <Time>2018-12-30T10:24:03.000Z</Time>
            <Position>
              <LatitudeDegrees>40.774752013385295867919921875</LatitudeDegrees>
              <LongitudeDegrees>-4.0702868811786174774169921875</LongitudeDegrees>
            </Position>
            <AltitudeMeters>1468.800048828125</AltitudeMeters>
            <DistanceMeters>NAN</DistanceMeters>
          </Trackpoint>
          <Trackpoint>
            <Time>2018-12-30T10:24:04.000Z</Time>
            <Position>
              <LatitudeDegrees>40.77476114965975284576416015625</LatitudeDegrees>
              <LongitudeDegrees>-4.07027824781835079193115234375</LongitudeDegrees>
            </Position>
            <AltitudeMeters>1468.800048828125</AltitudeMeters>
            <DistanceMeters>NAN</DistanceMeters>
          </Trackpoint>
          <Trackpoint>
            <Time>2018-12-30T10:24:05.000Z</Time>
            <Position>
              <LatitudeDegrees>40.77477422542870044708251953125</LatitudeDegrees>
              <LongitudeDegrees>-4.07027523033320903778076171875</LongitudeDegrees>
            </Position>
            <AltitudeMeters>1469</AltitudeMeters>
            <DistanceMeters>NAN</DistanceMeters>
          </Trackpoint>
          <Trackpoint>
            <Time>2018-12-30T10:24:06.000Z</Time>
            <Position>
              <LatitudeDegrees>40.77478922903537750244140625</LatitudeDegrees>
              <LongitudeDegrees>-4.07027430832386016845703125</LongitudeDegrees>
            </Position>
            <AltitudeMeters>1469</AltitudeMeters>
            <DistanceMeters>NAN</DistanceMeters>
          </Trackpoint>
          <Trackpoint>
            <Time>2018-12-30T10:24:07.000Z</Time>
            <Position>
              <LatitudeDegrees>40.77479870058596134185791015625</LatitudeDegrees>
              <LongitudeDegrees>-4.07026969827711582183837890625</LongitudeDegrees>
            </Position>
            <AltitudeMeters>1469.199951171875</AltitudeMeters>
            <DistanceMeters>NAN</DistanceMeters>
          </Trackpoint>
          <Trackpoint>
            <Time>2018-12-30T10:24:08.000Z</Time>
            <Position>
              <LatitudeDegrees>40.7748081721365451812744140625</LatitudeDegrees>
              <LongitudeDegrees>-4.070265591144561767578125</LongitudeDegrees>
            </Position>
            <AltitudeMeters>1469.199951171875</AltitudeMeters>
            <DistanceMeters>NAN</DistanceMeters>
          </Trackpoint>
          <Trackpoint>
            <Time>2018-12-30T10:24:09.000Z</Time>
            <Position>
              <LatitudeDegrees>40.77481563203036785125732421875</LatitudeDegrees>
              <LongitudeDegrees>-4.0702562034130096435546875</LongitudeDegrees>
            </Position>
            <AltitudeMeters>1469.199951171875</AltitudeMeters>
            <DistanceMeters>NAN</DistanceMeters>
          </Trackpoint>
          <Trackpoint>
            <Time>2018-12-30T10:24:10.000Z</Time>
            <Position>
              <LatitudeDegrees>40.7748252712190151214599609375</LatitudeDegrees>
              <LongitudeDegrees>-4.07025829888880252838134765625</LongitudeDegrees>
            </Position>
            <AltitudeMeters>1469.199951171875</AltitudeMeters>
            <DistanceMeters>NAN</DistanceMeters>
          </Trackpoint>
          <Trackpoint>
            <Time>2018-12-30T10:24:11.000Z</Time>
            <Position>
              <LatitudeDegrees>40.7748313061892986297607421875</LatitudeDegrees>
              <LongitudeDegrees>-4.070254862308502197265625</LongitudeDegrees>
            </Position>
            <AltitudeMeters>1469.199951171875</AltitudeMeters>
            <DistanceMeters>NAN</DistanceMeters>
          </Trackpoint>
          <Trackpoint>
            <Time>2018-12-30T10:24:12.000Z</Time>
            <Position>
              <LatitudeDegrees>40.77484195120632648468017578125</LatitudeDegrees>
              <LongitudeDegrees>-4.07025494612753391265869140625</LongitudeDegrees>
            </Position>
            <AltitudeMeters>1469</AltitudeMeters>
            <DistanceMeters>NAN</DistanceMeters>
          </Trackpoint>
          <Trackpoint>
            <Time>2018-12-30T10:24:13.000Z</Time>
            <Position>
              <LatitudeDegrees>40.77485762536525726318359375</LatitudeDegrees>
              <LongitudeDegrees>-4.0702583827078342437744140625</LongitudeDegrees>
            </Position>
            <AltitudeMeters>1468.800048828125</AltitudeMeters>
            <DistanceMeters>NAN</DistanceMeters>
          </Trackpoint>
          <Trackpoint>
            <Time>2018-12-30T10:24:14.000Z</Time>
            <Position>
              <LatitudeDegrees>40.7748725451529026031494140625</LatitudeDegrees>
              <LongitudeDegrees>-4.0702588856220245361328125</LongitudeDegrees>
            </Position>
            <AltitudeMeters>1468.5999755859375</AltitudeMeters>
            <DistanceMeters>NAN</DistanceMeters>
          </Trackpoint>
          <Trackpoint>
            <Time>2018-12-30T10:24:15.000Z</Time>
            <Position>
              <LatitudeDegrees>40.774882771074771881103515625</LatitudeDegrees>
              <LongitudeDegrees>-4.0702508389949798583984375</LongitudeDegrees>
            </Position>
            <AltitudeMeters>1468.4000244140625</AltitudeMeters>
            <DistanceMeters>NAN</DistanceMeters>
          </Trackpoint>
          <Trackpoint>
            <Time>2018-12-30T10:24:16.000Z</Time>
            <Position>
              <LatitudeDegrees>40.77489408664405345916748046875</LatitudeDegrees>
              <LongitudeDegrees>-4.070241115987300872802734375</LongitudeDegrees>
            </Position>
            <AltitudeMeters>1468.4000244140625</AltitudeMeters>
            <DistanceMeters>NAN</DistanceMeters>
          </Trackpoint>
          <Trackpoint>
            <Time>2018-12-30T10:24:17.000Z</Time>
            <Position>
              <LatitudeDegrees>40.7749040611088275909423828125</LatitudeDegrees>
              <LongitudeDegrees>-4.07023147679865360260009765625</LongitudeDegrees>
            </Position>
            <AltitudeMeters>1468.199951171875</AltitudeMeters>
            <DistanceMeters>NAN</DistanceMeters>
          </Trackpoint>
          <Trackpoint>
            <Time>2018-12-30T10:24:18.000Z</Time>
            <Position>
              <LatitudeDegrees>40.77491034753620624542236328125</LatitudeDegrees>
              <LongitudeDegrees>-4.07021923922002315521240234375</LongitudeDegrees>
            </Position>
            <AltitudeMeters>1468.199951171875</AltitudeMeters>
            <DistanceMeters>NAN</DistanceMeters>
          </Trackpoint>
          <Trackpoint>
            <Time>2018-12-30T10:24:19.000Z</Time>
            <Position>
              <LatitudeDegrees>40.774916298687458038330078125</LatitudeDegrees>
              <LongitudeDegrees>-4.0702090971171855926513671875</LongitudeDegrees>
            </Position>
            <AltitudeMeters>1468.199951171875</AltitudeMeters>
            <DistanceMeters>NAN</DistanceMeters>
          </Trackpoint>
          <Trackpoint>
            <Time>2018-12-30T10:24:20.000Z</Time>
            <Position>
              <LatitudeDegrees>40.77492333948612213134765625</LatitudeDegrees>
              <LongitudeDegrees>-4.07019308768212795257568359375</LongitudeDegrees>
            </Position>
            <AltitudeMeters>1468.199951171875</AltitudeMeters>
            <DistanceMeters>NAN</DistanceMeters>
          </Trackpoint>
          <Trackpoint>
            <Time>2018-12-30T10:24:21.000Z</Time>
            <Position>
              <LatitudeDegrees>40.77493264339864253997802734375</LatitudeDegrees>
              <LongitudeDegrees>-4.07018269412219524383544921875</LongitudeDegrees>
            </Position>
            <AltitudeMeters>1468.199951171875</AltitudeMeters>
            <DistanceMeters>NAN</DistanceMeters>
          </Trackpoint>
          <Trackpoint>
            <Time>2018-12-30T10:24:22.000Z</Time>
            <Position>
              <LatitudeDegrees>40.774939768016338348388671875</LatitudeDegrees>
              <LongitudeDegrees>-4.07017506659030914306640625</LongitudeDegrees>
            </Position>
            <AltitudeMeters>1468.199951171875</AltitudeMeters>
            <DistanceMeters>NAN</DistanceMeters>
          </Trackpoint>
          <Trackpoint>
            <Time>2018-12-30T10:24:23.000Z</Time>
            <Position>
              <LatitudeDegrees>40.77494588680565357208251953125</LatitudeDegrees>
              <LongitudeDegrees>-4.07016660086810588836669921875</LongitudeDegrees>
            </Position>
            <AltitudeMeters>1468.4000244140625</AltitudeMeters>
            <DistanceMeters>NAN</DistanceMeters>
          </Trackpoint>
          <Trackpoint>
            <Time>2018-12-30T10:24:24.000Z</Time>
            <Position>
              <LatitudeDegrees>40.7749513350427150726318359375</LatitudeDegrees>
              <LongitudeDegrees>-4.070158302783966064453125</LongitudeDegrees>
            </Position>
            <AltitudeMeters>1468.5999755859375</AltitudeMeters>
            <DistanceMeters>NAN</DistanceMeters>
          </Trackpoint>
          <Trackpoint>
            <Time>2018-12-30T10:24:25.000Z</Time>
            <Position>
              <LatitudeDegrees>40.774957872927188873291015625</LatitudeDegrees>
              <LongitudeDegrees>-4.07015000469982624053955078125</LongitudeDegrees>
            </Position>
            <AltitudeMeters>1468.5999755859375</AltitudeMeters>
            <DistanceMeters>NAN</DistanceMeters>
          </Trackpoint>
          <Trackpoint>
            <Time>2018-12-30T10:24:26.000Z</Time>
            <Position>
              <LatitudeDegrees>40.77496533282101154327392578125</LatitudeDegrees>
              <LongitudeDegrees>-4.0701450593769550323486328125</LongitudeDegrees>
            </Position>
            <AltitudeMeters>1468.800048828125</AltitudeMeters>
            <DistanceMeters>NAN</DistanceMeters>
          </Trackpoint>
          <Trackpoint>
            <Time>2018-12-30T10:24:27.000Z</Time>
            <Position>
              <LatitudeDegrees>40.77497002668678760528564453125</LatitudeDegrees>
              <LongitudeDegrees>-4.07013751566410064697265625</LongitudeDegrees>
            </Position>
            <AltitudeMeters>1468.800048828125</AltitudeMeters>
            <DistanceMeters>NAN</DistanceMeters>
          </Trackpoint>
          <Trackpoint>
            <Time>2018-12-30T10:24:28.000Z</Time>
            <Position>
              <LatitudeDegrees>40.77497790567576885223388671875</LatitudeDegrees>
              <LongitudeDegrees>-4.070135168731212615966796875</LongitudeDegrees>
            </Position>
            <AltitudeMeters>1468.800048828125</AltitudeMeters>
            <DistanceMeters>NAN</DistanceMeters>
          </Trackpoint>
          <Trackpoint>
            <Time>2018-12-30T10:24:29.000Z</Time>
            <Position>
              <LatitudeDegrees>40.77498528175055980682373046875</LatitudeDegrees>
              <LongitudeDegrees>-4.0701346658170223236083984375</LongitudeDegrees>
            </Position>
            <AltitudeMeters>1468.800048828125</AltitudeMeters>
            <DistanceMeters>NAN</DistanceMeters>
          </Trackpoint>
          <Trackpoint>
            <Time>2018-12-30T10:24:30.000Z</Time>
            <Position>
              <LatitudeDegrees>40.7749915681779384613037109375</LatitudeDegrees>
              <LongitudeDegrees>-4.07012837938964366912841796875</LongitudeDegrees>
            </Position>
            <AltitudeMeters>1468.800048828125</AltitudeMeters>
            <DistanceMeters>NAN</DistanceMeters>
          </Trackpoint>
          <Trackpoint>
            <Time>2018-12-30T10:24:31.000Z</Time>
            <Position>
              <LatitudeDegrees>40.77499869279563426971435546875</LatitudeDegrees>
              <LongitudeDegrees>-4.07012142241001129150390625</LongitudeDegrees>
            </Position>
            <AltitudeMeters>1469</AltitudeMeters>
            <DistanceMeters>NAN</DistanceMeters>
          </Trackpoint>
          <Trackpoint>
            <Time>2018-12-30T10:24:32.000Z</Time>
            <Position>
              <LatitudeDegrees>40.77500271610915660858154296875</LatitudeDegrees>
              <LongitudeDegrees>-4.07011664472520351409912109375</LongitudeDegrees>
            </Position>
            <AltitudeMeters>1469</AltitudeMeters>
            <DistanceMeters>NAN</DistanceMeters>
          </Trackpoint>
          <Trackpoint>
            <Time>2018-12-30T10:24:33.000Z</Time>
            <Position>
              <LatitudeDegrees>40.775007493793964385986328125</LatitudeDegrees>
              <LongitudeDegrees>-4.07011161558330059051513671875</LongitudeDegrees>
            </Position>
            <AltitudeMeters>1469.199951171875</AltitudeMeters>
            <DistanceMeters>NAN</DistanceMeters>
          </Trackpoint>
          <Trackpoint>
            <Time>2018-12-30T10:24:34.000Z</Time>
            <Position>
              <LatitudeDegrees>40.77501185238361358642578125</LatitudeDegrees>
              <LongitudeDegrees>-4.07010658644139766693115234375</LongitudeDegrees>
            </Position>
            <AltitudeMeters>1469.199951171875</AltitudeMeters>
            <DistanceMeters>NAN</DistanceMeters>
          </Trackpoint>
          <Trackpoint>
            <Time>2018-12-30T10:24:35.000Z</Time>
            <Position>
              <LatitudeDegrees>40.77501864172518253326416015625</LatitudeDegrees>
              <LongitudeDegrees>-4.0700979530811309814453125</LongitudeDegrees>
            </Position>
            <AltitudeMeters>1469.4000244140625</AltitudeMeters>
            <DistanceMeters>NAN</DistanceMeters>
          </Trackpoint>
          <Trackpoint>
            <Time>2018-12-30T10:24:36.000Z</Time>
            <Position>
              <LatitudeDegrees>40.77502585016191005706787109375</LatitudeDegrees>
              <LongitudeDegrees>-4.07008714042603969573974609375</LongitudeDegrees>
            </Position>
            <AltitudeMeters>1469.5999755859375</AltitudeMeters>
            <DistanceMeters>NAN</DistanceMeters>
          </Trackpoint>
          <Trackpoint>
            <Time>2018-12-30T10:24:37.000Z</Time>
            <Position>
              <LatitudeDegrees>40.7750301249325275421142578125</LatitudeDegrees>
              <LongitudeDegrees>-4.0700793452560901641845703125</LongitudeDegrees>
            </Position>
            <AltitudeMeters>1469.800048828125</AltitudeMeters>
            <DistanceMeters>NAN</DistanceMeters>
          </Trackpoint>
          <Trackpoint>
            <Time>2018-12-30T10:24:38.000Z</Time>
            <Position>
              <LatitudeDegrees>40.77503657899796962738037109375</LatitudeDegrees>
              <LongitudeDegrees>-4.07007372938096523284912109375</LongitudeDegrees>
            </Position>
            <AltitudeMeters>1469.800048828125</AltitudeMeters>
            <DistanceMeters>NAN</DistanceMeters>
          </Trackpoint>
          <Trackpoint>
            <Time>2018-12-30T10:24:39.000Z</Time>
            <Position>
              <LatitudeDegrees>40.7750475592911243438720703125</LatitudeDegrees>
              <LongitudeDegrees>-4.07006300054490566253662109375</LongitudeDegrees>
            </Position>
            <AltitudeMeters>1470</AltitudeMeters>
            <DistanceMeters>NAN</DistanceMeters>
          </Trackpoint>
          <Trackpoint>
            <Time>2018-12-30T10:24:40.000Z</Time>
            <Position>
              <LatitudeDegrees>40.77505568973720073699951171875</LatitudeDegrees>
              <LongitudeDegrees>-4.0700558759272098541259765625</LongitudeDegrees>
            </Position>
            <AltitudeMeters>1470</AltitudeMeters>
            <DistanceMeters>NAN</DistanceMeters>
          </Trackpoint>
          <Trackpoint>
            <Time>2018-12-30T10:24:41.000Z</Time>
            <Position>
              <LatitudeDegrees>40.775062143802642822265625</LatitudeDegrees>
              <LongitudeDegrees>-4.070047996938228607177734375</LongitudeDegrees>
            </Position>
            <AltitudeMeters>1470</AltitudeMeters>
            <DistanceMeters>NAN</DistanceMeters>
          </Trackpoint>
          <Trackpoint>
            <Time>2018-12-30T10:24:42.000Z</Time>
            <Position>
              <LatitudeDegrees>40.77507429756224155426025390625</LatitudeDegrees>
              <LongitudeDegrees>-4.07004422508180141448974609375</LongitudeDegrees>
            </Position>
            <AltitudeMeters>1470</AltitudeMeters>
            <DistanceMeters>NAN</DistanceMeters>
          </Trackpoint>
          <Trackpoint>
            <Time>2018-12-30T10:24:43.000Z</Time>
            <Position>
              <LatitudeDegrees>40.775087289512157440185546875</LatitudeDegrees>
              <LongitudeDegrees>-4.0700354240834712982177734375</LongitudeDegrees>
            </Position>
            <AltitudeMeters>1470.199951171875</AltitudeMeters>
            <DistanceMeters>NAN</DistanceMeters>
          </Trackpoint>
          <Trackpoint>
            <Time>2018-12-30T10:24:44.000Z</Time>
            <Position>
              <LatitudeDegrees>40.775095336139202117919921875</LatitudeDegrees>
              <LongitudeDegrees>-4.07002159394323825836181640625</LongitudeDegrees>
            </Position>
            <AltitudeMeters>1470</AltitudeMeters>
            <DistanceMeters>NAN</DistanceMeters>
          </Trackpoint>
          <Trackpoint>
            <Time>2018-12-30T10:24:45.000Z</Time>
            <Position>
              <LatitudeDegrees>40.77510296367108821868896484375</LatitudeDegrees>
              <LongitudeDegrees>-4.07000935636460781097412109375</LongitudeDegrees>
            </Position>
            <AltitudeMeters>1470</AltitudeMeters>
            <DistanceMeters>NAN</DistanceMeters>
          </Trackpoint>
          <Trackpoint>
            <Time>2018-12-30T10:24:46.000Z</Time>
            <Position>
              <LatitudeDegrees>40.77510782517492771148681640625</LatitudeDegrees>
              <LongitudeDegrees>-4.06999938189983367919921875</LongitudeDegrees>
            </Position>
            <AltitudeMeters>1470</AltitudeMeters>
            <DistanceMeters>NAN</DistanceMeters>
          </Trackpoint>
          <Trackpoint>
            <Time>2018-12-30T10:24:47.000Z</Time>
            <Position>
              <LatitudeDegrees>40.7751162908971309661865234375</LatitudeDegrees>
              <LongitudeDegrees>-4.06999359838664531707763671875</LongitudeDegrees>
            </Position>
            <AltitudeMeters>1470</AltitudeMeters>
            <DistanceMeters>NAN</DistanceMeters>
          </Trackpoint>
          <Trackpoint>
            <Time>2018-12-30T10:24:48.000Z</Time>
            <Position>
              <LatitudeDegrees>40.77512023039162158966064453125</LatitudeDegrees>
              <LongitudeDegrees>-4.0699824504554271697998046875</LongitudeDegrees>
            </Position>
            <AltitudeMeters>1470</AltitudeMeters>
            <DistanceMeters>NAN</DistanceMeters>
          </Trackpoint>
          <Trackpoint>
            <Time>2018-12-30T10:24:49.000Z</Time>
            <Position>
              <LatitudeDegrees>40.77512207441031932830810546875</LatitudeDegrees>
              <LongitudeDegrees>-4.069970548152923583984375</LongitudeDegrees>
            </Position>
            <AltitudeMeters>1470</AltitudeMeters>
            <DistanceMeters>NAN</DistanceMeters>
          </Trackpoint>
          <Trackpoint>
            <Time>2018-12-30T10:24:50.000Z</Time>
            <Position>
              <LatitudeDegrees>40.77512525953352451324462890625</LatitudeDegrees>
              <LongitudeDegrees>-4.069954119622707366943359375</LongitudeDegrees>
            </Position>
            <AltitudeMeters>1470.199951171875</AltitudeMeters>
            <DistanceMeters>NAN</DistanceMeters>
          </Trackpoint>
          <Trackpoint>
            <Time>2018-12-30T10:24:51.000Z</Time>
            <Position>
              <LatitudeDegrees>40.77513414435088634490966796875</LatitudeDegrees>
              <LongitudeDegrees>-4.0699397027492523193359375</LongitudeDegrees>
            </Position>
            <AltitudeMeters>1470.199951171875</AltitudeMeters>
            <DistanceMeters>NAN</DistanceMeters>
          </Trackpoint>
          <Trackpoint>
            <Time>2018-12-30T10:24:52.000Z</Time>
            <Position>
              <LatitudeDegrees>40.77513665892183780670166015625</LatitudeDegrees>
              <LongitudeDegrees>-4.06992696225643157958984375</LongitudeDegrees>
            </Position>
            <AltitudeMeters>1470.4000244140625</AltitudeMeters>
            <DistanceMeters>NAN</DistanceMeters>
          </Trackpoint>
          <Trackpoint>
            <Time>2018-12-30T10:24:53.000Z</Time>
            <Position>
              <LatitudeDegrees>40.77514722011983394622802734375</LatitudeDegrees>
              <LongitudeDegrees>-4.06989452429115772247314453125</LongitudeDegrees>
            </Position>
            <AltitudeMeters>1470.5999755859375</AltitudeMeters>
            <DistanceMeters>NAN</DistanceMeters>
          </Trackpoint>
          <Trackpoint>
            <Time>2018-12-30T10:24:54.000Z</Time>
            <Position>
              <LatitudeDegrees>40.77515761367976665496826171875</LatitudeDegrees>
              <LongitudeDegrees>-4.06988061033189296722412109375</LongitudeDegrees>
            </Position>
            <AltitudeMeters>1470.5999755859375</AltitudeMeters>
            <DistanceMeters>NAN</DistanceMeters>
          </Trackpoint>
          <Trackpoint>
            <Time>2018-12-30T10:24:55.000Z</Time>
            <Position>
              <LatitudeDegrees>40.775169767439365386962890625</LatitudeDegrees>
              <LongitudeDegrees>-4.0698795206844806671142578125</LongitudeDegrees>
            </Position>
            <AltitudeMeters>1470.800048828125</AltitudeMeters>
            <DistanceMeters>NAN</DistanceMeters>
          </Trackpoint>
          <Trackpoint>
            <Time>2018-12-30T10:24:56.000Z</Time>
            <Position>
              <LatitudeDegrees>40.775183849036693572998046875</LatitudeDegrees>
              <LongitudeDegrees>-4.06987759284675121307373046875</LongitudeDegrees>
            </Position>
            <AltitudeMeters>1471.199951171875</AltitudeMeters>
            <DistanceMeters>NAN</DistanceMeters>
          </Trackpoint>
          <Trackpoint>
            <Time>2018-12-30T10:24:57.000Z</Time>
            <Position>
              <LatitudeDegrees>40.77519424259662628173828125</LatitudeDegrees>
              <LongitudeDegrees>-4.0698667801916599273681640625</LongitudeDegrees>
            </Position>
            <AltitudeMeters>1471.199951171875</AltitudeMeters>
            <DistanceMeters>NAN</DistanceMeters>
          </Trackpoint>
          <Trackpoint>
            <Time>2018-12-30T10:24:58.000Z</Time>
            <Position>
              <LatitudeDegrees>40.775204636156558990478515625</LatitudeDegrees>
              <LongitudeDegrees>-4.069863259792327880859375</LongitudeDegrees>
            </Position>
            <AltitudeMeters>1471.4000244140625</AltitudeMeters>
            <DistanceMeters>NAN</DistanceMeters>
          </Trackpoint>
          <Trackpoint>
            <Time>2018-12-30T10:24:59.000Z</Time>
            <Position>
              <LatitudeDegrees>40.7752148620784282684326171875</LatitudeDegrees>
              <LongitudeDegrees>-4.06986049376428127288818359375</LongitudeDegrees>
            </Position>
            <AltitudeMeters>1471.4000244140625</AltitudeMeters>
            <DistanceMeters>NAN</DistanceMeters>
          </Trackpoint>
          <Trackpoint>
            <Time>2018-12-30T10:25:00.000Z</Time>
            <Position>
              <LatitudeDegrees>40.77522642910480499267578125</LatitudeDegrees>
              <LongitudeDegrees>-4.06985512934625148773193359375</LongitudeDegrees>
            </Position>
            <AltitudeMeters>1471.5999755859375</AltitudeMeters>
            <DistanceMeters>NAN</DistanceMeters>
          </Trackpoint>
          <Trackpoint>
            <Time>2018-12-30T10:25:01.000Z</Time>
            <Position>
              <LatitudeDegrees>40.77523849904537200927734375</LatitudeDegrees>
              <LongitudeDegrees>-4.06984272412955760955810546875</LongitudeDegrees>
            </Position>
            <AltitudeMeters>1471.800048828125</AltitudeMeters>
            <DistanceMeters>NAN</DistanceMeters>
          </Trackpoint>
          <Trackpoint>
            <Time>2018-12-30T10:25:02.000Z</Time>
            <Position>
              <LatitudeDegrees>40.77524512074887752532958984375</LatitudeDegrees>
              <LongitudeDegrees>-4.0698309056460857391357421875</LongitudeDegrees>
            </Position>
            <AltitudeMeters>1471.800048828125</AltitudeMeters>
            <DistanceMeters>NAN</DistanceMeters>
          </Trackpoint>
          <Trackpoint>
            <Time>2018-12-30T10:25:03.000Z</Time>
            <Position>
              <LatitudeDegrees>40.77525031752884387969970703125</LatitudeDegrees>
              <LongitudeDegrees>-4.06982503831386566162109375</LongitudeDegrees>
            </Position>
            <AltitudeMeters>1472</AltitudeMeters>
            <DistanceMeters>NAN</DistanceMeters>
          </Trackpoint>
          <Trackpoint>
            <Time>2018-12-30T10:25:04.000Z</Time>
            <Position>
              <LatitudeDegrees>40.77524797059595584869384765625</LatitudeDegrees>
              <LongitudeDegrees>-4.06981204636394977569580078125</LongitudeDegrees>
            </Position>
            <AltitudeMeters>1472</AltitudeMeters>
            <DistanceMeters>NAN</DistanceMeters>
          </Trackpoint>
          <Trackpoint>
            <Time>2018-12-30T10:25:05.000Z</Time>
            <Position>
              <LatitudeDegrees>40.77525685541331768035888671875</LatitudeDegrees>
              <LongitudeDegrees>-4.06979595310986042022705078125</LongitudeDegrees>
            </Position>
            <AltitudeMeters>1472</AltitudeMeters>
            <DistanceMeters>NAN</DistanceMeters>
          </Trackpoint>
          <Trackpoint>
            <Time>2018-12-30T10:25:06.000Z</Time>
            <Position>
              <LatitudeDegrees>40.7752700150012969970703125</LatitudeDegrees>
              <LongitudeDegrees>-4.0697786025702953338623046875</LongitudeDegrees>
            </Position>
            <AltitudeMeters>1472</AltitudeMeters>
            <DistanceMeters>NAN</DistanceMeters>
          </Trackpoint>
          <Trackpoint>
            <Time>2018-12-30T10:25:07.000Z</Time>
            <Position>
              <LatitudeDegrees>40.77527948655188083648681640625</LatitudeDegrees>
              <LongitudeDegrees>-4.06976762227714061737060546875</LongitudeDegrees>
            </Position>
            <AltitudeMeters>1471.800048828125</AltitudeMeters>
            <DistanceMeters>NAN</DistanceMeters>
          </Trackpoint>
          <Trackpoint>
            <Time>2018-12-30T10:25:08.000Z</Time>
            <Position>
              <LatitudeDegrees>40.77528971247375011444091796875</LatitudeDegrees>
              <LongitudeDegrees>-4.06976192258298397064208984375</LongitudeDegrees>
            </Position>
            <AltitudeMeters>1471.5999755859375</AltitudeMeters>
            <DistanceMeters>NAN</DistanceMeters>
          </Trackpoint>
          <Trackpoint>
            <Time>2018-12-30T10:25:09.000Z</Time>
            <Position>
              <LatitudeDegrees>40.77529557980597019195556640625</LatitudeDegrees>
              <LongitudeDegrees>-4.0697507746517658233642578125</LongitudeDegrees>
            </Position>
            <AltitudeMeters>1471.5999755859375</AltitudeMeters>
            <DistanceMeters>NAN</DistanceMeters>
          </Trackpoint>
          <Trackpoint>
            <Time>2018-12-30T10:25:10.000Z</Time>
            <Position>
              <LatitudeDegrees>40.77529960311949253082275390625</LatitudeDegrees>
              <LongitudeDegrees>-4.069734513759613037109375</LongitudeDegrees>
            </Position>
            <AltitudeMeters>1471.5999755859375</AltitudeMeters>
            <DistanceMeters>NAN</DistanceMeters>
          </Trackpoint>
          <Trackpoint>
            <Time>2018-12-30T10:25:11.000Z</Time>
            <Position>
              <LatitudeDegrees>40.77530295588076114654541015625</LatitudeDegrees>
              <LongitudeDegrees>-4.06971682794392108917236328125</LongitudeDegrees>
            </Position>
            <AltitudeMeters>1471.800048828125</AltitudeMeters>
            <DistanceMeters>NAN</DistanceMeters>
          </Trackpoint>
          <Trackpoint>
            <Time>2018-12-30T10:25:12.000Z</Time>
            <Position>
              <LatitudeDegrees>40.77530094422399997711181640625</LatitudeDegrees>
              <LongitudeDegrees>-4.06969989649951457977294921875</LongitudeDegrees>
            </Position>
            <AltitudeMeters>1472</AltitudeMeters>
            <DistanceMeters>NAN</DistanceMeters>
          </Trackpoint>
          <Trackpoint>
            <Time>2018-12-30T10:25:13.000Z</Time>
            <Position>
              <LatitudeDegrees>40.7752995193004608154296875</LatitudeDegrees>
              <LongitudeDegrees>-4.06969168223440647125244140625</LongitudeDegrees>
            </Position>
            <AltitudeMeters>1472.199951171875</AltitudeMeters>
            <DistanceMeters>NAN</DistanceMeters>
          </Trackpoint>
          <Trackpoint>
            <Time>2018-12-30T10:25:14.000Z</Time>
            <Position>
              <LatitudeDegrees>40.7752963341772556304931640625</LatitudeDegrees>
              <LongitudeDegrees>-4.0696840547025203704833984375</LongitudeDegrees>
            </Position>
            <AltitudeMeters>1472.800048828125</AltitudeMeters>
            <DistanceMeters>NAN</DistanceMeters>
          </Trackpoint>
          <Trackpoint>
            <Time>2018-12-30T10:25:15.000Z</Time>
            <Position>
              <LatitudeDegrees>40.77529323287308216094970703125</LatitudeDegrees>
              <LongitudeDegrees>-4.0696733258664608001708984375</LongitudeDegrees>
            </Position>
            <AltitudeMeters>1473.199951171875</AltitudeMeters>
            <DistanceMeters>NAN</DistanceMeters>
          </Trackpoint>
          <Trackpoint>
            <Time>2018-12-30T10:25:16.000Z</Time>
            <Position>
              <LatitudeDegrees>40.775289796292781829833984375</LatitudeDegrees>
              <LongitudeDegrees>-4.069669805467128753662109375</LongitudeDegrees>
            </Position>
            <AltitudeMeters>1473.4000244140625</AltitudeMeters>
            <DistanceMeters>NAN</DistanceMeters>
          </Trackpoint>
          <Trackpoint>
            <Time>2018-12-30T10:25:17.000Z</Time>
            <Position>
              <LatitudeDegrees>40.7752896286547183990478515625</LatitudeDegrees>
              <LongitudeDegrees>-4.06966435723006725311279296875</LongitudeDegrees>
            </Position>
            <AltitudeMeters>1473.5999755859375</AltitudeMeters>
            <DistanceMeters>NAN</DistanceMeters>
          </Trackpoint>
          <Trackpoint>
            <Time>2018-12-30T10:25:18.000Z</Time>
            <Position>
              <LatitudeDegrees>40.77528602443635463714599609375</LatitudeDegrees>
              <LongitudeDegrees>-4.06965781934559345245361328125</LongitudeDegrees>
            </Position>
            <AltitudeMeters>1473.5999755859375</AltitudeMeters>
            <DistanceMeters>NAN</DistanceMeters>
          </Trackpoint>
          <Trackpoint>
            <Time>2018-12-30T10:25:19.000Z</Time>
            <Position>
              <LatitudeDegrees>40.775285772979259490966796875</LatitudeDegrees>
              <LongitudeDegrees>-4.06965647824108600616455078125</LongitudeDegrees>
            </Position>
            <AltitudeMeters>1473.4000244140625</AltitudeMeters>
            <DistanceMeters>NAN</DistanceMeters>
          </Trackpoint>
          <Trackpoint>
            <Time>2018-12-30T10:25:20.000Z</Time>
            <Position>
              <LatitudeDegrees>40.77528904192149639129638671875</LatitudeDegrees>
              <LongitudeDegrees>-4.06965714879333972930908203125</LongitudeDegrees>
            </Position>
            <AltitudeMeters>1473.4000244140625</AltitudeMeters>
            <DistanceMeters>NAN</DistanceMeters>
          </Trackpoint>
          <Trackpoint>
            <Time>2018-12-30T10:25:21.000Z</Time>
            <Position>
              <LatitudeDegrees>40.77529138885438442230224609375</LatitudeDegrees>
              <LongitudeDegrees>-4.06965631060302257537841796875</LongitudeDegrees>
            </Position>
            <AltitudeMeters>1473.199951171875</AltitudeMeters>
            <DistanceMeters>NAN</DistanceMeters>
          </Trackpoint>
          <Trackpoint>
            <Time>2018-12-30T10:25:22.000Z</Time>
            <Position>
              <LatitudeDegrees>40.7752973400056362152099609375</LatitudeDegrees>
              <LongitudeDegrees>-4.0696568973362445831298828125</LongitudeDegrees>
            </Position>
            <AltitudeMeters>1473.199951171875</AltitudeMeters>
            <DistanceMeters>NAN</DistanceMeters>
          </Trackpoint>
          <Trackpoint>
            <Time>2018-12-30T10:25:23.000Z</Time>
            <Position>
              <LatitudeDegrees>40.77530530281364917755126953125</LatitudeDegrees>
              <LongitudeDegrees>-4.06965178437530994415283203125</LongitudeDegrees>
            </Position>
            <AltitudeMeters>1473</AltitudeMeters>
            <DistanceMeters>NAN</DistanceMeters>
          </Trackpoint>
          <Trackpoint>
            <Time>2018-12-30T10:25:24.000Z</Time>
            <Position>
              <LatitudeDegrees>40.77531351707875728607177734375</LatitudeDegrees>
              <LongitudeDegrees>-4.0696511976420879364013671875</LongitudeDegrees>
            </Position>
            <AltitudeMeters>1473</AltitudeMeters>
            <DistanceMeters>NAN</DistanceMeters>
          </Trackpoint>
          <Trackpoint>
            <Time>2018-12-30T10:25:25.000Z</Time>
            <Position>
              <LatitudeDegrees>40.775323323905467987060546875</LatitudeDegrees>
              <LongitudeDegrees>-4.06964541412889957427978515625</LongitudeDegrees>
            </Position>
            <AltitudeMeters>1473</AltitudeMeters>
            <DistanceMeters>NAN</DistanceMeters>
          </Trackpoint>
          <Trackpoint>
            <Time>2018-12-30T10:25:26.000Z</Time>
            <Position>
              <LatitudeDegrees>40.77533246017992496490478515625</LatitudeDegrees>
              <LongitudeDegrees>-4.06963770277798175811767578125</LongitudeDegrees>
            </Position>
            <AltitudeMeters>1473</AltitudeMeters>
            <DistanceMeters>NAN</DistanceMeters>
          </Trackpoint>
          <Trackpoint>
            <Time>2018-12-30T10:25:27.000Z</Time>
            <Position>
              <LatitudeDegrees>40.77534100972115993499755859375</LatitudeDegrees>
              <LongitudeDegrees>-4.0696253813803195953369140625</LongitudeDegrees>
            </Position>
            <AltitudeMeters>1473</AltitudeMeters>
            <DistanceMeters>NAN</DistanceMeters>
          </Trackpoint>
          <Trackpoint>
            <Time>2018-12-30T10:25:28.000Z</Time>
            <Position>
              <LatitudeDegrees>40.77534536831080913543701171875</LatitudeDegrees>
              <LongitudeDegrees>-4.06961641274392604827880859375</LongitudeDegrees>
            </Position>
            <AltitudeMeters>1473</AltitudeMeters>
            <DistanceMeters>NAN</DistanceMeters>
          </Trackpoint>
          <Trackpoint>
            <Time>2018-12-30T10:25:29.000Z</Time>
            <Position>
              <LatitudeDegrees>40.77535458840429782867431640625</LatitudeDegrees>
              <LongitudeDegrees>-4.069605767726898193359375</LongitudeDegrees>
            </Position>
            <AltitudeMeters>1473</AltitudeMeters>
            <DistanceMeters>NAN</DistanceMeters>
          </Trackpoint>
          <Trackpoint>
            <Time>2018-12-30T10:25:30.000Z</Time>
            <Position>
              <LatitudeDegrees>40.77536095865070819854736328125</LatitudeDegrees>
              <LongitudeDegrees>-4.06959596090018749237060546875</LongitudeDegrees>
            </Position>
            <AltitudeMeters>1473.199951171875</AltitudeMeters>
            <DistanceMeters>NAN</DistanceMeters>
          </Trackpoint>
          <Trackpoint>
            <Time>2018-12-30T10:25:31.000Z</Time>
            <Position>
              <LatitudeDegrees>40.7753721065819263458251953125</LatitudeDegrees>
              <LongitudeDegrees>-4.06958573497831821441650390625</LongitudeDegrees>
            </Position>
            <AltitudeMeters>1473.199951171875</AltitudeMeters>
            <DistanceMeters>NAN</DistanceMeters>
          </Trackpoint>
          <Trackpoint>
            <Time>2018-12-30T10:25:32.000Z</Time>
            <Position>
              <LatitudeDegrees>40.775382332503795623779296875</LatitudeDegrees>
              <LongitudeDegrees>-4.069576263427734375</LongitudeDegrees>
            </Position>
            <AltitudeMeters>1473.199951171875</AltitudeMeters>
            <DistanceMeters>NAN</DistanceMeters>
          </Trackpoint>
          <Trackpoint>
            <Time>2018-12-30T10:25:33.000Z</Time>
            <Position>
              <LatitudeDegrees>40.7753969170153141021728515625</LatitudeDegrees>
              <LongitudeDegrees>-4.06957668252289295196533203125</LongitudeDegrees>
            </Position>
            <AltitudeMeters>1473.199951171875</AltitudeMeters>
            <DistanceMeters>NAN</DistanceMeters>
          </Trackpoint>
          <Trackpoint>
            <Time>2018-12-30T10:25:34.000Z</Time>
            <Position>
              <LatitudeDegrees>40.77540940605103969573974609375</LatitudeDegrees>
              <LongitudeDegrees>-4.0695740841329097747802734375</LongitudeDegrees>
            </Position>
            <AltitudeMeters>1473.199951171875</AltitudeMeters>
            <DistanceMeters>NAN</DistanceMeters>
          </Trackpoint>
          <Trackpoint>
            <Time>2018-12-30T10:25:35.000Z</Time>
            <Position>
              <LatitudeDegrees>40.77542080543935298919677734375</LatitudeDegrees>
              <LongitudeDegrees>-4.06956746242940425872802734375</LongitudeDegrees>
            </Position>
            <AltitudeMeters>1473.4000244140625</AltitudeMeters>
            <DistanceMeters>NAN</DistanceMeters>
          </Trackpoint>
          <Trackpoint>
            <Time>2018-12-30T10:25:36.000Z</Time>
            <Position>
              <LatitudeDegrees>40.775427259504795074462890625</LatitudeDegrees>
              <LongitudeDegrees>-4.0695616789162158966064453125</LongitudeDegrees>
            </Position>
            <AltitudeMeters>1473.800048828125</AltitudeMeters>
            <DistanceMeters>NAN</DistanceMeters>
          </Trackpoint>
          <Trackpoint>
            <Time>2018-12-30T10:25:37.000Z</Time>
            <Position>
              <LatitudeDegrees>40.77543572522699832916259765625</LatitudeDegrees>
              <LongitudeDegrees>-4.069550447165966033935546875</LongitudeDegrees>
            </Position>
            <AltitudeMeters>1473.800048828125</AltitudeMeters>
            <DistanceMeters>NAN</DistanceMeters>
          </Trackpoint>
          <Trackpoint>
            <Time>2018-12-30T10:25:38.000Z</Time>
            <Position>
              <LatitudeDegrees>40.77544125728309154510498046875</LatitudeDegrees>
              <LongitudeDegrees>-4.06953326426446437835693359375</LongitudeDegrees>
            </Position>
            <AltitudeMeters>1474</AltitudeMeters>
            <DistanceMeters>NAN</DistanceMeters>
          </Trackpoint>
          <Trackpoint>
            <Time>2018-12-30T10:25:39.000Z</Time>
            <Position>
              <LatitudeDegrees>40.77544662170112133026123046875</LatitudeDegrees>
              <LongitudeDegrees>-4.06951851211488246917724609375</LongitudeDegrees>
            </Position>
            <AltitudeMeters>1474.199951171875</AltitudeMeters>
            <DistanceMeters>NAN</DistanceMeters>
          </Trackpoint>
          <Trackpoint>
            <Time>2018-12-30T10:25:40.000Z</Time>
            <Position>
              <LatitudeDegrees>40.7754592783749103546142578125</LatitudeDegrees>
              <LongitudeDegrees>-4.0695087052881717681884765625</LongitudeDegrees>
            </Position>
            <AltitudeMeters>1474.4000244140625</AltitudeMeters>
            <DistanceMeters>NAN</DistanceMeters>
          </Trackpoint>
          <Trackpoint>
            <Time>2018-12-30T10:25:41.000Z</Time>
            <Position>
              <LatitudeDegrees>40.775474868714809417724609375</LatitudeDegrees>
              <LongitudeDegrees>-4.06949772499501705169677734375</LongitudeDegrees>
            </Position>
            <AltitudeMeters>1474.5999755859375</AltitudeMeters>
            <DistanceMeters>NAN</DistanceMeters>
          </Trackpoint>
          <Trackpoint>
            <Time>2018-12-30T10:25:42.000Z</Time>
            <Position>
              <LatitudeDegrees>40.7754887826740741729736328125</LatitudeDegrees>
              <LongitudeDegrees>-4.069488085806369781494140625</LongitudeDegrees>
            </Position>
            <AltitudeMeters>1474.5999755859375</AltitudeMeters>
            <DistanceMeters>NAN</DistanceMeters>
          </Trackpoint>
          <Trackpoint>
            <Time>2018-12-30T10:25:43.000Z</Time>
            <Position>
              <LatitudeDegrees>40.77550898306071758270263671875</LatitudeDegrees>
              <LongitudeDegrees>-4.06948112882673740386962890625</LongitudeDegrees>
            </Position>
            <AltitudeMeters>1474.800048828125</AltitudeMeters>
            <DistanceMeters>NAN</DistanceMeters>
          </Trackpoint>
          <Trackpoint>
            <Time>2018-12-30T10:25:44.000Z</Time>
            <Position>
              <LatitudeDegrees>40.77552658505737781524658203125</LatitudeDegrees>
              <LongitudeDegrees>-4.06947425566613674163818359375</LongitudeDegrees>
            </Position>
            <AltitudeMeters>1474.800048828125</AltitudeMeters>
            <DistanceMeters>NAN</DistanceMeters>
          </Trackpoint>
          <Trackpoint>
            <Time>2018-12-30T10:25:45.000Z</Time>
            <Position>
              <LatitudeDegrees>40.77554284594953060150146484375</LatitudeDegrees>
              <LongitudeDegrees>-4.0694758482277393341064453125</LongitudeDegrees>
            </Position>
            <AltitudeMeters>1475</AltitudeMeters>
            <DistanceMeters>NAN</DistanceMeters>
          </Trackpoint>
          <Trackpoint>
            <Time>2018-12-30T10:25:46.000Z</Time>
            <Position>
              <LatitudeDegrees>40.775557346642017364501953125</LatitudeDegrees>
              <LongitudeDegrees>-4.06947593204677104949951171875</LongitudeDegrees>
            </Position>
            <AltitudeMeters>1475</AltitudeMeters>
            <DistanceMeters>NAN</DistanceMeters>
          </Trackpoint>
          <Trackpoint>
            <Time>2018-12-30T10:25:47.000Z</Time>
            <Position>
              <LatitudeDegrees>40.77557117678225040435791015625</LatitudeDegrees>
              <LongitudeDegrees>-4.06947241164743900299072265625</LongitudeDegrees>
            </Position>
            <AltitudeMeters>1475</AltitudeMeters>
            <DistanceMeters>NAN</DistanceMeters>
          </Trackpoint>
          <Trackpoint>
            <Time>2018-12-30T10:25:48.000Z</Time>
            <Position>
              <LatitudeDegrees>40.77558257617056369781494140625</LatitudeDegrees>
              <LongitudeDegrees>-4.06947090290486812591552734375</LongitudeDegrees>
            </Position>
            <AltitudeMeters>1475.199951171875</AltitudeMeters>
            <DistanceMeters>NAN</DistanceMeters>
          </Trackpoint>
          <Trackpoint>
            <Time>2018-12-30T10:25:49.000Z</Time>
            <Position>
              <LatitudeDegrees>40.77559330500662326812744140625</LatitudeDegrees>
              <LongitudeDegrees>-4.069468975067138671875</LongitudeDegrees>
            </Position>
            <AltitudeMeters>1475.4000244140625</AltitudeMeters>
            <DistanceMeters>NAN</DistanceMeters>
          </Trackpoint>
          <Trackpoint>
            <Time>2018-12-30T10:25:50.000Z</Time>
            <Position>
              <LatitudeDegrees>40.77560001052916049957275390625</LatitudeDegrees>
              <LongitudeDegrees>-4.06945916824042797088623046875</LongitudeDegrees>
            </Position>
            <AltitudeMeters>1475.800048828125</AltitudeMeters>
            <DistanceMeters>NAN</DistanceMeters>
          </Trackpoint>
          <Trackpoint>
            <Time>2018-12-30T10:25:51.000Z</Time>
            <Position>
              <LatitudeDegrees>40.7756024412810802459716796875</LatitudeDegrees>
              <LongitudeDegrees>-4.0694453381001949310302734375</LongitudeDegrees>
            </Position>
            <AltitudeMeters>1476.199951171875</AltitudeMeters>
            <DistanceMeters>NAN</DistanceMeters>
          </Trackpoint>
          <Trackpoint>
            <Time>2018-12-30T10:25:52.000Z</Time>
            <Position>
              <LatitudeDegrees>40.77560788951814174652099609375</LatitudeDegrees>
              <LongitudeDegrees>-4.0694336034357547760009765625</LongitudeDegrees>
            </Position>
            <AltitudeMeters>1476.5999755859375</AltitudeMeters>
            <DistanceMeters>NAN</DistanceMeters>
          </Trackpoint>
          <Trackpoint>
            <Time>2018-12-30T10:25:53.000Z</Time>
            <Position>
              <LatitudeDegrees>40.77561526559293270111083984375</LatitudeDegrees>
              <LongitudeDegrees>-4.06942815519869327545166015625</LongitudeDegrees>
            </Position>
            <AltitudeMeters>1477.199951171875</AltitudeMeters>
            <DistanceMeters>NAN</DistanceMeters>
          </Trackpoint>
          <Trackpoint>
            <Time>2018-12-30T10:25:54.000Z</Time>
            <Position>
              <LatitudeDegrees>40.77561928890645503997802734375</LatitudeDegrees>
              <LongitudeDegrees>-4.06942128203809261322021484375</LongitudeDegrees>
            </Position>
            <AltitudeMeters>1477.4000244140625</AltitudeMeters>
            <DistanceMeters>NAN</DistanceMeters>
          </Trackpoint>
          <Trackpoint>
            <Time>2018-12-30T10:25:55.000Z</Time>
            <Position>
              <LatitudeDegrees>40.77562205493450164794921875</LatitudeDegrees>
              <LongitudeDegrees>-4.0694121457636356353759765625</LongitudeDegrees>
            </Position>
            <AltitudeMeters>1477.800048828125</AltitudeMeters>
            <DistanceMeters>NAN</DistanceMeters>
          </Trackpoint>
          <Trackpoint>
            <Time>2018-12-30T10:25:56.000Z</Time>
            <Position>
              <LatitudeDegrees>40.77562272548675537109375</LatitudeDegrees>
              <LongitudeDegrees>-4.06939982436597347259521484375</LongitudeDegrees>
            </Position>
            <AltitudeMeters>1478</AltitudeMeters>
            <DistanceMeters>NAN</DistanceMeters>
          </Trackpoint>
          <Trackpoint>
            <Time>2018-12-30T10:25:57.000Z</Time>
            <Position>
              <LatitudeDegrees>40.77562515623867511749267578125</LatitudeDegrees>
              <LongitudeDegrees>-4.0693796239793300628662109375</LongitudeDegrees>
            </Position>
            <AltitudeMeters>1478</AltitudeMeters>
            <DistanceMeters>NAN</DistanceMeters>
          </Trackpoint>
          <Trackpoint>
            <Time>2018-12-30T10:25:58.000Z</Time>
            <Position>
              <LatitudeDegrees>40.7756275869905948638916015625</LatitudeDegrees>
              <LongitudeDegrees>-4.0693665482103824615478515625</LongitudeDegrees>
            </Position>
            <AltitudeMeters>1478.199951171875</AltitudeMeters>
            <DistanceMeters>NAN</DistanceMeters>
          </Trackpoint>
          <Trackpoint>
            <Time>2018-12-30T10:25:59.000Z</Time>
            <Position>
              <LatitudeDegrees>40.77562783844769001007080078125</LatitudeDegrees>
              <LongitudeDegrees>-4.06935087405145168304443359375</LongitudeDegrees>
            </Position>
            <AltitudeMeters>1478.4000244140625</AltitudeMeters>
            <DistanceMeters>NAN</DistanceMeters>
          </Trackpoint>
          <Trackpoint>
            <Time>2018-12-30T10:26:00.000Z</Time>
            <Position>
              <LatitudeDegrees>40.7756282575428485870361328125</LatitudeDegrees>
              <LongitudeDegrees>-4.069337882101535797119140625</LongitudeDegrees>
            </Position>
            <AltitudeMeters>1478.800048828125</AltitudeMeters>
            <DistanceMeters>NAN</DistanceMeters>
          </Trackpoint>
          <Trackpoint>
            <Time>2018-12-30T10:26:01.000Z</Time>
            <Position>
              <LatitudeDegrees>40.7756269164383411407470703125</LatitudeDegrees>
              <LongitudeDegrees>-4.0693269856274127960205078125</LongitudeDegrees>
            </Position>
            <AltitudeMeters>1479.199951171875</AltitudeMeters>
            <DistanceMeters>NAN</DistanceMeters>
          </Trackpoint>
          <Trackpoint>
            <Time>2018-12-30T10:26:02.000Z</Time>
            <Position>
              <LatitudeDegrees>40.77563144266605377197265625</LatitudeDegrees>
              <LongitudeDegrees>-4.06932639889419078826904296875</LongitudeDegrees>
            </Position>
            <AltitudeMeters>1479.5999755859375</AltitudeMeters>
            <DistanceMeters>NAN</DistanceMeters>
          </Trackpoint>
          <Trackpoint>
            <Time>2018-12-30T10:26:03.000Z</Time>
            <Position>
              <LatitudeDegrees>40.77563370577991008758544921875</LatitudeDegrees>
              <LongitudeDegrees>-4.06932572834193706512451171875</LongitudeDegrees>
            </Position>
            <AltitudeMeters>1480</AltitudeMeters>
            <DistanceMeters>NAN</DistanceMeters>
          </Trackpoint>
          <Trackpoint>
            <Time>2018-12-30T10:26:04.000Z</Time>
            <Position>
              <LatitudeDegrees>40.77563320286571979522705078125</LatitudeDegrees>
              <LongitudeDegrees>-4.06932371668517589569091796875</LongitudeDegrees>
            </Position>
            <AltitudeMeters>1480.199951171875</AltitudeMeters>
            <DistanceMeters>NAN</DistanceMeters>
          </Trackpoint>
          <Trackpoint>
            <Time>2018-12-30T10:26:05.000Z</Time>
            <Position>
              <LatitudeDegrees>40.775629095733165740966796875</LatitudeDegrees>
              <LongitudeDegrees>-4.0693229623138904571533203125</LongitudeDegrees>
            </Position>
            <AltitudeMeters>1480.5999755859375</AltitudeMeters>
            <DistanceMeters>NAN</DistanceMeters>
          </Trackpoint>
          <Trackpoint>
            <Time>2018-12-30T10:26:06.000Z</Time>
            <Position>
              <LatitudeDegrees>40.775627754628658294677734375</LatitudeDegrees>
              <LongitudeDegrees>-4.06932941637933254241943359375</LongitudeDegrees>
            </Position>
            <AltitudeMeters>1480.5999755859375</AltitudeMeters>
            <DistanceMeters>NAN</DistanceMeters>
          </Trackpoint>
          <Trackpoint>
            <Time>2018-12-30T10:26:07.000Z</Time>
            <Position>
              <LatitudeDegrees>40.77562599442899227142333984375</LatitudeDegrees>
              <LongitudeDegrees>-4.06933511607348918914794921875</LongitudeDegrees>
            </Position>
            <AltitudeMeters>1480.800048828125</AltitudeMeters>
            <DistanceMeters>NAN</DistanceMeters>
          </Trackpoint>
          <Trackpoint>
            <Time>2018-12-30T10:26:08.000Z</Time>
            <Position>
              <LatitudeDegrees>40.775625742971897125244140625</LatitudeDegrees>
              <LongitudeDegrees>-4.069337882101535797119140625</LongitudeDegrees>
            </Position>
            <AltitudeMeters>1480.800048828125</AltitudeMeters>
            <DistanceMeters>NAN</DistanceMeters>
          </Trackpoint>
          <Trackpoint>
            <Time>2018-12-30T10:26:09.000Z</Time>
            <Position>
              <LatitudeDegrees>40.775627084076404571533203125</LatitudeDegrees>
              <LongitudeDegrees>-4.069349952042102813720703125</LongitudeDegrees>
            </Position>
            <AltitudeMeters>1480.800048828125</AltitudeMeters>
            <DistanceMeters>NAN</DistanceMeters>
          </Trackpoint>
          <Trackpoint>
            <Time>2018-12-30T10:26:10.000Z</Time>
            <Position>
              <LatitudeDegrees>40.77562599442899227142333984375</LatitudeDegrees>
              <LongitudeDegrees>-4.0693568252027034759521484375</LongitudeDegrees>
            </Position>
            <AltitudeMeters>1481</AltitudeMeters>
            <DistanceMeters>NAN</DistanceMeters>
          </Trackpoint>
          <Trackpoint>
            <Time>2018-12-30T10:26:11.000Z</Time>
            <Position>
              <LatitudeDegrees>40.7756267488002777099609375</LatitudeDegrees>
              <LongitudeDegrees>-4.06936394982039928436279296875</LongitudeDegrees>
            </Position>
            <AltitudeMeters>1481.199951171875</AltitudeMeters>
            <DistanceMeters>NAN</DistanceMeters>
          </Trackpoint>
          <Trackpoint>
            <Time>2018-12-30T10:26:12.000Z</Time>
            <Position>
              <LatitudeDegrees>40.77562834136188030242919921875</LatitudeDegrees>
              <LongitudeDegrees>-4.06937166117131710052490234375</LongitudeDegrees>
            </Position>
            <AltitudeMeters>1481.199951171875</AltitudeMeters>
            <DistanceMeters>NAN</DistanceMeters>
          </Trackpoint>
          <Trackpoint>
            <Time>2018-12-30T10:26:13.000Z</Time>
            <Position>
              <LatitudeDegrees>40.775624401867389678955078125</LatitudeDegrees>
              <LongitudeDegrees>-4.06937568448483943939208984375</LongitudeDegrees>
            </Position>
            <AltitudeMeters>1481.4000244140625</AltitudeMeters>
            <DistanceMeters>NAN</DistanceMeters>
          </Trackpoint>
          <Trackpoint>
            <Time>2018-12-30T10:26:14.000Z</Time>
            <Position>
              <LatitudeDegrees>40.77562750317156314849853515625</LatitudeDegrees>
              <LongitudeDegrees>-4.0693782828748226165771484375</LongitudeDegrees>
            </Position>
            <AltitudeMeters>1481.4000244140625</AltitudeMeters>
            <DistanceMeters>NAN</DistanceMeters>
          </Trackpoint>
          <Trackpoint>
            <Time>2018-12-30T10:26:15.000Z</Time>
            <Position>
              <LatitudeDegrees>40.7756265811622142791748046875</LatitudeDegrees>
              <LongitudeDegrees>-4.0693813003599643707275390625</LongitudeDegrees>
            </Position>
            <AltitudeMeters>1481.4000244140625</AltitudeMeters>
            <DistanceMeters>NAN</DistanceMeters>
          </Trackpoint>
          <Trackpoint>
            <Time>2018-12-30T10:26:16.000Z</Time>
            <Position>
              <LatitudeDegrees>40.775633789598941802978515625</LatitudeDegrees>
              <LongitudeDegrees>-4.0693933703005313873291015625</LongitudeDegrees>
            </Position>
            <AltitudeMeters>1481.4000244140625</AltitudeMeters>
            <DistanceMeters>NAN</DistanceMeters>
          </Trackpoint>
          <Trackpoint>
            <Time>2018-12-30T10:26:17.000Z</Time>
            <Position>
              <LatitudeDegrees>40.77563789673149585723876953125</LatitudeDegrees>
              <LongitudeDegrees>-4.06940233893692493438720703125</LongitudeDegrees>
            </Position>
            <AltitudeMeters>1481.4000244140625</AltitudeMeters>
            <DistanceMeters>NAN</DistanceMeters>
          </Trackpoint>
          <Trackpoint>
            <Time>2018-12-30T10:26:18.000Z</Time>
            <Position>
              <LatitudeDegrees>40.77564611099660396575927734375</LatitudeDegrees>
              <LongitudeDegrees>-4.0694134868681430816650390625</LongitudeDegrees>
            </Position>
            <AltitudeMeters>1481.4000244140625</AltitudeMeters>
            <DistanceMeters>NAN</DistanceMeters>
          </Trackpoint>
          <Trackpoint>
            <Time>2018-12-30T10:26:19.000Z</Time>
            <Position>
              <LatitudeDegrees>40.7756487093865871429443359375</LatitudeDegrees>
              <LongitudeDegrees>-4.0694181807339191436767578125</LongitudeDegrees>
            </Position>
            <AltitudeMeters>1481.4000244140625</AltitudeMeters>
            <DistanceMeters>NAN</DistanceMeters>
          </Trackpoint>
          <Trackpoint>
            <Time>2018-12-30T10:26:20.000Z</Time>
            <Position>
              <LatitudeDegrees>40.775654576718807220458984375</LatitudeDegrees>
              <LongitudeDegrees>-4.06942111440002918243408203125</LongitudeDegrees>
            </Position>
            <AltitudeMeters>1481.4000244140625</AltitudeMeters>
            <DistanceMeters>NAN</DistanceMeters>
          </Trackpoint>
          <Trackpoint>
            <Time>2018-12-30T10:26:21.000Z</Time>
            <Position>
              <LatitudeDegrees>40.77565834857523441314697265625</LatitudeDegrees>
              <LongitudeDegrees>-4.0694252215325832366943359375</LongitudeDegrees>
            </Position>
            <AltitudeMeters>1481.199951171875</AltitudeMeters>
            <DistanceMeters>NAN</DistanceMeters>
          </Trackpoint>
          <Trackpoint>
            <Time>2018-12-30T10:26:22.000Z</Time>
            <Position>
              <LatitudeDegrees>40.7756602764129638671875</LatitudeDegrees>
              <LongitudeDegrees>-4.06942798756062984466552734375</LongitudeDegrees>
            </Position>
            <AltitudeMeters>1481.4000244140625</AltitudeMeters>
            <DistanceMeters>NAN</DistanceMeters>
          </Trackpoint>
          <Trackpoint>
            <Time>2018-12-30T10:26:23.000Z</Time>
            <Position>
              <LatitudeDegrees>40.77566304244101047515869140625</LatitudeDegrees>
              <LongitudeDegrees>-4.06943251378834247589111328125</LongitudeDegrees>
            </Position>
            <AltitudeMeters>1481.4000244140625</AltitudeMeters>
            <DistanceMeters>NAN</DistanceMeters>
          </Trackpoint>
          <Trackpoint>
            <Time>2018-12-30T10:26:24.000Z</Time>
            <Position>
              <LatitudeDegrees>40.77566756866872310638427734375</LatitudeDegrees>
              <LongitudeDegrees>-4.0694366209208965301513671875</LongitudeDegrees>
            </Position>
            <AltitudeMeters>1481.199951171875</AltitudeMeters>
            <DistanceMeters>NAN</DistanceMeters>
          </Trackpoint>
          <Trackpoint>
            <Time>2018-12-30T10:26:25.000Z</Time>
            <Position>
              <LatitudeDegrees>40.7756711728870868682861328125</LatitudeDegrees>
              <LongitudeDegrees>-4.06943368725478649139404296875</LongitudeDegrees>
            </Position>
            <AltitudeMeters>1481.199951171875</AltitudeMeters>
            <DistanceMeters>NAN</DistanceMeters>
          </Trackpoint>
          <Trackpoint>
            <Time>2018-12-30T10:26:26.000Z</Time>
            <Position>
              <LatitudeDegrees>40.77567310072481632232666015625</LatitudeDegrees>
              <LongitudeDegrees>-4.0694386325776576995849609375</LongitudeDegrees>
            </Position>
            <AltitudeMeters>1481.4000244140625</AltitudeMeters>
            <DistanceMeters>NAN</DistanceMeters>
          </Trackpoint>
          <Trackpoint>
            <Time>2018-12-30T10:26:27.000Z</Time>
            <Position>
              <LatitudeDegrees>40.77567310072481632232666015625</LatitudeDegrees>
              <LongitudeDegrees>-4.0694403089582920074462890625</LongitudeDegrees>
            </Position>
            <AltitudeMeters>1481.4000244140625</AltitudeMeters>
            <DistanceMeters>NAN</DistanceMeters>
          </Trackpoint>
          <Trackpoint>
            <Time>2018-12-30T10:26:28.000Z</Time>
            <Position>
              <LatitudeDegrees>40.7756795547902584075927734375</LatitudeDegrees>
              <LongitudeDegrees>-4.0694376267492771148681640625</LongitudeDegrees>
            </Position>
            <AltitudeMeters>1481.5999755859375</AltitudeMeters>
            <DistanceMeters>NAN</DistanceMeters>
          </Trackpoint>
          <Trackpoint>
            <Time>2018-12-30T10:26:29.000Z</Time>
            <Position>
              <LatitudeDegrees>40.77568634413182735443115234375</LatitudeDegrees>
              <LongitudeDegrees>-4.0694366209208965301513671875</LongitudeDegrees>
            </Position>
            <AltitudeMeters>1481.5999755859375</AltitudeMeters>
            <DistanceMeters>NAN</DistanceMeters>
          </Trackpoint>
          <Trackpoint>
            <Time>2018-12-30T10:26:30.000Z</Time>
            <Position>
              <LatitudeDegrees>40.77568885870277881622314453125</LatitudeDegrees>
              <LongitudeDegrees>-4.06943452544510364532470703125</LongitudeDegrees>
            </Position>
            <AltitudeMeters>1481.800048828125</AltitudeMeters>
            <DistanceMeters>NAN</DistanceMeters>
          </Trackpoint>
          <Trackpoint>
            <Time>2018-12-30T10:26:31.000Z</Time>
            <Position>
              <LatitudeDegrees>40.77569120563566684722900390625</LatitudeDegrees>
              <LongitudeDegrees>-4.06943335197865962982177734375</LongitudeDegrees>
            </Position>
            <AltitudeMeters>1482</AltitudeMeters>
            <DistanceMeters>NAN</DistanceMeters>
          </Trackpoint>
          <Trackpoint>
            <Time>2018-12-30T10:26:32.000Z</Time>
            <Position>
              <LatitudeDegrees>40.7756938040256500244140625</LatitudeDegrees>
              <LongitudeDegrees>-4.0694300830364227294921875</LongitudeDegrees>
            </Position>
            <AltitudeMeters>1482</AltitudeMeters>
            <DistanceMeters>NAN</DistanceMeters>
          </Trackpoint>
          <Trackpoint>
            <Time>2018-12-30T10:26:33.000Z</Time>
            <Position>
              <LatitudeDegrees>40.77569975517690181732177734375</LatitudeDegrees>
              <LongitudeDegrees>-4.0694222040474414825439453125</LongitudeDegrees>
            </Position>
            <AltitudeMeters>1482.4000244140625</AltitudeMeters>
            <DistanceMeters>NAN</DistanceMeters>
          </Trackpoint>
          <Trackpoint>
            <Time>2018-12-30T10:26:34.000Z</Time>
            <Position>
              <LatitudeDegrees>40.7757020182907581329345703125</LatitudeDegrees>
              <LongitudeDegrees>-4.06941792927682399749755859375</LongitudeDegrees>
            </Position>
            <AltitudeMeters>1482.5999755859375</AltitudeMeters>
            <DistanceMeters>NAN</DistanceMeters>
          </Trackpoint>
          <Trackpoint>
            <Time>2018-12-30T10:26:35.000Z</Time>
            <Position>
              <LatitudeDegrees>40.77569757588207721710205078125</LatitudeDegrees>
              <LongitudeDegrees>-4.06942295841872692108154296875</LongitudeDegrees>
            </Position>
            <AltitudeMeters>1482.800048828125</AltitudeMeters>
            <DistanceMeters>NAN</DistanceMeters>
          </Trackpoint>
          <Trackpoint>
            <Time>2018-12-30T10:26:36.000Z</Time>
            <Position>
              <LatitudeDegrees>40.7757003419101238250732421875</LatitudeDegrees>
              <LongitudeDegrees>-4.06942069530487060546875</LongitudeDegrees>
            </Position>
            <AltitudeMeters>1482.800048828125</AltitudeMeters>
            <DistanceMeters>NAN</DistanceMeters>
          </Trackpoint>
          <Trackpoint>
            <Time>2018-12-30T10:26:37.000Z</Time>
            <Position>
              <LatitudeDegrees>40.77569388784468173980712890625</LatitudeDegrees>
              <LongitudeDegrees>-4.06942647881805896759033203125</LongitudeDegrees>
            </Position>
            <AltitudeMeters>1482.800048828125</AltitudeMeters>
            <DistanceMeters>NAN</DistanceMeters>
          </Trackpoint>
          <Trackpoint>
            <Time>2018-12-30T10:26:38.000Z</Time>
            <Position>
              <LatitudeDegrees>40.77569204382598400115966796875</LatitudeDegrees>
              <LongitudeDegrees>-4.06942781992256641387939453125</LongitudeDegrees>
            </Position>
            <AltitudeMeters>1483</AltitudeMeters>
            <DistanceMeters>NAN</DistanceMeters>
          </Trackpoint>
          <Trackpoint>
            <Time>2018-12-30T10:26:39.000Z</Time>
            <Position>
              <LatitudeDegrees>40.77569137327373027801513671875</LatitudeDegrees>
              <LongitudeDegrees>-4.06942807137966156005859375</LongitudeDegrees>
            </Position>
            <AltitudeMeters>1483</AltitudeMeters>
            <DistanceMeters>NAN</DistanceMeters>
          </Trackpoint>
          <Trackpoint>
            <Time>2018-12-30T10:26:40.000Z</Time>
            <Position>
              <LatitudeDegrees>40.77569019980728626251220703125</LatitudeDegrees>
              <LongitudeDegrees>-4.0694289095699787139892578125</LongitudeDegrees>
            </Position>
            <AltitudeMeters>1483</AltitudeMeters>
            <DistanceMeters>NAN</DistanceMeters>
          </Trackpoint>
          <Trackpoint>
            <Time>2018-12-30T10:26:41.000Z</Time>
            <Position>
              <LatitudeDegrees>40.77568734996020793914794921875</LatitudeDegrees>
              <LongitudeDegrees>-4.06943066976964473724365234375</LongitudeDegrees>
            </Position>
            <AltitudeMeters>1482.800048828125</AltitudeMeters>
            <DistanceMeters>NAN</DistanceMeters>
          </Trackpoint>
          <Trackpoint>
            <Time>2018-12-30T10:26:42.000Z</Time>
            <Position>
              <LatitudeDegrees>40.77568374574184417724609375</LatitudeDegrees>
              <LongitudeDegrees>-4.06943201087415218353271484375</LongitudeDegrees>
            </Position>
            <AltitudeMeters>1482.800048828125</AltitudeMeters>
            <DistanceMeters>NAN</DistanceMeters>
          </Trackpoint>
          <Trackpoint>
            <Time>2018-12-30T10:26:43.000Z</Time>
            <Position>
              <LatitudeDegrees>40.77567913569509983062744140625</LatitudeDegrees>
              <LongitudeDegrees>-4.06943066976964473724365234375</LongitudeDegrees>
            </Position>
            <AltitudeMeters>1482.5999755859375</AltitudeMeters>
            <DistanceMeters>NAN</DistanceMeters>
          </Trackpoint>
          <Trackpoint>
            <Time>2018-12-30T10:26:44.000Z</Time>
            <Position>
              <LatitudeDegrees>40.7756745256483554840087890625</LatitudeDegrees>
              <LongitudeDegrees>-4.06942781992256641387939453125</LongitudeDegrees>
            </Position>
            <AltitudeMeters>1482.4000244140625</AltitudeMeters>
            <DistanceMeters>NAN</DistanceMeters>
          </Trackpoint>
          <Trackpoint>
            <Time>2018-12-30T10:26:45.000Z</Time>
            <Position>
              <LatitudeDegrees>40.77566924504935741424560546875</LatitudeDegrees>
              <LongitudeDegrees>-4.06942069530487060546875</LongitudeDegrees>
            </Position>
            <AltitudeMeters>1482.199951171875</AltitudeMeters>
            <DistanceMeters>NAN</DistanceMeters>
          </Trackpoint>
          <Trackpoint>
            <Time>2018-12-30T10:26:46.000Z</Time>
            <Position>
              <LatitudeDegrees>40.77566228806972503662109375</LatitudeDegrees>
              <LongitudeDegrees>-4.0694153308868408203125</LongitudeDegrees>
            </Position>
            <AltitudeMeters>1482.199951171875</AltitudeMeters>
            <DistanceMeters>NAN</DistanceMeters>
          </Trackpoint>
          <Trackpoint>
            <Time>2018-12-30T10:26:47.000Z</Time>
            <Position>
              <LatitudeDegrees>40.77565918676555156707763671875</LatitudeDegrees>
              <LongitudeDegrees>-4.069409631192684173583984375</LongitudeDegrees>
            </Position>
            <AltitudeMeters>1482.199951171875</AltitudeMeters>
            <DistanceMeters>NAN</DistanceMeters>
          </Trackpoint>
          <Trackpoint>
            <Time>2018-12-30T10:26:48.000Z</Time>
            <Position>
              <LatitudeDegrees>40.77565499581396579742431640625</LatitudeDegrees>
              <LongitudeDegrees>-4.06940317712724208831787109375</LongitudeDegrees>
            </Position>
            <AltitudeMeters>1482.199951171875</AltitudeMeters>
            <DistanceMeters>NAN</DistanceMeters>
          </Trackpoint>
          <Trackpoint>
            <Time>2018-12-30T10:26:49.000Z</Time>
            <Position>
              <LatitudeDegrees>40.77564124949276447296142578125</LatitudeDegrees>
              <LongitudeDegrees>-4.0693994052708148956298828125</LongitudeDegrees>
            </Position>
            <AltitudeMeters>1482.199951171875</AltitudeMeters>
            <DistanceMeters>NAN</DistanceMeters>
          </Trackpoint>
          <Trackpoint>
            <Time>2018-12-30T10:26:50.000Z</Time>
            <Position>
              <LatitudeDegrees>40.7756388187408447265625</LatitudeDegrees>
              <LongitudeDegrees>-4.0694010816514492034912109375</LongitudeDegrees>
            </Position>
            <AltitudeMeters>1482.4000244140625</AltitudeMeters>
            <DistanceMeters>NAN</DistanceMeters>
          </Trackpoint>
          <Trackpoint>
            <Time>2018-12-30T10:26:51.000Z</Time>
            <Position>
              <LatitudeDegrees>40.7756363041698932647705078125</LatitudeDegrees>
              <LongitudeDegrees>-4.06940233893692493438720703125</LongitudeDegrees>
            </Position>
            <AltitudeMeters>1482.5999755859375</AltitudeMeters>
            <DistanceMeters>NAN</DistanceMeters>
          </Trackpoint>
          <Trackpoint>
            <Time>2018-12-30T10:26:52.000Z</Time>
            <Position>
              <LatitudeDegrees>40.77563689090311527252197265625</LatitudeDegrees>
              <LongitudeDegrees>-4.06940267421305179595947265625</LongitudeDegrees>
            </Position>
            <AltitudeMeters>1482.5999755859375</AltitudeMeters>
            <DistanceMeters>NAN</DistanceMeters>
          </Trackpoint>
          <Trackpoint>
            <Time>2018-12-30T10:26:53.000Z</Time>
            <Position>
              <LatitudeDegrees>40.7756374776363372802734375</LatitudeDegrees>
              <LongitudeDegrees>-4.0694030933082103729248046875</LongitudeDegrees>
            </Position>
            <AltitudeMeters>1482.5999755859375</AltitudeMeters>
            <DistanceMeters>NAN</DistanceMeters>
          </Trackpoint>
          <Trackpoint>
            <Time>2018-12-30T10:26:54.000Z</Time>
            <Position>
              <LatitudeDegrees>40.7756379805505275726318359375</LatitudeDegrees>
              <LongitudeDegrees>-4.06940351240336894989013671875</LongitudeDegrees>
            </Position>
            <AltitudeMeters>1482.800048828125</AltitudeMeters>
            <DistanceMeters>NAN</DistanceMeters>
          </Trackpoint>
          <Trackpoint>
            <Time>2018-12-30T10:26:55.000Z</Time>
            <Position>
              <LatitudeDegrees>40.7756383158266544342041015625</LatitudeDegrees>
              <LongitudeDegrees>-4.06940334476530551910400390625</LongitudeDegrees>
            </Position>
            <AltitudeMeters>1482.800048828125</AltitudeMeters>
            <DistanceMeters>NAN</DistanceMeters>
          </Trackpoint>
          <Trackpoint>
            <Time>2018-12-30T10:26:56.000Z</Time>
            <Position>
              <LatitudeDegrees>40.775639154016971588134765625</LatitudeDegrees>
              <LongitudeDegrees>-4.069402925670146942138671875</LongitudeDegrees>
            </Position>
            <AltitudeMeters>1482.800048828125</AltitudeMeters>
            <DistanceMeters>NAN</DistanceMeters>
          </Trackpoint>
          <Trackpoint>
            <Time>2018-12-30T10:26:57.000Z</Time>
            <Position>
              <LatitudeDegrees>40.77564007602632045745849609375</LatitudeDegrees>
              <LongitudeDegrees>-4.06940233893692493438720703125</LongitudeDegrees>
            </Position>
            <AltitudeMeters>1482.800048828125</AltitudeMeters>
            <DistanceMeters>NAN</DistanceMeters>
          </Trackpoint>
          <Trackpoint>
            <Time>2018-12-30T10:26:58.000Z</Time>
            <Position>
              <LatitudeDegrees>40.7756409980356693267822265625</LatitudeDegrees>
              <LongitudeDegrees>-4.0694017522037029266357421875</LongitudeDegrees>
            </Position>
            <AltitudeMeters>1482.800048828125</AltitudeMeters>
            <DistanceMeters>NAN</DistanceMeters>
          </Trackpoint>
          <Trackpoint>
            <Time>2018-12-30T10:26:59.000Z</Time>
            <Position>
              <LatitudeDegrees>40.77564192004501819610595703125</LatitudeDegrees>
              <LongitudeDegrees>-4.06940124928951263427734375</LongitudeDegrees>
            </Position>
            <AltitudeMeters>1482.800048828125</AltitudeMeters>
            <DistanceMeters>NAN</DistanceMeters>
          </Trackpoint>
          <Trackpoint>
            <Time>2018-12-30T10:27:00.000Z</Time>
            <Position>
              <LatitudeDegrees>40.77564259059727191925048828125</LatitudeDegrees>
              <LongitudeDegrees>-4.06940124928951263427734375</LongitudeDegrees>
            </Position>
            <AltitudeMeters>1482.800048828125</AltitudeMeters>
            <DistanceMeters>NAN</DistanceMeters>
          </Trackpoint>
          <Trackpoint>
            <Time>2018-12-30T10:27:01.000Z</Time>
            <Position>
              <LatitudeDegrees>40.77564326114952564239501953125</LatitudeDegrees>
              <LongitudeDegrees>-4.0694017522037029266357421875</LongitudeDegrees>
            </Position>
            <AltitudeMeters>1482.5999755859375</AltitudeMeters>
            <DistanceMeters>NAN</DistanceMeters>
          </Trackpoint>
          <Trackpoint>
            <Time>2018-12-30T10:27:02.000Z</Time>
            <Position>
              <LatitudeDegrees>40.775643847882747650146484375</LatitudeDegrees>
              <LongitudeDegrees>-4.06940166838467121124267578125</LongitudeDegrees>
            </Position>
            <AltitudeMeters>1482.5999755859375</AltitudeMeters>
            <DistanceMeters>NAN</DistanceMeters>
          </Trackpoint>
          <Trackpoint>
            <Time>2018-12-30T10:27:03.000Z</Time>
            <Position>
              <LatitudeDegrees>40.77564409933984279632568359375</LatitudeDegrees>
              <LongitudeDegrees>-4.0694017522037029266357421875</LongitudeDegrees>
            </Position>
            <AltitudeMeters>1482.5999755859375</AltitudeMeters>
            <DistanceMeters>NAN</DistanceMeters>
          </Trackpoint>
          <Trackpoint>
            <Time>2018-12-30T10:27:04.000Z</Time>
            <Position>
              <LatitudeDegrees>40.77564393170177936553955078125</LatitudeDegrees>
              <LongitudeDegrees>-4.06940150074660778045654296875</LongitudeDegrees>
            </Position>
            <AltitudeMeters>1482.5999755859375</AltitudeMeters>
            <DistanceMeters>NAN</DistanceMeters>
          </Trackpoint>
          <Trackpoint>
            <Time>2018-12-30T10:27:05.000Z</Time>
            <Position>
              <LatitudeDegrees>40.77564359642565250396728515625</LatitudeDegrees>
              <LongitudeDegrees>-4.0694014169275760650634765625</LongitudeDegrees>
            </Position>
            <AltitudeMeters>1482.5999755859375</AltitudeMeters>
            <DistanceMeters>NAN</DistanceMeters>
          </Trackpoint>
          <Trackpoint>
            <Time>2018-12-30T10:27:06.000Z</Time>
            <Position>
              <LatitudeDegrees>40.77564309351146221160888671875</LatitudeDegrees>
              <LongitudeDegrees>-4.069400914013385772705078125</LongitudeDegrees>
            </Position>
            <AltitudeMeters>1482.5999755859375</AltitudeMeters>
            <DistanceMeters>NAN</DistanceMeters>
          </Trackpoint>
          <Trackpoint>
            <Time>2018-12-30T10:27:07.000Z</Time>
            <Position>
              <LatitudeDegrees>40.7756426744163036346435546875</LatitudeDegrees>
              <LongitudeDegrees>-4.0694007463753223419189453125</LongitudeDegrees>
            </Position>
            <AltitudeMeters>1482.4000244140625</AltitudeMeters>
            <DistanceMeters>NAN</DistanceMeters>
          </Trackpoint>
          <Trackpoint>
            <Time>2018-12-30T10:27:08.000Z</Time>
            <Position>
              <LatitudeDegrees>40.77564242295920848846435546875</LatitudeDegrees>
              <LongitudeDegrees>-4.06939990818500518798828125</LongitudeDegrees>
            </Position>
            <AltitudeMeters>1482.4000244140625</AltitudeMeters>
            <DistanceMeters>NAN</DistanceMeters>
          </Trackpoint>
          <Trackpoint>
            <Time>2018-12-30T10:27:09.000Z</Time>
            <Position>
              <LatitudeDegrees>40.775642506778240203857421875</LatitudeDegrees>
              <LongitudeDegrees>-4.06939990818500518798828125</LongitudeDegrees>
            </Position>
            <AltitudeMeters>1482.4000244140625</AltitudeMeters>
            <DistanceMeters>NAN</DistanceMeters>
          </Trackpoint>
          <Trackpoint>
            <Time>2018-12-30T10:27:10.000Z</Time>
            <Position>
              <LatitudeDegrees>40.77564309351146221160888671875</LatitudeDegrees>
              <LongitudeDegrees>-4.069400914013385772705078125</LongitudeDegrees>
            </Position>
            <AltitudeMeters>1482.4000244140625</AltitudeMeters>
            <DistanceMeters>NAN</DistanceMeters>
          </Trackpoint>
          <Trackpoint>
            <Time>2018-12-30T10:27:11.000Z</Time>
            <Position>
              <LatitudeDegrees>40.77564309351146221160888671875</LatitudeDegrees>
              <LongitudeDegrees>-4.06940049491822719573974609375</LongitudeDegrees>
            </Position>
            <AltitudeMeters>1482.199951171875</AltitudeMeters>
            <DistanceMeters>NAN</DistanceMeters>
          </Trackpoint>
          <Trackpoint>
            <Time>2018-12-30T10:27:12.000Z</Time>
            <Position>
              <LatitudeDegrees>40.77564192004501819610595703125</LatitudeDegrees>
              <LongitudeDegrees>-4.0693983994424343109130859375</LongitudeDegrees>
            </Position>
            <AltitudeMeters>1482.199951171875</AltitudeMeters>
            <DistanceMeters>NAN</DistanceMeters>
          </Trackpoint>
          <Trackpoint>
            <Time>2018-12-30T10:27:13.000Z</Time>
            <Position>
              <LatitudeDegrees>40.77564192004501819610595703125</LatitudeDegrees>
              <LongitudeDegrees>-4.0693973936140537261962890625</LongitudeDegrees>
            </Position>
            <AltitudeMeters>1482</AltitudeMeters>
            <DistanceMeters>NAN</DistanceMeters>
          </Trackpoint>
          <Trackpoint>
            <Time>2018-12-30T10:27:14.000Z</Time>
            <Position>
              <LatitudeDegrees>40.77564376406371593475341796875</LatitudeDegrees>
              <LongitudeDegrees>-4.06939680688083171844482421875</LongitudeDegrees>
            </Position>
            <AltitudeMeters>1482</AltitudeMeters>
            <DistanceMeters>NAN</DistanceMeters>
          </Trackpoint>
          <Trackpoint>
            <Time>2018-12-30T10:27:15.000Z</Time>
            <Position>
              <LatitudeDegrees>40.7756443507969379425048828125</LatitudeDegrees>
              <LongitudeDegrees>-4.06939429230988025665283203125</LongitudeDegrees>
            </Position>
            <AltitudeMeters>1482.199951171875</AltitudeMeters>
            <DistanceMeters>NAN</DistanceMeters>
          </Trackpoint>
          <Trackpoint>
            <Time>2018-12-30T10:27:16.000Z</Time>
            <Position>
              <LatitudeDegrees>40.77563957311213016510009765625</LatitudeDegrees>
              <LongitudeDegrees>-4.06939177773892879486083984375</LongitudeDegrees>
            </Position>
            <AltitudeMeters>1482.4000244140625</AltitudeMeters>
            <DistanceMeters>NAN</DistanceMeters>
          </Trackpoint>
          <Trackpoint>
            <Time>2018-12-30T10:27:17.000Z</Time>
            <Position>
              <LatitudeDegrees>40.77563722617924213409423828125</LatitudeDegrees>
              <LongitudeDegrees>-4.06939026899635791778564453125</LongitudeDegrees>
            </Position>
            <AltitudeMeters>1482.5999755859375</AltitudeMeters>
            <DistanceMeters>NAN</DistanceMeters>
          </Trackpoint>
          <Trackpoint>
            <Time>2018-12-30T10:27:18.000Z</Time>
            <Position>
              <LatitudeDegrees>40.7756373099982738494873046875</LatitudeDegrees>
              <LongitudeDegrees>-4.0693906880915164947509765625</LongitudeDegrees>
            </Position>
            <AltitudeMeters>1482.5999755859375</AltitudeMeters>
            <DistanceMeters>NAN</DistanceMeters>
          </Trackpoint>
          <Trackpoint>
            <Time>2018-12-30T10:27:19.000Z</Time>
            <Position>
              <LatitudeDegrees>40.77563705854117870330810546875</LatitudeDegrees>
              <LongitudeDegrees>-4.06939093954861164093017578125</LongitudeDegrees>
            </Position>
            <AltitudeMeters>1482.5999755859375</AltitudeMeters>
            <DistanceMeters>NAN</DistanceMeters>
          </Trackpoint>
          <Trackpoint>
            <Time>2018-12-30T10:27:20.000Z</Time>
            <Position>
              <LatitudeDegrees>40.77563739381730556488037109375</LatitudeDegrees>
              <LongitudeDegrees>-4.069390855729579925537109375</LongitudeDegrees>
            </Position>
            <AltitudeMeters>1482.5999755859375</AltitudeMeters>
            <DistanceMeters>NAN</DistanceMeters>
          </Trackpoint>
          <Trackpoint>
            <Time>2018-12-30T10:27:21.000Z</Time>
            <Position>
              <LatitudeDegrees>40.77563789673149585723876953125</LatitudeDegrees>
              <LongitudeDegrees>-4.06939026899635791778564453125</LongitudeDegrees>
            </Position>
            <AltitudeMeters>1482.5999755859375</AltitudeMeters>
            <DistanceMeters>NAN</DistanceMeters>
          </Trackpoint>
          <Trackpoint>
            <Time>2018-12-30T10:27:22.000Z</Time>
            <Position>
              <LatitudeDegrees>40.77563856728374958038330078125</LatitudeDegrees>
              <LongitudeDegrees>-4.06938976608216762542724609375</LongitudeDegrees>
            </Position>
            <AltitudeMeters>1482.5999755859375</AltitudeMeters>
            <DistanceMeters>NAN</DistanceMeters>
          </Trackpoint>
          <Trackpoint>
            <Time>2018-12-30T10:27:23.000Z</Time>
            <Position>
              <LatitudeDegrees>40.77563923783600330352783203125</LatitudeDegrees>
              <LongitudeDegrees>-4.06938959844410419464111328125</LongitudeDegrees>
            </Position>
            <AltitudeMeters>1482.5999755859375</AltitudeMeters>
            <DistanceMeters>NAN</DistanceMeters>
          </Trackpoint>
          <Trackpoint>
            <Time>2018-12-30T10:27:24.000Z</Time>
            <Position>
              <LatitudeDegrees>40.77564007602632045745849609375</LatitudeDegrees>
              <LongitudeDegrees>-4.06938959844410419464111328125</LongitudeDegrees>
            </Position>
            <AltitudeMeters>1482.4000244140625</AltitudeMeters>
            <DistanceMeters>NAN</DistanceMeters>
          </Trackpoint>
          <Trackpoint>
            <Time>2018-12-30T10:27:25.000Z</Time>
            <Position>
              <LatitudeDegrees>40.7756409980356693267822265625</LatitudeDegrees>
              <LongitudeDegrees>-4.069389514625072479248046875</LongitudeDegrees>
            </Position>
            <AltitudeMeters>1482.4000244140625</AltitudeMeters>
            <DistanceMeters>NAN</DistanceMeters>
          </Trackpoint>
          <Trackpoint>
            <Time>2018-12-30T10:27:26.000Z</Time>
            <Position>
              <LatitudeDegrees>40.7756413333117961883544921875</LatitudeDegrees>
              <LongitudeDegrees>-4.06938943080604076385498046875</LongitudeDegrees>
            </Position>
            <AltitudeMeters>1482.4000244140625</AltitudeMeters>
            <DistanceMeters>NAN</DistanceMeters>
          </Trackpoint>
          <Trackpoint>
            <Time>2018-12-30T10:27:27.000Z</Time>
            <Position>
              <LatitudeDegrees>40.775641500949859619140625</LatitudeDegrees>
              <LongitudeDegrees>-4.069389514625072479248046875</LongitudeDegrees>
            </Position>
            <AltitudeMeters>1482.4000244140625</AltitudeMeters>
            <DistanceMeters>NAN</DistanceMeters>
          </Trackpoint>
          <Trackpoint>
            <Time>2018-12-30T10:27:28.000Z</Time>
            <Position>
              <LatitudeDegrees>40.775641836225986480712890625</LatitudeDegrees>
              <LongitudeDegrees>-4.0693898499011993408203125</LongitudeDegrees>
            </Position>
            <AltitudeMeters>1482.4000244140625</AltitudeMeters>
            <DistanceMeters>NAN</DistanceMeters>
          </Trackpoint>
          <Trackpoint>
            <Time>2018-12-30T10:27:29.000Z</Time>
            <Position>
              <LatitudeDegrees>40.77564225532114505767822265625</LatitudeDegrees>
              <LongitudeDegrees>-4.06938976608216762542724609375</LongitudeDegrees>
            </Position>
            <AltitudeMeters>1482.4000244140625</AltitudeMeters>
            <DistanceMeters>NAN</DistanceMeters>
          </Trackpoint>
          <Trackpoint>
            <Time>2018-12-30T10:27:30.000Z</Time>
            <Position>
              <LatitudeDegrees>40.77564292587339878082275390625</LatitudeDegrees>
              <LongitudeDegrees>-4.069390185177326202392578125</LongitudeDegrees>
            </Position>
            <AltitudeMeters>1482.4000244140625</AltitudeMeters>
            <DistanceMeters>NAN</DistanceMeters>
          </Trackpoint>
          <Trackpoint>
            <Time>2018-12-30T10:27:31.000Z</Time>
            <Position>
              <LatitudeDegrees>40.77564359642565250396728515625</LatitudeDegrees>
              <LongitudeDegrees>-4.06939077191054821014404296875</LongitudeDegrees>
            </Position>
            <AltitudeMeters>1482.5999755859375</AltitudeMeters>
            <DistanceMeters>NAN</DistanceMeters>
          </Trackpoint>
          <Trackpoint>
            <Time>2018-12-30T10:27:32.000Z</Time>
            <Position>
              <LatitudeDegrees>40.7756446860730648040771484375</LatitudeDegrees>
              <LongitudeDegrees>-4.06939110718667507171630859375</LongitudeDegrees>
            </Position>
            <AltitudeMeters>1482.5999755859375</AltitudeMeters>
            <DistanceMeters>NAN</DistanceMeters>
          </Trackpoint>
          <Trackpoint>
            <Time>2018-12-30T10:27:33.000Z</Time>
            <Position>
              <LatitudeDegrees>40.77564560808241367340087890625</LatitudeDegrees>
              <LongitudeDegrees>-4.06939144246280193328857421875</LongitudeDegrees>
            </Position>
            <AltitudeMeters>1482.5999755859375</AltitudeMeters>
            <DistanceMeters>NAN</DistanceMeters>
          </Trackpoint>
          <Trackpoint>
            <Time>2018-12-30T10:27:34.000Z</Time>
            <Position>
              <LatitudeDegrees>40.77564678154885768890380859375</LatitudeDegrees>
              <LongitudeDegrees>-4.06939186155796051025390625</LongitudeDegrees>
            </Position>
            <AltitudeMeters>1482.5999755859375</AltitudeMeters>
            <DistanceMeters>NAN</DistanceMeters>
          </Trackpoint>
          <Trackpoint>
            <Time>2018-12-30T10:27:35.000Z</Time>
            <Position>
              <LatitudeDegrees>40.77564761973917484283447265625</LatitudeDegrees>
              <LongitudeDegrees>-4.06939244829118251800537109375</LongitudeDegrees>
            </Position>
            <AltitudeMeters>1482.5999755859375</AltitudeMeters>
            <DistanceMeters>NAN</DistanceMeters>
          </Trackpoint>
          <Trackpoint>
            <Time>2018-12-30T10:27:36.000Z</Time>
            <Position>
              <LatitudeDegrees>40.7756497152149677276611328125</LatitudeDegrees>
              <LongitudeDegrees>-4.06939311884343624114990234375</LongitudeDegrees>
            </Position>
            <AltitudeMeters>1482.4000244140625</AltitudeMeters>
            <DistanceMeters>NAN</DistanceMeters>
          </Trackpoint>
          <Trackpoint>
            <Time>2018-12-30T10:27:37.000Z</Time>
            <Position>
              <LatitudeDegrees>40.775651223957538604736328125</LatitudeDegrees>
              <LongitudeDegrees>-4.06939345411956310272216796875</LongitudeDegrees>
            </Position>
            <AltitudeMeters>1482.4000244140625</AltitudeMeters>
            <DistanceMeters>NAN</DistanceMeters>
          </Trackpoint>
          <Trackpoint>
            <Time>2018-12-30T10:27:38.000Z</Time>
            <Position>
              <LatitudeDegrees>40.77565197832882404327392578125</LatitudeDegrees>
              <LongitudeDegrees>-4.0693938732147216796875</LongitudeDegrees>
            </Position>
            <AltitudeMeters>1482.4000244140625</AltitudeMeters>
            <DistanceMeters>NAN</DistanceMeters>
          </Trackpoint>
          <Trackpoint>
            <Time>2018-12-30T10:27:39.000Z</Time>
            <Position>
              <LatitudeDegrees>40.7756527327001094818115234375</LatitudeDegrees>
              <LongitudeDegrees>-4.06939462758600711822509765625</LongitudeDegrees>
            </Position>
            <AltitudeMeters>1482.5999755859375</AltitudeMeters>
            <DistanceMeters>NAN</DistanceMeters>
          </Trackpoint>
          <Trackpoint>
            <Time>2018-12-30T10:27:40.000Z</Time>
            <Position>
              <LatitudeDegrees>40.77565424144268035888671875</LatitudeDegrees>
              <LongitudeDegrees>-4.06939546577632427215576171875</LongitudeDegrees>
            </Position>
            <AltitudeMeters>1482.5999755859375</AltitudeMeters>
            <DistanceMeters>NAN</DistanceMeters>
          </Trackpoint>
          <Trackpoint>
            <Time>2018-12-30T10:27:41.000Z</Time>
            <Position>
              <LatitudeDegrees>40.7756550796329975128173828125</LatitudeDegrees>
              <LongitudeDegrees>-4.06939563341438770294189453125</LongitudeDegrees>
            </Position>
            <AltitudeMeters>1482.5999755859375</AltitudeMeters>
            <DistanceMeters>NAN</DistanceMeters>
          </Trackpoint>
          <Trackpoint>
            <Time>2018-12-30T10:27:42.000Z</Time>
            <Position>
              <LatitudeDegrees>40.77565491199493408203125</LatitudeDegrees>
              <LongitudeDegrees>-4.06939529813826084136962890625</LongitudeDegrees>
            </Position>
            <AltitudeMeters>1482.5999755859375</AltitudeMeters>
            <DistanceMeters>NAN</DistanceMeters>
          </Trackpoint>
          <Trackpoint>
            <Time>2018-12-30T10:27:43.000Z</Time>
            <Position>
              <LatitudeDegrees>40.775654576718807220458984375</LatitudeDegrees>
              <LongitudeDegrees>-4.06939513050019741058349609375</LongitudeDegrees>
            </Position>
            <AltitudeMeters>1482.5999755859375</AltitudeMeters>
            <DistanceMeters>NAN</DistanceMeters>
          </Trackpoint>
          <Trackpoint>
            <Time>2018-12-30T10:27:44.000Z</Time>
            <Position>
              <LatitudeDegrees>40.7756547443568706512451171875</LatitudeDegrees>
              <LongitudeDegrees>-4.06939496286213397979736328125</LongitudeDegrees>
            </Position>
            <AltitudeMeters>1482.5999755859375</AltitudeMeters>
            <DistanceMeters>NAN</DistanceMeters>
          </Trackpoint>
          <Trackpoint>
            <Time>2018-12-30T10:27:45.000Z</Time>
            <Position>
              <LatitudeDegrees>40.77565533109009265899658203125</LatitudeDegrees>
              <LongitudeDegrees>-4.06939496286213397979736328125</LongitudeDegrees>
            </Position>
            <AltitudeMeters>1482.5999755859375</AltitudeMeters>
            <DistanceMeters>NAN</DistanceMeters>
          </Trackpoint>
          <Trackpoint>
            <Time>2018-12-30T10:27:46.000Z</Time>
            <Position>
              <LatitudeDegrees>40.77565583400428295135498046875</LatitudeDegrees>
              <LongitudeDegrees>-4.06939546577632427215576171875</LongitudeDegrees>
            </Position>
            <AltitudeMeters>1482.5999755859375</AltitudeMeters>
            <DistanceMeters>NAN</DistanceMeters>
          </Trackpoint>
          <Trackpoint>
            <Time>2018-12-30T10:27:47.000Z</Time>
            <Position>
              <LatitudeDegrees>40.775656588375568389892578125</LatitudeDegrees>
              <LongitudeDegrees>-4.06939546577632427215576171875</LongitudeDegrees>
            </Position>
            <AltitudeMeters>1482.5999755859375</AltitudeMeters>
            <DistanceMeters>NAN</DistanceMeters>
          </Trackpoint>
          <Trackpoint>
            <Time>2018-12-30T10:27:48.000Z</Time>
            <Position>
              <LatitudeDegrees>40.775658600032329559326171875</LatitudeDegrees>
              <LongitudeDegrees>-4.06939395703375339508056640625</LongitudeDegrees>
            </Position>
            <AltitudeMeters>1482.5999755859375</AltitudeMeters>
            <DistanceMeters>NAN</DistanceMeters>
          </Trackpoint>
          <Trackpoint>
            <Time>2018-12-30T10:27:49.000Z</Time>
            <Position>
              <LatitudeDegrees>40.7756604440510272979736328125</LatitudeDegrees>
              <LongitudeDegrees>-4.06939261592924594879150390625</LongitudeDegrees>
            </Position>
            <AltitudeMeters>1482.5999755859375</AltitudeMeters>
            <DistanceMeters>NAN</DistanceMeters>
          </Trackpoint>
          <Trackpoint>
            <Time>2018-12-30T10:27:50.000Z</Time>
            <Position>
              <LatitudeDegrees>40.77566220425069332122802734375</LatitudeDegrees>
              <LongitudeDegrees>-4.0693913586437702178955078125</LongitudeDegrees>
            </Position>
            <AltitudeMeters>1482.5999755859375</AltitudeMeters>
            <DistanceMeters>NAN</DistanceMeters>
          </Trackpoint>
          <Trackpoint>
            <Time>2018-12-30T10:27:51.000Z</Time>
            <Position>
              <LatitudeDegrees>40.775662958621978759765625</LatitudeDegrees>
              <LongitudeDegrees>-4.06939052045345306396484375</LongitudeDegrees>
            </Position>
            <AltitudeMeters>1482.800048828125</AltitudeMeters>
            <DistanceMeters>NAN</DistanceMeters>
          </Trackpoint>
          <Trackpoint>
            <Time>2018-12-30T10:27:52.000Z</Time>
            <Position>
              <LatitudeDegrees>40.7756634615361690521240234375</LatitudeDegrees>
              <LongitudeDegrees>-4.0693898499011993408203125</LongitudeDegrees>
            </Position>
            <AltitudeMeters>1482.800048828125</AltitudeMeters>
            <DistanceMeters>NAN</DistanceMeters>
          </Trackpoint>
          <Trackpoint>
            <Time>2018-12-30T10:27:53.000Z</Time>
            <Position>
              <LatitudeDegrees>40.77566388063132762908935546875</LatitudeDegrees>
              <LongitudeDegrees>-4.0693896822631359100341796875</LongitudeDegrees>
            </Position>
            <AltitudeMeters>1482.800048828125</AltitudeMeters>
            <DistanceMeters>NAN</DistanceMeters>
          </Trackpoint>
          <Trackpoint>
            <Time>2018-12-30T10:27:54.000Z</Time>
            <Position>
              <LatitudeDegrees>40.77566404826939105987548828125</LatitudeDegrees>
              <LongitudeDegrees>-4.06938976608216762542724609375</LongitudeDegrees>
            </Position>
            <AltitudeMeters>1483</AltitudeMeters>
            <DistanceMeters>NAN</DistanceMeters>
          </Trackpoint>
          <Trackpoint>
            <Time>2018-12-30T10:27:55.000Z</Time>
            <Position>
              <LatitudeDegrees>40.77566421590745449066162109375</LatitudeDegrees>
              <LongitudeDegrees>-4.06938943080604076385498046875</LongitudeDegrees>
            </Position>
            <AltitudeMeters>1483</AltitudeMeters>
            <DistanceMeters>NAN</DistanceMeters>
          </Trackpoint>
          <Trackpoint>
            <Time>2018-12-30T10:27:56.000Z</Time>
            <Position>
              <LatitudeDegrees>40.77566438354551792144775390625</LatitudeDegrees>
              <LongitudeDegrees>-4.0693890117108821868896484375</LongitudeDegrees>
            </Position>
            <AltitudeMeters>1483</AltitudeMeters>
            <DistanceMeters>NAN</DistanceMeters>
          </Trackpoint>
          <Trackpoint>
            <Time>2018-12-30T10:27:57.000Z</Time>
            <Position>
              <LatitudeDegrees>40.77566505409777164459228515625</LatitudeDegrees>
              <LongitudeDegrees>-4.069388844072818756103515625</LongitudeDegrees>
            </Position>
            <AltitudeMeters>1483</AltitudeMeters>
            <DistanceMeters>NAN</DistanceMeters>
          </Trackpoint>
          <Trackpoint>
            <Time>2018-12-30T10:27:58.000Z</Time>
            <Position>
              <LatitudeDegrees>40.77566589228808879852294921875</LatitudeDegrees>
              <LongitudeDegrees>-4.069388844072818756103515625</LongitudeDegrees>
            </Position>
            <AltitudeMeters>1483</AltitudeMeters>
            <DistanceMeters>NAN</DistanceMeters>
          </Trackpoint>
          <Trackpoint>
            <Time>2018-12-30T10:27:59.000Z</Time>
            <Position>
              <LatitudeDegrees>40.77566631138324737548828125</LatitudeDegrees>
              <LongitudeDegrees>-4.06938783824443817138671875</LongitudeDegrees>
            </Position>
            <AltitudeMeters>1482.800048828125</AltitudeMeters>
            <DistanceMeters>NAN</DistanceMeters>
          </Trackpoint>
          <Trackpoint>
            <Time>2018-12-30T10:28:00.000Z</Time>
            <Position>
              <LatitudeDegrees>40.77566572465002536773681640625</LatitudeDegrees>
              <LongitudeDegrees>-4.0693876706063747406005859375</LongitudeDegrees>
            </Position>
            <AltitudeMeters>1482.800048828125</AltitudeMeters>
            <DistanceMeters>NAN</DistanceMeters>
          </Trackpoint>
          <Trackpoint>
            <Time>2018-12-30T10:28:01.000Z</Time>
            <Position>
              <LatitudeDegrees>40.77566404826939105987548828125</LatitudeDegrees>
              <LongitudeDegrees>-4.0693870000541210174560546875</LongitudeDegrees>
            </Position>
            <AltitudeMeters>1482.800048828125</AltitudeMeters>
            <DistanceMeters>NAN</DistanceMeters>
          </Trackpoint>
          <Trackpoint>
            <Time>2018-12-30T10:28:02.000Z</Time>
            <Position>
              <LatitudeDegrees>40.77565717510879039764404296875</LatitudeDegrees>
              <LongitudeDegrees>-4.06938490457832813262939453125</LongitudeDegrees>
            </Position>
            <AltitudeMeters>1482.5999755859375</AltitudeMeters>
            <DistanceMeters>NAN</DistanceMeters>
          </Trackpoint>
          <Trackpoint>
            <Time>2018-12-30T10:28:03.000Z</Time>
            <Position>
              <LatitudeDegrees>40.7756517268717288970947265625</LatitudeDegrees>
              <LongitudeDegrees>-4.06938071362674236297607421875</LongitudeDegrees>
            </Position>
            <AltitudeMeters>1482.199951171875</AltitudeMeters>
            <DistanceMeters>NAN</DistanceMeters>
          </Trackpoint>
          <Trackpoint>
            <Time>2018-12-30T10:28:04.000Z</Time>
            <Position>
              <LatitudeDegrees>40.77564829029142856597900390625</LatitudeDegrees>
              <LongitudeDegrees>-4.06937266699969768524169921875</LongitudeDegrees>
            </Position>
            <AltitudeMeters>1482</AltitudeMeters>
            <DistanceMeters>NAN</DistanceMeters>
          </Trackpoint>
          <Trackpoint>
            <Time>2018-12-30T10:28:05.000Z</Time>
            <Position>
              <LatitudeDegrees>40.775647200644016265869140625</LatitudeDegrees>
              <LongitudeDegrees>-4.06936679966747760772705078125</LongitudeDegrees>
            </Position>
            <AltitudeMeters>1481.5999755859375</AltitudeMeters>
            <DistanceMeters>NAN</DistanceMeters>
          </Trackpoint>
          <Trackpoint>
            <Time>2018-12-30T10:28:06.000Z</Time>
            <Position>
              <LatitudeDegrees>40.77565046958625316619873046875</LatitudeDegrees>
              <LongitudeDegrees>-4.069368727505207061767578125</LongitudeDegrees>
            </Position>
            <AltitudeMeters>1481.4000244140625</AltitudeMeters>
            <DistanceMeters>NAN</DistanceMeters>
          </Trackpoint>
          <Trackpoint>
            <Time>2018-12-30T10:28:07.000Z</Time>
            <Position>
              <LatitudeDegrees>40.7756527327001094818115234375</LatitudeDegrees>
              <LongitudeDegrees>-4.0693705715239048004150390625</LongitudeDegrees>
            </Position>
            <AltitudeMeters>1481.4000244140625</AltitudeMeters>
            <DistanceMeters>NAN</DistanceMeters>
          </Trackpoint>
          <Trackpoint>
            <Time>2018-12-30T10:28:08.000Z</Time>
            <Position>
              <LatitudeDegrees>40.7756497152149677276611328125</LatitudeDegrees>
              <LongitudeDegrees>-4.06936495564877986907958984375</LongitudeDegrees>
            </Position>
            <AltitudeMeters>1481.4000244140625</AltitudeMeters>
            <DistanceMeters>NAN</DistanceMeters>
          </Trackpoint>
          <Trackpoint>
            <Time>2018-12-30T10:28:09.000Z</Time>
            <Position>
              <LatitudeDegrees>40.775647871196269989013671875</LatitudeDegrees>
              <LongitudeDegrees>-4.0693625248968601226806640625</LongitudeDegrees>
            </Position>
            <AltitudeMeters>1481.4000244140625</AltitudeMeters>
            <DistanceMeters>NAN</DistanceMeters>
          </Trackpoint>
          <Trackpoint>
            <Time>2018-12-30T10:28:10.000Z</Time>
            <Position>
              <LatitudeDegrees>40.7756406627595424652099609375</LatitudeDegrees>
              <LongitudeDegrees>-4.06936713494360446929931640625</LongitudeDegrees>
            </Position>
            <AltitudeMeters>1481.4000244140625</AltitudeMeters>
            <DistanceMeters>NAN</DistanceMeters>
          </Trackpoint>
          <Trackpoint>
            <Time>2018-12-30T10:28:11.000Z</Time>
            <Position>
              <LatitudeDegrees>40.77563873492181301116943359375</LatitudeDegrees>
              <LongitudeDegrees>-4.0693818032741546630859375</LongitudeDegrees>
            </Position>
            <AltitudeMeters>1481.4000244140625</AltitudeMeters>
            <DistanceMeters>NAN</DistanceMeters>
          </Trackpoint>
          <Trackpoint>
            <Time>2018-12-30T10:28:12.000Z</Time>
            <Position>
              <LatitudeDegrees>40.77563638798892498016357421875</LatitudeDegrees>
              <LongitudeDegrees>-4.06939496286213397979736328125</LongitudeDegrees>
            </Position>
            <AltitudeMeters>1481.4000244140625</AltitudeMeters>
            <DistanceMeters>NAN</DistanceMeters>
          </Trackpoint>
          <Trackpoint>
            <Time>2018-12-30T10:28:13.000Z</Time>
            <Position>
              <LatitudeDegrees>40.77563253231346607208251953125</LatitudeDegrees>
              <LongitudeDegrees>-4.069406948983669281005859375</LongitudeDegrees>
            </Position>
            <AltitudeMeters>1481.4000244140625</AltitudeMeters>
            <DistanceMeters>NAN</DistanceMeters>
          </Trackpoint>
          <Trackpoint>
            <Time>2018-12-30T10:28:14.000Z</Time>
            <Position>
              <LatitudeDegrees>40.77563018538057804107666015625</LatitudeDegrees>
              <LongitudeDegrees>-4.069418013095855712890625</LongitudeDegrees>
            </Position>
            <AltitudeMeters>1481.5999755859375</AltitudeMeters>
            <DistanceMeters>NAN</DistanceMeters>
          </Trackpoint>
          <Trackpoint>
            <Time>2018-12-30T10:28:15.000Z</Time>
            <Position>
              <LatitudeDegrees>40.7756282575428485870361328125</LatitudeDegrees>
              <LongitudeDegrees>-4.06942941248416900634765625</LongitudeDegrees>
            </Position>
            <AltitudeMeters>1481.5999755859375</AltitudeMeters>
            <DistanceMeters>NAN</DistanceMeters>
          </Trackpoint>
          <Trackpoint>
            <Time>2018-12-30T10:28:16.000Z</Time>
            <Position>
              <LatitudeDegrees>40.775630436837673187255859375</LatitudeDegrees>
              <LongitudeDegrees>-4.069434441626071929931640625</LongitudeDegrees>
            </Position>
            <AltitudeMeters>1481.5999755859375</AltitudeMeters>
            <DistanceMeters>NAN</DistanceMeters>
          </Trackpoint>
          <Trackpoint>
            <Time>2018-12-30T10:28:17.000Z</Time>
            <Position>
              <LatitudeDegrees>40.7756294310092926025390625</LatitudeDegrees>
              <LongitudeDegrees>-4.069443829357624053955078125</LongitudeDegrees>
            </Position>
            <AltitudeMeters>1481.800048828125</AltitudeMeters>
            <DistanceMeters>NAN</DistanceMeters>
          </Trackpoint>
          <Trackpoint>
            <Time>2018-12-30T10:28:18.000Z</Time>
            <Position>
              <LatitudeDegrees>40.77563370577991008758544921875</LatitudeDegrees>
              <LongitudeDegrees>-4.069450199604034423828125</LongitudeDegrees>
            </Position>
            <AltitudeMeters>1481.800048828125</AltitudeMeters>
            <DistanceMeters>NAN</DistanceMeters>
          </Trackpoint>
          <Trackpoint>
            <Time>2018-12-30T10:28:19.000Z</Time>
            <Position>
              <LatitudeDegrees>40.775634460151195526123046875</LatitudeDegrees>
              <LongitudeDegrees>-4.0694510377943515777587890625</LongitudeDegrees>
            </Position>
            <AltitudeMeters>1481.800048828125</AltitudeMeters>
            <DistanceMeters>NAN</DistanceMeters>
          </Trackpoint>
          <Trackpoint>
            <Time>2018-12-30T10:28:20.000Z</Time>
            <Position>
              <LatitudeDegrees>40.7756347954273223876953125</LatitudeDegrees>
              <LongitudeDegrees>-4.06945061869919300079345703125</LongitudeDegrees>
            </Position>
            <AltitudeMeters>1481.800048828125</AltitudeMeters>
            <DistanceMeters>NAN</DistanceMeters>
          </Trackpoint>
          <Trackpoint>
            <Time>2018-12-30T10:28:21.000Z</Time>
            <Position>
              <LatitudeDegrees>40.77563638798892498016357421875</LatitudeDegrees>
              <LongitudeDegrees>-4.06945095397531986236572265625</LongitudeDegrees>
            </Position>
            <AltitudeMeters>1481.800048828125</AltitudeMeters>
            <DistanceMeters>NAN</DistanceMeters>
          </Trackpoint>
          <Trackpoint>
            <Time>2018-12-30T10:28:22.000Z</Time>
            <Position>
              <LatitudeDegrees>40.77563789673149585723876953125</LatitudeDegrees>
              <LongitudeDegrees>-4.06945195980370044708251953125</LongitudeDegrees>
            </Position>
            <AltitudeMeters>1481.5999755859375</AltitudeMeters>
            <DistanceMeters>NAN</DistanceMeters>
          </Trackpoint>
          <Trackpoint>
            <Time>2018-12-30T10:28:23.000Z</Time>
            <Position>
              <LatitudeDegrees>40.7756443507969379425048828125</LatitudeDegrees>
              <LongitudeDegrees>-4.06945288181304931640625</LongitudeDegrees>
            </Position>
            <AltitudeMeters>1481.4000244140625</AltitudeMeters>
            <DistanceMeters>NAN</DistanceMeters>
          </Trackpoint>
          <Trackpoint>
            <Time>2018-12-30T10:28:24.000Z</Time>
            <Position>
              <LatitudeDegrees>40.77564745210111141204833984375</LatitudeDegrees>
              <LongitudeDegrees>-4.06945330090820789337158203125</LongitudeDegrees>
            </Position>
            <AltitudeMeters>1481.199951171875</AltitudeMeters>
            <DistanceMeters>NAN</DistanceMeters>
          </Trackpoint>
          <Trackpoint>
            <Time>2018-12-30T10:28:25.000Z</Time>
            <Position>
              <LatitudeDegrees>40.775663293898105621337890625</LatitudeDegrees>
              <LongitudeDegrees>-4.06944676302373409271240234375</LongitudeDegrees>
            </Position>
            <AltitudeMeters>1481.199951171875</AltitudeMeters>
            <DistanceMeters>NAN</DistanceMeters>
          </Trackpoint>
          <Trackpoint>
            <Time>2018-12-30T10:28:26.000Z</Time>
            <Position>
              <LatitudeDegrees>40.77566631138324737548828125</LatitudeDegrees>
              <LongitudeDegrees>-4.0694466792047023773193359375</LongitudeDegrees>
            </Position>
            <AltitudeMeters>1481.199951171875</AltitudeMeters>
            <DistanceMeters>NAN</DistanceMeters>
          </Trackpoint>
          <Trackpoint>
            <Time>2018-12-30T10:28:27.000Z</Time>
            <Position>
              <LatitudeDegrees>40.77567092142999172210693359375</LatitudeDegrees>
              <LongitudeDegrees>-4.069447852671146392822265625</LongitudeDegrees>
            </Position>
            <AltitudeMeters>1481.199951171875</AltitudeMeters>
            <DistanceMeters>NAN</DistanceMeters>
          </Trackpoint>
          <Trackpoint>
            <Time>2018-12-30T10:28:28.000Z</Time>
            <Position>
              <LatitudeDegrees>40.77567636966705322265625</LatitudeDegrees>
              <LongitudeDegrees>-4.0694490261375904083251953125</LongitudeDegrees>
            </Position>
            <AltitudeMeters>1481.199951171875</AltitudeMeters>
            <DistanceMeters>NAN</DistanceMeters>
          </Trackpoint>
          <Trackpoint>
            <Time>2018-12-30T10:28:29.000Z</Time>
            <Position>
              <LatitudeDegrees>40.77568106353282928466796875</LatitudeDegrees>
              <LongitudeDegrees>-4.06945413909852504730224609375</LongitudeDegrees>
            </Position>
            <AltitudeMeters>1481.199951171875</AltitudeMeters>
            <DistanceMeters>NAN</DistanceMeters>
          </Trackpoint>
          <Trackpoint>
            <Time>2018-12-30T10:28:30.000Z</Time>
            <Position>
              <LatitudeDegrees>40.77569170854985713958740234375</LatitudeDegrees>
              <LongitudeDegrees>-4.06945782713592052459716796875</LongitudeDegrees>
            </Position>
            <AltitudeMeters>1481</AltitudeMeters>
            <DistanceMeters>NAN</DistanceMeters>
          </Trackpoint>
          <Trackpoint>
            <Time>2018-12-30T10:28:31.000Z</Time>
            <Position>
              <LatitudeDegrees>40.77569439075887203216552734375</LatitudeDegrees>
              <LongitudeDegrees>-4.0694584138691425323486328125</LongitudeDegrees>
            </Position>
            <AltitudeMeters>1481</AltitudeMeters>
            <DistanceMeters>NAN</DistanceMeters>
          </Trackpoint>
          <Trackpoint>
            <Time>2018-12-30T10:28:32.000Z</Time>
            <Position>
              <LatitudeDegrees>40.77569489367306232452392578125</LatitudeDegrees>
              <LongitudeDegrees>-4.069458581507205963134765625</LongitudeDegrees>
            </Position>
            <AltitudeMeters>1480.800048828125</AltitudeMeters>
            <DistanceMeters>NAN</DistanceMeters>
          </Trackpoint>
          <Trackpoint>
            <Time>2018-12-30T10:28:33.000Z</Time>
            <Position>
              <LatitudeDegrees>40.77569581568241119384765625</LatitudeDegrees>
              <LongitudeDegrees>-4.069459922611713409423828125</LongitudeDegrees>
            </Position>
            <AltitudeMeters>1480.800048828125</AltitudeMeters>
            <DistanceMeters>NAN</DistanceMeters>
          </Trackpoint>
          <Trackpoint>
            <Time>2018-12-30T10:28:34.000Z</Time>
            <Position>
              <LatitudeDegrees>40.7756973244249820709228515625</LatitudeDegrees>
              <LongitudeDegrees>-4.06946335919201374053955078125</LongitudeDegrees>
            </Position>
            <AltitudeMeters>1480.800048828125</AltitudeMeters>
            <DistanceMeters>NAN</DistanceMeters>
          </Trackpoint>
          <Trackpoint>
            <Time>2018-12-30T10:28:35.000Z</Time>
            <Position>
              <LatitudeDegrees>40.77569958753883838653564453125</LatitudeDegrees>
              <LongitudeDegrees>-4.06946134753525257110595703125</LongitudeDegrees>
            </Position>
            <AltitudeMeters>1480.800048828125</AltitudeMeters>
            <DistanceMeters>NAN</DistanceMeters>
          </Trackpoint>
          <Trackpoint>
            <Time>2018-12-30T10:28:36.000Z</Time>
            <Position>
              <LatitudeDegrees>40.77569992281496524810791015625</LatitudeDegrees>
              <LongitudeDegrees>-4.06946017406880855560302734375</LongitudeDegrees>
            </Position>
            <AltitudeMeters>1483.199951171875</AltitudeMeters>
            <DistanceMeters>NAN</DistanceMeters>
          </Trackpoint>
          <Trackpoint>
            <Time>2018-12-30T10:28:37.000Z</Time>
            <Position>
              <LatitudeDegrees>40.7756991684436798095703125</LatitudeDegrees>
              <LongitudeDegrees>-4.069467298686504364013671875</LongitudeDegrees>
            </Position>
            <AltitudeMeters>1483.199951171875</AltitudeMeters>
            <DistanceMeters>NAN</DistanceMeters>
          </Trackpoint>
          <Trackpoint>
            <Time>2018-12-30T10:28:38.000Z</Time>
            <Position>
              <LatitudeDegrees>40.77570210210978984832763671875</LatitudeDegrees>
              <LongitudeDegrees>-4.069469980895519256591796875</LongitudeDegrees>
            </Position>
            <AltitudeMeters>1483.199951171875</AltitudeMeters>
            <DistanceMeters>NAN</DistanceMeters>
          </Trackpoint>
          <Trackpoint>
            <Time>2018-12-30T10:28:39.000Z</Time>
            <Position>
              <LatitudeDegrees>40.7757050357758998870849609375</LatitudeDegrees>
              <LongitudeDegrees>-4.06946905888617038726806640625</LongitudeDegrees>
            </Position>
            <AltitudeMeters>1483.199951171875</AltitudeMeters>
            <DistanceMeters>NAN</DistanceMeters>
          </Trackpoint>
          <Trackpoint>
            <Time>2018-12-30T10:28:40.000Z</Time>
            <Position>
              <LatitudeDegrees>40.77570796944200992584228515625</LatitudeDegrees>
              <LongitudeDegrees>-4.06946537084877490997314453125</LongitudeDegrees>
            </Position>
            <AltitudeMeters>1483.199951171875</AltitudeMeters>
            <DistanceMeters>NAN</DistanceMeters>
          </Trackpoint>
          <Trackpoint>
            <Time>2018-12-30T10:28:41.000Z</Time>
            <Position>
              <LatitudeDegrees>40.77571216039359569549560546875</LatitudeDegrees>
              <LongitudeDegrees>-4.06946025788784027099609375</LongitudeDegrees>
            </Position>
            <AltitudeMeters>1483.199951171875</AltitudeMeters>
            <DistanceMeters>NAN</DistanceMeters>
          </Trackpoint>
          <Trackpoint>
            <Time>2018-12-30T10:28:42.000Z</Time>
            <Position>
              <LatitudeDegrees>40.77571551315486431121826171875</LatitudeDegrees>
              <LongitudeDegrees>-4.0694574080407619476318359375</LongitudeDegrees>
            </Position>
            <AltitudeMeters>1483.199951171875</AltitudeMeters>
            <DistanceMeters>NAN</DistanceMeters>
          </Trackpoint>
          <Trackpoint>
            <Time>2018-12-30T10:28:43.000Z</Time>
            <Position>
              <LatitudeDegrees>40.77571702189743518829345703125</LatitudeDegrees>
              <LongitudeDegrees>-4.06945489346981048583984375</LongitudeDegrees>
            </Position>
            <AltitudeMeters>1483.199951171875</AltitudeMeters>
            <DistanceMeters>NAN</DistanceMeters>
          </Trackpoint>
          <Trackpoint>
            <Time>2018-12-30T10:28:44.000Z</Time>
            <Position>
              <LatitudeDegrees>40.77571802772581577301025390625</LatitudeDegrees>
              <LongitudeDegrees>-4.0694523788988590240478515625</LongitudeDegrees>
            </Position>
            <AltitudeMeters>1483.199951171875</AltitudeMeters>
            <DistanceMeters>NAN</DistanceMeters>
          </Trackpoint>
          <Trackpoint>
            <Time>2018-12-30T10:28:45.000Z</Time>
            <Position>
              <LatitudeDegrees>40.77571861445903778076171875</LatitudeDegrees>
              <LongitudeDegrees>-4.06945078633725643157958984375</LongitudeDegrees>
            </Position>
            <AltitudeMeters>1483.199951171875</AltitudeMeters>
            <DistanceMeters>NAN</DistanceMeters>
          </Trackpoint>
          <Trackpoint>
            <Time>2018-12-30T10:28:46.000Z</Time>
            <Position>
              <LatitudeDegrees>40.77572070993483066558837890625</LatitudeDegrees>
              <LongitudeDegrees>-4.06944843940436840057373046875</LongitudeDegrees>
            </Position>
            <AltitudeMeters>1483.199951171875</AltitudeMeters>
            <DistanceMeters>NAN</DistanceMeters>
          </Trackpoint>
          <Trackpoint>
            <Time>2018-12-30T10:28:47.000Z</Time>
            <Position>
              <LatitudeDegrees>40.77572473324835300445556640625</LatitudeDegrees>
              <LongitudeDegrees>-4.069446511566638946533203125</LongitudeDegrees>
            </Position>
            <AltitudeMeters>1483.199951171875</AltitudeMeters>
            <DistanceMeters>NAN</DistanceMeters>
          </Trackpoint>
          <Trackpoint>
            <Time>2018-12-30T10:28:48.000Z</Time>
            <Position>
              <LatitudeDegrees>40.7757258228957653045654296875</LatitudeDegrees>
              <LongitudeDegrees>-4.06944609247148036956787109375</LongitudeDegrees>
            </Position>
            <AltitudeMeters>1483.199951171875</AltitudeMeters>
            <DistanceMeters>NAN</DistanceMeters>
          </Trackpoint>
          <Trackpoint>
            <Time>2018-12-30T10:28:49.000Z</Time>
            <Position>
              <LatitudeDegrees>40.77572741545736789703369140625</LatitudeDegrees>
              <LongitudeDegrees>-4.069444835186004638671875</LongitudeDegrees>
            </Position>
            <AltitudeMeters>1483.199951171875</AltitudeMeters>
            <DistanceMeters>NAN</DistanceMeters>
          </Trackpoint>
          <Trackpoint>
            <Time>2018-12-30T10:28:50.000Z</Time>
            <Position>
              <LatitudeDegrees>40.77572607435286045074462890625</LatitudeDegrees>
              <LongitudeDegrees>-4.06944751739501953125</LongitudeDegrees>
            </Position>
            <AltitudeMeters>1483.199951171875</AltitudeMeters>
            <DistanceMeters>NAN</DistanceMeters>
          </Trackpoint>
          <Trackpoint>
            <Time>2018-12-30T10:28:51.000Z</Time>
            <Position>
              <LatitudeDegrees>40.7757234759628772735595703125</LatitudeDegrees>
              <LongitudeDegrees>-4.06944961287081241607666015625</LongitudeDegrees>
            </Position>
            <AltitudeMeters>1483.199951171875</AltitudeMeters>
            <DistanceMeters>NAN</DistanceMeters>
          </Trackpoint>
          <Trackpoint>
            <Time>2018-12-30T10:28:52.000Z</Time>
            <Position>
              <LatitudeDegrees>40.77572054229676723480224609375</LatitudeDegrees>
              <LongitudeDegrees>-4.06945246271789073944091796875</LongitudeDegrees>
            </Position>
            <AltitudeMeters>1483.199951171875</AltitudeMeters>
            <DistanceMeters>NAN</DistanceMeters>
          </Trackpoint>
          <Trackpoint>
            <Time>2018-12-30T10:28:53.000Z</Time>
            <Position>
              <LatitudeDegrees>40.775716938078403472900390625</LatitudeDegrees>
              <LongitudeDegrees>-4.0694557316601276397705078125</LongitudeDegrees>
            </Position>
            <AltitudeMeters>1483.199951171875</AltitudeMeters>
            <DistanceMeters>NAN</DistanceMeters>
          </Trackpoint>
          <Trackpoint>
            <Time>2018-12-30T10:28:54.000Z</Time>
            <Position>
              <LatitudeDegrees>40.7757130824029445648193359375</LatitudeDegrees>
              <LongitudeDegrees>-4.0694647841155529022216796875</LongitudeDegrees>
            </Position>
            <AltitudeMeters>1483.199951171875</AltitudeMeters>
            <DistanceMeters>NAN</DistanceMeters>
          </Trackpoint>
          <Trackpoint>
            <Time>2018-12-30T10:28:55.000Z</Time>
            <Position>
              <LatitudeDegrees>40.7757125794887542724609375</LatitudeDegrees>
              <LongitudeDegrees>-4.06947157345712184906005859375</LongitudeDegrees>
            </Position>
            <AltitudeMeters>1483.199951171875</AltitudeMeters>
            <DistanceMeters>NAN</DistanceMeters>
          </Trackpoint>
          <Trackpoint>
            <Time>2018-12-30T10:28:56.000Z</Time>
            <Position>
              <LatitudeDegrees>40.77570310793817043304443359375</LatitudeDegrees>
              <LongitudeDegrees>-4.06947769224643707275390625</LongitudeDegrees>
            </Position>
            <AltitudeMeters>1483.199951171875</AltitudeMeters>
            <DistanceMeters>NAN</DistanceMeters>
          </Trackpoint>
          <Trackpoint>
            <Time>2018-12-30T10:28:57.000Z</Time>
            <Position>
              <LatitudeDegrees>40.7757045328617095947265625</LatitudeDegrees>
              <LongitudeDegrees>-4.06947878189384937286376953125</LongitudeDegrees>
            </Position>
            <AltitudeMeters>1483.199951171875</AltitudeMeters>
            <DistanceMeters>NAN</DistanceMeters>
          </Trackpoint>
          <Trackpoint>
            <Time>2018-12-30T10:28:58.000Z</Time>
            <Position>
              <LatitudeDegrees>40.77570847235620021820068359375</LatitudeDegrees>
              <LongitudeDegrees>-4.06947392039000988006591796875</LongitudeDegrees>
            </Position>
            <AltitudeMeters>1483.199951171875</AltitudeMeters>
            <DistanceMeters>NAN</DistanceMeters>
          </Trackpoint>
          <Trackpoint>
            <Time>2018-12-30T10:28:59.000Z</Time>
            <Position>
              <LatitudeDegrees>40.77571266330778598785400390625</LatitudeDegrees>
              <LongitudeDegrees>-4.06946486793458461761474609375</LongitudeDegrees>
            </Position>
            <AltitudeMeters>1483.199951171875</AltitudeMeters>
            <DistanceMeters>NAN</DistanceMeters>
          </Trackpoint>
          <Trackpoint>
            <Time>2018-12-30T10:29:00.000Z</Time>
            <Position>
              <LatitudeDegrees>40.77571216039359569549560546875</LatitudeDegrees>
              <LongitudeDegrees>-4.06946201808750629425048828125</LongitudeDegrees>
            </Position>
            <AltitudeMeters>1483.199951171875</AltitudeMeters>
            <DistanceMeters>NAN</DistanceMeters>
          </Trackpoint>
          <Trackpoint>
            <Time>2018-12-30T10:29:01.000Z</Time>
            <Position>
              <LatitudeDegrees>40.77571517787873744964599609375</LatitudeDegrees>
              <LongitudeDegrees>-4.0694527141749858856201171875</LongitudeDegrees>
            </Position>
            <AltitudeMeters>1483.199951171875</AltitudeMeters>
            <DistanceMeters>NAN</DistanceMeters>
          </Trackpoint>
          <Trackpoint>
            <Time>2018-12-30T10:29:02.000Z</Time>
            <Position>
              <LatitudeDegrees>40.775717608630657196044921875</LatitudeDegrees>
              <LongitudeDegrees>-4.069448523223400115966796875</LongitudeDegrees>
            </Position>
            <AltitudeMeters>1483.199951171875</AltitudeMeters>
            <DistanceMeters>NAN</DistanceMeters>
          </Trackpoint>
          <Trackpoint>
            <Time>2018-12-30T10:29:03.000Z</Time>
            <Position>
              <LatitudeDegrees>40.77571668662130832672119140625</LatitudeDegrees>
              <LongitudeDegrees>-4.0694483555853366851806640625</LongitudeDegrees>
            </Position>
            <AltitudeMeters>1483.199951171875</AltitudeMeters>
            <DistanceMeters>NAN</DistanceMeters>
          </Trackpoint>
          <Trackpoint>
            <Time>2018-12-30T10:29:04.000Z</Time>
            <Position>
              <LatitudeDegrees>40.77571886591613292694091796875</LatitudeDegrees>
              <LongitudeDegrees>-4.06945112161338329315185546875</LongitudeDegrees>
            </Position>
            <AltitudeMeters>1483.199951171875</AltitudeMeters>
            <DistanceMeters>NAN</DistanceMeters>
          </Trackpoint>
          <Trackpoint>
            <Time>2018-12-30T10:29:05.000Z</Time>
            <Position>
              <LatitudeDegrees>40.77571886591613292694091796875</LatitudeDegrees>
              <LongitudeDegrees>-4.06945162452757358551025390625</LongitudeDegrees>
            </Position>
            <AltitudeMeters>1483.199951171875</AltitudeMeters>
            <DistanceMeters>NAN</DistanceMeters>
          </Trackpoint>
          <Trackpoint>
            <Time>2018-12-30T10:33:47.000Z</Time>
            <Position>
              <LatitudeDegrees>40.77683634124696254730224609375</LatitudeDegrees>
              <LongitudeDegrees>-4.06920008361339569091796875</LongitudeDegrees>
            </Position>
            <AltitudeMeters>1492.4000244140625</AltitudeMeters>
            <DistanceMeters>NAN</DistanceMeters>
          </Trackpoint>
          <Trackpoint>
            <Time>2018-12-30T10:33:48.000Z</Time>
            <Position>
              <LatitudeDegrees>40.77684874646365642547607421875</LatitudeDegrees>
              <LongitudeDegrees>-4.06921307556331157684326171875</LongitudeDegrees>
            </Position>
            <AltitudeMeters>1492.5999755859375</AltitudeMeters>
            <DistanceMeters>NAN</DistanceMeters>
          </Trackpoint>
          <Trackpoint>
            <Time>2018-12-30T10:33:49.000Z</Time>
            <Position>
              <LatitudeDegrees>40.776860229671001434326171875</LatitudeDegrees>
              <LongitudeDegrees>-4.06921911053359508514404296875</LongitudeDegrees>
            </Position>
            <AltitudeMeters>1492.800048828125</AltitudeMeters>
            <DistanceMeters>NAN</DistanceMeters>
          </Trackpoint>
          <Trackpoint>
            <Time>2018-12-30T10:33:50.000Z</Time>
            <Position>
              <LatitudeDegrees>40.77687037177383899688720703125</LatitudeDegrees>
              <LongitudeDegrees>-4.069221206009387969970703125</LongitudeDegrees>
            </Position>
            <AltitudeMeters>1492.800048828125</AltitudeMeters>
            <DistanceMeters>NAN</DistanceMeters>
          </Trackpoint>
          <Trackpoint>
            <Time>2018-12-30T10:33:51.000Z</Time>
            <Position>
              <LatitudeDegrees>40.77687137760221958160400390625</LatitudeDegrees>
              <LongitudeDegrees>-4.069211147725582122802734375</LongitudeDegrees>
            </Position>
            <AltitudeMeters>1492.800048828125</AltitudeMeters>
            <DistanceMeters>NAN</DistanceMeters>
          </Trackpoint>
          <Trackpoint>
            <Time>2018-12-30T10:33:52.000Z</Time>
            <Position>
              <LatitudeDegrees>40.7768798433244228363037109375</LatitudeDegrees>
              <LongitudeDegrees>-4.06921173445880413055419921875</LongitudeDegrees>
            </Position>
            <AltitudeMeters>1492.800048828125</AltitudeMeters>
            <DistanceMeters>NAN</DistanceMeters>
          </Trackpoint>
          <Trackpoint>
            <Time>2018-12-30T10:33:53.000Z</Time>
            <Position>
              <LatitudeDegrees>40.77688864432275295257568359375</LatitudeDegrees>
              <LongitudeDegrees>-4.06921441666781902313232421875</LongitudeDegrees>
            </Position>
            <AltitudeMeters>1492.800048828125</AltitudeMeters>
            <DistanceMeters>NAN</DistanceMeters>
          </Trackpoint>
          <Trackpoint>
            <Time>2018-12-30T10:33:54.000Z</Time>
            <Position>
              <LatitudeDegrees>40.77689719386398792266845703125</LatitudeDegrees>
              <LongitudeDegrees>-4.06921341083943843841552734375</LongitudeDegrees>
            </Position>
            <AltitudeMeters>1492.800048828125</AltitudeMeters>
            <DistanceMeters>NAN</DistanceMeters>
          </Trackpoint>
          <Trackpoint>
            <Time>2018-12-30T10:33:55.000Z</Time>
            <Position>
              <LatitudeDegrees>40.77690557576715946197509765625</LatitudeDegrees>
              <LongitudeDegrees>-4.0692146681249141693115234375</LongitudeDegrees>
            </Position>
            <AltitudeMeters>1493</AltitudeMeters>
            <DistanceMeters>NAN</DistanceMeters>
          </Trackpoint>
          <Trackpoint>
            <Time>2018-12-30T10:33:56.000Z</Time>
            <Position>
              <LatitudeDegrees>40.77691487967967987060546875</LatitudeDegrees>
              <LongitudeDegrees>-4.06921374611556529998779296875</LongitudeDegrees>
            </Position>
            <AltitudeMeters>1493</AltitudeMeters>
            <DistanceMeters>NAN</DistanceMeters>
          </Trackpoint>
          <Trackpoint>
            <Time>2018-12-30T10:33:57.000Z</Time>
            <Position>
              <LatitudeDegrees>40.77692158520221710205078125</LatitudeDegrees>
              <LongitudeDegrees>-4.0692190267145633697509765625</LongitudeDegrees>
            </Position>
            <AltitudeMeters>1493</AltitudeMeters>
            <DistanceMeters>NAN</DistanceMeters>
          </Trackpoint>
          <Trackpoint>
            <Time>2018-12-30T10:33:58.000Z</Time>
            <Position>
              <LatitudeDegrees>40.77693231403827667236328125</LatitudeDegrees>
              <LongitudeDegrees>-4.06922112219035625457763671875</LongitudeDegrees>
            </Position>
            <AltitudeMeters>1493.199951171875</AltitudeMeters>
            <DistanceMeters>NAN</DistanceMeters>
          </Trackpoint>
          <Trackpoint>
            <Time>2018-12-30T10:33:59.000Z</Time>
            <Position>
              <LatitudeDegrees>40.77695016749203205108642578125</LatitudeDegrees>
              <LongitudeDegrees>-4.06922212801873683929443359375</LongitudeDegrees>
            </Position>
            <AltitudeMeters>1493.199951171875</AltitudeMeters>
            <DistanceMeters>NAN</DistanceMeters>
          </Trackpoint>
          <Trackpoint>
            <Time>2018-12-30T10:34:00.000Z</Time>
            <Position>
              <LatitudeDegrees>40.77696609310805797576904296875</LatitudeDegrees>
              <LongitudeDegrees>-4.0692230500280857086181640625</LongitudeDegrees>
            </Position>
            <AltitudeMeters>1493.4000244140625</AltitudeMeters>
            <DistanceMeters>NAN</DistanceMeters>
          </Trackpoint>
          <Trackpoint>
            <Time>2018-12-30T10:34:01.000Z</Time>
            <Position>
              <LatitudeDegrees>40.77697833068668842315673828125</LatitudeDegrees>
              <LongitudeDegrees>-4.06923000700771808624267578125</LongitudeDegrees>
            </Position>
            <AltitudeMeters>1493.4000244140625</AltitudeMeters>
            <DistanceMeters>NAN</DistanceMeters>
          </Trackpoint>
          <Trackpoint>
            <Time>2018-12-30T10:34:02.000Z</Time>
            <Position>
              <LatitudeDegrees>40.77699224464595317840576171875</LatitudeDegrees>
              <LongitudeDegrees>-4.06923805363476276397705078125</LongitudeDegrees>
            </Position>
            <AltitudeMeters>1493.4000244140625</AltitudeMeters>
            <DistanceMeters>NAN</DistanceMeters>
          </Trackpoint>
          <Trackpoint>
            <Time>2018-12-30T10:34:03.000Z</Time>
            <Position>
              <LatitudeDegrees>40.77700649388134479522705078125</LatitudeDegrees>
              <LongitudeDegrees>-4.06924434006214141845703125</LongitudeDegrees>
            </Position>
            <AltitudeMeters>1493.5999755859375</AltitudeMeters>
            <DistanceMeters>NAN</DistanceMeters>
          </Trackpoint>
          <Trackpoint>
            <Time>2018-12-30T10:34:04.000Z</Time>
            <Position>
              <LatitudeDegrees>40.777014456689357757568359375</LatitudeDegrees>
              <LongitudeDegrees>-4.06925414688885211944580078125</LongitudeDegrees>
            </Position>
            <AltitudeMeters>1493.800048828125</AltitudeMeters>
            <DistanceMeters>NAN</DistanceMeters>
          </Trackpoint>
          <Trackpoint>
            <Time>2018-12-30T10:34:05.000Z</Time>
            <Position>
              <LatitudeDegrees>40.777024514973163604736328125</LatitudeDegrees>
              <LongitudeDegrees>-4.069250039756298065185546875</LongitudeDegrees>
            </Position>
            <AltitudeMeters>1494</AltitudeMeters>
            <DistanceMeters>NAN</DistanceMeters>
          </Trackpoint>
          <Trackpoint>
            <Time>2018-12-30T10:34:06.000Z</Time>
            <Position>
              <LatitudeDegrees>40.77703515999019145965576171875</LatitudeDegrees>
              <LongitudeDegrees>-4.069246686995029449462890625</LongitudeDegrees>
            </Position>
            <AltitudeMeters>1494</AltitudeMeters>
            <DistanceMeters>NAN</DistanceMeters>
          </Trackpoint>
          <Trackpoint>
            <Time>2018-12-30T10:34:07.000Z</Time>
            <Position>
              <LatitudeDegrees>40.7770451344549655914306640625</LatitudeDegrees>
              <LongitudeDegrees>-4.0692404843866825103759765625</LongitudeDegrees>
            </Position>
            <AltitudeMeters>1494.199951171875</AltitudeMeters>
            <DistanceMeters>NAN</DistanceMeters>
          </Trackpoint>
          <Trackpoint>
            <Time>2018-12-30T10:34:08.000Z</Time>
            <Position>
              <LatitudeDegrees>40.7770498283207416534423828125</LatitudeDegrees>
              <LongitudeDegrees>-4.0692280791699886322021484375</LongitudeDegrees>
            </Position>
            <AltitudeMeters>1494.199951171875</AltitudeMeters>
            <DistanceMeters>NAN</DistanceMeters>
          </Trackpoint>
          <Trackpoint>
            <Time>2018-12-30T10:34:09.000Z</Time>
            <Position>
              <LatitudeDegrees>40.77706801705062389373779296875</LatitudeDegrees>
              <LongitudeDegrees>-4.0692213736474514007568359375</LongitudeDegrees>
            </Position>
            <AltitudeMeters>1494.199951171875</AltitudeMeters>
            <DistanceMeters>NAN</DistanceMeters>
          </Trackpoint>
          <Trackpoint>
            <Time>2018-12-30T10:34:10.000Z</Time>
            <Position>
              <LatitudeDegrees>40.7770813442766666412353515625</LatitudeDegrees>
              <LongitudeDegrees>-4.0692180208861827850341796875</LongitudeDegrees>
            </Position>
            <AltitudeMeters>1494.199951171875</AltitudeMeters>
            <DistanceMeters>NAN</DistanceMeters>
          </Trackpoint>
          <Trackpoint>
            <Time>2018-12-30T10:34:11.000Z</Time>
            <Position>
              <LatitudeDegrees>40.77709056437015533447265625</LatitudeDegrees>
              <LongitudeDegrees>-4.06921005807816982269287109375</LongitudeDegrees>
            </Position>
            <AltitudeMeters>1494.199951171875</AltitudeMeters>
            <DistanceMeters>NAN</DistanceMeters>
          </Trackpoint>
          <Trackpoint>
            <Time>2018-12-30T10:34:12.000Z</Time>
            <Position>
              <LatitudeDegrees>40.77710053883492946624755859375</LatitudeDegrees>
              <LongitudeDegrees>-4.06919849105179309844970703125</LongitudeDegrees>
            </Position>
            <AltitudeMeters>1494.199951171875</AltitudeMeters>
            <DistanceMeters>NAN</DistanceMeters>
          </Trackpoint>
          <Trackpoint>
            <Time>2018-12-30T10:34:13.000Z</Time>
            <Position>
              <LatitudeDegrees>40.77710875310003757476806640625</LatitudeDegrees>
              <LongitudeDegrees>-4.06918994151055812835693359375</LongitudeDegrees>
            </Position>
            <AltitudeMeters>1494.4000244140625</AltitudeMeters>
            <DistanceMeters>NAN</DistanceMeters>
          </Trackpoint>
          <Trackpoint>
            <Time>2018-12-30T10:34:14.000Z</Time>
            <Position>
              <LatitudeDegrees>40.77711529098451137542724609375</LatitudeDegrees>
              <LongitudeDegrees>-4.0691792964935302734375</LongitudeDegrees>
            </Position>
            <AltitudeMeters>1494.5999755859375</AltitudeMeters>
            <DistanceMeters>NAN</DistanceMeters>
          </Trackpoint>
          <Trackpoint>
            <Time>2018-12-30T10:34:15.000Z</Time>
            <Position>
              <LatitudeDegrees>40.7771276123821735382080078125</LatitudeDegrees>
              <LongitudeDegrees>-4.0691737644374370574951171875</LongitudeDegrees>
            </Position>
            <AltitudeMeters>1494.5999755859375</AltitudeMeters>
            <DistanceMeters>NAN</DistanceMeters>
          </Trackpoint>
          <Trackpoint>
            <Time>2018-12-30T10:34:16.000Z</Time>
            <Position>
              <LatitudeDegrees>40.77713909558951854705810546875</LatitudeDegrees>
              <LongitudeDegrees>-4.0691700764000415802001953125</LongitudeDegrees>
            </Position>
            <AltitudeMeters>1494.4000244140625</AltitudeMeters>
            <DistanceMeters>NAN</DistanceMeters>
          </Trackpoint>
          <Trackpoint>
            <Time>2018-12-30T10:34:17.000Z</Time>
            <Position>
              <LatitudeDegrees>40.777143537998199462890625</LatitudeDegrees>
              <LongitudeDegrees>-4.0691600181162357330322265625</LongitudeDegrees>
            </Position>
            <AltitudeMeters>1494.4000244140625</AltitudeMeters>
            <DistanceMeters>NAN</DistanceMeters>
          </Trackpoint>
          <Trackpoint>
            <Time>2018-12-30T10:34:18.000Z</Time>
            <Position>
              <LatitudeDegrees>40.777151584625244140625</LatitudeDegrees>
              <LongitudeDegrees>-4.06915239058434963226318359375</LongitudeDegrees>
            </Position>
            <AltitudeMeters>1494.199951171875</AltitudeMeters>
            <DistanceMeters>NAN</DistanceMeters>
          </Trackpoint>
          <Trackpoint>
            <Time>2018-12-30T10:34:19.000Z</Time>
            <Position>
              <LatitudeDegrees>40.7771628163754940032958984375</LatitudeDegrees>
              <LongitudeDegrees>-4.069152139127254486083984375</LongitudeDegrees>
            </Position>
            <AltitudeMeters>1494.199951171875</AltitudeMeters>
            <DistanceMeters>NAN</DistanceMeters>
          </Trackpoint>
          <Trackpoint>
            <Time>2018-12-30T10:34:20.000Z</Time>
            <Position>
              <LatitudeDegrees>40.777176730334758758544921875</LatitudeDegrees>
              <LongitudeDegrees>-4.06914635561406612396240234375</LongitudeDegrees>
            </Position>
            <AltitudeMeters>1494</AltitudeMeters>
            <DistanceMeters>NAN</DistanceMeters>
          </Trackpoint>
          <Trackpoint>
            <Time>2018-12-30T10:34:21.000Z</Time>
            <Position>
              <LatitudeDegrees>40.77719357796013355255126953125</LatitudeDegrees>
              <LongitudeDegrees>-4.06914107501506805419921875</LongitudeDegrees>
            </Position>
            <AltitudeMeters>1494</AltitudeMeters>
            <DistanceMeters>NAN</DistanceMeters>
          </Trackpoint>
          <Trackpoint>
            <Time>2018-12-30T10:34:22.000Z</Time>
            <Position>
              <LatitudeDegrees>40.77720983885228633880615234375</LatitudeDegrees>
              <LongitudeDegrees>-4.0691439248621463775634765625</LongitudeDegrees>
            </Position>
            <AltitudeMeters>1494</AltitudeMeters>
            <DistanceMeters>NAN</DistanceMeters>
          </Trackpoint>
          <Trackpoint>
            <Time>2018-12-30T10:34:23.000Z</Time>
            <Position>
              <LatitudeDegrees>40.77722643502056598663330078125</LatitudeDegrees>
              <LongitudeDegrees>-4.06914484687149524688720703125</LongitudeDegrees>
            </Position>
            <AltitudeMeters>1494</AltitudeMeters>
            <DistanceMeters>NAN</DistanceMeters>
          </Trackpoint>
          <Trackpoint>
            <Time>2018-12-30T10:34:24.000Z</Time>
            <Position>
              <LatitudeDegrees>40.7772375829517841339111328125</LatitudeDegrees>
              <LongitudeDegrees>-4.069147445261478424072265625</LongitudeDegrees>
            </Position>
            <AltitudeMeters>1494</AltitudeMeters>
            <DistanceMeters>NAN</DistanceMeters>
          </Trackpoint>
          <Trackpoint>
            <Time>2018-12-30T10:34:25.000Z</Time>
            <Position>
              <LatitudeDegrees>40.77724990434944629669189453125</LatitudeDegrees>
              <LongitudeDegrees>-4.06915574334561824798583984375</LongitudeDegrees>
            </Position>
            <AltitudeMeters>1494.199951171875</AltitudeMeters>
            <DistanceMeters>NAN</DistanceMeters>
          </Trackpoint>
          <Trackpoint>
            <Time>2018-12-30T10:34:26.000Z</Time>
            <Position>
              <LatitudeDegrees>40.7772644050419330596923828125</LatitudeDegrees>
              <LongitudeDegrees>-4.0691645443439483642578125</LongitudeDegrees>
            </Position>
            <AltitudeMeters>1494.199951171875</AltitudeMeters>
            <DistanceMeters>NAN</DistanceMeters>
          </Trackpoint>
          <Trackpoint>
            <Time>2018-12-30T10:34:27.000Z</Time>
            <Position>
              <LatitudeDegrees>40.7772758044302463531494140625</LatitudeDegrees>
              <LongitudeDegrees>-4.06917703337967395782470703125</LongitudeDegrees>
            </Position>
            <AltitudeMeters>1494.199951171875</AltitudeMeters>
            <DistanceMeters>NAN</DistanceMeters>
          </Trackpoint>
          <Trackpoint>
            <Time>2018-12-30T10:34:28.000Z</Time>
            <Position>
              <LatitudeDegrees>40.777286030352115631103515625</LatitudeDegrees>
              <LongitudeDegrees>-4.06918658874928951263427734375</LongitudeDegrees>
            </Position>
            <AltitudeMeters>1494.199951171875</AltitudeMeters>
            <DistanceMeters>NAN</DistanceMeters>
          </Trackpoint>
          <Trackpoint>
            <Time>2018-12-30T10:34:29.000Z</Time>
            <Position>
              <LatitudeDegrees>40.7772962562739849090576171875</LatitudeDegrees>
              <LongitudeDegrees>-4.0691915340721607208251953125</LongitudeDegrees>
            </Position>
            <AltitudeMeters>1494.4000244140625</AltitudeMeters>
            <DistanceMeters>NAN</DistanceMeters>
          </Trackpoint>
          <Trackpoint>
            <Time>2018-12-30T10:34:30.000Z</Time>
            <Position>
              <LatitudeDegrees>40.7773130200803279876708984375</LatitudeDegrees>
              <LongitudeDegrees>-4.06919530592858791351318359375</LongitudeDegrees>
            </Position>
            <AltitudeMeters>1494.5999755859375</AltitudeMeters>
            <DistanceMeters>NAN</DistanceMeters>
          </Trackpoint>
          <Trackpoint>
            <Time>2018-12-30T10:34:31.000Z</Time>
            <Position>
              <LatitudeDegrees>40.7773272693157196044921875</LatitudeDegrees>
              <LongitudeDegrees>-4.0692025981843471527099609375</LongitudeDegrees>
            </Position>
            <AltitudeMeters>1495</AltitudeMeters>
            <DistanceMeters>NAN</DistanceMeters>
          </Trackpoint>
          <Trackpoint>
            <Time>2018-12-30T10:34:32.000Z</Time>
            <Position>
              <LatitudeDegrees>40.77734000980854034423828125</LatitudeDegrees>
              <LongitudeDegrees>-4.0692046098411083221435546875</LongitudeDegrees>
            </Position>
            <AltitudeMeters>1495.199951171875</AltitudeMeters>
            <DistanceMeters>NAN</DistanceMeters>
          </Trackpoint>
          <Trackpoint>
            <Time>2018-12-30T10:34:33.000Z</Time>
            <Position>
              <LatitudeDegrees>40.77735400758683681488037109375</LatitudeDegrees>
              <LongitudeDegrees>-4.06920804642140865325927734375</LongitudeDegrees>
            </Position>
            <AltitudeMeters>1495.4000244140625</AltitudeMeters>
            <DistanceMeters>NAN</DistanceMeters>
          </Trackpoint>
          <Trackpoint>
            <Time>2018-12-30T10:34:34.000Z</Time>
            <Position>
              <LatitudeDegrees>40.777363143861293792724609375</LatitudeDegrees>
              <LongitudeDegrees>-4.06920611858367919921875</LongitudeDegrees>
            </Position>
            <AltitudeMeters>1495.5999755859375</AltitudeMeters>
            <DistanceMeters>NAN</DistanceMeters>
          </Trackpoint>
          <Trackpoint>
            <Time>2018-12-30T10:34:35.000Z</Time>
            <Position>
              <LatitudeDegrees>40.7773723639547824859619140625</LatitudeDegrees>
              <LongitudeDegrees>-4.06920955516397953033447265625</LongitudeDegrees>
            </Position>
            <AltitudeMeters>1495.5999755859375</AltitudeMeters>
            <DistanceMeters>NAN</DistanceMeters>
          </Trackpoint>
          <Trackpoint>
            <Time>2018-12-30T10:34:36.000Z</Time>
            <Position>
              <LatitudeDegrees>40.77738066203892230987548828125</LatitudeDegrees>
              <LongitudeDegrees>-4.0692119859158992767333984375</LongitudeDegrees>
            </Position>
            <AltitudeMeters>1495.5999755859375</AltitudeMeters>
            <DistanceMeters>NAN</DistanceMeters>
          </Trackpoint>
          <Trackpoint>
            <Time>2018-12-30T10:34:37.000Z</Time>
            <Position>
              <LatitudeDegrees>40.77739105559885501861572265625</LatitudeDegrees>
              <LongitudeDegrees>-4.069213829934597015380859375</LongitudeDegrees>
            </Position>
            <AltitudeMeters>1495.5999755859375</AltitudeMeters>
            <DistanceMeters>NAN</DistanceMeters>
          </Trackpoint>
          <Trackpoint>
            <Time>2018-12-30T10:34:38.000Z</Time>
            <Position>
              <LatitudeDegrees>40.7773985154926776885986328125</LatitudeDegrees>
              <LongitudeDegrees>-4.0692173503339290618896484375</LongitudeDegrees>
            </Position>
            <AltitudeMeters>1495.4000244140625</AltitudeMeters>
            <DistanceMeters>NAN</DistanceMeters>
          </Trackpoint>
          <Trackpoint>
            <Time>2018-12-30T10:34:39.000Z</Time>
            <Position>
              <LatitudeDegrees>40.7774085737764835357666015625</LatitudeDegrees>
              <LongitudeDegrees>-4.0692217089235782623291015625</LongitudeDegrees>
            </Position>
            <AltitudeMeters>1495.4000244140625</AltitudeMeters>
            <DistanceMeters>NAN</DistanceMeters>
          </Trackpoint>
          <Trackpoint>
            <Time>2018-12-30T10:34:40.000Z</Time>
            <Position>
              <LatitudeDegrees>40.77742047607898712158203125</LatitudeDegrees>
              <LongitudeDegrees>-4.06921911053359508514404296875</LongitudeDegrees>
            </Position>
            <AltitudeMeters>1495.4000244140625</AltitudeMeters>
            <DistanceMeters>NAN</DistanceMeters>
          </Trackpoint>
          <Trackpoint>
            <Time>2018-12-30T10:34:41.000Z</Time>
            <Position>
              <LatitudeDegrees>40.77742693014442920684814453125</LatitudeDegrees>
              <LongitudeDegrees>-4.069225229322910308837890625</LongitudeDegrees>
            </Position>
            <AltitudeMeters>1495.5999755859375</AltitudeMeters>
            <DistanceMeters>NAN</DistanceMeters>
          </Trackpoint>
          <Trackpoint>
            <Time>2018-12-30T10:34:42.000Z</Time>
            <Position>
              <LatitudeDegrees>40.77743589878082275390625</LatitudeDegrees>
              <LongitudeDegrees>-4.06923704780638217926025390625</LongitudeDegrees>
            </Position>
            <AltitudeMeters>1495.5999755859375</AltitudeMeters>
            <DistanceMeters>NAN</DistanceMeters>
          </Trackpoint>
          <Trackpoint>
            <Time>2018-12-30T10:34:43.000Z</Time>
            <Position>
              <LatitudeDegrees>40.7774400897324085235595703125</LatitudeDegrees>
              <LongitudeDegrees>-4.06924677081406116485595703125</LongitudeDegrees>
            </Position>
            <AltitudeMeters>1495.800048828125</AltitudeMeters>
            <DistanceMeters>NAN</DistanceMeters>
          </Trackpoint>
          <Trackpoint>
            <Time>2018-12-30T10:34:44.000Z</Time>
            <Position>
              <LatitudeDegrees>40.7774524949491024017333984375</LatitudeDegrees>
              <LongitudeDegrees>-4.0692572481930255889892578125</LongitudeDegrees>
            </Position>
            <AltitudeMeters>1496</AltitudeMeters>
            <DistanceMeters>NAN</DistanceMeters>
          </Trackpoint>
          <Trackpoint>
            <Time>2018-12-30T10:34:45.000Z</Time>
            <Position>
              <LatitudeDegrees>40.7774640619754791259765625</LatitudeDegrees>
              <LongitudeDegrees>-4.06926311552524566650390625</LongitudeDegrees>
            </Position>
            <AltitudeMeters>1496.199951171875</AltitudeMeters>
            <DistanceMeters>NAN</DistanceMeters>
          </Trackpoint>
          <Trackpoint>
            <Time>2018-12-30T10:34:46.000Z</Time>
            <Position>
              <LatitudeDegrees>40.77747956849634647369384765625</LatitudeDegrees>
              <LongitudeDegrees>-4.0692733414471149444580078125</LongitudeDegrees>
            </Position>
            <AltitudeMeters>1496.4000244140625</AltitudeMeters>
            <DistanceMeters>NAN</DistanceMeters>
          </Trackpoint>
          <Trackpoint>
            <Time>2018-12-30T10:34:47.000Z</Time>
            <Position>
              <LatitudeDegrees>40.777494572103023529052734375</LatitudeDegrees>
              <LongitudeDegrees>-4.069282226264476776123046875</LongitudeDegrees>
            </Position>
            <AltitudeMeters>1496.800048828125</AltitudeMeters>
            <DistanceMeters>NAN</DistanceMeters>
          </Trackpoint>
          <Trackpoint>
            <Time>2018-12-30T10:34:48.000Z</Time>
            <Position>
              <LatitudeDegrees>40.7775104977190494537353515625</LatitudeDegrees>
              <LongitudeDegrees>-4.0692906081676483154296875</LongitudeDegrees>
            </Position>
            <AltitudeMeters>1497.199951171875</AltitudeMeters>
            <DistanceMeters>NAN</DistanceMeters>
          </Trackpoint>
          <Trackpoint>
            <Time>2018-12-30T10:34:49.000Z</Time>
            <Position>
              <LatitudeDegrees>40.7775235734879970550537109375</LatitudeDegrees>
              <LongitudeDegrees>-4.06929890625178813934326171875</LongitudeDegrees>
            </Position>
            <AltitudeMeters>1497.4000244140625</AltitudeMeters>
            <DistanceMeters>NAN</DistanceMeters>
          </Trackpoint>
          <Trackpoint>
            <Time>2018-12-30T10:34:50.000Z</Time>
            <Position>
              <LatitudeDegrees>40.77753120101988315582275390625</LatitudeDegrees>
              <LongitudeDegrees>-4.0693031810224056243896484375</LongitudeDegrees>
            </Position>
            <AltitudeMeters>1497.4000244140625</AltitudeMeters>
            <DistanceMeters>NAN</DistanceMeters>
          </Trackpoint>
          <Trackpoint>
            <Time>2018-12-30T10:34:51.000Z</Time>
            <Position>
              <LatitudeDegrees>40.77754042111337184906005859375</LatitudeDegrees>
              <LongitudeDegrees>-4.0693120658397674560546875</LongitudeDegrees>
            </Position>
            <AltitudeMeters>1497.5999755859375</AltitudeMeters>
            <DistanceMeters>NAN</DistanceMeters>
          </Trackpoint>
          <Trackpoint>
            <Time>2018-12-30T10:34:52.000Z</Time>
            <Position>
              <LatitudeDegrees>40.7775487191975116729736328125</LatitudeDegrees>
              <LongitudeDegrees>-4.0693159215152263641357421875</LongitudeDegrees>
            </Position>
            <AltitudeMeters>1497.5999755859375</AltitudeMeters>
            <DistanceMeters>NAN</DistanceMeters>
          </Trackpoint>
          <Trackpoint>
            <Time>2018-12-30T10:34:53.000Z</Time>
            <Position>
              <LatitudeDegrees>40.77755902893841266632080078125</LatitudeDegrees>
              <LongitudeDegrees>-4.06932187266647815704345703125</LongitudeDegrees>
            </Position>
            <AltitudeMeters>1497.800048828125</AltitudeMeters>
            <DistanceMeters>NAN</DistanceMeters>
          </Trackpoint>
          <Trackpoint>
            <Time>2018-12-30T10:34:54.000Z</Time>
            <Position>
              <LatitudeDegrees>40.7775715179741382598876953125</LatitudeDegrees>
              <LongitudeDegrees>-4.06932656653225421905517578125</LongitudeDegrees>
            </Position>
            <AltitudeMeters>1498</AltitudeMeters>
            <DistanceMeters>NAN</DistanceMeters>
          </Trackpoint>
          <Trackpoint>
            <Time>2018-12-30T10:34:55.000Z</Time>
            <Position>
              <LatitudeDegrees>40.77758585102856159210205078125</LatitudeDegrees>
              <LongitudeDegrees>-4.0693427436053752899169921875</LongitudeDegrees>
            </Position>
            <AltitudeMeters>1498</AltitudeMeters>
            <DistanceMeters>NAN</DistanceMeters>
          </Trackpoint>
          <Trackpoint>
            <Time>2018-12-30T10:34:56.000Z</Time>
            <Position>
              <LatitudeDegrees>40.77761761844158172607421875</LatitudeDegrees>
              <LongitudeDegrees>-4.069375433027744293212890625</LongitudeDegrees>
            </Position>
            <AltitudeMeters>1498.199951171875</AltitudeMeters>
            <DistanceMeters>NAN</DistanceMeters>
          </Trackpoint>
          <Trackpoint>
            <Time>2018-12-30T10:34:57.000Z</Time>
            <Position>
              <LatitudeDegrees>40.77761761844158172607421875</LatitudeDegrees>
              <LongitudeDegrees>-4.069375433027744293212890625</LongitudeDegrees>
            </Position>
            <AltitudeMeters>1498.5999755859375</AltitudeMeters>
            <DistanceMeters>NAN</DistanceMeters>
          </Trackpoint>
          <Trackpoint>
            <Time>2018-12-30T10:34:58.000Z</Time>
            <Position>
              <LatitudeDegrees>40.777631700038909912109375</LatitudeDegrees>
              <LongitudeDegrees>-4.069384150207042694091796875</LongitudeDegrees>
            </Position>
            <AltitudeMeters>1499</AltitudeMeters>
            <DistanceMeters>NAN</DistanceMeters>
          </Trackpoint>
          <Trackpoint>
            <Time>2018-12-30T10:34:59.000Z</Time>
            <Position>
              <LatitudeDegrees>40.7776389084756374359130859375</LatitudeDegrees>
              <LongitudeDegrees>-4.06939077191054821014404296875</LongitudeDegrees>
            </Position>
            <AltitudeMeters>1499.4000244140625</AltitudeMeters>
            <DistanceMeters>NAN</DistanceMeters>
          </Trackpoint>
          <Trackpoint>
            <Time>2018-12-30T10:35:00.000Z</Time>
            <Position>
              <LatitudeDegrees>40.77764838002622127532958984375</LatitudeDegrees>
              <LongitudeDegrees>-4.06939714215695858001708984375</LongitudeDegrees>
            </Position>
            <AltitudeMeters>1499.5999755859375</AltitudeMeters>
            <DistanceMeters>NAN</DistanceMeters>
          </Trackpoint>
          <Trackpoint>
            <Time>2018-12-30T10:35:01.000Z</Time>
            <Position>
              <LatitudeDegrees>40.77765491791069507598876953125</LatitudeDegrees>
              <LongitudeDegrees>-4.0694044344127178192138671875</LongitudeDegrees>
            </Position>
            <AltitudeMeters>1499.800048828125</AltitudeMeters>
            <DistanceMeters>NAN</DistanceMeters>
          </Trackpoint>
          <Trackpoint>
            <Time>2018-12-30T10:35:02.000Z</Time>
            <Position>
              <LatitudeDegrees>40.7776620425283908843994140625</LatitudeDegrees>
              <LongitudeDegrees>-4.069412648677825927734375</LongitudeDegrees>
            </Position>
            <AltitudeMeters>1500</AltitudeMeters>
            <DistanceMeters>NAN</DistanceMeters>
          </Trackpoint>
          <Trackpoint>
            <Time>2018-12-30T10:35:03.000Z</Time>
            <Position>
              <LatitudeDegrees>40.77766816131770610809326171875</LatitudeDegrees>
              <LongitudeDegrees>-4.0694205276668071746826171875</LongitudeDegrees>
            </Position>
            <AltitudeMeters>1500.199951171875</AltitudeMeters>
            <DistanceMeters>NAN</DistanceMeters>
          </Trackpoint>
          <Trackpoint>
            <Time>2018-12-30T10:35:04.000Z</Time>
            <Position>
              <LatitudeDegrees>40.77768039889633655548095703125</LatitudeDegrees>
              <LongitudeDegrees>-4.0694315917789936065673828125</LongitudeDegrees>
            </Position>
            <AltitudeMeters>1500.199951171875</AltitudeMeters>
            <DistanceMeters>NAN</DistanceMeters>
          </Trackpoint>
          <Trackpoint>
            <Time>2018-12-30T10:35:05.000Z</Time>
            <Position>
              <LatitudeDegrees>40.777689032256603240966796875</LatitudeDegrees>
              <LongitudeDegrees>-4.0694376267492771148681640625</LongitudeDegrees>
            </Position>
            <AltitudeMeters>1500.199951171875</AltitudeMeters>
            <DistanceMeters>NAN</DistanceMeters>
          </Trackpoint>
          <Trackpoint>
            <Time>2018-12-30T10:35:06.000Z</Time>
            <Position>
              <LatitudeDegrees>40.7776952348649501800537109375</LatitudeDegrees>
              <LongitudeDegrees>-4.06943821348249912261962890625</LongitudeDegrees>
            </Position>
            <AltitudeMeters>1500.199951171875</AltitudeMeters>
            <DistanceMeters>NAN</DistanceMeters>
          </Trackpoint>
          <Trackpoint>
            <Time>2018-12-30T10:35:07.000Z</Time>
            <Position>
              <LatitudeDegrees>40.77770135365426540374755859375</LatitudeDegrees>
              <LongitudeDegrees>-4.0694354474544525146484375</LongitudeDegrees>
            </Position>
            <AltitudeMeters>1500.199951171875</AltitudeMeters>
            <DistanceMeters>NAN</DistanceMeters>
          </Trackpoint>
          <Trackpoint>
            <Time>2018-12-30T10:35:08.000Z</Time>
            <Position>
              <LatitudeDegrees>40.777719877660274505615234375</LatitudeDegrees>
              <LongitudeDegrees>-4.06942899338901042938232421875</LongitudeDegrees>
            </Position>
            <AltitudeMeters>1500.199951171875</AltitudeMeters>
            <DistanceMeters>NAN</DistanceMeters>
          </Trackpoint>
          <Trackpoint>
            <Time>2018-12-30T10:35:09.000Z</Time>
            <Position>
              <LatitudeDegrees>40.77773722819983959197998046875</LatitudeDegrees>
              <LongitudeDegrees>-4.06942480243742465972900390625</LongitudeDegrees>
            </Position>
            <AltitudeMeters>1500.199951171875</AltitudeMeters>
            <DistanceMeters>NAN</DistanceMeters>
          </Trackpoint>
          <Trackpoint>
            <Time>2018-12-30T10:35:10.000Z</Time>
            <Position>
              <LatitudeDegrees>40.777755081653594970703125</LatitudeDegrees>
              <LongitudeDegrees>-4.0694198571145534515380859375</LongitudeDegrees>
            </Position>
            <AltitudeMeters>1500.199951171875</AltitudeMeters>
            <DistanceMeters>NAN</DistanceMeters>
          </Trackpoint>
          <Trackpoint>
            <Time>2018-12-30T10:35:11.000Z</Time>
            <Position>
              <LatitudeDegrees>40.7777700014412403106689453125</LatitudeDegrees>
              <LongitudeDegrees>-4.06940770335495471954345703125</LongitudeDegrees>
            </Position>
            <AltitudeMeters>1500.199951171875</AltitudeMeters>
            <DistanceMeters>NAN</DistanceMeters>
          </Trackpoint>
          <Trackpoint>
            <Time>2018-12-30T10:35:12.000Z</Time>
            <Position>
              <LatitudeDegrees>40.777778886258602142333984375</LatitudeDegrees>
              <LongitudeDegrees>-4.06939898617565631866455078125</LongitudeDegrees>
            </Position>
            <AltitudeMeters>1500.199951171875</AltitudeMeters>
            <DistanceMeters>NAN</DistanceMeters>
          </Trackpoint>
          <Trackpoint>
            <Time>2018-12-30T10:35:13.000Z</Time>
            <Position>
              <LatitudeDegrees>40.7777948118746280670166015625</LatitudeDegrees>
              <LongitudeDegrees>-4.0693916939198970794677734375</LongitudeDegrees>
            </Position>
            <AltitudeMeters>1500.199951171875</AltitudeMeters>
            <DistanceMeters>NAN</DistanceMeters>
          </Trackpoint>
          <Trackpoint>
            <Time>2018-12-30T10:35:14.000Z</Time>
            <Position>
              <LatitudeDegrees>40.77780931256711483001708984375</LatitudeDegrees>
              <LongitudeDegrees>-4.06938222236931324005126953125</LongitudeDegrees>
            </Position>
            <AltitudeMeters>1500</AltitudeMeters>
            <DistanceMeters>NAN</DistanceMeters>
          </Trackpoint>
          <Trackpoint>
            <Time>2018-12-30T10:35:15.000Z</Time>
            <Position>
              <LatitudeDegrees>40.7778206281363964080810546875</LatitudeDegrees>
              <LongitudeDegrees>-4.06937032006680965423583984375</LongitudeDegrees>
            </Position>
            <AltitudeMeters>1500.199951171875</AltitudeMeters>
            <DistanceMeters>NAN</DistanceMeters>
          </Trackpoint>
          <Trackpoint>
            <Time>2018-12-30T10:35:16.000Z</Time>
            <Position>
              <LatitudeDegrees>40.77782741747796535491943359375</LatitudeDegrees>
              <LongitudeDegrees>-4.06935271807014942169189453125</LongitudeDegrees>
            </Position>
            <AltitudeMeters>1500.199951171875</AltitudeMeters>
            <DistanceMeters>NAN</DistanceMeters>
          </Trackpoint>
          <Trackpoint>
            <Time>2018-12-30T10:35:17.000Z</Time>
            <Position>
              <LatitudeDegrees>40.7778353802859783172607421875</LatitudeDegrees>
              <LongitudeDegrees>-4.06933729536831378936767578125</LongitudeDegrees>
            </Position>
            <AltitudeMeters>1500.4000244140625</AltitudeMeters>
            <DistanceMeters>NAN</DistanceMeters>
          </Trackpoint>
          <Trackpoint>
            <Time>2018-12-30T10:35:18.000Z</Time>
            <Position>
              <LatitudeDegrees>40.77784535475075244903564453125</LatitudeDegrees>
              <LongitudeDegrees>-4.06933293677866458892822265625</LongitudeDegrees>
            </Position>
            <AltitudeMeters>1500.4000244140625</AltitudeMeters>
            <DistanceMeters>NAN</DistanceMeters>
          </Trackpoint>
          <Trackpoint>
            <Time>2018-12-30T10:35:19.000Z</Time>
            <Position>
              <LatitudeDegrees>40.7778511382639408111572265625</LatitudeDegrees>
              <LongitudeDegrees>-4.06932220794260501861572265625</LongitudeDegrees>
            </Position>
            <AltitudeMeters>1500.4000244140625</AltitudeMeters>
            <DistanceMeters>NAN</DistanceMeters>
          </Trackpoint>
          <Trackpoint>
            <Time>2018-12-30T10:35:20.000Z</Time>
            <Position>
              <LatitudeDegrees>40.777854658663272857666015625</LatitudeDegrees>
              <LongitudeDegrees>-4.06931340694427490234375</LongitudeDegrees>
            </Position>
            <AltitudeMeters>1500.4000244140625</AltitudeMeters>
            <DistanceMeters>NAN</DistanceMeters>
          </Trackpoint>
          <Trackpoint>
            <Time>2018-12-30T10:35:21.000Z</Time>
            <Position>
              <LatitudeDegrees>40.777862705290317535400390625</LatitudeDegrees>
              <LongitudeDegrees>-4.069313071668148040771484375</LongitudeDegrees>
            </Position>
            <AltitudeMeters>1500.4000244140625</AltitudeMeters>
            <DistanceMeters>NAN</DistanceMeters>
          </Trackpoint>
          <Trackpoint>
            <Time>2018-12-30T10:35:22.000Z</Time>
            <Position>
              <LatitudeDegrees>40.77787200920283794403076171875</LatitudeDegrees>
              <LongitudeDegrees>-4.0693120658397674560546875</LongitudeDegrees>
            </Position>
            <AltitudeMeters>1500.4000244140625</AltitudeMeters>
            <DistanceMeters>NAN</DistanceMeters>
          </Trackpoint>
          <Trackpoint>
            <Time>2018-12-30T10:35:23.000Z</Time>
            <Position>
              <LatitudeDegrees>40.7778809778392314910888671875</LatitudeDegrees>
              <LongitudeDegrees>-4.06930175609886646270751953125</LongitudeDegrees>
            </Position>
            <AltitudeMeters>1500.199951171875</AltitudeMeters>
            <DistanceMeters>NAN</DistanceMeters>
          </Trackpoint>
          <Trackpoint>
            <Time>2018-12-30T10:35:24.000Z</Time>
            <Position>
              <LatitudeDegrees>40.77789229340851306915283203125</LatitudeDegrees>
              <LongitudeDegrees>-4.0692998282611370086669921875</LongitudeDegrees>
            </Position>
            <AltitudeMeters>1500.199951171875</AltitudeMeters>
            <DistanceMeters>NAN</DistanceMeters>
          </Trackpoint>
          <Trackpoint>
            <Time>2018-12-30T10:35:25.000Z</Time>
            <Position>
              <LatitudeDegrees>40.777900256216526031494140625</LatitudeDegrees>
              <LongitudeDegrees>-4.06929220072925090789794921875</LongitudeDegrees>
            </Position>
            <AltitudeMeters>1500.199951171875</AltitudeMeters>
            <DistanceMeters>NAN</DistanceMeters>
          </Trackpoint>
          <Trackpoint>
            <Time>2018-12-30T10:35:26.000Z</Time>
            <Position>
              <LatitudeDegrees>40.777906291186809539794921875</LatitudeDegrees>
              <LongitudeDegrees>-4.06929438002407550811767578125</LongitudeDegrees>
            </Position>
            <AltitudeMeters>1500.199951171875</AltitudeMeters>
            <DistanceMeters>NAN</DistanceMeters>
          </Trackpoint>
          <Trackpoint>
            <Time>2018-12-30T10:35:27.000Z</Time>
            <Position>
              <LatitudeDegrees>40.7779128290712833404541015625</LatitudeDegrees>
              <LongitudeDegrees>-4.06929488293826580047607421875</LongitudeDegrees>
            </Position>
            <AltitudeMeters>1500.4000244140625</AltitudeMeters>
            <DistanceMeters>NAN</DistanceMeters>
          </Trackpoint>
          <Trackpoint>
            <Time>2018-12-30T10:35:28.000Z</Time>
            <Position>
              <LatitudeDegrees>40.77792246825993061065673828125</LatitudeDegrees>
              <LongitudeDegrees>-4.06929018907248973846435546875</LongitudeDegrees>
            </Position>
            <AltitudeMeters>1500.800048828125</AltitudeMeters>
            <DistanceMeters>NAN</DistanceMeters>
          </Trackpoint>
          <Trackpoint>
            <Time>2018-12-30T10:35:29.000Z</Time>
            <Position>
              <LatitudeDegrees>40.77793411910533905029296875</LatitudeDegrees>
              <LongitudeDegrees>-4.06928247772157192230224609375</LongitudeDegrees>
            </Position>
            <AltitudeMeters>1501.199951171875</AltitudeMeters>
            <DistanceMeters>NAN</DistanceMeters>
          </Trackpoint>
          <Trackpoint>
            <Time>2018-12-30T10:35:30.000Z</Time>
            <Position>
              <LatitudeDegrees>40.77794459648430347442626953125</LatitudeDegrees>
              <LongitudeDegrees>-4.06927384436130523681640625</LongitudeDegrees>
            </Position>
            <AltitudeMeters>1501.5999755859375</AltitudeMeters>
            <DistanceMeters>NAN</DistanceMeters>
          </Trackpoint>
          <Trackpoint>
            <Time>2018-12-30T10:35:31.000Z</Time>
            <Position>
              <LatitudeDegrees>40.77795482240617275238037109375</LatitudeDegrees>
              <LongitudeDegrees>-4.0692664682865142822265625</LongitudeDegrees>
            </Position>
            <AltitudeMeters>1501.5999755859375</AltitudeMeters>
            <DistanceMeters>NAN</DistanceMeters>
          </Trackpoint>
          <Trackpoint>
            <Time>2018-12-30T10:35:32.000Z</Time>
            <Position>
              <LatitudeDegrees>40.7779647968709468841552734375</LatitudeDegrees>
              <LongitudeDegrees>-4.06925548799335956573486328125</LongitudeDegrees>
            </Position>
            <AltitudeMeters>1501.800048828125</AltitudeMeters>
            <DistanceMeters>NAN</DistanceMeters>
          </Trackpoint>
          <Trackpoint>
            <Time>2018-12-30T10:35:33.000Z</Time>
            <Position>
              <LatitudeDegrees>40.77797711826860904693603515625</LatitudeDegrees>
              <LongitudeDegrees>-4.06924962066113948822021484375</LongitudeDegrees>
            </Position>
            <AltitudeMeters>1501.800048828125</AltitudeMeters>
            <DistanceMeters>NAN</DistanceMeters>
          </Trackpoint>
          <Trackpoint>
            <Time>2018-12-30T10:35:34.000Z</Time>
            <Position>
              <LatitudeDegrees>40.77799052931368350982666015625</LatitudeDegrees>
              <LongitudeDegrees>-4.06924576498568058013916015625</LongitudeDegrees>
            </Position>
            <AltitudeMeters>1501.800048828125</AltitudeMeters>
            <DistanceMeters>NAN</DistanceMeters>
          </Trackpoint>
          <Trackpoint>
            <Time>2018-12-30T10:35:35.000Z</Time>
            <Position>
              <LatitudeDegrees>40.7780046947300434112548828125</LatitudeDegrees>
              <LongitudeDegrees>-4.069246686995029449462890625</LongitudeDegrees>
            </Position>
            <AltitudeMeters>1501.800048828125</AltitudeMeters>
            <DistanceMeters>NAN</DistanceMeters>
          </Trackpoint>
          <Trackpoint>
            <Time>2018-12-30T10:35:36.000Z</Time>
            <Position>
              <LatitudeDegrees>40.77802003361284732818603515625</LatitudeDegrees>
              <LongitudeDegrees>-4.06924962066113948822021484375</LongitudeDegrees>
            </Position>
            <AltitudeMeters>1501.800048828125</AltitudeMeters>
            <DistanceMeters>NAN</DistanceMeters>
          </Trackpoint>
          <Trackpoint>
            <Time>2018-12-30T10:35:37.000Z</Time>
            <Position>
              <LatitudeDegrees>40.778033696115016937255859375</LatitudeDegrees>
              <LongitudeDegrees>-4.0692530572414398193359375</LongitudeDegrees>
            </Position>
            <AltitudeMeters>1501.800048828125</AltitudeMeters>
            <DistanceMeters>NAN</DistanceMeters>
          </Trackpoint>
          <Trackpoint>
            <Time>2018-12-30T10:35:38.000Z</Time>
            <Position>
              <LatitudeDegrees>40.77804517932236194610595703125</LatitudeDegrees>
              <LongitudeDegrees>-4.0692532248795032501220703125</LongitudeDegrees>
            </Position>
            <AltitudeMeters>1502</AltitudeMeters>
            <DistanceMeters>NAN</DistanceMeters>
          </Trackpoint>
          <Trackpoint>
            <Time>2018-12-30T10:35:39.000Z</Time>
            <Position>
              <LatitudeDegrees>40.77805691398680210113525390625</LatitudeDegrees>
              <LongitudeDegrees>-4.069249369204044342041015625</LongitudeDegrees>
            </Position>
            <AltitudeMeters>1502.199951171875</AltitudeMeters>
            <DistanceMeters>NAN</DistanceMeters>
          </Trackpoint>
          <Trackpoint>
            <Time>2018-12-30T10:35:40.000Z</Time>
            <Position>
              <LatitudeDegrees>40.77806747518479824066162109375</LatitudeDegrees>
              <LongitudeDegrees>-4.06924459151923656463623046875</LongitudeDegrees>
            </Position>
            <AltitudeMeters>1502.4000244140625</AltitudeMeters>
            <DistanceMeters>NAN</DistanceMeters>
          </Trackpoint>
          <Trackpoint>
            <Time>2018-12-30T10:35:41.000Z</Time>
            <Position>
              <LatitudeDegrees>40.77807853929698467254638671875</LatitudeDegrees>
              <LongitudeDegrees>-4.069242663681507110595703125</LongitudeDegrees>
            </Position>
            <AltitudeMeters>1502.800048828125</AltitudeMeters>
            <DistanceMeters>NAN</DistanceMeters>
          </Trackpoint>
          <Trackpoint>
            <Time>2018-12-30T10:35:42.000Z</Time>
            <Position>
              <LatitudeDegrees>40.7780858315527439117431640625</LatitudeDegrees>
              <LongitudeDegrees>-4.069240987300872802734375</LongitudeDegrees>
            </Position>
            <AltitudeMeters>1502.800048828125</AltitudeMeters>
            <DistanceMeters>NAN</DistanceMeters>
          </Trackpoint>
          <Trackpoint>
            <Time>2018-12-30T10:35:43.000Z</Time>
            <Position>
              <LatitudeDegrees>40.77809547074139118194580078125</LatitudeDegrees>
              <LongitudeDegrees>-4.0692357905209064483642578125</LongitudeDegrees>
            </Position>
            <AltitudeMeters>1502.800048828125</AltitudeMeters>
            <DistanceMeters>NAN</DistanceMeters>
          </Trackpoint>
          <Trackpoint>
            <Time>2018-12-30T10:35:44.000Z</Time>
            <Position>
              <LatitudeDegrees>40.77810385264456272125244140625</LatitudeDegrees>
              <LongitudeDegrees>-4.0692223794758319854736328125</LongitudeDegrees>
            </Position>
            <AltitudeMeters>1502.800048828125</AltitudeMeters>
            <DistanceMeters>NAN</DistanceMeters>
          </Trackpoint>
          <Trackpoint>
            <Time>2018-12-30T10:35:45.000Z</Time>
            <Position>
              <LatitudeDegrees>40.778112821280956268310546875</LatitudeDegrees>
              <LongitudeDegrees>-4.0692133270204067230224609375</LongitudeDegrees>
            </Position>
            <AltitudeMeters>1502.800048828125</AltitudeMeters>
            <DistanceMeters>NAN</DistanceMeters>
          </Trackpoint>
          <Trackpoint>
            <Time>2018-12-30T10:35:46.000Z</Time>
            <Position>
              <LatitudeDegrees>40.77812480740249156951904296875</LatitudeDegrees>
              <LongitudeDegrees>-4.06920754350721836090087890625</LongitudeDegrees>
            </Position>
            <AltitudeMeters>1502.800048828125</AltitudeMeters>
            <DistanceMeters>NAN</DistanceMeters>
          </Trackpoint>
          <Trackpoint>
            <Time>2018-12-30T10:35:47.000Z</Time>
            <Position>
              <LatitudeDegrees>40.7781351171433925628662109375</LatitudeDegrees>
              <LongitudeDegrees>-4.06920167617499828338623046875</LongitudeDegrees>
            </Position>
            <AltitudeMeters>1502.800048828125</AltitudeMeters>
            <DistanceMeters>NAN</DistanceMeters>
          </Trackpoint>
          <Trackpoint>
            <Time>2018-12-30T10:35:48.000Z</Time>
            <Position>
              <LatitudeDegrees>40.77814743854105472564697265625</LatitudeDegrees>
              <LongitudeDegrees>-4.06919329427182674407958984375</LongitudeDegrees>
            </Position>
            <AltitudeMeters>1502.800048828125</AltitudeMeters>
            <DistanceMeters>NAN</DistanceMeters>
          </Trackpoint>
          <Trackpoint>
            <Time>2018-12-30T10:35:49.000Z</Time>
            <Position>
              <LatitudeDegrees>40.77815934084355831146240234375</LatitudeDegrees>
              <LongitudeDegrees>-4.06918709166347980499267578125</LongitudeDegrees>
            </Position>
            <AltitudeMeters>1502.5999755859375</AltitudeMeters>
            <DistanceMeters>NAN</DistanceMeters>
          </Trackpoint>
          <Trackpoint>
            <Time>2018-12-30T10:35:50.000Z</Time>
            <Position>
              <LatitudeDegrees>40.778169818222522735595703125</LatitudeDegrees>
              <LongitudeDegrees>-4.06918340362608432769775390625</LongitudeDegrees>
            </Position>
            <AltitudeMeters>1502.5999755859375</AltitudeMeters>
            <DistanceMeters>NAN</DistanceMeters>
          </Trackpoint>
          <Trackpoint>
            <Time>2018-12-30T10:35:51.000Z</Time>
            <Position>
              <LatitudeDegrees>40.7781830616295337677001953125</LatitudeDegrees>
              <LongitudeDegrees>-4.069184996187686920166015625</LongitudeDegrees>
            </Position>
            <AltitudeMeters>1502.5999755859375</AltitudeMeters>
            <DistanceMeters>NAN</DistanceMeters>
          </Trackpoint>
          <Trackpoint>
            <Time>2018-12-30T10:35:52.000Z</Time>
            <Position>
              <LatitudeDegrees>40.778195299208164215087890625</LatitudeDegrees>
              <LongitudeDegrees>-4.0691834874451160430908203125</LongitudeDegrees>
            </Position>
            <AltitudeMeters>1502.5999755859375</AltitudeMeters>
            <DistanceMeters>NAN</DistanceMeters>
          </Trackpoint>
          <Trackpoint>
            <Time>2018-12-30T10:35:53.000Z</Time>
            <Position>
              <LatitudeDegrees>40.77820359729230403900146484375</LatitudeDegrees>
              <LongitudeDegrees>-4.06918256543576717376708984375</LongitudeDegrees>
            </Position>
            <AltitudeMeters>1502.800048828125</AltitudeMeters>
            <DistanceMeters>NAN</DistanceMeters>
          </Trackpoint>
          <Trackpoint>
            <Time>2018-12-30T10:35:54.000Z</Time>
            <Position>
              <LatitudeDegrees>40.77820996753871440887451171875</LatitudeDegrees>
              <LongitudeDegrees>-4.06918223015964031219482421875</LongitudeDegrees>
            </Position>
            <AltitudeMeters>1502.800048828125</AltitudeMeters>
            <DistanceMeters>NAN</DistanceMeters>
          </Trackpoint>
          <Trackpoint>
            <Time>2018-12-30T10:35:55.000Z</Time>
            <Position>
              <LatitudeDegrees>40.77822337858378887176513671875</LatitudeDegrees>
              <LongitudeDegrees>-4.06917954795062541961669921875</LongitudeDegrees>
            </Position>
            <AltitudeMeters>1502.800048828125</AltitudeMeters>
            <DistanceMeters>NAN</DistanceMeters>
          </Trackpoint>
          <Trackpoint>
            <Time>2018-12-30T10:35:56.000Z</Time>
            <Position>
              <LatitudeDegrees>40.77823678962886333465576171875</LatitudeDegrees>
              <LongitudeDegrees>-4.0691724233329296112060546875</LongitudeDegrees>
            </Position>
            <AltitudeMeters>1502.800048828125</AltitudeMeters>
            <DistanceMeters>NAN</DistanceMeters>
          </Trackpoint>
          <Trackpoint>
            <Time>2018-12-30T10:35:57.000Z</Time>
            <Position>
              <LatitudeDegrees>40.77825003303587436676025390625</LatitudeDegrees>
              <LongitudeDegrees>-4.0691663883626461029052734375</LongitudeDegrees>
            </Position>
            <AltitudeMeters>1502.800048828125</AltitudeMeters>
            <DistanceMeters>NAN</DistanceMeters>
          </Trackpoint>
          <Trackpoint>
            <Time>2018-12-30T10:35:58.000Z</Time>
            <Position>
              <LatitudeDegrees>40.77826461754739284515380859375</LatitudeDegrees>
              <LongitudeDegrees>-4.06916244886815547943115234375</LongitudeDegrees>
            </Position>
            <AltitudeMeters>1502.5999755859375</AltitudeMeters>
            <DistanceMeters>NAN</DistanceMeters>
          </Trackpoint>
          <Trackpoint>
            <Time>2018-12-30T10:35:59.000Z</Time>
            <Position>
              <LatitudeDegrees>40.778277106583118438720703125</LatitudeDegrees>
              <LongitudeDegrees>-4.069161526858806610107421875</LongitudeDegrees>
            </Position>
            <AltitudeMeters>1502.5999755859375</AltitudeMeters>
            <DistanceMeters>NAN</DistanceMeters>
          </Trackpoint>
          <Trackpoint>
            <Time>2018-12-30T10:36:00.000Z</Time>
            <Position>
              <LatitudeDegrees>40.77828884124755859375</LatitudeDegrees>
              <LongitudeDegrees>-4.06916345469653606414794921875</LongitudeDegrees>
            </Position>
            <AltitudeMeters>1502.5999755859375</AltitudeMeters>
            <DistanceMeters>NAN</DistanceMeters>
          </Trackpoint>
          <Trackpoint>
            <Time>2018-12-30T10:36:01.000Z</Time>
            <Position>
              <LatitudeDegrees>40.77829747460782527923583984375</LatitudeDegrees>
              <LongitudeDegrees>-4.06916923820972442626953125</LongitudeDegrees>
            </Position>
            <AltitudeMeters>1502.800048828125</AltitudeMeters>
            <DistanceMeters>NAN</DistanceMeters>
          </Trackpoint>
          <Trackpoint>
            <Time>2018-12-30T10:36:02.000Z</Time>
            <Position>
              <LatitudeDegrees>40.77830350957810878753662109375</LatitudeDegrees>
              <LongitudeDegrees>-4.06917116604745388031005859375</LongitudeDegrees>
            </Position>
            <AltitudeMeters>1503</AltitudeMeters>
            <DistanceMeters>NAN</DistanceMeters>
          </Trackpoint>
          <Trackpoint>
            <Time>2018-12-30T10:36:03.000Z</Time>
            <Position>
              <LatitudeDegrees>40.778311975300312042236328125</LatitudeDegrees>
              <LongitudeDegrees>-4.06916982494294643402099609375</LongitudeDegrees>
            </Position>
            <AltitudeMeters>1503.199951171875</AltitudeMeters>
            <DistanceMeters>NAN</DistanceMeters>
          </Trackpoint>
          <Trackpoint>
            <Time>2018-12-30T10:36:04.000Z</Time>
            <Position>
              <LatitudeDegrees>40.7783223688602447509765625</LatitudeDegrees>
              <LongitudeDegrees>-4.06917192041873931884765625</LongitudeDegrees>
            </Position>
            <AltitudeMeters>1503.4000244140625</AltitudeMeters>
            <DistanceMeters>NAN</DistanceMeters>
          </Trackpoint>
          <Trackpoint>
            <Time>2018-12-30T10:36:05.000Z</Time>
            <Position>
              <LatitudeDegrees>40.77833519317209720611572265625</LatitudeDegrees>
              <LongitudeDegrees>-4.06917334534227848052978515625</LongitudeDegrees>
            </Position>
            <AltitudeMeters>1503.4000244140625</AltitudeMeters>
            <DistanceMeters>NAN</DistanceMeters>
          </Trackpoint>
          <Trackpoint>
            <Time>2018-12-30T10:36:06.000Z</Time>
            <Position>
              <LatitudeDegrees>40.778347514569759368896484375</LatitudeDegrees>
              <LongitudeDegrees>-4.06917753629386425018310546875</LongitudeDegrees>
            </Position>
            <AltitudeMeters>1503.5999755859375</AltitudeMeters>
            <DistanceMeters>NAN</DistanceMeters>
          </Trackpoint>
          <Trackpoint>
            <Time>2018-12-30T10:36:07.000Z</Time>
            <Position>
              <LatitudeDegrees>40.7783620990812778472900390625</LatitudeDegrees>
              <LongitudeDegrees>-4.06917736865580081939697265625</LongitudeDegrees>
            </Position>
            <AltitudeMeters>1503.800048828125</AltitudeMeters>
            <DistanceMeters>NAN</DistanceMeters>
          </Trackpoint>
          <Trackpoint>
            <Time>2018-12-30T10:36:08.000Z</Time>
            <Position>
              <LatitudeDegrees>40.7783760130405426025390625</LatitudeDegrees>
              <LongitudeDegrees>-4.06917820684611797332763671875</LongitudeDegrees>
            </Position>
            <AltitudeMeters>1504</AltitudeMeters>
            <DistanceMeters>NAN</DistanceMeters>
          </Trackpoint>
          <Trackpoint>
            <Time>2018-12-30T10:36:09.000Z</Time>
            <Position>
              <LatitudeDegrees>40.7783889211714267730712890625</LatitudeDegrees>
              <LongitudeDegrees>-4.0691838227212429046630859375</LongitudeDegrees>
            </Position>
            <AltitudeMeters>1504</AltitudeMeters>
            <DistanceMeters>NAN</DistanceMeters>
          </Trackpoint>
          <Trackpoint>
            <Time>2018-12-30T10:36:10.000Z</Time>
            <Position>
              <LatitudeDegrees>40.77839973382651805877685546875</LatitudeDegrees>
              <LongitudeDegrees>-4.06918189488351345062255859375</LongitudeDegrees>
            </Position>
            <AltitudeMeters>1504.199951171875</AltitudeMeters>
            <DistanceMeters>NAN</DistanceMeters>
          </Trackpoint>
          <Trackpoint>
            <Time>2018-12-30T10:36:11.000Z</Time>
            <Position>
              <LatitudeDegrees>40.77841415069997310638427734375</LatitudeDegrees>
              <LongitudeDegrees>-4.0691806375980377197265625</LongitudeDegrees>
            </Position>
            <AltitudeMeters>1504.4000244140625</AltitudeMeters>
            <DistanceMeters>NAN</DistanceMeters>
          </Trackpoint>
          <Trackpoint>
            <Time>2018-12-30T10:36:12.000Z</Time>
            <Position>
              <LatitudeDegrees>40.77842789702117443084716796875</LatitudeDegrees>
              <LongitudeDegrees>-4.06918826512992382049560546875</LongitudeDegrees>
            </Position>
            <AltitudeMeters>1504.5999755859375</AltitudeMeters>
            <DistanceMeters>NAN</DistanceMeters>
          </Trackpoint>
          <Trackpoint>
            <Time>2018-12-30T10:36:13.000Z</Time>
            <Position>
              <LatitudeDegrees>40.77844231389462947845458984375</LatitudeDegrees>
              <LongitudeDegrees>-4.0691940486431121826171875</LongitudeDegrees>
            </Position>
            <AltitudeMeters>1505</AltitudeMeters>
            <DistanceMeters>NAN</DistanceMeters>
          </Trackpoint>
          <Trackpoint>
            <Time>2018-12-30T10:36:14.000Z</Time>
            <Position>
              <LatitudeDegrees>40.77845538966357707977294921875</LatitudeDegrees>
              <LongitudeDegrees>-4.06920402310788631439208984375</LongitudeDegrees>
            </Position>
            <AltitudeMeters>1505</AltitudeMeters>
            <DistanceMeters>NAN</DistanceMeters>
          </Trackpoint>
          <Trackpoint>
            <Time>2018-12-30T10:36:15.000Z</Time>
            <Position>
              <LatitudeDegrees>40.77846829779446125030517578125</LatitudeDegrees>
              <LongitudeDegrees>-4.069208800792694091796875</LongitudeDegrees>
            </Position>
            <AltitudeMeters>1505.199951171875</AltitudeMeters>
            <DistanceMeters>NAN</DistanceMeters>
          </Trackpoint>
          <Trackpoint>
            <Time>2018-12-30T10:36:16.000Z</Time>
            <Position>
              <LatitudeDegrees>40.77848020009696483612060546875</LatitudeDegrees>
              <LongitudeDegrees>-4.06922665424644947052001953125</LongitudeDegrees>
            </Position>
            <AltitudeMeters>1505.199951171875</AltitudeMeters>
            <DistanceMeters>NAN</DistanceMeters>
          </Trackpoint>
          <Trackpoint>
            <Time>2018-12-30T10:36:17.000Z</Time>
            <Position>
              <LatitudeDegrees>40.7784871570765972137451171875</LatitudeDegrees>
              <LongitudeDegrees>-4.06924006529152393341064453125</LongitudeDegrees>
            </Position>
            <AltitudeMeters>1505.199951171875</AltitudeMeters>
            <DistanceMeters>NAN</DistanceMeters>
          </Trackpoint>
          <Trackpoint>
            <Time>2018-12-30T10:36:18.000Z</Time>
            <Position>
              <LatitudeDegrees>40.77849528752267360687255859375</LatitudeDegrees>
              <LongitudeDegrees>-4.06925079412758350372314453125</LongitudeDegrees>
            </Position>
            <AltitudeMeters>1505.199951171875</AltitudeMeters>
            <DistanceMeters>NAN</DistanceMeters>
          </Trackpoint>
          <Trackpoint>
            <Time>2018-12-30T10:36:19.000Z</Time>
            <Position>
              <LatitudeDegrees>40.778500400483608245849609375</LatitudeDegrees>
              <LongitudeDegrees>-4.069262780249118804931640625</LongitudeDegrees>
            </Position>
            <AltitudeMeters>1505.199951171875</AltitudeMeters>
            <DistanceMeters>NAN</DistanceMeters>
          </Trackpoint>
          <Trackpoint>
            <Time>2018-12-30T10:36:20.000Z</Time>
            <Position>
              <LatitudeDegrees>40.778503753244876861572265625</LatitudeDegrees>
              <LongitudeDegrees>-4.06927007250487804412841796875</LongitudeDegrees>
            </Position>
            <AltitudeMeters>1505.199951171875</AltitudeMeters>
            <DistanceMeters>NAN</DistanceMeters>
          </Trackpoint>
          <Trackpoint>
            <Time>2018-12-30T10:36:21.000Z</Time>
            <Position>
              <LatitudeDegrees>40.77850811183452606201171875</LatitudeDegrees>
              <LongitudeDegrees>-4.06927862204611301422119140625</LongitudeDegrees>
            </Position>
            <AltitudeMeters>1505.199951171875</AltitudeMeters>
            <DistanceMeters>NAN</DistanceMeters>
          </Trackpoint>
          <Trackpoint>
            <Time>2018-12-30T10:36:22.000Z</Time>
            <Position>
              <LatitudeDegrees>40.778515823185443878173828125</LatitudeDegrees>
              <LongitudeDegrees>-4.06929018907248973846435546875</LongitudeDegrees>
            </Position>
            <AltitudeMeters>1505.4000244140625</AltitudeMeters>
            <DistanceMeters>NAN</DistanceMeters>
          </Trackpoint>
          <Trackpoint>
            <Time>2018-12-30T10:36:23.000Z</Time>
            <Position>
              <LatitudeDegrees>40.7785290665924549102783203125</LatitudeDegrees>
              <LongitudeDegrees>-4.069310724735260009765625</LongitudeDegrees>
            </Position>
            <AltitudeMeters>1505.800048828125</AltitudeMeters>
            <DistanceMeters>NAN</DistanceMeters>
          </Trackpoint>
          <Trackpoint>
            <Time>2018-12-30T10:36:24.000Z</Time>
            <Position>
              <LatitudeDegrees>40.77854029834270477294921875</LatitudeDegrees>
              <LongitudeDegrees>-4.06931801699101924896240234375</LongitudeDegrees>
            </Position>
            <AltitudeMeters>1506</AltitudeMeters>
            <DistanceMeters>NAN</DistanceMeters>
          </Trackpoint>
          <Trackpoint>
            <Time>2018-12-30T10:36:25.000Z</Time>
            <Position>
              <LatitudeDegrees>40.77855060808360576629638671875</LatitudeDegrees>
              <LongitudeDegrees>-4.0693289972841739654541015625</LongitudeDegrees>
            </Position>
            <AltitudeMeters>1506.199951171875</AltitudeMeters>
            <DistanceMeters>NAN</DistanceMeters>
          </Trackpoint>
          <Trackpoint>
            <Time>2018-12-30T10:36:26.000Z</Time>
            <Position>
              <LatitudeDegrees>40.77855798415839672088623046875</LatitudeDegrees>
              <LongitudeDegrees>-4.0693393908441066741943359375</LongitudeDegrees>
            </Position>
            <AltitudeMeters>1506.4000244140625</AltitudeMeters>
            <DistanceMeters>NAN</DistanceMeters>
          </Trackpoint>
          <Trackpoint>
            <Time>2018-12-30T10:36:27.000Z</Time>
            <Position>
              <LatitudeDegrees>40.778564102947711944580078125</LatitudeDegrees>
              <LongitudeDegrees>-4.06935003586113452911376953125</LongitudeDegrees>
            </Position>
            <AltitudeMeters>1506.4000244140625</AltitudeMeters>
            <DistanceMeters>NAN</DistanceMeters>
          </Trackpoint>
          <Trackpoint>
            <Time>2018-12-30T10:36:28.000Z</Time>
            <Position>
              <LatitudeDegrees>40.778571479022502899169921875</LatitudeDegrees>
              <LongitudeDegrees>-4.06935825012624263763427734375</LongitudeDegrees>
            </Position>
            <AltitudeMeters>1506.4000244140625</AltitudeMeters>
            <DistanceMeters>NAN</DistanceMeters>
          </Trackpoint>
          <Trackpoint>
            <Time>2018-12-30T10:36:29.000Z</Time>
            <Position>
              <LatitudeDegrees>40.778581202030181884765625</LatitudeDegrees>
              <LongitudeDegrees>-4.06936512328684329986572265625</LongitudeDegrees>
            </Position>
            <AltitudeMeters>1506.4000244140625</AltitudeMeters>
            <DistanceMeters>NAN</DistanceMeters>
          </Trackpoint>
          <Trackpoint>
            <Time>2018-12-30T10:36:30.000Z</Time>
            <Position>
              <LatitudeDegrees>40.778591930866241455078125</LatitudeDegrees>
              <LongitudeDegrees>-4.0693756006658077239990234375</LongitudeDegrees>
            </Position>
            <AltitudeMeters>1506.5999755859375</AltitudeMeters>
            <DistanceMeters>NAN</DistanceMeters>
          </Trackpoint>
          <Trackpoint>
            <Time>2018-12-30T10:36:31.000Z</Time>
            <Position>
              <LatitudeDegrees>40.77860425226390361785888671875</LatitudeDegrees>
              <LongitudeDegrees>-4.069382809102535247802734375</LongitudeDegrees>
            </Position>
            <AltitudeMeters>1506.5999755859375</AltitudeMeters>
            <DistanceMeters>NAN</DistanceMeters>
          </Trackpoint>
          <Trackpoint>
            <Time>2018-12-30T10:36:32.000Z</Time>
            <Position>
              <LatitudeDegrees>40.77861397527158260345458984375</LatitudeDegrees>
              <LongitudeDegrees>-4.069392196834087371826171875</LongitudeDegrees>
            </Position>
            <AltitudeMeters>1506.5999755859375</AltitudeMeters>
            <DistanceMeters>NAN</DistanceMeters>
          </Trackpoint>
          <Trackpoint>
            <Time>2018-12-30T10:36:33.000Z</Time>
            <Position>
              <LatitudeDegrees>40.778624117374420166015625</LatitudeDegrees>
              <LongitudeDegrees>-4.0693990699946880340576171875</LongitudeDegrees>
            </Position>
            <AltitudeMeters>1506.5999755859375</AltitudeMeters>
            <DistanceMeters>NAN</DistanceMeters>
          </Trackpoint>
          <Trackpoint>
            <Time>2018-12-30T10:36:34.000Z</Time>
            <Position>
              <LatitudeDegrees>40.77863560058176517486572265625</LatitudeDegrees>
              <LongitudeDegrees>-4.06940585933625698089599609375</LongitudeDegrees>
            </Position>
            <AltitudeMeters>1506.5999755859375</AltitudeMeters>
            <DistanceMeters>NAN</DistanceMeters>
          </Trackpoint>
          <Trackpoint>
            <Time>2018-12-30T10:36:35.000Z</Time>
            <Position>
              <LatitudeDegrees>40.77864616177976131439208984375</LatitudeDegrees>
              <LongitudeDegrees>-4.06941239722073078155517578125</LongitudeDegrees>
            </Position>
            <AltitudeMeters>1506.5999755859375</AltitudeMeters>
            <DistanceMeters>NAN</DistanceMeters>
          </Trackpoint>
          <Trackpoint>
            <Time>2018-12-30T10:36:36.000Z</Time>
            <Position>
              <LatitudeDegrees>40.7786581479012966156005859375</LatitudeDegrees>
              <LongitudeDegrees>-4.06941876746714115142822265625</LongitudeDegrees>
            </Position>
            <AltitudeMeters>1506.5999755859375</AltitudeMeters>
            <DistanceMeters>NAN</DistanceMeters>
          </Trackpoint>
          <Trackpoint>
            <Time>2018-12-30T10:36:37.000Z</Time>
            <Position>
              <LatitudeDegrees>40.7786678709089756011962890625</LatitudeDegrees>
              <LongitudeDegrees>-4.0694262273609638214111328125</LongitudeDegrees>
            </Position>
            <AltitudeMeters>1506.5999755859375</AltitudeMeters>
            <DistanceMeters>NAN</DistanceMeters>
          </Trackpoint>
          <Trackpoint>
            <Time>2018-12-30T10:36:38.000Z</Time>
            <Position>
              <LatitudeDegrees>40.77868388034403324127197265625</LatitudeDegrees>
              <LongitudeDegrees>-4.0694359503686428070068359375</LongitudeDegrees>
            </Position>
            <AltitudeMeters>1506.800048828125</AltitudeMeters>
            <DistanceMeters>NAN</DistanceMeters>
          </Trackpoint>
          <Trackpoint>
            <Time>2018-12-30T10:36:39.000Z</Time>
            <Position>
              <LatitudeDegrees>40.778694860637187957763671875</LatitudeDegrees>
              <LongitudeDegrees>-4.06944743357598781585693359375</LongitudeDegrees>
            </Position>
            <AltitudeMeters>1506.800048828125</AltitudeMeters>
            <DistanceMeters>NAN</DistanceMeters>
          </Trackpoint>
          <Trackpoint>
            <Time>2018-12-30T10:36:40.000Z</Time>
            <Position>
              <LatitudeDegrees>40.77870802022516727447509765625</LatitudeDegrees>
              <LongitudeDegrees>-4.0694590844213962554931640625</LongitudeDegrees>
            </Position>
            <AltitudeMeters>1506.800048828125</AltitudeMeters>
            <DistanceMeters>NAN</DistanceMeters>
          </Trackpoint>
          <Trackpoint>
            <Time>2018-12-30T10:36:41.000Z</Time>
            <Position>
              <LatitudeDegrees>40.77872042544186115264892578125</LatitudeDegrees>
              <LongitudeDegrees>-4.06946788541972637176513671875</LongitudeDegrees>
            </Position>
            <AltitudeMeters>1506.800048828125</AltitudeMeters>
            <DistanceMeters>NAN</DistanceMeters>
          </Trackpoint>
          <Trackpoint>
            <Time>2018-12-30T10:36:42.000Z</Time>
            <Position>
              <LatitudeDegrees>40.77873073518276214599609375</LatitudeDegrees>
              <LongitudeDegrees>-4.06947903335094451904296875</LongitudeDegrees>
            </Position>
            <AltitudeMeters>1506.800048828125</AltitudeMeters>
            <DistanceMeters>NAN</DistanceMeters>
          </Trackpoint>
          <Trackpoint>
            <Time>2018-12-30T10:36:43.000Z</Time>
            <Position>
              <LatitudeDegrees>40.7787439785897731781005859375</LatitudeDegrees>
              <LongitudeDegrees>-4.06948917545378208160400390625</LongitudeDegrees>
            </Position>
            <AltitudeMeters>1506.5999755859375</AltitudeMeters>
            <DistanceMeters>NAN</DistanceMeters>
          </Trackpoint>
          <Trackpoint>
            <Time>2018-12-30T10:36:44.000Z</Time>
            <Position>
              <LatitudeDegrees>40.778755210340023040771484375</LatitudeDegrees>
              <LongitudeDegrees>-4.0695003233850002288818359375</LongitudeDegrees>
            </Position>
            <AltitudeMeters>1506.5999755859375</AltitudeMeters>
            <DistanceMeters>NAN</DistanceMeters>
          </Trackpoint>
          <Trackpoint>
            <Time>2018-12-30T10:36:45.000Z</Time>
            <Position>
              <LatitudeDegrees>40.77876694500446319580078125</LatitudeDegrees>
              <LongitudeDegrees>-4.06950962729752063751220703125</LongitudeDegrees>
            </Position>
            <AltitudeMeters>1506.4000244140625</AltitudeMeters>
            <DistanceMeters>NAN</DistanceMeters>
          </Trackpoint>
          <Trackpoint>
            <Time>2018-12-30T10:36:46.000Z</Time>
            <Position>
              <LatitudeDegrees>40.77877524308860301971435546875</LatitudeDegrees>
              <LongitudeDegrees>-4.06952035613358020782470703125</LongitudeDegrees>
            </Position>
            <AltitudeMeters>1506.4000244140625</AltitudeMeters>
            <DistanceMeters>NAN</DistanceMeters>
          </Trackpoint>
          <Trackpoint>
            <Time>2018-12-30T10:36:47.000Z</Time>
            <Position>
              <LatitudeDegrees>40.77878194861114025115966796875</LatitudeDegrees>
              <LongitudeDegrees>-4.06952924095094203948974609375</LongitudeDegrees>
            </Position>
            <AltitudeMeters>1506.4000244140625</AltitudeMeters>
            <DistanceMeters>NAN</DistanceMeters>
          </Trackpoint>
          <Trackpoint>
            <Time>2018-12-30T10:36:48.000Z</Time>
            <Position>
              <LatitudeDegrees>40.7787915877997875213623046875</LatitudeDegrees>
              <LongitudeDegrees>-4.06954013742506504058837890625</LongitudeDegrees>
            </Position>
            <AltitudeMeters>1506.4000244140625</AltitudeMeters>
            <DistanceMeters>NAN</DistanceMeters>
          </Trackpoint>
          <Trackpoint>
            <Time>2018-12-30T10:36:49.000Z</Time>
            <Position>
              <LatitudeDegrees>40.77879703603684902191162109375</LatitudeDegrees>
              <LongitudeDegrees>-4.06955120153725147247314453125</LongitudeDegrees>
            </Position>
            <AltitudeMeters>1506.4000244140625</AltitudeMeters>
            <DistanceMeters>NAN</DistanceMeters>
          </Trackpoint>
          <Trackpoint>
            <Time>2018-12-30T10:36:50.000Z</Time>
            <Position>
              <LatitudeDegrees>40.77880541794002056121826171875</LatitudeDegrees>
              <LongitudeDegrees>-4.06955991871654987335205078125</LongitudeDegrees>
            </Position>
            <AltitudeMeters>1506.4000244140625</AltitudeMeters>
            <DistanceMeters>NAN</DistanceMeters>
          </Trackpoint>
          <Trackpoint>
            <Time>2018-12-30T10:36:51.000Z</Time>
            <Position>
              <LatitudeDegrees>40.7788150571286678314208984375</LatitudeDegrees>
              <LongitudeDegrees>-4.06956888735294342041015625</LongitudeDegrees>
            </Position>
            <AltitudeMeters>1506.4000244140625</AltitudeMeters>
            <DistanceMeters>NAN</DistanceMeters>
          </Trackpoint>
          <Trackpoint>
            <Time>2018-12-30T10:36:52.000Z</Time>
            <Position>
              <LatitudeDegrees>40.778820924460887908935546875</LatitudeDegrees>
              <LongitudeDegrees>-4.06957785598933696746826171875</LongitudeDegrees>
            </Position>
            <AltitudeMeters>1506.4000244140625</AltitudeMeters>
            <DistanceMeters>NAN</DistanceMeters>
          </Trackpoint>
          <Trackpoint>
            <Time>2018-12-30T10:36:53.000Z</Time>
            <Position>
              <LatitudeDegrees>40.77882804907858371734619140625</LatitudeDegrees>
              <LongitudeDegrees>-4.069589339196681976318359375</LongitudeDegrees>
            </Position>
            <AltitudeMeters>1506.5999755859375</AltitudeMeters>
            <DistanceMeters>NAN</DistanceMeters>
          </Trackpoint>
          <Trackpoint>
            <Time>2018-12-30T10:36:54.000Z</Time>
            <Position>
              <LatitudeDegrees>40.77883877791464328765869140625</LatitudeDegrees>
              <LongitudeDegrees>-4.06960107386112213134765625</LongitudeDegrees>
            </Position>
            <AltitudeMeters>1506.5999755859375</AltitudeMeters>
            <DistanceMeters>NAN</DistanceMeters>
          </Trackpoint>
          <Trackpoint>
            <Time>2018-12-30T10:36:55.000Z</Time>
            <Position>
              <LatitudeDegrees>40.77884674072265625</LatitudeDegrees>
              <LongitudeDegrees>-4.06961255706846714019775390625</LongitudeDegrees>
            </Position>
            <AltitudeMeters>1506.5999755859375</AltitudeMeters>
            <DistanceMeters>NAN</DistanceMeters>
          </Trackpoint>
          <Trackpoint>
            <Time>2018-12-30T10:36:56.000Z</Time>
            <Position>
              <LatitudeDegrees>40.7788552902638912200927734375</LatitudeDegrees>
              <LongitudeDegrees>-4.069621525704860687255859375</LongitudeDegrees>
            </Position>
            <AltitudeMeters>1506.5999755859375</AltitudeMeters>
            <DistanceMeters>NAN</DistanceMeters>
          </Trackpoint>
          <Trackpoint>
            <Time>2018-12-30T10:36:57.000Z</Time>
            <Position>
              <LatitudeDegrees>40.77886258251965045928955078125</LatitudeDegrees>
              <LongitudeDegrees>-4.06963133253157138824462890625</LongitudeDegrees>
            </Position>
            <AltitudeMeters>1506.800048828125</AltitudeMeters>
            <DistanceMeters>NAN</DistanceMeters>
          </Trackpoint>
          <Trackpoint>
            <Time>2018-12-30T10:36:58.000Z</Time>
            <Position>
              <LatitudeDegrees>40.7788695394992828369140625</LatitudeDegrees>
              <LongitudeDegrees>-4.0696428157389163970947265625</LongitudeDegrees>
            </Position>
            <AltitudeMeters>1506.800048828125</AltitudeMeters>
            <DistanceMeters>NAN</DistanceMeters>
          </Trackpoint>
          <Trackpoint>
            <Time>2018-12-30T10:36:59.000Z</Time>
            <Position>
              <LatitudeDegrees>40.77887716703116893768310546875</LatitudeDegrees>
              <LongitudeDegrees>-4.0696575678884983062744140625</LongitudeDegrees>
            </Position>
            <AltitudeMeters>1506.800048828125</AltitudeMeters>
            <DistanceMeters>NAN</DistanceMeters>
          </Trackpoint>
          <Trackpoint>
            <Time>2018-12-30T10:37:00.000Z</Time>
            <Position>
              <LatitudeDegrees>40.7788802683353424072265625</LatitudeDegrees>
              <LongitudeDegrees>-4.0696733258664608001708984375</LongitudeDegrees>
            </Position>
            <AltitudeMeters>1506.800048828125</AltitudeMeters>
            <DistanceMeters>NAN</DistanceMeters>
          </Trackpoint>
          <Trackpoint>
            <Time>2018-12-30T10:37:01.000Z</Time>
            <Position>
              <LatitudeDegrees>40.77888789586722850799560546875</LatitudeDegrees>
              <LongitudeDegrees>-4.06968380324542522430419921875</LongitudeDegrees>
            </Position>
            <AltitudeMeters>1507</AltitudeMeters>
            <DistanceMeters>NAN</DistanceMeters>
          </Trackpoint>
          <Trackpoint>
            <Time>2018-12-30T10:37:02.000Z</Time>
            <Position>
              <LatitudeDegrees>40.77889460138976573944091796875</LatitudeDegrees>
              <LongitudeDegrees>-4.0696947835385799407958984375</LongitudeDegrees>
            </Position>
            <AltitudeMeters>1507</AltitudeMeters>
            <DistanceMeters>NAN</DistanceMeters>
          </Trackpoint>
          <Trackpoint>
            <Time>2018-12-30T10:37:03.000Z</Time>
            <Position>
              <LatitudeDegrees>40.77890130691230297088623046875</LatitudeDegrees>
              <LongitudeDegrees>-4.069706685841083526611328125</LongitudeDegrees>
            </Position>
            <AltitudeMeters>1506.800048828125</AltitudeMeters>
            <DistanceMeters>NAN</DistanceMeters>
          </Trackpoint>
          <Trackpoint>
            <Time>2018-12-30T10:37:04.000Z</Time>
            <Position>
              <LatitudeDegrees>40.7789109461009502410888671875</LatitudeDegrees>
              <LongitudeDegrees>-4.069718085229396820068359375</LongitudeDegrees>
            </Position>
            <AltitudeMeters>1506.800048828125</AltitudeMeters>
            <DistanceMeters>NAN</DistanceMeters>
          </Trackpoint>
          <Trackpoint>
            <Time>2018-12-30T10:37:05.000Z</Time>
            <Position>
              <LatitudeDegrees>40.77892427332699298858642578125</LatitudeDegrees>
              <LongitudeDegrees>-4.06973141245543956756591796875</LongitudeDegrees>
            </Position>
            <AltitudeMeters>1506.800048828125</AltitudeMeters>
            <DistanceMeters>NAN</DistanceMeters>
          </Trackpoint>
          <Trackpoint>
            <Time>2018-12-30T10:37:06.000Z</Time>
            <Position>
              <LatitudeDegrees>40.77893265523016452789306640625</LatitudeDegrees>
              <LongitudeDegrees>-4.0697454102337360382080078125</LongitudeDegrees>
            </Position>
            <AltitudeMeters>1506.800048828125</AltitudeMeters>
            <DistanceMeters>NAN</DistanceMeters>
          </Trackpoint>
          <Trackpoint>
            <Time>2018-12-30T10:37:07.000Z</Time>
            <Position>
              <LatitudeDegrees>40.77894003130495548248291015625</LatitudeDegrees>
              <LongitudeDegrees>-4.06976066529750823974609375</LongitudeDegrees>
            </Position>
            <AltitudeMeters>1506.5999755859375</AltitudeMeters>
            <DistanceMeters>NAN</DistanceMeters>
          </Trackpoint>
          <Trackpoint>
            <Time>2018-12-30T10:37:08.000Z</Time>
            <Position>
              <LatitudeDegrees>40.77894070185720920562744140625</LatitudeDegrees>
              <LongitudeDegrees>-4.0697729028761386871337890625</LongitudeDegrees>
            </Position>
            <AltitudeMeters>1506.5999755859375</AltitudeMeters>
            <DistanceMeters>NAN</DistanceMeters>
          </Trackpoint>
          <Trackpoint>
            <Time>2018-12-30T10:37:09.000Z</Time>
            <Position>
              <LatitudeDegrees>40.778944976627826690673828125</LatitudeDegrees>
              <LongitudeDegrees>-4.0697841346263885498046875</LongitudeDegrees>
            </Position>
            <AltitudeMeters>1506.5999755859375</AltitudeMeters>
            <DistanceMeters>NAN</DistanceMeters>
          </Trackpoint>
          <Trackpoint>
            <Time>2018-12-30T10:37:10.000Z</Time>
            <Position>
              <LatitudeDegrees>40.778959058225154876708984375</LatitudeDegrees>
              <LongitudeDegrees>-4.069806598126888275146484375</LongitudeDegrees>
            </Position>
            <AltitudeMeters>1506.5999755859375</AltitudeMeters>
            <DistanceMeters>NAN</DistanceMeters>
          </Trackpoint>
          <Trackpoint>
            <Time>2018-12-30T10:37:11.000Z</Time>
            <Position>
              <LatitudeDegrees>40.77896836213767528533935546875</LatitudeDegrees>
              <LongitudeDegrees>-4.0698288939893245697021484375</LongitudeDegrees>
            </Position>
            <AltitudeMeters>1506.5999755859375</AltitudeMeters>
            <DistanceMeters>NAN</DistanceMeters>
          </Trackpoint>
          <Trackpoint>
            <Time>2018-12-30T10:37:12.000Z</Time>
            <Position>
              <LatitudeDegrees>40.77897372655570507049560546875</LatitudeDegrees>
              <LongitudeDegrees>-4.06984859146177768707275390625</LongitudeDegrees>
            </Position>
            <AltitudeMeters>1506.4000244140625</AltitudeMeters>
            <DistanceMeters>NAN</DistanceMeters>
          </Trackpoint>
          <Trackpoint>
            <Time>2018-12-30T10:37:13.000Z</Time>
            <Position>
              <LatitudeDegrees>40.77898194082081317901611328125</LatitudeDegrees>
              <LongitudeDegrees>-4.0698674507439136505126953125</LongitudeDegrees>
            </Position>
            <AltitudeMeters>1506.4000244140625</AltitudeMeters>
            <DistanceMeters>NAN</DistanceMeters>
          </Trackpoint>
          <Trackpoint>
            <Time>2018-12-30T10:37:14.000Z</Time>
            <Position>
              <LatitudeDegrees>40.77898579649627208709716796875</LatitudeDegrees>
              <LongitudeDegrees>-4.0698855556547641754150390625</LongitudeDegrees>
            </Position>
            <AltitudeMeters>1506.199951171875</AltitudeMeters>
            <DistanceMeters>NAN</DistanceMeters>
          </Trackpoint>
          <Trackpoint>
            <Time>2018-12-30T10:37:15.000Z</Time>
            <Position>
              <LatitudeDegrees>40.77899166382849216461181640625</LatitudeDegrees>
              <LongitudeDegrees>-4.06990139745175838470458984375</LongitudeDegrees>
            </Position>
            <AltitudeMeters>1506.199951171875</AltitudeMeters>
            <DistanceMeters>NAN</DistanceMeters>
          </Trackpoint>
          <Trackpoint>
            <Time>2018-12-30T10:37:16.000Z</Time>
            <Position>
              <LatitudeDegrees>40.7789991237223148345947265625</LatitudeDegrees>
              <LongitudeDegrees>-4.0699133835732936859130859375</LongitudeDegrees>
            </Position>
            <AltitudeMeters>1506.199951171875</AltitudeMeters>
            <DistanceMeters>NAN</DistanceMeters>
          </Trackpoint>
          <Trackpoint>
            <Time>2018-12-30T10:37:17.000Z</Time>
            <Position>
              <LatitudeDegrees>40.7790063321590423583984375</LatitudeDegrees>
              <LongitudeDegrees>-4.069927968084812164306640625</LongitudeDegrees>
            </Position>
            <AltitudeMeters>1506</AltitudeMeters>
            <DistanceMeters>NAN</DistanceMeters>
          </Trackpoint>
          <Trackpoint>
            <Time>2018-12-30T10:37:18.000Z</Time>
            <Position>
              <LatitudeDegrees>40.7790175639092922210693359375</LatitudeDegrees>
              <LongitudeDegrees>-4.06994749791920185089111328125</LongitudeDegrees>
            </Position>
            <AltitudeMeters>1506.199951171875</AltitudeMeters>
            <DistanceMeters>NAN</DistanceMeters>
          </Trackpoint>
          <Trackpoint>
            <Time>2018-12-30T10:37:19.000Z</Time>
            <Position>
              <LatitudeDegrees>40.779027454555034637451171875</LatitudeDegrees>
              <LongitudeDegrees>-4.0699693746864795684814453125</LongitudeDegrees>
            </Position>
            <AltitudeMeters>1506.4000244140625</AltitudeMeters>
            <DistanceMeters>NAN</DistanceMeters>
          </Trackpoint>
          <Trackpoint>
            <Time>2018-12-30T10:37:20.000Z</Time>
            <Position>
              <LatitudeDegrees>40.77903449535369873046875</LatitudeDegrees>
              <LongitudeDegrees>-4.0699928440153598785400390625</LongitudeDegrees>
            </Position>
            <AltitudeMeters>1506.5999755859375</AltitudeMeters>
            <DistanceMeters>NAN</DistanceMeters>
          </Trackpoint>
          <Trackpoint>
            <Time>2018-12-30T10:37:21.000Z</Time>
            <Position>
              <LatitudeDegrees>40.779046230018138885498046875</LatitudeDegrees>
              <LongitudeDegrees>-4.07000583596527576446533203125</LongitudeDegrees>
            </Position>
            <AltitudeMeters>1507</AltitudeMeters>
            <DistanceMeters>NAN</DistanceMeters>
          </Trackpoint>
          <Trackpoint>
            <Time>2018-12-30T10:37:22.000Z</Time>
            <Position>
              <LatitudeDegrees>40.7790547795593738555908203125</LatitudeDegrees>
              <LongitudeDegrees>-4.07002352178096771240234375</LongitudeDegrees>
            </Position>
            <AltitudeMeters>1507</AltitudeMeters>
            <DistanceMeters>NAN</DistanceMeters>
          </Trackpoint>
          <Trackpoint>
            <Time>2018-12-30T10:37:23.000Z</Time>
            <Position>
              <LatitudeDegrees>40.77906609512865543365478515625</LatitudeDegrees>
              <LongitudeDegrees>-4.070045985281467437744140625</LongitudeDegrees>
            </Position>
            <AltitudeMeters>1507.199951171875</AltitudeMeters>
            <DistanceMeters>NAN</DistanceMeters>
          </Trackpoint>
          <Trackpoint>
            <Time>2018-12-30T10:37:24.000Z</Time>
            <Position>
              <LatitudeDegrees>40.77907648868858814239501953125</LatitudeDegrees>
              <LongitudeDegrees>-4.07006316818296909332275390625</LongitudeDegrees>
            </Position>
            <AltitudeMeters>1507.199951171875</AltitudeMeters>
            <DistanceMeters>NAN</DistanceMeters>
          </Trackpoint>
          <Trackpoint>
            <Time>2018-12-30T10:37:25.000Z</Time>
            <Position>
              <LatitudeDegrees>40.77908554114401340484619140625</LatitudeDegrees>
              <LongitudeDegrees>-4.070089571177959442138671875</LongitudeDegrees>
            </Position>
            <AltitudeMeters>1507.4000244140625</AltitudeMeters>
            <DistanceMeters>NAN</DistanceMeters>
          </Trackpoint>
          <Trackpoint>
            <Time>2018-12-30T10:37:26.000Z</Time>
            <Position>
              <LatitudeDegrees>40.77909945510327816009521484375</LatitudeDegrees>
              <LongitudeDegrees>-4.0701091848313808441162109375</LongitudeDegrees>
            </Position>
            <AltitudeMeters>1507.4000244140625</AltitudeMeters>
            <DistanceMeters>NAN</DistanceMeters>
          </Trackpoint>
          <Trackpoint>
            <Time>2018-12-30T10:37:27.000Z</Time>
            <Position>
              <LatitudeDegrees>40.77911454252898693084716796875</LatitudeDegrees>
              <LongitudeDegrees>-4.07013215124607086181640625</LongitudeDegrees>
            </Position>
            <AltitudeMeters>1507.4000244140625</AltitudeMeters>
            <DistanceMeters>NAN</DistanceMeters>
          </Trackpoint>
          <Trackpoint>
            <Time>2018-12-30T10:37:28.000Z</Time>
            <Position>
              <LatitudeDegrees>40.7791243493556976318359375</LatitudeDegrees>
              <LongitudeDegrees>-4.07014464028179645538330078125</LongitudeDegrees>
            </Position>
            <AltitudeMeters>1507.199951171875</AltitudeMeters>
            <DistanceMeters>NAN</DistanceMeters>
          </Trackpoint>
          <Trackpoint>
            <Time>2018-12-30T10:37:29.000Z</Time>
            <Position>
              <LatitudeDegrees>40.7791305519640445709228515625</LatitudeDegrees>
              <LongitudeDegrees>-4.0701537765562534332275390625</LongitudeDegrees>
            </Position>
            <AltitudeMeters>1507.199951171875</AltitudeMeters>
            <DistanceMeters>NAN</DistanceMeters>
          </Trackpoint>
          <Trackpoint>
            <Time>2018-12-30T10:37:30.000Z</Time>
            <Position>
              <LatitudeDegrees>40.779135413467884063720703125</LatitudeDegrees>
              <LongitudeDegrees>-4.0701628290116786956787109375</LongitudeDegrees>
            </Position>
            <AltitudeMeters>1507.199951171875</AltitudeMeters>
            <DistanceMeters>NAN</DistanceMeters>
          </Trackpoint>
          <Trackpoint>
            <Time>2018-12-30T10:37:31.000Z</Time>
            <Position>
              <LatitudeDegrees>40.77913834713399410247802734375</LatitudeDegrees>
              <LongitudeDegrees>-4.0701722167432308197021484375</LongitudeDegrees>
            </Position>
            <AltitudeMeters>1507.199951171875</AltitudeMeters>
            <DistanceMeters>NAN</DistanceMeters>
          </Trackpoint>
          <Trackpoint>
            <Time>2018-12-30T10:37:32.000Z</Time>
            <Position>
              <LatitudeDegrees>40.77914220280945301055908203125</LatitudeDegrees>
              <LongitudeDegrees>-4.07018445432186126708984375</LongitudeDegrees>
            </Position>
            <AltitudeMeters>1507.4000244140625</AltitudeMeters>
            <DistanceMeters>NAN</DistanceMeters>
          </Trackpoint>
          <Trackpoint>
            <Time>2018-12-30T10:37:33.000Z</Time>
            <Position>
              <LatitudeDegrees>40.7791473157703876495361328125</LatitudeDegrees>
              <LongitudeDegrees>-4.0701980330049991607666015625</LongitudeDegrees>
            </Position>
            <AltitudeMeters>1507.4000244140625</AltitudeMeters>
            <DistanceMeters>NAN</DistanceMeters>
          </Trackpoint>
          <Trackpoint>
            <Time>2018-12-30T10:37:34.000Z</Time>
            <Position>
              <LatitudeDegrees>40.77915393747389316558837890625</LatitudeDegrees>
              <LongitudeDegrees>-4.07021907158195972442626953125</LongitudeDegrees>
            </Position>
            <AltitudeMeters>1507.5999755859375</AltitudeMeters>
            <DistanceMeters>NAN</DistanceMeters>
          </Trackpoint>
          <Trackpoint>
            <Time>2018-12-30T10:37:35.000Z</Time>
            <Position>
              <LatitudeDegrees>40.77915980480611324310302734375</LatitudeDegrees>
              <LongitudeDegrees>-4.07023281790316104888916015625</LongitudeDegrees>
            </Position>
            <AltitudeMeters>1507.5999755859375</AltitudeMeters>
            <DistanceMeters>NAN</DistanceMeters>
          </Trackpoint>
          <Trackpoint>
            <Time>2018-12-30T10:37:36.000Z</Time>
            <Position>
              <LatitudeDegrees>40.77916399575769901275634765625</LatitudeDegrees>
              <LongitudeDegrees>-4.0702456422150135040283203125</LongitudeDegrees>
            </Position>
            <AltitudeMeters>1507.800048828125</AltitudeMeters>
            <DistanceMeters>NAN</DistanceMeters>
          </Trackpoint>
          <Trackpoint>
            <Time>2018-12-30T10:37:37.000Z</Time>
            <Position>
              <LatitudeDegrees>40.77917003072798252105712890625</LatitudeDegrees>
              <LongitudeDegrees>-4.07025754451751708984375</LongitudeDegrees>
            </Position>
            <AltitudeMeters>1507.800048828125</AltitudeMeters>
            <DistanceMeters>NAN</DistanceMeters>
          </Trackpoint>
          <Trackpoint>
            <Time>2018-12-30T10:37:38.000Z</Time>
            <Position>
              <LatitudeDegrees>40.77917338348925113677978515625</LatitudeDegrees>
              <LongitudeDegrees>-4.0702697820961475372314453125</LongitudeDegrees>
            </Position>
            <AltitudeMeters>1507.5999755859375</AltitudeMeters>
            <DistanceMeters>NAN</DistanceMeters>
          </Trackpoint>
          <Trackpoint>
            <Time>2018-12-30T10:37:39.000Z</Time>
            <Position>
              <LatitudeDegrees>40.77917723916471004486083984375</LatitudeDegrees>
              <LongitudeDegrees>-4.0702857077121734619140625</LongitudeDegrees>
            </Position>
            <AltitudeMeters>1507.5999755859375</AltitudeMeters>
            <DistanceMeters>NAN</DistanceMeters>
          </Trackpoint>
          <Trackpoint>
            <Time>2018-12-30T10:37:40.000Z</Time>
            <Position>
              <LatitudeDegrees>40.77918126247823238372802734375</LatitudeDegrees>
              <LongitudeDegrees>-4.0702964365482330322265625</LongitudeDegrees>
            </Position>
            <AltitudeMeters>1507.4000244140625</AltitudeMeters>
            <DistanceMeters>NAN</DistanceMeters>
          </Trackpoint>
          <Trackpoint>
            <Time>2018-12-30T10:37:41.000Z</Time>
            <Position>
              <LatitudeDegrees>40.77918226830661296844482421875</LatitudeDegrees>
              <LongitudeDegrees>-4.07030875794589519500732421875</LongitudeDegrees>
            </Position>
            <AltitudeMeters>1507.4000244140625</AltitudeMeters>
            <DistanceMeters>NAN</DistanceMeters>
          </Trackpoint>
          <Trackpoint>
            <Time>2018-12-30T10:37:42.000Z</Time>
            <Position>
              <LatitudeDegrees>40.779189057648181915283203125</LatitudeDegrees>
              <LongitudeDegrees>-4.0703207440674304962158203125</LongitudeDegrees>
            </Position>
            <AltitudeMeters>1507.4000244140625</AltitudeMeters>
            <DistanceMeters>NAN</DistanceMeters>
          </Trackpoint>
          <Trackpoint>
            <Time>2018-12-30T10:37:43.000Z</Time>
            <Position>
              <LatitudeDegrees>40.7791976071894168853759765625</LatitudeDegrees>
              <LongitudeDegrees>-4.07033490948379039764404296875</LongitudeDegrees>
            </Position>
            <AltitudeMeters>1507.4000244140625</AltitudeMeters>
            <DistanceMeters>NAN</DistanceMeters>
          </Trackpoint>
          <Trackpoint>
            <Time>2018-12-30T10:37:44.000Z</Time>
            <Position>
              <LatitudeDegrees>40.77920054085552692413330078125</LatitudeDegrees>
              <LongitudeDegrees>-4.07034094445407390594482421875</LongitudeDegrees>
            </Position>
            <AltitudeMeters>1507.4000244140625</AltitudeMeters>
            <DistanceMeters>NAN</DistanceMeters>
          </Trackpoint>
          <Trackpoint>
            <Time>2018-12-30T10:37:45.000Z</Time>
            <Position>
              <LatitudeDegrees>40.77919852919876575469970703125</LatitudeDegrees>
              <LongitudeDegrees>-4.07034144736826419830322265625</LongitudeDegrees>
            </Position>
            <AltitudeMeters>1507.5999755859375</AltitudeMeters>
            <DistanceMeters>NAN</DistanceMeters>
          </Trackpoint>
          <Trackpoint>
            <Time>2018-12-30T10:37:46.000Z</Time>
            <Position>
              <LatitudeDegrees>40.77919668518006801605224609375</LatitudeDegrees>
              <LongitudeDegrees>-4.07034446485340595245361328125</LongitudeDegrees>
            </Position>
            <AltitudeMeters>1507.5999755859375</AltitudeMeters>
            <DistanceMeters>NAN</DistanceMeters>
          </Trackpoint>
          <Trackpoint>
            <Time>2018-12-30T10:37:47.000Z</Time>
            <Position>
              <LatitudeDegrees>40.77919819392263889312744140625</LatitudeDegrees>
              <LongitudeDegrees>-4.07034614123404026031494140625</LongitudeDegrees>
            </Position>
            <AltitudeMeters>1507.5999755859375</AltitudeMeters>
            <DistanceMeters>NAN</DistanceMeters>
          </Trackpoint>
          <Trackpoint>
            <Time>2018-12-30T10:37:48.000Z</Time>
            <Position>
              <LatitudeDegrees>40.77920288778841495513916015625</LatitudeDegrees>
              <LongitudeDegrees>-4.07034865580499172210693359375</LongitudeDegrees>
            </Position>
            <AltitudeMeters>1507.5999755859375</AltitudeMeters>
            <DistanceMeters>NAN</DistanceMeters>
          </Trackpoint>
          <Trackpoint>
            <Time>2018-12-30T10:37:49.000Z</Time>
            <Position>
              <LatitudeDegrees>40.77920204959809780120849609375</LatitudeDegrees>
              <LongitudeDegrees>-4.0703475661575794219970703125</LongitudeDegrees>
            </Position>
            <AltitudeMeters>1507.5999755859375</AltitudeMeters>
            <DistanceMeters>NAN</DistanceMeters>
          </Trackpoint>
          <Trackpoint>
            <Time>2018-12-30T10:37:50.000Z</Time>
            <Position>
              <LatitudeDegrees>40.779205821454524993896484375</LatitudeDegrees>
              <LongitudeDegrees>-4.07035477459430694580078125</LongitudeDegrees>
            </Position>
            <AltitudeMeters>1507.800048828125</AltitudeMeters>
            <DistanceMeters>NAN</DistanceMeters>
          </Trackpoint>
          <Trackpoint>
            <Time>2018-12-30T10:37:51.000Z</Time>
            <Position>
              <LatitudeDegrees>40.77920741401612758636474609375</LatitudeDegrees>
              <LongitudeDegrees>-4.07035921700298786163330078125</LongitudeDegrees>
            </Position>
            <AltitudeMeters>1508</AltitudeMeters>
            <DistanceMeters>NAN</DistanceMeters>
          </Trackpoint>
          <Trackpoint>
            <Time>2018-12-30T10:37:52.000Z</Time>
            <Position>
              <LatitudeDegrees>40.7792130298912525177001953125</LatitudeDegrees>
              <LongitudeDegrees>-4.070365838706493377685546875</LongitudeDegrees>
            </Position>
            <AltitudeMeters>1508</AltitudeMeters>
            <DistanceMeters>NAN</DistanceMeters>
          </Trackpoint>
          <Trackpoint>
            <Time>2018-12-30T10:37:53.000Z</Time>
            <Position>
              <LatitudeDegrees>40.7792110182344913482666015625</LatitudeDegrees>
              <LongitudeDegrees>-4.07037095166742801666259765625</LongitudeDegrees>
            </Position>
            <AltitudeMeters>1508</AltitudeMeters>
            <DistanceMeters>NAN</DistanceMeters>
          </Trackpoint>
          <Trackpoint>
            <Time>2018-12-30T10:37:54.000Z</Time>
            <Position>
              <LatitudeDegrees>40.77920556999742984771728515625</LatitudeDegrees>
              <LongitudeDegrees>-4.07037564553320407867431640625</LongitudeDegrees>
            </Position>
            <AltitudeMeters>1508</AltitudeMeters>
            <DistanceMeters>NAN</DistanceMeters>
          </Trackpoint>
          <Trackpoint>
            <Time>2018-12-30T10:37:55.000Z</Time>
            <Position>
              <LatitudeDegrees>40.779206492006778717041015625</LatitudeDegrees>
              <LongitudeDegrees>-4.07038587145507335662841796875</LongitudeDegrees>
            </Position>
            <AltitudeMeters>1508</AltitudeMeters>
            <DistanceMeters>NAN</DistanceMeters>
          </Trackpoint>
          <Trackpoint>
            <Time>2018-12-30T10:37:56.000Z</Time>
            <Position>
              <LatitudeDegrees>40.77920674346387386322021484375</LatitudeDegrees>
              <LongitudeDegrees>-4.070399366319179534912109375</LongitudeDegrees>
            </Position>
            <AltitudeMeters>1508.199951171875</AltitudeMeters>
            <DistanceMeters>NAN</DistanceMeters>
          </Trackpoint>
          <Trackpoint>
            <Time>2018-12-30T10:37:57.000Z</Time>
            <Position>
              <LatitudeDegrees>40.779204480350017547607421875</LatitudeDegrees>
              <LongitudeDegrees>-4.07041051425039768218994140625</LongitudeDegrees>
            </Position>
            <AltitudeMeters>1508.4000244140625</AltitudeMeters>
            <DistanceMeters>NAN</DistanceMeters>
          </Trackpoint>
          <Trackpoint>
            <Time>2018-12-30T10:37:58.000Z</Time>
            <Position>
              <LatitudeDegrees>40.7792076654732227325439453125</LatitudeDegrees>
              <LongitudeDegrees>-4.070420823991298675537109375</LongitudeDegrees>
            </Position>
            <AltitudeMeters>1508.4000244140625</AltitudeMeters>
            <DistanceMeters>NAN</DistanceMeters>
          </Trackpoint>
          <Trackpoint>
            <Time>2018-12-30T10:37:59.000Z</Time>
            <Position>
              <LatitudeDegrees>40.77920774929225444793701171875</LatitudeDegrees>
              <LongitudeDegrees>-4.07043163664638996124267578125</LongitudeDegrees>
            </Position>
            <AltitudeMeters>1508.5999755859375</AltitudeMeters>
            <DistanceMeters>NAN</DistanceMeters>
          </Trackpoint>
          <Trackpoint>
            <Time>2018-12-30T10:38:00.000Z</Time>
            <Position>
              <LatitudeDegrees>40.7792103476822376251220703125</LatitudeDegrees>
              <LongitudeDegrees>-4.07043792307376861572265625</LongitudeDegrees>
            </Position>
            <AltitudeMeters>1508.800048828125</AltitudeMeters>
            <DistanceMeters>NAN</DistanceMeters>
          </Trackpoint>
          <Trackpoint>
            <Time>2018-12-30T10:38:01.000Z</Time>
            <Position>
              <LatitudeDegrees>40.7792076654732227325439453125</LatitudeDegrees>
              <LongitudeDegrees>-4.07043985091149806976318359375</LongitudeDegrees>
            </Position>
            <AltitudeMeters>1509</AltitudeMeters>
            <DistanceMeters>NAN</DistanceMeters>
          </Trackpoint>
          <Trackpoint>
            <Time>2018-12-30T10:38:02.000Z</Time>
            <Position>
              <LatitudeDegrees>40.7792086713016033172607421875</LatitudeDegrees>
              <LongitudeDegrees>-4.07044856809079647064208984375</LongitudeDegrees>
            </Position>
            <AltitudeMeters>1509</AltitudeMeters>
            <DistanceMeters>NAN</DistanceMeters>
          </Trackpoint>
          <Trackpoint>
            <Time>2018-12-30T10:38:03.000Z</Time>
            <Position>
              <LatitudeDegrees>40.7792093418538570404052734375</LatitudeDegrees>
              <LongitudeDegrees>-4.070456363260746002197265625</LongitudeDegrees>
            </Position>
            <AltitudeMeters>1509</AltitudeMeters>
            <DistanceMeters>NAN</DistanceMeters>
          </Trackpoint>
          <Trackpoint>
            <Time>2018-12-30T10:38:04.000Z</Time>
            <Position>
              <LatitudeDegrees>40.77920724637806415557861328125</LatitudeDegrees>
              <LongitudeDegrees>-4.07046533189713954925537109375</LongitudeDegrees>
            </Position>
            <AltitudeMeters>1509</AltitudeMeters>
            <DistanceMeters>NAN</DistanceMeters>
          </Trackpoint>
          <Trackpoint>
            <Time>2018-12-30T10:38:05.000Z</Time>
            <Position>
              <LatitudeDegrees>40.779208503663539886474609375</LatitudeDegrees>
              <LongitudeDegrees>-4.07047388143837451934814453125</LongitudeDegrees>
            </Position>
            <AltitudeMeters>1509.199951171875</AltitudeMeters>
            <DistanceMeters>NAN</DistanceMeters>
          </Trackpoint>
          <Trackpoint>
            <Time>2018-12-30T10:38:06.000Z</Time>
            <Position>
              <LatitudeDegrees>40.77921110205352306365966796875</LatitudeDegrees>
              <LongitudeDegrees>-4.070482514798641204833984375</LongitudeDegrees>
            </Position>
            <AltitudeMeters>1509.199951171875</AltitudeMeters>
            <DistanceMeters>NAN</DistanceMeters>
          </Trackpoint>
          <Trackpoint>
            <Time>2018-12-30T10:38:07.000Z</Time>
            <Position>
              <LatitudeDegrees>40.7792163826525211334228515625</LatitudeDegrees>
              <LongitudeDegrees>-4.07049693167209625244140625</LongitudeDegrees>
            </Position>
            <AltitudeMeters>1509.4000244140625</AltitudeMeters>
            <DistanceMeters>NAN</DistanceMeters>
          </Trackpoint>
          <Trackpoint>
            <Time>2018-12-30T10:38:08.000Z</Time>
            <Position>
              <LatitudeDegrees>40.77922635711729526519775390625</LatitudeDegrees>
              <LongitudeDegrees>-4.07051595859229564666748046875</LongitudeDegrees>
            </Position>
            <AltitudeMeters>1509.800048828125</AltitudeMeters>
            <DistanceMeters>NAN</DistanceMeters>
          </Trackpoint>
          <Trackpoint>
            <Time>2018-12-30T10:38:09.000Z</Time>
            <Position>
              <LatitudeDegrees>40.77923364937305450439453125</LatitudeDegrees>
              <LongitudeDegrees>-4.0705329738557338714599609375</LongitudeDegrees>
            </Position>
            <AltitudeMeters>1510</AltitudeMeters>
            <DistanceMeters>NAN</DistanceMeters>
          </Trackpoint>
          <Trackpoint>
            <Time>2018-12-30T10:38:10.000Z</Time>
            <Position>
              <LatitudeDegrees>40.77923708595335483551025390625</LatitudeDegrees>
              <LongitudeDegrees>-4.070541858673095703125</LongitudeDegrees>
            </Position>
            <AltitudeMeters>1510.199951171875</AltitudeMeters>
            <DistanceMeters>NAN</DistanceMeters>
          </Trackpoint>
          <Trackpoint>
            <Time>2018-12-30T10:38:11.000Z</Time>
            <Position>
              <LatitudeDegrees>40.77924110926687717437744140625</LatitudeDegrees>
              <LongitudeDegrees>-4.07055233605206012725830078125</LongitudeDegrees>
            </Position>
            <AltitudeMeters>1510.4000244140625</AltitudeMeters>
            <DistanceMeters>NAN</DistanceMeters>
          </Trackpoint>
          <Trackpoint>
            <Time>2018-12-30T10:38:12.000Z</Time>
            <Position>
              <LatitudeDegrees>40.77924462966620922088623046875</LatitudeDegrees>
              <LongitudeDegrees>-4.0705614723265171051025390625</LongitudeDegrees>
            </Position>
            <AltitudeMeters>1510.4000244140625</AltitudeMeters>
            <DistanceMeters>NAN</DistanceMeters>
          </Trackpoint>
          <Trackpoint>
            <Time>2018-12-30T10:38:13.000Z</Time>
            <Position>
              <LatitudeDegrees>40.77924974262714385986328125</LatitudeDegrees>
              <LongitudeDegrees>-4.0705711953341960906982421875</LongitudeDegrees>
            </Position>
            <AltitudeMeters>1510.4000244140625</AltitudeMeters>
            <DistanceMeters>NAN</DistanceMeters>
          </Trackpoint>
          <Trackpoint>
            <Time>2018-12-30T10:38:14.000Z</Time>
            <Position>
              <LatitudeDegrees>40.77925871126353740692138671875</LatitudeDegrees>
              <LongitudeDegrees>-4.070591814815998077392578125</LongitudeDegrees>
            </Position>
            <AltitudeMeters>1510.4000244140625</AltitudeMeters>
            <DistanceMeters>NAN</DistanceMeters>
          </Trackpoint>
          <Trackpoint>
            <Time>2018-12-30T10:38:15.000Z</Time>
            <Position>
              <LatitudeDegrees>40.77926759608089923858642578125</LatitudeDegrees>
              <LongitudeDegrees>-4.07060212455689907073974609375</LongitudeDegrees>
            </Position>
            <AltitudeMeters>1510.4000244140625</AltitudeMeters>
            <DistanceMeters>NAN</DistanceMeters>
          </Trackpoint>
          <Trackpoint>
            <Time>2018-12-30T10:38:16.000Z</Time>
            <Position>
              <LatitudeDegrees>40.77927178703248500823974609375</LatitudeDegrees>
              <LongitudeDegrees>-4.070615284144878387451171875</LongitudeDegrees>
            </Position>
            <AltitudeMeters>1510.4000244140625</AltitudeMeters>
            <DistanceMeters>NAN</DistanceMeters>
          </Trackpoint>
          <Trackpoint>
            <Time>2018-12-30T10:38:17.000Z</Time>
            <Position>
              <LatitudeDegrees>40.77927363105118274688720703125</LatitudeDegrees>
              <LongitudeDegrees>-4.07062425278127193450927734375</LongitudeDegrees>
            </Position>
            <AltitudeMeters>1510.5999755859375</AltitudeMeters>
            <DistanceMeters>NAN</DistanceMeters>
          </Trackpoint>
          <Trackpoint>
            <Time>2018-12-30T10:38:18.000Z</Time>
            <Position>
              <LatitudeDegrees>40.77927446924149990081787109375</LatitudeDegrees>
              <LongitudeDegrees>-4.07063447870314121246337890625</LongitudeDegrees>
            </Position>
            <AltitudeMeters>1510.800048828125</AltitudeMeters>
            <DistanceMeters>NAN</DistanceMeters>
          </Trackpoint>
          <Trackpoint>
            <Time>2018-12-30T10:38:19.000Z</Time>
            <Position>
              <LatitudeDegrees>40.77927715145051479339599609375</LatitudeDegrees>
              <LongitudeDegrees>-4.07064177095890045166015625</LongitudeDegrees>
            </Position>
            <AltitudeMeters>1510.800048828125</AltitudeMeters>
            <DistanceMeters>NAN</DistanceMeters>
          </Trackpoint>
          <Trackpoint>
            <Time>2018-12-30T10:38:20.000Z</Time>
            <Position>
              <LatitudeDegrees>40.779278911650180816650390625</LatitudeDegrees>
              <LongitudeDegrees>-4.070651493966579437255859375</LongitudeDegrees>
            </Position>
            <AltitudeMeters>1511</AltitudeMeters>
            <DistanceMeters>NAN</DistanceMeters>
          </Trackpoint>
          <Trackpoint>
            <Time>2018-12-30T10:38:21.000Z</Time>
            <Position>
              <LatitudeDegrees>40.7792921550571918487548828125</LatitudeDegrees>
              <LongitudeDegrees>-4.0706892125308513641357421875</LongitudeDegrees>
            </Position>
            <AltitudeMeters>1511.199951171875</AltitudeMeters>
            <DistanceMeters>NAN</DistanceMeters>
          </Trackpoint>
          <Trackpoint>
            <Time>2018-12-30T10:38:22.000Z</Time>
            <Position>
              <LatitudeDegrees>40.77929131686687469482421875</LatitudeDegrees>
              <LongitudeDegrees>-4.07070069573819637298583984375</LongitudeDegrees>
            </Position>
            <AltitudeMeters>1511.4000244140625</AltitudeMeters>
            <DistanceMeters>NAN</DistanceMeters>
          </Trackpoint>
          <Trackpoint>
            <Time>2018-12-30T10:38:23.000Z</Time>
            <Position>
              <LatitudeDegrees>40.77929492108523845672607421875</LatitudeDegrees>
              <LongitudeDegrees>-4.07070874236524105072021484375</LongitudeDegrees>
            </Position>
            <AltitudeMeters>1511.5999755859375</AltitudeMeters>
            <DistanceMeters>NAN</DistanceMeters>
          </Trackpoint>
          <Trackpoint>
            <Time>2018-12-30T10:38:24.000Z</Time>
            <Position>
              <LatitudeDegrees>40.779298357665538787841796875</LatitudeDegrees>
              <LongitudeDegrees>-4.070714525878429412841796875</LongitudeDegrees>
            </Position>
            <AltitudeMeters>1511.800048828125</AltitudeMeters>
            <DistanceMeters>NAN</DistanceMeters>
          </Trackpoint>
          <Trackpoint>
            <Time>2018-12-30T10:38:25.000Z</Time>
            <Position>
              <LatitudeDegrees>40.7793008722364902496337890625</LatitudeDegrees>
              <LongitudeDegrees>-4.07072466798126697540283203125</LongitudeDegrees>
            </Position>
            <AltitudeMeters>1512</AltitudeMeters>
            <DistanceMeters>NAN</DistanceMeters>
          </Trackpoint>
          <Trackpoint>
            <Time>2018-12-30T10:38:26.000Z</Time>
            <Position>
              <LatitudeDegrees>40.77930414117872714996337890625</LatitudeDegrees>
              <LongitudeDegrees>-4.07073891721665859222412109375</LongitudeDegrees>
            </Position>
            <AltitudeMeters>1512.199951171875</AltitudeMeters>
            <DistanceMeters>NAN</DistanceMeters>
          </Trackpoint>
          <Trackpoint>
            <Time>2018-12-30T10:38:27.000Z</Time>
            <Position>
              <LatitudeDegrees>40.779322497546672821044921875</LatitudeDegrees>
              <LongitudeDegrees>-4.07079524360597133636474609375</LongitudeDegrees>
            </Position>
            <AltitudeMeters>1512.4000244140625</AltitudeMeters>
            <DistanceMeters>NAN</DistanceMeters>
          </Trackpoint>
          <Trackpoint>
            <Time>2018-12-30T10:38:28.000Z</Time>
            <Position>
              <LatitudeDegrees>40.7793313823640346527099609375</LatitudeDegrees>
              <LongitudeDegrees>-4.07082692719995975494384765625</LongitudeDegrees>
            </Position>
            <AltitudeMeters>1512.4000244140625</AltitudeMeters>
            <DistanceMeters>NAN</DistanceMeters>
          </Trackpoint>
          <Trackpoint>
            <Time>2018-12-30T10:38:29.000Z</Time>
            <Position>
              <LatitudeDegrees>40.7793317176401615142822265625</LatitudeDegrees>
              <LongitudeDegrees>-4.07084201462566852569580078125</LongitudeDegrees>
            </Position>
            <AltitudeMeters>1512.4000244140625</AltitudeMeters>
            <DistanceMeters>NAN</DistanceMeters>
          </Trackpoint>
          <Trackpoint>
            <Time>2018-12-30T10:38:30.000Z</Time>
            <Position>
              <LatitudeDegrees>40.77933364547789096832275390625</LatitudeDegrees>
              <LongitudeDegrees>-4.0708521567285060882568359375</LongitudeDegrees>
            </Position>
            <AltitudeMeters>1512.4000244140625</AltitudeMeters>
            <DistanceMeters>NAN</DistanceMeters>
          </Trackpoint>
          <Trackpoint>
            <Time>2018-12-30T10:38:31.000Z</Time>
            <Position>
              <LatitudeDegrees>40.77933599241077899932861328125</LatitudeDegrees>
              <LongitudeDegrees>-4.0708605386316776275634765625</LongitudeDegrees>
            </Position>
            <AltitudeMeters>1512.5999755859375</AltitudeMeters>
            <DistanceMeters>NAN</DistanceMeters>
          </Trackpoint>
          <Trackpoint>
            <Time>2018-12-30T10:38:32.000Z</Time>
            <Position>
              <LatitudeDegrees>40.77934688888490200042724609375</LatitudeDegrees>
              <LongitudeDegrees>-4.0708803199231624603271484375</LongitudeDegrees>
            </Position>
            <AltitudeMeters>1512.5999755859375</AltitudeMeters>
            <DistanceMeters>NAN</DistanceMeters>
          </Trackpoint>
          <Trackpoint>
            <Time>2018-12-30T10:38:33.000Z</Time>
            <Position>
              <LatitudeDegrees>40.77935275621712207794189453125</LatitudeDegrees>
              <LongitudeDegrees>-4.0708873607218265533447265625</LongitudeDegrees>
            </Position>
            <AltitudeMeters>1512.800048828125</AltitudeMeters>
            <DistanceMeters>NAN</DistanceMeters>
          </Trackpoint>
          <Trackpoint>
            <Time>2018-12-30T10:38:34.000Z</Time>
            <Position>
              <LatitudeDegrees>40.77935594134032726287841796875</LatitudeDegrees>
              <LongitudeDegrees>-4.07089515589177608489990234375</LongitudeDegrees>
            </Position>
            <AltitudeMeters>1513</AltitudeMeters>
            <DistanceMeters>NAN</DistanceMeters>
          </Trackpoint>
          <Trackpoint>
            <Time>2018-12-30T10:38:35.000Z</Time>
            <Position>
              <LatitudeDegrees>40.77936063520610332489013671875</LatitudeDegrees>
              <LongitudeDegrees>-4.07090890221297740936279296875</LongitudeDegrees>
            </Position>
            <AltitudeMeters>1513.199951171875</AltitudeMeters>
            <DistanceMeters>NAN</DistanceMeters>
          </Trackpoint>
          <Trackpoint>
            <Time>2018-12-30T10:38:36.000Z</Time>
            <Position>
              <LatitudeDegrees>40.77936365269124507904052734375</LatitudeDegrees>
              <LongitudeDegrees>-4.0709165297448635101318359375</LongitudeDegrees>
            </Position>
            <AltitudeMeters>1513.199951171875</AltitudeMeters>
            <DistanceMeters>NAN</DistanceMeters>
          </Trackpoint>
          <Trackpoint>
            <Time>2018-12-30T10:38:37.000Z</Time>
            <Position>
              <LatitudeDegrees>40.77936901710927486419677734375</LatitudeDegrees>
              <LongitudeDegrees>-4.0709235705435276031494140625</LongitudeDegrees>
            </Position>
            <AltitudeMeters>1513.4000244140625</AltitudeMeters>
            <DistanceMeters>NAN</DistanceMeters>
          </Trackpoint>
          <Trackpoint>
            <Time>2018-12-30T10:38:38.000Z</Time>
            <Position>
              <LatitudeDegrees>40.7793732918798923492431640625</LatitudeDegrees>
              <LongitudeDegrees>-4.07093622721731662750244140625</LongitudeDegrees>
            </Position>
            <AltitudeMeters>1513.4000244140625</AltitudeMeters>
            <DistanceMeters>NAN</DistanceMeters>
          </Trackpoint>
          <Trackpoint>
            <Time>2018-12-30T10:38:39.000Z</Time>
            <Position>
              <LatitudeDegrees>40.77937773428857326507568359375</LatitudeDegrees>
              <LongitudeDegrees>-4.0709453634917736053466796875</LongitudeDegrees>
            </Position>
            <AltitudeMeters>1513.5999755859375</AltitudeMeters>
            <DistanceMeters>NAN</DistanceMeters>
          </Trackpoint>
          <Trackpoint>
            <Time>2018-12-30T10:38:40.000Z</Time>
            <Position>
              <LatitudeDegrees>40.7793840207159519195556640625</LatitudeDegrees>
              <LongitudeDegrees>-4.0709594450891017913818359375</LongitudeDegrees>
            </Position>
            <AltitudeMeters>1513.800048828125</AltitudeMeters>
            <DistanceMeters>NAN</DistanceMeters>
          </Trackpoint>
          <Trackpoint>
            <Time>2018-12-30T10:38:41.000Z</Time>
            <Position>
              <LatitudeDegrees>40.7793997786939144134521484375</LatitudeDegrees>
              <LongitudeDegrees>-4.0709765441715717315673828125</LongitudeDegrees>
            </Position>
            <AltitudeMeters>1514</AltitudeMeters>
            <DistanceMeters>NAN</DistanceMeters>
          </Trackpoint>
          <Trackpoint>
            <Time>2018-12-30T10:38:42.000Z</Time>
            <Position>
              <LatitudeDegrees>40.779408998787403106689453125</LatitudeDegrees>
              <LongitudeDegrees>-4.07099171541631221771240234375</LongitudeDegrees>
            </Position>
            <AltitudeMeters>1514.199951171875</AltitudeMeters>
            <DistanceMeters>NAN</DistanceMeters>
          </Trackpoint>
          <Trackpoint>
            <Time>2018-12-30T10:38:43.000Z</Time>
            <Position>
              <LatitudeDegrees>40.77941201627254486083984375</LatitudeDegrees>
              <LongitudeDegrees>-4.07100529409945011138916015625</LongitudeDegrees>
            </Position>
            <AltitudeMeters>1514.199951171875</AltitudeMeters>
            <DistanceMeters>NAN</DistanceMeters>
          </Trackpoint>
          <Trackpoint>
            <Time>2018-12-30T10:38:44.000Z</Time>
            <Position>
              <LatitudeDegrees>40.77941344119608402252197265625</LatitudeDegrees>
              <LongitudeDegrees>-4.07101887278258800506591796875</LongitudeDegrees>
            </Position>
            <AltitudeMeters>1514.4000244140625</AltitudeMeters>
            <DistanceMeters>NAN</DistanceMeters>
          </Trackpoint>
          <Trackpoint>
            <Time>2018-12-30T10:38:45.000Z</Time>
            <Position>
              <LatitudeDegrees>40.7794165425002574920654296875</LatitudeDegrees>
              <LongitudeDegrees>-4.0710305236279964447021484375</LongitudeDegrees>
            </Position>
            <AltitudeMeters>1514.4000244140625</AltitudeMeters>
            <DistanceMeters>NAN</DistanceMeters>
          </Trackpoint>
          <Trackpoint>
            <Time>2018-12-30T10:38:46.000Z</Time>
            <Position>
              <LatitudeDegrees>40.77941813506186008453369140625</LatitudeDegrees>
              <LongitudeDegrees>-4.0710429288446903228759765625</LongitudeDegrees>
            </Position>
            <AltitudeMeters>1514.5999755859375</AltitudeMeters>
            <DistanceMeters>NAN</DistanceMeters>
          </Trackpoint>
          <Trackpoint>
            <Time>2018-12-30T10:38:47.000Z</Time>
            <Position>
              <LatitudeDegrees>40.77941763214766979217529296875</LatitudeDegrees>
              <LongitudeDegrees>-4.0710519813001155853271484375</LongitudeDegrees>
            </Position>
            <AltitudeMeters>1514.5999755859375</AltitudeMeters>
            <DistanceMeters>NAN</DistanceMeters>
          </Trackpoint>
          <Trackpoint>
            <Time>2018-12-30T10:38:48.000Z</Time>
            <Position>
              <LatitudeDegrees>40.77942140400409698486328125</LatitudeDegrees>
              <LongitudeDegrees>-4.07106799073517322540283203125</LongitudeDegrees>
            </Position>
            <AltitudeMeters>1514.5999755859375</AltitudeMeters>
            <DistanceMeters>NAN</DistanceMeters>
          </Trackpoint>
          <Trackpoint>
            <Time>2018-12-30T10:38:49.000Z</Time>
            <Position>
              <LatitudeDegrees>40.77942542731761932373046875</LatitudeDegrees>
              <LongitudeDegrees>-4.0710767917335033416748046875</LongitudeDegrees>
            </Position>
            <AltitudeMeters>1514.800048828125</AltitudeMeters>
            <DistanceMeters>NAN</DistanceMeters>
          </Trackpoint>
          <Trackpoint>
            <Time>2018-12-30T10:38:50.000Z</Time>
            <Position>
              <LatitudeDegrees>40.77943037264049053192138671875</LatitudeDegrees>
              <LongitudeDegrees>-4.07108542509377002716064453125</LongitudeDegrees>
            </Position>
            <AltitudeMeters>1514.800048828125</AltitudeMeters>
            <DistanceMeters>NAN</DistanceMeters>
          </Trackpoint>
          <Trackpoint>
            <Time>2018-12-30T10:38:51.000Z</Time>
            <Position>
              <LatitudeDegrees>40.7794296182692050933837890625</LatitudeDegrees>
              <LongitudeDegrees>-4.07109464518725872039794921875</LongitudeDegrees>
            </Position>
            <AltitudeMeters>1514.800048828125</AltitudeMeters>
            <DistanceMeters>NAN</DistanceMeters>
          </Trackpoint>
          <Trackpoint>
            <Time>2018-12-30T10:38:52.000Z</Time>
            <Position>
              <LatitudeDegrees>40.779437832534313201904296875</LatitudeDegrees>
              <LongitudeDegrees>-4.0710928849875926971435546875</LongitudeDegrees>
            </Position>
            <AltitudeMeters>1514.800048828125</AltitudeMeters>
            <DistanceMeters>NAN</DistanceMeters>
          </Trackpoint>
          <Trackpoint>
            <Time>2018-12-30T10:38:53.000Z</Time>
            <Position>
              <LatitudeDegrees>40.7794390060007572174072265625</LatitudeDegrees>
              <LongitudeDegrees>-4.07109933905303478240966796875</LongitudeDegrees>
            </Position>
            <AltitudeMeters>1515</AltitudeMeters>
            <DistanceMeters>NAN</DistanceMeters>
          </Trackpoint>
          <Trackpoint>
            <Time>2018-12-30T10:38:54.000Z</Time>
            <Position>
              <LatitudeDegrees>40.77943858690559864044189453125</LatitudeDegrees>
              <LongitudeDegrees>-4.071105457842350006103515625</LongitudeDegrees>
            </Position>
            <AltitudeMeters>1515.199951171875</AltitudeMeters>
            <DistanceMeters>NAN</DistanceMeters>
          </Trackpoint>
          <Trackpoint>
            <Time>2018-12-30T10:38:55.000Z</Time>
            <Position>
              <LatitudeDegrees>40.7794386707246303558349609375</LatitudeDegrees>
              <LongitudeDegrees>-4.07111308537423610687255859375</LongitudeDegrees>
            </Position>
            <AltitudeMeters>1515.4000244140625</AltitudeMeters>
            <DistanceMeters>NAN</DistanceMeters>
          </Trackpoint>
          <Trackpoint>
            <Time>2018-12-30T10:38:56.000Z</Time>
            <Position>
              <LatitudeDegrees>40.77944998629391193389892578125</LatitudeDegrees>
              <LongitudeDegrees>-4.07113605178892612457275390625</LongitudeDegrees>
            </Position>
            <AltitudeMeters>1515.800048828125</AltitudeMeters>
            <DistanceMeters>NAN</DistanceMeters>
          </Trackpoint>
          <Trackpoint>
            <Time>2018-12-30T10:38:57.000Z</Time>
            <Position>
              <LatitudeDegrees>40.77944998629391193389892578125</LatitudeDegrees>
              <LongitudeDegrees>-4.07113605178892612457275390625</LongitudeDegrees>
            </Position>
            <AltitudeMeters>1516</AltitudeMeters>
            <DistanceMeters>NAN</DistanceMeters>
          </Trackpoint>
          <Trackpoint>
            <Time>2018-12-30T10:38:58.000Z</Time>
            <Position>
              <LatitudeDegrees>40.77945870347321033477783203125</LatitudeDegrees>
              <LongitudeDegrees>-4.07114996574819087982177734375</LongitudeDegrees>
            </Position>
            <AltitudeMeters>1516.199951171875</AltitudeMeters>
            <DistanceMeters>NAN</DistanceMeters>
          </Trackpoint>
          <Trackpoint>
            <Time>2018-12-30T10:38:59.000Z</Time>
            <Position>
              <LatitudeDegrees>40.77947261743247509002685546875</LatitudeDegrees>
              <LongitudeDegrees>-4.07115717418491840362548828125</LongitudeDegrees>
            </Position>
            <AltitudeMeters>1516.4000244140625</AltitudeMeters>
            <DistanceMeters>NAN</DistanceMeters>
          </Trackpoint>
          <Trackpoint>
            <Time>2018-12-30T10:39:00.000Z</Time>
            <Position>
              <LatitudeDegrees>40.7794839330017566680908203125</LatitudeDegrees>
              <LongitudeDegrees>-4.07116505317389965057373046875</LongitudeDegrees>
            </Position>
            <AltitudeMeters>1516.4000244140625</AltitudeMeters>
            <DistanceMeters>NAN</DistanceMeters>
          </Trackpoint>
          <Trackpoint>
            <Time>2018-12-30T10:39:01.000Z</Time>
            <Position>
              <LatitudeDegrees>40.77949424274265766143798828125</LatitudeDegrees>
              <LongitudeDegrees>-4.07116656191647052764892578125</LongitudeDegrees>
            </Position>
            <AltitudeMeters>1516.5999755859375</AltitudeMeters>
            <DistanceMeters>NAN</DistanceMeters>
          </Trackpoint>
          <Trackpoint>
            <Time>2018-12-30T10:39:02.000Z</Time>
            <Position>
              <LatitudeDegrees>40.77950329519808292388916015625</LatitudeDegrees>
              <LongitudeDegrees>-4.071178548038005828857421875</LongitudeDegrees>
            </Position>
            <AltitudeMeters>1516.5999755859375</AltitudeMeters>
            <DistanceMeters>NAN</DistanceMeters>
          </Trackpoint>
          <Trackpoint>
            <Time>2018-12-30T10:39:03.000Z</Time>
            <Position>
              <LatitudeDegrees>40.77952190302312374114990234375</LatitudeDegrees>
              <LongitudeDegrees>-4.0711894445121288299560546875</LongitudeDegrees>
            </Position>
            <AltitudeMeters>1516.800048828125</AltitudeMeters>
            <DistanceMeters>NAN</DistanceMeters>
          </Trackpoint>
          <Trackpoint>
            <Time>2018-12-30T10:39:04.000Z</Time>
            <Position>
              <LatitudeDegrees>40.77953330241143703460693359375</LatitudeDegrees>
              <LongitudeDegrees>-4.07119438983500003814697265625</LongitudeDegrees>
            </Position>
            <AltitudeMeters>1517.199951171875</AltitudeMeters>
            <DistanceMeters>NAN</DistanceMeters>
          </Trackpoint>
          <Trackpoint>
            <Time>2018-12-30T10:39:05.000Z</Time>
            <Position>
              <LatitudeDegrees>40.7795432768762111663818359375</LatitudeDegrees>
              <LongitudeDegrees>-4.071204699575901031494140625</LongitudeDegrees>
            </Position>
            <AltitudeMeters>1517.4000244140625</AltitudeMeters>
            <DistanceMeters>NAN</DistanceMeters>
          </Trackpoint>
          <Trackpoint>
            <Time>2018-12-30T10:39:06.000Z</Time>
            <Position>
              <LatitudeDegrees>40.7795597054064273834228515625</LatitudeDegrees>
              <LongitudeDegrees>-4.07121576368808746337890625</LongitudeDegrees>
            </Position>
            <AltitudeMeters>1517.5999755859375</AltitudeMeters>
            <DistanceMeters>NAN</DistanceMeters>
          </Trackpoint>
          <Trackpoint>
            <Time>2018-12-30T10:39:07.000Z</Time>
            <Position>
              <LatitudeDegrees>40.77957093715667724609375</LatitudeDegrees>
              <LongitudeDegrees>-4.0712246485054492950439453125</LongitudeDegrees>
            </Position>
            <AltitudeMeters>1518</AltitudeMeters>
            <DistanceMeters>NAN</DistanceMeters>
          </Trackpoint>
          <Trackpoint>
            <Time>2018-12-30T10:39:08.000Z</Time>
            <Position>
              <LatitudeDegrees>40.7795825041830539703369140625</LatitudeDegrees>
              <LongitudeDegrees>-4.0712340362370014190673828125</LongitudeDegrees>
            </Position>
            <AltitudeMeters>1518</AltitudeMeters>
            <DistanceMeters>NAN</DistanceMeters>
          </Trackpoint>
          <Trackpoint>
            <Time>2018-12-30T10:39:09.000Z</Time>
            <Position>
              <LatitudeDegrees>40.7795935682952404022216796875</LatitudeDegrees>
              <LongitudeDegrees>-4.0712457709014415740966796875</LongitudeDegrees>
            </Position>
            <AltitudeMeters>1518.199951171875</AltitudeMeters>
            <DistanceMeters>NAN</DistanceMeters>
          </Trackpoint>
          <Trackpoint>
            <Time>2018-12-30T10:39:10.000Z</Time>
            <Position>
              <LatitudeDegrees>40.779600776731967926025390625</LatitudeDegrees>
              <LongitudeDegrees>-4.07126261852681636810302734375</LongitudeDegrees>
            </Position>
            <AltitudeMeters>1518.199951171875</AltitudeMeters>
            <DistanceMeters>NAN</DistanceMeters>
          </Trackpoint>
          <Trackpoint>
            <Time>2018-12-30T10:39:11.000Z</Time>
            <Position>
              <LatitudeDegrees>40.77961058355867862701416015625</LatitudeDegrees>
              <LongitudeDegrees>-4.071271419525146484375</LongitudeDegrees>
            </Position>
            <AltitudeMeters>1518.4000244140625</AltitudeMeters>
            <DistanceMeters>NAN</DistanceMeters>
          </Trackpoint>
          <Trackpoint>
            <Time>2018-12-30T10:39:12.000Z</Time>
            <Position>
              <LatitudeDegrees>40.77961594797670841217041015625</LatitudeDegrees>
              <LongitudeDegrees>-4.0712769515812397003173828125</LongitudeDegrees>
            </Position>
            <AltitudeMeters>1518.4000244140625</AltitudeMeters>
            <DistanceMeters>NAN</DistanceMeters>
          </Trackpoint>
          <Trackpoint>
            <Time>2018-12-30T10:39:13.000Z</Time>
            <Position>
              <LatitudeDegrees>40.779620222747325897216796875</LatitudeDegrees>
              <LongitudeDegrees>-4.07128239981830120086669921875</LongitudeDegrees>
            </Position>
            <AltitudeMeters>1518.4000244140625</AltitudeMeters>
            <DistanceMeters>NAN</DistanceMeters>
          </Trackpoint>
          <Trackpoint>
            <Time>2018-12-30T10:39:14.000Z</Time>
            <Position>
              <LatitudeDegrees>40.779627263545989990234375</LatitudeDegrees>
              <LongitudeDegrees>-4.07128818333148956298828125</LongitudeDegrees>
            </Position>
            <AltitudeMeters>1518.5999755859375</AltitudeMeters>
            <DistanceMeters>NAN</DistanceMeters>
          </Trackpoint>
          <Trackpoint>
            <Time>2018-12-30T10:39:15.000Z</Time>
            <Position>
              <LatitudeDegrees>40.77963388524949550628662109375</LatitudeDegrees>
              <LongitudeDegrees>-4.0712942183017730712890625</LongitudeDegrees>
            </Position>
            <AltitudeMeters>1518.800048828125</AltitudeMeters>
            <DistanceMeters>NAN</DistanceMeters>
          </Trackpoint>
          <Trackpoint>
            <Time>2018-12-30T10:39:16.000Z</Time>
            <Position>
              <LatitudeDegrees>40.77964126132428646087646484375</LatitudeDegrees>
              <LongitudeDegrees>-4.07130670733749866485595703125</LongitudeDegrees>
            </Position>
            <AltitudeMeters>1519.199951171875</AltitudeMeters>
            <DistanceMeters>NAN</DistanceMeters>
          </Trackpoint>
          <Trackpoint>
            <Time>2018-12-30T10:39:17.000Z</Time>
            <Position>
              <LatitudeDegrees>40.779643692076206207275390625</LatitudeDegrees>
              <LongitudeDegrees>-4.07131073065102100372314453125</LongitudeDegrees>
            </Position>
            <AltitudeMeters>1519.199951171875</AltitudeMeters>
            <DistanceMeters>NAN</DistanceMeters>
          </Trackpoint>
          <Trackpoint>
            <Time>2018-12-30T10:39:18.000Z</Time>
            <Position>
              <LatitudeDegrees>40.77964897267520427703857421875</LatitudeDegrees>
              <LongitudeDegrees>-4.0713158436119556427001953125</LongitudeDegrees>
            </Position>
            <AltitudeMeters>1519.4000244140625</AltitudeMeters>
            <DistanceMeters>NAN</DistanceMeters>
          </Trackpoint>
          <Trackpoint>
            <Time>2018-12-30T10:39:19.000Z</Time>
            <Position>
              <LatitudeDegrees>40.77965450473129749298095703125</LatitudeDegrees>
              <LongitudeDegrees>-4.07132900319993495941162109375</LongitudeDegrees>
            </Position>
            <AltitudeMeters>1519.4000244140625</AltitudeMeters>
            <DistanceMeters>NAN</DistanceMeters>
          </Trackpoint>
          <Trackpoint>
            <Time>2018-12-30T10:39:20.000Z</Time>
            <Position>
              <LatitudeDegrees>40.77966741286218166351318359375</LatitudeDegrees>
              <LongitudeDegrees>-4.0713419951498508453369140625</LongitudeDegrees>
            </Position>
            <AltitudeMeters>1519.4000244140625</AltitudeMeters>
            <DistanceMeters>NAN</DistanceMeters>
          </Trackpoint>
          <Trackpoint>
            <Time>2018-12-30T10:39:21.000Z</Time>
            <Position>
              <LatitudeDegrees>40.77968417666852474212646484375</LatitudeDegrees>
              <LongitudeDegrees>-4.07135347835719585418701171875</LongitudeDegrees>
            </Position>
            <AltitudeMeters>1519.4000244140625</AltitudeMeters>
            <DistanceMeters>NAN</DistanceMeters>
          </Trackpoint>
          <Trackpoint>
            <Time>2018-12-30T10:39:22.000Z</Time>
            <Position>
              <LatitudeDegrees>40.779691971838474273681640625</LatitudeDegrees>
              <LongitudeDegrees>-4.07136823050677776336669921875</LongitudeDegrees>
            </Position>
            <AltitudeMeters>1519.4000244140625</AltitudeMeters>
            <DistanceMeters>NAN</DistanceMeters>
          </Trackpoint>
          <Trackpoint>
            <Time>2018-12-30T10:39:23.000Z</Time>
            <Position>
              <LatitudeDegrees>40.77969959937036037445068359375</LatitudeDegrees>
              <LongitudeDegrees>-4.07137895934283733367919921875</LongitudeDegrees>
            </Position>
            <AltitudeMeters>1519.5999755859375</AltitudeMeters>
            <DistanceMeters>NAN</DistanceMeters>
          </Trackpoint>
          <Trackpoint>
            <Time>2018-12-30T10:39:24.000Z</Time>
            <Position>
              <LatitudeDegrees>40.77970814891159534454345703125</LatitudeDegrees>
              <LongitudeDegrees>-4.07139035873115062713623046875</LongitudeDegrees>
            </Position>
            <AltitudeMeters>1519.5999755859375</AltitudeMeters>
            <DistanceMeters>NAN</DistanceMeters>
          </Trackpoint>
          <Trackpoint>
            <Time>2018-12-30T10:39:25.000Z</Time>
            <Position>
              <LatitudeDegrees>40.7797171175479888916015625</LatitudeDegrees>
              <LongitudeDegrees>-4.071397148072719573974609375</LongitudeDegrees>
            </Position>
            <AltitudeMeters>1519.800048828125</AltitudeMeters>
            <DistanceMeters>NAN</DistanceMeters>
          </Trackpoint>
          <Trackpoint>
            <Time>2018-12-30T10:39:26.000Z</Time>
            <Position>
              <LatitudeDegrees>40.7797206379473209381103515625</LatitudeDegrees>
              <LongitudeDegrees>-4.0714134089648723602294921875</LongitudeDegrees>
            </Position>
            <AltitudeMeters>1520</AltitudeMeters>
            <DistanceMeters>NAN</DistanceMeters>
          </Trackpoint>
          <Trackpoint>
            <Time>2018-12-30T10:39:27.000Z</Time>
            <Position>
              <LatitudeDegrees>40.7797236554324626922607421875</LatitudeDegrees>
              <LongitudeDegrees>-4.07142422161996364593505859375</LongitudeDegrees>
            </Position>
            <AltitudeMeters>1520.4000244140625</AltitudeMeters>
            <DistanceMeters>NAN</DistanceMeters>
          </Trackpoint>
          <Trackpoint>
            <Time>2018-12-30T10:39:28.000Z</Time>
            <Position>
              <LatitudeDegrees>40.77973027713596820831298828125</LatitudeDegrees>
              <LongitudeDegrees>-4.071438051760196685791015625</LongitudeDegrees>
            </Position>
            <AltitudeMeters>1520.5999755859375</AltitudeMeters>
            <DistanceMeters>NAN</DistanceMeters>
          </Trackpoint>
          <Trackpoint>
            <Time>2018-12-30T10:39:29.000Z</Time>
            <Position>
              <LatitudeDegrees>40.7797367312014102935791015625</LatitudeDegrees>
              <LongitudeDegrees>-4.0714497864246368408203125</LongitudeDegrees>
            </Position>
            <AltitudeMeters>1520.800048828125</AltitudeMeters>
            <DistanceMeters>NAN</DistanceMeters>
          </Trackpoint>
          <Trackpoint>
            <Time>2018-12-30T10:39:30.000Z</Time>
            <Position>
              <LatitudeDegrees>40.77974234707653522491455078125</LatitudeDegrees>
              <LongitudeDegrees>-4.07145858742296695709228515625</LongitudeDegrees>
            </Position>
            <AltitudeMeters>1520.800048828125</AltitudeMeters>
            <DistanceMeters>NAN</DistanceMeters>
          </Trackpoint>
          <Trackpoint>
            <Time>2018-12-30T10:39:31.000Z</Time>
            <Position>
              <LatitudeDegrees>40.77974871732294559478759765625</LatitudeDegrees>
              <LongitudeDegrees>-4.07146713696420192718505859375</LongitudeDegrees>
            </Position>
            <AltitudeMeters>1521</AltitudeMeters>
            <DistanceMeters>NAN</DistanceMeters>
          </Trackpoint>
          <Trackpoint>
            <Time>2018-12-30T10:39:32.000Z</Time>
            <Position>
              <LatitudeDegrees>40.7797534950077533721923828125</LatitudeDegrees>
              <LongitudeDegrees>-4.0714727528393268585205078125</LongitudeDegrees>
            </Position>
            <AltitudeMeters>1521</AltitudeMeters>
            <DistanceMeters>NAN</DistanceMeters>
          </Trackpoint>
          <Trackpoint>
            <Time>2018-12-30T10:39:33.000Z</Time>
            <Position>
              <LatitudeDegrees>40.77975877560675144195556640625</LatitudeDegrees>
              <LongitudeDegrees>-4.071479625999927520751953125</LongitudeDegrees>
            </Position>
            <AltitudeMeters>1521.199951171875</AltitudeMeters>
            <DistanceMeters>NAN</DistanceMeters>
          </Trackpoint>
          <Trackpoint>
            <Time>2018-12-30T10:39:34.000Z</Time>
            <Position>
              <LatitudeDegrees>40.77976061962544918060302734375</LatitudeDegrees>
              <LongitudeDegrees>-4.07148960046470165252685546875</LongitudeDegrees>
            </Position>
            <AltitudeMeters>1521.199951171875</AltitudeMeters>
            <DistanceMeters>NAN</DistanceMeters>
          </Trackpoint>
          <Trackpoint>
            <Time>2018-12-30T10:39:35.000Z</Time>
            <Position>
              <LatitudeDegrees>40.7797652296721935272216796875</LatitudeDegrees>
              <LongitudeDegrees>-4.07149739563465118408203125</LongitudeDegrees>
            </Position>
            <AltitudeMeters>1521.5999755859375</AltitudeMeters>
            <DistanceMeters>NAN</DistanceMeters>
          </Trackpoint>
          <Trackpoint>
            <Time>2018-12-30T10:39:36.000Z</Time>
            <Position>
              <LatitudeDegrees>40.77977553941309452056884765625</LatitudeDegrees>
              <LongitudeDegrees>-4.0715052746236324310302734375</LongitudeDegrees>
            </Position>
            <AltitudeMeters>1521.5999755859375</AltitudeMeters>
            <DistanceMeters>NAN</DistanceMeters>
          </Trackpoint>
          <Trackpoint>
            <Time>2018-12-30T10:39:37.000Z</Time>
            <Position>
              <LatitudeDegrees>40.779781825840473175048828125</LatitudeDegrees>
              <LongitudeDegrees>-4.07151374034583568572998046875</LongitudeDegrees>
            </Position>
            <AltitudeMeters>1521.800048828125</AltitudeMeters>
            <DistanceMeters>NAN</DistanceMeters>
          </Trackpoint>
          <Trackpoint>
            <Time>2018-12-30T10:39:38.000Z</Time>
            <Position>
              <LatitudeDegrees>40.7797900401055812835693359375</LatitudeDegrees>
              <LongitudeDegrees>-4.07152446918189525604248046875</LongitudeDegrees>
            </Position>
            <AltitudeMeters>1522</AltitudeMeters>
            <DistanceMeters>NAN</DistanceMeters>
          </Trackpoint>
          <Trackpoint>
            <Time>2018-12-30T10:39:39.000Z</Time>
            <Position>
              <LatitudeDegrees>40.77979884110391139984130859375</LatitudeDegrees>
              <LongitudeDegrees>-4.07153469510376453399658203125</LongitudeDegrees>
            </Position>
            <AltitudeMeters>1522.199951171875</AltitudeMeters>
            <DistanceMeters>NAN</DistanceMeters>
          </Trackpoint>
          <Trackpoint>
            <Time>2018-12-30T10:39:40.000Z</Time>
            <Position>
              <LatitudeDegrees>40.77980353496968746185302734375</LatitudeDegrees>
              <LongitudeDegrees>-4.0715414844453334808349609375</LongitudeDegrees>
            </Position>
            <AltitudeMeters>1522.4000244140625</AltitudeMeters>
            <DistanceMeters>NAN</DistanceMeters>
          </Trackpoint>
          <Trackpoint>
            <Time>2018-12-30T10:39:41.000Z</Time>
            <Position>
              <LatitudeDegrees>40.7798074744641780853271484375</LatitudeDegrees>
              <LongitudeDegrees>-4.07154642976820468902587890625</LongitudeDegrees>
            </Position>
            <AltitudeMeters>1522.4000244140625</AltitudeMeters>
            <DistanceMeters>NAN</DistanceMeters>
          </Trackpoint>
          <Trackpoint>
            <Time>2018-12-30T10:39:42.000Z</Time>
            <Position>
              <LatitudeDegrees>40.7798145152628421783447265625</LatitudeDegrees>
              <LongitudeDegrees>-4.0715543925762176513671875</LongitudeDegrees>
            </Position>
            <AltitudeMeters>1522.5999755859375</AltitudeMeters>
            <DistanceMeters>NAN</DistanceMeters>
          </Trackpoint>
          <Trackpoint>
            <Time>2018-12-30T10:39:43.000Z</Time>
            <Position>
              <LatitudeDegrees>40.77981770038604736328125</LatitudeDegrees>
              <LongitudeDegrees>-4.07156185247004032135009765625</LongitudeDegrees>
            </Position>
            <AltitudeMeters>1522.800048828125</AltitudeMeters>
            <DistanceMeters>NAN</DistanceMeters>
          </Trackpoint>
          <Trackpoint>
            <Time>2018-12-30T10:39:44.000Z</Time>
            <Position>
              <LatitudeDegrees>40.779824070632457733154296875</LatitudeDegrees>
              <LongitudeDegrees>-4.07157358713448047637939453125</LongitudeDegrees>
            </Position>
            <AltitudeMeters>1523</AltitudeMeters>
            <DistanceMeters>NAN</DistanceMeters>
          </Trackpoint>
          <Trackpoint>
            <Time>2018-12-30T10:39:45.000Z</Time>
            <Position>
              <LatitudeDegrees>40.77983454801142215728759765625</LatitudeDegrees>
              <LongitudeDegrees>-4.0715874172747135162353515625</LongitudeDegrees>
            </Position>
            <AltitudeMeters>1523.199951171875</AltitudeMeters>
            <DistanceMeters>NAN</DistanceMeters>
          </Trackpoint>
          <Trackpoint>
            <Time>2018-12-30T10:39:46.000Z</Time>
            <Position>
              <LatitudeDegrees>40.7798406668007373809814453125</LatitudeDegrees>
              <LongitudeDegrees>-4.07159789465367794036865234375</LongitudeDegrees>
            </Position>
            <AltitudeMeters>1523.5999755859375</AltitudeMeters>
            <DistanceMeters>NAN</DistanceMeters>
          </Trackpoint>
          <Trackpoint>
            <Time>2018-12-30T10:39:47.000Z</Time>
            <Position>
              <LatitudeDegrees>40.77984661795198917388916015625</LatitudeDegrees>
              <LongitudeDegrees>-4.07160778529942035675048828125</LongitudeDegrees>
            </Position>
            <AltitudeMeters>1523.800048828125</AltitudeMeters>
            <DistanceMeters>NAN</DistanceMeters>
          </Trackpoint>
          <Trackpoint>
            <Time>2018-12-30T10:39:48.000Z</Time>
            <Position>
              <LatitudeDegrees>40.779849551618099212646484375</LatitudeDegrees>
              <LongitudeDegrees>-4.07161700539290904998779296875</LongitudeDegrees>
            </Position>
            <AltitudeMeters>1524</AltitudeMeters>
            <DistanceMeters>NAN</DistanceMeters>
          </Trackpoint>
          <Trackpoint>
            <Time>2018-12-30T10:39:49.000Z</Time>
            <Position>
              <LatitudeDegrees>40.77985516749322414398193359375</LatitudeDegrees>
              <LongitudeDegrees>-4.07162823714315891265869140625</LongitudeDegrees>
            </Position>
            <AltitudeMeters>1524.199951171875</AltitudeMeters>
            <DistanceMeters>NAN</DistanceMeters>
          </Trackpoint>
          <Trackpoint>
            <Time>2018-12-30T10:39:50.000Z</Time>
            <Position>
              <LatitudeDegrees>40.7798611186444759368896484375</LatitudeDegrees>
              <LongitudeDegrees>-4.07163846306502819061279296875</LongitudeDegrees>
            </Position>
            <AltitudeMeters>1524.199951171875</AltitudeMeters>
            <DistanceMeters>NAN</DistanceMeters>
          </Trackpoint>
          <Trackpoint>
            <Time>2018-12-30T10:39:51.000Z</Time>
            <Position>
              <LatitudeDegrees>40.77986790798604488372802734375</LatitudeDegrees>
              <LongitudeDegrees>-4.071647264063358306884765625</LongitudeDegrees>
            </Position>
            <AltitudeMeters>1524.4000244140625</AltitudeMeters>
            <DistanceMeters>NAN</DistanceMeters>
          </Trackpoint>
          <Trackpoint>
            <Time>2018-12-30T10:39:52.000Z</Time>
            <Position>
              <LatitudeDegrees>40.7798808999359607696533203125</LatitudeDegrees>
              <LongitudeDegrees>-4.071653969585895538330078125</LongitudeDegrees>
            </Position>
            <AltitudeMeters>1524.5999755859375</AltitudeMeters>
            <DistanceMeters>NAN</DistanceMeters>
          </Trackpoint>
          <Trackpoint>
            <Time>2018-12-30T10:39:53.000Z</Time>
            <Position>
              <LatitudeDegrees>40.7798879407346248626708984375</LatitudeDegrees>
              <LongitudeDegrees>-4.0716591663658618927001953125</LongitudeDegrees>
            </Position>
            <AltitudeMeters>1524.5999755859375</AltitudeMeters>
            <DistanceMeters>NAN</DistanceMeters>
          </Trackpoint>
          <Trackpoint>
            <Time>2018-12-30T10:39:54.000Z</Time>
            <Position>
              <LatitudeDegrees>40.77989657409489154815673828125</LatitudeDegrees>
              <LongitudeDegrees>-4.0716616809368133544921875</LongitudeDegrees>
            </Position>
            <AltitudeMeters>1524.5999755859375</AltitudeMeters>
            <DistanceMeters>NAN</DistanceMeters>
          </Trackpoint>
          <Trackpoint>
            <Time>2018-12-30T10:39:55.000Z</Time>
            <Position>
              <LatitudeDegrees>40.77990260906517505645751953125</LatitudeDegrees>
              <LongitudeDegrees>-4.07166637480258941650390625</LongitudeDegrees>
            </Position>
            <AltitudeMeters>1524.800048828125</AltitudeMeters>
            <DistanceMeters>NAN</DistanceMeters>
          </Trackpoint>
          <Trackpoint>
            <Time>2018-12-30T10:39:56.000Z</Time>
            <Position>
              <LatitudeDegrees>40.77990956604480743408203125</LatitudeDegrees>
              <LongitudeDegrees>-4.07167081721127033233642578125</LongitudeDegrees>
            </Position>
            <AltitudeMeters>1524.800048828125</AltitudeMeters>
            <DistanceMeters>NAN</DistanceMeters>
          </Trackpoint>
          <Trackpoint>
            <Time>2018-12-30T10:39:57.000Z</Time>
            <Position>
              <LatitudeDegrees>40.77991384081542491912841796875</LatitudeDegrees>
              <LongitudeDegrees>-4.0716759301722049713134765625</LongitudeDegrees>
            </Position>
            <AltitudeMeters>1525</AltitudeMeters>
            <DistanceMeters>NAN</DistanceMeters>
          </Trackpoint>
          <Trackpoint>
            <Time>2018-12-30T10:39:58.000Z</Time>
            <Position>
              <LatitudeDegrees>40.77992021106183528900146484375</LatitudeDegrees>
              <LongitudeDegrees>-4.0716829709708690643310546875</LongitudeDegrees>
            </Position>
            <AltitudeMeters>1525</AltitudeMeters>
            <DistanceMeters>NAN</DistanceMeters>
          </Trackpoint>
          <Trackpoint>
            <Time>2018-12-30T10:39:59.000Z</Time>
            <Position>
              <LatitudeDegrees>40.77992700040340423583984375</LatitudeDegrees>
              <LongitudeDegrees>-4.07169051468372344970703125</LongitudeDegrees>
            </Position>
            <AltitudeMeters>1525.199951171875</AltitudeMeters>
            <DistanceMeters>NAN</DistanceMeters>
          </Trackpoint>
          <Trackpoint>
            <Time>2018-12-30T10:40:00.000Z</Time>
            <Position>
              <LatitudeDegrees>40.7799335382878780364990234375</LatitudeDegrees>
              <LongitudeDegrees>-4.07170183025300502777099609375</LongitudeDegrees>
            </Position>
            <AltitudeMeters>1525.199951171875</AltitudeMeters>
            <DistanceMeters>NAN</DistanceMeters>
          </Trackpoint>
          <Trackpoint>
            <Time>2018-12-30T10:40:01.000Z</Time>
            <Position>
              <LatitudeDegrees>40.779938399791717529296875</LatitudeDegrees>
              <LongitudeDegrees>-4.0717121399939060211181640625</LongitudeDegrees>
            </Position>
            <AltitudeMeters>1525.199951171875</AltitudeMeters>
            <DistanceMeters>NAN</DistanceMeters>
          </Trackpoint>
          <Trackpoint>
            <Time>2018-12-30T10:40:02.000Z</Time>
            <Position>
              <LatitudeDegrees>40.779943764209747314453125</LatitudeDegrees>
              <LongitudeDegrees>-4.0717218630015850067138671875</LongitudeDegrees>
            </Position>
            <AltitudeMeters>1525.4000244140625</AltitudeMeters>
            <DistanceMeters>NAN</DistanceMeters>
          </Trackpoint>
          <Trackpoint>
            <Time>2018-12-30T10:40:03.000Z</Time>
            <Position>
              <LatitudeDegrees>40.77994979918003082275390625</LatitudeDegrees>
              <LongitudeDegrees>-4.07173343002796173095703125</LongitudeDegrees>
            </Position>
            <AltitudeMeters>1525.5999755859375</AltitudeMeters>
            <DistanceMeters>NAN</DistanceMeters>
          </Trackpoint>
          <Trackpoint>
            <Time>2018-12-30T10:40:04.000Z</Time>
            <Position>
              <LatitudeDegrees>40.77995910309255123138427734375</LatitudeDegrees>
              <LongitudeDegrees>-4.07174591906368732452392578125</LongitudeDegrees>
            </Position>
            <AltitudeMeters>1525.800048828125</AltitudeMeters>
            <DistanceMeters>NAN</DistanceMeters>
          </Trackpoint>
          <Trackpoint>
            <Time>2018-12-30T10:40:05.000Z</Time>
            <Position>
              <LatitudeDegrees>40.779962204396724700927734375</LatitudeDegrees>
              <LongitudeDegrees>-4.07175899483263492584228515625</LongitudeDegrees>
            </Position>
            <AltitudeMeters>1526</AltitudeMeters>
            <DistanceMeters>NAN</DistanceMeters>
          </Trackpoint>
          <Trackpoint>
            <Time>2018-12-30T10:40:06.000Z</Time>
            <Position>
              <LatitudeDegrees>40.77997067011892795562744140625</LatitudeDegrees>
              <LongitudeDegrees>-4.07177005894482135772705078125</LongitudeDegrees>
            </Position>
            <AltitudeMeters>1526</AltitudeMeters>
            <DistanceMeters>NAN</DistanceMeters>
          </Trackpoint>
          <Trackpoint>
            <Time>2018-12-30T10:40:07.000Z</Time>
            <Position>
              <LatitudeDegrees>40.77998307533562183380126953125</LatitudeDegrees>
              <LongitudeDegrees>-4.07177944667637348175048828125</LongitudeDegrees>
            </Position>
            <AltitudeMeters>1526.199951171875</AltitudeMeters>
            <DistanceMeters>NAN</DistanceMeters>
          </Trackpoint>
          <Trackpoint>
            <Time>2018-12-30T10:40:08.000Z</Time>
            <Position>
              <LatitudeDegrees>40.77999137341976165771484375</LatitudeDegrees>
              <LongitudeDegrees>-4.07178665511310100555419921875</LongitudeDegrees>
            </Position>
            <AltitudeMeters>1526.199951171875</AltitudeMeters>
            <DistanceMeters>NAN</DistanceMeters>
          </Trackpoint>
          <Trackpoint>
            <Time>2018-12-30T10:40:09.000Z</Time>
            <Position>
              <LatitudeDegrees>40.780006460845470428466796875</LatitudeDegrees>
              <LongitudeDegrees>-4.0717931091785430908203125</LongitudeDegrees>
            </Position>
            <AltitudeMeters>1526.199951171875</AltitudeMeters>
            <DistanceMeters>NAN</DistanceMeters>
          </Trackpoint>
          <Trackpoint>
            <Time>2018-12-30T10:40:10.000Z</Time>
            <Position>
              <LatitudeDegrees>40.78000922687351703643798828125</LatitudeDegrees>
              <LongitudeDegrees>-4.07179855741560459136962890625</LongitudeDegrees>
            </Position>
            <AltitudeMeters>1526.4000244140625</AltitudeMeters>
            <DistanceMeters>NAN</DistanceMeters>
          </Trackpoint>
          <Trackpoint>
            <Time>2018-12-30T10:40:11.000Z</Time>
            <Position>
              <LatitudeDegrees>40.78001744113862514495849609375</LatitudeDegrees>
              <LongitudeDegrees>-4.07180727459490299224853515625</LongitudeDegrees>
            </Position>
            <AltitudeMeters>1526.5999755859375</AltitudeMeters>
            <DistanceMeters>NAN</DistanceMeters>
          </Trackpoint>
          <Trackpoint>
            <Time>2018-12-30T10:40:12.000Z</Time>
            <Position>
              <LatitudeDegrees>40.780025236308574676513671875</LatitudeDegrees>
              <LongitudeDegrees>-4.071812890470027923583984375</LongitudeDegrees>
            </Position>
            <AltitudeMeters>1526.800048828125</AltitudeMeters>
            <DistanceMeters>NAN</DistanceMeters>
          </Trackpoint>
          <Trackpoint>
            <Time>2018-12-30T10:40:13.000Z</Time>
            <Position>
              <LatitudeDegrees>40.780032612383365631103515625</LatitudeDegrees>
              <LongitudeDegrees>-4.07181884162127971649169921875</LongitudeDegrees>
            </Position>
            <AltitudeMeters>1527</AltitudeMeters>
            <DistanceMeters>NAN</DistanceMeters>
          </Trackpoint>
          <Trackpoint>
            <Time>2018-12-30T10:40:14.000Z</Time>
            <Position>
              <LatitudeDegrees>40.780044011771678924560546875</LatitudeDegrees>
              <LongitudeDegrees>-4.07183007337152957916259765625</LongitudeDegrees>
            </Position>
            <AltitudeMeters>1527.199951171875</AltitudeMeters>
            <DistanceMeters>NAN</DistanceMeters>
          </Trackpoint>
          <Trackpoint>
            <Time>2018-12-30T10:40:15.000Z</Time>
            <Position>
              <LatitudeDegrees>40.78004912473261356353759765625</LatitudeDegrees>
              <LongitudeDegrees>-4.07183409668505191802978515625</LongitudeDegrees>
            </Position>
            <AltitudeMeters>1527.4000244140625</AltitudeMeters>
            <DistanceMeters>NAN</DistanceMeters>
          </Trackpoint>
          <Trackpoint>
            <Time>2018-12-30T10:40:16.000Z</Time>
            <Position>
              <LatitudeDegrees>40.7800577580928802490234375</LatitudeDegrees>
              <LongitudeDegrees>-4.0718392096459865570068359375</LongitudeDegrees>
            </Position>
            <AltitudeMeters>1527.4000244140625</AltitudeMeters>
            <DistanceMeters>NAN</DistanceMeters>
          </Trackpoint>
          <Trackpoint>
            <Time>2018-12-30T10:40:17.000Z</Time>
            <Position>
              <LatitudeDegrees>40.78006907366216182708740234375</LatitudeDegrees>
              <LongitudeDegrees>-4.0718601644039154052734375</LongitudeDegrees>
            </Position>
            <AltitudeMeters>1527.5999755859375</AltitudeMeters>
            <DistanceMeters>NAN</DistanceMeters>
          </Trackpoint>
          <Trackpoint>
            <Time>2018-12-30T10:40:18.000Z</Time>
            <Position>
              <LatitudeDegrees>40.78007460571825504302978515625</LatitudeDegrees>
              <LongitudeDegrees>-4.07186754047870635986328125</LongitudeDegrees>
            </Position>
            <AltitudeMeters>1527.5999755859375</AltitudeMeters>
            <DistanceMeters>NAN</DistanceMeters>
          </Trackpoint>
          <Trackpoint>
            <Time>2018-12-30T10:40:19.000Z</Time>
            <Position>
              <LatitudeDegrees>40.7800810597836971282958984375</LatitudeDegrees>
              <LongitudeDegrees>-4.07187768258154392242431640625</LongitudeDegrees>
            </Position>
            <AltitudeMeters>1527.5999755859375</AltitudeMeters>
            <DistanceMeters>NAN</DistanceMeters>
          </Trackpoint>
          <Trackpoint>
            <Time>2018-12-30T10:40:20.000Z</Time>
            <Position>
              <LatitudeDegrees>40.780093632638454437255859375</LatitudeDegrees>
              <LongitudeDegrees>-4.071907438337802886962890625</LongitudeDegrees>
            </Position>
            <AltitudeMeters>1527.800048828125</AltitudeMeters>
            <DistanceMeters>NAN</DistanceMeters>
          </Trackpoint>
          <Trackpoint>
            <Time>2018-12-30T10:40:21.000Z</Time>
            <Position>
              <LatitudeDegrees>40.7801045291125774383544921875</LatitudeDegrees>
              <LongitudeDegrees>-4.071915149688720703125</LongitudeDegrees>
            </Position>
            <AltitudeMeters>1527.800048828125</AltitudeMeters>
            <DistanceMeters>NAN</DistanceMeters>
          </Trackpoint>
          <Trackpoint>
            <Time>2018-12-30T10:40:22.000Z</Time>
            <Position>
              <LatitudeDegrees>40.780115090310573577880859375</LatitudeDegrees>
              <LongitudeDegrees>-4.07193769700825214385986328125</LongitudeDegrees>
            </Position>
            <AltitudeMeters>1527.800048828125</AltitudeMeters>
            <DistanceMeters>NAN</DistanceMeters>
          </Trackpoint>
          <Trackpoint>
            <Time>2018-12-30T10:40:23.000Z</Time>
            <Position>
              <LatitudeDegrees>40.7801221311092376708984375</LatitudeDegrees>
              <LongitudeDegrees>-4.07195999287068843841552734375</LongitudeDegrees>
            </Position>
            <AltitudeMeters>1528</AltitudeMeters>
            <DistanceMeters>NAN</DistanceMeters>
          </Trackpoint>
          <Trackpoint>
            <Time>2018-12-30T10:40:24.000Z</Time>
            <Position>
              <LatitudeDegrees>40.78012908808887004852294921875</LatitudeDegrees>
              <LongitudeDegrees>-4.0719867311418056488037109375</LongitudeDegrees>
            </Position>
            <AltitudeMeters>1528.199951171875</AltitudeMeters>
            <DistanceMeters>NAN</DistanceMeters>
          </Trackpoint>
          <Trackpoint>
            <Time>2018-12-30T10:40:25.000Z</Time>
            <Position>
              <LatitudeDegrees>40.7801300100982189178466796875</LatitudeDegrees>
              <LongitudeDegrees>-4.07200257293879985809326171875</LongitudeDegrees>
            </Position>
            <AltitudeMeters>1528.199951171875</AltitudeMeters>
            <DistanceMeters>NAN</DistanceMeters>
          </Trackpoint>
          <Trackpoint>
            <Time>2018-12-30T10:40:26.000Z</Time>
            <Position>
              <LatitudeDegrees>40.7801320217549800872802734375</LatitudeDegrees>
              <LongitudeDegrees>-4.07201598398387432098388671875</LongitudeDegrees>
            </Position>
            <AltitudeMeters>1528.4000244140625</AltitudeMeters>
            <DistanceMeters>NAN</DistanceMeters>
          </Trackpoint>
          <Trackpoint>
            <Time>2018-12-30T10:40:27.000Z</Time>
            <Position>
              <LatitudeDegrees>40.78013311140239238739013671875</LatitudeDegrees>
              <LongitudeDegrees>-4.07202922739088535308837890625</LongitudeDegrees>
            </Position>
            <AltitudeMeters>1528.5999755859375</AltitudeMeters>
            <DistanceMeters>NAN</DistanceMeters>
          </Trackpoint>
          <Trackpoint>
            <Time>2018-12-30T10:40:28.000Z</Time>
            <Position>
              <LatitudeDegrees>40.78013562597334384918212890625</LatitudeDegrees>
              <LongitudeDegrees>-4.072043895721435546875</LongitudeDegrees>
            </Position>
            <AltitudeMeters>1529</AltitudeMeters>
            <DistanceMeters>NAN</DistanceMeters>
          </Trackpoint>
          <Trackpoint>
            <Time>2018-12-30T10:40:29.000Z</Time>
            <Position>
              <LatitudeDegrees>40.7801350392401218414306640625</LatitudeDegrees>
              <LongitudeDegrees>-4.07205604948103427886962890625</LongitudeDegrees>
            </Position>
            <AltitudeMeters>1529.4000244140625</AltitudeMeters>
            <DistanceMeters>NAN</DistanceMeters>
          </Trackpoint>
          <Trackpoint>
            <Time>2018-12-30T10:40:30.000Z</Time>
            <Position>
              <LatitudeDegrees>40.78013160265982151031494140625</LatitudeDegrees>
              <LongitudeDegrees>-4.07206912524998188018798828125</LongitudeDegrees>
            </Position>
            <AltitudeMeters>1529.4000244140625</AltitudeMeters>
            <DistanceMeters>NAN</DistanceMeters>
          </Trackpoint>
          <Trackpoint>
            <Time>2018-12-30T10:40:31.000Z</Time>
            <Position>
              <LatitudeDegrees>40.7801342010498046875</LatitudeDegrees>
              <LongitudeDegrees>-4.0720836259424686431884765625</LongitudeDegrees>
            </Position>
            <AltitudeMeters>1529.5999755859375</AltitudeMeters>
            <DistanceMeters>NAN</DistanceMeters>
          </Trackpoint>
          <Trackpoint>
            <Time>2018-12-30T10:40:32.000Z</Time>
            <Position>
              <LatitudeDegrees>40.78013353049755096435546875</LatitudeDegrees>
              <LongitudeDegrees>-4.07209980301558971405029296875</LongitudeDegrees>
            </Position>
            <AltitudeMeters>1529.800048828125</AltitudeMeters>
            <DistanceMeters>NAN</DistanceMeters>
          </Trackpoint>
          <Trackpoint>
            <Time>2018-12-30T10:40:33.000Z</Time>
            <Position>
              <LatitudeDegrees>40.78013696707785129547119140625</LatitudeDegrees>
              <LongitudeDegrees>-4.07211028039455413818359375</LongitudeDegrees>
            </Position>
            <AltitudeMeters>1529.800048828125</AltitudeMeters>
            <DistanceMeters>NAN</DistanceMeters>
          </Trackpoint>
          <Trackpoint>
            <Time>2018-12-30T10:40:34.000Z</Time>
            <Position>
              <LatitudeDegrees>40.7801393978297710418701171875</LatitudeDegrees>
              <LongitudeDegrees>-4.0721241943538188934326171875</LongitudeDegrees>
            </Position>
            <AltitudeMeters>1530</AltitudeMeters>
            <DistanceMeters>NAN</DistanceMeters>
          </Trackpoint>
          <Trackpoint>
            <Time>2018-12-30T10:40:35.000Z</Time>
            <Position>
              <LatitudeDegrees>40.7801380567252635955810546875</LatitudeDegrees>
              <LongitudeDegrees>-4.0721389465034008026123046875</LongitudeDegrees>
            </Position>
            <AltitudeMeters>1530</AltitudeMeters>
            <DistanceMeters>NAN</DistanceMeters>
          </Trackpoint>
          <Trackpoint>
            <Time>2018-12-30T10:40:36.000Z</Time>
            <Position>
              <LatitudeDegrees>40.7801481150090694427490234375</LatitudeDegrees>
              <LongitudeDegrees>-4.07215051352977752685546875</LongitudeDegrees>
            </Position>
            <AltitudeMeters>1530.199951171875</AltitudeMeters>
            <DistanceMeters>NAN</DistanceMeters>
          </Trackpoint>
          <Trackpoint>
            <Time>2018-12-30T10:40:37.000Z</Time>
            <Position>
              <LatitudeDegrees>40.7801534794270992279052734375</LatitudeDegrees>
              <LongitudeDegrees>-4.0721573866903781890869140625</LongitudeDegrees>
            </Position>
            <AltitudeMeters>1530.4000244140625</AltitudeMeters>
            <DistanceMeters>NAN</DistanceMeters>
          </Trackpoint>
          <Trackpoint>
            <Time>2018-12-30T10:40:38.000Z</Time>
            <Position>
              <LatitudeDegrees>40.78015557490289211273193359375</LatitudeDegrees>
              <LongitudeDegrees>-4.0721677802503108978271484375</LongitudeDegrees>
            </Position>
            <AltitudeMeters>1530.5999755859375</AltitudeMeters>
            <DistanceMeters>NAN</DistanceMeters>
          </Trackpoint>
          <Trackpoint>
            <Time>2018-12-30T10:40:39.000Z</Time>
            <Position>
              <LatitudeDegrees>40.78015725128352642059326171875</LatitudeDegrees>
              <LongitudeDegrees>-4.0721791796386241912841796875</LongitudeDegrees>
            </Position>
            <AltitudeMeters>1530.5999755859375</AltitudeMeters>
            <DistanceMeters>NAN</DistanceMeters>
          </Trackpoint>
          <Trackpoint>
            <Time>2018-12-30T10:40:40.000Z</Time>
            <Position>
              <LatitudeDegrees>40.780159346759319305419921875</LatitudeDegrees>
              <LongitudeDegrees>-4.07218982465565204620361328125</LongitudeDegrees>
            </Position>
            <AltitudeMeters>1530.800048828125</AltitudeMeters>
            <DistanceMeters>NAN</DistanceMeters>
          </Trackpoint>
          <Trackpoint>
            <Time>2018-12-30T10:40:41.000Z</Time>
            <Position>
              <LatitudeDegrees>40.780158340930938720703125</LatitudeDegrees>
              <LongitudeDegrees>-4.07220072112977504730224609375</LongitudeDegrees>
            </Position>
            <AltitudeMeters>1530.800048828125</AltitudeMeters>
            <DistanceMeters>NAN</DistanceMeters>
          </Trackpoint>
          <Trackpoint>
            <Time>2018-12-30T10:40:42.000Z</Time>
            <Position>
              <LatitudeDegrees>40.78016613610088825225830078125</LatitudeDegrees>
              <LongitudeDegrees>-4.07220642082393169403076171875</LongitudeDegrees>
            </Position>
            <AltitudeMeters>1531</AltitudeMeters>
            <DistanceMeters>NAN</DistanceMeters>
          </Trackpoint>
          <Trackpoint>
            <Time>2018-12-30T10:40:43.000Z</Time>
            <Position>
              <LatitudeDegrees>40.78016798011958599090576171875</LatitudeDegrees>
              <LongitudeDegrees>-4.0722137130796909332275390625</LongitudeDegrees>
            </Position>
            <AltitudeMeters>1531.199951171875</AltitudeMeters>
            <DistanceMeters>NAN</DistanceMeters>
          </Trackpoint>
          <Trackpoint>
            <Time>2018-12-30T10:40:44.000Z</Time>
            <Position>
              <LatitudeDegrees>40.78016596846282482147216796875</LatitudeDegrees>
              <LongitudeDegrees>-4.072217233479022979736328125</LongitudeDegrees>
            </Position>
            <AltitudeMeters>1531.4000244140625</AltitudeMeters>
            <DistanceMeters>NAN</DistanceMeters>
          </Trackpoint>
          <Trackpoint>
            <Time>2018-12-30T10:40:45.000Z</Time>
            <Position>
              <LatitudeDegrees>40.7801662199199199676513671875</LatitudeDegrees>
              <LongitudeDegrees>-4.072220586240291595458984375</LongitudeDegrees>
            </Position>
            <AltitudeMeters>1531.5999755859375</AltitudeMeters>
            <DistanceMeters>NAN</DistanceMeters>
          </Trackpoint>
          <Trackpoint>
            <Time>2018-12-30T10:40:46.000Z</Time>
            <Position>
              <LatitudeDegrees>40.7801663875579833984375</LatitudeDegrees>
              <LongitudeDegrees>-4.07222821377217769622802734375</LongitudeDegrees>
            </Position>
            <AltitudeMeters>1531.5999755859375</AltitudeMeters>
            <DistanceMeters>NAN</DistanceMeters>
          </Trackpoint>
          <Trackpoint>
            <Time>2018-12-30T10:40:47.000Z</Time>
            <Position>
              <LatitudeDegrees>40.780171416699886322021484375</LatitudeDegrees>
              <LongitudeDegrees>-4.07224765978753566741943359375</LongitudeDegrees>
            </Position>
            <AltitudeMeters>1531.800048828125</AltitudeMeters>
            <DistanceMeters>NAN</DistanceMeters>
          </Trackpoint>
          <Trackpoint>
            <Time>2018-12-30T10:40:48.000Z</Time>
            <Position>
              <LatitudeDegrees>40.78017217107117176055908203125</LatitudeDegrees>
              <LongitudeDegrees>-4.0722556225955486297607421875</LongitudeDegrees>
            </Position>
            <AltitudeMeters>1532</AltitudeMeters>
            <DistanceMeters>NAN</DistanceMeters>
          </Trackpoint>
          <Trackpoint>
            <Time>2018-12-30T10:40:49.000Z</Time>
            <Position>
              <LatitudeDegrees>40.780185163021087646484375</LatitudeDegrees>
              <LongitudeDegrees>-4.07227783463895320892333984375</LongitudeDegrees>
            </Position>
            <AltitudeMeters>1532.199951171875</AltitudeMeters>
            <DistanceMeters>NAN</DistanceMeters>
          </Trackpoint>
          <Trackpoint>
            <Time>2018-12-30T10:40:50.000Z</Time>
            <Position>
              <LatitudeDegrees>40.78018927015364170074462890625</LatitudeDegrees>
              <LongitudeDegrees>-4.07229945994913578033447265625</LongitudeDegrees>
            </Position>
            <AltitudeMeters>1532.4000244140625</AltitudeMeters>
            <DistanceMeters>NAN</DistanceMeters>
          </Trackpoint>
          <Trackpoint>
            <Time>2018-12-30T10:40:51.000Z</Time>
            <Position>
              <LatitudeDegrees>40.7801900245249271392822265625</LatitudeDegrees>
              <LongitudeDegrees>-4.07231555320322513580322265625</LongitudeDegrees>
            </Position>
            <AltitudeMeters>1532.4000244140625</AltitudeMeters>
            <DistanceMeters>NAN</DistanceMeters>
          </Trackpoint>
          <Trackpoint>
            <Time>2018-12-30T10:40:52.000Z</Time>
            <Position>
              <LatitudeDegrees>40.780192203819751739501953125</LatitudeDegrees>
              <LongitudeDegrees>-4.07232820987701416015625</LongitudeDegrees>
            </Position>
            <AltitudeMeters>1532.4000244140625</AltitudeMeters>
            <DistanceMeters>NAN</DistanceMeters>
          </Trackpoint>
          <Trackpoint>
            <Time>2018-12-30T10:40:53.000Z</Time>
            <Position>
              <LatitudeDegrees>40.78021156601607799530029296875</LatitudeDegrees>
              <LongitudeDegrees>-4.072342626750469207763671875</LongitudeDegrees>
            </Position>
            <AltitudeMeters>1532.5999755859375</AltitudeMeters>
            <DistanceMeters>NAN</DistanceMeters>
          </Trackpoint>
          <Trackpoint>
            <Time>2018-12-30T10:40:54.000Z</Time>
            <Position>
              <LatitudeDegrees>40.78021810390055179595947265625</LatitudeDegrees>
              <LongitudeDegrees>-4.0723550319671630859375</LongitudeDegrees>
            </Position>
            <AltitudeMeters>1532.5999755859375</AltitudeMeters>
            <DistanceMeters>NAN</DistanceMeters>
          </Trackpoint>
          <Trackpoint>
            <Time>2018-12-30T10:40:55.000Z</Time>
            <Position>
              <LatitudeDegrees>40.78022430650889873504638671875</LatitudeDegrees>
              <LongitudeDegrees>-4.0723642520606517791748046875</LongitudeDegrees>
            </Position>
            <AltitudeMeters>1532.5999755859375</AltitudeMeters>
            <DistanceMeters>NAN</DistanceMeters>
          </Trackpoint>
          <Trackpoint>
            <Time>2018-12-30T10:40:56.000Z</Time>
            <Position>
              <LatitudeDegrees>40.78023201785981655120849609375</LatitudeDegrees>
              <LongitudeDegrees>-4.07238713465631008148193359375</LongitudeDegrees>
            </Position>
            <AltitudeMeters>1532.800048828125</AltitudeMeters>
            <DistanceMeters>NAN</DistanceMeters>
          </Trackpoint>
          <Trackpoint>
            <Time>2018-12-30T10:40:57.000Z</Time>
            <Position>
              <LatitudeDegrees>40.78023201785981655120849609375</LatitudeDegrees>
              <LongitudeDegrees>-4.07238713465631008148193359375</LongitudeDegrees>
            </Position>
            <AltitudeMeters>1533</AltitudeMeters>
            <DistanceMeters>NAN</DistanceMeters>
          </Trackpoint>
          <Trackpoint>
            <Time>2018-12-30T10:40:58.000Z</Time>
            <Position>
              <LatitudeDegrees>40.78023545444011688232421875</LatitudeDegrees>
              <LongitudeDegrees>-4.07239920459687709808349609375</LongitudeDegrees>
            </Position>
            <AltitudeMeters>1533.199951171875</AltitudeMeters>
            <DistanceMeters>NAN</DistanceMeters>
          </Trackpoint>
          <Trackpoint>
            <Time>2018-12-30T10:40:59.000Z</Time>
            <Position>
              <LatitudeDegrees>40.7802386395633220672607421875</LatitudeDegrees>
              <LongitudeDegrees>-4.07241060398519039154052734375</LongitudeDegrees>
            </Position>
            <AltitudeMeters>1533.4000244140625</AltitudeMeters>
            <DistanceMeters>NAN</DistanceMeters>
          </Trackpoint>
          <Trackpoint>
            <Time>2018-12-30T10:41:00.000Z</Time>
            <Position>
              <LatitudeDegrees>40.78025749884545803070068359375</LatitudeDegrees>
              <LongitudeDegrees>-4.07242954708635807037353515625</LongitudeDegrees>
            </Position>
            <AltitudeMeters>1533.5999755859375</AltitudeMeters>
            <DistanceMeters>NAN</DistanceMeters>
          </Trackpoint>
          <Trackpoint>
            <Time>2018-12-30T10:41:01.000Z</Time>
            <Position>
              <LatitudeDegrees>40.78028373420238494873046875</LatitudeDegrees>
              <LongitudeDegrees>-4.0724470652639865875244140625</LongitudeDegrees>
            </Position>
            <AltitudeMeters>1533.800048828125</AltitudeMeters>
            <DistanceMeters>NAN</DistanceMeters>
          </Trackpoint>
          <Trackpoint>
            <Time>2018-12-30T10:41:02.000Z</Time>
            <Position>
              <LatitudeDegrees>40.78028800897300243377685546875</LatitudeDegrees>
              <LongitudeDegrees>-4.07246022485196590423583984375</LongitudeDegrees>
            </Position>
            <AltitudeMeters>1534</AltitudeMeters>
            <DistanceMeters>NAN</DistanceMeters>
          </Trackpoint>
          <Trackpoint>
            <Time>2018-12-30T10:41:03.000Z</Time>
            <Position>
              <LatitudeDegrees>40.78028683550655841827392578125</LatitudeDegrees>
              <LongitudeDegrees>-4.07246441580355167388916015625</LongitudeDegrees>
            </Position>
            <AltitudeMeters>1534.4000244140625</AltitudeMeters>
            <DistanceMeters>NAN</DistanceMeters>
          </Trackpoint>
          <Trackpoint>
            <Time>2018-12-30T10:41:04.000Z</Time>
            <Position>
              <LatitudeDegrees>40.7802899368107318878173828125</LatitudeDegrees>
              <LongitudeDegrees>-4.07247237861156463623046875</LongitudeDegrees>
            </Position>
            <AltitudeMeters>1534.4000244140625</AltitudeMeters>
            <DistanceMeters>NAN</DistanceMeters>
          </Trackpoint>
          <Trackpoint>
            <Time>2018-12-30T10:41:05.000Z</Time>
            <Position>
              <LatitudeDegrees>40.7802969776093959808349609375</LatitudeDegrees>
              <LongitudeDegrees>-4.07248352654278278350830078125</LongitudeDegrees>
            </Position>
            <AltitudeMeters>1534.5999755859375</AltitudeMeters>
            <DistanceMeters>NAN</DistanceMeters>
          </Trackpoint>
          <Trackpoint>
            <Time>2018-12-30T10:41:06.000Z</Time>
            <Position>
              <LatitudeDegrees>40.78030376695096492767333984375</LatitudeDegrees>
              <LongitudeDegrees>-4.0724903158843517303466796875</LongitudeDegrees>
            </Position>
            <AltitudeMeters>1534.5999755859375</AltitudeMeters>
            <DistanceMeters>NAN</DistanceMeters>
          </Trackpoint>
          <Trackpoint>
            <Time>2018-12-30T10:41:07.000Z</Time>
            <Position>
              <LatitudeDegrees>40.78030980192124843597412109375</LatitudeDegrees>
              <LongitudeDegrees>-4.0724950097501277923583984375</LongitudeDegrees>
            </Position>
            <AltitudeMeters>1534.5999755859375</AltitudeMeters>
            <DistanceMeters>NAN</DistanceMeters>
          </Trackpoint>
          <Trackpoint>
            <Time>2018-12-30T10:41:08.000Z</Time>
            <Position>
              <LatitudeDegrees>40.78030913136899471282958984375</LatitudeDegrees>
              <LongitudeDegrees>-4.0724953450262546539306640625</LongitudeDegrees>
            </Position>
            <AltitudeMeters>1534.5999755859375</AltitudeMeters>
            <DistanceMeters>NAN</DistanceMeters>
          </Trackpoint>
          <Trackpoint>
            <Time>2018-12-30T10:41:09.000Z</Time>
            <Position>
              <LatitudeDegrees>40.78032069839537143707275390625</LatitudeDegrees>
              <LongitudeDegrees>-4.07250364311039447784423828125</LongitudeDegrees>
            </Position>
            <AltitudeMeters>1534.5999755859375</AltitudeMeters>
            <DistanceMeters>NAN</DistanceMeters>
          </Trackpoint>
          <Trackpoint>
            <Time>2018-12-30T10:41:10.000Z</Time>
            <Position>
              <LatitudeDegrees>40.7803224585950374603271484375</LatitudeDegrees>
              <LongitudeDegrees>-4.0725090913474559783935546875</LongitudeDegrees>
            </Position>
            <AltitudeMeters>1534.800048828125</AltitudeMeters>
            <DistanceMeters>NAN</DistanceMeters>
          </Trackpoint>
          <Trackpoint>
            <Time>2018-12-30T10:41:11.000Z</Time>
            <Position>
              <LatitudeDegrees>40.7803224585950374603271484375</LatitudeDegrees>
              <LongitudeDegrees>-4.0725090913474559783935546875</LongitudeDegrees>
            </Position>
            <AltitudeMeters>1535</AltitudeMeters>
            <DistanceMeters>NAN</DistanceMeters>
          </Trackpoint>
          <Trackpoint>
            <Time>2018-12-30T10:41:12.000Z</Time>
            <Position>
              <LatitudeDegrees>40.78031667508184909820556640625</LatitudeDegrees>
              <LongitudeDegrees>-4.072511605918407440185546875</LongitudeDegrees>
            </Position>
            <AltitudeMeters>1535</AltitudeMeters>
            <DistanceMeters>NAN</DistanceMeters>
          </Trackpoint>
          <Trackpoint>
            <Time>2018-12-30T10:41:13.000Z</Time>
            <Position>
              <LatitudeDegrees>40.780312903225421905517578125</LatitudeDegrees>
              <LongitudeDegrees>-4.0725211612880229949951171875</LongitudeDegrees>
            </Position>
            <AltitudeMeters>1535.199951171875</AltitudeMeters>
            <DistanceMeters>NAN</DistanceMeters>
          </Trackpoint>
          <Trackpoint>
            <Time>2018-12-30T10:41:14.000Z</Time>
            <Position>
              <LatitudeDegrees>40.780312903225421905517578125</LatitudeDegrees>
              <LongitudeDegrees>-4.0725211612880229949951171875</LongitudeDegrees>
            </Position>
            <AltitudeMeters>1535.199951171875</AltitudeMeters>
            <DistanceMeters>NAN</DistanceMeters>
          </Trackpoint>
          <Trackpoint>
            <Time>2018-12-30T10:41:15.000Z</Time>
            <Position>
              <LatitudeDegrees>40.78031432814896106719970703125</LatitudeDegrees>
              <LongitudeDegrees>-4.07252409495413303375244140625</LongitudeDegrees>
            </Position>
            <AltitudeMeters>1535.4000244140625</AltitudeMeters>
            <DistanceMeters>NAN</DistanceMeters>
          </Trackpoint>
          <Trackpoint>
            <Time>2018-12-30T10:41:16.000Z</Time>
            <Position>
              <LatitudeDegrees>40.7803184352815151214599609375</LatitudeDegrees>
              <LongitudeDegrees>-4.07253180630505084991455078125</LongitudeDegrees>
            </Position>
            <AltitudeMeters>1535.4000244140625</AltitudeMeters>
            <DistanceMeters>NAN</DistanceMeters>
          </Trackpoint>
          <Trackpoint>
            <Time>2018-12-30T10:41:17.000Z</Time>
            <Position>
              <LatitudeDegrees>40.78031986020505428314208984375</LatitudeDegrees>
              <LongitudeDegrees>-4.07253675162792205810546875</LongitudeDegrees>
            </Position>
            <AltitudeMeters>1535.5999755859375</AltitudeMeters>
            <DistanceMeters>NAN</DistanceMeters>
          </Trackpoint>
          <Trackpoint>
            <Time>2018-12-30T10:41:18.000Z</Time>
            <Position>
              <LatitudeDegrees>40.7803191058337688446044921875</LatitudeDegrees>
              <LongitudeDegrees>-4.07254639081656932830810546875</LongitudeDegrees>
            </Position>
            <AltitudeMeters>1535.800048828125</AltitudeMeters>
            <DistanceMeters>NAN</DistanceMeters>
          </Trackpoint>
          <Trackpoint>
            <Time>2018-12-30T10:41:19.000Z</Time>
            <Position>
              <LatitudeDegrees>40.7803281582891941070556640625</LatitudeDegrees>
              <LongitudeDegrees>-4.07255276106297969818115234375</LongitudeDegrees>
            </Position>
            <AltitudeMeters>1536</AltitudeMeters>
            <DistanceMeters>NAN</DistanceMeters>
          </Trackpoint>
          <Trackpoint>
            <Time>2018-12-30T10:41:20.000Z</Time>
            <Position>
              <LatitudeDegrees>40.780333019793033599853515625</LatitudeDegrees>
              <LongitudeDegrees>-4.07256298698484897613525390625</LongitudeDegrees>
            </Position>
            <AltitudeMeters>1536.199951171875</AltitudeMeters>
            <DistanceMeters>NAN</DistanceMeters>
          </Trackpoint>
          <Trackpoint>
            <Time>2018-12-30T10:41:21.000Z</Time>
            <Position>
              <LatitudeDegrees>40.78034819103777408599853515625</LatitudeDegrees>
              <LongitudeDegrees>-4.07256265170872211456298828125</LongitudeDegrees>
            </Position>
            <AltitudeMeters>1536.4000244140625</AltitudeMeters>
            <DistanceMeters>NAN</DistanceMeters>
          </Trackpoint>
          <Trackpoint>
            <Time>2018-12-30T10:41:22.000Z</Time>
            <Position>
              <LatitudeDegrees>40.78035489656031131744384765625</LatitudeDegrees>
              <LongitudeDegrees>-4.07257162034511566162109375</LongitudeDegrees>
            </Position>
            <AltitudeMeters>1536.4000244140625</AltitudeMeters>
            <DistanceMeters>NAN</DistanceMeters>
          </Trackpoint>
          <Trackpoint>
            <Time>2018-12-30T10:41:23.000Z</Time>
            <Position>
              <LatitudeDegrees>40.78036411665380001068115234375</LatitudeDegrees>
              <LongitudeDegrees>-4.07257053069770336151123046875</LongitudeDegrees>
            </Position>
            <AltitudeMeters>1536.5999755859375</AltitudeMeters>
            <DistanceMeters>NAN</DistanceMeters>
          </Trackpoint>
          <Trackpoint>
            <Time>2018-12-30T10:41:24.000Z</Time>
            <Position>
              <LatitudeDegrees>40.78036478720605373382568359375</LatitudeDegrees>
              <LongitudeDegrees>-4.07258075661957263946533203125</LongitudeDegrees>
            </Position>
            <AltitudeMeters>1536.5999755859375</AltitudeMeters>
            <DistanceMeters>NAN</DistanceMeters>
          </Trackpoint>
          <Trackpoint>
            <Time>2018-12-30T10:41:25.000Z</Time>
            <Position>
              <LatitudeDegrees>40.78036730177700519561767578125</LatitudeDegrees>
              <LongitudeDegrees>-4.07259416766464710235595703125</LongitudeDegrees>
            </Position>
            <AltitudeMeters>1536.5999755859375</AltitudeMeters>
            <DistanceMeters>NAN</DistanceMeters>
          </Trackpoint>
          <Trackpoint>
            <Time>2018-12-30T10:41:26.000Z</Time>
            <Position>
              <LatitudeDegrees>40.7803742587566375732421875</LatitudeDegrees>
              <LongitudeDegrees>-4.07260992564260959625244140625</LongitudeDegrees>
            </Position>
            <AltitudeMeters>1536.800048828125</AltitudeMeters>
            <DistanceMeters>NAN</DistanceMeters>
          </Trackpoint>
          <Trackpoint>
            <Time>2018-12-30T10:41:27.000Z</Time>
            <Position>
              <LatitudeDegrees>40.7803757674992084503173828125</LatitudeDegrees>
              <LongitudeDegrees>-4.07261713407933712005615234375</LongitudeDegrees>
            </Position>
            <AltitudeMeters>1536.800048828125</AltitudeMeters>
            <DistanceMeters>NAN</DistanceMeters>
          </Trackpoint>
          <Trackpoint>
            <Time>2018-12-30T10:41:28.000Z</Time>
            <Position>
              <LatitudeDegrees>40.78037467785179615020751953125</LatitudeDegrees>
              <LongitudeDegrees>-4.07262132503092288970947265625</LongitudeDegrees>
            </Position>
            <AltitudeMeters>1536.800048828125</AltitudeMeters>
            <DistanceMeters>NAN</DistanceMeters>
          </Trackpoint>
          <Trackpoint>
            <Time>2018-12-30T10:41:29.000Z</Time>
            <Position>
              <LatitudeDegrees>40.7803764380514621734619140625</LatitudeDegrees>
              <LongitudeDegrees>-4.07262836582958698272705078125</LongitudeDegrees>
            </Position>
            <AltitudeMeters>1536.800048828125</AltitudeMeters>
            <DistanceMeters>NAN</DistanceMeters>
          </Trackpoint>
          <Trackpoint>
            <Time>2018-12-30T10:41:30.000Z</Time>
            <Position>
              <LatitudeDegrees>40.78037953935563564300537109375</LatitudeDegrees>
              <LongitudeDegrees>-4.07263674773275852203369140625</LongitudeDegrees>
            </Position>
            <AltitudeMeters>1536.800048828125</AltitudeMeters>
            <DistanceMeters>NAN</DistanceMeters>
          </Trackpoint>
          <Trackpoint>
            <Time>2018-12-30T10:41:31.000Z</Time>
            <Position>
              <LatitudeDegrees>40.78038322739303112030029296875</LatitudeDegrees>
              <LongitudeDegrees>-4.07264211215078830718994140625</LongitudeDegrees>
            </Position>
            <AltitudeMeters>1536.800048828125</AltitudeMeters>
            <DistanceMeters>NAN</DistanceMeters>
          </Trackpoint>
          <Trackpoint>
            <Time>2018-12-30T10:41:32.000Z</Time>
            <Position>
              <LatitudeDegrees>40.78038255684077739715576171875</LatitudeDegrees>
              <LongitudeDegrees>-4.07265015877783298492431640625</LongitudeDegrees>
            </Position>
            <AltitudeMeters>1537</AltitudeMeters>
            <DistanceMeters>NAN</DistanceMeters>
          </Trackpoint>
          <Trackpoint>
            <Time>2018-12-30T10:41:33.000Z</Time>
            <Position>
              <LatitudeDegrees>40.7803828082978725433349609375</LatitudeDegrees>
              <LongitudeDegrees>-4.072658121585845947265625</LongitudeDegrees>
            </Position>
            <AltitudeMeters>1537</AltitudeMeters>
            <DistanceMeters>NAN</DistanceMeters>
          </Trackpoint>
          <Trackpoint>
            <Time>2018-12-30T10:41:34.000Z</Time>
            <Position>
              <LatitudeDegrees>40.78038473613560199737548828125</LatitudeDegrees>
              <LongitudeDegrees>-4.0726643241941928863525390625</LongitudeDegrees>
            </Position>
            <AltitudeMeters>1537</AltitudeMeters>
            <DistanceMeters>NAN</DistanceMeters>
          </Trackpoint>
          <Trackpoint>
            <Time>2018-12-30T10:41:35.000Z</Time>
            <Position>
              <LatitudeDegrees>40.78038624487817287445068359375</LatitudeDegrees>
              <LongitudeDegrees>-4.07266675494611263275146484375</LongitudeDegrees>
            </Position>
            <AltitudeMeters>1537</AltitudeMeters>
            <DistanceMeters>NAN</DistanceMeters>
          </Trackpoint>
          <Trackpoint>
            <Time>2018-12-30T10:41:36.000Z</Time>
            <Position>
              <LatitudeDegrees>40.780388005077838897705078125</LatitudeDegrees>
              <LongitudeDegrees>-4.07267144881188869476318359375</LongitudeDegrees>
            </Position>
            <AltitudeMeters>1537</AltitudeMeters>
            <DistanceMeters>NAN</DistanceMeters>
          </Trackpoint>
          <Trackpoint>
            <Time>2018-12-30T10:41:37.000Z</Time>
            <Position>
              <LatitudeDegrees>40.7803911902010440826416015625</LatitudeDegrees>
              <LongitudeDegrees>-4.07267597503960132598876953125</LongitudeDegrees>
            </Position>
            <AltitudeMeters>1537</AltitudeMeters>
            <DistanceMeters>NAN</DistanceMeters>
          </Trackpoint>
          <Trackpoint>
            <Time>2018-12-30T10:41:38.000Z</Time>
            <Position>
              <LatitudeDegrees>40.78039697371423244476318359375</LatitudeDegrees>
              <LongitudeDegrees>-4.072682596743106842041015625</LongitudeDegrees>
            </Position>
            <AltitudeMeters>1536.5999755859375</AltitudeMeters>
            <DistanceMeters>NAN</DistanceMeters>
          </Trackpoint>
          <Trackpoint>
            <Time>2018-12-30T10:41:39.000Z</Time>
            <Position>
              <LatitudeDegrees>40.78040686435997486114501953125</LatitudeDegrees>
              <LongitudeDegrees>-4.07271201722323894500732421875</LongitudeDegrees>
            </Position>
            <AltitudeMeters>1536.4000244140625</AltitudeMeters>
            <DistanceMeters>NAN</DistanceMeters>
          </Trackpoint>
          <Trackpoint>
            <Time>2018-12-30T10:41:40.000Z</Time>
            <Position>
              <LatitudeDegrees>40.78040686435997486114501953125</LatitudeDegrees>
              <LongitudeDegrees>-4.07271201722323894500732421875</LongitudeDegrees>
            </Position>
            <AltitudeMeters>1536.199951171875</AltitudeMeters>
            <DistanceMeters>NAN</DistanceMeters>
          </Trackpoint>
          <Trackpoint>
            <Time>2018-12-30T10:41:41.000Z</Time>
            <Position>
              <LatitudeDegrees>40.7804203592240810394287109375</LatitudeDegrees>
              <LongitudeDegrees>-4.072709418833255767822265625</LongitudeDegrees>
            </Position>
            <AltitudeMeters>1536</AltitudeMeters>
            <DistanceMeters>NAN</DistanceMeters>
          </Trackpoint>
          <Trackpoint>
            <Time>2018-12-30T10:41:42.000Z</Time>
            <Position>
              <LatitudeDegrees>40.7804277352988719940185546875</LatitudeDegrees>
              <LongitudeDegrees>-4.07271285541355609893798828125</LongitudeDegrees>
            </Position>
            <AltitudeMeters>1535.800048828125</AltitudeMeters>
            <DistanceMeters>NAN</DistanceMeters>
          </Trackpoint>
          <Trackpoint>
            <Time>2018-12-30T10:41:43.000Z</Time>
            <Position>
              <LatitudeDegrees>40.780433602631092071533203125</LatitudeDegrees>
              <LongitudeDegrees>-4.07271570526063442230224609375</LongitudeDegrees>
            </Position>
            <AltitudeMeters>1535.5999755859375</AltitudeMeters>
            <DistanceMeters>NAN</DistanceMeters>
          </Trackpoint>
          <Trackpoint>
            <Time>2018-12-30T10:41:44.000Z</Time>
            <Position>
              <LatitudeDegrees>40.7804411463439464569091796875</LatitudeDegrees>
              <LongitudeDegrees>-4.07271620817482471466064453125</LongitudeDegrees>
            </Position>
            <AltitudeMeters>1535.800048828125</AltitudeMeters>
            <DistanceMeters>NAN</DistanceMeters>
          </Trackpoint>
          <Trackpoint>
            <Time>2018-12-30T10:41:45.000Z</Time>
            <Position>
              <LatitudeDegrees>40.78044877387583255767822265625</LatitudeDegrees>
              <LongitudeDegrees>-4.0727085806429386138916015625</LongitudeDegrees>
            </Position>
            <AltitudeMeters>1535.800048828125</AltitudeMeters>
            <DistanceMeters>NAN</DistanceMeters>
          </Trackpoint>
          <Trackpoint>
            <Time>2018-12-30T10:41:46.000Z</Time>
            <Position>
              <LatitudeDegrees>40.78044726513326168060302734375</LatitudeDegrees>
              <LongitudeDegrees>-4.0727065689861774444580078125</LongitudeDegrees>
            </Position>
            <AltitudeMeters>1535.5999755859375</AltitudeMeters>
            <DistanceMeters>NAN</DistanceMeters>
          </Trackpoint>
          <Trackpoint>
            <Time>2018-12-30T10:41:47.000Z</Time>
            <Position>
              <LatitudeDegrees>40.78044726513326168060302734375</LatitudeDegrees>
              <LongitudeDegrees>-4.0727065689861774444580078125</LongitudeDegrees>
            </Position>
            <AltitudeMeters>1535.5999755859375</AltitudeMeters>
            <DistanceMeters>NAN</DistanceMeters>
          </Trackpoint>
          <Trackpoint>
            <Time>2018-12-30T10:41:48.000Z</Time>
            <Position>
              <LatitudeDegrees>40.7804471813142299652099609375</LatitudeDegrees>
              <LongitudeDegrees>-4.07270371913909912109375</LongitudeDegrees>
            </Position>
            <AltitudeMeters>1535.800048828125</AltitudeMeters>
            <DistanceMeters>NAN</DistanceMeters>
          </Trackpoint>
          <Trackpoint>
            <Time>2018-12-30T10:41:49.000Z</Time>
            <Position>
              <LatitudeDegrees>40.780453048646450042724609375</LatitudeDegrees>
              <LongitudeDegrees>-4.0727062337100505828857421875</LongitudeDegrees>
            </Position>
            <AltitudeMeters>1535.800048828125</AltitudeMeters>
            <DistanceMeters>NAN</DistanceMeters>
          </Trackpoint>
          <Trackpoint>
            <Time>2018-12-30T10:41:50.000Z</Time>
            <Position>
              <LatitudeDegrees>40.78045346774160861968994140625</LatitudeDegrees>
              <LongitudeDegrees>-4.0727035515010356903076171875</LongitudeDegrees>
            </Position>
            <AltitudeMeters>1535.800048828125</AltitudeMeters>
            <DistanceMeters>NAN</DistanceMeters>
          </Trackpoint>
          <Trackpoint>
            <Time>2018-12-30T10:41:51.000Z</Time>
            <Position>
              <LatitudeDegrees>40.7804535515606403350830078125</LatitudeDegrees>
              <LongitudeDegrees>-4.0726981870830059051513671875</LongitudeDegrees>
            </Position>
            <AltitudeMeters>1535.800048828125</AltitudeMeters>
            <DistanceMeters>NAN</DistanceMeters>
          </Trackpoint>
          <Trackpoint>
            <Time>2018-12-30T10:41:52.000Z</Time>
            <Position>
              <LatitudeDegrees>40.7804562337696552276611328125</LatitudeDegrees>
              <LongitudeDegrees>-4.072689972817897796630859375</LongitudeDegrees>
            </Position>
            <AltitudeMeters>1535.5999755859375</AltitudeMeters>
            <DistanceMeters>NAN</DistanceMeters>
          </Trackpoint>
          <Trackpoint>
            <Time>2018-12-30T10:41:53.000Z</Time>
            <Position>
              <LatitudeDegrees>40.7804632745683193206787109375</LatitudeDegrees>
              <LongitudeDegrees>-4.07268368639051914215087890625</LongitudeDegrees>
            </Position>
            <AltitudeMeters>1535.5999755859375</AltitudeMeters>
            <DistanceMeters>NAN</DistanceMeters>
          </Trackpoint>
          <Trackpoint>
            <Time>2018-12-30T10:41:54.000Z</Time>
            <Position>
              <LatitudeDegrees>40.78047626651823520660400390625</LatitudeDegrees>
              <LongitudeDegrees>-4.0726755559444427490234375</LongitudeDegrees>
            </Position>
            <AltitudeMeters>1535.5999755859375</AltitudeMeters>
            <DistanceMeters>NAN</DistanceMeters>
          </Trackpoint>
          <Trackpoint>
            <Time>2018-12-30T10:41:55.000Z</Time>
            <Position>
              <LatitudeDegrees>40.7804887555539608001708984375</LatitudeDegrees>
              <LongitudeDegrees>-4.072670526802539825439453125</LongitudeDegrees>
            </Position>
            <AltitudeMeters>1535.4000244140625</AltitudeMeters>
            <DistanceMeters>NAN</DistanceMeters>
          </Trackpoint>
          <Trackpoint>
            <Time>2018-12-30T10:41:56.000Z</Time>
            <Position>
              <LatitudeDegrees>40.780502669513225555419921875</LatitudeDegrees>
              <LongitudeDegrees>-4.0726391784846782684326171875</LongitudeDegrees>
            </Position>
            <AltitudeMeters>1535.4000244140625</AltitudeMeters>
            <DistanceMeters>NAN</DistanceMeters>
          </Trackpoint>
          <Trackpoint>
            <Time>2018-12-30T10:41:57.000Z</Time>
            <Position>
              <LatitudeDegrees>40.78051515854895114898681640625</LatitudeDegrees>
              <LongitudeDegrees>-4.072627611458301544189453125</LongitudeDegrees>
            </Position>
            <AltitudeMeters>1535.4000244140625</AltitudeMeters>
            <DistanceMeters>NAN</DistanceMeters>
          </Trackpoint>
          <Trackpoint>
            <Time>2018-12-30T10:41:58.000Z</Time>
            <Position>
              <LatitudeDegrees>40.7805299945175647735595703125</LatitudeDegrees>
              <LongitudeDegrees>-4.072614200413227081298828125</LongitudeDegrees>
            </Position>
            <AltitudeMeters>1535.4000244140625</AltitudeMeters>
            <DistanceMeters>NAN</DistanceMeters>
          </Trackpoint>
          <Trackpoint>
            <Time>2018-12-30T10:41:59.000Z</Time>
            <Position>
              <LatitudeDegrees>40.78055622987449169158935546875</LatitudeDegrees>
              <LongitudeDegrees>-4.072601795196533203125</LongitudeDegrees>
            </Position>
            <AltitudeMeters>1535.4000244140625</AltitudeMeters>
            <DistanceMeters>NAN</DistanceMeters>
          </Trackpoint>
          <Trackpoint>
            <Time>2018-12-30T10:42:00.000Z</Time>
            <Position>
              <LatitudeDegrees>40.78055622987449169158935546875</LatitudeDegrees>
              <LongitudeDegrees>-4.072601795196533203125</LongitudeDegrees>
            </Position>
            <AltitudeMeters>1535.4000244140625</AltitudeMeters>
            <DistanceMeters>NAN</DistanceMeters>
          </Trackpoint>
          <Trackpoint>
            <Time>2018-12-30T10:42:01.000Z</Time>
            <Position>
              <LatitudeDegrees>40.780569724738597869873046875</LatitudeDegrees>
              <LongitudeDegrees>-4.0725912339985370635986328125</LongitudeDegrees>
            </Position>
            <AltitudeMeters>1535.4000244140625</AltitudeMeters>
            <DistanceMeters>NAN</DistanceMeters>
          </Trackpoint>
          <Trackpoint>
            <Time>2018-12-30T10:42:02.000Z</Time>
            <Position>
              <LatitudeDegrees>40.780580453574657440185546875</LatitudeDegrees>
              <LongitudeDegrees>-4.0725843608379364013671875</LongitudeDegrees>
            </Position>
            <AltitudeMeters>1535.5999755859375</AltitudeMeters>
            <DistanceMeters>NAN</DistanceMeters>
          </Trackpoint>
          <Trackpoint>
            <Time>2018-12-30T10:42:03.000Z</Time>
            <Position>
              <LatitudeDegrees>40.780591182410717010498046875</LatitudeDegrees>
              <LongitudeDegrees>-4.0725717879831790924072265625</LongitudeDegrees>
            </Position>
            <AltitudeMeters>1535.5999755859375</AltitudeMeters>
            <DistanceMeters>NAN</DistanceMeters>
          </Trackpoint>
          <Trackpoint>
            <Time>2018-12-30T10:42:04.000Z</Time>
            <Position>
              <LatitudeDegrees>40.7806037552654743194580078125</LatitudeDegrees>
              <LongitudeDegrees>-4.07256868667900562286376953125</LongitudeDegrees>
            </Position>
            <AltitudeMeters>1535.800048828125</AltitudeMeters>
            <DistanceMeters>NAN</DistanceMeters>
          </Trackpoint>
          <Trackpoint>
            <Time>2018-12-30T10:42:05.000Z</Time>
            <Position>
              <LatitudeDegrees>40.78062328509986400604248046875</LatitudeDegrees>
              <LongitudeDegrees>-4.0725841931998729705810546875</LongitudeDegrees>
            </Position>
            <AltitudeMeters>1535.800048828125</AltitudeMeters>
            <DistanceMeters>NAN</DistanceMeters>
          </Trackpoint>
          <Trackpoint>
            <Time>2018-12-30T10:42:06.000Z</Time>
            <Position>
              <LatitudeDegrees>40.7806356064975261688232421875</LatitudeDegrees>
              <LongitudeDegrees>-4.0725801698863506317138671875</LongitudeDegrees>
            </Position>
            <AltitudeMeters>1535.800048828125</AltitudeMeters>
            <DistanceMeters>NAN</DistanceMeters>
          </Trackpoint>
          <Trackpoint>
            <Time>2018-12-30T10:42:07.000Z</Time>
            <Position>
              <LatitudeDegrees>40.78064658679068088531494140625</LatitudeDegrees>
              <LongitudeDegrees>-4.07257455401122570037841796875</LongitudeDegrees>
            </Position>
            <AltitudeMeters>1535.800048828125</AltitudeMeters>
            <DistanceMeters>NAN</DistanceMeters>
          </Trackpoint>
          <Trackpoint>
            <Time>2018-12-30T10:42:08.000Z</Time>
            <Position>
              <LatitudeDegrees>40.78065480105578899383544921875</LatitudeDegrees>
              <LongitudeDegrees>-4.07256030477583408355712890625</LongitudeDegrees>
            </Position>
            <AltitudeMeters>1536</AltitudeMeters>
            <DistanceMeters>NAN</DistanceMeters>
          </Trackpoint>
          <Trackpoint>
            <Time>2018-12-30T10:42:09.000Z</Time>
            <Position>
              <LatitudeDegrees>40.78066217713057994842529296875</LatitudeDegrees>
              <LongitudeDegrees>-4.07255024649202823638916015625</LongitudeDegrees>
            </Position>
            <AltitudeMeters>1536</AltitudeMeters>
            <DistanceMeters>NAN</DistanceMeters>
          </Trackpoint>
          <Trackpoint>
            <Time>2018-12-30T10:42:10.000Z</Time>
            <Position>
              <LatitudeDegrees>40.780671648681163787841796875</LatitudeDegrees>
              <LongitudeDegrees>-4.0725416131317615509033203125</LongitudeDegrees>
            </Position>
            <AltitudeMeters>1536.199951171875</AltitudeMeters>
            <DistanceMeters>NAN</DistanceMeters>
          </Trackpoint>
          <Trackpoint>
            <Time>2018-12-30T10:42:11.000Z</Time>
            <Position>
              <LatitudeDegrees>40.78068212606012821197509765625</LatitudeDegrees>
              <LongitudeDegrees>-4.0725365839898586273193359375</LongitudeDegrees>
            </Position>
            <AltitudeMeters>1536.199951171875</AltitudeMeters>
            <DistanceMeters>NAN</DistanceMeters>
          </Trackpoint>
          <Trackpoint>
            <Time>2018-12-30T10:42:12.000Z</Time>
            <Position>
              <LatitudeDegrees>40.780691094696521759033203125</LatitudeDegrees>
              <LongitudeDegrees>-4.07253272831439971923828125</LongitudeDegrees>
            </Position>
            <AltitudeMeters>1536.199951171875</AltitudeMeters>
            <DistanceMeters>NAN</DistanceMeters>
          </Trackpoint>
          <Trackpoint>
            <Time>2018-12-30T10:42:13.000Z</Time>
            <Position>
              <LatitudeDegrees>40.780703164637088775634765625</LatitudeDegrees>
              <LongitudeDegrees>-4.07252962701022624969482421875</LongitudeDegrees>
            </Position>
            <AltitudeMeters>1536.199951171875</AltitudeMeters>
            <DistanceMeters>NAN</DistanceMeters>
          </Trackpoint>
          <Trackpoint>
            <Time>2018-12-30T10:42:14.000Z</Time>
            <Position>
              <LatitudeDegrees>40.7807143963873386383056640625</LatitudeDegrees>
              <LongitudeDegrees>-4.07252778299152851104736328125</LongitudeDegrees>
            </Position>
            <AltitudeMeters>1536.199951171875</AltitudeMeters>
            <DistanceMeters>NAN</DistanceMeters>
          </Trackpoint>
          <Trackpoint>
            <Time>2018-12-30T10:42:15.000Z</Time>
            <Position>
              <LatitudeDegrees>40.780725963413715362548828125</LatitudeDegrees>
              <LongitudeDegrees>-4.07252761535346508026123046875</LongitudeDegrees>
            </Position>
            <AltitudeMeters>1536.199951171875</AltitudeMeters>
            <DistanceMeters>NAN</DistanceMeters>
          </Trackpoint>
          <Trackpoint>
            <Time>2018-12-30T10:42:16.000Z</Time>
            <Position>
              <LatitudeDegrees>40.78073694370687007904052734375</LatitudeDegrees>
              <LongitudeDegrees>-4.0725268609821796417236328125</LongitudeDegrees>
            </Position>
            <AltitudeMeters>1536.199951171875</AltitudeMeters>
            <DistanceMeters>NAN</DistanceMeters>
          </Trackpoint>
          <Trackpoint>
            <Time>2018-12-30T10:42:17.000Z</Time>
            <Position>
              <LatitudeDegrees>40.78074532561004161834716796875</LatitudeDegrees>
              <LongitudeDegrees>-4.07252334058284759521484375</LongitudeDegrees>
            </Position>
            <AltitudeMeters>1536.199951171875</AltitudeMeters>
            <DistanceMeters>NAN</DistanceMeters>
          </Trackpoint>
          <Trackpoint>
            <Time>2018-12-30T10:42:18.000Z</Time>
            <Position>
              <LatitudeDegrees>40.780752785503864288330078125</LatitudeDegrees>
              <LongitudeDegrees>-4.07252191565930843353271484375</LongitudeDegrees>
            </Position>
            <AltitudeMeters>1536.199951171875</AltitudeMeters>
            <DistanceMeters>NAN</DistanceMeters>
          </Trackpoint>
          <Trackpoint>
            <Time>2018-12-30T10:42:19.000Z</Time>
            <Position>
              <LatitudeDegrees>40.7807589881122112274169921875</LatitudeDegrees>
              <LongitudeDegrees>-4.07252065837383270263671875</LongitudeDegrees>
            </Position>
            <AltitudeMeters>1536.199951171875</AltitudeMeters>
            <DistanceMeters>NAN</DistanceMeters>
          </Trackpoint>
          <Trackpoint>
            <Time>2018-12-30T10:42:20.000Z</Time>
            <Position>
              <LatitudeDegrees>40.7807620055973529815673828125</LatitudeDegrees>
              <LongitudeDegrees>-4.0725178085267543792724609375</LongitudeDegrees>
            </Position>
            <AltitudeMeters>1536.199951171875</AltitudeMeters>
            <DistanceMeters>NAN</DistanceMeters>
          </Trackpoint>
          <Trackpoint>
            <Time>2018-12-30T10:42:21.000Z</Time>
            <Position>
              <LatitudeDegrees>40.7807687111198902130126953125</LatitudeDegrees>
              <LongitudeDegrees>-4.07251705415546894073486328125</LongitudeDegrees>
            </Position>
            <AltitudeMeters>1536.4000244140625</AltitudeMeters>
            <DistanceMeters>NAN</DistanceMeters>
          </Trackpoint>
          <Trackpoint>
            <Time>2018-12-30T10:42:22.000Z</Time>
            <Position>
              <LatitudeDegrees>40.78077600337564945220947265625</LatitudeDegrees>
              <LongitudeDegrees>-4.07251353375613689422607421875</LongitudeDegrees>
            </Position>
            <AltitudeMeters>1536.4000244140625</AltitudeMeters>
            <DistanceMeters>NAN</DistanceMeters>
          </Trackpoint>
          <Trackpoint>
            <Time>2018-12-30T10:42:23.000Z</Time>
            <Position>
              <LatitudeDegrees>40.78078287653625011444091796875</LatitudeDegrees>
              <LongitudeDegrees>-4.07251034863293170928955078125</LongitudeDegrees>
            </Position>
            <AltitudeMeters>1536.5999755859375</AltitudeMeters>
            <DistanceMeters>NAN</DistanceMeters>
          </Trackpoint>
          <Trackpoint>
            <Time>2018-12-30T10:42:24.000Z</Time>
            <Position>
              <LatitudeDegrees>40.78078840859234333038330078125</LatitudeDegrees>
              <LongitudeDegrees>-4.07250448130071163177490234375</LongitudeDegrees>
            </Position>
            <AltitudeMeters>1536.5999755859375</AltitudeMeters>
            <DistanceMeters>NAN</DistanceMeters>
          </Trackpoint>
          <Trackpoint>
            <Time>2018-12-30T10:42:25.000Z</Time>
            <Position>
              <LatitudeDegrees>40.7807953655719757080078125</LatitudeDegrees>
              <LongitudeDegrees>-4.07249609939754009246826171875</LongitudeDegrees>
            </Position>
            <AltitudeMeters>1536.5999755859375</AltitudeMeters>
            <DistanceMeters>NAN</DistanceMeters>
          </Trackpoint>
          <Trackpoint>
            <Time>2018-12-30T10:42:26.000Z</Time>
            <Position>
              <LatitudeDegrees>40.78080534003674983978271484375</LatitudeDegrees>
              <LongitudeDegrees>-4.0724869631230831146240234375</LongitudeDegrees>
            </Position>
            <AltitudeMeters>1536.5999755859375</AltitudeMeters>
            <DistanceMeters>NAN</DistanceMeters>
          </Trackpoint>
          <Trackpoint>
            <Time>2018-12-30T10:42:27.000Z</Time>
            <Position>
              <LatitudeDegrees>40.78081020154058933258056640625</LatitudeDegrees>
              <LongitudeDegrees>-4.0724770724773406982421875</LongitudeDegrees>
            </Position>
            <AltitudeMeters>1536.5999755859375</AltitudeMeters>
            <DistanceMeters>NAN</DistanceMeters>
          </Trackpoint>
          <Trackpoint>
            <Time>2018-12-30T10:42:28.000Z</Time>
            <Position>
              <LatitudeDegrees>40.78081673942506313323974609375</LatitudeDegrees>
              <LongitudeDegrees>-4.07247263006865978240966796875</LongitudeDegrees>
            </Position>
            <AltitudeMeters>1536.5999755859375</AltitudeMeters>
            <DistanceMeters>NAN</DistanceMeters>
          </Trackpoint>
          <Trackpoint>
            <Time>2018-12-30T10:42:29.000Z</Time>
            <Position>
              <LatitudeDegrees>40.78082554042339324951171875</LatitudeDegrees>
              <LongitudeDegrees>-4.07247128896415233612060546875</LongitudeDegrees>
            </Position>
            <AltitudeMeters>1536.5999755859375</AltitudeMeters>
            <DistanceMeters>NAN</DistanceMeters>
          </Trackpoint>
          <Trackpoint>
            <Time>2018-12-30T10:42:30.000Z</Time>
            <Position>
              <LatitudeDegrees>40.78083383850753307342529296875</LatitudeDegrees>
              <LongitudeDegrees>-4.0724668465554714202880859375</LongitudeDegrees>
            </Position>
            <AltitudeMeters>1536.5999755859375</AltitudeMeters>
            <DistanceMeters>NAN</DistanceMeters>
          </Trackpoint>
          <Trackpoint>
            <Time>2018-12-30T10:42:31.000Z</Time>
            <Position>
              <LatitudeDegrees>40.78083819709718227386474609375</LatitudeDegrees>
              <LongitudeDegrees>-4.07246106304228305816650390625</LongitudeDegrees>
            </Position>
            <AltitudeMeters>1536.800048828125</AltitudeMeters>
            <DistanceMeters>NAN</DistanceMeters>
          </Trackpoint>
          <Trackpoint>
            <Time>2018-12-30T10:42:32.000Z</Time>
            <Position>
              <LatitudeDegrees>40.78084297478199005126953125</LatitudeDegrees>
              <LongitudeDegrees>-4.07245569862425327301025390625</LongitudeDegrees>
            </Position>
            <AltitudeMeters>1537.199951171875</AltitudeMeters>
            <DistanceMeters>NAN</DistanceMeters>
          </Trackpoint>
          <Trackpoint>
            <Time>2018-12-30T10:42:33.000Z</Time>
            <Position>
              <LatitudeDegrees>40.78084758482873439788818359375</LatitudeDegrees>
              <LongitudeDegrees>-4.072451256215572357177734375</LongitudeDegrees>
            </Position>
            <AltitudeMeters>1537.199951171875</AltitudeMeters>
            <DistanceMeters>NAN</DistanceMeters>
          </Trackpoint>
          <Trackpoint>
            <Time>2018-12-30T10:42:34.000Z</Time>
            <Position>
              <LatitudeDegrees>40.78085613436996936798095703125</LatitudeDegrees>
              <LongitudeDegrees>-4.07245184294879436492919921875</LongitudeDegrees>
            </Position>
            <AltitudeMeters>1537.199951171875</AltitudeMeters>
            <DistanceMeters>NAN</DistanceMeters>
          </Trackpoint>
          <Trackpoint>
            <Time>2018-12-30T10:42:35.000Z</Time>
            <Position>
              <LatitudeDegrees>40.78087155707180500030517578125</LatitudeDegrees>
              <LongitudeDegrees>-4.07245620153844356536865234375</LongitudeDegrees>
            </Position>
            <AltitudeMeters>1537.4000244140625</AltitudeMeters>
            <DistanceMeters>NAN</DistanceMeters>
          </Trackpoint>
          <Trackpoint>
            <Time>2018-12-30T10:42:36.000Z</Time>
            <Position>
              <LatitudeDegrees>40.780885554850101470947265625</LatitudeDegrees>
              <LongitudeDegrees>-4.07246994785964488983154296875</LongitudeDegrees>
            </Position>
            <AltitudeMeters>1537.5999755859375</AltitudeMeters>
            <DistanceMeters>NAN</DistanceMeters>
          </Trackpoint>
          <Trackpoint>
            <Time>2018-12-30T10:42:37.000Z</Time>
            <Position>
              <LatitudeDegrees>40.7808934338390827178955078125</LatitudeDegrees>
              <LongitudeDegrees>-4.07247799448668956756591796875</LongitudeDegrees>
            </Position>
            <AltitudeMeters>1537.5999755859375</AltitudeMeters>
            <DistanceMeters>NAN</DistanceMeters>
          </Trackpoint>
          <Trackpoint>
            <Time>2018-12-30T10:42:38.000Z</Time>
            <Position>
              <LatitudeDegrees>40.780904330313205718994140625</LatitudeDegrees>
              <LongitudeDegrees>-4.07248436473309993743896484375</LongitudeDegrees>
            </Position>
            <AltitudeMeters>1537.5999755859375</AltitudeMeters>
            <DistanceMeters>NAN</DistanceMeters>
          </Trackpoint>
          <Trackpoint>
            <Time>2018-12-30T10:42:39.000Z</Time>
            <Position>
              <LatitudeDegrees>40.78091665171086788177490234375</LatitudeDegrees>
              <LongitudeDegrees>-4.07248369418084621429443359375</LongitudeDegrees>
            </Position>
            <AltitudeMeters>1537.5999755859375</AltitudeMeters>
            <DistanceMeters>NAN</DistanceMeters>
          </Trackpoint>
          <Trackpoint>
            <Time>2018-12-30T10:42:40.000Z</Time>
            <Position>
              <LatitudeDegrees>40.78093157149851322174072265625</LatitudeDegrees>
              <LongitudeDegrees>-4.07248805277049541473388671875</LongitudeDegrees>
            </Position>
            <AltitudeMeters>1537.800048828125</AltitudeMeters>
            <DistanceMeters>NAN</DistanceMeters>
          </Trackpoint>
          <Trackpoint>
            <Time>2018-12-30T10:42:41.000Z</Time>
            <Position>
              <LatitudeDegrees>40.780943892896175384521484375</LatitudeDegrees>
              <LongitudeDegrees>-4.07249073497951030731201171875</LongitudeDegrees>
            </Position>
            <AltitudeMeters>1538</AltitudeMeters>
            <DistanceMeters>NAN</DistanceMeters>
          </Trackpoint>
          <Trackpoint>
            <Time>2018-12-30T10:42:42.000Z</Time>
            <Position>
              <LatitudeDegrees>40.78095202334225177764892578125</LatitudeDegrees>
              <LongitudeDegrees>-4.07248855568468570709228515625</LongitudeDegrees>
            </Position>
            <AltitudeMeters>1538.4000244140625</AltitudeMeters>
            <DistanceMeters>NAN</DistanceMeters>
          </Trackpoint>
          <Trackpoint>
            <Time>2018-12-30T10:42:43.000Z</Time>
            <Position>
              <LatitudeDegrees>40.7809598185122013092041015625</LatitudeDegrees>
              <LongitudeDegrees>-4.07248956151306629180908203125</LongitudeDegrees>
            </Position>
            <AltitudeMeters>1538.800048828125</AltitudeMeters>
            <DistanceMeters>NAN</DistanceMeters>
          </Trackpoint>
          <Trackpoint>
            <Time>2018-12-30T10:42:44.000Z</Time>
            <Position>
              <LatitudeDegrees>40.78096778132021427154541015625</LatitudeDegrees>
              <LongitudeDegrees>-4.07250330783426761627197265625</LongitudeDegrees>
            </Position>
            <AltitudeMeters>1539</AltitudeMeters>
            <DistanceMeters>NAN</DistanceMeters>
          </Trackpoint>
          <Trackpoint>
            <Time>2018-12-30T10:42:45.000Z</Time>
            <Position>
              <LatitudeDegrees>40.78097633086144924163818359375</LatitudeDegrees>
              <LongitudeDegrees>-4.072512276470661163330078125</LongitudeDegrees>
            </Position>
            <AltitudeMeters>1539</AltitudeMeters>
            <DistanceMeters>NAN</DistanceMeters>
          </Trackpoint>
          <Trackpoint>
            <Time>2018-12-30T10:42:46.000Z</Time>
            <Position>
              <LatitudeDegrees>40.78098513185977935791015625</LatitudeDegrees>
              <LongitudeDegrees>-4.07251604832708835601806640625</LongitudeDegrees>
            </Position>
            <AltitudeMeters>1539.199951171875</AltitudeMeters>
            <DistanceMeters>NAN</DistanceMeters>
          </Trackpoint>
          <Trackpoint>
            <Time>2018-12-30T10:42:47.000Z</Time>
            <Position>
              <LatitudeDegrees>40.78099326230585575103759765625</LatitudeDegrees>
              <LongitudeDegrees>-4.072516299784183502197265625</LongitudeDegrees>
            </Position>
            <AltitudeMeters>1539.4000244140625</AltitudeMeters>
            <DistanceMeters>NAN</DistanceMeters>
          </Trackpoint>
          <Trackpoint>
            <Time>2018-12-30T10:42:48.000Z</Time>
            <Position>
              <LatitudeDegrees>40.78100499697029590606689453125</LatitudeDegrees>
              <LongitudeDegrees>-4.0725173056125640869140625</LongitudeDegrees>
            </Position>
            <AltitudeMeters>1539.199951171875</AltitudeMeters>
            <DistanceMeters>NAN</DistanceMeters>
          </Trackpoint>
          <Trackpoint>
            <Time>2018-12-30T10:42:49.000Z</Time>
            <Position>
              <LatitudeDegrees>40.7810153067111968994140625</LatitudeDegrees>
              <LongitudeDegrees>-4.07252065837383270263671875</LongitudeDegrees>
            </Position>
            <AltitudeMeters>1539</AltitudeMeters>
            <DistanceMeters>NAN</DistanceMeters>
          </Trackpoint>
          <Trackpoint>
            <Time>2018-12-30T10:42:50.000Z</Time>
            <Position>
              <LatitudeDegrees>40.78102310188114643096923828125</LatitudeDegrees>
              <LongitudeDegrees>-4.072520993649959564208984375</LongitudeDegrees>
            </Position>
            <AltitudeMeters>1539</AltitudeMeters>
            <DistanceMeters>NAN</DistanceMeters>
          </Trackpoint>
          <Trackpoint>
            <Time>2018-12-30T10:42:51.000Z</Time>
            <Position>
              <LatitudeDegrees>40.7810305617749691009521484375</LatitudeDegrees>
              <LongitudeDegrees>-4.0725181438028812408447265625</LongitudeDegrees>
            </Position>
            <AltitudeMeters>1539.199951171875</AltitudeMeters>
            <DistanceMeters>NAN</DistanceMeters>
          </Trackpoint>
          <Trackpoint>
            <Time>2018-12-30T10:42:52.000Z</Time>
            <Position>
              <LatitudeDegrees>40.7810396142303943634033203125</LatitudeDegrees>
              <LongitudeDegrees>-4.07251856289803981781005859375</LongitudeDegrees>
            </Position>
            <AltitudeMeters>1539.4000244140625</AltitudeMeters>
            <DistanceMeters>NAN</DistanceMeters>
          </Trackpoint>
          <Trackpoint>
            <Time>2018-12-30T10:42:53.000Z</Time>
            <Position>
              <LatitudeDegrees>40.7810479961335659027099609375</LatitudeDegrees>
              <LongitudeDegrees>-4.07251923345029354095458984375</LongitudeDegrees>
            </Position>
            <AltitudeMeters>1539.4000244140625</AltitudeMeters>
            <DistanceMeters>NAN</DistanceMeters>
          </Trackpoint>
          <Trackpoint>
            <Time>2018-12-30T10:42:54.000Z</Time>
            <Position>
              <LatitudeDegrees>40.7810563780367374420166015625</LatitudeDegrees>
              <LongitudeDegrees>-4.0725171379745006561279296875</LongitudeDegrees>
            </Position>
            <AltitudeMeters>1539.5999755859375</AltitudeMeters>
            <DistanceMeters>NAN</DistanceMeters>
          </Trackpoint>
          <Trackpoint>
            <Time>2018-12-30T10:42:55.000Z</Time>
            <Position>
              <LatitudeDegrees>40.78106534667313098907470703125</LatitudeDegrees>
              <LongitudeDegrees>-4.07251437194645404815673828125</LongitudeDegrees>
            </Position>
            <AltitudeMeters>1539.800048828125</AltitudeMeters>
            <DistanceMeters>NAN</DistanceMeters>
          </Trackpoint>
          <Trackpoint>
            <Time>2018-12-30T10:42:56.000Z</Time>
            <Position>
              <LatitudeDegrees>40.78109107911586761474609375</LatitudeDegrees>
              <LongitudeDegrees>-4.07253096811473369598388671875</LongitudeDegrees>
            </Position>
            <AltitudeMeters>1539.800048828125</AltitudeMeters>
            <DistanceMeters>NAN</DistanceMeters>
          </Trackpoint>
          <Trackpoint>
            <Time>2018-12-30T10:42:57.000Z</Time>
            <Position>
              <LatitudeDegrees>40.78109107911586761474609375</LatitudeDegrees>
              <LongitudeDegrees>-4.07253096811473369598388671875</LongitudeDegrees>
            </Position>
            <AltitudeMeters>1539.800048828125</AltitudeMeters>
            <DistanceMeters>NAN</DistanceMeters>
          </Trackpoint>
          <Trackpoint>
            <Time>2018-12-30T10:42:58.000Z</Time>
            <Position>
              <LatitudeDegrees>40.78110155649483203887939453125</LatitudeDegrees>
              <LongitudeDegrees>-4.0725308842957019805908203125</LongitudeDegrees>
            </Position>
            <AltitudeMeters>1540</AltitudeMeters>
            <DistanceMeters>NAN</DistanceMeters>
          </Trackpoint>
          <Trackpoint>
            <Time>2018-12-30T10:42:59.000Z</Time>
            <Position>
              <LatitudeDegrees>40.7811105251312255859375</LatitudeDegrees>
              <LongitudeDegrees>-4.07253901474177837371826171875</LongitudeDegrees>
            </Position>
            <AltitudeMeters>1540</AltitudeMeters>
            <DistanceMeters>NAN</DistanceMeters>
          </Trackpoint>
          <Trackpoint>
            <Time>2018-12-30T10:43:00.000Z</Time>
            <Position>
              <LatitudeDegrees>40.78111915849149227142333984375</LatitudeDegrees>
              <LongitudeDegrees>-4.0725459717214107513427734375</LongitudeDegrees>
            </Position>
            <AltitudeMeters>1540</AltitudeMeters>
            <DistanceMeters>NAN</DistanceMeters>
          </Trackpoint>
          <Trackpoint>
            <Time>2018-12-30T10:43:01.000Z</Time>
            <Position>
              <LatitudeDegrees>40.78112670220434665679931640625</LatitudeDegrees>
              <LongitudeDegrees>-4.072545133531093597412109375</LongitudeDegrees>
            </Position>
            <AltitudeMeters>1540.199951171875</AltitudeMeters>
            <DistanceMeters>NAN</DistanceMeters>
          </Trackpoint>
          <Trackpoint>
            <Time>2018-12-30T10:43:02.000Z</Time>
            <Position>
              <LatitudeDegrees>40.781130976974964141845703125</LatitudeDegrees>
              <LongitudeDegrees>-4.07253935001790523529052734375</LongitudeDegrees>
            </Position>
            <AltitudeMeters>1540.4000244140625</AltitudeMeters>
            <DistanceMeters>NAN</DistanceMeters>
          </Trackpoint>
          <Trackpoint>
            <Time>2018-12-30T10:43:03.000Z</Time>
            <Position>
              <LatitudeDegrees>40.78113575465977191925048828125</LatitudeDegrees>
              <LongitudeDegrees>-4.07253951765596866607666015625</LongitudeDegrees>
            </Position>
            <AltitudeMeters>1540.5999755859375</AltitudeMeters>
            <DistanceMeters>NAN</DistanceMeters>
          </Trackpoint>
          <Trackpoint>
            <Time>2018-12-30T10:43:04.000Z</Time>
            <Position>
              <LatitudeDegrees>40.78114145435392856597900390625</LatitudeDegrees>
              <LongitudeDegrees>-4.07253675162792205810546875</LongitudeDegrees>
            </Position>
            <AltitudeMeters>1540.5999755859375</AltitudeMeters>
            <DistanceMeters>NAN</DistanceMeters>
          </Trackpoint>
          <Trackpoint>
            <Time>2018-12-30T10:43:05.000Z</Time>
            <Position>
              <LatitudeDegrees>40.781145058572292327880859375</LatitudeDegrees>
              <LongitudeDegrees>-4.07253650017082691192626953125</LongitudeDegrees>
            </Position>
            <AltitudeMeters>1540.800048828125</AltitudeMeters>
            <DistanceMeters>NAN</DistanceMeters>
          </Trackpoint>
          <Trackpoint>
            <Time>2018-12-30T10:43:06.000Z</Time>
            <Position>
              <LatitudeDegrees>40.7811479084193706512451171875</LatitudeDegrees>
              <LongitudeDegrees>-4.0725372545421123504638671875</LongitudeDegrees>
            </Position>
            <AltitudeMeters>1541</AltitudeMeters>
            <DistanceMeters>NAN</DistanceMeters>
          </Trackpoint>
          <Trackpoint>
            <Time>2018-12-30T10:43:07.000Z</Time>
            <Position>
              <LatitudeDegrees>40.78115235082805156707763671875</LatitudeDegrees>
              <LongitudeDegrees>-4.07253272831439971923828125</LongitudeDegrees>
            </Position>
            <AltitudeMeters>1541</AltitudeMeters>
            <DistanceMeters>NAN</DistanceMeters>
          </Trackpoint>
          <Trackpoint>
            <Time>2018-12-30T10:43:08.000Z</Time>
            <Position>
              <LatitudeDegrees>40.78115419484674930572509765625</LatitudeDegrees>
              <LongitudeDegrees>-4.07252929173409938812255859375</LongitudeDegrees>
            </Position>
            <AltitudeMeters>1541</AltitudeMeters>
            <DistanceMeters>NAN</DistanceMeters>
          </Trackpoint>
          <Trackpoint>
            <Time>2018-12-30T10:43:09.000Z</Time>
            <Position>
              <LatitudeDegrees>40.78115679323673248291015625</LatitudeDegrees>
              <LongitudeDegrees>-4.07252912409603595733642578125</LongitudeDegrees>
            </Position>
            <AltitudeMeters>1541</AltitudeMeters>
            <DistanceMeters>NAN</DistanceMeters>
          </Trackpoint>
          <Trackpoint>
            <Time>2018-12-30T10:43:10.000Z</Time>
            <Position>
              <LatitudeDegrees>40.78116483986377716064453125</LatitudeDegrees>
              <LongitudeDegrees>-4.07253448851406574249267578125</LongitudeDegrees>
            </Position>
            <AltitudeMeters>1541</AltitudeMeters>
            <DistanceMeters>NAN</DistanceMeters>
          </Trackpoint>
          <Trackpoint>
            <Time>2018-12-30T10:43:11.000Z</Time>
            <Position>
              <LatitudeDegrees>40.78117422759532928466796875</LatitudeDegrees>
              <LongitudeDegrees>-4.07253742218017578125</LongitudeDegrees>
            </Position>
            <AltitudeMeters>1541</AltitudeMeters>
            <DistanceMeters>NAN</DistanceMeters>
          </Trackpoint>
          <Trackpoint>
            <Time>2018-12-30T10:43:12.000Z</Time>
            <Position>
              <LatitudeDegrees>40.78118017874658107757568359375</LatitudeDegrees>
              <LongitudeDegrees>-4.072525687515735626220703125</LongitudeDegrees>
            </Position>
            <AltitudeMeters>1541</AltitudeMeters>
            <DistanceMeters>NAN</DistanceMeters>
          </Trackpoint>
          <Trackpoint>
            <Time>2018-12-30T10:43:13.000Z</Time>
            <Position>
              <LatitudeDegrees>40.78118436969816684722900390625</LatitudeDegrees>
              <LongitudeDegrees>-4.07251856289803981781005859375</LongitudeDegrees>
            </Position>
            <AltitudeMeters>1541</AltitudeMeters>
            <DistanceMeters>NAN</DistanceMeters>
          </Trackpoint>
          <Trackpoint>
            <Time>2018-12-30T10:43:14.000Z</Time>
            <Position>
              <LatitudeDegrees>40.78118973411619663238525390625</LatitudeDegrees>
              <LongitudeDegrees>-4.07250682823359966278076171875</LongitudeDegrees>
            </Position>
            <AltitudeMeters>1541</AltitudeMeters>
            <DistanceMeters>NAN</DistanceMeters>
          </Trackpoint>
          <Trackpoint>
            <Time>2018-12-30T10:43:15.000Z</Time>
            <Position>
              <LatitudeDegrees>40.781198702752590179443359375</LatitudeDegrees>
              <LongitudeDegrees>-4.0725020505487918853759765625</LongitudeDegrees>
            </Position>
            <AltitudeMeters>1541</AltitudeMeters>
            <DistanceMeters>NAN</DistanceMeters>
          </Trackpoint>
          <Trackpoint>
            <Time>2018-12-30T10:43:16.000Z</Time>
            <Position>
              <LatitudeDegrees>40.78120708465576171875</LatitudeDegrees>
              <LongitudeDegrees>-4.072491489350795745849609375</LongitudeDegrees>
            </Position>
            <AltitudeMeters>1541.199951171875</AltitudeMeters>
            <DistanceMeters>NAN</DistanceMeters>
          </Trackpoint>
          <Trackpoint>
            <Time>2018-12-30T10:43:17.000Z</Time>
            <Position>
              <LatitudeDegrees>40.78121253289282321929931640625</LatitudeDegrees>
              <LongitudeDegrees>-4.07248335890471935272216796875</LongitudeDegrees>
            </Position>
            <AltitudeMeters>1541.199951171875</AltitudeMeters>
            <DistanceMeters>NAN</DistanceMeters>
          </Trackpoint>
          <Trackpoint>
            <Time>2018-12-30T10:43:18.000Z</Time>
            <Position>
              <LatitudeDegrees>40.781216137111186981201171875</LatitudeDegrees>
              <LongitudeDegrees>-4.07247615046799182891845703125</LongitudeDegrees>
            </Position>
            <AltitudeMeters>1541.4000244140625</AltitudeMeters>
            <DistanceMeters>NAN</DistanceMeters>
          </Trackpoint>
          <Trackpoint>
            <Time>2018-12-30T10:43:19.000Z</Time>
            <Position>
              <LatitudeDegrees>40.78121982514858245849609375</LatitudeDegrees>
              <LongitudeDegrees>-4.07246793620288372039794921875</LongitudeDegrees>
            </Position>
            <AltitudeMeters>1541.5999755859375</AltitudeMeters>
            <DistanceMeters>NAN</DistanceMeters>
          </Trackpoint>
          <Trackpoint>
            <Time>2018-12-30T10:43:20.000Z</Time>
            <Position>
              <LatitudeDegrees>40.781225524842739105224609375</LatitudeDegrees>
              <LongitudeDegrees>-4.07245988957583904266357421875</LongitudeDegrees>
            </Position>
            <AltitudeMeters>1541.800048828125</AltitudeMeters>
            <DistanceMeters>NAN</DistanceMeters>
          </Trackpoint>
          <Trackpoint>
            <Time>2018-12-30T10:43:21.000Z</Time>
            <Position>
              <LatitudeDegrees>40.7812330685555934906005859375</LatitudeDegrees>
              <LongitudeDegrees>-4.07245284877717494964599609375</LongitudeDegrees>
            </Position>
            <AltitudeMeters>1541.800048828125</AltitudeMeters>
            <DistanceMeters>NAN</DistanceMeters>
          </Trackpoint>
          <Trackpoint>
            <Time>2018-12-30T10:43:22.000Z</Time>
            <Position>
              <LatitudeDegrees>40.78124103136360645294189453125</LatitudeDegrees>
              <LongitudeDegrees>-4.072445891797542572021484375</LongitudeDegrees>
            </Position>
            <AltitudeMeters>1542</AltitudeMeters>
            <DistanceMeters>NAN</DistanceMeters>
          </Trackpoint>
          <Trackpoint>
            <Time>2018-12-30T10:43:23.000Z</Time>
            <Position>
              <LatitudeDegrees>40.7812513411045074462890625</LatitudeDegrees>
              <LongitudeDegrees>-4.07244211994111537933349609375</LongitudeDegrees>
            </Position>
            <AltitudeMeters>1542</AltitudeMeters>
            <DistanceMeters>NAN</DistanceMeters>
          </Trackpoint>
          <Trackpoint>
            <Time>2018-12-30T10:43:24.000Z</Time>
            <Position>
              <LatitudeDegrees>40.7812632434070110321044921875</LatitudeDegrees>
              <LongitudeDegrees>-4.07244580797851085662841796875</LongitudeDegrees>
            </Position>
            <AltitudeMeters>1542.199951171875</AltitudeMeters>
            <DistanceMeters>NAN</DistanceMeters>
          </Trackpoint>
          <Trackpoint>
            <Time>2018-12-30T10:43:25.000Z</Time>
            <Position>
              <LatitudeDegrees>40.7812722958624362945556640625</LatitudeDegrees>
              <LongitudeDegrees>-4.07244647853076457977294921875</LongitudeDegrees>
            </Position>
            <AltitudeMeters>1542.5999755859375</AltitudeMeters>
            <DistanceMeters>NAN</DistanceMeters>
          </Trackpoint>
          <Trackpoint>
            <Time>2018-12-30T10:43:26.000Z</Time>
            <Position>
              <LatitudeDegrees>40.781281180679798126220703125</LatitudeDegrees>
              <LongitudeDegrees>-4.07245050184428691864013671875</LongitudeDegrees>
            </Position>
            <AltitudeMeters>1542.800048828125</AltitudeMeters>
            <DistanceMeters>NAN</DistanceMeters>
          </Trackpoint>
          <Trackpoint>
            <Time>2018-12-30T10:43:27.000Z</Time>
            <Position>
              <LatitudeDegrees>40.78130003996193408966064453125</LatitudeDegrees>
              <LongitudeDegrees>-4.0724534355103969573974609375</LongitudeDegrees>
            </Position>
            <AltitudeMeters>1542.800048828125</AltitudeMeters>
            <DistanceMeters>NAN</DistanceMeters>
          </Trackpoint>
          <Trackpoint>
            <Time>2018-12-30T10:43:28.000Z</Time>
            <Position>
              <LatitudeDegrees>40.78130003996193408966064453125</LatitudeDegrees>
              <LongitudeDegrees>-4.0724534355103969573974609375</LongitudeDegrees>
            </Position>
            <AltitudeMeters>1543</AltitudeMeters>
            <DistanceMeters>NAN</DistanceMeters>
          </Trackpoint>
          <Trackpoint>
            <Time>2018-12-30T10:43:29.000Z</Time>
            <Position>
              <LatitudeDegrees>40.7813091762363910675048828125</LatitudeDegrees>
              <LongitudeDegrees>-4.07245687209069728851318359375</LongitudeDegrees>
            </Position>
            <AltitudeMeters>1543</AltitudeMeters>
            <DistanceMeters>NAN</DistanceMeters>
          </Trackpoint>
          <Trackpoint>
            <Time>2018-12-30T10:43:30.000Z</Time>
            <Position>
              <LatitudeDegrees>40.78132149763405323028564453125</LatitudeDegrees>
              <LongitudeDegrees>-4.0724628232419490814208984375</LongitudeDegrees>
            </Position>
            <AltitudeMeters>1543</AltitudeMeters>
            <DistanceMeters>NAN</DistanceMeters>
          </Trackpoint>
          <Trackpoint>
            <Time>2018-12-30T10:43:31.000Z</Time>
            <Position>
              <LatitudeDegrees>40.78133247792720794677734375</LatitudeDegrees>
              <LongitudeDegrees>-4.07246299088001251220703125</LongitudeDegrees>
            </Position>
            <AltitudeMeters>1543</AltitudeMeters>
            <DistanceMeters>NAN</DistanceMeters>
          </Trackpoint>
          <Trackpoint>
            <Time>2018-12-30T10:43:32.000Z</Time>
            <Position>
              <LatitudeDegrees>40.78134178183972835540771484375</LatitudeDegrees>
              <LongitudeDegrees>-4.07245871610939502716064453125</LongitudeDegrees>
            </Position>
            <AltitudeMeters>1543</AltitudeMeters>
            <DistanceMeters>NAN</DistanceMeters>
          </Trackpoint>
          <Trackpoint>
            <Time>2018-12-30T10:43:33.000Z</Time>
            <Position>
              <LatitudeDegrees>40.7813524268567562103271484375</LatitudeDegrees>
              <LongitudeDegrees>-4.07245771028101444244384765625</LongitudeDegrees>
            </Position>
            <AltitudeMeters>1543</AltitudeMeters>
            <DistanceMeters>NAN</DistanceMeters>
          </Trackpoint>
          <Trackpoint>
            <Time>2018-12-30T10:43:34.000Z</Time>
            <Position>
              <LatitudeDegrees>40.7813608087599277496337890625</LatitudeDegrees>
              <LongitudeDegrees>-4.0724529325962066650390625</LongitudeDegrees>
            </Position>
            <AltitudeMeters>1543.199951171875</AltitudeMeters>
            <DistanceMeters>NAN</DistanceMeters>
          </Trackpoint>
          <Trackpoint>
            <Time>2018-12-30T10:43:35.000Z</Time>
            <Position>
              <LatitudeDegrees>40.78136877156794071197509765625</LatitudeDegrees>
              <LongitudeDegrees>-4.0724514238536357879638671875</LongitudeDegrees>
            </Position>
            <AltitudeMeters>1543.4000244140625</AltitudeMeters>
            <DistanceMeters>NAN</DistanceMeters>
          </Trackpoint>
          <Trackpoint>
            <Time>2018-12-30T10:43:36.000Z</Time>
            <Position>
              <LatitudeDegrees>40.78137514181435108184814453125</LatitudeDegrees>
              <LongitudeDegrees>-4.07244714908301830291748046875</LongitudeDegrees>
            </Position>
            <AltitudeMeters>1543.800048828125</AltitudeMeters>
            <DistanceMeters>NAN</DistanceMeters>
          </Trackpoint>
          <Trackpoint>
            <Time>2018-12-30T10:43:37.000Z</Time>
            <Position>
              <LatitudeDegrees>40.78137899748980998992919921875</LatitudeDegrees>
              <LongitudeDegrees>-4.07244262285530567169189453125</LongitudeDegrees>
            </Position>
            <AltitudeMeters>1544</AltitudeMeters>
            <DistanceMeters>NAN</DistanceMeters>
          </Trackpoint>
          <Trackpoint>
            <Time>2018-12-30T10:43:38.000Z</Time>
            <Position>
              <LatitudeDegrees>40.7813856191933155059814453125</LatitudeDegrees>
              <LongitudeDegrees>-4.0724393539130687713623046875</LongitudeDegrees>
            </Position>
            <AltitudeMeters>1544.4000244140625</AltitudeMeters>
            <DistanceMeters>NAN</DistanceMeters>
          </Trackpoint>
          <Trackpoint>
            <Time>2018-12-30T10:43:39.000Z</Time>
            <Position>
              <LatitudeDegrees>40.78139374963939189910888671875</LatitudeDegrees>
              <LongitudeDegrees>-4.07244195230305194854736328125</LongitudeDegrees>
            </Position>
            <AltitudeMeters>1544.5999755859375</AltitudeMeters>
            <DistanceMeters>NAN</DistanceMeters>
          </Trackpoint>
          <Trackpoint>
            <Time>2018-12-30T10:43:40.000Z</Time>
            <Position>
              <LatitudeDegrees>40.78139626421034336090087890625</LatitudeDegrees>
              <LongitudeDegrees>-4.072431810200214385986328125</LongitudeDegrees>
            </Position>
            <AltitudeMeters>1545</AltitudeMeters>
            <DistanceMeters>NAN</DistanceMeters>
          </Trackpoint>
          <Trackpoint>
            <Time>2018-12-30T10:43:41.000Z</Time>
            <Position>
              <LatitudeDegrees>40.781399868428707122802734375</LatitudeDegrees>
              <LongitudeDegrees>-4.07242183573544025421142578125</LongitudeDegrees>
            </Position>
            <AltitudeMeters>1545</AltitudeMeters>
            <DistanceMeters>NAN</DistanceMeters>
          </Trackpoint>
          <Trackpoint>
            <Time>2018-12-30T10:43:42.000Z</Time>
            <Position>
              <LatitudeDegrees>40.781404562294483184814453125</LatitudeDegrees>
              <LongitudeDegrees>-4.07241563312709331512451171875</LongitudeDegrees>
            </Position>
            <AltitudeMeters>1545.199951171875</AltitudeMeters>
            <DistanceMeters>NAN</DistanceMeters>
          </Trackpoint>
          <Trackpoint>
            <Time>2018-12-30T10:43:43.000Z</Time>
            <Position>
              <LatitudeDegrees>40.7814100943505764007568359375</LatitudeDegrees>
              <LongitudeDegrees>-4.07241337001323699951171875</LongitudeDegrees>
            </Position>
            <AltitudeMeters>1545.4000244140625</AltitudeMeters>
            <DistanceMeters>NAN</DistanceMeters>
          </Trackpoint>
          <Trackpoint>
            <Time>2018-12-30T10:43:44.000Z</Time>
            <Position>
              <LatitudeDegrees>40.781412608921527862548828125</LatitudeDegrees>
              <LongitudeDegrees>-4.07241127453744411468505859375</LongitudeDegrees>
            </Position>
            <AltitudeMeters>1545.4000244140625</AltitudeMeters>
            <DistanceMeters>NAN</DistanceMeters>
          </Trackpoint>
          <Trackpoint>
            <Time>2018-12-30T10:43:45.000Z</Time>
            <Position>
              <LatitudeDegrees>40.78141872771084308624267578125</LatitudeDegrees>
              <LongitudeDegrees>-4.07240155152976512908935546875</LongitudeDegrees>
            </Position>
            <AltitudeMeters>1545.5999755859375</AltitudeMeters>
            <DistanceMeters>NAN</DistanceMeters>
          </Trackpoint>
          <Trackpoint>
            <Time>2018-12-30T10:43:46.000Z</Time>
            <Position>
              <LatitudeDegrees>40.78142258338630199432373046875</LatitudeDegrees>
              <LongitudeDegrees>-4.07239191234111785888671875</LongitudeDegrees>
            </Position>
            <AltitudeMeters>1545.800048828125</AltitudeMeters>
            <DistanceMeters>NAN</DistanceMeters>
          </Trackpoint>
          <Trackpoint>
            <Time>2018-12-30T10:43:47.000Z</Time>
            <Position>
              <LatitudeDegrees>40.78142493031919002532958984375</LatitudeDegrees>
              <LongitudeDegrees>-4.07238344661891460418701171875</LongitudeDegrees>
            </Position>
            <AltitudeMeters>1546</AltitudeMeters>
            <DistanceMeters>NAN</DistanceMeters>
          </Trackpoint>
          <Trackpoint>
            <Time>2018-12-30T10:43:48.000Z</Time>
            <Position>
              <LatitudeDegrees>40.78142995946109294891357421875</LatitudeDegrees>
              <LongitudeDegrees>-4.0723790042102336883544921875</LongitudeDegrees>
            </Position>
            <AltitudeMeters>1546.199951171875</AltitudeMeters>
            <DistanceMeters>NAN</DistanceMeters>
          </Trackpoint>
          <Trackpoint>
            <Time>2018-12-30T10:43:49.000Z</Time>
            <Position>
              <LatitudeDegrees>40.78143867664039134979248046875</LatitudeDegrees>
              <LongitudeDegrees>-4.07237355597317218780517578125</LongitudeDegrees>
            </Position>
            <AltitudeMeters>1546.4000244140625</AltitudeMeters>
            <DistanceMeters>NAN</DistanceMeters>
          </Trackpoint>
          <Trackpoint>
            <Time>2018-12-30T10:43:50.000Z</Time>
            <Position>
              <LatitudeDegrees>40.78144588507711887359619140625</LatitudeDegrees>
              <LongitudeDegrees>-4.07236668281257152557373046875</LongitudeDegrees>
            </Position>
            <AltitudeMeters>1546.5999755859375</AltitudeMeters>
            <DistanceMeters>NAN</DistanceMeters>
          </Trackpoint>
          <Trackpoint>
            <Time>2018-12-30T10:43:51.000Z</Time>
            <Position>
              <LatitudeDegrees>40.78145225532352924346923828125</LatitudeDegrees>
              <LongitudeDegrees>-4.07236165367066860198974609375</LongitudeDegrees>
            </Position>
            <AltitudeMeters>1546.800048828125</AltitudeMeters>
            <DistanceMeters>NAN</DistanceMeters>
          </Trackpoint>
          <Trackpoint>
            <Time>2018-12-30T10:43:52.000Z</Time>
            <Position>
              <LatitudeDegrees>40.78145778737962245941162109375</LatitudeDegrees>
              <LongitudeDegrees>-4.0723575465381145477294921875</LongitudeDegrees>
            </Position>
            <AltitudeMeters>1546.800048828125</AltitudeMeters>
            <DistanceMeters>NAN</DistanceMeters>
          </Trackpoint>
          <Trackpoint>
            <Time>2018-12-30T10:43:53.000Z</Time>
            <Position>
              <LatitudeDegrees>40.7814617268741130828857421875</LatitudeDegrees>
              <LongitudeDegrees>-4.07235293649137020111083984375</LongitudeDegrees>
            </Position>
            <AltitudeMeters>1547</AltitudeMeters>
            <DistanceMeters>NAN</DistanceMeters>
          </Trackpoint>
          <Trackpoint>
            <Time>2018-12-30T10:43:54.000Z</Time>
            <Position>
              <LatitudeDegrees>40.78146767802536487579345703125</LatitudeDegrees>
              <LongitudeDegrees>-4.07234505750238895416259765625</LongitudeDegrees>
            </Position>
            <AltitudeMeters>1547.199951171875</AltitudeMeters>
            <DistanceMeters>NAN</DistanceMeters>
          </Trackpoint>
          <Trackpoint>
            <Time>2018-12-30T10:43:55.000Z</Time>
            <Position>
              <LatitudeDegrees>40.78147170133888721466064453125</LatitudeDegrees>
              <LongitudeDegrees>-4.0723384357988834381103515625</LongitudeDegrees>
            </Position>
            <AltitudeMeters>1547.199951171875</AltitudeMeters>
            <DistanceMeters>NAN</DistanceMeters>
          </Trackpoint>
          <Trackpoint>
            <Time>2018-12-30T10:43:56.000Z</Time>
            <Position>
              <LatitudeDegrees>40.7814724557101726531982421875</LatitudeDegrees>
              <LongitudeDegrees>-4.0723364241421222686767578125</LongitudeDegrees>
            </Position>
            <AltitudeMeters>1547.199951171875</AltitudeMeters>
            <DistanceMeters>NAN</DistanceMeters>
          </Trackpoint>
          <Trackpoint>
            <Time>2018-12-30T10:43:57.000Z</Time>
            <Position>
              <LatitudeDegrees>40.78147505410015583038330078125</LatitudeDegrees>
              <LongitudeDegrees>-4.07233483158051967620849609375</LongitudeDegrees>
            </Position>
            <AltitudeMeters>1547.4000244140625</AltitudeMeters>
            <DistanceMeters>NAN</DistanceMeters>
          </Trackpoint>
          <Trackpoint>
            <Time>2018-12-30T10:43:58.000Z</Time>
            <Position>
              <LatitudeDegrees>40.78147723339498043060302734375</LatitudeDegrees>
              <LongitudeDegrees>-4.072325527667999267578125</LongitudeDegrees>
            </Position>
            <AltitudeMeters>1547.5999755859375</AltitudeMeters>
            <DistanceMeters>NAN</DistanceMeters>
          </Trackpoint>
          <Trackpoint>
            <Time>2018-12-30T10:43:59.000Z</Time>
            <Position>
              <LatitudeDegrees>40.78148192726075649261474609375</LatitudeDegrees>
              <LongitudeDegrees>-4.0723176486790180206298828125</LongitudeDegrees>
            </Position>
            <AltitudeMeters>1547.5999755859375</AltitudeMeters>
            <DistanceMeters>NAN</DistanceMeters>
          </Trackpoint>
          <Trackpoint>
            <Time>2018-12-30T10:44:00.000Z</Time>
            <Position>
              <LatitudeDegrees>40.781487710773944854736328125</LatitudeDegrees>
              <LongitudeDegrees>-4.07231488265097141265869140625</LongitudeDegrees>
            </Position>
            <AltitudeMeters>1547.800048828125</AltitudeMeters>
            <DistanceMeters>NAN</DistanceMeters>
          </Trackpoint>
          <Trackpoint>
            <Time>2018-12-30T10:44:01.000Z</Time>
            <Position>
              <LatitudeDegrees>40.78149684704840183258056640625</LatitudeDegrees>
              <LongitudeDegrees>-4.07231337390840053558349609375</LongitudeDegrees>
            </Position>
            <AltitudeMeters>1547.800048828125</AltitudeMeters>
            <DistanceMeters>NAN</DistanceMeters>
          </Trackpoint>
          <Trackpoint>
            <Time>2018-12-30T10:44:02.000Z</Time>
            <Position>
              <LatitudeDegrees>40.78150439076125621795654296875</LatitudeDegrees>
              <LongitudeDegrees>-4.072302393615245819091796875</LongitudeDegrees>
            </Position>
            <AltitudeMeters>1547.800048828125</AltitudeMeters>
            <DistanceMeters>NAN</DistanceMeters>
          </Trackpoint>
          <Trackpoint>
            <Time>2018-12-30T10:44:03.000Z</Time>
            <Position>
              <LatitudeDegrees>40.7815100066363811492919921875</LatitudeDegrees>
              <LongitudeDegrees>-4.07229593954980373382568359375</LongitudeDegrees>
            </Position>
            <AltitudeMeters>1547.800048828125</AltitudeMeters>
            <DistanceMeters>NAN</DistanceMeters>
          </Trackpoint>
          <Trackpoint>
            <Time>2018-12-30T10:44:04.000Z</Time>
            <Position>
              <LatitudeDegrees>40.78151210211217403411865234375</LatitudeDegrees>
              <LongitudeDegrees>-4.0722898207604885101318359375</LongitudeDegrees>
            </Position>
            <AltitudeMeters>1547.800048828125</AltitudeMeters>
            <DistanceMeters>NAN</DistanceMeters>
          </Trackpoint>
          <Trackpoint>
            <Time>2018-12-30T10:44:05.000Z</Time>
            <Position>
              <LatitudeDegrees>40.78151746653020381927490234375</LatitudeDegrees>
              <LongitudeDegrees>-4.0722824446856975555419921875</LongitudeDegrees>
            </Position>
            <AltitudeMeters>1548</AltitudeMeters>
            <DistanceMeters>NAN</DistanceMeters>
          </Trackpoint>
          <Trackpoint>
            <Time>2018-12-30T10:44:06.000Z</Time>
            <Position>
              <LatitudeDegrees>40.78152484260499477386474609375</LatitudeDegrees>
              <LongitudeDegrees>-4.07227481715381145477294921875</LongitudeDegrees>
            </Position>
            <AltitudeMeters>1548.199951171875</AltitudeMeters>
            <DistanceMeters>NAN</DistanceMeters>
          </Trackpoint>
          <Trackpoint>
            <Time>2018-12-30T10:44:07.000Z</Time>
            <Position>
              <LatitudeDegrees>40.78153288923203945159912109375</LatitudeDegrees>
              <LongitudeDegrees>-4.07227230258285999298095703125</LongitudeDegrees>
            </Position>
            <AltitudeMeters>1548.4000244140625</AltitudeMeters>
            <DistanceMeters>NAN</DistanceMeters>
          </Trackpoint>
          <Trackpoint>
            <Time>2018-12-30T10:44:08.000Z</Time>
            <Position>
              <LatitudeDegrees>40.7815425284206867218017578125</LatitudeDegrees>
              <LongitudeDegrees>-4.07227079384028911590576171875</LongitudeDegrees>
            </Position>
            <AltitudeMeters>1548.5999755859375</AltitudeMeters>
            <DistanceMeters>NAN</DistanceMeters>
          </Trackpoint>
          <Trackpoint>
            <Time>2018-12-30T10:44:09.000Z</Time>
            <Position>
              <LatitudeDegrees>40.7815505750477313995361328125</LatitudeDegrees>
              <LongitudeDegrees>-4.07226677052676677703857421875</LongitudeDegrees>
            </Position>
            <AltitudeMeters>1548.5999755859375</AltitudeMeters>
            <DistanceMeters>NAN</DistanceMeters>
          </Trackpoint>
          <Trackpoint>
            <Time>2018-12-30T10:44:10.000Z</Time>
            <Position>
              <LatitudeDegrees>40.7815569452941417694091796875</LatitudeDegrees>
              <LongitudeDegrees>-4.072256125509738922119140625</LongitudeDegrees>
            </Position>
            <AltitudeMeters>1548.800048828125</AltitudeMeters>
            <DistanceMeters>NAN</DistanceMeters>
          </Trackpoint>
          <Trackpoint>
            <Time>2018-12-30T10:44:11.000Z</Time>
            <Position>
              <LatitudeDegrees>40.78156356699764728546142578125</LatitudeDegrees>
              <LongitudeDegrees>-4.07224246300756931304931640625</LongitudeDegrees>
            </Position>
            <AltitudeMeters>1548.800048828125</AltitudeMeters>
            <DistanceMeters>NAN</DistanceMeters>
          </Trackpoint>
          <Trackpoint>
            <Time>2018-12-30T10:44:12.000Z</Time>
            <Position>
              <LatitudeDegrees>40.78157027252018451690673828125</LatitudeDegrees>
              <LongitudeDegrees>-4.0722314827144145965576171875</LongitudeDegrees>
            </Position>
            <AltitudeMeters>1549</AltitudeMeters>
            <DistanceMeters>NAN</DistanceMeters>
          </Trackpoint>
          <Trackpoint>
            <Time>2018-12-30T10:44:13.000Z</Time>
            <Position>
              <LatitudeDegrees>40.7815747149288654327392578125</LatitudeDegrees>
              <LongitudeDegrees>-4.07221128232777118682861328125</LongitudeDegrees>
            </Position>
            <AltitudeMeters>1549.199951171875</AltitudeMeters>
            <DistanceMeters>NAN</DistanceMeters>
          </Trackpoint>
          <Trackpoint>
            <Time>2018-12-30T10:44:14.000Z</Time>
            <Position>
              <LatitudeDegrees>40.78157831914722919464111328125</LatitudeDegrees>
              <LongitudeDegrees>-4.0722003020346164703369140625</LongitudeDegrees>
            </Position>
            <AltitudeMeters>1549.199951171875</AltitudeMeters>
            <DistanceMeters>NAN</DistanceMeters>
          </Trackpoint>
          <Trackpoint>
            <Time>2018-12-30T10:44:15.000Z</Time>
            <Position>
              <LatitudeDegrees>40.78158460557460784912109375</LatitudeDegrees>
              <LongitudeDegrees>-4.072196781635284423828125</LongitudeDegrees>
            </Position>
            <AltitudeMeters>1549.4000244140625</AltitudeMeters>
            <DistanceMeters>NAN</DistanceMeters>
          </Trackpoint>
          <Trackpoint>
            <Time>2018-12-30T10:44:16.000Z</Time>
            <Position>
              <LatitudeDegrees>40.7815914787352085113525390625</LatitudeDegrees>
              <LongitudeDegrees>-4.07219409942626953125</LongitudeDegrees>
            </Position>
            <AltitudeMeters>1549.5999755859375</AltitudeMeters>
            <DistanceMeters>NAN</DistanceMeters>
          </Trackpoint>
          <Trackpoint>
            <Time>2018-12-30T10:44:17.000Z</Time>
            <Position>
              <LatitudeDegrees>40.7816040515899658203125</LatitudeDegrees>
              <LongitudeDegrees>-4.07219753600656986236572265625</LongitudeDegrees>
            </Position>
            <AltitudeMeters>1549.800048828125</AltitudeMeters>
            <DistanceMeters>NAN</DistanceMeters>
          </Trackpoint>
          <Trackpoint>
            <Time>2018-12-30T10:44:18.000Z</Time>
            <Position>
              <LatitudeDegrees>40.7816161215305328369140625</LatitudeDegrees>
              <LongitudeDegrees>-4.072200469672679901123046875</LongitudeDegrees>
            </Position>
            <AltitudeMeters>1550</AltitudeMeters>
            <DistanceMeters>NAN</DistanceMeters>
          </Trackpoint>
          <Trackpoint>
            <Time>2018-12-30T10:44:19.000Z</Time>
            <Position>
              <LatitudeDegrees>40.78162240795791149139404296875</LatitudeDegrees>
              <LongitudeDegrees>-4.07219468615949153900146484375</LongitudeDegrees>
            </Position>
            <AltitudeMeters>1550.199951171875</AltitudeMeters>
            <DistanceMeters>NAN</DistanceMeters>
          </Trackpoint>
          <Trackpoint>
            <Time>2018-12-30T10:44:20.000Z</Time>
            <Position>
              <LatitudeDegrees>40.7816320471465587615966796875</LatitudeDegrees>
              <LongitudeDegrees>-4.072191752493381500244140625</LongitudeDegrees>
            </Position>
            <AltitudeMeters>1550.4000244140625</AltitudeMeters>
            <DistanceMeters>NAN</DistanceMeters>
          </Trackpoint>
          <Trackpoint>
            <Time>2018-12-30T10:44:21.000Z</Time>
            <Position>
              <LatitudeDegrees>40.7816437818109989166259765625</LatitudeDegrees>
              <LongitudeDegrees>-4.0721815265715122222900390625</LongitudeDegrees>
            </Position>
            <AltitudeMeters>1550.5999755859375</AltitudeMeters>
            <DistanceMeters>NAN</DistanceMeters>
          </Trackpoint>
          <Trackpoint>
            <Time>2018-12-30T10:44:22.000Z</Time>
            <Position>
              <LatitudeDegrees>40.78165509738028049468994140625</LatitudeDegrees>
              <LongitudeDegrees>-4.0721775032579898834228515625</LongitudeDegrees>
            </Position>
            <AltitudeMeters>1550.800048828125</AltitudeMeters>
            <DistanceMeters>NAN</DistanceMeters>
          </Trackpoint>
          <Trackpoint>
            <Time>2018-12-30T10:44:23.000Z</Time>
            <Position>
              <LatitudeDegrees>40.78166683204472064971923828125</LatitudeDegrees>
              <LongitudeDegrees>-4.0721768327057361602783203125</LongitudeDegrees>
            </Position>
            <AltitudeMeters>1551</AltitudeMeters>
            <DistanceMeters>NAN</DistanceMeters>
          </Trackpoint>
          <Trackpoint>
            <Time>2018-12-30T10:44:24.000Z</Time>
            <Position>
              <LatitudeDegrees>40.78167303465306758880615234375</LatitudeDegrees>
              <LongitudeDegrees>-4.07217490486800670623779296875</LongitudeDegrees>
            </Position>
            <AltitudeMeters>1551</AltitudeMeters>
            <DistanceMeters>NAN</DistanceMeters>
          </Trackpoint>
          <Trackpoint>
            <Time>2018-12-30T10:44:25.000Z</Time>
            <Position>
              <LatitudeDegrees>40.7816786505281925201416015625</LatitudeDegrees>
              <LongitudeDegrees>-4.0721694566309452056884765625</LongitudeDegrees>
            </Position>
            <AltitudeMeters>1551.199951171875</AltitudeMeters>
            <DistanceMeters>NAN</DistanceMeters>
          </Trackpoint>
          <Trackpoint>
            <Time>2018-12-30T10:44:26.000Z</Time>
            <Position>
              <LatitudeDegrees>40.7816843502223491668701171875</LatitudeDegrees>
              <LongitudeDegrees>-4.07216367311775684356689453125</LongitudeDegrees>
            </Position>
            <AltitudeMeters>1551.199951171875</AltitudeMeters>
            <DistanceMeters>NAN</DistanceMeters>
          </Trackpoint>
          <Trackpoint>
            <Time>2018-12-30T10:44:27.000Z</Time>
            <Position>
              <LatitudeDegrees>40.781689547002315521240234375</LatitudeDegrees>
              <LongitudeDegrees>-4.0721610747277736663818359375</LongitudeDegrees>
            </Position>
            <AltitudeMeters>1551.199951171875</AltitudeMeters>
            <DistanceMeters>NAN</DistanceMeters>
          </Trackpoint>
          <Trackpoint>
            <Time>2018-12-30T10:44:28.000Z</Time>
            <Position>
              <LatitudeDegrees>40.781694911420345306396484375</LatitudeDegrees>
              <LongitudeDegrees>-4.072157554328441619873046875</LongitudeDegrees>
            </Position>
            <AltitudeMeters>1551</AltitudeMeters>
            <DistanceMeters>NAN</DistanceMeters>
          </Trackpoint>
          <Trackpoint>
            <Time>2018-12-30T10:44:29.000Z</Time>
            <Position>
              <LatitudeDegrees>40.78170086257159709930419921875</LatitudeDegrees>
              <LongitudeDegrees>-4.07215445302426815032958984375</LongitudeDegrees>
            </Position>
            <AltitudeMeters>1551</AltitudeMeters>
            <DistanceMeters>NAN</DistanceMeters>
          </Trackpoint>
          <Trackpoint>
            <Time>2018-12-30T10:44:30.000Z</Time>
            <Position>
              <LatitudeDegrees>40.78170371241867542266845703125</LatitudeDegrees>
              <LongitudeDegrees>-4.07215210609138011932373046875</LongitudeDegrees>
            </Position>
            <AltitudeMeters>1550.800048828125</AltitudeMeters>
            <DistanceMeters>NAN</DistanceMeters>
          </Trackpoint>
          <Trackpoint>
            <Time>2018-12-30T10:44:31.000Z</Time>
            <Position>
              <LatitudeDegrees>40.78170941211283206939697265625</LatitudeDegrees>
              <LongitudeDegrees>-4.072148166596889495849609375</LongitudeDegrees>
            </Position>
            <AltitudeMeters>1550.800048828125</AltitudeMeters>
            <DistanceMeters>NAN</DistanceMeters>
          </Trackpoint>
          <Trackpoint>
            <Time>2018-12-30T10:44:32.000Z</Time>
            <Position>
              <LatitudeDegrees>40.78171469271183013916015625</LatitudeDegrees>
              <LongitudeDegrees>-4.07214489765465259552001953125</LongitudeDegrees>
            </Position>
            <AltitudeMeters>1550.800048828125</AltitudeMeters>
            <DistanceMeters>NAN</DistanceMeters>
          </Trackpoint>
          <Trackpoint>
            <Time>2018-12-30T10:44:33.000Z</Time>
            <Position>
              <LatitudeDegrees>40.781721062958240509033203125</LatitudeDegrees>
              <LongitudeDegrees>-4.0721404552459716796875</LongitudeDegrees>
            </Position>
            <AltitudeMeters>1550.800048828125</AltitudeMeters>
            <DistanceMeters>NAN</DistanceMeters>
          </Trackpoint>
          <Trackpoint>
            <Time>2018-12-30T10:44:34.000Z</Time>
            <Position>
              <LatitudeDegrees>40.7817282713949680328369140625</LatitudeDegrees>
              <LongitudeDegrees>-4.07213307917118072509765625</LongitudeDegrees>
            </Position>
            <AltitudeMeters>1550.800048828125</AltitudeMeters>
            <DistanceMeters>NAN</DistanceMeters>
          </Trackpoint>
          <Trackpoint>
            <Time>2018-12-30T10:44:35.000Z</Time>
            <Position>
              <LatitudeDegrees>40.7817316241562366485595703125</LatitudeDegrees>
              <LongitudeDegrees>-4.07211740501224994659423828125</LongitudeDegrees>
            </Position>
            <AltitudeMeters>1550.800048828125</AltitudeMeters>
            <DistanceMeters>NAN</DistanceMeters>
          </Trackpoint>
          <Trackpoint>
            <Time>2018-12-30T10:44:36.000Z</Time>
            <Position>
              <LatitudeDegrees>40.78173740766942501068115234375</LatitudeDegrees>
              <LongitudeDegrees>-4.07210969366133213043212890625</LongitudeDegrees>
            </Position>
            <AltitudeMeters>1551</AltitudeMeters>
            <DistanceMeters>NAN</DistanceMeters>
          </Trackpoint>
          <Trackpoint>
            <Time>2018-12-30T10:44:37.000Z</Time>
            <Position>
              <LatitudeDegrees>40.78174159862101078033447265625</LatitudeDegrees>
              <LongitudeDegrees>-4.0721037425100803375244140625</LongitudeDegrees>
            </Position>
            <AltitudeMeters>1551.199951171875</AltitudeMeters>
            <DistanceMeters>NAN</DistanceMeters>
          </Trackpoint>
          <Trackpoint>
            <Time>2018-12-30T10:44:38.000Z</Time>
            <Position>
              <LatitudeDegrees>40.78174562193453311920166015625</LatitudeDegrees>
              <LongitudeDegrees>-4.0721015632152557373046875</LongitudeDegrees>
            </Position>
            <AltitudeMeters>1551.4000244140625</AltitudeMeters>
            <DistanceMeters>NAN</DistanceMeters>
          </Trackpoint>
          <Trackpoint>
            <Time>2018-12-30T10:44:39.000Z</Time>
            <Position>
              <LatitudeDegrees>40.78175433911383152008056640625</LatitudeDegrees>
              <LongitudeDegrees>-4.07209712080657482147216796875</LongitudeDegrees>
            </Position>
            <AltitudeMeters>1551.4000244140625</AltitudeMeters>
            <DistanceMeters>NAN</DistanceMeters>
          </Trackpoint>
          <Trackpoint>
            <Time>2018-12-30T10:44:40.000Z</Time>
            <Position>
              <LatitudeDegrees>40.78176154755055904388427734375</LatitudeDegrees>
              <LongitudeDegrees>-4.072093181312084197998046875</LongitudeDegrees>
            </Position>
            <AltitudeMeters>1551.5999755859375</AltitudeMeters>
            <DistanceMeters>NAN</DistanceMeters>
          </Trackpoint>
          <Trackpoint>
            <Time>2018-12-30T10:44:41.000Z</Time>
            <Position>
              <LatitudeDegrees>40.78176590614020824432373046875</LatitudeDegrees>
              <LongitudeDegrees>-4.0720916725695133209228515625</LongitudeDegrees>
            </Position>
            <AltitudeMeters>1551.5999755859375</AltitudeMeters>
            <DistanceMeters>NAN</DistanceMeters>
          </Trackpoint>
          <Trackpoint>
            <Time>2018-12-30T10:44:42.000Z</Time>
            <Position>
              <LatitudeDegrees>40.78176791779696941375732421875</LatitudeDegrees>
              <LongitudeDegrees>-4.072084128856658935546875</LongitudeDegrees>
            </Position>
            <AltitudeMeters>1551.800048828125</AltitudeMeters>
            <DistanceMeters>NAN</DistanceMeters>
          </Trackpoint>
          <Trackpoint>
            <Time>2018-12-30T10:44:43.000Z</Time>
            <Position>
              <LatitudeDegrees>40.78177294693887233734130859375</LatitudeDegrees>
              <LongitudeDegrees>-4.07207717187702655792236328125</LongitudeDegrees>
            </Position>
            <AltitudeMeters>1551.800048828125</AltitudeMeters>
            <DistanceMeters>NAN</DistanceMeters>
          </Trackpoint>
          <Trackpoint>
            <Time>2018-12-30T10:44:44.000Z</Time>
            <Position>
              <LatitudeDegrees>40.7817802391946315765380859375</LatitudeDegrees>
              <LongitudeDegrees>-4.07207298092544078826904296875</LongitudeDegrees>
            </Position>
            <AltitudeMeters>1551.800048828125</AltitudeMeters>
            <DistanceMeters>NAN</DistanceMeters>
          </Trackpoint>
          <Trackpoint>
            <Time>2018-12-30T10:44:45.000Z</Time>
            <Position>
              <LatitudeDegrees>40.78178954310715198516845703125</LatitudeDegrees>
              <LongitudeDegrees>-4.0720666944980621337890625</LongitudeDegrees>
            </Position>
            <AltitudeMeters>1552.199951171875</AltitudeMeters>
            <DistanceMeters>NAN</DistanceMeters>
          </Trackpoint>
          <Trackpoint>
            <Time>2018-12-30T10:44:46.000Z</Time>
            <Position>
              <LatitudeDegrees>40.7817990146577358245849609375</LatitudeDegrees>
              <LongitudeDegrees>-4.0720598213374614715576171875</LongitudeDegrees>
            </Position>
            <AltitudeMeters>1552.4000244140625</AltitudeMeters>
            <DistanceMeters>NAN</DistanceMeters>
          </Trackpoint>
          <Trackpoint>
            <Time>2018-12-30T10:44:47.000Z</Time>
            <Position>
              <LatitudeDegrees>40.7818077318370342254638671875</LatitudeDegrees>
              <LongitudeDegrees>-4.0720559656620025634765625</LongitudeDegrees>
            </Position>
            <AltitudeMeters>1552.5999755859375</AltitudeMeters>
            <DistanceMeters>NAN</DistanceMeters>
          </Trackpoint>
          <Trackpoint>
            <Time>2018-12-30T10:44:48.000Z</Time>
            <Position>
              <LatitudeDegrees>40.78181552700698375701904296875</LatitudeDegrees>
              <LongitudeDegrees>-4.07205437310039997100830078125</LongitudeDegrees>
            </Position>
            <AltitudeMeters>1552.5999755859375</AltitudeMeters>
            <DistanceMeters>NAN</DistanceMeters>
          </Trackpoint>
          <Trackpoint>
            <Time>2018-12-30T10:44:49.000Z</Time>
            <Position>
              <LatitudeDegrees>40.78181929886341094970703125</LatitudeDegrees>
              <LongitudeDegrees>-4.0720490925014019012451171875</LongitudeDegrees>
            </Position>
            <AltitudeMeters>1553</AltitudeMeters>
            <DistanceMeters>NAN</DistanceMeters>
          </Trackpoint>
          <Trackpoint>
            <Time>2018-12-30T10:44:50.000Z</Time>
            <Position>
              <LatitudeDegrees>40.78182860277593135833740234375</LatitudeDegrees>
              <LongitudeDegrees>-4.07205034978687763214111328125</LongitudeDegrees>
            </Position>
            <AltitudeMeters>1553.5999755859375</AltitudeMeters>
            <DistanceMeters>NAN</DistanceMeters>
          </Trackpoint>
          <Trackpoint>
            <Time>2018-12-30T10:44:51.000Z</Time>
            <Position>
              <LatitudeDegrees>40.781838409602642059326171875</LatitudeDegrees>
              <LongitudeDegrees>-4.0720490925014019012451171875</LongitudeDegrees>
            </Position>
            <AltitudeMeters>1554</AltitudeMeters>
            <DistanceMeters>NAN</DistanceMeters>
          </Trackpoint>
          <Trackpoint>
            <Time>2018-12-30T10:44:52.000Z</Time>
            <Position>
              <LatitudeDegrees>40.781844444572925567626953125</LatitudeDegrees>
              <LongitudeDegrees>-4.07204733230173587799072265625</LongitudeDegrees>
            </Position>
            <AltitudeMeters>1554.4000244140625</AltitudeMeters>
            <DistanceMeters>NAN</DistanceMeters>
          </Trackpoint>
          <Trackpoint>
            <Time>2018-12-30T10:44:53.000Z</Time>
            <Position>
              <LatitudeDegrees>40.7818543352186679840087890625</LatitudeDegrees>
              <LongitudeDegrees>-4.0720425546169281005859375</LongitudeDegrees>
            </Position>
            <AltitudeMeters>1554.5999755859375</AltitudeMeters>
            <DistanceMeters>NAN</DistanceMeters>
          </Trackpoint>
          <Trackpoint>
            <Time>2018-12-30T10:44:54.000Z</Time>
            <Position>
              <LatitudeDegrees>40.78186196275055408477783203125</LatitudeDegrees>
              <LongitudeDegrees>-4.07204314135015010833740234375</LongitudeDegrees>
            </Position>
            <AltitudeMeters>1554.5999755859375</AltitudeMeters>
            <DistanceMeters>NAN</DistanceMeters>
          </Trackpoint>
          <Trackpoint>
            <Time>2018-12-30T10:44:55.000Z</Time>
            <Position>
              <LatitudeDegrees>40.78186799772083759307861328125</LatitudeDegrees>
              <LongitudeDegrees>-4.07204448245465755462646484375</LongitudeDegrees>
            </Position>
            <AltitudeMeters>1554.4000244140625</AltitudeMeters>
            <DistanceMeters>NAN</DistanceMeters>
          </Trackpoint>
          <Trackpoint>
            <Time>2018-12-30T10:44:56.000Z</Time>
            <Position>
              <LatitudeDegrees>40.7818771339952945709228515625</LatitudeDegrees>
              <LongitudeDegrees>-4.07203827984631061553955078125</LongitudeDegrees>
            </Position>
            <AltitudeMeters>1554.199951171875</AltitudeMeters>
            <DistanceMeters>NAN</DistanceMeters>
          </Trackpoint>
          <Trackpoint>
            <Time>2018-12-30T10:44:57.000Z</Time>
            <Position>
              <LatitudeDegrees>40.7818771339952945709228515625</LatitudeDegrees>
              <LongitudeDegrees>-4.07203827984631061553955078125</LongitudeDegrees>
            </Position>
            <AltitudeMeters>1554</AltitudeMeters>
            <DistanceMeters>NAN</DistanceMeters>
          </Trackpoint>
          <Trackpoint>
            <Time>2018-12-30T10:44:58.000Z</Time>
            <Position>
              <LatitudeDegrees>40.78188233077526092529296875</LatitudeDegrees>
              <LongitudeDegrees>-4.07203576527535915374755859375</LongitudeDegrees>
            </Position>
            <AltitudeMeters>1553.800048828125</AltitudeMeters>
            <DistanceMeters>NAN</DistanceMeters>
          </Trackpoint>
          <Trackpoint>
            <Time>2018-12-30T10:44:59.000Z</Time>
            <Position>
              <LatitudeDegrees>40.7818868570029735565185546875</LatitudeDegrees>
              <LongitudeDegrees>-4.0720350109040737152099609375</LongitudeDegrees>
            </Position>
            <AltitudeMeters>1553.800048828125</AltitudeMeters>
            <DistanceMeters>NAN</DistanceMeters>
          </Trackpoint>
          <Trackpoint>
            <Time>2018-12-30T10:45:00.000Z</Time>
            <Position>
              <LatitudeDegrees>40.7818949036300182342529296875</LatitudeDegrees>
              <LongitudeDegrees>-4.07203651964664459228515625</LongitudeDegrees>
            </Position>
            <AltitudeMeters>1553.5999755859375</AltitudeMeters>
            <DistanceMeters>NAN</DistanceMeters>
          </Trackpoint>
          <Trackpoint>
            <Time>2018-12-30T10:45:01.000Z</Time>
            <Position>
              <LatitudeDegrees>40.78190068714320659637451171875</LatitudeDegrees>
              <LongitudeDegrees>-4.07203006558120250701904296875</LongitudeDegrees>
            </Position>
            <AltitudeMeters>1553.800048828125</AltitudeMeters>
            <DistanceMeters>NAN</DistanceMeters>
          </Trackpoint>
          <Trackpoint>
            <Time>2018-12-30T10:45:02.000Z</Time>
            <Position>
              <LatitudeDegrees>40.78190688975155353546142578125</LatitudeDegrees>
              <LongitudeDegrees>-4.07202403061091899871826171875</LongitudeDegrees>
            </Position>
            <AltitudeMeters>1554</AltitudeMeters>
            <DistanceMeters>NAN</DistanceMeters>
          </Trackpoint>
          <Trackpoint>
            <Time>2018-12-30T10:45:03.000Z</Time>
            <Position>
              <LatitudeDegrees>40.7819143496453762054443359375</LatitudeDegrees>
              <LongitudeDegrees>-4.072019755840301513671875</LongitudeDegrees>
            </Position>
            <AltitudeMeters>1554.199951171875</AltitudeMeters>
            <DistanceMeters>NAN</DistanceMeters>
          </Trackpoint>
          <Trackpoint>
            <Time>2018-12-30T10:45:04.000Z</Time>
            <Position>
              <LatitudeDegrees>40.78191895969212055206298828125</LatitudeDegrees>
              <LongitudeDegrees>-4.072012044489383697509765625</LongitudeDegrees>
            </Position>
            <AltitudeMeters>1554.4000244140625</AltitudeMeters>
            <DistanceMeters>NAN</DistanceMeters>
          </Trackpoint>
          <Trackpoint>
            <Time>2018-12-30T10:45:05.000Z</Time>
            <Position>
              <LatitudeDegrees>40.78192264772951602935791015625</LatitudeDegrees>
              <LongitudeDegrees>-4.071999303996562957763671875</LongitudeDegrees>
            </Position>
            <AltitudeMeters>1554.4000244140625</AltitudeMeters>
            <DistanceMeters>NAN</DistanceMeters>
          </Trackpoint>
          <Trackpoint>
            <Time>2018-12-30T10:45:06.000Z</Time>
            <Position>
              <LatitudeDegrees>40.7819254137575626373291015625</LatitudeDegrees>
              <LongitudeDegrees>-4.07199360430240631103515625</LongitudeDegrees>
            </Position>
            <AltitudeMeters>1554.5999755859375</AltitudeMeters>
            <DistanceMeters>NAN</DistanceMeters>
          </Trackpoint>
          <Trackpoint>
            <Time>2018-12-30T10:45:07.000Z</Time>
            <Position>
              <LatitudeDegrees>40.78193153254687786102294921875</LatitudeDegrees>
              <LongitudeDegrees>-4.071992598474025726318359375</LongitudeDegrees>
            </Position>
            <AltitudeMeters>1554.800048828125</AltitudeMeters>
            <DistanceMeters>NAN</DistanceMeters>
          </Trackpoint>
          <Trackpoint>
            <Time>2018-12-30T10:45:08.000Z</Time>
            <Position>
              <LatitudeDegrees>40.78193756751716136932373046875</LatitudeDegrees>
              <LongitudeDegrees>-4.07199972309172153472900390625</LongitudeDegrees>
            </Position>
            <AltitudeMeters>1554.800048828125</AltitudeMeters>
            <DistanceMeters>NAN</DistanceMeters>
          </Trackpoint>
          <Trackpoint>
            <Time>2018-12-30T10:45:09.000Z</Time>
            <Position>
              <LatitudeDegrees>40.78193689696490764617919921875</LatitudeDegrees>
              <LongitudeDegrees>-4.0719934366643428802490234375</LongitudeDegrees>
            </Position>
            <AltitudeMeters>1554.800048828125</AltitudeMeters>
            <DistanceMeters>NAN</DistanceMeters>
          </Trackpoint>
          <Trackpoint>
            <Time>2018-12-30T10:45:10.000Z</Time>
            <Position>
              <LatitudeDegrees>40.7819326221942901611328125</LatitudeDegrees>
              <LongitudeDegrees>-4.0719863958656787872314453125</LongitudeDegrees>
            </Position>
            <AltitudeMeters>1554.800048828125</AltitudeMeters>
            <DistanceMeters>NAN</DistanceMeters>
          </Trackpoint>
          <Trackpoint>
            <Time>2018-12-30T10:45:11.000Z</Time>
            <Position>
              <LatitudeDegrees>40.7819327898323535919189453125</LatitudeDegrees>
              <LongitudeDegrees>-4.07198715023696422576904296875</LongitudeDegrees>
            </Position>
            <AltitudeMeters>1554.800048828125</AltitudeMeters>
            <DistanceMeters>NAN</DistanceMeters>
          </Trackpoint>
          <Trackpoint>
            <Time>2018-12-30T10:45:12.000Z</Time>
            <Position>
              <LatitudeDegrees>40.78193270601332187652587890625</LatitudeDegrees>
              <LongitudeDegrees>-4.07197885215282440185546875</LongitudeDegrees>
            </Position>
            <AltitudeMeters>1554.800048828125</AltitudeMeters>
            <DistanceMeters>NAN</DistanceMeters>
          </Trackpoint>
          <Trackpoint>
            <Time>2018-12-30T10:45:13.000Z</Time>
            <Position>
              <LatitudeDegrees>40.78193639405071735382080078125</LatitudeDegrees>
              <LongitudeDegrees>-4.07196921296417713165283203125</LongitudeDegrees>
            </Position>
            <AltitudeMeters>1554.800048828125</AltitudeMeters>
            <DistanceMeters>NAN</DistanceMeters>
          </Trackpoint>
          <Trackpoint>
            <Time>2018-12-30T10:45:14.000Z</Time>
            <Position>
              <LatitudeDegrees>40.7819401659071445465087890625</LatitudeDegrees>
              <LongitudeDegrees>-4.07196586020290851593017578125</LongitudeDegrees>
            </Position>
            <AltitudeMeters>1554.800048828125</AltitudeMeters>
            <DistanceMeters>NAN</DistanceMeters>
          </Trackpoint>
          <Trackpoint>
            <Time>2018-12-30T10:45:15.000Z</Time>
            <Position>
              <LatitudeDegrees>40.78194611705839633941650390625</LatitudeDegrees>
              <LongitudeDegrees>-4.0719565562903881072998046875</LongitudeDegrees>
            </Position>
            <AltitudeMeters>1555</AltitudeMeters>
            <DistanceMeters>NAN</DistanceMeters>
          </Trackpoint>
          <Trackpoint>
            <Time>2018-12-30T10:45:16.000Z</Time>
            <Position>
              <LatitudeDegrees>40.78195282258093357086181640625</LatitudeDegrees>
              <LongitudeDegrees>-4.07195563428103923797607421875</LongitudeDegrees>
            </Position>
            <AltitudeMeters>1555</AltitudeMeters>
            <DistanceMeters>NAN</DistanceMeters>
          </Trackpoint>
          <Trackpoint>
            <Time>2018-12-30T10:45:17.000Z</Time>
            <Position>
              <LatitudeDegrees>40.7819599471986293792724609375</LatitudeDegrees>
              <LongitudeDegrees>-4.07195144332945346832275390625</LongitudeDegrees>
            </Position>
            <AltitudeMeters>1555.199951171875</AltitudeMeters>
            <DistanceMeters>NAN</DistanceMeters>
          </Trackpoint>
          <Trackpoint>
            <Time>2018-12-30T10:45:18.000Z</Time>
            <Position>
              <LatitudeDegrees>40.78196707181632518768310546875</LatitudeDegrees>
              <LongitudeDegrees>-4.071955047547817230224609375</LongitudeDegrees>
            </Position>
            <AltitudeMeters>1555.199951171875</AltitudeMeters>
            <DistanceMeters>NAN</DistanceMeters>
          </Trackpoint>
          <Trackpoint>
            <Time>2018-12-30T10:45:19.000Z</Time>
            <Position>
              <LatitudeDegrees>40.781974531710147857666015625</LatitudeDegrees>
              <LongitudeDegrees>-4.0719578973948955535888671875</LongitudeDegrees>
            </Position>
            <AltitudeMeters>1555.4000244140625</AltitudeMeters>
            <DistanceMeters>NAN</DistanceMeters>
          </Trackpoint>
          <Trackpoint>
            <Time>2018-12-30T10:45:20.000Z</Time>
            <Position>
              <LatitudeDegrees>40.78198266215622425079345703125</LatitudeDegrees>
              <LongitudeDegrees>-4.07195362262427806854248046875</LongitudeDegrees>
            </Position>
            <AltitudeMeters>1555.4000244140625</AltitudeMeters>
            <DistanceMeters>NAN</DistanceMeters>
          </Trackpoint>
          <Trackpoint>
            <Time>2018-12-30T10:45:21.000Z</Time>
            <Position>
              <LatitudeDegrees>40.78199054114520549774169921875</LatitudeDegrees>
              <LongitudeDegrees>-4.07194172032177448272705078125</LongitudeDegrees>
            </Position>
            <AltitudeMeters>1555.4000244140625</AltitudeMeters>
            <DistanceMeters>NAN</DistanceMeters>
          </Trackpoint>
          <Trackpoint>
            <Time>2018-12-30T10:45:22.000Z</Time>
            <Position>
              <LatitudeDegrees>40.78199523501098155975341796875</LatitudeDegrees>
              <LongitudeDegrees>-4.0719334222376346588134765625</LongitudeDegrees>
            </Position>
            <AltitudeMeters>1555.4000244140625</AltitudeMeters>
            <DistanceMeters>NAN</DistanceMeters>
          </Trackpoint>
          <Trackpoint>
            <Time>2018-12-30T10:45:23.000Z</Time>
            <Position>
              <LatitudeDegrees>40.78200395219027996063232421875</LatitudeDegrees>
              <LongitudeDegrees>-4.07192126847803592681884765625</LongitudeDegrees>
            </Position>
            <AltitudeMeters>1555.4000244140625</AltitudeMeters>
            <DistanceMeters>NAN</DistanceMeters>
          </Trackpoint>
          <Trackpoint>
            <Time>2018-12-30T10:45:24.000Z</Time>
            <Position>
              <LatitudeDegrees>40.78200864605605602264404296875</LatitudeDegrees>
              <LongitudeDegrees>-4.07191582024097442626953125</LongitudeDegrees>
            </Position>
            <AltitudeMeters>1555.5999755859375</AltitudeMeters>
            <DistanceMeters>NAN</DistanceMeters>
          </Trackpoint>
          <Trackpoint>
            <Time>2018-12-30T10:45:25.000Z</Time>
            <Position>
              <LatitudeDegrees>40.78201702795922756195068359375</LatitudeDegrees>
              <LongitudeDegrees>-4.0719052590429782867431640625</LongitudeDegrees>
            </Position>
            <AltitudeMeters>1555.800048828125</AltitudeMeters>
            <DistanceMeters>NAN</DistanceMeters>
          </Trackpoint>
          <Trackpoint>
            <Time>2018-12-30T10:45:26.000Z</Time>
            <Position>
              <LatitudeDegrees>40.78202406875789165496826171875</LatitudeDegrees>
              <LongitudeDegrees>-4.071891345083713531494140625</LongitudeDegrees>
            </Position>
            <AltitudeMeters>1556</AltitudeMeters>
            <DistanceMeters>NAN</DistanceMeters>
          </Trackpoint>
          <Trackpoint>
            <Time>2018-12-30T10:45:27.000Z</Time>
            <Position>
              <LatitudeDegrees>40.78203312121331691741943359375</LatitudeDegrees>
              <LongitudeDegrees>-4.07188237644731998443603515625</LongitudeDegrees>
            </Position>
            <AltitudeMeters>1556.199951171875</AltitudeMeters>
            <DistanceMeters>NAN</DistanceMeters>
          </Trackpoint>
          <Trackpoint>
            <Time>2018-12-30T10:45:28.000Z</Time>
            <Position>
              <LatitudeDegrees>40.7820399105548858642578125</LatitudeDegrees>
              <LongitudeDegrees>-4.07187030650675296783447265625</LongitudeDegrees>
            </Position>
            <AltitudeMeters>1556.4000244140625</AltitudeMeters>
            <DistanceMeters>NAN</DistanceMeters>
          </Trackpoint>
          <Trackpoint>
            <Time>2018-12-30T10:45:29.000Z</Time>
            <Position>
              <LatitudeDegrees>40.7820444367825984954833984375</LatitudeDegrees>
              <LongitudeDegrees>-4.0718574821949005126953125</LongitudeDegrees>
            </Position>
            <AltitudeMeters>1556.800048828125</AltitudeMeters>
            <DistanceMeters>NAN</DistanceMeters>
          </Trackpoint>
          <Trackpoint>
            <Time>2018-12-30T10:45:30.000Z</Time>
            <Position>
              <LatitudeDegrees>40.78205206431448459625244140625</LatitudeDegrees>
              <LongitudeDegrees>-4.0718482621014118194580078125</LongitudeDegrees>
            </Position>
            <AltitudeMeters>1557.199951171875</AltitudeMeters>
            <DistanceMeters>NAN</DistanceMeters>
          </Trackpoint>
          <Trackpoint>
            <Time>2018-12-30T10:45:31.000Z</Time>
            <Position>
              <LatitudeDegrees>40.782057344913482666015625</LatitudeDegrees>
              <LongitudeDegrees>-4.07183744944632053375244140625</LongitudeDegrees>
            </Position>
            <AltitudeMeters>1557.4000244140625</AltitudeMeters>
            <DistanceMeters>NAN</DistanceMeters>
          </Trackpoint>
          <Trackpoint>
            <Time>2018-12-30T10:45:32.000Z</Time>
            <Position>
              <LatitudeDegrees>40.7820613682270050048828125</LatitudeDegrees>
              <LongitudeDegrees>-4.07182889990508556365966796875</LongitudeDegrees>
            </Position>
            <AltitudeMeters>1557.5999755859375</AltitudeMeters>
            <DistanceMeters>NAN</DistanceMeters>
          </Trackpoint>
          <Trackpoint>
            <Time>2018-12-30T10:45:33.000Z</Time>
            <Position>
              <LatitudeDegrees>40.78206715174019336700439453125</LatitudeDegrees>
              <LongitudeDegrees>-4.07181330956518650054931640625</LongitudeDegrees>
            </Position>
            <AltitudeMeters>1557.800048828125</AltitudeMeters>
            <DistanceMeters>NAN</DistanceMeters>
          </Trackpoint>
          <Trackpoint>
            <Time>2018-12-30T10:45:34.000Z</Time>
            <Position>
              <LatitudeDegrees>40.78207117505371570587158203125</LatitudeDegrees>
              <LongitudeDegrees>-4.07180677168071269989013671875</LongitudeDegrees>
            </Position>
            <AltitudeMeters>1558</AltitudeMeters>
            <DistanceMeters>NAN</DistanceMeters>
          </Trackpoint>
          <Trackpoint>
            <Time>2018-12-30T10:45:35.000Z</Time>
            <Position>
              <LatitudeDegrees>40.78207855112850666046142578125</LatitudeDegrees>
              <LongitudeDegrees>-4.0718016587197780609130859375</LongitudeDegrees>
            </Position>
            <AltitudeMeters>1558.199951171875</AltitudeMeters>
            <DistanceMeters>NAN</DistanceMeters>
          </Trackpoint>
          <Trackpoint>
            <Time>2018-12-30T10:45:36.000Z</Time>
            <Position>
              <LatitudeDegrees>40.782085843384265899658203125</LatitudeDegrees>
              <LongitudeDegrees>-4.071789085865020751953125</LongitudeDegrees>
            </Position>
            <AltitudeMeters>1558.199951171875</AltitudeMeters>
            <DistanceMeters>NAN</DistanceMeters>
          </Trackpoint>
          <Trackpoint>
            <Time>2018-12-30T10:45:37.000Z</Time>
            <Position>
              <LatitudeDegrees>40.78209447674453258514404296875</LatitudeDegrees>
              <LongitudeDegrees>-4.0717768482863903045654296875</LongitudeDegrees>
            </Position>
            <AltitudeMeters>1558.199951171875</AltitudeMeters>
            <DistanceMeters>NAN</DistanceMeters>
          </Trackpoint>
          <Trackpoint>
            <Time>2018-12-30T10:45:38.000Z</Time>
            <Position>
              <LatitudeDegrees>40.78210118226706981658935546875</LatitudeDegrees>
              <LongitudeDegrees>-4.07176452688872814178466796875</LongitudeDegrees>
            </Position>
            <AltitudeMeters>1558.4000244140625</AltitudeMeters>
            <DistanceMeters>NAN</DistanceMeters>
          </Trackpoint>
          <Trackpoint>
            <Time>2018-12-30T10:45:39.000Z</Time>
            <Position>
              <LatitudeDegrees>40.782107971608638763427734375</LatitudeDegrees>
              <LongitudeDegrees>-4.07175530679523944854736328125</LongitudeDegrees>
            </Position>
            <AltitudeMeters>1558.4000244140625</AltitudeMeters>
            <DistanceMeters>NAN</DistanceMeters>
          </Trackpoint>
          <Trackpoint>
            <Time>2018-12-30T10:45:40.000Z</Time>
            <Position>
              <LatitudeDegrees>40.78211375512182712554931640625</LatitudeDegrees>
              <LongitudeDegrees>-4.0717433206737041473388671875</LongitudeDegrees>
            </Position>
            <AltitudeMeters>1558.199951171875</AltitudeMeters>
            <DistanceMeters>NAN</DistanceMeters>
          </Trackpoint>
          <Trackpoint>
            <Time>2018-12-30T10:45:41.000Z</Time>
            <Position>
              <LatitudeDegrees>40.78211677260696887969970703125</LatitudeDegrees>
              <LongitudeDegrees>-4.07172999344766139984130859375</LongitudeDegrees>
            </Position>
            <AltitudeMeters>1558</AltitudeMeters>
            <DistanceMeters>NAN</DistanceMeters>
          </Trackpoint>
          <Trackpoint>
            <Time>2018-12-30T10:45:42.000Z</Time>
            <Position>
              <LatitudeDegrees>40.7821176946163177490234375</LatitudeDegrees>
              <LongitudeDegrees>-4.071712307631969451904296875</LongitudeDegrees>
            </Position>
            <AltitudeMeters>1558</AltitudeMeters>
            <DistanceMeters>NAN</DistanceMeters>
          </Trackpoint>
          <Trackpoint>
            <Time>2018-12-30T10:45:43.000Z</Time>
            <Position>
              <LatitudeDegrees>40.7821198739111423492431640625</LatitudeDegrees>
              <LongitudeDegrees>-4.07169763930141925811767578125</LongitudeDegrees>
            </Position>
            <AltitudeMeters>1558</AltitudeMeters>
            <DistanceMeters>NAN</DistanceMeters>
          </Trackpoint>
          <Trackpoint>
            <Time>2018-12-30T10:45:44.000Z</Time>
            <Position>
              <LatitudeDegrees>40.7821203768253326416015625</LatitudeDegrees>
              <LongitudeDegrees>-4.07168271951377391815185546875</LongitudeDegrees>
            </Position>
            <AltitudeMeters>1557.800048828125</AltitudeMeters>
            <DistanceMeters>NAN</DistanceMeters>
          </Trackpoint>
          <Trackpoint>
            <Time>2018-12-30T10:45:45.000Z</Time>
            <Position>
              <LatitudeDegrees>40.78212364576756954193115234375</LatitudeDegrees>
              <LongitudeDegrees>-4.07167031429708003997802734375</LongitudeDegrees>
            </Position>
            <AltitudeMeters>1557.800048828125</AltitudeMeters>
            <DistanceMeters>NAN</DistanceMeters>
          </Trackpoint>
          <Trackpoint>
            <Time>2018-12-30T10:45:46.000Z</Time>
            <Position>
              <LatitudeDegrees>40.78212775290012359619140625</LatitudeDegrees>
              <LongitudeDegrees>-4.0716561488807201385498046875</LongitudeDegrees>
            </Position>
            <AltitudeMeters>1557.800048828125</AltitudeMeters>
            <DistanceMeters>NAN</DistanceMeters>
          </Trackpoint>
          <Trackpoint>
            <Time>2018-12-30T10:45:47.000Z</Time>
            <Position>
              <LatitudeDegrees>40.7821342907845973968505859375</LatitudeDegrees>
              <LongitudeDegrees>-4.071642570197582244873046875</LongitudeDegrees>
            </Position>
            <AltitudeMeters>1557.800048828125</AltitudeMeters>
            <DistanceMeters>NAN</DistanceMeters>
          </Trackpoint>
          <Trackpoint>
            <Time>2018-12-30T10:45:48.000Z</Time>
            <Position>
              <LatitudeDegrees>40.7821391522884368896484375</LatitudeDegrees>
              <LongitudeDegrees>-4.07161868177354335784912109375</LongitudeDegrees>
            </Position>
            <AltitudeMeters>1558</AltitudeMeters>
            <DistanceMeters>NAN</DistanceMeters>
          </Trackpoint>
          <Trackpoint>
            <Time>2018-12-30T10:45:49.000Z</Time>
            <Position>
              <LatitudeDegrees>40.7821473665535449981689453125</LatitudeDegrees>
              <LongitudeDegrees>-4.0716025047004222869873046875</LongitudeDegrees>
            </Position>
            <AltitudeMeters>1558.199951171875</AltitudeMeters>
            <DistanceMeters>NAN</DistanceMeters>
          </Trackpoint>
          <Trackpoint>
            <Time>2018-12-30T10:45:50.000Z</Time>
            <Position>
              <LatitudeDegrees>40.78215365298092365264892578125</LatitudeDegrees>
              <LongitudeDegrees>-4.07158079557120800018310546875</LongitudeDegrees>
            </Position>
            <AltitudeMeters>1558.199951171875</AltitudeMeters>
            <DistanceMeters>NAN</DistanceMeters>
          </Trackpoint>
          <Trackpoint>
            <Time>2018-12-30T10:45:51.000Z</Time>
            <Position>
              <LatitudeDegrees>40.78215784393250942230224609375</LatitudeDegrees>
              <LongitudeDegrees>-4.07157006673514842987060546875</LongitudeDegrees>
            </Position>
            <AltitudeMeters>1558.4000244140625</AltitudeMeters>
            <DistanceMeters>NAN</DistanceMeters>
          </Trackpoint>
          <Trackpoint>
            <Time>2018-12-30T10:45:52.000Z</Time>
            <Position>
              <LatitudeDegrees>40.782162956893444061279296875</LatitudeDegrees>
              <LongitudeDegrees>-4.07155908644199371337890625</LongitudeDegrees>
            </Position>
            <AltitudeMeters>1558.4000244140625</AltitudeMeters>
            <DistanceMeters>NAN</DistanceMeters>
          </Trackpoint>
          <Trackpoint>
            <Time>2018-12-30T10:45:53.000Z</Time>
            <Position>
              <LatitudeDegrees>40.78217058442533016204833984375</LatitudeDegrees>
              <LongitudeDegrees>-4.07153016887605190277099609375</LongitudeDegrees>
            </Position>
            <AltitudeMeters>1558.5999755859375</AltitudeMeters>
            <DistanceMeters>NAN</DistanceMeters>
          </Trackpoint>
          <Trackpoint>
            <Time>2018-12-30T10:45:54.000Z</Time>
            <Position>
              <LatitudeDegrees>40.78217058442533016204833984375</LatitudeDegrees>
              <LongitudeDegrees>-4.07153016887605190277099609375</LongitudeDegrees>
            </Position>
            <AltitudeMeters>1558.800048828125</AltitudeMeters>
            <DistanceMeters>NAN</DistanceMeters>
          </Trackpoint>
          <Trackpoint>
            <Time>2018-12-30T10:45:55.000Z</Time>
            <Position>
              <LatitudeDegrees>40.78217309899628162384033203125</LatitudeDegrees>
              <LongitudeDegrees>-4.07152044586837291717529296875</LongitudeDegrees>
            </Position>
            <AltitudeMeters>1558.800048828125</AltitudeMeters>
            <DistanceMeters>NAN</DistanceMeters>
          </Trackpoint>
          <Trackpoint>
            <Time>2018-12-30T10:45:56.000Z</Time>
            <Position>
              <LatitudeDegrees>40.782175026834011077880859375</LatitudeDegrees>
              <LongitudeDegrees>-4.07151558436453342437744140625</LongitudeDegrees>
            </Position>
            <AltitudeMeters>1558.800048828125</AltitudeMeters>
            <DistanceMeters>NAN</DistanceMeters>
          </Trackpoint>
          <Trackpoint>
            <Time>2018-12-30T10:45:57.000Z</Time>
            <Position>
              <LatitudeDegrees>40.78217762522399425506591796875</LatitudeDegrees>
              <LongitudeDegrees>-4.07150770537555217742919921875</LongitudeDegrees>
            </Position>
            <AltitudeMeters>1558.800048828125</AltitudeMeters>
            <DistanceMeters>NAN</DistanceMeters>
          </Trackpoint>
          <Trackpoint>
            <Time>2018-12-30T10:45:58.000Z</Time>
            <Position>
              <LatitudeDegrees>40.78218215145170688629150390625</LatitudeDegrees>
              <LongitudeDegrees>-4.07150066457688808441162109375</LongitudeDegrees>
            </Position>
            <AltitudeMeters>1558.800048828125</AltitudeMeters>
            <DistanceMeters>NAN</DistanceMeters>
          </Trackpoint>
          <Trackpoint>
            <Time>2018-12-30T10:45:59.000Z</Time>
            <Position>
              <LatitudeDegrees>40.78218818642199039459228515625</LatitudeDegrees>
              <LongitudeDegrees>-4.07149647362530231475830078125</LongitudeDegrees>
            </Position>
            <AltitudeMeters>1558.800048828125</AltitudeMeters>
            <DistanceMeters>NAN</DistanceMeters>
          </Trackpoint>
          <Trackpoint>
            <Time>2018-12-30T10:46:00.000Z</Time>
            <Position>
              <LatitudeDegrees>40.7821946404874324798583984375</LatitudeDegrees>
              <LongitudeDegrees>-4.071492366492748260498046875</LongitudeDegrees>
            </Position>
            <AltitudeMeters>1558.800048828125</AltitudeMeters>
            <DistanceMeters>NAN</DistanceMeters>
          </Trackpoint>
          <Trackpoint>
            <Time>2018-12-30T10:46:01.000Z</Time>
            <Position>
              <LatitudeDegrees>40.782201178371906280517578125</LatitudeDegrees>
              <LongitudeDegrees>-4.07149043865501880645751953125</LongitudeDegrees>
            </Position>
            <AltitudeMeters>1558.800048828125</AltitudeMeters>
            <DistanceMeters>NAN</DistanceMeters>
          </Trackpoint>
          <Trackpoint>
            <Time>2018-12-30T10:46:02.000Z</Time>
            <Position>
              <LatitudeDegrees>40.78220344148576259613037109375</LatitudeDegrees>
              <LongitudeDegrees>-4.071477949619293212890625</LongitudeDegrees>
            </Position>
            <AltitudeMeters>1559</AltitudeMeters>
            <DistanceMeters>NAN</DistanceMeters>
          </Trackpoint>
          <Trackpoint>
            <Time>2018-12-30T10:46:03.000Z</Time>
            <Position>
              <LatitudeDegrees>40.7822103984653949737548828125</LatitudeDegrees>
              <LongitudeDegrees>-4.0714710764586925506591796875</LongitudeDegrees>
            </Position>
            <AltitudeMeters>1559</AltitudeMeters>
            <DistanceMeters>NAN</DistanceMeters>
          </Trackpoint>
          <Trackpoint>
            <Time>2018-12-30T10:46:04.000Z</Time>
            <Position>
              <LatitudeDegrees>40.78221785835921764373779296875</LatitudeDegrees>
              <LongitudeDegrees>-4.0714647062122821807861328125</LongitudeDegrees>
            </Position>
            <AltitudeMeters>1559</AltitudeMeters>
            <DistanceMeters>NAN</DistanceMeters>
          </Trackpoint>
          <Trackpoint>
            <Time>2018-12-30T10:46:05.000Z</Time>
            <Position>
              <LatitudeDegrees>40.78222422860562801361083984375</LatitudeDegrees>
              <LongitudeDegrees>-4.07145909033715724945068359375</LongitudeDegrees>
            </Position>
            <AltitudeMeters>1559</AltitudeMeters>
            <DistanceMeters>NAN</DistanceMeters>
          </Trackpoint>
          <Trackpoint>
            <Time>2018-12-30T10:46:06.000Z</Time>
            <Position>
              <LatitudeDegrees>40.7822264917194843292236328125</LatitudeDegrees>
              <LongitudeDegrees>-4.07145456410944461822509765625</LongitudeDegrees>
            </Position>
            <AltitudeMeters>1559</AltitudeMeters>
            <DistanceMeters>NAN</DistanceMeters>
          </Trackpoint>
          <Trackpoint>
            <Time>2018-12-30T10:46:07.000Z</Time>
            <Position>
              <LatitudeDegrees>40.782231353223323822021484375</LatitudeDegrees>
              <LongitudeDegrees>-4.07145607285201549530029296875</LongitudeDegrees>
            </Position>
            <AltitudeMeters>1559</AltitudeMeters>
            <DistanceMeters>NAN</DistanceMeters>
          </Trackpoint>
          <Trackpoint>
            <Time>2018-12-30T10:46:08.000Z</Time>
            <Position>
              <LatitudeDegrees>40.78223546035587787628173828125</LatitudeDegrees>
              <LongitudeDegrees>-4.0714551508426666259765625</LongitudeDegrees>
            </Position>
            <AltitudeMeters>1559</AltitudeMeters>
            <DistanceMeters>NAN</DistanceMeters>
          </Trackpoint>
          <Trackpoint>
            <Time>2018-12-30T10:46:09.000Z</Time>
            <Position>
              <LatitudeDegrees>40.7822328619658946990966796875</LatitudeDegrees>
              <LongitudeDegrees>-4.07145422883331775665283203125</LongitudeDegrees>
            </Position>
            <AltitudeMeters>1559.199951171875</AltitudeMeters>
            <DistanceMeters>NAN</DistanceMeters>
          </Trackpoint>
          <Trackpoint>
            <Time>2018-12-30T10:46:10.000Z</Time>
            <Position>
              <LatitudeDegrees>40.78224250115454196929931640625</LatitudeDegrees>
              <LongitudeDegrees>-4.07143679447472095489501953125</LongitudeDegrees>
            </Position>
            <AltitudeMeters>1559.199951171875</AltitudeMeters>
            <DistanceMeters>NAN</DistanceMeters>
          </Trackpoint>
          <Trackpoint>
            <Time>2018-12-30T10:46:11.000Z</Time>
            <Position>
              <LatitudeDegrees>40.78224250115454196929931640625</LatitudeDegrees>
              <LongitudeDegrees>-4.07143679447472095489501953125</LongitudeDegrees>
            </Position>
            <AltitudeMeters>1559.4000244140625</AltitudeMeters>
            <DistanceMeters>NAN</DistanceMeters>
          </Trackpoint>
          <Trackpoint>
            <Time>2018-12-30T10:46:12.000Z</Time>
            <Position>
              <LatitudeDegrees>40.7822549901902675628662109375</LatitudeDegrees>
              <LongitudeDegrees>-4.07141902483999729156494140625</LongitudeDegrees>
            </Position>
            <AltitudeMeters>1559.5999755859375</AltitudeMeters>
            <DistanceMeters>NAN</DistanceMeters>
          </Trackpoint>
          <Trackpoint>
            <Time>2018-12-30T10:46:13.000Z</Time>
            <Position>
              <LatitudeDegrees>40.7822549901902675628662109375</LatitudeDegrees>
              <LongitudeDegrees>-4.07141902483999729156494140625</LongitudeDegrees>
            </Position>
            <AltitudeMeters>1559.4000244140625</AltitudeMeters>
            <DistanceMeters>NAN</DistanceMeters>
          </Trackpoint>
          <Trackpoint>
            <Time>2018-12-30T10:46:14.000Z</Time>
            <Position>
              <LatitudeDegrees>40.78225691802799701690673828125</LatitudeDegrees>
              <LongitudeDegrees>-4.071417935192584991455078125</LongitudeDegrees>
            </Position>
            <AltitudeMeters>1559.4000244140625</AltitudeMeters>
            <DistanceMeters>NAN</DistanceMeters>
          </Trackpoint>
          <Trackpoint>
            <Time>2018-12-30T10:46:15.000Z</Time>
            <Position>
              <LatitudeDegrees>40.782256834208965301513671875</LatitudeDegrees>
              <LongitudeDegrees>-4.071403853595256805419921875</LongitudeDegrees>
            </Position>
            <AltitudeMeters>1559.4000244140625</AltitudeMeters>
            <DistanceMeters>NAN</DistanceMeters>
          </Trackpoint>
          <Trackpoint>
            <Time>2018-12-30T10:46:16.000Z</Time>
            <Position>
              <LatitudeDegrees>40.78226454555988311767578125</LatitudeDegrees>
              <LongitudeDegrees>-4.07138667069375514984130859375</LongitudeDegrees>
            </Position>
            <AltitudeMeters>1559.4000244140625</AltitudeMeters>
            <DistanceMeters>NAN</DistanceMeters>
          </Trackpoint>
          <Trackpoint>
            <Time>2018-12-30T10:46:17.000Z</Time>
            <Position>
              <LatitudeDegrees>40.78226454555988311767578125</LatitudeDegrees>
              <LongitudeDegrees>-4.07138667069375514984130859375</LongitudeDegrees>
            </Position>
            <AltitudeMeters>1559.199951171875</AltitudeMeters>
            <DistanceMeters>NAN</DistanceMeters>
          </Trackpoint>
          <Trackpoint>
            <Time>2018-12-30T10:46:18.000Z</Time>
            <Position>
              <LatitudeDegrees>40.782260857522487640380859375</LatitudeDegrees>
              <LongitudeDegrees>-4.0713725052773952484130859375</LongitudeDegrees>
            </Position>
            <AltitudeMeters>1559.199951171875</AltitudeMeters>
            <DistanceMeters>NAN</DistanceMeters>
          </Trackpoint>
          <Trackpoint>
            <Time>2018-12-30T10:46:19.000Z</Time>
            <Position>
              <LatitudeDegrees>40.78224518336355686187744140625</LatitudeDegrees>
              <LongitudeDegrees>-4.07136504538357257843017578125</LongitudeDegrees>
            </Position>
            <AltitudeMeters>1559.199951171875</AltitudeMeters>
            <DistanceMeters>NAN</DistanceMeters>
          </Trackpoint>
          <Trackpoint>
            <Time>2018-12-30T10:46:20.000Z</Time>
            <Position>
              <LatitudeDegrees>40.78223847784101963043212890625</LatitudeDegrees>
              <LongitudeDegrees>-4.07135934568941593170166015625</LongitudeDegrees>
            </Position>
            <AltitudeMeters>1559.199951171875</AltitudeMeters>
            <DistanceMeters>NAN</DistanceMeters>
          </Trackpoint>
          <Trackpoint>
            <Time>2018-12-30T10:46:21.000Z</Time>
            <Position>
              <LatitudeDegrees>40.7822328619658946990966796875</LatitudeDegrees>
              <LongitudeDegrees>-4.07134962268173694610595703125</LongitudeDegrees>
            </Position>
            <AltitudeMeters>1559.199951171875</AltitudeMeters>
            <DistanceMeters>NAN</DistanceMeters>
          </Trackpoint>
          <Trackpoint>
            <Time>2018-12-30T10:46:22.000Z</Time>
            <Position>
              <LatitudeDegrees>40.782225988805294036865234375</LatitudeDegrees>
              <LongitudeDegrees>-4.07134174369275569915771484375</LongitudeDegrees>
            </Position>
            <AltitudeMeters>1559.199951171875</AltitudeMeters>
            <DistanceMeters>NAN</DistanceMeters>
          </Trackpoint>
          <Trackpoint>
            <Time>2018-12-30T10:46:23.000Z</Time>
            <Position>
              <LatitudeDegrees>40.782205201685428619384765625</LatitudeDegrees>
              <LongitudeDegrees>-4.07133352942764759063720703125</LongitudeDegrees>
            </Position>
            <AltitudeMeters>1559</AltitudeMeters>
            <DistanceMeters>NAN</DistanceMeters>
          </Trackpoint>
          <Trackpoint>
            <Time>2018-12-30T10:46:24.000Z</Time>
            <Position>
              <LatitudeDegrees>40.78218810260295867919921875</LatitudeDegrees>
              <LongitudeDegrees>-4.07133570872247219085693359375</LongitudeDegrees>
            </Position>
            <AltitudeMeters>1559</AltitudeMeters>
            <DistanceMeters>NAN</DistanceMeters>
          </Trackpoint>
          <Trackpoint>
            <Time>2018-12-30T10:46:25.000Z</Time>
            <Position>
              <LatitudeDegrees>40.78218399547040462493896484375</LatitudeDegrees>
              <LongitudeDegrees>-4.07134945504367351531982421875</LongitudeDegrees>
            </Position>
            <AltitudeMeters>1559</AltitudeMeters>
            <DistanceMeters>NAN</DistanceMeters>
          </Trackpoint>
          <Trackpoint>
            <Time>2018-12-30T10:46:26.000Z</Time>
            <Position>
              <LatitudeDegrees>40.78217913396656513214111328125</LatitudeDegrees>
              <LongitudeDegrees>-4.0713487006723880767822265625</LongitudeDegrees>
            </Position>
            <AltitudeMeters>1559</AltitudeMeters>
            <DistanceMeters>NAN</DistanceMeters>
          </Trackpoint>
          <Trackpoint>
            <Time>2018-12-30T10:46:27.000Z</Time>
            <Position>
              <LatitudeDegrees>40.78217879869043827056884765625</LatitudeDegrees>
              <LongitudeDegrees>-4.07134643755853176116943359375</LongitudeDegrees>
            </Position>
            <AltitudeMeters>1559</AltitudeMeters>
            <DistanceMeters>NAN</DistanceMeters>
          </Trackpoint>
          <Trackpoint>
            <Time>2018-12-30T10:46:28.000Z</Time>
            <Position>
              <LatitudeDegrees>40.78217737376689910888671875</LatitudeDegrees>
              <LongitudeDegrees>-4.07134844921529293060302734375</LongitudeDegrees>
            </Position>
            <AltitudeMeters>1559.4000244140625</AltitudeMeters>
            <DistanceMeters>NAN</DistanceMeters>
          </Trackpoint>
          <Trackpoint>
            <Time>2018-12-30T10:46:29.000Z</Time>
            <Position>
              <LatitudeDegrees>40.7821725122630596160888671875</LatitudeDegrees>
              <LongitudeDegrees>-4.0713505446910858154296875</LongitudeDegrees>
            </Position>
            <AltitudeMeters>1559.800048828125</AltitudeMeters>
            <DistanceMeters>NAN</DistanceMeters>
          </Trackpoint>
          <Trackpoint>
            <Time>2018-12-30T10:46:30.000Z</Time>
            <Position>
              <LatitudeDegrees>40.78217041678726673126220703125</LatitudeDegrees>
              <LongitudeDegrees>-4.07135389745235443115234375</LongitudeDegrees>
            </Position>
            <AltitudeMeters>1560</AltitudeMeters>
            <DistanceMeters>NAN</DistanceMeters>
          </Trackpoint>
          <Trackpoint>
            <Time>2018-12-30T10:46:31.000Z</Time>
            <Position>
              <LatitudeDegrees>40.7821698300540447235107421875</LatitudeDegrees>
              <LongitudeDegrees>-4.07135448418557643890380859375</LongitudeDegrees>
            </Position>
            <AltitudeMeters>1560.199951171875</AltitudeMeters>
            <DistanceMeters>NAN</DistanceMeters>
          </Trackpoint>
          <Trackpoint>
            <Time>2018-12-30T10:46:32.000Z</Time>
            <Position>
              <LatitudeDegrees>40.78216840513050556182861328125</LatitudeDegrees>
              <LongitudeDegrees>-4.071353562176227569580078125</LongitudeDegrees>
            </Position>
            <AltitudeMeters>1560.199951171875</AltitudeMeters>
            <DistanceMeters>NAN</DistanceMeters>
          </Trackpoint>
          <Trackpoint>
            <Time>2018-12-30T10:46:33.000Z</Time>
            <Position>
              <LatitudeDegrees>40.782164297997951507568359375</LatitudeDegrees>
              <LongitudeDegrees>-4.0713530592620372772216796875</LongitudeDegrees>
            </Position>
            <AltitudeMeters>1560</AltitudeMeters>
            <DistanceMeters>NAN</DistanceMeters>
          </Trackpoint>
          <Trackpoint>
            <Time>2018-12-30T10:46:34.000Z</Time>
            <Position>
              <LatitudeDegrees>40.782161615788936614990234375</LatitudeDegrees>
              <LongitudeDegrees>-4.07134392298758029937744140625</LongitudeDegrees>
            </Position>
            <AltitudeMeters>1560</AltitudeMeters>
            <DistanceMeters>NAN</DistanceMeters>
          </Trackpoint>
          <Trackpoint>
            <Time>2018-12-30T10:46:35.000Z</Time>
            <Position>
              <LatitudeDegrees>40.782161615788936614990234375</LatitudeDegrees>
              <LongitudeDegrees>-4.07134392298758029937744140625</LongitudeDegrees>
            </Position>
            <AltitudeMeters>1559.800048828125</AltitudeMeters>
            <DistanceMeters>NAN</DistanceMeters>
          </Trackpoint>
          <Trackpoint>
            <Time>2018-12-30T10:46:36.000Z</Time>
            <Position>
              <LatitudeDegrees>40.7821500487625598907470703125</LatitudeDegrees>
              <LongitudeDegrees>-4.07132900319993495941162109375</LongitudeDegrees>
            </Position>
            <AltitudeMeters>1559.4000244140625</AltitudeMeters>
            <DistanceMeters>NAN</DistanceMeters>
          </Trackpoint>
          <Trackpoint>
            <Time>2018-12-30T10:46:37.000Z</Time>
            <Position>
              <LatitudeDegrees>40.7821453548967838287353515625</LatitudeDegrees>
              <LongitudeDegrees>-4.07132179476320743560791015625</LongitudeDegrees>
            </Position>
            <AltitudeMeters>1559</AltitudeMeters>
            <DistanceMeters>NAN</DistanceMeters>
          </Trackpoint>
          <Trackpoint>
            <Time>2018-12-30T10:46:38.000Z</Time>
            <Position>
              <LatitudeDegrees>40.78214007429778575897216796875</LatitudeDegrees>
              <LongitudeDegrees>-4.07131106592714786529541015625</LongitudeDegrees>
            </Position>
            <AltitudeMeters>1559</AltitudeMeters>
            <DistanceMeters>NAN</DistanceMeters>
          </Trackpoint>
          <Trackpoint>
            <Time>2018-12-30T10:46:39.000Z</Time>
            <Position>
              <LatitudeDegrees>40.78213521279394626617431640625</LatitudeDegrees>
              <LongitudeDegrees>-4.07130469568073749542236328125</LongitudeDegrees>
            </Position>
            <AltitudeMeters>1559</AltitudeMeters>
            <DistanceMeters>NAN</DistanceMeters>
          </Trackpoint>
          <Trackpoint>
            <Time>2018-12-30T10:46:40.000Z</Time>
            <Position>
              <LatitudeDegrees>40.7821285910904407501220703125</LatitudeDegrees>
              <LongitudeDegrees>-4.07129564322531223297119140625</LongitudeDegrees>
            </Position>
            <AltitudeMeters>1559</AltitudeMeters>
            <DistanceMeters>NAN</DistanceMeters>
          </Trackpoint>
          <Trackpoint>
            <Time>2018-12-30T10:46:41.000Z</Time>
            <Position>
              <LatitudeDegrees>40.78212263993918895721435546875</LatitudeDegrees>
              <LongitudeDegrees>-4.07128307037055492401123046875</LongitudeDegrees>
            </Position>
            <AltitudeMeters>1559</AltitudeMeters>
            <DistanceMeters>NAN</DistanceMeters>
          </Trackpoint>
          <Trackpoint>
            <Time>2018-12-30T10:46:42.000Z</Time>
            <Position>
              <LatitudeDegrees>40.7821171917021274566650390625</LatitudeDegrees>
              <LongitudeDegrees>-4.07127351500093936920166015625</LongitudeDegrees>
            </Position>
            <AltitudeMeters>1559</AltitudeMeters>
            <DistanceMeters>NAN</DistanceMeters>
          </Trackpoint>
          <Trackpoint>
            <Time>2018-12-30T10:46:43.000Z</Time>
            <Position>
              <LatitudeDegrees>40.7821135036647319793701171875</LatitudeDegrees>
              <LongitudeDegrees>-4.07126647420227527618408203125</LongitudeDegrees>
            </Position>
            <AltitudeMeters>1559.199951171875</AltitudeMeters>
            <DistanceMeters>NAN</DistanceMeters>
          </Trackpoint>
          <Trackpoint>
            <Time>2018-12-30T10:46:44.000Z</Time>
            <Position>
              <LatitudeDegrees>40.7821135036647319793701171875</LatitudeDegrees>
              <LongitudeDegrees>-4.07126647420227527618408203125</LongitudeDegrees>
            </Position>
            <AltitudeMeters>1559.4000244140625</AltitudeMeters>
            <DistanceMeters>NAN</DistanceMeters>
          </Trackpoint>
          <Trackpoint>
            <Time>2018-12-30T10:46:45.000Z</Time>
            <Position>
              <LatitudeDegrees>40.7821096479892730712890625</LatitudeDegrees>
              <LongitudeDegrees>-4.07126228325068950653076171875</LongitudeDegrees>
            </Position>
            <AltitudeMeters>1559.4000244140625</AltitudeMeters>
            <DistanceMeters>NAN</DistanceMeters>
          </Trackpoint>
          <Trackpoint>
            <Time>2018-12-30T10:46:46.000Z</Time>
            <Position>
              <LatitudeDegrees>40.7821057923138141632080078125</LatitudeDegrees>
              <LongitudeDegrees>-4.07125825993716716766357421875</LongitudeDegrees>
            </Position>
            <AltitudeMeters>1559.5999755859375</AltitudeMeters>
            <DistanceMeters>NAN</DistanceMeters>
          </Trackpoint>
          <Trackpoint>
            <Time>2018-12-30T10:46:47.000Z</Time>
            <Position>
              <LatitudeDegrees>40.7821057923138141632080078125</LatitudeDegrees>
              <LongitudeDegrees>-4.07125825993716716766357421875</LongitudeDegrees>
            </Position>
            <AltitudeMeters>1559.800048828125</AltitudeMeters>
            <DistanceMeters>NAN</DistanceMeters>
          </Trackpoint>
          <Trackpoint>
            <Time>2018-12-30T10:46:48.000Z</Time>
            <Position>
              <LatitudeDegrees>40.7820782996714115142822265625</LatitudeDegrees>
              <LongitudeDegrees>-4.07128608785569667816162109375</LongitudeDegrees>
            </Position>
            <AltitudeMeters>1560</AltitudeMeters>
            <DistanceMeters>NAN</DistanceMeters>
          </Trackpoint>
          <Trackpoint>
            <Time>2018-12-30T10:46:49.000Z</Time>
            <Position>
              <LatitudeDegrees>40.782073102891445159912109375</LatitudeDegrees>
              <LongitudeDegrees>-4.07128156162798404693603515625</LongitudeDegrees>
            </Position>
            <AltitudeMeters>1560.199951171875</AltitudeMeters>
            <DistanceMeters>NAN</DistanceMeters>
          </Trackpoint>
          <Trackpoint>
            <Time>2018-12-30T10:46:50.000Z</Time>
            <Position>
              <LatitudeDegrees>40.7820699177682399749755859375</LatitudeDegrees>
              <LongitudeDegrees>-4.07127619720995426177978515625</LongitudeDegrees>
            </Position>
            <AltitudeMeters>1560.5999755859375</AltitudeMeters>
            <DistanceMeters>NAN</DistanceMeters>
          </Trackpoint>
          <Trackpoint>
            <Time>2018-12-30T10:46:51.000Z</Time>
            <Position>
              <LatitudeDegrees>40.78206832520663738250732421875</LatitudeDegrees>
              <LongitudeDegrees>-4.07127049751579761505126953125</LongitudeDegrees>
            </Position>
            <AltitudeMeters>1560.5999755859375</AltitudeMeters>
            <DistanceMeters>NAN</DistanceMeters>
          </Trackpoint>
          <Trackpoint>
            <Time>2018-12-30T10:46:52.000Z</Time>
            <Position>
              <LatitudeDegrees>40.78206346370279788970947265625</LatitudeDegrees>
              <LongitudeDegrees>-4.07127217389643192291259765625</LongitudeDegrees>
            </Position>
            <AltitudeMeters>1560.800048828125</AltitudeMeters>
            <DistanceMeters>NAN</DistanceMeters>
          </Trackpoint>
          <Trackpoint>
            <Time>2018-12-30T10:46:53.000Z</Time>
            <Position>
              <LatitudeDegrees>40.782052986323833465576171875</LatitudeDegrees>
              <LongitudeDegrees>-4.07127502374351024627685546875</LongitudeDegrees>
            </Position>
            <AltitudeMeters>1560.5999755859375</AltitudeMeters>
            <DistanceMeters>NAN</DistanceMeters>
          </Trackpoint>
          <Trackpoint>
            <Time>2018-12-30T10:46:54.000Z</Time>
            <Position>
              <LatitudeDegrees>40.7820454426109790802001953125</LatitudeDegrees>
              <LongitudeDegrees>-4.07127234153449535369873046875</LongitudeDegrees>
            </Position>
            <AltitudeMeters>1560.5999755859375</AltitudeMeters>
            <DistanceMeters>NAN</DistanceMeters>
          </Trackpoint>
          <Trackpoint>
            <Time>2018-12-30T10:46:55.000Z</Time>
            <Position>
              <LatitudeDegrees>40.7820384018123149871826171875</LatitudeDegrees>
              <LongitudeDegrees>-4.07126865349709987640380859375</LongitudeDegrees>
            </Position>
            <AltitudeMeters>1560.800048828125</AltitudeMeters>
            <DistanceMeters>NAN</DistanceMeters>
          </Trackpoint>
          <Trackpoint>
            <Time>2018-12-30T10:46:56.000Z</Time>
            <Position>
              <LatitudeDegrees>40.78203362412750720977783203125</LatitudeDegrees>
              <LongitudeDegrees>-4.0712628699839115142822265625</LongitudeDegrees>
            </Position>
            <AltitudeMeters>1561</AltitudeMeters>
            <DistanceMeters>NAN</DistanceMeters>
          </Trackpoint>
          <Trackpoint>
            <Time>2018-12-30T10:46:57.000Z</Time>
            <Position>
              <LatitudeDegrees>40.782026164233684539794921875</LatitudeDegrees>
              <LongitudeDegrees>-4.07126261852681636810302734375</LongitudeDegrees>
            </Position>
            <AltitudeMeters>1561.199951171875</AltitudeMeters>
            <DistanceMeters>NAN</DistanceMeters>
          </Trackpoint>
          <Trackpoint>
            <Time>2018-12-30T10:46:58.000Z</Time>
            <Position>
              <LatitudeDegrees>40.78201820142567157745361328125</LatitudeDegrees>
              <LongitudeDegrees>-4.071256332099437713623046875</LongitudeDegrees>
            </Position>
            <AltitudeMeters>1561.4000244140625</AltitudeMeters>
            <DistanceMeters>NAN</DistanceMeters>
          </Trackpoint>
          <Trackpoint>
            <Time>2018-12-30T10:46:59.000Z</Time>
            <Position>
              <LatitudeDegrees>40.78200931660830974578857421875</LatitudeDegrees>
              <LongitudeDegrees>-4.0712417475879192352294921875</LongitudeDegrees>
            </Position>
            <AltitudeMeters>1561.4000244140625</AltitudeMeters>
            <DistanceMeters>NAN</DistanceMeters>
          </Trackpoint>
          <Trackpoint>
            <Time>2018-12-30T10:47:00.000Z</Time>
            <Position>
              <LatitudeDegrees>40.78200244344770908355712890625</LatitudeDegrees>
              <LongitudeDegrees>-4.0712263248860836029052734375</LongitudeDegrees>
            </Position>
            <AltitudeMeters>1561.5999755859375</AltitudeMeters>
            <DistanceMeters>NAN</DistanceMeters>
          </Trackpoint>
          <Trackpoint>
            <Time>2018-12-30T10:47:01.000Z</Time>
            <Position>
              <LatitudeDegrees>40.7819891162216663360595703125</LatitudeDegrees>
              <LongitudeDegrees>-4.07120662741363048553466796875</LongitudeDegrees>
            </Position>
            <AltitudeMeters>1561.5999755859375</AltitudeMeters>
            <DistanceMeters>NAN</DistanceMeters>
          </Trackpoint>
          <Trackpoint>
            <Time>2018-12-30T10:47:02.000Z</Time>
            <Position>
              <LatitudeDegrees>40.7819770462810993194580078125</LatitudeDegrees>
              <LongitudeDegrees>-4.0711968205869197845458984375</LongitudeDegrees>
            </Position>
            <AltitudeMeters>1561.5999755859375</AltitudeMeters>
            <DistanceMeters>NAN</DistanceMeters>
          </Trackpoint>
          <Trackpoint>
            <Time>2018-12-30T10:47:03.000Z</Time>
            <Position>
              <LatitudeDegrees>40.78196304850280284881591796875</LatitudeDegrees>
              <LongitudeDegrees>-4.0711834095418453216552734375</LongitudeDegrees>
            </Position>
            <AltitudeMeters>1561.800048828125</AltitudeMeters>
            <DistanceMeters>NAN</DistanceMeters>
          </Trackpoint>
          <Trackpoint>
            <Time>2018-12-30T10:47:04.000Z</Time>
            <Position>
              <LatitudeDegrees>40.781953744590282440185546875</LatitudeDegrees>
              <LongitudeDegrees>-4.07116589136421680450439453125</LongitudeDegrees>
            </Position>
            <AltitudeMeters>1562</AltitudeMeters>
            <DistanceMeters>NAN</DistanceMeters>
          </Trackpoint>
          <Trackpoint>
            <Time>2018-12-30T10:47:05.000Z</Time>
            <Position>
              <LatitudeDegrees>40.7819418422877788543701171875</LatitudeDegrees>
              <LongitudeDegrees>-4.07115315087139606475830078125</LongitudeDegrees>
            </Position>
            <AltitudeMeters>1562.4000244140625</AltitudeMeters>
            <DistanceMeters>NAN</DistanceMeters>
          </Trackpoint>
          <Trackpoint>
            <Time>2018-12-30T10:47:06.000Z</Time>
            <Position>
              <LatitudeDegrees>40.78193002380430698394775390625</LatitudeDegrees>
              <LongitudeDegrees>-4.071144349873065948486328125</LongitudeDegrees>
            </Position>
            <AltitudeMeters>1562.5999755859375</AltitudeMeters>
            <DistanceMeters>NAN</DistanceMeters>
          </Trackpoint>
          <Trackpoint>
            <Time>2018-12-30T10:47:07.000Z</Time>
            <Position>
              <LatitudeDegrees>40.7819200493395328521728515625</LatitudeDegrees>
              <LongitudeDegrees>-4.071134626865386962890625</LongitudeDegrees>
            </Position>
            <AltitudeMeters>1562.800048828125</AltitudeMeters>
            <DistanceMeters>NAN</DistanceMeters>
          </Trackpoint>
          <Trackpoint>
            <Time>2018-12-30T10:47:08.000Z</Time>
            <Position>
              <LatitudeDegrees>40.78191292472183704376220703125</LatitudeDegrees>
              <LongitudeDegrees>-4.07112347893416881561279296875</LongitudeDegrees>
            </Position>
            <AltitudeMeters>1562.800048828125</AltitudeMeters>
            <DistanceMeters>NAN</DistanceMeters>
          </Trackpoint>
          <Trackpoint>
            <Time>2018-12-30T10:47:09.000Z</Time>
            <Position>
              <LatitudeDegrees>40.78190110623836517333984375</LatitudeDegrees>
              <LongitudeDegrees>-4.07111660577356815338134765625</LongitudeDegrees>
            </Position>
            <AltitudeMeters>1563</AltitudeMeters>
            <DistanceMeters>NAN</DistanceMeters>
          </Trackpoint>
          <Trackpoint>
            <Time>2018-12-30T10:47:10.000Z</Time>
            <Position>
              <LatitudeDegrees>40.7818952389061450958251953125</LatitudeDegrees>
              <LongitudeDegrees>-4.071102775633335113525390625</LongitudeDegrees>
            </Position>
            <AltitudeMeters>1563</AltitudeMeters>
            <DistanceMeters>NAN</DistanceMeters>
          </Trackpoint>
          <Trackpoint>
            <Time>2018-12-30T10:47:11.000Z</Time>
            <Position>
              <LatitudeDegrees>40.78188442625105381011962890625</LatitudeDegrees>
              <LongitudeDegrees>-4.07109414227306842803955078125</LongitudeDegrees>
            </Position>
            <AltitudeMeters>1563</AltitudeMeters>
            <DistanceMeters>NAN</DistanceMeters>
          </Trackpoint>
          <Trackpoint>
            <Time>2018-12-30T10:47:12.000Z</Time>
            <Position>
              <LatitudeDegrees>40.78187763690948486328125</LatitudeDegrees>
              <LongitudeDegrees>-4.07107804901897907257080078125</LongitudeDegrees>
            </Position>
            <AltitudeMeters>1563</AltitudeMeters>
            <DistanceMeters>NAN</DistanceMeters>
          </Trackpoint>
          <Trackpoint>
            <Time>2018-12-30T10:47:13.000Z</Time>
            <Position>
              <LatitudeDegrees>40.78186514787375926971435546875</LatitudeDegrees>
              <LongitudeDegrees>-4.07106287777423858642578125</LongitudeDegrees>
            </Position>
            <AltitudeMeters>1563</AltitudeMeters>
            <DistanceMeters>NAN</DistanceMeters>
          </Trackpoint>
          <Trackpoint>
            <Time>2018-12-30T10:47:14.000Z</Time>
            <Position>
              <LatitudeDegrees>40.78184469603002071380615234375</LatitudeDegrees>
              <LongitudeDegrees>-4.0710254944860935211181640625</LongitudeDegrees>
            </Position>
            <AltitudeMeters>1563</AltitudeMeters>
            <DistanceMeters>NAN</DistanceMeters>
          </Trackpoint>
          <Trackpoint>
            <Time>2018-12-30T10:47:15.000Z</Time>
            <Position>
              <LatitudeDegrees>40.78183765523135662078857421875</LatitudeDegrees>
              <LongitudeDegrees>-4.07100629992783069610595703125</LongitudeDegrees>
            </Position>
            <AltitudeMeters>1563</AltitudeMeters>
            <DistanceMeters>NAN</DistanceMeters>
          </Trackpoint>
          <Trackpoint>
            <Time>2018-12-30T10:47:16.000Z</Time>
            <Position>
              <LatitudeDegrees>40.78183765523135662078857421875</LatitudeDegrees>
              <LongitudeDegrees>-4.07100629992783069610595703125</LongitudeDegrees>
            </Position>
            <AltitudeMeters>1563</AltitudeMeters>
            <DistanceMeters>NAN</DistanceMeters>
          </Trackpoint>
          <Trackpoint>
            <Time>2018-12-30T10:47:17.000Z</Time>
            <Position>
              <LatitudeDegrees>40.78181653283536434173583984375</LatitudeDegrees>
              <LongitudeDegrees>-4.070988111197948455810546875</LongitudeDegrees>
            </Position>
            <AltitudeMeters>1563</AltitudeMeters>
            <DistanceMeters>NAN</DistanceMeters>
          </Trackpoint>
          <Trackpoint>
            <Time>2018-12-30T10:47:18.000Z</Time>
            <Position>
              <LatitudeDegrees>40.78181653283536434173583984375</LatitudeDegrees>
              <LongitudeDegrees>-4.070988111197948455810546875</LongitudeDegrees>
            </Position>
            <AltitudeMeters>1563</AltitudeMeters>
            <DistanceMeters>NAN</DistanceMeters>
          </Trackpoint>
          <Trackpoint>
            <Time>2018-12-30T10:47:19.000Z</Time>
            <Position>
              <LatitudeDegrees>40.7818065583705902099609375</LatitudeDegrees>
              <LongitudeDegrees>-4.07098031602799892425537109375</LongitudeDegrees>
            </Position>
            <AltitudeMeters>1563</AltitudeMeters>
            <DistanceMeters>NAN</DistanceMeters>
          </Trackpoint>
          <Trackpoint>
            <Time>2018-12-30T10:47:20.000Z</Time>
            <Position>
              <LatitudeDegrees>40.781801529228687286376953125</LatitudeDegrees>
              <LongitudeDegrees>-4.070963971316814422607421875</LongitudeDegrees>
            </Position>
            <AltitudeMeters>1563.199951171875</AltitudeMeters>
            <DistanceMeters>NAN</DistanceMeters>
          </Trackpoint>
          <Trackpoint>
            <Time>2018-12-30T10:47:21.000Z</Time>
            <Position>
              <LatitudeDegrees>40.78179524280130863189697265625</LatitudeDegrees>
              <LongitudeDegrees>-4.07094913534820079803466796875</LongitudeDegrees>
            </Position>
            <AltitudeMeters>1563</AltitudeMeters>
            <DistanceMeters>NAN</DistanceMeters>
          </Trackpoint>
          <Trackpoint>
            <Time>2018-12-30T10:47:22.000Z</Time>
            <Position>
              <LatitudeDegrees>40.78179775737226009368896484375</LatitudeDegrees>
              <LongitudeDegrees>-4.07094486057758331298828125</LongitudeDegrees>
            </Position>
            <AltitudeMeters>1563</AltitudeMeters>
            <DistanceMeters>NAN</DistanceMeters>
          </Trackpoint>
          <Trackpoint>
            <Time>2018-12-30T10:47:23.000Z</Time>
            <Position>
              <LatitudeDegrees>40.78179473988711833953857421875</LatitudeDegrees>
              <LongitudeDegrees>-4.07094058580696582794189453125</LongitudeDegrees>
            </Position>
            <AltitudeMeters>1562.800048828125</AltitudeMeters>
            <DistanceMeters>NAN</DistanceMeters>
          </Trackpoint>
          <Trackpoint>
            <Time>2018-12-30T10:47:24.000Z</Time>
            <Position>
              <LatitudeDegrees>40.78179289586842060089111328125</LatitudeDegrees>
              <LongitudeDegrees>-4.07093438319861888885498046875</LongitudeDegrees>
            </Position>
            <AltitudeMeters>1562.800048828125</AltitudeMeters>
            <DistanceMeters>NAN</DistanceMeters>
          </Trackpoint>
          <Trackpoint>
            <Time>2018-12-30T10:47:25.000Z</Time>
            <Position>
              <LatitudeDegrees>40.78178619034588336944580078125</LatitudeDegrees>
              <LongitudeDegrees>-4.0709245763719081878662109375</LongitudeDegrees>
            </Position>
            <AltitudeMeters>1563</AltitudeMeters>
            <DistanceMeters>NAN</DistanceMeters>
          </Trackpoint>
          <Trackpoint>
            <Time>2018-12-30T10:47:26.000Z</Time>
            <Position>
              <LatitudeDegrees>40.78178116120398044586181640625</LatitudeDegrees>
              <LongitudeDegrees>-4.07091409899294376373291015625</LongitudeDegrees>
            </Position>
            <AltitudeMeters>1563</AltitudeMeters>
            <DistanceMeters>NAN</DistanceMeters>
          </Trackpoint>
          <Trackpoint>
            <Time>2018-12-30T10:47:27.000Z</Time>
            <Position>
              <LatitudeDegrees>40.78177194111049175262451171875</LatitudeDegrees>
              <LongitudeDegrees>-4.07091158442199230194091796875</LongitudeDegrees>
            </Position>
            <AltitudeMeters>1563</AltitudeMeters>
            <DistanceMeters>NAN</DistanceMeters>
          </Trackpoint>
          <Trackpoint>
            <Time>2018-12-30T10:47:28.000Z</Time>
            <Position>
              <LatitudeDegrees>40.78176825307309627532958984375</LatitudeDegrees>
              <LongitudeDegrees>-4.07089984975755214691162109375</LongitudeDegrees>
            </Position>
            <AltitudeMeters>1563</AltitudeMeters>
            <DistanceMeters>NAN</DistanceMeters>
          </Trackpoint>
          <Trackpoint>
            <Time>2018-12-30T10:47:29.000Z</Time>
            <Position>
              <LatitudeDegrees>40.7817544229328632354736328125</LatitudeDegrees>
              <LongitudeDegrees>-4.07089683227241039276123046875</LongitudeDegrees>
            </Position>
            <AltitudeMeters>1563</AltitudeMeters>
            <DistanceMeters>NAN</DistanceMeters>
          </Trackpoint>
          <Trackpoint>
            <Time>2018-12-30T10:47:30.000Z</Time>
            <Position>
              <LatitudeDegrees>40.78174193389713764190673828125</LatitudeDegrees>
              <LongitudeDegrees>-4.07089515589177608489990234375</LongitudeDegrees>
            </Position>
            <AltitudeMeters>1563</AltitudeMeters>
            <DistanceMeters>NAN</DistanceMeters>
          </Trackpoint>
          <Trackpoint>
            <Time>2018-12-30T10:47:31.000Z</Time>
            <Position>
              <LatitudeDegrees>40.781731791794300079345703125</LatitudeDegrees>
              <LongitudeDegrees>-4.07089163549244403839111328125</LongitudeDegrees>
            </Position>
            <AltitudeMeters>1563.199951171875</AltitudeMeters>
            <DistanceMeters>NAN</DistanceMeters>
          </Trackpoint>
          <Trackpoint>
            <Time>2018-12-30T10:47:32.000Z</Time>
            <Position>
              <LatitudeDegrees>40.7817262597382068634033203125</LatitudeDegrees>
              <LongitudeDegrees>-4.07087705098092555999755859375</LongitudeDegrees>
            </Position>
            <AltitudeMeters>1563.199951171875</AltitudeMeters>
            <DistanceMeters>NAN</DistanceMeters>
          </Trackpoint>
          <Trackpoint>
            <Time>2018-12-30T10:47:33.000Z</Time>
            <Position>
              <LatitudeDegrees>40.78170605935156345367431640625</LatitudeDegrees>
              <LongitudeDegrees>-4.0708722732961177825927734375</LongitudeDegrees>
            </Position>
            <AltitudeMeters>1563.199951171875</AltitudeMeters>
            <DistanceMeters>NAN</DistanceMeters>
          </Trackpoint>
          <Trackpoint>
            <Time>2018-12-30T10:47:34.000Z</Time>
            <Position>
              <LatitudeDegrees>40.78170304186642169952392578125</LatitudeDegrees>
              <LongitudeDegrees>-4.0708498097956180572509765625</LongitudeDegrees>
            </Position>
            <AltitudeMeters>1563.199951171875</AltitudeMeters>
            <DistanceMeters>NAN</DistanceMeters>
          </Trackpoint>
          <Trackpoint>
            <Time>2018-12-30T10:47:35.000Z</Time>
            <Position>
              <LatitudeDegrees>40.781694911420345306396484375</LatitudeDegrees>
              <LongitudeDegrees>-4.070837236940860748291015625</LongitudeDegrees>
            </Position>
            <AltitudeMeters>1563.5999755859375</AltitudeMeters>
            <DistanceMeters>NAN</DistanceMeters>
          </Trackpoint>
          <Trackpoint>
            <Time>2018-12-30T10:47:36.000Z</Time>
            <Position>
              <LatitudeDegrees>40.78169449232518672943115234375</LatitudeDegrees>
              <LongitudeDegrees>-4.07082189805805683135986328125</LongitudeDegrees>
            </Position>
            <AltitudeMeters>1564</AltitudeMeters>
            <DistanceMeters>NAN</DistanceMeters>
          </Trackpoint>
          <Trackpoint>
            <Time>2018-12-30T10:47:37.000Z</Time>
            <Position>
              <LatitudeDegrees>40.7816939055919647216796875</LatitudeDegrees>
              <LongitudeDegrees>-4.07080764882266521453857421875</LongitudeDegrees>
            </Position>
            <AltitudeMeters>1564.4000244140625</AltitudeMeters>
            <DistanceMeters>NAN</DistanceMeters>
          </Trackpoint>
          <Trackpoint>
            <Time>2018-12-30T10:47:38.000Z</Time>
            <Position>
              <LatitudeDegrees>40.78169331885874271392822265625</LatitudeDegrees>
              <LongitudeDegrees>-4.0707931481301784515380859375</LongitudeDegrees>
            </Position>
            <AltitudeMeters>1564.5999755859375</AltitudeMeters>
            <DistanceMeters>NAN</DistanceMeters>
          </Trackpoint>
          <Trackpoint>
            <Time>2018-12-30T10:47:39.000Z</Time>
            <Position>
              <LatitudeDegrees>40.78168108128011226654052734375</LatitudeDegrees>
              <LongitudeDegrees>-4.07078987918794155120849609375</LongitudeDegrees>
            </Position>
            <AltitudeMeters>1564.800048828125</AltitudeMeters>
            <DistanceMeters>NAN</DistanceMeters>
          </Trackpoint>
          <Trackpoint>
            <Time>2018-12-30T10:47:40.000Z</Time>
            <Position>
              <LatitudeDegrees>40.78167303465306758880615234375</LatitudeDegrees>
              <LongitudeDegrees>-4.07078384421765804290771484375</LongitudeDegrees>
            </Position>
            <AltitudeMeters>1565</AltitudeMeters>
            <DistanceMeters>NAN</DistanceMeters>
          </Trackpoint>
          <Trackpoint>
            <Time>2018-12-30T10:47:41.000Z</Time>
            <Position>
              <LatitudeDegrees>40.78166733495891094207763671875</LatitudeDegrees>
              <LongitudeDegrees>-4.07077194191515445709228515625</LongitudeDegrees>
            </Position>
            <AltitudeMeters>1565.199951171875</AltitudeMeters>
            <DistanceMeters>NAN</DistanceMeters>
          </Trackpoint>
          <Trackpoint>
            <Time>2018-12-30T10:47:42.000Z</Time>
            <Position>
              <LatitudeDegrees>40.7816652394831180572509765625</LatitudeDegrees>
              <LongitudeDegrees>-4.07075752504169940948486328125</LongitudeDegrees>
            </Position>
            <AltitudeMeters>1565.199951171875</AltitudeMeters>
            <DistanceMeters>NAN</DistanceMeters>
          </Trackpoint>
          <Trackpoint>
            <Time>2018-12-30T10:47:43.000Z</Time>
            <Position>
              <LatitudeDegrees>40.7816642336547374725341796875</LatitudeDegrees>
              <LongitudeDegrees>-4.0707443654537200927734375</LongitudeDegrees>
            </Position>
            <AltitudeMeters>1565.199951171875</AltitudeMeters>
            <DistanceMeters>NAN</DistanceMeters>
          </Trackpoint>
          <Trackpoint>
            <Time>2018-12-30T10:47:44.000Z</Time>
            <Position>
              <LatitudeDegrees>40.7816635631024837493896484375</LatitudeDegrees>
              <LongitudeDegrees>-4.07073162496089935302734375</LongitudeDegrees>
            </Position>
            <AltitudeMeters>1565.199951171875</AltitudeMeters>
            <DistanceMeters>NAN</DistanceMeters>
          </Trackpoint>
          <Trackpoint>
            <Time>2018-12-30T10:47:45.000Z</Time>
            <Position>
              <LatitudeDegrees>40.781660713255405426025390625</LatitudeDegrees>
              <LongitudeDegrees>-4.0707193873822689056396484375</LongitudeDegrees>
            </Position>
            <AltitudeMeters>1565</AltitudeMeters>
            <DistanceMeters>NAN</DistanceMeters>
          </Trackpoint>
          <Trackpoint>
            <Time>2018-12-30T10:47:46.000Z</Time>
            <Position>
              <LatitudeDegrees>40.78165702521800994873046875</LatitudeDegrees>
              <LongitudeDegrees>-4.0707086585462093353271484375</LongitudeDegrees>
            </Position>
            <AltitudeMeters>1564.800048828125</AltitudeMeters>
            <DistanceMeters>NAN</DistanceMeters>
          </Trackpoint>
          <Trackpoint>
            <Time>2018-12-30T10:47:47.000Z</Time>
            <Position>
              <LatitudeDegrees>40.78165434300899505615234375</LatitudeDegrees>
              <LongitudeDegrees>-4.07070019282400608062744140625</LongitudeDegrees>
            </Position>
            <AltitudeMeters>1564.5999755859375</AltitudeMeters>
            <DistanceMeters>NAN</DistanceMeters>
          </Trackpoint>
          <Trackpoint>
            <Time>2018-12-30T10:47:48.000Z</Time>
            <Position>
              <LatitudeDegrees>40.7816504873335361480712890625</LatitudeDegrees>
              <LongitudeDegrees>-4.07069013454020023345947265625</LongitudeDegrees>
            </Position>
            <AltitudeMeters>1564.4000244140625</AltitudeMeters>
            <DistanceMeters>NAN</DistanceMeters>
          </Trackpoint>
          <Trackpoint>
            <Time>2018-12-30T10:47:49.000Z</Time>
            <Position>
              <LatitudeDegrees>40.78164939768612384796142578125</LatitudeDegrees>
              <LongitudeDegrees>-4.07067739404737949371337890625</LongitudeDegrees>
            </Position>
            <AltitudeMeters>1564.5999755859375</AltitudeMeters>
            <DistanceMeters>NAN</DistanceMeters>
          </Trackpoint>
          <Trackpoint>
            <Time>2018-12-30T10:47:50.000Z</Time>
            <Position>
              <LatitudeDegrees>40.78164629638195037841796875</LatitudeDegrees>
              <LongitudeDegrees>-4.0706677548587322235107421875</LongitudeDegrees>
            </Position>
            <AltitudeMeters>1564.5999755859375</AltitudeMeters>
            <DistanceMeters>NAN</DistanceMeters>
          </Trackpoint>
          <Trackpoint>
            <Time>2018-12-30T10:47:51.000Z</Time>
            <Position>
              <LatitudeDegrees>40.78163833357393741607666015625</LatitudeDegrees>
              <LongitudeDegrees>-4.07065643928945064544677734375</LongitudeDegrees>
            </Position>
            <AltitudeMeters>1564.800048828125</AltitudeMeters>
            <DistanceMeters>NAN</DistanceMeters>
          </Trackpoint>
          <Trackpoint>
            <Time>2018-12-30T10:47:52.000Z</Time>
            <Position>
              <LatitudeDegrees>40.78163598664104938507080078125</LatitudeDegrees>
              <LongitudeDegrees>-4.07063783146440982818603515625</LongitudeDegrees>
            </Position>
            <AltitudeMeters>1565</AltitudeMeters>
            <DistanceMeters>NAN</DistanceMeters>
          </Trackpoint>
          <Trackpoint>
            <Time>2018-12-30T10:47:53.000Z</Time>
            <Position>
              <LatitudeDegrees>40.78163615427911281585693359375</LatitudeDegrees>
              <LongitudeDegrees>-4.07062165439128875732421875</LongitudeDegrees>
            </Position>
            <AltitudeMeters>1565.199951171875</AltitudeMeters>
            <DistanceMeters>NAN</DistanceMeters>
          </Trackpoint>
          <Trackpoint>
            <Time>2018-12-30T10:47:54.000Z</Time>
            <Position>
              <LatitudeDegrees>40.78163280151784420013427734375</LatitudeDegrees>
              <LongitudeDegrees>-4.070608578622341156005859375</LongitudeDegrees>
            </Position>
            <AltitudeMeters>1565.199951171875</AltitudeMeters>
            <DistanceMeters>NAN</DistanceMeters>
          </Trackpoint>
          <Trackpoint>
            <Time>2018-12-30T10:47:55.000Z</Time>
            <Position>
              <LatitudeDegrees>40.78163062222301959991455078125</LatitudeDegrees>
              <LongitudeDegrees>-4.07059743069112300872802734375</LongitudeDegrees>
            </Position>
            <AltitudeMeters>1565.5999755859375</AltitudeMeters>
            <DistanceMeters>NAN</DistanceMeters>
          </Trackpoint>
          <Trackpoint>
            <Time>2018-12-30T10:47:56.000Z</Time>
            <Position>
              <LatitudeDegrees>40.78162676654756069183349609375</LatitudeDegrees>
              <LongitudeDegrees>-4.07058200798928737640380859375</LongitudeDegrees>
            </Position>
            <AltitudeMeters>1565.5999755859375</AltitudeMeters>
            <DistanceMeters>NAN</DistanceMeters>
          </Trackpoint>
          <Trackpoint>
            <Time>2018-12-30T10:47:57.000Z</Time>
            <Position>
              <LatitudeDegrees>40.78161939047276973724365234375</LatitudeDegrees>
              <LongitudeDegrees>-4.0705722011625766754150390625</LongitudeDegrees>
            </Position>
            <AltitudeMeters>1565.800048828125</AltitudeMeters>
            <DistanceMeters>NAN</DistanceMeters>
          </Trackpoint>
          <Trackpoint>
            <Time>2018-12-30T10:47:58.000Z</Time>
            <Position>
              <LatitudeDegrees>40.78161637298762798309326171875</LatitudeDegrees>
              <LongitudeDegrees>-4.07055602408945560455322265625</LongitudeDegrees>
            </Position>
            <AltitudeMeters>1566</AltitudeMeters>
            <DistanceMeters>NAN</DistanceMeters>
          </Trackpoint>
          <Trackpoint>
            <Time>2018-12-30T10:47:59.000Z</Time>
            <Position>
              <LatitudeDegrees>40.7816260121762752532958984375</LatitudeDegrees>
              <LongitudeDegrees>-4.0705198980867862701416015625</LongitudeDegrees>
            </Position>
            <AltitudeMeters>1566.199951171875</AltitudeMeters>
            <DistanceMeters>NAN</DistanceMeters>
          </Trackpoint>
          <Trackpoint>
            <Time>2018-12-30T10:48:00.000Z</Time>
            <Position>
              <LatitudeDegrees>40.7816268503665924072265625</LatitudeDegrees>
              <LongitudeDegrees>-4.0705054812133312225341796875</LongitudeDegrees>
            </Position>
            <AltitudeMeters>1566.4000244140625</AltitudeMeters>
            <DistanceMeters>NAN</DistanceMeters>
          </Trackpoint>
          <Trackpoint>
            <Time>2018-12-30T10:48:01.000Z</Time>
            <Position>
              <LatitudeDegrees>40.78162886202335357666015625</LatitudeDegrees>
              <LongitudeDegrees>-4.07049424946308135986328125</LongitudeDegrees>
            </Position>
            <AltitudeMeters>1566.4000244140625</AltitudeMeters>
            <DistanceMeters>NAN</DistanceMeters>
          </Trackpoint>
          <Trackpoint>
            <Time>2018-12-30T10:48:02.000Z</Time>
            <Position>
              <LatitudeDegrees>40.7816290296614170074462890625</LatitudeDegrees>
              <LongitudeDegrees>-4.0704773180186748504638671875</LongitudeDegrees>
            </Position>
            <AltitudeMeters>1566.5999755859375</AltitudeMeters>
            <DistanceMeters>NAN</DistanceMeters>
          </Trackpoint>
          <Trackpoint>
            <Time>2018-12-30T10:48:03.000Z</Time>
            <Position>
              <LatitudeDegrees>40.78163045458495616912841796875</LatitudeDegrees>
              <LongitudeDegrees>-4.0704561956226825714111328125</LongitudeDegrees>
            </Position>
            <AltitudeMeters>1567</AltitudeMeters>
            <DistanceMeters>NAN</DistanceMeters>
          </Trackpoint>
          <Trackpoint>
            <Time>2018-12-30T10:48:04.000Z</Time>
            <Position>
              <LatitudeDegrees>40.78163213096559047698974609375</LatitudeDegrees>
              <LongitudeDegrees>-4.0704374201595783233642578125</LongitudeDegrees>
            </Position>
            <AltitudeMeters>1567</AltitudeMeters>
            <DistanceMeters>NAN</DistanceMeters>
          </Trackpoint>
          <Trackpoint>
            <Time>2018-12-30T10:48:05.000Z</Time>
            <Position>
              <LatitudeDegrees>40.7816327176988124847412109375</LatitudeDegrees>
              <LongitudeDegrees>-4.070422835648059844970703125</LongitudeDegrees>
            </Position>
            <AltitudeMeters>1567.199951171875</AltitudeMeters>
            <DistanceMeters>NAN</DistanceMeters>
          </Trackpoint>
          <Trackpoint>
            <Time>2018-12-30T10:48:06.000Z</Time>
            <Position>
              <LatitudeDegrees>40.78162877820432186126708984375</LatitudeDegrees>
              <LongitudeDegrees>-4.0704095922410488128662109375</LongitudeDegrees>
            </Position>
            <AltitudeMeters>1567.199951171875</AltitudeMeters>
            <DistanceMeters>NAN</DistanceMeters>
          </Trackpoint>
          <Trackpoint>
            <Time>2018-12-30T10:48:07.000Z</Time>
            <Position>
              <LatitudeDegrees>40.78162659890949726104736328125</LatitudeDegrees>
              <LongitudeDegrees>-4.0703961811959743499755859375</LongitudeDegrees>
            </Position>
            <AltitudeMeters>1567.4000244140625</AltitudeMeters>
            <DistanceMeters>NAN</DistanceMeters>
          </Trackpoint>
          <Trackpoint>
            <Time>2018-12-30T10:48:08.000Z</Time>
            <Position>
              <LatitudeDegrees>40.781626515090465545654296875</LatitudeDegrees>
              <LongitudeDegrees>-4.07037966884672641754150390625</LongitudeDegrees>
            </Position>
            <AltitudeMeters>1567.4000244140625</AltitudeMeters>
            <DistanceMeters>NAN</DistanceMeters>
          </Trackpoint>
          <Trackpoint>
            <Time>2018-12-30T10:48:09.000Z</Time>
            <Position>
              <LatitudeDegrees>40.781622827053070068359375</LatitudeDegrees>
              <LongitudeDegrees>-4.0703686885535717010498046875</LongitudeDegrees>
            </Position>
            <AltitudeMeters>1567.4000244140625</AltitudeMeters>
            <DistanceMeters>NAN</DistanceMeters>
          </Trackpoint>
          <Trackpoint>
            <Time>2018-12-30T10:48:10.000Z</Time>
            <Position>
              <LatitudeDegrees>40.78161519952118396759033203125</LatitudeDegrees>
              <LongitudeDegrees>-4.07036005519330501556396484375</LongitudeDegrees>
            </Position>
            <AltitudeMeters>1567.199951171875</AltitudeMeters>
            <DistanceMeters>NAN</DistanceMeters>
          </Trackpoint>
          <Trackpoint>
            <Time>2018-12-30T10:48:11.000Z</Time>
            <Position>
              <LatitudeDegrees>40.7816069014370441436767578125</LatitudeDegrees>
              <LongitudeDegrees>-4.0703432075679302215576171875</LongitudeDegrees>
            </Position>
            <AltitudeMeters>1567.199951171875</AltitudeMeters>
            <DistanceMeters>NAN</DistanceMeters>
          </Trackpoint>
          <Trackpoint>
            <Time>2018-12-30T10:48:12.000Z</Time>
            <Position>
              <LatitudeDegrees>40.78160212375223636627197265625</LatitudeDegrees>
              <LongitudeDegrees>-4.07033155672252178192138671875</LongitudeDegrees>
            </Position>
            <AltitudeMeters>1567.199951171875</AltitudeMeters>
            <DistanceMeters>NAN</DistanceMeters>
          </Trackpoint>
          <Trackpoint>
            <Time>2018-12-30T10:48:13.000Z</Time>
            <Position>
              <LatitudeDegrees>40.781599022448062896728515625</LatitudeDegrees>
              <LongitudeDegrees>-4.0703150443732738494873046875</LongitudeDegrees>
            </Position>
            <AltitudeMeters>1567.199951171875</AltitudeMeters>
            <DistanceMeters>NAN</DistanceMeters>
          </Trackpoint>
          <Trackpoint>
            <Time>2018-12-30T10:48:14.000Z</Time>
            <Position>
              <LatitudeDegrees>40.7815978489816188812255859375</LatitudeDegrees>
              <LongitudeDegrees>-4.07029869966208934783935546875</LongitudeDegrees>
            </Position>
            <AltitudeMeters>1567.199951171875</AltitudeMeters>
            <DistanceMeters>NAN</DistanceMeters>
          </Trackpoint>
          <Trackpoint>
            <Time>2018-12-30T10:48:15.000Z</Time>
            <Position>
              <LatitudeDegrees>40.78159608878195285797119140625</LatitudeDegrees>
              <LongitudeDegrees>-4.07029082067310810089111328125</LongitudeDegrees>
            </Position>
            <AltitudeMeters>1567.199951171875</AltitudeMeters>
            <DistanceMeters>NAN</DistanceMeters>
          </Trackpoint>
          <Trackpoint>
            <Time>2018-12-30T10:48:16.000Z</Time>
            <Position>
              <LatitudeDegrees>40.78159742988646030426025390625</LatitudeDegrees>
              <LongitudeDegrees>-4.07027875073254108428955078125</LongitudeDegrees>
            </Position>
            <AltitudeMeters>1567.199951171875</AltitudeMeters>
            <DistanceMeters>NAN</DistanceMeters>
          </Trackpoint>
          <Trackpoint>
            <Time>2018-12-30T10:48:17.000Z</Time>
            <Position>
              <LatitudeDegrees>40.78159994445741176605224609375</LatitudeDegrees>
              <LongitudeDegrees>-4.0702657587826251983642578125</LongitudeDegrees>
            </Position>
            <AltitudeMeters>1567.4000244140625</AltitudeMeters>
            <DistanceMeters>NAN</DistanceMeters>
          </Trackpoint>
          <Trackpoint>
            <Time>2018-12-30T10:48:18.000Z</Time>
            <Position>
              <LatitudeDegrees>40.78160111792385578155517578125</LatitudeDegrees>
              <LongitudeDegrees>-4.0702536888420581817626953125</LongitudeDegrees>
            </Position>
            <AltitudeMeters>1567.4000244140625</AltitudeMeters>
            <DistanceMeters>NAN</DistanceMeters>
          </Trackpoint>
          <Trackpoint>
            <Time>2018-12-30T10:48:19.000Z</Time>
            <Position>
              <LatitudeDegrees>40.78159977681934833526611328125</LatitudeDegrees>
              <LongitudeDegrees>-4.0702352486550807952880859375</LongitudeDegrees>
            </Position>
            <AltitudeMeters>1567.5999755859375</AltitudeMeters>
            <DistanceMeters>NAN</DistanceMeters>
          </Trackpoint>
          <Trackpoint>
            <Time>2018-12-30T10:48:20.000Z</Time>
            <Position>
              <LatitudeDegrees>40.78160027973353862762451171875</LatitudeDegrees>
              <LongitudeDegrees>-4.070228375494480133056640625</LongitudeDegrees>
            </Position>
            <AltitudeMeters>1567.800048828125</AltitudeMeters>
            <DistanceMeters>NAN</DistanceMeters>
          </Trackpoint>
          <Trackpoint>
            <Time>2018-12-30T10:48:21.000Z</Time>
            <Position>
              <LatitudeDegrees>40.781601034104824066162109375</LatitudeDegrees>
              <LongitudeDegrees>-4.0702225081622600555419921875</LongitudeDegrees>
            </Position>
            <AltitudeMeters>1567.800048828125</AltitudeMeters>
            <DistanceMeters>NAN</DistanceMeters>
          </Trackpoint>
          <Trackpoint>
            <Time>2018-12-30T10:48:22.000Z</Time>
            <Position>
              <LatitudeDegrees>40.78159843571484088897705078125</LatitudeDegrees>
              <LongitudeDegrees>-4.0702050738036632537841796875</LongitudeDegrees>
            </Position>
            <AltitudeMeters>1567.800048828125</AltitudeMeters>
            <DistanceMeters>NAN</DistanceMeters>
          </Trackpoint>
          <Trackpoint>
            <Time>2018-12-30T10:48:23.000Z</Time>
            <Position>
              <LatitudeDegrees>40.7815978489816188812255859375</LatitudeDegrees>
              <LongitudeDegrees>-4.07018336467444896697998046875</LongitudeDegrees>
            </Position>
            <AltitudeMeters>1568</AltitudeMeters>
            <DistanceMeters>NAN</DistanceMeters>
          </Trackpoint>
          <Trackpoint>
            <Time>2018-12-30T10:48:24.000Z</Time>
            <Position>
              <LatitudeDegrees>40.7815961726009845733642578125</LatitudeDegrees>
              <LongitudeDegrees>-4.07016593031585216522216796875</LongitudeDegrees>
            </Position>
            <AltitudeMeters>1568</AltitudeMeters>
            <DistanceMeters>NAN</DistanceMeters>
          </Trackpoint>
          <Trackpoint>
            <Time>2018-12-30T10:48:25.000Z</Time>
            <Position>
              <LatitudeDegrees>40.781601704657077789306640625</LatitudeDegrees>
              <LongitudeDegrees>-4.07015603967010974884033203125</LongitudeDegrees>
            </Position>
            <AltitudeMeters>1568.199951171875</AltitudeMeters>
            <DistanceMeters>NAN</DistanceMeters>
          </Trackpoint>
          <Trackpoint>
            <Time>2018-12-30T10:48:26.000Z</Time>
            <Position>
              <LatitudeDegrees>40.78160338103771209716796875</LatitudeDegrees>
              <LongitudeDegrees>-4.07014145515859127044677734375</LongitudeDegrees>
            </Position>
            <AltitudeMeters>1568.199951171875</AltitudeMeters>
            <DistanceMeters>NAN</DistanceMeters>
          </Trackpoint>
          <Trackpoint>
            <Time>2018-12-30T10:48:27.000Z</Time>
            <Position>
              <LatitudeDegrees>40.781609080731868743896484375</LatitudeDegrees>
              <LongitudeDegrees>-4.07012301497161388397216796875</LongitudeDegrees>
            </Position>
            <AltitudeMeters>1568.4000244140625</AltitudeMeters>
            <DistanceMeters>NAN</DistanceMeters>
          </Trackpoint>
          <Trackpoint>
            <Time>2018-12-30T10:48:28.000Z</Time>
            <Position>
              <LatitudeDegrees>40.781614445149898529052734375</LatitudeDegrees>
              <LongitudeDegrees>-4.07011329196393489837646484375</LongitudeDegrees>
            </Position>
            <AltitudeMeters>1568.5999755859375</AltitudeMeters>
            <DistanceMeters>NAN</DistanceMeters>
          </Trackpoint>
          <Trackpoint>
            <Time>2018-12-30T10:48:29.000Z</Time>
            <Position>
              <LatitudeDegrees>40.78161989338696002960205078125</LatitudeDegrees>
              <LongitudeDegrees>-4.07010021619498729705810546875</LongitudeDegrees>
            </Position>
            <AltitudeMeters>1568.800048828125</AltitudeMeters>
            <DistanceMeters>NAN</DistanceMeters>
          </Trackpoint>
          <Trackpoint>
            <Time>2018-12-30T10:48:30.000Z</Time>
            <Position>
              <LatitudeDegrees>40.78162291087210178375244140625</LatitudeDegrees>
              <LongitudeDegrees>-4.07008378766477108001708984375</LongitudeDegrees>
            </Position>
            <AltitudeMeters>1569</AltitudeMeters>
            <DistanceMeters>NAN</DistanceMeters>
          </Trackpoint>
          <Trackpoint>
            <Time>2018-12-30T10:48:31.000Z</Time>
            <Position>
              <LatitudeDegrees>40.78162810765206813812255859375</LatitudeDegrees>
              <LongitudeDegrees>-4.07006853260099887847900390625</LongitudeDegrees>
            </Position>
            <AltitudeMeters>1569</AltitudeMeters>
            <DistanceMeters>NAN</DistanceMeters>
          </Trackpoint>
          <Trackpoint>
            <Time>2018-12-30T10:48:32.000Z</Time>
            <Position>
              <LatitudeDegrees>40.7816333882510662078857421875</LatitudeDegrees>
              <LongitudeDegrees>-4.0700568817555904388427734375</LongitudeDegrees>
            </Position>
            <AltitudeMeters>1569.199951171875</AltitudeMeters>
            <DistanceMeters>NAN</DistanceMeters>
          </Trackpoint>
          <Trackpoint>
            <Time>2018-12-30T10:48:33.000Z</Time>
            <Position>
              <LatitudeDegrees>40.781637243926525115966796875</LatitudeDegrees>
              <LongitudeDegrees>-4.07004523091018199920654296875</LongitudeDegrees>
            </Position>
            <AltitudeMeters>1569.199951171875</AltitudeMeters>
            <DistanceMeters>NAN</DistanceMeters>
          </Trackpoint>
          <Trackpoint>
            <Time>2018-12-30T10:48:34.000Z</Time>
            <Position>
              <LatitudeDegrees>40.7816377468407154083251953125</LatitudeDegrees>
              <LongitudeDegrees>-4.07002662308514118194580078125</LongitudeDegrees>
            </Position>
            <AltitudeMeters>1569.199951171875</AltitudeMeters>
            <DistanceMeters>NAN</DistanceMeters>
          </Trackpoint>
          <Trackpoint>
            <Time>2018-12-30T10:48:35.000Z</Time>
            <Position>
              <LatitudeDegrees>40.78164000995457172393798828125</LatitudeDegrees>
              <LongitudeDegrees>-4.07000667415559291839599609375</LongitudeDegrees>
            </Position>
            <AltitudeMeters>1569.4000244140625</AltitudeMeters>
            <DistanceMeters>NAN</DistanceMeters>
          </Trackpoint>
          <Trackpoint>
            <Time>2018-12-30T10:48:36.000Z</Time>
            <Position>
              <LatitudeDegrees>40.7816456258296966552734375</LatitudeDegrees>
              <LongitudeDegrees>-4.0699911676347255706787109375</LongitudeDegrees>
            </Position>
            <AltitudeMeters>1569.5999755859375</AltitudeMeters>
            <DistanceMeters>NAN</DistanceMeters>
          </Trackpoint>
          <Trackpoint>
            <Time>2018-12-30T10:48:37.000Z</Time>
            <Position>
              <LatitudeDegrees>40.7816508226096630096435546875</LatitudeDegrees>
              <LongitudeDegrees>-4.06997851096093654632568359375</LongitudeDegrees>
            </Position>
            <AltitudeMeters>1569.800048828125</AltitudeMeters>
            <DistanceMeters>NAN</DistanceMeters>
          </Trackpoint>
          <Trackpoint>
            <Time>2018-12-30T10:48:38.000Z</Time>
            <Position>
              <LatitudeDegrees>40.7816561870276927947998046875</LatitudeDegrees>
              <LongitudeDegrees>-4.0699666924774646759033203125</LongitudeDegrees>
            </Position>
            <AltitudeMeters>1569.800048828125</AltitudeMeters>
            <DistanceMeters>NAN</DistanceMeters>
          </Trackpoint>
          <Trackpoint>
            <Time>2018-12-30T10:48:39.000Z</Time>
            <Position>
              <LatitudeDegrees>40.78166104853153228759765625</LatitudeDegrees>
              <LongitudeDegrees>-4.0699573047459125518798828125</LongitudeDegrees>
            </Position>
            <AltitudeMeters>1570</AltitudeMeters>
            <DistanceMeters>NAN</DistanceMeters>
          </Trackpoint>
          <Trackpoint>
            <Time>2018-12-30T10:48:40.000Z</Time>
            <Position>
              <LatitudeDegrees>40.78166507184505462646484375</LatitudeDegrees>
              <LongitudeDegrees>-4.0699462406337261199951171875</LongitudeDegrees>
            </Position>
            <AltitudeMeters>1570</AltitudeMeters>
            <DistanceMeters>NAN</DistanceMeters>
          </Trackpoint>
          <Trackpoint>
            <Time>2018-12-30T10:48:41.000Z</Time>
            <Position>
              <LatitudeDegrees>40.78166917897760868072509765625</LatitudeDegrees>
              <LongitudeDegrees>-4.06993274576961994171142578125</LongitudeDegrees>
            </Position>
            <AltitudeMeters>1570</AltitudeMeters>
            <DistanceMeters>NAN</DistanceMeters>
          </Trackpoint>
          <Trackpoint>
            <Time>2018-12-30T10:48:42.000Z</Time>
            <Position>
              <LatitudeDegrees>40.78167177736759185791015625</LatitudeDegrees>
              <LongitudeDegrees>-4.0699221007525920867919921875</LongitudeDegrees>
            </Position>
            <AltitudeMeters>1570</AltitudeMeters>
            <DistanceMeters>NAN</DistanceMeters>
          </Trackpoint>
          <Trackpoint>
            <Time>2018-12-30T10:48:43.000Z</Time>
            <Position>
              <LatitudeDegrees>40.78166951425373554229736328125</LatitudeDegrees>
              <LongitudeDegrees>-4.0699100308120250701904296875</LongitudeDegrees>
            </Position>
            <AltitudeMeters>1570</AltitudeMeters>
            <DistanceMeters>NAN</DistanceMeters>
          </Trackpoint>
          <Trackpoint>
            <Time>2018-12-30T10:48:44.000Z</Time>
            <Position>
              <LatitudeDegrees>40.7816719450056552886962890625</LatitudeDegrees>
              <LongitudeDegrees>-4.06989209353923797607421875</LongitudeDegrees>
            </Position>
            <AltitudeMeters>1570.199951171875</AltitudeMeters>
            <DistanceMeters>NAN</DistanceMeters>
          </Trackpoint>
          <Trackpoint>
            <Time>2018-12-30T10:48:45.000Z</Time>
            <Position>
              <LatitudeDegrees>40.7816702686250209808349609375</LatitudeDegrees>
              <LongitudeDegrees>-4.0698806941509246826171875</LongitudeDegrees>
            </Position>
            <AltitudeMeters>1570.4000244140625</AltitudeMeters>
            <DistanceMeters>NAN</DistanceMeters>
          </Trackpoint>
          <Trackpoint>
            <Time>2018-12-30T10:48:46.000Z</Time>
            <Position>
              <LatitudeDegrees>40.78167102299630641937255859375</LatitudeDegrees>
              <LongitudeDegrees>-4.06987038441002368927001953125</LongitudeDegrees>
            </Position>
            <AltitudeMeters>1570.5999755859375</AltitudeMeters>
            <DistanceMeters>NAN</DistanceMeters>
          </Trackpoint>
          <Trackpoint>
            <Time>2018-12-30T10:48:47.000Z</Time>
            <Position>
              <LatitudeDegrees>40.78166632913053035736083984375</LatitudeDegrees>
              <LongitudeDegrees>-4.0698637627065181732177734375</LongitudeDegrees>
            </Position>
            <AltitudeMeters>1570.800048828125</AltitudeMeters>
            <DistanceMeters>NAN</DistanceMeters>
          </Trackpoint>
          <Trackpoint>
            <Time>2018-12-30T10:48:48.000Z</Time>
            <Position>
              <LatitudeDegrees>40.781666748225688934326171875</LatitudeDegrees>
              <LongitudeDegrees>-4.06985311768949031829833984375</LongitudeDegrees>
            </Position>
            <AltitudeMeters>1570.800048828125</AltitudeMeters>
            <DistanceMeters>NAN</DistanceMeters>
          </Trackpoint>
          <Trackpoint>
            <Time>2018-12-30T10:48:49.000Z</Time>
            <Position>
              <LatitudeDegrees>40.7816662453114986419677734375</LatitudeDegrees>
              <LongitudeDegrees>-4.0698345936834812164306640625</LongitudeDegrees>
            </Position>
            <AltitudeMeters>1570.800048828125</AltitudeMeters>
            <DistanceMeters>NAN</DistanceMeters>
          </Trackpoint>
          <Trackpoint>
            <Time>2018-12-30T10:48:50.000Z</Time>
            <Position>
              <LatitudeDegrees>40.78166180290281772613525390625</LatitudeDegrees>
              <LongitudeDegrees>-4.069811962544918060302734375</LongitudeDegrees>
            </Position>
            <AltitudeMeters>1570.800048828125</AltitudeMeters>
            <DistanceMeters>NAN</DistanceMeters>
          </Trackpoint>
          <Trackpoint>
            <Time>2018-12-30T10:48:51.000Z</Time>
            <Position>
              <LatitudeDegrees>40.78166012652218341827392578125</LatitudeDegrees>
              <LongitudeDegrees>-4.06978991813957691192626953125</LongitudeDegrees>
            </Position>
            <AltitudeMeters>1571</AltitudeMeters>
            <DistanceMeters>NAN</DistanceMeters>
          </Trackpoint>
          <Trackpoint>
            <Time>2018-12-30T10:48:52.000Z</Time>
            <Position>
              <LatitudeDegrees>40.78166129998862743377685546875</LatitudeDegrees>
              <LongitudeDegrees>-4.06978036276996135711669921875</LongitudeDegrees>
            </Position>
            <AltitudeMeters>1571</AltitudeMeters>
            <DistanceMeters>NAN</DistanceMeters>
          </Trackpoint>
          <Trackpoint>
            <Time>2018-12-30T10:48:53.000Z</Time>
            <Position>
              <LatitudeDegrees>40.78166431747376918792724609375</LatitudeDegrees>
              <LongitudeDegrees>-4.06977416016161441802978515625</LongitudeDegrees>
            </Position>
            <AltitudeMeters>1571</AltitudeMeters>
            <DistanceMeters>NAN</DistanceMeters>
          </Trackpoint>
          <Trackpoint>
            <Time>2018-12-30T10:48:54.000Z</Time>
            <Position>
              <LatitudeDegrees>40.7816685922443866729736328125</LatitudeDegrees>
              <LongitudeDegrees>-4.06976602971553802490234375</LongitudeDegrees>
            </Position>
            <AltitudeMeters>1571.199951171875</AltitudeMeters>
            <DistanceMeters>NAN</DistanceMeters>
          </Trackpoint>
          <Trackpoint>
            <Time>2018-12-30T10:48:55.000Z</Time>
            <Position>
              <LatitudeDegrees>40.781670100986957550048828125</LatitudeDegrees>
              <LongitudeDegrees>-4.06975588761270046234130859375</LongitudeDegrees>
            </Position>
            <AltitudeMeters>1571.199951171875</AltitudeMeters>
            <DistanceMeters>NAN</DistanceMeters>
          </Trackpoint>
          <Trackpoint>
            <Time>2018-12-30T10:48:56.000Z</Time>
            <Position>
              <LatitudeDegrees>40.78166850842535495758056640625</LatitudeDegrees>
              <LongitudeDegrees>-4.0697465837001800537109375</LongitudeDegrees>
            </Position>
            <AltitudeMeters>1571.4000244140625</AltitudeMeters>
            <DistanceMeters>NAN</DistanceMeters>
          </Trackpoint>
          <Trackpoint>
            <Time>2018-12-30T10:48:57.000Z</Time>
            <Position>
              <LatitudeDegrees>40.7816697657108306884765625</LatitudeDegrees>
              <LongitudeDegrees>-4.06973744742572307586669921875</LongitudeDegrees>
            </Position>
            <AltitudeMeters>1571.5999755859375</AltitudeMeters>
            <DistanceMeters>NAN</DistanceMeters>
          </Trackpoint>
          <Trackpoint>
            <Time>2018-12-30T10:48:58.000Z</Time>
            <Position>
              <LatitudeDegrees>40.78167311847209930419921875</LatitudeDegrees>
              <LongitudeDegrees>-4.06972655095160007476806640625</LongitudeDegrees>
            </Position>
            <AltitudeMeters>1571.800048828125</AltitudeMeters>
            <DistanceMeters>NAN</DistanceMeters>
          </Trackpoint>
          <Trackpoint>
            <Time>2018-12-30T10:48:59.000Z</Time>
            <Position>
              <LatitudeDegrees>40.78167504630982875823974609375</LatitudeDegrees>
              <LongitudeDegrees>-4.0697179175913333892822265625</LongitudeDegrees>
            </Position>
            <AltitudeMeters>1571.800048828125</AltitudeMeters>
            <DistanceMeters>NAN</DistanceMeters>
          </Trackpoint>
          <Trackpoint>
            <Time>2018-12-30T10:49:00.000Z</Time>
            <Position>
              <LatitudeDegrees>40.781678818166255950927734375</LatitudeDegrees>
              <LongitudeDegrees>-4.06970375217497348785400390625</LongitudeDegrees>
            </Position>
            <AltitudeMeters>1572</AltitudeMeters>
            <DistanceMeters>NAN</DistanceMeters>
          </Trackpoint>
          <Trackpoint>
            <Time>2018-12-30T10:49:01.000Z</Time>
            <Position>
              <LatitudeDegrees>40.78168250620365142822265625</LatitudeDegrees>
              <LongitudeDegrees>-4.06969168223440647125244140625</LongitudeDegrees>
            </Position>
            <AltitudeMeters>1572.199951171875</AltitudeMeters>
            <DistanceMeters>NAN</DistanceMeters>
          </Trackpoint>
          <Trackpoint>
            <Time>2018-12-30T10:49:02.000Z</Time>
            <Position>
              <LatitudeDegrees>40.78168225474655628204345703125</LatitudeDegrees>
              <LongitudeDegrees>-4.06967793591320514678955078125</LongitudeDegrees>
            </Position>
            <AltitudeMeters>1572.199951171875</AltitudeMeters>
            <DistanceMeters>NAN</DistanceMeters>
          </Trackpoint>
          <Trackpoint>
            <Time>2018-12-30T10:49:03.000Z</Time>
            <Position>
              <LatitudeDegrees>40.78168091364204883575439453125</LatitudeDegrees>
              <LongitudeDegrees>-4.0696693025529384613037109375</LongitudeDegrees>
            </Position>
            <AltitudeMeters>1572.199951171875</AltitudeMeters>
            <DistanceMeters>NAN</DistanceMeters>
          </Trackpoint>
          <Trackpoint>
            <Time>2018-12-30T10:49:04.000Z</Time>
            <Position>
              <LatitudeDegrees>40.78168518841266632080078125</LatitudeDegrees>
              <LongitudeDegrees>-4.06965681351721286773681640625</LongitudeDegrees>
            </Position>
            <AltitudeMeters>1572.199951171875</AltitudeMeters>
            <DistanceMeters>NAN</DistanceMeters>
          </Trackpoint>
          <Trackpoint>
            <Time>2018-12-30T10:49:05.000Z</Time>
            <Position>
              <LatitudeDegrees>40.78169063664972782135009765625</LatitudeDegrees>
              <LongitudeDegrees>-4.06964424066245555877685546875</LongitudeDegrees>
            </Position>
            <AltitudeMeters>1572.4000244140625</AltitudeMeters>
            <DistanceMeters>NAN</DistanceMeters>
          </Trackpoint>
          <Trackpoint>
            <Time>2018-12-30T10:49:06.000Z</Time>
            <Position>
              <LatitudeDegrees>40.78169549815356731414794921875</LatitudeDegrees>
              <LongitudeDegrees>-4.0696287341415882110595703125</LongitudeDegrees>
            </Position>
            <AltitudeMeters>1572.5999755859375</AltitudeMeters>
            <DistanceMeters>NAN</DistanceMeters>
          </Trackpoint>
          <Trackpoint>
            <Time>2018-12-30T10:49:07.000Z</Time>
            <Position>
              <LatitudeDegrees>40.7816991023719310760498046875</LatitudeDegrees>
              <LongitudeDegrees>-4.06961850821971893310546875</LongitudeDegrees>
            </Position>
            <AltitudeMeters>1572.800048828125</AltitudeMeters>
            <DistanceMeters>NAN</DistanceMeters>
          </Trackpoint>
          <Trackpoint>
            <Time>2018-12-30T10:49:08.000Z</Time>
            <Position>
              <LatitudeDegrees>40.78170128166675567626953125</LatitudeDegrees>
              <LongitudeDegrees>-4.06959344632923603057861328125</LongitudeDegrees>
            </Position>
            <AltitudeMeters>1572.800048828125</AltitudeMeters>
            <DistanceMeters>NAN</DistanceMeters>
          </Trackpoint>
          <Trackpoint>
            <Time>2018-12-30T10:49:09.000Z</Time>
            <Position>
              <LatitudeDegrees>40.781704299151897430419921875</LatitudeDegrees>
              <LongitudeDegrees>-4.0695828013122081756591796875</LongitudeDegrees>
            </Position>
            <AltitudeMeters>1572.800048828125</AltitudeMeters>
            <DistanceMeters>NAN</DistanceMeters>
          </Trackpoint>
          <Trackpoint>
            <Time>2018-12-30T10:49:10.000Z</Time>
            <Position>
              <LatitudeDegrees>40.78171159140765666961669921875</LatitudeDegrees>
              <LongitudeDegrees>-4.0695764310657978057861328125</LongitudeDegrees>
            </Position>
            <AltitudeMeters>1573.199951171875</AltitudeMeters>
            <DistanceMeters>NAN</DistanceMeters>
          </Trackpoint>
          <Trackpoint>
            <Time>2018-12-30T10:49:11.000Z</Time>
            <Position>
              <LatitudeDegrees>40.7817180454730987548828125</LatitudeDegrees>
              <LongitudeDegrees>-4.069555811583995819091796875</LongitudeDegrees>
            </Position>
            <AltitudeMeters>1573.5999755859375</AltitudeMeters>
            <DistanceMeters>NAN</DistanceMeters>
          </Trackpoint>
          <Trackpoint>
            <Time>2018-12-30T10:49:12.000Z</Time>
            <Position>
              <LatitudeDegrees>40.78172751702368259429931640625</LatitudeDegrees>
              <LongitudeDegrees>-4.06953913159668445587158203125</LongitudeDegrees>
            </Position>
            <AltitudeMeters>1573.800048828125</AltitudeMeters>
            <DistanceMeters>NAN</DistanceMeters>
          </Trackpoint>
          <Trackpoint>
            <Time>2018-12-30T10:49:13.000Z</Time>
            <Position>
              <LatitudeDegrees>40.78173816204071044921875</LatitudeDegrees>
              <LongitudeDegrees>-4.069522954523563385009765625</LongitudeDegrees>
            </Position>
            <AltitudeMeters>1573.800048828125</AltitudeMeters>
            <DistanceMeters>NAN</DistanceMeters>
          </Trackpoint>
          <Trackpoint>
            <Time>2018-12-30T10:49:14.000Z</Time>
            <Position>
              <LatitudeDegrees>40.781743861734867095947265625</LatitudeDegrees>
              <LongitudeDegrees>-4.06951331533491611480712890625</LongitudeDegrees>
            </Position>
            <AltitudeMeters>1573.800048828125</AltitudeMeters>
            <DistanceMeters>NAN</DistanceMeters>
          </Trackpoint>
          <Trackpoint>
            <Time>2018-12-30T10:49:15.000Z</Time>
            <Position>
              <LatitudeDegrees>40.78174293972551822662353515625</LatitudeDegrees>
              <LongitudeDegrees>-4.06949236057698726654052734375</LongitudeDegrees>
            </Position>
            <AltitudeMeters>1574</AltitudeMeters>
            <DistanceMeters>NAN</DistanceMeters>
          </Trackpoint>
          <Trackpoint>
            <Time>2018-12-30T10:49:16.000Z</Time>
            <Position>
              <LatitudeDegrees>40.7817446999251842498779296875</LatitudeDegrees>
              <LongitudeDegrees>-4.0694728307425975799560546875</LongitudeDegrees>
            </Position>
            <AltitudeMeters>1574</AltitudeMeters>
            <DistanceMeters>NAN</DistanceMeters>
          </Trackpoint>
          <Trackpoint>
            <Time>2018-12-30T10:49:17.000Z</Time>
            <Position>
              <LatitudeDegrees>40.7817450352013111114501953125</LatitudeDegrees>
              <LongitudeDegrees>-4.06945749185979366302490234375</LongitudeDegrees>
            </Position>
            <AltitudeMeters>1574.199951171875</AltitudeMeters>
            <DistanceMeters>NAN</DistanceMeters>
          </Trackpoint>
          <Trackpoint>
            <Time>2018-12-30T10:49:18.000Z</Time>
            <Position>
              <LatitudeDegrees>40.78174025751650333404541015625</LatitudeDegrees>
              <LongitudeDegrees>-4.06944542191922664642333984375</LongitudeDegrees>
            </Position>
            <AltitudeMeters>1574.199951171875</AltitudeMeters>
            <DistanceMeters>NAN</DistanceMeters>
          </Trackpoint>
          <Trackpoint>
            <Time>2018-12-30T10:49:19.000Z</Time>
            <Position>
              <LatitudeDegrees>40.78173807822167873382568359375</LatitudeDegrees>
              <LongitudeDegrees>-4.06942698173224925994873046875</LongitudeDegrees>
            </Position>
            <AltitudeMeters>1574.199951171875</AltitudeMeters>
            <DistanceMeters>NAN</DistanceMeters>
          </Trackpoint>
          <Trackpoint>
            <Time>2018-12-30T10:49:20.000Z</Time>
            <Position>
              <LatitudeDegrees>40.7817421853542327880859375</LatitudeDegrees>
              <LongitudeDegrees>-4.06941239722073078155517578125</LongitudeDegrees>
            </Position>
            <AltitudeMeters>1574.4000244140625</AltitudeMeters>
            <DistanceMeters>NAN</DistanceMeters>
          </Trackpoint>
          <Trackpoint>
            <Time>2018-12-30T10:49:21.000Z</Time>
            <Position>
              <LatitudeDegrees>40.78173623420298099517822265625</LatitudeDegrees>
              <LongitudeDegrees>-4.0694077871739864349365234375</LongitudeDegrees>
            </Position>
            <AltitudeMeters>1574.5999755859375</AltitudeMeters>
            <DistanceMeters>NAN</DistanceMeters>
          </Trackpoint>
          <Trackpoint>
            <Time>2018-12-30T10:49:22.000Z</Time>
            <Position>
              <LatitudeDegrees>40.78174327500164508819580078125</LatitudeDegrees>
              <LongitudeDegrees>-4.06939663924276828765869140625</LongitudeDegrees>
            </Position>
            <AltitudeMeters>1574.800048828125</AltitudeMeters>
            <DistanceMeters>NAN</DistanceMeters>
          </Trackpoint>
          <Trackpoint>
            <Time>2018-12-30T10:49:23.000Z</Time>
            <Position>
              <LatitudeDegrees>40.7817497290670871734619140625</LatitudeDegrees>
              <LongitudeDegrees>-4.06938976608216762542724609375</LongitudeDegrees>
            </Position>
            <AltitudeMeters>1575</AltitudeMeters>
            <DistanceMeters>NAN</DistanceMeters>
          </Trackpoint>
          <Trackpoint>
            <Time>2018-12-30T10:49:24.000Z</Time>
            <Position>
              <LatitudeDegrees>40.78175215981900691986083984375</LatitudeDegrees>
              <LongitudeDegrees>-4.0693772770464420318603515625</LongitudeDegrees>
            </Position>
            <AltitudeMeters>1575.199951171875</AltitudeMeters>
            <DistanceMeters>NAN</DistanceMeters>
          </Trackpoint>
          <Trackpoint>
            <Time>2018-12-30T10:49:25.000Z</Time>
            <Position>
              <LatitudeDegrees>40.7817557640373706817626953125</LatitudeDegrees>
              <LongitudeDegrees>-4.06936512328684329986572265625</LongitudeDegrees>
            </Position>
            <AltitudeMeters>1575.199951171875</AltitudeMeters>
            <DistanceMeters>NAN</DistanceMeters>
          </Trackpoint>
          <Trackpoint>
            <Time>2018-12-30T10:49:26.000Z</Time>
            <Position>
              <LatitudeDegrees>40.781758613884449005126953125</LatitudeDegrees>
              <LongitudeDegrees>-4.06935204751789569854736328125</LongitudeDegrees>
            </Position>
            <AltitudeMeters>1575.4000244140625</AltitudeMeters>
            <DistanceMeters>NAN</DistanceMeters>
          </Trackpoint>
          <Trackpoint>
            <Time>2018-12-30T10:49:27.000Z</Time>
            <Position>
              <LatitudeDegrees>40.78176439739763736724853515625</LatitudeDegrees>
              <LongitudeDegrees>-4.0693427436053752899169921875</LongitudeDegrees>
            </Position>
            <AltitudeMeters>1575.5999755859375</AltitudeMeters>
            <DistanceMeters>NAN</DistanceMeters>
          </Trackpoint>
          <Trackpoint>
            <Time>2018-12-30T10:49:28.000Z</Time>
            <Position>
              <LatitudeDegrees>40.7817681692540645599365234375</LatitudeDegrees>
              <LongitudeDegrees>-4.06933075748383998870849609375</LongitudeDegrees>
            </Position>
            <AltitudeMeters>1575.5999755859375</AltitudeMeters>
            <DistanceMeters>NAN</DistanceMeters>
          </Trackpoint>
          <Trackpoint>
            <Time>2018-12-30T10:49:29.000Z</Time>
            <Position>
              <LatitudeDegrees>40.78177143819630146026611328125</LatitudeDegrees>
              <LongitudeDegrees>-4.06931818462908267974853515625</LongitudeDegrees>
            </Position>
            <AltitudeMeters>1575.5999755859375</AltitudeMeters>
            <DistanceMeters>NAN</DistanceMeters>
          </Trackpoint>
          <Trackpoint>
            <Time>2018-12-30T10:49:30.000Z</Time>
            <Position>
              <LatitudeDegrees>40.781767331063747406005859375</LatitudeDegrees>
              <LongitudeDegrees>-4.06930460594594478607177734375</LongitudeDegrees>
            </Position>
            <AltitudeMeters>1575.5999755859375</AltitudeMeters>
            <DistanceMeters>NAN</DistanceMeters>
          </Trackpoint>
          <Trackpoint>
            <Time>2018-12-30T10:49:31.000Z</Time>
            <Position>
              <LatitudeDegrees>40.781767331063747406005859375</LatitudeDegrees>
              <LongitudeDegrees>-4.06929505057632923126220703125</LongitudeDegrees>
            </Position>
            <AltitudeMeters>1575.5999755859375</AltitudeMeters>
            <DistanceMeters>NAN</DistanceMeters>
          </Trackpoint>
          <Trackpoint>
            <Time>2018-12-30T10:49:32.000Z</Time>
            <Position>
              <LatitudeDegrees>40.78176892362534999847412109375</LatitudeDegrees>
              <LongitudeDegrees>-4.06928180716931819915771484375</LongitudeDegrees>
            </Position>
            <AltitudeMeters>1575.5999755859375</AltitudeMeters>
            <DistanceMeters>NAN</DistanceMeters>
          </Trackpoint>
          <Trackpoint>
            <Time>2018-12-30T10:49:33.000Z</Time>
            <Position>
              <LatitudeDegrees>40.78177076764404773712158203125</LatitudeDegrees>
              <LongitudeDegrees>-4.06926445662975311279296875</LongitudeDegrees>
            </Position>
            <AltitudeMeters>1575.5999755859375</AltitudeMeters>
            <DistanceMeters>NAN</DistanceMeters>
          </Trackpoint>
          <Trackpoint>
            <Time>2018-12-30T10:49:34.000Z</Time>
            <Position>
              <LatitudeDegrees>40.781776718795299530029296875</LatitudeDegrees>
              <LongitudeDegrees>-4.0692557394504547119140625</LongitudeDegrees>
            </Position>
            <AltitudeMeters>1575.5999755859375</AltitudeMeters>
            <DistanceMeters>NAN</DistanceMeters>
          </Trackpoint>
          <Trackpoint>
            <Time>2018-12-30T10:49:35.000Z</Time>
            <Position>
              <LatitudeDegrees>40.78178736381232738494873046875</LatitudeDegrees>
              <LongitudeDegrees>-4.0692538954317569732666015625</LongitudeDegrees>
            </Position>
            <AltitudeMeters>1575.800048828125</AltitudeMeters>
            <DistanceMeters>NAN</DistanceMeters>
          </Trackpoint>
          <Trackpoint>
            <Time>2018-12-30T10:49:36.000Z</Time>
            <Position>
              <LatitudeDegrees>40.78179675154387950897216796875</LatitudeDegrees>
              <LongitudeDegrees>-4.06924442388117313385009765625</LongitudeDegrees>
            </Position>
            <AltitudeMeters>1576</AltitudeMeters>
            <DistanceMeters>NAN</DistanceMeters>
          </Trackpoint>
          <Trackpoint>
            <Time>2018-12-30T10:49:37.000Z</Time>
            <Position>
              <LatitudeDegrees>40.78180546872317790985107421875</LatitudeDegrees>
              <LongitudeDegrees>-4.0692347846925258636474609375</LongitudeDegrees>
            </Position>
            <AltitudeMeters>1576.199951171875</AltitudeMeters>
            <DistanceMeters>NAN</DistanceMeters>
          </Trackpoint>
          <Trackpoint>
            <Time>2018-12-30T10:49:38.000Z</Time>
            <Position>
              <LatitudeDegrees>40.78180932439863681793212890625</LatitudeDegrees>
              <LongitudeDegrees>-4.06921810470521450042724609375</LongitudeDegrees>
            </Position>
            <AltitudeMeters>1576.4000244140625</AltitudeMeters>
            <DistanceMeters>NAN</DistanceMeters>
          </Trackpoint>
          <Trackpoint>
            <Time>2018-12-30T10:49:39.000Z</Time>
            <Position>
              <LatitudeDegrees>40.78181183896958827972412109375</LatitudeDegrees>
              <LongitudeDegrees>-4.0692089684307575225830078125</LongitudeDegrees>
            </Position>
            <AltitudeMeters>1576.5999755859375</AltitudeMeters>
            <DistanceMeters>NAN</DistanceMeters>
          </Trackpoint>
          <Trackpoint>
            <Time>2018-12-30T10:49:40.000Z</Time>
            <Position>
              <LatitudeDegrees>40.7818186283111572265625</LatitudeDegrees>
              <LongitudeDegrees>-4.0692036040127277374267578125</LongitudeDegrees>
            </Position>
            <AltitudeMeters>1576.5999755859375</AltitudeMeters>
            <DistanceMeters>NAN</DistanceMeters>
          </Trackpoint>
          <Trackpoint>
            <Time>2018-12-30T10:49:41.000Z</Time>
            <Position>
              <LatitudeDegrees>40.7818253338336944580078125</LatitudeDegrees>
              <LongitudeDegrees>-4.06919480301439762115478515625</LongitudeDegrees>
            </Position>
            <AltitudeMeters>1576.5999755859375</AltitudeMeters>
            <DistanceMeters>NAN</DistanceMeters>
          </Trackpoint>
          <Trackpoint>
            <Time>2018-12-30T10:49:42.000Z</Time>
            <Position>
              <LatitudeDegrees>40.7818306982517242431640625</LatitudeDegrees>
              <LongitudeDegrees>-4.06917602755129337310791015625</LongitudeDegrees>
            </Position>
            <AltitudeMeters>1576.5999755859375</AltitudeMeters>
            <DistanceMeters>NAN</DistanceMeters>
          </Trackpoint>
          <Trackpoint>
            <Time>2018-12-30T10:49:43.000Z</Time>
            <Position>
              <LatitudeDegrees>40.78183514066040515899658203125</LatitudeDegrees>
              <LongitudeDegrees>-4.0691633708775043487548828125</LongitudeDegrees>
            </Position>
            <AltitudeMeters>1576.800048828125</AltitudeMeters>
            <DistanceMeters>NAN</DistanceMeters>
          </Trackpoint>
          <Trackpoint>
            <Time>2018-12-30T10:49:44.000Z</Time>
            <Position>
              <LatitudeDegrees>40.7818402536213397979736328125</LatitudeDegrees>
              <LongitudeDegrees>-4.0691469423472881317138671875</LongitudeDegrees>
            </Position>
            <AltitudeMeters>1577</AltitudeMeters>
            <DistanceMeters>NAN</DistanceMeters>
          </Trackpoint>
          <Trackpoint>
            <Time>2018-12-30T10:49:45.000Z</Time>
            <Position>
              <LatitudeDegrees>40.7818446122109889984130859375</LatitudeDegrees>
              <LongitudeDegrees>-4.069133363664150238037109375</LongitudeDegrees>
            </Position>
            <AltitudeMeters>1577.199951171875</AltitudeMeters>
            <DistanceMeters>NAN</DistanceMeters>
          </Trackpoint>
          <Trackpoint>
            <Time>2018-12-30T10:49:46.000Z</Time>
            <Position>
              <LatitudeDegrees>40.7818483002483844757080078125</LatitudeDegrees>
              <LongitudeDegrees>-4.06911970116198062896728515625</LongitudeDegrees>
            </Position>
            <AltitudeMeters>1577.199951171875</AltitudeMeters>
            <DistanceMeters>NAN</DistanceMeters>
          </Trackpoint>
          <Trackpoint>
            <Time>2018-12-30T10:49:47.000Z</Time>
            <Position>
              <LatitudeDegrees>40.78185508958995342254638671875</LatitudeDegrees>
              <LongitudeDegrees>-4.069111235439777374267578125</LongitudeDegrees>
            </Position>
            <AltitudeMeters>1577.4000244140625</AltitudeMeters>
            <DistanceMeters>NAN</DistanceMeters>
          </Trackpoint>
          <Trackpoint>
            <Time>2018-12-30T10:49:48.000Z</Time>
            <Position>
              <LatitudeDegrees>40.781861878931522369384765625</LatitudeDegrees>
              <LongitudeDegrees>-4.06910578720271587371826171875</LongitudeDegrees>
            </Position>
            <AltitudeMeters>1577.4000244140625</AltitudeMeters>
            <DistanceMeters>NAN</DistanceMeters>
          </Trackpoint>
          <Trackpoint>
            <Time>2018-12-30T10:49:49.000Z</Time>
            <Position>
              <LatitudeDegrees>40.7818717695772647857666015625</LatitudeDegrees>
              <LongitudeDegrees>-4.0690963156521320343017578125</LongitudeDegrees>
            </Position>
            <AltitudeMeters>1577.5999755859375</AltitudeMeters>
            <DistanceMeters>NAN</DistanceMeters>
          </Trackpoint>
          <Trackpoint>
            <Time>2018-12-30T10:49:50.000Z</Time>
            <Position>
              <LatitudeDegrees>40.78187554143369197845458984375</LatitudeDegrees>
              <LongitudeDegrees>-4.06907862983644008636474609375</LongitudeDegrees>
            </Position>
            <AltitudeMeters>1577.5999755859375</AltitudeMeters>
            <DistanceMeters>NAN</DistanceMeters>
          </Trackpoint>
          <Trackpoint>
            <Time>2018-12-30T10:49:51.000Z</Time>
            <Position>
              <LatitudeDegrees>40.78188107348978519439697265625</LatitudeDegrees>
              <LongitudeDegrees>-4.06906069256365299224853515625</LongitudeDegrees>
            </Position>
            <AltitudeMeters>1577.800048828125</AltitudeMeters>
            <DistanceMeters>NAN</DistanceMeters>
          </Trackpoint>
          <Trackpoint>
            <Time>2018-12-30T10:49:52.000Z</Time>
            <Position>
              <LatitudeDegrees>40.78188836574554443359375</LatitudeDegrees>
              <LongitudeDegrees>-4.06904795207083225250244140625</LongitudeDegrees>
            </Position>
            <AltitudeMeters>1578</AltitudeMeters>
            <DistanceMeters>NAN</DistanceMeters>
          </Trackpoint>
          <Trackpoint>
            <Time>2018-12-30T10:49:53.000Z</Time>
            <Position>
              <LatitudeDegrees>40.781896077096462249755859375</LatitudeDegrees>
              <LongitudeDegrees>-4.06903915107250213623046875</LongitudeDegrees>
            </Position>
            <AltitudeMeters>1578.5999755859375</AltitudeMeters>
            <DistanceMeters>NAN</DistanceMeters>
          </Trackpoint>
          <Trackpoint>
            <Time>2018-12-30T10:49:54.000Z</Time>
            <Position>
              <LatitudeDegrees>40.78190353699028491973876953125</LatitudeDegrees>
              <LongitudeDegrees>-4.06902934424579143524169921875</LongitudeDegrees>
            </Position>
            <AltitudeMeters>1579</AltitudeMeters>
            <DistanceMeters>NAN</DistanceMeters>
          </Trackpoint>
          <Trackpoint>
            <Time>2018-12-30T10:49:55.000Z</Time>
            <Position>
              <LatitudeDegrees>40.78190990723669528961181640625</LatitudeDegrees>
              <LongitudeDegrees>-4.0690222196280956268310546875</LongitudeDegrees>
            </Position>
            <AltitudeMeters>1579.199951171875</AltitudeMeters>
            <DistanceMeters>NAN</DistanceMeters>
          </Trackpoint>
          <Trackpoint>
            <Time>2018-12-30T10:49:56.000Z</Time>
            <Position>
              <LatitudeDegrees>40.78191309235990047454833984375</LatitudeDegrees>
              <LongitudeDegrees>-4.069011993706226348876953125</LongitudeDegrees>
            </Position>
            <AltitudeMeters>1579.5999755859375</AltitudeMeters>
            <DistanceMeters>NAN</DistanceMeters>
          </Trackpoint>
          <Trackpoint>
            <Time>2018-12-30T10:49:57.000Z</Time>
            <Position>
              <LatitudeDegrees>40.78191594220697879791259765625</LatitudeDegrees>
              <LongitudeDegrees>-4.06900034286081790924072265625</LongitudeDegrees>
            </Position>
            <AltitudeMeters>1579.800048828125</AltitudeMeters>
            <DistanceMeters>NAN</DistanceMeters>
          </Trackpoint>
          <Trackpoint>
            <Time>2018-12-30T10:49:58.000Z</Time>
            <Position>
              <LatitudeDegrees>40.78192113898694515228271484375</LatitudeDegrees>
              <LongitudeDegrees>-4.06899145804345607757568359375</LongitudeDegrees>
            </Position>
            <AltitudeMeters>1580</AltitudeMeters>
            <DistanceMeters>NAN</DistanceMeters>
          </Trackpoint>
          <Trackpoint>
            <Time>2018-12-30T10:49:59.000Z</Time>
            <Position>
              <LatitudeDegrees>40.781928598880767822265625</LatitudeDegrees>
              <LongitudeDegrees>-4.06898374669253826141357421875</LongitudeDegrees>
            </Position>
            <AltitudeMeters>1580.199951171875</AltitudeMeters>
            <DistanceMeters>NAN</DistanceMeters>
          </Trackpoint>
          <Trackpoint>
            <Time>2018-12-30T10:50:00.000Z</Time>
            <Position>
              <LatitudeDegrees>40.7819374836981296539306640625</LatitudeDegrees>
              <LongitudeDegrees>-4.068972431123256683349609375</LongitudeDegrees>
            </Position>
            <AltitudeMeters>1580.4000244140625</AltitudeMeters>
            <DistanceMeters>NAN</DistanceMeters>
          </Trackpoint>
          <Trackpoint>
            <Time>2018-12-30T10:50:01.000Z</Time>
            <Position>
              <LatitudeDegrees>40.78194536268711090087890625</LatitudeDegrees>
              <LongitudeDegrees>-4.06895725987851619720458984375</LongitudeDegrees>
            </Position>
            <AltitudeMeters>1580.4000244140625</AltitudeMeters>
            <DistanceMeters>NAN</DistanceMeters>
          </Trackpoint>
          <Trackpoint>
            <Time>2018-12-30T10:50:02.000Z</Time>
            <Position>
              <LatitudeDegrees>40.78195198439061641693115234375</LatitudeDegrees>
              <LongitudeDegrees>-4.06893898732960224151611328125</LongitudeDegrees>
            </Position>
            <AltitudeMeters>1580.5999755859375</AltitudeMeters>
            <DistanceMeters>NAN</DistanceMeters>
          </Trackpoint>
          <Trackpoint>
            <Time>2018-12-30T10:50:03.000Z</Time>
            <Position>
              <LatitudeDegrees>40.78195986337959766387939453125</LatitudeDegrees>
              <LongitudeDegrees>-4.068928174674510955810546875</LongitudeDegrees>
            </Position>
            <AltitudeMeters>1580.5999755859375</AltitudeMeters>
            <DistanceMeters>NAN</DistanceMeters>
          </Trackpoint>
          <Trackpoint>
            <Time>2018-12-30T10:50:04.000Z</Time>
            <Position>
              <LatitudeDegrees>40.78196573071181774139404296875</LatitudeDegrees>
              <LongitudeDegrees>-4.06891920603811740875244140625</LongitudeDegrees>
            </Position>
            <AltitudeMeters>1580.800048828125</AltitudeMeters>
            <DistanceMeters>NAN</DistanceMeters>
          </Trackpoint>
          <Trackpoint>
            <Time>2018-12-30T10:50:05.000Z</Time>
            <Position>
              <LatitudeDegrees>40.7819713465869426727294921875</LatitudeDegrees>
              <LongitudeDegrees>-4.06890545971691608428955078125</LongitudeDegrees>
            </Position>
            <AltitudeMeters>1580.800048828125</AltitudeMeters>
            <DistanceMeters>NAN</DistanceMeters>
          </Trackpoint>
          <Trackpoint>
            <Time>2018-12-30T10:50:06.000Z</Time>
            <Position>
              <LatitudeDegrees>40.78197562135756015777587890625</LatitudeDegrees>
              <LongitudeDegrees>-4.06889003701508045196533203125</LongitudeDegrees>
            </Position>
            <AltitudeMeters>1581</AltitudeMeters>
            <DistanceMeters>NAN</DistanceMeters>
          </Trackpoint>
          <Trackpoint>
            <Time>2018-12-30T10:50:07.000Z</Time>
            <Position>
              <LatitudeDegrees>40.781985260546207427978515625</LatitudeDegrees>
              <LongitudeDegrees>-4.06888433732092380523681640625</LongitudeDegrees>
            </Position>
            <AltitudeMeters>1581.4000244140625</AltitudeMeters>
            <DistanceMeters>NAN</DistanceMeters>
          </Trackpoint>
          <Trackpoint>
            <Time>2018-12-30T10:50:08.000Z</Time>
            <Position>
              <LatitudeDegrees>40.78198718838393688201904296875</LatitudeDegrees>
              <LongitudeDegrees>-4.0688713453710079193115234375</LongitudeDegrees>
            </Position>
            <AltitudeMeters>1581.5999755859375</AltitudeMeters>
            <DistanceMeters>NAN</DistanceMeters>
          </Trackpoint>
          <Trackpoint>
            <Time>2018-12-30T10:50:09.000Z</Time>
            <Position>
              <LatitudeDegrees>40.78199054114520549774169921875</LatitudeDegrees>
              <LongitudeDegrees>-4.0688612870872020721435546875</LongitudeDegrees>
            </Position>
            <AltitudeMeters>1581.5999755859375</AltitudeMeters>
            <DistanceMeters>NAN</DistanceMeters>
          </Trackpoint>
          <Trackpoint>
            <Time>2018-12-30T10:50:10.000Z</Time>
            <Position>
              <LatitudeDegrees>40.78200009651482105255126953125</LatitudeDegrees>
              <LongitudeDegrees>-4.06884779222309589385986328125</LongitudeDegrees>
            </Position>
            <AltitudeMeters>1581.800048828125</AltitudeMeters>
            <DistanceMeters>NAN</DistanceMeters>
          </Trackpoint>
          <Trackpoint>
            <Time>2018-12-30T10:50:11.000Z</Time>
            <Position>
              <LatitudeDegrees>40.78200973570346832275390625</LatitudeDegrees>
              <LongitudeDegrees>-4.06882968731224536895751953125</LongitudeDegrees>
            </Position>
            <AltitudeMeters>1581.800048828125</AltitudeMeters>
            <DistanceMeters>NAN</DistanceMeters>
          </Trackpoint>
          <Trackpoint>
            <Time>2018-12-30T10:50:12.000Z</Time>
            <Position>
              <LatitudeDegrees>40.78202222473919391632080078125</LatitudeDegrees>
              <LongitudeDegrees>-4.06881158240139484405517578125</LongitudeDegrees>
            </Position>
            <AltitudeMeters>1581.800048828125</AltitudeMeters>
            <DistanceMeters>NAN</DistanceMeters>
          </Trackpoint>
          <Trackpoint>
            <Time>2018-12-30T10:50:13.000Z</Time>
            <Position>
              <LatitudeDegrees>40.78203110955655574798583984375</LatitudeDegrees>
              <LongitudeDegrees>-4.06879884190857410430908203125</LongitudeDegrees>
            </Position>
            <AltitudeMeters>1582</AltitudeMeters>
            <DistanceMeters>NAN</DistanceMeters>
          </Trackpoint>
          <Trackpoint>
            <Time>2018-12-30T10:50:14.000Z</Time>
            <Position>
              <LatitudeDegrees>40.78203856945037841796875</LatitudeDegrees>
              <LongitudeDegrees>-4.0687925554811954498291015625</LongitudeDegrees>
            </Position>
            <AltitudeMeters>1582</AltitudeMeters>
            <DistanceMeters>NAN</DistanceMeters>
          </Trackpoint>
          <Trackpoint>
            <Time>2018-12-30T10:50:15.000Z</Time>
            <Position>
              <LatitudeDegrees>40.78204100020229816436767578125</LatitudeDegrees>
              <LongitudeDegrees>-4.0687824971973896026611328125</LongitudeDegrees>
            </Position>
            <AltitudeMeters>1582</AltitudeMeters>
            <DistanceMeters>NAN</DistanceMeters>
          </Trackpoint>
          <Trackpoint>
            <Time>2018-12-30T10:50:16.000Z</Time>
            <Position>
              <LatitudeDegrees>40.7820451073348522186279296875</LatitudeDegrees>
              <LongitudeDegrees>-4.0687702596187591552734375</LongitudeDegrees>
            </Position>
            <AltitudeMeters>1582</AltitudeMeters>
            <DistanceMeters>NAN</DistanceMeters>
          </Trackpoint>
          <Trackpoint>
            <Time>2018-12-30T10:50:17.000Z</Time>
            <Position>
              <LatitudeDegrees>40.78204804100096225738525390625</LatitudeDegrees>
              <LongitudeDegrees>-4.068763554096221923828125</LongitudeDegrees>
            </Position>
            <AltitudeMeters>1582</AltitudeMeters>
            <DistanceMeters>NAN</DistanceMeters>
          </Trackpoint>
          <Trackpoint>
            <Time>2018-12-30T10:50:18.000Z</Time>
            <Position>
              <LatitudeDegrees>40.78204820863902568817138671875</LatitudeDegrees>
              <LongitudeDegrees>-4.068753160536289215087890625</LongitudeDegrees>
            </Position>
            <AltitudeMeters>1582.199951171875</AltitudeMeters>
            <DistanceMeters>NAN</DistanceMeters>
          </Trackpoint>
          <Trackpoint>
            <Time>2018-12-30T10:50:19.000Z</Time>
            <Position>
              <LatitudeDegrees>40.7820518128573894500732421875</LatitudeDegrees>
              <LongitudeDegrees>-4.0687409229576587677001953125</LongitudeDegrees>
            </Position>
            <AltitudeMeters>1582.199951171875</AltitudeMeters>
            <DistanceMeters>NAN</DistanceMeters>
          </Trackpoint>
          <Trackpoint>
            <Time>2018-12-30T10:50:20.000Z</Time>
            <Position>
              <LatitudeDegrees>40.78205357305705547332763671875</LatitudeDegrees>
              <LongitudeDegrees>-4.06872407533228397369384765625</LongitudeDegrees>
            </Position>
            <AltitudeMeters>1582.199951171875</AltitudeMeters>
            <DistanceMeters>NAN</DistanceMeters>
          </Trackpoint>
          <Trackpoint>
            <Time>2018-12-30T10:50:21.000Z</Time>
            <Position>
              <LatitudeDegrees>40.7820586860179901123046875</LatitudeDegrees>
              <LongitudeDegrees>-4.0687157772481441497802734375</LongitudeDegrees>
            </Position>
            <AltitudeMeters>1582.199951171875</AltitudeMeters>
            <DistanceMeters>NAN</DistanceMeters>
          </Trackpoint>
          <Trackpoint>
            <Time>2018-12-30T10:50:22.000Z</Time>
            <Position>
              <LatitudeDegrees>40.7820645533502101898193359375</LatitudeDegrees>
              <LongitudeDegrees>-4.0687085688114166259765625</LongitudeDegrees>
            </Position>
            <AltitudeMeters>1582</AltitudeMeters>
            <DistanceMeters>NAN</DistanceMeters>
          </Trackpoint>
          <Trackpoint>
            <Time>2018-12-30T10:50:23.000Z</Time>
            <Position>
              <LatitudeDegrees>40.7820725999772548675537109375</LatitudeDegrees>
              <LongitudeDegrees>-4.0686993487179279327392578125</LongitudeDegrees>
            </Position>
            <AltitudeMeters>1582</AltitudeMeters>
            <DistanceMeters>NAN</DistanceMeters>
          </Trackpoint>
          <Trackpoint>
            <Time>2018-12-30T10:50:24.000Z</Time>
            <Position>
              <LatitudeDegrees>40.782084167003631591796875</LatitudeDegrees>
              <LongitudeDegrees>-4.0686946548521518707275390625</LongitudeDegrees>
            </Position>
            <AltitudeMeters>1582</AltitudeMeters>
            <DistanceMeters>NAN</DistanceMeters>
          </Trackpoint>
          <Trackpoint>
            <Time>2018-12-30T10:50:25.000Z</Time>
            <Position>
              <LatitudeDegrees>40.7820967398583889007568359375</LatitudeDegrees>
              <LongitudeDegrees>-4.0686889551579952239990234375</LongitudeDegrees>
            </Position>
            <AltitudeMeters>1581.800048828125</AltitudeMeters>
            <DistanceMeters>NAN</DistanceMeters>
          </Trackpoint>
          <Trackpoint>
            <Time>2018-12-30T10:50:26.000Z</Time>
            <Position>
              <LatitudeDegrees>40.78210554085671901702880859375</LatitudeDegrees>
              <LongitudeDegrees>-4.06867730431258678436279296875</LongitudeDegrees>
            </Position>
            <AltitudeMeters>1581.800048828125</AltitudeMeters>
            <DistanceMeters>NAN</DistanceMeters>
          </Trackpoint>
          <Trackpoint>
            <Time>2018-12-30T10:50:27.000Z</Time>
            <Position>
              <LatitudeDegrees>40.78210855834186077117919921875</LatitudeDegrees>
              <LongitudeDegrees>-4.0686631388962268829345703125</LongitudeDegrees>
            </Position>
            <AltitudeMeters>1581.5999755859375</AltitudeMeters>
            <DistanceMeters>NAN</DistanceMeters>
          </Trackpoint>
          <Trackpoint>
            <Time>2018-12-30T10:50:28.000Z</Time>
            <Position>
              <LatitudeDegrees>40.78211559914052486419677734375</LatitudeDegrees>
              <LongitudeDegrees>-4.06865157186985015869140625</LongitudeDegrees>
            </Position>
            <AltitudeMeters>1581.5999755859375</AltitudeMeters>
            <DistanceMeters>NAN</DistanceMeters>
          </Trackpoint>
          <Trackpoint>
            <Time>2018-12-30T10:50:29.000Z</Time>
            <Position>
              <LatitudeDegrees>40.7821259088814258575439453125</LatitudeDegrees>
              <LongitudeDegrees>-4.06863950192928314208984375</LongitudeDegrees>
            </Position>
            <AltitudeMeters>1581.800048828125</AltitudeMeters>
            <DistanceMeters>NAN</DistanceMeters>
          </Trackpoint>
          <Trackpoint>
            <Time>2018-12-30T10:50:30.000Z</Time>
            <Position>
              <LatitudeDegrees>40.78213420696556568145751953125</LatitudeDegrees>
              <LongitudeDegrees>-4.06862164847552776336669921875</LongitudeDegrees>
            </Position>
            <AltitudeMeters>1581.800048828125</AltitudeMeters>
            <DistanceMeters>NAN</DistanceMeters>
          </Trackpoint>
          <Trackpoint>
            <Time>2018-12-30T10:50:31.000Z</Time>
            <Position>
              <LatitudeDegrees>40.7821420021355152130126953125</LatitudeDegrees>
              <LongitudeDegrees>-4.06860421411693096160888671875</LongitudeDegrees>
            </Position>
            <AltitudeMeters>1582</AltitudeMeters>
            <DistanceMeters>NAN</DistanceMeters>
          </Trackpoint>
          <Trackpoint>
            <Time>2018-12-30T10:50:32.000Z</Time>
            <Position>
              <LatitudeDegrees>40.78214745037257671356201171875</LatitudeDegrees>
              <LongitudeDegrees>-4.06858988106250762939453125</LongitudeDegrees>
            </Position>
            <AltitudeMeters>1582</AltitudeMeters>
            <DistanceMeters>NAN</DistanceMeters>
          </Trackpoint>
          <Trackpoint>
            <Time>2018-12-30T10:50:33.000Z</Time>
            <Position>
              <LatitudeDegrees>40.7821498811244964599609375</LatitudeDegrees>
              <LongitudeDegrees>-4.06858108006417751312255859375</LongitudeDegrees>
            </Position>
            <AltitudeMeters>1582</AltitudeMeters>
            <DistanceMeters>NAN</DistanceMeters>
          </Trackpoint>
          <Trackpoint>
            <Time>2018-12-30T10:50:34.000Z</Time>
            <Position>
              <LatitudeDegrees>40.78215415589511394500732421875</LatitudeDegrees>
              <LongitudeDegrees>-4.068572111427783966064453125</LongitudeDegrees>
            </Position>
            <AltitudeMeters>1582.199951171875</AltitudeMeters>
            <DistanceMeters>NAN</DistanceMeters>
          </Trackpoint>
          <Trackpoint>
            <Time>2018-12-30T10:50:35.000Z</Time>
            <Position>
              <LatitudeDegrees>40.782156251370906829833984375</LatitudeDegrees>
              <LongitudeDegrees>-4.068554341793060302734375</LongitudeDegrees>
            </Position>
            <AltitudeMeters>1582.4000244140625</AltitudeMeters>
            <DistanceMeters>NAN</DistanceMeters>
          </Trackpoint>
          <Trackpoint>
            <Time>2018-12-30T10:50:36.000Z</Time>
            <Position>
              <LatitudeDegrees>40.78215499408543109893798828125</LatitudeDegrees>
              <LongitudeDegrees>-4.06853883527219295501708984375</LongitudeDegrees>
            </Position>
            <AltitudeMeters>1582.800048828125</AltitudeMeters>
            <DistanceMeters>NAN</DistanceMeters>
          </Trackpoint>
          <Trackpoint>
            <Time>2018-12-30T10:50:37.000Z</Time>
            <Position>
              <LatitudeDegrees>40.78215901739895343780517578125</LatitudeDegrees>
              <LongitudeDegrees>-4.06852156855165958404541015625</LongitudeDegrees>
            </Position>
            <AltitudeMeters>1583.199951171875</AltitudeMeters>
            <DistanceMeters>NAN</DistanceMeters>
          </Trackpoint>
          <Trackpoint>
            <Time>2018-12-30T10:50:38.000Z</Time>
            <Position>
              <LatitudeDegrees>40.78216136433184146881103515625</LatitudeDegrees>
              <LongitudeDegrees>-4.06850807368755340576171875</LongitudeDegrees>
            </Position>
            <AltitudeMeters>1583.199951171875</AltitudeMeters>
            <DistanceMeters>NAN</DistanceMeters>
          </Trackpoint>
          <Trackpoint>
            <Time>2018-12-30T10:50:39.000Z</Time>
            <Position>
              <LatitudeDegrees>40.7821668125689029693603515625</LatitudeDegrees>
              <LongitudeDegrees>-4.06849860213696956634521484375</LongitudeDegrees>
            </Position>
            <AltitudeMeters>1583.4000244140625</AltitudeMeters>
            <DistanceMeters>NAN</DistanceMeters>
          </Trackpoint>
          <Trackpoint>
            <Time>2018-12-30T10:50:40.000Z</Time>
            <Position>
              <LatitudeDegrees>40.7821728475391864776611328125</LatitudeDegrees>
              <LongitudeDegrees>-4.06849457882344722747802734375</LongitudeDegrees>
            </Position>
            <AltitudeMeters>1583.4000244140625</AltitudeMeters>
            <DistanceMeters>NAN</DistanceMeters>
          </Trackpoint>
          <Trackpoint>
            <Time>2018-12-30T10:50:41.000Z</Time>
            <Position>
              <LatitudeDegrees>40.78217871487140655517578125</LatitudeDegrees>
              <LongitudeDegrees>-4.0684886276721954345703125</LongitudeDegrees>
            </Position>
            <AltitudeMeters>1583.199951171875</AltitudeMeters>
            <DistanceMeters>NAN</DistanceMeters>
          </Trackpoint>
          <Trackpoint>
            <Time>2018-12-30T10:50:42.000Z</Time>
            <Position>
              <LatitudeDegrees>40.782184414565563201904296875</LatitudeDegrees>
              <LongitudeDegrees>-4.06848301179707050323486328125</LongitudeDegrees>
            </Position>
            <AltitudeMeters>1583.4000244140625</AltitudeMeters>
            <DistanceMeters>NAN</DistanceMeters>
          </Trackpoint>
          <Trackpoint>
            <Time>2018-12-30T10:50:43.000Z</Time>
            <Position>
              <LatitudeDegrees>40.78219137154519557952880859375</LatitudeDegrees>
              <LongitudeDegrees>-4.0684777311980724334716796875</LongitudeDegrees>
            </Position>
            <AltitudeMeters>1583.4000244140625</AltitudeMeters>
            <DistanceMeters>NAN</DistanceMeters>
          </Trackpoint>
          <Trackpoint>
            <Time>2018-12-30T10:50:44.000Z</Time>
            <Position>
              <LatitudeDegrees>40.78220059163868427276611328125</LatitudeDegrees>
              <LongitudeDegrees>-4.0684703551232814788818359375</LongitudeDegrees>
            </Position>
            <AltitudeMeters>1583.4000244140625</AltitudeMeters>
            <DistanceMeters>NAN</DistanceMeters>
          </Trackpoint>
          <Trackpoint>
            <Time>2018-12-30T10:50:45.000Z</Time>
            <Position>
              <LatitudeDegrees>40.78220780007541179656982421875</LatitudeDegrees>
              <LongitudeDegrees>-4.06846758909523487091064453125</LongitudeDegrees>
            </Position>
            <AltitudeMeters>1583.5999755859375</AltitudeMeters>
            <DistanceMeters>NAN</DistanceMeters>
          </Trackpoint>
          <Trackpoint>
            <Time>2018-12-30T10:50:46.000Z</Time>
            <Position>
              <LatitudeDegrees>40.78221316449344158172607421875</LatitudeDegrees>
              <LongitudeDegrees>-4.06846323050558567047119140625</LongitudeDegrees>
            </Position>
            <AltitudeMeters>1583.800048828125</AltitudeMeters>
            <DistanceMeters>NAN</DistanceMeters>
          </Trackpoint>
          <Trackpoint>
            <Time>2018-12-30T10:50:47.000Z</Time>
            <Position>
              <LatitudeDegrees>40.7822238095104694366455078125</LatitudeDegrees>
              <LongitudeDegrees>-4.06846205703914165496826171875</LongitudeDegrees>
            </Position>
            <AltitudeMeters>1584</AltitudeMeters>
            <DistanceMeters>NAN</DistanceMeters>
          </Trackpoint>
          <Trackpoint>
            <Time>2018-12-30T10:50:48.000Z</Time>
            <Position>
              <LatitudeDegrees>40.78223462216556072235107421875</LatitudeDegrees>
              <LongitudeDegrees>-4.068459458649158477783203125</LongitudeDegrees>
            </Position>
            <AltitudeMeters>1584</AltitudeMeters>
            <DistanceMeters>NAN</DistanceMeters>
          </Trackpoint>
          <Trackpoint>
            <Time>2018-12-30T10:50:49.000Z</Time>
            <Position>
              <LatitudeDegrees>40.78224451281130313873291015625</LatitudeDegrees>
              <LongitudeDegrees>-4.06845568679273128509521484375</LongitudeDegrees>
            </Position>
            <AltitudeMeters>1584.199951171875</AltitudeMeters>
            <DistanceMeters>NAN</DistanceMeters>
          </Trackpoint>
          <Trackpoint>
            <Time>2018-12-30T10:50:50.000Z</Time>
            <Position>
              <LatitudeDegrees>40.78225356526672840118408203125</LatitudeDegrees>
              <LongitudeDegrees>-4.06845434568822383880615234375</LongitudeDegrees>
            </Position>
            <AltitudeMeters>1584.199951171875</AltitudeMeters>
            <DistanceMeters>NAN</DistanceMeters>
          </Trackpoint>
          <Trackpoint>
            <Time>2018-12-30T10:50:51.000Z</Time>
            <Position>
              <LatitudeDegrees>40.78225943259894847869873046875</LatitudeDegrees>
              <LongitudeDegrees>-4.06844797544181346893310546875</LongitudeDegrees>
            </Position>
            <AltitudeMeters>1584.199951171875</AltitudeMeters>
            <DistanceMeters>NAN</DistanceMeters>
          </Trackpoint>
          <Trackpoint>
            <Time>2018-12-30T10:50:52.000Z</Time>
            <Position>
              <LatitudeDegrees>40.78226546756923198699951171875</LatitudeDegrees>
              <LongitudeDegrees>-4.0684385038912296295166015625</LongitudeDegrees>
            </Position>
            <AltitudeMeters>1584.199951171875</AltitudeMeters>
            <DistanceMeters>NAN</DistanceMeters>
          </Trackpoint>
          <Trackpoint>
            <Time>2018-12-30T10:50:53.000Z</Time>
            <Position>
              <LatitudeDegrees>40.7822707481682300567626953125</LatitudeDegrees>
              <LongitudeDegrees>-4.0684214048087596893310546875</LongitudeDegrees>
            </Position>
            <AltitudeMeters>1584.199951171875</AltitudeMeters>
            <DistanceMeters>NAN</DistanceMeters>
          </Trackpoint>
          <Trackpoint>
            <Time>2018-12-30T10:50:54.000Z</Time>
            <Position>
              <LatitudeDegrees>40.78227527439594268798828125</LatitudeDegrees>
              <LongitudeDegrees>-4.068421907722949981689453125</LongitudeDegrees>
            </Position>
            <AltitudeMeters>1584.199951171875</AltitudeMeters>
            <DistanceMeters>NAN</DistanceMeters>
          </Trackpoint>
          <Trackpoint>
            <Time>2018-12-30T10:50:55.000Z</Time>
            <Position>
              <LatitudeDegrees>40.78227988444268703460693359375</LatitudeDegrees>
              <LongitudeDegrees>-4.06841629184782505035400390625</LongitudeDegrees>
            </Position>
            <AltitudeMeters>1584.199951171875</AltitudeMeters>
            <DistanceMeters>NAN</DistanceMeters>
          </Trackpoint>
          <Trackpoint>
            <Time>2018-12-30T10:50:56.000Z</Time>
            <Position>
              <LatitudeDegrees>40.782282315194606781005859375</LatitudeDegrees>
              <LongitudeDegrees>-4.06837756745517253875732421875</LongitudeDegrees>
            </Position>
            <AltitudeMeters>1584.4000244140625</AltitudeMeters>
            <DistanceMeters>NAN</DistanceMeters>
          </Trackpoint>
          <Trackpoint>
            <Time>2018-12-30T10:50:57.000Z</Time>
            <Position>
              <LatitudeDegrees>40.782282315194606781005859375</LatitudeDegrees>
              <LongitudeDegrees>-4.06837756745517253875732421875</LongitudeDegrees>
            </Position>
            <AltitudeMeters>1584.800048828125</AltitudeMeters>
            <DistanceMeters>NAN</DistanceMeters>
          </Trackpoint>
          <Trackpoint>
            <Time>2018-12-30T10:50:58.000Z</Time>
            <Position>
              <LatitudeDegrees>40.7822838239371776580810546875</LatitudeDegrees>
              <LongitudeDegrees>-4.0683627314865589141845703125</LongitudeDegrees>
            </Position>
            <AltitudeMeters>1585.199951171875</AltitudeMeters>
            <DistanceMeters>NAN</DistanceMeters>
          </Trackpoint>
          <Trackpoint>
            <Time>2018-12-30T10:50:59.000Z</Time>
            <Position>
              <LatitudeDegrees>40.78229002654552459716796875</LatitudeDegrees>
              <LongitudeDegrees>-4.0683570317924022674560546875</LongitudeDegrees>
            </Position>
            <AltitudeMeters>1585.199951171875</AltitudeMeters>
            <DistanceMeters>NAN</DistanceMeters>
          </Trackpoint>
          <Trackpoint>
            <Time>2018-12-30T10:51:00.000Z</Time>
            <Position>
              <LatitudeDegrees>40.782298743724822998046875</LatitudeDegrees>
              <LongitudeDegrees>-4.06834906898438930511474609375</LongitudeDegrees>
            </Position>
            <AltitudeMeters>1585.800048828125</AltitudeMeters>
            <DistanceMeters>NAN</DistanceMeters>
          </Trackpoint>
          <Trackpoint>
            <Time>2018-12-30T10:51:01.000Z</Time>
            <Position>
              <LatitudeDegrees>40.78230570070445537567138671875</LatitudeDegrees>
              <LongitudeDegrees>-4.06833951361477375030517578125</LongitudeDegrees>
            </Position>
            <AltitudeMeters>1586.199951171875</AltitudeMeters>
            <DistanceMeters>NAN</DistanceMeters>
          </Trackpoint>
          <Trackpoint>
            <Time>2018-12-30T10:51:02.000Z</Time>
            <Position>
              <LatitudeDegrees>40.78230754472315311431884765625</LatitudeDegrees>
              <LongitudeDegrees>-4.068328030407428741455078125</LongitudeDegrees>
            </Position>
            <AltitudeMeters>1586.4000244140625</AltitudeMeters>
            <DistanceMeters>NAN</DistanceMeters>
          </Trackpoint>
          <Trackpoint>
            <Time>2018-12-30T10:51:03.000Z</Time>
            <Position>
              <LatitudeDegrees>40.78231056220829486846923828125</LatitudeDegrees>
              <LongitudeDegrees>-4.0683169662952423095703125</LongitudeDegrees>
            </Position>
            <AltitudeMeters>1586.4000244140625</AltitudeMeters>
            <DistanceMeters>NAN</DistanceMeters>
          </Trackpoint>
          <Trackpoint>
            <Time>2018-12-30T10:51:04.000Z</Time>
            <Position>
              <LatitudeDegrees>40.782321877777576446533203125</LatitudeDegrees>
              <LongitudeDegrees>-4.06832040287554264068603515625</LongitudeDegrees>
            </Position>
            <AltitudeMeters>1586.199951171875</AltitudeMeters>
            <DistanceMeters>NAN</DistanceMeters>
          </Trackpoint>
          <Trackpoint>
            <Time>2018-12-30T10:51:05.000Z</Time>
            <Position>
              <LatitudeDegrees>40.78233486972749233245849609375</LatitudeDegrees>
              <LongitudeDegrees>-4.06832878477871417999267578125</LongitudeDegrees>
            </Position>
            <AltitudeMeters>1586.4000244140625</AltitudeMeters>
            <DistanceMeters>NAN</DistanceMeters>
          </Trackpoint>
          <Trackpoint>
            <Time>2018-12-30T10:51:06.000Z</Time>
            <Position>
              <LatitudeDegrees>40.7823431678116321563720703125</LatitudeDegrees>
              <LongitudeDegrees>-4.06831973232328891754150390625</LongitudeDegrees>
            </Position>
            <AltitudeMeters>1586.4000244140625</AltitudeMeters>
            <DistanceMeters>NAN</DistanceMeters>
          </Trackpoint>
          <Trackpoint>
            <Time>2018-12-30T10:51:07.000Z</Time>
            <Position>
              <LatitudeDegrees>40.7823498733341693878173828125</LatitudeDegrees>
              <LongitudeDegrees>-4.0683050639927387237548828125</LongitudeDegrees>
            </Position>
            <AltitudeMeters>1586.4000244140625</AltitudeMeters>
            <DistanceMeters>NAN</DistanceMeters>
          </Trackpoint>
          <Trackpoint>
            <Time>2018-12-30T10:51:08.000Z</Time>
            <Position>
              <LatitudeDegrees>40.78235515393316745758056640625</LatitudeDegrees>
              <LongitudeDegrees>-4.0682919882237911224365234375</LongitudeDegrees>
            </Position>
            <AltitudeMeters>1586.199951171875</AltitudeMeters>
            <DistanceMeters>NAN</DistanceMeters>
          </Trackpoint>
          <Trackpoint>
            <Time>2018-12-30T10:51:09.000Z</Time>
            <Position>
              <LatitudeDegrees>40.7823619432747364044189453125</LatitudeDegrees>
              <LongitudeDegrees>-4.0682792477309703826904296875</LongitudeDegrees>
            </Position>
            <AltitudeMeters>1586.199951171875</AltitudeMeters>
            <DistanceMeters>NAN</DistanceMeters>
          </Trackpoint>
          <Trackpoint>
            <Time>2018-12-30T10:51:10.000Z</Time>
            <Position>
              <LatitudeDegrees>40.78237057663500308990478515625</LatitudeDegrees>
              <LongitudeDegrees>-4.06826977618038654327392578125</LongitudeDegrees>
            </Position>
            <AltitudeMeters>1586.199951171875</AltitudeMeters>
            <DistanceMeters>NAN</DistanceMeters>
          </Trackpoint>
          <Trackpoint>
            <Time>2018-12-30T10:51:11.000Z</Time>
            <Position>
              <LatitudeDegrees>40.7823823951184749603271484375</LatitudeDegrees>
              <LongitudeDegrees>-4.0682581253349781036376953125</LongitudeDegrees>
            </Position>
            <AltitudeMeters>1586.4000244140625</AltitudeMeters>
            <DistanceMeters>NAN</DistanceMeters>
          </Trackpoint>
          <Trackpoint>
            <Time>2018-12-30T10:51:12.000Z</Time>
            <Position>
              <LatitudeDegrees>40.78239371068775653839111328125</LatitudeDegrees>
              <LongitudeDegrees>-4.0682524256408214569091796875</LongitudeDegrees>
            </Position>
            <AltitudeMeters>1586.4000244140625</AltitudeMeters>
            <DistanceMeters>NAN</DistanceMeters>
          </Trackpoint>
          <Trackpoint>
            <Time>2018-12-30T10:51:13.000Z</Time>
            <Position>
              <LatitudeDegrees>40.78240343369543552398681640625</LatitudeDegrees>
              <LongitudeDegrees>-4.06824764795601367950439453125</LongitudeDegrees>
            </Position>
            <AltitudeMeters>1586.5999755859375</AltitudeMeters>
            <DistanceMeters>NAN</DistanceMeters>
          </Trackpoint>
          <Trackpoint>
            <Time>2018-12-30T10:51:14.000Z</Time>
            <Position>
              <LatitudeDegrees>40.78241206705570220947265625</LatitudeDegrees>
              <LongitudeDegrees>-4.06824312172830104827880859375</LongitudeDegrees>
            </Position>
            <AltitudeMeters>1587</AltitudeMeters>
            <DistanceMeters>NAN</DistanceMeters>
          </Trackpoint>
          <Trackpoint>
            <Time>2018-12-30T10:51:15.000Z</Time>
            <Position>
              <LatitudeDegrees>40.7824186049401760101318359375</LatitudeDegrees>
              <LongitudeDegrees>-4.06823675148189067840576171875</LongitudeDegrees>
            </Position>
            <AltitudeMeters>1587.4000244140625</AltitudeMeters>
            <DistanceMeters>NAN</DistanceMeters>
          </Trackpoint>
          <Trackpoint>
            <Time>2018-12-30T10:51:16.000Z</Time>
            <Position>
              <LatitudeDegrees>40.78242422081530094146728515625</LatitudeDegrees>
              <LongitudeDegrees>-4.06823239289224147796630859375</LongitudeDegrees>
            </Position>
            <AltitudeMeters>1587.800048828125</AltitudeMeters>
            <DistanceMeters>NAN</DistanceMeters>
          </Trackpoint>
          <Trackpoint>
            <Time>2018-12-30T10:51:17.000Z</Time>
            <Position>
              <LatitudeDegrees>40.782429836690425872802734375</LatitudeDegrees>
              <LongitudeDegrees>-4.06822853721678256988525390625</LongitudeDegrees>
            </Position>
            <AltitudeMeters>1588</AltitudeMeters>
            <DistanceMeters>NAN</DistanceMeters>
          </Trackpoint>
          <Trackpoint>
            <Time>2018-12-30T10:51:18.000Z</Time>
            <Position>
              <LatitudeDegrees>40.78244534321129322052001953125</LatitudeDegrees>
              <LongitudeDegrees>-4.06821864657104015350341796875</LongitudeDegrees>
            </Position>
            <AltitudeMeters>1588.199951171875</AltitudeMeters>
            <DistanceMeters>NAN</DistanceMeters>
          </Trackpoint>
          <Trackpoint>
            <Time>2018-12-30T10:51:19.000Z</Time>
            <Position>
              <LatitudeDegrees>40.782459340989589691162109375</LatitudeDegrees>
              <LongitudeDegrees>-4.068214707076549530029296875</LongitudeDegrees>
            </Position>
            <AltitudeMeters>1588.4000244140625</AltitudeMeters>
            <DistanceMeters>NAN</DistanceMeters>
          </Trackpoint>
          <Trackpoint>
            <Time>2018-12-30T10:51:20.000Z</Time>
            <Position>
              <LatitudeDegrees>40.78247082419693470001220703125</LatitudeDegrees>
              <LongitudeDegrees>-4.06821244396269321441650390625</LongitudeDegrees>
            </Position>
            <AltitudeMeters>1588.4000244140625</AltitudeMeters>
            <DistanceMeters>NAN</DistanceMeters>
          </Trackpoint>
          <Trackpoint>
            <Time>2018-12-30T10:51:21.000Z</Time>
            <Position>
              <LatitudeDegrees>40.78248239122331142425537109375</LatitudeDegrees>
              <LongitudeDegrees>-4.06820959411561489105224609375</LongitudeDegrees>
            </Position>
            <AltitudeMeters>1588.5999755859375</AltitudeMeters>
            <DistanceMeters>NAN</DistanceMeters>
          </Trackpoint>
          <Trackpoint>
            <Time>2018-12-30T10:51:22.000Z</Time>
            <Position>
              <LatitudeDegrees>40.7824940420687198638916015625</LatitudeDegrees>
              <LongitudeDegrees>-4.06820892356336116790771484375</LongitudeDegrees>
            </Position>
            <AltitudeMeters>1588.800048828125</AltitudeMeters>
            <DistanceMeters>NAN</DistanceMeters>
          </Trackpoint>
          <Trackpoint>
            <Time>2018-12-30T10:51:23.000Z</Time>
            <Position>
              <LatitudeDegrees>40.78250435180962085723876953125</LatitudeDegrees>
              <LongitudeDegrees>-4.0682091750204563140869140625</LongitudeDegrees>
            </Position>
            <AltitudeMeters>1588.800048828125</AltitudeMeters>
            <DistanceMeters>NAN</DistanceMeters>
          </Trackpoint>
          <Trackpoint>
            <Time>2018-12-30T10:51:24.000Z</Time>
            <Position>
              <LatitudeDegrees>40.78251508064568042755126953125</LatitudeDegrees>
              <LongitudeDegrees>-4.068205319344997406005859375</LongitudeDegrees>
            </Position>
            <AltitudeMeters>1589</AltitudeMeters>
            <DistanceMeters>NAN</DistanceMeters>
          </Trackpoint>
          <Trackpoint>
            <Time>2018-12-30T10:51:25.000Z</Time>
            <Position>
              <LatitudeDegrees>40.78252664767205715179443359375</LatitudeDegrees>
              <LongitudeDegrees>-4.06820230185985565185546875</LongitudeDegrees>
            </Position>
            <AltitudeMeters>1589</AltitudeMeters>
            <DistanceMeters>NAN</DistanceMeters>
          </Trackpoint>
          <Trackpoint>
            <Time>2018-12-30T10:51:26.000Z</Time>
            <Position>
              <LatitudeDegrees>40.78254039399325847625732421875</LatitudeDegrees>
              <LongitudeDegrees>-4.06820272095501422882080078125</LongitudeDegrees>
            </Position>
            <AltitudeMeters>1589</AltitudeMeters>
            <DistanceMeters>NAN</DistanceMeters>
          </Trackpoint>
          <Trackpoint>
            <Time>2018-12-30T10:51:27.000Z</Time>
            <Position>
              <LatitudeDegrees>40.7825481891632080078125</LatitudeDegrees>
              <LongitudeDegrees>-4.06820389442145824432373046875</LongitudeDegrees>
            </Position>
            <AltitudeMeters>1589</AltitudeMeters>
            <DistanceMeters>NAN</DistanceMeters>
          </Trackpoint>
          <Trackpoint>
            <Time>2018-12-30T10:51:28.000Z</Time>
            <Position>
              <LatitudeDegrees>40.78255556523799896240234375</LatitudeDegrees>
              <LongitudeDegrees>-4.06819517724215984344482421875</LongitudeDegrees>
            </Position>
            <AltitudeMeters>1589</AltitudeMeters>
            <DistanceMeters>NAN</DistanceMeters>
          </Trackpoint>
          <Trackpoint>
            <Time>2018-12-30T10:51:29.000Z</Time>
            <Position>
              <LatitudeDegrees>40.7825610972940921783447265625</LatitudeDegrees>
              <LongitudeDegrees>-4.06818545423448085784912109375</LongitudeDegrees>
            </Position>
            <AltitudeMeters>1589</AltitudeMeters>
            <DistanceMeters>NAN</DistanceMeters>
          </Trackpoint>
          <Trackpoint>
            <Time>2018-12-30T10:51:30.000Z</Time>
            <Position>
              <LatitudeDegrees>40.782566629350185394287109375</LatitudeDegrees>
              <LongitudeDegrees>-4.0681776590645313262939453125</LongitudeDegrees>
            </Position>
            <AltitudeMeters>1589</AltitudeMeters>
            <DistanceMeters>NAN</DistanceMeters>
          </Trackpoint>
          <Trackpoint>
            <Time>2018-12-30T10:51:31.000Z</Time>
            <Position>
              <LatitudeDegrees>40.7825711555778980255126953125</LatitudeDegrees>
              <LongitudeDegrees>-4.06817413866519927978515625</LongitudeDegrees>
            </Position>
            <AltitudeMeters>1589</AltitudeMeters>
            <DistanceMeters>NAN</DistanceMeters>
          </Trackpoint>
          <Trackpoint>
            <Time>2018-12-30T10:51:32.000Z</Time>
            <Position>
              <LatitudeDegrees>40.78257794491946697235107421875</LatitudeDegrees>
              <LongitudeDegrees>-4.0681743063032627105712890625</LongitudeDegrees>
            </Position>
            <AltitudeMeters>1589</AltitudeMeters>
            <DistanceMeters>NAN</DistanceMeters>
          </Trackpoint>
          <Trackpoint>
            <Time>2018-12-30T10:51:33.000Z</Time>
            <Position>
              <LatitudeDegrees>40.7825862430036067962646484375</LatitudeDegrees>
              <LongitudeDegrees>-4.06817640177905559539794921875</LongitudeDegrees>
            </Position>
            <AltitudeMeters>1589</AltitudeMeters>
            <DistanceMeters>NAN</DistanceMeters>
          </Trackpoint>
          <Trackpoint>
            <Time>2018-12-30T10:51:34.000Z</Time>
            <Position>
              <LatitudeDegrees>40.782598815858364105224609375</LatitudeDegrees>
              <LongitudeDegrees>-4.06817774288356304168701171875</LongitudeDegrees>
            </Position>
            <AltitudeMeters>1589</AltitudeMeters>
            <DistanceMeters>NAN</DistanceMeters>
          </Trackpoint>
          <Trackpoint>
            <Time>2018-12-30T10:51:35.000Z</Time>
            <Position>
              <LatitudeDegrees>40.7826023362576961517333984375</LatitudeDegrees>
              <LongitudeDegrees>-4.06817606650292873382568359375</LongitudeDegrees>
            </Position>
            <AltitudeMeters>1589</AltitudeMeters>
            <DistanceMeters>NAN</DistanceMeters>
          </Trackpoint>
          <Trackpoint>
            <Time>2018-12-30T10:51:36.000Z</Time>
            <Position>
              <LatitudeDegrees>40.78261046670377254486083984375</LatitudeDegrees>
              <LongitudeDegrees>-4.0681743063032627105712890625</LongitudeDegrees>
            </Position>
            <AltitudeMeters>1589</AltitudeMeters>
            <DistanceMeters>NAN</DistanceMeters>
          </Trackpoint>
          <Trackpoint>
            <Time>2018-12-30T10:51:37.000Z</Time>
            <Position>
              <LatitudeDegrees>40.78262270428240299224853515625</LatitudeDegrees>
              <LongitudeDegrees>-4.06817405484616756439208984375</LongitudeDegrees>
            </Position>
            <AltitudeMeters>1588.800048828125</AltitudeMeters>
            <DistanceMeters>NAN</DistanceMeters>
          </Trackpoint>
          <Trackpoint>
            <Time>2018-12-30T10:51:38.000Z</Time>
            <Position>
              <LatitudeDegrees>40.78263544477522373199462890625</LatitudeDegrees>
              <LongitudeDegrees>-4.06817321665585041046142578125</LongitudeDegrees>
            </Position>
            <AltitudeMeters>1588.800048828125</AltitudeMeters>
            <DistanceMeters>NAN</DistanceMeters>
          </Trackpoint>
          <Trackpoint>
            <Time>2018-12-30T10:51:39.000Z</Time>
            <Position>
              <LatitudeDegrees>40.782643072307109832763671875</LatitudeDegrees>
              <LongitudeDegrees>-4.06816332601010799407958984375</LongitudeDegrees>
            </Position>
            <AltitudeMeters>1588.800048828125</AltitudeMeters>
            <DistanceMeters>NAN</DistanceMeters>
          </Trackpoint>
          <Trackpoint>
            <Time>2018-12-30T10:51:40.000Z</Time>
            <Position>
              <LatitudeDegrees>40.78264550305902957916259765625</LatitudeDegrees>
              <LongitudeDegrees>-4.0681551955640316009521484375</LongitudeDegrees>
            </Position>
            <AltitudeMeters>1589</AltitudeMeters>
            <DistanceMeters>NAN</DistanceMeters>
          </Trackpoint>
          <Trackpoint>
            <Time>2018-12-30T10:51:41.000Z</Time>
            <Position>
              <LatitudeDegrees>40.7826496101915836334228515625</LatitudeDegrees>
              <LongitudeDegrees>-4.0681481547653675079345703125</LongitudeDegrees>
            </Position>
            <AltitudeMeters>1589.199951171875</AltitudeMeters>
            <DistanceMeters>NAN</DistanceMeters>
          </Trackpoint>
          <Trackpoint>
            <Time>2018-12-30T10:51:42.000Z</Time>
            <Position>
              <LatitudeDegrees>40.78265204094350337982177734375</LatitudeDegrees>
              <LongitudeDegrees>-4.06813767738640308380126953125</LongitudeDegrees>
            </Position>
            <AltitudeMeters>1589.5999755859375</AltitudeMeters>
            <DistanceMeters>NAN</DistanceMeters>
          </Trackpoint>
          <Trackpoint>
            <Time>2018-12-30T10:51:43.000Z</Time>
            <Position>
              <LatitudeDegrees>40.78266193158924579620361328125</LatitudeDegrees>
              <LongitudeDegrees>-4.06813248060643672943115234375</LongitudeDegrees>
            </Position>
            <AltitudeMeters>1590.199951171875</AltitudeMeters>
            <DistanceMeters>NAN</DistanceMeters>
          </Trackpoint>
          <Trackpoint>
            <Time>2018-12-30T10:51:44.000Z</Time>
            <Position>
              <LatitudeDegrees>40.7826754264533519744873046875</LatitudeDegrees>
              <LongitudeDegrees>-4.0681226737797260284423828125</LongitudeDegrees>
            </Position>
            <AltitudeMeters>1590.5999755859375</AltitudeMeters>
            <DistanceMeters>NAN</DistanceMeters>
          </Trackpoint>
          <Trackpoint>
            <Time>2018-12-30T10:51:45.000Z</Time>
            <Position>
              <LatitudeDegrees>40.7826874963939189910888671875</LatitudeDegrees>
              <LongitudeDegrees>-4.06810783781111240386962890625</LongitudeDegrees>
            </Position>
            <AltitudeMeters>1590.800048828125</AltitudeMeters>
            <DistanceMeters>NAN</DistanceMeters>
          </Trackpoint>
          <Trackpoint>
            <Time>2018-12-30T10:51:46.000Z</Time>
            <Position>
              <LatitudeDegrees>40.782698057591915130615234375</LatitudeDegrees>
              <LongitudeDegrees>-4.0681079216301441192626953125</LongitudeDegrees>
            </Position>
            <AltitudeMeters>1591</AltitudeMeters>
            <DistanceMeters>NAN</DistanceMeters>
          </Trackpoint>
          <Trackpoint>
            <Time>2018-12-30T10:51:47.000Z</Time>
            <Position>
              <LatitudeDegrees>40.7827082835137844085693359375</LatitudeDegrees>
              <LongitudeDegrees>-4.06810834072530269622802734375</LongitudeDegrees>
            </Position>
            <AltitudeMeters>1591</AltitudeMeters>
            <DistanceMeters>NAN</DistanceMeters>
          </Trackpoint>
          <Trackpoint>
            <Time>2018-12-30T10:51:48.000Z</Time>
            <Position>
              <LatitudeDegrees>40.7827180065214633941650390625</LatitudeDegrees>
              <LongitudeDegrees>-4.06810976564884185791015625</LongitudeDegrees>
            </Position>
            <AltitudeMeters>1591</AltitudeMeters>
            <DistanceMeters>NAN</DistanceMeters>
          </Trackpoint>
          <Trackpoint>
            <Time>2018-12-30T10:51:49.000Z</Time>
            <Position>
              <LatitudeDegrees>40.782728232443332672119140625</LatitudeDegrees>
              <LongitudeDegrees>-4.06811202876269817352294921875</LongitudeDegrees>
            </Position>
            <AltitudeMeters>1590.800048828125</AltitudeMeters>
            <DistanceMeters>NAN</DistanceMeters>
          </Trackpoint>
          <Trackpoint>
            <Time>2018-12-30T10:51:50.000Z</Time>
            <Position>
              <LatitudeDegrees>40.78273636288940906524658203125</LatitudeDegrees>
              <LongitudeDegrees>-4.06811219640076160430908203125</LongitudeDegrees>
            </Position>
            <AltitudeMeters>1590.800048828125</AltitudeMeters>
            <DistanceMeters>NAN</DistanceMeters>
          </Trackpoint>
          <Trackpoint>
            <Time>2018-12-30T10:51:51.000Z</Time>
            <Position>
              <LatitudeDegrees>40.78274826519191265106201171875</LatitudeDegrees>
              <LongitudeDegrees>-4.06811169348657131195068359375</LongitudeDegrees>
            </Position>
            <AltitudeMeters>1590.800048828125</AltitudeMeters>
            <DistanceMeters>NAN</DistanceMeters>
          </Trackpoint>
          <Trackpoint>
            <Time>2018-12-30T10:51:52.000Z</Time>
            <Position>
              <LatitudeDegrees>40.78275882638990879058837890625</LatitudeDegrees>
              <LongitudeDegrees>-4.06811404041945934295654296875</LongitudeDegrees>
            </Position>
            <AltitudeMeters>1590.800048828125</AltitudeMeters>
            <DistanceMeters>NAN</DistanceMeters>
          </Trackpoint>
          <Trackpoint>
            <Time>2018-12-30T10:51:53.000Z</Time>
            <Position>
              <LatitudeDegrees>40.78276854939758777618408203125</LatitudeDegrees>
              <LongitudeDegrees>-4.0681169740855693817138671875</LongitudeDegrees>
            </Position>
            <AltitudeMeters>1590.800048828125</AltitudeMeters>
            <DistanceMeters>NAN</DistanceMeters>
          </Trackpoint>
          <Trackpoint>
            <Time>2018-12-30T10:51:54.000Z</Time>
            <Position>
              <LatitudeDegrees>40.782786905765533447265625</LatitudeDegrees>
              <LongitudeDegrees>-4.06811303459107875823974609375</LongitudeDegrees>
            </Position>
            <AltitudeMeters>1590.800048828125</AltitudeMeters>
            <DistanceMeters>NAN</DistanceMeters>
          </Trackpoint>
          <Trackpoint>
            <Time>2018-12-30T10:51:55.000Z</Time>
            <Position>
              <LatitudeDegrees>40.78279704786837100982666015625</LatitudeDegrees>
              <LongitudeDegrees>-4.0681122802197933197021484375</LongitudeDegrees>
            </Position>
            <AltitudeMeters>1590.800048828125</AltitudeMeters>
            <DistanceMeters>NAN</DistanceMeters>
          </Trackpoint>
          <Trackpoint>
            <Time>2018-12-30T10:51:56.000Z</Time>
            <Position>
              <LatitudeDegrees>40.7828051783144474029541015625</LatitudeDegrees>
              <LongitudeDegrees>-4.06811169348657131195068359375</LongitudeDegrees>
            </Position>
            <AltitudeMeters>1590.800048828125</AltitudeMeters>
            <DistanceMeters>NAN</DistanceMeters>
          </Trackpoint>
          <Trackpoint>
            <Time>2018-12-30T10:51:57.000Z</Time>
            <Position>
              <LatitudeDegrees>40.78281783498823642730712890625</LatitudeDegrees>
              <LongitudeDegrees>-4.06810783781111240386962890625</LongitudeDegrees>
            </Position>
            <AltitudeMeters>1590.800048828125</AltitudeMeters>
            <DistanceMeters>NAN</DistanceMeters>
          </Trackpoint>
          <Trackpoint>
            <Time>2018-12-30T10:51:58.000Z</Time>
            <Position>
              <LatitudeDegrees>40.7828299887478351593017578125</LatitudeDegrees>
              <LongitudeDegrees>-4.06810113228857517242431640625</LongitudeDegrees>
            </Position>
            <AltitudeMeters>1590.800048828125</AltitudeMeters>
            <DistanceMeters>NAN</DistanceMeters>
          </Trackpoint>
          <Trackpoint>
            <Time>2018-12-30T10:51:59.000Z</Time>
            <Position>
              <LatitudeDegrees>40.782840885221958160400390625</LatitudeDegrees>
              <LongitudeDegrees>-4.0680948458611965179443359375</LongitudeDegrees>
            </Position>
            <AltitudeMeters>1591</AltitudeMeters>
            <DistanceMeters>NAN</DistanceMeters>
          </Trackpoint>
          <Trackpoint>
            <Time>2018-12-30T10:52:00.000Z</Time>
            <Position>
              <LatitudeDegrees>40.782851614058017730712890625</LatitudeDegrees>
              <LongitudeDegrees>-4.06808696687221527099609375</LongitudeDegrees>
            </Position>
            <AltitudeMeters>1591</AltitudeMeters>
            <DistanceMeters>NAN</DistanceMeters>
          </Trackpoint>
          <Trackpoint>
            <Time>2018-12-30T10:52:01.000Z</Time>
            <Position>
              <LatitudeDegrees>40.7828625105321407318115234375</LatitudeDegrees>
              <LongitudeDegrees>-4.06808218918740749359130859375</LongitudeDegrees>
            </Position>
            <AltitudeMeters>1591</AltitudeMeters>
            <DistanceMeters>NAN</DistanceMeters>
          </Trackpoint>
          <Trackpoint>
            <Time>2018-12-30T10:52:02.000Z</Time>
            <Position>
              <LatitudeDegrees>40.7828722335398197174072265625</LatitudeDegrees>
              <LongitudeDegrees>-4.06807757914066314697265625</LongitudeDegrees>
            </Position>
            <AltitudeMeters>1591.199951171875</AltitudeMeters>
            <DistanceMeters>NAN</DistanceMeters>
          </Trackpoint>
          <Trackpoint>
            <Time>2018-12-30T10:52:03.000Z</Time>
            <Position>
              <LatitudeDegrees>40.7828822918236255645751953125</LatitudeDegrees>
              <LongitudeDegrees>-4.06807716004550457000732421875</LongitudeDegrees>
            </Position>
            <AltitudeMeters>1591.4000244140625</AltitudeMeters>
            <DistanceMeters>NAN</DistanceMeters>
          </Trackpoint>
          <Trackpoint>
            <Time>2018-12-30T10:52:04.000Z</Time>
            <Position>
              <LatitudeDegrees>40.7828955352306365966796875</LatitudeDegrees>
              <LongitudeDegrees>-4.06808135099709033966064453125</LongitudeDegrees>
            </Position>
            <AltitudeMeters>1591.5999755859375</AltitudeMeters>
            <DistanceMeters>NAN</DistanceMeters>
          </Trackpoint>
          <Trackpoint>
            <Time>2018-12-30T10:52:05.000Z</Time>
            <Position>
              <LatitudeDegrees>40.78290785662829875946044921875</LatitudeDegrees>
              <LongitudeDegrees>-4.06808671541512012481689453125</LongitudeDegrees>
            </Position>
            <AltitudeMeters>1591.5999755859375</AltitudeMeters>
            <DistanceMeters>NAN</DistanceMeters>
          </Trackpoint>
          <Trackpoint>
            <Time>2018-12-30T10:52:06.000Z</Time>
            <Position>
              <LatitudeDegrees>40.782920680940151214599609375</LatitudeDegrees>
              <LongitudeDegrees>-4.06808906234800815582275390625</LongitudeDegrees>
            </Position>
            <AltitudeMeters>1591.5999755859375</AltitudeMeters>
            <DistanceMeters>NAN</DistanceMeters>
          </Trackpoint>
          <Trackpoint>
            <Time>2018-12-30T10:52:07.000Z</Time>
            <Position>
              <LatitudeDegrees>40.78293568454682826995849609375</LatitudeDegrees>
              <LongitudeDegrees>-4.06808587722480297088623046875</LongitudeDegrees>
            </Position>
            <AltitudeMeters>1591.5999755859375</AltitudeMeters>
            <DistanceMeters>NAN</DistanceMeters>
          </Trackpoint>
          <Trackpoint>
            <Time>2018-12-30T10:52:08.000Z</Time>
            <Position>
              <LatitudeDegrees>40.78294423408806324005126953125</LatitudeDegrees>
              <LongitudeDegrees>-4.068078584969043731689453125</LongitudeDegrees>
            </Position>
            <AltitudeMeters>1591.800048828125</AltitudeMeters>
            <DistanceMeters>NAN</DistanceMeters>
          </Trackpoint>
          <Trackpoint>
            <Time>2018-12-30T10:52:09.000Z</Time>
            <Position>
              <LatitudeDegrees>40.782962255179882049560546875</LatitudeDegrees>
              <LongitudeDegrees>-4.068074561655521392822265625</LongitudeDegrees>
            </Position>
            <AltitudeMeters>1591.5999755859375</AltitudeMeters>
            <DistanceMeters>NAN</DistanceMeters>
          </Trackpoint>
          <Trackpoint>
            <Time>2018-12-30T10:52:10.000Z</Time>
            <Position>
              <LatitudeDegrees>40.78297189436852931976318359375</LatitudeDegrees>
              <LongitudeDegrees>-4.068063832819461822509765625</LongitudeDegrees>
            </Position>
            <AltitudeMeters>1591.5999755859375</AltitudeMeters>
            <DistanceMeters>NAN</DistanceMeters>
          </Trackpoint>
          <Trackpoint>
            <Time>2018-12-30T10:52:11.000Z</Time>
            <Position>
              <LatitudeDegrees>40.78298128210008144378662109375</LatitudeDegrees>
              <LongitudeDegrees>-4.06805570237338542938232421875</LongitudeDegrees>
            </Position>
            <AltitudeMeters>1591.5999755859375</AltitudeMeters>
            <DistanceMeters>NAN</DistanceMeters>
          </Trackpoint>
          <Trackpoint>
            <Time>2018-12-30T10:52:12.000Z</Time>
            <Position>
              <LatitudeDegrees>40.7829922623932361602783203125</LatitudeDegrees>
              <LongitudeDegrees>-4.06805419363081455230712890625</LongitudeDegrees>
            </Position>
            <AltitudeMeters>1591.5999755859375</AltitudeMeters>
            <DistanceMeters>NAN</DistanceMeters>
          </Trackpoint>
          <Trackpoint>
            <Time>2018-12-30T10:52:13.000Z</Time>
            <Position>
              <LatitudeDegrees>40.78299854882061481475830078125</LatitudeDegrees>
              <LongitudeDegrees>-4.06805000267922878265380859375</LongitudeDegrees>
            </Position>
            <AltitudeMeters>1591.5999755859375</AltitudeMeters>
            <DistanceMeters>NAN</DistanceMeters>
          </Trackpoint>
          <Trackpoint>
            <Time>2018-12-30T10:52:14.000Z</Time>
            <Position>
              <LatitudeDegrees>40.78300458379089832305908203125</LatitudeDegrees>
              <LongitudeDegrees>-4.0680435486137866973876953125</LongitudeDegrees>
            </Position>
            <AltitudeMeters>1591.5999755859375</AltitudeMeters>
            <DistanceMeters>NAN</DistanceMeters>
          </Trackpoint>
          <Trackpoint>
            <Time>2018-12-30T10:52:15.000Z</Time>
            <Position>
              <LatitudeDegrees>40.78301430679857730865478515625</LatitudeDegrees>
              <LongitudeDegrees>-4.06803776510059833526611328125</LongitudeDegrees>
            </Position>
            <AltitudeMeters>1591.800048828125</AltitudeMeters>
            <DistanceMeters>NAN</DistanceMeters>
          </Trackpoint>
          <Trackpoint>
            <Time>2018-12-30T10:52:16.000Z</Time>
            <Position>
              <LatitudeDegrees>40.783023275434970855712890625</LatitudeDegrees>
              <LongitudeDegrees>-4.06803466379642486572265625</LongitudeDegrees>
            </Position>
            <AltitudeMeters>1592</AltitudeMeters>
            <DistanceMeters>NAN</DistanceMeters>
          </Trackpoint>
          <Trackpoint>
            <Time>2018-12-30T10:52:17.000Z</Time>
            <Position>
              <LatitudeDegrees>40.7830324955284595489501953125</LatitudeDegrees>
              <LongitudeDegrees>-4.06803198158740997314453125</LongitudeDegrees>
            </Position>
            <AltitudeMeters>1592.199951171875</AltitudeMeters>
            <DistanceMeters>NAN</DistanceMeters>
          </Trackpoint>
          <Trackpoint>
            <Time>2018-12-30T10:52:18.000Z</Time>
            <Position>
              <LatitudeDegrees>40.783038698136806488037109375</LatitudeDegrees>
              <LongitudeDegrees>-4.0680192410945892333984375</LongitudeDegrees>
            </Position>
            <AltitudeMeters>1592.800048828125</AltitudeMeters>
            <DistanceMeters>NAN</DistanceMeters>
          </Trackpoint>
          <Trackpoint>
            <Time>2018-12-30T10:52:19.000Z</Time>
            <Position>
              <LatitudeDegrees>40.78304640948772430419921875</LatitudeDegrees>
              <LongitudeDegrees>-4.0680086798965930938720703125</LongitudeDegrees>
            </Position>
            <AltitudeMeters>1593.199951171875</AltitudeMeters>
            <DistanceMeters>NAN</DistanceMeters>
          </Trackpoint>
          <Trackpoint>
            <Time>2018-12-30T10:52:20.000Z</Time>
            <Position>
              <LatitudeDegrees>40.78305588103830814361572265625</LatitudeDegrees>
              <LongitudeDegrees>-4.06800272874534130096435546875</LongitudeDegrees>
            </Position>
            <AltitudeMeters>1593.4000244140625</AltitudeMeters>
            <DistanceMeters>NAN</DistanceMeters>
          </Trackpoint>
          <Trackpoint>
            <Time>2018-12-30T10:52:21.000Z</Time>
            <Position>
              <LatitudeDegrees>40.7830645143985748291015625</LatitudeDegrees>
              <LongitudeDegrees>-4.06799577176570892333984375</LongitudeDegrees>
            </Position>
            <AltitudeMeters>1593.5999755859375</AltitudeMeters>
            <DistanceMeters>NAN</DistanceMeters>
          </Trackpoint>
          <Trackpoint>
            <Time>2018-12-30T10:52:22.000Z</Time>
            <Position>
              <LatitudeDegrees>40.7830707170069217681884765625</LatitudeDegrees>
              <LongitudeDegrees>-4.06798663549125194549560546875</LongitudeDegrees>
            </Position>
            <AltitudeMeters>1593.800048828125</AltitudeMeters>
            <DistanceMeters>NAN</DistanceMeters>
          </Trackpoint>
          <Trackpoint>
            <Time>2018-12-30T10:52:23.000Z</Time>
            <Position>
              <LatitudeDegrees>40.783076919615268707275390625</LatitudeDegrees>
              <LongitudeDegrees>-4.0679741464555263519287109375</LongitudeDegrees>
            </Position>
            <AltitudeMeters>1593.800048828125</AltitudeMeters>
            <DistanceMeters>NAN</DistanceMeters>
          </Trackpoint>
          <Trackpoint>
            <Time>2018-12-30T10:52:24.000Z</Time>
            <Position>
              <LatitudeDegrees>40.78308471478521823883056640625</LatitudeDegrees>
              <LongitudeDegrees>-4.0679640881717205047607421875</LongitudeDegrees>
            </Position>
            <AltitudeMeters>1594</AltitudeMeters>
            <DistanceMeters>NAN</DistanceMeters>
          </Trackpoint>
          <Trackpoint>
            <Time>2018-12-30T10:52:25.000Z</Time>
            <Position>
              <LatitudeDegrees>40.78309309668838977813720703125</LatitudeDegrees>
              <LongitudeDegrees>-4.0679459832608699798583984375</LongitudeDegrees>
            </Position>
            <AltitudeMeters>1594</AltitudeMeters>
            <DistanceMeters>NAN</DistanceMeters>
          </Trackpoint>
          <Trackpoint>
            <Time>2018-12-30T10:52:26.000Z</Time>
            <Position>
              <LatitudeDegrees>40.7831039093434810638427734375</LatitudeDegrees>
              <LongitudeDegrees>-4.067941792309284210205078125</LongitudeDegrees>
            </Position>
            <AltitudeMeters>1594.199951171875</AltitudeMeters>
            <DistanceMeters>NAN</DistanceMeters>
          </Trackpoint>
          <Trackpoint>
            <Time>2018-12-30T10:52:27.000Z</Time>
            <Position>
              <LatitudeDegrees>40.7831146381795406341552734375</LatitudeDegrees>
              <LongitudeDegrees>-4.067936427891254425048828125</LongitudeDegrees>
            </Position>
            <AltitudeMeters>1594.4000244140625</AltitudeMeters>
            <DistanceMeters>NAN</DistanceMeters>
          </Trackpoint>
          <Trackpoint>
            <Time>2018-12-30T10:52:28.000Z</Time>
            <Position>
              <LatitudeDegrees>40.78312695957720279693603515625</LatitudeDegrees>
              <LongitudeDegrees>-4.0679298900067806243896484375</LongitudeDegrees>
            </Position>
            <AltitudeMeters>1594.4000244140625</AltitudeMeters>
            <DistanceMeters>NAN</DistanceMeters>
          </Trackpoint>
          <Trackpoint>
            <Time>2018-12-30T10:52:29.000Z</Time>
            <Position>
              <LatitudeDegrees>40.78313416801393032073974609375</LatitudeDegrees>
              <LongitudeDegrees>-4.0679161436855792999267578125</LongitudeDegrees>
            </Position>
            <AltitudeMeters>1594.199951171875</AltitudeMeters>
            <DistanceMeters>NAN</DistanceMeters>
          </Trackpoint>
          <Trackpoint>
            <Time>2018-12-30T10:52:30.000Z</Time>
            <Position>
              <LatitudeDegrees>40.78314271755516529083251953125</LatitudeDegrees>
              <LongitudeDegrees>-4.06790633685886859893798828125</LongitudeDegrees>
            </Position>
            <AltitudeMeters>1594</AltitudeMeters>
            <DistanceMeters>NAN</DistanceMeters>
          </Trackpoint>
          <Trackpoint>
            <Time>2018-12-30T10:52:31.000Z</Time>
            <Position>
              <LatitudeDegrees>40.78314699232578277587890625</LatitudeDegrees>
              <LongitudeDegrees>-4.06789644621312618255615234375</LongitudeDegrees>
            </Position>
            <AltitudeMeters>1594</AltitudeMeters>
            <DistanceMeters>NAN</DistanceMeters>
          </Trackpoint>
          <Trackpoint>
            <Time>2018-12-30T10:52:32.000Z</Time>
            <Position>
              <LatitudeDegrees>40.78315503895282745361328125</LatitudeDegrees>
              <LongitudeDegrees>-4.06788974069058895111083984375</LongitudeDegrees>
            </Position>
            <AltitudeMeters>1593.800048828125</AltitudeMeters>
            <DistanceMeters>NAN</DistanceMeters>
          </Trackpoint>
          <Trackpoint>
            <Time>2018-12-30T10:52:33.000Z</Time>
            <Position>
              <LatitudeDegrees>40.78316442668437957763671875</LatitudeDegrees>
              <LongitudeDegrees>-4.0678822807967662811279296875</LongitudeDegrees>
            </Position>
            <AltitudeMeters>1593.800048828125</AltitudeMeters>
            <DistanceMeters>NAN</DistanceMeters>
          </Trackpoint>
          <Trackpoint>
            <Time>2018-12-30T10:52:34.000Z</Time>
            <Position>
              <LatitudeDegrees>40.783174149692058563232421875</LatitudeDegrees>
              <LongitudeDegrees>-4.06787448562681674957275390625</LongitudeDegrees>
            </Position>
            <AltitudeMeters>1593.800048828125</AltitudeMeters>
            <DistanceMeters>NAN</DistanceMeters>
          </Trackpoint>
          <Trackpoint>
            <Time>2018-12-30T10:52:35.000Z</Time>
            <Position>
              <LatitudeDegrees>40.783183537423610687255859375</LatitudeDegrees>
              <LongitudeDegrees>-4.06786828301846981048583984375</LongitudeDegrees>
            </Position>
            <AltitudeMeters>1593.800048828125</AltitudeMeters>
            <DistanceMeters>NAN</DistanceMeters>
          </Trackpoint>
          <Trackpoint>
            <Time>2018-12-30T10:52:36.000Z</Time>
            <Position>
              <LatitudeDegrees>40.7831934280693531036376953125</LatitudeDegrees>
              <LongitudeDegrees>-4.067864008247852325439453125</LongitudeDegrees>
            </Position>
            <AltitudeMeters>1594</AltitudeMeters>
            <DistanceMeters>NAN</DistanceMeters>
          </Trackpoint>
          <Trackpoint>
            <Time>2018-12-30T10:52:37.000Z</Time>
            <Position>
              <LatitudeDegrees>40.783204324543476104736328125</LatitudeDegrees>
              <LongitudeDegrees>-4.067860655486583709716796875</LongitudeDegrees>
            </Position>
            <AltitudeMeters>1594.199951171875</AltitudeMeters>
            <DistanceMeters>NAN</DistanceMeters>
          </Trackpoint>
          <Trackpoint>
            <Time>2018-12-30T10:52:38.000Z</Time>
            <Position>
              <LatitudeDegrees>40.78321698121726512908935546875</LatitudeDegrees>
              <LongitudeDegrees>-4.0678604878485202789306640625</LongitudeDegrees>
            </Position>
            <AltitudeMeters>1594.4000244140625</AltitudeMeters>
            <DistanceMeters>NAN</DistanceMeters>
          </Trackpoint>
          <Trackpoint>
            <Time>2018-12-30T10:52:39.000Z</Time>
            <Position>
              <LatitudeDegrees>40.78322737477719783782958984375</LatitudeDegrees>
              <LongitudeDegrees>-4.0678541176021099090576171875</LongitudeDegrees>
            </Position>
            <AltitudeMeters>1594.5999755859375</AltitudeMeters>
            <DistanceMeters>NAN</DistanceMeters>
          </Trackpoint>
          <Trackpoint>
            <Time>2018-12-30T10:52:40.000Z</Time>
            <Position>
              <LatitudeDegrees>40.783236511051654815673828125</LatitudeDegrees>
              <LongitudeDegrees>-4.06784514896571636199951171875</LongitudeDegrees>
            </Position>
            <AltitudeMeters>1594.5999755859375</AltitudeMeters>
            <DistanceMeters>NAN</DistanceMeters>
          </Trackpoint>
          <Trackpoint>
            <Time>2018-12-30T10:52:41.000Z</Time>
            <Position>
              <LatitudeDegrees>40.783247239887714385986328125</LatitudeDegrees>
              <LongitudeDegrees>-4.06783944927155971527099609375</LongitudeDegrees>
            </Position>
            <AltitudeMeters>1594.800048828125</AltitudeMeters>
            <DistanceMeters>NAN</DistanceMeters>
          </Trackpoint>
          <Trackpoint>
            <Time>2018-12-30T10:52:42.000Z</Time>
            <Position>
              <LatitudeDegrees>40.7832576334476470947265625</LatitudeDegrees>
              <LongitudeDegrees>-4.06783483922481536865234375</LongitudeDegrees>
            </Position>
            <AltitudeMeters>1594.800048828125</AltitudeMeters>
            <DistanceMeters>NAN</DistanceMeters>
          </Trackpoint>
          <Trackpoint>
            <Time>2018-12-30T10:52:43.000Z</Time>
            <Position>
              <LatitudeDegrees>40.7832675240933895111083984375</LatitudeDegrees>
              <LongitudeDegrees>-4.0678303129971027374267578125</LongitudeDegrees>
            </Position>
            <AltitudeMeters>1595</AltitudeMeters>
            <DistanceMeters>NAN</DistanceMeters>
          </Trackpoint>
          <Trackpoint>
            <Time>2018-12-30T10:52:44.000Z</Time>
            <Position>
              <LatitudeDegrees>40.783274732530117034912109375</LatitudeDegrees>
              <LongitudeDegrees>-4.06782922334969043731689453125</LongitudeDegrees>
            </Position>
            <AltitudeMeters>1595.199951171875</AltitudeMeters>
            <DistanceMeters>NAN</DistanceMeters>
          </Trackpoint>
          <Trackpoint>
            <Time>2018-12-30T10:52:45.000Z</Time>
            <Position>
              <LatitudeDegrees>40.78328118659555912017822265625</LatitudeDegrees>
              <LongitudeDegrees>-4.0678373537957668304443359375</LongitudeDegrees>
            </Position>
            <AltitudeMeters>1595.199951171875</AltitudeMeters>
            <DistanceMeters>NAN</DistanceMeters>
          </Trackpoint>
          <Trackpoint>
            <Time>2018-12-30T10:52:46.000Z</Time>
            <Position>
              <LatitudeDegrees>40.78328588046133518218994140625</LatitudeDegrees>
              <LongitudeDegrees>-4.06783810816705226898193359375</LongitudeDegrees>
            </Position>
            <AltitudeMeters>1595.4000244140625</AltitudeMeters>
            <DistanceMeters>NAN</DistanceMeters>
          </Trackpoint>
          <Trackpoint>
            <Time>2018-12-30T10:52:47.000Z</Time>
            <Position>
              <LatitudeDegrees>40.783291496336460113525390625</LatitudeDegrees>
              <LongitudeDegrees>-4.06783157028257846832275390625</LongitudeDegrees>
            </Position>
            <AltitudeMeters>1595.4000244140625</AltitudeMeters>
            <DistanceMeters>NAN</DistanceMeters>
          </Trackpoint>
          <Trackpoint>
            <Time>2018-12-30T10:52:48.000Z</Time>
            <Position>
              <LatitudeDegrees>40.78329660929739475250244140625</LatitudeDegrees>
              <LongitudeDegrees>-4.06782436184585094451904296875</LongitudeDegrees>
            </Position>
            <AltitudeMeters>1595.199951171875</AltitudeMeters>
            <DistanceMeters>NAN</DistanceMeters>
          </Trackpoint>
          <Trackpoint>
            <Time>2018-12-30T10:52:49.000Z</Time>
            <Position>
              <LatitudeDegrees>40.7832993753254413604736328125</LatitudeDegrees>
              <LongitudeDegrees>-4.0678091906011104583740234375</LongitudeDegrees>
            </Position>
            <AltitudeMeters>1595.199951171875</AltitudeMeters>
            <DistanceMeters>NAN</DistanceMeters>
          </Trackpoint>
          <Trackpoint>
            <Time>2018-12-30T10:52:50.000Z</Time>
            <Position>
              <LatitudeDegrees>40.78330113552510738372802734375</LatitudeDegrees>
              <LongitudeDegrees>-4.0677957795560359954833984375</LongitudeDegrees>
            </Position>
            <AltitudeMeters>1595.4000244140625</AltitudeMeters>
            <DistanceMeters>NAN</DistanceMeters>
          </Trackpoint>
          <Trackpoint>
            <Time>2018-12-30T10:52:51.000Z</Time>
            <Position>
              <LatitudeDegrees>40.78330314718186855316162109375</LatitudeDegrees>
              <LongitudeDegrees>-4.067774824798107147216796875</LongitudeDegrees>
            </Position>
            <AltitudeMeters>1595.199951171875</AltitudeMeters>
            <DistanceMeters>NAN</DistanceMeters>
          </Trackpoint>
          <Trackpoint>
            <Time>2018-12-30T10:52:52.000Z</Time>
            <Position>
              <LatitudeDegrees>40.78330834396183490753173828125</LatitudeDegrees>
              <LongitudeDegrees>-4.06775982119143009185791015625</LongitudeDegrees>
            </Position>
            <AltitudeMeters>1595.4000244140625</AltitudeMeters>
            <DistanceMeters>NAN</DistanceMeters>
          </Trackpoint>
          <Trackpoint>
            <Time>2018-12-30T10:52:53.000Z</Time>
            <Position>
              <LatitudeDegrees>40.7833101041615009307861328125</LatitudeDegrees>
              <LongitudeDegrees>-4.06774339266121387481689453125</LongitudeDegrees>
            </Position>
            <AltitudeMeters>1595.5999755859375</AltitudeMeters>
            <DistanceMeters>NAN</DistanceMeters>
          </Trackpoint>
          <Trackpoint>
            <Time>2018-12-30T10:52:54.000Z</Time>
            <Position>
              <LatitudeDegrees>40.7833114452660083770751953125</LatitudeDegrees>
              <LongitudeDegrees>-4.067729227244853973388671875</LongitudeDegrees>
            </Position>
            <AltitudeMeters>1595.800048828125</AltitudeMeters>
            <DistanceMeters>NAN</DistanceMeters>
          </Trackpoint>
          <Trackpoint>
            <Time>2018-12-30T10:52:55.000Z</Time>
            <Position>
              <LatitudeDegrees>40.78331471420824527740478515625</LatitudeDegrees>
              <LongitudeDegrees>-4.06771455891430377960205078125</LongitudeDegrees>
            </Position>
            <AltitudeMeters>1596</AltitudeMeters>
            <DistanceMeters>NAN</DistanceMeters>
          </Trackpoint>
          <Trackpoint>
            <Time>2018-12-30T10:52:56.000Z</Time>
            <Position>
              <LatitudeDegrees>40.7833268679678440093994140625</LatitudeDegrees>
              <LongitudeDegrees>-4.06767818145453929901123046875</LongitudeDegrees>
            </Position>
            <AltitudeMeters>1596</AltitudeMeters>
            <DistanceMeters>NAN</DistanceMeters>
          </Trackpoint>
          <Trackpoint>
            <Time>2018-12-30T10:52:57.000Z</Time>
            <Position>
              <LatitudeDegrees>40.7833268679678440093994140625</LatitudeDegrees>
              <LongitudeDegrees>-4.06767818145453929901123046875</LongitudeDegrees>
            </Position>
            <AltitudeMeters>1596.199951171875</AltitudeMeters>
            <DistanceMeters>NAN</DistanceMeters>
          </Trackpoint>
          <Trackpoint>
            <Time>2018-12-30T10:52:58.000Z</Time>
            <Position>
              <LatitudeDegrees>40.7833318971097469329833984375</LatitudeDegrees>
              <LongitudeDegrees>-4.06766644679009914398193359375</LongitudeDegrees>
            </Position>
            <AltitudeMeters>1596.4000244140625</AltitudeMeters>
            <DistanceMeters>NAN</DistanceMeters>
          </Trackpoint>
          <Trackpoint>
            <Time>2018-12-30T10:52:59.000Z</Time>
            <Position>
              <LatitudeDegrees>40.7833421230316162109375</LatitudeDegrees>
              <LongitudeDegrees>-4.0676673687994480133056640625</LongitudeDegrees>
            </Position>
            <AltitudeMeters>1596.5999755859375</AltitudeMeters>
            <DistanceMeters>NAN</DistanceMeters>
          </Trackpoint>
          <Trackpoint>
            <Time>2018-12-30T10:53:00.000Z</Time>
            <Position>
              <LatitudeDegrees>40.78335913829505443572998046875</LatitudeDegrees>
              <LongitudeDegrees>-4.06767181120812892913818359375</LongitudeDegrees>
            </Position>
            <AltitudeMeters>1596.5999755859375</AltitudeMeters>
            <DistanceMeters>NAN</DistanceMeters>
          </Trackpoint>
          <Trackpoint>
            <Time>2018-12-30T10:53:01.000Z</Time>
            <Position>
              <LatitudeDegrees>40.78337003476917743682861328125</LatitudeDegrees>
              <LongitudeDegrees>-4.067660830914974212646484375</LongitudeDegrees>
            </Position>
            <AltitudeMeters>1596.800048828125</AltitudeMeters>
            <DistanceMeters>NAN</DistanceMeters>
          </Trackpoint>
          <Trackpoint>
            <Time>2018-12-30T10:53:02.000Z</Time>
            <Position>
              <LatitudeDegrees>40.78337791375815868377685546875</LatitudeDegrees>
              <LongitudeDegrees>-4.0676517784595489501953125</LongitudeDegrees>
            </Position>
            <AltitudeMeters>1596.800048828125</AltitudeMeters>
            <DistanceMeters>NAN</DistanceMeters>
          </Trackpoint>
          <Trackpoint>
            <Time>2018-12-30T10:53:03.000Z</Time>
            <Position>
              <LatitudeDegrees>40.78338730148971080780029296875</LatitudeDegrees>
              <LongitudeDegrees>-4.06764498911798000335693359375</LongitudeDegrees>
            </Position>
            <AltitudeMeters>1597</AltitudeMeters>
            <DistanceMeters>NAN</DistanceMeters>
          </Trackpoint>
          <Trackpoint>
            <Time>2018-12-30T10:53:04.000Z</Time>
            <Position>
              <LatitudeDegrees>40.7833929173648357391357421875</LatitudeDegrees>
              <LongitudeDegrees>-4.06763409264385700225830078125</LongitudeDegrees>
            </Position>
            <AltitudeMeters>1597</AltitudeMeters>
            <DistanceMeters>NAN</DistanceMeters>
          </Trackpoint>
          <Trackpoint>
            <Time>2018-12-30T10:53:05.000Z</Time>
            <Position>
              <LatitudeDegrees>40.783400796353816986083984375</LatitudeDegrees>
              <LongitudeDegrees>-4.06762436963617801666259765625</LongitudeDegrees>
            </Position>
            <AltitudeMeters>1597.199951171875</AltitudeMeters>
            <DistanceMeters>NAN</DistanceMeters>
          </Trackpoint>
          <Trackpoint>
            <Time>2018-12-30T10:53:06.000Z</Time>
            <Position>
              <LatitudeDegrees>40.78340624459087848663330078125</LatitudeDegrees>
              <LongitudeDegrees>-4.06761162914335727691650390625</LongitudeDegrees>
            </Position>
            <AltitudeMeters>1597.4000244140625</AltitudeMeters>
            <DistanceMeters>NAN</DistanceMeters>
          </Trackpoint>
          <Trackpoint>
            <Time>2018-12-30T10:53:07.000Z</Time>
            <Position>
              <LatitudeDegrees>40.783411525189876556396484375</LatitudeDegrees>
              <LongitudeDegrees>-4.06760291196405887603759765625</LongitudeDegrees>
            </Position>
            <AltitudeMeters>1597.5999755859375</AltitudeMeters>
            <DistanceMeters>NAN</DistanceMeters>
          </Trackpoint>
          <Trackpoint>
            <Time>2018-12-30T10:53:08.000Z</Time>
            <Position>
              <LatitudeDegrees>40.78341697342693805694580078125</LatitudeDegrees>
              <LongitudeDegrees>-4.06759612262248992919921875</LongitudeDegrees>
            </Position>
            <AltitudeMeters>1597.800048828125</AltitudeMeters>
            <DistanceMeters>NAN</DistanceMeters>
          </Trackpoint>
          <Trackpoint>
            <Time>2018-12-30T10:53:09.000Z</Time>
            <Position>
              <LatitudeDegrees>40.783422254025936126708984375</LatitudeDegrees>
              <LongitudeDegrees>-4.06758883036673069000244140625</LongitudeDegrees>
            </Position>
            <AltitudeMeters>1597.800048828125</AltitudeMeters>
            <DistanceMeters>NAN</DistanceMeters>
          </Trackpoint>
          <Trackpoint>
            <Time>2018-12-30T10:53:10.000Z</Time>
            <Position>
              <LatitudeDegrees>40.7834239304065704345703125</LatitudeDegrees>
              <LongitudeDegrees>-4.06758212484419345855712890625</LongitudeDegrees>
            </Position>
            <AltitudeMeters>1598</AltitudeMeters>
            <DistanceMeters>NAN</DistanceMeters>
          </Trackpoint>
          <Trackpoint>
            <Time>2018-12-30T10:53:11.000Z</Time>
            <Position>
              <LatitudeDegrees>40.7834234274923801422119140625</LatitudeDegrees>
              <LongitudeDegrees>-4.0675738267600536346435546875</LongitudeDegrees>
            </Position>
            <AltitudeMeters>1598.199951171875</AltitudeMeters>
            <DistanceMeters>NAN</DistanceMeters>
          </Trackpoint>
          <Trackpoint>
            <Time>2018-12-30T10:53:12.000Z</Time>
            <Position>
              <LatitudeDegrees>40.783430971205234527587890625</LatitudeDegrees>
              <LongitudeDegrees>-4.0675630979239940643310546875</LongitudeDegrees>
            </Position>
            <AltitudeMeters>1598.199951171875</AltitudeMeters>
            <DistanceMeters>NAN</DistanceMeters>
          </Trackpoint>
          <Trackpoint>
            <Time>2018-12-30T10:53:13.000Z</Time>
            <Position>
              <LatitudeDegrees>40.78343935310840606689453125</LatitudeDegrees>
              <LongitudeDegrees>-4.06755681149661540985107421875</LongitudeDegrees>
            </Position>
            <AltitudeMeters>1598.199951171875</AltitudeMeters>
            <DistanceMeters>NAN</DistanceMeters>
          </Trackpoint>
          <Trackpoint>
            <Time>2018-12-30T10:53:14.000Z</Time>
            <Position>
              <LatitudeDegrees>40.7834492437541484832763671875</LatitudeDegrees>
              <LongitudeDegrees>-4.06755044125020503997802734375</LongitudeDegrees>
            </Position>
            <AltitudeMeters>1598.199951171875</AltitudeMeters>
            <DistanceMeters>NAN</DistanceMeters>
          </Trackpoint>
          <Trackpoint>
            <Time>2018-12-30T10:53:15.000Z</Time>
            <Position>
              <LatitudeDegrees>40.783461816608905792236328125</LatitudeDegrees>
              <LongitudeDegrees>-4.06754876486957073211669921875</LongitudeDegrees>
            </Position>
            <AltitudeMeters>1598.199951171875</AltitudeMeters>
            <DistanceMeters>NAN</DistanceMeters>
          </Trackpoint>
          <Trackpoint>
            <Time>2018-12-30T10:53:16.000Z</Time>
            <Position>
              <LatitudeDegrees>40.783469192683696746826171875</LatitudeDegrees>
              <LongitudeDegrees>-4.06753870658576488494873046875</LongitudeDegrees>
            </Position>
            <AltitudeMeters>1598.4000244140625</AltitudeMeters>
            <DistanceMeters>NAN</DistanceMeters>
          </Trackpoint>
          <Trackpoint>
            <Time>2018-12-30T10:53:17.000Z</Time>
            <Position>
              <LatitudeDegrees>40.7834730483591556549072265625</LatitudeDegrees>
              <LongitudeDegrees>-4.06752831302583217620849609375</LongitudeDegrees>
            </Position>
            <AltitudeMeters>1598.5999755859375</AltitudeMeters>
            <DistanceMeters>NAN</DistanceMeters>
          </Trackpoint>
          <Trackpoint>
            <Time>2018-12-30T10:53:18.000Z</Time>
            <Position>
              <LatitudeDegrees>40.7834790833294391632080078125</LatitudeDegrees>
              <LongitudeDegrees>-4.0675185061991214752197265625</LongitudeDegrees>
            </Position>
            <AltitudeMeters>1598.5999755859375</AltitudeMeters>
            <DistanceMeters>NAN</DistanceMeters>
          </Trackpoint>
          <Trackpoint>
            <Time>2018-12-30T10:53:19.000Z</Time>
            <Position>
              <LatitudeDegrees>40.78348302282392978668212890625</LatitudeDegrees>
              <LongitudeDegrees>-4.067502580583095550537109375</LongitudeDegrees>
            </Position>
            <AltitudeMeters>1598.5999755859375</AltitudeMeters>
            <DistanceMeters>NAN</DistanceMeters>
          </Trackpoint>
          <Trackpoint>
            <Time>2018-12-30T10:53:20.000Z</Time>
            <Position>
              <LatitudeDegrees>40.78349090181291103363037109375</LatitudeDegrees>
              <LongitudeDegrees>-4.067492522299289703369140625</LongitudeDegrees>
            </Position>
            <AltitudeMeters>1598.800048828125</AltitudeMeters>
            <DistanceMeters>NAN</DistanceMeters>
          </Trackpoint>
          <Trackpoint>
            <Time>2018-12-30T10:53:21.000Z</Time>
            <Position>
              <LatitudeDegrees>40.7834975235164165496826171875</LatitudeDegrees>
              <LongitudeDegrees>-4.06748238019645214080810546875</LongitudeDegrees>
            </Position>
            <AltitudeMeters>1599</AltitudeMeters>
            <DistanceMeters>NAN</DistanceMeters>
          </Trackpoint>
          <Trackpoint>
            <Time>2018-12-30T10:53:22.000Z</Time>
            <Position>
              <LatitudeDegrees>40.78350246883928775787353515625</LatitudeDegrees>
              <LongitudeDegrees>-4.06746880151331424713134765625</LongitudeDegrees>
            </Position>
            <AltitudeMeters>1599.199951171875</AltitudeMeters>
            <DistanceMeters>NAN</DistanceMeters>
          </Trackpoint>
          <Trackpoint>
            <Time>2018-12-30T10:53:23.000Z</Time>
            <Position>
              <LatitudeDegrees>40.78351252712309360504150390625</LatitudeDegrees>
              <LongitudeDegrees>-4.06745706684887409210205078125</LongitudeDegrees>
            </Position>
            <AltitudeMeters>1599.199951171875</AltitudeMeters>
            <DistanceMeters>NAN</DistanceMeters>
          </Trackpoint>
          <Trackpoint>
            <Time>2018-12-30T10:53:24.000Z</Time>
            <Position>
              <LatitudeDegrees>40.78352191485464572906494140625</LatitudeDegrees>
              <LongitudeDegrees>-4.067447595298290252685546875</LongitudeDegrees>
            </Position>
            <AltitudeMeters>1599.199951171875</AltitudeMeters>
            <DistanceMeters>NAN</DistanceMeters>
          </Trackpoint>
          <Trackpoint>
            <Time>2018-12-30T10:53:25.000Z</Time>
            <Position>
              <LatitudeDegrees>40.78353532589972019195556640625</LatitudeDegrees>
              <LongitudeDegrees>-4.067443571984767913818359375</LongitudeDegrees>
            </Position>
            <AltitudeMeters>1599.4000244140625</AltitudeMeters>
            <DistanceMeters>NAN</DistanceMeters>
          </Trackpoint>
          <Trackpoint>
            <Time>2018-12-30T10:53:26.000Z</Time>
            <Position>
              <LatitudeDegrees>40.78354169614613056182861328125</LatitudeDegrees>
              <LongitudeDegrees>-4.06743527390062808990478515625</LongitudeDegrees>
            </Position>
            <AltitudeMeters>1599.4000244140625</AltitudeMeters>
            <DistanceMeters>NAN</DistanceMeters>
          </Trackpoint>
          <Trackpoint>
            <Time>2018-12-30T10:53:27.000Z</Time>
            <Position>
              <LatitudeDegrees>40.7835528440773487091064453125</LatitudeDegrees>
              <LongitudeDegrees>-4.06742622144520282745361328125</LongitudeDegrees>
            </Position>
            <AltitudeMeters>1599.5999755859375</AltitudeMeters>
            <DistanceMeters>NAN</DistanceMeters>
          </Trackpoint>
          <Trackpoint>
            <Time>2018-12-30T10:53:28.000Z</Time>
            <Position>
              <LatitudeDegrees>40.783566422760486602783203125</LatitudeDegrees>
              <LongitudeDegrees>-4.0674249641597270965576171875</LongitudeDegrees>
            </Position>
            <AltitudeMeters>1599.800048828125</AltitudeMeters>
            <DistanceMeters>NAN</DistanceMeters>
          </Trackpoint>
          <Trackpoint>
            <Time>2018-12-30T10:53:29.000Z</Time>
            <Position>
              <LatitudeDegrees>40.78358042053878307342529296875</LatitudeDegrees>
              <LongitudeDegrees>-4.0674184262752532958984375</LongitudeDegrees>
            </Position>
            <AltitudeMeters>1600</AltitudeMeters>
            <DistanceMeters>NAN</DistanceMeters>
          </Trackpoint>
          <Trackpoint>
            <Time>2018-12-30T10:53:30.000Z</Time>
            <Position>
              <LatitudeDegrees>40.783587880432605743408203125</LatitudeDegrees>
              <LongitudeDegrees>-4.06741163693368434906005859375</LongitudeDegrees>
            </Position>
            <AltitudeMeters>1600.199951171875</AltitudeMeters>
            <DistanceMeters>NAN</DistanceMeters>
          </Trackpoint>
          <Trackpoint>
            <Time>2018-12-30T10:53:31.000Z</Time>
            <Position>
              <LatitudeDegrees>40.7835984416306018829345703125</LatitudeDegrees>
              <LongitudeDegrees>-4.06741180457174777984619140625</LongitudeDegrees>
            </Position>
            <AltitudeMeters>1600.4000244140625</AltitudeMeters>
            <DistanceMeters>NAN</DistanceMeters>
          </Trackpoint>
          <Trackpoint>
            <Time>2018-12-30T10:53:32.000Z</Time>
            <Position>
              <LatitudeDegrees>40.7836116850376129150390625</LatitudeDegrees>
              <LongitudeDegrees>-4.06741239130496978759765625</LongitudeDegrees>
            </Position>
            <AltitudeMeters>1600.5999755859375</AltitudeMeters>
            <DistanceMeters>NAN</DistanceMeters>
          </Trackpoint>
          <Trackpoint>
            <Time>2018-12-30T10:53:33.000Z</Time>
            <Position>
              <LatitudeDegrees>40.78362769447267055511474609375</LatitudeDegrees>
              <LongitudeDegrees>-4.0674125589430332183837890625</LongitudeDegrees>
            </Position>
            <AltitudeMeters>1600.5999755859375</AltitudeMeters>
            <DistanceMeters>NAN</DistanceMeters>
          </Trackpoint>
          <Trackpoint>
            <Time>2018-12-30T10:53:34.000Z</Time>
            <Position>
              <LatitudeDegrees>40.78364060260355472564697265625</LatitudeDegrees>
              <LongitudeDegrees>-4.06740526668727397918701171875</LongitudeDegrees>
            </Position>
            <AltitudeMeters>1600.800048828125</AltitudeMeters>
            <DistanceMeters>NAN</DistanceMeters>
          </Trackpoint>
          <Trackpoint>
            <Time>2018-12-30T10:53:35.000Z</Time>
            <Position>
              <LatitudeDegrees>40.78365183435380458831787109375</LatitudeDegrees>
              <LongitudeDegrees>-4.06739856116473674774169921875</LongitudeDegrees>
            </Position>
            <AltitudeMeters>1601</AltitudeMeters>
            <DistanceMeters>NAN</DistanceMeters>
          </Trackpoint>
          <Trackpoint>
            <Time>2018-12-30T10:53:36.000Z</Time>
            <Position>
              <LatitudeDegrees>40.7836572825908660888671875</LatitudeDegrees>
              <LongitudeDegrees>-4.06739537604153156280517578125</LongitudeDegrees>
            </Position>
            <AltitudeMeters>1601.199951171875</AltitudeMeters>
            <DistanceMeters>NAN</DistanceMeters>
          </Trackpoint>
          <Trackpoint>
            <Time>2018-12-30T10:53:37.000Z</Time>
            <Position>
              <LatitudeDegrees>40.78366491012275218963623046875</LatitudeDegrees>
              <LongitudeDegrees>-4.06739671714603900909423828125</LongitudeDegrees>
            </Position>
            <AltitudeMeters>1601.199951171875</AltitudeMeters>
            <DistanceMeters>NAN</DistanceMeters>
          </Trackpoint>
          <Trackpoint>
            <Time>2018-12-30T10:53:38.000Z</Time>
            <Position>
              <LatitudeDegrees>40.7836706936359405517578125</LatitudeDegrees>
              <LongitudeDegrees>-4.0673904307186603546142578125</LongitudeDegrees>
            </Position>
            <AltitudeMeters>1601.199951171875</AltitudeMeters>
            <DistanceMeters>NAN</DistanceMeters>
          </Trackpoint>
          <Trackpoint>
            <Time>2018-12-30T10:53:39.000Z</Time>
            <Position>
              <LatitudeDegrees>40.78367714770138263702392578125</LatitudeDegrees>
              <LongitudeDegrees>-4.06738531775772571563720703125</LongitudeDegrees>
            </Position>
            <AltitudeMeters>1601.4000244140625</AltitudeMeters>
            <DistanceMeters>NAN</DistanceMeters>
          </Trackpoint>
          <Trackpoint>
            <Time>2018-12-30T10:53:40.000Z</Time>
            <Position>
              <LatitudeDegrees>40.7836867868900299072265625</LatitudeDegrees>
              <LongitudeDegrees>-4.06738179735839366912841796875</LongitudeDegrees>
            </Position>
            <AltitudeMeters>1601.5999755859375</AltitudeMeters>
            <DistanceMeters>NAN</DistanceMeters>
          </Trackpoint>
          <Trackpoint>
            <Time>2018-12-30T10:53:41.000Z</Time>
            <Position>
              <LatitudeDegrees>40.78369148075580596923828125</LatitudeDegrees>
              <LongitudeDegrees>-4.0673763491213321685791015625</LongitudeDegrees>
            </Position>
            <AltitudeMeters>1601.5999755859375</AltitudeMeters>
            <DistanceMeters>NAN</DistanceMeters>
          </Trackpoint>
          <Trackpoint>
            <Time>2018-12-30T10:53:42.000Z</Time>
            <Position>
              <LatitudeDegrees>40.78369625844061374664306640625</LatitudeDegrees>
              <LongitudeDegrees>-4.06737291254103183746337890625</LongitudeDegrees>
            </Position>
            <AltitudeMeters>1601.4000244140625</AltitudeMeters>
            <DistanceMeters>NAN</DistanceMeters>
          </Trackpoint>
          <Trackpoint>
            <Time>2018-12-30T10:53:43.000Z</Time>
            <Position>
              <LatitudeDegrees>40.7837064005434513092041015625</LatitudeDegrees>
              <LongitudeDegrees>-4.06737484037876129150390625</LongitudeDegrees>
            </Position>
            <AltitudeMeters>1601.4000244140625</AltitudeMeters>
            <DistanceMeters>NAN</DistanceMeters>
          </Trackpoint>
          <Trackpoint>
            <Time>2018-12-30T10:53:44.000Z</Time>
            <Position>
              <LatitudeDegrees>40.78371318988502025604248046875</LatitudeDegrees>
              <LongitudeDegrees>-4.06737391836941242218017578125</LongitudeDegrees>
            </Position>
            <AltitudeMeters>1601.4000244140625</AltitudeMeters>
            <DistanceMeters>NAN</DistanceMeters>
          </Trackpoint>
          <Trackpoint>
            <Time>2018-12-30T10:53:45.000Z</Time>
            <Position>
              <LatitudeDegrees>40.7837194763123989105224609375</LatitudeDegrees>
              <LongitudeDegrees>-4.06737081706523895263671875</LongitudeDegrees>
            </Position>
            <AltitudeMeters>1601.4000244140625</AltitudeMeters>
            <DistanceMeters>NAN</DistanceMeters>
          </Trackpoint>
          <Trackpoint>
            <Time>2018-12-30T10:53:46.000Z</Time>
            <Position>
              <LatitudeDegrees>40.78373079188168048858642578125</LatitudeDegrees>
              <LongitudeDegrees>-4.06737157143652439117431640625</LongitudeDegrees>
            </Position>
            <AltitudeMeters>1601.4000244140625</AltitudeMeters>
            <DistanceMeters>NAN</DistanceMeters>
          </Trackpoint>
          <Trackpoint>
            <Time>2018-12-30T10:53:47.000Z</Time>
            <Position>
              <LatitudeDegrees>40.78375040553510189056396484375</LatitudeDegrees>
              <LongitudeDegrees>-4.067369811236858367919921875</LongitudeDegrees>
            </Position>
            <AltitudeMeters>1601.4000244140625</AltitudeMeters>
            <DistanceMeters>NAN</DistanceMeters>
          </Trackpoint>
          <Trackpoint>
            <Time>2018-12-30T10:53:48.000Z</Time>
            <Position>
              <LatitudeDegrees>40.783762894570827484130859375</LatitudeDegrees>
              <LongitudeDegrees>-4.06736989505589008331298828125</LongitudeDegrees>
            </Position>
            <AltitudeMeters>1601.5999755859375</AltitudeMeters>
            <DistanceMeters>NAN</DistanceMeters>
          </Trackpoint>
          <Trackpoint>
            <Time>2018-12-30T10:53:49.000Z</Time>
            <Position>
              <LatitudeDegrees>40.7837717793881893157958984375</LatitudeDegrees>
              <LongitudeDegrees>-4.0673723258078098297119140625</LongitudeDegrees>
            </Position>
            <AltitudeMeters>1602</AltitudeMeters>
            <DistanceMeters>NAN</DistanceMeters>
          </Trackpoint>
          <Trackpoint>
            <Time>2018-12-30T10:53:50.000Z</Time>
            <Position>
              <LatitudeDegrees>40.78378736972808837890625</LatitudeDegrees>
              <LongitudeDegrees>-4.06737693585455417633056640625</LongitudeDegrees>
            </Position>
            <AltitudeMeters>1602</AltitudeMeters>
            <DistanceMeters>NAN</DistanceMeters>
          </Trackpoint>
          <Trackpoint>
            <Time>2018-12-30T10:53:51.000Z</Time>
            <Position>
              <LatitudeDegrees>40.7837979309260845184326171875</LatitudeDegrees>
              <LongitudeDegrees>-4.06738347373902797698974609375</LongitudeDegrees>
            </Position>
            <AltitudeMeters>1602.199951171875</AltitudeMeters>
            <DistanceMeters>NAN</DistanceMeters>
          </Trackpoint>
          <Trackpoint>
            <Time>2018-12-30T10:53:52.000Z</Time>
            <Position>
              <LatitudeDegrees>40.78381025232374668121337890625</LatitudeDegrees>
              <LongitudeDegrees>-4.0673862397670745849609375</LongitudeDegrees>
            </Position>
            <AltitudeMeters>1602.4000244140625</AltitudeMeters>
            <DistanceMeters>NAN</DistanceMeters>
          </Trackpoint>
          <Trackpoint>
            <Time>2018-12-30T10:53:53.000Z</Time>
            <Position>
              <LatitudeDegrees>40.783817879855632781982421875</LatitudeDegrees>
              <LongitudeDegrees>-4.06738615594804286956787109375</LongitudeDegrees>
            </Position>
            <AltitudeMeters>1602.5999755859375</AltitudeMeters>
            <DistanceMeters>NAN</DistanceMeters>
          </Trackpoint>
          <Trackpoint>
            <Time>2018-12-30T10:53:54.000Z</Time>
            <Position>
              <LatitudeDegrees>40.7838321290910243988037109375</LatitudeDegrees>
              <LongitudeDegrees>-4.06738783232867717742919921875</LongitudeDegrees>
            </Position>
            <AltitudeMeters>1602.5999755859375</AltitudeMeters>
            <DistanceMeters>NAN</DistanceMeters>
          </Trackpoint>
          <Trackpoint>
            <Time>2018-12-30T10:53:55.000Z</Time>
            <Position>
              <LatitudeDegrees>40.78384377993643283843994140625</LatitudeDegrees>
              <LongitudeDegrees>-4.06739302910864353179931640625</LongitudeDegrees>
            </Position>
            <AltitudeMeters>1602.5999755859375</AltitudeMeters>
            <DistanceMeters>NAN</DistanceMeters>
          </Trackpoint>
          <Trackpoint>
            <Time>2018-12-30T10:53:56.000Z</Time>
            <Position>
              <LatitudeDegrees>40.78385568223893642425537109375</LatitudeDegrees>
              <LongitudeDegrees>-4.06739956699311733245849609375</LongitudeDegrees>
            </Position>
            <AltitudeMeters>1602.5999755859375</AltitudeMeters>
            <DistanceMeters>NAN</DistanceMeters>
          </Trackpoint>
          <Trackpoint>
            <Time>2018-12-30T10:53:57.000Z</Time>
            <Position>
              <LatitudeDegrees>40.78386875800788402557373046875</LatitudeDegrees>
              <LongitudeDegrees>-4.067406691610813140869140625</LongitudeDegrees>
            </Position>
            <AltitudeMeters>1602.5999755859375</AltitudeMeters>
            <DistanceMeters>NAN</DistanceMeters>
          </Trackpoint>
          <Trackpoint>
            <Time>2018-12-30T10:53:58.000Z</Time>
            <Position>
              <LatitudeDegrees>40.78388283960521221160888671875</LatitudeDegrees>
              <LongitudeDegrees>-4.067409373819828033447265625</LongitudeDegrees>
            </Position>
            <AltitudeMeters>1602.800048828125</AltitudeMeters>
            <DistanceMeters>NAN</DistanceMeters>
          </Trackpoint>
          <Trackpoint>
            <Time>2018-12-30T10:53:59.000Z</Time>
            <Position>
              <LatitudeDegrees>40.78389289788901805877685546875</LatitudeDegrees>
              <LongitudeDegrees>-4.0674155764281749725341796875</LongitudeDegrees>
            </Position>
            <AltitudeMeters>1603</AltitudeMeters>
            <DistanceMeters>NAN</DistanceMeters>
          </Trackpoint>
          <Trackpoint>
            <Time>2018-12-30T10:54:00.000Z</Time>
            <Position>
              <LatitudeDegrees>40.78390513546764850616455078125</LatitudeDegrees>
              <LongitudeDegrees>-4.0674189291894435882568359375</LongitudeDegrees>
            </Position>
            <AltitudeMeters>1603.199951171875</AltitudeMeters>
            <DistanceMeters>NAN</DistanceMeters>
          </Trackpoint>
          <Trackpoint>
            <Time>2018-12-30T10:54:01.000Z</Time>
            <Position>
              <LatitudeDegrees>40.7839182950556278228759765625</LatitudeDegrees>
              <LongitudeDegrees>-4.06742312014102935791015625</LongitudeDegrees>
            </Position>
            <AltitudeMeters>1603.4000244140625</AltitudeMeters>
            <DistanceMeters>NAN</DistanceMeters>
          </Trackpoint>
          <Trackpoint>
            <Time>2018-12-30T10:54:02.000Z</Time>
            <Position>
              <LatitudeDegrees>40.7839229889214038848876953125</LatitudeDegrees>
              <LongitudeDegrees>-4.0674259699881076812744140625</LongitudeDegrees>
            </Position>
            <AltitudeMeters>1603.5999755859375</AltitudeMeters>
            <DistanceMeters>NAN</DistanceMeters>
          </Trackpoint>
          <Trackpoint>
            <Time>2018-12-30T10:54:03.000Z</Time>
            <Position>
              <LatitudeDegrees>40.78392709605395793914794921875</LatitudeDegrees>
              <LongitudeDegrees>-4.06742488034069538116455078125</LongitudeDegrees>
            </Position>
            <AltitudeMeters>1603.800048828125</AltitudeMeters>
            <DistanceMeters>NAN</DistanceMeters>
          </Trackpoint>
          <Trackpoint>
            <Time>2018-12-30T10:54:04.000Z</Time>
            <Position>
              <LatitudeDegrees>40.78393380157649517059326171875</LatitudeDegrees>
              <LongitudeDegrees>-4.067426137626171112060546875</LongitudeDegrees>
            </Position>
            <AltitudeMeters>1603.800048828125</AltitudeMeters>
            <DistanceMeters>NAN</DistanceMeters>
          </Trackpoint>
          <Trackpoint>
            <Time>2018-12-30T10:54:05.000Z</Time>
            <Position>
              <LatitudeDegrees>40.78394000418484210968017578125</LatitudeDegrees>
              <LongitudeDegrees>-4.06743024475872516632080078125</LongitudeDegrees>
            </Position>
            <AltitudeMeters>1603.800048828125</AltitudeMeters>
            <DistanceMeters>NAN</DistanceMeters>
          </Trackpoint>
          <Trackpoint>
            <Time>2018-12-30T10:54:06.000Z</Time>
            <Position>
              <LatitudeDegrees>40.783948637545108795166015625</LatitudeDegrees>
              <LongitudeDegrees>-4.06743292696774005889892578125</LongitudeDegrees>
            </Position>
            <AltitudeMeters>1604</AltitudeMeters>
            <DistanceMeters>NAN</DistanceMeters>
          </Trackpoint>
          <Trackpoint>
            <Time>2018-12-30T10:54:07.000Z</Time>
            <Position>
              <LatitudeDegrees>40.78395877964794635772705078125</LatitudeDegrees>
              <LongitudeDegrees>-4.06744617037475109100341796875</LongitudeDegrees>
            </Position>
            <AltitudeMeters>1604</AltitudeMeters>
            <DistanceMeters>NAN</DistanceMeters>
          </Trackpoint>
          <Trackpoint>
            <Time>2018-12-30T10:54:08.000Z</Time>
            <Position>
              <LatitudeDegrees>40.7839685864746570587158203125</LatitudeDegrees>
              <LongitudeDegrees>-4.06746729277074337005615234375</LongitudeDegrees>
            </Position>
            <AltitudeMeters>1604.199951171875</AltitudeMeters>
            <DistanceMeters>NAN</DistanceMeters>
          </Trackpoint>
          <Trackpoint>
            <Time>2018-12-30T10:54:09.000Z</Time>
            <Position>
              <LatitudeDegrees>40.78397856093943119049072265625</LatitudeDegrees>
              <LongitudeDegrees>-4.06749562360346317291259765625</LongitudeDegrees>
            </Position>
            <AltitudeMeters>1604.199951171875</AltitudeMeters>
            <DistanceMeters>NAN</DistanceMeters>
          </Trackpoint>
          <Trackpoint>
            <Time>2018-12-30T10:54:10.000Z</Time>
            <Position>
              <LatitudeDegrees>40.78397956676781177520751953125</LatitudeDegrees>
              <LongitudeDegrees>-4.06750702299177646636962890625</LongitudeDegrees>
            </Position>
            <AltitudeMeters>1604.4000244140625</AltitudeMeters>
            <DistanceMeters>NAN</DistanceMeters>
          </Trackpoint>
          <Trackpoint>
            <Time>2018-12-30T10:54:11.000Z</Time>
            <Position>
              <LatitudeDegrees>40.78398476354777812957763671875</LatitudeDegrees>
              <LongitudeDegrees>-4.06752278096973896026611328125</LongitudeDegrees>
            </Position>
            <AltitudeMeters>1604.4000244140625</AltitudeMeters>
            <DistanceMeters>NAN</DistanceMeters>
          </Trackpoint>
          <Trackpoint>
            <Time>2018-12-30T10:54:12.000Z</Time>
            <Position>
              <LatitudeDegrees>40.7839917205274105072021484375</LatitudeDegrees>
              <LongitudeDegrees>-4.0675319172441959381103515625</LongitudeDegrees>
            </Position>
            <AltitudeMeters>1604.4000244140625</AltitudeMeters>
            <DistanceMeters>NAN</DistanceMeters>
          </Trackpoint>
          <Trackpoint>
            <Time>2018-12-30T10:54:13.000Z</Time>
            <Position>
              <LatitudeDegrees>40.78399415127933025360107421875</LatitudeDegrees>
              <LongitudeDegrees>-4.0675369463860988616943359375</LongitudeDegrees>
            </Position>
            <AltitudeMeters>1604.199951171875</AltitudeMeters>
            <DistanceMeters>NAN</DistanceMeters>
          </Trackpoint>
          <Trackpoint>
            <Time>2018-12-30T10:54:14.000Z</Time>
            <Position>
              <LatitudeDegrees>40.7839980907738208770751953125</LatitudeDegrees>
              <LongitudeDegrees>-4.06754516065120697021484375</LongitudeDegrees>
            </Position>
            <AltitudeMeters>1604</AltitudeMeters>
            <DistanceMeters>NAN</DistanceMeters>
          </Trackpoint>
          <Trackpoint>
            <Time>2018-12-30T10:54:15.000Z</Time>
            <Position>
              <LatitudeDegrees>40.78400253318250179290771484375</LatitudeDegrees>
              <LongitudeDegrees>-4.06754826195538043975830078125</LongitudeDegrees>
            </Position>
            <AltitudeMeters>1604</AltitudeMeters>
            <DistanceMeters>NAN</DistanceMeters>
          </Trackpoint>
          <Trackpoint>
            <Time>2018-12-30T10:54:16.000Z</Time>
            <Position>
              <LatitudeDegrees>40.78400538302958011627197265625</LatitudeDegrees>
              <LongitudeDegrees>-4.067551530897617340087890625</LongitudeDegrees>
            </Position>
            <AltitudeMeters>1603.800048828125</AltitudeMeters>
            <DistanceMeters>NAN</DistanceMeters>
          </Trackpoint>
          <Trackpoint>
            <Time>2018-12-30T10:54:17.000Z</Time>
            <Position>
              <LatitudeDegrees>40.78400571830570697784423828125</LatitudeDegrees>
              <LongitudeDegrees>-4.06755387783050537109375</LongitudeDegrees>
            </Position>
            <AltitudeMeters>1603.800048828125</AltitudeMeters>
            <DistanceMeters>NAN</DistanceMeters>
          </Trackpoint>
          <Trackpoint>
            <Time>2018-12-30T10:54:18.000Z</Time>
            <Position>
              <LatitudeDegrees>40.78401477076113224029541015625</LatitudeDegrees>
              <LongitudeDegrees>-4.06757391057908535003662109375</LongitudeDegrees>
            </Position>
            <AltitudeMeters>1603.800048828125</AltitudeMeters>
            <DistanceMeters>NAN</DistanceMeters>
          </Trackpoint>
          <Trackpoint>
            <Time>2018-12-30T10:54:19.000Z</Time>
            <Position>
              <LatitudeDegrees>40.78402449376881122589111328125</LatitudeDegrees>
              <LongitudeDegrees>-4.06759352423250675201416015625</LongitudeDegrees>
            </Position>
            <AltitudeMeters>1604</AltitudeMeters>
            <DistanceMeters>NAN</DistanceMeters>
          </Trackpoint>
          <Trackpoint>
            <Time>2018-12-30T10:54:20.000Z</Time>
            <Position>
              <LatitudeDegrees>40.78403706662356853485107421875</LatitudeDegrees>
              <LongitudeDegrees>-4.0676211006939411163330078125</LongitudeDegrees>
            </Position>
            <AltitudeMeters>1604</AltitudeMeters>
            <DistanceMeters>NAN</DistanceMeters>
          </Trackpoint>
          <Trackpoint>
            <Time>2018-12-30T10:54:21.000Z</Time>
            <Position>
              <LatitudeDegrees>40.78404360450804233551025390625</LatitudeDegrees>
              <LongitudeDegrees>-4.06763643957674503326416015625</LongitudeDegrees>
            </Position>
            <AltitudeMeters>1604</AltitudeMeters>
            <DistanceMeters>NAN</DistanceMeters>
          </Trackpoint>
          <Trackpoint>
            <Time>2018-12-30T10:54:22.000Z</Time>
            <Position>
              <LatitudeDegrees>40.784052908420562744140625</LatitudeDegrees>
              <LongitudeDegrees>-4.06764985062181949615478515625</LongitudeDegrees>
            </Position>
            <AltitudeMeters>1604</AltitudeMeters>
            <DistanceMeters>NAN</DistanceMeters>
          </Trackpoint>
          <Trackpoint>
            <Time>2018-12-30T10:54:23.000Z</Time>
            <Position>
              <LatitudeDegrees>40.7840569317340850830078125</LatitudeDegrees>
              <LongitudeDegrees>-4.0676569752395153045654296875</LongitudeDegrees>
            </Position>
            <AltitudeMeters>1604</AltitudeMeters>
            <DistanceMeters>NAN</DistanceMeters>
          </Trackpoint>
          <Trackpoint>
            <Time>2018-12-30T10:54:24.000Z</Time>
            <Position>
              <LatitudeDegrees>40.78406170941889286041259765625</LatitudeDegrees>
              <LongitudeDegrees>-4.06766510568559169769287109375</LongitudeDegrees>
            </Position>
            <AltitudeMeters>1604</AltitudeMeters>
            <DistanceMeters>NAN</DistanceMeters>
          </Trackpoint>
          <Trackpoint>
            <Time>2018-12-30T10:54:25.000Z</Time>
            <Position>
              <LatitudeDegrees>40.78406405635178089141845703125</LatitudeDegrees>
              <LongitudeDegrees>-4.067669548094272613525390625</LongitudeDegrees>
            </Position>
            <AltitudeMeters>1604</AltitudeMeters>
            <DistanceMeters>NAN</DistanceMeters>
          </Trackpoint>
          <Trackpoint>
            <Time>2018-12-30T10:54:26.000Z</Time>
            <Position>
              <LatitudeDegrees>40.78406699001789093017578125</LatitudeDegrees>
              <LongitudeDegrees>-4.06766812317073345184326171875</LongitudeDegrees>
            </Position>
            <AltitudeMeters>1603.800048828125</AltitudeMeters>
            <DistanceMeters>NAN</DistanceMeters>
          </Trackpoint>
          <Trackpoint>
            <Time>2018-12-30T10:54:27.000Z</Time>
            <Position>
              <LatitudeDegrees>40.78405684791505336761474609375</LatitudeDegrees>
              <LongitudeDegrees>-4.0676536224782466888427734375</LongitudeDegrees>
            </Position>
            <AltitudeMeters>1603.800048828125</AltitudeMeters>
            <DistanceMeters>NAN</DistanceMeters>
          </Trackpoint>
          <Trackpoint>
            <Time>2018-12-30T10:54:28.000Z</Time>
            <Position>
              <LatitudeDegrees>40.784036815166473388671875</LatitudeDegrees>
              <LongitudeDegrees>-4.0676251240074634552001953125</LongitudeDegrees>
            </Position>
            <AltitudeMeters>1603.800048828125</AltitudeMeters>
            <DistanceMeters>NAN</DistanceMeters>
          </Trackpoint>
          <Trackpoint>
            <Time>2018-12-30T10:54:29.000Z</Time>
            <Position>
              <LatitudeDegrees>40.7840373180806636810302734375</LatitudeDegrees>
              <LongitudeDegrees>-4.06761213205754756927490234375</LongitudeDegrees>
            </Position>
            <AltitudeMeters>1603.800048828125</AltitudeMeters>
            <DistanceMeters>NAN</DistanceMeters>
          </Trackpoint>
          <Trackpoint>
            <Time>2018-12-30T10:54:30.000Z</Time>
            <Position>
              <LatitudeDegrees>40.7840416766703128814697265625</LatitudeDegrees>
              <LongitudeDegrees>-4.06760123558342456817626953125</LongitudeDegrees>
            </Position>
            <AltitudeMeters>1603.800048828125</AltitudeMeters>
            <DistanceMeters>NAN</DistanceMeters>
          </Trackpoint>
          <Trackpoint>
            <Time>2018-12-30T10:54:31.000Z</Time>
            <Position>
              <LatitudeDegrees>40.784036815166473388671875</LatitudeDegrees>
              <LongitudeDegrees>-4.0675847232341766357421875</LongitudeDegrees>
            </Position>
            <AltitudeMeters>1603.800048828125</AltitudeMeters>
            <DistanceMeters>NAN</DistanceMeters>
          </Trackpoint>
          <Trackpoint>
            <Time>2018-12-30T10:54:32.000Z</Time>
            <Position>
              <LatitudeDegrees>40.7840389944612979888916015625</LatitudeDegrees>
              <LongitudeDegrees>-4.06758128665387630462646484375</LongitudeDegrees>
            </Position>
            <AltitudeMeters>1603.800048828125</AltitudeMeters>
            <DistanceMeters>NAN</DistanceMeters>
          </Trackpoint>
          <Trackpoint>
            <Time>2018-12-30T10:54:33.000Z</Time>
            <Position>
              <LatitudeDegrees>40.7840386591851711273193359375</LatitudeDegrees>
              <LongitudeDegrees>-4.06757709570229053497314453125</LongitudeDegrees>
            </Position>
            <AltitudeMeters>1603.800048828125</AltitudeMeters>
            <DistanceMeters>NAN</DistanceMeters>
          </Trackpoint>
          <Trackpoint>
            <Time>2018-12-30T10:54:34.000Z</Time>
            <Position>
              <LatitudeDegrees>40.7840366475284099578857421875</LatitudeDegrees>
              <LongitudeDegrees>-4.0675704739987850189208984375</LongitudeDegrees>
            </Position>
            <AltitudeMeters>1603.800048828125</AltitudeMeters>
            <DistanceMeters>NAN</DistanceMeters>
          </Trackpoint>
          <Trackpoint>
            <Time>2018-12-30T10:54:35.000Z</Time>
            <Position>
              <LatitudeDegrees>40.7840356417000293731689453125</LatitudeDegrees>
              <LongitudeDegrees>-4.06756619922816753387451171875</LongitudeDegrees>
            </Position>
            <AltitudeMeters>1604</AltitudeMeters>
            <DistanceMeters>NAN</DistanceMeters>
          </Trackpoint>
          <Trackpoint>
            <Time>2018-12-30T10:54:36.000Z</Time>
            <Position>
              <LatitudeDegrees>40.784035138785839080810546875</LatitudeDegrees>
              <LongitudeDegrees>-4.06756318174302577972412109375</LongitudeDegrees>
            </Position>
            <AltitudeMeters>1604</AltitudeMeters>
            <DistanceMeters>NAN</DistanceMeters>
          </Trackpoint>
          <Trackpoint>
            <Time>2018-12-30T10:54:37.000Z</Time>
            <Position>
              <LatitudeDegrees>40.78402818180620670318603515625</LatitudeDegrees>
              <LongitudeDegrees>-4.0675560571253299713134765625</LongitudeDegrees>
            </Position>
            <AltitudeMeters>1604</AltitudeMeters>
            <DistanceMeters>NAN</DistanceMeters>
          </Trackpoint>
          <Trackpoint>
            <Time>2018-12-30T10:54:38.000Z</Time>
            <Position>
              <LatitudeDegrees>40.78402675688266754150390625</LatitudeDegrees>
              <LongitudeDegrees>-4.0675537101924419403076171875</LongitudeDegrees>
            </Position>
            <AltitudeMeters>1604</AltitudeMeters>
            <DistanceMeters>NAN</DistanceMeters>
          </Trackpoint>
          <Trackpoint>
            <Time>2018-12-30T10:54:39.000Z</Time>
            <Position>
              <LatitudeDegrees>40.78402801416814327239990234375</LatitudeDegrees>
              <LongitudeDegrees>-4.067552201449871063232421875</LongitudeDegrees>
            </Position>
            <AltitudeMeters>1604</AltitudeMeters>
            <DistanceMeters>NAN</DistanceMeters>
          </Trackpoint>
          <Trackpoint>
            <Time>2018-12-30T10:54:40.000Z</Time>
            <Position>
              <LatitudeDegrees>40.78402809798717498779296875</LatitudeDegrees>
              <LongitudeDegrees>-4.0675516985356807708740234375</LongitudeDegrees>
            </Position>
            <AltitudeMeters>1604</AltitudeMeters>
            <DistanceMeters>NAN</DistanceMeters>
          </Trackpoint>
          <Trackpoint>
            <Time>2018-12-30T10:54:41.000Z</Time>
            <Position>
              <LatitudeDegrees>40.78402985818684101104736328125</LatitudeDegrees>
              <LongitudeDegrees>-4.0675498545169830322265625</LongitudeDegrees>
            </Position>
            <AltitudeMeters>1604.199951171875</AltitudeMeters>
            <DistanceMeters>NAN</DistanceMeters>
          </Trackpoint>
          <Trackpoint>
            <Time>2018-12-30T10:54:42.000Z</Time>
            <Position>
              <LatitudeDegrees>40.7840316183865070343017578125</LatitudeDegrees>
              <LongitudeDegrees>-4.0675483457744121551513671875</LongitudeDegrees>
            </Position>
            <AltitudeMeters>1604.199951171875</AltitudeMeters>
            <DistanceMeters>NAN</DistanceMeters>
          </Trackpoint>
          <Trackpoint>
            <Time>2018-12-30T10:54:43.000Z</Time>
            <Position>
              <LatitudeDegrees>40.78403086401522159576416015625</LatitudeDegrees>
              <LongitudeDegrees>-4.0675453282892704010009765625</LongitudeDegrees>
            </Position>
            <AltitudeMeters>1604.199951171875</AltitudeMeters>
            <DistanceMeters>NAN</DistanceMeters>
          </Trackpoint>
          <Trackpoint>
            <Time>2018-12-30T10:54:44.000Z</Time>
            <Position>
              <LatitudeDegrees>40.78402918763458728790283203125</LatitudeDegrees>
              <LongitudeDegrees>-4.06754340045154094696044921875</LongitudeDegrees>
            </Position>
            <AltitudeMeters>1604.199951171875</AltitudeMeters>
            <DistanceMeters>NAN</DistanceMeters>
          </Trackpoint>
          <Trackpoint>
            <Time>2018-12-30T10:54:45.000Z</Time>
            <Position>
              <LatitudeDegrees>40.7840259186923503875732421875</LatitudeDegrees>
              <LongitudeDegrees>-4.067537784576416015625</LongitudeDegrees>
            </Position>
            <AltitudeMeters>1604.199951171875</AltitudeMeters>
            <DistanceMeters>NAN</DistanceMeters>
          </Trackpoint>
          <Trackpoint>
            <Time>2018-12-30T10:54:46.000Z</Time>
            <Position>
              <LatitudeDegrees>40.7840218953788280487060546875</LatitudeDegrees>
              <LongitudeDegrees>-4.0675310790538787841796875</LongitudeDegrees>
            </Position>
            <AltitudeMeters>1604.199951171875</AltitudeMeters>
            <DistanceMeters>NAN</DistanceMeters>
          </Trackpoint>
          <Trackpoint>
            <Time>2018-12-30T10:54:47.000Z</Time>
            <Position>
              <LatitudeDegrees>40.784013010561466217041015625</LatitudeDegrees>
              <LongitudeDegrees>-4.06752848066389560699462890625</LongitudeDegrees>
            </Position>
            <AltitudeMeters>1604.199951171875</AltitudeMeters>
            <DistanceMeters>NAN</DistanceMeters>
          </Trackpoint>
          <Trackpoint>
            <Time>2018-12-30T10:54:48.000Z</Time>
            <Position>
              <LatitudeDegrees>40.78400890342891216278076171875</LatitudeDegrees>
              <LongitudeDegrees>-4.067529737949371337890625</LongitudeDegrees>
            </Position>
            <AltitudeMeters>1604.199951171875</AltitudeMeters>
            <DistanceMeters>NAN</DistanceMeters>
          </Trackpoint>
          <Trackpoint>
            <Time>2018-12-30T10:54:49.000Z</Time>
            <Position>
              <LatitudeDegrees>40.7840121723711490631103515625</LatitudeDegrees>
              <LongitudeDegrees>-4.06753216870129108428955078125</LongitudeDegrees>
            </Position>
            <AltitudeMeters>1604.199951171875</AltitudeMeters>
            <DistanceMeters>NAN</DistanceMeters>
          </Trackpoint>
          <Trackpoint>
            <Time>2018-12-30T10:54:50.000Z</Time>
            <Position>
              <LatitudeDegrees>40.78401795588433742523193359375</LatitudeDegrees>
              <LongitudeDegrees>-4.06752881594002246856689453125</LongitudeDegrees>
            </Position>
            <AltitudeMeters>1604.199951171875</AltitudeMeters>
            <DistanceMeters>NAN</DistanceMeters>
          </Trackpoint>
          <Trackpoint>
            <Time>2018-12-30T10:54:51.000Z</Time>
            <Position>
              <LatitudeDegrees>40.78402943909168243408203125</LatitudeDegrees>
              <LongitudeDegrees>-4.0675285644829273223876953125</LongitudeDegrees>
            </Position>
            <AltitudeMeters>1604.199951171875</AltitudeMeters>
            <DistanceMeters>NAN</DistanceMeters>
          </Trackpoint>
          <Trackpoint>
            <Time>2018-12-30T10:54:52.000Z</Time>
            <Position>
              <LatitudeDegrees>40.78403203748166561126708984375</LatitudeDegrees>
              <LongitudeDegrees>-4.0675203502178192138671875</LongitudeDegrees>
            </Position>
            <AltitudeMeters>1604.199951171875</AltitudeMeters>
            <DistanceMeters>NAN</DistanceMeters>
          </Trackpoint>
          <Trackpoint>
            <Time>2018-12-30T10:54:53.000Z</Time>
            <Position>
              <LatitudeDegrees>40.784032456576824188232421875</LatitudeDegrees>
              <LongitudeDegrees>-4.0675141476094722747802734375</LongitudeDegrees>
            </Position>
            <AltitudeMeters>1604.199951171875</AltitudeMeters>
            <DistanceMeters>NAN</DistanceMeters>
          </Trackpoint>
          <Trackpoint>
            <Time>2018-12-30T10:54:54.000Z</Time>
            <Position>
              <LatitudeDegrees>40.78403706662356853485107421875</LatitudeDegrees>
              <LongitudeDegrees>-4.0675141476094722747802734375</LongitudeDegrees>
            </Position>
            <AltitudeMeters>1604.199951171875</AltitudeMeters>
            <DistanceMeters>NAN</DistanceMeters>
          </Trackpoint>
          <Trackpoint>
            <Time>2018-12-30T10:54:55.000Z</Time>
            <Position>
              <LatitudeDegrees>40.78404176048934459686279296875</LatitudeDegrees>
              <LongitudeDegrees>-4.06751423142850399017333984375</LongitudeDegrees>
            </Position>
            <AltitudeMeters>1604.4000244140625</AltitudeMeters>
            <DistanceMeters>NAN</DistanceMeters>
          </Trackpoint>
          <Trackpoint>
            <Time>2018-12-30T10:54:56.000Z</Time>
            <Position>
              <LatitudeDegrees>40.78403153456747531890869140625</LatitudeDegrees>
              <LongitudeDegrees>-4.06748757697641849517822265625</LongitudeDegrees>
            </Position>
            <AltitudeMeters>1604.4000244140625</AltitudeMeters>
            <DistanceMeters>NAN</DistanceMeters>
          </Trackpoint>
          <Trackpoint>
            <Time>2018-12-30T10:54:57.000Z</Time>
            <Position>
              <LatitudeDegrees>40.78403153456747531890869140625</LatitudeDegrees>
              <LongitudeDegrees>-4.06748757697641849517822265625</LongitudeDegrees>
            </Position>
            <AltitudeMeters>1604.5999755859375</AltitudeMeters>
            <DistanceMeters>NAN</DistanceMeters>
          </Trackpoint>
          <Trackpoint>
            <Time>2018-12-30T10:54:58.000Z</Time>
            <Position>
              <LatitudeDegrees>40.78403488732874393463134765625</LatitudeDegrees>
              <LongitudeDegrees>-4.06748120673000812530517578125</LongitudeDegrees>
            </Position>
            <AltitudeMeters>1604.800048828125</AltitudeMeters>
            <DistanceMeters>NAN</DistanceMeters>
          </Trackpoint>
          <Trackpoint>
            <Time>2018-12-30T10:54:59.000Z</Time>
            <Position>
              <LatitudeDegrees>40.78404159285128116607666015625</LatitudeDegrees>
              <LongitudeDegrees>-4.067477770149707794189453125</LongitudeDegrees>
            </Position>
            <AltitudeMeters>1605</AltitudeMeters>
            <DistanceMeters>NAN</DistanceMeters>
          </Trackpoint>
          <Trackpoint>
            <Time>2018-12-30T10:55:00.000Z</Time>
            <Position>
              <LatitudeDegrees>40.78405315987765789031982421875</LatitudeDegrees>
              <LongitudeDegrees>-4.06748271547257900238037109375</LongitudeDegrees>
            </Position>
            <AltitudeMeters>1605</AltitudeMeters>
            <DistanceMeters>NAN</DistanceMeters>
          </Trackpoint>
          <Trackpoint>
            <Time>2018-12-30T10:55:01.000Z</Time>
            <Position>
              <LatitudeDegrees>40.78407101333141326904296875</LatitudeDegrees>
              <LongitudeDegrees>-4.06750098802149295806884765625</LongitudeDegrees>
            </Position>
            <AltitudeMeters>1605</AltitudeMeters>
            <DistanceMeters>NAN</DistanceMeters>
          </Trackpoint>
          <Trackpoint>
            <Time>2018-12-30T10:55:02.000Z</Time>
            <Position>
              <LatitudeDegrees>40.7840798981487751007080078125</LatitudeDegrees>
              <LongitudeDegrees>-4.06750014983117580413818359375</LongitudeDegrees>
            </Position>
            <AltitudeMeters>1605.199951171875</AltitudeMeters>
            <DistanceMeters>NAN</DistanceMeters>
          </Trackpoint>
          <Trackpoint>
            <Time>2018-12-30T10:55:03.000Z</Time>
            <Position>
              <LatitudeDegrees>40.78409037552773952484130859375</LatitudeDegrees>
              <LongitudeDegrees>-4.06750735826790332794189453125</LongitudeDegrees>
            </Position>
            <AltitudeMeters>1605.199951171875</AltitudeMeters>
            <DistanceMeters>NAN</DistanceMeters>
          </Trackpoint>
          <Trackpoint>
            <Time>2018-12-30T10:55:04.000Z</Time>
            <Position>
              <LatitudeDegrees>40.78409909270703792572021484375</LatitudeDegrees>
              <LongitudeDegrees>-4.06751104630529880523681640625</LongitudeDegrees>
            </Position>
            <AltitudeMeters>1605.4000244140625</AltitudeMeters>
            <DistanceMeters>NAN</DistanceMeters>
          </Trackpoint>
          <Trackpoint>
            <Time>2018-12-30T10:55:05.000Z</Time>
            <Position>
              <LatitudeDegrees>40.78411267139017581939697265625</LatitudeDegrees>
              <LongitudeDegrees>-4.067515321075916290283203125</LongitudeDegrees>
            </Position>
            <AltitudeMeters>1605.5999755859375</AltitudeMeters>
            <DistanceMeters>NAN</DistanceMeters>
          </Trackpoint>
          <Trackpoint>
            <Time>2018-12-30T10:55:06.000Z</Time>
            <Position>
              <LatitudeDegrees>40.78412407077848911285400390625</LatitudeDegrees>
              <LongitudeDegrees>-4.0675235353410243988037109375</LongitudeDegrees>
            </Position>
            <AltitudeMeters>1605.800048828125</AltitudeMeters>
            <DistanceMeters>NAN</DistanceMeters>
          </Trackpoint>
          <Trackpoint>
            <Time>2018-12-30T10:55:07.000Z</Time>
            <Position>
              <LatitudeDegrees>40.78413161449134349822998046875</LatitudeDegrees>
              <LongitudeDegrees>-4.06753049232065677642822265625</LongitudeDegrees>
            </Position>
            <AltitudeMeters>1606</AltitudeMeters>
            <DistanceMeters>NAN</DistanceMeters>
          </Trackpoint>
          <Trackpoint>
            <Time>2018-12-30T10:55:08.000Z</Time>
            <Position>
              <LatitudeDegrees>40.78413597308099269866943359375</LatitudeDegrees>
              <LongitudeDegrees>-4.06753954477608203887939453125</LongitudeDegrees>
            </Position>
            <AltitudeMeters>1606</AltitudeMeters>
            <DistanceMeters>NAN</DistanceMeters>
          </Trackpoint>
          <Trackpoint>
            <Time>2018-12-30T10:55:09.000Z</Time>
            <Position>
              <LatitudeDegrees>40.78414318151772022247314453125</LatitudeDegrees>
              <LongitudeDegrees>-4.06755748204886913299560546875</LongitudeDegrees>
            </Position>
            <AltitudeMeters>1606.199951171875</AltitudeMeters>
            <DistanceMeters>NAN</DistanceMeters>
          </Trackpoint>
          <Trackpoint>
            <Time>2018-12-30T10:55:10.000Z</Time>
            <Position>
              <LatitudeDegrees>40.78415038995444774627685546875</LatitudeDegrees>
              <LongitudeDegrees>-4.06755924224853515625</LongitudeDegrees>
            </Position>
            <AltitudeMeters>1606.4000244140625</AltitudeMeters>
            <DistanceMeters>NAN</DistanceMeters>
          </Trackpoint>
          <Trackpoint>
            <Time>2018-12-30T10:55:11.000Z</Time>
            <Position>
              <LatitudeDegrees>40.78415038995444774627685546875</LatitudeDegrees>
              <LongitudeDegrees>-4.06755924224853515625</LongitudeDegrees>
            </Position>
            <AltitudeMeters>1606.5999755859375</AltitudeMeters>
            <DistanceMeters>NAN</DistanceMeters>
          </Trackpoint>
          <Trackpoint>
            <Time>2018-12-30T10:55:12.000Z</Time>
            <Position>
              <LatitudeDegrees>40.7841600291430950164794921875</LatitudeDegrees>
              <LongitudeDegrees>-4.06755530275404453277587890625</LongitudeDegrees>
            </Position>
            <AltitudeMeters>1607</AltitudeMeters>
            <DistanceMeters>NAN</DistanceMeters>
          </Trackpoint>
          <Trackpoint>
            <Time>2018-12-30T10:55:13.000Z</Time>
            <Position>
              <LatitudeDegrees>40.78417067416012287139892578125</LatitudeDegrees>
              <LongitudeDegrees>-4.0675527043640613555908203125</LongitudeDegrees>
            </Position>
            <AltitudeMeters>1607.199951171875</AltitudeMeters>
            <DistanceMeters>NAN</DistanceMeters>
          </Trackpoint>
          <Trackpoint>
            <Time>2018-12-30T10:55:14.000Z</Time>
            <Position>
              <LatitudeDegrees>40.78418006189167499542236328125</LatitudeDegrees>
              <LongitudeDegrees>-4.0675480104982852935791015625</LongitudeDegrees>
            </Position>
            <AltitudeMeters>1607.199951171875</AltitudeMeters>
            <DistanceMeters>NAN</DistanceMeters>
          </Trackpoint>
          <Trackpoint>
            <Time>2018-12-30T10:55:15.000Z</Time>
            <Position>
              <LatitudeDegrees>40.7841895334422588348388671875</LatitudeDegrees>
              <LongitudeDegrees>-4.06754055060446262359619140625</LongitudeDegrees>
            </Position>
            <AltitudeMeters>1607.4000244140625</AltitudeMeters>
            <DistanceMeters>NAN</DistanceMeters>
          </Trackpoint>
          <Trackpoint>
            <Time>2018-12-30T10:55:16.000Z</Time>
            <Position>
              <LatitudeDegrees>40.7841985858976840972900390625</LatitudeDegrees>
              <LongitudeDegrees>-4.06753300689160823822021484375</LongitudeDegrees>
            </Position>
            <AltitudeMeters>1607.4000244140625</AltitudeMeters>
            <DistanceMeters>NAN</DistanceMeters>
          </Trackpoint>
          <Trackpoint>
            <Time>2018-12-30T10:55:17.000Z</Time>
            <Position>
              <LatitudeDegrees>40.78420788981020450592041015625</LatitudeDegrees>
              <LongitudeDegrees>-4.0675268881022930145263671875</LongitudeDegrees>
            </Position>
            <AltitudeMeters>1607.5999755859375</AltitudeMeters>
            <DistanceMeters>NAN</DistanceMeters>
          </Trackpoint>
          <Trackpoint>
            <Time>2018-12-30T10:55:18.000Z</Time>
            <Position>
              <LatitudeDegrees>40.784217528998851776123046875</LatitudeDegrees>
              <LongitudeDegrees>-4.0675235353410243988037109375</LongitudeDegrees>
            </Position>
            <AltitudeMeters>1607.5999755859375</AltitudeMeters>
            <DistanceMeters>NAN</DistanceMeters>
          </Trackpoint>
          <Trackpoint>
            <Time>2018-12-30T10:55:19.000Z</Time>
            <Position>
              <LatitudeDegrees>40.784227587282657623291015625</LatitudeDegrees>
              <LongitudeDegrees>-4.0675175003707408905029296875</LongitudeDegrees>
            </Position>
            <AltitudeMeters>1607.4000244140625</AltitudeMeters>
            <DistanceMeters>NAN</DistanceMeters>
          </Trackpoint>
          <Trackpoint>
            <Time>2018-12-30T10:55:20.000Z</Time>
            <Position>
              <LatitudeDegrees>40.7842366397380828857421875</LatitudeDegrees>
              <LongitudeDegrees>-4.0675097890198230743408203125</LongitudeDegrees>
            </Position>
            <AltitudeMeters>1607.4000244140625</AltitudeMeters>
            <DistanceMeters>NAN</DistanceMeters>
          </Trackpoint>
          <Trackpoint>
            <Time>2018-12-30T10:55:21.000Z</Time>
            <Position>
              <LatitudeDegrees>40.78424577601253986358642578125</LatitudeDegrees>
              <LongitudeDegrees>-4.06750467605888843536376953125</LongitudeDegrees>
            </Position>
            <AltitudeMeters>1607.4000244140625</AltitudeMeters>
            <DistanceMeters>NAN</DistanceMeters>
          </Trackpoint>
          <Trackpoint>
            <Time>2018-12-30T10:55:22.000Z</Time>
            <Position>
              <LatitudeDegrees>40.78425415791571140289306640625</LatitudeDegrees>
              <LongitudeDegrees>-4.06750350259244441986083984375</LongitudeDegrees>
            </Position>
            <AltitudeMeters>1607.5999755859375</AltitudeMeters>
            <DistanceMeters>NAN</DistanceMeters>
          </Trackpoint>
          <Trackpoint>
            <Time>2018-12-30T10:55:23.000Z</Time>
            <Position>
              <LatitudeDegrees>40.7842619530856609344482421875</LatitudeDegrees>
              <LongitudeDegrees>-4.0675030834972858428955078125</LongitudeDegrees>
            </Position>
            <AltitudeMeters>1607.5999755859375</AltitudeMeters>
            <DistanceMeters>NAN</DistanceMeters>
          </Trackpoint>
          <Trackpoint>
            <Time>2018-12-30T10:55:24.000Z</Time>
            <Position>
              <LatitudeDegrees>40.78426949679851531982421875</LatitudeDegrees>
              <LongitudeDegrees>-4.06750702299177646636962890625</LongitudeDegrees>
            </Position>
            <AltitudeMeters>1607.5999755859375</AltitudeMeters>
            <DistanceMeters>NAN</DistanceMeters>
          </Trackpoint>
          <Trackpoint>
            <Time>2018-12-30T10:55:25.000Z</Time>
            <Position>
              <LatitudeDegrees>40.784276537597179412841796875</LatitudeDegrees>
              <LongitudeDegrees>-4.06751339323818683624267578125</LongitudeDegrees>
            </Position>
            <AltitudeMeters>1607.5999755859375</AltitudeMeters>
            <DistanceMeters>NAN</DistanceMeters>
          </Trackpoint>
          <Trackpoint>
            <Time>2018-12-30T10:55:26.000Z</Time>
            <Position>
              <LatitudeDegrees>40.7842837460339069366455078125</LatitudeDegrees>
              <LongitudeDegrees>-4.0675149857997894287109375</LongitudeDegrees>
            </Position>
            <AltitudeMeters>1607.800048828125</AltitudeMeters>
            <DistanceMeters>NAN</DistanceMeters>
          </Trackpoint>
          <Trackpoint>
            <Time>2018-12-30T10:55:27.000Z</Time>
            <Position>
              <LatitudeDegrees>40.78429120592772960662841796875</LatitudeDegrees>
              <LongitudeDegrees>-4.06751305796205997467041015625</LongitudeDegrees>
            </Position>
            <AltitudeMeters>1608</AltitudeMeters>
            <DistanceMeters>NAN</DistanceMeters>
          </Trackpoint>
          <Trackpoint>
            <Time>2018-12-30T10:55:28.000Z</Time>
            <Position>
              <LatitudeDegrees>40.7843005098402500152587890625</LatitudeDegrees>
              <LongitudeDegrees>-4.06751691363751888275146484375</LongitudeDegrees>
            </Position>
            <AltitudeMeters>1608.4000244140625</AltitudeMeters>
            <DistanceMeters>NAN</DistanceMeters>
          </Trackpoint>
          <Trackpoint>
            <Time>2018-12-30T10:55:29.000Z</Time>
            <Position>
              <LatitudeDegrees>40.78431014902889728546142578125</LatitudeDegrees>
              <LongitudeDegrees>-4.06751859001815319061279296875</LongitudeDegrees>
            </Position>
            <AltitudeMeters>1608.800048828125</AltitudeMeters>
            <DistanceMeters>NAN</DistanceMeters>
          </Trackpoint>
          <Trackpoint>
            <Time>2018-12-30T10:55:30.000Z</Time>
            <Position>
              <LatitudeDegrees>40.78431618399918079376220703125</LatitudeDegrees>
              <LongitudeDegrees>-4.06752378679811954498291015625</LongitudeDegrees>
            </Position>
            <AltitudeMeters>1609.199951171875</AltitudeMeters>
            <DistanceMeters>NAN</DistanceMeters>
          </Trackpoint>
          <Trackpoint>
            <Time>2018-12-30T10:55:31.000Z</Time>
            <Position>
              <LatitudeDegrees>40.7843223027884960174560546875</LatitudeDegrees>
              <LongitudeDegrees>-4.06752797774970531463623046875</LongitudeDegrees>
            </Position>
            <AltitudeMeters>1609.5999755859375</AltitudeMeters>
            <DistanceMeters>NAN</DistanceMeters>
          </Trackpoint>
          <Trackpoint>
            <Time>2018-12-30T10:55:32.000Z</Time>
            <Position>
              <LatitudeDegrees>40.78433278016746044158935546875</LatitudeDegrees>
              <LongitudeDegrees>-4.06754055060446262359619140625</LongitudeDegrees>
            </Position>
            <AltitudeMeters>1609.800048828125</AltitudeMeters>
            <DistanceMeters>NAN</DistanceMeters>
          </Trackpoint>
          <Trackpoint>
            <Time>2018-12-30T10:55:33.000Z</Time>
            <Position>
              <LatitudeDegrees>40.78434317372739315032958984375</LatitudeDegrees>
              <LongitudeDegrees>-4.0675453282892704010009765625</LongitudeDegrees>
            </Position>
            <AltitudeMeters>1610</AltitudeMeters>
            <DistanceMeters>NAN</DistanceMeters>
          </Trackpoint>
          <Trackpoint>
            <Time>2018-12-30T10:55:34.000Z</Time>
            <Position>
              <LatitudeDegrees>40.7843519747257232666015625</LatitudeDegrees>
              <LongitudeDegrees>-4.067552201449871063232421875</LongitudeDegrees>
            </Position>
            <AltitudeMeters>1610.199951171875</AltitudeMeters>
            <DistanceMeters>NAN</DistanceMeters>
          </Trackpoint>
          <Trackpoint>
            <Time>2018-12-30T10:55:35.000Z</Time>
            <Position>
              <LatitudeDegrees>40.78436471521854400634765625</LatitudeDegrees>
              <LongitudeDegrees>-4.0675651095807552337646484375</LongitudeDegrees>
            </Position>
            <AltitudeMeters>1610.4000244140625</AltitudeMeters>
            <DistanceMeters>NAN</DistanceMeters>
          </Trackpoint>
          <Trackpoint>
            <Time>2018-12-30T10:55:36.000Z</Time>
            <Position>
              <LatitudeDegrees>40.784374773502349853515625</LatitudeDegrees>
              <LongitudeDegrees>-4.06757944263517856597900390625</LongitudeDegrees>
            </Position>
            <AltitudeMeters>1610.5999755859375</AltitudeMeters>
            <DistanceMeters>NAN</DistanceMeters>
          </Trackpoint>
          <Trackpoint>
            <Time>2018-12-30T10:55:37.000Z</Time>
            <Position>
              <LatitudeDegrees>40.78438692726194858551025390625</LatitudeDegrees>
              <LongitudeDegrees>-4.0675929374992847442626953125</LongitudeDegrees>
            </Position>
            <AltitudeMeters>1610.800048828125</AltitudeMeters>
            <DistanceMeters>NAN</DistanceMeters>
          </Trackpoint>
          <Trackpoint>
            <Time>2018-12-30T10:55:38.000Z</Time>
            <Position>
              <LatitudeDegrees>40.78439690172672271728515625</LatitudeDegrees>
              <LongitudeDegrees>-4.067615233361721038818359375</LongitudeDegrees>
            </Position>
            <AltitudeMeters>1611</AltitudeMeters>
            <DistanceMeters>NAN</DistanceMeters>
          </Trackpoint>
          <Trackpoint>
            <Time>2018-12-30T10:55:39.000Z</Time>
            <Position>
              <LatitudeDegrees>40.78440419398248195648193359375</LatitudeDegrees>
              <LongitudeDegrees>-4.06763099133968353271484375</LongitudeDegrees>
            </Position>
            <AltitudeMeters>1611.199951171875</AltitudeMeters>
            <DistanceMeters>NAN</DistanceMeters>
          </Trackpoint>
          <Trackpoint>
            <Time>2018-12-30T10:55:40.000Z</Time>
            <Position>
              <LatitudeDegrees>40.784413330256938934326171875</LatitudeDegrees>
              <LongitudeDegrees>-4.06764842569828033447265625</LongitudeDegrees>
            </Position>
            <AltitudeMeters>1611.199951171875</AltitudeMeters>
            <DistanceMeters>NAN</DistanceMeters>
          </Trackpoint>
          <Trackpoint>
            <Time>2018-12-30T10:55:41.000Z</Time>
            <Position>
              <LatitudeDegrees>40.7844225503504276275634765625</LatitudeDegrees>
              <LongitudeDegrees>-4.06766108237206935882568359375</LongitudeDegrees>
            </Position>
            <AltitudeMeters>1611.4000244140625</AltitudeMeters>
            <DistanceMeters>NAN</DistanceMeters>
          </Trackpoint>
          <Trackpoint>
            <Time>2018-12-30T10:55:42.000Z</Time>
            <Position>
              <LatitudeDegrees>40.78444182872772216796875</LatitudeDegrees>
              <LongitudeDegrees>-4.0676777623593807220458984375</LongitudeDegrees>
            </Position>
            <AltitudeMeters>1611.4000244140625</AltitudeMeters>
            <DistanceMeters>NAN</DistanceMeters>
          </Trackpoint>
          <Trackpoint>
            <Time>2018-12-30T10:55:43.000Z</Time>
            <Position>
              <LatitudeDegrees>40.7844507135450839996337890625</LatitudeDegrees>
              <LongitudeDegrees>-4.06768958084285259246826171875</LongitudeDegrees>
            </Position>
            <AltitudeMeters>1611.4000244140625</AltitudeMeters>
            <DistanceMeters>NAN</DistanceMeters>
          </Trackpoint>
          <Trackpoint>
            <Time>2018-12-30T10:55:44.000Z</Time>
            <Position>
              <LatitudeDegrees>40.78446169383823871612548828125</LatitudeDegrees>
              <LongitudeDegrees>-4.0676946938037872314453125</LongitudeDegrees>
            </Position>
            <AltitudeMeters>1611.5999755859375</AltitudeMeters>
            <DistanceMeters>NAN</DistanceMeters>
          </Trackpoint>
          <Trackpoint>
            <Time>2018-12-30T10:55:45.000Z</Time>
            <Position>
              <LatitudeDegrees>40.78447091393172740936279296875</LatitudeDegrees>
              <LongitudeDegrees>-4.06769829802215099334716796875</LongitudeDegrees>
            </Position>
            <AltitudeMeters>1611.4000244140625</AltitudeMeters>
            <DistanceMeters>NAN</DistanceMeters>
          </Trackpoint>
          <Trackpoint>
            <Time>2018-12-30T10:55:46.000Z</Time>
            <Position>
              <LatitudeDegrees>40.78447879292070865631103515625</LatitudeDegrees>
              <LongitudeDegrees>-4.067706428468227386474609375</LongitudeDegrees>
            </Position>
            <AltitudeMeters>1611.5999755859375</AltitudeMeters>
            <DistanceMeters>NAN</DistanceMeters>
          </Trackpoint>
          <Trackpoint>
            <Time>2018-12-30T10:55:47.000Z</Time>
            <Position>
              <LatitudeDegrees>40.78447963111102581024169921875</LatitudeDegrees>
              <LongitudeDegrees>-4.067713133990764617919921875</LongitudeDegrees>
            </Position>
            <AltitudeMeters>1611.5999755859375</AltitudeMeters>
            <DistanceMeters>NAN</DistanceMeters>
          </Trackpoint>
          <Trackpoint>
            <Time>2018-12-30T10:55:48.000Z</Time>
            <Position>
              <LatitudeDegrees>40.78448080457746982574462890625</LatitudeDegrees>
              <LongitudeDegrees>-4.0677210129797458648681640625</LongitudeDegrees>
            </Position>
            <AltitudeMeters>1611.5999755859375</AltitudeMeters>
            <DistanceMeters>NAN</DistanceMeters>
          </Trackpoint>
          <Trackpoint>
            <Time>2018-12-30T10:55:49.000Z</Time>
            <Position>
              <LatitudeDegrees>40.78448298387229442596435546875</LatitudeDegrees>
              <LongitudeDegrees>-4.06773149035871028900146484375</LongitudeDegrees>
            </Position>
            <AltitudeMeters>1611.800048828125</AltitudeMeters>
            <DistanceMeters>NAN</DistanceMeters>
          </Trackpoint>
          <Trackpoint>
            <Time>2018-12-30T10:55:50.000Z</Time>
            <Position>
              <LatitudeDegrees>40.78449212014675140380859375</LatitudeDegrees>
              <LongitudeDegrees>-4.06773920170962810516357421875</LongitudeDegrees>
            </Position>
            <AltitudeMeters>1612</AltitudeMeters>
            <DistanceMeters>NAN</DistanceMeters>
          </Trackpoint>
          <Trackpoint>
            <Time>2018-12-30T10:55:51.000Z</Time>
            <Position>
              <LatitudeDegrees>40.78450058586895465850830078125</LatitudeDegrees>
              <LongitudeDegrees>-4.06774741597473621368408203125</LongitudeDegrees>
            </Position>
            <AltitudeMeters>1612</AltitudeMeters>
            <DistanceMeters>NAN</DistanceMeters>
          </Trackpoint>
          <Trackpoint>
            <Time>2018-12-30T10:55:52.000Z</Time>
            <Position>
              <LatitudeDegrees>40.78450595028698444366455078125</LatitudeDegrees>
              <LongitudeDegrees>-4.06775839626789093017578125</LongitudeDegrees>
            </Position>
            <AltitudeMeters>1612.199951171875</AltitudeMeters>
            <DistanceMeters>NAN</DistanceMeters>
          </Trackpoint>
          <Trackpoint>
            <Time>2018-12-30T10:55:53.000Z</Time>
            <Position>
              <LatitudeDegrees>40.784505195915699005126953125</LatitudeDegrees>
              <LongitudeDegrees>-4.06776702962815761566162109375</LongitudeDegrees>
            </Position>
            <AltitudeMeters>1612.4000244140625</AltitudeMeters>
            <DistanceMeters>NAN</DistanceMeters>
          </Trackpoint>
          <Trackpoint>
            <Time>2018-12-30T10:55:54.000Z</Time>
            <Position>
              <LatitudeDegrees>40.7845077104866504669189453125</LatitudeDegrees>
              <LongitudeDegrees>-4.06777071766555309295654296875</LongitudeDegrees>
            </Position>
            <AltitudeMeters>1612.5999755859375</AltitudeMeters>
            <DistanceMeters>NAN</DistanceMeters>
          </Trackpoint>
          <Trackpoint>
            <Time>2018-12-30T10:55:55.000Z</Time>
            <Position>
              <LatitudeDegrees>40.7845211215317249298095703125</LatitudeDegrees>
              <LongitudeDegrees>-4.06776786781847476959228515625</LongitudeDegrees>
            </Position>
            <AltitudeMeters>1612.800048828125</AltitudeMeters>
            <DistanceMeters>NAN</DistanceMeters>
          </Trackpoint>
          <Trackpoint>
            <Time>2018-12-30T10:55:56.000Z</Time>
            <Position>
              <LatitudeDegrees>40.78452087007462978363037109375</LatitudeDegrees>
              <LongitudeDegrees>-4.06776082701981067657470703125</LongitudeDegrees>
            </Position>
            <AltitudeMeters>1612.800048828125</AltitudeMeters>
            <DistanceMeters>NAN</DistanceMeters>
          </Trackpoint>
          <Trackpoint>
            <Time>2018-12-30T10:55:57.000Z</Time>
            <Position>
              <LatitudeDegrees>40.78452087007462978363037109375</LatitudeDegrees>
              <LongitudeDegrees>-4.06776082701981067657470703125</LongitudeDegrees>
            </Position>
            <AltitudeMeters>1612.800048828125</AltitudeMeters>
            <DistanceMeters>NAN</DistanceMeters>
          </Trackpoint>
          <Trackpoint>
            <Time>2018-12-30T10:55:58.000Z</Time>
            <Position>
              <LatitudeDegrees>40.7845207862555980682373046875</LatitudeDegrees>
              <LongitudeDegrees>-4.06775965355336666107177734375</LongitudeDegrees>
            </Position>
            <AltitudeMeters>1613</AltitudeMeters>
            <DistanceMeters>NAN</DistanceMeters>
          </Trackpoint>
          <Trackpoint>
            <Time>2018-12-30T10:55:59.000Z</Time>
            <Position>
              <LatitudeDegrees>40.7845224626362323760986328125</LatitudeDegrees>
              <LongitudeDegrees>-4.0677582286298274993896484375</LongitudeDegrees>
            </Position>
            <AltitudeMeters>1613.199951171875</AltitudeMeters>
            <DistanceMeters>NAN</DistanceMeters>
          </Trackpoint>
          <Trackpoint>
            <Time>2018-12-30T10:56:00.000Z</Time>
            <Position>
              <LatitudeDegrees>40.7845244742929935455322265625</LatitudeDegrees>
              <LongitudeDegrees>-4.0677590668201446533203125</LongitudeDegrees>
            </Position>
            <AltitudeMeters>1613.5999755859375</AltitudeMeters>
            <DistanceMeters>NAN</DistanceMeters>
          </Trackpoint>
          <Trackpoint>
            <Time>2018-12-30T10:56:01.000Z</Time>
            <Position>
              <LatitudeDegrees>40.78452807851135730743408203125</LatitudeDegrees>
              <LongitudeDegrees>-4.06776644289493560791015625</LongitudeDegrees>
            </Position>
            <AltitudeMeters>1613.5999755859375</AltitudeMeters>
            <DistanceMeters>NAN</DistanceMeters>
          </Trackpoint>
          <Trackpoint>
            <Time>2018-12-30T10:56:02.000Z</Time>
            <Position>
              <LatitudeDegrees>40.784532018005847930908203125</LatitudeDegrees>
              <LongitudeDegrees>-4.0677697956562042236328125</LongitudeDegrees>
            </Position>
            <AltitudeMeters>1613.800048828125</AltitudeMeters>
            <DistanceMeters>NAN</DistanceMeters>
          </Trackpoint>
          <Trackpoint>
            <Time>2018-12-30T10:56:03.000Z</Time>
            <Position>
              <LatitudeDegrees>40.784534700214862823486328125</LatitudeDegrees>
              <LongitudeDegrees>-4.06776971183717250823974609375</LongitudeDegrees>
            </Position>
            <AltitudeMeters>1613.800048828125</AltitudeMeters>
            <DistanceMeters>NAN</DistanceMeters>
          </Trackpoint>
          <Trackpoint>
            <Time>2018-12-30T10:56:04.000Z</Time>
            <Position>
              <LatitudeDegrees>40.78453981317579746246337890625</LatitudeDegrees>
              <LongitudeDegrees>-4.06777407042682170867919921875</LongitudeDegrees>
            </Position>
            <AltitudeMeters>1614</AltitudeMeters>
            <DistanceMeters>NAN</DistanceMeters>
          </Trackpoint>
          <Trackpoint>
            <Time>2018-12-30T10:56:05.000Z</Time>
            <Position>
              <LatitudeDegrees>40.78455037437379360198974609375</LatitudeDegrees>
              <LongitudeDegrees>-4.06778924167156219482421875</LongitudeDegrees>
            </Position>
            <AltitudeMeters>1614.199951171875</AltitudeMeters>
            <DistanceMeters>NAN</DistanceMeters>
          </Trackpoint>
          <Trackpoint>
            <Time>2018-12-30T10:56:06.000Z</Time>
            <Position>
              <LatitudeDegrees>40.7845583371818065643310546875</LatitudeDegrees>
              <LongitudeDegrees>-4.0677994675934314727783203125</LongitudeDegrees>
            </Position>
            <AltitudeMeters>1614.4000244140625</AltitudeMeters>
            <DistanceMeters>NAN</DistanceMeters>
          </Trackpoint>
          <Trackpoint>
            <Time>2018-12-30T10:56:07.000Z</Time>
            <Position>
              <LatitudeDegrees>40.78456613235175609588623046875</LatitudeDegrees>
              <LongitudeDegrees>-4.06780189834535121917724609375</LongitudeDegrees>
            </Position>
            <AltitudeMeters>1614.4000244140625</AltitudeMeters>
            <DistanceMeters>NAN</DistanceMeters>
          </Trackpoint>
          <Trackpoint>
            <Time>2018-12-30T10:56:08.000Z</Time>
            <Position>
              <LatitudeDegrees>40.78456613235175609588623046875</LatitudeDegrees>
              <LongitudeDegrees>-4.06780189834535121917724609375</LongitudeDegrees>
            </Position>
            <AltitudeMeters>1614.5999755859375</AltitudeMeters>
            <DistanceMeters>NAN</DistanceMeters>
          </Trackpoint>
          <Trackpoint>
            <Time>2018-12-30T10:56:09.000Z</Time>
            <Position>
              <LatitudeDegrees>40.784575603902339935302734375</LatitudeDegrees>
              <LongitudeDegrees>-4.06781212426722049713134765625</LongitudeDegrees>
            </Position>
            <AltitudeMeters>1614.800048828125</AltitudeMeters>
            <DistanceMeters>NAN</DistanceMeters>
          </Trackpoint>
          <Trackpoint>
            <Time>2018-12-30T10:56:10.000Z</Time>
            <Position>
              <LatitudeDegrees>40.784575603902339935302734375</LatitudeDegrees>
              <LongitudeDegrees>-4.06781212426722049713134765625</LongitudeDegrees>
            </Position>
            <AltitudeMeters>1614.800048828125</AltitudeMeters>
            <DistanceMeters>NAN</DistanceMeters>
          </Trackpoint>
          <Trackpoint>
            <Time>2018-12-30T10:56:11.000Z</Time>
            <Position>
              <LatitudeDegrees>40.78457929193973541259765625</LatitudeDegrees>
              <LongitudeDegrees>-4.0678078494966030120849609375</LongitudeDegrees>
            </Position>
            <AltitudeMeters>1615</AltitudeMeters>
            <DistanceMeters>NAN</DistanceMeters>
          </Trackpoint>
          <Trackpoint>
            <Time>2018-12-30T10:56:12.000Z</Time>
            <Position>
              <LatitudeDegrees>40.784585662186145782470703125</LatitudeDegrees>
              <LongitudeDegrees>-4.0678098611533641815185546875</LongitudeDegrees>
            </Position>
            <AltitudeMeters>1615.199951171875</AltitudeMeters>
            <DistanceMeters>NAN</DistanceMeters>
          </Trackpoint>
          <Trackpoint>
            <Time>2018-12-30T10:56:13.000Z</Time>
            <Position>
              <LatitudeDegrees>40.78459781594574451446533203125</LatitudeDegrees>
              <LongitudeDegrees>-4.06781765632331371307373046875</LongitudeDegrees>
            </Position>
            <AltitudeMeters>1615.199951171875</AltitudeMeters>
            <DistanceMeters>NAN</DistanceMeters>
          </Trackpoint>
          <Trackpoint>
            <Time>2018-12-30T10:56:14.000Z</Time>
            <Position>
              <LatitudeDegrees>40.78460301272571086883544921875</LatitudeDegrees>
              <LongitudeDegrees>-4.0678095258772373199462890625</LongitudeDegrees>
            </Position>
            <AltitudeMeters>1615.4000244140625</AltitudeMeters>
            <DistanceMeters>NAN</DistanceMeters>
          </Trackpoint>
          <Trackpoint>
            <Time>2018-12-30T10:56:15.000Z</Time>
            <Position>
              <LatitudeDegrees>40.78460301272571086883544921875</LatitudeDegrees>
              <LongitudeDegrees>-4.0678095258772373199462890625</LongitudeDegrees>
            </Position>
            <AltitudeMeters>1615.4000244140625</AltitudeMeters>
            <DistanceMeters>NAN</DistanceMeters>
          </Trackpoint>
          <Trackpoint>
            <Time>2018-12-30T10:56:16.000Z</Time>
            <Position>
              <LatitudeDegrees>40.78460804186761379241943359375</LatitudeDegrees>
              <LongitudeDegrees>-4.0678055025637149810791015625</LongitudeDegrees>
            </Position>
            <AltitudeMeters>1615.4000244140625</AltitudeMeters>
            <DistanceMeters>NAN</DistanceMeters>
          </Trackpoint>
          <Trackpoint>
            <Time>2018-12-30T10:56:17.000Z</Time>
            <Position>
              <LatitudeDegrees>40.7846126519143581390380859375</LatitudeDegrees>
              <LongitudeDegrees>-4.0678058378398418426513671875</LongitudeDegrees>
            </Position>
            <AltitudeMeters>1615.4000244140625</AltitudeMeters>
            <DistanceMeters>NAN</DistanceMeters>
          </Trackpoint>
          <Trackpoint>
            <Time>2018-12-30T10:56:18.000Z</Time>
            <Position>
              <LatitudeDegrees>40.78461927361786365509033203125</LatitudeDegrees>
              <LongitudeDegrees>-4.067809022963047027587890625</LongitudeDegrees>
            </Position>
            <AltitudeMeters>1615.4000244140625</AltitudeMeters>
            <DistanceMeters>NAN</DistanceMeters>
          </Trackpoint>
          <Trackpoint>
            <Time>2018-12-30T10:56:19.000Z</Time>
            <Position>
              <LatitudeDegrees>40.78462698496878147125244140625</LatitudeDegrees>
              <LongitudeDegrees>-4.0678112022578716278076171875</LongitudeDegrees>
            </Position>
            <AltitudeMeters>1615.4000244140625</AltitudeMeters>
            <DistanceMeters>NAN</DistanceMeters>
          </Trackpoint>
          <Trackpoint>
            <Time>2018-12-30T10:56:20.000Z</Time>
            <Position>
              <LatitudeDegrees>40.7846344448626041412353515625</LatitudeDegrees>
              <LongitudeDegrees>-4.06781061552464962005615234375</LongitudeDegrees>
            </Position>
            <AltitudeMeters>1615.199951171875</AltitudeMeters>
            <DistanceMeters>NAN</DistanceMeters>
          </Trackpoint>
          <Trackpoint>
            <Time>2018-12-30T10:56:21.000Z</Time>
            <Position>
              <LatitudeDegrees>40.78463989309966564178466796875</LatitudeDegrees>
              <LongitudeDegrees>-4.0678046643733978271484375</LongitudeDegrees>
            </Position>
            <AltitudeMeters>1615</AltitudeMeters>
            <DistanceMeters>NAN</DistanceMeters>
          </Trackpoint>
          <Trackpoint>
            <Time>2018-12-30T10:56:22.000Z</Time>
            <Position>
              <LatitudeDegrees>40.784642659127712249755859375</LatitudeDegrees>
              <LongitudeDegrees>-4.0677981264889240264892578125</LongitudeDegrees>
            </Position>
            <AltitudeMeters>1615</AltitudeMeters>
            <DistanceMeters>NAN</DistanceMeters>
          </Trackpoint>
          <Trackpoint>
            <Time>2018-12-30T10:56:23.000Z</Time>
            <Position>
              <LatitudeDegrees>40.78465045429766178131103515625</LatitudeDegrees>
              <LongitudeDegrees>-4.067803658545017242431640625</LongitudeDegrees>
            </Position>
            <AltitudeMeters>1614.800048828125</AltitudeMeters>
            <DistanceMeters>NAN</DistanceMeters>
          </Trackpoint>
          <Trackpoint>
            <Time>2018-12-30T10:56:24.000Z</Time>
            <Position>
              <LatitudeDegrees>40.78465984202921390533447265625</LatitudeDegrees>
              <LongitudeDegrees>-4.067809693515300750732421875</LongitudeDegrees>
            </Position>
            <AltitudeMeters>1614.800048828125</AltitudeMeters>
            <DistanceMeters>NAN</DistanceMeters>
          </Trackpoint>
          <Trackpoint>
            <Time>2018-12-30T10:56:25.000Z</Time>
            <Position>
              <LatitudeDegrees>40.78466537408530712127685546875</LatitudeDegrees>
              <LongitudeDegrees>-4.0678148902952671051025390625</LongitudeDegrees>
            </Position>
            <AltitudeMeters>1614.800048828125</AltitudeMeters>
            <DistanceMeters>NAN</DistanceMeters>
          </Trackpoint>
          <Trackpoint>
            <Time>2018-12-30T10:56:26.000Z</Time>
            <Position>
              <LatitudeDegrees>40.7846723310649394989013671875</LatitudeDegrees>
              <LongitudeDegrees>-4.06781681813299655914306640625</LongitudeDegrees>
            </Position>
            <AltitudeMeters>1614.5999755859375</AltitudeMeters>
            <DistanceMeters>NAN</DistanceMeters>
          </Trackpoint>
          <Trackpoint>
            <Time>2018-12-30T10:56:27.000Z</Time>
            <Position>
              <LatitudeDegrees>40.784676857292652130126953125</LatitudeDegrees>
              <LongitudeDegrees>-4.06782151199877262115478515625</LongitudeDegrees>
            </Position>
            <AltitudeMeters>1614.4000244140625</AltitudeMeters>
            <DistanceMeters>NAN</DistanceMeters>
          </Trackpoint>
          <Trackpoint>
            <Time>2018-12-30T10:56:28.000Z</Time>
            <Position>
              <LatitudeDegrees>40.78468347899615764617919921875</LatitudeDegrees>
              <LongitudeDegrees>-4.06782704405486583709716796875</LongitudeDegrees>
            </Position>
            <AltitudeMeters>1614.4000244140625</AltitudeMeters>
            <DistanceMeters>NAN</DistanceMeters>
          </Trackpoint>
          <Trackpoint>
            <Time>2018-12-30T10:56:29.000Z</Time>
            <Position>
              <LatitudeDegrees>40.78469906933605670928955078125</LatitudeDegrees>
              <LongitudeDegrees>-4.06783475540578365325927734375</LongitudeDegrees>
            </Position>
            <AltitudeMeters>1614.4000244140625</AltitudeMeters>
            <DistanceMeters>NAN</DistanceMeters>
          </Trackpoint>
          <Trackpoint>
            <Time>2018-12-30T10:56:30.000Z</Time>
            <Position>
              <LatitudeDegrees>40.78472010791301727294921875</LatitudeDegrees>
              <LongitudeDegrees>-4.0678373537957668304443359375</LongitudeDegrees>
            </Position>
            <AltitudeMeters>1614.4000244140625</AltitudeMeters>
            <DistanceMeters>NAN</DistanceMeters>
          </Trackpoint>
          <Trackpoint>
            <Time>2018-12-30T10:56:31.000Z</Time>
            <Position>
              <LatitudeDegrees>40.78472010791301727294921875</LatitudeDegrees>
              <LongitudeDegrees>-4.0678373537957668304443359375</LongitudeDegrees>
            </Position>
            <AltitudeMeters>1614.199951171875</AltitudeMeters>
            <DistanceMeters>NAN</DistanceMeters>
          </Trackpoint>
          <Trackpoint>
            <Time>2018-12-30T10:56:32.000Z</Time>
            <Position>
              <LatitudeDegrees>40.7847355306148529052734375</LatitudeDegrees>
              <LongitudeDegrees>-4.06783442012965679168701171875</LongitudeDegrees>
            </Position>
            <AltitudeMeters>1614.199951171875</AltitudeMeters>
            <DistanceMeters>NAN</DistanceMeters>
          </Trackpoint>
          <Trackpoint>
            <Time>2018-12-30T10:56:33.000Z</Time>
            <Position>
              <LatitudeDegrees>40.7847527973353862762451171875</LatitudeDegrees>
              <LongitudeDegrees>-4.06784045509994029998779296875</LongitudeDegrees>
            </Position>
            <AltitudeMeters>1614.199951171875</AltitudeMeters>
            <DistanceMeters>NAN</DistanceMeters>
          </Trackpoint>
          <Trackpoint>
            <Time>2018-12-30T10:56:34.000Z</Time>
            <Position>
              <LatitudeDegrees>40.78476578928530216217041015625</LatitudeDegrees>
              <LongitudeDegrees>-4.06784011982381343841552734375</LongitudeDegrees>
            </Position>
            <AltitudeMeters>1614</AltitudeMeters>
            <DistanceMeters>NAN</DistanceMeters>
          </Trackpoint>
          <Trackpoint>
            <Time>2018-12-30T10:56:35.000Z</Time>
            <Position>
              <LatitudeDegrees>40.7847896777093410491943359375</LatitudeDegrees>
              <LongitudeDegrees>-4.06784464605152606964111328125</LongitudeDegrees>
            </Position>
            <AltitudeMeters>1614</AltitudeMeters>
            <DistanceMeters>NAN</DistanceMeters>
          </Trackpoint>
          <Trackpoint>
            <Time>2018-12-30T10:56:36.000Z</Time>
            <Position>
              <LatitudeDegrees>40.7848054356873035430908203125</LatitudeDegrees>
              <LongitudeDegrees>-4.06784062273800373077392578125</LongitudeDegrees>
            </Position>
            <AltitudeMeters>1614</AltitudeMeters>
            <DistanceMeters>NAN</DistanceMeters>
          </Trackpoint>
          <Trackpoint>
            <Time>2018-12-30T10:56:37.000Z</Time>
            <Position>
              <LatitudeDegrees>40.78482060693204402923583984375</LatitudeDegrees>
              <LongitudeDegrees>-4.06783726997673511505126953125</LongitudeDegrees>
            </Position>
            <AltitudeMeters>1614.199951171875</AltitudeMeters>
            <DistanceMeters>NAN</DistanceMeters>
          </Trackpoint>
          <Trackpoint>
            <Time>2018-12-30T10:56:38.000Z</Time>
            <Position>
              <LatitudeDegrees>40.7848342694342136383056640625</LatitudeDegrees>
              <LongitudeDegrees>-4.06783861108124256134033203125</LongitudeDegrees>
            </Position>
            <AltitudeMeters>1614.199951171875</AltitudeMeters>
            <DistanceMeters>NAN</DistanceMeters>
          </Trackpoint>
          <Trackpoint>
            <Time>2018-12-30T10:56:39.000Z</Time>
            <Position>
              <LatitudeDegrees>40.78484877012670040130615234375</LatitudeDegrees>
              <LongitudeDegrees>-4.0678403712809085845947265625</LongitudeDegrees>
            </Position>
            <AltitudeMeters>1614.199951171875</AltitudeMeters>
            <DistanceMeters>NAN</DistanceMeters>
          </Trackpoint>
          <Trackpoint>
            <Time>2018-12-30T10:56:40.000Z</Time>
            <Position>
              <LatitudeDegrees>40.784861259162425994873046875</LatitudeDegrees>
              <LongitudeDegrees>-4.067841880023479461669921875</LongitudeDegrees>
            </Position>
            <AltitudeMeters>1614.199951171875</AltitudeMeters>
            <DistanceMeters>NAN</DistanceMeters>
          </Trackpoint>
          <Trackpoint>
            <Time>2018-12-30T10:56:41.000Z</Time>
            <Position>
              <LatitudeDegrees>40.7848731614649295806884765625</LatitudeDegrees>
              <LongitudeDegrees>-4.06784355640411376953125</LongitudeDegrees>
            </Position>
            <AltitudeMeters>1614.4000244140625</AltitudeMeters>
            <DistanceMeters>NAN</DistanceMeters>
          </Trackpoint>
          <Trackpoint>
            <Time>2018-12-30T10:56:42.000Z</Time>
            <Position>
              <LatitudeDegrees>40.7848865725100040435791015625</LatitudeDegrees>
              <LongitudeDegrees>-4.067844562232494354248046875</LongitudeDegrees>
            </Position>
            <AltitudeMeters>1614.4000244140625</AltitudeMeters>
            <DistanceMeters>NAN</DistanceMeters>
          </Trackpoint>
          <Trackpoint>
            <Time>2018-12-30T10:56:43.000Z</Time>
            <Position>
              <LatitudeDegrees>40.7848979718983173370361328125</LatitudeDegrees>
              <LongitudeDegrees>-4.06784959137439727783203125</LongitudeDegrees>
            </Position>
            <AltitudeMeters>1614.5999755859375</AltitudeMeters>
            <DistanceMeters>NAN</DistanceMeters>
          </Trackpoint>
          <Trackpoint>
            <Time>2018-12-30T10:56:44.000Z</Time>
            <Position>
              <LatitudeDegrees>40.78490744344890117645263671875</LatitudeDegrees>
              <LongitudeDegrees>-4.06785319559276103973388671875</LongitudeDegrees>
            </Position>
            <AltitudeMeters>1614.5999755859375</AltitudeMeters>
            <DistanceMeters>NAN</DistanceMeters>
          </Trackpoint>
          <Trackpoint>
            <Time>2018-12-30T10:56:45.000Z</Time>
            <Position>
              <LatitudeDegrees>40.784917585551738739013671875</LatitudeDegrees>
              <LongitudeDegrees>-4.0678541176021099090576171875</LongitudeDegrees>
            </Position>
            <AltitudeMeters>1614.800048828125</AltitudeMeters>
            <DistanceMeters>NAN</DistanceMeters>
          </Trackpoint>
          <Trackpoint>
            <Time>2018-12-30T10:56:46.000Z</Time>
            <Position>
              <LatitudeDegrees>40.7849288173019886016845703125</LatitudeDegrees>
              <LongitudeDegrees>-4.0678489208221435546875</LongitudeDegrees>
            </Position>
            <AltitudeMeters>1614.800048828125</AltitudeMeters>
            <DistanceMeters>NAN</DistanceMeters>
          </Trackpoint>
          <Trackpoint>
            <Time>2018-12-30T10:56:47.000Z</Time>
            <Position>
              <LatitudeDegrees>40.78493845649063587188720703125</LatitudeDegrees>
              <LongitudeDegrees>-4.0678390301764011383056640625</LongitudeDegrees>
            </Position>
            <AltitudeMeters>1614.800048828125</AltitudeMeters>
            <DistanceMeters>NAN</DistanceMeters>
          </Trackpoint>
          <Trackpoint>
            <Time>2018-12-30T10:56:48.000Z</Time>
            <Position>
              <LatitudeDegrees>40.78494675457477569580078125</LatitudeDegrees>
              <LongitudeDegrees>-4.0678246133029460906982421875</LongitudeDegrees>
            </Position>
            <AltitudeMeters>1614.800048828125</AltitudeMeters>
            <DistanceMeters>NAN</DistanceMeters>
          </Trackpoint>
          <Trackpoint>
            <Time>2018-12-30T10:56:49.000Z</Time>
            <Position>
              <LatitudeDegrees>40.78495304100215435028076171875</LatitudeDegrees>
              <LongitudeDegrees>-4.06780893914401531219482421875</LongitudeDegrees>
            </Position>
            <AltitudeMeters>1614.5999755859375</AltitudeMeters>
            <DistanceMeters>NAN</DistanceMeters>
          </Trackpoint>
          <Trackpoint>
            <Time>2018-12-30T10:56:50.000Z</Time>
            <Position>
              <LatitudeDegrees>40.78495438210666179656982421875</LatitudeDegrees>
              <LongitudeDegrees>-4.067791588604450225830078125</LongitudeDegrees>
            </Position>
            <AltitudeMeters>1614.5999755859375</AltitudeMeters>
            <DistanceMeters>NAN</DistanceMeters>
          </Trackpoint>
          <Trackpoint>
            <Time>2018-12-30T10:56:51.000Z</Time>
            <Position>
              <LatitudeDegrees>40.78495672903954982757568359375</LatitudeDegrees>
              <LongitudeDegrees>-4.06777926720678806304931640625</LongitudeDegrees>
            </Position>
            <AltitudeMeters>1614.5999755859375</AltitudeMeters>
            <DistanceMeters>NAN</DistanceMeters>
          </Trackpoint>
          <Trackpoint>
            <Time>2018-12-30T10:56:52.000Z</Time>
            <Position>
              <LatitudeDegrees>40.78496511094272136688232421875</LatitudeDegrees>
              <LongitudeDegrees>-4.06777222640812397003173828125</LongitudeDegrees>
            </Position>
            <AltitudeMeters>1614.800048828125</AltitudeMeters>
            <DistanceMeters>NAN</DistanceMeters>
          </Trackpoint>
          <Trackpoint>
            <Time>2018-12-30T10:56:53.000Z</Time>
            <Position>
              <LatitudeDegrees>40.78497248701751232147216796875</LatitudeDegrees>
              <LongitudeDegrees>-4.0677619166672229766845703125</LongitudeDegrees>
            </Position>
            <AltitudeMeters>1615</AltitudeMeters>
            <DistanceMeters>NAN</DistanceMeters>
          </Trackpoint>
          <Trackpoint>
            <Time>2018-12-30T10:56:54.000Z</Time>
            <Position>
              <LatitudeDegrees>40.78498405404388904571533203125</LatitudeDegrees>
              <LongitudeDegrees>-4.06775613315403461456298828125</LongitudeDegrees>
            </Position>
            <AltitudeMeters>1615.199951171875</AltitudeMeters>
            <DistanceMeters>NAN</DistanceMeters>
          </Trackpoint>
          <Trackpoint>
            <Time>2018-12-30T10:56:55.000Z</Time>
            <Position>
              <LatitudeDegrees>40.78500836156308650970458984375</LatitudeDegrees>
              <LongitudeDegrees>-4.0677558816969394683837890625</LongitudeDegrees>
            </Position>
            <AltitudeMeters>1615.4000244140625</AltitudeMeters>
            <DistanceMeters>NAN</DistanceMeters>
          </Trackpoint>
          <Trackpoint>
            <Time>2018-12-30T10:56:56.000Z</Time>
            <Position>
              <LatitudeDegrees>40.78502210788428783416748046875</LatitudeDegrees>
              <LongitudeDegrees>-4.06775797717273235321044921875</LongitudeDegrees>
            </Position>
            <AltitudeMeters>1615.4000244140625</AltitudeMeters>
            <DistanceMeters>NAN</DistanceMeters>
          </Trackpoint>
          <Trackpoint>
            <Time>2018-12-30T10:56:57.000Z</Time>
            <Position>
              <LatitudeDegrees>40.78502210788428783416748046875</LatitudeDegrees>
              <LongitudeDegrees>-4.06775797717273235321044921875</LongitudeDegrees>
            </Position>
            <AltitudeMeters>1615.4000244140625</AltitudeMeters>
            <DistanceMeters>NAN</DistanceMeters>
          </Trackpoint>
          <Trackpoint>
            <Time>2018-12-30T10:56:58.000Z</Time>
            <Position>
              <LatitudeDegrees>40.78503526747226715087890625</LatitudeDegrees>
              <LongitudeDegrees>-4.0677568875253200531005859375</LongitudeDegrees>
            </Position>
            <AltitudeMeters>1615.5999755859375</AltitudeMeters>
            <DistanceMeters>NAN</DistanceMeters>
          </Trackpoint>
          <Trackpoint>
            <Time>2018-12-30T10:56:59.000Z</Time>
            <Position>
              <LatitudeDegrees>40.7850505225360393524169921875</LatitudeDegrees>
              <LongitudeDegrees>-4.06775713898241519927978515625</LongitudeDegrees>
            </Position>
            <AltitudeMeters>1615.5999755859375</AltitudeMeters>
            <DistanceMeters>NAN</DistanceMeters>
          </Trackpoint>
          <Trackpoint>
            <Time>2018-12-30T10:57:00.000Z</Time>
            <Position>
              <LatitudeDegrees>40.78506301157176494598388671875</LatitudeDegrees>
              <LongitudeDegrees>-4.0677531994879245758056640625</LongitudeDegrees>
            </Position>
            <AltitudeMeters>1615.5999755859375</AltitudeMeters>
            <DistanceMeters>NAN</DistanceMeters>
          </Trackpoint>
          <Trackpoint>
            <Time>2018-12-30T10:57:01.000Z</Time>
            <Position>
              <LatitudeDegrees>40.7850761711597442626953125</LatitudeDegrees>
              <LongitudeDegrees>-4.06774808652698993682861328125</LongitudeDegrees>
            </Position>
            <AltitudeMeters>1615.5999755859375</AltitudeMeters>
            <DistanceMeters>NAN</DistanceMeters>
          </Trackpoint>
          <Trackpoint>
            <Time>2018-12-30T10:57:02.000Z</Time>
            <Position>
              <LatitudeDegrees>40.78508555889129638671875</LatitudeDegrees>
              <LongitudeDegrees>-4.06774104572832584381103515625</LongitudeDegrees>
            </Position>
            <AltitudeMeters>1615.800048828125</AltitudeMeters>
            <DistanceMeters>NAN</DistanceMeters>
          </Trackpoint>
          <Trackpoint>
            <Time>2018-12-30T10:57:03.000Z</Time>
            <Position>
              <LatitudeDegrees>40.7850927673280239105224609375</LatitudeDegrees>
              <LongitudeDegrees>-4.06773635186254978179931640625</LongitudeDegrees>
            </Position>
            <AltitudeMeters>1616</AltitudeMeters>
            <DistanceMeters>NAN</DistanceMeters>
          </Trackpoint>
          <Trackpoint>
            <Time>2018-12-30T10:57:04.000Z</Time>
            <Position>
              <LatitudeDegrees>40.78510156832635402679443359375</LatitudeDegrees>
              <LongitudeDegrees>-4.0677354298532009124755859375</LongitudeDegrees>
            </Position>
            <AltitudeMeters>1616</AltitudeMeters>
            <DistanceMeters>NAN</DistanceMeters>
          </Trackpoint>
          <Trackpoint>
            <Time>2018-12-30T10:57:05.000Z</Time>
            <Position>
              <LatitudeDegrees>40.78511246480047702789306640625</LatitudeDegrees>
              <LongitudeDegrees>-4.0677334181964397430419921875</LongitudeDegrees>
            </Position>
            <AltitudeMeters>1616</AltitudeMeters>
            <DistanceMeters>NAN</DistanceMeters>
          </Trackpoint>
          <Trackpoint>
            <Time>2018-12-30T10:57:06.000Z</Time>
            <Position>
              <LatitudeDegrees>40.78512218780815601348876953125</LatitudeDegrees>
              <LongitudeDegrees>-4.0677354298532009124755859375</LongitudeDegrees>
            </Position>
            <AltitudeMeters>1616.199951171875</AltitudeMeters>
            <DistanceMeters>NAN</DistanceMeters>
          </Trackpoint>
          <Trackpoint>
            <Time>2018-12-30T10:57:07.000Z</Time>
            <Position>
              <LatitudeDegrees>40.78513895161449909210205078125</LatitudeDegrees>
              <LongitudeDegrees>-4.0677371062338352203369140625</LongitudeDegrees>
            </Position>
            <AltitudeMeters>1616.199951171875</AltitudeMeters>
            <DistanceMeters>NAN</DistanceMeters>
          </Trackpoint>
          <Trackpoint>
            <Time>2018-12-30T10:57:08.000Z</Time>
            <Position>
              <LatitudeDegrees>40.78514951281249523162841796875</LatitudeDegrees>
              <LongitudeDegrees>-4.06773417256772518157958984375</LongitudeDegrees>
            </Position>
            <AltitudeMeters>1616.199951171875</AltitudeMeters>
            <DistanceMeters>NAN</DistanceMeters>
          </Trackpoint>
          <Trackpoint>
            <Time>2018-12-30T10:57:09.000Z</Time>
            <Position>
              <LatitudeDegrees>40.7851789332926273345947265625</LatitudeDegrees>
              <LongitudeDegrees>-4.06773316673934459686279296875</LongitudeDegrees>
            </Position>
            <AltitudeMeters>1616.199951171875</AltitudeMeters>
            <DistanceMeters>NAN</DistanceMeters>
          </Trackpoint>
          <Trackpoint>
            <Time>2018-12-30T10:57:10.000Z</Time>
            <Position>
              <LatitudeDegrees>40.785186477005481719970703125</LatitudeDegrees>
              <LongitudeDegrees>-4.06773283146321773529052734375</LongitudeDegrees>
            </Position>
            <AltitudeMeters>1616.199951171875</AltitudeMeters>
            <DistanceMeters>NAN</DistanceMeters>
          </Trackpoint>
          <Trackpoint>
            <Time>2018-12-30T10:57:11.000Z</Time>
            <Position>
              <LatitudeDegrees>40.785186477005481719970703125</LatitudeDegrees>
              <LongitudeDegrees>-4.06773283146321773529052734375</LongitudeDegrees>
            </Position>
            <AltitudeMeters>1616.4000244140625</AltitudeMeters>
            <DistanceMeters>NAN</DistanceMeters>
          </Trackpoint>
          <Trackpoint>
            <Time>2018-12-30T10:57:12.000Z</Time>
            <Position>
              <LatitudeDegrees>40.7851963676512241363525390625</LatitudeDegrees>
              <LongitudeDegrees>-4.06773962080478668212890625</LongitudeDegrees>
            </Position>
            <AltitudeMeters>1616.4000244140625</AltitudeMeters>
            <DistanceMeters>NAN</DistanceMeters>
          </Trackpoint>
          <Trackpoint>
            <Time>2018-12-30T10:57:13.000Z</Time>
            <Position>
              <LatitudeDegrees>40.78520416282117366790771484375</LatitudeDegrees>
              <LongitudeDegrees>-4.0677414648234844207763671875</LongitudeDegrees>
            </Position>
            <AltitudeMeters>1616.4000244140625</AltitudeMeters>
            <DistanceMeters>NAN</DistanceMeters>
          </Trackpoint>
          <Trackpoint>
            <Time>2018-12-30T10:57:14.000Z</Time>
            <Position>
              <LatitudeDegrees>40.78521187417209148406982421875</LatitudeDegrees>
              <LongitudeDegrees>-4.0677421353757381439208984375</LongitudeDegrees>
            </Position>
            <AltitudeMeters>1616.4000244140625</AltitudeMeters>
            <DistanceMeters>NAN</DistanceMeters>
          </Trackpoint>
          <Trackpoint>
            <Time>2018-12-30T10:57:15.000Z</Time>
            <Position>
              <LatitudeDegrees>40.78522168099880218505859375</LatitudeDegrees>
              <LongitudeDegrees>-4.06774171628057956695556640625</LongitudeDegrees>
            </Position>
            <AltitudeMeters>1616.4000244140625</AltitudeMeters>
            <DistanceMeters>NAN</DistanceMeters>
          </Trackpoint>
          <Trackpoint>
            <Time>2018-12-30T10:57:16.000Z</Time>
            <Position>
              <LatitudeDegrees>40.78522964380681514739990234375</LatitudeDegrees>
              <LongitudeDegrees>-4.067736603319644927978515625</LongitudeDegrees>
            </Position>
            <AltitudeMeters>1616.4000244140625</AltitudeMeters>
            <DistanceMeters>NAN</DistanceMeters>
          </Trackpoint>
          <Trackpoint>
            <Time>2018-12-30T10:57:17.000Z</Time>
            <Position>
              <LatitudeDegrees>40.78523651696741580963134765625</LatitudeDegrees>
              <LongitudeDegrees>-4.06773802824318408966064453125</LongitudeDegrees>
            </Position>
            <AltitudeMeters>1616.4000244140625</AltitudeMeters>
            <DistanceMeters>NAN</DistanceMeters>
          </Trackpoint>
          <Trackpoint>
            <Time>2018-12-30T10:57:18.000Z</Time>
            <Position>
              <LatitudeDegrees>40.7852409593760967254638671875</LatitudeDegrees>
              <LongitudeDegrees>-4.06773869879543781280517578125</LongitudeDegrees>
            </Position>
            <AltitudeMeters>1616.4000244140625</AltitudeMeters>
            <DistanceMeters>NAN</DistanceMeters>
          </Trackpoint>
          <Trackpoint>
            <Time>2018-12-30T10:57:19.000Z</Time>
            <Position>
              <LatitudeDegrees>40.785246156156063079833984375</LatitudeDegrees>
              <LongitudeDegrees>-4.067737944424152374267578125</LongitudeDegrees>
            </Position>
            <AltitudeMeters>1616.5999755859375</AltitudeMeters>
            <DistanceMeters>NAN</DistanceMeters>
          </Trackpoint>
          <Trackpoint>
            <Time>2018-12-30T10:57:20.000Z</Time>
            <Position>
              <LatitudeDegrees>40.7852516882121562957763671875</LatitudeDegrees>
              <LongitudeDegrees>-4.0677307359874248504638671875</LongitudeDegrees>
            </Position>
            <AltitudeMeters>1616.4000244140625</AltitudeMeters>
            <DistanceMeters>NAN</DistanceMeters>
          </Trackpoint>
          <Trackpoint>
            <Time>2018-12-30T10:57:21.000Z</Time>
            <Position>
              <LatitudeDegrees>40.78526216559112071990966796875</LatitudeDegrees>
              <LongitudeDegrees>-4.0677236951887607574462890625</LongitudeDegrees>
            </Position>
            <AltitudeMeters>1616.4000244140625</AltitudeMeters>
            <DistanceMeters>NAN</DistanceMeters>
          </Trackpoint>
          <Trackpoint>
            <Time>2018-12-30T10:57:22.000Z</Time>
            <Position>
              <LatitudeDegrees>40.78527306206524372100830078125</LatitudeDegrees>
              <LongitudeDegrees>-4.06772428192198276519775390625</LongitudeDegrees>
            </Position>
            <AltitudeMeters>1616.5999755859375</AltitudeMeters>
            <DistanceMeters>NAN</DistanceMeters>
          </Trackpoint>
          <Trackpoint>
            <Time>2018-12-30T10:57:23.000Z</Time>
            <Position>
              <LatitudeDegrees>40.7852865569293498992919921875</LatitudeDegrees>
              <LongitudeDegrees>-4.0677243657410144805908203125</LongitudeDegrees>
            </Position>
            <AltitudeMeters>1616.800048828125</AltitudeMeters>
            <DistanceMeters>NAN</DistanceMeters>
          </Trackpoint>
          <Trackpoint>
            <Time>2018-12-30T10:57:24.000Z</Time>
            <Position>
              <LatitudeDegrees>40.7852907478809356689453125</LatitudeDegrees>
              <LongitudeDegrees>-4.0677200071513652801513671875</LongitudeDegrees>
            </Position>
            <AltitudeMeters>1617</AltitudeMeters>
            <DistanceMeters>NAN</DistanceMeters>
          </Trackpoint>
          <Trackpoint>
            <Time>2018-12-30T10:57:25.000Z</Time>
            <Position>
              <LatitudeDegrees>40.78529812395572662353515625</LatitudeDegrees>
              <LongitudeDegrees>-4.06771539710462093353271484375</LongitudeDegrees>
            </Position>
            <AltitudeMeters>1617.199951171875</AltitudeMeters>
            <DistanceMeters>NAN</DistanceMeters>
          </Trackpoint>
          <Trackpoint>
            <Time>2018-12-30T10:57:26.000Z</Time>
            <Position>
              <LatitudeDegrees>40.78530843369662761688232421875</LatitudeDegrees>
              <LongitudeDegrees>-4.067709445953369140625</LongitudeDegrees>
            </Position>
            <AltitudeMeters>1617.199951171875</AltitudeMeters>
            <DistanceMeters>NAN</DistanceMeters>
          </Trackpoint>
          <Trackpoint>
            <Time>2018-12-30T10:57:27.000Z</Time>
            <Position>
              <LatitudeDegrees>40.7853214256465435028076171875</LatitudeDegrees>
              <LongitudeDegrees>-4.067705757915973663330078125</LongitudeDegrees>
            </Position>
            <AltitudeMeters>1617.199951171875</AltitudeMeters>
            <DistanceMeters>NAN</DistanceMeters>
          </Trackpoint>
          <Trackpoint>
            <Time>2018-12-30T10:57:28.000Z</Time>
            <Position>
              <LatitudeDegrees>40.785331316292285919189453125</LatitudeDegrees>
              <LongitudeDegrees>-4.0676946938037872314453125</LongitudeDegrees>
            </Position>
            <AltitudeMeters>1617.4000244140625</AltitudeMeters>
            <DistanceMeters>NAN</DistanceMeters>
          </Trackpoint>
          <Trackpoint>
            <Time>2018-12-30T10:57:29.000Z</Time>
            <Position>
              <LatitudeDegrees>40.785342045128345489501953125</LatitudeDegrees>
              <LongitudeDegrees>-4.0676878206431865692138671875</LongitudeDegrees>
            </Position>
            <AltitudeMeters>1617.4000244140625</AltitudeMeters>
            <DistanceMeters>NAN</DistanceMeters>
          </Trackpoint>
          <Trackpoint>
            <Time>2018-12-30T10:57:30.000Z</Time>
            <Position>
              <LatitudeDegrees>40.78535252250730991363525390625</LatitudeDegrees>
              <LongitudeDegrees>-4.06768136657774448394775390625</LongitudeDegrees>
            </Position>
            <AltitudeMeters>1617.5999755859375</AltitudeMeters>
            <DistanceMeters>NAN</DistanceMeters>
          </Trackpoint>
          <Trackpoint>
            <Time>2018-12-30T10:57:31.000Z</Time>
            <Position>
              <LatitudeDegrees>40.7853658497333526611328125</LatitudeDegrees>
              <LongitudeDegrees>-4.06768119893968105316162109375</LongitudeDegrees>
            </Position>
            <AltitudeMeters>1617.5999755859375</AltitudeMeters>
            <DistanceMeters>NAN</DistanceMeters>
          </Trackpoint>
          <Trackpoint>
            <Time>2018-12-30T10:57:32.000Z</Time>
            <Position>
              <LatitudeDegrees>40.7853807695209980010986328125</LatitudeDegrees>
              <LongitudeDegrees>-4.0676854737102985382080078125</LongitudeDegrees>
            </Position>
            <AltitudeMeters>1617.800048828125</AltitudeMeters>
            <DistanceMeters>NAN</DistanceMeters>
          </Trackpoint>
          <Trackpoint>
            <Time>2018-12-30T10:57:33.000Z</Time>
            <Position>
              <LatitudeDegrees>40.78539895825088024139404296875</LatitudeDegrees>
              <LongitudeDegrees>-4.0676905028522014617919921875</LongitudeDegrees>
            </Position>
            <AltitudeMeters>1618</AltitudeMeters>
            <DistanceMeters>NAN</DistanceMeters>
          </Trackpoint>
          <Trackpoint>
            <Time>2018-12-30T10:57:34.000Z</Time>
            <Position>
              <LatitudeDegrees>40.7854139618575572967529296875</LatitudeDegrees>
              <LongitudeDegrees>-4.067693687975406646728515625</LongitudeDegrees>
            </Position>
            <AltitudeMeters>1618.199951171875</AltitudeMeters>
            <DistanceMeters>NAN</DistanceMeters>
          </Trackpoint>
          <Trackpoint>
            <Time>2018-12-30T10:57:35.000Z</Time>
            <Position>
              <LatitudeDegrees>40.78542142175137996673583984375</LatitudeDegrees>
              <LongitudeDegrees>-4.067688994109630584716796875</LongitudeDegrees>
            </Position>
            <AltitudeMeters>1618.4000244140625</AltitudeMeters>
            <DistanceMeters>NAN</DistanceMeters>
          </Trackpoint>
          <Trackpoint>
            <Time>2018-12-30T10:57:36.000Z</Time>
            <Position>
              <LatitudeDegrees>40.785426534712314605712890625</LatitudeDegrees>
              <LongitudeDegrees>-4.0676754154264926910400390625</LongitudeDegrees>
            </Position>
            <AltitudeMeters>1618.4000244140625</AltitudeMeters>
            <DistanceMeters>NAN</DistanceMeters>
          </Trackpoint>
          <Trackpoint>
            <Time>2018-12-30T10:57:37.000Z</Time>
            <Position>
              <LatitudeDegrees>40.78543148003518581390380859375</LatitudeDegrees>
              <LongitudeDegrees>-4.0676599927246570587158203125</LongitudeDegrees>
            </Position>
            <AltitudeMeters>1618.5999755859375</AltitudeMeters>
            <DistanceMeters>NAN</DistanceMeters>
          </Trackpoint>
          <Trackpoint>
            <Time>2018-12-30T10:57:38.000Z</Time>
            <Position>
              <LatitudeDegrees>40.78543432988226413726806640625</LatitudeDegrees>
              <LongitudeDegrees>-4.06763945706188678741455078125</LongitudeDegrees>
            </Position>
            <AltitudeMeters>1618.5999755859375</AltitudeMeters>
            <DistanceMeters>NAN</DistanceMeters>
          </Trackpoint>
          <Trackpoint>
            <Time>2018-12-30T10:57:39.000Z</Time>
            <Position>
              <LatitudeDegrees>40.78543768264353275299072265625</LatitudeDegrees>
              <LongitudeDegrees>-4.067626297473907470703125</LongitudeDegrees>
            </Position>
            <AltitudeMeters>1618.5999755859375</AltitudeMeters>
            <DistanceMeters>NAN</DistanceMeters>
          </Trackpoint>
          <Trackpoint>
            <Time>2018-12-30T10:57:40.000Z</Time>
            <Position>
              <LatitudeDegrees>40.7854434661567211151123046875</LatitudeDegrees>
              <LongitudeDegrees>-4.06761481426656246185302734375</LongitudeDegrees>
            </Position>
            <AltitudeMeters>1618.800048828125</AltitudeMeters>
            <DistanceMeters>NAN</DistanceMeters>
          </Trackpoint>
          <Trackpoint>
            <Time>2018-12-30T10:57:41.000Z</Time>
            <Position>
              <LatitudeDegrees>40.78544857911765575408935546875</LatitudeDegrees>
              <LongitudeDegrees>-4.06760274432599544525146484375</LongitudeDegrees>
            </Position>
            <AltitudeMeters>1618.800048828125</AltitudeMeters>
            <DistanceMeters>NAN</DistanceMeters>
          </Trackpoint>
          <Trackpoint>
            <Time>2018-12-30T10:57:42.000Z</Time>
            <Position>
              <LatitudeDegrees>40.785454027354717254638671875</LatitudeDegrees>
              <LongitudeDegrees>-4.0675939433276653289794921875</LongitudeDegrees>
            </Position>
            <AltitudeMeters>1618.800048828125</AltitudeMeters>
            <DistanceMeters>NAN</DistanceMeters>
          </Trackpoint>
          <Trackpoint>
            <Time>2018-12-30T10:57:43.000Z</Time>
            <Position>
              <LatitudeDegrees>40.7854598946869373321533203125</LatitudeDegrees>
              <LongitudeDegrees>-4.06758346594870090484619140625</LongitudeDegrees>
            </Position>
            <AltitudeMeters>1619</AltitudeMeters>
            <DistanceMeters>NAN</DistanceMeters>
          </Trackpoint>
          <Trackpoint>
            <Time>2018-12-30T10:57:44.000Z</Time>
            <Position>
              <LatitudeDegrees>40.78547246754169464111328125</LatitudeDegrees>
              <LongitudeDegrees>-4.06758363358676433563232421875</LongitudeDegrees>
            </Position>
            <AltitudeMeters>1619.199951171875</AltitudeMeters>
            <DistanceMeters>NAN</DistanceMeters>
          </Trackpoint>
          <Trackpoint>
            <Time>2018-12-30T10:57:45.000Z</Time>
            <Position>
              <LatitudeDegrees>40.7854811847209930419921875</LatitudeDegrees>
              <LongitudeDegrees>-4.06758380122482776641845703125</LongitudeDegrees>
            </Position>
            <AltitudeMeters>1619.4000244140625</AltitudeMeters>
            <DistanceMeters>NAN</DistanceMeters>
          </Trackpoint>
          <Trackpoint>
            <Time>2018-12-30T10:57:46.000Z</Time>
            <Position>
              <LatitudeDegrees>40.785486884415149688720703125</LatitudeDegrees>
              <LongitudeDegrees>-4.06758095137774944305419921875</LongitudeDegrees>
            </Position>
            <AltitudeMeters>1619.5999755859375</AltitudeMeters>
            <DistanceMeters>NAN</DistanceMeters>
          </Trackpoint>
          <Trackpoint>
            <Time>2018-12-30T10:57:47.000Z</Time>
            <Position>
              <LatitudeDegrees>40.78548897989094257354736328125</LatitudeDegrees>
              <LongitudeDegrees>-4.06757064163684844970703125</LongitudeDegrees>
            </Position>
            <AltitudeMeters>1619.5999755859375</AltitudeMeters>
            <DistanceMeters>NAN</DistanceMeters>
          </Trackpoint>
          <Trackpoint>
            <Time>2018-12-30T10:57:48.000Z</Time>
            <Position>
              <LatitudeDegrees>40.7854924164712429046630859375</LatitudeDegrees>
              <LongitudeDegrees>-4.06755588948726654052734375</LongitudeDegrees>
            </Position>
            <AltitudeMeters>1619.5999755859375</AltitudeMeters>
            <DistanceMeters>NAN</DistanceMeters>
          </Trackpoint>
          <Trackpoint>
            <Time>2018-12-30T10:57:49.000Z</Time>
            <Position>
              <LatitudeDegrees>40.78549903817474842071533203125</LatitudeDegrees>
              <LongitudeDegrees>-4.0675449930131435394287109375</LongitudeDegrees>
            </Position>
            <AltitudeMeters>1619.800048828125</AltitudeMeters>
            <DistanceMeters>NAN</DistanceMeters>
          </Trackpoint>
          <Trackpoint>
            <Time>2018-12-30T10:57:50.000Z</Time>
            <Position>
              <LatitudeDegrees>40.78550691716372966766357421875</LatitudeDegrees>
              <LongitudeDegrees>-4.06753468327224254608154296875</LongitudeDegrees>
            </Position>
            <AltitudeMeters>1619.800048828125</AltitudeMeters>
            <DistanceMeters>NAN</DistanceMeters>
          </Trackpoint>
          <Trackpoint>
            <Time>2018-12-30T10:57:51.000Z</Time>
            <Position>
              <LatitudeDegrees>40.78551596961915493011474609375</LatitudeDegrees>
              <LongitudeDegrees>-4.06753032468259334564208984375</LongitudeDegrees>
            </Position>
            <AltitudeMeters>1620</AltitudeMeters>
            <DistanceMeters>NAN</DistanceMeters>
          </Trackpoint>
          <Trackpoint>
            <Time>2018-12-30T10:57:52.000Z</Time>
            <Position>
              <LatitudeDegrees>40.78552653081715106964111328125</LatitudeDegrees>
              <LongitudeDegrees>-4.0675282292068004608154296875</LongitudeDegrees>
            </Position>
            <AltitudeMeters>1619.800048828125</AltitudeMeters>
            <DistanceMeters>NAN</DistanceMeters>
          </Trackpoint>
          <Trackpoint>
            <Time>2018-12-30T10:57:53.000Z</Time>
            <Position>
              <LatitudeDegrees>40.7855346612632274627685546875</LatitudeDegrees>
              <LongitudeDegrees>-4.0675228647887706756591796875</LongitudeDegrees>
            </Position>
            <AltitudeMeters>1620</AltitudeMeters>
            <DistanceMeters>NAN</DistanceMeters>
          </Trackpoint>
          <Trackpoint>
            <Time>2018-12-30T10:57:54.000Z</Time>
            <Position>
              <LatitudeDegrees>40.78554145060479640960693359375</LatitudeDegrees>
              <LongitudeDegrees>-4.06751741655170917510986328125</LongitudeDegrees>
            </Position>
            <AltitudeMeters>1620.199951171875</AltitudeMeters>
            <DistanceMeters>NAN</DistanceMeters>
          </Trackpoint>
          <Trackpoint>
            <Time>2018-12-30T10:57:55.000Z</Time>
            <Position>
              <LatitudeDegrees>40.7855457253754138946533203125</LatitudeDegrees>
              <LongitudeDegrees>-4.0675042569637298583984375</LongitudeDegrees>
            </Position>
            <AltitudeMeters>1620.199951171875</AltitudeMeters>
            <DistanceMeters>NAN</DistanceMeters>
          </Trackpoint>
          <Trackpoint>
            <Time>2018-12-30T10:57:56.000Z</Time>
            <Position>
              <LatitudeDegrees>40.78555251471698284149169921875</LatitudeDegrees>
              <LongitudeDegrees>-4.067494869232177734375</LongitudeDegrees>
            </Position>
            <AltitudeMeters>1620.199951171875</AltitudeMeters>
            <DistanceMeters>NAN</DistanceMeters>
          </Trackpoint>
          <Trackpoint>
            <Time>2018-12-30T10:57:57.000Z</Time>
            <Position>
              <LatitudeDegrees>40.7855614833533763885498046875</LatitudeDegrees>
              <LongitudeDegrees>-4.067487828433513641357421875</LongitudeDegrees>
            </Position>
            <AltitudeMeters>1620.4000244140625</AltitudeMeters>
            <DistanceMeters>NAN</DistanceMeters>
          </Trackpoint>
          <Trackpoint>
            <Time>2018-12-30T10:57:58.000Z</Time>
            <Position>
              <LatitudeDegrees>40.78556793741881847381591796875</LatitudeDegrees>
              <LongitudeDegrees>-4.06747433356940746307373046875</LongitudeDegrees>
            </Position>
            <AltitudeMeters>1620.4000244140625</AltitudeMeters>
            <DistanceMeters>NAN</DistanceMeters>
          </Trackpoint>
          <Trackpoint>
            <Time>2018-12-30T10:57:59.000Z</Time>
            <Position>
              <LatitudeDegrees>40.7855775766074657440185546875</LatitudeDegrees>
              <LongitudeDegrees>-4.06747139990329742431640625</LongitudeDegrees>
            </Position>
            <AltitudeMeters>1620.5999755859375</AltitudeMeters>
            <DistanceMeters>NAN</DistanceMeters>
          </Trackpoint>
          <Trackpoint>
            <Time>2018-12-30T10:58:00.000Z</Time>
            <Position>
              <LatitudeDegrees>40.78558553941547870635986328125</LatitudeDegrees>
              <LongitudeDegrees>-4.0674702264368534088134765625</LongitudeDegrees>
            </Position>
            <AltitudeMeters>1620.5999755859375</AltitudeMeters>
            <DistanceMeters>NAN</DistanceMeters>
          </Trackpoint>
          <Trackpoint>
            <Time>2018-12-30T10:58:01.000Z</Time>
            <Position>
              <LatitudeDegrees>40.78559308312833309173583984375</LatitudeDegrees>
              <LongitudeDegrees>-4.0674665383994579315185546875</LongitudeDegrees>
            </Position>
            <AltitudeMeters>1620.800048828125</AltitudeMeters>
            <DistanceMeters>NAN</DistanceMeters>
          </Trackpoint>
          <Trackpoint>
            <Time>2018-12-30T10:58:02.000Z</Time>
            <Position>
              <LatitudeDegrees>40.78559978865087032318115234375</LatitudeDegrees>
              <LongitudeDegrees>-4.06746293418109416961669921875</LongitudeDegrees>
            </Position>
            <AltitudeMeters>1620.800048828125</AltitudeMeters>
            <DistanceMeters>NAN</DistanceMeters>
          </Trackpoint>
          <Trackpoint>
            <Time>2018-12-30T10:58:03.000Z</Time>
            <Position>
              <LatitudeDegrees>40.7856057398021221160888671875</LatitudeDegrees>
              <LongitudeDegrees>-4.06745807267725467681884765625</LongitudeDegrees>
            </Position>
            <AltitudeMeters>1621</AltitudeMeters>
            <DistanceMeters>NAN</DistanceMeters>
          </Trackpoint>
          <Trackpoint>
            <Time>2018-12-30T10:58:04.000Z</Time>
            <Position>
              <LatitudeDegrees>40.7856126129627227783203125</LatitudeDegrees>
              <LongitudeDegrees>-4.067449606955051422119140625</LongitudeDegrees>
            </Position>
            <AltitudeMeters>1621.199951171875</AltitudeMeters>
            <DistanceMeters>NAN</DistanceMeters>
          </Trackpoint>
          <Trackpoint>
            <Time>2018-12-30T10:58:05.000Z</Time>
            <Position>
              <LatitudeDegrees>40.7856184802949428558349609375</LatitudeDegrees>
              <LongitudeDegrees>-4.0674390457570552825927734375</LongitudeDegrees>
            </Position>
            <AltitudeMeters>1621.4000244140625</AltitudeMeters>
            <DistanceMeters>NAN</DistanceMeters>
          </Trackpoint>
          <Trackpoint>
            <Time>2018-12-30T10:58:06.000Z</Time>
            <Position>
              <LatitudeDegrees>40.7856273651123046875</LatitudeDegrees>
              <LongitudeDegrees>-4.0674286521971225738525390625</LongitudeDegrees>
            </Position>
            <AltitudeMeters>1621.4000244140625</AltitudeMeters>
            <DistanceMeters>NAN</DistanceMeters>
          </Trackpoint>
          <Trackpoint>
            <Time>2018-12-30T10:58:07.000Z</Time>
            <Position>
              <LatitudeDegrees>40.78564253635704517364501953125</LatitudeDegrees>
              <LongitudeDegrees>-4.0674269758164882659912109375</LongitudeDegrees>
            </Position>
            <AltitudeMeters>1621.5999755859375</AltitudeMeters>
            <DistanceMeters>NAN</DistanceMeters>
          </Trackpoint>
          <Trackpoint>
            <Time>2018-12-30T10:58:08.000Z</Time>
            <Position>
              <LatitudeDegrees>40.78565795905888080596923828125</LatitudeDegrees>
              <LongitudeDegrees>-4.06742521561682224273681640625</LongitudeDegrees>
            </Position>
            <AltitudeMeters>1621.800048828125</AltitudeMeters>
            <DistanceMeters>NAN</DistanceMeters>
          </Trackpoint>
          <Trackpoint>
            <Time>2018-12-30T10:58:09.000Z</Time>
            <Position>
              <LatitudeDegrees>40.78566986136138439178466796875</LatitudeDegrees>
              <LongitudeDegrees>-4.06742052175104618072509765625</LongitudeDegrees>
            </Position>
            <AltitudeMeters>1622</AltitudeMeters>
            <DistanceMeters>NAN</DistanceMeters>
          </Trackpoint>
          <Trackpoint>
            <Time>2018-12-30T10:58:10.000Z</Time>
            <Position>
              <LatitudeDegrees>40.785680003464221954345703125</LatitudeDegrees>
              <LongitudeDegrees>-4.06741549260914325714111328125</LongitudeDegrees>
            </Position>
            <AltitudeMeters>1622.199951171875</AltitudeMeters>
            <DistanceMeters>NAN</DistanceMeters>
          </Trackpoint>
          <Trackpoint>
            <Time>2018-12-30T10:58:11.000Z</Time>
            <Position>
              <LatitudeDegrees>40.7856930792331695556640625</LatitudeDegrees>
              <LongitudeDegrees>-4.06741264276206493377685546875</LongitudeDegrees>
            </Position>
            <AltitudeMeters>1622.199951171875</AltitudeMeters>
            <DistanceMeters>NAN</DistanceMeters>
          </Trackpoint>
          <Trackpoint>
            <Time>2018-12-30T10:58:12.000Z</Time>
            <Position>
              <LatitudeDegrees>40.78570053912699222564697265625</LatitudeDegrees>
              <LongitudeDegrees>-4.067410044372081756591796875</LongitudeDegrees>
            </Position>
            <AltitudeMeters>1622.199951171875</AltitudeMeters>
            <DistanceMeters>NAN</DistanceMeters>
          </Trackpoint>
          <Trackpoint>
            <Time>2018-12-30T10:58:13.000Z</Time>
            <Position>
              <LatitudeDegrees>40.78570992685854434967041015625</LatitudeDegrees>
              <LongitudeDegrees>-4.0674071945250034332275390625</LongitudeDegrees>
            </Position>
            <AltitudeMeters>1622.199951171875</AltitudeMeters>
            <DistanceMeters>NAN</DistanceMeters>
          </Trackpoint>
          <Trackpoint>
            <Time>2018-12-30T10:58:14.000Z</Time>
            <Position>
              <LatitudeDegrees>40.7857193984091281890869140625</LatitudeDegrees>
              <LongitudeDegrees>-4.06740157864987850189208984375</LongitudeDegrees>
            </Position>
            <AltitudeMeters>1622.199951171875</AltitudeMeters>
            <DistanceMeters>NAN</DistanceMeters>
          </Trackpoint>
          <Trackpoint>
            <Time>2018-12-30T10:58:15.000Z</Time>
            <Position>
              <LatitudeDegrees>40.78572534956037998199462890625</LatitudeDegrees>
              <LongitudeDegrees>-4.06739286147058010101318359375</LongitudeDegrees>
            </Position>
            <AltitudeMeters>1622.4000244140625</AltitudeMeters>
            <DistanceMeters>NAN</DistanceMeters>
          </Trackpoint>
          <Trackpoint>
            <Time>2018-12-30T10:58:16.000Z</Time>
            <Position>
              <LatitudeDegrees>40.78572937287390232086181640625</LatitudeDegrees>
              <LongitudeDegrees>-4.0673843957483768463134765625</LongitudeDegrees>
            </Position>
            <AltitudeMeters>1622.5999755859375</AltitudeMeters>
            <DistanceMeters>NAN</DistanceMeters>
          </Trackpoint>
          <Trackpoint>
            <Time>2018-12-30T10:58:17.000Z</Time>
            <Position>
              <LatitudeDegrees>40.78572970815002918243408203125</LatitudeDegrees>
              <LongitudeDegrees>-4.06737207435071468353271484375</LongitudeDegrees>
            </Position>
            <AltitudeMeters>1622.5999755859375</AltitudeMeters>
            <DistanceMeters>NAN</DistanceMeters>
          </Trackpoint>
          <Trackpoint>
            <Time>2018-12-30T10:58:18.000Z</Time>
            <Position>
              <LatitudeDegrees>40.78573440201580524444580078125</LatitudeDegrees>
              <LongitudeDegrees>-4.06737123616039752960205078125</LongitudeDegrees>
            </Position>
            <AltitudeMeters>1622.5999755859375</AltitudeMeters>
            <DistanceMeters>NAN</DistanceMeters>
          </Trackpoint>
          <Trackpoint>
            <Time>2018-12-30T10:58:19.000Z</Time>
            <Position>
              <LatitudeDegrees>40.7857405208051204681396484375</LatitudeDegrees>
              <LongitudeDegrees>-4.06736821867525577545166015625</LongitudeDegrees>
            </Position>
            <AltitudeMeters>1622.800048828125</AltitudeMeters>
            <DistanceMeters>NAN</DistanceMeters>
          </Trackpoint>
          <Trackpoint>
            <Time>2018-12-30T10:58:20.000Z</Time>
            <Position>
              <LatitudeDegrees>40.7857448793947696685791015625</LatitudeDegrees>
              <LongitudeDegrees>-4.06735740602016448974609375</LongitudeDegrees>
            </Position>
            <AltitudeMeters>1623</AltitudeMeters>
            <DistanceMeters>NAN</DistanceMeters>
          </Trackpoint>
          <Trackpoint>
            <Time>2018-12-30T10:58:21.000Z</Time>
            <Position>
              <LatitudeDegrees>40.78574881888926029205322265625</LatitudeDegrees>
              <LongitudeDegrees>-4.06734676100313663482666015625</LongitudeDegrees>
            </Position>
            <AltitudeMeters>1623</AltitudeMeters>
            <DistanceMeters>NAN</DistanceMeters>
          </Trackpoint>
          <Trackpoint>
            <Time>2018-12-30T10:58:22.000Z</Time>
            <Position>
              <LatitudeDegrees>40.7857522554695606231689453125</LatitudeDegrees>
              <LongitudeDegrees>-4.06733502633869647979736328125</LongitudeDegrees>
            </Position>
            <AltitudeMeters>1623</AltitudeMeters>
            <DistanceMeters>NAN</DistanceMeters>
          </Trackpoint>
          <Trackpoint>
            <Time>2018-12-30T10:58:23.000Z</Time>
            <Position>
              <LatitudeDegrees>40.7857629843056201934814453125</LatitudeDegrees>
              <LongitudeDegrees>-4.0673317573964595794677734375</LongitudeDegrees>
            </Position>
            <AltitudeMeters>1623</AltitudeMeters>
            <DistanceMeters>NAN</DistanceMeters>
          </Trackpoint>
          <Trackpoint>
            <Time>2018-12-30T10:58:24.000Z</Time>
            <Position>
              <LatitudeDegrees>40.78577530570328235626220703125</LatitudeDegrees>
              <LongitudeDegrees>-4.0673273988068103790283203125</LongitudeDegrees>
            </Position>
            <AltitudeMeters>1623.199951171875</AltitudeMeters>
            <DistanceMeters>NAN</DistanceMeters>
          </Trackpoint>
          <Trackpoint>
            <Time>2018-12-30T10:58:25.000Z</Time>
            <Position>
              <LatitudeDegrees>40.7857815921306610107421875</LatitudeDegrees>
              <LongitudeDegrees>-4.06731784343719482421875</LongitudeDegrees>
            </Position>
            <AltitudeMeters>1623.199951171875</AltitudeMeters>
            <DistanceMeters>NAN</DistanceMeters>
          </Trackpoint>
          <Trackpoint>
            <Time>2018-12-30T10:58:26.000Z</Time>
            <Position>
              <LatitudeDegrees>40.78578754328191280364990234375</LatitudeDegrees>
              <LongitudeDegrees>-4.06730066053569316864013671875</LongitudeDegrees>
            </Position>
            <AltitudeMeters>1623.199951171875</AltitudeMeters>
            <DistanceMeters>NAN</DistanceMeters>
          </Trackpoint>
          <Trackpoint>
            <Time>2018-12-30T10:58:27.000Z</Time>
            <Position>
              <LatitudeDegrees>40.7857961766421794891357421875</LatitudeDegrees>
              <LongitudeDegrees>-4.067291356623172760009765625</LongitudeDegrees>
            </Position>
            <AltitudeMeters>1623.199951171875</AltitudeMeters>
            <DistanceMeters>NAN</DistanceMeters>
          </Trackpoint>
          <Trackpoint>
            <Time>2018-12-30T10:58:28.000Z</Time>
            <Position>
              <LatitudeDegrees>40.78580279834568500518798828125</LatitudeDegrees>
              <LongitudeDegrees>-4.06728272326290607452392578125</LongitudeDegrees>
            </Position>
            <AltitudeMeters>1623.4000244140625</AltitudeMeters>
            <DistanceMeters>NAN</DistanceMeters>
          </Trackpoint>
          <Trackpoint>
            <Time>2018-12-30T10:58:29.000Z</Time>
            <Position>
              <LatitudeDegrees>40.7858075760304927825927734375</LatitudeDegrees>
              <LongitudeDegrees>-4.06727425754070281982421875</LongitudeDegrees>
            </Position>
            <AltitudeMeters>1623.4000244140625</AltitudeMeters>
            <DistanceMeters>NAN</DistanceMeters>
          </Trackpoint>
          <Trackpoint>
            <Time>2018-12-30T10:58:30.000Z</Time>
            <Position>
              <LatitudeDegrees>40.7858132757246494293212890625</LatitudeDegrees>
              <LongitudeDegrees>-4.067265205085277557373046875</LongitudeDegrees>
            </Position>
            <AltitudeMeters>1623.5999755859375</AltitudeMeters>
            <DistanceMeters>NAN</DistanceMeters>
          </Trackpoint>
          <Trackpoint>
            <Time>2018-12-30T10:58:31.000Z</Time>
            <Position>
              <LatitudeDegrees>40.78581403009593486785888671875</LatitudeDegrees>
              <LongitudeDegrees>-4.06725422479212284088134765625</LongitudeDegrees>
            </Position>
            <AltitudeMeters>1623.5999755859375</AltitudeMeters>
            <DistanceMeters>NAN</DistanceMeters>
          </Trackpoint>
          <Trackpoint>
            <Time>2018-12-30T10:58:32.000Z</Time>
            <Position>
              <LatitudeDegrees>40.78581185080111026763916015625</LatitudeDegrees>
              <LongitudeDegrees>-4.0672425739467144012451171875</LongitudeDegrees>
            </Position>
            <AltitudeMeters>1623.800048828125</AltitudeMeters>
            <DistanceMeters>NAN</DistanceMeters>
          </Trackpoint>
          <Trackpoint>
            <Time>2018-12-30T10:58:33.000Z</Time>
            <Position>
              <LatitudeDegrees>40.78581302426755428314208984375</LatitudeDegrees>
              <LongitudeDegrees>-4.06723025254905223846435546875</LongitudeDegrees>
            </Position>
            <AltitudeMeters>1623.800048828125</AltitudeMeters>
            <DistanceMeters>NAN</DistanceMeters>
          </Trackpoint>
          <Trackpoint>
            <Time>2018-12-30T10:58:34.000Z</Time>
            <Position>
              <LatitudeDegrees>40.7858146168291568756103515625</LatitudeDegrees>
              <LongitudeDegrees>-4.06721700914204120635986328125</LongitudeDegrees>
            </Position>
            <AltitudeMeters>1623.800048828125</AltitudeMeters>
            <DistanceMeters>NAN</DistanceMeters>
          </Trackpoint>
          <Trackpoint>
            <Time>2018-12-30T10:58:35.000Z</Time>
            <Position>
              <LatitudeDegrees>40.78581620939075946807861328125</LatitudeDegrees>
              <LongitudeDegrees>-4.06720594502985477447509765625</LongitudeDegrees>
            </Position>
            <AltitudeMeters>1624</AltitudeMeters>
            <DistanceMeters>NAN</DistanceMeters>
          </Trackpoint>
          <Trackpoint>
            <Time>2018-12-30T10:58:36.000Z</Time>
            <Position>
              <LatitudeDegrees>40.78581855632364749908447265625</LatitudeDegrees>
              <LongitudeDegrees>-4.06719672493636608123779296875</LongitudeDegrees>
            </Position>
            <AltitudeMeters>1624</AltitudeMeters>
            <DistanceMeters>NAN</DistanceMeters>
          </Trackpoint>
          <Trackpoint>
            <Time>2018-12-30T10:58:37.000Z</Time>
            <Position>
              <LatitudeDegrees>40.7858250103890895843505859375</LatitudeDegrees>
              <LongitudeDegrees>-4.06719068996608257293701171875</LongitudeDegrees>
            </Position>
            <AltitudeMeters>1624.199951171875</AltitudeMeters>
            <DistanceMeters>NAN</DistanceMeters>
          </Trackpoint>
          <Trackpoint>
            <Time>2018-12-30T10:58:38.000Z</Time>
            <Position>
              <LatitudeDegrees>40.785835571587085723876953125</LatitudeDegrees>
              <LongitudeDegrees>-4.0671877562999725341796875</LongitudeDegrees>
            </Position>
            <AltitudeMeters>1624.4000244140625</AltitudeMeters>
            <DistanceMeters>NAN</DistanceMeters>
          </Trackpoint>
          <Trackpoint>
            <Time>2018-12-30T10:58:39.000Z</Time>
            <Position>
              <LatitudeDegrees>40.78584127128124237060546875</LatitudeDegrees>
              <LongitudeDegrees>-4.06717769801616668701171875</LongitudeDegrees>
            </Position>
            <AltitudeMeters>1624.5999755859375</AltitudeMeters>
            <DistanceMeters>NAN</DistanceMeters>
          </Trackpoint>
          <Trackpoint>
            <Time>2018-12-30T10:58:40.000Z</Time>
            <Position>
              <LatitudeDegrees>40.7858451269567012786865234375</LatitudeDegrees>
              <LongitudeDegrees>-4.0671689808368682861328125</LongitudeDegrees>
            </Position>
            <AltitudeMeters>1624.5999755859375</AltitudeMeters>
            <DistanceMeters>NAN</DistanceMeters>
          </Trackpoint>
          <Trackpoint>
            <Time>2018-12-30T10:58:41.000Z</Time>
            <Position>
              <LatitudeDegrees>40.7858498208224773406982421875</LatitudeDegrees>
              <LongitudeDegrees>-4.06716160476207733154296875</LongitudeDegrees>
            </Position>
            <AltitudeMeters>1624.800048828125</AltitudeMeters>
            <DistanceMeters>NAN</DistanceMeters>
          </Trackpoint>
          <Trackpoint>
            <Time>2018-12-30T10:58:42.000Z</Time>
            <Position>
              <LatitudeDegrees>40.7858541794121265411376953125</LatitudeDegrees>
              <LongitudeDegrees>-4.06715213321149349212646484375</LongitudeDegrees>
            </Position>
            <AltitudeMeters>1624.800048828125</AltitudeMeters>
            <DistanceMeters>NAN</DistanceMeters>
          </Trackpoint>
          <Trackpoint>
            <Time>2018-12-30T10:58:43.000Z</Time>
            <Position>
              <LatitudeDegrees>40.7858545146882534027099609375</LatitudeDegrees>
              <LongitudeDegrees>-4.06714123673737049102783203125</LongitudeDegrees>
            </Position>
            <AltitudeMeters>1624.800048828125</AltitudeMeters>
            <DistanceMeters>NAN</DistanceMeters>
          </Trackpoint>
          <Trackpoint>
            <Time>2018-12-30T10:58:44.000Z</Time>
            <Position>
              <LatitudeDegrees>40.7858575321733951568603515625</LatitudeDegrees>
              <LongitudeDegrees>-4.0671341121196746826171875</LongitudeDegrees>
            </Position>
            <AltitudeMeters>1624.800048828125</AltitudeMeters>
            <DistanceMeters>NAN</DistanceMeters>
          </Trackpoint>
          <Trackpoint>
            <Time>2018-12-30T10:58:45.000Z</Time>
            <Position>
              <LatitudeDegrees>40.7858632318675518035888671875</LatitudeDegrees>
              <LongitudeDegrees>-4.06712899915874004364013671875</LongitudeDegrees>
            </Position>
            <AltitudeMeters>1625</AltitudeMeters>
            <DistanceMeters>NAN</DistanceMeters>
          </Trackpoint>
          <Trackpoint>
            <Time>2018-12-30T10:58:46.000Z</Time>
            <Position>
              <LatitudeDegrees>40.78586876392364501953125</LatitudeDegrees>
              <LongitudeDegrees>-4.06712095253169536590576171875</LongitudeDegrees>
            </Position>
            <AltitudeMeters>1625.199951171875</AltitudeMeters>
            <DistanceMeters>NAN</DistanceMeters>
          </Trackpoint>
          <Trackpoint>
            <Time>2018-12-30T10:58:47.000Z</Time>
            <Position>
              <LatitudeDegrees>40.7858773134648799896240234375</LatitudeDegrees>
              <LongitudeDegrees>-4.06712195836007595062255859375</LongitudeDegrees>
            </Position>
            <AltitudeMeters>1625.4000244140625</AltitudeMeters>
            <DistanceMeters>NAN</DistanceMeters>
          </Trackpoint>
          <Trackpoint>
            <Time>2018-12-30T10:58:48.000Z</Time>
            <Position>
              <LatitudeDegrees>40.7858823426067829132080078125</LatitudeDegrees>
              <LongitudeDegrees>-4.06711466610431671142578125</LongitudeDegrees>
            </Position>
            <AltitudeMeters>1625.5999755859375</AltitudeMeters>
            <DistanceMeters>NAN</DistanceMeters>
          </Trackpoint>
          <Trackpoint>
            <Time>2018-12-30T10:58:49.000Z</Time>
            <Position>
              <LatitudeDegrees>40.78588510863482952117919921875</LatitudeDegrees>
              <LongitudeDegrees>-4.0671024285256862640380859375</LongitudeDegrees>
            </Position>
            <AltitudeMeters>1625.5999755859375</AltitudeMeters>
            <DistanceMeters>NAN</DistanceMeters>
          </Trackpoint>
          <Trackpoint>
            <Time>2018-12-30T10:58:50.000Z</Time>
            <Position>
              <LatitudeDegrees>40.7858920656144618988037109375</LatitudeDegrees>
              <LongitudeDegrees>-4.0670920349657535552978515625</LongitudeDegrees>
            </Position>
            <AltitudeMeters>1625.800048828125</AltitudeMeters>
            <DistanceMeters>NAN</DistanceMeters>
          </Trackpoint>
          <Trackpoint>
            <Time>2018-12-30T10:58:51.000Z</Time>
            <Position>
              <LatitudeDegrees>40.785898268222808837890625</LatitudeDegrees>
              <LongitudeDegrees>-4.067078791558742523193359375</LongitudeDegrees>
            </Position>
            <AltitudeMeters>1626</AltitudeMeters>
            <DistanceMeters>NAN</DistanceMeters>
          </Trackpoint>
          <Trackpoint>
            <Time>2018-12-30T10:58:52.000Z</Time>
            <Position>
              <LatitudeDegrees>40.7859041355550289154052734375</LatitudeDegrees>
              <LongitudeDegrees>-4.067073762416839599609375</LongitudeDegrees>
            </Position>
            <AltitudeMeters>1626</AltitudeMeters>
            <DistanceMeters>NAN</DistanceMeters>
          </Trackpoint>
          <Trackpoint>
            <Time>2018-12-30T10:58:53.000Z</Time>
            <Position>
              <LatitudeDegrees>40.78591226600110530853271484375</LatitudeDegrees>
              <LongitudeDegrees>-4.06706831417977809906005859375</LongitudeDegrees>
            </Position>
            <AltitudeMeters>1626.199951171875</AltitudeMeters>
            <DistanceMeters>NAN</DistanceMeters>
          </Trackpoint>
          <Trackpoint>
            <Time>2018-12-30T10:58:54.000Z</Time>
            <Position>
              <LatitudeDegrees>40.78592131845653057098388671875</LatitudeDegrees>
              <LongitudeDegrees>-4.06705540604889392852783203125</LongitudeDegrees>
            </Position>
            <AltitudeMeters>1626.199951171875</AltitudeMeters>
            <DistanceMeters>NAN</DistanceMeters>
          </Trackpoint>
          <Trackpoint>
            <Time>2018-12-30T10:58:55.000Z</Time>
            <Position>
              <LatitudeDegrees>40.7859302870929241180419921875</LatitudeDegrees>
              <LongitudeDegrees>-4.0670477785170078277587890625</LongitudeDegrees>
            </Position>
            <AltitudeMeters>1626.4000244140625</AltitudeMeters>
            <DistanceMeters>NAN</DistanceMeters>
          </Trackpoint>
          <Trackpoint>
            <Time>2018-12-30T10:58:56.000Z</Time>
            <Position>
              <LatitudeDegrees>40.7859460450708866119384765625</LatitudeDegrees>
              <LongitudeDegrees>-4.0670300088822841644287109375</LongitudeDegrees>
            </Position>
            <AltitudeMeters>1626.4000244140625</AltitudeMeters>
            <DistanceMeters>NAN</DistanceMeters>
          </Trackpoint>
          <Trackpoint>
            <Time>2018-12-30T10:58:57.000Z</Time>
            <Position>
              <LatitudeDegrees>40.7859460450708866119384765625</LatitudeDegrees>
              <LongitudeDegrees>-4.0670300088822841644287109375</LongitudeDegrees>
            </Position>
            <AltitudeMeters>1626.4000244140625</AltitudeMeters>
            <DistanceMeters>NAN</DistanceMeters>
          </Trackpoint>
          <Trackpoint>
            <Time>2018-12-30T10:58:58.000Z</Time>
            <Position>
              <LatitudeDegrees>40.785952918231487274169921875</LatitudeDegrees>
              <LongitudeDegrees>-4.06702187843620777130126953125</LongitudeDegrees>
            </Position>
            <AltitudeMeters>1626.5999755859375</AltitudeMeters>
            <DistanceMeters>NAN</DistanceMeters>
          </Trackpoint>
          <Trackpoint>
            <Time>2018-12-30T10:58:59.000Z</Time>
            <Position>
              <LatitudeDegrees>40.7859577797353267669677734375</LatitudeDegrees>
              <LongitudeDegrees>-4.0670134127140045166015625</LongitudeDegrees>
            </Position>
            <AltitudeMeters>1626.5999755859375</AltitudeMeters>
            <DistanceMeters>NAN</DistanceMeters>
          </Trackpoint>
          <Trackpoint>
            <Time>2018-12-30T10:59:00.000Z</Time>
            <Position>
              <LatitudeDegrees>40.7859631441533565521240234375</LatitudeDegrees>
              <LongitudeDegrees>-4.0670058690011501312255859375</LongitudeDegrees>
            </Position>
            <AltitudeMeters>1626.5999755859375</AltitudeMeters>
            <DistanceMeters>NAN</DistanceMeters>
          </Trackpoint>
          <Trackpoint>
            <Time>2018-12-30T10:59:01.000Z</Time>
            <Position>
              <LatitudeDegrees>40.78597043640911579132080078125</LatitudeDegrees>
              <LongitudeDegrees>-4.06699522398412227630615234375</LongitudeDegrees>
            </Position>
            <AltitudeMeters>1626.800048828125</AltitudeMeters>
            <DistanceMeters>NAN</DistanceMeters>
          </Trackpoint>
          <Trackpoint>
            <Time>2018-12-30T10:59:02.000Z</Time>
            <Position>
              <LatitudeDegrees>40.78597479499876499176025390625</LatitudeDegrees>
              <LongitudeDegrees>-4.06698323786258697509765625</LongitudeDegrees>
            </Position>
            <AltitudeMeters>1626.800048828125</AltitudeMeters>
            <DistanceMeters>NAN</DistanceMeters>
          </Trackpoint>
          <Trackpoint>
            <Time>2018-12-30T10:59:03.000Z</Time>
            <Position>
              <LatitudeDegrees>40.78597982414066791534423828125</LatitudeDegrees>
              <LongitudeDegrees>-4.06697250902652740478515625</LongitudeDegrees>
            </Position>
            <AltitudeMeters>1627</AltitudeMeters>
            <DistanceMeters>NAN</DistanceMeters>
          </Trackpoint>
          <Trackpoint>
            <Time>2018-12-30T10:59:04.000Z</Time>
            <Position>
              <LatitudeDegrees>40.78598636202514171600341796875</LatitudeDegrees>
              <LongitudeDegrees>-4.06695817597210407257080078125</LongitudeDegrees>
            </Position>
            <AltitudeMeters>1627</AltitudeMeters>
            <DistanceMeters>NAN</DistanceMeters>
          </Trackpoint>
          <Trackpoint>
            <Time>2018-12-30T10:59:05.000Z</Time>
            <Position>
              <LatitudeDegrees>40.7859934866428375244140625</LatitudeDegrees>
              <LongitudeDegrees>-4.06695113517343997955322265625</LongitudeDegrees>
            </Position>
            <AltitudeMeters>1627</AltitudeMeters>
            <DistanceMeters>NAN</DistanceMeters>
          </Trackpoint>
          <Trackpoint>
            <Time>2018-12-30T10:59:06.000Z</Time>
            <Position>
              <LatitudeDegrees>40.78600086271762847900390625</LatitudeDegrees>
              <LongitudeDegrees>-4.06694225035607814788818359375</LongitudeDegrees>
            </Position>
            <AltitudeMeters>1627</AltitudeMeters>
            <DistanceMeters>NAN</DistanceMeters>
          </Trackpoint>
          <Trackpoint>
            <Time>2018-12-30T10:59:07.000Z</Time>
            <Position>
              <LatitudeDegrees>40.78601016663014888763427734375</LatitudeDegrees>
              <LongitudeDegrees>-4.06693764030933380126953125</LongitudeDegrees>
            </Position>
            <AltitudeMeters>1627.199951171875</AltitudeMeters>
            <DistanceMeters>NAN</DistanceMeters>
          </Trackpoint>
          <Trackpoint>
            <Time>2018-12-30T10:59:08.000Z</Time>
            <Position>
              <LatitudeDegrees>40.78601620160043239593505859375</LatitudeDegrees>
              <LongitudeDegrees>-4.066930599510669708251953125</LongitudeDegrees>
            </Position>
            <AltitudeMeters>1627.4000244140625</AltitudeMeters>
            <DistanceMeters>NAN</DistanceMeters>
          </Trackpoint>
          <Trackpoint>
            <Time>2018-12-30T10:59:09.000Z</Time>
            <Position>
              <LatitudeDegrees>40.78602190129458904266357421875</LatitudeDegrees>
              <LongitudeDegrees>-4.06692154705524444580078125</LongitudeDegrees>
            </Position>
            <AltitudeMeters>1627.5999755859375</AltitudeMeters>
            <DistanceMeters>NAN</DistanceMeters>
          </Trackpoint>
          <Trackpoint>
            <Time>2018-12-30T10:59:10.000Z</Time>
            <Position>
              <LatitudeDegrees>40.7860283553600311279296875</LatitudeDegrees>
              <LongitudeDegrees>-4.06691140495240688323974609375</LongitudeDegrees>
            </Position>
            <AltitudeMeters>1627.5999755859375</AltitudeMeters>
            <DistanceMeters>NAN</DistanceMeters>
          </Trackpoint>
          <Trackpoint>
            <Time>2018-12-30T10:59:11.000Z</Time>
            <Position>
              <LatitudeDegrees>40.7860358990728855133056640625</LatitudeDegrees>
              <LongitudeDegrees>-4.06690386123955249786376953125</LongitudeDegrees>
            </Position>
            <AltitudeMeters>1627.5999755859375</AltitudeMeters>
            <DistanceMeters>NAN</DistanceMeters>
          </Trackpoint>
          <Trackpoint>
            <Time>2018-12-30T10:59:12.000Z</Time>
            <Position>
              <LatitudeDegrees>40.78604377806186676025390625</LatitudeDegrees>
              <LongitudeDegrees>-4.06689472496509552001953125</LongitudeDegrees>
            </Position>
            <AltitudeMeters>1627.5999755859375</AltitudeMeters>
            <DistanceMeters>NAN</DistanceMeters>
          </Trackpoint>
          <Trackpoint>
            <Time>2018-12-30T10:59:13.000Z</Time>
            <Position>
              <LatitudeDegrees>40.786053501069545745849609375</LatitudeDegrees>
              <LongitudeDegrees>-4.0668871812522411346435546875</LongitudeDegrees>
            </Position>
            <AltitudeMeters>1627.5999755859375</AltitudeMeters>
            <DistanceMeters>NAN</DistanceMeters>
          </Trackpoint>
          <Trackpoint>
            <Time>2018-12-30T10:59:14.000Z</Time>
            <Position>
              <LatitudeDegrees>40.7860590331256389617919921875</LatitudeDegrees>
              <LongitudeDegrees>-4.0668767876923084259033203125</LongitudeDegrees>
            </Position>
            <AltitudeMeters>1627.5999755859375</AltitudeMeters>
            <DistanceMeters>NAN</DistanceMeters>
          </Trackpoint>
          <Trackpoint>
            <Time>2018-12-30T10:59:15.000Z</Time>
            <Position>
              <LatitudeDegrees>40.78606121242046356201171875</LatitudeDegrees>
              <LongitudeDegrees>-4.06686295755207538604736328125</LongitudeDegrees>
            </Position>
            <AltitudeMeters>1627.5999755859375</AltitudeMeters>
            <DistanceMeters>NAN</DistanceMeters>
          </Trackpoint>
          <Trackpoint>
            <Time>2018-12-30T10:59:16.000Z</Time>
            <Position>
              <LatitudeDegrees>40.7860660739243030548095703125</LatitudeDegrees>
              <LongitudeDegrees>-4.066851139068603515625</LongitudeDegrees>
            </Position>
            <AltitudeMeters>1627.800048828125</AltitudeMeters>
            <DistanceMeters>NAN</DistanceMeters>
          </Trackpoint>
          <Trackpoint>
            <Time>2018-12-30T10:59:17.000Z</Time>
            <Position>
              <LatitudeDegrees>40.78606925904750823974609375</LatitudeDegrees>
              <LongitudeDegrees>-4.06683797948062419891357421875</LongitudeDegrees>
            </Position>
            <AltitudeMeters>1628</AltitudeMeters>
            <DistanceMeters>NAN</DistanceMeters>
          </Trackpoint>
          <Trackpoint>
            <Time>2018-12-30T10:59:18.000Z</Time>
            <Position>
              <LatitudeDegrees>40.78607085160911083221435546875</LatitudeDegrees>
              <LongitudeDegrees>-4.066821299493312835693359375</LongitudeDegrees>
            </Position>
            <AltitudeMeters>1628.199951171875</AltitudeMeters>
            <DistanceMeters>NAN</DistanceMeters>
          </Trackpoint>
          <Trackpoint>
            <Time>2018-12-30T10:59:19.000Z</Time>
            <Position>
              <LatitudeDegrees>40.786076299846172332763671875</LatitudeDegrees>
              <LongitudeDegrees>-4.06681434251368045806884765625</LongitudeDegrees>
            </Position>
            <AltitudeMeters>1628.199951171875</AltitudeMeters>
            <DistanceMeters>NAN</DistanceMeters>
          </Trackpoint>
          <Trackpoint>
            <Time>2018-12-30T10:59:20.000Z</Time>
            <Position>
              <LatitudeDegrees>40.7860818319022655487060546875</LatitudeDegrees>
              <LongitudeDegrees>-4.06681132502853870391845703125</LongitudeDegrees>
            </Position>
            <AltitudeMeters>1628.4000244140625</AltitudeMeters>
            <DistanceMeters>NAN</DistanceMeters>
          </Trackpoint>
          <Trackpoint>
            <Time>2018-12-30T10:59:21.000Z</Time>
            <Position>
              <LatitudeDegrees>40.786087699234485626220703125</LatitudeDegrees>
              <LongitudeDegrees>-4.0668000094592571258544921875</LongitudeDegrees>
            </Position>
            <AltitudeMeters>1628.5999755859375</AltitudeMeters>
            <DistanceMeters>NAN</DistanceMeters>
          </Trackpoint>
          <Trackpoint>
            <Time>2018-12-30T10:59:22.000Z</Time>
            <Position>
              <LatitudeDegrees>40.786093734204769134521484375</LatitudeDegrees>
              <LongitudeDegrees>-4.0667852573096752166748046875</LongitudeDegrees>
            </Position>
            <AltitudeMeters>1628.800048828125</AltitudeMeters>
            <DistanceMeters>NAN</DistanceMeters>
          </Trackpoint>
          <Trackpoint>
            <Time>2018-12-30T10:59:23.000Z</Time>
            <Position>
              <LatitudeDegrees>40.78609943389892578125</LatitudeDegrees>
              <LongitudeDegrees>-4.0667765401303768157958984375</LongitudeDegrees>
            </Position>
            <AltitudeMeters>1628.800048828125</AltitudeMeters>
            <DistanceMeters>NAN</DistanceMeters>
          </Trackpoint>
          <Trackpoint>
            <Time>2018-12-30T10:59:24.000Z</Time>
            <Position>
              <LatitudeDegrees>40.7861069776117801666259765625</LatitudeDegrees>
              <LongitudeDegrees>-4.06676505692303180694580078125</LongitudeDegrees>
            </Position>
            <AltitudeMeters>1629</AltitudeMeters>
            <DistanceMeters>NAN</DistanceMeters>
          </Trackpoint>
          <Trackpoint>
            <Time>2018-12-30T10:59:25.000Z</Time>
            <Position>
              <LatitudeDegrees>40.78611728735268115997314453125</LatitudeDegrees>
              <LongitudeDegrees>-4.06676472164690494537353515625</LongitudeDegrees>
            </Position>
            <AltitudeMeters>1629</AltitudeMeters>
            <DistanceMeters>NAN</DistanceMeters>
          </Trackpoint>
          <Trackpoint>
            <Time>2018-12-30T10:59:26.000Z</Time>
            <Position>
              <LatitudeDegrees>40.78612348996102809906005859375</LatitudeDegrees>
              <LongitudeDegrees>-4.06675281934440135955810546875</LongitudeDegrees>
            </Position>
            <AltitudeMeters>1629</AltitudeMeters>
            <DistanceMeters>NAN</DistanceMeters>
          </Trackpoint>
          <Trackpoint>
            <Time>2018-12-30T10:59:27.000Z</Time>
            <Position>
              <LatitudeDegrees>40.78613019548356533050537109375</LatitudeDegrees>
              <LongitudeDegrees>-4.066740833222866058349609375</LongitudeDegrees>
            </Position>
            <AltitudeMeters>1629</AltitudeMeters>
            <DistanceMeters>NAN</DistanceMeters>
          </Trackpoint>
          <Trackpoint>
            <Time>2018-12-30T10:59:28.000Z</Time>
            <Position>
              <LatitudeDegrees>40.7861351408064365386962890625</LatitudeDegrees>
              <LongitudeDegrees>-4.06672499142587184906005859375</LongitudeDegrees>
            </Position>
            <AltitudeMeters>1629.199951171875</AltitudeMeters>
            <DistanceMeters>NAN</DistanceMeters>
          </Trackpoint>
          <Trackpoint>
            <Time>2018-12-30T10:59:29.000Z</Time>
            <Position>
              <LatitudeDegrees>40.78613354824483394622802734375</LatitudeDegrees>
              <LongitudeDegrees>-4.06671426258981227874755859375</LongitudeDegrees>
            </Position>
            <AltitudeMeters>1629.4000244140625</AltitudeMeters>
            <DistanceMeters>NAN</DistanceMeters>
          </Trackpoint>
          <Trackpoint>
            <Time>2018-12-30T10:59:30.000Z</Time>
            <Position>
              <LatitudeDegrees>40.78613656572997570037841796875</LatitudeDegrees>
              <LongitudeDegrees>-4.06670856289565563201904296875</LongitudeDegrees>
            </Position>
            <AltitudeMeters>1629.5999755859375</AltitudeMeters>
            <DistanceMeters>NAN</DistanceMeters>
          </Trackpoint>
          <Trackpoint>
            <Time>2018-12-30T10:59:31.000Z</Time>
            <Position>
              <LatitudeDegrees>40.7861374877393245697021484375</LatitudeDegrees>
              <LongitudeDegrees>-4.06670638360083103179931640625</LongitudeDegrees>
            </Position>
            <AltitudeMeters>1629.5999755859375</AltitudeMeters>
            <DistanceMeters>NAN</DistanceMeters>
          </Trackpoint>
          <Trackpoint>
            <Time>2018-12-30T10:59:32.000Z</Time>
            <Position>
              <LatitudeDegrees>40.7861381582915782928466796875</LatitudeDegrees>
              <LongitudeDegrees>-4.06670521013438701629638671875</LongitudeDegrees>
            </Position>
            <AltitudeMeters>1629.800048828125</AltitudeMeters>
            <DistanceMeters>NAN</DistanceMeters>
          </Trackpoint>
          <Trackpoint>
            <Time>2018-12-30T10:59:33.000Z</Time>
            <Position>
              <LatitudeDegrees>40.78614528290927410125732421875</LatitudeDegrees>
              <LongitudeDegrees>-4.0667047910392284393310546875</LongitudeDegrees>
            </Position>
            <AltitudeMeters>1630</AltitudeMeters>
            <DistanceMeters>NAN</DistanceMeters>
          </Trackpoint>
          <Trackpoint>
            <Time>2018-12-30T10:59:34.000Z</Time>
            <Position>
              <LatitudeDegrees>40.786153413355350494384765625</LatitudeDegrees>
              <LongitudeDegrees>-4.06670160591602325439453125</LongitudeDegrees>
            </Position>
            <AltitudeMeters>1630</AltitudeMeters>
            <DistanceMeters>NAN</DistanceMeters>
          </Trackpoint>
          <Trackpoint>
            <Time>2018-12-30T10:59:35.000Z</Time>
            <Position>
              <LatitudeDegrees>40.78616070561110973358154296875</LatitudeDegrees>
              <LongitudeDegrees>-4.0666990913450717926025390625</LongitudeDegrees>
            </Position>
            <AltitudeMeters>1630</AltitudeMeters>
            <DistanceMeters>NAN</DistanceMeters>
          </Trackpoint>
          <Trackpoint>
            <Time>2018-12-30T10:59:36.000Z</Time>
            <Position>
              <LatitudeDegrees>40.7861639745533466339111328125</LatitudeDegrees>
              <LongitudeDegrees>-4.06669397838413715362548828125</LongitudeDegrees>
            </Position>
            <AltitudeMeters>1630</AltitudeMeters>
            <DistanceMeters>NAN</DistanceMeters>
          </Trackpoint>
          <Trackpoint>
            <Time>2018-12-30T10:59:37.000Z</Time>
            <Position>
              <LatitudeDegrees>40.78616690821945667266845703125</LatitudeDegrees>
              <LongitudeDegrees>-4.0666917152702808380126953125</LongitudeDegrees>
            </Position>
            <AltitudeMeters>1630</AltitudeMeters>
            <DistanceMeters>NAN</DistanceMeters>
          </Trackpoint>
          <Trackpoint>
            <Time>2018-12-30T10:59:38.000Z</Time>
            <Position>
              <LatitudeDegrees>40.786171518266201019287109375</LatitudeDegrees>
              <LongitudeDegrees>-4.06668794341385364532470703125</LongitudeDegrees>
            </Position>
            <AltitudeMeters>1630</AltitudeMeters>
            <DistanceMeters>NAN</DistanceMeters>
          </Trackpoint>
          <Trackpoint>
            <Time>2018-12-30T10:59:39.000Z</Time>
            <Position>
              <LatitudeDegrees>40.7861753739416599273681640625</LatitudeDegrees>
              <LongitudeDegrees>-4.06668492592871189117431640625</LongitudeDegrees>
            </Position>
            <AltitudeMeters>1630</AltitudeMeters>
            <DistanceMeters>NAN</DistanceMeters>
          </Trackpoint>
          <Trackpoint>
            <Time>2018-12-30T10:59:40.000Z</Time>
            <Position>
              <LatitudeDegrees>40.7861787267029285430908203125</LatitudeDegrees>
              <LongitudeDegrees>-4.06668257899582386016845703125</LongitudeDegrees>
            </Position>
            <AltitudeMeters>1630.199951171875</AltitudeMeters>
            <DistanceMeters>NAN</DistanceMeters>
          </Trackpoint>
          <Trackpoint>
            <Time>2018-12-30T10:59:41.000Z</Time>
            <Position>
              <LatitudeDegrees>40.78617990016937255859375</LatitudeDegrees>
              <LongitudeDegrees>-4.06667972914874553680419921875</LongitudeDegrees>
            </Position>
            <AltitudeMeters>1630.5999755859375</AltitudeMeters>
            <DistanceMeters>NAN</DistanceMeters>
          </Trackpoint>
          <Trackpoint>
            <Time>2018-12-30T10:59:42.000Z</Time>
            <Position>
              <LatitudeDegrees>40.7861820794641971588134765625</LatitudeDegrees>
              <LongitudeDegrees>-4.06667687930166721343994140625</LongitudeDegrees>
            </Position>
            <AltitudeMeters>1630.800048828125</AltitudeMeters>
            <DistanceMeters>NAN</DistanceMeters>
          </Trackpoint>
          <Trackpoint>
            <Time>2018-12-30T10:59:43.000Z</Time>
            <Position>
              <LatitudeDegrees>40.7861810736358165740966796875</LatitudeDegrees>
              <LongitudeDegrees>-4.06667402945458889007568359375</LongitudeDegrees>
            </Position>
            <AltitudeMeters>1631</AltitudeMeters>
            <DistanceMeters>NAN</DistanceMeters>
          </Trackpoint>
          <Trackpoint>
            <Time>2018-12-30T10:59:44.000Z</Time>
            <Position>
              <LatitudeDegrees>40.7861820794641971588134765625</LatitudeDegrees>
              <LongitudeDegrees>-4.06667185015976428985595703125</LongitudeDegrees>
            </Position>
            <AltitudeMeters>1631.4000244140625</AltitudeMeters>
            <DistanceMeters>NAN</DistanceMeters>
          </Trackpoint>
          <Trackpoint>
            <Time>2018-12-30T10:59:45.000Z</Time>
            <Position>
              <LatitudeDegrees>40.7861844263970851898193359375</LatitudeDegrees>
              <LongitudeDegrees>-4.0666736103594303131103515625</LongitudeDegrees>
            </Position>
            <AltitudeMeters>1631.800048828125</AltitudeMeters>
            <DistanceMeters>NAN</DistanceMeters>
          </Trackpoint>
          <Trackpoint>
            <Time>2018-12-30T10:59:46.000Z</Time>
            <Position>
              <LatitudeDegrees>40.78618585132062435150146484375</LatitudeDegrees>
              <LongitudeDegrees>-4.06666983850300312042236328125</LongitudeDegrees>
            </Position>
            <AltitudeMeters>1632</AltitudeMeters>
            <DistanceMeters>NAN</DistanceMeters>
          </Trackpoint>
          <Trackpoint>
            <Time>2018-12-30T10:59:47.000Z</Time>
            <Position>
              <LatitudeDegrees>40.78618518076837062835693359375</LatitudeDegrees>
              <LongitudeDegrees>-4.0666658990085124969482421875</LongitudeDegrees>
            </Position>
            <AltitudeMeters>1632.199951171875</AltitudeMeters>
            <DistanceMeters>NAN</DistanceMeters>
          </Trackpoint>
          <Trackpoint>
            <Time>2018-12-30T10:59:48.000Z</Time>
            <Position>
              <LatitudeDegrees>40.7861881144344806671142578125</LatitudeDegrees>
              <LongitudeDegrees>-4.0666700899600982666015625</LongitudeDegrees>
            </Position>
            <AltitudeMeters>1632.199951171875</AltitudeMeters>
            <DistanceMeters>NAN</DistanceMeters>
          </Trackpoint>
          <Trackpoint>
            <Time>2018-12-30T10:59:49.000Z</Time>
            <Position>
              <LatitudeDegrees>40.7861861027777194976806640625</LatitudeDegrees>
              <LongitudeDegrees>-4.06666229479014873504638671875</LongitudeDegrees>
            </Position>
            <AltitudeMeters>1632.199951171875</AltitudeMeters>
            <DistanceMeters>NAN</DistanceMeters>
          </Trackpoint>
          <Trackpoint>
            <Time>2018-12-30T10:59:50.000Z</Time>
            <Position>
              <LatitudeDegrees>40.7861887849867343902587890625</LatitudeDegrees>
              <LongitudeDegrees>-4.06666430644690990447998046875</LongitudeDegrees>
            </Position>
            <AltitudeMeters>1632.199951171875</AltitudeMeters>
            <DistanceMeters>NAN</DistanceMeters>
          </Trackpoint>
          <Trackpoint>
            <Time>2018-12-30T10:59:51.000Z</Time>
            <Position>
              <LatitudeDegrees>40.7861911319196224212646484375</LatitudeDegrees>
              <LongitudeDegrees>-4.06666682101786136627197265625</LongitudeDegrees>
            </Position>
            <AltitudeMeters>1632</AltitudeMeters>
            <DistanceMeters>NAN</DistanceMeters>
          </Trackpoint>
          <Trackpoint>
            <Time>2018-12-30T10:59:52.000Z</Time>
            <Position>
              <LatitudeDegrees>40.7861964963376522064208984375</LatitudeDegrees>
              <LongitudeDegrees>-4.0666658990085124969482421875</LongitudeDegrees>
            </Position>
            <AltitudeMeters>1631.800048828125</AltitudeMeters>
            <DistanceMeters>NAN</DistanceMeters>
          </Trackpoint>
          <Trackpoint>
            <Time>2018-12-30T10:59:53.000Z</Time>
            <Position>
              <LatitudeDegrees>40.78620311804115772247314453125</LatitudeDegrees>
              <LongitudeDegrees>-4.0666642226278781890869140625</LongitudeDegrees>
            </Position>
            <AltitudeMeters>1631.5999755859375</AltitudeMeters>
            <DistanceMeters>NAN</DistanceMeters>
          </Trackpoint>
          <Trackpoint>
            <Time>2018-12-30T10:59:54.000Z</Time>
            <Position>
              <LatitudeDegrees>40.786209404468536376953125</LatitudeDegrees>
              <LongitudeDegrees>-4.06666296534240245819091796875</LongitudeDegrees>
            </Position>
            <AltitudeMeters>1631.4000244140625</AltitudeMeters>
            <DistanceMeters>NAN</DistanceMeters>
          </Trackpoint>
          <Trackpoint>
            <Time>2018-12-30T10:59:55.000Z</Time>
            <Position>
              <LatitudeDegrees>40.7862139306962490081787109375</LatitudeDegrees>
              <LongitudeDegrees>-4.06665659509599208831787109375</LongitudeDegrees>
            </Position>
            <AltitudeMeters>1631.4000244140625</AltitudeMeters>
            <DistanceMeters>NAN</DistanceMeters>
          </Trackpoint>
          <Trackpoint>
            <Time>2018-12-30T10:59:56.000Z</Time>
            <Position>
              <LatitudeDegrees>40.78621971420943737030029296875</LatitudeDegrees>
              <LongitudeDegrees>-4.0666501410305500030517578125</LongitudeDegrees>
            </Position>
            <AltitudeMeters>1631.4000244140625</AltitudeMeters>
            <DistanceMeters>NAN</DistanceMeters>
          </Trackpoint>
          <Trackpoint>
            <Time>2018-12-30T10:59:57.000Z</Time>
            <Position>
              <LatitudeDegrees>40.78622491098940372467041015625</LatitudeDegrees>
              <LongitudeDegrees>-4.06664536334574222564697265625</LongitudeDegrees>
            </Position>
            <AltitudeMeters>1631.199951171875</AltitudeMeters>
            <DistanceMeters>NAN</DistanceMeters>
          </Trackpoint>
          <Trackpoint>
            <Time>2018-12-30T10:59:58.000Z</Time>
            <Position>
              <LatitudeDegrees>40.78622994013130664825439453125</LatitudeDegrees>
              <LongitudeDegrees>-4.066640250384807586669921875</LongitudeDegrees>
            </Position>
            <AltitudeMeters>1631.4000244140625</AltitudeMeters>
            <DistanceMeters>NAN</DistanceMeters>
          </Trackpoint>
          <Trackpoint>
            <Time>2018-12-30T10:59:59.000Z</Time>
            <Position>
              <LatitudeDegrees>40.7862350530922412872314453125</LatitudeDegrees>
              <LongitudeDegrees>-4.06663714908063411712646484375</LongitudeDegrees>
            </Position>
            <AltitudeMeters>1631.4000244140625</AltitudeMeters>
            <DistanceMeters>NAN</DistanceMeters>
          </Trackpoint>
          <Trackpoint>
            <Time>2018-12-30T11:00:00.000Z</Time>
            <Position>
              <LatitudeDegrees>40.7862394116818904876708984375</LatitudeDegrees>
              <LongitudeDegrees>-4.0666337125003337860107421875</LongitudeDegrees>
            </Position>
            <AltitudeMeters>1631.800048828125</AltitudeMeters>
            <DistanceMeters>NAN</DistanceMeters>
          </Trackpoint>
          <Trackpoint>
            <Time>2018-12-30T11:00:01.000Z</Time>
            <Position>
              <LatitudeDegrees>40.78624603338539600372314453125</LatitudeDegrees>
              <LongitudeDegrees>-4.066636897623538970947265625</LongitudeDegrees>
            </Position>
            <AltitudeMeters>1631.800048828125</AltitudeMeters>
            <DistanceMeters>NAN</DistanceMeters>
          </Trackpoint>
          <Trackpoint>
            <Time>2018-12-30T11:00:02.000Z</Time>
            <Position>
              <LatitudeDegrees>40.7862531580030918121337890625</LatitudeDegrees>
              <LongitudeDegrees>-4.0666379034519195556640625</LongitudeDegrees>
            </Position>
            <AltitudeMeters>1631.800048828125</AltitudeMeters>
            <DistanceMeters>NAN</DistanceMeters>
          </Trackpoint>
          <Trackpoint>
            <Time>2018-12-30T11:00:03.000Z</Time>
            <Position>
              <LatitudeDegrees>40.78626330010592937469482421875</LatitudeDegrees>
              <LongitudeDegrees>-4.06664268113672733306884765625</LongitudeDegrees>
            </Position>
            <AltitudeMeters>1632</AltitudeMeters>
            <DistanceMeters>NAN</DistanceMeters>
          </Trackpoint>
          <Trackpoint>
            <Time>2018-12-30T11:00:04.000Z</Time>
            <Position>
              <LatitudeDegrees>40.78627084381878376007080078125</LatitudeDegrees>
              <LongitudeDegrees>-4.06664687208831310272216796875</LongitudeDegrees>
            </Position>
            <AltitudeMeters>1632</AltitudeMeters>
            <DistanceMeters>NAN</DistanceMeters>
          </Trackpoint>
          <Trackpoint>
            <Time>2018-12-30T11:00:05.000Z</Time>
            <Position>
              <LatitudeDegrees>40.786279141902923583984375</LatitudeDegrees>
              <LongitudeDegrees>-4.06664988957345485687255859375</LongitudeDegrees>
            </Position>
            <AltitudeMeters>1632</AltitudeMeters>
            <DistanceMeters>NAN</DistanceMeters>
          </Trackpoint>
          <Trackpoint>
            <Time>2018-12-30T11:00:06.000Z</Time>
            <Position>
              <LatitudeDegrees>40.78628861345350742340087890625</LatitudeDegrees>
              <LongitudeDegrees>-4.0666521526873111724853515625</LongitudeDegrees>
            </Position>
            <AltitudeMeters>1632.199951171875</AltitudeMeters>
            <DistanceMeters>NAN</DistanceMeters>
          </Trackpoint>
          <Trackpoint>
            <Time>2018-12-30T11:00:07.000Z</Time>
            <Position>
              <LatitudeDegrees>40.78629414550960063934326171875</LatitudeDegrees>
              <LongitudeDegrees>-4.06664921902120113372802734375</LongitudeDegrees>
            </Position>
            <AltitudeMeters>1632.199951171875</AltitudeMeters>
            <DistanceMeters>NAN</DistanceMeters>
          </Trackpoint>
          <Trackpoint>
            <Time>2018-12-30T11:00:08.000Z</Time>
            <Position>
              <LatitudeDegrees>40.78629615716636180877685546875</LatitudeDegrees>
              <LongitudeDegrees>-4.06664838083088397979736328125</LongitudeDegrees>
            </Position>
            <AltitudeMeters>1632.4000244140625</AltitudeMeters>
            <DistanceMeters>NAN</DistanceMeters>
          </Trackpoint>
          <Trackpoint>
            <Time>2018-12-30T11:00:09.000Z</Time>
            <Position>
              <LatitudeDegrees>40.7862970791757106781005859375</LatitudeDegrees>
              <LongitudeDegrees>-4.06664125621318817138671875</LongitudeDegrees>
            </Position>
            <AltitudeMeters>1632.4000244140625</AltitudeMeters>
            <DistanceMeters>NAN</DistanceMeters>
          </Trackpoint>
          <Trackpoint>
            <Time>2018-12-30T11:00:10.000Z</Time>
            <Position>
              <LatitudeDegrees>40.7862992584705352783203125</LatitudeDegrees>
              <LongitudeDegrees>-4.0666384063661098480224609375</LongitudeDegrees>
            </Position>
            <AltitudeMeters>1632.4000244140625</AltitudeMeters>
            <DistanceMeters>NAN</DistanceMeters>
          </Trackpoint>
          <Trackpoint>
            <Time>2018-12-30T11:00:11.000Z</Time>
            <Position>
              <LatitudeDegrees>40.78629967756569385528564453125</LatitudeDegrees>
              <LongitudeDegrees>-4.06662725843489170074462890625</LongitudeDegrees>
            </Position>
            <AltitudeMeters>1632.5999755859375</AltitudeMeters>
            <DistanceMeters>NAN</DistanceMeters>
          </Trackpoint>
          <Trackpoint>
            <Time>2018-12-30T11:00:12.000Z</Time>
            <Position>
              <LatitudeDegrees>40.78630604781210422515869140625</LatitudeDegrees>
              <LongitudeDegrees>-4.06662189401686191558837890625</LongitudeDegrees>
            </Position>
            <AltitudeMeters>1632.800048828125</AltitudeMeters>
            <DistanceMeters>NAN</DistanceMeters>
          </Trackpoint>
          <Trackpoint>
            <Time>2018-12-30T11:00:13.000Z</Time>
            <Position>
              <LatitudeDegrees>40.78631258569657802581787109375</LatitudeDegrees>
              <LongitudeDegrees>-4.066617786884307861328125</LongitudeDegrees>
            </Position>
            <AltitudeMeters>1632.800048828125</AltitudeMeters>
            <DistanceMeters>NAN</DistanceMeters>
          </Trackpoint>
          <Trackpoint>
            <Time>2018-12-30T11:00:14.000Z</Time>
            <Position>
              <LatitudeDegrees>40.78631325624883174896240234375</LatitudeDegrees>
              <LongitudeDegrees>-4.06660638749599456787109375</LongitudeDegrees>
            </Position>
            <AltitudeMeters>1632.800048828125</AltitudeMeters>
            <DistanceMeters>NAN</DistanceMeters>
          </Trackpoint>
          <Trackpoint>
            <Time>2018-12-30T11:00:15.000Z</Time>
            <Position>
              <LatitudeDegrees>40.7863131724298000335693359375</LatitudeDegrees>
              <LongitudeDegrees>-4.06659322790801525115966796875</LongitudeDegrees>
            </Position>
            <AltitudeMeters>1632.800048828125</AltitudeMeters>
            <DistanceMeters>NAN</DistanceMeters>
          </Trackpoint>
          <Trackpoint>
            <Time>2018-12-30T11:00:16.000Z</Time>
            <Position>
              <LatitudeDegrees>40.78631627373397350311279296875</LatitudeDegrees>
              <LongitudeDegrees>-4.06658836640417575836181640625</LongitudeDegrees>
            </Position>
            <AltitudeMeters>1633</AltitudeMeters>
            <DistanceMeters>NAN</DistanceMeters>
          </Trackpoint>
          <Trackpoint>
            <Time>2018-12-30T11:00:17.000Z</Time>
            <Position>
              <LatitudeDegrees>40.78632029704749584197998046875</LatitudeDegrees>
              <LongitudeDegrees>-4.066588617861270904541015625</LongitudeDegrees>
            </Position>
            <AltitudeMeters>1633</AltitudeMeters>
            <DistanceMeters>NAN</DistanceMeters>
          </Trackpoint>
          <Trackpoint>
            <Time>2018-12-30T11:00:18.000Z</Time>
            <Position>
              <LatitudeDegrees>40.7863239012658596038818359375</LatitudeDegrees>
              <LongitudeDegrees>-4.06658895313739776611328125</LongitudeDegrees>
            </Position>
            <AltitudeMeters>1633</AltitudeMeters>
            <DistanceMeters>NAN</DistanceMeters>
          </Trackpoint>
          <Trackpoint>
            <Time>2018-12-30T11:00:19.000Z</Time>
            <Position>
              <LatitudeDegrees>40.7863302715122699737548828125</LatitudeDegrees>
              <LongitudeDegrees>-4.06658283434808254241943359375</LongitudeDegrees>
            </Position>
            <AltitudeMeters>1633</AltitudeMeters>
            <DistanceMeters>NAN</DistanceMeters>
          </Trackpoint>
          <Trackpoint>
            <Time>2018-12-30T11:00:20.000Z</Time>
            <Position>
              <LatitudeDegrees>40.78634686768054962158203125</LatitudeDegrees>
              <LongitudeDegrees>-4.066577889025211334228515625</LongitudeDegrees>
            </Position>
            <AltitudeMeters>1633</AltitudeMeters>
            <DistanceMeters>NAN</DistanceMeters>
          </Trackpoint>
          <Trackpoint>
            <Time>2018-12-30T11:00:21.000Z</Time>
            <Position>
              <LatitudeDegrees>40.786361284554004669189453125</LatitudeDegrees>
              <LongitudeDegrees>-4.0665762126445770263671875</LongitudeDegrees>
            </Position>
            <AltitudeMeters>1633</AltitudeMeters>
            <DistanceMeters>NAN</DistanceMeters>
          </Trackpoint>
          <Trackpoint>
            <Time>2018-12-30T11:00:22.000Z</Time>
            <Position>
              <LatitudeDegrees>40.78637561760842800140380859375</LatitudeDegrees>
              <LongitudeDegrees>-4.0666011907160282135009765625</LongitudeDegrees>
            </Position>
            <AltitudeMeters>1633.199951171875</AltitudeMeters>
            <DistanceMeters>NAN</DistanceMeters>
          </Trackpoint>
          <Trackpoint>
            <Time>2018-12-30T11:00:23.000Z</Time>
            <Position>
              <LatitudeDegrees>40.786377377808094024658203125</LatitudeDegrees>
              <LongitudeDegrees>-4.06659523956477642059326171875</LongitudeDegrees>
            </Position>
            <AltitudeMeters>1633.199951171875</AltitudeMeters>
            <DistanceMeters>NAN</DistanceMeters>
          </Trackpoint>
          <Trackpoint>
            <Time>2018-12-30T11:00:24.000Z</Time>
            <Position>
              <LatitudeDegrees>40.78637796454131603240966796875</LatitudeDegrees>
              <LongitudeDegrees>-4.0665867738425731658935546875</LongitudeDegrees>
            </Position>
            <AltitudeMeters>1633.199951171875</AltitudeMeters>
            <DistanceMeters>NAN</DistanceMeters>
          </Trackpoint>
          <Trackpoint>
            <Time>2018-12-30T11:00:25.000Z</Time>
            <Position>
              <LatitudeDegrees>40.7863785512745380401611328125</LatitudeDegrees>
              <LongitudeDegrees>-4.06657780520617961883544921875</LongitudeDegrees>
            </Position>
            <AltitudeMeters>1633.199951171875</AltitudeMeters>
            <DistanceMeters>NAN</DistanceMeters>
          </Trackpoint>
          <Trackpoint>
            <Time>2018-12-30T11:00:26.000Z</Time>
            <Position>
              <LatitudeDegrees>40.786381401121616363525390625</LatitudeDegrees>
              <LongitudeDegrees>-4.066571854054927825927734375</LongitudeDegrees>
            </Position>
            <AltitudeMeters>1633.199951171875</AltitudeMeters>
            <DistanceMeters>NAN</DistanceMeters>
          </Trackpoint>
          <Trackpoint>
            <Time>2018-12-30T11:00:27.000Z</Time>
            <Position>
              <LatitudeDegrees>40.786388106644153594970703125</LatitudeDegrees>
              <LongitudeDegrees>-4.066571854054927825927734375</LongitudeDegrees>
            </Position>
            <AltitudeMeters>1633.199951171875</AltitudeMeters>
            <DistanceMeters>NAN</DistanceMeters>
          </Trackpoint>
          <Trackpoint>
            <Time>2018-12-30T11:00:28.000Z</Time>
            <Position>
              <LatitudeDegrees>40.78639288432896137237548828125</LatitudeDegrees>
              <LongitudeDegrees>-4.0665673278272151947021484375</LongitudeDegrees>
            </Position>
            <AltitudeMeters>1633.199951171875</AltitudeMeters>
            <DistanceMeters>NAN</DistanceMeters>
          </Trackpoint>
          <Trackpoint>
            <Time>2018-12-30T11:00:29.000Z</Time>
            <Position>
              <LatitudeDegrees>40.786394812166690826416015625</LatitudeDegrees>
              <LongitudeDegrees>-4.06656221486628055572509765625</LongitudeDegrees>
            </Position>
            <AltitudeMeters>1633.199951171875</AltitudeMeters>
            <DistanceMeters>NAN</DistanceMeters>
          </Trackpoint>
          <Trackpoint>
            <Time>2018-12-30T11:00:30.000Z</Time>
            <Position>
              <LatitudeDegrees>40.78640076331794261932373046875</LatitudeDegrees>
              <LongitudeDegrees>-4.0665592812001705169677734375</LongitudeDegrees>
            </Position>
            <AltitudeMeters>1633.4000244140625</AltitudeMeters>
            <DistanceMeters>NAN</DistanceMeters>
          </Trackpoint>
          <Trackpoint>
            <Time>2018-12-30T11:00:31.000Z</Time>
            <Position>
              <LatitudeDegrees>40.78640914522111415863037109375</LatitudeDegrees>
              <LongitudeDegrees>-4.0665559284389019012451171875</LongitudeDegrees>
            </Position>
            <AltitudeMeters>1633.5999755859375</AltitudeMeters>
            <DistanceMeters>NAN</DistanceMeters>
          </Trackpoint>
          <Trackpoint>
            <Time>2018-12-30T11:00:32.000Z</Time>
            <Position>
              <LatitudeDegrees>40.7864172756671905517578125</LatitudeDegrees>
              <LongitudeDegrees>-4.0665502287447452545166015625</LongitudeDegrees>
            </Position>
            <AltitudeMeters>1633.5999755859375</AltitudeMeters>
            <DistanceMeters>NAN</DistanceMeters>
          </Trackpoint>
          <Trackpoint>
            <Time>2018-12-30T11:00:33.000Z</Time>
            <Position>
              <LatitudeDegrees>40.78642331063747406005859375</LatitudeDegrees>
              <LongitudeDegrees>-4.06654561869800090789794921875</LongitudeDegrees>
            </Position>
            <AltitudeMeters>1633.5999755859375</AltitudeMeters>
            <DistanceMeters>NAN</DistanceMeters>
          </Trackpoint>
          <Trackpoint>
            <Time>2018-12-30T11:00:34.000Z</Time>
            <Position>
              <LatitudeDegrees>40.786428339779376983642578125</LatitudeDegrees>
              <LongitudeDegrees>-4.06654176302254199981689453125</LongitudeDegrees>
            </Position>
            <AltitudeMeters>1633.5999755859375</AltitudeMeters>
            <DistanceMeters>NAN</DistanceMeters>
          </Trackpoint>
          <Trackpoint>
            <Time>2018-12-30T11:00:35.000Z</Time>
            <Position>
              <LatitudeDegrees>40.7864333689212799072265625</LatitudeDegrees>
              <LongitudeDegrees>-4.06653421930968761444091796875</LongitudeDegrees>
            </Position>
            <AltitudeMeters>1633.800048828125</AltitudeMeters>
            <DistanceMeters>NAN</DistanceMeters>
          </Trackpoint>
          <Trackpoint>
            <Time>2018-12-30T11:00:36.000Z</Time>
            <Position>
              <LatitudeDegrees>40.7864375598728656768798828125</LatitudeDegrees>
              <LongitudeDegrees>-4.0665230713784694671630859375</LongitudeDegrees>
            </Position>
            <AltitudeMeters>1633.800048828125</AltitudeMeters>
            <DistanceMeters>NAN</DistanceMeters>
          </Trackpoint>
          <Trackpoint>
            <Time>2018-12-30T11:00:37.000Z</Time>
            <Position>
              <LatitudeDegrees>40.7864414155483245849609375</LatitudeDegrees>
              <LongitudeDegrees>-4.0665252506732940673828125</LongitudeDegrees>
            </Position>
            <AltitudeMeters>1634</AltitudeMeters>
            <DistanceMeters>NAN</DistanceMeters>
          </Trackpoint>
          <Trackpoint>
            <Time>2018-12-30T11:00:38.000Z</Time>
            <Position>
              <LatitudeDegrees>40.7864385657012462615966796875</LatitudeDegrees>
              <LongitudeDegrees>-4.06652432866394519805908203125</LongitudeDegrees>
            </Position>
            <AltitudeMeters>1634</AltitudeMeters>
            <DistanceMeters>NAN</DistanceMeters>
          </Trackpoint>
          <Trackpoint>
            <Time>2018-12-30T11:00:39.000Z</Time>
            <Position>
              <LatitudeDegrees>40.78643613494932651519775390625</LatitudeDegrees>
              <LongitudeDegrees>-4.06651393510401248931884765625</LongitudeDegrees>
            </Position>
            <AltitudeMeters>1634</AltitudeMeters>
            <DistanceMeters>NAN</DistanceMeters>
          </Trackpoint>
          <Trackpoint>
            <Time>2018-12-30T11:00:40.000Z</Time>
            <Position>
              <LatitudeDegrees>40.7864360511302947998046875</LatitudeDegrees>
              <LongitudeDegrees>-4.06651175580918788909912109375</LongitudeDegrees>
            </Position>
            <AltitudeMeters>1634.199951171875</AltitudeMeters>
            <DistanceMeters>NAN</DistanceMeters>
          </Trackpoint>
          <Trackpoint>
            <Time>2018-12-30T11:00:41.000Z</Time>
            <Position>
              <LatitudeDegrees>40.7864368893206119537353515625</LatitudeDegrees>
              <LongitudeDegrees>-4.06650756485760211944580078125</LongitudeDegrees>
            </Position>
            <AltitudeMeters>1634.199951171875</AltitudeMeters>
            <DistanceMeters>NAN</DistanceMeters>
          </Trackpoint>
          <Trackpoint>
            <Time>2018-12-30T11:00:42.000Z</Time>
            <Position>
              <LatitudeDegrees>40.78644082881510257720947265625</LatitudeDegrees>
              <LongitudeDegrees>-4.06650320626795291900634765625</LongitudeDegrees>
            </Position>
            <AltitudeMeters>1634.4000244140625</AltitudeMeters>
            <DistanceMeters>NAN</DistanceMeters>
          </Trackpoint>
          <Trackpoint>
            <Time>2018-12-30T11:00:43.000Z</Time>
            <Position>
              <LatitudeDegrees>40.78644937835633754730224609375</LatitudeDegrees>
              <LongitudeDegrees>-4.0665039606392383575439453125</LongitudeDegrees>
            </Position>
            <AltitudeMeters>1634.4000244140625</AltitudeMeters>
            <DistanceMeters>NAN</DistanceMeters>
          </Trackpoint>
          <Trackpoint>
            <Time>2018-12-30T11:00:44.000Z</Time>
            <Position>
              <LatitudeDegrees>40.78645256347954273223876953125</LatitudeDegrees>
              <LongitudeDegrees>-4.06650672666728496551513671875</LongitudeDegrees>
            </Position>
            <AltitudeMeters>1634.199951171875</AltitudeMeters>
            <DistanceMeters>NAN</DistanceMeters>
          </Trackpoint>
          <Trackpoint>
            <Time>2018-12-30T11:00:45.000Z</Time>
            <Position>
              <LatitudeDegrees>40.7864563353359699249267578125</LatitudeDegrees>
              <LongitudeDegrees>-4.0665103308856487274169921875</LongitudeDegrees>
            </Position>
            <AltitudeMeters>1634.199951171875</AltitudeMeters>
            <DistanceMeters>NAN</DistanceMeters>
          </Trackpoint>
          <Trackpoint>
            <Time>2018-12-30T11:00:46.000Z</Time>
            <Position>
              <LatitudeDegrees>40.7864563353359699249267578125</LatitudeDegrees>
              <LongitudeDegrees>-4.066507816314697265625</LongitudeDegrees>
            </Position>
            <AltitudeMeters>1634.199951171875</AltitudeMeters>
            <DistanceMeters>NAN</DistanceMeters>
          </Trackpoint>
          <Trackpoint>
            <Time>2018-12-30T11:00:47.000Z</Time>
            <Position>
              <LatitudeDegrees>40.78645708970725536346435546875</LatitudeDegrees>
              <LongitudeDegrees>-4.06650312244892120361328125</LongitudeDegrees>
            </Position>
            <AltitudeMeters>1634.5999755859375</AltitudeMeters>
            <DistanceMeters>NAN</DistanceMeters>
          </Trackpoint>
          <Trackpoint>
            <Time>2018-12-30T11:00:48.000Z</Time>
            <Position>
              <LatitudeDegrees>40.78645524568855762481689453125</LatitudeDegrees>
              <LongitudeDegrees>-4.0664969198405742645263671875</LongitudeDegrees>
            </Position>
            <AltitudeMeters>1634.800048828125</AltitudeMeters>
            <DistanceMeters>NAN</DistanceMeters>
          </Trackpoint>
          <Trackpoint>
            <Time>2018-12-30T11:00:49.000Z</Time>
            <Position>
              <LatitudeDegrees>40.786456167697906494140625</LatitudeDegrees>
              <LongitudeDegrees>-4.06649239361286163330078125</LongitudeDegrees>
            </Position>
            <AltitudeMeters>1635</AltitudeMeters>
            <DistanceMeters>NAN</DistanceMeters>
          </Trackpoint>
          <Trackpoint>
            <Time>2018-12-30T11:00:50.000Z</Time>
            <Position>
              <LatitudeDegrees>40.78646211884915828704833984375</LatitudeDegrees>
              <LongitudeDegrees>-4.06648342497646808624267578125</LongitudeDegrees>
            </Position>
            <AltitudeMeters>1635</AltitudeMeters>
            <DistanceMeters>NAN</DistanceMeters>
          </Trackpoint>
          <Trackpoint>
            <Time>2018-12-30T11:00:51.000Z</Time>
            <Position>
              <LatitudeDegrees>40.7864680700004100799560546875</LatitudeDegrees>
              <LongitudeDegrees>-4.06647269614040851593017578125</LongitudeDegrees>
            </Position>
            <AltitudeMeters>1635</AltitudeMeters>
            <DistanceMeters>NAN</DistanceMeters>
          </Trackpoint>
          <Trackpoint>
            <Time>2018-12-30T11:00:52.000Z</Time>
            <Position>
              <LatitudeDegrees>40.786471255123615264892578125</LatitudeDegrees>
              <LongitudeDegrees>-4.06645962037146091461181640625</LongitudeDegrees>
            </Position>
            <AltitudeMeters>1635.199951171875</AltitudeMeters>
            <DistanceMeters>NAN</DistanceMeters>
          </Trackpoint>
          <Trackpoint>
            <Time>2018-12-30T11:00:53.000Z</Time>
            <Position>
              <LatitudeDegrees>40.7864771224558353424072265625</LatitudeDegrees>
              <LongitudeDegrees>-4.06645626761019229888916015625</LongitudeDegrees>
            </Position>
            <AltitudeMeters>1635</AltitudeMeters>
            <DistanceMeters>NAN</DistanceMeters>
          </Trackpoint>
          <Trackpoint>
            <Time>2018-12-30T11:00:54.000Z</Time>
            <Position>
              <LatitudeDegrees>40.7864789664745330810546875</LatitudeDegrees>
              <LongitudeDegrees>-4.066445790231227874755859375</LongitudeDegrees>
            </Position>
            <AltitudeMeters>1635</AltitudeMeters>
            <DistanceMeters>NAN</DistanceMeters>
          </Trackpoint>
          <Trackpoint>
            <Time>2018-12-30T11:00:55.000Z</Time>
            <Position>
              <LatitudeDegrees>40.786480642855167388916015625</LatitudeDegrees>
              <LongitudeDegrees>-4.06643598340451717376708984375</LongitudeDegrees>
            </Position>
            <AltitudeMeters>1635</AltitudeMeters>
            <DistanceMeters>NAN</DistanceMeters>
          </Trackpoint>
          <Trackpoint>
            <Time>2018-12-30T11:00:56.000Z</Time>
            <Position>
              <LatitudeDegrees>40.78649464063346385955810546875</LatitudeDegrees>
              <LongitudeDegrees>-4.06641838140785694122314453125</LongitudeDegrees>
            </Position>
            <AltitudeMeters>1635</AltitudeMeters>
            <DistanceMeters>NAN</DistanceMeters>
          </Trackpoint>
          <Trackpoint>
            <Time>2018-12-30T11:00:57.000Z</Time>
            <Position>
              <LatitudeDegrees>40.78649464063346385955810546875</LatitudeDegrees>
              <LongitudeDegrees>-4.06641838140785694122314453125</LongitudeDegrees>
            </Position>
            <AltitudeMeters>1635</AltitudeMeters>
            <DistanceMeters>NAN</DistanceMeters>
          </Trackpoint>
          <Trackpoint>
            <Time>2018-12-30T11:00:58.000Z</Time>
            <Position>
              <LatitudeDegrees>40.78650369308888912200927734375</LatitudeDegrees>
              <LongitudeDegrees>-4.06641033478081226348876953125</LongitudeDegrees>
            </Position>
            <AltitudeMeters>1635</AltitudeMeters>
            <DistanceMeters>NAN</DistanceMeters>
          </Trackpoint>
          <Trackpoint>
            <Time>2018-12-30T11:00:59.000Z</Time>
            <Position>
              <LatitudeDegrees>40.78651249408721923828125</LatitudeDegrees>
              <LongitudeDegrees>-4.0664013661444187164306640625</LongitudeDegrees>
            </Position>
            <AltitudeMeters>1635</AltitudeMeters>
            <DistanceMeters>NAN</DistanceMeters>
          </Trackpoint>
          <Trackpoint>
            <Time>2018-12-30T11:01:00.000Z</Time>
            <Position>
              <LatitudeDegrees>40.7865218818187713623046875</LatitudeDegrees>
              <LongitudeDegrees>-4.06639658845961093902587890625</LongitudeDegrees>
            </Position>
            <AltitudeMeters>1635.199951171875</AltitudeMeters>
            <DistanceMeters>NAN</DistanceMeters>
          </Trackpoint>
          <Trackpoint>
            <Time>2018-12-30T11:01:01.000Z</Time>
            <Position>
              <LatitudeDegrees>40.78653135336935520172119140625</LatitudeDegrees>
              <LongitudeDegrees>-4.0663906373083591461181640625</LongitudeDegrees>
            </Position>
            <AltitudeMeters>1635.4000244140625</AltitudeMeters>
            <DistanceMeters>NAN</DistanceMeters>
          </Trackpoint>
          <Trackpoint>
            <Time>2018-12-30T11:01:02.000Z</Time>
            <Position>
              <LatitudeDegrees>40.78654426150023937225341796875</LatitudeDegrees>
              <LongitudeDegrees>-4.0663882903754711151123046875</LongitudeDegrees>
            </Position>
            <AltitudeMeters>1635.4000244140625</AltitudeMeters>
            <DistanceMeters>NAN</DistanceMeters>
          </Trackpoint>
          <Trackpoint>
            <Time>2018-12-30T11:01:03.000Z</Time>
            <Position>
              <LatitudeDegrees>40.78655448742210865020751953125</LatitudeDegrees>
              <LongitudeDegrees>-4.0663839317858219146728515625</LongitudeDegrees>
            </Position>
            <AltitudeMeters>1635.4000244140625</AltitudeMeters>
            <DistanceMeters>NAN</DistanceMeters>
          </Trackpoint>
          <Trackpoint>
            <Time>2018-12-30T11:01:04.000Z</Time>
            <Position>
              <LatitudeDegrees>40.7865679822862148284912109375</LatitudeDegrees>
              <LongitudeDegrees>-4.06637705862522125244140625</LongitudeDegrees>
            </Position>
            <AltitudeMeters>1635.5999755859375</AltitudeMeters>
            <DistanceMeters>NAN</DistanceMeters>
          </Trackpoint>
          <Trackpoint>
            <Time>2018-12-30T11:01:05.000Z</Time>
            <Position>
              <LatitudeDegrees>40.7865713350474834442138671875</LatitudeDegrees>
              <LongitudeDegrees>-4.06635618768632411956787109375</LongitudeDegrees>
            </Position>
            <AltitudeMeters>1635.5999755859375</AltitudeMeters>
            <DistanceMeters>NAN</DistanceMeters>
          </Trackpoint>
          <Trackpoint>
            <Time>2018-12-30T11:01:06.000Z</Time>
            <Position>
              <LatitudeDegrees>40.78656840138137340545654296875</LatitudeDegrees>
              <LongitudeDegrees>-4.066329784691333770751953125</LongitudeDegrees>
            </Position>
            <AltitudeMeters>1635.800048828125</AltitudeMeters>
            <DistanceMeters>NAN</DistanceMeters>
          </Trackpoint>
          <Trackpoint>
            <Time>2018-12-30T11:01:07.000Z</Time>
            <Position>
              <LatitudeDegrees>40.78657192178070545196533203125</LatitudeDegrees>
              <LongitudeDegrees>-4.06631846912205219268798828125</LongitudeDegrees>
            </Position>
            <AltitudeMeters>1635.800048828125</AltitudeMeters>
            <DistanceMeters>NAN</DistanceMeters>
          </Trackpoint>
          <Trackpoint>
            <Time>2018-12-30T11:01:08.000Z</Time>
            <Position>
              <LatitudeDegrees>40.7865782082080841064453125</LatitudeDegrees>
              <LongitudeDegrees>-4.066313691437244415283203125</LongitudeDegrees>
            </Position>
            <AltitudeMeters>1635.800048828125</AltitudeMeters>
            <DistanceMeters>NAN</DistanceMeters>
          </Trackpoint>
          <Trackpoint>
            <Time>2018-12-30T11:01:09.000Z</Time>
            <Position>
              <LatitudeDegrees>40.7865884341299533843994140625</LatitudeDegrees>
              <LongitudeDegrees>-4.06631293706595897674560546875</LongitudeDegrees>
            </Position>
            <AltitudeMeters>1636</AltitudeMeters>
            <DistanceMeters>NAN</DistanceMeters>
          </Trackpoint>
          <Trackpoint>
            <Time>2018-12-30T11:01:10.000Z</Time>
            <Position>
              <LatitudeDegrees>40.78660176135599613189697265625</LatitudeDegrees>
              <LongitudeDegrees>-4.0663111768662929534912109375</LongitudeDegrees>
            </Position>
            <AltitudeMeters>1636</AltitudeMeters>
            <DistanceMeters>NAN</DistanceMeters>
          </Trackpoint>
          <Trackpoint>
            <Time>2018-12-30T11:01:11.000Z</Time>
            <Position>
              <LatitudeDegrees>40.78661433421075344085693359375</LatitudeDegrees>
              <LongitudeDegrees>-4.06630757264792919158935546875</LongitudeDegrees>
            </Position>
            <AltitudeMeters>1636.4000244140625</AltitudeMeters>
            <DistanceMeters>NAN</DistanceMeters>
          </Trackpoint>
          <Trackpoint>
            <Time>2018-12-30T11:01:12.000Z</Time>
            <Position>
              <LatitudeDegrees>40.786622129380702972412109375</LatitudeDegrees>
              <LongitudeDegrees>-4.06630036421120166778564453125</LongitudeDegrees>
            </Position>
            <AltitudeMeters>1636.800048828125</AltitudeMeters>
            <DistanceMeters>NAN</DistanceMeters>
          </Trackpoint>
          <Trackpoint>
            <Time>2018-12-30T11:01:13.000Z</Time>
            <Position>
              <LatitudeDegrees>40.7866290025413036346435546875</LatitudeDegrees>
              <LongitudeDegrees>-4.06629516743123531341552734375</LongitudeDegrees>
            </Position>
            <AltitudeMeters>1637</AltitudeMeters>
            <DistanceMeters>NAN</DistanceMeters>
          </Trackpoint>
          <Trackpoint>
            <Time>2018-12-30T11:01:14.000Z</Time>
            <Position>
              <LatitudeDegrees>40.7866397313773632049560546875</LatitudeDegrees>
              <LongitudeDegrees>-4.06629080884158611297607421875</LongitudeDegrees>
            </Position>
            <AltitudeMeters>1637.199951171875</AltitudeMeters>
            <DistanceMeters>NAN</DistanceMeters>
          </Trackpoint>
          <Trackpoint>
            <Time>2018-12-30T11:01:15.000Z</Time>
            <Position>
              <LatitudeDegrees>40.7866479456424713134765625</LatitudeDegrees>
              <LongitudeDegrees>-4.06628510914742946624755859375</LongitudeDegrees>
            </Position>
            <AltitudeMeters>1637.4000244140625</AltitudeMeters>
            <DistanceMeters>NAN</DistanceMeters>
          </Trackpoint>
          <Trackpoint>
            <Time>2018-12-30T11:01:16.000Z</Time>
            <Position>
              <LatitudeDegrees>40.78666680492460727691650390625</LatitudeDegrees>
              <LongitudeDegrees>-4.06628058291971683502197265625</LongitudeDegrees>
            </Position>
            <AltitudeMeters>1637.4000244140625</AltitudeMeters>
            <DistanceMeters>NAN</DistanceMeters>
          </Trackpoint>
          <Trackpoint>
            <Time>2018-12-30T11:01:17.000Z</Time>
            <Position>
              <LatitudeDegrees>40.78666680492460727691650390625</LatitudeDegrees>
              <LongitudeDegrees>-4.06628058291971683502197265625</LongitudeDegrees>
            </Position>
            <AltitudeMeters>1637.5999755859375</AltitudeMeters>
            <DistanceMeters>NAN</DistanceMeters>
          </Trackpoint>
          <Trackpoint>
            <Time>2018-12-30T11:01:18.000Z</Time>
            <Position>
              <LatitudeDegrees>40.78667552210390567779541015625</LatitudeDegrees>
              <LongitudeDegrees>-4.0662766434252262115478515625</LongitudeDegrees>
            </Position>
            <AltitudeMeters>1637.5999755859375</AltitudeMeters>
            <DistanceMeters>NAN</DistanceMeters>
          </Trackpoint>
          <Trackpoint>
            <Time>2018-12-30T11:01:19.000Z</Time>
            <Position>
              <LatitudeDegrees>40.78668415546417236328125</LatitudeDegrees>
              <LongitudeDegrees>-4.0662753023207187652587890625</LongitudeDegrees>
            </Position>
            <AltitudeMeters>1638</AltitudeMeters>
            <DistanceMeters>NAN</DistanceMeters>
          </Trackpoint>
          <Trackpoint>
            <Time>2018-12-30T11:01:20.000Z</Time>
            <Position>
              <LatitudeDegrees>40.78669681213796138763427734375</LatitudeDegrees>
              <LongitudeDegrees>-4.066276140511035919189453125</LongitudeDegrees>
            </Position>
            <AltitudeMeters>1638</AltitudeMeters>
            <DistanceMeters>NAN</DistanceMeters>
          </Trackpoint>
          <Trackpoint>
            <Time>2018-12-30T11:01:21.000Z</Time>
            <Position>
              <LatitudeDegrees>40.7867096364498138427734375</LatitudeDegrees>
              <LongitudeDegrees>-4.06627823598682880401611328125</LongitudeDegrees>
            </Position>
            <AltitudeMeters>1638</AltitudeMeters>
            <DistanceMeters>NAN</DistanceMeters>
          </Trackpoint>
          <Trackpoint>
            <Time>2018-12-30T11:01:22.000Z</Time>
            <Position>
              <LatitudeDegrees>40.786721371114253997802734375</LatitudeDegrees>
              <LongitudeDegrees>-4.0662830136716365814208984375</LongitudeDegrees>
            </Position>
            <AltitudeMeters>1638</AltitudeMeters>
            <DistanceMeters>NAN</DistanceMeters>
          </Trackpoint>
          <Trackpoint>
            <Time>2018-12-30T11:01:23.000Z</Time>
            <Position>
              <LatitudeDegrees>40.78674106858670711517333984375</LatitudeDegrees>
              <LongitudeDegrees>-4.06627538613975048065185546875</LongitudeDegrees>
            </Position>
            <AltitudeMeters>1638</AltitudeMeters>
            <DistanceMeters>NAN</DistanceMeters>
          </Trackpoint>
          <Trackpoint>
            <Time>2018-12-30T11:01:24.000Z</Time>
            <Position>
              <LatitudeDegrees>40.78674106858670711517333984375</LatitudeDegrees>
              <LongitudeDegrees>-4.06627538613975048065185546875</LongitudeDegrees>
            </Position>
            <AltitudeMeters>1638</AltitudeMeters>
            <DistanceMeters>NAN</DistanceMeters>
          </Trackpoint>
          <Trackpoint>
            <Time>2018-12-30T11:01:25.000Z</Time>
            <Position>
              <LatitudeDegrees>40.7867510430514812469482421875</LatitudeDegrees>
              <LongitudeDegrees>-4.06626851297914981842041015625</LongitudeDegrees>
            </Position>
            <AltitudeMeters>1638</AltitudeMeters>
            <DistanceMeters>NAN</DistanceMeters>
          </Trackpoint>
          <Trackpoint>
            <Time>2018-12-30T11:01:26.000Z</Time>
            <Position>
              <LatitudeDegrees>40.78676135279238224029541015625</LatitudeDegrees>
              <LongitudeDegrees>-4.06626046635210514068603515625</LongitudeDegrees>
            </Position>
            <AltitudeMeters>1638</AltitudeMeters>
            <DistanceMeters>NAN</DistanceMeters>
          </Trackpoint>
          <Trackpoint>
            <Time>2018-12-30T11:01:27.000Z</Time>
            <Position>
              <LatitudeDegrees>40.78677459619939327239990234375</LatitudeDegrees>
              <LongitudeDegrees>-4.06625996343791484832763671875</LongitudeDegrees>
            </Position>
            <AltitudeMeters>1638</AltitudeMeters>
            <DistanceMeters>NAN</DistanceMeters>
          </Trackpoint>
          <Trackpoint>
            <Time>2018-12-30T11:01:28.000Z</Time>
            <Position>
              <LatitudeDegrees>40.786786414682865142822265625</LatitudeDegrees>
              <LongitudeDegrees>-4.06626163981854915618896484375</LongitudeDegrees>
            </Position>
            <AltitudeMeters>1638</AltitudeMeters>
            <DistanceMeters>NAN</DistanceMeters>
          </Trackpoint>
          <Trackpoint>
            <Time>2018-12-30T11:01:29.000Z</Time>
            <Position>
              <LatitudeDegrees>40.786799155175685882568359375</LatitudeDegrees>
              <LongitudeDegrees>-4.066262729465961456298828125</LongitudeDegrees>
            </Position>
            <AltitudeMeters>1638.199951171875</AltitudeMeters>
            <DistanceMeters>NAN</DistanceMeters>
          </Trackpoint>
          <Trackpoint>
            <Time>2018-12-30T11:01:30.000Z</Time>
            <Position>
              <LatitudeDegrees>40.78681013546884059906005859375</LatitudeDegrees>
              <LongitudeDegrees>-4.06626113690435886383056640625</LongitudeDegrees>
            </Position>
            <AltitudeMeters>1638.4000244140625</AltitudeMeters>
            <DistanceMeters>NAN</DistanceMeters>
          </Trackpoint>
          <Trackpoint>
            <Time>2018-12-30T11:01:31.000Z</Time>
            <Position>
              <LatitudeDegrees>40.786820612847805023193359375</LatitudeDegrees>
              <LongitudeDegrees>-4.0662575326859951019287109375</LongitudeDegrees>
            </Position>
            <AltitudeMeters>1638.4000244140625</AltitudeMeters>
            <DistanceMeters>NAN</DistanceMeters>
          </Trackpoint>
          <Trackpoint>
            <Time>2018-12-30T11:01:32.000Z</Time>
            <Position>
              <LatitudeDegrees>40.786831676959991455078125</LatitudeDegrees>
              <LongitudeDegrees>-4.06625845469534397125244140625</LongitudeDegrees>
            </Position>
            <AltitudeMeters>1638.5999755859375</AltitudeMeters>
            <DistanceMeters>NAN</DistanceMeters>
          </Trackpoint>
          <Trackpoint>
            <Time>2018-12-30T11:01:33.000Z</Time>
            <Position>
              <LatitudeDegrees>40.7868432439863681793212890625</LatitudeDegrees>
              <LongitudeDegrees>-4.06625644303858280181884765625</LongitudeDegrees>
            </Position>
            <AltitudeMeters>1638.5999755859375</AltitudeMeters>
            <DistanceMeters>NAN</DistanceMeters>
          </Trackpoint>
          <Trackpoint>
            <Time>2018-12-30T11:01:34.000Z</Time>
            <Position>
              <LatitudeDegrees>40.7868536375463008880615234375</LatitudeDegrees>
              <LongitudeDegrees>-4.06625778414309024810791015625</LongitudeDegrees>
            </Position>
            <AltitudeMeters>1638.5999755859375</AltitudeMeters>
            <DistanceMeters>NAN</DistanceMeters>
          </Trackpoint>
          <Trackpoint>
            <Time>2018-12-30T11:01:35.000Z</Time>
            <Position>
              <LatitudeDegrees>40.7868590019643306732177734375</LatitudeDegrees>
              <LongitudeDegrees>-4.0662501566112041473388671875</LongitudeDegrees>
            </Position>
            <AltitudeMeters>1638.5999755859375</AltitudeMeters>
            <DistanceMeters>NAN</DistanceMeters>
          </Trackpoint>
          <Trackpoint>
            <Time>2018-12-30T11:01:36.000Z</Time>
            <Position>
              <LatitudeDegrees>40.786864869296550750732421875</LatitudeDegrees>
              <LongitudeDegrees>-4.06624722294509410858154296875</LongitudeDegrees>
            </Position>
            <AltitudeMeters>1638.800048828125</AltitudeMeters>
            <DistanceMeters>NAN</DistanceMeters>
          </Trackpoint>
          <Trackpoint>
            <Time>2018-12-30T11:01:37.000Z</Time>
            <Position>
              <LatitudeDegrees>40.7868764363229274749755859375</LatitudeDegrees>
              <LongitudeDegrees>-4.066253006458282470703125</LongitudeDegrees>
            </Position>
            <AltitudeMeters>1639</AltitudeMeters>
            <DistanceMeters>NAN</DistanceMeters>
          </Trackpoint>
          <Trackpoint>
            <Time>2018-12-30T11:01:38.000Z</Time>
            <Position>
              <LatitudeDegrees>40.78688356094062328338623046875</LatitudeDegrees>
              <LongitudeDegrees>-4.06624906696379184722900390625</LongitudeDegrees>
            </Position>
            <AltitudeMeters>1639.199951171875</AltitudeMeters>
            <DistanceMeters>NAN</DistanceMeters>
          </Trackpoint>
          <Trackpoint>
            <Time>2018-12-30T11:01:39.000Z</Time>
            <Position>
              <LatitudeDegrees>40.78689579851925373077392578125</LatitudeDegrees>
              <LongitudeDegrees>-4.0662501566112041473388671875</LongitudeDegrees>
            </Position>
            <AltitudeMeters>1639.4000244140625</AltitudeMeters>
            <DistanceMeters>NAN</DistanceMeters>
          </Trackpoint>
          <Trackpoint>
            <Time>2018-12-30T11:01:40.000Z</Time>
            <Position>
              <LatitudeDegrees>40.7869072817265987396240234375</LatitudeDegrees>
              <LongitudeDegrees>-4.06624965369701385498046875</LongitudeDegrees>
            </Position>
            <AltitudeMeters>1639.4000244140625</AltitudeMeters>
            <DistanceMeters>NAN</DistanceMeters>
          </Trackpoint>
          <Trackpoint>
            <Time>2018-12-30T11:01:41.000Z</Time>
            <Position>
              <LatitudeDegrees>40.78691323287785053253173828125</LatitudeDegrees>
              <LongitudeDegrees>-4.06624470837414264678955078125</LongitudeDegrees>
            </Position>
            <AltitudeMeters>1639.5999755859375</AltitudeMeters>
            <DistanceMeters>NAN</DistanceMeters>
          </Trackpoint>
          <Trackpoint>
            <Time>2018-12-30T11:01:42.000Z</Time>
            <Position>
              <LatitudeDegrees>40.78692362643778324127197265625</LatitudeDegrees>
              <LongitudeDegrees>-4.06624873168766498565673828125</LongitudeDegrees>
            </Position>
            <AltitudeMeters>1639.5999755859375</AltitudeMeters>
            <DistanceMeters>NAN</DistanceMeters>
          </Trackpoint>
          <Trackpoint>
            <Time>2018-12-30T11:01:43.000Z</Time>
            <Position>
              <LatitudeDegrees>40.78693435527384281158447265625</LatitudeDegrees>
              <LongitudeDegrees>-4.06625661067664623260498046875</LongitudeDegrees>
            </Position>
            <AltitudeMeters>1639.800048828125</AltitudeMeters>
            <DistanceMeters>NAN</DistanceMeters>
          </Trackpoint>
          <Trackpoint>
            <Time>2018-12-30T11:01:44.000Z</Time>
            <Position>
              <LatitudeDegrees>40.78694307245314121246337890625</LatitudeDegrees>
              <LongitudeDegrees>-4.06625443138182163238525390625</LongitudeDegrees>
            </Position>
            <AltitudeMeters>1640</AltitudeMeters>
            <DistanceMeters>NAN</DistanceMeters>
          </Trackpoint>
          <Trackpoint>
            <Time>2018-12-30T11:01:45.000Z</Time>
            <Position>
              <LatitudeDegrees>40.7869537174701690673828125</LatitudeDegrees>
              <LongitudeDegrees>-4.066251330077648162841796875</LongitudeDegrees>
            </Position>
            <AltitudeMeters>1640</AltitudeMeters>
            <DistanceMeters>NAN</DistanceMeters>
          </Trackpoint>
          <Trackpoint>
            <Time>2018-12-30T11:01:46.000Z</Time>
            <Position>
              <LatitudeDegrees>40.7869671285152435302734375</LatitudeDegrees>
              <LongitudeDegrees>-4.06625158153474330902099609375</LongitudeDegrees>
            </Position>
            <AltitudeMeters>1640</AltitudeMeters>
            <DistanceMeters>NAN</DistanceMeters>
          </Trackpoint>
          <Trackpoint>
            <Time>2018-12-30T11:01:47.000Z</Time>
            <Position>
              <LatitudeDegrees>40.7869773544371128082275390625</LatitudeDegrees>
              <LongitudeDegrees>-4.06624940223991870880126953125</LongitudeDegrees>
            </Position>
            <AltitudeMeters>1640</AltitudeMeters>
            <DistanceMeters>NAN</DistanceMeters>
          </Trackpoint>
          <Trackpoint>
            <Time>2018-12-30T11:01:48.000Z</Time>
            <Position>
              <LatitudeDegrees>40.78698657453060150146484375</LatitudeDegrees>
              <LongitudeDegrees>-4.06624026596546173095703125</LongitudeDegrees>
            </Position>
            <AltitudeMeters>1640.199951171875</AltitudeMeters>
            <DistanceMeters>NAN</DistanceMeters>
          </Trackpoint>
          <Trackpoint>
            <Time>2018-12-30T11:01:49.000Z</Time>
            <Position>
              <LatitudeDegrees>40.7869854010641574859619140625</LatitudeDegrees>
              <LongitudeDegrees>-4.0662323869764804840087890625</LongitudeDegrees>
            </Position>
            <AltitudeMeters>1640.199951171875</AltitudeMeters>
            <DistanceMeters>NAN</DistanceMeters>
          </Trackpoint>
          <Trackpoint>
            <Time>2018-12-30T11:01:50.000Z</Time>
            <Position>
              <LatitudeDegrees>40.7869911007583141326904296875</LatitudeDegrees>
              <LongitudeDegrees>-4.0662367455661296844482421875</LongitudeDegrees>
            </Position>
            <AltitudeMeters>1640.4000244140625</AltitudeMeters>
            <DistanceMeters>NAN</DistanceMeters>
          </Trackpoint>
          <Trackpoint>
            <Time>2018-12-30T11:01:51.000Z</Time>
            <Position>
              <LatitudeDegrees>40.7870068587362766265869140625</LatitudeDegrees>
              <LongitudeDegrees>-4.06626029871404170989990234375</LongitudeDegrees>
            </Position>
            <AltitudeMeters>1640.800048828125</AltitudeMeters>
            <DistanceMeters>NAN</DistanceMeters>
          </Trackpoint>
          <Trackpoint>
            <Time>2018-12-30T11:01:52.000Z</Time>
            <Position>
              <LatitudeDegrees>40.78701800666749477386474609375</LatitudeDegrees>
              <LongitudeDegrees>-4.066272787749767303466796875</LongitudeDegrees>
            </Position>
            <AltitudeMeters>1641</AltitudeMeters>
            <DistanceMeters>NAN</DistanceMeters>
          </Trackpoint>
          <Trackpoint>
            <Time>2018-12-30T11:01:53.000Z</Time>
            <Position>
              <LatitudeDegrees>40.7870323397219181060791015625</LatitudeDegrees>
              <LongitudeDegrees>-4.0662753023207187652587890625</LongitudeDegrees>
            </Position>
            <AltitudeMeters>1641.199951171875</AltitudeMeters>
            <DistanceMeters>NAN</DistanceMeters>
          </Trackpoint>
          <Trackpoint>
            <Time>2018-12-30T11:01:54.000Z</Time>
            <Position>
              <LatitudeDegrees>40.7870484329760074615478515625</LatitudeDegrees>
              <LongitudeDegrees>-4.0662783198058605194091796875</LongitudeDegrees>
            </Position>
            <AltitudeMeters>1641.5999755859375</AltitudeMeters>
            <DistanceMeters>NAN</DistanceMeters>
          </Trackpoint>
          <Trackpoint>
            <Time>2018-12-30T11:01:55.000Z</Time>
            <Position>
              <LatitudeDegrees>40.78705773688852787017822265625</LatitudeDegrees>
              <LongitudeDegrees>-4.06627940945327281951904296875</LongitudeDegrees>
            </Position>
            <AltitudeMeters>1641.800048828125</AltitudeMeters>
            <DistanceMeters>NAN</DistanceMeters>
          </Trackpoint>
          <Trackpoint>
            <Time>2018-12-30T11:01:56.000Z</Time>
            <Position>
              <LatitudeDegrees>40.78707081265747547149658203125</LatitudeDegrees>
              <LongitudeDegrees>-4.0662833489477634429931640625</LongitudeDegrees>
            </Position>
            <AltitudeMeters>1642</AltitudeMeters>
            <DistanceMeters>NAN</DistanceMeters>
          </Trackpoint>
          <Trackpoint>
            <Time>2018-12-30T11:01:57.000Z</Time>
            <Position>
              <LatitudeDegrees>40.78708187676966190338134765625</LatitudeDegrees>
              <LongitudeDegrees>-4.0662860311567783355712890625</LongitudeDegrees>
            </Position>
            <AltitudeMeters>1642.199951171875</AltitudeMeters>
            <DistanceMeters>NAN</DistanceMeters>
          </Trackpoint>
          <Trackpoint>
            <Time>2018-12-30T11:01:58.000Z</Time>
            <Position>
              <LatitudeDegrees>40.787089504301548004150390625</LatitudeDegrees>
              <LongitudeDegrees>-4.06628586351871490478515625</LongitudeDegrees>
            </Position>
            <AltitudeMeters>1642.199951171875</AltitudeMeters>
            <DistanceMeters>NAN</DistanceMeters>
          </Trackpoint>
          <Trackpoint>
            <Time>2018-12-30T11:01:59.000Z</Time>
            <Position>
              <LatitudeDegrees>40.78709428198635578155517578125</LatitudeDegrees>
              <LongitudeDegrees>-4.0662863664329051971435546875</LongitudeDegrees>
            </Position>
            <AltitudeMeters>1642.199951171875</AltitudeMeters>
            <DistanceMeters>NAN</DistanceMeters>
          </Trackpoint>
          <Trackpoint>
            <Time>2018-12-30T11:06:35.000Z</Time>
            <Position>
              <LatitudeDegrees>40.78720760531723499298095703125</LatitudeDegrees>
              <LongitudeDegrees>-4.06598805449903011322021484375</LongitudeDegrees>
            </Position>
            <AltitudeMeters>1642.5999755859375</AltitudeMeters>
            <DistanceMeters>NAN</DistanceMeters>
          </Trackpoint>
          <Trackpoint>
            <Time>2018-12-30T11:06:36.000Z</Time>
            <Position>
              <LatitudeDegrees>40.78721213154494762420654296875</LatitudeDegrees>
              <LongitudeDegrees>-4.06598252244293689727783203125</LongitudeDegrees>
            </Position>
            <AltitudeMeters>1642.800048828125</AltitudeMeters>
            <DistanceMeters>NAN</DistanceMeters>
          </Trackpoint>
          <Trackpoint>
            <Time>2018-12-30T11:06:37.000Z</Time>
            <Position>
              <LatitudeDegrees>40.78721053898334503173828125</LatitudeDegrees>
              <LongitudeDegrees>-4.06597129069268703460693359375</LongitudeDegrees>
            </Position>
            <AltitudeMeters>1643</AltitudeMeters>
            <DistanceMeters>NAN</DistanceMeters>
          </Trackpoint>
          <Trackpoint>
            <Time>2018-12-30T11:06:38.000Z</Time>
            <Position>
              <LatitudeDegrees>40.7872086949646472930908203125</LatitudeDegrees>
              <LongitudeDegrees>-4.0659614838659763336181640625</LongitudeDegrees>
            </Position>
            <AltitudeMeters>1643</AltitudeMeters>
            <DistanceMeters>NAN</DistanceMeters>
          </Trackpoint>
          <Trackpoint>
            <Time>2018-12-30T11:06:39.000Z</Time>
            <Position>
              <LatitudeDegrees>40.78720961697399616241455078125</LatitudeDegrees>
              <LongitudeDegrees>-4.0659571252763271331787109375</LongitudeDegrees>
            </Position>
            <AltitudeMeters>1643.199951171875</AltitudeMeters>
            <DistanceMeters>NAN</DistanceMeters>
          </Trackpoint>
          <Trackpoint>
            <Time>2018-12-30T11:06:40.000Z</Time>
            <Position>
              <LatitudeDegrees>40.78721632249653339385986328125</LatitudeDegrees>
              <LongitudeDegrees>-4.0659537725150585174560546875</LongitudeDegrees>
            </Position>
            <AltitudeMeters>1643.199951171875</AltitudeMeters>
            <DistanceMeters>NAN</DistanceMeters>
          </Trackpoint>
          <Trackpoint>
            <Time>2018-12-30T11:06:41.000Z</Time>
            <Position>
              <LatitudeDegrees>40.78722487203776836395263671875</LatitudeDegrees>
              <LongitudeDegrees>-4.0659433789551258087158203125</LongitudeDegrees>
            </Position>
            <AltitudeMeters>1643.199951171875</AltitudeMeters>
            <DistanceMeters>NAN</DistanceMeters>
          </Trackpoint>
          <Trackpoint>
            <Time>2018-12-30T11:06:42.000Z</Time>
            <Position>
              <LatitudeDegrees>40.7872324995696544647216796875</LatitudeDegrees>
              <LongitudeDegrees>-4.06593893654644489288330078125</LongitudeDegrees>
            </Position>
            <AltitudeMeters>1643.4000244140625</AltitudeMeters>
            <DistanceMeters>NAN</DistanceMeters>
          </Trackpoint>
          <Trackpoint>
            <Time>2018-12-30T11:06:43.000Z</Time>
            <Position>
              <LatitudeDegrees>40.78723459504544734954833984375</LatitudeDegrees>
              <LongitudeDegrees>-4.0659316442906856536865234375</LongitudeDegrees>
            </Position>
            <AltitudeMeters>1643.4000244140625</AltitudeMeters>
            <DistanceMeters>NAN</DistanceMeters>
          </Trackpoint>
          <Trackpoint>
            <Time>2018-12-30T11:06:44.000Z</Time>
            <Position>
              <LatitudeDegrees>40.78723459504544734954833984375</LatitudeDegrees>
              <LongitudeDegrees>-4.06591840088367462158203125</LongitudeDegrees>
            </Position>
            <AltitudeMeters>1643.5999755859375</AltitudeMeters>
            <DistanceMeters>NAN</DistanceMeters>
          </Trackpoint>
          <Trackpoint>
            <Time>2018-12-30T11:06:45.000Z</Time>
            <Position>
              <LatitudeDegrees>40.78723442740738391876220703125</LatitudeDegrees>
              <LongitudeDegrees>-4.0659054927527904510498046875</LongitudeDegrees>
            </Position>
            <AltitudeMeters>1643.5999755859375</AltitudeMeters>
            <DistanceMeters>NAN</DistanceMeters>
          </Trackpoint>
          <Trackpoint>
            <Time>2018-12-30T11:06:46.000Z</Time>
            <Position>
              <LatitudeDegrees>40.78723333775997161865234375</LatitudeDegrees>
              <LongitudeDegrees>-4.06589719466865062713623046875</LongitudeDegrees>
            </Position>
            <AltitudeMeters>1643.5999755859375</AltitudeMeters>
            <DistanceMeters>NAN</DistanceMeters>
          </Trackpoint>
          <Trackpoint>
            <Time>2018-12-30T11:06:47.000Z</Time>
            <Position>
              <LatitudeDegrees>40.78723409213125705718994140625</LatitudeDegrees>
              <LongitudeDegrees>-4.065888561308383941650390625</LongitudeDegrees>
            </Position>
            <AltitudeMeters>1643.5999755859375</AltitudeMeters>
            <DistanceMeters>NAN</DistanceMeters>
          </Trackpoint>
          <Trackpoint>
            <Time>2018-12-30T11:06:48.000Z</Time>
            <Position>
              <LatitudeDegrees>40.78723057173192501068115234375</LatitudeDegrees>
              <LongitudeDegrees>-4.06588160432875156402587890625</LongitudeDegrees>
            </Position>
            <AltitudeMeters>1643.800048828125</AltitudeMeters>
            <DistanceMeters>NAN</DistanceMeters>
          </Trackpoint>
          <Trackpoint>
            <Time>2018-12-30T11:06:49.000Z</Time>
            <Position>
              <LatitudeDegrees>40.78723073936998844146728515625</LatitudeDegrees>
              <LongitudeDegrees>-4.06587540172040462493896484375</LongitudeDegrees>
            </Position>
            <AltitudeMeters>1643.800048828125</AltitudeMeters>
            <DistanceMeters>NAN</DistanceMeters>
          </Trackpoint>
          <Trackpoint>
            <Time>2018-12-30T11:06:50.000Z</Time>
            <Position>
              <LatitudeDegrees>40.78723643906414508819580078125</LatitudeDegrees>
              <LongitudeDegrees>-4.06586936675012111663818359375</LongitudeDegrees>
            </Position>
            <AltitudeMeters>1643.800048828125</AltitudeMeters>
            <DistanceMeters>NAN</DistanceMeters>
          </Trackpoint>
          <Trackpoint>
            <Time>2018-12-30T11:06:51.000Z</Time>
            <Position>
              <LatitudeDegrees>40.78724347986280918121337890625</LatitudeDegrees>
              <LongitudeDegrees>-4.06586115248501300811767578125</LongitudeDegrees>
            </Position>
            <AltitudeMeters>1643.800048828125</AltitudeMeters>
            <DistanceMeters>NAN</DistanceMeters>
          </Trackpoint>
          <Trackpoint>
            <Time>2018-12-30T11:06:52.000Z</Time>
            <Position>
              <LatitudeDegrees>40.7872512750327587127685546875</LatitudeDegrees>
              <LongitudeDegrees>-4.06585025601089000701904296875</LongitudeDegrees>
            </Position>
            <AltitudeMeters>1644</AltitudeMeters>
            <DistanceMeters>NAN</DistanceMeters>
          </Trackpoint>
          <Trackpoint>
            <Time>2018-12-30T11:06:53.000Z</Time>
            <Position>
              <LatitudeDegrees>40.78725638799369335174560546875</LatitudeDegrees>
              <LongitudeDegrees>-4.06584195792675018310546875</LongitudeDegrees>
            </Position>
            <AltitudeMeters>1644</AltitudeMeters>
            <DistanceMeters>NAN</DistanceMeters>
          </Trackpoint>
          <Trackpoint>
            <Time>2018-12-30T11:06:54.000Z</Time>
            <Position>
              <LatitudeDegrees>40.78726342879235744476318359375</LatitudeDegrees>
              <LongitudeDegrees>-4.065836258232593536376953125</LongitudeDegrees>
            </Position>
            <AltitudeMeters>1644.4000244140625</AltitudeMeters>
            <DistanceMeters>NAN</DistanceMeters>
          </Trackpoint>
          <Trackpoint>
            <Time>2018-12-30T11:06:55.000Z</Time>
            <Position>
              <LatitudeDegrees>40.78726577572524547576904296875</LatitudeDegrees>
              <LongitudeDegrees>-4.06582988798618316650390625</LongitudeDegrees>
            </Position>
            <AltitudeMeters>1644.5999755859375</AltitudeMeters>
            <DistanceMeters>NAN</DistanceMeters>
          </Trackpoint>
          <Trackpoint>
            <Time>2018-12-30T11:06:56.000Z</Time>
            <Position>
              <LatitudeDegrees>40.78727759420871734619140625</LatitudeDegrees>
              <LongitudeDegrees>-4.0658233501017093658447265625</LongitudeDegrees>
            </Position>
            <AltitudeMeters>1644.800048828125</AltitudeMeters>
            <DistanceMeters>NAN</DistanceMeters>
          </Trackpoint>
          <Trackpoint>
            <Time>2018-12-30T11:06:57.000Z</Time>
            <Position>
              <LatitudeDegrees>40.78727759420871734619140625</LatitudeDegrees>
              <LongitudeDegrees>-4.0658233501017093658447265625</LongitudeDegrees>
            </Position>
            <AltitudeMeters>1645</AltitudeMeters>
            <DistanceMeters>NAN</DistanceMeters>
          </Trackpoint>
          <Trackpoint>
            <Time>2018-12-30T11:06:58.000Z</Time>
            <Position>
              <LatitudeDegrees>40.78728136606514453887939453125</LatitudeDegrees>
              <LongitudeDegrees>-4.0658149681985378265380859375</LongitudeDegrees>
            </Position>
            <AltitudeMeters>1645</AltitudeMeters>
            <DistanceMeters>NAN</DistanceMeters>
          </Trackpoint>
          <Trackpoint>
            <Time>2018-12-30T11:06:59.000Z</Time>
            <Position>
              <LatitudeDegrees>40.78728371299803256988525390625</LatitudeDegrees>
              <LongitudeDegrees>-4.0658089332282543182373046875</LongitudeDegrees>
            </Position>
            <AltitudeMeters>1645.199951171875</AltitudeMeters>
            <DistanceMeters>NAN</DistanceMeters>
          </Trackpoint>
          <Trackpoint>
            <Time>2018-12-30T11:07:00.000Z</Time>
            <Position>
              <LatitudeDegrees>40.7872831262648105621337890625</LatitudeDegrees>
              <LongitudeDegrees>-4.0658002160489559173583984375</LongitudeDegrees>
            </Position>
            <AltitudeMeters>1645</AltitudeMeters>
            <DistanceMeters>NAN</DistanceMeters>
          </Trackpoint>
          <Trackpoint>
            <Time>2018-12-30T11:07:01.000Z</Time>
            <Position>
              <LatitudeDegrees>40.78728086315095424652099609375</LatitudeDegrees>
              <LongitudeDegrees>-4.065789319574832916259765625</LongitudeDegrees>
            </Position>
            <AltitudeMeters>1645</AltitudeMeters>
            <DistanceMeters>NAN</DistanceMeters>
          </Trackpoint>
          <Trackpoint>
            <Time>2018-12-30T11:07:02.000Z</Time>
            <Position>
              <LatitudeDegrees>40.78727952204644680023193359375</LatitudeDegrees>
              <LongitudeDegrees>-4.06577381305396556854248046875</LongitudeDegrees>
            </Position>
            <AltitudeMeters>1644.800048828125</AltitudeMeters>
            <DistanceMeters>NAN</DistanceMeters>
          </Trackpoint>
          <Trackpoint>
            <Time>2018-12-30T11:07:03.000Z</Time>
            <Position>
              <LatitudeDegrees>40.7872807793319225311279296875</LatitudeDegrees>
              <LongitudeDegrees>-4.0657562948763370513916015625</LongitudeDegrees>
            </Position>
            <AltitudeMeters>1644.800048828125</AltitudeMeters>
            <DistanceMeters>NAN</DistanceMeters>
          </Trackpoint>
          <Trackpoint>
            <Time>2018-12-30T11:07:04.000Z</Time>
            <Position>
              <LatitudeDegrees>40.7872804440557956695556640625</LatitudeDegrees>
              <LongitudeDegrees>-4.065738357603549957275390625</LongitudeDegrees>
            </Position>
            <AltitudeMeters>1644.800048828125</AltitudeMeters>
            <DistanceMeters>NAN</DistanceMeters>
          </Trackpoint>
          <Trackpoint>
            <Time>2018-12-30T11:07:05.000Z</Time>
            <Position>
              <LatitudeDegrees>40.787281282246112823486328125</LatitudeDegrees>
              <LongitudeDegrees>-4.0657227672636508941650390625</LongitudeDegrees>
            </Position>
            <AltitudeMeters>1645</AltitudeMeters>
            <DistanceMeters>NAN</DistanceMeters>
          </Trackpoint>
          <Trackpoint>
            <Time>2018-12-30T11:07:06.000Z</Time>
            <Position>
              <LatitudeDegrees>40.787281282246112823486328125</LatitudeDegrees>
              <LongitudeDegrees>-4.06570826657116413116455078125</LongitudeDegrees>
            </Position>
            <AltitudeMeters>1645</AltitudeMeters>
            <DistanceMeters>NAN</DistanceMeters>
          </Trackpoint>
          <Trackpoint>
            <Time>2018-12-30T11:07:07.000Z</Time>
            <Position>
              <LatitudeDegrees>40.78728161752223968505859375</LatitudeDegrees>
              <LongitudeDegrees>-4.06568882055580615997314453125</LongitudeDegrees>
            </Position>
            <AltitudeMeters>1645.199951171875</AltitudeMeters>
            <DistanceMeters>NAN</DistanceMeters>
          </Trackpoint>
          <Trackpoint>
            <Time>2018-12-30T11:07:08.000Z</Time>
            <Position>
              <LatitudeDegrees>40.7872784323990345001220703125</LatitudeDegrees>
              <LongitudeDegrees>-4.06566903926432132720947265625</LongitudeDegrees>
            </Position>
            <AltitudeMeters>1645.199951171875</AltitudeMeters>
            <DistanceMeters>NAN</DistanceMeters>
          </Trackpoint>
          <Trackpoint>
            <Time>2018-12-30T11:07:09.000Z</Time>
            <Position>
              <LatitudeDegrees>40.78727248124778270721435546875</LatitudeDegrees>
              <LongitudeDegrees>-4.0656508505344390869140625</LongitudeDegrees>
            </Position>
            <AltitudeMeters>1645.4000244140625</AltitudeMeters>
            <DistanceMeters>NAN</DistanceMeters>
          </Trackpoint>
          <Trackpoint>
            <Time>2018-12-30T11:07:10.000Z</Time>
            <Position>
              <LatitudeDegrees>40.78727365471422672271728515625</LatitudeDegrees>
              <LongitudeDegrees>-4.06565395183861255645751953125</LongitudeDegrees>
            </Position>
            <AltitudeMeters>1645.800048828125</AltitudeMeters>
            <DistanceMeters>NAN</DistanceMeters>
          </Trackpoint>
          <Trackpoint>
            <Time>2018-12-30T11:07:11.000Z</Time>
            <Position>
              <LatitudeDegrees>40.78727080486714839935302734375</LatitudeDegrees>
              <LongitudeDegrees>-4.065654538571834564208984375</LongitudeDegrees>
            </Position>
            <AltitudeMeters>1646</AltitudeMeters>
            <DistanceMeters>NAN</DistanceMeters>
          </Trackpoint>
          <Trackpoint>
            <Time>2018-12-30T11:07:12.000Z</Time>
            <Position>
              <LatitudeDegrees>40.78727566637098789215087890625</LatitudeDegrees>
              <LongitudeDegrees>-4.06565420329570770263671875</LongitudeDegrees>
            </Position>
            <AltitudeMeters>1646</AltitudeMeters>
            <DistanceMeters>NAN</DistanceMeters>
          </Trackpoint>
          <Trackpoint>
            <Time>2018-12-30T11:07:13.000Z</Time>
            <Position>
              <LatitudeDegrees>40.78727851621806621551513671875</LatitudeDegrees>
              <LongitudeDegrees>-4.06564892269670963287353515625</LongitudeDegrees>
            </Position>
            <AltitudeMeters>1646.199951171875</AltitudeMeters>
            <DistanceMeters>NAN</DistanceMeters>
          </Trackpoint>
          <Trackpoint>
            <Time>2018-12-30T11:07:14.000Z</Time>
            <Position>
              <LatitudeDegrees>40.7872861437499523162841796875</LatitudeDegrees>
              <LongitudeDegrees>-4.06564003787934780120849609375</LongitudeDegrees>
            </Position>
            <AltitudeMeters>1646.199951171875</AltitudeMeters>
            <DistanceMeters>NAN</DistanceMeters>
          </Trackpoint>
          <Trackpoint>
            <Time>2018-12-30T11:07:15.000Z</Time>
            <Position>
              <LatitudeDegrees>40.78729226253926753997802734375</LatitudeDegrees>
              <LongitudeDegrees>-4.0656292252242565155029296875</LongitudeDegrees>
            </Position>
            <AltitudeMeters>1646.199951171875</AltitudeMeters>
            <DistanceMeters>NAN</DistanceMeters>
          </Trackpoint>
          <Trackpoint>
            <Time>2018-12-30T11:07:16.000Z</Time>
            <Position>
              <LatitudeDegrees>40.78729569911956787109375</LatitudeDegrees>
              <LongitudeDegrees>-4.065621010959148406982421875</LongitudeDegrees>
            </Position>
            <AltitudeMeters>1646.199951171875</AltitudeMeters>
            <DistanceMeters>NAN</DistanceMeters>
          </Trackpoint>
          <Trackpoint>
            <Time>2018-12-30T11:07:17.000Z</Time>
            <Position>
              <LatitudeDegrees>40.78729863278567790985107421875</LatitudeDegrees>
              <LongitudeDegrees>-4.06561288051307201385498046875</LongitudeDegrees>
            </Position>
            <AltitudeMeters>1646.199951171875</AltitudeMeters>
            <DistanceMeters>NAN</DistanceMeters>
          </Trackpoint>
          <Trackpoint>
            <Time>2018-12-30T11:07:18.000Z</Time>
            <Position>
              <LatitudeDegrees>40.7873019017279148101806640625</LatitudeDegrees>
              <LongitudeDegrees>-4.06559997238218784332275390625</LongitudeDegrees>
            </Position>
            <AltitudeMeters>1646.199951171875</AltitudeMeters>
            <DistanceMeters>NAN</DistanceMeters>
          </Trackpoint>
          <Trackpoint>
            <Time>2018-12-30T11:07:19.000Z</Time>
            <Position>
              <LatitudeDegrees>40.7873049192130565643310546875</LatitudeDegrees>
              <LongitudeDegrees>-4.0655846334993839263916015625</LongitudeDegrees>
            </Position>
            <AltitudeMeters>1646.199951171875</AltitudeMeters>
            <DistanceMeters>NAN</DistanceMeters>
          </Trackpoint>
          <Trackpoint>
            <Time>2018-12-30T11:07:20.000Z</Time>
            <Position>
              <LatitudeDegrees>40.78731019981205463409423828125</LatitudeDegrees>
              <LongitudeDegrees>-4.06557398848235607147216796875</LongitudeDegrees>
            </Position>
            <AltitudeMeters>1646.199951171875</AltitudeMeters>
            <DistanceMeters>NAN</DistanceMeters>
          </Trackpoint>
          <Trackpoint>
            <Time>2018-12-30T11:07:21.000Z</Time>
            <Position>
              <LatitudeDegrees>40.787314809858798980712890625</LatitudeDegrees>
              <LongitudeDegrees>-4.065563678741455078125</LongitudeDegrees>
            </Position>
            <AltitudeMeters>1646.4000244140625</AltitudeMeters>
            <DistanceMeters>NAN</DistanceMeters>
          </Trackpoint>
          <Trackpoint>
            <Time>2018-12-30T11:07:22.000Z</Time>
            <Position>
              <LatitudeDegrees>40.7873179949820041656494140625</LatitudeDegrees>
              <LongitudeDegrees>-4.0655494295060634613037109375</LongitudeDegrees>
            </Position>
            <AltitudeMeters>1646.5999755859375</AltitudeMeters>
            <DistanceMeters>NAN</DistanceMeters>
          </Trackpoint>
          <Trackpoint>
            <Time>2018-12-30T11:07:23.000Z</Time>
            <Position>
              <LatitudeDegrees>40.78732243739068508148193359375</LatitudeDegrees>
              <LongitudeDegrees>-4.0655356831848621368408203125</LongitudeDegrees>
            </Position>
            <AltitudeMeters>1646.800048828125</AltitudeMeters>
            <DistanceMeters>NAN</DistanceMeters>
          </Trackpoint>
          <Trackpoint>
            <Time>2018-12-30T11:07:24.000Z</Time>
            <Position>
              <LatitudeDegrees>40.78732411377131938934326171875</LatitudeDegrees>
              <LongitudeDegrees>-4.06552621163427829742431640625</LongitudeDegrees>
            </Position>
            <AltitudeMeters>1647</AltitudeMeters>
            <DistanceMeters>NAN</DistanceMeters>
          </Trackpoint>
          <Trackpoint>
            <Time>2018-12-30T11:07:25.000Z</Time>
            <Position>
              <LatitudeDegrees>40.7873319089412689208984375</LatitudeDegrees>
              <LongitudeDegrees>-4.065518081188201904296875</LongitudeDegrees>
            </Position>
            <AltitudeMeters>1647</AltitudeMeters>
            <DistanceMeters>NAN</DistanceMeters>
          </Trackpoint>
          <Trackpoint>
            <Time>2018-12-30T11:07:26.000Z</Time>
            <Position>
              <LatitudeDegrees>40.78733433969318866729736328125</LatitudeDegrees>
              <LongitudeDegrees>-4.06551062129437923431396484375</LongitudeDegrees>
            </Position>
            <AltitudeMeters>1647</AltitudeMeters>
            <DistanceMeters>NAN</DistanceMeters>
          </Trackpoint>
          <Trackpoint>
            <Time>2018-12-30T11:07:27.000Z</Time>
            <Position>
              <LatitudeDegrees>40.78733148984611034393310546875</LatitudeDegrees>
              <LongitudeDegrees>-4.0655033290386199951171875</LongitudeDegrees>
            </Position>
            <AltitudeMeters>1647.199951171875</AltitudeMeters>
            <DistanceMeters>NAN</DistanceMeters>
          </Trackpoint>
          <Trackpoint>
            <Time>2018-12-30T11:07:28.000Z</Time>
            <Position>
              <LatitudeDegrees>40.7873357646167278289794921875</LatitudeDegrees>
              <LongitudeDegrees>-4.06549318693578243255615234375</LongitudeDegrees>
            </Position>
            <AltitudeMeters>1647.199951171875</AltitudeMeters>
            <DistanceMeters>NAN</DistanceMeters>
          </Trackpoint>
          <Trackpoint>
            <Time>2018-12-30T11:07:29.000Z</Time>
            <Position>
              <LatitudeDegrees>40.78733601607382297515869140625</LatitudeDegrees>
              <LongitudeDegrees>-4.0654863975942134857177734375</LongitudeDegrees>
            </Position>
            <AltitudeMeters>1647.4000244140625</AltitudeMeters>
            <DistanceMeters>NAN</DistanceMeters>
          </Trackpoint>
          <Trackpoint>
            <Time>2018-12-30T11:07:30.000Z</Time>
            <Position>
              <LatitudeDegrees>40.78734205104410648345947265625</LatitudeDegrees>
              <LongitudeDegrees>-4.06547424383461475372314453125</LongitudeDegrees>
            </Position>
            <AltitudeMeters>1647.4000244140625</AltitudeMeters>
            <DistanceMeters>NAN</DistanceMeters>
          </Trackpoint>
          <Trackpoint>
            <Time>2018-12-30T11:07:31.000Z</Time>
            <Position>
              <LatitudeDegrees>40.7873481698334217071533203125</LatitudeDegrees>
              <LongitudeDegrees>-4.065466783940792083740234375</LongitudeDegrees>
            </Position>
            <AltitudeMeters>1647.5999755859375</AltitudeMeters>
            <DistanceMeters>NAN</DistanceMeters>
          </Trackpoint>
          <Trackpoint>
            <Time>2018-12-30T11:07:32.000Z</Time>
            <Position>
              <LatitudeDegrees>40.787354372441768646240234375</LatitudeDegrees>
              <LongitudeDegrees>-4.06545999459922313690185546875</LongitudeDegrees>
            </Position>
            <AltitudeMeters>1647.800048828125</AltitudeMeters>
            <DistanceMeters>NAN</DistanceMeters>
          </Trackpoint>
          <Trackpoint>
            <Time>2018-12-30T11:07:33.000Z</Time>
            <Position>
              <LatitudeDegrees>40.7873619161546230316162109375</LatitudeDegrees>
              <LongitudeDegrees>-4.065451361238956451416015625</LongitudeDegrees>
            </Position>
            <AltitudeMeters>1647.800048828125</AltitudeMeters>
            <DistanceMeters>NAN</DistanceMeters>
          </Trackpoint>
          <Trackpoint>
            <Time>2018-12-30T11:07:34.000Z</Time>
            <Position>
              <LatitudeDegrees>40.78736870549619197845458984375</LatitudeDegrees>
              <LongitudeDegrees>-4.0654434822499752044677734375</LongitudeDegrees>
            </Position>
            <AltitudeMeters>1647.800048828125</AltitudeMeters>
            <DistanceMeters>NAN</DistanceMeters>
          </Trackpoint>
          <Trackpoint>
            <Time>2018-12-30T11:07:35.000Z</Time>
            <Position>
              <LatitudeDegrees>40.78737683594226837158203125</LatitudeDegrees>
              <LongitudeDegrees>-4.06543350778520107269287109375</LongitudeDegrees>
            </Position>
            <AltitudeMeters>1647.800048828125</AltitudeMeters>
            <DistanceMeters>NAN</DistanceMeters>
          </Trackpoint>
          <Trackpoint>
            <Time>2018-12-30T11:07:36.000Z</Time>
            <Position>
              <LatitudeDegrees>40.787383876740932464599609375</LatitudeDegrees>
              <LongitudeDegrees>-4.0654240362346172332763671875</LongitudeDegrees>
            </Position>
            <AltitudeMeters>1648</AltitudeMeters>
            <DistanceMeters>NAN</DistanceMeters>
          </Trackpoint>
          <Trackpoint>
            <Time>2018-12-30T11:07:37.000Z</Time>
            <Position>
              <LatitudeDegrees>40.7873909175395965576171875</LatitudeDegrees>
              <LongitudeDegrees>-4.06540333293378353118896484375</LongitudeDegrees>
            </Position>
            <AltitudeMeters>1648.199951171875</AltitudeMeters>
            <DistanceMeters>NAN</DistanceMeters>
          </Trackpoint>
          <Trackpoint>
            <Time>2018-12-30T11:07:38.000Z</Time>
            <Position>
              <LatitudeDegrees>40.7873909175395965576171875</LatitudeDegrees>
              <LongitudeDegrees>-4.06540333293378353118896484375</LongitudeDegrees>
            </Position>
            <AltitudeMeters>1648.199951171875</AltitudeMeters>
            <DistanceMeters>NAN</DistanceMeters>
          </Trackpoint>
          <Trackpoint>
            <Time>2018-12-30T11:07:39.000Z</Time>
            <Position>
              <LatitudeDegrees>40.78739485703408718109130859375</LatitudeDegrees>
              <LongitudeDegrees>-4.06539059244096279144287109375</LongitudeDegrees>
            </Position>
            <AltitudeMeters>1648.4000244140625</AltitudeMeters>
            <DistanceMeters>NAN</DistanceMeters>
          </Trackpoint>
          <Trackpoint>
            <Time>2018-12-30T11:07:40.000Z</Time>
            <Position>
              <LatitudeDegrees>40.7873998023569583892822265625</LatitudeDegrees>
              <LongitudeDegrees>-4.0653807856142520904541015625</LongitudeDegrees>
            </Position>
            <AltitudeMeters>1648.4000244140625</AltitudeMeters>
            <DistanceMeters>NAN</DistanceMeters>
          </Trackpoint>
          <Trackpoint>
            <Time>2018-12-30T11:07:41.000Z</Time>
            <Position>
              <LatitudeDegrees>40.787403993308544158935546875</LatitudeDegrees>
              <LongitudeDegrees>-4.06536980532109737396240234375</LongitudeDegrees>
            </Position>
            <AltitudeMeters>1648.4000244140625</AltitudeMeters>
            <DistanceMeters>NAN</DistanceMeters>
          </Trackpoint>
          <Trackpoint>
            <Time>2018-12-30T11:07:42.000Z</Time>
            <Position>
              <LatitudeDegrees>40.7874048314988613128662109375</LatitudeDegrees>
              <LongitudeDegrees>-4.06536008231341838836669921875</LongitudeDegrees>
            </Position>
            <AltitudeMeters>1648.5999755859375</AltitudeMeters>
            <DistanceMeters>NAN</DistanceMeters>
          </Trackpoint>
          <Trackpoint>
            <Time>2018-12-30T11:07:43.000Z</Time>
            <Position>
              <LatitudeDegrees>40.7874078489840030670166015625</LatitudeDegrees>
              <LongitudeDegrees>-4.06534985639154911041259765625</LongitudeDegrees>
            </Position>
            <AltitudeMeters>1648.5999755859375</AltitudeMeters>
            <DistanceMeters>NAN</DistanceMeters>
          </Trackpoint>
          <Trackpoint>
            <Time>2018-12-30T11:07:44.000Z</Time>
            <Position>
              <LatitudeDegrees>40.787410698831081390380859375</LatitudeDegrees>
              <LongitudeDegrees>-4.06533627770841121673583984375</LongitudeDegrees>
            </Position>
            <AltitudeMeters>1648.800048828125</AltitudeMeters>
            <DistanceMeters>NAN</DistanceMeters>
          </Trackpoint>
          <Trackpoint>
            <Time>2018-12-30T11:07:45.000Z</Time>
            <Position>
              <LatitudeDegrees>40.78741380013525485992431640625</LatitudeDegrees>
              <LongitudeDegrees>-4.06532336957752704620361328125</LongitudeDegrees>
            </Position>
            <AltitudeMeters>1648.800048828125</AltitudeMeters>
            <DistanceMeters>NAN</DistanceMeters>
          </Trackpoint>
          <Trackpoint>
            <Time>2018-12-30T11:07:46.000Z</Time>
            <Position>
              <LatitudeDegrees>40.787420757114887237548828125</LatitudeDegrees>
              <LongitudeDegrees>-4.06531096436083316802978515625</LongitudeDegrees>
            </Position>
            <AltitudeMeters>1649</AltitudeMeters>
            <DistanceMeters>NAN</DistanceMeters>
          </Trackpoint>
          <Trackpoint>
            <Time>2018-12-30T11:07:47.000Z</Time>
            <Position>
              <LatitudeDegrees>40.78742184676229953765869140625</LatitudeDegrees>
              <LongitudeDegrees>-4.06529503874480724334716796875</LongitudeDegrees>
            </Position>
            <AltitudeMeters>1649</AltitudeMeters>
            <DistanceMeters>NAN</DistanceMeters>
          </Trackpoint>
          <Trackpoint>
            <Time>2018-12-30T11:07:48.000Z</Time>
            <Position>
              <LatitudeDegrees>40.78742100857198238372802734375</LatitudeDegrees>
              <LongitudeDegrees>-4.06528112478554248809814453125</LongitudeDegrees>
            </Position>
            <AltitudeMeters>1649.199951171875</AltitudeMeters>
            <DistanceMeters>NAN</DistanceMeters>
          </Trackpoint>
          <Trackpoint>
            <Time>2018-12-30T11:07:49.000Z</Time>
            <Position>
              <LatitudeDegrees>40.787416398525238037109375</LatitudeDegrees>
              <LongitudeDegrees>-4.06527626328170299530029296875</LongitudeDegrees>
            </Position>
            <AltitudeMeters>1649.4000244140625</AltitudeMeters>
            <DistanceMeters>NAN</DistanceMeters>
          </Trackpoint>
          <Trackpoint>
            <Time>2018-12-30T11:07:50.000Z</Time>
            <Position>
              <LatitudeDegrees>40.78741815872490406036376953125</LatitudeDegrees>
              <LongitudeDegrees>-4.06526335515081882476806640625</LongitudeDegrees>
            </Position>
            <AltitudeMeters>1649.4000244140625</AltitudeMeters>
            <DistanceMeters>NAN</DistanceMeters>
          </Trackpoint>
          <Trackpoint>
            <Time>2018-12-30T11:07:51.000Z</Time>
            <Position>
              <LatitudeDegrees>40.787416733801364898681640625</LatitudeDegrees>
              <LongitudeDegrees>-4.065255224704742431640625</LongitudeDegrees>
            </Position>
            <AltitudeMeters>1649.5999755859375</AltitudeMeters>
            <DistanceMeters>NAN</DistanceMeters>
          </Trackpoint>
          <Trackpoint>
            <Time>2018-12-30T11:07:52.000Z</Time>
            <Position>
              <LatitudeDegrees>40.7874169014394283294677734375</LatitudeDegrees>
              <LongitudeDegrees>-4.065244831144809722900390625</LongitudeDegrees>
            </Position>
            <AltitudeMeters>1649.800048828125</AltitudeMeters>
            <DistanceMeters>NAN</DistanceMeters>
          </Trackpoint>
          <Trackpoint>
            <Time>2018-12-30T11:07:53.000Z</Time>
            <Position>
              <LatitudeDegrees>40.78741304576396942138671875</LatitudeDegrees>
              <LongitudeDegrees>-4.06523066572844982147216796875</LongitudeDegrees>
            </Position>
            <AltitudeMeters>1650</AltitudeMeters>
            <DistanceMeters>NAN</DistanceMeters>
          </Trackpoint>
          <Trackpoint>
            <Time>2018-12-30T11:07:54.000Z</Time>
            <Position>
              <LatitudeDegrees>40.78741145320236682891845703125</LatitudeDegrees>
              <LongitudeDegrees>-4.06521457247436046600341796875</LongitudeDegrees>
            </Position>
            <AltitudeMeters>1650.199951171875</AltitudeMeters>
            <DistanceMeters>NAN</DistanceMeters>
          </Trackpoint>
          <Trackpoint>
            <Time>2018-12-30T11:07:55.000Z</Time>
            <Position>
              <LatitudeDegrees>40.78741547651588916778564453125</LatitudeDegrees>
              <LongitudeDegrees>-4.065200574696063995361328125</LongitudeDegrees>
            </Position>
            <AltitudeMeters>1650.4000244140625</AltitudeMeters>
            <DistanceMeters>NAN</DistanceMeters>
          </Trackpoint>
          <Trackpoint>
            <Time>2018-12-30T11:07:56.000Z</Time>
            <Position>
              <LatitudeDegrees>40.78741581179201602935791015625</LatitudeDegrees>
              <LongitudeDegrees>-4.0651883371174335479736328125</LongitudeDegrees>
            </Position>
            <AltitudeMeters>1650.5999755859375</AltitudeMeters>
            <DistanceMeters>NAN</DistanceMeters>
          </Trackpoint>
          <Trackpoint>
            <Time>2018-12-30T11:07:57.000Z</Time>
            <Position>
              <LatitudeDegrees>40.787412710487842559814453125</LatitudeDegrees>
              <LongitudeDegrees>-4.06517735682427883148193359375</LongitudeDegrees>
            </Position>
            <AltitudeMeters>1650.800048828125</AltitudeMeters>
            <DistanceMeters>NAN</DistanceMeters>
          </Trackpoint>
          <Trackpoint>
            <Time>2018-12-30T11:07:58.000Z</Time>
            <Position>
              <LatitudeDegrees>40.7874070107936859130859375</LatitudeDegrees>
              <LongitudeDegrees>-4.0651702322065830230712890625</LongitudeDegrees>
            </Position>
            <AltitudeMeters>1651</AltitudeMeters>
            <DistanceMeters>NAN</DistanceMeters>
          </Trackpoint>
          <Trackpoint>
            <Time>2018-12-30T11:07:59.000Z</Time>
            <Position>
              <LatitudeDegrees>40.78740273602306842803955078125</LatitudeDegrees>
              <LongitudeDegrees>-4.06515858136117458343505859375</LongitudeDegrees>
            </Position>
            <AltitudeMeters>1651</AltitudeMeters>
            <DistanceMeters>NAN</DistanceMeters>
          </Trackpoint>
          <Trackpoint>
            <Time>2018-12-30T11:08:00.000Z</Time>
            <Position>
              <LatitudeDegrees>40.78739695250988006591796875</LatitudeDegrees>
              <LongitudeDegrees>-4.06514600850641727447509765625</LongitudeDegrees>
            </Position>
            <AltitudeMeters>1651.199951171875</AltitudeMeters>
            <DistanceMeters>NAN</DistanceMeters>
          </Trackpoint>
          <Trackpoint>
            <Time>2018-12-30T11:08:01.000Z</Time>
            <Position>
              <LatitudeDegrees>40.78739225864410400390625</LatitudeDegrees>
              <LongitudeDegrees>-4.06512916088104248046875</LongitudeDegrees>
            </Position>
            <AltitudeMeters>1651.199951171875</AltitudeMeters>
            <DistanceMeters>NAN</DistanceMeters>
          </Trackpoint>
          <Trackpoint>
            <Time>2018-12-30T11:08:02.000Z</Time>
            <Position>
              <LatitudeDegrees>40.787391252815723419189453125</LatitudeDegrees>
              <LongitudeDegrees>-4.0651189349591732025146484375</LongitudeDegrees>
            </Position>
            <AltitudeMeters>1651.199951171875</AltitudeMeters>
            <DistanceMeters>NAN</DistanceMeters>
          </Trackpoint>
          <Trackpoint>
            <Time>2018-12-30T11:08:03.000Z</Time>
            <Position>
              <LatitudeDegrees>40.78739318065345287322998046875</LatitudeDegrees>
              <LongitudeDegrees>-4.06510544009506702423095703125</LongitudeDegrees>
            </Position>
            <AltitudeMeters>1651.4000244140625</AltitudeMeters>
            <DistanceMeters>NAN</DistanceMeters>
          </Trackpoint>
          <Trackpoint>
            <Time>2018-12-30T11:08:04.000Z</Time>
            <Position>
              <LatitudeDegrees>40.7873927615582942962646484375</LatitudeDegrees>
              <LongitudeDegrees>-4.06509102322161197662353515625</LongitudeDegrees>
            </Position>
            <AltitudeMeters>1651.4000244140625</AltitudeMeters>
            <DistanceMeters>NAN</DistanceMeters>
          </Trackpoint>
          <Trackpoint>
            <Time>2018-12-30T11:08:05.000Z</Time>
            <Position>
              <LatitudeDegrees>40.78739225864410400390625</LatitudeDegrees>
              <LongitudeDegrees>-4.06507208012044429779052734375</LongitudeDegrees>
            </Position>
            <AltitudeMeters>1651.5999755859375</AltitudeMeters>
            <DistanceMeters>NAN</DistanceMeters>
          </Trackpoint>
          <Trackpoint>
            <Time>2018-12-30T11:08:06.000Z</Time>
            <Position>
              <LatitudeDegrees>40.78739251010119915008544921875</LatitudeDegrees>
              <LongitudeDegrees>-4.06505917198956012725830078125</LongitudeDegrees>
            </Position>
            <AltitudeMeters>1651.5999755859375</AltitudeMeters>
            <DistanceMeters>NAN</DistanceMeters>
          </Trackpoint>
          <Trackpoint>
            <Time>2018-12-30T11:08:07.000Z</Time>
            <Position>
              <LatitudeDegrees>40.78739284537732601165771484375</LatitudeDegrees>
              <LongitudeDegrees>-4.0650434978306293487548828125</LongitudeDegrees>
            </Position>
            <AltitudeMeters>1651.800048828125</AltitudeMeters>
            <DistanceMeters>NAN</DistanceMeters>
          </Trackpoint>
          <Trackpoint>
            <Time>2018-12-30T11:08:08.000Z</Time>
            <Position>
              <LatitudeDegrees>40.78739284537732601165771484375</LatitudeDegrees>
              <LongitudeDegrees>-4.0650250576436519622802734375</LongitudeDegrees>
            </Position>
            <AltitudeMeters>1651.800048828125</AltitudeMeters>
            <DistanceMeters>NAN</DistanceMeters>
          </Trackpoint>
          <Trackpoint>
            <Time>2018-12-30T11:08:09.000Z</Time>
            <Position>
              <LatitudeDegrees>40.78739636577665805816650390625</LatitudeDegrees>
              <LongitudeDegrees>-4.06500603072345256805419921875</LongitudeDegrees>
            </Position>
            <AltitudeMeters>1652</AltitudeMeters>
            <DistanceMeters>NAN</DistanceMeters>
          </Trackpoint>
          <Trackpoint>
            <Time>2018-12-30T11:08:10.000Z</Time>
            <Position>
              <LatitudeDegrees>40.7873984612524509429931640625</LatitudeDegrees>
              <LongitudeDegrees>-4.06499194912612438201904296875</LongitudeDegrees>
            </Position>
            <AltitudeMeters>1652</AltitudeMeters>
            <DistanceMeters>NAN</DistanceMeters>
          </Trackpoint>
          <Trackpoint>
            <Time>2018-12-30T11:08:11.000Z</Time>
            <Position>
              <LatitudeDegrees>40.7874001376330852508544921875</LatitudeDegrees>
              <LongitudeDegrees>-4.0649787895381450653076171875</LongitudeDegrees>
            </Position>
            <AltitudeMeters>1652</AltitudeMeters>
            <DistanceMeters>NAN</DistanceMeters>
          </Trackpoint>
          <Trackpoint>
            <Time>2018-12-30T11:08:12.000Z</Time>
            <Position>
              <LatitudeDegrees>40.78740223310887813568115234375</LatitudeDegrees>
              <LongitudeDegrees>-4.06496814452111721038818359375</LongitudeDegrees>
            </Position>
            <AltitudeMeters>1652.199951171875</AltitudeMeters>
            <DistanceMeters>NAN</DistanceMeters>
          </Trackpoint>
          <Trackpoint>
            <Time>2018-12-30T11:08:13.000Z</Time>
            <Position>
              <LatitudeDegrees>40.787401981651782989501953125</LatitudeDegrees>
              <LongitudeDegrees>-4.064956493675708770751953125</LongitudeDegrees>
            </Position>
            <AltitudeMeters>1652.4000244140625</AltitudeMeters>
            <DistanceMeters>NAN</DistanceMeters>
          </Trackpoint>
          <Trackpoint>
            <Time>2018-12-30T11:08:14.000Z</Time>
            <Position>
              <LatitudeDegrees>40.78740189783275127410888671875</LatitudeDegrees>
              <LongitudeDegrees>-4.06495087780058383941650390625</LongitudeDegrees>
            </Position>
            <AltitudeMeters>1652.5999755859375</AltitudeMeters>
            <DistanceMeters>NAN</DistanceMeters>
          </Trackpoint>
          <Trackpoint>
            <Time>2018-12-30T11:08:15.000Z</Time>
            <Position>
              <LatitudeDegrees>40.787400305271148681640625</LatitudeDegrees>
              <LongitudeDegrees>-4.06495087780058383941650390625</LongitudeDegrees>
            </Position>
            <AltitudeMeters>1652.800048828125</AltitudeMeters>
            <DistanceMeters>NAN</DistanceMeters>
          </Trackpoint>
          <Trackpoint>
            <Time>2018-12-30T11:08:16.000Z</Time>
            <Position>
              <LatitudeDegrees>40.7873984612524509429931640625</LatitudeDegrees>
              <LongitudeDegrees>-4.0649492852389812469482421875</LongitudeDegrees>
            </Position>
            <AltitudeMeters>1652.800048828125</AltitudeMeters>
            <DistanceMeters>NAN</DistanceMeters>
          </Trackpoint>
          <Trackpoint>
            <Time>2018-12-30T11:08:17.000Z</Time>
            <Position>
              <LatitudeDegrees>40.78740441240370273590087890625</LatitudeDegrees>
              <LongitudeDegrees>-4.06494517810642719268798828125</LongitudeDegrees>
            </Position>
            <AltitudeMeters>1653</AltitudeMeters>
            <DistanceMeters>NAN</DistanceMeters>
          </Trackpoint>
          <Trackpoint>
            <Time>2018-12-30T11:08:18.000Z</Time>
            <Position>
              <LatitudeDegrees>40.7874165661633014678955078125</LatitudeDegrees>
              <LongitudeDegrees>-4.064940400421619415283203125</LongitudeDegrees>
            </Position>
            <AltitudeMeters>1653</AltitudeMeters>
            <DistanceMeters>NAN</DistanceMeters>
          </Trackpoint>
          <Trackpoint>
            <Time>2018-12-30T11:08:19.000Z</Time>
            <Position>
              <LatitudeDegrees>40.78742637299001216888427734375</LatitudeDegrees>
              <LongitudeDegrees>-4.064929671585559844970703125</LongitudeDegrees>
            </Position>
            <AltitudeMeters>1653</AltitudeMeters>
            <DistanceMeters>NAN</DistanceMeters>
          </Trackpoint>
          <Trackpoint>
            <Time>2018-12-30T11:08:20.000Z</Time>
            <Position>
              <LatitudeDegrees>40.78743743710219860076904296875</LatitudeDegrees>
              <LongitudeDegrees>-4.0649150870740413665771484375</LongitudeDegrees>
            </Position>
            <AltitudeMeters>1653</AltitudeMeters>
            <DistanceMeters>NAN</DistanceMeters>
          </Trackpoint>
          <Trackpoint>
            <Time>2018-12-30T11:08:21.000Z</Time>
            <Position>
              <LatitudeDegrees>40.78744397498667240142822265625</LatitudeDegrees>
              <LongitudeDegrees>-4.064901173114776611328125</LongitudeDegrees>
            </Position>
            <AltitudeMeters>1653</AltitudeMeters>
            <DistanceMeters>NAN</DistanceMeters>
          </Trackpoint>
          <Trackpoint>
            <Time>2018-12-30T11:08:22.000Z</Time>
            <Position>
              <LatitudeDegrees>40.78744933940470218658447265625</LatitudeDegrees>
              <LongitudeDegrees>-4.06488901935517787933349609375</LongitudeDegrees>
            </Position>
            <AltitudeMeters>1653</AltitudeMeters>
            <DistanceMeters>NAN</DistanceMeters>
          </Trackpoint>
          <Trackpoint>
            <Time>2018-12-30T11:08:23.000Z</Time>
            <Position>
              <LatitudeDegrees>40.7874531112611293792724609375</LatitudeDegrees>
              <LongitudeDegrees>-4.06487795524299144744873046875</LongitudeDegrees>
            </Position>
            <AltitudeMeters>1653</AltitudeMeters>
            <DistanceMeters>NAN</DistanceMeters>
          </Trackpoint>
          <Trackpoint>
            <Time>2018-12-30T11:08:24.000Z</Time>
            <Position>
              <LatitudeDegrees>40.78745721839368343353271484375</LatitudeDegrees>
              <LongitudeDegrees>-4.06486831605434417724609375</LongitudeDegrees>
            </Position>
            <AltitudeMeters>1653.199951171875</AltitudeMeters>
            <DistanceMeters>NAN</DistanceMeters>
          </Trackpoint>
          <Trackpoint>
            <Time>2018-12-30T11:08:25.000Z</Time>
            <Position>
              <LatitudeDegrees>40.7874557934701442718505859375</LatitudeDegrees>
              <LongitudeDegrees>-4.06485834158957004547119140625</LongitudeDegrees>
            </Position>
            <AltitudeMeters>1653.4000244140625</AltitudeMeters>
            <DistanceMeters>NAN</DistanceMeters>
          </Trackpoint>
          <Trackpoint>
            <Time>2018-12-30T11:08:26.000Z</Time>
            <Position>
              <LatitudeDegrees>40.78745654784142971038818359375</LatitudeDegrees>
              <LongitudeDegrees>-4.064856581389904022216796875</LongitudeDegrees>
            </Position>
            <AltitudeMeters>1653.5999755859375</AltitudeMeters>
            <DistanceMeters>NAN</DistanceMeters>
          </Trackpoint>
          <Trackpoint>
            <Time>2018-12-30T11:08:27.000Z</Time>
            <Position>
              <LatitudeDegrees>40.7874641753733158111572265625</LatitudeDegrees>
              <LongitudeDegrees>-4.06486689113080501556396484375</LongitudeDegrees>
            </Position>
            <AltitudeMeters>1653.800048828125</AltitudeMeters>
            <DistanceMeters>NAN</DistanceMeters>
          </Trackpoint>
          <Trackpoint>
            <Time>2018-12-30T11:08:28.000Z</Time>
            <Position>
              <LatitudeDegrees>40.7874688692390918731689453125</LatitudeDegrees>
              <LongitudeDegrees>-4.06487502157688140869140625</LongitudeDegrees>
            </Position>
            <AltitudeMeters>1653.800048828125</AltitudeMeters>
            <DistanceMeters>NAN</DistanceMeters>
          </Trackpoint>
          <Trackpoint>
            <Time>2018-12-30T11:08:29.000Z</Time>
            <Position>
              <LatitudeDegrees>40.78746736049652099609375</LatitudeDegrees>
              <LongitudeDegrees>-4.0648815594613552093505859375</LongitudeDegrees>
            </Position>
            <AltitudeMeters>1654</AltitudeMeters>
            <DistanceMeters>NAN</DistanceMeters>
          </Trackpoint>
          <Trackpoint>
            <Time>2018-12-30T11:08:30.000Z</Time>
            <Position>
              <LatitudeDegrees>40.7874665223062038421630859375</LatitudeDegrees>
              <LongitudeDegrees>-4.06488440930843353271484375</LongitudeDegrees>
            </Position>
            <AltitudeMeters>1654</AltitudeMeters>
            <DistanceMeters>NAN</DistanceMeters>
          </Trackpoint>
          <Trackpoint>
            <Time>2018-12-30T11:08:31.000Z</Time>
            <Position>
              <LatitudeDegrees>40.78746358864009380340576171875</LatitudeDegrees>
              <LongitudeDegrees>-4.064886085689067840576171875</LongitudeDegrees>
            </Position>
            <AltitudeMeters>1653.800048828125</AltitudeMeters>
            <DistanceMeters>NAN</DistanceMeters>
          </Trackpoint>
          <Trackpoint>
            <Time>2018-12-30T11:08:32.000Z</Time>
            <Position>
              <LatitudeDegrees>40.78746358864009380340576171875</LatitudeDegrees>
              <LongitudeDegrees>-4.06489438377320766448974609375</LongitudeDegrees>
            </Position>
            <AltitudeMeters>1653.5999755859375</AltitudeMeters>
            <DistanceMeters>NAN</DistanceMeters>
          </Trackpoint>
          <Trackpoint>
            <Time>2018-12-30T11:08:33.000Z</Time>
            <Position>
              <LatitudeDegrees>40.78746845014393329620361328125</LatitudeDegrees>
              <LongitudeDegrees>-4.0649033524096012115478515625</LongitudeDegrees>
            </Position>
            <AltitudeMeters>1653.5999755859375</AltitudeMeters>
            <DistanceMeters>NAN</DistanceMeters>
          </Trackpoint>
          <Trackpoint>
            <Time>2018-12-30T11:08:34.000Z</Time>
            <Position>
              <LatitudeDegrees>40.7874688692390918731689453125</LatitudeDegrees>
              <LongitudeDegrees>-4.0649113990366458892822265625</LongitudeDegrees>
            </Position>
            <AltitudeMeters>1653.5999755859375</AltitudeMeters>
            <DistanceMeters>NAN</DistanceMeters>
          </Trackpoint>
          <Trackpoint>
            <Time>2018-12-30T11:08:35.000Z</Time>
            <Position>
              <LatitudeDegrees>40.78747264109551906585693359375</LatitudeDegrees>
              <LongitudeDegrees>-4.0649170987308025360107421875</LongitudeDegrees>
            </Position>
            <AltitudeMeters>1653.800048828125</AltitudeMeters>
            <DistanceMeters>NAN</DistanceMeters>
          </Trackpoint>
          <Trackpoint>
            <Time>2018-12-30T11:08:36.000Z</Time>
            <Position>
              <LatitudeDegrees>40.78747331164777278900146484375</LatitudeDegrees>
              <LongitudeDegrees>-4.06491852365434169769287109375</LongitudeDegrees>
            </Position>
            <AltitudeMeters>1653.800048828125</AltitudeMeters>
            <DistanceMeters>NAN</DistanceMeters>
          </Trackpoint>
          <Trackpoint>
            <Time>2018-12-30T11:08:37.000Z</Time>
            <Position>
              <LatitudeDegrees>40.787470377981662750244140625</LatitudeDegrees>
              <LongitudeDegrees>-4.06491802074015140533447265625</LongitudeDegrees>
            </Position>
            <AltitudeMeters>1653.800048828125</AltitudeMeters>
            <DistanceMeters>NAN</DistanceMeters>
          </Trackpoint>
          <Trackpoint>
            <Time>2018-12-30T11:08:38.000Z</Time>
            <Position>
              <LatitudeDegrees>40.78747079707682132720947265625</LatitudeDegrees>
              <LongitudeDegrees>-4.06490989029407501220703125</LongitudeDegrees>
            </Position>
            <AltitudeMeters>1653.800048828125</AltitudeMeters>
            <DistanceMeters>NAN</DistanceMeters>
          </Trackpoint>
          <Trackpoint>
            <Time>2018-12-30T11:08:39.000Z</Time>
            <Position>
              <LatitudeDegrees>40.78747339546680450439453125</LatitudeDegrees>
              <LongitudeDegrees>-4.0649003349244594573974609375</LongitudeDegrees>
            </Position>
            <AltitudeMeters>1653.800048828125</AltitudeMeters>
            <DistanceMeters>NAN</DistanceMeters>
          </Trackpoint>
          <Trackpoint>
            <Time>2018-12-30T11:08:40.000Z</Time>
            <Position>
              <LatitudeDegrees>40.78747750259935855865478515625</LatitudeDegrees>
              <LongitudeDegrees>-4.06488985754549503326416015625</LongitudeDegrees>
            </Position>
            <AltitudeMeters>1653.800048828125</AltitudeMeters>
            <DistanceMeters>NAN</DistanceMeters>
          </Trackpoint>
          <Trackpoint>
            <Time>2018-12-30T11:08:41.000Z</Time>
            <Position>
              <LatitudeDegrees>40.7874806039035320281982421875</LatitudeDegrees>
              <LongitudeDegrees>-4.06487359665334224700927734375</LongitudeDegrees>
            </Position>
            <AltitudeMeters>1653.800048828125</AltitudeMeters>
            <DistanceMeters>NAN</DistanceMeters>
          </Trackpoint>
          <Trackpoint>
            <Time>2018-12-30T11:08:42.000Z</Time>
            <Position>
              <LatitudeDegrees>40.78748538158833980560302734375</LatitudeDegrees>
              <LongitudeDegrees>-4.064862616360187530517578125</LongitudeDegrees>
            </Position>
            <AltitudeMeters>1653.800048828125</AltitudeMeters>
            <DistanceMeters>NAN</DistanceMeters>
          </Trackpoint>
          <Trackpoint>
            <Time>2018-12-30T11:08:43.000Z</Time>
            <Position>
              <LatitudeDegrees>40.78748839907348155975341796875</LatitudeDegrees>
              <LongitudeDegrees>-4.0648513846099376678466796875</LongitudeDegrees>
            </Position>
            <AltitudeMeters>1653.5999755859375</AltitudeMeters>
            <DistanceMeters>NAN</DistanceMeters>
          </Trackpoint>
          <Trackpoint>
            <Time>2018-12-30T11:08:44.000Z</Time>
            <Position>
              <LatitudeDegrees>40.78749326057732105255126953125</LatitudeDegrees>
              <LongitudeDegrees>-4.0648406557738780975341796875</LongitudeDegrees>
            </Position>
            <AltitudeMeters>1653.800048828125</AltitudeMeters>
            <DistanceMeters>NAN</DistanceMeters>
          </Trackpoint>
          <Trackpoint>
            <Time>2018-12-30T11:08:45.000Z</Time>
            <Position>
              <LatitudeDegrees>40.7874920032918453216552734375</LatitudeDegrees>
              <LongitudeDegrees>-4.0648272447288036346435546875</LongitudeDegrees>
            </Position>
            <AltitudeMeters>1653.800048828125</AltitudeMeters>
            <DistanceMeters>NAN</DistanceMeters>
          </Trackpoint>
          <Trackpoint>
            <Time>2018-12-30T11:08:46.000Z</Time>
            <Position>
              <LatitudeDegrees>40.7874920032918453216552734375</LatitudeDegrees>
              <LongitudeDegrees>-4.06482405960559844970703125</LongitudeDegrees>
            </Position>
            <AltitudeMeters>1653.800048828125</AltitudeMeters>
            <DistanceMeters>NAN</DistanceMeters>
          </Trackpoint>
          <Trackpoint>
            <Time>2018-12-30T11:08:47.000Z</Time>
            <Position>
              <LatitudeDegrees>40.78749493695795536041259765625</LatitudeDegrees>
              <LongitudeDegrees>-4.06482699327170848846435546875</LongitudeDegrees>
            </Position>
            <AltitudeMeters>1654</AltitudeMeters>
            <DistanceMeters>NAN</DistanceMeters>
          </Trackpoint>
          <Trackpoint>
            <Time>2018-12-30T11:08:48.000Z</Time>
            <Position>
              <LatitudeDegrees>40.78750013373792171478271484375</LatitudeDegrees>
              <LongitudeDegrees>-4.06483076512813568115234375</LongitudeDegrees>
            </Position>
            <AltitudeMeters>1653.800048828125</AltitudeMeters>
            <DistanceMeters>NAN</DistanceMeters>
          </Trackpoint>
          <Trackpoint>
            <Time>2018-12-30T11:08:49.000Z</Time>
            <Position>
              <LatitudeDegrees>40.787502564489841461181640625</LatitudeDegrees>
              <LongitudeDegrees>-4.0648312680423259735107421875</LongitudeDegrees>
            </Position>
            <AltitudeMeters>1653.800048828125</AltitudeMeters>
            <DistanceMeters>NAN</DistanceMeters>
          </Trackpoint>
          <Trackpoint>
            <Time>2018-12-30T11:08:50.000Z</Time>
            <Position>
              <LatitudeDegrees>40.78750197775661945343017578125</LatitudeDegrees>
              <LongitudeDegrees>-4.0648356266319751739501953125</LongitudeDegrees>
            </Position>
            <AltitudeMeters>1653.800048828125</AltitudeMeters>
            <DistanceMeters>NAN</DistanceMeters>
          </Trackpoint>
          <Trackpoint>
            <Time>2018-12-30T11:08:51.000Z</Time>
            <Position>
              <LatitudeDegrees>40.78749761916697025299072265625</LatitudeDegrees>
              <LongitudeDegrees>-4.06484023667871952056884765625</LongitudeDegrees>
            </Position>
            <AltitudeMeters>1653.800048828125</AltitudeMeters>
            <DistanceMeters>NAN</DistanceMeters>
          </Trackpoint>
          <Trackpoint>
            <Time>2018-12-30T11:08:52.000Z</Time>
            <Position>
              <LatitudeDegrees>40.7874940149486064910888671875</LatitudeDegrees>
              <LongitudeDegrees>-4.06484073959290981292724609375</LongitudeDegrees>
            </Position>
            <AltitudeMeters>1653.800048828125</AltitudeMeters>
            <DistanceMeters>NAN</DistanceMeters>
          </Trackpoint>
          <Trackpoint>
            <Time>2018-12-30T11:08:53.000Z</Time>
            <Position>
              <LatitudeDegrees>40.7874930091202259063720703125</LatitudeDegrees>
              <LongitudeDegrees>-4.06483948230743408203125</LongitudeDegrees>
            </Position>
            <AltitudeMeters>1653.800048828125</AltitudeMeters>
            <DistanceMeters>NAN</DistanceMeters>
          </Trackpoint>
          <Trackpoint>
            <Time>2018-12-30T11:08:54.000Z</Time>
            <Position>
              <LatitudeDegrees>40.78749191947281360626220703125</LatitudeDegrees>
              <LongitudeDegrees>-4.064838476479053497314453125</LongitudeDegrees>
            </Position>
            <AltitudeMeters>1654</AltitudeMeters>
            <DistanceMeters>NAN</DistanceMeters>
          </Trackpoint>
          <Trackpoint>
            <Time>2018-12-30T11:08:55.000Z</Time>
            <Position>
              <LatitudeDegrees>40.787492506206035614013671875</LatitudeDegrees>
              <LongitudeDegrees>-4.06484107486903667449951171875</LongitudeDegrees>
            </Position>
            <AltitudeMeters>1654</AltitudeMeters>
            <DistanceMeters>NAN</DistanceMeters>
          </Trackpoint>
          <Trackpoint>
            <Time>2018-12-30T11:08:56.000Z</Time>
            <Position>
              <LatitudeDegrees>40.78748772852122783660888671875</LatitudeDegrees>
              <LongitudeDegrees>-4.0648408234119415283203125</LongitudeDegrees>
            </Position>
            <AltitudeMeters>1654</AltitudeMeters>
            <DistanceMeters>NAN</DistanceMeters>
          </Trackpoint>
          <Trackpoint>
            <Time>2018-12-30T11:08:57.000Z</Time>
            <Position>
              <LatitudeDegrees>40.7874847948551177978515625</LatitudeDegrees>
              <LongitudeDegrees>-4.06484057195484638214111328125</LongitudeDegrees>
            </Position>
            <AltitudeMeters>1654</AltitudeMeters>
            <DistanceMeters>NAN</DistanceMeters>
          </Trackpoint>
          <Trackpoint>
            <Time>2018-12-30T11:08:58.000Z</Time>
            <Position>
              <LatitudeDegrees>40.78747875988483428955078125</LatitudeDegrees>
              <LongitudeDegrees>-4.06484551727771759033203125</LongitudeDegrees>
            </Position>
            <AltitudeMeters>1654.199951171875</AltitudeMeters>
            <DistanceMeters>NAN</DistanceMeters>
          </Trackpoint>
          <Trackpoint>
            <Time>2018-12-30T11:08:59.000Z</Time>
            <Position>
              <LatitudeDegrees>40.78747448511421680450439453125</LatitudeDegrees>
              <LongitudeDegrees>-4.06484794802963733673095703125</LongitudeDegrees>
            </Position>
            <AltitudeMeters>1654.4000244140625</AltitudeMeters>
            <DistanceMeters>NAN</DistanceMeters>
          </Trackpoint>
          <Trackpoint>
            <Time>2018-12-30T11:09:00.000Z</Time>
            <Position>
              <LatitudeDegrees>40.78747071325778961181640625</LatitudeDegrees>
              <LongitudeDegrees>-4.06485565938055515289306640625</LongitudeDegrees>
            </Position>
            <AltitudeMeters>1654.5999755859375</AltitudeMeters>
            <DistanceMeters>NAN</DistanceMeters>
          </Trackpoint>
          <Trackpoint>
            <Time>2018-12-30T11:09:01.000Z</Time>
            <Position>
              <LatitudeDegrees>40.7874698750674724578857421875</LatitudeDegrees>
              <LongitudeDegrees>-4.06485582701861858367919921875</LongitudeDegrees>
            </Position>
            <AltitudeMeters>1654.800048828125</AltitudeMeters>
            <DistanceMeters>NAN</DistanceMeters>
          </Trackpoint>
          <Trackpoint>
            <Time>2018-12-30T11:09:02.000Z</Time>
            <Position>
              <LatitudeDegrees>40.7874692045152187347412109375</LatitudeDegrees>
              <LongitudeDegrees>-4.0648554079234600067138671875</LongitudeDegrees>
            </Position>
            <AltitudeMeters>1654.800048828125</AltitudeMeters>
            <DistanceMeters>NAN</DistanceMeters>
          </Trackpoint>
          <Trackpoint>
            <Time>2018-12-30T11:09:03.000Z</Time>
            <Position>
              <LatitudeDegrees>40.78746878542006015777587890625</LatitudeDegrees>
              <LongitudeDegrees>-4.0648555755615234375</LongitudeDegrees>
            </Position>
            <AltitudeMeters>1655</AltitudeMeters>
            <DistanceMeters>NAN</DistanceMeters>
          </Trackpoint>
          <Trackpoint>
            <Time>2018-12-30T11:09:04.000Z</Time>
            <Position>
              <LatitudeDegrees>40.78746861778199672698974609375</LatitudeDegrees>
              <LongitudeDegrees>-4.06485549174249172210693359375</LongitudeDegrees>
            </Position>
            <AltitudeMeters>1655</AltitudeMeters>
            <DistanceMeters>NAN</DistanceMeters>
          </Trackpoint>
          <Trackpoint>
            <Time>2018-12-30T11:09:05.000Z</Time>
            <Position>
              <LatitudeDegrees>40.7874685339629650115966796875</LatitudeDegrees>
              <LongitudeDegrees>-4.0648555755615234375</LongitudeDegrees>
            </Position>
            <AltitudeMeters>1655.199951171875</AltitudeMeters>
            <DistanceMeters>NAN</DistanceMeters>
          </Trackpoint>
          <Trackpoint>
            <Time>2018-12-30T11:09:06.000Z</Time>
            <Position>
              <LatitudeDegrees>40.78746845014393329620361328125</LatitudeDegrees>
              <LongitudeDegrees>-4.0648557431995868682861328125</LongitudeDegrees>
            </Position>
            <AltitudeMeters>1655.4000244140625</AltitudeMeters>
            <DistanceMeters>NAN</DistanceMeters>
          </Trackpoint>
          <Trackpoint>
            <Time>2018-12-30T11:09:07.000Z</Time>
            <Position>
              <LatitudeDegrees>40.7874685339629650115966796875</LatitudeDegrees>
              <LongitudeDegrees>-4.06485515646636486053466796875</LongitudeDegrees>
            </Position>
            <AltitudeMeters>1655.4000244140625</AltitudeMeters>
            <DistanceMeters>NAN</DistanceMeters>
          </Trackpoint>
          <Trackpoint>
            <Time>2018-12-30T11:09:08.000Z</Time>
            <Position>
              <LatitudeDegrees>40.78746861778199672698974609375</LatitudeDegrees>
              <LongitudeDegrees>-4.0648542344570159912109375</LongitudeDegrees>
            </Position>
            <AltitudeMeters>1655.4000244140625</AltitudeMeters>
            <DistanceMeters>NAN</DistanceMeters>
          </Trackpoint>
          <Trackpoint>
            <Time>2018-12-30T11:09:09.000Z</Time>
            <Position>
              <LatitudeDegrees>40.7874687016010284423828125</LatitudeDegrees>
              <LongitudeDegrees>-4.0648533962666988372802734375</LongitudeDegrees>
            </Position>
            <AltitudeMeters>1655.5999755859375</AltitudeMeters>
            <DistanceMeters>NAN</DistanceMeters>
          </Trackpoint>
          <Trackpoint>
            <Time>2018-12-30T11:09:10.000Z</Time>
            <Position>
              <LatitudeDegrees>40.7874695397913455963134765625</LatitudeDegrees>
              <LongitudeDegrees>-4.06485180370509624481201171875</LongitudeDegrees>
            </Position>
            <AltitudeMeters>1655.5999755859375</AltitudeMeters>
            <DistanceMeters>NAN</DistanceMeters>
          </Trackpoint>
          <Trackpoint>
            <Time>2018-12-30T11:09:11.000Z</Time>
            <Position>
              <LatitudeDegrees>40.7874702103435993194580078125</LatitudeDegrees>
              <LongitudeDegrees>-4.0648513846099376678466796875</LongitudeDegrees>
            </Position>
            <AltitudeMeters>1655.5999755859375</AltitudeMeters>
            <DistanceMeters>NAN</DistanceMeters>
          </Trackpoint>
          <Trackpoint>
            <Time>2018-12-30T11:09:12.000Z</Time>
            <Position>
              <LatitudeDegrees>40.787470377981662750244140625</LatitudeDegrees>
              <LongitudeDegrees>-4.06485079787671566009521484375</LongitudeDegrees>
            </Position>
            <AltitudeMeters>1655.5999755859375</AltitudeMeters>
            <DistanceMeters>NAN</DistanceMeters>
          </Trackpoint>
          <Trackpoint>
            <Time>2018-12-30T11:09:13.000Z</Time>
            <Position>
              <LatitudeDegrees>40.787470377981662750244140625</LatitudeDegrees>
              <LongitudeDegrees>-4.06485012732446193695068359375</LongitudeDegrees>
            </Position>
            <AltitudeMeters>1655.4000244140625</AltitudeMeters>
            <DistanceMeters>NAN</DistanceMeters>
          </Trackpoint>
          <Trackpoint>
            <Time>2018-12-30T11:09:14.000Z</Time>
            <Position>
              <LatitudeDegrees>40.7874705456197261810302734375</LatitudeDegrees>
              <LongitudeDegrees>-4.06484945677220821380615234375</LongitudeDegrees>
            </Position>
            <AltitudeMeters>1655.5999755859375</AltitudeMeters>
            <DistanceMeters>NAN</DistanceMeters>
          </Trackpoint>
          <Trackpoint>
            <Time>2018-12-30T11:09:15.000Z</Time>
            <Position>
              <LatitudeDegrees>40.78747079707682132720947265625</LatitudeDegrees>
              <LongitudeDegrees>-4.06484962441027164459228515625</LongitudeDegrees>
            </Position>
            <AltitudeMeters>1655.4000244140625</AltitudeMeters>
            <DistanceMeters>NAN</DistanceMeters>
          </Trackpoint>
          <Trackpoint>
            <Time>2018-12-30T11:09:16.000Z</Time>
            <Position>
              <LatitudeDegrees>40.787471719086170196533203125</LatitudeDegrees>
              <LongitudeDegrees>-4.06484979204833507537841796875</LongitudeDegrees>
            </Position>
            <AltitudeMeters>1655.4000244140625</AltitudeMeters>
            <DistanceMeters>NAN</DistanceMeters>
          </Trackpoint>
          <Trackpoint>
            <Time>2018-12-30T11:09:17.000Z</Time>
            <Position>
              <LatitudeDegrees>40.78747247345745563507080078125</LatitudeDegrees>
              <LongitudeDegrees>-4.0648488700389862060546875</LongitudeDegrees>
            </Position>
            <AltitudeMeters>1655</AltitudeMeters>
            <DistanceMeters>NAN</DistanceMeters>
          </Trackpoint>
          <Trackpoint>
            <Time>2018-12-30T11:09:18.000Z</Time>
            <Position>
              <LatitudeDegrees>40.78747272491455078125</LatitudeDegrees>
              <LongitudeDegrees>-4.06484819948673248291015625</LongitudeDegrees>
            </Position>
            <AltitudeMeters>1655</AltitudeMeters>
            <DistanceMeters>NAN</DistanceMeters>
          </Trackpoint>
          <Trackpoint>
            <Time>2018-12-30T11:09:19.000Z</Time>
            <Position>
              <LatitudeDegrees>40.787473060190677642822265625</LatitudeDegrees>
              <LongitudeDegrees>-4.06484828330576419830322265625</LongitudeDegrees>
            </Position>
            <AltitudeMeters>1654.800048828125</AltitudeMeters>
            <DistanceMeters>NAN</DistanceMeters>
          </Trackpoint>
          <Trackpoint>
            <Time>2018-12-30T11:09:20.000Z</Time>
            <Position>
              <LatitudeDegrees>40.78747364692389965057373046875</LatitudeDegrees>
              <LongitudeDegrees>-4.0648488700389862060546875</LongitudeDegrees>
            </Position>
            <AltitudeMeters>1654.800048828125</AltitudeMeters>
            <DistanceMeters>NAN</DistanceMeters>
          </Trackpoint>
          <Trackpoint>
            <Time>2018-12-30T11:09:21.000Z</Time>
            <Position>
              <LatitudeDegrees>40.7874742336571216583251953125</LatitudeDegrees>
              <LongitudeDegrees>-4.0648500435054302215576171875</LongitudeDegrees>
            </Position>
            <AltitudeMeters>1654.5999755859375</AltitudeMeters>
            <DistanceMeters>NAN</DistanceMeters>
          </Trackpoint>
          <Trackpoint>
            <Time>2018-12-30T11:09:22.000Z</Time>
            <Position>
              <LatitudeDegrees>40.78747565858066082000732421875</LatitudeDegrees>
              <LongitudeDegrees>-4.06485012732446193695068359375</LongitudeDegrees>
            </Position>
            <AltitudeMeters>1654.4000244140625</AltitudeMeters>
            <DistanceMeters>NAN</DistanceMeters>
          </Trackpoint>
          <Trackpoint>
            <Time>2018-12-30T11:09:23.000Z</Time>
            <Position>
              <LatitudeDegrees>40.78747549094259738922119140625</LatitudeDegrees>
              <LongitudeDegrees>-4.064851216971874237060546875</LongitudeDegrees>
            </Position>
            <AltitudeMeters>1654.199951171875</AltitudeMeters>
            <DistanceMeters>NAN</DistanceMeters>
          </Trackpoint>
          <Trackpoint>
            <Time>2018-12-30T11:09:24.000Z</Time>
            <Position>
              <LatitudeDegrees>40.7874767482280731201171875</LatitudeDegrees>
              <LongitudeDegrees>-4.064853228628635406494140625</LongitudeDegrees>
            </Position>
            <AltitudeMeters>1654.4000244140625</AltitudeMeters>
            <DistanceMeters>NAN</DistanceMeters>
          </Trackpoint>
          <Trackpoint>
            <Time>2018-12-30T11:09:25.000Z</Time>
            <Position>
              <LatitudeDegrees>40.7874759100377559661865234375</LatitudeDegrees>
              <LongitudeDegrees>-4.064856581389904022216796875</LongitudeDegrees>
            </Position>
            <AltitudeMeters>1654.4000244140625</AltitudeMeters>
            <DistanceMeters>NAN</DistanceMeters>
          </Trackpoint>
          <Trackpoint>
            <Time>2018-12-30T11:09:26.000Z</Time>
            <Position>
              <LatitudeDegrees>40.78747649677097797393798828125</LatitudeDegrees>
              <LongitudeDegrees>-4.06485800631344318389892578125</LongitudeDegrees>
            </Position>
            <AltitudeMeters>1654.4000244140625</AltitudeMeters>
            <DistanceMeters>NAN</DistanceMeters>
          </Trackpoint>
          <Trackpoint>
            <Time>2018-12-30T11:09:27.000Z</Time>
            <Position>
              <LatitudeDegrees>40.78747666440904140472412109375</LatitudeDegrees>
              <LongitudeDegrees>-4.06485716812312602996826171875</LongitudeDegrees>
            </Position>
            <AltitudeMeters>1654.4000244140625</AltitudeMeters>
            <DistanceMeters>NAN</DistanceMeters>
          </Trackpoint>
          <Trackpoint>
            <Time>2018-12-30T11:09:28.000Z</Time>
            <Position>
              <LatitudeDegrees>40.78748052008450031280517578125</LatitudeDegrees>
              <LongitudeDegrees>-4.0648515522480010986328125</LongitudeDegrees>
            </Position>
            <AltitudeMeters>1654.5999755859375</AltitudeMeters>
            <DistanceMeters>NAN</DistanceMeters>
          </Trackpoint>
          <Trackpoint>
            <Time>2018-12-30T11:09:29.000Z</Time>
            <Position>
              <LatitudeDegrees>40.787485130131244659423828125</LatitudeDegrees>
              <LongitudeDegrees>-4.06483923085033893585205078125</LongitudeDegrees>
            </Position>
            <AltitudeMeters>1654.5999755859375</AltitudeMeters>
            <DistanceMeters>NAN</DistanceMeters>
          </Trackpoint>
          <Trackpoint>
            <Time>2018-12-30T11:09:30.000Z</Time>
            <Position>
              <LatitudeDegrees>40.78749158419668674468994140625</LatitudeDegrees>
              <LongitudeDegrees>-4.06482565216720104217529296875</LongitudeDegrees>
            </Position>
            <AltitudeMeters>1654.5999755859375</AltitudeMeters>
            <DistanceMeters>NAN</DistanceMeters>
          </Trackpoint>
          <Trackpoint>
            <Time>2018-12-30T11:09:31.000Z</Time>
            <Position>
              <LatitudeDegrees>40.7874963618814945220947265625</LatitudeDegrees>
              <LongitudeDegrees>-4.0648141689598560333251953125</LongitudeDegrees>
            </Position>
            <AltitudeMeters>1654.800048828125</AltitudeMeters>
            <DistanceMeters>NAN</DistanceMeters>
          </Trackpoint>
          <Trackpoint>
            <Time>2018-12-30T11:09:32.000Z</Time>
            <Position>
              <LatitudeDegrees>40.7875007204711437225341796875</LatitudeDegrees>
              <LongitudeDegrees>-4.06479631550610065460205078125</LongitudeDegrees>
            </Position>
            <AltitudeMeters>1654.800048828125</AltitudeMeters>
            <DistanceMeters>NAN</DistanceMeters>
          </Trackpoint>
          <Trackpoint>
            <Time>2018-12-30T11:09:33.000Z</Time>
            <Position>
              <LatitudeDegrees>40.78750424087047576904296875</LatitudeDegrees>
              <LongitudeDegrees>-4.06478206627070903778076171875</LongitudeDegrees>
            </Position>
            <AltitudeMeters>1654.800048828125</AltitudeMeters>
            <DistanceMeters>NAN</DistanceMeters>
          </Trackpoint>
          <Trackpoint>
            <Time>2018-12-30T11:09:34.000Z</Time>
            <Position>
              <LatitudeDegrees>40.78751740045845508575439453125</LatitudeDegrees>
              <LongitudeDegrees>-4.06474267132580280303955078125</LongitudeDegrees>
            </Position>
            <AltitudeMeters>1654.5999755859375</AltitudeMeters>
            <DistanceMeters>NAN</DistanceMeters>
          </Trackpoint>
          <Trackpoint>
            <Time>2018-12-30T11:09:35.000Z</Time>
            <Position>
              <LatitudeDegrees>40.78751740045845508575439453125</LatitudeDegrees>
              <LongitudeDegrees>-4.06474267132580280303955078125</LongitudeDegrees>
            </Position>
            <AltitudeMeters>1654.5999755859375</AltitudeMeters>
            <DistanceMeters>NAN</DistanceMeters>
          </Trackpoint>
          <Trackpoint>
            <Time>2018-12-30T11:09:36.000Z</Time>
            <Position>
              <LatitudeDegrees>40.7875251956284046173095703125</LatitudeDegrees>
              <LongitudeDegrees>-4.0647223033010959625244140625</LongitudeDegrees>
            </Position>
            <AltitudeMeters>1654.800048828125</AltitudeMeters>
            <DistanceMeters>NAN</DistanceMeters>
          </Trackpoint>
          <Trackpoint>
            <Time>2018-12-30T11:09:37.000Z</Time>
            <Position>
              <LatitudeDegrees>40.7875315658748149871826171875</LatitudeDegrees>
              <LongitudeDegrees>-4.06470512039959430694580078125</LongitudeDegrees>
            </Position>
            <AltitudeMeters>1654.800048828125</AltitudeMeters>
            <DistanceMeters>NAN</DistanceMeters>
          </Trackpoint>
          <Trackpoint>
            <Time>2018-12-30T11:09:38.000Z</Time>
            <Position>
              <LatitudeDegrees>40.7875382713973522186279296875</LatitudeDegrees>
              <LongitudeDegrees>-4.064694307744503021240234375</LongitudeDegrees>
            </Position>
            <AltitudeMeters>1654.800048828125</AltitudeMeters>
            <DistanceMeters>NAN</DistanceMeters>
          </Trackpoint>
          <Trackpoint>
            <Time>2018-12-30T11:09:39.000Z</Time>
            <Position>
              <LatitudeDegrees>40.7875459827482700347900390625</LatitudeDegrees>
              <LongitudeDegrees>-4.06468885950744152069091796875</LongitudeDegrees>
            </Position>
            <AltitudeMeters>1654.800048828125</AltitudeMeters>
            <DistanceMeters>NAN</DistanceMeters>
          </Trackpoint>
          <Trackpoint>
            <Time>2018-12-30T11:09:40.000Z</Time>
            <Position>
              <LatitudeDegrees>40.78755117952823638916015625</LatitudeDegrees>
              <LongitudeDegrees>-4.06468383036553859710693359375</LongitudeDegrees>
            </Position>
            <AltitudeMeters>1654.800048828125</AltitudeMeters>
            <DistanceMeters>NAN</DistanceMeters>
          </Trackpoint>
          <Trackpoint>
            <Time>2018-12-30T11:09:41.000Z</Time>
            <Position>
              <LatitudeDegrees>40.78755646012723445892333984375</LatitudeDegrees>
              <LongitudeDegrees>-4.0646793879568576812744140625</LongitudeDegrees>
            </Position>
            <AltitudeMeters>1655</AltitudeMeters>
            <DistanceMeters>NAN</DistanceMeters>
          </Trackpoint>
          <Trackpoint>
            <Time>2018-12-30T11:09:42.000Z</Time>
            <Position>
              <LatitudeDegrees>40.78755914233624935150146484375</LatitudeDegrees>
              <LongitudeDegrees>-4.064668156206607818603515625</LongitudeDegrees>
            </Position>
            <AltitudeMeters>1655</AltitudeMeters>
            <DistanceMeters>NAN</DistanceMeters>
          </Trackpoint>
          <Trackpoint>
            <Time>2018-12-30T11:09:43.000Z</Time>
            <Position>
              <LatitudeDegrees>40.7875614054501056671142578125</LatitudeDegrees>
              <LongitudeDegrees>-4.06465382315218448638916015625</LongitudeDegrees>
            </Position>
            <AltitudeMeters>1655.199951171875</AltitudeMeters>
            <DistanceMeters>NAN</DistanceMeters>
          </Trackpoint>
          <Trackpoint>
            <Time>2018-12-30T11:09:44.000Z</Time>
            <Position>
              <LatitudeDegrees>40.787566602230072021484375</LatitudeDegrees>
              <LongitudeDegrees>-4.06464208848774433135986328125</LongitudeDegrees>
            </Position>
            <AltitudeMeters>1655.4000244140625</AltitudeMeters>
            <DistanceMeters>NAN</DistanceMeters>
          </Trackpoint>
          <Trackpoint>
            <Time>2018-12-30T11:09:45.000Z</Time>
            <Position>
              <LatitudeDegrees>40.78757054172456264495849609375</LatitudeDegrees>
              <LongitudeDegrees>-4.06462850980460643768310546875</LongitudeDegrees>
            </Position>
            <AltitudeMeters>1655.4000244140625</AltitudeMeters>
            <DistanceMeters>NAN</DistanceMeters>
          </Trackpoint>
          <Trackpoint>
            <Time>2018-12-30T11:09:46.000Z</Time>
            <Position>
              <LatitudeDegrees>40.78757640905678272247314453125</LatitudeDegrees>
              <LongitudeDegrees>-4.06461576931178569793701171875</LongitudeDegrees>
            </Position>
            <AltitudeMeters>1655.5999755859375</AltitudeMeters>
            <DistanceMeters>NAN</DistanceMeters>
          </Trackpoint>
          <Trackpoint>
            <Time>2018-12-30T11:09:47.000Z</Time>
            <Position>
              <LatitudeDegrees>40.78758495859801769256591796875</LatitudeDegrees>
              <LongitudeDegrees>-4.06460814177989959716796875</LongitudeDegrees>
            </Position>
            <AltitudeMeters>1655.800048828125</AltitudeMeters>
            <DistanceMeters>NAN</DistanceMeters>
          </Trackpoint>
          <Trackpoint>
            <Time>2018-12-30T11:09:48.000Z</Time>
            <Position>
              <LatitudeDegrees>40.78759300522506237030029296875</LatitudeDegrees>
              <LongitudeDegrees>-4.06460185535252094268798828125</LongitudeDegrees>
            </Position>
            <AltitudeMeters>1655.800048828125</AltitudeMeters>
            <DistanceMeters>NAN</DistanceMeters>
          </Trackpoint>
          <Trackpoint>
            <Time>2018-12-30T11:09:49.000Z</Time>
            <Position>
              <LatitudeDegrees>40.78760222531855106353759765625</LatitudeDegrees>
              <LongitudeDegrees>-4.06459783203899860382080078125</LongitudeDegrees>
            </Position>
            <AltitudeMeters>1656</AltitudeMeters>
            <DistanceMeters>NAN</DistanceMeters>
          </Trackpoint>
          <Trackpoint>
            <Time>2018-12-30T11:09:50.000Z</Time>
            <Position>
              <LatitudeDegrees>40.78761094249784946441650390625</LatitudeDegrees>
              <LongitudeDegrees>-4.064589701592922210693359375</LongitudeDegrees>
            </Position>
            <AltitudeMeters>1656.199951171875</AltitudeMeters>
            <DistanceMeters>NAN</DistanceMeters>
          </Trackpoint>
          <Trackpoint>
            <Time>2018-12-30T11:09:51.000Z</Time>
            <Position>
              <LatitudeDegrees>40.78761680983006954193115234375</LatitudeDegrees>
              <LongitudeDegrees>-4.06457486562430858612060546875</LongitudeDegrees>
            </Position>
            <AltitudeMeters>1656.4000244140625</AltitudeMeters>
            <DistanceMeters>NAN</DistanceMeters>
          </Trackpoint>
          <Trackpoint>
            <Time>2018-12-30T11:09:52.000Z</Time>
            <Position>
              <LatitudeDegrees>40.787627287209033966064453125</LatitudeDegrees>
              <LongitudeDegrees>-4.0645657293498516082763671875</LongitudeDegrees>
            </Position>
            <AltitudeMeters>1656.4000244140625</AltitudeMeters>
            <DistanceMeters>NAN</DistanceMeters>
          </Trackpoint>
          <Trackpoint>
            <Time>2018-12-30T11:09:53.000Z</Time>
            <Position>
              <LatitudeDegrees>40.78763525001704692840576171875</LatitudeDegrees>
              <LongitudeDegrees>-4.06455575488507747650146484375</LongitudeDegrees>
            </Position>
            <AltitudeMeters>1656.5999755859375</AltitudeMeters>
            <DistanceMeters>NAN</DistanceMeters>
          </Trackpoint>
          <Trackpoint>
            <Time>2018-12-30T11:09:54.000Z</Time>
            <Position>
              <LatitudeDegrees>40.78764061443507671356201171875</LatitudeDegrees>
              <LongitudeDegrees>-4.06454502604901790618896484375</LongitudeDegrees>
            </Position>
            <AltitudeMeters>1657.199951171875</AltitudeMeters>
            <DistanceMeters>NAN</DistanceMeters>
          </Trackpoint>
          <Trackpoint>
            <Time>2018-12-30T11:09:55.000Z</Time>
            <Position>
              <LatitudeDegrees>40.78764715231955051422119140625</LatitudeDegrees>
              <LongitudeDegrees>-4.0645365603268146514892578125</LongitudeDegrees>
            </Position>
            <AltitudeMeters>1657.4000244140625</AltitudeMeters>
            <DistanceMeters>NAN</DistanceMeters>
          </Trackpoint>
          <Trackpoint>
            <Time>2018-12-30T11:09:56.000Z</Time>
            <Position>
              <LatitudeDegrees>40.787653438746929168701171875</LatitudeDegrees>
              <LongitudeDegrees>-4.06453345902264118194580078125</LongitudeDegrees>
            </Position>
            <AltitudeMeters>1657.5999755859375</AltitudeMeters>
            <DistanceMeters>NAN</DistanceMeters>
          </Trackpoint>
          <Trackpoint>
            <Time>2018-12-30T11:09:57.000Z</Time>
            <Position>
              <LatitudeDegrees>40.78765771351754665374755859375</LatitudeDegrees>
              <LongitudeDegrees>-4.0645338781177997589111328125</LongitudeDegrees>
            </Position>
            <AltitudeMeters>1658</AltitudeMeters>
            <DistanceMeters>NAN</DistanceMeters>
          </Trackpoint>
          <Trackpoint>
            <Time>2018-12-30T11:09:58.000Z</Time>
            <Position>
              <LatitudeDegrees>40.7876579649746417999267578125</LatitudeDegrees>
              <LongitudeDegrees>-4.06453563831746578216552734375</LongitudeDegrees>
            </Position>
            <AltitudeMeters>1658.199951171875</AltitudeMeters>
            <DistanceMeters>NAN</DistanceMeters>
          </Trackpoint>
          <Trackpoint>
            <Time>2018-12-30T11:09:59.000Z</Time>
            <Position>
              <LatitudeDegrees>40.78765980899333953857421875</LatitudeDegrees>
              <LongitudeDegrees>-4.0645375661551952362060546875</LongitudeDegrees>
            </Position>
            <AltitudeMeters>1658.199951171875</AltitudeMeters>
            <DistanceMeters>NAN</DistanceMeters>
          </Trackpoint>
          <Trackpoint>
            <Time>2018-12-30T11:10:00.000Z</Time>
            <Position>
              <LatitudeDegrees>40.78765788115561008453369140625</LatitudeDegrees>
              <LongitudeDegrees>-4.064536727964878082275390625</LongitudeDegrees>
            </Position>
            <AltitudeMeters>1658.199951171875</AltitudeMeters>
            <DistanceMeters>NAN</DistanceMeters>
          </Trackpoint>
          <Trackpoint>
            <Time>2018-12-30T11:10:01.000Z</Time>
            <Position>
              <LatitudeDegrees>40.78765905462205410003662109375</LatitudeDegrees>
              <LongitudeDegrees>-4.06453832052648067474365234375</LongitudeDegrees>
            </Position>
            <AltitudeMeters>1658.4000244140625</AltitudeMeters>
            <DistanceMeters>NAN</DistanceMeters>
          </Trackpoint>
          <Trackpoint>
            <Time>2018-12-30T11:10:02.000Z</Time>
            <Position>
              <LatitudeDegrees>40.7876609824597835540771484375</LatitudeDegrees>
              <LongitudeDegrees>-4.0645395778119564056396484375</LongitudeDegrees>
            </Position>
            <AltitudeMeters>1658.4000244140625</AltitudeMeters>
            <DistanceMeters>NAN</DistanceMeters>
          </Trackpoint>
          <Trackpoint>
            <Time>2018-12-30T11:10:03.000Z</Time>
            <Position>
              <LatitudeDegrees>40.78766156919300556182861328125</LatitudeDegrees>
              <LongitudeDegrees>-4.06454184092581272125244140625</LongitudeDegrees>
            </Position>
            <AltitudeMeters>1658.5999755859375</AltitudeMeters>
            <DistanceMeters>NAN</DistanceMeters>
          </Trackpoint>
          <Trackpoint>
            <Time>2018-12-30T11:10:04.000Z</Time>
            <Position>
              <LatitudeDegrees>40.7876643352210521697998046875</LatitudeDegrees>
              <LongitudeDegrees>-4.06454351730644702911376953125</LongitudeDegrees>
            </Position>
            <AltitudeMeters>1658.5999755859375</AltitudeMeters>
            <DistanceMeters>NAN</DistanceMeters>
          </Trackpoint>
          <Trackpoint>
            <Time>2018-12-30T11:10:05.000Z</Time>
            <Position>
              <LatitudeDegrees>40.787665508687496185302734375</LatitudeDegrees>
              <LongitudeDegrees>-4.0645446069538593292236328125</LongitudeDegrees>
            </Position>
            <AltitudeMeters>1658.800048828125</AltitudeMeters>
            <DistanceMeters>NAN</DistanceMeters>
          </Trackpoint>
          <Trackpoint>
            <Time>2018-12-30T11:10:06.000Z</Time>
            <Position>
              <LatitudeDegrees>40.78766475431621074676513671875</LatitudeDegrees>
              <LongitudeDegrees>-4.06454318203032016754150390625</LongitudeDegrees>
            </Position>
            <AltitudeMeters>1659.199951171875</AltitudeMeters>
            <DistanceMeters>NAN</DistanceMeters>
          </Trackpoint>
          <Trackpoint>
            <Time>2018-12-30T11:10:07.000Z</Time>
            <Position>
              <LatitudeDegrees>40.78766492195427417755126953125</LatitudeDegrees>
              <LongitudeDegrees>-4.06454402022063732147216796875</LongitudeDegrees>
            </Position>
            <AltitudeMeters>1659.199951171875</AltitudeMeters>
            <DistanceMeters>NAN</DistanceMeters>
          </Trackpoint>
          <Trackpoint>
            <Time>2018-12-30T11:10:08.000Z</Time>
            <Position>
              <LatitudeDegrees>40.7876633293926715850830078125</LatitudeDegrees>
              <LongitudeDegrees>-4.06454536132514476776123046875</LongitudeDegrees>
            </Position>
            <AltitudeMeters>1659.4000244140625</AltitudeMeters>
            <DistanceMeters>NAN</DistanceMeters>
          </Trackpoint>
          <Trackpoint>
            <Time>2018-12-30T11:10:09.000Z</Time>
            <Position>
              <LatitudeDegrees>40.787661485373973846435546875</LatitudeDegrees>
              <LongitudeDegrees>-4.06454720534384250640869140625</LongitudeDegrees>
            </Position>
            <AltitudeMeters>1659.4000244140625</AltitudeMeters>
            <DistanceMeters>NAN</DistanceMeters>
          </Trackpoint>
          <Trackpoint>
            <Time>2018-12-30T11:10:10.000Z</Time>
            <Position>
              <LatitudeDegrees>40.7876609824597835540771484375</LatitudeDegrees>
              <LongitudeDegrees>-4.0645496360957622528076171875</LongitudeDegrees>
            </Position>
            <AltitudeMeters>1659.4000244140625</AltitudeMeters>
            <DistanceMeters>NAN</DistanceMeters>
          </Trackpoint>
          <Trackpoint>
            <Time>2018-12-30T11:10:11.000Z</Time>
            <Position>
              <LatitudeDegrees>40.7876583002507686614990234375</LatitudeDegrees>
              <LongitudeDegrees>-4.0645519830286502838134765625</LongitudeDegrees>
            </Position>
            <AltitudeMeters>1659.4000244140625</AltitudeMeters>
            <DistanceMeters>NAN</DistanceMeters>
          </Trackpoint>
          <Trackpoint>
            <Time>2018-12-30T11:10:12.000Z</Time>
            <Position>
              <LatitudeDegrees>40.78765871934592723846435546875</LatitudeDegrees>
              <LongitudeDegrees>-4.06455449759960174560546875</LongitudeDegrees>
            </Position>
            <AltitudeMeters>1659.4000244140625</AltitudeMeters>
            <DistanceMeters>NAN</DistanceMeters>
          </Trackpoint>
          <Trackpoint>
            <Time>2018-12-30T11:10:13.000Z</Time>
            <Position>
              <LatitudeDegrees>40.7876596413552761077880859375</LatitudeDegrees>
              <LongitudeDegrees>-4.0645566768944263458251953125</LongitudeDegrees>
            </Position>
            <AltitudeMeters>1659.199951171875</AltitudeMeters>
            <DistanceMeters>NAN</DistanceMeters>
          </Trackpoint>
          <Trackpoint>
            <Time>2018-12-30T11:10:14.000Z</Time>
            <Position>
              <LatitudeDegrees>40.787658132612705230712890625</LatitudeDegrees>
              <LongitudeDegrees>-4.0645576827228069305419921875</LongitudeDegrees>
            </Position>
            <AltitudeMeters>1659.199951171875</AltitudeMeters>
            <DistanceMeters>NAN</DistanceMeters>
          </Trackpoint>
          <Trackpoint>
            <Time>2018-12-30T11:10:15.000Z</Time>
            <Position>
              <LatitudeDegrees>40.7876586355268955230712890625</LatitudeDegrees>
              <LongitudeDegrees>-4.06456246040761470794677734375</LongitudeDegrees>
            </Position>
            <AltitudeMeters>1659</AltitudeMeters>
            <DistanceMeters>NAN</DistanceMeters>
          </Trackpoint>
          <Trackpoint>
            <Time>2018-12-30T11:10:16.000Z</Time>
            <Position>
              <LatitudeDegrees>40.78765721060335636138916015625</LatitudeDegrees>
              <LongitudeDegrees>-4.0645670704543590545654296875</LongitudeDegrees>
            </Position>
            <AltitudeMeters>1658.800048828125</AltitudeMeters>
            <DistanceMeters>NAN</DistanceMeters>
          </Trackpoint>
          <Trackpoint>
            <Time>2018-12-30T11:10:17.000Z</Time>
            <Position>
              <LatitudeDegrees>40.7876542769372463226318359375</LatitudeDegrees>
              <LongitudeDegrees>-4.0645680762827396392822265625</LongitudeDegrees>
            </Position>
            <AltitudeMeters>1658.800048828125</AltitudeMeters>
            <DistanceMeters>NAN</DistanceMeters>
          </Trackpoint>
          <Trackpoint>
            <Time>2018-12-30T11:10:18.000Z</Time>
            <Position>
              <LatitudeDegrees>40.787652432918548583984375</LatitudeDegrees>
              <LongitudeDegrees>-4.0645700879395008087158203125</LongitudeDegrees>
            </Position>
            <AltitudeMeters>1658.800048828125</AltitudeMeters>
            <DistanceMeters>NAN</DistanceMeters>
          </Trackpoint>
          <Trackpoint>
            <Time>2018-12-30T11:10:19.000Z</Time>
            <Position>
              <LatitudeDegrees>40.78765176236629486083984375</LatitudeDegrees>
              <LongitudeDegrees>-4.0645700879395008087158203125</LongitudeDegrees>
            </Position>
            <AltitudeMeters>1658.800048828125</AltitudeMeters>
            <DistanceMeters>NAN</DistanceMeters>
          </Trackpoint>
          <Trackpoint>
            <Time>2018-12-30T11:10:20.000Z</Time>
            <Position>
              <LatitudeDegrees>40.787651427090167999267578125</LatitudeDegrees>
              <LongitudeDegrees>-4.06457050703465938568115234375</LongitudeDegrees>
            </Position>
            <AltitudeMeters>1658.800048828125</AltitudeMeters>
            <DistanceMeters>NAN</DistanceMeters>
          </Trackpoint>
          <Trackpoint>
            <Time>2018-12-30T11:10:21.000Z</Time>
            <Position>
              <LatitudeDegrees>40.78765151090919971466064453125</LatitudeDegrees>
              <LongitudeDegrees>-4.06457100994884967803955078125</LongitudeDegrees>
            </Position>
            <AltitudeMeters>1658.800048828125</AltitudeMeters>
            <DistanceMeters>NAN</DistanceMeters>
          </Trackpoint>
          <Trackpoint>
            <Time>2018-12-30T11:10:22.000Z</Time>
            <Position>
              <LatitudeDegrees>40.78765167854726314544677734375</LatitudeDegrees>
              <LongitudeDegrees>-4.0645714290440082550048828125</LongitudeDegrees>
            </Position>
            <AltitudeMeters>1658.800048828125</AltitudeMeters>
            <DistanceMeters>NAN</DistanceMeters>
          </Trackpoint>
          <Trackpoint>
            <Time>2018-12-30T11:10:23.000Z</Time>
            <Position>
              <LatitudeDegrees>40.78765176236629486083984375</LatitudeDegrees>
              <LongitudeDegrees>-4.06457151286303997039794921875</LongitudeDegrees>
            </Position>
            <AltitudeMeters>1658.800048828125</AltitudeMeters>
            <DistanceMeters>NAN</DistanceMeters>
          </Trackpoint>
          <Trackpoint>
            <Time>2018-12-30T11:10:24.000Z</Time>
            <Position>
              <LatitudeDegrees>40.7876512594521045684814453125</LatitudeDegrees>
              <LongitudeDegrees>-4.06456924974918365478515625</LongitudeDegrees>
            </Position>
            <AltitudeMeters>1658.800048828125</AltitudeMeters>
            <DistanceMeters>NAN</DistanceMeters>
          </Trackpoint>
          <Trackpoint>
            <Time>2018-12-30T11:10:25.000Z</Time>
            <Position>
              <LatitudeDegrees>40.78765042126178741455078125</LatitudeDegrees>
              <LongitudeDegrees>-4.06456212513148784637451171875</LongitudeDegrees>
            </Position>
            <AltitudeMeters>1658.800048828125</AltitudeMeters>
            <DistanceMeters>NAN</DistanceMeters>
          </Trackpoint>
          <Trackpoint>
            <Time>2018-12-30T11:10:26.000Z</Time>
            <Position>
              <LatitudeDegrees>40.78765184618532657623291015625</LatitudeDegrees>
              <LongitudeDegrees>-4.06455516815185546875</LongitudeDegrees>
            </Position>
            <AltitudeMeters>1658.5999755859375</AltitudeMeters>
            <DistanceMeters>NAN</DistanceMeters>
          </Trackpoint>
          <Trackpoint>
            <Time>2018-12-30T11:10:27.000Z</Time>
            <Position>
              <LatitudeDegrees>40.78765176236629486083984375</LatitudeDegrees>
              <LongitudeDegrees>-4.06455391086637973785400390625</LongitudeDegrees>
            </Position>
            <AltitudeMeters>1658.5999755859375</AltitudeMeters>
            <DistanceMeters>NAN</DistanceMeters>
          </Trackpoint>
          <Trackpoint>
            <Time>2018-12-30T11:10:28.000Z</Time>
            <Position>
              <LatitudeDegrees>40.78765234909951686859130859375</LatitudeDegrees>
              <LongitudeDegrees>-4.06455583870410919189453125</LongitudeDegrees>
            </Position>
            <AltitudeMeters>1658.4000244140625</AltitudeMeters>
            <DistanceMeters>NAN</DistanceMeters>
          </Trackpoint>
          <Trackpoint>
            <Time>2018-12-30T11:10:29.000Z</Time>
            <Position>
              <LatitudeDegrees>40.78765301965177059173583984375</LatitudeDegrees>
              <LongitudeDegrees>-4.0645583532750606536865234375</LongitudeDegrees>
            </Position>
            <AltitudeMeters>1658.4000244140625</AltitudeMeters>
            <DistanceMeters>NAN</DistanceMeters>
          </Trackpoint>
          <Trackpoint>
            <Time>2018-12-30T11:10:30.000Z</Time>
            <Position>
              <LatitudeDegrees>40.78765335492789745330810546875</LatitudeDegrees>
              <LongitudeDegrees>-4.06455743126571178436279296875</LongitudeDegrees>
            </Position>
            <AltitudeMeters>1658.5999755859375</AltitudeMeters>
            <DistanceMeters>NAN</DistanceMeters>
          </Trackpoint>
          <Trackpoint>
            <Time>2018-12-30T11:10:31.000Z</Time>
            <Position>
              <LatitudeDegrees>40.787654109299182891845703125</LatitudeDegrees>
              <LongitudeDegrees>-4.06455541960895061492919921875</LongitudeDegrees>
            </Position>
            <AltitudeMeters>1658.5999755859375</AltitudeMeters>
            <DistanceMeters>NAN</DistanceMeters>
          </Trackpoint>
          <Trackpoint>
            <Time>2018-12-30T11:10:32.000Z</Time>
            <Position>
              <LatitudeDegrees>40.7876519300043582916259765625</LatitudeDegrees>
              <LongitudeDegrees>-4.06455726362764835357666015625</LongitudeDegrees>
            </Position>
            <AltitudeMeters>1658.5999755859375</AltitudeMeters>
            <DistanceMeters>NAN</DistanceMeters>
          </Trackpoint>
          <Trackpoint>
            <Time>2018-12-30T11:10:33.000Z</Time>
            <Position>
              <LatitudeDegrees>40.78765151090919971466064453125</LatitudeDegrees>
              <LongitudeDegrees>-4.0645553357899188995361328125</LongitudeDegrees>
            </Position>
            <AltitudeMeters>1658.800048828125</AltitudeMeters>
            <DistanceMeters>NAN</DistanceMeters>
          </Trackpoint>
          <Trackpoint>
            <Time>2018-12-30T11:10:34.000Z</Time>
            <Position>
              <LatitudeDegrees>40.78765184618532657623291015625</LatitudeDegrees>
              <LongitudeDegrees>-4.06455491669476032257080078125</LongitudeDegrees>
            </Position>
            <AltitudeMeters>1659</AltitudeMeters>
            <DistanceMeters>NAN</DistanceMeters>
          </Trackpoint>
          <Trackpoint>
            <Time>2018-12-30T11:10:35.000Z</Time>
            <Position>
              <LatitudeDegrees>40.7876522652804851531982421875</LatitudeDegrees>
              <LongitudeDegrees>-4.0645538270473480224609375</LongitudeDegrees>
            </Position>
            <AltitudeMeters>1659</AltitudeMeters>
            <DistanceMeters>NAN</DistanceMeters>
          </Trackpoint>
          <Trackpoint>
            <Time>2018-12-30T11:10:36.000Z</Time>
            <Position>
              <LatitudeDegrees>40.78765335492789745330810546875</LatitudeDegrees>
              <LongitudeDegrees>-4.0645543299615383148193359375</LongitudeDegrees>
            </Position>
            <AltitudeMeters>1659</AltitudeMeters>
            <DistanceMeters>NAN</DistanceMeters>
          </Trackpoint>
          <Trackpoint>
            <Time>2018-12-30T11:10:37.000Z</Time>
            <Position>
              <LatitudeDegrees>40.7876539416611194610595703125</LatitudeDegrees>
              <LongitudeDegrees>-4.064554832875728607177734375</LongitudeDegrees>
            </Position>
            <AltitudeMeters>1659</AltitudeMeters>
            <DistanceMeters>NAN</DistanceMeters>
          </Trackpoint>
          <Trackpoint>
            <Time>2018-12-30T11:10:38.000Z</Time>
            <Position>
              <LatitudeDegrees>40.78765318728983402252197265625</LatitudeDegrees>
              <LongitudeDegrees>-4.06455558724701404571533203125</LongitudeDegrees>
            </Position>
            <AltitudeMeters>1658.5999755859375</AltitudeMeters>
            <DistanceMeters>NAN</DistanceMeters>
          </Trackpoint>
          <Trackpoint>
            <Time>2018-12-30T11:10:39.000Z</Time>
            <Position>
              <LatitudeDegrees>40.7876532711088657379150390625</LatitudeDegrees>
              <LongitudeDegrees>-4.06455642543733119964599609375</LongitudeDegrees>
            </Position>
            <AltitudeMeters>1658.4000244140625</AltitudeMeters>
            <DistanceMeters>NAN</DistanceMeters>
          </Trackpoint>
          <Trackpoint>
            <Time>2018-12-30T11:10:40.000Z</Time>
            <Position>
              <LatitudeDegrees>40.78765234909951686859130859375</LatitudeDegrees>
              <LongitudeDegrees>-4.06455743126571178436279296875</LongitudeDegrees>
            </Position>
            <AltitudeMeters>1658.4000244140625</AltitudeMeters>
            <DistanceMeters>NAN</DistanceMeters>
          </Trackpoint>
          <Trackpoint>
            <Time>2018-12-30T11:10:41.000Z</Time>
            <Position>
              <LatitudeDegrees>40.7876522652804851531982421875</LatitudeDegrees>
              <LongitudeDegrees>-4.0645620413124561309814453125</LongitudeDegrees>
            </Position>
            <AltitudeMeters>1658.199951171875</AltitudeMeters>
            <DistanceMeters>NAN</DistanceMeters>
          </Trackpoint>
          <Trackpoint>
            <Time>2018-12-30T11:10:42.000Z</Time>
            <Position>
              <LatitudeDegrees>40.7876537740230560302734375</LatitudeDegrees>
              <LongitudeDegrees>-4.06456480734050273895263671875</LongitudeDegrees>
            </Position>
            <AltitudeMeters>1658.199951171875</AltitudeMeters>
            <DistanceMeters>NAN</DistanceMeters>
          </Trackpoint>
          <Trackpoint>
            <Time>2018-12-30T11:10:43.000Z</Time>
            <Position>
              <LatitudeDegrees>40.78765570186078548431396484375</LatitudeDegrees>
              <LongitudeDegrees>-4.064566232264041900634765625</LongitudeDegrees>
            </Position>
            <AltitudeMeters>1658</AltitudeMeters>
            <DistanceMeters>NAN</DistanceMeters>
          </Trackpoint>
          <Trackpoint>
            <Time>2018-12-30T11:10:44.000Z</Time>
            <Position>
              <LatitudeDegrees>40.78765846788883209228515625</LatitudeDegrees>
              <LongitudeDegrees>-4.064568579196929931640625</LongitudeDegrees>
            </Position>
            <AltitudeMeters>1658.199951171875</AltitudeMeters>
            <DistanceMeters>NAN</DistanceMeters>
          </Trackpoint>
          <Trackpoint>
            <Time>2018-12-30T11:10:45.000Z</Time>
            <Position>
              <LatitudeDegrees>40.787659473717212677001953125</LatitudeDegrees>
              <LongitudeDegrees>-4.06456883065402507781982421875</LongitudeDegrees>
            </Position>
            <AltitudeMeters>1658.199951171875</AltitudeMeters>
            <DistanceMeters>NAN</DistanceMeters>
          </Trackpoint>
          <Trackpoint>
            <Time>2018-12-30T11:10:46.000Z</Time>
            <Position>
              <LatitudeDegrees>40.78766073100268840789794921875</LatitudeDegrees>
              <LongitudeDegrees>-4.06457033939659595489501953125</LongitudeDegrees>
            </Position>
            <AltitudeMeters>1658.4000244140625</AltitudeMeters>
            <DistanceMeters>NAN</DistanceMeters>
          </Trackpoint>
          <Trackpoint>
            <Time>2018-12-30T11:10:47.000Z</Time>
            <Position>
              <LatitudeDegrees>40.787660814821720123291015625</LatitudeDegrees>
              <LongitudeDegrees>-4.064570255577564239501953125</LongitudeDegrees>
            </Position>
            <AltitudeMeters>1658.4000244140625</AltitudeMeters>
            <DistanceMeters>NAN</DistanceMeters>
          </Trackpoint>
          <Trackpoint>
            <Time>2018-12-30T11:10:48.000Z</Time>
            <Position>
              <LatitudeDegrees>40.7876603119075298309326171875</LatitudeDegrees>
              <LongitudeDegrees>-4.06457151286303997039794921875</LongitudeDegrees>
            </Position>
            <AltitudeMeters>1658.4000244140625</AltitudeMeters>
            <DistanceMeters>NAN</DistanceMeters>
          </Trackpoint>
          <Trackpoint>
            <Time>2018-12-30T11:10:49.000Z</Time>
            <Position>
              <LatitudeDegrees>40.78766056336462497711181640625</LatitudeDegrees>
              <LongitudeDegrees>-4.0645724348723888397216796875</LongitudeDegrees>
            </Position>
            <AltitudeMeters>1658.5999755859375</AltitudeMeters>
            <DistanceMeters>NAN</DistanceMeters>
          </Trackpoint>
          <Trackpoint>
            <Time>2018-12-30T11:10:50.000Z</Time>
            <Position>
              <LatitudeDegrees>40.787660144269466400146484375</LatitudeDegrees>
              <LongitudeDegrees>-4.06457268632948398590087890625</LongitudeDegrees>
            </Position>
            <AltitudeMeters>1658.5999755859375</AltitudeMeters>
            <DistanceMeters>NAN</DistanceMeters>
          </Trackpoint>
          <Trackpoint>
            <Time>2018-12-30T11:10:51.000Z</Time>
            <Position>
              <LatitudeDegrees>40.78765989281237125396728515625</LatitudeDegrees>
              <LongitudeDegrees>-4.06457385979592800140380859375</LongitudeDegrees>
            </Position>
            <AltitudeMeters>1658.5999755859375</AltitudeMeters>
            <DistanceMeters>NAN</DistanceMeters>
          </Trackpoint>
          <Trackpoint>
            <Time>2018-12-30T11:10:52.000Z</Time>
            <Position>
              <LatitudeDegrees>40.7876603119075298309326171875</LatitudeDegrees>
              <LongitudeDegrees>-4.0645747818052768707275390625</LongitudeDegrees>
            </Position>
            <AltitudeMeters>1658.5999755859375</AltitudeMeters>
            <DistanceMeters>NAN</DistanceMeters>
          </Trackpoint>
          <Trackpoint>
            <Time>2018-12-30T11:10:53.000Z</Time>
            <Position>
              <LatitudeDegrees>40.7876596413552761077880859375</LatitudeDegrees>
              <LongitudeDegrees>-4.06457570381462574005126953125</LongitudeDegrees>
            </Position>
            <AltitudeMeters>1658.5999755859375</AltitudeMeters>
            <DistanceMeters>NAN</DistanceMeters>
          </Trackpoint>
          <Trackpoint>
            <Time>2018-12-30T11:10:54.000Z</Time>
            <Position>
              <LatitudeDegrees>40.78765980899333953857421875</LatitudeDegrees>
              <LongitudeDegrees>-4.0645752847194671630859375</LongitudeDegrees>
            </Position>
            <AltitudeMeters>1658.4000244140625</AltitudeMeters>
            <DistanceMeters>NAN</DistanceMeters>
          </Trackpoint>
          <Trackpoint>
            <Time>2018-12-30T11:10:55.000Z</Time>
            <Position>
              <LatitudeDegrees>40.7876613177359104156494140625</LatitudeDegrees>
              <LongitudeDegrees>-4.0645667351782321929931640625</LongitudeDegrees>
            </Position>
            <AltitudeMeters>1657.800048828125</AltitudeMeters>
            <DistanceMeters>NAN</DistanceMeters>
          </Trackpoint>
          <Trackpoint>
            <Time>2018-12-30T11:10:56.000Z</Time>
            <Position>
              <LatitudeDegrees>40.7876656763255596160888671875</LatitudeDegrees>
              <LongitudeDegrees>-4.064558185636997222900390625</LongitudeDegrees>
            </Position>
            <AltitudeMeters>1657.5999755859375</AltitudeMeters>
            <DistanceMeters>NAN</DistanceMeters>
          </Trackpoint>
          <Trackpoint>
            <Time>2018-12-30T11:10:57.000Z</Time>
            <Position>
              <LatitudeDegrees>40.7876717112958431243896484375</LatitudeDegrees>
              <LongitudeDegrees>-4.064549468457698822021484375</LongitudeDegrees>
            </Position>
            <AltitudeMeters>1657.4000244140625</AltitudeMeters>
            <DistanceMeters>NAN</DistanceMeters>
          </Trackpoint>
          <Trackpoint>
            <Time>2018-12-30T11:10:58.000Z</Time>
            <Position>
              <LatitudeDegrees>40.78767724335193634033203125</LatitudeDegrees>
              <LongitudeDegrees>-4.06454133801162242889404296875</LongitudeDegrees>
            </Position>
            <AltitudeMeters>1657.199951171875</AltitudeMeters>
            <DistanceMeters>NAN</DistanceMeters>
          </Trackpoint>
          <Trackpoint>
            <Time>2018-12-30T11:10:59.000Z</Time>
            <Position>
              <LatitudeDegrees>40.7876824401319026947021484375</LatitudeDegrees>
              <LongitudeDegrees>-4.06453228555619716644287109375</LongitudeDegrees>
            </Position>
            <AltitudeMeters>1657.199951171875</AltitudeMeters>
            <DistanceMeters>NAN</DistanceMeters>
          </Trackpoint>
          <Trackpoint>
            <Time>2018-12-30T11:11:00.000Z</Time>
            <Position>
              <LatitudeDegrees>40.78768956474959850311279296875</LatitudeDegrees>
              <LongitudeDegrees>-4.0645241551101207733154296875</LongitudeDegrees>
            </Position>
            <AltitudeMeters>1657.199951171875</AltitudeMeters>
            <DistanceMeters>NAN</DistanceMeters>
          </Trackpoint>
          <Trackpoint>
            <Time>2018-12-30T11:11:01.000Z</Time>
            <Position>
              <LatitudeDegrees>40.787697695195674896240234375</LatitudeDegrees>
              <LongitudeDegrees>-4.0645184554159641265869140625</LongitudeDegrees>
            </Position>
            <AltitudeMeters>1657.4000244140625</AltitudeMeters>
            <DistanceMeters>NAN</DistanceMeters>
          </Trackpoint>
          <Trackpoint>
            <Time>2018-12-30T11:11:02.000Z</Time>
            <Position>
              <LatitudeDegrees>40.7877055741846561431884765625</LatitudeDegrees>
              <LongitudeDegrees>-4.0645104087889194488525390625</LongitudeDegrees>
            </Position>
            <AltitudeMeters>1657.800048828125</AltitudeMeters>
            <DistanceMeters>NAN</DistanceMeters>
          </Trackpoint>
          <Trackpoint>
            <Time>2018-12-30T11:11:03.000Z</Time>
            <Position>
              <LatitudeDegrees>40.78771051950752735137939453125</LatitudeDegrees>
              <LongitudeDegrees>-4.06449615955352783203125</LongitudeDegrees>
            </Position>
            <AltitudeMeters>1658</AltitudeMeters>
            <DistanceMeters>NAN</DistanceMeters>
          </Trackpoint>
          <Trackpoint>
            <Time>2018-12-30T11:11:04.000Z</Time>
            <Position>
              <LatitudeDegrees>40.78771789558231830596923828125</LatitudeDegrees>
              <LongitudeDegrees>-4.06449104659259319305419921875</LongitudeDegrees>
            </Position>
            <AltitudeMeters>1658.199951171875</AltitudeMeters>
            <DistanceMeters>NAN</DistanceMeters>
          </Trackpoint>
          <Trackpoint>
            <Time>2018-12-30T11:11:05.000Z</Time>
            <Position>
              <LatitudeDegrees>40.78771035186946392059326171875</LatitudeDegrees>
              <LongitudeDegrees>-4.06446707434952259063720703125</LongitudeDegrees>
            </Position>
            <AltitudeMeters>1658.4000244140625</AltitudeMeters>
            <DistanceMeters>NAN</DistanceMeters>
          </Trackpoint>
          <Trackpoint>
            <Time>2018-12-30T11:11:06.000Z</Time>
            <Position>
              <LatitudeDegrees>40.78771504573523998260498046875</LatitudeDegrees>
              <LongitudeDegrees>-4.06447025947272777557373046875</LongitudeDegrees>
            </Position>
            <AltitudeMeters>1658.5999755859375</AltitudeMeters>
            <DistanceMeters>NAN</DistanceMeters>
          </Trackpoint>
          <Trackpoint>
            <Time>2018-12-30T11:11:07.000Z</Time>
            <Position>
              <LatitudeDegrees>40.78772527165710926055908203125</LatitudeDegrees>
              <LongitudeDegrees>-4.064471684396266937255859375</LongitudeDegrees>
            </Position>
            <AltitudeMeters>1658.5999755859375</AltitudeMeters>
            <DistanceMeters>NAN</DistanceMeters>
          </Trackpoint>
          <Trackpoint>
            <Time>2018-12-30T11:11:08.000Z</Time>
            <Position>
              <LatitudeDegrees>40.78773046843707561492919921875</LatitudeDegrees>
              <LongitudeDegrees>-4.0644708462059497833251953125</LongitudeDegrees>
            </Position>
            <AltitudeMeters>1658.5999755859375</AltitudeMeters>
            <DistanceMeters>NAN</DistanceMeters>
          </Trackpoint>
          <Trackpoint>
            <Time>2018-12-30T11:11:09.000Z</Time>
            <Position>
              <LatitudeDegrees>40.78773180954158306121826171875</LatitudeDegrees>
              <LongitudeDegrees>-4.0644671581685543060302734375</LongitudeDegrees>
            </Position>
            <AltitudeMeters>1658.5999755859375</AltitudeMeters>
            <DistanceMeters>NAN</DistanceMeters>
          </Trackpoint>
          <Trackpoint>
            <Time>2018-12-30T11:11:10.000Z</Time>
            <Position>
              <LatitudeDegrees>40.78773952089250087738037109375</LatitudeDegrees>
              <LongitudeDegrees>-4.0644705109298229217529296875</LongitudeDegrees>
            </Position>
            <AltitudeMeters>1658.800048828125</AltitudeMeters>
            <DistanceMeters>NAN</DistanceMeters>
          </Trackpoint>
          <Trackpoint>
            <Time>2018-12-30T11:11:11.000Z</Time>
            <Position>
              <LatitudeDegrees>40.78774924390017986297607421875</LatitudeDegrees>
              <LongitudeDegrees>-4.0644695051014423370361328125</LongitudeDegrees>
            </Position>
            <AltitudeMeters>1658.800048828125</AltitudeMeters>
            <DistanceMeters>NAN</DistanceMeters>
          </Trackpoint>
          <Trackpoint>
            <Time>2018-12-30T11:11:12.000Z</Time>
            <Position>
              <LatitudeDegrees>40.7877565361559391021728515625</LatitudeDegrees>
              <LongitudeDegrees>-4.0644567646086215972900390625</LongitudeDegrees>
            </Position>
            <AltitudeMeters>1658.800048828125</AltitudeMeters>
            <DistanceMeters>NAN</DistanceMeters>
          </Trackpoint>
          <Trackpoint>
            <Time>2018-12-30T11:11:13.000Z</Time>
            <Position>
              <LatitudeDegrees>40.7877622358500957489013671875</LatitudeDegrees>
              <LongitudeDegrees>-4.06444695778191089630126953125</LongitudeDegrees>
            </Position>
            <AltitudeMeters>1658.800048828125</AltitudeMeters>
            <DistanceMeters>NAN</DistanceMeters>
          </Trackpoint>
          <Trackpoint>
            <Time>2018-12-30T11:11:14.000Z</Time>
            <Position>
              <LatitudeDegrees>40.787768773734569549560546875</LatitudeDegrees>
              <LongitudeDegrees>-4.06444041989743709564208984375</LongitudeDegrees>
            </Position>
            <AltitudeMeters>1659.199951171875</AltitudeMeters>
            <DistanceMeters>NAN</DistanceMeters>
          </Trackpoint>
          <Trackpoint>
            <Time>2018-12-30T11:11:15.000Z</Time>
            <Position>
              <LatitudeDegrees>40.78777288086712360382080078125</LatitudeDegrees>
              <LongitudeDegrees>-4.0644326247274875640869140625</LongitudeDegrees>
            </Position>
            <AltitudeMeters>1659.199951171875</AltitudeMeters>
            <DistanceMeters>NAN</DistanceMeters>
          </Trackpoint>
          <Trackpoint>
            <Time>2018-12-30T11:11:16.000Z</Time>
            <Position>
              <LatitudeDegrees>40.78777690418064594268798828125</LatitudeDegrees>
              <LongitudeDegrees>-4.0644192136824131011962890625</LongitudeDegrees>
            </Position>
            <AltitudeMeters>1659.199951171875</AltitudeMeters>
            <DistanceMeters>NAN</DistanceMeters>
          </Trackpoint>
          <Trackpoint>
            <Time>2018-12-30T11:11:17.000Z</Time>
            <Position>
              <LatitudeDegrees>40.78778260387480258941650390625</LatitudeDegrees>
              <LongitudeDegrees>-4.06440957449376583099365234375</LongitudeDegrees>
            </Position>
            <AltitudeMeters>1659.199951171875</AltitudeMeters>
            <DistanceMeters>NAN</DistanceMeters>
          </Trackpoint>
          <Trackpoint>
            <Time>2018-12-30T11:11:18.000Z</Time>
            <Position>
              <LatitudeDegrees>40.7877852022647857666015625</LatitudeDegrees>
              <LongitudeDegrees>-4.06439892947673797607421875</LongitudeDegrees>
            </Position>
            <AltitudeMeters>1659.199951171875</AltitudeMeters>
            <DistanceMeters>NAN</DistanceMeters>
          </Trackpoint>
          <Trackpoint>
            <Time>2018-12-30T11:11:19.000Z</Time>
            <Position>
              <LatitudeDegrees>40.78778863884508609771728515625</LatitudeDegrees>
              <LongitudeDegrees>-4.06438878737390041351318359375</LongitudeDegrees>
            </Position>
            <AltitudeMeters>1659.199951171875</AltitudeMeters>
            <DistanceMeters>NAN</DistanceMeters>
          </Trackpoint>
          <Trackpoint>
            <Time>2018-12-30T11:11:20.000Z</Time>
            <Position>
              <LatitudeDegrees>40.78779299743473529815673828125</LatitudeDegrees>
              <LongitudeDegrees>-4.06437906436622142791748046875</LongitudeDegrees>
            </Position>
            <AltitudeMeters>1659.199951171875</AltitudeMeters>
            <DistanceMeters>NAN</DistanceMeters>
          </Trackpoint>
          <Trackpoint>
            <Time>2018-12-30T11:11:21.000Z</Time>
            <Position>
              <LatitudeDegrees>40.7877997867763042449951171875</LatitudeDegrees>
              <LongitudeDegrees>-4.06437051482498645782470703125</LongitudeDegrees>
            </Position>
            <AltitudeMeters>1659.199951171875</AltitudeMeters>
            <DistanceMeters>NAN</DistanceMeters>
          </Trackpoint>
          <Trackpoint>
            <Time>2018-12-30T11:11:22.000Z</Time>
            <Position>
              <LatitudeDegrees>40.7878054864704608917236328125</LatitudeDegrees>
              <LongitudeDegrees>-4.0643642283976078033447265625</LongitudeDegrees>
            </Position>
            <AltitudeMeters>1659.199951171875</AltitudeMeters>
            <DistanceMeters>NAN</DistanceMeters>
          </Trackpoint>
          <Trackpoint>
            <Time>2018-12-30T11:11:23.000Z</Time>
            <Position>
              <LatitudeDegrees>40.7878108508884906768798828125</LatitudeDegrees>
              <LongitudeDegrees>-4.0643545053899288177490234375</LongitudeDegrees>
            </Position>
            <AltitudeMeters>1659.199951171875</AltitudeMeters>
            <DistanceMeters>NAN</DistanceMeters>
          </Trackpoint>
          <Trackpoint>
            <Time>2018-12-30T11:11:24.000Z</Time>
            <Position>
              <LatitudeDegrees>40.787813700735569000244140625</LatitudeDegrees>
              <LongitudeDegrees>-4.06434117816388607025146484375</LongitudeDegrees>
            </Position>
            <AltitudeMeters>1659.199951171875</AltitudeMeters>
            <DistanceMeters>NAN</DistanceMeters>
          </Trackpoint>
          <Trackpoint>
            <Time>2018-12-30T11:11:25.000Z</Time>
            <Position>
              <LatitudeDegrees>40.78781965188682079315185546875</LatitudeDegrees>
              <LongitudeDegrees>-4.0643293596804141998291015625</LongitudeDegrees>
            </Position>
            <AltitudeMeters>1659.4000244140625</AltitudeMeters>
            <DistanceMeters>NAN</DistanceMeters>
          </Trackpoint>
          <Trackpoint>
            <Time>2018-12-30T11:11:26.000Z</Time>
            <Position>
              <LatitudeDegrees>40.78783004544675350189208984375</LatitudeDegrees>
              <LongitudeDegrees>-4.06432114541530609130859375</LongitudeDegrees>
            </Position>
            <AltitudeMeters>1659.5999755859375</AltitudeMeters>
            <DistanceMeters>NAN</DistanceMeters>
          </Trackpoint>
          <Trackpoint>
            <Time>2018-12-30T11:11:27.000Z</Time>
            <Position>
              <LatitudeDegrees>40.78783691860735416412353515625</LatitudeDegrees>
              <LongitudeDegrees>-4.0643058903515338897705078125</LongitudeDegrees>
            </Position>
            <AltitudeMeters>1659.800048828125</AltitudeMeters>
            <DistanceMeters>NAN</DistanceMeters>
          </Trackpoint>
          <Trackpoint>
            <Time>2018-12-30T11:11:28.000Z</Time>
            <Position>
              <LatitudeDegrees>40.78784178011119365692138671875</LatitudeDegrees>
              <LongitudeDegrees>-4.064291976392269134521484375</LongitudeDegrees>
            </Position>
            <AltitudeMeters>1659.800048828125</AltitudeMeters>
            <DistanceMeters>NAN</DistanceMeters>
          </Trackpoint>
          <Trackpoint>
            <Time>2018-12-30T11:11:29.000Z</Time>
            <Position>
              <LatitudeDegrees>40.78784949146211147308349609375</LatitudeDegrees>
              <LongitudeDegrees>-4.0642760507762432098388671875</LongitudeDegrees>
            </Position>
            <AltitudeMeters>1660</AltitudeMeters>
            <DistanceMeters>NAN</DistanceMeters>
          </Trackpoint>
          <Trackpoint>
            <Time>2018-12-30T11:11:30.000Z</Time>
            <Position>
              <LatitudeDegrees>40.78784949146211147308349609375</LatitudeDegrees>
              <LongitudeDegrees>-4.0642760507762432098388671875</LongitudeDegrees>
            </Position>
            <AltitudeMeters>1660</AltitudeMeters>
            <DistanceMeters>NAN</DistanceMeters>
          </Trackpoint>
          <Trackpoint>
            <Time>2018-12-30T11:11:31.000Z</Time>
            <Position>
              <LatitudeDegrees>40.78785385005176067352294921875</LatitudeDegrees>
              <LongitudeDegrees>-4.06426741741597652435302734375</LongitudeDegrees>
            </Position>
            <AltitudeMeters>1660</AltitudeMeters>
            <DistanceMeters>NAN</DistanceMeters>
          </Trackpoint>
          <Trackpoint>
            <Time>2018-12-30T11:11:32.000Z</Time>
            <Position>
              <LatitudeDegrees>40.7878517545759677886962890625</LatitudeDegrees>
              <LongitudeDegrees>-4.06425752677023410797119140625</LongitudeDegrees>
            </Position>
            <AltitudeMeters>1660</AltitudeMeters>
            <DistanceMeters>NAN</DistanceMeters>
          </Trackpoint>
          <Trackpoint>
            <Time>2018-12-30T11:11:33.000Z</Time>
            <Position>
              <LatitudeDegrees>40.7878611423075199127197265625</LatitudeDegrees>
              <LongitudeDegrees>-4.06424512155354022979736328125</LongitudeDegrees>
            </Position>
            <AltitudeMeters>1660</AltitudeMeters>
            <DistanceMeters>NAN</DistanceMeters>
          </Trackpoint>
          <Trackpoint>
            <Time>2018-12-30T11:11:34.000Z</Time>
            <Position>
              <LatitudeDegrees>40.787872374057769775390625</LatitudeDegrees>
              <LongitudeDegrees>-4.064233638346195220947265625</LongitudeDegrees>
            </Position>
            <AltitudeMeters>1659.800048828125</AltitudeMeters>
            <DistanceMeters>NAN</DistanceMeters>
          </Trackpoint>
          <Trackpoint>
            <Time>2018-12-30T11:11:35.000Z</Time>
            <Position>
              <LatitudeDegrees>40.78788687475025653839111328125</LatitudeDegrees>
              <LongitudeDegrees>-4.06422584317624568939208984375</LongitudeDegrees>
            </Position>
            <AltitudeMeters>1659.800048828125</AltitudeMeters>
            <DistanceMeters>NAN</DistanceMeters>
          </Trackpoint>
          <Trackpoint>
            <Time>2018-12-30T11:11:36.000Z</Time>
            <Position>
              <LatitudeDegrees>40.787899196147918701171875</LatitudeDegrees>
              <LongitudeDegrees>-4.064214527606964111328125</LongitudeDegrees>
            </Position>
            <AltitudeMeters>1659.800048828125</AltitudeMeters>
            <DistanceMeters>NAN</DistanceMeters>
          </Trackpoint>
          <Trackpoint>
            <Time>2018-12-30T11:11:37.000Z</Time>
            <Position>
              <LatitudeDegrees>40.78790900297462940216064453125</LatitudeDegrees>
              <LongitudeDegrees>-4.06420220620930194854736328125</LongitudeDegrees>
            </Position>
            <AltitudeMeters>1660</AltitudeMeters>
            <DistanceMeters>NAN</DistanceMeters>
          </Trackpoint>
          <Trackpoint>
            <Time>2018-12-30T11:11:38.000Z</Time>
            <Position>
              <LatitudeDegrees>40.78791889362037181854248046875</LatitudeDegrees>
              <LongitudeDegrees>-4.0641908906400203704833984375</LongitudeDegrees>
            </Position>
            <AltitudeMeters>1660.199951171875</AltitudeMeters>
            <DistanceMeters>NAN</DistanceMeters>
          </Trackpoint>
          <Trackpoint>
            <Time>2018-12-30T11:11:39.000Z</Time>
            <Position>
              <LatitudeDegrees>40.787927694618701934814453125</LatitudeDegrees>
              <LongitudeDegrees>-4.0641758032143115997314453125</LongitudeDegrees>
            </Position>
            <AltitudeMeters>1660.4000244140625</AltitudeMeters>
            <DistanceMeters>NAN</DistanceMeters>
          </Trackpoint>
          <Trackpoint>
            <Time>2018-12-30T11:11:40.000Z</Time>
            <Position>
              <LatitudeDegrees>40.78793498687446117401123046875</LatitudeDegrees>
              <LongitudeDegrees>-4.064160548150539398193359375</LongitudeDegrees>
            </Position>
            <AltitudeMeters>1660.800048828125</AltitudeMeters>
            <DistanceMeters>NAN</DistanceMeters>
          </Trackpoint>
          <Trackpoint>
            <Time>2018-12-30T11:11:41.000Z</Time>
            <Position>
              <LatitudeDegrees>40.78793951310217380523681640625</LatitudeDegrees>
              <LongitudeDegrees>-4.06414034776389598846435546875</LongitudeDegrees>
            </Position>
            <AltitudeMeters>1660.800048828125</AltitudeMeters>
            <DistanceMeters>NAN</DistanceMeters>
          </Trackpoint>
          <Trackpoint>
            <Time>2018-12-30T11:11:42.000Z</Time>
            <Position>
              <LatitudeDegrees>40.7879452966153621673583984375</LatitudeDegrees>
              <LongitudeDegrees>-4.06411402858793735504150390625</LongitudeDegrees>
            </Position>
            <AltitudeMeters>1661</AltitudeMeters>
            <DistanceMeters>NAN</DistanceMeters>
          </Trackpoint>
          <Trackpoint>
            <Time>2018-12-30T11:11:43.000Z</Time>
            <Position>
              <LatitudeDegrees>40.7879520021378993988037109375</LatitudeDegrees>
              <LongitudeDegrees>-4.06409240327775478363037109375</LongitudeDegrees>
            </Position>
            <AltitudeMeters>1661</AltitudeMeters>
            <DistanceMeters>NAN</DistanceMeters>
          </Trackpoint>
          <Trackpoint>
            <Time>2018-12-30T11:11:44.000Z</Time>
            <Position>
              <LatitudeDegrees>40.78796365298330783843994140625</LatitudeDegrees>
              <LongitudeDegrees>-4.06407840549945831298828125</LongitudeDegrees>
            </Position>
            <AltitudeMeters>1660.5999755859375</AltitudeMeters>
            <DistanceMeters>NAN</DistanceMeters>
          </Trackpoint>
          <Trackpoint>
            <Time>2018-12-30T11:11:45.000Z</Time>
            <Position>
              <LatitudeDegrees>40.7879741303622722625732421875</LatitudeDegrees>
              <LongitudeDegrees>-4.0640654973685741424560546875</LongitudeDegrees>
            </Position>
            <AltitudeMeters>1660.4000244140625</AltitudeMeters>
            <DistanceMeters>NAN</DistanceMeters>
          </Trackpoint>
          <Trackpoint>
            <Time>2018-12-30T11:11:46.000Z</Time>
            <Position>
              <LatitudeDegrees>40.7879811711609363555908203125</LatitudeDegrees>
              <LongitudeDegrees>-4.0640480630099773406982421875</LongitudeDegrees>
            </Position>
            <AltitudeMeters>1660.199951171875</AltitudeMeters>
            <DistanceMeters>NAN</DistanceMeters>
          </Trackpoint>
          <Trackpoint>
            <Time>2018-12-30T11:11:47.000Z</Time>
            <Position>
              <LatitudeDegrees>40.78799030743539333343505859375</LatitudeDegrees>
              <LongitudeDegrees>-4.06403423286974430084228515625</LongitudeDegrees>
            </Position>
            <AltitudeMeters>1660.199951171875</AltitudeMeters>
            <DistanceMeters>NAN</DistanceMeters>
          </Trackpoint>
          <Trackpoint>
            <Time>2018-12-30T11:11:48.000Z</Time>
            <Position>
              <LatitudeDegrees>40.78800422139465808868408203125</LatitudeDegrees>
              <LongitudeDegrees>-4.0640255995094776153564453125</LongitudeDegrees>
            </Position>
            <AltitudeMeters>1660.199951171875</AltitudeMeters>
            <DistanceMeters>NAN</DistanceMeters>
          </Trackpoint>
          <Trackpoint>
            <Time>2018-12-30T11:11:49.000Z</Time>
            <Position>
              <LatitudeDegrees>40.788016207516193389892578125</LatitudeDegrees>
              <LongitudeDegrees>-4.06401545740664005279541015625</LongitudeDegrees>
            </Position>
            <AltitudeMeters>1660.199951171875</AltitudeMeters>
            <DistanceMeters>NAN</DistanceMeters>
          </Trackpoint>
          <Trackpoint>
            <Time>2018-12-30T11:11:50.000Z</Time>
            <Position>
              <LatitudeDegrees>40.78802685253322124481201171875</LatitudeDegrees>
              <LongitudeDegrees>-4.06400732696056365966796875</LongitudeDegrees>
            </Position>
            <AltitudeMeters>1660.4000244140625</AltitudeMeters>
            <DistanceMeters>NAN</DistanceMeters>
          </Trackpoint>
          <Trackpoint>
            <Time>2018-12-30T11:11:51.000Z</Time>
            <Position>
              <LatitudeDegrees>40.7880368269979953765869140625</LatitudeDegrees>
              <LongitudeDegrees>-4.0639957599341869354248046875</LongitudeDegrees>
            </Position>
            <AltitudeMeters>1660.4000244140625</AltitudeMeters>
            <DistanceMeters>NAN</DistanceMeters>
          </Trackpoint>
          <Trackpoint>
            <Time>2018-12-30T11:11:52.000Z</Time>
            <Position>
              <LatitudeDegrees>40.78804495744407176971435546875</LatitudeDegrees>
              <LongitudeDegrees>-4.0639826841652393341064453125</LongitudeDegrees>
            </Position>
            <AltitudeMeters>1660.5999755859375</AltitudeMeters>
            <DistanceMeters>NAN</DistanceMeters>
          </Trackpoint>
          <Trackpoint>
            <Time>2018-12-30T11:11:53.000Z</Time>
            <Position>
              <LatitudeDegrees>40.7880539260804653167724609375</LatitudeDegrees>
              <LongitudeDegrees>-4.06397321261465549468994140625</LongitudeDegrees>
            </Position>
            <AltitudeMeters>1660.5999755859375</AltitudeMeters>
            <DistanceMeters>NAN</DistanceMeters>
          </Trackpoint>
          <Trackpoint>
            <Time>2018-12-30T11:11:54.000Z</Time>
            <Position>
              <LatitudeDegrees>40.78806054778397083282470703125</LatitudeDegrees>
              <LongitudeDegrees>-4.0639650821685791015625</LongitudeDegrees>
            </Position>
            <AltitudeMeters>1660.800048828125</AltitudeMeters>
            <DistanceMeters>NAN</DistanceMeters>
          </Trackpoint>
          <Trackpoint>
            <Time>2018-12-30T11:11:55.000Z</Time>
            <Position>
              <LatitudeDegrees>40.78807027079164981842041015625</LatitudeDegrees>
              <LongitudeDegrees>-4.06395812518894672393798828125</LongitudeDegrees>
            </Position>
            <AltitudeMeters>1660.800048828125</AltitudeMeters>
            <DistanceMeters>NAN</DistanceMeters>
          </Trackpoint>
          <Trackpoint>
            <Time>2018-12-30T11:11:56.000Z</Time>
            <Position>
              <LatitudeDegrees>40.78807814978063106536865234375</LatitudeDegrees>
              <LongitudeDegrees>-4.06395041383802890777587890625</LongitudeDegrees>
            </Position>
            <AltitudeMeters>1661.199951171875</AltitudeMeters>
            <DistanceMeters>NAN</DistanceMeters>
          </Trackpoint>
          <Trackpoint>
            <Time>2018-12-30T11:11:57.000Z</Time>
            <Position>
              <LatitudeDegrees>40.7880909740924835205078125</LatitudeDegrees>
              <LongitudeDegrees>-4.0639404393732547760009765625</LongitudeDegrees>
            </Position>
            <AltitudeMeters>1661.4000244140625</AltitudeMeters>
            <DistanceMeters>NAN</DistanceMeters>
          </Trackpoint>
          <Trackpoint>
            <Time>2018-12-30T11:11:58.000Z</Time>
            <Position>
              <LatitudeDegrees>40.78810262493789196014404296875</LatitudeDegrees>
              <LongitudeDegrees>-4.0639327280223369598388671875</LongitudeDegrees>
            </Position>
            <AltitudeMeters>1661.5999755859375</AltitudeMeters>
            <DistanceMeters>NAN</DistanceMeters>
          </Trackpoint>
          <Trackpoint>
            <Time>2018-12-30T11:11:59.000Z</Time>
            <Position>
              <LatitudeDegrees>40.78811536543071269989013671875</LatitudeDegrees>
              <LongitudeDegrees>-4.06392945908010005950927734375</LongitudeDegrees>
            </Position>
            <AltitudeMeters>1661.800048828125</AltitudeMeters>
            <DistanceMeters>NAN</DistanceMeters>
          </Trackpoint>
          <Trackpoint>
            <Time>2018-12-30T11:12:00.000Z</Time>
            <Position>
              <LatitudeDegrees>40.78812114894390106201171875</LatitudeDegrees>
              <LongitudeDegrees>-4.06392560340464115142822265625</LongitudeDegrees>
            </Position>
            <AltitudeMeters>1662</AltitudeMeters>
            <DistanceMeters>NAN</DistanceMeters>
          </Trackpoint>
          <Trackpoint>
            <Time>2018-12-30T11:12:01.000Z</Time>
            <Position>
              <LatitudeDegrees>40.7881293632090091705322265625</LatitudeDegrees>
              <LongitudeDegrees>-4.06392409466207027435302734375</LongitudeDegrees>
            </Position>
            <AltitudeMeters>1662.199951171875</AltitudeMeters>
            <DistanceMeters>NAN</DistanceMeters>
          </Trackpoint>
          <Trackpoint>
            <Time>2018-12-30T11:12:02.000Z</Time>
            <Position>
              <LatitudeDegrees>40.78813464380800724029541015625</LatitudeDegrees>
              <LongitudeDegrees>-4.0639226697385311126708984375</LongitudeDegrees>
            </Position>
            <AltitudeMeters>1662.5999755859375</AltitudeMeters>
            <DistanceMeters>NAN</DistanceMeters>
          </Trackpoint>
          <Trackpoint>
            <Time>2018-12-30T11:12:03.000Z</Time>
            <Position>
              <LatitudeDegrees>40.788146965205669403076171875</LatitudeDegrees>
              <LongitudeDegrees>-4.0639208257198333740234375</LongitudeDegrees>
            </Position>
            <AltitudeMeters>1662.800048828125</AltitudeMeters>
            <DistanceMeters>NAN</DistanceMeters>
          </Trackpoint>
          <Trackpoint>
            <Time>2018-12-30T11:12:04.000Z</Time>
            <Position>
              <LatitudeDegrees>40.78816398046910762786865234375</LatitudeDegrees>
              <LongitudeDegrees>-4.06391621567308902740478515625</LongitudeDegrees>
            </Position>
            <AltitudeMeters>1662.800048828125</AltitudeMeters>
            <DistanceMeters>NAN</DistanceMeters>
          </Trackpoint>
          <Trackpoint>
            <Time>2018-12-30T11:12:05.000Z</Time>
            <Position>
              <LatitudeDegrees>40.78818158246576786041259765625</LatitudeDegrees>
              <LongitudeDegrees>-4.06390850432217121124267578125</LongitudeDegrees>
            </Position>
            <AltitudeMeters>1663</AltitudeMeters>
            <DistanceMeters>NAN</DistanceMeters>
          </Trackpoint>
          <Trackpoint>
            <Time>2018-12-30T11:12:06.000Z</Time>
            <Position>
              <LatitudeDegrees>40.788191892206668853759765625</LatitudeDegrees>
              <LongitudeDegrees>-4.063900373876094818115234375</LongitudeDegrees>
            </Position>
            <AltitudeMeters>1663</AltitudeMeters>
            <DistanceMeters>NAN</DistanceMeters>
          </Trackpoint>
          <Trackpoint>
            <Time>2018-12-30T11:12:07.000Z</Time>
            <Position>
              <LatitudeDegrees>40.7881984300911426544189453125</LatitudeDegrees>
              <LongitudeDegrees>-4.063880257308483123779296875</LongitudeDegrees>
            </Position>
            <AltitudeMeters>1663</AltitudeMeters>
            <DistanceMeters>NAN</DistanceMeters>
          </Trackpoint>
          <Trackpoint>
            <Time>2018-12-30T11:12:08.000Z</Time>
            <Position>
              <LatitudeDegrees>40.78820840455591678619384765625</LatitudeDegrees>
              <LongitudeDegrees>-4.063873551785945892333984375</LongitudeDegrees>
            </Position>
            <AltitudeMeters>1662.800048828125</AltitudeMeters>
            <DistanceMeters>NAN</DistanceMeters>
          </Trackpoint>
          <Trackpoint>
            <Time>2018-12-30T11:12:09.000Z</Time>
            <Position>
              <LatitudeDegrees>40.78821636736392974853515625</LatitudeDegrees>
              <LongitudeDegrees>-4.0638707019388675689697265625</LongitudeDegrees>
            </Position>
            <AltitudeMeters>1663</AltitudeMeters>
            <DistanceMeters>NAN</DistanceMeters>
          </Trackpoint>
          <Trackpoint>
            <Time>2018-12-30T11:12:10.000Z</Time>
            <Position>
              <LatitudeDegrees>40.78822332434356212615966796875</LatitudeDegrees>
              <LongitudeDegrees>-4.063871204853057861328125</LongitudeDegrees>
            </Position>
            <AltitudeMeters>1662.800048828125</AltitudeMeters>
            <DistanceMeters>NAN</DistanceMeters>
          </Trackpoint>
          <Trackpoint>
            <Time>2018-12-30T11:12:11.000Z</Time>
            <Position>
              <LatitudeDegrees>40.78823111951351165771484375</LatitudeDegrees>
              <LongitudeDegrees>-4.06387531198561191558837890625</LongitudeDegrees>
            </Position>
            <AltitudeMeters>1662.800048828125</AltitudeMeters>
            <DistanceMeters>NAN</DistanceMeters>
          </Trackpoint>
          <Trackpoint>
            <Time>2018-12-30T11:12:12.000Z</Time>
            <Position>
              <LatitudeDegrees>40.788228102028369903564453125</LatitudeDegrees>
              <LongitudeDegrees>-4.06387447379529476165771484375</LongitudeDegrees>
            </Position>
            <AltitudeMeters>1663</AltitudeMeters>
            <DistanceMeters>NAN</DistanceMeters>
          </Trackpoint>
          <Trackpoint>
            <Time>2018-12-30T11:12:13.000Z</Time>
            <Position>
              <LatitudeDegrees>40.78824126161634922027587890625</LatitudeDegrees>
              <LongitudeDegrees>-4.06387480907142162322998046875</LongitudeDegrees>
            </Position>
            <AltitudeMeters>1663.199951171875</AltitudeMeters>
            <DistanceMeters>NAN</DistanceMeters>
          </Trackpoint>
          <Trackpoint>
            <Time>2018-12-30T11:12:14.000Z</Time>
            <Position>
              <LatitudeDegrees>40.788246206939220428466796875</LatitudeDegrees>
              <LongitudeDegrees>-4.0638683550059795379638671875</LongitudeDegrees>
            </Position>
            <AltitudeMeters>1663.4000244140625</AltitudeMeters>
            <DistanceMeters>NAN</DistanceMeters>
          </Trackpoint>
          <Trackpoint>
            <Time>2018-12-30T11:12:15.000Z</Time>
            <Position>
              <LatitudeDegrees>40.78826489858329296112060546875</LatitudeDegrees>
              <LongitudeDegrees>-4.0638626553118228912353515625</LongitudeDegrees>
            </Position>
            <AltitudeMeters>1663.5999755859375</AltitudeMeters>
            <DistanceMeters>NAN</DistanceMeters>
          </Trackpoint>
          <Trackpoint>
            <Time>2018-12-30T11:12:16.000Z</Time>
            <Position>
              <LatitudeDegrees>40.78827780671417713165283203125</LatitudeDegrees>
              <LongitudeDegrees>-4.06385284848511219024658203125</LongitudeDegrees>
            </Position>
            <AltitudeMeters>1663.5999755859375</AltitudeMeters>
            <DistanceMeters>NAN</DistanceMeters>
          </Trackpoint>
          <Trackpoint>
            <Time>2018-12-30T11:12:17.000Z</Time>
            <Position>
              <LatitudeDegrees>40.78828878700733184814453125</LatitudeDegrees>
              <LongitudeDegrees>-4.06384195201098918914794921875</LongitudeDegrees>
            </Position>
            <AltitudeMeters>1663.800048828125</AltitudeMeters>
            <DistanceMeters>NAN</DistanceMeters>
          </Trackpoint>
          <Trackpoint>
            <Time>2018-12-30T11:12:18.000Z</Time>
            <Position>
              <LatitudeDegrees>40.788300521671772003173828125</LatitudeDegrees>
              <LongitudeDegrees>-4.06383759342133998870849609375</LongitudeDegrees>
            </Position>
            <AltitudeMeters>1664</AltitudeMeters>
            <DistanceMeters>NAN</DistanceMeters>
          </Trackpoint>
          <Trackpoint>
            <Time>2018-12-30T11:12:19.000Z</Time>
            <Position>
              <LatitudeDegrees>40.78830647282302379608154296875</LatitudeDegrees>
              <LongitudeDegrees>-4.06382367946207523345947265625</LongitudeDegrees>
            </Position>
            <AltitudeMeters>1663.800048828125</AltitudeMeters>
            <DistanceMeters>NAN</DistanceMeters>
          </Trackpoint>
          <Trackpoint>
            <Time>2018-12-30T11:12:20.000Z</Time>
            <Position>
              <LatitudeDegrees>40.78832021914422512054443359375</LatitudeDegrees>
              <LongitudeDegrees>-4.06382183544337749481201171875</LongitudeDegrees>
            </Position>
            <AltitudeMeters>1663.800048828125</AltitudeMeters>
            <DistanceMeters>NAN</DistanceMeters>
          </Trackpoint>
          <Trackpoint>
            <Time>2018-12-30T11:12:21.000Z</Time>
            <Position>
              <LatitudeDegrees>40.7883335463702678680419921875</LatitudeDegrees>
              <LongitudeDegrees>-4.06381680630147457122802734375</LongitudeDegrees>
            </Position>
            <AltitudeMeters>1663.4000244140625</AltitudeMeters>
            <DistanceMeters>NAN</DistanceMeters>
          </Trackpoint>
          <Trackpoint>
            <Time>2018-12-30T11:12:22.000Z</Time>
            <Position>
              <LatitudeDegrees>40.78834368847310543060302734375</LatitudeDegrees>
              <LongitudeDegrees>-4.06380775384604930877685546875</LongitudeDegrees>
            </Position>
            <AltitudeMeters>1663.4000244140625</AltitudeMeters>
            <DistanceMeters>NAN</DistanceMeters>
          </Trackpoint>
          <Trackpoint>
            <Time>2018-12-30T11:12:23.000Z</Time>
            <Position>
              <LatitudeDegrees>40.78834922052919864654541015625</LatitudeDegrees>
              <LongitudeDegrees>-4.06379568390548229217529296875</LongitudeDegrees>
            </Position>
            <AltitudeMeters>1663.4000244140625</AltitudeMeters>
            <DistanceMeters>NAN</DistanceMeters>
          </Trackpoint>
          <Trackpoint>
            <Time>2018-12-30T11:12:24.000Z</Time>
            <Position>
              <LatitudeDegrees>40.78835877589881420135498046875</LatitudeDegrees>
              <LongitudeDegrees>-4.06378512270748615264892578125</LongitudeDegrees>
            </Position>
            <AltitudeMeters>1663.5999755859375</AltitudeMeters>
            <DistanceMeters>NAN</DistanceMeters>
          </Trackpoint>
          <Trackpoint>
            <Time>2018-12-30T11:12:25.000Z</Time>
            <Position>
              <LatitudeDegrees>40.7883660681545734405517578125</LatitudeDegrees>
              <LongitudeDegrees>-4.06377531588077545166015625</LongitudeDegrees>
            </Position>
            <AltitudeMeters>1664.199951171875</AltitudeMeters>
            <DistanceMeters>NAN</DistanceMeters>
          </Trackpoint>
          <Trackpoint>
            <Time>2018-12-30T11:12:26.000Z</Time>
            <Position>
              <LatitudeDegrees>40.78837470151484012603759765625</LatitudeDegrees>
              <LongitudeDegrees>-4.06376659870147705078125</LongitudeDegrees>
            </Position>
            <AltitudeMeters>1664.800048828125</AltitudeMeters>
            <DistanceMeters>NAN</DistanceMeters>
          </Trackpoint>
          <Trackpoint>
            <Time>2018-12-30T11:12:27.000Z</Time>
            <Position>
              <LatitudeDegrees>40.78837864100933074951171875</LatitudeDegrees>
              <LongitudeDegrees>-4.0637603960931301116943359375</LongitudeDegrees>
            </Position>
            <AltitudeMeters>1665</AltitudeMeters>
            <DistanceMeters>NAN</DistanceMeters>
          </Trackpoint>
          <Trackpoint>
            <Time>2018-12-30T11:12:28.000Z</Time>
            <Position>
              <LatitudeDegrees>40.7883888669312000274658203125</LatitudeDegrees>
              <LongitudeDegrees>-4.06375075690448284149169921875</LongitudeDegrees>
            </Position>
            <AltitudeMeters>1665.4000244140625</AltitudeMeters>
            <DistanceMeters>NAN</DistanceMeters>
          </Trackpoint>
          <Trackpoint>
            <Time>2018-12-30T11:12:29.000Z</Time>
            <Position>
              <LatitudeDegrees>40.7883975841104984283447265625</LatitudeDegrees>
              <LongitudeDegrees>-4.06374824233353137969970703125</LongitudeDegrees>
            </Position>
            <AltitudeMeters>1665.4000244140625</AltitudeMeters>
            <DistanceMeters>NAN</DistanceMeters>
          </Trackpoint>
          <Trackpoint>
            <Time>2018-12-30T11:12:30.000Z</Time>
            <Position>
              <LatitudeDegrees>40.78840571455657482147216796875</LatitudeDegrees>
              <LongitudeDegrees>-4.06374069862067699432373046875</LongitudeDegrees>
            </Position>
            <AltitudeMeters>1665.4000244140625</AltitudeMeters>
            <DistanceMeters>NAN</DistanceMeters>
          </Trackpoint>
          <Trackpoint>
            <Time>2018-12-30T11:12:31.000Z</Time>
            <Position>
              <LatitudeDegrees>40.788414180278778076171875</LatitudeDegrees>
              <LongitudeDegrees>-4.0637261979281902313232421875</LongitudeDegrees>
            </Position>
            <AltitudeMeters>1665.4000244140625</AltitudeMeters>
            <DistanceMeters>NAN</DistanceMeters>
          </Trackpoint>
          <Trackpoint>
            <Time>2018-12-30T11:12:32.000Z</Time>
            <Position>
              <LatitudeDegrees>40.788417868316173553466796875</LatitudeDegrees>
              <LongitudeDegrees>-4.0637040697038173675537109375</LongitudeDegrees>
            </Position>
            <AltitudeMeters>1665.199951171875</AltitudeMeters>
            <DistanceMeters>NAN</DistanceMeters>
          </Trackpoint>
          <Trackpoint>
            <Time>2018-12-30T11:12:33.000Z</Time>
            <Position>
              <LatitudeDegrees>40.78842532820999622344970703125</LatitudeDegrees>
              <LongitudeDegrees>-4.063695855438709259033203125</LongitudeDegrees>
            </Position>
            <AltitudeMeters>1665</AltitudeMeters>
            <DistanceMeters>NAN</DistanceMeters>
          </Trackpoint>
          <Trackpoint>
            <Time>2018-12-30T11:12:34.000Z</Time>
            <Position>
              <LatitudeDegrees>40.7884337939321994781494140625</LatitudeDegrees>
              <LongitudeDegrees>-4.0636930055916309356689453125</LongitudeDegrees>
            </Position>
            <AltitudeMeters>1664.800048828125</AltitudeMeters>
            <DistanceMeters>NAN</DistanceMeters>
          </Trackpoint>
          <Trackpoint>
            <Time>2018-12-30T11:12:35.000Z</Time>
            <Position>
              <LatitudeDegrees>40.788441337645053863525390625</LatitudeDegrees>
              <LongitudeDegrees>-4.06368789263069629669189453125</LongitudeDegrees>
            </Position>
            <AltitudeMeters>1664.5999755859375</AltitudeMeters>
            <DistanceMeters>NAN</DistanceMeters>
          </Trackpoint>
          <Trackpoint>
            <Time>2018-12-30T11:12:36.000Z</Time>
            <Position>
              <LatitudeDegrees>40.7884495519101619720458984375</LatitudeDegrees>
              <LongitudeDegrees>-4.063682444393634796142578125</LongitudeDegrees>
            </Position>
            <AltitudeMeters>1664.4000244140625</AltitudeMeters>
            <DistanceMeters>NAN</DistanceMeters>
          </Trackpoint>
          <Trackpoint>
            <Time>2018-12-30T11:12:37.000Z</Time>
            <Position>
              <LatitudeDegrees>40.78845885582268238067626953125</LatitudeDegrees>
              <LongitudeDegrees>-4.06368185766041278839111328125</LongitudeDegrees>
            </Position>
            <AltitudeMeters>1664.4000244140625</AltitudeMeters>
            <DistanceMeters>NAN</DistanceMeters>
          </Trackpoint>
          <Trackpoint>
            <Time>2018-12-30T11:12:38.000Z</Time>
            <Position>
              <LatitudeDegrees>40.7884676568210124969482421875</LatitudeDegrees>
              <LongitudeDegrees>-4.0636779181659221649169921875</LongitudeDegrees>
            </Position>
            <AltitudeMeters>1664.4000244140625</AltitudeMeters>
            <DistanceMeters>NAN</DistanceMeters>
          </Trackpoint>
          <Trackpoint>
            <Time>2018-12-30T11:12:39.000Z</Time>
            <Position>
              <LatitudeDegrees>40.78847612254321575164794921875</LatitudeDegrees>
              <LongitudeDegrees>-4.06367062591016292572021484375</LongitudeDegrees>
            </Position>
            <AltitudeMeters>1664.5999755859375</AltitudeMeters>
            <DistanceMeters>NAN</DistanceMeters>
          </Trackpoint>
          <Trackpoint>
            <Time>2018-12-30T11:12:40.000Z</Time>
            <Position>
              <LatitudeDegrees>40.7884847559034824371337890625</LatitudeDegrees>
              <LongitudeDegrees>-4.06366668641567230224609375</LongitudeDegrees>
            </Position>
            <AltitudeMeters>1665</AltitudeMeters>
            <DistanceMeters>NAN</DistanceMeters>
          </Trackpoint>
          <Trackpoint>
            <Time>2018-12-30T11:12:41.000Z</Time>
            <Position>
              <LatitudeDegrees>40.788494646549224853515625</LatitudeDegrees>
              <LongitudeDegrees>-4.06366375274956226348876953125</LongitudeDegrees>
            </Position>
            <AltitudeMeters>1665.199951171875</AltitudeMeters>
            <DistanceMeters>NAN</DistanceMeters>
          </Trackpoint>
          <Trackpoint>
            <Time>2018-12-30T11:12:42.000Z</Time>
            <Position>
              <LatitudeDegrees>40.78849934041500091552734375</LatitudeDegrees>
              <LongitudeDegrees>-4.06366157345473766326904296875</LongitudeDegrees>
            </Position>
            <AltitudeMeters>1665.4000244140625</AltitudeMeters>
            <DistanceMeters>NAN</DistanceMeters>
          </Trackpoint>
          <Trackpoint>
            <Time>2018-12-30T11:12:43.000Z</Time>
            <Position>
              <LatitudeDegrees>40.7885055430233478546142578125</LatitudeDegrees>
              <LongitudeDegrees>-4.06365922652184963226318359375</LongitudeDegrees>
            </Position>
            <AltitudeMeters>1665.800048828125</AltitudeMeters>
            <DistanceMeters>NAN</DistanceMeters>
          </Trackpoint>
          <Trackpoint>
            <Time>2018-12-30T11:12:44.000Z</Time>
            <Position>
              <LatitudeDegrees>40.78851752914488315582275390625</LatitudeDegrees>
              <LongitudeDegrees>-4.0636557899415493011474609375</LongitudeDegrees>
            </Position>
            <AltitudeMeters>1666</AltitudeMeters>
            <DistanceMeters>NAN</DistanceMeters>
          </Trackpoint>
          <Trackpoint>
            <Time>2018-12-30T11:12:45.000Z</Time>
            <Position>
              <LatitudeDegrees>40.7885283417999744415283203125</LatitudeDegrees>
              <LongitudeDegrees>-4.06364833004772663116455078125</LongitudeDegrees>
            </Position>
            <AltitudeMeters>1666</AltitudeMeters>
            <DistanceMeters>NAN</DistanceMeters>
          </Trackpoint>
          <Trackpoint>
            <Time>2018-12-30T11:12:46.000Z</Time>
            <Position>
              <LatitudeDegrees>40.7885424233973026275634765625</LatitudeDegrees>
              <LongitudeDegrees>-4.06363852322101593017578125</LongitudeDegrees>
            </Position>
            <AltitudeMeters>1666.199951171875</AltitudeMeters>
            <DistanceMeters>NAN</DistanceMeters>
          </Trackpoint>
          <Trackpoint>
            <Time>2018-12-30T11:12:47.000Z</Time>
            <Position>
              <LatitudeDegrees>40.78855021856725215911865234375</LatitudeDegrees>
              <LongitudeDegrees>-4.0636269561946392059326171875</LongitudeDegrees>
            </Position>
            <AltitudeMeters>1666.4000244140625</AltitudeMeters>
            <DistanceMeters>NAN</DistanceMeters>
          </Trackpoint>
          <Trackpoint>
            <Time>2018-12-30T11:12:48.000Z</Time>
            <Position>
              <LatitudeDegrees>40.7885561697185039520263671875</LatitudeDegrees>
              <LongitudeDegrees>-4.0636179037392139434814453125</LongitudeDegrees>
            </Position>
            <AltitudeMeters>1666.4000244140625</AltitudeMeters>
            <DistanceMeters>NAN</DistanceMeters>
          </Trackpoint>
          <Trackpoint>
            <Time>2018-12-30T11:12:49.000Z</Time>
            <Position>
              <LatitudeDegrees>40.78857184387743473052978515625</LatitudeDegrees>
              <LongitudeDegrees>-4.0636158920824527740478515625</LongitudeDegrees>
            </Position>
            <AltitudeMeters>1666.4000244140625</AltitudeMeters>
            <DistanceMeters>NAN</DistanceMeters>
          </Trackpoint>
          <Trackpoint>
            <Time>2018-12-30T11:12:50.000Z</Time>
            <Position>
              <LatitudeDegrees>40.7885883562266826629638671875</LatitudeDegrees>
              <LongitudeDegrees>-4.06360927037894725799560546875</LongitudeDegrees>
            </Position>
            <AltitudeMeters>1666.4000244140625</AltitudeMeters>
            <DistanceMeters>NAN</DistanceMeters>
          </Trackpoint>
          <Trackpoint>
            <Time>2018-12-30T11:12:51.000Z</Time>
            <Position>
              <LatitudeDegrees>40.78859799541532993316650390625</LatitudeDegrees>
              <LongitudeDegrees>-4.06359820626676082611083984375</LongitudeDegrees>
            </Position>
            <AltitudeMeters>1666.5999755859375</AltitudeMeters>
            <DistanceMeters>NAN</DistanceMeters>
          </Trackpoint>
          <Trackpoint>
            <Time>2018-12-30T11:12:52.000Z</Time>
            <Position>
              <LatitudeDegrees>40.78860570676624774932861328125</LatitudeDegrees>
              <LongitudeDegrees>-4.06358462758362293243408203125</LongitudeDegrees>
            </Position>
            <AltitudeMeters>1666.5999755859375</AltitudeMeters>
            <DistanceMeters>NAN</DistanceMeters>
          </Trackpoint>
          <Trackpoint>
            <Time>2018-12-30T11:12:53.000Z</Time>
            <Position>
              <LatitudeDegrees>40.78861794434487819671630859375</LatitudeDegrees>
              <LongitudeDegrees>-4.063570462167263031005859375</LongitudeDegrees>
            </Position>
            <AltitudeMeters>1666.5999755859375</AltitudeMeters>
            <DistanceMeters>NAN</DistanceMeters>
          </Trackpoint>
          <Trackpoint>
            <Time>2018-12-30T11:12:54.000Z</Time>
            <Position>
              <LatitudeDegrees>40.788628421723842620849609375</LatitudeDegrees>
              <LongitudeDegrees>-4.063557051122188568115234375</LongitudeDegrees>
            </Position>
            <AltitudeMeters>1666.5999755859375</AltitudeMeters>
            <DistanceMeters>NAN</DistanceMeters>
          </Trackpoint>
          <Trackpoint>
            <Time>2018-12-30T11:12:55.000Z</Time>
            <Position>
              <LatitudeDegrees>40.78864124603569507598876953125</LatitudeDegrees>
              <LongitudeDegrees>-4.06354732811450958251953125</LongitudeDegrees>
            </Position>
            <AltitudeMeters>1666.800048828125</AltitudeMeters>
            <DistanceMeters>NAN</DistanceMeters>
          </Trackpoint>
          <Trackpoint>
            <Time>2018-12-30T11:12:56.000Z</Time>
            <Position>
              <LatitudeDegrees>40.7886688224971294403076171875</LatitudeDegrees>
              <LongitudeDegrees>-4.063533246517181396484375</LongitudeDegrees>
            </Position>
            <AltitudeMeters>1666.800048828125</AltitudeMeters>
            <DistanceMeters>NAN</DistanceMeters>
          </Trackpoint>
          <Trackpoint>
            <Time>2018-12-30T11:12:57.000Z</Time>
            <Position>
              <LatitudeDegrees>40.7886688224971294403076171875</LatitudeDegrees>
              <LongitudeDegrees>-4.063533246517181396484375</LongitudeDegrees>
            </Position>
            <AltitudeMeters>1667</AltitudeMeters>
            <DistanceMeters>NAN</DistanceMeters>
          </Trackpoint>
          <Trackpoint>
            <Time>2018-12-30T11:12:58.000Z</Time>
            <Position>
              <LatitudeDegrees>40.78868038952350616455078125</LatitudeDegrees>
              <LongitudeDegrees>-4.063524194061756134033203125</LongitudeDegrees>
            </Position>
            <AltitudeMeters>1667</AltitudeMeters>
            <DistanceMeters>NAN</DistanceMeters>
          </Trackpoint>
          <Trackpoint>
            <Time>2018-12-30T11:12:59.000Z</Time>
            <Position>
              <LatitudeDegrees>40.78869044780731201171875</LatitudeDegrees>
              <LongitudeDegrees>-4.06351782381534576416015625</LongitudeDegrees>
            </Position>
            <AltitudeMeters>1667</AltitudeMeters>
            <DistanceMeters>NAN</DistanceMeters>
          </Trackpoint>
          <Trackpoint>
            <Time>2018-12-30T11:13:00.000Z</Time>
            <Position>
              <LatitudeDegrees>40.7886979915201663970947265625</LatitudeDegrees>
              <LongitudeDegrees>-4.0635122917592525482177734375</LongitudeDegrees>
            </Position>
            <AltitudeMeters>1667.199951171875</AltitudeMeters>
            <DistanceMeters>NAN</DistanceMeters>
          </Trackpoint>
          <Trackpoint>
            <Time>2018-12-30T11:13:01.000Z</Time>
            <Position>
              <LatitudeDegrees>40.78870796598494052886962890625</LatitudeDegrees>
              <LongitudeDegrees>-4.06350516714155673980712890625</LongitudeDegrees>
            </Position>
            <AltitudeMeters>1667.4000244140625</AltitudeMeters>
            <DistanceMeters>NAN</DistanceMeters>
          </Trackpoint>
          <Trackpoint>
            <Time>2018-12-30T11:13:02.000Z</Time>
            <Position>
              <LatitudeDegrees>40.7887160964310169219970703125</LatitudeDegrees>
              <LongitudeDegrees>-4.06349510885775089263916015625</LongitudeDegrees>
            </Position>
            <AltitudeMeters>1667.5999755859375</AltitudeMeters>
            <DistanceMeters>NAN</DistanceMeters>
          </Trackpoint>
          <Trackpoint>
            <Time>2018-12-30T11:13:03.000Z</Time>
            <Position>
              <LatitudeDegrees>40.78872607089579105377197265625</LatitudeDegrees>
              <LongitudeDegrees>-4.06349041499197483062744140625</LongitudeDegrees>
            </Position>
            <AltitudeMeters>1667.5999755859375</AltitudeMeters>
            <DistanceMeters>NAN</DistanceMeters>
          </Trackpoint>
          <Trackpoint>
            <Time>2018-12-30T11:13:04.000Z</Time>
            <Position>
              <LatitudeDegrees>40.78873713500797748565673828125</LatitudeDegrees>
              <LongitudeDegrees>-4.0634878166019916534423828125</LongitudeDegrees>
            </Position>
            <AltitudeMeters>1667.800048828125</AltitudeMeters>
            <DistanceMeters>NAN</DistanceMeters>
          </Trackpoint>
          <Trackpoint>
            <Time>2018-12-30T11:13:05.000Z</Time>
            <Position>
              <LatitudeDegrees>40.78874233178794384002685546875</LatitudeDegrees>
              <LongitudeDegrees>-4.06347884796559810638427734375</LongitudeDegrees>
            </Position>
            <AltitudeMeters>1668</AltitudeMeters>
            <DistanceMeters>NAN</DistanceMeters>
          </Trackpoint>
          <Trackpoint>
            <Time>2018-12-30T11:13:06.000Z</Time>
            <Position>
              <LatitudeDegrees>40.788746438920497894287109375</LatitudeDegrees>
              <LongitudeDegrees>-4.06347490847110748291015625</LongitudeDegrees>
            </Position>
            <AltitudeMeters>1668.199951171875</AltitudeMeters>
            <DistanceMeters>NAN</DistanceMeters>
          </Trackpoint>
          <Trackpoint>
            <Time>2018-12-30T11:13:07.000Z</Time>
            <Position>
              <LatitudeDegrees>40.78875280916690826416015625</LatitudeDegrees>
              <LongitudeDegrees>-4.0634750761091709136962890625</LongitudeDegrees>
            </Position>
            <AltitudeMeters>1668.199951171875</AltitudeMeters>
            <DistanceMeters>NAN</DistanceMeters>
          </Trackpoint>
          <Trackpoint>
            <Time>2018-12-30T11:13:08.000Z</Time>
            <Position>
              <LatitudeDegrees>40.78875951468944549560546875</LatitudeDegrees>
              <LongitudeDegrees>-4.06347515992820262908935546875</LongitudeDegrees>
            </Position>
            <AltitudeMeters>1668.199951171875</AltitudeMeters>
            <DistanceMeters>NAN</DistanceMeters>
          </Trackpoint>
          <Trackpoint>
            <Time>2018-12-30T11:13:09.000Z</Time>
            <Position>
              <LatitudeDegrees>40.7887653820216655731201171875</LatitudeDegrees>
              <LongitudeDegrees>-4.06347700394690036773681640625</LongitudeDegrees>
            </Position>
            <AltitudeMeters>1668.199951171875</AltitudeMeters>
            <DistanceMeters>NAN</DistanceMeters>
          </Trackpoint>
          <Trackpoint>
            <Time>2018-12-30T11:13:10.000Z</Time>
            <Position>
              <LatitudeDegrees>40.78877233900129795074462890625</LatitudeDegrees>
              <LongitudeDegrees>-4.06348505057394504547119140625</LongitudeDegrees>
            </Position>
            <AltitudeMeters>1668.199951171875</AltitudeMeters>
            <DistanceMeters>NAN</DistanceMeters>
          </Trackpoint>
          <Trackpoint>
            <Time>2018-12-30T11:13:11.000Z</Time>
            <Position>
              <LatitudeDegrees>40.788781642913818359375</LatitudeDegrees>
              <LongitudeDegrees>-4.063492678105831146240234375</LongitudeDegrees>
            </Position>
            <AltitudeMeters>1668.4000244140625</AltitudeMeters>
            <DistanceMeters>NAN</DistanceMeters>
          </Trackpoint>
          <Trackpoint>
            <Time>2018-12-30T11:13:12.000Z</Time>
            <Position>
              <LatitudeDegrees>40.78879396431148052215576171875</LatitudeDegrees>
              <LongitudeDegrees>-4.0634961985051631927490234375</LongitudeDegrees>
            </Position>
            <AltitudeMeters>1668.4000244140625</AltitudeMeters>
            <DistanceMeters>NAN</DistanceMeters>
          </Trackpoint>
          <Trackpoint>
            <Time>2018-12-30T11:13:13.000Z</Time>
            <Position>
              <LatitudeDegrees>40.788804776966571807861328125</LatitudeDegrees>
              <LongitudeDegrees>-4.0634998865425586700439453125</LongitudeDegrees>
            </Position>
            <AltitudeMeters>1668.4000244140625</AltitudeMeters>
            <DistanceMeters>NAN</DistanceMeters>
          </Trackpoint>
          <Trackpoint>
            <Time>2018-12-30T11:13:14.000Z</Time>
            <Position>
              <LatitudeDegrees>40.78882263042032718658447265625</LatitudeDegrees>
              <LongitudeDegrees>-4.0635173209011554718017578125</LongitudeDegrees>
            </Position>
            <AltitudeMeters>1668.5999755859375</AltitudeMeters>
            <DistanceMeters>NAN</DistanceMeters>
          </Trackpoint>
          <Trackpoint>
            <Time>2018-12-30T11:13:15.000Z</Time>
            <Position>
              <LatitudeDegrees>40.7888327725231647491455078125</LatitudeDegrees>
              <LongitudeDegrees>-4.063520170748233795166015625</LongitudeDegrees>
            </Position>
            <AltitudeMeters>1668.800048828125</AltitudeMeters>
            <DistanceMeters>NAN</DistanceMeters>
          </Trackpoint>
          <Trackpoint>
            <Time>2018-12-30T11:13:16.000Z</Time>
            <Position>
              <LatitudeDegrees>40.78884375281631946563720703125</LatitudeDegrees>
              <LongitudeDegrees>-4.06352226622402667999267578125</LongitudeDegrees>
            </Position>
            <AltitudeMeters>1669</AltitudeMeters>
            <DistanceMeters>NAN</DistanceMeters>
          </Trackpoint>
          <Trackpoint>
            <Time>2018-12-30T11:13:17.000Z</Time>
            <Position>
              <LatitudeDegrees>40.78885213471949100494384765625</LatitudeDegrees>
              <LongitudeDegrees>-4.06352587044239044189453125</LongitudeDegrees>
            </Position>
            <AltitudeMeters>1669.199951171875</AltitudeMeters>
            <DistanceMeters>NAN</DistanceMeters>
          </Trackpoint>
          <Trackpoint>
            <Time>2018-12-30T11:13:18.000Z</Time>
            <Position>
              <LatitudeDegrees>40.78886588104069232940673828125</LatitudeDegrees>
              <LongitudeDegrees>-4.0635293908417224884033203125</LongitudeDegrees>
            </Position>
            <AltitudeMeters>1669.199951171875</AltitudeMeters>
            <DistanceMeters>NAN</DistanceMeters>
          </Trackpoint>
          <Trackpoint>
            <Time>2018-12-30T11:13:19.000Z</Time>
            <Position>
              <LatitudeDegrees>40.78888448886573314666748046875</LatitudeDegrees>
              <LongitudeDegrees>-4.0635319054126739501953125</LongitudeDegrees>
            </Position>
            <AltitudeMeters>1669.199951171875</AltitudeMeters>
            <DistanceMeters>NAN</DistanceMeters>
          </Trackpoint>
          <Trackpoint>
            <Time>2018-12-30T11:13:20.000Z</Time>
            <Position>
              <LatitudeDegrees>40.78888448886573314666748046875</LatitudeDegrees>
              <LongitudeDegrees>-4.0635319054126739501953125</LongitudeDegrees>
            </Position>
            <AltitudeMeters>1669.4000244140625</AltitudeMeters>
            <DistanceMeters>NAN</DistanceMeters>
          </Trackpoint>
          <Trackpoint>
            <Time>2018-12-30T11:13:21.000Z</Time>
            <Position>
              <LatitudeDegrees>40.788897983729839324951171875</LatitudeDegrees>
              <LongitudeDegrees>-4.0635267086327075958251953125</LongitudeDegrees>
            </Position>
            <AltitudeMeters>1669.4000244140625</AltitudeMeters>
            <DistanceMeters>NAN</DistanceMeters>
          </Trackpoint>
          <Trackpoint>
            <Time>2018-12-30T11:13:22.000Z</Time>
            <Position>
              <LatitudeDegrees>40.78890594653785228729248046875</LatitudeDegrees>
              <LongitudeDegrees>-4.06352696008980274200439453125</LongitudeDegrees>
            </Position>
            <AltitudeMeters>1669.4000244140625</AltitudeMeters>
            <DistanceMeters>NAN</DistanceMeters>
          </Trackpoint>
          <Trackpoint>
            <Time>2018-12-30T11:13:23.000Z</Time>
            <Position>
              <LatitudeDegrees>40.7889189384877681732177734375</LatitudeDegrees>
              <LongitudeDegrees>-4.0635357610881328582763671875</LongitudeDegrees>
            </Position>
            <AltitudeMeters>1669.4000244140625</AltitudeMeters>
            <DistanceMeters>NAN</DistanceMeters>
          </Trackpoint>
          <Trackpoint>
            <Time>2018-12-30T11:13:24.000Z</Time>
            <Position>
              <LatitudeDegrees>40.7889296673238277435302734375</LatitudeDegrees>
              <LongitudeDegrees>-4.063534922897815704345703125</LongitudeDegrees>
            </Position>
            <AltitudeMeters>1669.4000244140625</AltitudeMeters>
            <DistanceMeters>NAN</DistanceMeters>
          </Trackpoint>
          <Trackpoint>
            <Time>2018-12-30T11:13:25.000Z</Time>
            <Position>
              <LatitudeDegrees>40.78894182108342647552490234375</LatitudeDegrees>
              <LongitudeDegrees>-4.06353383325040340423583984375</LongitudeDegrees>
            </Position>
            <AltitudeMeters>1669.4000244140625</AltitudeMeters>
            <DistanceMeters>NAN</DistanceMeters>
          </Trackpoint>
          <Trackpoint>
            <Time>2018-12-30T11:13:26.000Z</Time>
            <Position>
              <LatitudeDegrees>40.78895003534853458404541015625</LatitudeDegrees>
              <LongitudeDegrees>-4.0635317377746105194091796875</LongitudeDegrees>
            </Position>
            <AltitudeMeters>1669.4000244140625</AltitudeMeters>
            <DistanceMeters>NAN</DistanceMeters>
          </Trackpoint>
          <Trackpoint>
            <Time>2018-12-30T11:13:27.000Z</Time>
            <Position>
              <LatitudeDegrees>40.78896009363234043121337890625</LatitudeDegrees>
              <LongitudeDegrees>-4.06353048048913478851318359375</LongitudeDegrees>
            </Position>
            <AltitudeMeters>1669.199951171875</AltitudeMeters>
            <DistanceMeters>NAN</DistanceMeters>
          </Trackpoint>
          <Trackpoint>
            <Time>2018-12-30T11:13:28.000Z</Time>
            <Position>
              <LatitudeDegrees>40.7889702357351779937744140625</LatitudeDegrees>
              <LongitudeDegrees>-4.06353081576526165008544921875</LongitudeDegrees>
            </Position>
            <AltitudeMeters>1669.199951171875</AltitudeMeters>
            <DistanceMeters>NAN</DistanceMeters>
          </Trackpoint>
          <Trackpoint>
            <Time>2018-12-30T11:13:29.000Z</Time>
            <Position>
              <LatitudeDegrees>40.7889814674854278564453125</LatitudeDegrees>
              <LongitudeDegrees>-4.06353056430816650390625</LongitudeDegrees>
            </Position>
            <AltitudeMeters>1669.199951171875</AltitudeMeters>
            <DistanceMeters>NAN</DistanceMeters>
          </Trackpoint>
          <Trackpoint>
            <Time>2018-12-30T11:13:30.000Z</Time>
            <Position>
              <LatitudeDegrees>40.78898473642766475677490234375</LatitudeDegrees>
              <LongitudeDegrees>-4.0635246969759464263916015625</LongitudeDegrees>
            </Position>
            <AltitudeMeters>1669.4000244140625</AltitudeMeters>
            <DistanceMeters>NAN</DistanceMeters>
          </Trackpoint>
          <Trackpoint>
            <Time>2018-12-30T11:13:31.000Z</Time>
            <Position>
              <LatitudeDegrees>40.78899429179728031158447265625</LatitudeDegrees>
              <LongitudeDegrees>-4.06352092511951923370361328125</LongitudeDegrees>
            </Position>
            <AltitudeMeters>1669.5999755859375</AltitudeMeters>
            <DistanceMeters>NAN</DistanceMeters>
          </Trackpoint>
          <Trackpoint>
            <Time>2018-12-30T11:13:32.000Z</Time>
            <Position>
              <LatitudeDegrees>40.78899630345404148101806640625</LatitudeDegrees>
              <LongitudeDegrees>-4.063517488539218902587890625</LongitudeDegrees>
            </Position>
            <AltitudeMeters>1669.800048828125</AltitudeMeters>
            <DistanceMeters>NAN</DistanceMeters>
          </Trackpoint>
          <Trackpoint>
            <Time>2018-12-30T11:13:33.000Z</Time>
            <Position>
              <LatitudeDegrees>40.7890056073665618896484375</LatitudeDegrees>
              <LongitudeDegrees>-4.06351782381534576416015625</LongitudeDegrees>
            </Position>
            <AltitudeMeters>1670</AltitudeMeters>
            <DistanceMeters>NAN</DistanceMeters>
          </Trackpoint>
          <Trackpoint>
            <Time>2018-12-30T11:13:34.000Z</Time>
            <Position>
              <LatitudeDegrees>40.78901424072682857513427734375</LatitudeDegrees>
              <LongitudeDegrees>-4.06351204030215740203857421875</LongitudeDegrees>
            </Position>
            <AltitudeMeters>1670</AltitudeMeters>
            <DistanceMeters>NAN</DistanceMeters>
          </Trackpoint>
          <Trackpoint>
            <Time>2018-12-30T11:13:35.000Z</Time>
            <Position>
              <LatitudeDegrees>40.7890205271542072296142578125</LatitudeDegrees>
              <LongitudeDegrees>-4.06350516714155673980712890625</LongitudeDegrees>
            </Position>
            <AltitudeMeters>1670</AltitudeMeters>
            <DistanceMeters>NAN</DistanceMeters>
          </Trackpoint>
          <Trackpoint>
            <Time>2018-12-30T11:13:36.000Z</Time>
            <Position>
              <LatitudeDegrees>40.78902899287641048431396484375</LatitudeDegrees>
              <LongitudeDegrees>-4.06350047327578067779541015625</LongitudeDegrees>
            </Position>
            <AltitudeMeters>1670</AltitudeMeters>
            <DistanceMeters>NAN</DistanceMeters>
          </Trackpoint>
          <Trackpoint>
            <Time>2018-12-30T11:13:37.000Z</Time>
            <Position>
              <LatitudeDegrees>40.78903469257056713104248046875</LatitudeDegrees>
              <LongitudeDegrees>-4.063495360314846038818359375</LongitudeDegrees>
            </Position>
            <AltitudeMeters>1670</AltitudeMeters>
            <DistanceMeters>NAN</DistanceMeters>
          </Trackpoint>
          <Trackpoint>
            <Time>2018-12-30T11:13:38.000Z</Time>
            <Position>
              <LatitudeDegrees>40.7890399731695652008056640625</LatitudeDegrees>
              <LongitudeDegrees>-4.06349762342870235443115234375</LongitudeDegrees>
            </Position>
            <AltitudeMeters>1670</AltitudeMeters>
            <DistanceMeters>NAN</DistanceMeters>
          </Trackpoint>
          <Trackpoint>
            <Time>2018-12-30T11:13:39.000Z</Time>
            <Position>
              <LatitudeDegrees>40.7890473492443561553955078125</LatitudeDegrees>
              <LongitudeDegrees>-4.06350734643638134002685546875</LongitudeDegrees>
            </Position>
            <AltitudeMeters>1670</AltitudeMeters>
            <DistanceMeters>NAN</DistanceMeters>
          </Trackpoint>
          <Trackpoint>
            <Time>2018-12-30T11:13:40.000Z</Time>
            <Position>
              <LatitudeDegrees>40.78904961235821247100830078125</LatitudeDegrees>
              <LongitudeDegrees>-4.06351421959698200225830078125</LongitudeDegrees>
            </Position>
            <AltitudeMeters>1670</AltitudeMeters>
            <DistanceMeters>NAN</DistanceMeters>
          </Trackpoint>
          <Trackpoint>
            <Time>2018-12-30T11:13:41.000Z</Time>
            <Position>
              <LatitudeDegrees>40.78904927708208560943603515625</LatitudeDegrees>
              <LongitudeDegrees>-4.063518159091472625732421875</LongitudeDegrees>
            </Position>
            <AltitudeMeters>1670.199951171875</AltitudeMeters>
            <DistanceMeters>NAN</DistanceMeters>
          </Trackpoint>
          <Trackpoint>
            <Time>2018-12-30T11:13:42.000Z</Time>
            <Position>
              <LatitudeDegrees>40.78905547969043254852294921875</LatitudeDegrees>
              <LongitudeDegrees>-4.0635213442146778106689453125</LongitudeDegrees>
            </Position>
            <AltitudeMeters>1670.199951171875</AltitudeMeters>
            <DistanceMeters>NAN</DistanceMeters>
          </Trackpoint>
          <Trackpoint>
            <Time>2018-12-30T11:13:43.000Z</Time>
            <Position>
              <LatitudeDegrees>40.78906754963099956512451171875</LatitudeDegrees>
              <LongitudeDegrees>-4.063522517681121826171875</LongitudeDegrees>
            </Position>
            <AltitudeMeters>1670.199951171875</AltitudeMeters>
            <DistanceMeters>NAN</DistanceMeters>
          </Trackpoint>
          <Trackpoint>
            <Time>2018-12-30T11:13:44.000Z</Time>
            <Position>
              <LatitudeDegrees>40.7890751771628856658935546875</LatitudeDegrees>
              <LongitudeDegrees>-4.06351489014923572540283203125</LongitudeDegrees>
            </Position>
            <AltitudeMeters>1670.199951171875</AltitudeMeters>
            <DistanceMeters>NAN</DistanceMeters>
          </Trackpoint>
          <Trackpoint>
            <Time>2018-12-30T11:13:45.000Z</Time>
            <Position>
              <LatitudeDegrees>40.7890845648944377899169921875</LatitudeDegrees>
              <LongitudeDegrees>-4.06351002864539623260498046875</LongitudeDegrees>
            </Position>
            <AltitudeMeters>1670.199951171875</AltitudeMeters>
            <DistanceMeters>NAN</DistanceMeters>
          </Trackpoint>
          <Trackpoint>
            <Time>2018-12-30T11:13:46.000Z</Time>
            <Position>
              <LatitudeDegrees>40.7890979759395122528076171875</LatitudeDegrees>
              <LongitudeDegrees>-4.06350910663604736328125</LongitudeDegrees>
            </Position>
            <AltitudeMeters>1670.199951171875</AltitudeMeters>
            <DistanceMeters>NAN</DistanceMeters>
          </Trackpoint>
          <Trackpoint>
            <Time>2018-12-30T11:13:47.000Z</Time>
            <Position>
              <LatitudeDegrees>40.78910392709076404571533203125</LatitudeDegrees>
              <LongitudeDegrees>-4.06349628232419490814208984375</LongitudeDegrees>
            </Position>
            <AltitudeMeters>1670.4000244140625</AltitudeMeters>
            <DistanceMeters>NAN</DistanceMeters>
          </Trackpoint>
          <Trackpoint>
            <Time>2018-12-30T11:13:48.000Z</Time>
            <Position>
              <LatitudeDegrees>40.78911029733717441558837890625</LatitudeDegrees>
              <LongitudeDegrees>-4.06348488293588161468505859375</LongitudeDegrees>
            </Position>
            <AltitudeMeters>1670.5999755859375</AltitudeMeters>
            <DistanceMeters>NAN</DistanceMeters>
          </Trackpoint>
          <Trackpoint>
            <Time>2018-12-30T11:13:49.000Z</Time>
            <Position>
              <LatitudeDegrees>40.78911214135587215423583984375</LatitudeDegrees>
              <LongitudeDegrees>-4.06346493400633335113525390625</LongitudeDegrees>
            </Position>
            <AltitudeMeters>1670.5999755859375</AltitudeMeters>
            <DistanceMeters>NAN</DistanceMeters>
          </Trackpoint>
          <Trackpoint>
            <Time>2018-12-30T11:13:50.000Z</Time>
            <Position>
              <LatitudeDegrees>40.78911448828876018524169921875</LatitudeDegrees>
              <LongitudeDegrees>-4.0634475834667682647705078125</LongitudeDegrees>
            </Position>
            <AltitudeMeters>1670.800048828125</AltitudeMeters>
            <DistanceMeters>NAN</DistanceMeters>
          </Trackpoint>
          <Trackpoint>
            <Time>2018-12-30T11:13:51.000Z</Time>
            <Position>
              <LatitudeDegrees>40.78911230899393558502197265625</LatitudeDegrees>
              <LongitudeDegrees>-4.06342771835625171661376953125</LongitudeDegrees>
            </Position>
            <AltitudeMeters>1670.800048828125</AltitudeMeters>
            <DistanceMeters>NAN</DistanceMeters>
          </Trackpoint>
          <Trackpoint>
            <Time>2018-12-30T11:13:52.000Z</Time>
            <Position>
              <LatitudeDegrees>40.78911230899393558502197265625</LatitudeDegrees>
              <LongitudeDegrees>-4.06341045163571834564208984375</LongitudeDegrees>
            </Position>
            <AltitudeMeters>1671</AltitudeMeters>
            <DistanceMeters>NAN</DistanceMeters>
          </Trackpoint>
          <Trackpoint>
            <Time>2018-12-30T11:13:53.000Z</Time>
            <Position>
              <LatitudeDegrees>40.7891184277832508087158203125</LatitudeDegrees>
              <LongitudeDegrees>-4.063406176865100860595703125</LongitudeDegrees>
            </Position>
            <AltitudeMeters>1671</AltitudeMeters>
            <DistanceMeters>NAN</DistanceMeters>
          </Trackpoint>
          <Trackpoint>
            <Time>2018-12-30T11:13:54.000Z</Time>
            <Position>
              <LatitudeDegrees>40.78913368284702301025390625</LatitudeDegrees>
              <LongitudeDegrees>-4.06342185102403163909912109375</LongitudeDegrees>
            </Position>
            <AltitudeMeters>1671.199951171875</AltitudeMeters>
            <DistanceMeters>NAN</DistanceMeters>
          </Trackpoint>
          <Trackpoint>
            <Time>2018-12-30T11:13:55.000Z</Time>
            <Position>
              <LatitudeDegrees>40.78914483077824115753173828125</LatitudeDegrees>
              <LongitudeDegrees>-4.06344297342002391815185546875</LongitudeDegrees>
            </Position>
            <AltitudeMeters>1671.4000244140625</AltitudeMeters>
            <DistanceMeters>NAN</DistanceMeters>
          </Trackpoint>
          <Trackpoint>
            <Time>2018-12-30T11:13:56.000Z</Time>
            <Position>
              <LatitudeDegrees>40.78915178775787353515625</LatitudeDegrees>
              <LongitudeDegrees>-4.06345856375992298126220703125</LongitudeDegrees>
            </Position>
            <AltitudeMeters>1671.800048828125</AltitudeMeters>
            <DistanceMeters>NAN</DistanceMeters>
          </Trackpoint>
          <Trackpoint>
            <Time>2018-12-30T11:13:57.000Z</Time>
            <Position>
              <LatitudeDegrees>40.789157487452030181884765625</LatitudeDegrees>
              <LongitudeDegrees>-4.06346510164439678192138671875</LongitudeDegrees>
            </Position>
            <AltitudeMeters>1672.199951171875</AltitudeMeters>
            <DistanceMeters>NAN</DistanceMeters>
          </Trackpoint>
          <Trackpoint>
            <Time>2018-12-30T11:13:58.000Z</Time>
            <Position>
              <LatitudeDegrees>40.7891558110713958740234375</LatitudeDegrees>
              <LongitudeDegrees>-4.06346811912953853607177734375</LongitudeDegrees>
            </Position>
            <AltitudeMeters>1672.5999755859375</AltitudeMeters>
            <DistanceMeters>NAN</DistanceMeters>
          </Trackpoint>
          <Trackpoint>
            <Time>2018-12-30T11:13:59.000Z</Time>
            <Position>
              <LatitudeDegrees>40.78915338031947612762451171875</LatitudeDegrees>
              <LongitudeDegrees>-4.06346862204372882843017578125</LongitudeDegrees>
            </Position>
            <AltitudeMeters>1673</AltitudeMeters>
            <DistanceMeters>NAN</DistanceMeters>
          </Trackpoint>
          <Trackpoint>
            <Time>2018-12-30T11:14:00.000Z</Time>
            <Position>
              <LatitudeDegrees>40.78915472142398357391357421875</LatitudeDegrees>
              <LongitudeDegrees>-4.06346225179731845855712890625</LongitudeDegrees>
            </Position>
            <AltitudeMeters>1673.199951171875</AltitudeMeters>
            <DistanceMeters>NAN</DistanceMeters>
          </Trackpoint>
          <Trackpoint>
            <Time>2018-12-30T11:14:01.000Z</Time>
            <Position>
              <LatitudeDegrees>40.78915773890912532806396484375</LatitudeDegrees>
              <LongitudeDegrees>-4.06345638446509838104248046875</LongitudeDegrees>
            </Position>
            <AltitudeMeters>1673.199951171875</AltitudeMeters>
            <DistanceMeters>NAN</DistanceMeters>
          </Trackpoint>
          <Trackpoint>
            <Time>2018-12-30T11:14:02.000Z</Time>
            <Position>
              <LatitudeDegrees>40.789158158004283905029296875</LatitudeDegrees>
              <LongitudeDegrees>-4.06345269642770290374755859375</LongitudeDegrees>
            </Position>
            <AltitudeMeters>1673.4000244140625</AltitudeMeters>
            <DistanceMeters>NAN</DistanceMeters>
          </Trackpoint>
          <Trackpoint>
            <Time>2018-12-30T11:14:03.000Z</Time>
            <Position>
              <LatitudeDegrees>40.78915975056588649749755859375</LatitudeDegrees>
              <LongitudeDegrees>-4.06344649381935596466064453125</LongitudeDegrees>
            </Position>
            <AltitudeMeters>1673.5999755859375</AltitudeMeters>
            <DistanceMeters>NAN</DistanceMeters>
          </Trackpoint>
          <Trackpoint>
            <Time>2018-12-30T11:14:04.000Z</Time>
            <Position>
              <LatitudeDegrees>40.7891640253365039825439453125</LatitudeDegrees>
              <LongitudeDegrees>-4.06343978829681873321533203125</LongitudeDegrees>
            </Position>
            <AltitudeMeters>1673.5999755859375</AltitudeMeters>
            <DistanceMeters>NAN</DistanceMeters>
          </Trackpoint>
          <Trackpoint>
            <Time>2018-12-30T11:14:05.000Z</Time>
            <Position>
              <LatitudeDegrees>40.78916721045970916748046875</LatitudeDegrees>
              <LongitudeDegrees>-4.0634314902126789093017578125</LongitudeDegrees>
            </Position>
            <AltitudeMeters>1673.5999755859375</AltitudeMeters>
            <DistanceMeters>NAN</DistanceMeters>
          </Trackpoint>
          <Trackpoint>
            <Time>2018-12-30T11:14:06.000Z</Time>
            <Position>
              <LatitudeDegrees>40.78916930593550205230712890625</LatitudeDegrees>
              <LongitudeDegrees>-4.06342520378530025482177734375</LongitudeDegrees>
            </Position>
            <AltitudeMeters>1673.5999755859375</AltitudeMeters>
            <DistanceMeters>NAN</DistanceMeters>
          </Trackpoint>
          <Trackpoint>
            <Time>2018-12-30T11:14:07.000Z</Time>
            <Position>
              <LatitudeDegrees>40.78917182050645351409912109375</LatitudeDegrees>
              <LongitudeDegrees>-4.06341866590082645416259765625</LongitudeDegrees>
            </Position>
            <AltitudeMeters>1673.4000244140625</AltitudeMeters>
            <DistanceMeters>NAN</DistanceMeters>
          </Trackpoint>
          <Trackpoint>
            <Time>2018-12-30T11:14:08.000Z</Time>
            <Position>
              <LatitudeDegrees>40.78917123377323150634765625</LatitudeDegrees>
              <LongitudeDegrees>-4.063402824103832244873046875</LongitudeDegrees>
            </Position>
            <AltitudeMeters>1673</AltitudeMeters>
            <DistanceMeters>NAN</DistanceMeters>
          </Trackpoint>
          <Trackpoint>
            <Time>2018-12-30T11:14:09.000Z</Time>
            <Position>
              <LatitudeDegrees>40.78916779719293117523193359375</LatitudeDegrees>
              <LongitudeDegrees>-4.0633838810026645660400390625</LongitudeDegrees>
            </Position>
            <AltitudeMeters>1672.5999755859375</AltitudeMeters>
            <DistanceMeters>NAN</DistanceMeters>
          </Trackpoint>
          <Trackpoint>
            <Time>2018-12-30T11:14:10.000Z</Time>
            <Position>
              <LatitudeDegrees>40.78916360624134540557861328125</LatitudeDegrees>
              <LongitudeDegrees>-4.06336686573922634124755859375</LongitudeDegrees>
            </Position>
            <AltitudeMeters>1672.4000244140625</AltitudeMeters>
            <DistanceMeters>NAN</DistanceMeters>
          </Trackpoint>
          <Trackpoint>
            <Time>2018-12-30T11:14:11.000Z</Time>
            <Position>
              <LatitudeDegrees>40.78916327096521854400634765625</LatitudeDegrees>
              <LongitudeDegrees>-4.06335328705608844757080078125</LongitudeDegrees>
            </Position>
            <AltitudeMeters>1672.4000244140625</AltitudeMeters>
            <DistanceMeters>NAN</DistanceMeters>
          </Trackpoint>
          <Trackpoint>
            <Time>2018-12-30T11:14:12.000Z</Time>
            <Position>
              <LatitudeDegrees>40.789166875183582305908203125</LatitudeDegrees>
              <LongitudeDegrees>-4.0633413009345531463623046875</LongitudeDegrees>
            </Position>
            <AltitudeMeters>1672.199951171875</AltitudeMeters>
            <DistanceMeters>NAN</DistanceMeters>
          </Trackpoint>
          <Trackpoint>
            <Time>2018-12-30T11:14:13.000Z</Time>
            <Position>
              <LatitudeDegrees>40.78917265869677066802978515625</LatitudeDegrees>
              <LongitudeDegrees>-4.06333350576460361480712890625</LongitudeDegrees>
            </Position>
            <AltitudeMeters>1672.199951171875</AltitudeMeters>
            <DistanceMeters>NAN</DistanceMeters>
          </Trackpoint>
          <Trackpoint>
            <Time>2018-12-30T11:14:14.000Z</Time>
            <Position>
              <LatitudeDegrees>40.78917659819126129150390625</LatitudeDegrees>
              <LongitudeDegrees>-4.0633242018520832061767578125</LongitudeDegrees>
            </Position>
            <AltitudeMeters>1672.4000244140625</AltitudeMeters>
            <DistanceMeters>NAN</DistanceMeters>
          </Trackpoint>
          <Trackpoint>
            <Time>2018-12-30T11:14:15.000Z</Time>
            <Position>
              <LatitudeDegrees>40.78917852602899074554443359375</LatitudeDegrees>
              <LongitudeDegrees>-4.06331087462604045867919921875</LongitudeDegrees>
            </Position>
            <AltitudeMeters>1672.800048828125</AltitudeMeters>
            <DistanceMeters>NAN</DistanceMeters>
          </Trackpoint>
          <Trackpoint>
            <Time>2018-12-30T11:14:16.000Z</Time>
            <Position>
              <LatitudeDegrees>40.789166204631328582763671875</LatitudeDegrees>
              <LongitudeDegrees>-4.06327131204307079315185546875</LongitudeDegrees>
            </Position>
            <AltitudeMeters>1673</AltitudeMeters>
            <DistanceMeters>NAN</DistanceMeters>
          </Trackpoint>
          <Trackpoint>
            <Time>2018-12-30T11:14:17.000Z</Time>
            <Position>
              <LatitudeDegrees>40.7891653664410114288330078125</LatitudeDegrees>
              <LongitudeDegrees>-4.0632531233131885528564453125</LongitudeDegrees>
            </Position>
            <AltitudeMeters>1673.199951171875</AltitudeMeters>
            <DistanceMeters>NAN</DistanceMeters>
          </Trackpoint>
          <Trackpoint>
            <Time>2018-12-30T11:14:18.000Z</Time>
            <Position>
              <LatitudeDegrees>40.78916813246905803680419921875</LatitudeDegrees>
              <LongitudeDegrees>-4.0632390417158603668212890625</LongitudeDegrees>
            </Position>
            <AltitudeMeters>1673.199951171875</AltitudeMeters>
            <DistanceMeters>NAN</DistanceMeters>
          </Trackpoint>
          <Trackpoint>
            <Time>2018-12-30T11:14:19.000Z</Time>
            <Position>
              <LatitudeDegrees>40.78917131759226322174072265625</LatitudeDegrees>
              <LongitudeDegrees>-4.0632288157939910888671875</LongitudeDegrees>
            </Position>
            <AltitudeMeters>1673.199951171875</AltitudeMeters>
            <DistanceMeters>NAN</DistanceMeters>
          </Trackpoint>
          <Trackpoint>
            <Time>2018-12-30T11:14:20.000Z</Time>
            <Position>
              <LatitudeDegrees>40.7891750894486904144287109375</LatitudeDegrees>
              <LongitudeDegrees>-4.06321942806243896484375</LongitudeDegrees>
            </Position>
            <AltitudeMeters>1673.199951171875</AltitudeMeters>
            <DistanceMeters>NAN</DistanceMeters>
          </Trackpoint>
          <Trackpoint>
            <Time>2018-12-30T11:14:21.000Z</Time>
            <Position>
              <LatitudeDegrees>40.7891791127622127532958984375</LatitudeDegrees>
              <LongitudeDegrees>-4.06321029178798198699951171875</LongitudeDegrees>
            </Position>
            <AltitudeMeters>1673.199951171875</AltitudeMeters>
            <DistanceMeters>NAN</DistanceMeters>
          </Trackpoint>
          <Trackpoint>
            <Time>2018-12-30T11:14:22.000Z</Time>
            <Position>
              <LatitudeDegrees>40.7891841419041156768798828125</LatitudeDegrees>
              <LongitudeDegrees>-4.06320224516093730926513671875</LongitudeDegrees>
            </Position>
            <AltitudeMeters>1673.199951171875</AltitudeMeters>
            <DistanceMeters>NAN</DistanceMeters>
          </Trackpoint>
          <Trackpoint>
            <Time>2018-12-30T11:14:23.000Z</Time>
            <Position>
              <LatitudeDegrees>40.78919135034084320068359375</LatitudeDegrees>
              <LongitudeDegrees>-4.063194952905178070068359375</LongitudeDegrees>
            </Position>
            <AltitudeMeters>1673.199951171875</AltitudeMeters>
            <DistanceMeters>NAN</DistanceMeters>
          </Trackpoint>
          <Trackpoint>
            <Time>2018-12-30T11:14:24.000Z</Time>
            <Position>
              <LatitudeDegrees>40.78919394873082637786865234375</LatitudeDegrees>
              <LongitudeDegrees>-4.0631817094981670379638671875</LongitudeDegrees>
            </Position>
            <AltitudeMeters>1673</AltitudeMeters>
            <DistanceMeters>NAN</DistanceMeters>
          </Trackpoint>
          <Trackpoint>
            <Time>2018-12-30T11:14:25.000Z</Time>
            <Position>
              <LatitudeDegrees>40.78919579274952411651611328125</LatitudeDegrees>
              <LongitudeDegrees>-4.0631686337292194366455078125</LongitudeDegrees>
            </Position>
            <AltitudeMeters>1673.199951171875</AltitudeMeters>
            <DistanceMeters>NAN</DistanceMeters>
          </Trackpoint>
          <Trackpoint>
            <Time>2018-12-30T11:14:26.000Z</Time>
            <Position>
              <LatitudeDegrees>40.78919763676822185516357421875</LatitudeDegrees>
              <LongitudeDegrees>-4.06315782107412815093994140625</LongitudeDegrees>
            </Position>
            <AltitudeMeters>1673.199951171875</AltitudeMeters>
            <DistanceMeters>NAN</DistanceMeters>
          </Trackpoint>
          <Trackpoint>
            <Time>2018-12-30T11:14:27.000Z</Time>
            <Position>
              <LatitudeDegrees>40.78919847495853900909423828125</LatitudeDegrees>
              <LongitudeDegrees>-4.0631532110273838043212890625</LongitudeDegrees>
            </Position>
            <AltitudeMeters>1673.5999755859375</AltitudeMeters>
            <DistanceMeters>NAN</DistanceMeters>
          </Trackpoint>
          <Trackpoint>
            <Time>2018-12-30T11:14:28.000Z</Time>
            <Position>
              <LatitudeDegrees>40.7891982235014438629150390625</LatitudeDegrees>
              <LongitudeDegrees>-4.06314943917095661163330078125</LongitudeDegrees>
            </Position>
            <AltitudeMeters>1673.800048828125</AltitudeMeters>
            <DistanceMeters>NAN</DistanceMeters>
          </Trackpoint>
          <Trackpoint>
            <Time>2018-12-30T11:14:29.000Z</Time>
            <Position>
              <LatitudeDegrees>40.7892040908336639404296875</LatitudeDegrees>
              <LongitudeDegrees>-4.0631475113332271575927734375</LongitudeDegrees>
            </Position>
            <AltitudeMeters>1674.199951171875</AltitudeMeters>
            <DistanceMeters>NAN</DistanceMeters>
          </Trackpoint>
          <Trackpoint>
            <Time>2018-12-30T11:14:30.000Z</Time>
            <Position>
              <LatitudeDegrees>40.78920518048107624053955078125</LatitudeDegrees>
              <LongitudeDegrees>-4.06314441002905368804931640625</LongitudeDegrees>
            </Position>
            <AltitudeMeters>1674.199951171875</AltitudeMeters>
            <DistanceMeters>NAN</DistanceMeters>
          </Trackpoint>
          <Trackpoint>
            <Time>2018-12-30T11:14:31.000Z</Time>
            <Position>
              <LatitudeDegrees>40.78919981606304645538330078125</LatitudeDegrees>
              <LongitudeDegrees>-4.0631364472210407257080078125</LongitudeDegrees>
            </Position>
            <AltitudeMeters>1674.4000244140625</AltitudeMeters>
            <DistanceMeters>NAN</DistanceMeters>
          </Trackpoint>
          <Trackpoint>
            <Time>2018-12-30T11:14:32.000Z</Time>
            <Position>
              <LatitudeDegrees>40.789197720587253570556640625</LatitudeDegrees>
              <LongitudeDegrees>-4.06313166953623294830322265625</LongitudeDegrees>
            </Position>
            <AltitudeMeters>1674.4000244140625</AltitudeMeters>
            <DistanceMeters>NAN</DistanceMeters>
          </Trackpoint>
          <Trackpoint>
            <Time>2018-12-30T11:14:33.000Z</Time>
            <Position>
              <LatitudeDegrees>40.7891958765685558319091796875</LatitudeDegrees>
              <LongitudeDegrees>-4.06312219798564910888671875</LongitudeDegrees>
            </Position>
            <AltitudeMeters>1674.4000244140625</AltitudeMeters>
            <DistanceMeters>NAN</DistanceMeters>
          </Trackpoint>
          <Trackpoint>
            <Time>2018-12-30T11:14:34.000Z</Time>
            <Position>
              <LatitudeDegrees>40.78920115716755390167236328125</LatitudeDegrees>
              <LongitudeDegrees>-4.0631186775863170623779296875</LongitudeDegrees>
            </Position>
            <AltitudeMeters>1674.5999755859375</AltitudeMeters>
            <DistanceMeters>NAN</DistanceMeters>
          </Trackpoint>
          <Trackpoint>
            <Time>2018-12-30T11:14:35.000Z</Time>
            <Position>
              <LatitudeDegrees>40.78920476138591766357421875</LatitudeDegrees>
              <LongitudeDegrees>-4.0631133131682872772216796875</LongitudeDegrees>
            </Position>
            <AltitudeMeters>1674.800048828125</AltitudeMeters>
            <DistanceMeters>NAN</DistanceMeters>
          </Trackpoint>
          <Trackpoint>
            <Time>2018-12-30T11:14:36.000Z</Time>
            <Position>
              <LatitudeDegrees>40.7892102934420108795166015625</LatitudeDegrees>
              <LongitudeDegrees>-4.06309193931519985198974609375</LongitudeDegrees>
            </Position>
            <AltitudeMeters>1675</AltitudeMeters>
            <DistanceMeters>NAN</DistanceMeters>
          </Trackpoint>
          <Trackpoint>
            <Time>2018-12-30T11:14:37.000Z</Time>
            <Position>
              <LatitudeDegrees>40.7892123050987720489501953125</LatitudeDegrees>
              <LongitudeDegrees>-4.06307383440434932708740234375</LongitudeDegrees>
            </Position>
            <AltitudeMeters>1675.199951171875</AltitudeMeters>
            <DistanceMeters>NAN</DistanceMeters>
          </Trackpoint>
          <Trackpoint>
            <Time>2018-12-30T11:14:38.000Z</Time>
            <Position>
              <LatitudeDegrees>40.7892156578600406646728515625</LatitudeDegrees>
              <LongitudeDegrees>-4.0630566515028476715087890625</LongitudeDegrees>
            </Position>
            <AltitudeMeters>1675.199951171875</AltitudeMeters>
            <DistanceMeters>NAN</DistanceMeters>
          </Trackpoint>
          <Trackpoint>
            <Time>2018-12-30T11:14:39.000Z</Time>
            <Position>
              <LatitudeDegrees>40.7892193458974361419677734375</LatitudeDegrees>
              <LongitudeDegrees>-4.06304064206779003143310546875</LongitudeDegrees>
            </Position>
            <AltitudeMeters>1675.4000244140625</AltitudeMeters>
            <DistanceMeters>NAN</DistanceMeters>
          </Trackpoint>
          <Trackpoint>
            <Time>2018-12-30T11:14:40.000Z</Time>
            <Position>
              <LatitudeDegrees>40.78922395594418048858642578125</LatitudeDegrees>
              <LongitudeDegrees>-4.06301985494792461395263671875</LongitudeDegrees>
            </Position>
            <AltitudeMeters>1675.4000244140625</AltitudeMeters>
            <DistanceMeters>NAN</DistanceMeters>
          </Trackpoint>
          <Trackpoint>
            <Time>2018-12-30T11:14:41.000Z</Time>
            <Position>
              <LatitudeDegrees>40.789227895438671112060546875</LatitudeDegrees>
              <LongitudeDegrees>-4.06300325877964496612548828125</LongitudeDegrees>
            </Position>
            <AltitudeMeters>1675.5999755859375</AltitudeMeters>
            <DistanceMeters>NAN</DistanceMeters>
          </Trackpoint>
          <Trackpoint>
            <Time>2018-12-30T11:14:42.000Z</Time>
            <Position>
              <LatitudeDegrees>40.7892362773418426513671875</LatitudeDegrees>
              <LongitudeDegrees>-4.062993787229061126708984375</LongitudeDegrees>
            </Position>
            <AltitudeMeters>1675.5999755859375</AltitudeMeters>
            <DistanceMeters>NAN</DistanceMeters>
          </Trackpoint>
          <Trackpoint>
            <Time>2018-12-30T11:14:43.000Z</Time>
            <Position>
              <LatitudeDegrees>40.7892418093979358673095703125</LatitudeDegrees>
              <LongitudeDegrees>-4.06297425739467144012451171875</LongitudeDegrees>
            </Position>
            <AltitudeMeters>1675.4000244140625</AltitudeMeters>
            <DistanceMeters>NAN</DistanceMeters>
          </Trackpoint>
          <Trackpoint>
            <Time>2018-12-30T11:14:44.000Z</Time>
            <Position>
              <LatitudeDegrees>40.78924759291112422943115234375</LatitudeDegrees>
              <LongitudeDegrees>-4.06295933760702610015869140625</LongitudeDegrees>
            </Position>
            <AltitudeMeters>1675.4000244140625</AltitudeMeters>
            <DistanceMeters>NAN</DistanceMeters>
          </Trackpoint>
          <Trackpoint>
            <Time>2018-12-30T11:14:45.000Z</Time>
            <Position>
              <LatitudeDegrees>40.789251029491424560546875</LatitudeDegrees>
              <LongitudeDegrees>-4.0629453398287296295166015625</LongitudeDegrees>
            </Position>
            <AltitudeMeters>1675.5999755859375</AltitudeMeters>
            <DistanceMeters>NAN</DistanceMeters>
          </Trackpoint>
          <Trackpoint>
            <Time>2018-12-30T11:14:46.000Z</Time>
            <Position>
              <LatitudeDegrees>40.789256393909454345703125</LatitudeDegrees>
              <LongitudeDegrees>-4.06293176114559173583984375</LongitudeDegrees>
            </Position>
            <AltitudeMeters>1675.5999755859375</AltitudeMeters>
            <DistanceMeters>NAN</DistanceMeters>
          </Trackpoint>
          <Trackpoint>
            <Time>2018-12-30T11:14:47.000Z</Time>
            <Position>
              <LatitudeDegrees>40.78926234506070613861083984375</LatitudeDegrees>
              <LongitudeDegrees>-4.0629181824624538421630859375</LongitudeDegrees>
            </Position>
            <AltitudeMeters>1676</AltitudeMeters>
            <DistanceMeters>NAN</DistanceMeters>
          </Trackpoint>
          <Trackpoint>
            <Time>2018-12-30T11:14:48.000Z</Time>
            <Position>
              <LatitudeDegrees>40.7892666198313236236572265625</LatitudeDegrees>
              <LongitudeDegrees>-4.06290401704609394073486328125</LongitudeDegrees>
            </Position>
            <AltitudeMeters>1676.199951171875</AltitudeMeters>
            <DistanceMeters>NAN</DistanceMeters>
          </Trackpoint>
          <Trackpoint>
            <Time>2018-12-30T11:14:49.000Z</Time>
            <Position>
              <LatitudeDegrees>40.7892709784209728240966796875</LatitudeDegrees>
              <LongitudeDegrees>-4.062894545495510101318359375</LongitudeDegrees>
            </Position>
            <AltitudeMeters>1676.4000244140625</AltitudeMeters>
            <DistanceMeters>NAN</DistanceMeters>
          </Trackpoint>
          <Trackpoint>
            <Time>2018-12-30T11:14:50.000Z</Time>
            <Position>
              <LatitudeDegrees>40.7892682962119579315185546875</LatitudeDegrees>
              <LongitudeDegrees>-4.06288373284041881561279296875</LongitudeDegrees>
            </Position>
            <AltitudeMeters>1676.4000244140625</AltitudeMeters>
            <DistanceMeters>NAN</DistanceMeters>
          </Trackpoint>
          <Trackpoint>
            <Time>2018-12-30T11:14:51.000Z</Time>
            <Position>
              <LatitudeDegrees>40.78926754184067249298095703125</LatitudeDegrees>
              <LongitudeDegrees>-4.06287736259400844573974609375</LongitudeDegrees>
            </Position>
            <AltitudeMeters>1676.5999755859375</AltitudeMeters>
            <DistanceMeters>NAN</DistanceMeters>
          </Trackpoint>
          <Trackpoint>
            <Time>2018-12-30T11:14:52.000Z</Time>
            <Position>
              <LatitudeDegrees>40.78926469199359416961669921875</LatitudeDegrees>
              <LongitudeDegrees>-4.06286998651921749114990234375</LongitudeDegrees>
            </Position>
            <AltitudeMeters>1676.5999755859375</AltitudeMeters>
            <DistanceMeters>NAN</DistanceMeters>
          </Trackpoint>
          <Trackpoint>
            <Time>2018-12-30T11:14:53.000Z</Time>
            <Position>
              <LatitudeDegrees>40.7892656140029430389404296875</LatitudeDegrees>
              <LongitudeDegrees>-4.06286261044442653656005859375</LongitudeDegrees>
            </Position>
            <AltitudeMeters>1676.5999755859375</AltitudeMeters>
            <DistanceMeters>NAN</DistanceMeters>
          </Trackpoint>
          <Trackpoint>
            <Time>2018-12-30T11:14:54.000Z</Time>
            <Position>
              <LatitudeDegrees>40.7892684638500213623046875</LatitudeDegrees>
              <LongitudeDegrees>-4.06285255216062068939208984375</LongitudeDegrees>
            </Position>
            <AltitudeMeters>1676.800048828125</AltitudeMeters>
            <DistanceMeters>NAN</DistanceMeters>
          </Trackpoint>
          <Trackpoint>
            <Time>2018-12-30T11:14:55.000Z</Time>
            <Position>
              <LatitudeDegrees>40.789270810782909393310546875</LatitudeDegrees>
              <LongitudeDegrees>-4.062838219106197357177734375</LongitudeDegrees>
            </Position>
            <AltitudeMeters>1676.800048828125</AltitudeMeters>
            <DistanceMeters>NAN</DistanceMeters>
          </Trackpoint>
          <Trackpoint>
            <Time>2018-12-30T11:14:56.000Z</Time>
            <Position>
              <LatitudeDegrees>40.7892679609358310699462890625</LatitudeDegrees>
              <LongitudeDegrees>-4.0628159232437610626220703125</LongitudeDegrees>
            </Position>
            <AltitudeMeters>1677</AltitudeMeters>
            <DistanceMeters>NAN</DistanceMeters>
          </Trackpoint>
          <Trackpoint>
            <Time>2018-12-30T11:14:57.000Z</Time>
            <Position>
              <LatitudeDegrees>40.7892679609358310699462890625</LatitudeDegrees>
              <LongitudeDegrees>-4.0628159232437610626220703125</LongitudeDegrees>
            </Position>
            <AltitudeMeters>1677</AltitudeMeters>
            <DistanceMeters>NAN</DistanceMeters>
          </Trackpoint>
          <Trackpoint>
            <Time>2018-12-30T11:14:58.000Z</Time>
            <Position>
              <LatitudeDegrees>40.78926737420260906219482421875</LatitudeDegrees>
              <LongitudeDegrees>-4.06280930154025554656982421875</LongitudeDegrees>
            </Position>
            <AltitudeMeters>1677.199951171875</AltitudeMeters>
            <DistanceMeters>NAN</DistanceMeters>
          </Trackpoint>
          <Trackpoint>
            <Time>2018-12-30T11:14:59.000Z</Time>
            <Position>
              <LatitudeDegrees>40.7892652787268161773681640625</LatitudeDegrees>
              <LongitudeDegrees>-4.06279589049518108367919921875</LongitudeDegrees>
            </Position>
            <AltitudeMeters>1677.199951171875</AltitudeMeters>
            <DistanceMeters>NAN</DistanceMeters>
          </Trackpoint>
          <Trackpoint>
            <Time>2018-12-30T11:15:00.000Z</Time>
            <Position>
              <LatitudeDegrees>40.78926242887973785400390625</LatitudeDegrees>
              <LongitudeDegrees>-4.06278214417397975921630859375</LongitudeDegrees>
            </Position>
            <AltitudeMeters>1677.4000244140625</AltitudeMeters>
            <DistanceMeters>NAN</DistanceMeters>
          </Trackpoint>
          <Trackpoint>
            <Time>2018-12-30T11:15:01.000Z</Time>
            <Position>
              <LatitudeDegrees>40.78925463370978832244873046875</LatitudeDegrees>
              <LongitudeDegrees>-4.06276202760636806488037109375</LongitudeDegrees>
            </Position>
            <AltitudeMeters>1677.5999755859375</AltitudeMeters>
            <DistanceMeters>NAN</DistanceMeters>
          </Trackpoint>
          <Trackpoint>
            <Time>2018-12-30T11:15:02.000Z</Time>
            <Position>
              <LatitudeDegrees>40.78924926929175853729248046875</LatitudeDegrees>
              <LongitudeDegrees>-4.0627435036003589630126953125</LongitudeDegrees>
            </Position>
            <AltitudeMeters>1677.5999755859375</AltitudeMeters>
            <DistanceMeters>NAN</DistanceMeters>
          </Trackpoint>
          <Trackpoint>
            <Time>2018-12-30T11:15:03.000Z</Time>
            <Position>
              <LatitudeDegrees>40.7892470061779022216796875</LatitudeDegrees>
              <LongitudeDegrees>-4.0627270750701427459716796875</LongitudeDegrees>
            </Position>
            <AltitudeMeters>1677.5999755859375</AltitudeMeters>
            <DistanceMeters>NAN</DistanceMeters>
          </Trackpoint>
          <Trackpoint>
            <Time>2018-12-30T11:15:04.000Z</Time>
            <Position>
              <LatitudeDegrees>40.7892429828643798828125</LatitudeDegrees>
              <LongitudeDegrees>-4.06271207146346569061279296875</LongitudeDegrees>
            </Position>
            <AltitudeMeters>1677.5999755859375</AltitudeMeters>
            <DistanceMeters>NAN</DistanceMeters>
          </Trackpoint>
          <Trackpoint>
            <Time>2018-12-30T11:15:05.000Z</Time>
            <Position>
              <LatitudeDegrees>40.78923921100795269012451171875</LatitudeDegrees>
              <LongitudeDegrees>-4.0626962296664714813232421875</LongitudeDegrees>
            </Position>
            <AltitudeMeters>1677.5999755859375</AltitudeMeters>
            <DistanceMeters>NAN</DistanceMeters>
          </Trackpoint>
          <Trackpoint>
            <Time>2018-12-30T11:15:06.000Z</Time>
            <Position>
              <LatitudeDegrees>40.7892335951328277587890625</LatitudeDegrees>
              <LongitudeDegrees>-4.06268340535461902618408203125</LongitudeDegrees>
            </Position>
            <AltitudeMeters>1677.5999755859375</AltitudeMeters>
            <DistanceMeters>NAN</DistanceMeters>
          </Trackpoint>
          <Trackpoint>
            <Time>2018-12-30T11:15:07.000Z</Time>
            <Position>
              <LatitudeDegrees>40.78923183493316173553466796875</LatitudeDegrees>
              <LongitudeDegrees>-4.06266882084310054779052734375</LongitudeDegrees>
            </Position>
            <AltitudeMeters>1677.4000244140625</AltitudeMeters>
            <DistanceMeters>NAN</DistanceMeters>
          </Trackpoint>
          <Trackpoint>
            <Time>2018-12-30T11:15:08.000Z</Time>
            <Position>
              <LatitudeDegrees>40.7892263866961002349853515625</LatitudeDegrees>
              <LongitudeDegrees>-4.06265540979802608489990234375</LongitudeDegrees>
            </Position>
            <AltitudeMeters>1677.4000244140625</AltitudeMeters>
            <DistanceMeters>NAN</DistanceMeters>
          </Trackpoint>
          <Trackpoint>
            <Time>2018-12-30T11:15:09.000Z</Time>
            <Position>
              <LatitudeDegrees>40.7892119698226451873779296875</LatitudeDegrees>
              <LongitudeDegrees>-4.06262808479368686676025390625</LongitudeDegrees>
            </Position>
            <AltitudeMeters>1677.4000244140625</AltitudeMeters>
            <DistanceMeters>NAN</DistanceMeters>
          </Trackpoint>
          <Trackpoint>
            <Time>2018-12-30T11:15:10.000Z</Time>
            <Position>
              <LatitudeDegrees>40.7892119698226451873779296875</LatitudeDegrees>
              <LongitudeDegrees>-4.06262808479368686676025390625</LongitudeDegrees>
            </Position>
            <AltitudeMeters>1677.4000244140625</AltitudeMeters>
            <DistanceMeters>NAN</DistanceMeters>
          </Trackpoint>
          <Trackpoint>
            <Time>2018-12-30T11:15:11.000Z</Time>
            <Position>
              <LatitudeDegrees>40.78920803032815456390380859375</LatitudeDegrees>
              <LongitudeDegrees>-4.0626127459108829498291015625</LongitudeDegrees>
            </Position>
            <AltitudeMeters>1677.4000244140625</AltitudeMeters>
            <DistanceMeters>NAN</DistanceMeters>
          </Trackpoint>
          <Trackpoint>
            <Time>2018-12-30T11:15:12.000Z</Time>
            <Position>
              <LatitudeDegrees>40.78920476138591766357421875</LatitudeDegrees>
              <LongitudeDegrees>-4.06259573064744472503662109375</LongitudeDegrees>
            </Position>
            <AltitudeMeters>1677.4000244140625</AltitudeMeters>
            <DistanceMeters>NAN</DistanceMeters>
          </Trackpoint>
          <Trackpoint>
            <Time>2018-12-30T11:15:13.000Z</Time>
            <Position>
              <LatitudeDegrees>40.78920367173850536346435546875</LatitudeDegrees>
              <LongitudeDegrees>-4.06257611699402332305908203125</LongitudeDegrees>
            </Position>
            <AltitudeMeters>1677.4000244140625</AltitudeMeters>
            <DistanceMeters>NAN</DistanceMeters>
          </Trackpoint>
          <Trackpoint>
            <Time>2018-12-30T11:15:14.000Z</Time>
            <Position>
              <LatitudeDegrees>40.78919939696788787841796875</LatitudeDegrees>
              <LongitudeDegrees>-4.0625587664544582366943359375</LongitudeDegrees>
            </Position>
            <AltitudeMeters>1677.5999755859375</AltitudeMeters>
            <DistanceMeters>NAN</DistanceMeters>
          </Trackpoint>
          <Trackpoint>
            <Time>2018-12-30T11:15:15.000Z</Time>
            <Position>
              <LatitudeDegrees>40.7891968823969364166259765625</LatitudeDegrees>
              <LongitudeDegrees>-4.06254057772457599639892578125</LongitudeDegrees>
            </Position>
            <AltitudeMeters>1677.800048828125</AltitudeMeters>
            <DistanceMeters>NAN</DistanceMeters>
          </Trackpoint>
          <Trackpoint>
            <Time>2018-12-30T11:15:16.000Z</Time>
            <Position>
              <LatitudeDegrees>40.78919596038758754730224609375</LatitudeDegrees>
              <LongitudeDegrees>-4.06252716667950153350830078125</LongitudeDegrees>
            </Position>
            <AltitudeMeters>1678</AltitudeMeters>
            <DistanceMeters>NAN</DistanceMeters>
          </Trackpoint>
          <Trackpoint>
            <Time>2018-12-30T11:15:17.000Z</Time>
            <Position>
              <LatitudeDegrees>40.78919428400695323944091796875</LatitudeDegrees>
              <LongitudeDegrees>-4.0625099837779998779296875</LongitudeDegrees>
            </Position>
            <AltitudeMeters>1678</AltitudeMeters>
            <DistanceMeters>NAN</DistanceMeters>
          </Trackpoint>
          <Trackpoint>
            <Time>2018-12-30T11:15:18.000Z</Time>
            <Position>
              <LatitudeDegrees>40.789195038378238677978515625</LatitudeDegrees>
              <LongitudeDegrees>-4.0624960698187351226806640625</LongitudeDegrees>
            </Position>
            <AltitudeMeters>1678</AltitudeMeters>
            <DistanceMeters>NAN</DistanceMeters>
          </Trackpoint>
          <Trackpoint>
            <Time>2018-12-30T11:15:19.000Z</Time>
            <Position>
              <LatitudeDegrees>40.789199061691761016845703125</LatitudeDegrees>
              <LongitudeDegrees>-4.06248156912624835968017578125</LongitudeDegrees>
            </Position>
            <AltitudeMeters>1677.800048828125</AltitudeMeters>
            <DistanceMeters>NAN</DistanceMeters>
          </Trackpoint>
          <Trackpoint>
            <Time>2018-12-30T11:15:20.000Z</Time>
            <Position>
              <LatitudeDegrees>40.789203085005283355712890625</LatitudeDegrees>
              <LongitudeDegrees>-4.06246371567249298095703125</LongitudeDegrees>
            </Position>
            <AltitudeMeters>1677.800048828125</AltitudeMeters>
            <DistanceMeters>NAN</DistanceMeters>
          </Trackpoint>
          <Trackpoint>
            <Time>2018-12-30T11:15:21.000Z</Time>
            <Position>
              <LatitudeDegrees>40.78920744359493255615234375</LatitudeDegrees>
              <LongitudeDegrees>-4.06244619749486446380615234375</LongitudeDegrees>
            </Position>
            <AltitudeMeters>1677.5999755859375</AltitudeMeters>
            <DistanceMeters>NAN</DistanceMeters>
          </Trackpoint>
          <Trackpoint>
            <Time>2018-12-30T11:15:22.000Z</Time>
            <Position>
              <LatitudeDegrees>40.7892123050987720489501953125</LatitudeDegrees>
              <LongitudeDegrees>-4.062426500022411346435546875</LongitudeDegrees>
            </Position>
            <AltitudeMeters>1677.5999755859375</AltitudeMeters>
            <DistanceMeters>NAN</DistanceMeters>
          </Trackpoint>
          <Trackpoint>
            <Time>2018-12-30T11:15:23.000Z</Time>
            <Position>
              <LatitudeDegrees>40.7892163284122943878173828125</LatitudeDegrees>
              <LongitudeDegrees>-4.06241166405379772186279296875</LongitudeDegrees>
            </Position>
            <AltitudeMeters>1677.5999755859375</AltitudeMeters>
            <DistanceMeters>NAN</DistanceMeters>
          </Trackpoint>
          <Trackpoint>
            <Time>2018-12-30T11:15:24.000Z</Time>
            <Position>
              <LatitudeDegrees>40.7892223633825778961181640625</LatitudeDegrees>
              <LongitudeDegrees>-4.06239573843777179718017578125</LongitudeDegrees>
            </Position>
            <AltitudeMeters>1677.800048828125</AltitudeMeters>
            <DistanceMeters>NAN</DistanceMeters>
          </Trackpoint>
          <Trackpoint>
            <Time>2018-12-30T11:15:25.000Z</Time>
            <Position>
              <LatitudeDegrees>40.78922697342932224273681640625</LatitudeDegrees>
              <LongitudeDegrees>-4.06237528659403324127197265625</LongitudeDegrees>
            </Position>
            <AltitudeMeters>1678</AltitudeMeters>
            <DistanceMeters>NAN</DistanceMeters>
          </Trackpoint>
          <Trackpoint>
            <Time>2018-12-30T11:15:26.000Z</Time>
            <Position>
              <LatitudeDegrees>40.7892257161438465118408203125</LatitudeDegrees>
              <LongitudeDegrees>-4.06235642731189727783203125</LongitudeDegrees>
            </Position>
            <AltitudeMeters>1678.199951171875</AltitudeMeters>
            <DistanceMeters>NAN</DistanceMeters>
          </Trackpoint>
          <Trackpoint>
            <Time>2018-12-30T11:15:27.000Z</Time>
            <Position>
              <LatitudeDegrees>40.7892310805618762969970703125</LatitudeDegrees>
              <LongitudeDegrees>-4.06233974732458591461181640625</LongitudeDegrees>
            </Position>
            <AltitudeMeters>1678.4000244140625</AltitudeMeters>
            <DistanceMeters>NAN</DistanceMeters>
          </Trackpoint>
          <Trackpoint>
            <Time>2018-12-30T11:15:28.000Z</Time>
            <Position>
              <LatitudeDegrees>40.78923652879893779754638671875</LatitudeDegrees>
              <LongitudeDegrees>-4.06232357025146484375</LongitudeDegrees>
            </Position>
            <AltitudeMeters>1678.5999755859375</AltitudeMeters>
            <DistanceMeters>NAN</DistanceMeters>
          </Trackpoint>
          <Trackpoint>
            <Time>2018-12-30T11:15:29.000Z</Time>
            <Position>
              <LatitudeDegrees>40.7892421446740627288818359375</LatitudeDegrees>
              <LongitudeDegrees>-4.062307812273502349853515625</LongitudeDegrees>
            </Position>
            <AltitudeMeters>1678.5999755859375</AltitudeMeters>
            <DistanceMeters>NAN</DistanceMeters>
          </Trackpoint>
          <Trackpoint>
            <Time>2018-12-30T11:15:30.000Z</Time>
            <Position>
              <LatitudeDegrees>40.7892468385398387908935546875</LatitudeDegrees>
              <LongitudeDegrees>-4.06229431740939617156982421875</LongitudeDegrees>
            </Position>
            <AltitudeMeters>1678.800048828125</AltitudeMeters>
            <DistanceMeters>NAN</DistanceMeters>
          </Trackpoint>
          <Trackpoint>
            <Time>2018-12-30T11:15:31.000Z</Time>
            <Position>
              <LatitudeDegrees>40.78925128094851970672607421875</LatitudeDegrees>
              <LongitudeDegrees>-4.0622821636497974395751953125</LongitudeDegrees>
            </Position>
            <AltitudeMeters>1678.800048828125</AltitudeMeters>
            <DistanceMeters>NAN</DistanceMeters>
          </Trackpoint>
          <Trackpoint>
            <Time>2018-12-30T11:15:32.000Z</Time>
            <Position>
              <LatitudeDegrees>40.78925480134785175323486328125</LatitudeDegrees>
              <LongitudeDegrees>-4.062270931899547576904296875</LongitudeDegrees>
            </Position>
            <AltitudeMeters>1678.800048828125</AltitudeMeters>
            <DistanceMeters>NAN</DistanceMeters>
          </Trackpoint>
          <Trackpoint>
            <Time>2018-12-30T11:15:33.000Z</Time>
            <Position>
              <LatitudeDegrees>40.78924876637756824493408203125</LatitudeDegrees>
              <LongitudeDegrees>-4.0622489713132381439208984375</LongitudeDegrees>
            </Position>
            <AltitudeMeters>1679</AltitudeMeters>
            <DistanceMeters>NAN</DistanceMeters>
          </Trackpoint>
          <Trackpoint>
            <Time>2018-12-30T11:15:34.000Z</Time>
            <Position>
              <LatitudeDegrees>40.78925245441496372222900390625</LatitudeDegrees>
              <LongitudeDegrees>-4.062240086495876312255859375</LongitudeDegrees>
            </Position>
            <AltitudeMeters>1679</AltitudeMeters>
            <DistanceMeters>NAN</DistanceMeters>
          </Trackpoint>
          <Trackpoint>
            <Time>2018-12-30T11:15:35.000Z</Time>
            <Position>
              <LatitudeDegrees>40.789254717528820037841796875</LatitudeDegrees>
              <LongitudeDegrees>-4.0622337162494659423828125</LongitudeDegrees>
            </Position>
            <AltitudeMeters>1679.199951171875</AltitudeMeters>
            <DistanceMeters>NAN</DistanceMeters>
          </Trackpoint>
          <Trackpoint>
            <Time>2018-12-30T11:15:36.000Z</Time>
            <Position>
              <LatitudeDegrees>40.78925974667072296142578125</LatitudeDegrees>
              <LongitudeDegrees>-4.06222525052726268768310546875</LongitudeDegrees>
            </Position>
            <AltitudeMeters>1679.199951171875</AltitudeMeters>
            <DistanceMeters>NAN</DistanceMeters>
          </Trackpoint>
          <Trackpoint>
            <Time>2018-12-30T11:15:37.000Z</Time>
            <Position>
              <LatitudeDegrees>40.78926905058324337005615234375</LatitudeDegrees>
              <LongitudeDegrees>-4.0622164495289325714111328125</LongitudeDegrees>
            </Position>
            <AltitudeMeters>1679.199951171875</AltitudeMeters>
            <DistanceMeters>NAN</DistanceMeters>
          </Trackpoint>
          <Trackpoint>
            <Time>2018-12-30T11:15:38.000Z</Time>
            <Position>
              <LatitudeDegrees>40.78927374444901943206787109375</LatitudeDegrees>
              <LongitudeDegrees>-4.06220228411257266998291015625</LongitudeDegrees>
            </Position>
            <AltitudeMeters>1679.199951171875</AltitudeMeters>
            <DistanceMeters>NAN</DistanceMeters>
          </Trackpoint>
          <Trackpoint>
            <Time>2018-12-30T11:15:39.000Z</Time>
            <Position>
              <LatitudeDegrees>40.78927718102931976318359375</LatitudeDegrees>
              <LongitudeDegrees>-4.0621832571923732757568359375</LongitudeDegrees>
            </Position>
            <AltitudeMeters>1679.199951171875</AltitudeMeters>
            <DistanceMeters>NAN</DistanceMeters>
          </Trackpoint>
          <Trackpoint>
            <Time>2018-12-30T11:15:40.000Z</Time>
            <Position>
              <LatitudeDegrees>40.78928388655185699462890625</LatitudeDegrees>
              <LongitudeDegrees>-4.0621666610240936279296875</LongitudeDegrees>
            </Position>
            <AltitudeMeters>1679.4000244140625</AltitudeMeters>
            <DistanceMeters>NAN</DistanceMeters>
          </Trackpoint>
          <Trackpoint>
            <Time>2018-12-30T11:15:41.000Z</Time>
            <Position>
              <LatitudeDegrees>40.78929168172180652618408203125</LatitudeDegrees>
              <LongitudeDegrees>-4.06215484254062175750732421875</LongitudeDegrees>
            </Position>
            <AltitudeMeters>1679.4000244140625</AltitudeMeters>
            <DistanceMeters>NAN</DistanceMeters>
          </Trackpoint>
          <Trackpoint>
            <Time>2018-12-30T11:15:42.000Z</Time>
            <Position>
              <LatitudeDegrees>40.789294280111789703369140625</LatitudeDegrees>
              <LongitudeDegrees>-4.06214277260005474090576171875</LongitudeDegrees>
            </Position>
            <AltitudeMeters>1679.4000244140625</AltitudeMeters>
            <DistanceMeters>NAN</DistanceMeters>
          </Trackpoint>
          <Trackpoint>
            <Time>2018-12-30T11:15:43.000Z</Time>
            <Position>
              <LatitudeDegrees>40.78929251991212368011474609375</LatitudeDegrees>
              <LongitudeDegrees>-4.0621383301913738250732421875</LongitudeDegrees>
            </Position>
            <AltitudeMeters>1679.5999755859375</AltitudeMeters>
            <DistanceMeters>NAN</DistanceMeters>
          </Trackpoint>
          <Trackpoint>
            <Time>2018-12-30T11:15:44.000Z</Time>
            <Position>
              <LatitudeDegrees>40.789285562932491302490234375</LatitudeDegrees>
              <LongitudeDegrees>-4.06212986446917057037353515625</LongitudeDegrees>
            </Position>
            <AltitudeMeters>1679.800048828125</AltitudeMeters>
            <DistanceMeters>NAN</DistanceMeters>
          </Trackpoint>
          <Trackpoint>
            <Time>2018-12-30T11:15:45.000Z</Time>
            <Position>
              <LatitudeDegrees>40.789278857409954071044921875</LatitudeDegrees>
              <LongitudeDegrees>-4.06212165020406246185302734375</LongitudeDegrees>
            </Position>
            <AltitudeMeters>1680.199951171875</AltitudeMeters>
            <DistanceMeters>NAN</DistanceMeters>
          </Trackpoint>
          <Trackpoint>
            <Time>2018-12-30T11:15:46.000Z</Time>
            <Position>
              <LatitudeDegrees>40.7892753370106220245361328125</LatitudeDegrees>
              <LongitudeDegrees>-4.06211729161441326141357421875</LongitudeDegrees>
            </Position>
            <AltitudeMeters>1680.5999755859375</AltitudeMeters>
            <DistanceMeters>NAN</DistanceMeters>
          </Trackpoint>
          <Trackpoint>
            <Time>2018-12-30T11:15:47.000Z</Time>
            <Position>
              <LatitudeDegrees>40.7892736606299877166748046875</LatitudeDegrees>
              <LongitudeDegrees>-4.06211796216666698455810546875</LongitudeDegrees>
            </Position>
            <AltitudeMeters>1680.800048828125</AltitudeMeters>
            <DistanceMeters>NAN</DistanceMeters>
          </Trackpoint>
          <Trackpoint>
            <Time>2018-12-30T11:15:48.000Z</Time>
            <Position>
              <LatitudeDegrees>40.78927583992481231689453125</LatitudeDegrees>
              <LongitudeDegrees>-4.06211796216666698455810546875</LongitudeDegrees>
            </Position>
            <AltitudeMeters>1680.800048828125</AltitudeMeters>
            <DistanceMeters>NAN</DistanceMeters>
          </Trackpoint>
          <Trackpoint>
            <Time>2018-12-30T11:15:49.000Z</Time>
            <Position>
              <LatitudeDegrees>40.78927625901997089385986328125</LatitudeDegrees>
              <LongitudeDegrees>-4.06210589222609996795654296875</LongitudeDegrees>
            </Position>
            <AltitudeMeters>1680.800048828125</AltitudeMeters>
            <DistanceMeters>NAN</DistanceMeters>
          </Trackpoint>
          <Trackpoint>
            <Time>2018-12-30T11:15:50.000Z</Time>
            <Position>
              <LatitudeDegrees>40.7892796956002712249755859375</LatitudeDegrees>
              <LongitudeDegrees>-4.062090553343296051025390625</LongitudeDegrees>
            </Position>
            <AltitudeMeters>1680.800048828125</AltitudeMeters>
            <DistanceMeters>NAN</DistanceMeters>
          </Trackpoint>
          <Trackpoint>
            <Time>2018-12-30T11:15:51.000Z</Time>
            <Position>
              <LatitudeDegrees>40.789286233484745025634765625</LatitudeDegrees>
              <LongitudeDegrees>-4.06207806430757045745849609375</LongitudeDegrees>
            </Position>
            <AltitudeMeters>1680.800048828125</AltitudeMeters>
            <DistanceMeters>NAN</DistanceMeters>
          </Trackpoint>
          <Trackpoint>
            <Time>2018-12-30T11:15:52.000Z</Time>
            <Position>
              <LatitudeDegrees>40.78929251991212368011474609375</LatitudeDegrees>
              <LongitudeDegrees>-4.06206515617668628692626953125</LongitudeDegrees>
            </Position>
            <AltitudeMeters>1680.800048828125</AltitudeMeters>
            <DistanceMeters>NAN</DistanceMeters>
          </Trackpoint>
          <Trackpoint>
            <Time>2018-12-30T11:15:53.000Z</Time>
            <Position>
              <LatitudeDegrees>40.789297632873058319091796875</LatitudeDegrees>
              <LongitudeDegrees>-4.06205308623611927032470703125</LongitudeDegrees>
            </Position>
            <AltitudeMeters>1680.5999755859375</AltitudeMeters>
            <DistanceMeters>NAN</DistanceMeters>
          </Trackpoint>
          <Trackpoint>
            <Time>2018-12-30T11:15:54.000Z</Time>
            <Position>
              <LatitudeDegrees>40.789301656186580657958984375</LatitudeDegrees>
              <LongitudeDegrees>-4.062042273581027984619140625</LongitudeDegrees>
            </Position>
            <AltitudeMeters>1680.5999755859375</AltitudeMeters>
            <DistanceMeters>NAN</DistanceMeters>
          </Trackpoint>
          <Trackpoint>
            <Time>2018-12-30T11:15:55.000Z</Time>
            <Position>
              <LatitudeDegrees>40.789305679500102996826171875</LatitudeDegrees>
              <LongitudeDegrees>-4.062031544744968414306640625</LongitudeDegrees>
            </Position>
            <AltitudeMeters>1680.5999755859375</AltitudeMeters>
            <DistanceMeters>NAN</DistanceMeters>
          </Trackpoint>
          <Trackpoint>
            <Time>2018-12-30T11:15:56.000Z</Time>
            <Position>
              <LatitudeDegrees>40.7893108762800693511962890625</LatitudeDegrees>
              <LongitudeDegrees>-4.0620179660618305206298828125</LongitudeDegrees>
            </Position>
            <AltitudeMeters>1681</AltitudeMeters>
            <DistanceMeters>NAN</DistanceMeters>
          </Trackpoint>
          <Trackpoint>
            <Time>2018-12-30T11:15:57.000Z</Time>
            <Position>
              <LatitudeDegrees>40.78931615687906742095947265625</LatitudeDegrees>
              <LongitudeDegrees>-4.0620055608451366424560546875</LongitudeDegrees>
            </Position>
            <AltitudeMeters>1681</AltitudeMeters>
            <DistanceMeters>NAN</DistanceMeters>
          </Trackpoint>
          <Trackpoint>
            <Time>2018-12-30T11:15:58.000Z</Time>
            <Position>
              <LatitudeDegrees>40.789320766925811767578125</LatitudeDegrees>
              <LongitudeDegrees>-4.0619914792478084564208984375</LongitudeDegrees>
            </Position>
            <AltitudeMeters>1681.199951171875</AltitudeMeters>
            <DistanceMeters>NAN</DistanceMeters>
          </Trackpoint>
          <Trackpoint>
            <Time>2018-12-30T11:15:59.000Z</Time>
            <Position>
              <LatitudeDegrees>40.78932286240160465240478515625</LatitudeDegrees>
              <LongitudeDegrees>-4.0619743801653385162353515625</LongitudeDegrees>
            </Position>
            <AltitudeMeters>1681.4000244140625</AltitudeMeters>
            <DistanceMeters>NAN</DistanceMeters>
          </Trackpoint>
          <Trackpoint>
            <Time>2018-12-30T11:16:00.000Z</Time>
            <Position>
              <LatitudeDegrees>40.7893283106386661529541015625</LatitudeDegrees>
              <LongitudeDegrees>-4.06196675263345241546630859375</LongitudeDegrees>
            </Position>
            <AltitudeMeters>1681.5999755859375</AltitudeMeters>
            <DistanceMeters>NAN</DistanceMeters>
          </Trackpoint>
          <Trackpoint>
            <Time>2018-12-30T11:16:01.000Z</Time>
            <Position>
              <LatitudeDegrees>40.78933426178991794586181640625</LatitudeDegrees>
              <LongitudeDegrees>-4.06196222640573978424072265625</LongitudeDegrees>
            </Position>
            <AltitudeMeters>1681.5999755859375</AltitudeMeters>
            <DistanceMeters>NAN</DistanceMeters>
          </Trackpoint>
          <Trackpoint>
            <Time>2018-12-30T11:16:02.000Z</Time>
            <Position>
              <LatitudeDegrees>40.78933828510344028472900390625</LatitudeDegrees>
              <LongitudeDegrees>-4.061955101788043975830078125</LongitudeDegrees>
            </Position>
            <AltitudeMeters>1681.800048828125</AltitudeMeters>
            <DistanceMeters>NAN</DistanceMeters>
          </Trackpoint>
          <Trackpoint>
            <Time>2018-12-30T11:16:03.000Z</Time>
            <Position>
              <LatitudeDegrees>40.7893447391688823699951171875</LatitudeDegrees>
              <LongitudeDegrees>-4.06194831244647502899169921875</LongitudeDegrees>
            </Position>
            <AltitudeMeters>1682</AltitudeMeters>
            <DistanceMeters>NAN</DistanceMeters>
          </Trackpoint>
          <Trackpoint>
            <Time>2018-12-30T11:16:04.000Z</Time>
            <Position>
              <LatitudeDegrees>40.789352618157863616943359375</LatitudeDegrees>
              <LongitudeDegrees>-4.06194261275231838226318359375</LongitudeDegrees>
            </Position>
            <AltitudeMeters>1682.199951171875</AltitudeMeters>
            <DistanceMeters>NAN</DistanceMeters>
          </Trackpoint>
          <Trackpoint>
            <Time>2018-12-30T11:16:05.000Z</Time>
            <Position>
              <LatitudeDegrees>40.78936041332781314849853515625</LatitudeDegrees>
              <LongitudeDegrees>-4.06193288974463939666748046875</LongitudeDegrees>
            </Position>
            <AltitudeMeters>1682.199951171875</AltitudeMeters>
            <DistanceMeters>NAN</DistanceMeters>
          </Trackpoint>
          <Trackpoint>
            <Time>2018-12-30T11:16:06.000Z</Time>
            <Position>
              <LatitudeDegrees>40.78936795704066753387451171875</LatitudeDegrees>
              <LongitudeDegrees>-4.0619210712611675262451171875</LongitudeDegrees>
            </Position>
            <AltitudeMeters>1682.4000244140625</AltitudeMeters>
            <DistanceMeters>NAN</DistanceMeters>
          </Trackpoint>
          <Trackpoint>
            <Time>2018-12-30T11:16:07.000Z</Time>
            <Position>
              <LatitudeDegrees>40.78938103280961513519287109375</LatitudeDegrees>
              <LongitudeDegrees>-4.0619113482534885406494140625</LongitudeDegrees>
            </Position>
            <AltitudeMeters>1682.4000244140625</AltitudeMeters>
            <DistanceMeters>NAN</DistanceMeters>
          </Trackpoint>
          <Trackpoint>
            <Time>2018-12-30T11:16:08.000Z</Time>
            <Position>
              <LatitudeDegrees>40.78939444385468959808349609375</LatitudeDegrees>
              <LongitudeDegrees>-4.06190237961709499359130859375</LongitudeDegrees>
            </Position>
            <AltitudeMeters>1682.5999755859375</AltitudeMeters>
            <DistanceMeters>NAN</DistanceMeters>
          </Trackpoint>
          <Trackpoint>
            <Time>2018-12-30T11:16:09.000Z</Time>
            <Position>
              <LatitudeDegrees>40.78940584324300289154052734375</LatitudeDegrees>
              <LongitudeDegrees>-4.06189349479973316192626953125</LongitudeDegrees>
            </Position>
            <AltitudeMeters>1682.800048828125</AltitudeMeters>
            <DistanceMeters>NAN</DistanceMeters>
          </Trackpoint>
          <Trackpoint>
            <Time>2018-12-30T11:16:10.000Z</Time>
            <Position>
              <LatitudeDegrees>40.78942000865936279296875</LatitudeDegrees>
              <LongitudeDegrees>-4.0618875436484813690185546875</LongitudeDegrees>
            </Position>
            <AltitudeMeters>1683</AltitudeMeters>
            <DistanceMeters>NAN</DistanceMeters>
          </Trackpoint>
          <Trackpoint>
            <Time>2018-12-30T11:16:11.000Z</Time>
            <Position>
              <LatitudeDegrees>40.78943316824734210968017578125</LatitudeDegrees>
              <LongitudeDegrees>-4.061881341040134429931640625</LongitudeDegrees>
            </Position>
            <AltitudeMeters>1683</AltitudeMeters>
            <DistanceMeters>NAN</DistanceMeters>
          </Trackpoint>
          <Trackpoint>
            <Time>2018-12-30T11:16:12.000Z</Time>
            <Position>
              <LatitudeDegrees>40.78944507054984569549560546875</LatitudeDegrees>
              <LongitudeDegrees>-4.0618778206408023834228515625</LongitudeDegrees>
            </Position>
            <AltitudeMeters>1683.199951171875</AltitudeMeters>
            <DistanceMeters>NAN</DistanceMeters>
          </Trackpoint>
          <Trackpoint>
            <Time>2018-12-30T11:16:13.000Z</Time>
            <Position>
              <LatitudeDegrees>40.789457224309444427490234375</LatitudeDegrees>
              <LongitudeDegrees>-4.06187773682177066802978515625</LongitudeDegrees>
            </Position>
            <AltitudeMeters>1683.4000244140625</AltitudeMeters>
            <DistanceMeters>NAN</DistanceMeters>
          </Trackpoint>
          <Trackpoint>
            <Time>2018-12-30T11:16:14.000Z</Time>
            <Position>
              <LatitudeDegrees>40.78946761786937713623046875</LatitudeDegrees>
              <LongitudeDegrees>-4.061872623860836029052734375</LongitudeDegrees>
            </Position>
            <AltitudeMeters>1683.4000244140625</AltitudeMeters>
            <DistanceMeters>NAN</DistanceMeters>
          </Trackpoint>
          <Trackpoint>
            <Time>2018-12-30T11:16:15.000Z</Time>
            <Position>
              <LatitudeDegrees>40.7894765026867389678955078125</LatitudeDegrees>
              <LongitudeDegrees>-4.06186566688120365142822265625</LongitudeDegrees>
            </Position>
            <AltitudeMeters>1683.5999755859375</AltitudeMeters>
            <DistanceMeters>NAN</DistanceMeters>
          </Trackpoint>
          <Trackpoint>
            <Time>2018-12-30T11:16:16.000Z</Time>
            <Position>
              <LatitudeDegrees>40.7894857227802276611328125</LatitudeDegrees>
              <LongitudeDegrees>-4.06185762025415897369384765625</LongitudeDegrees>
            </Position>
            <AltitudeMeters>1683.800048828125</AltitudeMeters>
            <DistanceMeters>NAN</DistanceMeters>
          </Trackpoint>
          <Trackpoint>
            <Time>2018-12-30T11:16:17.000Z</Time>
            <Position>
              <LatitudeDegrees>40.7894892431795597076416015625</LatitudeDegrees>
              <LongitudeDegrees>-4.0618439577519893646240234375</LongitudeDegrees>
            </Position>
            <AltitudeMeters>1684</AltitudeMeters>
            <DistanceMeters>NAN</DistanceMeters>
          </Trackpoint>
          <Trackpoint>
            <Time>2018-12-30T11:16:18.000Z</Time>
            <Position>
              <LatitudeDegrees>40.7894969545304775238037109375</LatitudeDegrees>
              <LongitudeDegrees>-4.06183741986751556396484375</LongitudeDegrees>
            </Position>
            <AltitudeMeters>1684</AltitudeMeters>
            <DistanceMeters>NAN</DistanceMeters>
          </Trackpoint>
          <Trackpoint>
            <Time>2018-12-30T11:16:19.000Z</Time>
            <Position>
              <LatitudeDegrees>40.789503492414951324462890625</LatitudeDegrees>
              <LongitudeDegrees>-4.06182576902210712432861328125</LongitudeDegrees>
            </Position>
            <AltitudeMeters>1684</AltitudeMeters>
            <DistanceMeters>NAN</DistanceMeters>
          </Trackpoint>
          <Trackpoint>
            <Time>2018-12-30T11:16:20.000Z</Time>
            <Position>
              <LatitudeDegrees>40.78950743190944194793701171875</LatitudeDegrees>
              <LongitudeDegrees>-4.06181118451058864593505859375</LongitudeDegrees>
            </Position>
            <AltitudeMeters>1684.199951171875</AltitudeMeters>
            <DistanceMeters>NAN</DistanceMeters>
          </Trackpoint>
          <Trackpoint>
            <Time>2018-12-30T11:16:21.000Z</Time>
            <Position>
              <LatitudeDegrees>40.78951656818389892578125</LatitudeDegrees>
              <LongitudeDegrees>-4.06180531717836856842041015625</LongitudeDegrees>
            </Position>
            <AltitudeMeters>1684.199951171875</AltitudeMeters>
            <DistanceMeters>NAN</DistanceMeters>
          </Trackpoint>
          <Trackpoint>
            <Time>2018-12-30T11:16:22.000Z</Time>
            <Position>
              <LatitudeDegrees>40.78952402807772159576416015625</LatitudeDegrees>
              <LongitudeDegrees>-4.061796851456165313720703125</LongitudeDegrees>
            </Position>
            <AltitudeMeters>1684.4000244140625</AltitudeMeters>
            <DistanceMeters>NAN</DistanceMeters>
          </Trackpoint>
          <Trackpoint>
            <Time>2018-12-30T11:16:23.000Z</Time>
            <Position>
              <LatitudeDegrees>40.7895338349044322967529296875</LatitudeDegrees>
              <LongitudeDegrees>-4.06179207377135753631591796875</LongitudeDegrees>
            </Position>
            <AltitudeMeters>1684.5999755859375</AltitudeMeters>
            <DistanceMeters>NAN</DistanceMeters>
          </Trackpoint>
          <Trackpoint>
            <Time>2018-12-30T11:16:24.000Z</Time>
            <Position>
              <LatitudeDegrees>40.7895428873598575592041015625</LatitudeDegrees>
              <LongitudeDegrees>-4.06179056502878665924072265625</LongitudeDegrees>
            </Position>
            <AltitudeMeters>1685</AltitudeMeters>
            <DistanceMeters>NAN</DistanceMeters>
          </Trackpoint>
          <Trackpoint>
            <Time>2018-12-30T11:16:25.000Z</Time>
            <Position>
              <LatitudeDegrees>40.78955101780593395233154296875</LatitudeDegrees>
              <LongitudeDegrees>-4.0617893077433109283447265625</LongitudeDegrees>
            </Position>
            <AltitudeMeters>1685.4000244140625</AltitudeMeters>
            <DistanceMeters>NAN</DistanceMeters>
          </Trackpoint>
          <Trackpoint>
            <Time>2018-12-30T11:16:26.000Z</Time>
            <Position>
              <LatitudeDegrees>40.7895581424236297607421875</LatitudeDegrees>
              <LongitudeDegrees>-4.0617832727730274200439453125</LongitudeDegrees>
            </Position>
            <AltitudeMeters>1685.5999755859375</AltitudeMeters>
            <DistanceMeters>NAN</DistanceMeters>
          </Trackpoint>
          <Trackpoint>
            <Time>2018-12-30T11:16:27.000Z</Time>
            <Position>
              <LatitudeDegrees>40.789567865431308746337890625</LatitudeDegrees>
              <LongitudeDegrees>-4.06178084202110767364501953125</LongitudeDegrees>
            </Position>
            <AltitudeMeters>1685.800048828125</AltitudeMeters>
            <DistanceMeters>NAN</DistanceMeters>
          </Trackpoint>
          <Trackpoint>
            <Time>2018-12-30T11:16:28.000Z</Time>
            <Position>
              <LatitudeDegrees>40.7895770855247974395751953125</LatitudeDegrees>
              <LongitudeDegrees>-4.06177782453596591949462890625</LongitudeDegrees>
            </Position>
            <AltitudeMeters>1686</AltitudeMeters>
            <DistanceMeters>NAN</DistanceMeters>
          </Trackpoint>
          <Trackpoint>
            <Time>2018-12-30T11:16:29.000Z</Time>
            <Position>
              <LatitudeDegrees>40.7895858027040958404541015625</LatitudeDegrees>
              <LongitudeDegrees>-4.06177262775599956512451171875</LongitudeDegrees>
            </Position>
            <AltitudeMeters>1686.199951171875</AltitudeMeters>
            <DistanceMeters>NAN</DistanceMeters>
          </Trackpoint>
          <Trackpoint>
            <Time>2018-12-30T11:16:30.000Z</Time>
            <Position>
              <LatitudeDegrees>40.78959577716886997222900390625</LatitudeDegrees>
              <LongitudeDegrees>-4.06176994554698467254638671875</LongitudeDegrees>
            </Position>
            <AltitudeMeters>1686.199951171875</AltitudeMeters>
            <DistanceMeters>NAN</DistanceMeters>
          </Trackpoint>
          <Trackpoint>
            <Time>2018-12-30T11:16:31.000Z</Time>
            <Position>
              <LatitudeDegrees>40.789605416357517242431640625</LatitudeDegrees>
              <LongitudeDegrees>-4.06177145428955554962158203125</LongitudeDegrees>
            </Position>
            <AltitudeMeters>1686.4000244140625</AltitudeMeters>
            <DistanceMeters>NAN</DistanceMeters>
          </Trackpoint>
          <Trackpoint>
            <Time>2018-12-30T11:16:32.000Z</Time>
            <Position>
              <LatitudeDegrees>40.78959376551210880279541015625</LatitudeDegrees>
              <LongitudeDegrees>-4.06173541210591793060302734375</LongitudeDegrees>
            </Position>
            <AltitudeMeters>1686.4000244140625</AltitudeMeters>
            <DistanceMeters>NAN</DistanceMeters>
          </Trackpoint>
          <Trackpoint>
            <Time>2018-12-30T11:16:33.000Z</Time>
            <Position>
              <LatitudeDegrees>40.789594352245330810546875</LatitudeDegrees>
              <LongitudeDegrees>-4.06172786839306354522705078125</LongitudeDegrees>
            </Position>
            <AltitudeMeters>1686.4000244140625</AltitudeMeters>
            <DistanceMeters>NAN</DistanceMeters>
          </Trackpoint>
          <Trackpoint>
            <Time>2018-12-30T11:16:34.000Z</Time>
            <Position>
              <LatitudeDegrees>40.78958907164633274078369140625</LatitudeDegrees>
              <LongitudeDegrees>-4.0617135353386402130126953125</LongitudeDegrees>
            </Position>
            <AltitudeMeters>1686.5999755859375</AltitudeMeters>
            <DistanceMeters>NAN</DistanceMeters>
          </Trackpoint>
          <Trackpoint>
            <Time>2018-12-30T11:16:35.000Z</Time>
            <Position>
              <LatitudeDegrees>40.7895901612937450408935546875</LatitudeDegrees>
              <LongitudeDegrees>-4.06171093694865703582763671875</LongitudeDegrees>
            </Position>
            <AltitudeMeters>1686.800048828125</AltitudeMeters>
            <DistanceMeters>NAN</DistanceMeters>
          </Trackpoint>
          <Trackpoint>
            <Time>2018-12-30T11:16:36.000Z</Time>
            <Position>
              <LatitudeDegrees>40.78959376551210880279541015625</LatitudeDegrees>
              <LongitudeDegrees>-4.06171261332929134368896484375</LongitudeDegrees>
            </Position>
            <AltitudeMeters>1686.800048828125</AltitudeMeters>
            <DistanceMeters>NAN</DistanceMeters>
          </Trackpoint>
          <Trackpoint>
            <Time>2018-12-30T11:16:37.000Z</Time>
            <Position>
              <LatitudeDegrees>40.789588652551174163818359375</LatitudeDegrees>
              <LongitudeDegrees>-4.0616964362561702728271484375</LongitudeDegrees>
            </Position>
            <AltitudeMeters>1687</AltitudeMeters>
            <DistanceMeters>NAN</DistanceMeters>
          </Trackpoint>
          <Trackpoint>
            <Time>2018-12-30T11:16:38.000Z</Time>
            <Position>
              <LatitudeDegrees>40.78959292732179164886474609375</LatitudeDegrees>
              <LongitudeDegrees>-4.06169299967586994171142578125</LongitudeDegrees>
            </Position>
            <AltitudeMeters>1687</AltitudeMeters>
            <DistanceMeters>NAN</DistanceMeters>
          </Trackpoint>
          <Trackpoint>
            <Time>2018-12-30T11:16:39.000Z</Time>
            <Position>
              <LatitudeDegrees>40.78959862701594829559326171875</LatitudeDegrees>
              <LongitudeDegrees>-4.06169568188488483428955078125</LongitudeDegrees>
            </Position>
            <AltitudeMeters>1687</AltitudeMeters>
            <DistanceMeters>NAN</DistanceMeters>
          </Trackpoint>
          <Trackpoint>
            <Time>2018-12-30T11:16:40.000Z</Time>
            <Position>
              <LatitudeDegrees>40.7896022312343120574951171875</LatitudeDegrees>
              <LongitudeDegrees>-4.0616964362561702728271484375</LongitudeDegrees>
            </Position>
            <AltitudeMeters>1687</AltitudeMeters>
            <DistanceMeters>NAN</DistanceMeters>
          </Trackpoint>
          <Trackpoint>
            <Time>2018-12-30T11:16:41.000Z</Time>
            <Position>
              <LatitudeDegrees>40.7896079309284687042236328125</LatitudeDegrees>
              <LongitudeDegrees>-4.06170104630291461944580078125</LongitudeDegrees>
            </Position>
            <AltitudeMeters>1687</AltitudeMeters>
            <DistanceMeters>NAN</DistanceMeters>
          </Trackpoint>
          <Trackpoint>
            <Time>2018-12-30T11:16:42.000Z</Time>
            <Position>
              <LatitudeDegrees>40.789613462984561920166015625</LatitudeDegrees>
              <LongitudeDegrees>-4.06170574016869068145751953125</LongitudeDegrees>
            </Position>
            <AltitudeMeters>1687</AltitudeMeters>
            <DistanceMeters>NAN</DistanceMeters>
          </Trackpoint>
          <Trackpoint>
            <Time>2018-12-30T11:16:43.000Z</Time>
            <Position>
              <LatitudeDegrees>40.78961622901260852813720703125</LatitudeDegrees>
              <LongitudeDegrees>-4.0617101825773715972900390625</LongitudeDegrees>
            </Position>
            <AltitudeMeters>1686.800048828125</AltitudeMeters>
            <DistanceMeters>NAN</DistanceMeters>
          </Trackpoint>
          <Trackpoint>
            <Time>2018-12-30T11:16:44.000Z</Time>
            <Position>
              <LatitudeDegrees>40.7896246947348117828369140625</LatitudeDegrees>
              <LongitudeDegrees>-4.06171445734798908233642578125</LongitudeDegrees>
            </Position>
            <AltitudeMeters>1686.800048828125</AltitudeMeters>
            <DistanceMeters>NAN</DistanceMeters>
          </Trackpoint>
          <Trackpoint>
            <Time>2018-12-30T11:16:45.000Z</Time>
            <Position>
              <LatitudeDegrees>40.7896283827722072601318359375</LatitudeDegrees>
              <LongitudeDegrees>-4.0617229230701923370361328125</LongitudeDegrees>
            </Position>
            <AltitudeMeters>1686.800048828125</AltitudeMeters>
            <DistanceMeters>NAN</DistanceMeters>
          </Trackpoint>
          <Trackpoint>
            <Time>2018-12-30T11:16:46.000Z</Time>
            <Position>
              <LatitudeDegrees>40.7896320708096027374267578125</LatitudeDegrees>
              <LongitudeDegrees>-4.06173775903880596160888671875</LongitudeDegrees>
            </Position>
            <AltitudeMeters>1686.800048828125</AltitudeMeters>
            <DistanceMeters>NAN</DistanceMeters>
          </Trackpoint>
          <Trackpoint>
            <Time>2018-12-30T11:16:47.000Z</Time>
            <Position>
              <LatitudeDegrees>40.78962762840092182159423828125</LatitudeDegrees>
              <LongitudeDegrees>-4.0617447160184383392333984375</LongitudeDegrees>
            </Position>
            <AltitudeMeters>1686.800048828125</AltitudeMeters>
            <DistanceMeters>NAN</DistanceMeters>
          </Trackpoint>
          <Trackpoint>
            <Time>2018-12-30T11:16:48.000Z</Time>
            <Position>
              <LatitudeDegrees>40.7896236889064311981201171875</LatitudeDegrees>
              <LongitudeDegrees>-4.06174949370324611663818359375</LongitudeDegrees>
            </Position>
            <AltitudeMeters>1687</AltitudeMeters>
            <DistanceMeters>NAN</DistanceMeters>
          </Trackpoint>
          <Trackpoint>
            <Time>2018-12-30T11:16:49.000Z</Time>
            <Position>
              <LatitudeDegrees>40.78962008468806743621826171875</LatitudeDegrees>
              <LongitudeDegrees>-4.06175619922578334808349609375</LongitudeDegrees>
            </Position>
            <AltitudeMeters>1687</AltitudeMeters>
            <DistanceMeters>NAN</DistanceMeters>
          </Trackpoint>
          <Trackpoint>
            <Time>2018-12-30T11:16:50.000Z</Time>
            <Position>
              <LatitudeDegrees>40.789622850716114044189453125</LatitudeDegrees>
              <LongitudeDegrees>-4.06176961027085781097412109375</LongitudeDegrees>
            </Position>
            <AltitudeMeters>1687.199951171875</AltitudeMeters>
            <DistanceMeters>NAN</DistanceMeters>
          </Trackpoint>
          <Trackpoint>
            <Time>2018-12-30T11:16:51.000Z</Time>
            <Position>
              <LatitudeDegrees>40.789622850716114044189453125</LatitudeDegrees>
              <LongitudeDegrees>-4.06177463941276073455810546875</LongitudeDegrees>
            </Position>
            <AltitudeMeters>1687.199951171875</AltitudeMeters>
            <DistanceMeters>NAN</DistanceMeters>
          </Trackpoint>
          <Trackpoint>
            <Time>2018-12-30T11:16:52.000Z</Time>
            <Position>
              <LatitudeDegrees>40.78962142579257488250732421875</LatitudeDegrees>
              <LongitudeDegrees>-4.0617802552878856658935546875</LongitudeDegrees>
            </Position>
            <AltitudeMeters>1687.199951171875</AltitudeMeters>
            <DistanceMeters>NAN</DistanceMeters>
          </Trackpoint>
          <Trackpoint>
            <Time>2018-12-30T11:16:53.000Z</Time>
            <Position>
              <LatitudeDegrees>40.7896216772496700286865234375</LatitudeDegrees>
              <LongitudeDegrees>-4.06178503297269344329833984375</LongitudeDegrees>
            </Position>
            <AltitudeMeters>1687.199951171875</AltitudeMeters>
            <DistanceMeters>NAN</DistanceMeters>
          </Trackpoint>
          <Trackpoint>
            <Time>2018-12-30T11:16:54.000Z</Time>
            <Position>
              <LatitudeDegrees>40.78962092287838459014892578125</LatitudeDegrees>
              <LongitudeDegrees>-4.06178511679172515869140625</LongitudeDegrees>
            </Position>
            <AltitudeMeters>1687.199951171875</AltitudeMeters>
            <DistanceMeters>NAN</DistanceMeters>
          </Trackpoint>
          <Trackpoint>
            <Time>2018-12-30T11:16:55.000Z</Time>
            <Position>
              <LatitudeDegrees>40.78962050378322601318359375</LatitudeDegrees>
              <LongitudeDegrees>-4.0617839433252811431884765625</LongitudeDegrees>
            </Position>
            <AltitudeMeters>1687.199951171875</AltitudeMeters>
            <DistanceMeters>NAN</DistanceMeters>
          </Trackpoint>
          <Trackpoint>
            <Time>2018-12-30T11:16:56.000Z</Time>
            <Position>
              <LatitudeDegrees>40.789619497954845428466796875</LatitudeDegrees>
              <LongitudeDegrees>-4.06178603880107402801513671875</LongitudeDegrees>
            </Position>
            <AltitudeMeters>1687.4000244140625</AltitudeMeters>
            <DistanceMeters>NAN</DistanceMeters>
          </Trackpoint>
          <Trackpoint>
            <Time>2018-12-30T11:16:57.000Z</Time>
            <Position>
              <LatitudeDegrees>40.7896176539361476898193359375</LatitudeDegrees>
              <LongitudeDegrees>-4.0617804229259490966796875</LongitudeDegrees>
            </Position>
            <AltitudeMeters>1687.199951171875</AltitudeMeters>
            <DistanceMeters>NAN</DistanceMeters>
          </Trackpoint>
          <Trackpoint>
            <Time>2018-12-30T11:16:58.000Z</Time>
            <Position>
              <LatitudeDegrees>40.789621174335479736328125</LatitudeDegrees>
              <LongitudeDegrees>-4.06177061609923839569091796875</LongitudeDegrees>
            </Position>
            <AltitudeMeters>1687.199951171875</AltitudeMeters>
            <DistanceMeters>NAN</DistanceMeters>
          </Trackpoint>
          <Trackpoint>
            <Time>2018-12-30T11:16:59.000Z</Time>
            <Position>
              <LatitudeDegrees>40.7896278798580169677734375</LatitudeDegrees>
              <LongitudeDegrees>-4.061760641634464263916015625</LongitudeDegrees>
            </Position>
            <AltitudeMeters>1687.199951171875</AltitudeMeters>
            <DistanceMeters>NAN</DistanceMeters>
          </Trackpoint>
          <Trackpoint>
            <Time>2018-12-30T11:17:00.000Z</Time>
            <Position>
              <LatitudeDegrees>40.78963257372379302978515625</LatitudeDegrees>
              <LongitudeDegrees>-4.0617524273693561553955078125</LongitudeDegrees>
            </Position>
            <AltitudeMeters>1687.199951171875</AltitudeMeters>
            <DistanceMeters>NAN</DistanceMeters>
          </Trackpoint>
          <Trackpoint>
            <Time>2018-12-30T11:17:01.000Z</Time>
            <Position>
              <LatitudeDegrees>40.78963416628539562225341796875</LatitudeDegrees>
              <LongitudeDegrees>-4.0617390163242816925048828125</LongitudeDegrees>
            </Position>
            <AltitudeMeters>1687.199951171875</AltitudeMeters>
            <DistanceMeters>NAN</DistanceMeters>
          </Trackpoint>
          <Trackpoint>
            <Time>2018-12-30T11:17:02.000Z</Time>
            <Position>
              <LatitudeDegrees>40.78963601030409336090087890625</LatitudeDegrees>
              <LongitudeDegrees>-4.0617309696972370147705078125</LongitudeDegrees>
            </Position>
            <AltitudeMeters>1687.199951171875</AltitudeMeters>
            <DistanceMeters>NAN</DistanceMeters>
          </Trackpoint>
          <Trackpoint>
            <Time>2018-12-30T11:17:03.000Z</Time>
            <Position>
              <LatitudeDegrees>40.78963818959891796112060546875</LatitudeDegrees>
              <LongitudeDegrees>-4.06171915121376514434814453125</LongitudeDegrees>
            </Position>
            <AltitudeMeters>1687.199951171875</AltitudeMeters>
            <DistanceMeters>NAN</DistanceMeters>
          </Trackpoint>
          <Trackpoint>
            <Time>2018-12-30T11:17:04.000Z</Time>
            <Position>
              <LatitudeDegrees>40.78964405693113803863525390625</LatitudeDegrees>
              <LongitudeDegrees>-4.06171076931059360504150390625</LongitudeDegrees>
            </Position>
            <AltitudeMeters>1687.4000244140625</AltitudeMeters>
            <DistanceMeters>NAN</DistanceMeters>
          </Trackpoint>
          <Trackpoint>
            <Time>2018-12-30T11:17:05.000Z</Time>
            <Position>
              <LatitudeDegrees>40.78964598476886749267578125</LatitudeDegrees>
              <LongitudeDegrees>-4.061694256961345672607421875</LongitudeDegrees>
            </Position>
            <AltitudeMeters>1687.4000244140625</AltitudeMeters>
            <DistanceMeters>NAN</DistanceMeters>
          </Trackpoint>
          <Trackpoint>
            <Time>2018-12-30T11:17:06.000Z</Time>
            <Position>
              <LatitudeDegrees>40.78965025953948497772216796875</LatitudeDegrees>
              <LongitudeDegrees>-4.06168713234364986419677734375</LongitudeDegrees>
            </Position>
            <AltitudeMeters>1687.5999755859375</AltitudeMeters>
            <DistanceMeters>NAN</DistanceMeters>
          </Trackpoint>
          <Trackpoint>
            <Time>2018-12-30T11:17:07.000Z</Time>
            <Position>
              <LatitudeDegrees>40.78965076245367527008056640625</LatitudeDegrees>
              <LongitudeDegrees>-4.06168562360107898712158203125</LongitudeDegrees>
            </Position>
            <AltitudeMeters>1687.800048828125</AltitudeMeters>
            <DistanceMeters>NAN</DistanceMeters>
          </Trackpoint>
          <Trackpoint>
            <Time>2018-12-30T11:17:08.000Z</Time>
            <Position>
              <LatitudeDegrees>40.789647661149501800537109375</LatitudeDegrees>
              <LongitudeDegrees>-4.06167305074632167816162109375</LongitudeDegrees>
            </Position>
            <AltitudeMeters>1687.800048828125</AltitudeMeters>
            <DistanceMeters>NAN</DistanceMeters>
          </Trackpoint>
          <Trackpoint>
            <Time>2018-12-30T11:17:09.000Z</Time>
            <Position>
              <LatitudeDegrees>40.7896474935114383697509765625</LatitudeDegrees>
              <LongitudeDegrees>-4.06166165135800838470458984375</LongitudeDegrees>
            </Position>
            <AltitudeMeters>1688</AltitudeMeters>
            <DistanceMeters>NAN</DistanceMeters>
          </Trackpoint>
          <Trackpoint>
            <Time>2018-12-30T11:17:10.000Z</Time>
            <Position>
              <LatitudeDegrees>40.78965093009173870086669921875</LatitudeDegrees>
              <LongitudeDegrees>-4.0616491623222827911376953125</LongitudeDegrees>
            </Position>
            <AltitudeMeters>1688.199951171875</AltitudeMeters>
            <DistanceMeters>NAN</DistanceMeters>
          </Trackpoint>
          <Trackpoint>
            <Time>2018-12-30T11:17:11.000Z</Time>
            <Position>
              <LatitudeDegrees>40.78965880908071994781494140625</LatitudeDegrees>
              <LongitudeDegrees>-4.06163759529590606689453125</LongitudeDegrees>
            </Position>
            <AltitudeMeters>1688.199951171875</AltitudeMeters>
            <DistanceMeters>NAN</DistanceMeters>
          </Trackpoint>
          <Trackpoint>
            <Time>2018-12-30T11:17:12.000Z</Time>
            <Position>
              <LatitudeDegrees>40.7896649278700351715087890625</LatitudeDegrees>
              <LongitudeDegrees>-4.06162527389824390411376953125</LongitudeDegrees>
            </Position>
            <AltitudeMeters>1688.4000244140625</AltitudeMeters>
            <DistanceMeters>NAN</DistanceMeters>
          </Trackpoint>
          <Trackpoint>
            <Time>2018-12-30T11:17:13.000Z</Time>
            <Position>
              <LatitudeDegrees>40.7896666042506694793701171875</LatitudeDegrees>
              <LongitudeDegrees>-4.06160951592028141021728515625</LongitudeDegrees>
            </Position>
            <AltitudeMeters>1688.4000244140625</AltitudeMeters>
            <DistanceMeters>NAN</DistanceMeters>
          </Trackpoint>
          <Trackpoint>
            <Time>2018-12-30T11:17:14.000Z</Time>
            <Position>
              <LatitudeDegrees>40.78966836445033550262451171875</LatitudeDegrees>
              <LongitudeDegrees>-4.06160549260675907135009765625</LongitudeDegrees>
            </Position>
            <AltitudeMeters>1688.5999755859375</AltitudeMeters>
            <DistanceMeters>NAN</DistanceMeters>
          </Trackpoint>
          <Trackpoint>
            <Time>2018-12-30T11:17:15.000Z</Time>
            <Position>
              <LatitudeDegrees>40.78966987319290637969970703125</LatitudeDegrees>
              <LongitudeDegrees>-4.061597026884555816650390625</LongitudeDegrees>
            </Position>
            <AltitudeMeters>1688.5999755859375</AltitudeMeters>
            <DistanceMeters>NAN</DistanceMeters>
          </Trackpoint>
          <Trackpoint>
            <Time>2018-12-30T11:17:16.000Z</Time>
            <Position>
              <LatitudeDegrees>40.789676494896411895751953125</LatitudeDegrees>
              <LongitudeDegrees>-4.061589650809764862060546875</LongitudeDegrees>
            </Position>
            <AltitudeMeters>1689</AltitudeMeters>
            <DistanceMeters>NAN</DistanceMeters>
          </Trackpoint>
          <Trackpoint>
            <Time>2018-12-30T11:17:17.000Z</Time>
            <Position>
              <LatitudeDegrees>40.78968596644699573516845703125</LatitudeDegrees>
              <LongitudeDegrees>-4.061584286391735076904296875</LongitudeDegrees>
            </Position>
            <AltitudeMeters>1689.199951171875</AltitudeMeters>
            <DistanceMeters>NAN</DistanceMeters>
          </Trackpoint>
          <Trackpoint>
            <Time>2018-12-30T11:17:18.000Z</Time>
            <Position>
              <LatitudeDegrees>40.78969736583530902862548828125</LatitudeDegrees>
              <LongitudeDegrees>-4.06158126890659332275390625</LongitudeDegrees>
            </Position>
            <AltitudeMeters>1689.4000244140625</AltitudeMeters>
            <DistanceMeters>NAN</DistanceMeters>
          </Trackpoint>
          <Trackpoint>
            <Time>2018-12-30T11:17:19.000Z</Time>
            <Position>
              <LatitudeDegrees>40.78970910049974918365478515625</LatitudeDegrees>
              <LongitudeDegrees>-4.06157732941210269927978515625</LongitudeDegrees>
            </Position>
            <AltitudeMeters>1689.5999755859375</AltitudeMeters>
            <DistanceMeters>NAN</DistanceMeters>
          </Trackpoint>
          <Trackpoint>
            <Time>2018-12-30T11:17:20.000Z</Time>
            <Position>
              <LatitudeDegrees>40.789717398583889007568359375</LatitudeDegrees>
              <LongitudeDegrees>-4.0615700371563434600830078125</LongitudeDegrees>
            </Position>
            <AltitudeMeters>1689.800048828125</AltitudeMeters>
            <DistanceMeters>NAN</DistanceMeters>
          </Trackpoint>
          <Trackpoint>
            <Time>2018-12-30T11:17:21.000Z</Time>
            <Position>
              <LatitudeDegrees>40.78972385264933109283447265625</LatitudeDegrees>
              <LongitudeDegrees>-4.06156173907220363616943359375</LongitudeDegrees>
            </Position>
            <AltitudeMeters>1690</AltitudeMeters>
            <DistanceMeters>NAN</DistanceMeters>
          </Trackpoint>
          <Trackpoint>
            <Time>2018-12-30T11:17:22.000Z</Time>
            <Position>
              <LatitudeDegrees>40.78973307274281978607177734375</LatitudeDegrees>
              <LongitudeDegrees>-4.06155335716903209686279296875</LongitudeDegrees>
            </Position>
            <AltitudeMeters>1690.199951171875</AltitudeMeters>
            <DistanceMeters>NAN</DistanceMeters>
          </Trackpoint>
          <Trackpoint>
            <Time>2018-12-30T11:17:23.000Z</Time>
            <Position>
              <LatitudeDegrees>40.7897420413792133331298828125</LatitudeDegrees>
              <LongitudeDegrees>-4.061548747122287750244140625</LongitudeDegrees>
            </Position>
            <AltitudeMeters>1690.5999755859375</AltitudeMeters>
            <DistanceMeters>NAN</DistanceMeters>
          </Trackpoint>
          <Trackpoint>
            <Time>2018-12-30T11:17:24.000Z</Time>
            <Position>
              <LatitudeDegrees>40.7897504232823848724365234375</LatitudeDegrees>
              <LongitudeDegrees>-4.0615403652191162109375</LongitudeDegrees>
            </Position>
            <AltitudeMeters>1690.800048828125</AltitudeMeters>
            <DistanceMeters>NAN</DistanceMeters>
          </Trackpoint>
          <Trackpoint>
            <Time>2018-12-30T11:17:25.000Z</Time>
            <Position>
              <LatitudeDegrees>40.7897531054913997650146484375</LatitudeDegrees>
              <LongitudeDegrees>-4.06152871437370777130126953125</LongitudeDegrees>
            </Position>
            <AltitudeMeters>1690.800048828125</AltitudeMeters>
            <DistanceMeters>NAN</DistanceMeters>
          </Trackpoint>
          <Trackpoint>
            <Time>2018-12-30T11:17:26.000Z</Time>
            <Position>
              <LatitudeDegrees>40.7897598110139369964599609375</LatitudeDegrees>
              <LongitudeDegrees>-4.06152485869824886322021484375</LongitudeDegrees>
            </Position>
            <AltitudeMeters>1690.800048828125</AltitudeMeters>
            <DistanceMeters>NAN</DistanceMeters>
          </Trackpoint>
          <Trackpoint>
            <Time>2018-12-30T11:17:27.000Z</Time>
            <Position>
              <LatitudeDegrees>40.7897631637752056121826171875</LatitudeDegrees>
              <LongitudeDegrees>-4.06151245348155498504638671875</LongitudeDegrees>
            </Position>
            <AltitudeMeters>1691</AltitudeMeters>
            <DistanceMeters>NAN</DistanceMeters>
          </Trackpoint>
          <Trackpoint>
            <Time>2018-12-30T11:17:28.000Z</Time>
            <Position>
              <LatitudeDegrees>40.78976861201226711273193359375</LatitudeDegrees>
              <LongitudeDegrees>-4.06150323338806629180908203125</LongitudeDegrees>
            </Position>
            <AltitudeMeters>1691</AltitudeMeters>
            <DistanceMeters>NAN</DistanceMeters>
          </Trackpoint>
          <Trackpoint>
            <Time>2018-12-30T11:17:29.000Z</Time>
            <Position>
              <LatitudeDegrees>40.78977649100124835968017578125</LatitudeDegrees>
              <LongitudeDegrees>-4.06149786897003650665283203125</LongitudeDegrees>
            </Position>
            <AltitudeMeters>1691.199951171875</AltitudeMeters>
            <DistanceMeters>NAN</DistanceMeters>
          </Trackpoint>
          <Trackpoint>
            <Time>2018-12-30T11:17:30.000Z</Time>
            <Position>
              <LatitudeDegrees>40.7897862978279590606689453125</LatitudeDegrees>
              <LongitudeDegrees>-4.0614925883710384368896484375</LongitudeDegrees>
            </Position>
            <AltitudeMeters>1691.199951171875</AltitudeMeters>
            <DistanceMeters>NAN</DistanceMeters>
          </Trackpoint>
          <Trackpoint>
            <Time>2018-12-30T11:17:31.000Z</Time>
            <Position>
              <LatitudeDegrees>40.7897919975221157073974609375</LatitudeDegrees>
              <LongitudeDegrees>-4.061486721038818359375</LongitudeDegrees>
            </Position>
            <AltitudeMeters>1691.4000244140625</AltitudeMeters>
            <DistanceMeters>NAN</DistanceMeters>
          </Trackpoint>
          <Trackpoint>
            <Time>2018-12-30T11:17:32.000Z</Time>
            <Position>
              <LatitudeDegrees>40.78979442827403545379638671875</LatitudeDegrees>
              <LongitudeDegrees>-4.0614805184304714202880859375</LongitudeDegrees>
            </Position>
            <AltitudeMeters>1691.5999755859375</AltitudeMeters>
            <DistanceMeters>NAN</DistanceMeters>
          </Trackpoint>
          <Trackpoint>
            <Time>2018-12-30T11:17:33.000Z</Time>
            <Position>
              <LatitudeDegrees>40.789797864854335784912109375</LatitudeDegrees>
              <LongitudeDegrees>-4.06147657893598079681396484375</LongitudeDegrees>
            </Position>
            <AltitudeMeters>1692</AltitudeMeters>
            <DistanceMeters>NAN</DistanceMeters>
          </Trackpoint>
          <Trackpoint>
            <Time>2018-12-30T11:17:34.000Z</Time>
            <Position>
              <LatitudeDegrees>40.78978403471410274505615234375</LatitudeDegrees>
              <LongitudeDegrees>-4.06145009212195873260498046875</LongitudeDegrees>
            </Position>
            <AltitudeMeters>1692.199951171875</AltitudeMeters>
            <DistanceMeters>NAN</DistanceMeters>
          </Trackpoint>
          <Trackpoint>
            <Time>2018-12-30T11:17:35.000Z</Time>
            <Position>
              <LatitudeDegrees>40.78978671692311763763427734375</LatitudeDegrees>
              <LongitudeDegrees>-4.06144925393164157867431640625</LongitudeDegrees>
            </Position>
            <AltitudeMeters>1692.199951171875</AltitudeMeters>
            <DistanceMeters>NAN</DistanceMeters>
          </Trackpoint>
          <Trackpoint>
            <Time>2018-12-30T11:17:36.000Z</Time>
            <Position>
              <LatitudeDegrees>40.78979015350341796875</LatitudeDegrees>
              <LongitudeDegrees>-4.06144640408456325531005859375</LongitudeDegrees>
            </Position>
            <AltitudeMeters>1692.199951171875</AltitudeMeters>
            <DistanceMeters>NAN</DistanceMeters>
          </Trackpoint>
          <Trackpoint>
            <Time>2018-12-30T11:17:37.000Z</Time>
            <Position>
              <LatitudeDegrees>40.78979493118822574615478515625</LatitudeDegrees>
              <LongitudeDegrees>-4.06144606880843639373779296875</LongitudeDegrees>
            </Position>
            <AltitudeMeters>1692.4000244140625</AltitudeMeters>
            <DistanceMeters>NAN</DistanceMeters>
          </Trackpoint>
          <Trackpoint>
            <Time>2018-12-30T11:17:38.000Z</Time>
            <Position>
              <LatitudeDegrees>40.7897997088730335235595703125</LatitudeDegrees>
              <LongitudeDegrees>-4.06144179403781890869140625</LongitudeDegrees>
            </Position>
            <AltitudeMeters>1692.4000244140625</AltitudeMeters>
            <DistanceMeters>NAN</DistanceMeters>
          </Trackpoint>
          <Trackpoint>
            <Time>2018-12-30T11:17:39.000Z</Time>
            <Position>
              <LatitudeDegrees>40.78981094062328338623046875</LatitudeDegrees>
              <LongitudeDegrees>-4.0614426322281360626220703125</LongitudeDegrees>
            </Position>
            <AltitudeMeters>1692.199951171875</AltitudeMeters>
            <DistanceMeters>NAN</DistanceMeters>
          </Trackpoint>
          <Trackpoint>
            <Time>2018-12-30T11:17:40.000Z</Time>
            <Position>
              <LatitudeDegrees>40.7898201607167720794677734375</LatitudeDegrees>
              <LongitudeDegrees>-4.06144238077104091644287109375</LongitudeDegrees>
            </Position>
            <AltitudeMeters>1692.199951171875</AltitudeMeters>
            <DistanceMeters>NAN</DistanceMeters>
          </Trackpoint>
          <Trackpoint>
            <Time>2018-12-30T11:17:41.000Z</Time>
            <Position>
              <LatitudeDegrees>40.78982703387737274169921875</LatitudeDegrees>
              <LongitudeDegrees>-4.06143642961978912353515625</LongitudeDegrees>
            </Position>
            <AltitudeMeters>1692.199951171875</AltitudeMeters>
            <DistanceMeters>NAN</DistanceMeters>
          </Trackpoint>
          <Trackpoint>
            <Time>2018-12-30T11:17:42.000Z</Time>
            <Position>
              <LatitudeDegrees>40.789834074676036834716796875</LatitudeDegrees>
              <LongitudeDegrees>-4.0614290535449981689453125</LongitudeDegrees>
            </Position>
            <AltitudeMeters>1692.4000244140625</AltitudeMeters>
            <DistanceMeters>NAN</DistanceMeters>
          </Trackpoint>
          <Trackpoint>
            <Time>2018-12-30T11:17:43.000Z</Time>
            <Position>
              <LatitudeDegrees>40.78984153456985950469970703125</LatitudeDegrees>
              <LongitudeDegrees>-4.061425365507602691650390625</LongitudeDegrees>
            </Position>
            <AltitudeMeters>1692.5999755859375</AltitudeMeters>
            <DistanceMeters>NAN</DistanceMeters>
          </Trackpoint>
          <Trackpoint>
            <Time>2018-12-30T11:17:44.000Z</Time>
            <Position>
              <LatitudeDegrees>40.789847485721111297607421875</LatitudeDegrees>
              <LongitudeDegrees>-4.0614248625934123992919921875</LongitudeDegrees>
            </Position>
            <AltitudeMeters>1692.800048828125</AltitudeMeters>
            <DistanceMeters>NAN</DistanceMeters>
          </Trackpoint>
          <Trackpoint>
            <Time>2018-12-30T11:17:45.000Z</Time>
            <Position>
              <LatitudeDegrees>40.78984849154949188232421875</LatitudeDegrees>
              <LongitudeDegrees>-4.0614210069179534912109375</LongitudeDegrees>
            </Position>
            <AltitudeMeters>1693</AltitudeMeters>
            <DistanceMeters>NAN</DistanceMeters>
          </Trackpoint>
          <Trackpoint>
            <Time>2018-12-30T11:17:46.000Z</Time>
            <Position>
              <LatitudeDegrees>40.7898530177772045135498046875</LatitudeDegrees>
              <LongitudeDegrees>-4.0614228509366512298583984375</LongitudeDegrees>
            </Position>
            <AltitudeMeters>1693.199951171875</AltitudeMeters>
            <DistanceMeters>NAN</DistanceMeters>
          </Trackpoint>
          <Trackpoint>
            <Time>2018-12-30T11:17:47.000Z</Time>
            <Position>
              <LatitudeDegrees>40.7898463122546672821044921875</LatitudeDegrees>
              <LongitudeDegrees>-4.06140156090259552001953125</LongitudeDegrees>
            </Position>
            <AltitudeMeters>1693.5999755859375</AltitudeMeters>
            <DistanceMeters>NAN</DistanceMeters>
          </Trackpoint>
          <Trackpoint>
            <Time>2018-12-30T11:17:48.000Z</Time>
            <Position>
              <LatitudeDegrees>40.7898493297398090362548828125</LatitudeDegrees>
              <LongitudeDegrees>-4.06139141879975795745849609375</LongitudeDegrees>
            </Position>
            <AltitudeMeters>1694</AltitudeMeters>
            <DistanceMeters>NAN</DistanceMeters>
          </Trackpoint>
          <Trackpoint>
            <Time>2018-12-30T11:17:49.000Z</Time>
            <Position>
              <LatitudeDegrees>40.78985326923429965972900390625</LatitudeDegrees>
              <LongitudeDegrees>-4.06138479709625244140625</LongitudeDegrees>
            </Position>
            <AltitudeMeters>1694</AltitudeMeters>
            <DistanceMeters>NAN</DistanceMeters>
          </Trackpoint>
          <Trackpoint>
            <Time>2018-12-30T11:17:50.000Z</Time>
            <Position>
              <LatitudeDegrees>40.789857544004917144775390625</LatitudeDegrees>
              <LongitudeDegrees>-4.0613802708685398101806640625</LongitudeDegrees>
            </Position>
            <AltitudeMeters>1694.199951171875</AltitudeMeters>
            <DistanceMeters>NAN</DistanceMeters>
          </Trackpoint>
          <Trackpoint>
            <Time>2018-12-30T11:17:51.000Z</Time>
            <Position>
              <LatitudeDegrees>40.789859555661678314208984375</LatitudeDegrees>
              <LongitudeDegrees>-4.0613641776144504547119140625</LongitudeDegrees>
            </Position>
            <AltitudeMeters>1694.4000244140625</AltitudeMeters>
            <DistanceMeters>NAN</DistanceMeters>
          </Trackpoint>
          <Trackpoint>
            <Time>2018-12-30T11:17:52.000Z</Time>
            <Position>
              <LatitudeDegrees>40.7898652553558349609375</LatitudeDegrees>
              <LongitudeDegrees>-4.06136560253798961639404296875</LongitudeDegrees>
            </Position>
            <AltitudeMeters>1694.5999755859375</AltitudeMeters>
            <DistanceMeters>NAN</DistanceMeters>
          </Trackpoint>
          <Trackpoint>
            <Time>2018-12-30T11:17:53.000Z</Time>
            <Position>
              <LatitudeDegrees>40.7898691110312938690185546875</LatitudeDegrees>
              <LongitudeDegrees>-4.06136727891862392425537109375</LongitudeDegrees>
            </Position>
            <AltitudeMeters>1694.5999755859375</AltitudeMeters>
            <DistanceMeters>NAN</DistanceMeters>
          </Trackpoint>
          <Trackpoint>
            <Time>2018-12-30T11:17:54.000Z</Time>
            <Position>
              <LatitudeDegrees>40.789870284497737884521484375</LatitudeDegrees>
              <LongitudeDegrees>-4.06136493198573589324951171875</LongitudeDegrees>
            </Position>
            <AltitudeMeters>1694.5999755859375</AltitudeMeters>
            <DistanceMeters>NAN</DistanceMeters>
          </Trackpoint>
          <Trackpoint>
            <Time>2018-12-30T11:17:55.000Z</Time>
            <Position>
              <LatitudeDegrees>40.78987254761159420013427734375</LatitudeDegrees>
              <LongitudeDegrees>-4.06136157922446727752685546875</LongitudeDegrees>
            </Position>
            <AltitudeMeters>1694.5999755859375</AltitudeMeters>
            <DistanceMeters>NAN</DistanceMeters>
          </Trackpoint>
          <Trackpoint>
            <Time>2018-12-30T11:17:56.000Z</Time>
            <Position>
              <LatitudeDegrees>40.7898687757551670074462890625</LatitudeDegrees>
              <LongitudeDegrees>-4.06136241741478443145751953125</LongitudeDegrees>
            </Position>
            <AltitudeMeters>1694.800048828125</AltitudeMeters>
            <DistanceMeters>NAN</DistanceMeters>
          </Trackpoint>
          <Trackpoint>
            <Time>2018-12-30T11:17:57.000Z</Time>
            <Position>
              <LatitudeDegrees>40.78986818902194499969482421875</LatitudeDegrees>
              <LongitudeDegrees>-4.0613665245473384857177734375</LongitudeDegrees>
            </Position>
            <AltitudeMeters>1694.800048828125</AltitudeMeters>
            <DistanceMeters>NAN</DistanceMeters>
          </Trackpoint>
          <Trackpoint>
            <Time>2018-12-30T11:17:58.000Z</Time>
            <Position>
              <LatitudeDegrees>40.78986651264131069183349609375</LatitudeDegrees>
              <LongitudeDegrees>-4.061369039118289947509765625</LongitudeDegrees>
            </Position>
            <AltitudeMeters>1694.800048828125</AltitudeMeters>
            <DistanceMeters>NAN</DistanceMeters>
          </Trackpoint>
          <Trackpoint>
            <Time>2018-12-30T11:17:59.000Z</Time>
            <Position>
              <LatitudeDegrees>40.7898624055087566375732421875</LatitudeDegrees>
              <LongitudeDegrees>-4.06136400997638702392578125</LongitudeDegrees>
            </Position>
            <AltitudeMeters>1694.800048828125</AltitudeMeters>
            <DistanceMeters>NAN</DistanceMeters>
          </Trackpoint>
          <Trackpoint>
            <Time>2018-12-30T11:18:00.000Z</Time>
            <Position>
              <LatitudeDegrees>40.78986332751810550689697265625</LatitudeDegrees>
              <LongitudeDegrees>-4.06136132776737213134765625</LongitudeDegrees>
            </Position>
            <AltitudeMeters>1694.800048828125</AltitudeMeters>
            <DistanceMeters>NAN</DistanceMeters>
          </Trackpoint>
          <Trackpoint>
            <Time>2018-12-30T11:18:01.000Z</Time>
            <Position>
              <LatitudeDegrees>40.7898657582700252532958984375</LatitudeDegrees>
              <LongitudeDegrees>-4.06135864555835723876953125</LongitudeDegrees>
            </Position>
            <AltitudeMeters>1694.800048828125</AltitudeMeters>
            <DistanceMeters>NAN</DistanceMeters>
          </Trackpoint>
          <Trackpoint>
            <Time>2018-12-30T11:18:02.000Z</Time>
            <Position>
              <LatitudeDegrees>40.78987221233546733856201171875</LatitudeDegrees>
              <LongitudeDegrees>-4.06135956756770610809326171875</LongitudeDegrees>
            </Position>
            <AltitudeMeters>1695</AltitudeMeters>
            <DistanceMeters>NAN</DistanceMeters>
          </Trackpoint>
          <Trackpoint>
            <Time>2018-12-30T11:18:03.000Z</Time>
            <Position>
              <LatitudeDegrees>40.78988059423863887786865234375</LatitudeDegrees>
              <LongitudeDegrees>-4.061361663043498992919921875</LongitudeDegrees>
            </Position>
            <AltitudeMeters>1695</AltitudeMeters>
            <DistanceMeters>NAN</DistanceMeters>
          </Trackpoint>
          <Trackpoint>
            <Time>2018-12-30T11:18:04.000Z</Time>
            <Position>
              <LatitudeDegrees>40.78988411463797092437744140625</LatitudeDegrees>
              <LongitudeDegrees>-4.0613604895770549774169921875</LongitudeDegrees>
            </Position>
            <AltitudeMeters>1695.199951171875</AltitudeMeters>
            <DistanceMeters>NAN</DistanceMeters>
          </Trackpoint>
          <Trackpoint>
            <Time>2018-12-30T11:18:05.000Z</Time>
            <Position>
              <LatitudeDegrees>40.7898865453898906707763671875</LatitudeDegrees>
              <LongitudeDegrees>-4.0613588131964206695556640625</LongitudeDegrees>
            </Position>
            <AltitudeMeters>1695.4000244140625</AltitudeMeters>
            <DistanceMeters>NAN</DistanceMeters>
          </Trackpoint>
          <Trackpoint>
            <Time>2018-12-30T11:18:06.000Z</Time>
            <Position>
              <LatitudeDegrees>40.78988864086568355560302734375</LatitudeDegrees>
              <LongitudeDegrees>-4.06135470606386661529541015625</LongitudeDegrees>
            </Position>
            <AltitudeMeters>1695.4000244140625</AltitudeMeters>
            <DistanceMeters>NAN</DistanceMeters>
          </Trackpoint>
          <Trackpoint>
            <Time>2018-12-30T11:18:07.000Z</Time>
            <Position>
              <LatitudeDegrees>40.789887048304080963134765625</LatitudeDegrees>
              <LongitudeDegrees>-4.0613504312932491302490234375</LongitudeDegrees>
            </Position>
            <AltitudeMeters>1695.5999755859375</AltitudeMeters>
            <DistanceMeters>NAN</DistanceMeters>
          </Trackpoint>
          <Trackpoint>
            <Time>2018-12-30T11:18:08.000Z</Time>
            <Position>
              <LatitudeDegrees>40.7898858748376369476318359375</LatitudeDegrees>
              <LongitudeDegrees>-4.06134649179875850677490234375</LongitudeDegrees>
            </Position>
            <AltitudeMeters>1695.800048828125</AltitudeMeters>
            <DistanceMeters>NAN</DistanceMeters>
          </Trackpoint>
          <Trackpoint>
            <Time>2018-12-30T11:18:09.000Z</Time>
            <Position>
              <LatitudeDegrees>40.78988604247570037841796875</LatitudeDegrees>
              <LongitudeDegrees>-4.06133961863815784454345703125</LongitudeDegrees>
            </Position>
            <AltitudeMeters>1696</AltitudeMeters>
            <DistanceMeters>NAN</DistanceMeters>
          </Trackpoint>
          <Trackpoint>
            <Time>2018-12-30T11:18:10.000Z</Time>
            <Position>
              <LatitudeDegrees>40.78988813795149326324462890625</LatitudeDegrees>
              <LongitudeDegrees>-4.0613299794495105743408203125</LongitudeDegrees>
            </Position>
            <AltitudeMeters>1696.199951171875</AltitudeMeters>
            <DistanceMeters>NAN</DistanceMeters>
          </Trackpoint>
          <Trackpoint>
            <Time>2018-12-30T11:18:11.000Z</Time>
            <Position>
              <LatitudeDegrees>40.7898907363414764404296875</LatitudeDegrees>
              <LongitudeDegrees>-4.06131749041378498077392578125</LongitudeDegrees>
            </Position>
            <AltitudeMeters>1696.4000244140625</AltitudeMeters>
            <DistanceMeters>NAN</DistanceMeters>
          </Trackpoint>
          <Trackpoint>
            <Time>2018-12-30T11:18:12.000Z</Time>
            <Position>
              <LatitudeDegrees>40.78989383764564990997314453125</LatitudeDegrees>
              <LongitudeDegrees>-4.06130877323448657989501953125</LongitudeDegrees>
            </Position>
            <AltitudeMeters>1696.800048828125</AltitudeMeters>
            <DistanceMeters>NAN</DistanceMeters>
          </Trackpoint>
          <Trackpoint>
            <Time>2018-12-30T11:18:13.000Z</Time>
            <Position>
              <LatitudeDegrees>40.78989367000758647918701171875</LatitudeDegrees>
              <LongitudeDegrees>-4.06130240298807621002197265625</LongitudeDegrees>
            </Position>
            <AltitudeMeters>1697.199951171875</AltitudeMeters>
            <DistanceMeters>NAN</DistanceMeters>
          </Trackpoint>
          <Trackpoint>
            <Time>2018-12-30T11:18:14.000Z</Time>
            <Position>
              <LatitudeDegrees>40.7898942567408084869384765625</LatitudeDegrees>
              <LongitudeDegrees>-4.06129988841712474822998046875</LongitudeDegrees>
            </Position>
            <AltitudeMeters>1697.4000244140625</AltitudeMeters>
            <DistanceMeters>NAN</DistanceMeters>
          </Trackpoint>
          <Trackpoint>
            <Time>2018-12-30T11:18:15.000Z</Time>
            <Position>
              <LatitudeDegrees>40.789893083274364471435546875</LatitudeDegrees>
              <LongitudeDegrees>-4.06129360198974609375</LongitudeDegrees>
            </Position>
            <AltitudeMeters>1697.5999755859375</AltitudeMeters>
            <DistanceMeters>NAN</DistanceMeters>
          </Trackpoint>
          <Trackpoint>
            <Time>2018-12-30T11:18:16.000Z</Time>
            <Position>
              <LatitudeDegrees>40.78989434055984020233154296875</LatitudeDegrees>
              <LongitudeDegrees>-4.061289243400096893310546875</LongitudeDegrees>
            </Position>
            <AltitudeMeters>1697.800048828125</AltitudeMeters>
            <DistanceMeters>NAN</DistanceMeters>
          </Trackpoint>
          <Trackpoint>
            <Time>2018-12-30T11:18:17.000Z</Time>
            <Position>
              <LatitudeDegrees>40.78989719040691852569580078125</LatitudeDegrees>
              <LongitudeDegrees>-4.0612894110381603240966796875</LongitudeDegrees>
            </Position>
            <AltitudeMeters>1698</AltitudeMeters>
            <DistanceMeters>NAN</DistanceMeters>
          </Trackpoint>
          <Trackpoint>
            <Time>2018-12-30T11:18:18.000Z</Time>
            <Position>
              <LatitudeDegrees>40.78989920206367969512939453125</LatitudeDegrees>
              <LongitudeDegrees>-4.06128765083849430084228515625</LongitudeDegrees>
            </Position>
            <AltitudeMeters>1698</AltitudeMeters>
            <DistanceMeters>NAN</DistanceMeters>
          </Trackpoint>
          <Trackpoint>
            <Time>2018-12-30T11:18:19.000Z</Time>
            <Position>
              <LatitudeDegrees>40.78990213572978973388671875</LatitudeDegrees>
              <LongitudeDegrees>-4.0612907521426677703857421875</LongitudeDegrees>
            </Position>
            <AltitudeMeters>1698.199951171875</AltitudeMeters>
            <DistanceMeters>NAN</DistanceMeters>
          </Trackpoint>
          <Trackpoint>
            <Time>2018-12-30T11:18:20.000Z</Time>
            <Position>
              <LatitudeDegrees>40.78990456648170948028564453125</LatitudeDegrees>
              <LongitudeDegrees>-4.06129335053265094757080078125</LongitudeDegrees>
            </Position>
            <AltitudeMeters>1698.199951171875</AltitudeMeters>
            <DistanceMeters>NAN</DistanceMeters>
          </Trackpoint>
          <Trackpoint>
            <Time>2018-12-30T11:18:21.000Z</Time>
            <Position>
              <LatitudeDegrees>40.78990255482494831085205078125</LatitudeDegrees>
              <LongitudeDegrees>-4.0612927637994289398193359375</LongitudeDegrees>
            </Position>
            <AltitudeMeters>1698.4000244140625</AltitudeMeters>
            <DistanceMeters>NAN</DistanceMeters>
          </Trackpoint>
          <Trackpoint>
            <Time>2018-12-30T11:18:22.000Z</Time>
            <Position>
              <LatitudeDegrees>40.78990121372044086456298828125</LatitudeDegrees>
              <LongitudeDegrees>-4.06129385344684123992919921875</LongitudeDegrees>
            </Position>
            <AltitudeMeters>1698.4000244140625</AltitudeMeters>
            <DistanceMeters>NAN</DistanceMeters>
          </Trackpoint>
          <Trackpoint>
            <Time>2018-12-30T11:18:23.000Z</Time>
            <Position>
              <LatitudeDegrees>40.78990188427269458770751953125</LatitudeDegrees>
              <LongitudeDegrees>-4.06129653565585613250732421875</LongitudeDegrees>
            </Position>
            <AltitudeMeters>1698.4000244140625</AltitudeMeters>
            <DistanceMeters>NAN</DistanceMeters>
          </Trackpoint>
          <Trackpoint>
            <Time>2018-12-30T11:18:24.000Z</Time>
            <Position>
              <LatitudeDegrees>40.78990255482494831085205078125</LatitudeDegrees>
              <LongitudeDegrees>-4.06130231916904449462890625</LongitudeDegrees>
            </Position>
            <AltitudeMeters>1698.4000244140625</AltitudeMeters>
            <DistanceMeters>NAN</DistanceMeters>
          </Trackpoint>
          <Trackpoint>
            <Time>2018-12-30T11:18:25.000Z</Time>
            <Position>
              <LatitudeDegrees>40.7899039797484874725341796875</LatitudeDegrees>
              <LongitudeDegrees>-4.0613083541393280029296875</LongitudeDegrees>
            </Position>
            <AltitudeMeters>1698.4000244140625</AltitudeMeters>
            <DistanceMeters>NAN</DistanceMeters>
          </Trackpoint>
          <Trackpoint>
            <Time>2018-12-30T11:18:26.000Z</Time>
            <Position>
              <LatitudeDegrees>40.7899068295955657958984375</LatitudeDegrees>
              <LongitudeDegrees>-4.0613164007663726806640625</LongitudeDegrees>
            </Position>
            <AltitudeMeters>1698.4000244140625</AltitudeMeters>
            <DistanceMeters>NAN</DistanceMeters>
          </Trackpoint>
          <Trackpoint>
            <Time>2018-12-30T11:18:27.000Z</Time>
            <Position>
              <LatitudeDegrees>40.78990674577653408050537109375</LatitudeDegrees>
              <LongitudeDegrees>-4.061323106288909912109375</LongitudeDegrees>
            </Position>
            <AltitudeMeters>1698.5999755859375</AltitudeMeters>
            <DistanceMeters>NAN</DistanceMeters>
          </Trackpoint>
          <Trackpoint>
            <Time>2018-12-30T11:18:28.000Z</Time>
            <Position>
              <LatitudeDegrees>40.78990624286234378814697265625</LatitudeDegrees>
              <LongitudeDegrees>-4.06133928336203098297119140625</LongitudeDegrees>
            </Position>
            <AltitudeMeters>1698.5999755859375</AltitudeMeters>
            <DistanceMeters>NAN</DistanceMeters>
          </Trackpoint>
          <Trackpoint>
            <Time>2018-12-30T11:18:29.000Z</Time>
            <Position>
              <LatitudeDegrees>40.789897441864013671875</LatitudeDegrees>
              <LongitudeDegrees>-4.06137113459408283233642578125</LongitudeDegrees>
            </Position>
            <AltitudeMeters>1698.800048828125</AltitudeMeters>
            <DistanceMeters>NAN</DistanceMeters>
          </Trackpoint>
          <Trackpoint>
            <Time>2018-12-30T11:18:30.000Z</Time>
            <Position>
              <LatitudeDegrees>40.789891742169857025146484375</LatitudeDegrees>
              <LongitudeDegrees>-4.0613909997045993804931640625</LongitudeDegrees>
            </Position>
            <AltitudeMeters>1699.199951171875</AltitudeMeters>
            <DistanceMeters>NAN</DistanceMeters>
          </Trackpoint>
          <Trackpoint>
            <Time>2018-12-30T11:18:31.000Z</Time>
            <Position>
              <LatitudeDegrees>40.78988981433212757110595703125</LatitudeDegrees>
              <LongitudeDegrees>-4.0613968670368194580078125</LongitudeDegrees>
            </Position>
            <AltitudeMeters>1699.4000244140625</AltitudeMeters>
            <DistanceMeters>NAN</DistanceMeters>
          </Trackpoint>
          <Trackpoint>
            <Time>2018-12-30T11:18:32.000Z</Time>
            <Position>
              <LatitudeDegrees>40.7898895628750324249267578125</LatitudeDegrees>
              <LongitudeDegrees>-4.06140231527388095855712890625</LongitudeDegrees>
            </Position>
            <AltitudeMeters>1699.4000244140625</AltitudeMeters>
            <DistanceMeters>NAN</DistanceMeters>
          </Trackpoint>
          <Trackpoint>
            <Time>2018-12-30T11:18:33.000Z</Time>
            <Position>
              <LatitudeDegrees>40.78989082016050815582275390625</LatitudeDegrees>
              <LongitudeDegrees>-4.06140767969191074371337890625</LongitudeDegrees>
            </Position>
            <AltitudeMeters>1699.5999755859375</AltitudeMeters>
            <DistanceMeters>NAN</DistanceMeters>
          </Trackpoint>
          <Trackpoint>
            <Time>2018-12-30T11:18:34.000Z</Time>
            <Position>
              <LatitudeDegrees>40.7898915745317935943603515625</LatitudeDegrees>
              <LongitudeDegrees>-4.0614141337573528289794921875</LongitudeDegrees>
            </Position>
            <AltitudeMeters>1699.5999755859375</AltitudeMeters>
            <DistanceMeters>NAN</DistanceMeters>
          </Trackpoint>
          <Trackpoint>
            <Time>2018-12-30T11:18:35.000Z</Time>
            <Position>
              <LatitudeDegrees>40.7898919098079204559326171875</LatitudeDegrees>
              <LongitudeDegrees>-4.06141622923314571380615234375</LongitudeDegrees>
            </Position>
            <AltitudeMeters>1699.4000244140625</AltitudeMeters>
            <DistanceMeters>NAN</DistanceMeters>
          </Trackpoint>
          <Trackpoint>
            <Time>2018-12-30T11:18:36.000Z</Time>
            <Position>
              <LatitudeDegrees>40.7898922450840473175048828125</LatitudeDegrees>
              <LongitudeDegrees>-4.06141790561378002166748046875</LongitudeDegrees>
            </Position>
            <AltitudeMeters>1699.4000244140625</AltitudeMeters>
            <DistanceMeters>NAN</DistanceMeters>
          </Trackpoint>
          <Trackpoint>
            <Time>2018-12-30T11:18:37.000Z</Time>
            <Position>
              <LatitudeDegrees>40.789893083274364471435546875</LatitudeDegrees>
              <LongitudeDegrees>-4.0614174865186214447021484375</LongitudeDegrees>
            </Position>
            <AltitudeMeters>1699.4000244140625</AltitudeMeters>
            <DistanceMeters>NAN</DistanceMeters>
          </Trackpoint>
          <Trackpoint>
            <Time>2018-12-30T11:18:38.000Z</Time>
            <Position>
              <LatitudeDegrees>40.78989484347403049468994140625</LatitudeDegrees>
              <LongitudeDegrees>-4.06141706742346286773681640625</LongitudeDegrees>
            </Position>
            <AltitudeMeters>1699.199951171875</AltitudeMeters>
            <DistanceMeters>NAN</DistanceMeters>
          </Trackpoint>
          <Trackpoint>
            <Time>2018-12-30T11:18:39.000Z</Time>
            <Position>
              <LatitudeDegrees>40.7898952625691890716552734375</LatitudeDegrees>
              <LongitudeDegrees>-4.06142025254666805267333984375</LongitudeDegrees>
            </Position>
            <AltitudeMeters>1699.199951171875</AltitudeMeters>
            <DistanceMeters>NAN</DistanceMeters>
          </Trackpoint>
          <Trackpoint>
            <Time>2018-12-30T11:18:40.000Z</Time>
            <Position>
              <LatitudeDegrees>40.7898979447782039642333984375</LatitudeDegrees>
              <LongitudeDegrees>-4.06141019426286220550537109375</LongitudeDegrees>
            </Position>
            <AltitudeMeters>1699.199951171875</AltitudeMeters>
            <DistanceMeters>NAN</DistanceMeters>
          </Trackpoint>
          <Trackpoint>
            <Time>2018-12-30T11:18:41.000Z</Time>
            <Position>
              <LatitudeDegrees>40.789900459349155426025390625</LatitudeDegrees>
              <LongitudeDegrees>-4.0613993816077709197998046875</LongitudeDegrees>
            </Position>
            <AltitudeMeters>1699.199951171875</AltitudeMeters>
            <DistanceMeters>NAN</DistanceMeters>
          </Trackpoint>
          <Trackpoint>
            <Time>2018-12-30T11:18:42.000Z</Time>
            <Position>
              <LatitudeDegrees>40.78990490175783634185791015625</LatitudeDegrees>
              <LongitudeDegrees>-4.06138814985752105712890625</LongitudeDegrees>
            </Position>
            <AltitudeMeters>1699.199951171875</AltitudeMeters>
            <DistanceMeters>NAN</DistanceMeters>
          </Trackpoint>
          <Trackpoint>
            <Time>2018-12-30T11:18:43.000Z</Time>
            <Position>
              <LatitudeDegrees>40.789912529289722442626953125</LatitudeDegrees>
              <LongitudeDegrees>-4.06137448735535144805908203125</LongitudeDegrees>
            </Position>
            <AltitudeMeters>1699.199951171875</AltitudeMeters>
            <DistanceMeters>NAN</DistanceMeters>
          </Trackpoint>
          <Trackpoint>
            <Time>2018-12-30T11:18:44.000Z</Time>
            <Position>
              <LatitudeDegrees>40.789912529289722442626953125</LatitudeDegrees>
              <LongitudeDegrees>-4.06137448735535144805908203125</LongitudeDegrees>
            </Position>
            <AltitudeMeters>1699.4000244140625</AltitudeMeters>
            <DistanceMeters>NAN</DistanceMeters>
          </Trackpoint>
          <Trackpoint>
            <Time>2018-12-30T11:18:45.000Z</Time>
            <Position>
              <LatitudeDegrees>40.7899177260696887969970703125</LatitudeDegrees>
              <LongitudeDegrees>-4.0613646805286407470703125</LongitudeDegrees>
            </Position>
            <AltitudeMeters>1699.4000244140625</AltitudeMeters>
            <DistanceMeters>NAN</DistanceMeters>
          </Trackpoint>
          <Trackpoint>
            <Time>2018-12-30T11:18:46.000Z</Time>
            <Position>
              <LatitudeDegrees>40.78992619179189205169677734375</LatitudeDegrees>
              <LongitudeDegrees>-4.06135168857872486114501953125</LongitudeDegrees>
            </Position>
            <AltitudeMeters>1699.5999755859375</AltitudeMeters>
            <DistanceMeters>NAN</DistanceMeters>
          </Trackpoint>
          <Trackpoint>
            <Time>2018-12-30T11:18:47.000Z</Time>
            <Position>
              <LatitudeDegrees>40.78993155620992183685302734375</LatitudeDegrees>
              <LongitudeDegrees>-4.06133643351495265960693359375</LongitudeDegrees>
            </Position>
            <AltitudeMeters>1699.5999755859375</AltitudeMeters>
            <DistanceMeters>NAN</DistanceMeters>
          </Trackpoint>
          <Trackpoint>
            <Time>2018-12-30T11:18:48.000Z</Time>
            <Position>
              <LatitudeDegrees>40.78993574716150760650634765625</LatitudeDegrees>
              <LongitudeDegrees>-4.0613192506134510040283203125</LongitudeDegrees>
            </Position>
            <AltitudeMeters>1699.800048828125</AltitudeMeters>
            <DistanceMeters>NAN</DistanceMeters>
          </Trackpoint>
          <Trackpoint>
            <Time>2018-12-30T11:18:49.000Z</Time>
            <Position>
              <LatitudeDegrees>40.78994329087436199188232421875</LatitudeDegrees>
              <LongitudeDegrees>-4.06130994670093059539794921875</LongitudeDegrees>
            </Position>
            <AltitudeMeters>1699.800048828125</AltitudeMeters>
            <DistanceMeters>NAN</DistanceMeters>
          </Trackpoint>
          <Trackpoint>
            <Time>2018-12-30T11:18:50.000Z</Time>
            <Position>
              <LatitudeDegrees>40.7899510860443115234375</LatitudeDegrees>
              <LongitudeDegrees>-4.06130307354032993316650390625</LongitudeDegrees>
            </Position>
            <AltitudeMeters>1700</AltitudeMeters>
            <DistanceMeters>NAN</DistanceMeters>
          </Trackpoint>
          <Trackpoint>
            <Time>2018-12-30T11:18:51.000Z</Time>
            <Position>
              <LatitudeDegrees>40.7899556122720241546630859375</LatitudeDegrees>
              <LongitudeDegrees>-4.061290584504604339599609375</LongitudeDegrees>
            </Position>
            <AltitudeMeters>1700.199951171875</AltitudeMeters>
            <DistanceMeters>NAN</DistanceMeters>
          </Trackpoint>
          <Trackpoint>
            <Time>2018-12-30T11:18:52.000Z</Time>
            <Position>
              <LatitudeDegrees>40.78996072523295879364013671875</LatitudeDegrees>
              <LongitudeDegrees>-4.061280526220798492431640625</LongitudeDegrees>
            </Position>
            <AltitudeMeters>1700.199951171875</AltitudeMeters>
            <DistanceMeters>NAN</DistanceMeters>
          </Trackpoint>
          <Trackpoint>
            <Time>2018-12-30T11:18:53.000Z</Time>
            <Position>
              <LatitudeDegrees>40.78996307216584682464599609375</LatitudeDegrees>
              <LongitudeDegrees>-4.061265103518962860107421875</LongitudeDegrees>
            </Position>
            <AltitudeMeters>1700.4000244140625</AltitudeMeters>
            <DistanceMeters>NAN</DistanceMeters>
          </Trackpoint>
          <Trackpoint>
            <Time>2018-12-30T11:18:54.000Z</Time>
            <Position>
              <LatitudeDegrees>40.78996944241225719451904296875</LatitudeDegrees>
              <LongitudeDegrees>-4.06125697307288646697998046875</LongitudeDegrees>
            </Position>
            <AltitudeMeters>1700.5999755859375</AltitudeMeters>
            <DistanceMeters>NAN</DistanceMeters>
          </Trackpoint>
          <Trackpoint>
            <Time>2018-12-30T11:18:55.000Z</Time>
            <Position>
              <LatitudeDegrees>40.7899747230112552642822265625</LatitudeDegrees>
              <LongitudeDegrees>-4.06125135719776153564453125</LongitudeDegrees>
            </Position>
            <AltitudeMeters>1700.800048828125</AltitudeMeters>
            <DistanceMeters>NAN</DistanceMeters>
          </Trackpoint>
          <Trackpoint>
            <Time>2018-12-30T11:18:56.000Z</Time>
            <Position>
              <LatitudeDegrees>40.78998670913279056549072265625</LatitudeDegrees>
              <LongitudeDegrees>-4.06125127337872982025146484375</LongitudeDegrees>
            </Position>
            <AltitudeMeters>1701.199951171875</AltitudeMeters>
            <DistanceMeters>NAN</DistanceMeters>
          </Trackpoint>
          <Trackpoint>
            <Time>2018-12-30T11:18:57.000Z</Time>
            <Position>
              <LatitudeDegrees>40.78998670913279056549072265625</LatitudeDegrees>
              <LongitudeDegrees>-4.06125127337872982025146484375</LongitudeDegrees>
            </Position>
            <AltitudeMeters>1701.4000244140625</AltitudeMeters>
            <DistanceMeters>NAN</DistanceMeters>
          </Trackpoint>
          <Trackpoint>
            <Time>2018-12-30T11:18:58.000Z</Time>
            <Position>
              <LatitudeDegrees>40.78999123536050319671630859375</LatitudeDegrees>
              <LongitudeDegrees>-4.0612485073506832122802734375</LongitudeDegrees>
            </Position>
            <AltitudeMeters>1701.4000244140625</AltitudeMeters>
            <DistanceMeters>NAN</DistanceMeters>
          </Trackpoint>
          <Trackpoint>
            <Time>2018-12-30T11:18:59.000Z</Time>
            <Position>
              <LatitudeDegrees>40.7899965159595012664794921875</LatitudeDegrees>
              <LongitudeDegrees>-4.06124456785619258880615234375</LongitudeDegrees>
            </Position>
            <AltitudeMeters>1701.5999755859375</AltitudeMeters>
            <DistanceMeters>NAN</DistanceMeters>
          </Trackpoint>
          <Trackpoint>
            <Time>2018-12-30T11:19:00.000Z</Time>
            <Position>
              <LatitudeDegrees>40.790002383291721343994140625</LatitudeDegrees>
              <LongitudeDegrees>-4.061242304742336273193359375</LongitudeDegrees>
            </Position>
            <AltitudeMeters>1701.800048828125</AltitudeMeters>
            <DistanceMeters>NAN</DistanceMeters>
          </Trackpoint>
          <Trackpoint>
            <Time>2018-12-30T11:19:01.000Z</Time>
            <Position>
              <LatitudeDegrees>40.79000883735716342926025390625</LatitudeDegrees>
              <LongitudeDegrees>-4.06123568303883075714111328125</LongitudeDegrees>
            </Position>
            <AltitudeMeters>1702</AltitudeMeters>
            <DistanceMeters>NAN</DistanceMeters>
          </Trackpoint>
          <Trackpoint>
            <Time>2018-12-30T11:19:02.000Z</Time>
            <Position>
              <LatitudeDegrees>40.7900179736316204071044921875</LatitudeDegrees>
              <LongitudeDegrees>-4.0612330846488475799560546875</LongitudeDegrees>
            </Position>
            <AltitudeMeters>1702.4000244140625</AltitudeMeters>
            <DistanceMeters>NAN</DistanceMeters>
          </Trackpoint>
          <Trackpoint>
            <Time>2018-12-30T11:19:03.000Z</Time>
            <Position>
              <LatitudeDegrees>40.79002660699188709259033203125</LatitudeDegrees>
              <LongitudeDegrees>-4.06123015098273754119873046875</LongitudeDegrees>
            </Position>
            <AltitudeMeters>1702.5999755859375</AltitudeMeters>
            <DistanceMeters>NAN</DistanceMeters>
          </Trackpoint>
          <Trackpoint>
            <Time>2018-12-30T11:19:04.000Z</Time>
            <Position>
              <LatitudeDegrees>40.7900302112102508544921875</LatitudeDegrees>
              <LongitudeDegrees>-4.0612240321934223175048828125</LongitudeDegrees>
            </Position>
            <AltitudeMeters>1702.800048828125</AltitudeMeters>
            <DistanceMeters>NAN</DistanceMeters>
          </Trackpoint>
          <Trackpoint>
            <Time>2018-12-30T11:19:05.000Z</Time>
            <Position>
              <LatitudeDegrees>40.79003783874213695526123046875</LatitudeDegrees>
              <LongitudeDegrees>-4.06122512184083461761474609375</LongitudeDegrees>
            </Position>
            <AltitudeMeters>1703</AltitudeMeters>
            <DistanceMeters>NAN</DistanceMeters>
          </Trackpoint>
          <Trackpoint>
            <Time>2018-12-30T11:19:06.000Z</Time>
            <Position>
              <LatitudeDegrees>40.79003892838954925537109375</LatitudeDegrees>
              <LongitudeDegrees>-4.06122185289859771728515625</LongitudeDegrees>
            </Position>
            <AltitudeMeters>1703.199951171875</AltitudeMeters>
            <DistanceMeters>NAN</DistanceMeters>
          </Trackpoint>
          <Trackpoint>
            <Time>2018-12-30T11:19:07.000Z</Time>
            <Position>
              <LatitudeDegrees>40.7900347374379634857177734375</LatitudeDegrees>
              <LongitudeDegrees>-4.0612119622528553009033203125</LongitudeDegrees>
            </Position>
            <AltitudeMeters>1703.199951171875</AltitudeMeters>
            <DistanceMeters>NAN</DistanceMeters>
          </Trackpoint>
          <Trackpoint>
            <Time>2018-12-30T11:19:08.000Z</Time>
            <Position>
              <LatitudeDegrees>40.79002643935382366180419921875</LatitudeDegrees>
              <LongitudeDegrees>-4.06119628809392452239990234375</LongitudeDegrees>
            </Position>
            <AltitudeMeters>1703.4000244140625</AltitudeMeters>
            <DistanceMeters>NAN</DistanceMeters>
          </Trackpoint>
          <Trackpoint>
            <Time>2018-12-30T11:19:09.000Z</Time>
            <Position>
              <LatitudeDegrees>40.7900276966392993927001953125</LatitudeDegrees>
              <LongitudeDegrees>-4.06119595281779766082763671875</LongitudeDegrees>
            </Position>
            <AltitudeMeters>1703.4000244140625</AltitudeMeters>
            <DistanceMeters>NAN</DistanceMeters>
          </Trackpoint>
          <Trackpoint>
            <Time>2018-12-30T11:19:10.000Z</Time>
            <Position>
              <LatitudeDegrees>40.7900354079902172088623046875</LatitudeDegrees>
              <LongitudeDegrees>-4.06120165251195430755615234375</LongitudeDegrees>
            </Position>
            <AltitudeMeters>1703.4000244140625</AltitudeMeters>
            <DistanceMeters>NAN</DistanceMeters>
          </Trackpoint>
          <Trackpoint>
            <Time>2018-12-30T11:19:11.000Z</Time>
            <Position>
              <LatitudeDegrees>40.7900454662740230560302734375</LatitudeDegrees>
              <LongitudeDegrees>-4.06120517291128635406494140625</LongitudeDegrees>
            </Position>
            <AltitudeMeters>1703.4000244140625</AltitudeMeters>
            <DistanceMeters>NAN</DistanceMeters>
          </Trackpoint>
          <Trackpoint>
            <Time>2018-12-30T11:19:12.000Z</Time>
            <Position>
              <LatitudeDegrees>40.79005644656717777252197265625</LatitudeDegrees>
              <LongitudeDegrees>-4.06120785512030124664306640625</LongitudeDegrees>
            </Position>
            <AltitudeMeters>1703.4000244140625</AltitudeMeters>
            <DistanceMeters>NAN</DistanceMeters>
          </Trackpoint>
          <Trackpoint>
            <Time>2018-12-30T11:19:13.000Z</Time>
            <Position>
              <LatitudeDegrees>40.79006440937519073486328125</LatitudeDegrees>
              <LongitudeDegrees>-4.06120777130126953125</LongitudeDegrees>
            </Position>
            <AltitudeMeters>1703.4000244140625</AltitudeMeters>
            <DistanceMeters>NAN</DistanceMeters>
          </Trackpoint>
          <Trackpoint>
            <Time>2018-12-30T11:19:14.000Z</Time>
            <Position>
              <LatitudeDegrees>40.79007002525031566619873046875</LatitudeDegrees>
              <LongitudeDegrees>-4.06120777130126953125</LongitudeDegrees>
            </Position>
            <AltitudeMeters>1703.4000244140625</AltitudeMeters>
            <DistanceMeters>NAN</DistanceMeters>
          </Trackpoint>
          <Trackpoint>
            <Time>2018-12-30T11:19:15.000Z</Time>
            <Position>
              <LatitudeDegrees>40.79007513821125030517578125</LatitudeDegrees>
              <LongitudeDegrees>-4.06120668165385723114013671875</LongitudeDegrees>
            </Position>
            <AltitudeMeters>1703.4000244140625</AltitudeMeters>
            <DistanceMeters>NAN</DistanceMeters>
          </Trackpoint>
          <Trackpoint>
            <Time>2018-12-30T11:19:16.000Z</Time>
            <Position>
              <LatitudeDegrees>40.79008159227669239044189453125</LatitudeDegrees>
              <LongitudeDegrees>-4.06120416708290576934814453125</LongitudeDegrees>
            </Position>
            <AltitudeMeters>1703.4000244140625</AltitudeMeters>
            <DistanceMeters>NAN</DistanceMeters>
          </Trackpoint>
          <Trackpoint>
            <Time>2018-12-30T11:19:17.000Z</Time>
            <Position>
              <LatitudeDegrees>40.79008896835148334503173828125</LatitudeDegrees>
              <LongitudeDegrees>-4.06120081432163715362548828125</LongitudeDegrees>
            </Position>
            <AltitudeMeters>1703.5999755859375</AltitudeMeters>
            <DistanceMeters>NAN</DistanceMeters>
          </Trackpoint>
          <Trackpoint>
            <Time>2018-12-30T11:19:18.000Z</Time>
            <Position>
              <LatitudeDegrees>40.79009500332176685333251953125</LatitudeDegrees>
              <LongitudeDegrees>-4.061195366084575653076171875</LongitudeDegrees>
            </Position>
            <AltitudeMeters>1703.800048828125</AltitudeMeters>
            <DistanceMeters>NAN</DistanceMeters>
          </Trackpoint>
          <Trackpoint>
            <Time>2018-12-30T11:19:19.000Z</Time>
            <Position>
              <LatitudeDegrees>40.79010489396750926971435546875</LatitudeDegrees>
              <LongitudeDegrees>-4.0611957013607025146484375</LongitudeDegrees>
            </Position>
            <AltitudeMeters>1704</AltitudeMeters>
            <DistanceMeters>NAN</DistanceMeters>
          </Trackpoint>
          <Trackpoint>
            <Time>2018-12-30T11:19:20.000Z</Time>
            <Position>
              <LatitudeDegrees>40.79011210240423679351806640625</LatitudeDegrees>
              <LongitudeDegrees>-4.06119410879909992218017578125</LongitudeDegrees>
            </Position>
            <AltitudeMeters>1704.199951171875</AltitudeMeters>
            <DistanceMeters>NAN</DistanceMeters>
          </Trackpoint>
          <Trackpoint>
            <Time>2018-12-30T11:19:21.000Z</Time>
            <Position>
              <LatitudeDegrees>40.79011796973645687103271484375</LatitudeDegrees>
              <LongitudeDegrees>-4.0611911751329898834228515625</LongitudeDegrees>
            </Position>
            <AltitudeMeters>1704.199951171875</AltitudeMeters>
            <DistanceMeters>NAN</DistanceMeters>
          </Trackpoint>
          <Trackpoint>
            <Time>2018-12-30T11:19:22.000Z</Time>
            <Position>
              <LatitudeDegrees>40.79012433998286724090576171875</LatitudeDegrees>
              <LongitudeDegrees>-4.061187319457530975341796875</LongitudeDegrees>
            </Position>
            <AltitudeMeters>1704.4000244140625</AltitudeMeters>
            <DistanceMeters>NAN</DistanceMeters>
          </Trackpoint>
          <Trackpoint>
            <Time>2018-12-30T11:19:23.000Z</Time>
            <Position>
              <LatitudeDegrees>40.79013012349605560302734375</LatitudeDegrees>
              <LongitudeDegrees>-4.0611834637820720672607421875</LongitudeDegrees>
            </Position>
            <AltitudeMeters>1704.5999755859375</AltitudeMeters>
            <DistanceMeters>NAN</DistanceMeters>
          </Trackpoint>
          <Trackpoint>
            <Time>2018-12-30T11:19:24.000Z</Time>
            <Position>
              <LatitudeDegrees>40.7901348173618316650390625</LatitudeDegrees>
              <LongitudeDegrees>-4.0611767582595348358154296875</LongitudeDegrees>
            </Position>
            <AltitudeMeters>1704.800048828125</AltitudeMeters>
            <DistanceMeters>NAN</DistanceMeters>
          </Trackpoint>
          <Trackpoint>
            <Time>2018-12-30T11:19:25.000Z</Time>
            <Position>
              <LatitudeDegrees>40.7901396788656711578369140625</LatitudeDegrees>
              <LongitudeDegrees>-4.06117164529860019683837890625</LongitudeDegrees>
            </Position>
            <AltitudeMeters>1705</AltitudeMeters>
            <DistanceMeters>NAN</DistanceMeters>
          </Trackpoint>
          <Trackpoint>
            <Time>2018-12-30T11:19:26.000Z</Time>
            <Position>
              <LatitudeDegrees>40.79014353454113006591796875</LatitudeDegrees>
              <LongitudeDegrees>-4.06116242520511150360107421875</LongitudeDegrees>
            </Position>
            <AltitudeMeters>1705.199951171875</AltitudeMeters>
            <DistanceMeters>NAN</DistanceMeters>
          </Trackpoint>
          <Trackpoint>
            <Time>2018-12-30T11:19:27.000Z</Time>
            <Position>
              <LatitudeDegrees>40.7901482284069061279296875</LatitudeDegrees>
              <LongitudeDegrees>-4.06115672551095485687255859375</LongitudeDegrees>
            </Position>
            <AltitudeMeters>1705.4000244140625</AltitudeMeters>
            <DistanceMeters>NAN</DistanceMeters>
          </Trackpoint>
          <Trackpoint>
            <Time>2018-12-30T11:19:28.000Z</Time>
            <Position>
              <LatitudeDegrees>40.79015451483428478240966796875</LatitudeDegrees>
              <LongitudeDegrees>-4.06115639023482799530029296875</LongitudeDegrees>
            </Position>
            <AltitudeMeters>1705.4000244140625</AltitudeMeters>
            <DistanceMeters>NAN</DistanceMeters>
          </Trackpoint>
          <Trackpoint>
            <Time>2018-12-30T11:19:29.000Z</Time>
            <Position>
              <LatitudeDegrees>40.79016189090907573699951171875</LatitudeDegrees>
              <LongitudeDegrees>-4.06115655787289142608642578125</LongitudeDegrees>
            </Position>
            <AltitudeMeters>1705.5999755859375</AltitudeMeters>
            <DistanceMeters>NAN</DistanceMeters>
          </Trackpoint>
          <Trackpoint>
            <Time>2018-12-30T11:19:30.000Z</Time>
            <Position>
              <LatitudeDegrees>40.7901685126125812530517578125</LatitudeDegrees>
              <LongitudeDegrees>-4.0611549653112888336181640625</LongitudeDegrees>
            </Position>
            <AltitudeMeters>1705.800048828125</AltitudeMeters>
            <DistanceMeters>NAN</DistanceMeters>
          </Trackpoint>
          <Trackpoint>
            <Time>2018-12-30T11:19:31.000Z</Time>
            <Position>
              <LatitudeDegrees>40.79017295502126216888427734375</LatitudeDegrees>
              <LongitudeDegrees>-4.0611541271209716796875</LongitudeDegrees>
            </Position>
            <AltitudeMeters>1706</AltitudeMeters>
            <DistanceMeters>NAN</DistanceMeters>
          </Trackpoint>
          <Trackpoint>
            <Time>2018-12-30T11:19:32.000Z</Time>
            <Position>
              <LatitudeDegrees>40.79017479903995990753173828125</LatitudeDegrees>
              <LongitudeDegrees>-4.06114943325519561767578125</LongitudeDegrees>
            </Position>
            <AltitudeMeters>1706.199951171875</AltitudeMeters>
            <DistanceMeters>NAN</DistanceMeters>
          </Trackpoint>
          <Trackpoint>
            <Time>2018-12-30T11:19:33.000Z</Time>
            <Position>
              <LatitudeDegrees>40.79018334858119487762451171875</LatitudeDegrees>
              <LongitudeDegrees>-4.06115169636905193328857421875</LongitudeDegrees>
            </Position>
            <AltitudeMeters>1706.4000244140625</AltitudeMeters>
            <DistanceMeters>NAN</DistanceMeters>
          </Trackpoint>
          <Trackpoint>
            <Time>2018-12-30T11:19:34.000Z</Time>
            <Position>
              <LatitudeDegrees>40.79018871299922466278076171875</LatitudeDegrees>
              <LongitudeDegrees>-4.061151109635829925537109375</LongitudeDegrees>
            </Position>
            <AltitudeMeters>1706.4000244140625</AltitudeMeters>
            <DistanceMeters>NAN</DistanceMeters>
          </Trackpoint>
          <Trackpoint>
            <Time>2018-12-30T11:19:35.000Z</Time>
            <Position>
              <LatitudeDegrees>40.790194831788539886474609375</LatitudeDegrees>
              <LongitudeDegrees>-4.061148427426815032958984375</LongitudeDegrees>
            </Position>
            <AltitudeMeters>1706.5999755859375</AltitudeMeters>
            <DistanceMeters>NAN</DistanceMeters>
          </Trackpoint>
          <Trackpoint>
            <Time>2018-12-30T11:19:36.000Z</Time>
            <Position>
              <LatitudeDegrees>40.7902006991207599639892578125</LatitudeDegrees>
              <LongitudeDegrees>-4.061143398284912109375</LongitudeDegrees>
            </Position>
            <AltitudeMeters>1706.800048828125</AltitudeMeters>
            <DistanceMeters>NAN</DistanceMeters>
          </Trackpoint>
          <Trackpoint>
            <Time>2018-12-30T11:19:37.000Z</Time>
            <Position>
              <LatitudeDegrees>40.7902110926806926727294921875</LatitudeDegrees>
              <LongitudeDegrees>-4.061145074665546417236328125</LongitudeDegrees>
            </Position>
            <AltitudeMeters>1707</AltitudeMeters>
            <DistanceMeters>NAN</DistanceMeters>
          </Trackpoint>
          <Trackpoint>
            <Time>2018-12-30T11:19:38.000Z</Time>
            <Position>
              <LatitudeDegrees>40.790219642221927642822265625</LatitudeDegrees>
              <LongitudeDegrees>-4.06114633195102214813232421875</LongitudeDegrees>
            </Position>
            <AltitudeMeters>1707.199951171875</AltitudeMeters>
            <DistanceMeters>NAN</DistanceMeters>
          </Trackpoint>
          <Trackpoint>
            <Time>2018-12-30T11:19:39.000Z</Time>
            <Position>
              <LatitudeDegrees>40.79022936522960662841796875</LatitudeDegrees>
              <LongitudeDegrees>-4.06114901416003704071044921875</LongitudeDegrees>
            </Position>
            <AltitudeMeters>1707.4000244140625</AltitudeMeters>
            <DistanceMeters>NAN</DistanceMeters>
          </Trackpoint>
          <Trackpoint>
            <Time>2018-12-30T11:19:40.000Z</Time>
            <Position>
              <LatitudeDegrees>40.79023431055247783660888671875</LatitudeDegrees>
              <LongitudeDegrees>-4.06114197336137294769287109375</LongitudeDegrees>
            </Position>
            <AltitudeMeters>1707.5999755859375</AltitudeMeters>
            <DistanceMeters>NAN</DistanceMeters>
          </Trackpoint>
          <Trackpoint>
            <Time>2018-12-30T11:19:41.000Z</Time>
            <Position>
              <LatitudeDegrees>40.79023850150406360626220703125</LatitudeDegrees>
              <LongitudeDegrees>-4.06113208271563053131103515625</LongitudeDegrees>
            </Position>
            <AltitudeMeters>1707.800048828125</AltitudeMeters>
            <DistanceMeters>NAN</DistanceMeters>
          </Trackpoint>
          <Trackpoint>
            <Time>2018-12-30T11:19:42.000Z</Time>
            <Position>
              <LatitudeDegrees>40.7902442850172519683837890625</LatitudeDegrees>
              <LongitudeDegrees>-4.06112386845052242279052734375</LongitudeDegrees>
            </Position>
            <AltitudeMeters>1708</AltitudeMeters>
            <DistanceMeters>NAN</DistanceMeters>
          </Trackpoint>
          <Trackpoint>
            <Time>2018-12-30T11:19:43.000Z</Time>
            <Position>
              <LatitudeDegrees>40.7902489788830280303955078125</LatitudeDegrees>
              <LongitudeDegrees>-4.06111749820411205291748046875</LongitudeDegrees>
            </Position>
            <AltitudeMeters>1708.199951171875</AltitudeMeters>
            <DistanceMeters>NAN</DistanceMeters>
          </Trackpoint>
          <Trackpoint>
            <Time>2018-12-30T11:19:44.000Z</Time>
            <Position>
              <LatitudeDegrees>40.790255181491374969482421875</LatitudeDegrees>
              <LongitudeDegrees>-4.06111724674701690673828125</LongitudeDegrees>
            </Position>
            <AltitudeMeters>1708.4000244140625</AltitudeMeters>
            <DistanceMeters>NAN</DistanceMeters>
          </Trackpoint>
          <Trackpoint>
            <Time>2018-12-30T11:19:45.000Z</Time>
            <Position>
              <LatitudeDegrees>40.79026155173778533935546875</LatitudeDegrees>
              <LongitudeDegrees>-4.0611179172992706298828125</LongitudeDegrees>
            </Position>
            <AltitudeMeters>1708.5999755859375</AltitudeMeters>
            <DistanceMeters>NAN</DistanceMeters>
          </Trackpoint>
          <Trackpoint>
            <Time>2018-12-30T11:19:46.000Z</Time>
            <Position>
              <LatitudeDegrees>40.79026758670806884765625</LatitudeDegrees>
              <LongitudeDegrees>-4.06111724674701690673828125</LongitudeDegrees>
            </Position>
            <AltitudeMeters>1708.800048828125</AltitudeMeters>
            <DistanceMeters>NAN</DistanceMeters>
          </Trackpoint>
          <Trackpoint>
            <Time>2018-12-30T11:19:47.000Z</Time>
            <Position>
              <LatitudeDegrees>40.79027496278285980224609375</LatitudeDegrees>
              <LongitudeDegrees>-4.06111464835703372955322265625</LongitudeDegrees>
            </Position>
            <AltitudeMeters>1708.800048828125</AltitudeMeters>
            <DistanceMeters>NAN</DistanceMeters>
          </Trackpoint>
          <Trackpoint>
            <Time>2018-12-30T11:19:48.000Z</Time>
            <Position>
              <LatitudeDegrees>40.7902821712195873260498046875</LatitudeDegrees>
              <LongitudeDegrees>-4.0611100383102893829345703125</LongitudeDegrees>
            </Position>
            <AltitudeMeters>1708.800048828125</AltitudeMeters>
            <DistanceMeters>NAN</DistanceMeters>
          </Trackpoint>
          <Trackpoint>
            <Time>2018-12-30T11:19:49.000Z</Time>
            <Position>
              <LatitudeDegrees>40.7902908883988857269287109375</LatitudeDegrees>
              <LongitudeDegrees>-4.06110894866287708282470703125</LongitudeDegrees>
            </Position>
            <AltitudeMeters>1709</AltitudeMeters>
            <DistanceMeters>NAN</DistanceMeters>
          </Trackpoint>
          <Trackpoint>
            <Time>2018-12-30T11:19:50.000Z</Time>
            <Position>
              <LatitudeDegrees>40.790299437940120697021484375</LatitudeDegrees>
              <LongitudeDegrees>-4.06110785901546478271484375</LongitudeDegrees>
            </Position>
            <AltitudeMeters>1709</AltitudeMeters>
            <DistanceMeters>NAN</DistanceMeters>
          </Trackpoint>
          <Trackpoint>
            <Time>2018-12-30T11:19:51.000Z</Time>
            <Position>
              <LatitudeDegrees>40.79030589200556278228759765625</LatitudeDegrees>
              <LongitudeDegrees>-4.06110383570194244384765625</LongitudeDegrees>
            </Position>
            <AltitudeMeters>1709.199951171875</AltitudeMeters>
            <DistanceMeters>NAN</DistanceMeters>
          </Trackpoint>
          <Trackpoint>
            <Time>2018-12-30T11:19:52.000Z</Time>
            <Position>
              <LatitudeDegrees>40.7903143577277660369873046875</LatitudeDegrees>
              <LongitudeDegrees>-4.06110257841646671295166015625</LongitudeDegrees>
            </Position>
            <AltitudeMeters>1709.4000244140625</AltitudeMeters>
            <DistanceMeters>NAN</DistanceMeters>
          </Trackpoint>
          <Trackpoint>
            <Time>2018-12-30T11:19:53.000Z</Time>
            <Position>
              <LatitudeDegrees>40.79032190144062042236328125</LatitudeDegrees>
              <LongitudeDegrees>-4.06110073439776897430419921875</LongitudeDegrees>
            </Position>
            <AltitudeMeters>1709.5999755859375</AltitudeMeters>
            <DistanceMeters>NAN</DistanceMeters>
          </Trackpoint>
          <Trackpoint>
            <Time>2018-12-30T11:19:54.000Z</Time>
            <Position>
              <LatitudeDegrees>40.79032366164028644561767578125</LatitudeDegrees>
              <LongitudeDegrees>-4.06108774244785308837890625</LongitudeDegrees>
            </Position>
            <AltitudeMeters>1709.800048828125</AltitudeMeters>
            <DistanceMeters>NAN</DistanceMeters>
          </Trackpoint>
          <Trackpoint>
            <Time>2018-12-30T11:19:55.000Z</Time>
            <Position>
              <LatitudeDegrees>40.7903324626386165618896484375</LatitudeDegrees>
              <LongitudeDegrees>-4.0610852278769016265869140625</LongitudeDegrees>
            </Position>
            <AltitudeMeters>1710</AltitudeMeters>
            <DistanceMeters>NAN</DistanceMeters>
          </Trackpoint>
          <Trackpoint>
            <Time>2018-12-30T11:19:56.000Z</Time>
            <Position>
              <LatitudeDegrees>40.79033958725631237030029296875</LatitudeDegrees>
              <LongitudeDegrees>-4.06108380295336246490478515625</LongitudeDegrees>
            </Position>
            <AltitudeMeters>1710.199951171875</AltitudeMeters>
            <DistanceMeters>NAN</DistanceMeters>
          </Trackpoint>
          <Trackpoint>
            <Time>2018-12-30T11:19:57.000Z</Time>
            <Position>
              <LatitudeDegrees>40.790347717702388763427734375</LatitudeDegrees>
              <LongitudeDegrees>-4.06108514405786991119384765625</LongitudeDegrees>
            </Position>
            <AltitudeMeters>1710.5999755859375</AltitudeMeters>
            <DistanceMeters>NAN</DistanceMeters>
          </Trackpoint>
          <Trackpoint>
            <Time>2018-12-30T11:19:58.000Z</Time>
            <Position>
              <LatitudeDegrees>40.7903569377958774566650390625</LatitudeDegrees>
              <LongitudeDegrees>-4.0610862337052822113037109375</LongitudeDegrees>
            </Position>
            <AltitudeMeters>1710.5999755859375</AltitudeMeters>
            <DistanceMeters>NAN</DistanceMeters>
          </Trackpoint>
          <Trackpoint>
            <Time>2018-12-30T11:19:59.000Z</Time>
            <Position>
              <LatitudeDegrees>40.79036414623260498046875</LatitudeDegrees>
              <LongitudeDegrees>-4.0610828809440135955810546875</LongitudeDegrees>
            </Position>
            <AltitudeMeters>1711</AltitudeMeters>
            <DistanceMeters>NAN</DistanceMeters>
          </Trackpoint>
          <Trackpoint>
            <Time>2018-12-30T11:20:00.000Z</Time>
            <Position>
              <LatitudeDegrees>40.79037277959287166595458984375</LatitudeDegrees>
              <LongitudeDegrees>-4.06108682043850421905517578125</LongitudeDegrees>
            </Position>
            <AltitudeMeters>1711</AltitudeMeters>
            <DistanceMeters>NAN</DistanceMeters>
          </Trackpoint>
          <Trackpoint>
            <Time>2018-12-30T11:20:01.000Z</Time>
            <Position>
              <LatitudeDegrees>40.79038350842893123626708984375</LatitudeDegrees>
              <LongitudeDegrees>-4.06109201721847057342529296875</LongitudeDegrees>
            </Position>
            <AltitudeMeters>1711.199951171875</AltitudeMeters>
            <DistanceMeters>NAN</DistanceMeters>
          </Trackpoint>
          <Trackpoint>
            <Time>2018-12-30T11:20:02.000Z</Time>
            <Position>
              <LatitudeDegrees>40.79039490781724452972412109375</LatitudeDegrees>
              <LongitudeDegrees>-4.06109436415135860443115234375</LongitudeDegrees>
            </Position>
            <AltitudeMeters>1711.199951171875</AltitudeMeters>
            <DistanceMeters>NAN</DistanceMeters>
          </Trackpoint>
          <Trackpoint>
            <Time>2018-12-30T11:20:03.000Z</Time>
            <Position>
              <LatitudeDegrees>40.79040345735847949981689453125</LatitudeDegrees>
              <LongitudeDegrees>-4.06108983792364597320556640625</LongitudeDegrees>
            </Position>
            <AltitudeMeters>1711.4000244140625</AltitudeMeters>
            <DistanceMeters>NAN</DistanceMeters>
          </Trackpoint>
          <Trackpoint>
            <Time>2018-12-30T11:20:04.000Z</Time>
            <Position>
              <LatitudeDegrees>40.79040907323360443115234375</LatitudeDegrees>
              <LongitudeDegrees>-4.06108212657272815704345703125</LongitudeDegrees>
            </Position>
            <AltitudeMeters>1711.4000244140625</AltitudeMeters>
            <DistanceMeters>NAN</DistanceMeters>
          </Trackpoint>
          <Trackpoint>
            <Time>2018-12-30T11:20:05.000Z</Time>
            <Position>
              <LatitudeDegrees>40.79041586257517337799072265625</LatitudeDegrees>
              <LongitudeDegrees>-4.06107977963984012603759765625</LongitudeDegrees>
            </Position>
            <AltitudeMeters>1711.800048828125</AltitudeMeters>
            <DistanceMeters>NAN</DistanceMeters>
          </Trackpoint>
          <Trackpoint>
            <Time>2018-12-30T11:20:06.000Z</Time>
            <Position>
              <LatitudeDegrees>40.79041846096515655517578125</LatitudeDegrees>
              <LongitudeDegrees>-4.0610791929066181182861328125</LongitudeDegrees>
            </Position>
            <AltitudeMeters>1712</AltitudeMeters>
            <DistanceMeters>NAN</DistanceMeters>
          </Trackpoint>
          <Trackpoint>
            <Time>2018-12-30T11:20:07.000Z</Time>
            <Position>
              <LatitudeDegrees>40.7904199697077274322509765625</LatitudeDegrees>
              <LongitudeDegrees>-4.061083383858203887939453125</LongitudeDegrees>
            </Position>
            <AltitudeMeters>1712.4000244140625</AltitudeMeters>
            <DistanceMeters>NAN</DistanceMeters>
          </Trackpoint>
          <Trackpoint>
            <Time>2018-12-30T11:20:08.000Z</Time>
            <Position>
              <LatitudeDegrees>40.79042172990739345550537109375</LatitudeDegrees>
              <LongitudeDegrees>-4.061088077723979949951171875</LongitudeDegrees>
            </Position>
            <AltitudeMeters>1712.5999755859375</AltitudeMeters>
            <DistanceMeters>NAN</DistanceMeters>
          </Trackpoint>
          <Trackpoint>
            <Time>2018-12-30T11:20:09.000Z</Time>
            <Position>
              <LatitudeDegrees>40.79042223282158374786376953125</LatitudeDegrees>
              <LongitudeDegrees>-4.0610929392278194427490234375</LongitudeDegrees>
            </Position>
            <AltitudeMeters>1712.5999755859375</AltitudeMeters>
            <DistanceMeters>NAN</DistanceMeters>
          </Trackpoint>
          <Trackpoint>
            <Time>2018-12-30T11:20:10.000Z</Time>
            <Position>
              <LatitudeDegrees>40.7904216460883617401123046875</LatitudeDegrees>
              <LongitudeDegrees>-4.0611006505787372589111328125</LongitudeDegrees>
            </Position>
            <AltitudeMeters>1712.5999755859375</AltitudeMeters>
            <DistanceMeters>NAN</DistanceMeters>
          </Trackpoint>
          <Trackpoint>
            <Time>2018-12-30T11:20:11.000Z</Time>
            <Position>
              <LatitudeDegrees>40.79041686840355396270751953125</LatitudeDegrees>
              <LongitudeDegrees>-4.06110006384551525115966796875</LongitudeDegrees>
            </Position>
            <AltitudeMeters>1712.800048828125</AltitudeMeters>
            <DistanceMeters>NAN</DistanceMeters>
          </Trackpoint>
          <Trackpoint>
            <Time>2018-12-30T11:20:12.000Z</Time>
            <Position>
              <LatitudeDegrees>40.7904191315174102783203125</LatitudeDegrees>
              <LongitudeDegrees>-4.06109469942748546600341796875</LongitudeDegrees>
            </Position>
            <AltitudeMeters>1712.800048828125</AltitudeMeters>
            <DistanceMeters>NAN</DistanceMeters>
          </Trackpoint>
          <Trackpoint>
            <Time>2018-12-30T11:20:13.000Z</Time>
            <Position>
              <LatitudeDegrees>40.79041351564228534698486328125</LatitudeDegrees>
              <LongitudeDegrees>-4.0610899217426776885986328125</LongitudeDegrees>
            </Position>
            <AltitudeMeters>1712.800048828125</AltitudeMeters>
            <DistanceMeters>NAN</DistanceMeters>
          </Trackpoint>
          <Trackpoint>
            <Time>2018-12-30T11:20:14.000Z</Time>
            <Position>
              <LatitudeDegrees>40.790412425994873046875</LatitudeDegrees>
              <LongitudeDegrees>-4.06109034083783626556396484375</LongitudeDegrees>
            </Position>
            <AltitudeMeters>1712.800048828125</AltitudeMeters>
            <DistanceMeters>NAN</DistanceMeters>
          </Trackpoint>
          <Trackpoint>
            <Time>2018-12-30T11:20:15.000Z</Time>
            <Position>
              <LatitudeDegrees>40.79041234217584133148193359375</LatitudeDegrees>
              <LongitudeDegrees>-4.061090759932994842529296875</LongitudeDegrees>
            </Position>
            <AltitudeMeters>1712.800048828125</AltitudeMeters>
            <DistanceMeters>NAN</DistanceMeters>
          </Trackpoint>
          <Trackpoint>
            <Time>2018-12-30T11:20:16.000Z</Time>
            <Position>
              <LatitudeDegrees>40.7904125936329364776611328125</LatitudeDegrees>
              <LongitudeDegrees>-4.0610889159142971038818359375</LongitudeDegrees>
            </Position>
            <AltitudeMeters>1712.800048828125</AltitudeMeters>
            <DistanceMeters>NAN</DistanceMeters>
          </Trackpoint>
          <Trackpoint>
            <Time>2018-12-30T11:20:17.000Z</Time>
            <Position>
              <LatitudeDegrees>40.79041309654712677001953125</LatitudeDegrees>
              <LongitudeDegrees>-4.0610858984291553497314453125</LongitudeDegrees>
            </Position>
            <AltitudeMeters>1713</AltitudeMeters>
            <DistanceMeters>NAN</DistanceMeters>
          </Trackpoint>
          <Trackpoint>
            <Time>2018-12-30T11:20:18.000Z</Time>
            <Position>
              <LatitudeDegrees>40.7904135994613170623779296875</LatitudeDegrees>
              <LongitudeDegrees>-4.06108614988625049591064453125</LongitudeDegrees>
            </Position>
            <AltitudeMeters>1713.199951171875</AltitudeMeters>
            <DistanceMeters>NAN</DistanceMeters>
          </Trackpoint>
          <Trackpoint>
            <Time>2018-12-30T11:20:19.000Z</Time>
            <Position>
              <LatitudeDegrees>40.7904139347374439239501953125</LatitudeDegrees>
              <LongitudeDegrees>-4.0610882453620433807373046875</LongitudeDegrees>
            </Position>
            <AltitudeMeters>1713.4000244140625</AltitudeMeters>
            <DistanceMeters>NAN</DistanceMeters>
          </Trackpoint>
          <Trackpoint>
            <Time>2018-12-30T11:20:20.000Z</Time>
            <Position>
              <LatitudeDegrees>40.7904142700135707855224609375</LatitudeDegrees>
              <LongitudeDegrees>-4.061089418828487396240234375</LongitudeDegrees>
            </Position>
            <AltitudeMeters>1713.4000244140625</AltitudeMeters>
            <DistanceMeters>NAN</DistanceMeters>
          </Trackpoint>
          <Trackpoint>
            <Time>2018-12-30T11:20:21.000Z</Time>
            <Position>
              <LatitudeDegrees>40.79041535966098308563232421875</LatitudeDegrees>
              <LongitudeDegrees>-4.0610882453620433807373046875</LongitudeDegrees>
            </Position>
            <AltitudeMeters>1713.5999755859375</AltitudeMeters>
            <DistanceMeters>NAN</DistanceMeters>
          </Trackpoint>
          <Trackpoint>
            <Time>2018-12-30T11:20:22.000Z</Time>
            <Position>
              <LatitudeDegrees>40.79041871242225170135498046875</LatitudeDegrees>
              <LongitudeDegrees>-4.0610869042575359344482421875</LongitudeDegrees>
            </Position>
            <AltitudeMeters>1713.5999755859375</AltitudeMeters>
            <DistanceMeters>NAN</DistanceMeters>
          </Trackpoint>
          <Trackpoint>
            <Time>2018-12-30T11:20:23.000Z</Time>
            <Position>
              <LatitudeDegrees>40.79042457975447177886962890625</LatitudeDegrees>
              <LongitudeDegrees>-4.06107977963984012603759765625</LongitudeDegrees>
            </Position>
            <AltitudeMeters>1713.5999755859375</AltitudeMeters>
            <DistanceMeters>NAN</DistanceMeters>
          </Trackpoint>
          <Trackpoint>
            <Time>2018-12-30T11:20:24.000Z</Time>
            <Position>
              <LatitudeDegrees>40.79043011181056499481201171875</LatitudeDegrees>
              <LongitudeDegrees>-4.0610696375370025634765625</LongitudeDegrees>
            </Position>
            <AltitudeMeters>1713.4000244140625</AltitudeMeters>
            <DistanceMeters>NAN</DistanceMeters>
          </Trackpoint>
          <Trackpoint>
            <Time>2018-12-30T11:20:25.000Z</Time>
            <Position>
              <LatitudeDegrees>40.7904380746185779571533203125</LatitudeDegrees>
              <LongitudeDegrees>-4.061061926186084747314453125</LongitudeDegrees>
            </Position>
            <AltitudeMeters>1713.199951171875</AltitudeMeters>
            <DistanceMeters>NAN</DistanceMeters>
          </Trackpoint>
          <Trackpoint>
            <Time>2018-12-30T11:20:26.000Z</Time>
            <Position>
              <LatitudeDegrees>40.79044670797884464263916015625</LatitudeDegrees>
              <LongitudeDegrees>-4.0610573999583721160888671875</LongitudeDegrees>
            </Position>
            <AltitudeMeters>1713</AltitudeMeters>
            <DistanceMeters>NAN</DistanceMeters>
          </Trackpoint>
          <Trackpoint>
            <Time>2018-12-30T11:20:27.000Z</Time>
            <Position>
              <LatitudeDegrees>40.790452994406223297119140625</LatitudeDegrees>
              <LongitudeDegrees>-4.0610496886074542999267578125</LongitudeDegrees>
            </Position>
            <AltitudeMeters>1713.199951171875</AltitudeMeters>
            <DistanceMeters>NAN</DistanceMeters>
          </Trackpoint>
          <Trackpoint>
            <Time>2018-12-30T11:20:28.000Z</Time>
            <Position>
              <LatitudeDegrees>40.79046062193810939788818359375</LatitudeDegrees>
              <LongitudeDegrees>-4.06104373745620250701904296875</LongitudeDegrees>
            </Position>
            <AltitudeMeters>1713.4000244140625</AltitudeMeters>
            <DistanceMeters>NAN</DistanceMeters>
          </Trackpoint>
          <Trackpoint>
            <Time>2018-12-30T11:20:29.000Z</Time>
            <Position>
              <LatitudeDegrees>40.79046514816582202911376953125</LatitudeDegrees>
              <LongitudeDegrees>-4.061036445200443267822265625</LongitudeDegrees>
            </Position>
            <AltitudeMeters>1713.5999755859375</AltitudeMeters>
            <DistanceMeters>NAN</DistanceMeters>
          </Trackpoint>
          <Trackpoint>
            <Time>2018-12-30T11:20:30.000Z</Time>
            <Position>
              <LatitudeDegrees>40.7904700934886932373046875</LatitudeDegrees>
              <LongitudeDegrees>-4.0610282309353351593017578125</LongitudeDegrees>
            </Position>
            <AltitudeMeters>1714</AltitudeMeters>
            <DistanceMeters>NAN</DistanceMeters>
          </Trackpoint>
          <Trackpoint>
            <Time>2018-12-30T11:20:31.000Z</Time>
            <Position>
              <LatitudeDegrees>40.790475122630596160888671875</LatitudeDegrees>
              <LongitudeDegrees>-4.06101976521313190460205078125</LongitudeDegrees>
            </Position>
            <AltitudeMeters>1714.4000244140625</AltitudeMeters>
            <DistanceMeters>NAN</DistanceMeters>
          </Trackpoint>
          <Trackpoint>
            <Time>2018-12-30T11:20:32.000Z</Time>
            <Position>
              <LatitudeDegrees>40.79048124141991138458251953125</LatitudeDegrees>
              <LongitudeDegrees>-4.06101389788091182708740234375</LongitudeDegrees>
            </Position>
            <AltitudeMeters>1714.800048828125</AltitudeMeters>
            <DistanceMeters>NAN</DistanceMeters>
          </Trackpoint>
          <Trackpoint>
            <Time>2018-12-30T11:20:33.000Z</Time>
            <Position>
              <LatitudeDegrees>40.790485851466655731201171875</LatitudeDegrees>
              <LongitudeDegrees>-4.061006270349025726318359375</LongitudeDegrees>
            </Position>
            <AltitudeMeters>1714.800048828125</AltitudeMeters>
            <DistanceMeters>NAN</DistanceMeters>
          </Trackpoint>
          <Trackpoint>
            <Time>2018-12-30T11:20:34.000Z</Time>
            <Position>
              <LatitudeDegrees>40.7904875278472900390625</LatitudeDegrees>
              <LongitudeDegrees>-4.06099109910428524017333984375</LongitudeDegrees>
            </Position>
            <AltitudeMeters>1715</AltitudeMeters>
            <DistanceMeters>NAN</DistanceMeters>
          </Trackpoint>
          <Trackpoint>
            <Time>2018-12-30T11:20:35.000Z</Time>
            <Position>
              <LatitudeDegrees>40.7904927246272563934326171875</LatitudeDegrees>
              <LongitudeDegrees>-4.06098389066755771636962890625</LongitudeDegrees>
            </Position>
            <AltitudeMeters>1715</AltitudeMeters>
            <DistanceMeters>NAN</DistanceMeters>
          </Trackpoint>
          <Trackpoint>
            <Time>2018-12-30T11:20:36.000Z</Time>
            <Position>
              <LatitudeDegrees>40.79048945568501949310302734375</LatitudeDegrees>
              <LongitudeDegrees>-4.06096360646188259124755859375</LongitudeDegrees>
            </Position>
            <AltitudeMeters>1715.199951171875</AltitudeMeters>
            <DistanceMeters>NAN</DistanceMeters>
          </Trackpoint>
          <Trackpoint>
            <Time>2018-12-30T11:20:37.000Z</Time>
            <Position>
              <LatitudeDegrees>40.79049750231206417083740234375</LatitudeDegrees>
              <LongitudeDegrees>-4.0609625168144702911376953125</LongitudeDegrees>
            </Position>
            <AltitudeMeters>1715.4000244140625</AltitudeMeters>
            <DistanceMeters>NAN</DistanceMeters>
          </Trackpoint>
          <Trackpoint>
            <Time>2018-12-30T11:20:38.000Z</Time>
            <Position>
              <LatitudeDegrees>40.7905027829110622406005859375</LatitudeDegrees>
              <LongitudeDegrees>-4.06096058897674083709716796875</LongitudeDegrees>
            </Position>
            <AltitudeMeters>1715.4000244140625</AltitudeMeters>
            <DistanceMeters>NAN</DistanceMeters>
          </Trackpoint>
          <Trackpoint>
            <Time>2018-12-30T11:20:39.000Z</Time>
            <Position>
              <LatitudeDegrees>40.7905021123588085174560546875</LatitudeDegrees>
              <LongitudeDegrees>-4.06095229089260101318359375</LongitudeDegrees>
            </Position>
            <AltitudeMeters>1715.5999755859375</AltitudeMeters>
            <DistanceMeters>NAN</DistanceMeters>
          </Trackpoint>
          <Trackpoint>
            <Time>2018-12-30T11:20:40.000Z</Time>
            <Position>
              <LatitudeDegrees>40.7905047945678234100341796875</LatitudeDegrees>
              <LongitudeDegrees>-4.06095086596906185150146484375</LongitudeDegrees>
            </Position>
            <AltitudeMeters>1715.800048828125</AltitudeMeters>
            <DistanceMeters>NAN</DistanceMeters>
          </Trackpoint>
          <Trackpoint>
            <Time>2018-12-30T11:20:41.000Z</Time>
            <Position>
              <LatitudeDegrees>40.7905071415007114410400390625</LatitudeDegrees>
              <LongitudeDegrees>-4.0609504468739032745361328125</LongitudeDegrees>
            </Position>
            <AltitudeMeters>1716.199951171875</AltitudeMeters>
            <DistanceMeters>NAN</DistanceMeters>
          </Trackpoint>
          <Trackpoint>
            <Time>2018-12-30T11:20:42.000Z</Time>
            <Position>
              <LatitudeDegrees>40.790509320795536041259765625</LatitudeDegrees>
              <LongitudeDegrees>-4.06095103360712528228759765625</LongitudeDegrees>
            </Position>
            <AltitudeMeters>1716.199951171875</AltitudeMeters>
            <DistanceMeters>NAN</DistanceMeters>
          </Trackpoint>
          <Trackpoint>
            <Time>2018-12-30T11:20:43.000Z</Time>
            <Position>
              <LatitudeDegrees>40.7905104942619800567626953125</LatitudeDegrees>
              <LongitudeDegrees>-4.06095203943550586700439453125</LongitudeDegrees>
            </Position>
            <AltitudeMeters>1716.4000244140625</AltitudeMeters>
            <DistanceMeters>NAN</DistanceMeters>
          </Trackpoint>
          <Trackpoint>
            <Time>2018-12-30T11:20:44.000Z</Time>
            <Position>
              <LatitudeDegrees>40.790512673556804656982421875</LatitudeDegrees>
              <LongitudeDegrees>-4.060952961444854736328125</LongitudeDegrees>
            </Position>
            <AltitudeMeters>1716.4000244140625</AltitudeMeters>
            <DistanceMeters>NAN</DistanceMeters>
          </Trackpoint>
          <Trackpoint>
            <Time>2018-12-30T11:20:45.000Z</Time>
            <Position>
              <LatitudeDegrees>40.79052080400288105010986328125</LatitudeDegrees>
              <LongitudeDegrees>-4.06095690093934535980224609375</LongitudeDegrees>
            </Position>
            <AltitudeMeters>1716.5999755859375</AltitudeMeters>
            <DistanceMeters>NAN</DistanceMeters>
          </Trackpoint>
          <Trackpoint>
            <Time>2018-12-30T11:20:46.000Z</Time>
            <Position>
              <LatitudeDegrees>40.7905292697250843048095703125</LatitudeDegrees>
              <LongitudeDegrees>-4.0609574876725673675537109375</LongitudeDegrees>
            </Position>
            <AltitudeMeters>1716.800048828125</AltitudeMeters>
            <DistanceMeters>NAN</DistanceMeters>
          </Trackpoint>
          <Trackpoint>
            <Time>2018-12-30T11:20:47.000Z</Time>
            <Position>
              <LatitudeDegrees>40.790536142885684967041015625</LatitudeDegrees>
              <LongitudeDegrees>-4.0609568171203136444091796875</LongitudeDegrees>
            </Position>
            <AltitudeMeters>1717</AltitudeMeters>
            <DistanceMeters>NAN</DistanceMeters>
          </Trackpoint>
          <Trackpoint>
            <Time>2018-12-30T11:20:48.000Z</Time>
            <Position>
              <LatitudeDegrees>40.7905433513224124908447265625</LatitudeDegrees>
              <LongitudeDegrees>-4.06095488928258419036865234375</LongitudeDegrees>
            </Position>
            <AltitudeMeters>1717</AltitudeMeters>
            <DistanceMeters>NAN</DistanceMeters>
          </Trackpoint>
          <Trackpoint>
            <Time>2018-12-30T11:20:49.000Z</Time>
            <Position>
              <LatitudeDegrees>40.7905505597591400146484375</LatitudeDegrees>
              <LongitudeDegrees>-4.06094960868358612060546875</LongitudeDegrees>
            </Position>
            <AltitudeMeters>1717.199951171875</AltitudeMeters>
            <DistanceMeters>NAN</DistanceMeters>
          </Trackpoint>
          <Trackpoint>
            <Time>2018-12-30T11:20:50.000Z</Time>
            <Position>
              <LatitudeDegrees>40.79055793583393096923828125</LatitudeDegrees>
              <LongitudeDegrees>-4.06094399280846118927001953125</LongitudeDegrees>
            </Position>
            <AltitudeMeters>1717.5999755859375</AltitudeMeters>
            <DistanceMeters>NAN</DistanceMeters>
          </Trackpoint>
          <Trackpoint>
            <Time>2018-12-30T11:20:51.000Z</Time>
            <Position>
              <LatitudeDegrees>40.79055734910070896148681640625</LatitudeDegrees>
              <LongitudeDegrees>-4.060931503772735595703125</LongitudeDegrees>
            </Position>
            <AltitudeMeters>1717.800048828125</AltitudeMeters>
            <DistanceMeters>NAN</DistanceMeters>
          </Trackpoint>
          <Trackpoint>
            <Time>2018-12-30T11:20:52.000Z</Time>
            <Position>
              <LatitudeDegrees>40.79055349342525005340576171875</LatitudeDegrees>
              <LongitudeDegrees>-4.060918428003787994384765625</LongitudeDegrees>
            </Position>
            <AltitudeMeters>1718</AltitudeMeters>
            <DistanceMeters>NAN</DistanceMeters>
          </Trackpoint>
          <Trackpoint>
            <Time>2018-12-30T11:20:53.000Z</Time>
            <Position>
              <LatitudeDegrees>40.79055751673877239227294921875</LatitudeDegrees>
              <LongitudeDegrees>-4.06091582961380481719970703125</LongitudeDegrees>
            </Position>
            <AltitudeMeters>1718</AltitudeMeters>
            <DistanceMeters>NAN</DistanceMeters>
          </Trackpoint>
          <Trackpoint>
            <Time>2018-12-30T11:20:54.000Z</Time>
            <Position>
              <LatitudeDegrees>40.79056154005229473114013671875</LatitudeDegrees>
              <LongitudeDegrees>-4.06091515906155109405517578125</LongitudeDegrees>
            </Position>
            <AltitudeMeters>1718.199951171875</AltitudeMeters>
            <DistanceMeters>NAN</DistanceMeters>
          </Trackpoint>
          <Trackpoint>
            <Time>2018-12-30T11:20:55.000Z</Time>
            <Position>
              <LatitudeDegrees>40.7905668206512928009033203125</LatitudeDegrees>
              <LongitudeDegrees>-4.06091532669961452484130859375</LongitudeDegrees>
            </Position>
            <AltitudeMeters>1718.4000244140625</AltitudeMeters>
            <DistanceMeters>NAN</DistanceMeters>
          </Trackpoint>
          <Trackpoint>
            <Time>2018-12-30T11:20:56.000Z</Time>
            <Position>
              <LatitudeDegrees>40.79057562164962291717529296875</LatitudeDegrees>
              <LongitudeDegrees>-4.060905687510967254638671875</LongitudeDegrees>
            </Position>
            <AltitudeMeters>1718.800048828125</AltitudeMeters>
            <DistanceMeters>NAN</DistanceMeters>
          </Trackpoint>
          <Trackpoint>
            <Time>2018-12-30T11:20:57.000Z</Time>
            <Position>
              <LatitudeDegrees>40.79057562164962291717529296875</LatitudeDegrees>
              <LongitudeDegrees>-4.060905687510967254638671875</LongitudeDegrees>
            </Position>
            <AltitudeMeters>1719</AltitudeMeters>
            <DistanceMeters>NAN</DistanceMeters>
          </Trackpoint>
          <Trackpoint>
            <Time>2018-12-30T11:20:58.000Z</Time>
            <Position>
              <LatitudeDegrees>40.79058073461055755615234375</LatitudeDegrees>
              <LongitudeDegrees>-4.0608991496264934539794921875</LongitudeDegrees>
            </Position>
            <AltitudeMeters>1719.4000244140625</AltitudeMeters>
            <DistanceMeters>NAN</DistanceMeters>
          </Trackpoint>
          <Trackpoint>
            <Time>2018-12-30T11:20:59.000Z</Time>
            <Position>
              <LatitudeDegrees>40.79058752395212650299072265625</LatitudeDegrees>
              <LongitudeDegrees>-4.0608957968652248382568359375</LongitudeDegrees>
            </Position>
            <AltitudeMeters>1719.5999755859375</AltitudeMeters>
            <DistanceMeters>NAN</DistanceMeters>
          </Trackpoint>
          <Trackpoint>
            <Time>2018-12-30T11:21:00.000Z</Time>
            <Position>
              <LatitudeDegrees>40.7905969955027103424072265625</LatitudeDegrees>
              <LongitudeDegrees>-4.0608994849026203155517578125</LongitudeDegrees>
            </Position>
            <AltitudeMeters>1719.800048828125</AltitudeMeters>
            <DistanceMeters>NAN</DistanceMeters>
          </Trackpoint>
          <Trackpoint>
            <Time>2018-12-30T11:21:01.000Z</Time>
            <Position>
              <LatitudeDegrees>40.790602862834930419921875</LatitudeDegrees>
              <LongitudeDegrees>-4.0609031729400157928466796875</LongitudeDegrees>
            </Position>
            <AltitudeMeters>1719.800048828125</AltitudeMeters>
            <DistanceMeters>NAN</DistanceMeters>
          </Trackpoint>
          <Trackpoint>
            <Time>2018-12-30T11:21:02.000Z</Time>
            <Position>
              <LatitudeDegrees>40.79060831107199192047119140625</LatitudeDegrees>
              <LongitudeDegrees>-4.0609033405780792236328125</LongitudeDegrees>
            </Position>
            <AltitudeMeters>1719.800048828125</AltitudeMeters>
            <DistanceMeters>NAN</DistanceMeters>
          </Trackpoint>
          <Trackpoint>
            <Time>2018-12-30T11:21:03.000Z</Time>
            <Position>
              <LatitudeDegrees>40.79061216674745082855224609375</LatitudeDegrees>
              <LongitudeDegrees>-4.06089889816939830780029296875</LongitudeDegrees>
            </Position>
            <AltitudeMeters>1720</AltitudeMeters>
            <DistanceMeters>NAN</DistanceMeters>
          </Trackpoint>
          <Trackpoint>
            <Time>2018-12-30T11:21:04.000Z</Time>
            <Position>
              <LatitudeDegrees>40.79061484895646572113037109375</LatitudeDegrees>
              <LongitudeDegrees>-4.0608944557607173919677734375</LongitudeDegrees>
            </Position>
            <AltitudeMeters>1720</AltitudeMeters>
            <DistanceMeters>NAN</DistanceMeters>
          </Trackpoint>
          <Trackpoint>
            <Time>2018-12-30T11:21:05.000Z</Time>
            <Position>
              <LatitudeDegrees>40.79061367549002170562744140625</LatitudeDegrees>
              <LongitudeDegrees>-4.0608914382755756378173828125</LongitudeDegrees>
            </Position>
            <AltitudeMeters>1720.199951171875</AltitudeMeters>
            <DistanceMeters>NAN</DistanceMeters>
          </Trackpoint>
          <Trackpoint>
            <Time>2018-12-30T11:21:06.000Z</Time>
            <Position>
              <LatitudeDegrees>40.79061903990805149078369140625</LatitudeDegrees>
              <LongitudeDegrees>-4.06089101918041706085205078125</LongitudeDegrees>
            </Position>
            <AltitudeMeters>1720.4000244140625</AltitudeMeters>
            <DistanceMeters>NAN</DistanceMeters>
          </Trackpoint>
          <Trackpoint>
            <Time>2018-12-30T11:21:07.000Z</Time>
            <Position>
              <LatitudeDegrees>40.79062239266932010650634765625</LatitudeDegrees>
              <LongitudeDegrees>-4.06088816933333873748779296875</LongitudeDegrees>
            </Position>
            <AltitudeMeters>1720.800048828125</AltitudeMeters>
            <DistanceMeters>NAN</DistanceMeters>
          </Trackpoint>
          <Trackpoint>
            <Time>2018-12-30T11:21:08.000Z</Time>
            <Position>
              <LatitudeDegrees>40.79062088392674922943115234375</LatitudeDegrees>
              <LongitudeDegrees>-4.06087375245988368988037109375</LongitudeDegrees>
            </Position>
            <AltitudeMeters>1721</AltitudeMeters>
            <DistanceMeters>NAN</DistanceMeters>
          </Trackpoint>
          <Trackpoint>
            <Time>2018-12-30T11:21:09.000Z</Time>
            <Position>
              <LatitudeDegrees>40.79062163829803466796875</LatitudeDegrees>
              <LongitudeDegrees>-4.06086503528058528900146484375</LongitudeDegrees>
            </Position>
            <AltitudeMeters>1721.199951171875</AltitudeMeters>
            <DistanceMeters>NAN</DistanceMeters>
          </Trackpoint>
          <Trackpoint>
            <Time>2018-12-30T11:21:10.000Z</Time>
            <Position>
              <LatitudeDegrees>40.790619291365146636962890625</LatitudeDegrees>
              <LongitudeDegrees>-4.06085715629160404205322265625</LongitudeDegrees>
            </Position>
            <AltitudeMeters>1721.4000244140625</AltitudeMeters>
            <DistanceMeters>NAN</DistanceMeters>
          </Trackpoint>
          <Trackpoint>
            <Time>2018-12-30T11:21:11.000Z</Time>
            <Position>
              <LatitudeDegrees>40.7906211353838443756103515625</LatitudeDegrees>
              <LongitudeDegrees>-4.06084835529327392578125</LongitudeDegrees>
            </Position>
            <AltitudeMeters>1721.5999755859375</AltitudeMeters>
            <DistanceMeters>NAN</DistanceMeters>
          </Trackpoint>
          <Trackpoint>
            <Time>2018-12-30T11:21:12.000Z</Time>
            <Position>
              <LatitudeDegrees>40.79062364995479583740234375</LatitudeDegrees>
              <LongitudeDegrees>-4.060840308666229248046875</LongitudeDegrees>
            </Position>
            <AltitudeMeters>1721.800048828125</AltitudeMeters>
            <DistanceMeters>NAN</DistanceMeters>
          </Trackpoint>
          <Trackpoint>
            <Time>2018-12-30T11:21:13.000Z</Time>
            <Position>
              <LatitudeDegrees>40.79063127748668193817138671875</LatitudeDegrees>
              <LongitudeDegrees>-4.06084408052265644073486328125</LongitudeDegrees>
            </Position>
            <AltitudeMeters>1722</AltitudeMeters>
            <DistanceMeters>NAN</DistanceMeters>
          </Trackpoint>
          <Trackpoint>
            <Time>2018-12-30T11:21:14.000Z</Time>
            <Position>
              <LatitudeDegrees>40.7906402461230754852294921875</LatitudeDegrees>
              <LongitudeDegrees>-4.06084039248526096343994140625</LongitudeDegrees>
            </Position>
            <AltitudeMeters>1722</AltitudeMeters>
            <DistanceMeters>NAN</DistanceMeters>
          </Trackpoint>
          <Trackpoint>
            <Time>2018-12-30T11:21:15.000Z</Time>
            <Position>
              <LatitudeDegrees>40.79064804129302501678466796875</LatitudeDegrees>
              <LongitudeDegrees>-4.06083963811397552490234375</LongitudeDegrees>
            </Position>
            <AltitudeMeters>1722</AltitudeMeters>
            <DistanceMeters>NAN</DistanceMeters>
          </Trackpoint>
          <Trackpoint>
            <Time>2018-12-30T11:21:16.000Z</Time>
            <Position>
              <LatitudeDegrees>40.79065541736781597137451171875</LatitudeDegrees>
              <LongitudeDegrees>-4.06083519570529460906982421875</LongitudeDegrees>
            </Position>
            <AltitudeMeters>1722.199951171875</AltitudeMeters>
            <DistanceMeters>NAN</DistanceMeters>
          </Trackpoint>
          <Trackpoint>
            <Time>2018-12-30T11:21:17.000Z</Time>
            <Position>
              <LatitudeDegrees>40.79066078178584575653076171875</LatitudeDegrees>
              <LongitudeDegrees>-4.06083653680980205535888671875</LongitudeDegrees>
            </Position>
            <AltitudeMeters>1722.199951171875</AltitudeMeters>
            <DistanceMeters>NAN</DistanceMeters>
          </Trackpoint>
          <Trackpoint>
            <Time>2018-12-30T11:21:18.000Z</Time>
            <Position>
              <LatitudeDegrees>40.790666900575160980224609375</LatitudeDegrees>
              <LongitudeDegrees>-4.06083318404853343963623046875</LongitudeDegrees>
            </Position>
            <AltitudeMeters>1722.4000244140625</AltitudeMeters>
            <DistanceMeters>NAN</DistanceMeters>
          </Trackpoint>
          <Trackpoint>
            <Time>2018-12-30T11:21:19.000Z</Time>
            <Position>
              <LatitudeDegrees>40.79066480509936809539794921875</LatitudeDegrees>
              <LongitudeDegrees>-4.0608166716992855072021484375</LongitudeDegrees>
            </Position>
            <AltitudeMeters>1722.5999755859375</AltitudeMeters>
            <DistanceMeters>NAN</DistanceMeters>
          </Trackpoint>
          <Trackpoint>
            <Time>2018-12-30T11:21:20.000Z</Time>
            <Position>
              <LatitudeDegrees>40.7906660623848438262939453125</LatitudeDegrees>
              <LongitudeDegrees>-4.0608148276805877685546875</LongitudeDegrees>
            </Position>
            <AltitudeMeters>1722.5999755859375</AltitudeMeters>
            <DistanceMeters>NAN</DistanceMeters>
          </Trackpoint>
          <Trackpoint>
            <Time>2018-12-30T11:21:21.000Z</Time>
            <Position>
              <LatitudeDegrees>40.790667571127414703369140625</LatitudeDegrees>
              <LongitudeDegrees>-4.06081004999577999114990234375</LongitudeDegrees>
            </Position>
            <AltitudeMeters>1722.800048828125</AltitudeMeters>
            <DistanceMeters>NAN</DistanceMeters>
          </Trackpoint>
          <Trackpoint>
            <Time>2018-12-30T11:21:22.000Z</Time>
            <Position>
              <LatitudeDegrees>40.79066455364227294921875</LatitudeDegrees>
              <LongitudeDegrees>-4.06078825704753398895263671875</LongitudeDegrees>
            </Position>
            <AltitudeMeters>1722.800048828125</AltitudeMeters>
            <DistanceMeters>NAN</DistanceMeters>
          </Trackpoint>
          <Trackpoint>
            <Time>2018-12-30T11:21:23.000Z</Time>
            <Position>
              <LatitudeDegrees>40.7906700856983661651611328125</LatitudeDegrees>
              <LongitudeDegrees>-4.06078976579010486602783203125</LongitudeDegrees>
            </Position>
            <AltitudeMeters>1723.199951171875</AltitudeMeters>
            <DistanceMeters>NAN</DistanceMeters>
          </Trackpoint>
          <Trackpoint>
            <Time>2018-12-30T11:21:24.000Z</Time>
            <Position>
              <LatitudeDegrees>40.790670923888683319091796875</LatitudeDegrees>
              <LongitudeDegrees>-4.06079127453267574310302734375</LongitudeDegrees>
            </Position>
            <AltitudeMeters>1723.199951171875</AltitudeMeters>
            <DistanceMeters>NAN</DistanceMeters>
          </Trackpoint>
          <Trackpoint>
            <Time>2018-12-30T11:21:25.000Z</Time>
            <Position>
              <LatitudeDegrees>40.790676958858966827392578125</LatitudeDegrees>
              <LongitudeDegrees>-4.06079211272299289703369140625</LongitudeDegrees>
            </Position>
            <AltitudeMeters>1723.4000244140625</AltitudeMeters>
            <DistanceMeters>NAN</DistanceMeters>
          </Trackpoint>
          <Trackpoint>
            <Time>2018-12-30T11:21:26.000Z</Time>
            <Position>
              <LatitudeDegrees>40.790686346590518951416015625</LatitudeDegrees>
              <LongitudeDegrees>-4.0607968904078006744384765625</LongitudeDegrees>
            </Position>
            <AltitudeMeters>1723.800048828125</AltitudeMeters>
            <DistanceMeters>NAN</DistanceMeters>
          </Trackpoint>
          <Trackpoint>
            <Time>2018-12-30T11:21:27.000Z</Time>
            <Position>
              <LatitudeDegrees>40.79069145955145359039306640625</LatitudeDegrees>
              <LongitudeDegrees>-4.06079479493200778961181640625</LongitudeDegrees>
            </Position>
            <AltitudeMeters>1723.800048828125</AltitudeMeters>
            <DistanceMeters>NAN</DistanceMeters>
          </Trackpoint>
          <Trackpoint>
            <Time>2018-12-30T11:21:28.000Z</Time>
            <Position>
              <LatitudeDegrees>40.79070000909268856048583984375</LatitudeDegrees>
              <LongitudeDegrees>-4.06079680658876895904541015625</LongitudeDegrees>
            </Position>
            <AltitudeMeters>1724</AltitudeMeters>
            <DistanceMeters>NAN</DistanceMeters>
          </Trackpoint>
          <Trackpoint>
            <Time>2018-12-30T11:21:29.000Z</Time>
            <Position>
              <LatitudeDegrees>40.79070411622524261474609375</LatitudeDegrees>
              <LongitudeDegrees>-4.06079295091331005096435546875</LongitudeDegrees>
            </Position>
            <AltitudeMeters>1724</AltitudeMeters>
            <DistanceMeters>NAN</DistanceMeters>
          </Trackpoint>
          <Trackpoint>
            <Time>2018-12-30T11:21:30.000Z</Time>
            <Position>
              <LatitudeDegrees>40.790709145367145538330078125</LatitudeDegrees>
              <LongitudeDegrees>-4.0607906877994537353515625</LongitudeDegrees>
            </Position>
            <AltitudeMeters>1724.199951171875</AltitudeMeters>
            <DistanceMeters>NAN</DistanceMeters>
          </Trackpoint>
          <Trackpoint>
            <Time>2018-12-30T11:21:31.000Z</Time>
            <Position>
              <LatitudeDegrees>40.7907088100910186767578125</LatitudeDegrees>
              <LongitudeDegrees>-4.0607831440865993499755859375</LongitudeDegrees>
            </Position>
            <AltitudeMeters>1724.199951171875</AltitudeMeters>
            <DistanceMeters>NAN</DistanceMeters>
          </Trackpoint>
          <Trackpoint>
            <Time>2018-12-30T11:21:32.000Z</Time>
            <Position>
              <LatitudeDegrees>40.79071643762290477752685546875</LatitudeDegrees>
              <LongitudeDegrees>-4.06078356318175792694091796875</LongitudeDegrees>
            </Position>
            <AltitudeMeters>1724.4000244140625</AltitudeMeters>
            <DistanceMeters>NAN</DistanceMeters>
          </Trackpoint>
          <Trackpoint>
            <Time>2018-12-30T11:21:33.000Z</Time>
            <Position>
              <LatitudeDegrees>40.79072230495512485504150390625</LatitudeDegrees>
              <LongitudeDegrees>-4.06078465282917022705078125</LongitudeDegrees>
            </Position>
            <AltitudeMeters>1724.5999755859375</AltitudeMeters>
            <DistanceMeters>NAN</DistanceMeters>
          </Trackpoint>
          <Trackpoint>
            <Time>2018-12-30T11:21:34.000Z</Time>
            <Position>
              <LatitudeDegrees>40.7907334528863430023193359375</LatitudeDegrees>
              <LongitudeDegrees>-4.06078658066689968109130859375</LongitudeDegrees>
            </Position>
            <AltitudeMeters>1724.800048828125</AltitudeMeters>
            <DistanceMeters>NAN</DistanceMeters>
          </Trackpoint>
          <Trackpoint>
            <Time>2018-12-30T11:21:35.000Z</Time>
            <Position>
              <LatitudeDegrees>40.7907404936850070953369140625</LatitudeDegrees>
              <LongitudeDegrees>-4.060786664485931396484375</LongitudeDegrees>
            </Position>
            <AltitudeMeters>1725</AltitudeMeters>
            <DistanceMeters>NAN</DistanceMeters>
          </Trackpoint>
          <Trackpoint>
            <Time>2018-12-30T11:21:36.000Z</Time>
            <Position>
              <LatitudeDegrees>40.79074300825595855712890625</LatitudeDegrees>
              <LongitudeDegrees>-4.060783647000789642333984375</LongitudeDegrees>
            </Position>
            <AltitudeMeters>1725.4000244140625</AltitudeMeters>
            <DistanceMeters>NAN</DistanceMeters>
          </Trackpoint>
          <Trackpoint>
            <Time>2018-12-30T11:21:37.000Z</Time>
            <Position>
              <LatitudeDegrees>40.79074661247432231903076171875</LatitudeDegrees>
              <LongitudeDegrees>-4.06078289262950420379638671875</LongitudeDegrees>
            </Position>
            <AltitudeMeters>1725.199951171875</AltitudeMeters>
            <DistanceMeters>NAN</DistanceMeters>
          </Trackpoint>
          <Trackpoint>
            <Time>2018-12-30T11:21:38.000Z</Time>
            <Position>
              <LatitudeDegrees>40.790750049054622650146484375</LatitudeDegrees>
              <LongitudeDegrees>-4.060780294239521026611328125</LongitudeDegrees>
            </Position>
            <AltitudeMeters>1725.4000244140625</AltitudeMeters>
            <DistanceMeters>NAN</DistanceMeters>
          </Trackpoint>
          <Trackpoint>
            <Time>2018-12-30T11:21:39.000Z</Time>
            <Position>
              <LatitudeDegrees>40.79075348563492298126220703125</LatitudeDegrees>
              <LongitudeDegrees>-4.06077283434569835662841796875</LongitudeDegrees>
            </Position>
            <AltitudeMeters>1725.4000244140625</AltitudeMeters>
            <DistanceMeters>NAN</DistanceMeters>
          </Trackpoint>
          <Trackpoint>
            <Time>2018-12-30T11:21:40.000Z</Time>
            <Position>
              <LatitudeDegrees>40.79075851477682590484619140625</LatitudeDegrees>
              <LongitudeDegrees>-4.0607630275189876556396484375</LongitudeDegrees>
            </Position>
            <AltitudeMeters>1725.4000244140625</AltitudeMeters>
            <DistanceMeters>NAN</DistanceMeters>
          </Trackpoint>
          <Trackpoint>
            <Time>2018-12-30T11:21:41.000Z</Time>
            <Position>
              <LatitudeDegrees>40.7907678186893463134765625</LatitudeDegrees>
              <LongitudeDegrees>-4.060758836567401885986328125</LongitudeDegrees>
            </Position>
            <AltitudeMeters>1725.5999755859375</AltitudeMeters>
            <DistanceMeters>NAN</DistanceMeters>
          </Trackpoint>
          <Trackpoint>
            <Time>2018-12-30T11:21:42.000Z</Time>
            <Position>
              <LatitudeDegrees>40.7907780446112155914306640625</LatitudeDegrees>
              <LongitudeDegrees>-4.060757160186767578125</LongitudeDegrees>
            </Position>
            <AltitudeMeters>1725.5999755859375</AltitudeMeters>
            <DistanceMeters>NAN</DistanceMeters>
          </Trackpoint>
          <Trackpoint>
            <Time>2018-12-30T11:21:43.000Z</Time>
            <Position>
              <LatitudeDegrees>40.79078583978116512298583984375</LatitudeDegrees>
              <LongitudeDegrees>-4.0607576631009578704833984375</LongitudeDegrees>
            </Position>
            <AltitudeMeters>1725.5999755859375</AltitudeMeters>
            <DistanceMeters>NAN</DistanceMeters>
          </Trackpoint>
          <Trackpoint>
            <Time>2018-12-30T11:21:44.000Z</Time>
            <Position>
              <LatitudeDegrees>40.79079262912273406982421875</LatitudeDegrees>
              <LongitudeDegrees>-4.06075724400579929351806640625</LongitudeDegrees>
            </Position>
            <AltitudeMeters>1725.5999755859375</AltitudeMeters>
            <DistanceMeters>NAN</DistanceMeters>
          </Trackpoint>
          <Trackpoint>
            <Time>2018-12-30T11:21:45.000Z</Time>
            <Position>
              <LatitudeDegrees>40.79079925082623958587646484375</LatitudeDegrees>
              <LongitudeDegrees>-4.06075640581548213958740234375</LongitudeDegrees>
            </Position>
            <AltitudeMeters>1725.800048828125</AltitudeMeters>
            <DistanceMeters>NAN</DistanceMeters>
          </Trackpoint>
          <Trackpoint>
            <Time>2018-12-30T11:21:46.000Z</Time>
            <Position>
              <LatitudeDegrees>40.79080578871071338653564453125</LatitudeDegrees>
              <LongitudeDegrees>-4.0607585012912750244140625</LongitudeDegrees>
            </Position>
            <AltitudeMeters>1726</AltitudeMeters>
            <DistanceMeters>NAN</DistanceMeters>
          </Trackpoint>
          <Trackpoint>
            <Time>2018-12-30T11:21:47.000Z</Time>
            <Position>
              <LatitudeDegrees>40.79080763272941112518310546875</LatitudeDegrees>
              <LongitudeDegrees>-4.06075992621481418609619140625</LongitudeDegrees>
            </Position>
            <AltitudeMeters>1726</AltitudeMeters>
            <DistanceMeters>NAN</DistanceMeters>
          </Trackpoint>
          <Trackpoint>
            <Time>2018-12-30T11:21:48.000Z</Time>
            <Position>
              <LatitudeDegrees>40.79080604016780853271484375</LatitudeDegrees>
              <LongitudeDegrees>-4.06076252460479736328125</LongitudeDegrees>
            </Position>
            <AltitudeMeters>1726.199951171875</AltitudeMeters>
            <DistanceMeters>NAN</DistanceMeters>
          </Trackpoint>
          <Trackpoint>
            <Time>2018-12-30T11:21:49.000Z</Time>
            <Position>
              <LatitudeDegrees>40.7908085547387599945068359375</LatitudeDegrees>
              <LongitudeDegrees>-4.0607650391757488250732421875</LongitudeDegrees>
            </Position>
            <AltitudeMeters>1726.199951171875</AltitudeMeters>
            <DistanceMeters>NAN</DistanceMeters>
          </Trackpoint>
          <Trackpoint>
            <Time>2018-12-30T11:21:50.000Z</Time>
            <Position>
              <LatitudeDegrees>40.7908134162425994873046875</LatitudeDegrees>
              <LongitudeDegrees>-4.06076319515705108642578125</LongitudeDegrees>
            </Position>
            <AltitudeMeters>1726.199951171875</AltitudeMeters>
            <DistanceMeters>NAN</DistanceMeters>
          </Trackpoint>
          <Trackpoint>
            <Time>2018-12-30T11:21:51.000Z</Time>
            <Position>
              <LatitudeDegrees>40.79082154668867588043212890625</LatitudeDegrees>
              <LongitudeDegrees>-4.06076244078576564788818359375</LongitudeDegrees>
            </Position>
            <AltitudeMeters>1726.4000244140625</AltitudeMeters>
            <DistanceMeters>NAN</DistanceMeters>
          </Trackpoint>
          <Trackpoint>
            <Time>2018-12-30T11:21:52.000Z</Time>
            <Position>
              <LatitudeDegrees>40.790827162563800811767578125</LatitudeDegrees>
              <LongitudeDegrees>-4.06076143495738506317138671875</LongitudeDegrees>
            </Position>
            <AltitudeMeters>1726.4000244140625</AltitudeMeters>
            <DistanceMeters>NAN</DistanceMeters>
          </Trackpoint>
          <Trackpoint>
            <Time>2018-12-30T11:21:53.000Z</Time>
            <Position>
              <LatitudeDegrees>40.7908320240676403045654296875</LatitudeDegrees>
              <LongitudeDegrees>-4.06076277606189250946044921875</LongitudeDegrees>
            </Position>
            <AltitudeMeters>1726.5999755859375</AltitudeMeters>
            <DistanceMeters>NAN</DistanceMeters>
          </Trackpoint>
          <Trackpoint>
            <Time>2018-12-30T11:21:54.000Z</Time>
            <Position>
              <LatitudeDegrees>40.7908404059708118438720703125</LatitudeDegrees>
              <LongitudeDegrees>-4.06076512299478054046630859375</LongitudeDegrees>
            </Position>
            <AltitudeMeters>1726.5999755859375</AltitudeMeters>
            <DistanceMeters>NAN</DistanceMeters>
          </Trackpoint>
          <Trackpoint>
            <Time>2018-12-30T11:21:55.000Z</Time>
            <Position>
              <LatitudeDegrees>40.790846608579158782958984375</LatitudeDegrees>
              <LongitudeDegrees>-4.06076864339411258697509765625</LongitudeDegrees>
            </Position>
            <AltitudeMeters>1726.5999755859375</AltitudeMeters>
            <DistanceMeters>NAN</DistanceMeters>
          </Trackpoint>
          <Trackpoint>
            <Time>2018-12-30T11:21:56.000Z</Time>
            <Position>
              <LatitudeDegrees>40.79085038043558597564697265625</LatitudeDegrees>
              <LongitudeDegrees>-4.06076612882316112518310546875</LongitudeDegrees>
            </Position>
            <AltitudeMeters>1726.800048828125</AltitudeMeters>
            <DistanceMeters>NAN</DistanceMeters>
          </Trackpoint>
          <Trackpoint>
            <Time>2018-12-30T11:21:57.000Z</Time>
            <Position>
              <LatitudeDegrees>40.7908501289784908294677734375</LatitudeDegrees>
              <LongitudeDegrees>-4.06076344661414623260498046875</LongitudeDegrees>
            </Position>
            <AltitudeMeters>1727</AltitudeMeters>
            <DistanceMeters>NAN</DistanceMeters>
          </Trackpoint>
          <Trackpoint>
            <Time>2018-12-30T11:21:58.000Z</Time>
            <Position>
              <LatitudeDegrees>40.79085297882556915283203125</LatitudeDegrees>
              <LongitudeDegrees>-4.0607636980712413787841796875</LongitudeDegrees>
            </Position>
            <AltitudeMeters>1727</AltitudeMeters>
            <DistanceMeters>NAN</DistanceMeters>
          </Trackpoint>
          <Trackpoint>
            <Time>2018-12-30T11:21:59.000Z</Time>
            <Position>
              <LatitudeDegrees>40.7908554933965206146240234375</LatitudeDegrees>
              <LongitudeDegrees>-4.06076445244252681732177734375</LongitudeDegrees>
            </Position>
            <AltitudeMeters>1727.199951171875</AltitudeMeters>
            <DistanceMeters>NAN</DistanceMeters>
          </Trackpoint>
          <Trackpoint>
            <Time>2018-12-30T11:22:00.000Z</Time>
            <Position>
              <LatitudeDegrees>40.7908601872622966766357421875</LatitudeDegrees>
              <LongitudeDegrees>-4.06076881103217601776123046875</LongitudeDegrees>
            </Position>
            <AltitudeMeters>1727.199951171875</AltitudeMeters>
            <DistanceMeters>NAN</DistanceMeters>
          </Trackpoint>
          <Trackpoint>
            <Time>2018-12-30T11:22:01.000Z</Time>
            <Position>
              <LatitudeDegrees>40.79087569378316402435302734375</LatitudeDegrees>
              <LongitudeDegrees>-4.06077467836439609527587890625</LongitudeDegrees>
            </Position>
            <AltitudeMeters>1727.199951171875</AltitudeMeters>
            <DistanceMeters>NAN</DistanceMeters>
          </Trackpoint>
          <Trackpoint>
            <Time>2018-12-30T11:22:02.000Z</Time>
            <Position>
              <LatitudeDegrees>40.79089346341788768768310546875</LatitudeDegrees>
              <LongitudeDegrees>-4.06077719293534755706787109375</LongitudeDegrees>
            </Position>
            <AltitudeMeters>1727.199951171875</AltitudeMeters>
            <DistanceMeters>NAN</DistanceMeters>
          </Trackpoint>
          <Trackpoint>
            <Time>2018-12-30T11:22:03.000Z</Time>
            <Position>
              <LatitudeDegrees>40.7908997498452663421630859375</LatitudeDegrees>
              <LongitudeDegrees>-4.060776941478252410888671875</LongitudeDegrees>
            </Position>
            <AltitudeMeters>1727.199951171875</AltitudeMeters>
            <DistanceMeters>NAN</DistanceMeters>
          </Trackpoint>
          <Trackpoint>
            <Time>2018-12-30T11:22:04.000Z</Time>
            <Position>
              <LatitudeDegrees>40.7909004203975200653076171875</LatitudeDegrees>
              <LongitudeDegrees>-4.06077736057341098785400390625</LongitudeDegrees>
            </Position>
            <AltitudeMeters>1727.199951171875</AltitudeMeters>
            <DistanceMeters>NAN</DistanceMeters>
          </Trackpoint>
          <Trackpoint>
            <Time>2018-12-30T11:22:05.000Z</Time>
            <Position>
              <LatitudeDegrees>40.7909054495394229888916015625</LatitudeDegrees>
              <LongitudeDegrees>-4.06078037805855274200439453125</LongitudeDegrees>
            </Position>
            <AltitudeMeters>1727.199951171875</AltitudeMeters>
            <DistanceMeters>NAN</DistanceMeters>
          </Trackpoint>
          <Trackpoint>
            <Time>2018-12-30T11:22:06.000Z</Time>
            <Position>
              <LatitudeDegrees>40.7909108139574527740478515625</LatitudeDegrees>
              <LongitudeDegrees>-4.06077853403985500335693359375</LongitudeDegrees>
            </Position>
            <AltitudeMeters>1727.199951171875</AltitudeMeters>
            <DistanceMeters>NAN</DistanceMeters>
          </Trackpoint>
          <Trackpoint>
            <Time>2018-12-30T11:22:07.000Z</Time>
            <Position>
              <LatitudeDegrees>40.79091458581387996673583984375</LatitudeDegrees>
              <LongitudeDegrees>-4.0607772767543792724609375</LongitudeDegrees>
            </Position>
            <AltitudeMeters>1727.199951171875</AltitudeMeters>
            <DistanceMeters>NAN</DistanceMeters>
          </Trackpoint>
          <Trackpoint>
            <Time>2018-12-30T11:22:08.000Z</Time>
            <Position>
              <LatitudeDegrees>40.7909111492335796356201171875</LatitudeDegrees>
              <LongitudeDegrees>-4.06077283434569835662841796875</LongitudeDegrees>
            </Position>
            <AltitudeMeters>1727</AltitudeMeters>
            <DistanceMeters>NAN</DistanceMeters>
          </Trackpoint>
          <Trackpoint>
            <Time>2018-12-30T11:22:09.000Z</Time>
            <Position>
              <LatitudeDegrees>40.790910981595516204833984375</LatitudeDegrees>
              <LongitudeDegrees>-4.0607673861086368560791015625</LongitudeDegrees>
            </Position>
            <AltitudeMeters>1727</AltitudeMeters>
            <DistanceMeters>NAN</DistanceMeters>
          </Trackpoint>
          <Trackpoint>
            <Time>2018-12-30T11:22:10.000Z</Time>
            <Position>
              <LatitudeDegrees>40.79091274179518222808837890625</LatitudeDegrees>
              <LongitudeDegrees>-4.06076244078576564788818359375</LongitudeDegrees>
            </Position>
            <AltitudeMeters>1727</AltitudeMeters>
            <DistanceMeters>NAN</DistanceMeters>
          </Trackpoint>
          <Trackpoint>
            <Time>2018-12-30T11:22:11.000Z</Time>
            <Position>
              <LatitudeDegrees>40.7909181900322437286376953125</LatitudeDegrees>
              <LongitudeDegrees>-4.06075573526322841644287109375</LongitudeDegrees>
            </Position>
            <AltitudeMeters>1727</AltitudeMeters>
            <DistanceMeters>NAN</DistanceMeters>
          </Trackpoint>
          <Trackpoint>
            <Time>2018-12-30T11:22:12.000Z</Time>
            <Position>
              <LatitudeDegrees>40.7909207046031951904296875</LatitudeDegrees>
              <LongitudeDegrees>-4.06075271777808666229248046875</LongitudeDegrees>
            </Position>
            <AltitudeMeters>1727.199951171875</AltitudeMeters>
            <DistanceMeters>NAN</DistanceMeters>
          </Trackpoint>
          <Trackpoint>
            <Time>2018-12-30T11:22:13.000Z</Time>
            <Position>
              <LatitudeDegrees>40.79092246480286121368408203125</LatitudeDegrees>
              <LongitudeDegrees>-4.06074467115104198455810546875</LongitudeDegrees>
            </Position>
            <AltitudeMeters>1727.199951171875</AltitudeMeters>
            <DistanceMeters>NAN</DistanceMeters>
          </Trackpoint>
          <Trackpoint>
            <Time>2018-12-30T11:22:14.000Z</Time>
            <Position>
              <LatitudeDegrees>40.7909265719354152679443359375</LatitudeDegrees>
              <LongitudeDegrees>-4.0607358701527118682861328125</LongitudeDegrees>
            </Position>
            <AltitudeMeters>1727.4000244140625</AltitudeMeters>
            <DistanceMeters>NAN</DistanceMeters>
          </Trackpoint>
          <Trackpoint>
            <Time>2018-12-30T11:22:15.000Z</Time>
            <Position>
              <LatitudeDegrees>40.79092883504927158355712890625</LatitudeDegrees>
              <LongitudeDegrees>-4.0607294999063014984130859375</LongitudeDegrees>
            </Position>
            <AltitudeMeters>1727.5999755859375</AltitudeMeters>
            <DistanceMeters>NAN</DistanceMeters>
          </Trackpoint>
          <Trackpoint>
            <Time>2018-12-30T11:22:16.000Z</Time>
            <Position>
              <LatitudeDegrees>40.79092942178249359130859375</LatitudeDegrees>
              <LongitudeDegrees>-4.06072053126990795135498046875</LongitudeDegrees>
            </Position>
            <AltitudeMeters>1728</AltitudeMeters>
            <DistanceMeters>NAN</DistanceMeters>
          </Trackpoint>
          <Trackpoint>
            <Time>2018-12-30T11:22:17.000Z</Time>
            <Position>
              <LatitudeDegrees>40.79092866741120815277099609375</LatitudeDegrees>
              <LongitudeDegrees>-4.0607100538909435272216796875</LongitudeDegrees>
            </Position>
            <AltitudeMeters>1728.4000244140625</AltitudeMeters>
            <DistanceMeters>NAN</DistanceMeters>
          </Trackpoint>
          <Trackpoint>
            <Time>2018-12-30T11:22:18.000Z</Time>
            <Position>
              <LatitudeDegrees>40.79092229716479778289794921875</LatitudeDegrees>
              <LongitudeDegrees>-4.06069421209394931793212890625</LongitudeDegrees>
            </Position>
            <AltitudeMeters>1728.5999755859375</AltitudeMeters>
            <DistanceMeters>NAN</DistanceMeters>
          </Trackpoint>
          <Trackpoint>
            <Time>2018-12-30T11:22:19.000Z</Time>
            <Position>
              <LatitudeDegrees>40.79091760329902172088623046875</LatitudeDegrees>
              <LongitudeDegrees>-4.060688428580760955810546875</LongitudeDegrees>
            </Position>
            <AltitudeMeters>1728.800048828125</AltitudeMeters>
            <DistanceMeters>NAN</DistanceMeters>
          </Trackpoint>
          <Trackpoint>
            <Time>2018-12-30T11:22:20.000Z</Time>
            <Position>
              <LatitudeDegrees>40.79091064631938934326171875</LatitudeDegrees>
              <LongitudeDegrees>-4.06067736446857452392578125</LongitudeDegrees>
            </Position>
            <AltitudeMeters>1728.800048828125</AltitudeMeters>
            <DistanceMeters>NAN</DistanceMeters>
          </Trackpoint>
          <Trackpoint>
            <Time>2018-12-30T11:22:21.000Z</Time>
            <Position>
              <LatitudeDegrees>40.79090704210102558135986328125</LatitudeDegrees>
              <LongitudeDegrees>-4.060662947595119476318359375</LongitudeDegrees>
            </Position>
            <AltitudeMeters>1729</AltitudeMeters>
            <DistanceMeters>NAN</DistanceMeters>
          </Trackpoint>
          <Trackpoint>
            <Time>2018-12-30T11:22:22.000Z</Time>
            <Position>
              <LatitudeDegrees>40.79090788029134273529052734375</LatitudeDegrees>
              <LongitudeDegrees>-4.06065230257809162139892578125</LongitudeDegrees>
            </Position>
            <AltitudeMeters>1729.199951171875</AltitudeMeters>
            <DistanceMeters>NAN</DistanceMeters>
          </Trackpoint>
          <Trackpoint>
            <Time>2018-12-30T11:22:23.000Z</Time>
            <Position>
              <LatitudeDegrees>40.79091140069067478179931640625</LatitudeDegrees>
              <LongitudeDegrees>-4.06064425595104694366455078125</LongitudeDegrees>
            </Position>
            <AltitudeMeters>1729.4000244140625</AltitudeMeters>
            <DistanceMeters>NAN</DistanceMeters>
          </Trackpoint>
          <Trackpoint>
            <Time>2018-12-30T11:22:24.000Z</Time>
            <Position>
              <LatitudeDegrees>40.79091374762356281280517578125</LatitudeDegrees>
              <LongitudeDegrees>-4.06063579022884368896484375</LongitudeDegrees>
            </Position>
            <AltitudeMeters>1729.800048828125</AltitudeMeters>
            <DistanceMeters>NAN</DistanceMeters>
          </Trackpoint>
          <Trackpoint>
            <Time>2018-12-30T11:22:25.000Z</Time>
            <Position>
              <LatitudeDegrees>40.7909191958606243133544921875</LatitudeDegrees>
              <LongitudeDegrees>-4.060629419982433319091796875</LongitudeDegrees>
            </Position>
            <AltitudeMeters>1730</AltitudeMeters>
            <DistanceMeters>NAN</DistanceMeters>
          </Trackpoint>
          <Trackpoint>
            <Time>2018-12-30T11:22:26.000Z</Time>
            <Position>
              <LatitudeDegrees>40.7909233868122100830078125</LatitudeDegrees>
              <LongitudeDegrees>-4.06062464229762554168701171875</LongitudeDegrees>
            </Position>
            <AltitudeMeters>1730.199951171875</AltitudeMeters>
            <DistanceMeters>NAN</DistanceMeters>
          </Trackpoint>
          <Trackpoint>
            <Time>2018-12-30T11:22:27.000Z</Time>
            <Position>
              <LatitudeDegrees>40.79093017615377902984619140625</LatitudeDegrees>
              <LongitudeDegrees>-4.06062061898410320281982421875</LongitudeDegrees>
            </Position>
            <AltitudeMeters>1730.4000244140625</AltitudeMeters>
            <DistanceMeters>NAN</DistanceMeters>
          </Trackpoint>
          <Trackpoint>
            <Time>2018-12-30T11:22:28.000Z</Time>
            <Position>
              <LatitudeDegrees>40.79093671403825283050537109375</LatitudeDegrees>
              <LongitudeDegrees>-4.06061776913702487945556640625</LongitudeDegrees>
            </Position>
            <AltitudeMeters>1730.5999755859375</AltitudeMeters>
            <DistanceMeters>NAN</DistanceMeters>
          </Trackpoint>
          <Trackpoint>
            <Time>2018-12-30T11:22:29.000Z</Time>
            <Position>
              <LatitudeDegrees>40.79094341956079006195068359375</LatitudeDegrees>
              <LongitudeDegrees>-4.06061592511832714080810546875</LongitudeDegrees>
            </Position>
            <AltitudeMeters>1731</AltitudeMeters>
            <DistanceMeters>NAN</DistanceMeters>
          </Trackpoint>
          <Trackpoint>
            <Time>2018-12-30T11:22:30.000Z</Time>
            <Position>
              <LatitudeDegrees>40.79094878397881984710693359375</LatitudeDegrees>
              <LongitudeDegrees>-4.06061190180480480194091796875</LongitudeDegrees>
            </Position>
            <AltitudeMeters>1731.199951171875</AltitudeMeters>
            <DistanceMeters>NAN</DistanceMeters>
          </Trackpoint>
          <Trackpoint>
            <Time>2018-12-30T11:22:31.000Z</Time>
            <Position>
              <LatitudeDegrees>40.79095046035945415496826171875</LatitudeDegrees>
              <LongitudeDegrees>-4.06060100533068180084228515625</LongitudeDegrees>
            </Position>
            <AltitudeMeters>1731.4000244140625</AltitudeMeters>
            <DistanceMeters>NAN</DistanceMeters>
          </Trackpoint>
          <Trackpoint>
            <Time>2018-12-30T11:22:32.000Z</Time>
            <Position>
              <LatitudeDegrees>40.79095398075878620147705078125</LatitudeDegrees>
              <LongitudeDegrees>-4.06059245578944683074951171875</LongitudeDegrees>
            </Position>
            <AltitudeMeters>1731.5999755859375</AltitudeMeters>
            <DistanceMeters>NAN</DistanceMeters>
          </Trackpoint>
          <Trackpoint>
            <Time>2018-12-30T11:22:33.000Z</Time>
            <Position>
              <LatitudeDegrees>40.79095892608165740966796875</LatitudeDegrees>
              <LongitudeDegrees>-4.0605846606194972991943359375</LongitudeDegrees>
            </Position>
            <AltitudeMeters>1731.5999755859375</AltitudeMeters>
            <DistanceMeters>NAN</DistanceMeters>
          </Trackpoint>
          <Trackpoint>
            <Time>2018-12-30T11:22:34.000Z</Time>
            <Position>
              <LatitudeDegrees>40.79096487723290920257568359375</LatitudeDegrees>
              <LongitudeDegrees>-4.06057770363986492156982421875</LongitudeDegrees>
            </Position>
            <AltitudeMeters>1731.800048828125</AltitudeMeters>
            <DistanceMeters>NAN</DistanceMeters>
          </Trackpoint>
          <Trackpoint>
            <Time>2018-12-30T11:22:35.000Z</Time>
            <Position>
              <LatitudeDegrees>40.79096621833741664886474609375</LatitudeDegrees>
              <LongitudeDegrees>-4.06056999228894710540771484375</LongitudeDegrees>
            </Position>
            <AltitudeMeters>1732</AltitudeMeters>
            <DistanceMeters>NAN</DistanceMeters>
          </Trackpoint>
          <Trackpoint>
            <Time>2018-12-30T11:22:36.000Z</Time>
            <Position>
              <LatitudeDegrees>40.79096856527030467987060546875</LatitudeDegrees>
              <LongitudeDegrees>-4.06056295149028301239013671875</LongitudeDegrees>
            </Position>
            <AltitudeMeters>1732</AltitudeMeters>
            <DistanceMeters>NAN</DistanceMeters>
          </Trackpoint>
          <Trackpoint>
            <Time>2018-12-30T11:22:37.000Z</Time>
            <Position>
              <LatitudeDegrees>40.79097392968833446502685546875</LatitudeDegrees>
              <LongitudeDegrees>-4.06055909581482410430908203125</LongitudeDegrees>
            </Position>
            <AltitudeMeters>1732.199951171875</AltitudeMeters>
            <DistanceMeters>NAN</DistanceMeters>
          </Trackpoint>
          <Trackpoint>
            <Time>2018-12-30T11:22:38.000Z</Time>
            <Position>
              <LatitudeDegrees>40.79097560606896877288818359375</LatitudeDegrees>
              <LongitudeDegrees>-4.06055264174938201904296875</LongitudeDegrees>
            </Position>
            <AltitudeMeters>1732.4000244140625</AltitudeMeters>
            <DistanceMeters>NAN</DistanceMeters>
          </Trackpoint>
          <Trackpoint>
            <Time>2018-12-30T11:22:39.000Z</Time>
            <Position>
              <LatitudeDegrees>40.7909674756228923797607421875</LatitudeDegrees>
              <LongitudeDegrees>-4.06053118407726287841796875</LongitudeDegrees>
            </Position>
            <AltitudeMeters>1732.5999755859375</AltitudeMeters>
            <DistanceMeters>NAN</DistanceMeters>
          </Trackpoint>
          <Trackpoint>
            <Time>2018-12-30T11:22:40.000Z</Time>
            <Position>
              <LatitudeDegrees>40.7909704931080341339111328125</LatitudeDegrees>
              <LongitudeDegrees>-4.06052640639245510101318359375</LongitudeDegrees>
            </Position>
            <AltitudeMeters>1732.800048828125</AltitudeMeters>
            <DistanceMeters>NAN</DistanceMeters>
          </Trackpoint>
          <Trackpoint>
            <Time>2018-12-30T11:22:41.000Z</Time>
            <Position>
              <LatitudeDegrees>40.790974684059619903564453125</LatitudeDegrees>
              <LongitudeDegrees>-4.0605249814689159393310546875</LongitudeDegrees>
            </Position>
            <AltitudeMeters>1732.800048828125</AltitudeMeters>
            <DistanceMeters>NAN</DistanceMeters>
          </Trackpoint>
          <Trackpoint>
            <Time>2018-12-30T11:22:42.000Z</Time>
            <Position>
              <LatitudeDegrees>40.790978372097015380859375</LatitudeDegrees>
              <LongitudeDegrees>-4.06052439473569393157958984375</LongitudeDegrees>
            </Position>
            <AltitudeMeters>1732.800048828125</AltitudeMeters>
            <DistanceMeters>NAN</DistanceMeters>
          </Trackpoint>
          <Trackpoint>
            <Time>2018-12-30T11:22:43.000Z</Time>
            <Position>
              <LatitudeDegrees>40.7909839041531085968017578125</LatitudeDegrees>
              <LongitudeDegrees>-4.06052741222083568572998046875</LongitudeDegrees>
            </Position>
            <AltitudeMeters>1733</AltitudeMeters>
            <DistanceMeters>NAN</DistanceMeters>
          </Trackpoint>
          <Trackpoint>
            <Time>2018-12-30T11:22:44.000Z</Time>
            <Position>
              <LatitudeDegrees>40.790989100933074951171875</LatitudeDegrees>
              <LongitudeDegrees>-4.06052875332534313201904296875</LongitudeDegrees>
            </Position>
            <AltitudeMeters>1733</AltitudeMeters>
            <DistanceMeters>NAN</DistanceMeters>
          </Trackpoint>
          <Trackpoint>
            <Time>2018-12-30T11:22:45.000Z</Time>
            <Position>
              <LatitudeDegrees>40.790989436209201812744140625</LatitudeDegrees>
              <LongitudeDegrees>-4.060517437756061553955078125</LongitudeDegrees>
            </Position>
            <AltitudeMeters>1733.199951171875</AltitudeMeters>
            <DistanceMeters>NAN</DistanceMeters>
          </Trackpoint>
          <Trackpoint>
            <Time>2018-12-30T11:22:46.000Z</Time>
            <Position>
              <LatitudeDegrees>40.79099387861788272857666015625</LatitudeDegrees>
              <LongitudeDegrees>-4.06051198951900005340576171875</LongitudeDegrees>
            </Position>
            <AltitudeMeters>1733.4000244140625</AltitudeMeters>
            <DistanceMeters>NAN</DistanceMeters>
          </Trackpoint>
          <Trackpoint>
            <Time>2018-12-30T11:22:47.000Z</Time>
            <Position>
              <LatitudeDegrees>40.79099840484559535980224609375</LatitudeDegrees>
              <LongitudeDegrees>-4.06051215715706348419189453125</LongitudeDegrees>
            </Position>
            <AltitudeMeters>1733.4000244140625</AltitudeMeters>
            <DistanceMeters>NAN</DistanceMeters>
          </Trackpoint>
          <Trackpoint>
            <Time>2018-12-30T11:22:48.000Z</Time>
            <Position>
              <LatitudeDegrees>40.7910006679594516754150390625</LatitudeDegrees>
              <LongitudeDegrees>-4.06051249243319034576416015625</LongitudeDegrees>
            </Position>
            <AltitudeMeters>1733.5999755859375</AltitudeMeters>
            <DistanceMeters>NAN</DistanceMeters>
          </Trackpoint>
          <Trackpoint>
            <Time>2018-12-30T11:22:49.000Z</Time>
            <Position>
              <LatitudeDegrees>40.79100494273006916046142578125</LatitudeDegrees>
              <LongitudeDegrees>-4.06052003614604473114013671875</LongitudeDegrees>
            </Position>
            <AltitudeMeters>1733.800048828125</AltitudeMeters>
            <DistanceMeters>NAN</DistanceMeters>
          </Trackpoint>
          <Trackpoint>
            <Time>2018-12-30T11:22:50.000Z</Time>
            <Position>
              <LatitudeDegrees>40.791010893881320953369140625</LatitudeDegrees>
              <LongitudeDegrees>-4.06052825041115283966064453125</LongitudeDegrees>
            </Position>
            <AltitudeMeters>1734.199951171875</AltitudeMeters>
            <DistanceMeters>NAN</DistanceMeters>
          </Trackpoint>
          <Trackpoint>
            <Time>2018-12-30T11:22:51.000Z</Time>
            <Position>
              <LatitudeDegrees>40.79101751558482646942138671875</LatitudeDegrees>
              <LongitudeDegrees>-4.06053344719111919403076171875</LongitudeDegrees>
            </Position>
            <AltitudeMeters>1734.800048828125</AltitudeMeters>
            <DistanceMeters>NAN</DistanceMeters>
          </Trackpoint>
          <Trackpoint>
            <Time>2018-12-30T11:22:52.000Z</Time>
            <Position>
              <LatitudeDegrees>40.79102103598415851593017578125</LatitudeDegrees>
              <LongitudeDegrees>-4.06053730286657810211181640625</LongitudeDegrees>
            </Position>
            <AltitudeMeters>1735.199951171875</AltitudeMeters>
            <DistanceMeters>NAN</DistanceMeters>
          </Trackpoint>
          <Trackpoint>
            <Time>2018-12-30T11:22:53.000Z</Time>
            <Position>
              <LatitudeDegrees>40.791024304926395416259765625</LatitudeDegrees>
              <LongitudeDegrees>-4.06053981743752956390380859375</LongitudeDegrees>
            </Position>
            <AltitudeMeters>1735.4000244140625</AltitudeMeters>
            <DistanceMeters>NAN</DistanceMeters>
          </Trackpoint>
          <Trackpoint>
            <Time>2018-12-30T11:22:54.000Z</Time>
            <Position>
              <LatitudeDegrees>40.7910268194973468780517578125</LatitudeDegrees>
              <LongitudeDegrees>-4.060540236532688140869140625</LongitudeDegrees>
            </Position>
            <AltitudeMeters>1735.5999755859375</AltitudeMeters>
            <DistanceMeters>NAN</DistanceMeters>
          </Trackpoint>
          <Trackpoint>
            <Time>2018-12-30T11:22:55.000Z</Time>
            <Position>
              <LatitudeDegrees>40.79103159718215465545654296875</LatitudeDegrees>
              <LongitudeDegrees>-4.06054132618010044097900390625</LongitudeDegrees>
            </Position>
            <AltitudeMeters>1735.800048828125</AltitudeMeters>
            <DistanceMeters>NAN</DistanceMeters>
          </Trackpoint>
          <Trackpoint>
            <Time>2018-12-30T11:22:56.000Z</Time>
            <Position>
              <LatitudeDegrees>40.7910452596843242645263671875</LatitudeDegrees>
              <LongitudeDegrees>-4.060540236532688140869140625</LongitudeDegrees>
            </Position>
            <AltitudeMeters>1735.800048828125</AltitudeMeters>
            <DistanceMeters>NAN</DistanceMeters>
          </Trackpoint>
          <Trackpoint>
            <Time>2018-12-30T11:22:57.000Z</Time>
            <Position>
              <LatitudeDegrees>40.7910452596843242645263671875</LatitudeDegrees>
              <LongitudeDegrees>-4.060540236532688140869140625</LongitudeDegrees>
            </Position>
            <AltitudeMeters>1735.800048828125</AltitudeMeters>
            <DistanceMeters>NAN</DistanceMeters>
          </Trackpoint>
          <Trackpoint>
            <Time>2018-12-30T11:22:58.000Z</Time>
            <Position>
              <LatitudeDegrees>40.7910519652068614959716796875</LatitudeDegrees>
              <LongitudeDegrees>-4.06053864397108554840087890625</LongitudeDegrees>
            </Position>
            <AltitudeMeters>1735.5999755859375</AltitudeMeters>
            <DistanceMeters>NAN</DistanceMeters>
          </Trackpoint>
          <Trackpoint>
            <Time>2018-12-30T11:22:59.000Z</Time>
            <Position>
              <LatitudeDegrees>40.79105816781520843505859375</LatitudeDegrees>
              <LongitudeDegrees>-4.06053495593369007110595703125</LongitudeDegrees>
            </Position>
            <AltitudeMeters>1735.800048828125</AltitudeMeters>
            <DistanceMeters>NAN</DistanceMeters>
          </Trackpoint>
          <Trackpoint>
            <Time>2018-12-30T11:23:00.000Z</Time>
            <Position>
              <LatitudeDegrees>40.7910668849945068359375</LatitudeDegrees>
              <LongitudeDegrees>-4.06052959151566028594970703125</LongitudeDegrees>
            </Position>
            <AltitudeMeters>1735.800048828125</AltitudeMeters>
            <DistanceMeters>NAN</DistanceMeters>
          </Trackpoint>
          <Trackpoint>
            <Time>2018-12-30T11:23:01.000Z</Time>
            <Position>
              <LatitudeDegrees>40.791073255240917205810546875</LatitudeDegrees>
              <LongitudeDegrees>-4.06052439473569393157958984375</LongitudeDegrees>
            </Position>
            <AltitudeMeters>1735.800048828125</AltitudeMeters>
            <DistanceMeters>NAN</DistanceMeters>
          </Trackpoint>
          <Trackpoint>
            <Time>2018-12-30T11:23:02.000Z</Time>
            <Position>
              <LatitudeDegrees>40.791081301867961883544921875</LatitudeDegrees>
              <LongitudeDegrees>-4.0605239756405353546142578125</LongitudeDegrees>
            </Position>
            <AltitudeMeters>1735.5999755859375</AltitudeMeters>
            <DistanceMeters>NAN</DistanceMeters>
          </Trackpoint>
          <Trackpoint>
            <Time>2018-12-30T11:23:03.000Z</Time>
            <Position>
              <LatitudeDegrees>40.79108071513473987579345703125</LatitudeDegrees>
              <LongitudeDegrees>-4.0605182759463787078857421875</LongitudeDegrees>
            </Position>
            <AltitudeMeters>1735.5999755859375</AltitudeMeters>
            <DistanceMeters>NAN</DistanceMeters>
          </Trackpoint>
          <Trackpoint>
            <Time>2018-12-30T11:23:04.000Z</Time>
            <Position>
              <LatitudeDegrees>40.7910841517150402069091796875</LatitudeDegrees>
              <LongitudeDegrees>-4.0605149231851100921630859375</LongitudeDegrees>
            </Position>
            <AltitudeMeters>1735.800048828125</AltitudeMeters>
            <DistanceMeters>NAN</DistanceMeters>
          </Trackpoint>
          <Trackpoint>
            <Time>2018-12-30T11:23:05.000Z</Time>
            <Position>
              <LatitudeDegrees>40.7910883426666259765625</LatitudeDegrees>
              <LongitudeDegrees>-4.06050981022417545318603515625</LongitudeDegrees>
            </Position>
            <AltitudeMeters>1735.800048828125</AltitudeMeters>
            <DistanceMeters>NAN</DistanceMeters>
          </Trackpoint>
          <Trackpoint>
            <Time>2018-12-30T11:23:06.000Z</Time>
            <Position>
              <LatitudeDegrees>40.7910962216556072235107421875</LatitudeDegrees>
              <LongitudeDegrees>-4.06050612218677997589111328125</LongitudeDegrees>
            </Position>
            <AltitudeMeters>1735.800048828125</AltitudeMeters>
            <DistanceMeters>NAN</DistanceMeters>
          </Trackpoint>
          <Trackpoint>
            <Time>2018-12-30T11:23:07.000Z</Time>
            <Position>
              <LatitudeDegrees>40.79110418446362018585205078125</LatitudeDegrees>
              <LongitudeDegrees>-4.06050327233970165252685546875</LongitudeDegrees>
            </Position>
            <AltitudeMeters>1735.800048828125</AltitudeMeters>
            <DistanceMeters>NAN</DistanceMeters>
          </Trackpoint>
          <Trackpoint>
            <Time>2018-12-30T11:23:08.000Z</Time>
            <Position>
              <LatitudeDegrees>40.7911096327006816864013671875</LatitudeDegrees>
              <LongitudeDegrees>-4.06049497425556182861328125</LongitudeDegrees>
            </Position>
            <AltitudeMeters>1735.800048828125</AltitudeMeters>
            <DistanceMeters>NAN</DistanceMeters>
          </Trackpoint>
          <Trackpoint>
            <Time>2018-12-30T11:23:09.000Z</Time>
            <Position>
              <LatitudeDegrees>40.7911163382232189178466796875</LatitudeDegrees>
              <LongitudeDegrees>-4.06048919074237346649169921875</LongitudeDegrees>
            </Position>
            <AltitudeMeters>1735.800048828125</AltitudeMeters>
            <DistanceMeters>NAN</DistanceMeters>
          </Trackpoint>
          <Trackpoint>
            <Time>2018-12-30T11:23:10.000Z</Time>
            <Position>
              <LatitudeDegrees>40.7911227084696292877197265625</LatitudeDegrees>
              <LongitudeDegrees>-4.060481898486614227294921875</LongitudeDegrees>
            </Position>
            <AltitudeMeters>1736.199951171875</AltitudeMeters>
            <DistanceMeters>NAN</DistanceMeters>
          </Trackpoint>
          <Trackpoint>
            <Time>2018-12-30T11:23:11.000Z</Time>
            <Position>
              <LatitudeDegrees>40.79113000072538852691650390625</LatitudeDegrees>
              <LongitudeDegrees>-4.0604767017066478729248046875</LongitudeDegrees>
            </Position>
            <AltitudeMeters>1736.4000244140625</AltitudeMeters>
            <DistanceMeters>NAN</DistanceMeters>
          </Trackpoint>
          <Trackpoint>
            <Time>2018-12-30T11:23:12.000Z</Time>
            <Position>
              <LatitudeDegrees>40.791135616600513458251953125</LatitudeDegrees>
              <LongitudeDegrees>-4.06046940945088863372802734375</LongitudeDegrees>
            </Position>
            <AltitudeMeters>1736.800048828125</AltitudeMeters>
            <DistanceMeters>NAN</DistanceMeters>
          </Trackpoint>
          <Trackpoint>
            <Time>2018-12-30T11:23:13.000Z</Time>
            <Position>
              <LatitudeDegrees>40.7911352813243865966796875</LatitudeDegrees>
              <LongitudeDegrees>-4.0604554116725921630859375</LongitudeDegrees>
            </Position>
            <AltitudeMeters>1737</AltitudeMeters>
            <DistanceMeters>NAN</DistanceMeters>
          </Trackpoint>
          <Trackpoint>
            <Time>2018-12-30T11:23:14.000Z</Time>
            <Position>
              <LatitudeDegrees>40.79114223830401897430419921875</LatitudeDegrees>
              <LongitudeDegrees>-4.06045516021549701690673828125</LongitudeDegrees>
            </Position>
            <AltitudeMeters>1737</AltitudeMeters>
            <DistanceMeters>NAN</DistanceMeters>
          </Trackpoint>
          <Trackpoint>
            <Time>2018-12-30T11:23:15.000Z</Time>
            <Position>
              <LatitudeDegrees>40.79114726744592189788818359375</LatitudeDegrees>
              <LongitudeDegrees>-4.06045130454003810882568359375</LongitudeDegrees>
            </Position>
            <AltitudeMeters>1737.4000244140625</AltitudeMeters>
            <DistanceMeters>NAN</DistanceMeters>
          </Trackpoint>
          <Trackpoint>
            <Time>2018-12-30T11:23:16.000Z</Time>
            <Position>
              <LatitudeDegrees>40.79114793799817562103271484375</LatitudeDegrees>
              <LongitudeDegrees>-4.06044275499880313873291015625</LongitudeDegrees>
            </Position>
            <AltitudeMeters>1737.800048828125</AltitudeMeters>
            <DistanceMeters>NAN</DistanceMeters>
          </Trackpoint>
          <Trackpoint>
            <Time>2018-12-30T11:23:17.000Z</Time>
            <Position>
              <LatitudeDegrees>40.79115447588264942169189453125</LatitudeDegrees>
              <LongitudeDegrees>-4.06044007278978824615478515625</LongitudeDegrees>
            </Position>
            <AltitudeMeters>1737.800048828125</AltitudeMeters>
            <DistanceMeters>NAN</DistanceMeters>
          </Trackpoint>
          <Trackpoint>
            <Time>2018-12-30T11:23:18.000Z</Time>
            <Position>
              <LatitudeDegrees>40.7911612652242183685302734375</LatitudeDegrees>
              <LongitudeDegrees>-4.06043596565723419189453125</LongitudeDegrees>
            </Position>
            <AltitudeMeters>1738</AltitudeMeters>
            <DistanceMeters>NAN</DistanceMeters>
          </Trackpoint>
          <Trackpoint>
            <Time>2018-12-30T11:23:19.000Z</Time>
            <Position>
              <LatitudeDegrees>40.79117023386061191558837890625</LatitudeDegrees>
              <LongitudeDegrees>-4.06043462455272674560546875</LongitudeDegrees>
            </Position>
            <AltitudeMeters>1738.199951171875</AltitudeMeters>
            <DistanceMeters>NAN</DistanceMeters>
          </Trackpoint>
          <Trackpoint>
            <Time>2018-12-30T11:23:20.000Z</Time>
            <Position>
              <LatitudeDegrees>40.791176855564117431640625</LatitudeDegrees>
              <LongitudeDegrees>-4.06043420545756816864013671875</LongitudeDegrees>
            </Position>
            <AltitudeMeters>1738.4000244140625</AltitudeMeters>
            <DistanceMeters>NAN</DistanceMeters>
          </Trackpoint>
          <Trackpoint>
            <Time>2018-12-30T11:23:21.000Z</Time>
            <Position>
              <LatitudeDegrees>40.79118423163890838623046875</LatitudeDegrees>
              <LongitudeDegrees>-4.06043638475239276885986328125</LongitudeDegrees>
            </Position>
            <AltitudeMeters>1738.5999755859375</AltitudeMeters>
            <DistanceMeters>NAN</DistanceMeters>
          </Trackpoint>
          <Trackpoint>
            <Time>2018-12-30T11:23:22.000Z</Time>
            <Position>
              <LatitudeDegrees>40.79118984751403331756591796875</LatitudeDegrees>
              <LongitudeDegrees>-4.0604393184185028076171875</LongitudeDegrees>
            </Position>
            <AltitudeMeters>1738.800048828125</AltitudeMeters>
            <DistanceMeters>NAN</DistanceMeters>
          </Trackpoint>
          <Trackpoint>
            <Time>2018-12-30T11:23:23.000Z</Time>
            <Position>
              <LatitudeDegrees>40.791197307407855987548828125</LatitudeDegrees>
              <LongitudeDegrees>-4.06044141389429569244384765625</LongitudeDegrees>
            </Position>
            <AltitudeMeters>1739.199951171875</AltitudeMeters>
            <DistanceMeters>NAN</DistanceMeters>
          </Trackpoint>
          <Trackpoint>
            <Time>2018-12-30T11:23:24.000Z</Time>
            <Position>
              <LatitudeDegrees>40.7912018336355686187744140625</LatitudeDegrees>
              <LongitudeDegrees>-4.06043864786624908447265625</LongitudeDegrees>
            </Position>
            <AltitudeMeters>1739.800048828125</AltitudeMeters>
            <DistanceMeters>NAN</DistanceMeters>
          </Trackpoint>
          <Trackpoint>
            <Time>2018-12-30T11:23:25.000Z</Time>
            <Position>
              <LatitudeDegrees>40.79120493493974208831787109375</LatitudeDegrees>
              <LongitudeDegrees>-4.06043730676174163818359375</LongitudeDegrees>
            </Position>
            <AltitudeMeters>1740</AltitudeMeters>
            <DistanceMeters>NAN</DistanceMeters>
          </Trackpoint>
          <Trackpoint>
            <Time>2018-12-30T11:23:26.000Z</Time>
            <Position>
              <LatitudeDegrees>40.7912118919193744659423828125</LatitudeDegrees>
              <LongitudeDegrees>-4.0604398213326930999755859375</LongitudeDegrees>
            </Position>
            <AltitudeMeters>1740.4000244140625</AltitudeMeters>
            <DistanceMeters>NAN</DistanceMeters>
          </Trackpoint>
          <Trackpoint>
            <Time>2018-12-30T11:23:27.000Z</Time>
            <Position>
              <LatitudeDegrees>40.7912199385464191436767578125</LatitudeDegrees>
              <LongitudeDegrees>-4.06044309027493000030517578125</LongitudeDegrees>
            </Position>
            <AltitudeMeters>1740.4000244140625</AltitudeMeters>
            <DistanceMeters>NAN</DistanceMeters>
          </Trackpoint>
          <Trackpoint>
            <Time>2018-12-30T11:23:28.000Z</Time>
            <Position>
              <LatitudeDegrees>40.7912273146212100982666015625</LatitudeDegrees>
              <LongitudeDegrees>-4.060443006455898284912109375</LongitudeDegrees>
            </Position>
            <AltitudeMeters>1740.5999755859375</AltitudeMeters>
            <DistanceMeters>NAN</DistanceMeters>
          </Trackpoint>
          <Trackpoint>
            <Time>2018-12-30T11:23:29.000Z</Time>
            <Position>
              <LatitudeDegrees>40.79123443923890590667724609375</LatitudeDegrees>
              <LongitudeDegrees>-4.06044627539813518524169921875</LongitudeDegrees>
            </Position>
            <AltitudeMeters>1741</AltitudeMeters>
            <DistanceMeters>NAN</DistanceMeters>
          </Trackpoint>
          <Trackpoint>
            <Time>2018-12-30T11:23:30.000Z</Time>
            <Position>
              <LatitudeDegrees>40.7912383787333965301513671875</LatitudeDegrees>
              <LongitudeDegrees>-4.06044677831232547760009765625</LongitudeDegrees>
            </Position>
            <AltitudeMeters>1741.199951171875</AltitudeMeters>
            <DistanceMeters>NAN</DistanceMeters>
          </Trackpoint>
          <Trackpoint>
            <Time>2018-12-30T11:23:31.000Z</Time>
            <Position>
              <LatitudeDegrees>40.79124055802822113037109375</LatitudeDegrees>
              <LongitudeDegrees>-4.0604500472545623779296875</LongitudeDegrees>
            </Position>
            <AltitudeMeters>1741.5999755859375</AltitudeMeters>
            <DistanceMeters>NAN</DistanceMeters>
          </Trackpoint>
          <Trackpoint>
            <Time>2018-12-30T11:23:32.000Z</Time>
            <Position>
              <LatitudeDegrees>40.79124399460852146148681640625</LatitudeDegrees>
              <LongitudeDegrees>-4.06045314855873584747314453125</LongitudeDegrees>
            </Position>
            <AltitudeMeters>1741.800048828125</AltitudeMeters>
            <DistanceMeters>NAN</DistanceMeters>
          </Trackpoint>
          <Trackpoint>
            <Time>2018-12-30T11:23:33.000Z</Time>
            <Position>
              <LatitudeDegrees>40.791241563856601715087890625</LatitudeDegrees>
              <LongitudeDegrees>-4.0604580938816070556640625</LongitudeDegrees>
            </Position>
            <AltitudeMeters>1741.800048828125</AltitudeMeters>
            <DistanceMeters>NAN</DistanceMeters>
          </Trackpoint>
          <Trackpoint>
            <Time>2018-12-30T11:23:34.000Z</Time>
            <Position>
              <LatitudeDegrees>40.791239552199840545654296875</LatitudeDegrees>
              <LongitudeDegrees>-4.0604632906615734100341796875</LongitudeDegrees>
            </Position>
            <AltitudeMeters>1741.800048828125</AltitudeMeters>
            <DistanceMeters>NAN</DistanceMeters>
          </Trackpoint>
          <Trackpoint>
            <Time>2018-12-30T11:23:35.000Z</Time>
            <Position>
              <LatitudeDegrees>40.79123896546661853790283203125</LatitudeDegrees>
              <LongitudeDegrees>-4.06046949326992034912109375</LongitudeDegrees>
            </Position>
            <AltitudeMeters>1742</AltitudeMeters>
            <DistanceMeters>NAN</DistanceMeters>
          </Trackpoint>
          <Trackpoint>
            <Time>2018-12-30T11:23:36.000Z</Time>
            <Position>
              <LatitudeDegrees>40.79123594798147678375244140625</LatitudeDegrees>
              <LongitudeDegrees>-4.06047577969729900360107421875</LongitudeDegrees>
            </Position>
            <AltitudeMeters>1742</AltitudeMeters>
            <DistanceMeters>NAN</DistanceMeters>
          </Trackpoint>
          <Trackpoint>
            <Time>2018-12-30T11:23:37.000Z</Time>
            <Position>
              <LatitudeDegrees>40.79123728908598423004150390625</LatitudeDegrees>
              <LongitudeDegrees>-4.06048131175339221954345703125</LongitudeDegrees>
            </Position>
            <AltitudeMeters>1742.199951171875</AltitudeMeters>
            <DistanceMeters>NAN</DistanceMeters>
          </Trackpoint>
          <Trackpoint>
            <Time>2018-12-30T11:23:38.000Z</Time>
            <Position>
              <LatitudeDegrees>40.79123812727630138397216796875</LatitudeDegrees>
              <LongitudeDegrees>-4.0604854188859462738037109375</LongitudeDegrees>
            </Position>
            <AltitudeMeters>1742.4000244140625</AltitudeMeters>
            <DistanceMeters>NAN</DistanceMeters>
          </Trackpoint>
          <Trackpoint>
            <Time>2018-12-30T11:23:39.000Z</Time>
            <Position>
              <LatitudeDegrees>40.791238211095333099365234375</LatitudeDegrees>
              <LongitudeDegrees>-4.06049363315105438232421875</LongitudeDegrees>
            </Position>
            <AltitudeMeters>1742.5999755859375</AltitudeMeters>
            <DistanceMeters>NAN</DistanceMeters>
          </Trackpoint>
          <Trackpoint>
            <Time>2018-12-30T11:23:40.000Z</Time>
            <Position>
              <LatitudeDegrees>40.791238881647586822509765625</LatitudeDegrees>
              <LongitudeDegrees>-4.06050310470163822174072265625</LongitudeDegrees>
            </Position>
            <AltitudeMeters>1742.800048828125</AltitudeMeters>
            <DistanceMeters>NAN</DistanceMeters>
          </Trackpoint>
          <Trackpoint>
            <Time>2018-12-30T11:23:41.000Z</Time>
            <Position>
              <LatitudeDegrees>40.79123846255242824554443359375</LatitudeDegrees>
              <LongitudeDegrees>-4.06051383353769779205322265625</LongitudeDegrees>
            </Position>
            <AltitudeMeters>1742.800048828125</AltitudeMeters>
            <DistanceMeters>NAN</DistanceMeters>
          </Trackpoint>
          <Trackpoint>
            <Time>2018-12-30T11:23:42.000Z</Time>
            <Position>
              <LatitudeDegrees>40.7912372052669525146484375</LatitudeDegrees>
              <LongitudeDegrees>-4.0605197846889495849609375</LongitudeDegrees>
            </Position>
            <AltitudeMeters>1742.800048828125</AltitudeMeters>
            <DistanceMeters>NAN</DistanceMeters>
          </Trackpoint>
          <Trackpoint>
            <Time>2018-12-30T11:23:43.000Z</Time>
            <Position>
              <LatitudeDegrees>40.79124315641820430755615234375</LatitudeDegrees>
              <LongitudeDegrees>-4.0605278313159942626953125</LongitudeDegrees>
            </Position>
            <AltitudeMeters>1742.5999755859375</AltitudeMeters>
            <DistanceMeters>NAN</DistanceMeters>
          </Trackpoint>
          <Trackpoint>
            <Time>2018-12-30T11:23:44.000Z</Time>
            <Position>
              <LatitudeDegrees>40.7912444137036800384521484375</LatitudeDegrees>
              <LongitudeDegrees>-4.06052892096340656280517578125</LongitudeDegrees>
            </Position>
            <AltitudeMeters>1742.4000244140625</AltitudeMeters>
            <DistanceMeters>NAN</DistanceMeters>
          </Trackpoint>
          <Trackpoint>
            <Time>2018-12-30T11:23:45.000Z</Time>
            <Position>
              <LatitudeDegrees>40.79124500043690204620361328125</LatitudeDegrees>
              <LongitudeDegrees>-4.0605290047824382781982421875</LongitudeDegrees>
            </Position>
            <AltitudeMeters>1742.4000244140625</AltitudeMeters>
            <DistanceMeters>NAN</DistanceMeters>
          </Trackpoint>
          <Trackpoint>
            <Time>2018-12-30T11:23:46.000Z</Time>
            <Position>
              <LatitudeDegrees>40.79124391078948974609375</LatitudeDegrees>
              <LongitudeDegrees>-4.06052875332534313201904296875</LongitudeDegrees>
            </Position>
            <AltitudeMeters>1742.199951171875</AltitudeMeters>
            <DistanceMeters>NAN</DistanceMeters>
          </Trackpoint>
          <Trackpoint>
            <Time>2018-12-30T11:23:47.000Z</Time>
            <Position>
              <LatitudeDegrees>40.79124391078948974609375</LatitudeDegrees>
              <LongitudeDegrees>-4.060528837144374847412109375</LongitudeDegrees>
            </Position>
            <AltitudeMeters>1742.199951171875</AltitudeMeters>
            <DistanceMeters>NAN</DistanceMeters>
          </Trackpoint>
          <Trackpoint>
            <Time>2018-12-30T11:23:48.000Z</Time>
            <Position>
              <LatitudeDegrees>40.79124332405626773834228515625</LatitudeDegrees>
              <LongitudeDegrees>-4.060529172420501708984375</LongitudeDegrees>
            </Position>
            <AltitudeMeters>1742.199951171875</AltitudeMeters>
            <DistanceMeters>NAN</DistanceMeters>
          </Trackpoint>
          <Trackpoint>
            <Time>2018-12-30T11:23:49.000Z</Time>
            <Position>
              <LatitudeDegrees>40.79125019721686840057373046875</LatitudeDegrees>
              <LongitudeDegrees>-4.060537554323673248291015625</LongitudeDegrees>
            </Position>
            <AltitudeMeters>1742.199951171875</AltitudeMeters>
            <DistanceMeters>NAN</DistanceMeters>
          </Trackpoint>
          <Trackpoint>
            <Time>2018-12-30T11:23:50.000Z</Time>
            <Position>
              <LatitudeDegrees>40.79125388525426387786865234375</LatitudeDegrees>
              <LongitudeDegrees>-4.060542583465576171875</LongitudeDegrees>
            </Position>
            <AltitudeMeters>1742</AltitudeMeters>
            <DistanceMeters>NAN</DistanceMeters>
          </Trackpoint>
          <Trackpoint>
            <Time>2018-12-30T11:23:51.000Z</Time>
            <Position>
              <LatitudeDegrees>40.7912524603307247161865234375</LatitudeDegrees>
              <LongitudeDegrees>-4.06053562648594379425048828125</LongitudeDegrees>
            </Position>
            <AltitudeMeters>1742</AltitudeMeters>
            <DistanceMeters>NAN</DistanceMeters>
          </Trackpoint>
          <Trackpoint>
            <Time>2018-12-30T11:23:52.000Z</Time>
            <Position>
              <LatitudeDegrees>40.7912506163120269775390625</LatitudeDegrees>
              <LongitudeDegrees>-4.06053696759045124053955078125</LongitudeDegrees>
            </Position>
            <AltitudeMeters>1742.199951171875</AltitudeMeters>
            <DistanceMeters>NAN</DistanceMeters>
          </Trackpoint>
          <Trackpoint>
            <Time>2018-12-30T11:23:53.000Z</Time>
            <Position>
              <LatitudeDegrees>40.79125463962554931640625</LatitudeDegrees>
              <LongitudeDegrees>-4.0605373866856098175048828125</LongitudeDegrees>
            </Position>
            <AltitudeMeters>1742.199951171875</AltitudeMeters>
            <DistanceMeters>NAN</DistanceMeters>
          </Trackpoint>
          <Trackpoint>
            <Time>2018-12-30T11:23:54.000Z</Time>
            <Position>
              <LatitudeDegrees>40.79125463962554931640625</LatitudeDegrees>
              <LongitudeDegrees>-4.06054593622684478759765625</LongitudeDegrees>
            </Position>
            <AltitudeMeters>1742.199951171875</AltitudeMeters>
            <DistanceMeters>NAN</DistanceMeters>
          </Trackpoint>
          <Trackpoint>
            <Time>2018-12-30T11:23:55.000Z</Time>
            <Position>
              <LatitudeDegrees>40.79126008786261081695556640625</LatitudeDegrees>
              <LongitudeDegrees>-4.0605573356151580810546875</LongitudeDegrees>
            </Position>
            <AltitudeMeters>1742.199951171875</AltitudeMeters>
            <DistanceMeters>NAN</DistanceMeters>
          </Trackpoint>
          <Trackpoint>
            <Time>2018-12-30T11:23:56.000Z</Time>
            <Position>
              <LatitudeDegrees>40.79126193188130855560302734375</LatitudeDegrees>
              <LongitudeDegrees>-4.06056731007993221282958984375</LongitudeDegrees>
            </Position>
            <AltitudeMeters>1742.199951171875</AltitudeMeters>
            <DistanceMeters>NAN</DistanceMeters>
          </Trackpoint>
          <Trackpoint>
            <Time>2018-12-30T11:23:57.000Z</Time>
            <Position>
              <LatitudeDegrees>40.79126293770968914031982421875</LatitudeDegrees>
              <LongitudeDegrees>-4.0605742670595645904541015625</LongitudeDegrees>
            </Position>
            <AltitudeMeters>1742.4000244140625</AltitudeMeters>
            <DistanceMeters>NAN</DistanceMeters>
          </Trackpoint>
          <Trackpoint>
            <Time>2018-12-30T11:23:58.000Z</Time>
            <Position>
              <LatitudeDegrees>40.79126394353806972503662109375</LatitudeDegrees>
              <LongitudeDegrees>-4.06058055348694324493408203125</LongitudeDegrees>
            </Position>
            <AltitudeMeters>1742.4000244140625</AltitudeMeters>
            <DistanceMeters>NAN</DistanceMeters>
          </Trackpoint>
          <Trackpoint>
            <Time>2018-12-30T11:23:59.000Z</Time>
            <Position>
              <LatitudeDegrees>40.79126411117613315582275390625</LatitudeDegrees>
              <LongitudeDegrees>-4.06058893539011478424072265625</LongitudeDegrees>
            </Position>
            <AltitudeMeters>1742.4000244140625</AltitudeMeters>
            <DistanceMeters>NAN</DistanceMeters>
          </Trackpoint>
          <Trackpoint>
            <Time>2018-12-30T11:24:00.000Z</Time>
            <Position>
              <LatitudeDegrees>40.7912667095661163330078125</LatitudeDegrees>
              <LongitudeDegrees>-4.060595892369747161865234375</LongitudeDegrees>
            </Position>
            <AltitudeMeters>1742.4000244140625</AltitudeMeters>
            <DistanceMeters>NAN</DistanceMeters>
          </Trackpoint>
          <Trackpoint>
            <Time>2018-12-30T11:24:01.000Z</Time>
            <Position>
              <LatitudeDegrees>40.79126629047095775604248046875</LatitudeDegrees>
              <LongitudeDegrees>-4.060603268444538116455078125</LongitudeDegrees>
            </Position>
            <AltitudeMeters>1742.4000244140625</AltitudeMeters>
            <DistanceMeters>NAN</DistanceMeters>
          </Trackpoint>
          <Trackpoint>
            <Time>2018-12-30T11:24:02.000Z</Time>
            <Position>
              <LatitudeDegrees>40.7912658713757991790771484375</LatitudeDegrees>
              <LongitudeDegrees>-4.06060502864420413970947265625</LongitudeDegrees>
            </Position>
            <AltitudeMeters>1742.4000244140625</AltitudeMeters>
            <DistanceMeters>NAN</DistanceMeters>
          </Trackpoint>
          <Trackpoint>
            <Time>2018-12-30T11:24:03.000Z</Time>
            <Position>
              <LatitudeDegrees>40.7912645302712917327880859375</LatitudeDegrees>
              <LongitudeDegrees>-4.060607291758060455322265625</LongitudeDegrees>
            </Position>
            <AltitudeMeters>1742.4000244140625</AltitudeMeters>
            <DistanceMeters>NAN</DistanceMeters>
          </Trackpoint>
          <Trackpoint>
            <Time>2018-12-30T11:24:04.000Z</Time>
            <Position>
              <LatitudeDegrees>40.791263021528720855712890625</LatitudeDegrees>
              <LongitudeDegrees>-4.0606098063290119171142578125</LongitudeDegrees>
            </Position>
            <AltitudeMeters>1742.4000244140625</AltitudeMeters>
            <DistanceMeters>NAN</DistanceMeters>
          </Trackpoint>
          <Trackpoint>
            <Time>2018-12-30T11:24:05.000Z</Time>
            <Position>
              <LatitudeDegrees>40.791261680424213409423828125</LatitudeDegrees>
              <LongitudeDegrees>-4.06061173416674137115478515625</LongitudeDegrees>
            </Position>
            <AltitudeMeters>1742.4000244140625</AltitudeMeters>
            <DistanceMeters>NAN</DistanceMeters>
          </Trackpoint>
          <Trackpoint>
            <Time>2018-12-30T11:24:06.000Z</Time>
            <Position>
              <LatitudeDegrees>40.7912618480622768402099609375</LatitudeDegrees>
              <LongitudeDegrees>-4.06061475165188312530517578125</LongitudeDegrees>
            </Position>
            <AltitudeMeters>1742.4000244140625</AltitudeMeters>
            <DistanceMeters>NAN</DistanceMeters>
          </Trackpoint>
          <Trackpoint>
            <Time>2018-12-30T11:24:07.000Z</Time>
            <Position>
              <LatitudeDegrees>40.7912601716816425323486328125</LatitudeDegrees>
              <LongitudeDegrees>-4.06061927787959575653076171875</LongitudeDegrees>
            </Position>
            <AltitudeMeters>1742.4000244140625</AltitudeMeters>
            <DistanceMeters>NAN</DistanceMeters>
          </Trackpoint>
          <Trackpoint>
            <Time>2018-12-30T11:24:08.000Z</Time>
            <Position>
              <LatitudeDegrees>40.791257321834564208984375</LatitudeDegrees>
              <LongitudeDegrees>-4.0606235526502132415771484375</LongitudeDegrees>
            </Position>
            <AltitudeMeters>1742.199951171875</AltitudeMeters>
            <DistanceMeters>NAN</DistanceMeters>
          </Trackpoint>
          <Trackpoint>
            <Time>2018-12-30T11:24:09.000Z</Time>
            <Position>
              <LatitudeDegrees>40.79125556163489818572998046875</LatitudeDegrees>
              <LongitudeDegrees>-4.0606262348592281341552734375</LongitudeDegrees>
            </Position>
            <AltitudeMeters>1742.199951171875</AltitudeMeters>
            <DistanceMeters>NAN</DistanceMeters>
          </Trackpoint>
          <Trackpoint>
            <Time>2018-12-30T11:24:10.000Z</Time>
            <Position>
              <LatitudeDegrees>40.7912538014352321624755859375</LatitudeDegrees>
              <LongitudeDegrees>-4.06063034199178218841552734375</LongitudeDegrees>
            </Position>
            <AltitudeMeters>1742.199951171875</AltitudeMeters>
            <DistanceMeters>NAN</DistanceMeters>
          </Trackpoint>
          <Trackpoint>
            <Time>2018-12-30T11:24:11.000Z</Time>
            <Position>
              <LatitudeDegrees>40.791253633797168731689453125</LatitudeDegrees>
              <LongitudeDegrees>-4.0606312640011310577392578125</LongitudeDegrees>
            </Position>
            <AltitudeMeters>1742.199951171875</AltitudeMeters>
            <DistanceMeters>NAN</DistanceMeters>
          </Trackpoint>
          <Trackpoint>
            <Time>2018-12-30T11:24:12.000Z</Time>
            <Position>
              <LatitudeDegrees>40.7912541367113590240478515625</LatitudeDegrees>
              <LongitudeDegrees>-4.060631431639194488525390625</LongitudeDegrees>
            </Position>
            <AltitudeMeters>1742.199951171875</AltitudeMeters>
            <DistanceMeters>NAN</DistanceMeters>
          </Trackpoint>
          <Trackpoint>
            <Time>2018-12-30T11:24:13.000Z</Time>
            <Position>
              <LatitudeDegrees>40.79125505872070789337158203125</LatitudeDegrees>
              <LongitudeDegrees>-4.06063302420079708099365234375</LongitudeDegrees>
            </Position>
            <AltitudeMeters>1742.4000244140625</AltitudeMeters>
            <DistanceMeters>NAN</DistanceMeters>
          </Trackpoint>
          <Trackpoint>
            <Time>2018-12-30T11:24:14.000Z</Time>
            <Position>
              <LatitudeDegrees>40.79125438816845417022705078125</LatitudeDegrees>
              <LongitudeDegrees>-4.06063444912433624267578125</LongitudeDegrees>
            </Position>
            <AltitudeMeters>1742.5999755859375</AltitudeMeters>
            <DistanceMeters>NAN</DistanceMeters>
          </Trackpoint>
          <Trackpoint>
            <Time>2018-12-30T11:24:15.000Z</Time>
            <Position>
              <LatitudeDegrees>40.7912531308829784393310546875</LatitudeDegrees>
              <LongitudeDegrees>-4.0606351196765899658203125</LongitudeDegrees>
            </Position>
            <AltitudeMeters>1742.800048828125</AltitudeMeters>
            <DistanceMeters>NAN</DistanceMeters>
          </Trackpoint>
          <Trackpoint>
            <Time>2018-12-30T11:24:16.000Z</Time>
            <Position>
              <LatitudeDegrees>40.791254304349422454833984375</LatitudeDegrees>
              <LongitudeDegrees>-4.06063587404787540435791015625</LongitudeDegrees>
            </Position>
            <AltitudeMeters>1742.800048828125</AltitudeMeters>
            <DistanceMeters>NAN</DistanceMeters>
          </Trackpoint>
          <Trackpoint>
            <Time>2018-12-30T11:24:17.000Z</Time>
            <Position>
              <LatitudeDegrees>40.79125774092972278594970703125</LatitudeDegrees>
              <LongitudeDegrees>-4.0606366284191608428955078125</LongitudeDegrees>
            </Position>
            <AltitudeMeters>1742.800048828125</AltitudeMeters>
            <DistanceMeters>NAN</DistanceMeters>
          </Trackpoint>
          <Trackpoint>
            <Time>2018-12-30T11:24:18.000Z</Time>
            <Position>
              <LatitudeDegrees>40.79126067459583282470703125</LatitudeDegrees>
              <LongitudeDegrees>-4.0606326051056385040283203125</LongitudeDegrees>
            </Position>
            <AltitudeMeters>1742.800048828125</AltitudeMeters>
            <DistanceMeters>NAN</DistanceMeters>
          </Trackpoint>
          <Trackpoint>
            <Time>2018-12-30T11:24:19.000Z</Time>
            <Position>
              <LatitudeDegrees>40.79126696102321147918701171875</LatitudeDegrees>
              <LongitudeDegrees>-4.06062648631632328033447265625</LongitudeDegrees>
            </Position>
            <AltitudeMeters>1742.800048828125</AltitudeMeters>
            <DistanceMeters>NAN</DistanceMeters>
          </Trackpoint>
          <Trackpoint>
            <Time>2018-12-30T11:24:20.000Z</Time>
            <Position>
              <LatitudeDegrees>40.791270732879638671875</LatitudeDegrees>
              <LongitudeDegrees>-4.0606235526502132415771484375</LongitudeDegrees>
            </Position>
            <AltitudeMeters>1742.800048828125</AltitudeMeters>
            <DistanceMeters>NAN</DistanceMeters>
          </Trackpoint>
          <Trackpoint>
            <Time>2018-12-30T11:24:21.000Z</Time>
            <Position>
              <LatitudeDegrees>40.791277103126049041748046875</LatitudeDegrees>
              <LongitudeDegrees>-4.060620367527008056640625</LongitudeDegrees>
            </Position>
            <AltitudeMeters>1742.800048828125</AltitudeMeters>
            <DistanceMeters>NAN</DistanceMeters>
          </Trackpoint>
          <Trackpoint>
            <Time>2018-12-30T11:24:22.000Z</Time>
            <Position>
              <LatitudeDegrees>40.79128808341920375823974609375</LatitudeDegrees>
              <LongitudeDegrees>-4.06061299145221710205078125</LongitudeDegrees>
            </Position>
            <AltitudeMeters>1742.800048828125</AltitudeMeters>
            <DistanceMeters>NAN</DistanceMeters>
          </Trackpoint>
          <Trackpoint>
            <Time>2018-12-30T11:24:23.000Z</Time>
            <Position>
              <LatitudeDegrees>40.79129646532237529754638671875</LatitudeDegrees>
              <LongitudeDegrees>-4.0606037713587284088134765625</LongitudeDegrees>
            </Position>
            <AltitudeMeters>1743</AltitudeMeters>
            <DistanceMeters>NAN</DistanceMeters>
          </Trackpoint>
          <Trackpoint>
            <Time>2018-12-30T11:24:24.000Z</Time>
            <Position>
              <LatitudeDegrees>40.79131172038614749908447265625</LatitudeDegrees>
              <LongitudeDegrees>-4.06058474443852901458740234375</LongitudeDegrees>
            </Position>
            <AltitudeMeters>1743.199951171875</AltitudeMeters>
            <DistanceMeters>NAN</DistanceMeters>
          </Trackpoint>
          <Trackpoint>
            <Time>2018-12-30T11:24:25.000Z</Time>
            <Position>
              <LatitudeDegrees>40.7913201861083507537841796875</LatitudeDegrees>
              <LongitudeDegrees>-4.06057636253535747528076171875</LongitudeDegrees>
            </Position>
            <AltitudeMeters>1743.199951171875</AltitudeMeters>
            <DistanceMeters>NAN</DistanceMeters>
          </Trackpoint>
          <Trackpoint>
            <Time>2018-12-30T11:24:26.000Z</Time>
            <Position>
              <LatitudeDegrees>40.79132781364023685455322265625</LatitudeDegrees>
              <LongitudeDegrees>-4.060569740831851959228515625</LongitudeDegrees>
            </Position>
            <AltitudeMeters>1743.5999755859375</AltitudeMeters>
            <DistanceMeters>NAN</DistanceMeters>
          </Trackpoint>
          <Trackpoint>
            <Time>2018-12-30T11:24:27.000Z</Time>
            <Position>
              <LatitudeDegrees>40.79133451916277408599853515625</LatitudeDegrees>
              <LongitudeDegrees>-4.06056496314704418182373046875</LongitudeDegrees>
            </Position>
            <AltitudeMeters>1743.800048828125</AltitudeMeters>
            <DistanceMeters>NAN</DistanceMeters>
          </Trackpoint>
          <Trackpoint>
            <Time>2018-12-30T11:24:28.000Z</Time>
            <Position>
              <LatitudeDegrees>40.79134340398013591766357421875</LatitudeDegrees>
              <LongitudeDegrees>-4.06055993400514125823974609375</LongitudeDegrees>
            </Position>
            <AltitudeMeters>1744</AltitudeMeters>
            <DistanceMeters>NAN</DistanceMeters>
          </Trackpoint>
          <Trackpoint>
            <Time>2018-12-30T11:24:29.000Z</Time>
            <Position>
              <LatitudeDegrees>40.7913503609597682952880859375</LatitudeDegrees>
              <LongitudeDegrees>-4.06055398285388946533203125</LongitudeDegrees>
            </Position>
            <AltitudeMeters>1744.4000244140625</AltitudeMeters>
            <DistanceMeters>NAN</DistanceMeters>
          </Trackpoint>
          <Trackpoint>
            <Time>2018-12-30T11:24:30.000Z</Time>
            <Position>
              <LatitudeDegrees>40.79135455191135406494140625</LatitudeDegrees>
              <LongitudeDegrees>-4.060546942055225372314453125</LongitudeDegrees>
            </Position>
            <AltitudeMeters>1744.4000244140625</AltitudeMeters>
            <DistanceMeters>NAN</DistanceMeters>
          </Trackpoint>
          <Trackpoint>
            <Time>2018-12-30T11:24:31.000Z</Time>
            <Position>
              <LatitudeDegrees>40.79135865904390811920166015625</LatitudeDegrees>
              <LongitudeDegrees>-4.06054300256073474884033203125</LongitudeDegrees>
            </Position>
            <AltitudeMeters>1744.5999755859375</AltitudeMeters>
            <DistanceMeters>NAN</DistanceMeters>
          </Trackpoint>
          <Trackpoint>
            <Time>2018-12-30T11:24:32.000Z</Time>
            <Position>
              <LatitudeDegrees>40.791361592710018157958984375</LatitudeDegrees>
              <LongitudeDegrees>-4.06054032035171985626220703125</LongitudeDegrees>
            </Position>
            <AltitudeMeters>1744.800048828125</AltitudeMeters>
            <DistanceMeters>NAN</DistanceMeters>
          </Trackpoint>
          <Trackpoint>
            <Time>2018-12-30T11:24:33.000Z</Time>
            <Position>
              <LatitudeDegrees>40.79136385582387447357177734375</LatitudeDegrees>
              <LongitudeDegrees>-4.0605383925139904022216796875</LongitudeDegrees>
            </Position>
            <AltitudeMeters>1745</AltitudeMeters>
            <DistanceMeters>NAN</DistanceMeters>
          </Trackpoint>
          <Trackpoint>
            <Time>2018-12-30T11:24:34.000Z</Time>
            <Position>
              <LatitudeDegrees>40.79137056134641170501708984375</LatitudeDegrees>
              <LongitudeDegrees>-4.060533531010150909423828125</LongitudeDegrees>
            </Position>
            <AltitudeMeters>1745.4000244140625</AltitudeMeters>
            <DistanceMeters>NAN</DistanceMeters>
          </Trackpoint>
          <Trackpoint>
            <Time>2018-12-30T11:24:35.000Z</Time>
            <Position>
              <LatitudeDegrees>40.79137978143990039825439453125</LatitudeDegrees>
              <LongitudeDegrees>-4.06052791513502597808837890625</LongitudeDegrees>
            </Position>
            <AltitudeMeters>1745.5999755859375</AltitudeMeters>
            <DistanceMeters>NAN</DistanceMeters>
          </Trackpoint>
          <Trackpoint>
            <Time>2018-12-30T11:24:36.000Z</Time>
            <Position>
              <LatitudeDegrees>40.7913855649530887603759765625</LatitudeDegrees>
              <LongitudeDegrees>-4.06052858568727970123291015625</LongitudeDegrees>
            </Position>
            <AltitudeMeters>1746</AltitudeMeters>
            <DistanceMeters>NAN</DistanceMeters>
          </Trackpoint>
          <Trackpoint>
            <Time>2018-12-30T11:24:37.000Z</Time>
            <Position>
              <LatitudeDegrees>40.791393108665943145751953125</LatitudeDegrees>
              <LongitudeDegrees>-4.0605306811630725860595703125</LongitudeDegrees>
            </Position>
            <AltitudeMeters>1746.199951171875</AltitudeMeters>
            <DistanceMeters>NAN</DistanceMeters>
          </Trackpoint>
          <Trackpoint>
            <Time>2018-12-30T11:24:38.000Z</Time>
            <Position>
              <LatitudeDegrees>40.79140417277812957763671875</LatitudeDegrees>
              <LongitudeDegrees>-4.0605323575437068939208984375</LongitudeDegrees>
            </Position>
            <AltitudeMeters>1746.4000244140625</AltitudeMeters>
            <DistanceMeters>NAN</DistanceMeters>
          </Trackpoint>
          <Trackpoint>
            <Time>2018-12-30T11:24:39.000Z</Time>
            <Position>
              <LatitudeDegrees>40.7914130575954914093017578125</LatitudeDegrees>
              <LongitudeDegrees>-4.06053378246724605560302734375</LongitudeDegrees>
            </Position>
            <AltitudeMeters>1746.5999755859375</AltitudeMeters>
            <DistanceMeters>NAN</DistanceMeters>
          </Trackpoint>
          <Trackpoint>
            <Time>2018-12-30T11:24:40.000Z</Time>
            <Position>
              <LatitudeDegrees>40.7914368622004985809326171875</LatitudeDegrees>
              <LongitudeDegrees>-4.06053612940013408660888671875</LongitudeDegrees>
            </Position>
            <AltitudeMeters>1746.800048828125</AltitudeMeters>
            <DistanceMeters>NAN</DistanceMeters>
          </Trackpoint>
          <Trackpoint>
            <Time>2018-12-30T11:24:41.000Z</Time>
            <Position>
              <LatitudeDegrees>40.79144884832203388214111328125</LatitudeDegrees>
              <LongitudeDegrees>-4.0605333633720874786376953125</LongitudeDegrees>
            </Position>
            <AltitudeMeters>1747.199951171875</AltitudeMeters>
            <DistanceMeters>NAN</DistanceMeters>
          </Trackpoint>
          <Trackpoint>
            <Time>2018-12-30T11:24:42.000Z</Time>
            <Position>
              <LatitudeDegrees>40.7914522849023342132568359375</LatitudeDegrees>
              <LongitudeDegrees>-4.06052649021148681640625</LongitudeDegrees>
            </Position>
            <AltitudeMeters>1747.5999755859375</AltitudeMeters>
            <DistanceMeters>NAN</DistanceMeters>
          </Trackpoint>
          <Trackpoint>
            <Time>2018-12-30T11:24:43.000Z</Time>
            <Position>
              <LatitudeDegrees>40.7914536260068416595458984375</LatitudeDegrees>
              <LongitudeDegrees>-4.0605216287076473236083984375</LongitudeDegrees>
            </Position>
            <AltitudeMeters>1748</AltitudeMeters>
            <DistanceMeters>NAN</DistanceMeters>
          </Trackpoint>
          <Trackpoint>
            <Time>2018-12-30T11:24:44.000Z</Time>
            <Position>
              <LatitudeDegrees>40.79145236872136592864990234375</LatitudeDegrees>
              <LongitudeDegrees>-4.06051643192768096923828125</LongitudeDegrees>
            </Position>
            <AltitudeMeters>1748</AltitudeMeters>
            <DistanceMeters>NAN</DistanceMeters>
          </Trackpoint>
          <Trackpoint>
            <Time>2018-12-30T11:24:45.000Z</Time>
            <Position>
              <LatitudeDegrees>40.79145102761685848236083984375</LatitudeDegrees>
              <LongitudeDegrees>-4.06051148660480976104736328125</LongitudeDegrees>
            </Position>
            <AltitudeMeters>1748.199951171875</AltitudeMeters>
            <DistanceMeters>NAN</DistanceMeters>
          </Trackpoint>
          <Trackpoint>
            <Time>2018-12-30T11:24:46.000Z</Time>
            <Position>
              <LatitudeDegrees>40.79145002178847789764404296875</LatitudeDegrees>
              <LongitudeDegrees>-4.06050478108227252960205078125</LongitudeDegrees>
            </Position>
            <AltitudeMeters>1748.199951171875</AltitudeMeters>
            <DistanceMeters>NAN</DistanceMeters>
          </Trackpoint>
          <Trackpoint>
            <Time>2018-12-30T11:24:47.000Z</Time>
            <Position>
              <LatitudeDegrees>40.7914519496262073516845703125</LatitudeDegrees>
              <LongitudeDegrees>-4.06050193123519420623779296875</LongitudeDegrees>
            </Position>
            <AltitudeMeters>1748.4000244140625</AltitudeMeters>
            <DistanceMeters>NAN</DistanceMeters>
          </Trackpoint>
          <Trackpoint>
            <Time>2018-12-30T11:24:48.000Z</Time>
            <Position>
              <LatitudeDegrees>40.79145588912069797515869140625</LatitudeDegrees>
              <LongitudeDegrees>-4.06050209887325763702392578125</LongitudeDegrees>
            </Position>
            <AltitudeMeters>1748.5999755859375</AltitudeMeters>
            <DistanceMeters>NAN</DistanceMeters>
          </Trackpoint>
          <Trackpoint>
            <Time>2018-12-30T11:24:49.000Z</Time>
            <Position>
              <LatitudeDegrees>40.79146158881485462188720703125</LatitudeDegrees>
              <LongitudeDegrees>-4.06050243414938449859619140625</LongitudeDegrees>
            </Position>
            <AltitudeMeters>1749</AltitudeMeters>
            <DistanceMeters>NAN</DistanceMeters>
          </Trackpoint>
          <Trackpoint>
            <Time>2018-12-30T11:24:50.000Z</Time>
            <Position>
              <LatitudeDegrees>40.79146862961351871490478515625</LatitudeDegrees>
              <LongitudeDegrees>-4.06049790792167186737060546875</LongitudeDegrees>
            </Position>
            <AltitudeMeters>1749.199951171875</AltitudeMeters>
            <DistanceMeters>NAN</DistanceMeters>
          </Trackpoint>
          <Trackpoint>
            <Time>2018-12-30T11:24:51.000Z</Time>
            <Position>
              <LatitudeDegrees>40.79147835262119770050048828125</LatitudeDegrees>
              <LongitudeDegrees>-4.06049539335072040557861328125</LongitudeDegrees>
            </Position>
            <AltitudeMeters>1749.5999755859375</AltitudeMeters>
            <DistanceMeters>NAN</DistanceMeters>
          </Trackpoint>
          <Trackpoint>
            <Time>2018-12-30T11:24:52.000Z</Time>
            <Position>
              <LatitudeDegrees>40.7914891652762889862060546875</LatitudeDegrees>
              <LongitudeDegrees>-4.06049204058945178985595703125</LongitudeDegrees>
            </Position>
            <AltitudeMeters>1749.800048828125</AltitudeMeters>
            <DistanceMeters>NAN</DistanceMeters>
          </Trackpoint>
          <Trackpoint>
            <Time>2018-12-30T11:24:53.000Z</Time>
            <Position>
              <LatitudeDegrees>40.79149779863655567169189453125</LatitudeDegrees>
              <LongitudeDegrees>-4.06049237586557865142822265625</LongitudeDegrees>
            </Position>
            <AltitudeMeters>1750.199951171875</AltitudeMeters>
            <DistanceMeters>NAN</DistanceMeters>
          </Trackpoint>
          <Trackpoint>
            <Time>2018-12-30T11:24:54.000Z</Time>
            <Position>
              <LatitudeDegrees>40.7915039174258708953857421875</LatitudeDegrees>
              <LongitudeDegrees>-4.06049363315105438232421875</LongitudeDegrees>
            </Position>
            <AltitudeMeters>1750.4000244140625</AltitudeMeters>
            <DistanceMeters>NAN</DistanceMeters>
          </Trackpoint>
          <Trackpoint>
            <Time>2018-12-30T11:24:55.000Z</Time>
            <Position>
              <LatitudeDegrees>40.79150877892971038818359375</LatitudeDegrees>
              <LongitudeDegrees>-4.06049489043653011322021484375</LongitudeDegrees>
            </Position>
            <AltitudeMeters>1750.800048828125</AltitudeMeters>
            <DistanceMeters>NAN</DistanceMeters>
          </Trackpoint>
          <Trackpoint>
            <Time>2018-12-30T11:24:56.000Z</Time>
            <Position>
              <LatitudeDegrees>40.79151875339448451995849609375</LatitudeDegrees>
              <LongitudeDegrees>-4.06050578691065311431884765625</LongitudeDegrees>
            </Position>
            <AltitudeMeters>1751</AltitudeMeters>
            <DistanceMeters>NAN</DistanceMeters>
          </Trackpoint>
          <Trackpoint>
            <Time>2018-12-30T11:24:57.000Z</Time>
            <Position>
              <LatitudeDegrees>40.79152713529765605926513671875</LatitudeDegrees>
              <LongitudeDegrees>-4.0605155937373638153076171875</LongitudeDegrees>
            </Position>
            <AltitudeMeters>1751.199951171875</AltitudeMeters>
            <DistanceMeters>NAN</DistanceMeters>
          </Trackpoint>
          <Trackpoint>
            <Time>2018-12-30T11:24:58.000Z</Time>
            <Position>
              <LatitudeDegrees>40.79153635539114475250244140625</LatitudeDegrees>
              <LongitudeDegrees>-4.06051777303218841552734375</LongitudeDegrees>
            </Position>
            <AltitudeMeters>1751.4000244140625</AltitudeMeters>
            <DistanceMeters>NAN</DistanceMeters>
          </Trackpoint>
          <Trackpoint>
            <Time>2018-12-30T11:24:59.000Z</Time>
            <Position>
              <LatitudeDegrees>40.791544653475284576416015625</LatitudeDegrees>
              <LongitudeDegrees>-4.06051634810864925384521484375</LongitudeDegrees>
            </Position>
            <AltitudeMeters>1751.5999755859375</AltitudeMeters>
            <DistanceMeters>NAN</DistanceMeters>
          </Trackpoint>
          <Trackpoint>
            <Time>2018-12-30T11:25:00.000Z</Time>
            <Position>
              <LatitudeDegrees>40.79155311919748783111572265625</LatitudeDegrees>
              <LongitudeDegrees>-4.0605165995657444000244140625</LongitudeDegrees>
            </Position>
            <AltitudeMeters>1751.5999755859375</AltitudeMeters>
            <DistanceMeters>NAN</DistanceMeters>
          </Trackpoint>
          <Trackpoint>
            <Time>2018-12-30T11:25:01.000Z</Time>
            <Position>
              <LatitudeDegrees>40.79156435094773769378662109375</LatitudeDegrees>
              <LongitudeDegrees>-4.0605155937373638153076171875</LongitudeDegrees>
            </Position>
            <AltitudeMeters>1751.800048828125</AltitudeMeters>
            <DistanceMeters>NAN</DistanceMeters>
          </Trackpoint>
          <Trackpoint>
            <Time>2018-12-30T11:25:02.000Z</Time>
            <Position>
              <LatitudeDegrees>40.791573822498321533203125</LatitudeDegrees>
              <LongitudeDegrees>-4.06051643192768096923828125</LongitudeDegrees>
            </Position>
            <AltitudeMeters>1751.800048828125</AltitudeMeters>
            <DistanceMeters>NAN</DistanceMeters>
          </Trackpoint>
          <Trackpoint>
            <Time>2018-12-30T11:25:03.000Z</Time>
            <Position>
              <LatitudeDegrees>40.7915810309350490570068359375</LatitudeDegrees>
              <LongitudeDegrees>-4.06051550991833209991455078125</LongitudeDegrees>
            </Position>
            <AltitudeMeters>1752</AltitudeMeters>
            <DistanceMeters>NAN</DistanceMeters>
          </Trackpoint>
          <Trackpoint>
            <Time>2018-12-30T11:25:04.000Z</Time>
            <Position>
              <LatitudeDegrees>40.7915907539427280426025390625</LatitudeDegrees>
              <LongitudeDegrees>-4.06051333062350749969482421875</LongitudeDegrees>
            </Position>
            <AltitudeMeters>1752.4000244140625</AltitudeMeters>
            <DistanceMeters>NAN</DistanceMeters>
          </Trackpoint>
          <Trackpoint>
            <Time>2018-12-30T11:25:05.000Z</Time>
            <Position>
              <LatitudeDegrees>40.79159863293170928955078125</LatitudeDegrees>
              <LongitudeDegrees>-4.0605105645954608917236328125</LongitudeDegrees>
            </Position>
            <AltitudeMeters>1752.800048828125</AltitudeMeters>
            <DistanceMeters>NAN</DistanceMeters>
          </Trackpoint>
          <Trackpoint>
            <Time>2018-12-30T11:25:06.000Z</Time>
            <Position>
              <LatitudeDegrees>40.7916085235774517059326171875</LatitudeDegrees>
              <LongitudeDegrees>-4.060504697263240814208984375</LongitudeDegrees>
            </Position>
            <AltitudeMeters>1753.199951171875</AltitudeMeters>
            <DistanceMeters>NAN</DistanceMeters>
          </Trackpoint>
          <Trackpoint>
            <Time>2018-12-30T11:25:07.000Z</Time>
            <Position>
              <LatitudeDegrees>40.79161397181451320648193359375</LatitudeDegrees>
              <LongitudeDegrees>-4.06049623154103755950927734375</LongitudeDegrees>
            </Position>
            <AltitudeMeters>1753.5999755859375</AltitudeMeters>
            <DistanceMeters>NAN</DistanceMeters>
          </Trackpoint>
          <Trackpoint>
            <Time>2018-12-30T11:25:08.000Z</Time>
            <Position>
              <LatitudeDegrees>40.7916229404509067535400390625</LatitudeDegrees>
              <LongitudeDegrees>-4.0604887716472148895263671875</LongitudeDegrees>
            </Position>
            <AltitudeMeters>1754</AltitudeMeters>
            <DistanceMeters>NAN</DistanceMeters>
          </Trackpoint>
          <Trackpoint>
            <Time>2018-12-30T11:25:09.000Z</Time>
            <Position>
              <LatitudeDegrees>40.791624449193477630615234375</LatitudeDegrees>
              <LongitudeDegrees>-4.06047888100147247314453125</LongitudeDegrees>
            </Position>
            <AltitudeMeters>1754.4000244140625</AltitudeMeters>
            <DistanceMeters>NAN</DistanceMeters>
          </Trackpoint>
          <Trackpoint>
            <Time>2018-12-30T11:25:10.000Z</Time>
            <Position>
              <LatitudeDegrees>40.79162319190800189971923828125</LatitudeDegrees>
              <LongitudeDegrees>-4.0604773722589015960693359375</LongitudeDegrees>
            </Position>
            <AltitudeMeters>1754.4000244140625</AltitudeMeters>
            <DistanceMeters>NAN</DistanceMeters>
          </Trackpoint>
          <Trackpoint>
            <Time>2018-12-30T11:25:11.000Z</Time>
            <Position>
              <LatitudeDegrees>40.79161799512803554534912109375</LatitudeDegrees>
              <LongitudeDegrees>-4.06048131175339221954345703125</LongitudeDegrees>
            </Position>
            <AltitudeMeters>1754.5999755859375</AltitudeMeters>
            <DistanceMeters>NAN</DistanceMeters>
          </Trackpoint>
          <Trackpoint>
            <Time>2018-12-30T11:25:12.000Z</Time>
            <Position>
              <LatitudeDegrees>40.791614390909671783447265625</LatitudeDegrees>
              <LongitudeDegrees>-4.060491956770420074462890625</LongitudeDegrees>
            </Position>
            <AltitudeMeters>1754.800048828125</AltitudeMeters>
            <DistanceMeters>NAN</DistanceMeters>
          </Trackpoint>
          <Trackpoint>
            <Time>2018-12-30T11:25:13.000Z</Time>
            <Position>
              <LatitudeDegrees>40.7916132174432277679443359375</LatitudeDegrees>
              <LongitudeDegrees>-4.060500003397464752197265625</LongitudeDegrees>
            </Position>
            <AltitudeMeters>1754.800048828125</AltitudeMeters>
            <DistanceMeters>NAN</DistanceMeters>
          </Trackpoint>
          <Trackpoint>
            <Time>2018-12-30T11:25:14.000Z</Time>
            <Position>
              <LatitudeDegrees>40.791613049805164337158203125</LatitudeDegrees>
              <LongitudeDegrees>-4.06050972640514373779296875</LongitudeDegrees>
            </Position>
            <AltitudeMeters>1754.800048828125</AltitudeMeters>
            <DistanceMeters>NAN</DistanceMeters>
          </Trackpoint>
          <Trackpoint>
            <Time>2018-12-30T11:25:15.000Z</Time>
            <Position>
              <LatitudeDegrees>40.7916142232716083526611328125</LatitudeDegrees>
              <LongitudeDegrees>-4.0605189464986324310302734375</LongitudeDegrees>
            </Position>
            <AltitudeMeters>1754.5999755859375</AltitudeMeters>
            <DistanceMeters>NAN</DistanceMeters>
          </Trackpoint>
          <Trackpoint>
            <Time>2018-12-30T11:25:16.000Z</Time>
            <Position>
              <LatitudeDegrees>40.79161380417644977569580078125</LatitudeDegrees>
              <LongitudeDegrees>-4.06052439473569393157958984375</LongitudeDegrees>
            </Position>
            <AltitudeMeters>1754.5999755859375</AltitudeMeters>
            <DistanceMeters>NAN</DistanceMeters>
          </Trackpoint>
          <Trackpoint>
            <Time>2018-12-30T11:25:17.000Z</Time>
            <Position>
              <LatitudeDegrees>40.79161380417644977569580078125</LatitudeDegrees>
              <LongitudeDegrees>-4.06052984297275543212890625</LongitudeDegrees>
            </Position>
            <AltitudeMeters>1754.800048828125</AltitudeMeters>
            <DistanceMeters>NAN</DistanceMeters>
          </Trackpoint>
          <Trackpoint>
            <Time>2018-12-30T11:25:18.000Z</Time>
            <Position>
              <LatitudeDegrees>40.7916152290999889373779296875</LatitudeDegrees>
              <LongitudeDegrees>-4.06053294427692890167236328125</LongitudeDegrees>
            </Position>
            <AltitudeMeters>1755</AltitudeMeters>
            <DistanceMeters>NAN</DistanceMeters>
          </Trackpoint>
          <Trackpoint>
            <Time>2018-12-30T11:25:19.000Z</Time>
            <Position>
              <LatitudeDegrees>40.79161606729030609130859375</LatitudeDegrees>
              <LongitudeDegrees>-4.0605350397527217864990234375</LongitudeDegrees>
            </Position>
            <AltitudeMeters>1755</AltitudeMeters>
            <DistanceMeters>NAN</DistanceMeters>
          </Trackpoint>
          <Trackpoint>
            <Time>2018-12-30T11:25:20.000Z</Time>
            <Position>
              <LatitudeDegrees>40.79161765985190868377685546875</LatitudeDegrees>
              <LongitudeDegrees>-4.06053713522851467132568359375</LongitudeDegrees>
            </Position>
            <AltitudeMeters>1755</AltitudeMeters>
            <DistanceMeters>NAN</DistanceMeters>
          </Trackpoint>
          <Trackpoint>
            <Time>2018-12-30T11:25:21.000Z</Time>
            <Position>
              <LatitudeDegrees>40.7916175760328769683837890625</LatitudeDegrees>
              <LongitudeDegrees>-4.0605383925139904022216796875</LongitudeDegrees>
            </Position>
            <AltitudeMeters>1755</AltitudeMeters>
            <DistanceMeters>NAN</DistanceMeters>
          </Trackpoint>
          <Trackpoint>
            <Time>2018-12-30T11:25:22.000Z</Time>
            <Position>
              <LatitudeDegrees>40.791617743670940399169921875</LatitudeDegrees>
              <LongitudeDegrees>-4.0605387277901172637939453125</LongitudeDegrees>
            </Position>
            <AltitudeMeters>1755</AltitudeMeters>
            <DistanceMeters>NAN</DistanceMeters>
          </Trackpoint>
          <Trackpoint>
            <Time>2018-12-30T11:25:23.000Z</Time>
            <Position>
              <LatitudeDegrees>40.79161849804222583770751953125</LatitudeDegrees>
              <LongitudeDegrees>-4.0605400688946247100830078125</LongitudeDegrees>
            </Position>
            <AltitudeMeters>1755</AltitudeMeters>
            <DistanceMeters>NAN</DistanceMeters>
          </Trackpoint>
          <Trackpoint>
            <Time>2018-12-30T11:25:24.000Z</Time>
            <Position>
              <LatitudeDegrees>40.79161900095641613006591796875</LatitudeDegrees>
              <LongitudeDegrees>-4.06054233200848102569580078125</LongitudeDegrees>
            </Position>
            <AltitudeMeters>1755</AltitudeMeters>
            <DistanceMeters>NAN</DistanceMeters>
          </Trackpoint>
          <Trackpoint>
            <Time>2018-12-30T11:25:25.000Z</Time>
            <Position>
              <LatitudeDegrees>40.7916182465851306915283203125</LatitudeDegrees>
              <LongitudeDegrees>-4.06054534949362277984619140625</LongitudeDegrees>
            </Position>
            <AltitudeMeters>1755</AltitudeMeters>
            <DistanceMeters>NAN</DistanceMeters>
          </Trackpoint>
          <Trackpoint>
            <Time>2018-12-30T11:25:26.000Z</Time>
            <Position>
              <LatitudeDegrees>40.7916175760328769683837890625</LatitudeDegrees>
              <LongitudeDegrees>-4.06054786406457424163818359375</LongitudeDegrees>
            </Position>
            <AltitudeMeters>1755.199951171875</AltitudeMeters>
            <DistanceMeters>NAN</DistanceMeters>
          </Trackpoint>
          <Trackpoint>
            <Time>2018-12-30T11:25:27.000Z</Time>
            <Position>
              <LatitudeDegrees>40.791616402566432952880859375</LatitudeDegrees>
              <LongitudeDegrees>-4.06054954044520854949951171875</LongitudeDegrees>
            </Position>
            <AltitudeMeters>1755.5999755859375</AltitudeMeters>
            <DistanceMeters>NAN</DistanceMeters>
          </Trackpoint>
          <Trackpoint>
            <Time>2018-12-30T11:25:28.000Z</Time>
            <Position>
              <LatitudeDegrees>40.7916162349283695220947265625</LatitudeDegrees>
              <LongitudeDegrees>-4.06054995954036712646484375</LongitudeDegrees>
            </Position>
            <AltitudeMeters>1755.5999755859375</AltitudeMeters>
            <DistanceMeters>NAN</DistanceMeters>
          </Trackpoint>
          <Trackpoint>
            <Time>2018-12-30T11:25:29.000Z</Time>
            <Position>
              <LatitudeDegrees>40.791616402566432952880859375</LatitudeDegrees>
              <LongitudeDegrees>-4.0605497919023036956787109375</LongitudeDegrees>
            </Position>
            <AltitudeMeters>1755.800048828125</AltitudeMeters>
            <DistanceMeters>NAN</DistanceMeters>
          </Trackpoint>
          <Trackpoint>
            <Time>2018-12-30T11:25:30.000Z</Time>
            <Position>
              <LatitudeDegrees>40.7916165702044963836669921875</LatitudeDegrees>
              <LongitudeDegrees>-4.06055021099746227264404296875</LongitudeDegrees>
            </Position>
            <AltitudeMeters>1755.800048828125</AltitudeMeters>
            <DistanceMeters>NAN</DistanceMeters>
          </Trackpoint>
          <Trackpoint>
            <Time>2018-12-30T11:25:31.000Z</Time>
            <Position>
              <LatitudeDegrees>40.791616402566432952880859375</LatitudeDegrees>
              <LongitudeDegrees>-4.0605521388351917266845703125</LongitudeDegrees>
            </Position>
            <AltitudeMeters>1755.800048828125</AltitudeMeters>
            <DistanceMeters>NAN</DistanceMeters>
          </Trackpoint>
          <Trackpoint>
            <Time>2018-12-30T11:25:32.000Z</Time>
            <Position>
              <LatitudeDegrees>40.79161816276609897613525390625</LatitudeDegrees>
              <LongitudeDegrees>-4.06055071391165256500244140625</LongitudeDegrees>
            </Position>
            <AltitudeMeters>1755.800048828125</AltitudeMeters>
            <DistanceMeters>NAN</DistanceMeters>
          </Trackpoint>
          <Trackpoint>
            <Time>2018-12-30T11:25:33.000Z</Time>
            <Position>
              <LatitudeDegrees>40.7916205935180187225341796875</LatitudeDegrees>
              <LongitudeDegrees>-4.060550630092620849609375</LongitudeDegrees>
            </Position>
            <AltitudeMeters>1755.800048828125</AltitudeMeters>
            <DistanceMeters>NAN</DistanceMeters>
          </Trackpoint>
          <Trackpoint>
            <Time>2018-12-30T11:25:34.000Z</Time>
            <Position>
              <LatitudeDegrees>40.7916269637644290924072265625</LatitudeDegrees>
              <LongitudeDegrees>-4.060540236532688140869140625</LongitudeDegrees>
            </Position>
            <AltitudeMeters>1755.800048828125</AltitudeMeters>
            <DistanceMeters>NAN</DistanceMeters>
          </Trackpoint>
          <Trackpoint>
            <Time>2018-12-30T11:25:35.000Z</Time>
            <Position>
              <LatitudeDegrees>40.79162939451634883880615234375</LatitudeDegrees>
              <LongitudeDegrees>-4.06053730286657810211181640625</LongitudeDegrees>
            </Position>
            <AltitudeMeters>1756</AltitudeMeters>
            <DistanceMeters>NAN</DistanceMeters>
          </Trackpoint>
          <Trackpoint>
            <Time>2018-12-30T11:25:36.000Z</Time>
            <Position>
              <LatitudeDegrees>40.79163140617311000823974609375</LatitudeDegrees>
              <LongitudeDegrees>-4.06053679995238780975341796875</LongitudeDegrees>
            </Position>
            <AltitudeMeters>1756</AltitudeMeters>
            <DistanceMeters>NAN</DistanceMeters>
          </Trackpoint>
          <Trackpoint>
            <Time>2018-12-30T11:25:37.000Z</Time>
            <Position>
              <LatitudeDegrees>40.79163350164890289306640625</LatitudeDegrees>
              <LongitudeDegrees>-4.06053260900080204010009765625</LongitudeDegrees>
            </Position>
            <AltitudeMeters>1756</AltitudeMeters>
            <DistanceMeters>NAN</DistanceMeters>
          </Trackpoint>
          <Trackpoint>
            <Time>2018-12-30T11:25:38.000Z</Time>
            <Position>
              <LatitudeDegrees>40.79163643531501293182373046875</LatitudeDegrees>
              <LongitudeDegrees>-4.06053143553435802459716796875</LongitudeDegrees>
            </Position>
            <AltitudeMeters>1755.800048828125</AltitudeMeters>
            <DistanceMeters>NAN</DistanceMeters>
          </Trackpoint>
          <Trackpoint>
            <Time>2018-12-30T11:25:39.000Z</Time>
            <Position>
              <LatitudeDegrees>40.79163744114339351654052734375</LatitudeDegrees>
              <LongitudeDegrees>-4.06052757985889911651611328125</LongitudeDegrees>
            </Position>
            <AltitudeMeters>1755.800048828125</AltitudeMeters>
            <DistanceMeters>NAN</DistanceMeters>
          </Trackpoint>
          <Trackpoint>
            <Time>2018-12-30T11:25:40.000Z</Time>
            <Position>
              <LatitudeDegrees>40.79163744114339351654052734375</LatitudeDegrees>
              <LongitudeDegrees>-4.06053026206791400909423828125</LongitudeDegrees>
            </Position>
            <AltitudeMeters>1755.5999755859375</AltitudeMeters>
            <DistanceMeters>NAN</DistanceMeters>
          </Trackpoint>
          <Trackpoint>
            <Time>2018-12-30T11:25:41.000Z</Time>
            <Position>
              <LatitudeDegrees>40.7916383631527423858642578125</LatitudeDegrees>
              <LongitudeDegrees>-4.06052892096340656280517578125</LongitudeDegrees>
            </Position>
            <AltitudeMeters>1755.4000244140625</AltitudeMeters>
            <DistanceMeters>NAN</DistanceMeters>
          </Trackpoint>
          <Trackpoint>
            <Time>2018-12-30T11:25:42.000Z</Time>
            <Position>
              <LatitudeDegrees>40.79163894988596439361572265625</LatitudeDegrees>
              <LongitudeDegrees>-4.060528166592121124267578125</LongitudeDegrees>
            </Position>
            <AltitudeMeters>1755.199951171875</AltitudeMeters>
            <DistanceMeters>NAN</DistanceMeters>
          </Trackpoint>
          <Trackpoint>
            <Time>2018-12-30T11:25:43.000Z</Time>
            <Position>
              <LatitudeDegrees>40.79163928516209125518798828125</LatitudeDegrees>
              <LongitudeDegrees>-4.06052774749696254730224609375</LongitudeDegrees>
            </Position>
            <AltitudeMeters>1755</AltitudeMeters>
            <DistanceMeters>NAN</DistanceMeters>
          </Trackpoint>
          <Trackpoint>
            <Time>2018-12-30T11:25:44.000Z</Time>
            <Position>
              <LatitudeDegrees>40.79164314083755016326904296875</LatitudeDegrees>
              <LongitudeDegrees>-4.060529507696628570556640625</LongitudeDegrees>
            </Position>
            <AltitudeMeters>1755</AltitudeMeters>
            <DistanceMeters>NAN</DistanceMeters>
          </Trackpoint>
          <Trackpoint>
            <Time>2018-12-30T11:25:45.000Z</Time>
            <Position>
              <LatitudeDegrees>40.7916457392275333404541015625</LatitudeDegrees>
              <LongitudeDegrees>-4.060528166592121124267578125</LongitudeDegrees>
            </Position>
            <AltitudeMeters>1755</AltitudeMeters>
            <DistanceMeters>NAN</DistanceMeters>
          </Trackpoint>
          <Trackpoint>
            <Time>2018-12-30T11:25:46.000Z</Time>
            <Position>
              <LatitudeDegrees>40.79165286384522914886474609375</LatitudeDegrees>
              <LongitudeDegrees>-4.06052724458277225494384765625</LongitudeDegrees>
            </Position>
            <AltitudeMeters>1755</AltitudeMeters>
            <DistanceMeters>NAN</DistanceMeters>
          </Trackpoint>
          <Trackpoint>
            <Time>2018-12-30T11:25:47.000Z</Time>
            <Position>
              <LatitudeDegrees>40.791655965149402618408203125</LatitudeDegrees>
              <LongitudeDegrees>-4.06052288599312305450439453125</LongitudeDegrees>
            </Position>
            <AltitudeMeters>1755</AltitudeMeters>
            <DistanceMeters>NAN</DistanceMeters>
          </Trackpoint>
          <Trackpoint>
            <Time>2018-12-30T11:25:48.000Z</Time>
            <Position>
              <LatitudeDegrees>40.79166233539581298828125</LatitudeDegrees>
              <LongitudeDegrees>-4.06052053906023502349853515625</LongitudeDegrees>
            </Position>
            <AltitudeMeters>1755.199951171875</AltitudeMeters>
            <DistanceMeters>NAN</DistanceMeters>
          </Trackpoint>
          <Trackpoint>
            <Time>2018-12-30T11:25:49.000Z</Time>
            <Position>
              <LatitudeDegrees>40.791671387851238250732421875</LatitudeDegrees>
              <LongitudeDegrees>-4.06051668338477611541748046875</LongitudeDegrees>
            </Position>
            <AltitudeMeters>1755.4000244140625</AltitudeMeters>
            <DistanceMeters>NAN</DistanceMeters>
          </Trackpoint>
          <Trackpoint>
            <Time>2018-12-30T11:25:50.000Z</Time>
            <Position>
              <LatitudeDegrees>40.79167868010699748992919921875</LatitudeDegrees>
              <LongitudeDegrees>-4.06051383353769779205322265625</LongitudeDegrees>
            </Position>
            <AltitudeMeters>1755.5999755859375</AltitudeMeters>
            <DistanceMeters>NAN</DistanceMeters>
          </Trackpoint>
          <Trackpoint>
            <Time>2018-12-30T11:25:51.000Z</Time>
            <Position>
              <LatitudeDegrees>40.7916826196014881134033203125</LatitudeDegrees>
              <LongitudeDegrees>-4.06050913967192173004150390625</LongitudeDegrees>
            </Position>
            <AltitudeMeters>1755.5999755859375</AltitudeMeters>
            <DistanceMeters>NAN</DistanceMeters>
          </Trackpoint>
          <Trackpoint>
            <Time>2018-12-30T11:25:52.000Z</Time>
            <Position>
              <LatitudeDegrees>40.791684798896312713623046875</LatitudeDegrees>
              <LongitudeDegrees>-4.06050260178744792938232421875</LongitudeDegrees>
            </Position>
            <AltitudeMeters>1755.800048828125</AltitudeMeters>
            <DistanceMeters>NAN</DistanceMeters>
          </Trackpoint>
          <Trackpoint>
            <Time>2018-12-30T11:25:53.000Z</Time>
            <Position>
              <LatitudeDegrees>40.79168186523020267486572265625</LatitudeDegrees>
              <LongitudeDegrees>-4.06049002893269062042236328125</LongitudeDegrees>
            </Position>
            <AltitudeMeters>1755.800048828125</AltitudeMeters>
            <DistanceMeters>NAN</DistanceMeters>
          </Trackpoint>
          <Trackpoint>
            <Time>2018-12-30T11:25:54.000Z</Time>
            <Position>
              <LatitudeDegrees>40.7916812784969806671142578125</LatitudeDegrees>
              <LongitudeDegrees>-4.0604800544679164886474609375</LongitudeDegrees>
            </Position>
            <AltitudeMeters>1756</AltitudeMeters>
            <DistanceMeters>NAN</DistanceMeters>
          </Trackpoint>
          <Trackpoint>
            <Time>2018-12-30T11:25:55.000Z</Time>
            <Position>
              <LatitudeDegrees>40.7916832901537418365478515625</LatitudeDegrees>
              <LongitudeDegrees>-4.06047292985022068023681640625</LongitudeDegrees>
            </Position>
            <AltitudeMeters>1756</AltitudeMeters>
            <DistanceMeters>NAN</DistanceMeters>
          </Trackpoint>
          <Trackpoint>
            <Time>2018-12-30T11:25:56.000Z</Time>
            <Position>
              <LatitudeDegrees>40.791688151657581329345703125</LatitudeDegrees>
              <LongitudeDegrees>-4.060466475784778594970703125</LongitudeDegrees>
            </Position>
            <AltitudeMeters>1756.199951171875</AltitudeMeters>
            <DistanceMeters>NAN</DistanceMeters>
          </Trackpoint>
          <Trackpoint>
            <Time>2018-12-30T11:25:57.000Z</Time>
            <Position>
              <LatitudeDegrees>40.79169259406626224517822265625</LatitudeDegrees>
              <LongitudeDegrees>-4.06046438030898571014404296875</LongitudeDegrees>
            </Position>
            <AltitudeMeters>1756.4000244140625</AltitudeMeters>
            <DistanceMeters>NAN</DistanceMeters>
          </Trackpoint>
          <Trackpoint>
            <Time>2018-12-30T11:25:58.000Z</Time>
            <Position>
              <LatitudeDegrees>40.79168773256242275238037109375</LatitudeDegrees>
              <LongitudeDegrees>-4.06045365147292613983154296875</LongitudeDegrees>
            </Position>
            <AltitudeMeters>1756.5999755859375</AltitudeMeters>
            <DistanceMeters>NAN</DistanceMeters>
          </Trackpoint>
          <Trackpoint>
            <Time>2018-12-30T11:25:59.000Z</Time>
            <Position>
              <LatitudeDegrees>40.79168421216309070587158203125</LatitudeDegrees>
              <LongitudeDegrees>-4.06044929288327693939208984375</LongitudeDegrees>
            </Position>
            <AltitudeMeters>1757</AltitudeMeters>
            <DistanceMeters>NAN</DistanceMeters>
          </Trackpoint>
          <Trackpoint>
            <Time>2018-12-30T11:26:00.000Z</Time>
            <Position>
              <LatitudeDegrees>40.79167641699314117431640625</LatitudeDegrees>
              <LongitudeDegrees>-4.060443341732025146484375</LongitudeDegrees>
            </Position>
            <AltitudeMeters>1757.4000244140625</AltitudeMeters>
            <DistanceMeters>NAN</DistanceMeters>
          </Trackpoint>
          <Trackpoint>
            <Time>2018-12-30T11:26:01.000Z</Time>
            <Position>
              <LatitudeDegrees>40.791672058403491973876953125</LatitudeDegrees>
              <LongitudeDegrees>-4.060432948172092437744140625</LongitudeDegrees>
            </Position>
            <AltitudeMeters>1758</AltitudeMeters>
            <DistanceMeters>NAN</DistanceMeters>
          </Trackpoint>
          <Trackpoint>
            <Time>2018-12-30T11:26:02.000Z</Time>
            <Position>
              <LatitudeDegrees>40.79167080111801624298095703125</LatitudeDegrees>
              <LongitudeDegrees>-4.060422889888286590576171875</LongitudeDegrees>
            </Position>
            <AltitudeMeters>1758.199951171875</AltitudeMeters>
            <DistanceMeters>NAN</DistanceMeters>
          </Trackpoint>
          <Trackpoint>
            <Time>2018-12-30T11:26:03.000Z</Time>
            <Position>
              <LatitudeDegrees>40.7916705496609210968017578125</LatitudeDegrees>
              <LongitudeDegrees>-4.06041442416608333587646484375</LongitudeDegrees>
            </Position>
            <AltitudeMeters>1758.5999755859375</AltitudeMeters>
            <DistanceMeters>NAN</DistanceMeters>
          </Trackpoint>
          <Trackpoint>
            <Time>2018-12-30T11:26:04.000Z</Time>
            <Position>
              <LatitudeDegrees>40.79167398624122142791748046875</LatitudeDegrees>
              <LongitudeDegrees>-4.06040486879646778106689453125</LongitudeDegrees>
            </Position>
            <AltitudeMeters>1758.800048828125</AltitudeMeters>
            <DistanceMeters>NAN</DistanceMeters>
          </Trackpoint>
          <Trackpoint>
            <Time>2018-12-30T11:26:05.000Z</Time>
            <Position>
              <LatitudeDegrees>40.79167633317410945892333984375</LatitudeDegrees>
              <LongitudeDegrees>-4.0603965707123279571533203125</LongitudeDegrees>
            </Position>
            <AltitudeMeters>1759</AltitudeMeters>
            <DistanceMeters>NAN</DistanceMeters>
          </Trackpoint>
          <Trackpoint>
            <Time>2018-12-30T11:26:06.000Z</Time>
            <Position>
              <LatitudeDegrees>40.79167641699314117431640625</LatitudeDegrees>
              <LongitudeDegrees>-4.060384668409824371337890625</LongitudeDegrees>
            </Position>
            <AltitudeMeters>1759.4000244140625</AltitudeMeters>
            <DistanceMeters>NAN</DistanceMeters>
          </Trackpoint>
          <Trackpoint>
            <Time>2018-12-30T11:26:07.000Z</Time>
            <Position>
              <LatitudeDegrees>40.7916728965938091278076171875</LatitudeDegrees>
              <LongitudeDegrees>-4.06037419103085994720458984375</LongitudeDegrees>
            </Position>
            <AltitudeMeters>1759.5999755859375</AltitudeMeters>
            <DistanceMeters>NAN</DistanceMeters>
          </Trackpoint>
          <Trackpoint>
            <Time>2018-12-30T11:26:08.000Z</Time>
            <Position>
              <LatitudeDegrees>40.79167230986058712005615234375</LatitudeDegrees>
              <LongitudeDegrees>-4.060371927917003631591796875</LongitudeDegrees>
            </Position>
            <AltitudeMeters>1759.800048828125</AltitudeMeters>
            <DistanceMeters>NAN</DistanceMeters>
          </Trackpoint>
          <Trackpoint>
            <Time>2018-12-30T11:26:09.000Z</Time>
            <Position>
              <LatitudeDegrees>40.7916685380041599273681640625</LatitudeDegrees>
              <LongitudeDegrees>-4.0603674016892910003662109375</LongitudeDegrees>
            </Position>
            <AltitudeMeters>1760</AltitudeMeters>
            <DistanceMeters>NAN</DistanceMeters>
          </Trackpoint>
          <Trackpoint>
            <Time>2018-12-30T11:26:10.000Z</Time>
            <Position>
              <LatitudeDegrees>40.79166493378579616546630859375</LatitudeDegrees>
              <LongitudeDegrees>-4.06036379747092723846435546875</LongitudeDegrees>
            </Position>
            <AltitudeMeters>1760.199951171875</AltitudeMeters>
            <DistanceMeters>NAN</DistanceMeters>
          </Trackpoint>
          <Trackpoint>
            <Time>2018-12-30T11:26:11.000Z</Time>
            <Position>
              <LatitudeDegrees>40.79166476614773273468017578125</LatitudeDegrees>
              <LongitudeDegrees>-4.060362540185451507568359375</LongitudeDegrees>
            </Position>
            <AltitudeMeters>1760.199951171875</AltitudeMeters>
            <DistanceMeters>NAN</DistanceMeters>
          </Trackpoint>
          <Trackpoint>
            <Time>2018-12-30T11:26:12.000Z</Time>
            <Position>
              <LatitudeDegrees>40.7916705496609210968017578125</LatitudeDegrees>
              <LongitudeDegrees>-4.06036245636641979217529296875</LongitudeDegrees>
            </Position>
            <AltitudeMeters>1760.4000244140625</AltitudeMeters>
            <DistanceMeters>NAN</DistanceMeters>
          </Trackpoint>
          <Trackpoint>
            <Time>2018-12-30T11:26:13.000Z</Time>
            <Position>
              <LatitudeDegrees>40.79166702926158905029296875</LatitudeDegrees>
              <LongitudeDegrees>-4.060362875461578369140625</LongitudeDegrees>
            </Position>
            <AltitudeMeters>1760.4000244140625</AltitudeMeters>
            <DistanceMeters>NAN</DistanceMeters>
          </Trackpoint>
          <Trackpoint>
            <Time>2018-12-30T11:26:14.000Z</Time>
            <Position>
              <LatitudeDegrees>40.7916715554893016815185546875</LatitudeDegrees>
              <LongitudeDegrees>-4.06036530621349811553955078125</LongitudeDegrees>
            </Position>
            <AltitudeMeters>1760.199951171875</AltitudeMeters>
            <DistanceMeters>NAN</DistanceMeters>
          </Trackpoint>
          <Trackpoint>
            <Time>2018-12-30T11:26:15.000Z</Time>
            <Position>
              <LatitudeDegrees>40.79167482443153858184814453125</LatitudeDegrees>
              <LongitudeDegrees>-4.060365222394466400146484375</LongitudeDegrees>
            </Position>
            <AltitudeMeters>1760</AltitudeMeters>
            <DistanceMeters>NAN</DistanceMeters>
          </Trackpoint>
          <Trackpoint>
            <Time>2018-12-30T11:26:16.000Z</Time>
            <Position>
              <LatitudeDegrees>40.79167633317410945892333984375</LatitudeDegrees>
              <LongitudeDegrees>-4.06036145053803920745849609375</LongitudeDegrees>
            </Position>
            <AltitudeMeters>1759.800048828125</AltitudeMeters>
            <DistanceMeters>NAN</DistanceMeters>
          </Trackpoint>
          <Trackpoint>
            <Time>2018-12-30T11:26:17.000Z</Time>
            <Position>
              <LatitudeDegrees>40.79167784191668033599853515625</LatitudeDegrees>
              <LongitudeDegrees>-4.06035457737743854522705078125</LongitudeDegrees>
            </Position>
            <AltitudeMeters>1759.800048828125</AltitudeMeters>
            <DistanceMeters>NAN</DistanceMeters>
          </Trackpoint>
          <Trackpoint>
            <Time>2018-12-30T11:26:18.000Z</Time>
            <Position>
              <LatitudeDegrees>40.79168018884956836700439453125</LatitudeDegrees>
              <LongitudeDegrees>-4.06035139225423336029052734375</LongitudeDegrees>
            </Position>
            <AltitudeMeters>1759.800048828125</AltitudeMeters>
            <DistanceMeters>NAN</DistanceMeters>
          </Trackpoint>
          <Trackpoint>
            <Time>2018-12-30T11:26:19.000Z</Time>
            <Position>
              <LatitudeDegrees>40.79168178141117095947265625</LatitudeDegrees>
              <LongitudeDegrees>-4.0603496320545673370361328125</LongitudeDegrees>
            </Position>
            <AltitudeMeters>1760</AltitudeMeters>
            <DistanceMeters>NAN</DistanceMeters>
          </Trackpoint>
          <Trackpoint>
            <Time>2018-12-30T11:26:20.000Z</Time>
            <Position>
              <LatitudeDegrees>40.79168488271534442901611328125</LatitudeDegrees>
              <LongitudeDegrees>-4.06035256572067737579345703125</LongitudeDegrees>
            </Position>
            <AltitudeMeters>1760.4000244140625</AltitudeMeters>
            <DistanceMeters>NAN</DistanceMeters>
          </Trackpoint>
          <Trackpoint>
            <Time>2018-12-30T11:26:21.000Z</Time>
            <Position>
              <LatitudeDegrees>40.79169116914272308349609375</LatitudeDegrees>
              <LongitudeDegrees>-4.06036111526191234588623046875</LongitudeDegrees>
            </Position>
            <AltitudeMeters>1760.5999755859375</AltitudeMeters>
            <DistanceMeters>NAN</DistanceMeters>
          </Trackpoint>
          <Trackpoint>
            <Time>2018-12-30T11:26:22.000Z</Time>
            <Position>
              <LatitudeDegrees>40.79169443808495998382568359375</LatitudeDegrees>
              <LongitudeDegrees>-4.06036748550832271575927734375</LongitudeDegrees>
            </Position>
            <AltitudeMeters>1760.800048828125</AltitudeMeters>
            <DistanceMeters>NAN</DistanceMeters>
          </Trackpoint>
          <Trackpoint>
            <Time>2018-12-30T11:26:23.000Z</Time>
            <Position>
              <LatitudeDegrees>40.79169510863721370697021484375</LatitudeDegrees>
              <LongitudeDegrees>-4.06036849133670330047607421875</LongitudeDegrees>
            </Position>
            <AltitudeMeters>1761</AltitudeMeters>
            <DistanceMeters>NAN</DistanceMeters>
          </Trackpoint>
          <Trackpoint>
            <Time>2018-12-30T11:26:24.000Z</Time>
            <Position>
              <LatitudeDegrees>40.79169460572302341461181640625</LatitudeDegrees>
              <LongitudeDegrees>-4.060368575155735015869140625</LongitudeDegrees>
            </Position>
            <AltitudeMeters>1760.800048828125</AltitudeMeters>
            <DistanceMeters>NAN</DistanceMeters>
          </Trackpoint>
          <Trackpoint>
            <Time>2018-12-30T11:26:25.000Z</Time>
            <Position>
              <LatitudeDegrees>40.7916933484375476837158203125</LatitudeDegrees>
              <LongitudeDegrees>-4.060366563498973846435546875</LongitudeDegrees>
            </Position>
            <AltitudeMeters>1760.4000244140625</AltitudeMeters>
            <DistanceMeters>NAN</DistanceMeters>
          </Trackpoint>
          <Trackpoint>
            <Time>2018-12-30T11:26:26.000Z</Time>
            <Position>
              <LatitudeDegrees>40.7916878163814544677734375</LatitudeDegrees>
              <LongitudeDegrees>-4.0603617019951343536376953125</LongitudeDegrees>
            </Position>
            <AltitudeMeters>1759.800048828125</AltitudeMeters>
            <DistanceMeters>NAN</DistanceMeters>
          </Trackpoint>
          <Trackpoint>
            <Time>2018-12-30T11:26:27.000Z</Time>
            <Position>
              <LatitudeDegrees>40.79168580472469329833984375</LatitudeDegrees>
              <LongitudeDegrees>-4.06035960651934146881103515625</LongitudeDegrees>
            </Position>
            <AltitudeMeters>1759.5999755859375</AltitudeMeters>
            <DistanceMeters>NAN</DistanceMeters>
          </Trackpoint>
          <Trackpoint>
            <Time>2018-12-30T11:26:28.000Z</Time>
            <Position>
              <LatitudeDegrees>40.7916822843253612518310546875</LatitudeDegrees>
              <LongitudeDegrees>-4.06035457737743854522705078125</LongitudeDegrees>
            </Position>
            <AltitudeMeters>1759.4000244140625</AltitudeMeters>
            <DistanceMeters>NAN</DistanceMeters>
          </Trackpoint>
          <Trackpoint>
            <Time>2018-12-30T11:26:29.000Z</Time>
            <Position>
              <LatitudeDegrees>40.79167951829731464385986328125</LatitudeDegrees>
              <LongitudeDegrees>-4.0603529848158359527587890625</LongitudeDegrees>
            </Position>
            <AltitudeMeters>1759.4000244140625</AltitudeMeters>
            <DistanceMeters>NAN</DistanceMeters>
          </Trackpoint>
          <Trackpoint>
            <Time>2018-12-30T11:26:30.000Z</Time>
            <Position>
              <LatitudeDegrees>40.79167750664055347442626953125</LatitudeDegrees>
              <LongitudeDegrees>-4.060349129140377044677734375</LongitudeDegrees>
            </Position>
            <AltitudeMeters>1759.4000244140625</AltitudeMeters>
            <DistanceMeters>NAN</DistanceMeters>
          </Trackpoint>
          <Trackpoint>
            <Time>2018-12-30T11:26:31.000Z</Time>
            <Position>
              <LatitudeDegrees>40.79167365096509456634521484375</LatitudeDegrees>
              <LongitudeDegrees>-4.0603449381887912750244140625</LongitudeDegrees>
            </Position>
            <AltitudeMeters>1759.4000244140625</AltitudeMeters>
            <DistanceMeters>NAN</DistanceMeters>
          </Trackpoint>
          <Trackpoint>
            <Time>2018-12-30T11:26:32.000Z</Time>
            <Position>
              <LatitudeDegrees>40.79167096875607967376708984375</LatitudeDegrees>
              <LongitudeDegrees>-4.06034342944622039794921875</LongitudeDegrees>
            </Position>
            <AltitudeMeters>1759.800048828125</AltitudeMeters>
            <DistanceMeters>NAN</DistanceMeters>
          </Trackpoint>
          <Trackpoint>
            <Time>2018-12-30T11:26:33.000Z</Time>
            <Position>
              <LatitudeDegrees>40.79166577197611331939697265625</LatitudeDegrees>
              <LongitudeDegrees>-4.060341753065586090087890625</LongitudeDegrees>
            </Position>
            <AltitudeMeters>1760.199951171875</AltitudeMeters>
            <DistanceMeters>NAN</DistanceMeters>
          </Trackpoint>
          <Trackpoint>
            <Time>2018-12-30T11:26:34.000Z</Time>
            <Position>
              <LatitudeDegrees>40.79166359268128871917724609375</LatitudeDegrees>
              <LongitudeDegrees>-4.0603400766849517822265625</LongitudeDegrees>
            </Position>
            <AltitudeMeters>1760.5999755859375</AltitudeMeters>
            <DistanceMeters>NAN</DistanceMeters>
          </Trackpoint>
          <Trackpoint>
            <Time>2018-12-30T11:26:35.000Z</Time>
            <Position>
              <LatitudeDegrees>40.791662670671939849853515625</LatitudeDegrees>
              <LongitudeDegrees>-4.06033965758979320526123046875</LongitudeDegrees>
            </Position>
            <AltitudeMeters>1761</AltitudeMeters>
            <DistanceMeters>NAN</DistanceMeters>
          </Trackpoint>
          <Trackpoint>
            <Time>2018-12-30T11:26:36.000Z</Time>
            <Position>
              <LatitudeDegrees>40.791662000119686126708984375</LatitudeDegrees>
              <LongitudeDegrees>-4.06033965758979320526123046875</LongitudeDegrees>
            </Position>
            <AltitudeMeters>1761</AltitudeMeters>
            <DistanceMeters>NAN</DistanceMeters>
          </Trackpoint>
          <Trackpoint>
            <Time>2018-12-30T11:26:37.000Z</Time>
            <Position>
              <LatitudeDegrees>40.791661329567432403564453125</LatitudeDegrees>
              <LongitudeDegrees>-4.06034083105623722076416015625</LongitudeDegrees>
            </Position>
            <AltitudeMeters>1761.199951171875</AltitudeMeters>
            <DistanceMeters>NAN</DistanceMeters>
          </Trackpoint>
          <Trackpoint>
            <Time>2018-12-30T11:26:38.000Z</Time>
            <Position>
              <LatitudeDegrees>40.79166158102452754974365234375</LatitudeDegrees>
              <LongitudeDegrees>-4.0603419207036495208740234375</LongitudeDegrees>
            </Position>
            <AltitudeMeters>1761</AltitudeMeters>
            <DistanceMeters>NAN</DistanceMeters>
          </Trackpoint>
          <Trackpoint>
            <Time>2018-12-30T11:26:39.000Z</Time>
            <Position>
              <LatitudeDegrees>40.79166225157678127288818359375</LatitudeDegrees>
              <LongitudeDegrees>-4.0603422559797763824462890625</LongitudeDegrees>
            </Position>
            <AltitudeMeters>1760.4000244140625</AltitudeMeters>
            <DistanceMeters>NAN</DistanceMeters>
          </Trackpoint>
          <Trackpoint>
            <Time>2018-12-30T11:26:40.000Z</Time>
            <Position>
              <LatitudeDegrees>40.7916671968996524810791015625</LatitudeDegrees>
              <LongitudeDegrees>-4.06034477055072784423828125</LongitudeDegrees>
            </Position>
            <AltitudeMeters>1760.199951171875</AltitudeMeters>
            <DistanceMeters>NAN</DistanceMeters>
          </Trackpoint>
          <Trackpoint>
            <Time>2018-12-30T11:26:41.000Z</Time>
            <Position>
              <LatitudeDegrees>40.79167331568896770477294921875</LatitudeDegrees>
              <LongitudeDegrees>-4.0603496320545673370361328125</LongitudeDegrees>
            </Position>
            <AltitudeMeters>1759.800048828125</AltitudeMeters>
            <DistanceMeters>NAN</DistanceMeters>
          </Trackpoint>
          <Trackpoint>
            <Time>2018-12-30T11:26:42.000Z</Time>
            <Position>
              <LatitudeDegrees>40.79167733900249004364013671875</LatitudeDegrees>
              <LongitudeDegrees>-4.060353823006153106689453125</LongitudeDegrees>
            </Position>
            <AltitudeMeters>1759.800048828125</AltitudeMeters>
            <DistanceMeters>NAN</DistanceMeters>
          </Trackpoint>
          <Trackpoint>
            <Time>2018-12-30T11:26:43.000Z</Time>
            <Position>
              <LatitudeDegrees>40.791681110858917236328125</LatitudeDegrees>
              <LongitudeDegrees>-4.06035625375807285308837890625</LongitudeDegrees>
            </Position>
            <AltitudeMeters>1759.800048828125</AltitudeMeters>
            <DistanceMeters>NAN</DistanceMeters>
          </Trackpoint>
          <Trackpoint>
            <Time>2018-12-30T11:26:44.000Z</Time>
            <Position>
              <LatitudeDegrees>40.79168538562953472137451171875</LatitudeDegrees>
              <LongitudeDegrees>-4.06035793013870716094970703125</LongitudeDegrees>
            </Position>
            <AltitudeMeters>1759.800048828125</AltitudeMeters>
            <DistanceMeters>NAN</DistanceMeters>
          </Trackpoint>
          <Trackpoint>
            <Time>2018-12-30T11:26:45.000Z</Time>
            <Position>
              <LatitudeDegrees>40.79169276170432567596435546875</LatitudeDegrees>
              <LongitudeDegrees>-4.060356505215167999267578125</LongitudeDegrees>
            </Position>
            <AltitudeMeters>1759.800048828125</AltitudeMeters>
            <DistanceMeters>NAN</DistanceMeters>
          </Trackpoint>
          <Trackpoint>
            <Time>2018-12-30T11:26:46.000Z</Time>
            <Position>
              <LatitudeDegrees>40.7917010597884654998779296875</LatitudeDegrees>
              <LongitudeDegrees>-4.060358516871929168701171875</LongitudeDegrees>
            </Position>
            <AltitudeMeters>1760</AltitudeMeters>
            <DistanceMeters>NAN</DistanceMeters>
          </Trackpoint>
          <Trackpoint>
            <Time>2018-12-30T11:26:47.000Z</Time>
            <Position>
              <LatitudeDegrees>40.79170516692101955413818359375</LatitudeDegrees>
              <LongitudeDegrees>-4.06035818159580230712890625</LongitudeDegrees>
            </Position>
            <AltitudeMeters>1760.199951171875</AltitudeMeters>
            <DistanceMeters>NAN</DistanceMeters>
          </Trackpoint>
          <Trackpoint>
            <Time>2018-12-30T11:26:48.000Z</Time>
            <Position>
              <LatitudeDegrees>40.79171036370098590850830078125</LatitudeDegrees>
              <LongitudeDegrees>-4.06035684049129486083984375</LongitudeDegrees>
            </Position>
            <AltitudeMeters>1760.4000244140625</AltitudeMeters>
            <DistanceMeters>NAN</DistanceMeters>
          </Trackpoint>
          <Trackpoint>
            <Time>2018-12-30T11:26:49.000Z</Time>
            <Position>
              <LatitudeDegrees>40.79171287827193737030029296875</LatitudeDegrees>
              <LongitudeDegrees>-4.06035323627293109893798828125</LongitudeDegrees>
            </Position>
            <AltitudeMeters>1760.5999755859375</AltitudeMeters>
            <DistanceMeters>NAN</DistanceMeters>
          </Trackpoint>
          <Trackpoint>
            <Time>2018-12-30T11:26:50.000Z</Time>
            <Position>
              <LatitudeDegrees>40.7917174883186817169189453125</LatitudeDegrees>
              <LongitudeDegrees>-4.060351140797138214111328125</LongitudeDegrees>
            </Position>
            <AltitudeMeters>1760.800048828125</AltitudeMeters>
            <DistanceMeters>NAN</DistanceMeters>
          </Trackpoint>
          <Trackpoint>
            <Time>2018-12-30T11:26:51.000Z</Time>
            <Position>
              <LatitudeDegrees>40.7917181588709354400634765625</LatitudeDegrees>
              <LongitudeDegrees>-4.0603415854275226593017578125</LongitudeDegrees>
            </Position>
            <AltitudeMeters>1761</AltitudeMeters>
            <DistanceMeters>NAN</DistanceMeters>
          </Trackpoint>
          <Trackpoint>
            <Time>2018-12-30T11:26:52.000Z</Time>
            <Position>
              <LatitudeDegrees>40.79172243364155292510986328125</LatitudeDegrees>
              <LongitudeDegrees>-4.06034049578011035919189453125</LongitudeDegrees>
            </Position>
            <AltitudeMeters>1761.199951171875</AltitudeMeters>
            <DistanceMeters>NAN</DistanceMeters>
          </Trackpoint>
          <Trackpoint>
            <Time>2018-12-30T11:26:53.000Z</Time>
            <Position>
              <LatitudeDegrees>40.791723690927028656005859375</LatitudeDegrees>
              <LongitudeDegrees>-4.0603355504572391510009765625</LongitudeDegrees>
            </Position>
            <AltitudeMeters>1761.4000244140625</AltitudeMeters>
            <DistanceMeters>NAN</DistanceMeters>
          </Trackpoint>
          <Trackpoint>
            <Time>2018-12-30T11:26:54.000Z</Time>
            <Position>
              <LatitudeDegrees>40.79172394238412380218505859375</LatitudeDegrees>
              <LongitudeDegrees>-4.06032758764922618865966796875</LongitudeDegrees>
            </Position>
            <AltitudeMeters>1761.4000244140625</AltitudeMeters>
            <DistanceMeters>NAN</DistanceMeters>
          </Trackpoint>
          <Trackpoint>
            <Time>2018-12-30T11:26:55.000Z</Time>
            <Position>
              <LatitudeDegrees>40.79172695986926555633544921875</LatitudeDegrees>
              <LongitudeDegrees>-4.0603234805166721343994140625</LongitudeDegrees>
            </Position>
            <AltitudeMeters>1761.5999755859375</AltitudeMeters>
            <DistanceMeters>NAN</DistanceMeters>
          </Trackpoint>
          <Trackpoint>
            <Time>2018-12-30T11:26:56.000Z</Time>
            <Position>
              <LatitudeDegrees>40.79173140227794647216796875</LatitudeDegrees>
              <LongitudeDegrees>-4.06032104976475238800048828125</LongitudeDegrees>
            </Position>
            <AltitudeMeters>1762</AltitudeMeters>
            <DistanceMeters>NAN</DistanceMeters>
          </Trackpoint>
          <Trackpoint>
            <Time>2018-12-30T11:26:57.000Z</Time>
            <Position>
              <LatitudeDegrees>40.7917369343340396881103515625</LatitudeDegrees>
              <LongitudeDegrees>-4.0603204630315303802490234375</LongitudeDegrees>
            </Position>
            <AltitudeMeters>1762.5999755859375</AltitudeMeters>
            <DistanceMeters>NAN</DistanceMeters>
          </Trackpoint>
          <Trackpoint>
            <Time>2018-12-30T11:26:58.000Z</Time>
            <Position>
              <LatitudeDegrees>40.79173919744789600372314453125</LatitudeDegrees>
              <LongitudeDegrees>-4.06032004393637180328369140625</LongitudeDegrees>
            </Position>
            <AltitudeMeters>1763</AltitudeMeters>
            <DistanceMeters>NAN</DistanceMeters>
          </Trackpoint>
          <Trackpoint>
            <Time>2018-12-30T11:26:59.000Z</Time>
            <Position>
              <LatitudeDegrees>40.791746489703655242919921875</LatitudeDegrees>
              <LongitudeDegrees>-4.06031702645123004913330078125</LongitudeDegrees>
            </Position>
            <AltitudeMeters>1763.199951171875</AltitudeMeters>
            <DistanceMeters>NAN</DistanceMeters>
          </Trackpoint>
          <Trackpoint>
            <Time>2018-12-30T11:27:00.000Z</Time>
            <Position>
              <LatitudeDegrees>40.791751183569431304931640625</LatitudeDegrees>
              <LongitudeDegrees>-4.06031015329062938690185546875</LongitudeDegrees>
            </Position>
            <AltitudeMeters>1763.4000244140625</AltitudeMeters>
            <DistanceMeters>NAN</DistanceMeters>
          </Trackpoint>
          <Trackpoint>
            <Time>2018-12-30T11:27:01.000Z</Time>
            <Position>
              <LatitudeDegrees>40.7917570509016513824462890625</LatitudeDegrees>
              <LongitudeDegrees>-4.060306213796138763427734375</LongitudeDegrees>
            </Position>
            <AltitudeMeters>1763.5999755859375</AltitudeMeters>
            <DistanceMeters>NAN</DistanceMeters>
          </Trackpoint>
          <Trackpoint>
            <Time>2018-12-30T11:27:02.000Z</Time>
            <Position>
              <LatitudeDegrees>40.7917677797377109527587890625</LatitudeDegrees>
              <LongitudeDegrees>-4.06031350605189800262451171875</LongitudeDegrees>
            </Position>
            <AltitudeMeters>1763.800048828125</AltitudeMeters>
            <DistanceMeters>NAN</DistanceMeters>
          </Trackpoint>
          <Trackpoint>
            <Time>2018-12-30T11:27:03.000Z</Time>
            <Position>
              <LatitudeDegrees>40.7917795144021511077880859375</LatitudeDegrees>
              <LongitudeDegrees>-4.0603301860392093658447265625</LongitudeDegrees>
            </Position>
            <AltitudeMeters>1763.5999755859375</AltitudeMeters>
            <DistanceMeters>NAN</DistanceMeters>
          </Trackpoint>
          <Trackpoint>
            <Time>2018-12-30T11:27:04.000Z</Time>
            <Position>
              <LatitudeDegrees>40.79178680665791034698486328125</LatitudeDegrees>
              <LongitudeDegrees>-4.06033982522785663604736328125</LongitudeDegrees>
            </Position>
            <AltitudeMeters>1763.800048828125</AltitudeMeters>
            <DistanceMeters>NAN</DistanceMeters>
          </Trackpoint>
          <Trackpoint>
            <Time>2018-12-30T11:27:05.000Z</Time>
            <Position>
              <LatitudeDegrees>40.79178906977176666259765625</LatitudeDegrees>
              <LongitudeDegrees>-4.06034586019814014434814453125</LongitudeDegrees>
            </Position>
            <AltitudeMeters>1764</AltitudeMeters>
            <DistanceMeters>NAN</DistanceMeters>
          </Trackpoint>
          <Trackpoint>
            <Time>2018-12-30T11:27:06.000Z</Time>
            <Position>
              <LatitudeDegrees>40.79179032705724239349365234375</LatitudeDegrees>
              <LongitudeDegrees>-4.06035256572067737579345703125</LongitudeDegrees>
            </Position>
            <AltitudeMeters>1764.4000244140625</AltitudeMeters>
            <DistanceMeters>NAN</DistanceMeters>
          </Trackpoint>
          <Trackpoint>
            <Time>2018-12-30T11:27:07.000Z</Time>
            <Position>
              <LatitudeDegrees>40.7917999662458896636962890625</LatitudeDegrees>
              <LongitudeDegrees>-4.060367234051227569580078125</LongitudeDegrees>
            </Position>
            <AltitudeMeters>1764.800048828125</AltitudeMeters>
            <DistanceMeters>NAN</DistanceMeters>
          </Trackpoint>
          <Trackpoint>
            <Time>2018-12-30T11:27:08.000Z</Time>
            <Position>
              <LatitudeDegrees>40.7918093539774417877197265625</LatitudeDegrees>
              <LongitudeDegrees>-4.06037821434438228607177734375</LongitudeDegrees>
            </Position>
            <AltitudeMeters>1765</AltitudeMeters>
            <DistanceMeters>NAN</DistanceMeters>
          </Trackpoint>
          <Trackpoint>
            <Time>2018-12-30T11:27:09.000Z</Time>
            <Position>
              <LatitudeDegrees>40.79181698150932788848876953125</LatitudeDegrees>
              <LongitudeDegrees>-4.0603883564472198486328125</LongitudeDegrees>
            </Position>
            <AltitudeMeters>1765</AltitudeMeters>
            <DistanceMeters>NAN</DistanceMeters>
          </Trackpoint>
          <Trackpoint>
            <Time>2018-12-30T11:27:10.000Z</Time>
            <Position>
              <LatitudeDegrees>40.79182888381183147430419921875</LatitudeDegrees>
              <LongitudeDegrees>-4.06039866618812084197998046875</LongitudeDegrees>
            </Position>
            <AltitudeMeters>1765.199951171875</AltitudeMeters>
            <DistanceMeters>NAN</DistanceMeters>
          </Trackpoint>
          <Trackpoint>
            <Time>2018-12-30T11:27:11.000Z</Time>
            <Position>
              <LatitudeDegrees>40.7918375171720981597900390625</LatitudeDegrees>
              <LongitudeDegrees>-4.0604086406528949737548828125</LongitudeDegrees>
            </Position>
            <AltitudeMeters>1765.199951171875</AltitudeMeters>
            <DistanceMeters>NAN</DistanceMeters>
          </Trackpoint>
          <Trackpoint>
            <Time>2018-12-30T11:27:12.000Z</Time>
            <Position>
              <LatitudeDegrees>40.791847407817840576171875</LatitudeDegrees>
              <LongitudeDegrees>-4.06041693873703479766845703125</LongitudeDegrees>
            </Position>
            <AltitudeMeters>1765.199951171875</AltitudeMeters>
            <DistanceMeters>NAN</DistanceMeters>
          </Trackpoint>
          <Trackpoint>
            <Time>2018-12-30T11:27:13.000Z</Time>
            <Position>
              <LatitudeDegrees>40.7918559573590755462646484375</LatitudeDegrees>
              <LongitudeDegrees>-4.06042481772601604461669921875</LongitudeDegrees>
            </Position>
            <AltitudeMeters>1765.199951171875</AltitudeMeters>
            <DistanceMeters>NAN</DistanceMeters>
          </Trackpoint>
          <Trackpoint>
            <Time>2018-12-30T11:27:14.000Z</Time>
            <Position>
              <LatitudeDegrees>40.79186626709997653961181640625</LatitudeDegrees>
              <LongitudeDegrees>-4.06042749993503093719482421875</LongitudeDegrees>
            </Position>
            <AltitudeMeters>1765.4000244140625</AltitudeMeters>
            <DistanceMeters>NAN</DistanceMeters>
          </Trackpoint>
          <Trackpoint>
            <Time>2018-12-30T11:27:15.000Z</Time>
            <Position>
              <LatitudeDegrees>40.79187582246959209442138671875</LatitudeDegrees>
              <LongitudeDegrees>-4.06042934395372867584228515625</LongitudeDegrees>
            </Position>
            <AltitudeMeters>1765.5999755859375</AltitudeMeters>
            <DistanceMeters>NAN</DistanceMeters>
          </Trackpoint>
          <Trackpoint>
            <Time>2018-12-30T11:27:16.000Z</Time>
            <Position>
              <LatitudeDegrees>40.79189074225723743438720703125</LatitudeDegrees>
              <LongitudeDegrees>-4.0604287572205066680908203125</LongitudeDegrees>
            </Position>
            <AltitudeMeters>1765.800048828125</AltitudeMeters>
            <DistanceMeters>NAN</DistanceMeters>
          </Trackpoint>
          <Trackpoint>
            <Time>2018-12-30T11:27:17.000Z</Time>
            <Position>
              <LatitudeDegrees>40.79190247692167758941650390625</LatitudeDegrees>
              <LongitudeDegrees>-4.060428254306316375732421875</LongitudeDegrees>
            </Position>
            <AltitudeMeters>1766.199951171875</AltitudeMeters>
            <DistanceMeters>NAN</DistanceMeters>
          </Trackpoint>
          <Trackpoint>
            <Time>2018-12-30T11:27:18.000Z</Time>
            <Position>
              <LatitudeDegrees>40.79191756434738636016845703125</LatitudeDegrees>
              <LongitudeDegrees>-4.0604321099817752838134765625</LongitudeDegrees>
            </Position>
            <AltitudeMeters>1766.4000244140625</AltitudeMeters>
            <DistanceMeters>NAN</DistanceMeters>
          </Trackpoint>
          <Trackpoint>
            <Time>2018-12-30T11:27:19.000Z</Time>
            <Position>
              <LatitudeDegrees>40.79192988574504852294921875</LatitudeDegrees>
              <LongitudeDegrees>-4.06043085269629955291748046875</LongitudeDegrees>
            </Position>
            <AltitudeMeters>1766.800048828125</AltitudeMeters>
            <DistanceMeters>NAN</DistanceMeters>
          </Trackpoint>
          <Trackpoint>
            <Time>2018-12-30T11:27:20.000Z</Time>
            <Position>
              <LatitudeDegrees>40.7919391058385372161865234375</LatitudeDegrees>
              <LongitudeDegrees>-4.0604304336011409759521484375</LongitudeDegrees>
            </Position>
            <AltitudeMeters>1767.199951171875</AltitudeMeters>
            <DistanceMeters>NAN</DistanceMeters>
          </Trackpoint>
          <Trackpoint>
            <Time>2018-12-30T11:27:21.000Z</Time>
            <Position>
              <LatitudeDegrees>40.79194790683686733245849609375</LatitudeDegrees>
              <LongitudeDegrees>-4.06042951159179210662841796875</LongitudeDegrees>
            </Position>
            <AltitudeMeters>1767.4000244140625</AltitudeMeters>
            <DistanceMeters>NAN</DistanceMeters>
          </Trackpoint>
          <Trackpoint>
            <Time>2018-12-30T11:27:22.000Z</Time>
            <Position>
              <LatitudeDegrees>40.7919558696448802947998046875</LatitudeDegrees>
              <LongitudeDegrees>-4.06042657792568206787109375</LongitudeDegrees>
            </Position>
            <AltitudeMeters>1767.5999755859375</AltitudeMeters>
            <DistanceMeters>NAN</DistanceMeters>
          </Trackpoint>
          <Trackpoint>
            <Time>2018-12-30T11:27:23.000Z</Time>
            <Position>
              <LatitudeDegrees>40.7919612340629100799560546875</LatitudeDegrees>
              <LongitudeDegrees>-4.06041844747960567474365234375</LongitudeDegrees>
            </Position>
            <AltitudeMeters>1767.800048828125</AltitudeMeters>
            <DistanceMeters>NAN</DistanceMeters>
          </Trackpoint>
          <Trackpoint>
            <Time>2018-12-30T11:27:24.000Z</Time>
            <Position>
              <LatitudeDegrees>40.79196819104254245758056640625</LatitudeDegrees>
              <LongitudeDegrees>-4.06041408888995647430419921875</LongitudeDegrees>
            </Position>
            <AltitudeMeters>1767.800048828125</AltitudeMeters>
            <DistanceMeters>NAN</DistanceMeters>
          </Trackpoint>
          <Trackpoint>
            <Time>2018-12-30T11:27:25.000Z</Time>
            <Position>
              <LatitudeDegrees>40.7919746451079845428466796875</LatitudeDegrees>
              <LongitudeDegrees>-4.0604049526154994964599609375</LongitudeDegrees>
            </Position>
            <AltitudeMeters>1767.800048828125</AltitudeMeters>
            <DistanceMeters>NAN</DistanceMeters>
          </Trackpoint>
          <Trackpoint>
            <Time>2018-12-30T11:27:26.000Z</Time>
            <Position>
              <LatitudeDegrees>40.79198084771633148193359375</LatitudeDegrees>
              <LongitudeDegrees>-4.06039766035974025726318359375</LongitudeDegrees>
            </Position>
            <AltitudeMeters>1767.800048828125</AltitudeMeters>
            <DistanceMeters>NAN</DistanceMeters>
          </Trackpoint>
          <Trackpoint>
            <Time>2018-12-30T11:27:27.000Z</Time>
            <Position>
              <LatitudeDegrees>40.79198646359145641326904296875</LatitudeDegrees>
              <LongitudeDegrees>-4.0603895299136638641357421875</LongitudeDegrees>
            </Position>
            <AltitudeMeters>1767.800048828125</AltitudeMeters>
            <DistanceMeters>NAN</DistanceMeters>
          </Trackpoint>
          <Trackpoint>
            <Time>2018-12-30T11:27:28.000Z</Time>
            <Position>
              <LatitudeDegrees>40.79199233092367649078369140625</LatitudeDegrees>
              <LongitudeDegrees>-4.06038223765790462493896484375</LongitudeDegrees>
            </Position>
            <AltitudeMeters>1767.800048828125</AltitudeMeters>
            <DistanceMeters>NAN</DistanceMeters>
          </Trackpoint>
          <Trackpoint>
            <Time>2018-12-30T11:27:29.000Z</Time>
            <Position>
              <LatitudeDegrees>40.79199987463653087615966796875</LatitudeDegrees>
              <LongitudeDegrees>-4.06037955544888973236083984375</LongitudeDegrees>
            </Position>
            <AltitudeMeters>1767.800048828125</AltitudeMeters>
            <DistanceMeters>NAN</DistanceMeters>
          </Trackpoint>
          <Trackpoint>
            <Time>2018-12-30T11:27:30.000Z</Time>
            <Position>
              <LatitudeDegrees>40.792005993425846099853515625</LatitudeDegrees>
              <LongitudeDegrees>-4.06037486158311367034912109375</LongitudeDegrees>
            </Position>
            <AltitudeMeters>1768.199951171875</AltitudeMeters>
            <DistanceMeters>NAN</DistanceMeters>
          </Trackpoint>
          <Trackpoint>
            <Time>2018-12-30T11:27:31.000Z</Time>
            <Position>
              <LatitudeDegrees>40.79201479442417621612548828125</LatitudeDegrees>
              <LongitudeDegrees>-4.06036916188895702362060546875</LongitudeDegrees>
            </Position>
            <AltitudeMeters>1768.4000244140625</AltitudeMeters>
            <DistanceMeters>NAN</DistanceMeters>
          </Trackpoint>
          <Trackpoint>
            <Time>2018-12-30T11:27:32.000Z</Time>
            <Position>
              <LatitudeDegrees>40.792018063366413116455078125</LatitudeDegrees>
              <LongitudeDegrees>-4.06035709194839000701904296875</LongitudeDegrees>
            </Position>
            <AltitudeMeters>1768.4000244140625</AltitudeMeters>
            <DistanceMeters>NAN</DistanceMeters>
          </Trackpoint>
          <Trackpoint>
            <Time>2018-12-30T11:27:33.000Z</Time>
            <Position>
              <LatitudeDegrees>40.792024098336696624755859375</LatitudeDegrees>
              <LongitudeDegrees>-4.06035281717777252197265625</LongitudeDegrees>
            </Position>
            <AltitudeMeters>1768.5999755859375</AltitudeMeters>
            <DistanceMeters>NAN</DistanceMeters>
          </Trackpoint>
          <Trackpoint>
            <Time>2018-12-30T11:27:34.000Z</Time>
            <Position>
              <LatitudeDegrees>40.79203172586858272552490234375</LatitudeDegrees>
              <LongitudeDegrees>-4.060349799692630767822265625</LongitudeDegrees>
            </Position>
            <AltitudeMeters>1768.5999755859375</AltitudeMeters>
            <DistanceMeters>NAN</DistanceMeters>
          </Trackpoint>
          <Trackpoint>
            <Time>2018-12-30T11:27:35.000Z</Time>
            <Position>
              <LatitudeDegrees>40.7920390181243419647216796875</LatitudeDegrees>
              <LongitudeDegrees>-4.060344435274600982666015625</LongitudeDegrees>
            </Position>
            <AltitudeMeters>1768.800048828125</AltitudeMeters>
            <DistanceMeters>NAN</DistanceMeters>
          </Trackpoint>
          <Trackpoint>
            <Time>2018-12-30T11:27:36.000Z</Time>
            <Position>
              <LatitudeDegrees>40.79204346053302288055419921875</LatitudeDegrees>
              <LongitudeDegrees>-4.060333706438541412353515625</LongitudeDegrees>
            </Position>
            <AltitudeMeters>1769</AltitudeMeters>
            <DistanceMeters>NAN</DistanceMeters>
          </Trackpoint>
          <Trackpoint>
            <Time>2018-12-30T11:27:37.000Z</Time>
            <Position>
              <LatitudeDegrees>40.7920499145984649658203125</LatitudeDegrees>
              <LongitudeDegrees>-4.060333035886287689208984375</LongitudeDegrees>
            </Position>
            <AltitudeMeters>1769.4000244140625</AltitudeMeters>
            <DistanceMeters>NAN</DistanceMeters>
          </Trackpoint>
          <Trackpoint>
            <Time>2018-12-30T11:27:38.000Z</Time>
            <Position>
              <LatitudeDegrees>40.79205536283552646636962890625</LatitudeDegrees>
              <LongitudeDegrees>-4.0603338740766048431396484375</LongitudeDegrees>
            </Position>
            <AltitudeMeters>1769.5999755859375</AltitudeMeters>
            <DistanceMeters>NAN</DistanceMeters>
          </Trackpoint>
          <Trackpoint>
            <Time>2018-12-30T12:07:51.000Z</Time>
            <Position>
              <LatitudeDegrees>40.79215125180780887603759765625</LatitudeDegrees>
              <LongitudeDegrees>-4.06033865176141262054443359375</LongitudeDegrees>
            </Position>
            <AltitudeMeters>1793</AltitudeMeters>
            <DistanceMeters>NAN</DistanceMeters>
          </Trackpoint>
          <Trackpoint>
            <Time>2018-12-30T12:07:52.000Z</Time>
            <Position>
              <LatitudeDegrees>40.7921479828655719757080078125</LatitudeDegrees>
              <LongitudeDegrees>-4.06035256572067737579345703125</LongitudeDegrees>
            </Position>
            <AltitudeMeters>1793.4000244140625</AltitudeMeters>
            <DistanceMeters>NAN</DistanceMeters>
          </Trackpoint>
          <Trackpoint>
            <Time>2018-12-30T12:07:53.000Z</Time>
            <Position>
              <LatitudeDegrees>40.79214454628527164459228515625</LatitudeDegrees>
              <LongitudeDegrees>-4.06036480329930782318115234375</LongitudeDegrees>
            </Position>
            <AltitudeMeters>1793.800048828125</AltitudeMeters>
            <DistanceMeters>NAN</DistanceMeters>
          </Trackpoint>
          <Trackpoint>
            <Time>2018-12-30T12:07:54.000Z</Time>
            <Position>
              <LatitudeDegrees>40.79214320518076419830322265625</LatitudeDegrees>
              <LongitudeDegrees>-4.06037704087793827056884765625</LongitudeDegrees>
            </Position>
            <AltitudeMeters>1793.5999755859375</AltitudeMeters>
            <DistanceMeters>NAN</DistanceMeters>
          </Trackpoint>
          <Trackpoint>
            <Time>2018-12-30T12:07:55.000Z</Time>
            <Position>
              <LatitudeDegrees>40.79213968478143215179443359375</LatitudeDegrees>
              <LongitudeDegrees>-4.060391373932361602783203125</LongitudeDegrees>
            </Position>
            <AltitudeMeters>1794</AltitudeMeters>
            <DistanceMeters>NAN</DistanceMeters>
          </Trackpoint>
          <Trackpoint>
            <Time>2018-12-30T12:07:56.000Z</Time>
            <Position>
              <LatitudeDegrees>40.7921369187533855438232421875</LatitudeDegrees>
              <LongitudeDegrees>-4.06040503643453121185302734375</LongitudeDegrees>
            </Position>
            <AltitudeMeters>1793.800048828125</AltitudeMeters>
            <DistanceMeters>NAN</DistanceMeters>
          </Trackpoint>
          <Trackpoint>
            <Time>2018-12-30T12:07:57.000Z</Time>
            <Position>
              <LatitudeDegrees>40.79212971031665802001953125</LatitudeDegrees>
              <LongitudeDegrees>-4.06041945330798625946044921875</LongitudeDegrees>
            </Position>
            <AltitudeMeters>1793.800048828125</AltitudeMeters>
            <DistanceMeters>NAN</DistanceMeters>
          </Trackpoint>
          <Trackpoint>
            <Time>2018-12-30T12:07:58.000Z</Time>
            <Position>
              <LatitudeDegrees>40.7921211607754230499267578125</LatitudeDegrees>
              <LongitudeDegrees>-4.06043403781950473785400390625</LongitudeDegrees>
            </Position>
            <AltitudeMeters>1793.800048828125</AltitudeMeters>
            <DistanceMeters>NAN</DistanceMeters>
          </Trackpoint>
          <Trackpoint>
            <Time>2018-12-30T12:07:59.000Z</Time>
            <Position>
              <LatitudeDegrees>40.79211068339645862579345703125</LatitudeDegrees>
              <LongitudeDegrees>-4.0604465268552303314208984375</LongitudeDegrees>
            </Position>
            <AltitudeMeters>1794</AltitudeMeters>
            <DistanceMeters>NAN</DistanceMeters>
          </Trackpoint>
          <Trackpoint>
            <Time>2018-12-30T12:08:00.000Z</Time>
            <Position>
              <LatitudeDegrees>40.792102552950382232666015625</LatitudeDegrees>
              <LongitudeDegrees>-4.060455746948719024658203125</LongitudeDegrees>
            </Position>
            <AltitudeMeters>1794</AltitudeMeters>
            <DistanceMeters>NAN</DistanceMeters>
          </Trackpoint>
          <Trackpoint>
            <Time>2018-12-30T12:08:01.000Z</Time>
            <Position>
              <LatitudeDegrees>40.79209643416106700897216796875</LatitudeDegrees>
              <LongitudeDegrees>-4.06047075055539608001708984375</LongitudeDegrees>
            </Position>
            <AltitudeMeters>1794</AltitudeMeters>
            <DistanceMeters>NAN</DistanceMeters>
          </Trackpoint>
          <Trackpoint>
            <Time>2018-12-30T12:08:02.000Z</Time>
            <Position>
              <LatitudeDegrees>40.79208939336240291595458984375</LatitudeDegrees>
              <LongitudeDegrees>-4.060482569038867950439453125</LongitudeDegrees>
            </Position>
            <AltitudeMeters>1794.199951171875</AltitudeMeters>
            <DistanceMeters>NAN</DistanceMeters>
          </Trackpoint>
          <Trackpoint>
            <Time>2018-12-30T12:08:03.000Z</Time>
            <Position>
              <LatitudeDegrees>40.7920812629163265228271484375</LatitudeDegrees>
              <LongitudeDegrees>-4.06049623154103755950927734375</LongitudeDegrees>
            </Position>
            <AltitudeMeters>1794.199951171875</AltitudeMeters>
            <DistanceMeters>NAN</DistanceMeters>
          </Trackpoint>
          <Trackpoint>
            <Time>2018-12-30T12:08:04.000Z</Time>
            <Position>
              <LatitudeDegrees>40.79207430593669414520263671875</LatitudeDegrees>
              <LongitudeDegrees>-4.0605090558528900146484375</LongitudeDegrees>
            </Position>
            <AltitudeMeters>1794.199951171875</AltitudeMeters>
            <DistanceMeters>NAN</DistanceMeters>
          </Trackpoint>
          <Trackpoint>
            <Time>2018-12-30T12:08:05.000Z</Time>
            <Position>
              <LatitudeDegrees>40.79206843860447406768798828125</LatitudeDegrees>
              <LongitudeDegrees>-4.0605216287076473236083984375</LongitudeDegrees>
            </Position>
            <AltitudeMeters>1794.199951171875</AltitudeMeters>
            <DistanceMeters>NAN</DistanceMeters>
          </Trackpoint>
          <Trackpoint>
            <Time>2018-12-30T12:08:06.000Z</Time>
            <Position>
              <LatitudeDegrees>40.79206692986190319061279296875</LatitudeDegrees>
              <LongitudeDegrees>-4.06053612940013408660888671875</LongitudeDegrees>
            </Position>
            <AltitudeMeters>1794.4000244140625</AltitudeMeters>
            <DistanceMeters>NAN</DistanceMeters>
          </Trackpoint>
          <Trackpoint>
            <Time>2018-12-30T12:08:07.000Z</Time>
            <Position>
              <LatitudeDegrees>40.79206399619579315185546875</LatitudeDegrees>
              <LongitudeDegrees>-4.06054937280714511871337890625</LongitudeDegrees>
            </Position>
            <AltitudeMeters>1794.4000244140625</AltitudeMeters>
            <DistanceMeters>NAN</DistanceMeters>
          </Trackpoint>
          <Trackpoint>
            <Time>2018-12-30T12:08:08.000Z</Time>
            <Position>
              <LatitudeDegrees>40.7920641638338565826416015625</LatitudeDegrees>
              <LongitudeDegrees>-4.06056093983352184295654296875</LongitudeDegrees>
            </Position>
            <AltitudeMeters>1794.4000244140625</AltitudeMeters>
            <DistanceMeters>NAN</DistanceMeters>
          </Trackpoint>
          <Trackpoint>
            <Time>2018-12-30T12:08:09.000Z</Time>
            <Position>
              <LatitudeDegrees>40.79206399619579315185546875</LatitudeDegrees>
              <LongitudeDegrees>-4.06057502143085002899169921875</LongitudeDegrees>
            </Position>
            <AltitudeMeters>1794.4000244140625</AltitudeMeters>
            <DistanceMeters>NAN</DistanceMeters>
          </Trackpoint>
          <Trackpoint>
            <Time>2018-12-30T12:08:10.000Z</Time>
            <Position>
              <LatitudeDegrees>40.7920628227293491363525390625</LatitudeDegrees>
              <LongitudeDegrees>-4.0605910308659076690673828125</LongitudeDegrees>
            </Position>
            <AltitudeMeters>1794.4000244140625</AltitudeMeters>
            <DistanceMeters>NAN</DistanceMeters>
          </Trackpoint>
          <Trackpoint>
            <Time>2018-12-30T12:08:11.000Z</Time>
            <Position>
              <LatitudeDegrees>40.79205821268260478973388671875</LatitudeDegrees>
              <LongitudeDegrees>-4.0606064535677433013916015625</LongitudeDegrees>
            </Position>
            <AltitudeMeters>1794.5999755859375</AltitudeMeters>
            <DistanceMeters>NAN</DistanceMeters>
          </Trackpoint>
          <Trackpoint>
            <Time>2018-12-30T12:08:12.000Z</Time>
            <Position>
              <LatitudeDegrees>40.79205192625522613525390625</LatitudeDegrees>
              <LongitudeDegrees>-4.060621373355388641357421875</LongitudeDegrees>
            </Position>
            <AltitudeMeters>1794.5999755859375</AltitudeMeters>
            <DistanceMeters>NAN</DistanceMeters>
          </Trackpoint>
          <Trackpoint>
            <Time>2018-12-30T12:08:13.000Z</Time>
            <Position>
              <LatitudeDegrees>40.7920450530946254730224609375</LatitudeDegrees>
              <LongitudeDegrees>-4.06063872389495372772216796875</LongitudeDegrees>
            </Position>
            <AltitudeMeters>1794.5999755859375</AltitudeMeters>
            <DistanceMeters>NAN</DistanceMeters>
          </Trackpoint>
          <Trackpoint>
            <Time>2018-12-30T12:08:14.000Z</Time>
            <Position>
              <LatitudeDegrees>40.79203960485756397247314453125</LatitudeDegrees>
              <LongitudeDegrees>-4.0606547333300113677978515625</LongitudeDegrees>
            </Position>
            <AltitudeMeters>1794.5999755859375</AltitudeMeters>
            <DistanceMeters>NAN</DistanceMeters>
          </Trackpoint>
          <Trackpoint>
            <Time>2018-12-30T12:08:15.000Z</Time>
            <Position>
              <LatitudeDegrees>40.7920336537063121795654296875</LatitudeDegrees>
              <LongitudeDegrees>-4.06066931784152984619140625</LongitudeDegrees>
            </Position>
            <AltitudeMeters>1794.800048828125</AltitudeMeters>
            <DistanceMeters>NAN</DistanceMeters>
          </Trackpoint>
          <Trackpoint>
            <Time>2018-12-30T12:08:16.000Z</Time>
            <Position>
              <LatitudeDegrees>40.79202971421182155609130859375</LatitudeDegrees>
              <LongitudeDegrees>-4.0606860816478729248046875</LongitudeDegrees>
            </Position>
            <AltitudeMeters>1794.800048828125</AltitudeMeters>
            <DistanceMeters>NAN</DistanceMeters>
          </Trackpoint>
          <Trackpoint>
            <Time>2018-12-30T12:08:17.000Z</Time>
            <Position>
              <LatitudeDegrees>40.79202787019312381744384765625</LatitudeDegrees>
              <LongitudeDegrees>-4.06070142053067684173583984375</LongitudeDegrees>
            </Position>
            <AltitudeMeters>1795</AltitudeMeters>
            <DistanceMeters>NAN</DistanceMeters>
          </Trackpoint>
          <Trackpoint>
            <Time>2018-12-30T12:08:18.000Z</Time>
            <Position>
              <LatitudeDegrees>40.79202485270798206329345703125</LatitudeDegrees>
              <LongitudeDegrees>-4.06071650795638561248779296875</LongitudeDegrees>
            </Position>
            <AltitudeMeters>1795.199951171875</AltitudeMeters>
            <DistanceMeters>NAN</DistanceMeters>
          </Trackpoint>
          <Trackpoint>
            <Time>2018-12-30T12:08:19.000Z</Time>
            <Position>
              <LatitudeDegrees>40.79202468506991863250732421875</LatitudeDegrees>
              <LongitudeDegrees>-4.060734026134014129638671875</LongitudeDegrees>
            </Position>
            <AltitudeMeters>1795.5999755859375</AltitudeMeters>
            <DistanceMeters>NAN</DistanceMeters>
          </Trackpoint>
          <Trackpoint>
            <Time>2018-12-30T12:08:20.000Z</Time>
            <Position>
              <LatitudeDegrees>40.79202200286090373992919921875</LatitudeDegrees>
              <LongitudeDegrees>-4.06075104139745235443115234375</LongitudeDegrees>
            </Position>
            <AltitudeMeters>1795.800048828125</AltitudeMeters>
            <DistanceMeters>NAN</DistanceMeters>
          </Trackpoint>
          <Trackpoint>
            <Time>2018-12-30T12:08:21.000Z</Time>
            <Position>
              <LatitudeDegrees>40.792022757232189178466796875</LatitudeDegrees>
              <LongitudeDegrees>-4.06076445244252681732177734375</LongitudeDegrees>
            </Position>
            <AltitudeMeters>1795.800048828125</AltitudeMeters>
            <DistanceMeters>NAN</DistanceMeters>
          </Trackpoint>
          <Trackpoint>
            <Time>2018-12-30T12:08:22.000Z</Time>
            <Position>
              <LatitudeDegrees>40.7920219190418720245361328125</LatitudeDegrees>
              <LongitudeDegrees>-4.06077937223017215728759765625</LongitudeDegrees>
            </Position>
            <AltitudeMeters>1796</AltitudeMeters>
            <DistanceMeters>NAN</DistanceMeters>
          </Trackpoint>
          <Trackpoint>
            <Time>2018-12-30T12:08:23.000Z</Time>
            <Position>
              <LatitudeDegrees>40.7920202426612377166748046875</LatitudeDegrees>
              <LongitudeDegrees>-4.06079211272299289703369140625</LongitudeDegrees>
            </Position>
            <AltitudeMeters>1796</AltitudeMeters>
            <DistanceMeters>NAN</DistanceMeters>
          </Trackpoint>
          <Trackpoint>
            <Time>2018-12-30T12:08:24.000Z</Time>
            <Position>
              <LatitudeDegrees>40.79201831482350826263427734375</LatitudeDegrees>
              <LongitudeDegrees>-4.0608056075870990753173828125</LongitudeDegrees>
            </Position>
            <AltitudeMeters>1796</AltitudeMeters>
            <DistanceMeters>NAN</DistanceMeters>
          </Trackpoint>
          <Trackpoint>
            <Time>2018-12-30T12:08:25.000Z</Time>
            <Position>
              <LatitudeDegrees>40.79201764427125453948974609375</LatitudeDegrees>
              <LongitudeDegrees>-4.06082346104085445404052734375</LongitudeDegrees>
            </Position>
            <AltitudeMeters>1796</AltitudeMeters>
            <DistanceMeters>NAN</DistanceMeters>
          </Trackpoint>
          <Trackpoint>
            <Time>2018-12-30T12:08:26.000Z</Time>
            <Position>
              <LatitudeDegrees>40.79201596789062023162841796875</LatitudeDegrees>
              <LongitudeDegrees>-4.06083938665688037872314453125</LongitudeDegrees>
            </Position>
            <AltitudeMeters>1796.199951171875</AltitudeMeters>
            <DistanceMeters>NAN</DistanceMeters>
          </Trackpoint>
          <Trackpoint>
            <Time>2018-12-30T12:08:27.000Z</Time>
            <Position>
              <LatitudeDegrees>40.79201680608093738555908203125</LatitudeDegrees>
              <LongitudeDegrees>-4.0608562342822551727294921875</LongitudeDegrees>
            </Position>
            <AltitudeMeters>1796.199951171875</AltitudeMeters>
            <DistanceMeters>NAN</DistanceMeters>
          </Trackpoint>
          <Trackpoint>
            <Time>2018-12-30T12:08:28.000Z</Time>
            <Position>
              <LatitudeDegrees>40.79201010055840015411376953125</LatitudeDegrees>
              <LongitudeDegrees>-4.060872495174407958984375</LongitudeDegrees>
            </Position>
            <AltitudeMeters>1796.199951171875</AltitudeMeters>
            <DistanceMeters>NAN</DistanceMeters>
          </Trackpoint>
          <Trackpoint>
            <Time>2018-12-30T12:08:29.000Z</Time>
            <Position>
              <LatitudeDegrees>40.79200389795005321502685546875</LatitudeDegrees>
              <LongitudeDegrees>-4.0608884207904338836669921875</LongitudeDegrees>
            </Position>
            <AltitudeMeters>1796.199951171875</AltitudeMeters>
            <DistanceMeters>NAN</DistanceMeters>
          </Trackpoint>
          <Trackpoint>
            <Time>2018-12-30T12:08:30.000Z</Time>
            <Position>
              <LatitudeDegrees>40.79199937172234058380126953125</LatitudeDegrees>
              <LongitudeDegrees>-4.06090426258742809295654296875</LongitudeDegrees>
            </Position>
            <AltitudeMeters>1796.199951171875</AltitudeMeters>
            <DistanceMeters>NAN</DistanceMeters>
          </Trackpoint>
          <Trackpoint>
            <Time>2018-12-30T12:08:31.000Z</Time>
            <Position>
              <LatitudeDegrees>40.791995935142040252685546875</LatitudeDegrees>
              <LongitudeDegrees>-4.060923792421817779541015625</LongitudeDegrees>
            </Position>
            <AltitudeMeters>1796.199951171875</AltitudeMeters>
            <DistanceMeters>NAN</DistanceMeters>
          </Trackpoint>
          <Trackpoint>
            <Time>2018-12-30T12:08:32.000Z</Time>
            <Position>
              <LatitudeDegrees>40.791990570724010467529296875</LatitudeDegrees>
              <LongitudeDegrees>-4.06094097532331943511962890625</LongitudeDegrees>
            </Position>
            <AltitudeMeters>1796.199951171875</AltitudeMeters>
            <DistanceMeters>NAN</DistanceMeters>
          </Trackpoint>
          <Trackpoint>
            <Time>2018-12-30T12:08:33.000Z</Time>
            <Position>
              <LatitudeDegrees>40.7919830270111560821533203125</LatitudeDegrees>
              <LongitudeDegrees>-4.06095958314836025238037109375</LongitudeDegrees>
            </Position>
            <AltitudeMeters>1796.199951171875</AltitudeMeters>
            <DistanceMeters>NAN</DistanceMeters>
          </Trackpoint>
          <Trackpoint>
            <Time>2018-12-30T12:08:34.000Z</Time>
            <Position>
              <LatitudeDegrees>40.79198218882083892822265625</LatitudeDegrees>
              <LongitudeDegrees>-4.060973413288593292236328125</LongitudeDegrees>
            </Position>
            <AltitudeMeters>1796.199951171875</AltitudeMeters>
            <DistanceMeters>NAN</DistanceMeters>
          </Trackpoint>
          <Trackpoint>
            <Time>2018-12-30T12:08:35.000Z</Time>
            <Position>
              <LatitudeDegrees>40.7919779978692531585693359375</LatitudeDegrees>
              <LongitudeDegrees>-4.06098456121981143951416015625</LongitudeDegrees>
            </Position>
            <AltitudeMeters>1796.199951171875</AltitudeMeters>
            <DistanceMeters>NAN</DistanceMeters>
          </Trackpoint>
          <Trackpoint>
            <Time>2018-12-30T12:08:36.000Z</Time>
            <Position>
              <LatitudeDegrees>40.79198176972568035125732421875</LatitudeDegrees>
              <LongitudeDegrees>-4.0609993971884250640869140625</LongitudeDegrees>
            </Position>
            <AltitudeMeters>1796.199951171875</AltitudeMeters>
            <DistanceMeters>NAN</DistanceMeters>
          </Trackpoint>
          <Trackpoint>
            <Time>2018-12-30T12:08:37.000Z</Time>
            <Position>
              <LatitudeDegrees>40.791981853544712066650390625</LatitudeDegrees>
              <LongitudeDegrees>-4.06101590953767299652099609375</LongitudeDegrees>
            </Position>
            <AltitudeMeters>1796.199951171875</AltitudeMeters>
            <DistanceMeters>NAN</DistanceMeters>
          </Trackpoint>
          <Trackpoint>
            <Time>2018-12-30T12:08:38.000Z</Time>
            <Position>
              <LatitudeDegrees>40.79198160208761692047119140625</LatitudeDegrees>
              <LongitudeDegrees>-4.0610322542488574981689453125</LongitudeDegrees>
            </Position>
            <AltitudeMeters>1796.199951171875</AltitudeMeters>
            <DistanceMeters>NAN</DistanceMeters>
          </Trackpoint>
          <Trackpoint>
            <Time>2018-12-30T12:08:39.000Z</Time>
            <Position>
              <LatitudeDegrees>40.79197875224053859710693359375</LatitudeDegrees>
              <LongitudeDegrees>-4.0610496886074542999267578125</LongitudeDegrees>
            </Position>
            <AltitudeMeters>1796.199951171875</AltitudeMeters>
            <DistanceMeters>NAN</DistanceMeters>
          </Trackpoint>
          <Trackpoint>
            <Time>2018-12-30T12:08:40.000Z</Time>
            <Position>
              <LatitudeDegrees>40.79197523184120655059814453125</LatitudeDegrees>
              <LongitudeDegrees>-4.06106569804251194000244140625</LongitudeDegrees>
            </Position>
            <AltitudeMeters>1796.199951171875</AltitudeMeters>
            <DistanceMeters>NAN</DistanceMeters>
          </Trackpoint>
          <Trackpoint>
            <Time>2018-12-30T12:08:41.000Z</Time>
            <Position>
              <LatitudeDegrees>40.791969113051891326904296875</LatitudeDegrees>
              <LongitudeDegrees>-4.06108145602047443389892578125</LongitudeDegrees>
            </Position>
            <AltitudeMeters>1796.199951171875</AltitudeMeters>
            <DistanceMeters>NAN</DistanceMeters>
          </Trackpoint>
          <Trackpoint>
            <Time>2018-12-30T12:08:42.000Z</Time>
            <Position>
              <LatitudeDegrees>40.7919665984809398651123046875</LatitudeDegrees>
              <LongitudeDegrees>-4.06109956093132495880126953125</LongitudeDegrees>
            </Position>
            <AltitudeMeters>1796.199951171875</AltitudeMeters>
            <DistanceMeters>NAN</DistanceMeters>
          </Trackpoint>
          <Trackpoint>
            <Time>2018-12-30T12:08:43.000Z</Time>
            <Position>
              <LatitudeDegrees>40.791958384215831756591796875</LatitudeDegrees>
              <LongitudeDegrees>-4.0611167438328266143798828125</LongitudeDegrees>
            </Position>
            <AltitudeMeters>1796.199951171875</AltitudeMeters>
            <DistanceMeters>NAN</DistanceMeters>
          </Trackpoint>
          <Trackpoint>
            <Time>2018-12-30T12:08:44.000Z</Time>
            <Position>
              <LatitudeDegrees>40.79195511527359485626220703125</LatitudeDegrees>
              <LongitudeDegrees>-4.0611326694488525390625</LongitudeDegrees>
            </Position>
            <AltitudeMeters>1796.199951171875</AltitudeMeters>
            <DistanceMeters>NAN</DistanceMeters>
          </Trackpoint>
          <Trackpoint>
            <Time>2018-12-30T12:08:45.000Z</Time>
            <Position>
              <LatitudeDegrees>40.7919560372829437255859375</LatitudeDegrees>
              <LongitudeDegrees>-4.06114834360778331756591796875</LongitudeDegrees>
            </Position>
            <AltitudeMeters>1796.199951171875</AltitudeMeters>
            <DistanceMeters>NAN</DistanceMeters>
          </Trackpoint>
          <Trackpoint>
            <Time>2018-12-30T12:08:46.000Z</Time>
            <Position>
              <LatitudeDegrees>40.79195394180715084075927734375</LatitudeDegrees>
              <LongitudeDegrees>-4.0611626766622066497802734375</LongitudeDegrees>
            </Position>
            <AltitudeMeters>1796.4000244140625</AltitudeMeters>
            <DistanceMeters>NAN</DistanceMeters>
          </Trackpoint>
          <Trackpoint>
            <Time>2018-12-30T12:08:47.000Z</Time>
            <Position>
              <LatitudeDegrees>40.79195193015038967132568359375</LatitudeDegrees>
              <LongitudeDegrees>-4.0611723996698856353759765625</LongitudeDegrees>
            </Position>
            <AltitudeMeters>1796.4000244140625</AltitudeMeters>
            <DistanceMeters>NAN</DistanceMeters>
          </Trackpoint>
          <Trackpoint>
            <Time>2018-12-30T12:08:48.000Z</Time>
            <Position>
              <LatitudeDegrees>40.791945643723011016845703125</LatitudeDegrees>
              <LongitudeDegrees>-4.06118430197238922119140625</LongitudeDegrees>
            </Position>
            <AltitudeMeters>1796.5999755859375</AltitudeMeters>
            <DistanceMeters>NAN</DistanceMeters>
          </Trackpoint>
          <Trackpoint>
            <Time>2018-12-30T12:08:49.000Z</Time>
            <Position>
              <LatitudeDegrees>40.79194061458110809326171875</LatitudeDegrees>
              <LongitudeDegrees>-4.0611998923122882843017578125</LongitudeDegrees>
            </Position>
            <AltitudeMeters>1796.5999755859375</AltitudeMeters>
            <DistanceMeters>NAN</DistanceMeters>
          </Trackpoint>
          <Trackpoint>
            <Time>2018-12-30T12:08:50.000Z</Time>
            <Position>
              <LatitudeDegrees>40.7919313944876194000244140625</LatitudeDegrees>
              <LongitudeDegrees>-4.061214812099933624267578125</LongitudeDegrees>
            </Position>
            <AltitudeMeters>1796.800048828125</AltitudeMeters>
            <DistanceMeters>NAN</DistanceMeters>
          </Trackpoint>
          <Trackpoint>
            <Time>2018-12-30T12:08:51.000Z</Time>
            <Position>
              <LatitudeDegrees>40.791924186050891876220703125</LatitudeDegrees>
              <LongitudeDegrees>-4.06123233027756214141845703125</LongitudeDegrees>
            </Position>
            <AltitudeMeters>1796.800048828125</AltitudeMeters>
            <DistanceMeters>NAN</DistanceMeters>
          </Trackpoint>
          <Trackpoint>
            <Time>2018-12-30T12:08:52.000Z</Time>
            <Position>
              <LatitudeDegrees>40.79192318022251129150390625</LatitudeDegrees>
              <LongitudeDegrees>-4.06125311739742755889892578125</LongitudeDegrees>
            </Position>
            <AltitudeMeters>1796.800048828125</AltitudeMeters>
            <DistanceMeters>NAN</DistanceMeters>
          </Trackpoint>
          <Trackpoint>
            <Time>2018-12-30T12:08:53.000Z</Time>
            <Position>
              <LatitudeDegrees>40.7919184863567352294921875</LatitudeDegrees>
              <LongitudeDegrees>-4.061270467936992645263671875</LongitudeDegrees>
            </Position>
            <AltitudeMeters>1796.800048828125</AltitudeMeters>
            <DistanceMeters>NAN</DistanceMeters>
          </Trackpoint>
          <Trackpoint>
            <Time>2018-12-30T12:08:54.000Z</Time>
            <Position>
              <LatitudeDegrees>40.79191136173903942108154296875</LatitudeDegrees>
              <LongitudeDegrees>-4.06128630973398685455322265625</LongitudeDegrees>
            </Position>
            <AltitudeMeters>1797</AltitudeMeters>
            <DistanceMeters>NAN</DistanceMeters>
          </Trackpoint>
          <Trackpoint>
            <Time>2018-12-30T12:08:55.000Z</Time>
            <Position>
              <LatitudeDegrees>40.791901387274265289306640625</LatitudeDegrees>
              <LongitudeDegrees>-4.061300642788410186767578125</LongitudeDegrees>
            </Position>
            <AltitudeMeters>1797</AltitudeMeters>
            <DistanceMeters>NAN</DistanceMeters>
          </Trackpoint>
          <Trackpoint>
            <Time>2018-12-30T12:08:56.000Z</Time>
            <Position>
              <LatitudeDegrees>40.79189409501850605010986328125</LatitudeDegrees>
              <LongitudeDegrees>-4.061314053833484649658203125</LongitudeDegrees>
            </Position>
            <AltitudeMeters>1797</AltitudeMeters>
            <DistanceMeters>NAN</DistanceMeters>
          </Trackpoint>
          <Trackpoint>
            <Time>2018-12-30T12:08:57.000Z</Time>
            <Position>
              <LatitudeDegrees>40.79188764095306396484375</LatitudeDegrees>
              <LongitudeDegrees>-4.06132780015468597412109375</LongitudeDegrees>
            </Position>
            <AltitudeMeters>1797</AltitudeMeters>
            <DistanceMeters>NAN</DistanceMeters>
          </Trackpoint>
          <Trackpoint>
            <Time>2018-12-30T12:08:58.000Z</Time>
            <Position>
              <LatitudeDegrees>40.79188873060047626495361328125</LatitudeDegrees>
              <LongitudeDegrees>-4.06134548597037792205810546875</LongitudeDegrees>
            </Position>
            <AltitudeMeters>1797</AltitudeMeters>
            <DistanceMeters>NAN</DistanceMeters>
          </Trackpoint>
          <Trackpoint>
            <Time>2018-12-30T12:08:59.000Z</Time>
            <Position>
              <LatitudeDegrees>40.79188738949596881866455078125</LatitudeDegrees>
              <LongitudeDegrees>-4.0613611601293087005615234375</LongitudeDegrees>
            </Position>
            <AltitudeMeters>1797</AltitudeMeters>
            <DistanceMeters>NAN</DistanceMeters>
          </Trackpoint>
          <Trackpoint>
            <Time>2018-12-30T12:09:00.000Z</Time>
            <Position>
              <LatitudeDegrees>40.791881941258907318115234375</LatitudeDegrees>
              <LongitudeDegrees>-4.0613836236298084259033203125</LongitudeDegrees>
            </Position>
            <AltitudeMeters>1797</AltitudeMeters>
            <DistanceMeters>NAN</DistanceMeters>
          </Trackpoint>
          <Trackpoint>
            <Time>2018-12-30T12:09:01.000Z</Time>
            <Position>
              <LatitudeDegrees>40.79187867231667041778564453125</LatitudeDegrees>
              <LongitudeDegrees>-4.061409942805767059326171875</LongitudeDegrees>
            </Position>
            <AltitudeMeters>1797.199951171875</AltitudeMeters>
            <DistanceMeters>NAN</DistanceMeters>
          </Trackpoint>
          <Trackpoint>
            <Time>2018-12-30T12:09:02.000Z</Time>
            <Position>
              <LatitudeDegrees>40.79187666065990924835205078125</LatitudeDegrees>
              <LongitudeDegrees>-4.06142771244049072265625</LongitudeDegrees>
            </Position>
            <AltitudeMeters>1797.199951171875</AltitudeMeters>
            <DistanceMeters>NAN</DistanceMeters>
          </Trackpoint>
          <Trackpoint>
            <Time>2018-12-30T12:09:03.000Z</Time>
            <Position>
              <LatitudeDegrees>40.79187347553670406341552734375</LatitudeDegrees>
              <LongitudeDegrees>-4.0614446438848972320556640625</LongitudeDegrees>
            </Position>
            <AltitudeMeters>1797.199951171875</AltitudeMeters>
            <DistanceMeters>NAN</DistanceMeters>
          </Trackpoint>
          <Trackpoint>
            <Time>2018-12-30T12:09:04.000Z</Time>
            <Position>
              <LatitudeDegrees>40.79187355935573577880859375</LatitudeDegrees>
              <LongitudeDegrees>-4.06145914457738399505615234375</LongitudeDegrees>
            </Position>
            <AltitudeMeters>1797.199951171875</AltitudeMeters>
            <DistanceMeters>NAN</DistanceMeters>
          </Trackpoint>
          <Trackpoint>
            <Time>2018-12-30T12:09:05.000Z</Time>
            <Position>
              <LatitudeDegrees>40.79186945222318172454833984375</LatitudeDegrees>
              <LongitudeDegrees>-4.06147540546953678131103515625</LongitudeDegrees>
            </Position>
            <AltitudeMeters>1797.4000244140625</AltitudeMeters>
            <DistanceMeters>NAN</DistanceMeters>
          </Trackpoint>
          <Trackpoint>
            <Time>2018-12-30T12:09:06.000Z</Time>
            <Position>
              <LatitudeDegrees>40.7918660156428813934326171875</LatitudeDegrees>
              <LongitudeDegrees>-4.0614905767142772674560546875</LongitudeDegrees>
            </Position>
            <AltitudeMeters>1797.4000244140625</AltitudeMeters>
            <DistanceMeters>NAN</DistanceMeters>
          </Trackpoint>
          <Trackpoint>
            <Time>2018-12-30T12:09:07.000Z</Time>
            <Position>
              <LatitudeDegrees>40.79185738228261470794677734375</LatitudeDegrees>
              <LongitudeDegrees>-4.06150641851127147674560546875</LongitudeDegrees>
            </Position>
            <AltitudeMeters>1797.5999755859375</AltitudeMeters>
            <DistanceMeters>NAN</DistanceMeters>
          </Trackpoint>
          <Trackpoint>
            <Time>2018-12-30T12:09:08.000Z</Time>
            <Position>
              <LatitudeDegrees>40.79184832982718944549560546875</LatitudeDegrees>
              <LongitudeDegrees>-4.06152435578405857086181640625</LongitudeDegrees>
            </Position>
            <AltitudeMeters>1797.5999755859375</AltitudeMeters>
            <DistanceMeters>NAN</DistanceMeters>
          </Trackpoint>
          <Trackpoint>
            <Time>2018-12-30T12:09:09.000Z</Time>
            <Position>
              <LatitudeDegrees>40.7918425463140010833740234375</LatitudeDegrees>
              <LongitudeDegrees>-4.0615390241146087646484375</LongitudeDegrees>
            </Position>
            <AltitudeMeters>1797.5999755859375</AltitudeMeters>
            <DistanceMeters>NAN</DistanceMeters>
          </Trackpoint>
          <Trackpoint>
            <Time>2018-12-30T12:09:10.000Z</Time>
            <Position>
              <LatitudeDegrees>40.79183592461049556732177734375</LatitudeDegrees>
              <LongitudeDegrees>-4.0615542791783809661865234375</LongitudeDegrees>
            </Position>
            <AltitudeMeters>1797.800048828125</AltitudeMeters>
            <DistanceMeters>NAN</DistanceMeters>
          </Trackpoint>
          <Trackpoint>
            <Time>2018-12-30T12:09:11.000Z</Time>
            <Position>
              <LatitudeDegrees>40.7918324880301952362060546875</LatitudeDegrees>
              <LongitudeDegrees>-4.0615693666040897369384765625</LongitudeDegrees>
            </Position>
            <AltitudeMeters>1797.800048828125</AltitudeMeters>
            <DistanceMeters>NAN</DistanceMeters>
          </Trackpoint>
          <Trackpoint>
            <Time>2018-12-30T12:09:12.000Z</Time>
            <Position>
              <LatitudeDegrees>40.79182527959346771240234375</LatitudeDegrees>
              <LongitudeDegrees>-4.0615918301045894622802734375</LongitudeDegrees>
            </Position>
            <AltitudeMeters>1797.5999755859375</AltitudeMeters>
            <DistanceMeters>NAN</DistanceMeters>
          </Trackpoint>
          <Trackpoint>
            <Time>2018-12-30T12:09:13.000Z</Time>
            <Position>
              <LatitudeDegrees>40.79182100482285022735595703125</LatitudeDegrees>
              <LongitudeDegrees>-4.06161085702478885650634765625</LongitudeDegrees>
            </Position>
            <AltitudeMeters>1797.5999755859375</AltitudeMeters>
            <DistanceMeters>NAN</DistanceMeters>
          </Trackpoint>
          <Trackpoint>
            <Time>2018-12-30T12:09:14.000Z</Time>
            <Position>
              <LatitudeDegrees>40.79181865788996219635009765625</LatitudeDegrees>
              <LongitudeDegrees>-4.06162829138338565826416015625</LongitudeDegrees>
            </Position>
            <AltitudeMeters>1797.5999755859375</AltitudeMeters>
            <DistanceMeters>NAN</DistanceMeters>
          </Trackpoint>
          <Trackpoint>
            <Time>2018-12-30T12:09:15.000Z</Time>
            <Position>
              <LatitudeDegrees>40.79181991517543792724609375</LatitudeDegrees>
              <LongitudeDegrees>-4.0616463124752044677734375</LongitudeDegrees>
            </Position>
            <AltitudeMeters>1797.4000244140625</AltitudeMeters>
            <DistanceMeters>NAN</DistanceMeters>
          </Trackpoint>
          <Trackpoint>
            <Time>2018-12-30T12:09:16.000Z</Time>
            <Position>
              <LatitudeDegrees>40.79181865788996219635009765625</LatitudeDegrees>
              <LongitudeDegrees>-4.06166433356702327728271484375</LongitudeDegrees>
            </Position>
            <AltitudeMeters>1797.199951171875</AltitudeMeters>
            <DistanceMeters>NAN</DistanceMeters>
          </Trackpoint>
          <Trackpoint>
            <Time>2018-12-30T12:09:17.000Z</Time>
            <Position>
              <LatitudeDegrees>40.79181455075740814208984375</LatitudeDegrees>
              <LongitudeDegrees>-4.06168193556368350982666015625</LongitudeDegrees>
            </Position>
            <AltitudeMeters>1797.199951171875</AltitudeMeters>
            <DistanceMeters>NAN</DistanceMeters>
          </Trackpoint>
          <Trackpoint>
            <Time>2018-12-30T12:09:18.000Z</Time>
            <Position>
              <LatitudeDegrees>40.7918113656342029571533203125</LatitudeDegrees>
              <LongitudeDegrees>-4.06170004047453403472900390625</LongitudeDegrees>
            </Position>
            <AltitudeMeters>1797</AltitudeMeters>
            <DistanceMeters>NAN</DistanceMeters>
          </Trackpoint>
          <Trackpoint>
            <Time>2018-12-30T12:09:19.000Z</Time>
            <Position>
              <LatitudeDegrees>40.7918090187013149261474609375</LatitudeDegrees>
              <LongitudeDegrees>-4.06171713955700397491455078125</LongitudeDegrees>
            </Position>
            <AltitudeMeters>1797</AltitudeMeters>
            <DistanceMeters>NAN</DistanceMeters>
          </Trackpoint>
          <Trackpoint>
            <Time>2018-12-30T12:09:20.000Z</Time>
            <Position>
              <LatitudeDegrees>40.79180927015841007232666015625</LatitudeDegrees>
              <LongitudeDegrees>-4.06173541210591793060302734375</LongitudeDegrees>
            </Position>
            <AltitudeMeters>1797</AltitudeMeters>
            <DistanceMeters>NAN</DistanceMeters>
          </Trackpoint>
          <Trackpoint>
            <Time>2018-12-30T12:09:21.000Z</Time>
            <Position>
              <LatitudeDegrees>40.7918076775968074798583984375</LatitudeDegrees>
              <LongitudeDegrees>-4.0617517568171024322509765625</LongitudeDegrees>
            </Position>
            <AltitudeMeters>1797</AltitudeMeters>
            <DistanceMeters>NAN</DistanceMeters>
          </Trackpoint>
          <Trackpoint>
            <Time>2018-12-30T12:09:22.000Z</Time>
            <Position>
              <LatitudeDegrees>40.791806168854236602783203125</LatitudeDegrees>
              <LongitudeDegrees>-4.0617651678621768951416015625</LongitudeDegrees>
            </Position>
            <AltitudeMeters>1797</AltitudeMeters>
            <DistanceMeters>NAN</DistanceMeters>
          </Trackpoint>
          <Trackpoint>
            <Time>2018-12-30T12:09:23.000Z</Time>
            <Position>
              <LatitudeDegrees>40.79180457629263401031494140625</LatitudeDegrees>
              <LongitudeDegrees>-4.06177975237369537353515625</LongitudeDegrees>
            </Position>
            <AltitudeMeters>1797</AltitudeMeters>
            <DistanceMeters>NAN</DistanceMeters>
          </Trackpoint>
          <Trackpoint>
            <Time>2018-12-30T12:09:24.000Z</Time>
            <Position>
              <LatitudeDegrees>40.79179803840816020965576171875</LatitudeDegrees>
              <LongitudeDegrees>-4.06179257668554782867431640625</LongitudeDegrees>
            </Position>
            <AltitudeMeters>1797</AltitudeMeters>
            <DistanceMeters>NAN</DistanceMeters>
          </Trackpoint>
          <Trackpoint>
            <Time>2018-12-30T12:09:25.000Z</Time>
            <Position>
              <LatitudeDegrees>40.79179619438946247100830078125</LatitudeDegrees>
              <LongitudeDegrees>-4.0618074126541614532470703125</LongitudeDegrees>
            </Position>
            <AltitudeMeters>1797</AltitudeMeters>
            <DistanceMeters>NAN</DistanceMeters>
          </Trackpoint>
          <Trackpoint>
            <Time>2018-12-30T12:09:26.000Z</Time>
            <Position>
              <LatitudeDegrees>40.791792757809162139892578125</LatitudeDegrees>
              <LongitudeDegrees>-4.06182191334664821624755859375</LongitudeDegrees>
            </Position>
            <AltitudeMeters>1797.199951171875</AltitudeMeters>
            <DistanceMeters>NAN</DistanceMeters>
          </Trackpoint>
          <Trackpoint>
            <Time>2018-12-30T12:09:27.000Z</Time>
            <Position>
              <LatitudeDegrees>40.79178764484822750091552734375</LatitudeDegrees>
              <LongitudeDegrees>-4.0618359111249446868896484375</LongitudeDegrees>
            </Position>
            <AltitudeMeters>1797.199951171875</AltitudeMeters>
            <DistanceMeters>NAN</DistanceMeters>
          </Trackpoint>
          <Trackpoint>
            <Time>2018-12-30T12:09:28.000Z</Time>
            <Position>
              <LatitudeDegrees>40.79178429208695888519287109375</LatitudeDegrees>
              <LongitudeDegrees>-4.06184722669422626495361328125</LongitudeDegrees>
            </Position>
            <AltitudeMeters>1797</AltitudeMeters>
            <DistanceMeters>NAN</DistanceMeters>
          </Trackpoint>
          <Trackpoint>
            <Time>2018-12-30T12:09:29.000Z</Time>
            <Position>
              <LatitudeDegrees>40.79178144223988056182861328125</LatitudeDegrees>
              <LongitudeDegrees>-4.06185208819806575775146484375</LongitudeDegrees>
            </Position>
            <AltitudeMeters>1797</AltitudeMeters>
            <DistanceMeters>NAN</DistanceMeters>
          </Trackpoint>
          <Trackpoint>
            <Time>2018-12-30T12:09:30.000Z</Time>
            <Position>
              <LatitudeDegrees>40.7917808555066585540771484375</LatitudeDegrees>
              <LongitudeDegrees>-4.06185007654130458831787109375</LongitudeDegrees>
            </Position>
            <AltitudeMeters>1797</AltitudeMeters>
            <DistanceMeters>NAN</DistanceMeters>
          </Trackpoint>
          <Trackpoint>
            <Time>2018-12-30T12:09:31.000Z</Time>
            <Position>
              <LatitudeDegrees>40.7917842082679271697998046875</LatitudeDegrees>
              <LongitudeDegrees>-4.06185041181743144989013671875</LongitudeDegrees>
            </Position>
            <AltitudeMeters>1797</AltitudeMeters>
            <DistanceMeters>NAN</DistanceMeters>
          </Trackpoint>
          <Trackpoint>
            <Time>2018-12-30T12:09:32.000Z</Time>
            <Position>
              <LatitudeDegrees>40.7917899079620838165283203125</LatitudeDegrees>
              <LongitudeDegrees>-4.06185242347419261932373046875</LongitudeDegrees>
            </Position>
            <AltitudeMeters>1797</AltitudeMeters>
            <DistanceMeters>NAN</DistanceMeters>
          </Trackpoint>
          <Trackpoint>
            <Time>2018-12-30T12:09:33.000Z</Time>
            <Position>
              <LatitudeDegrees>40.791797451674938201904296875</LatitudeDegrees>
              <LongitudeDegrees>-4.06185577623546123504638671875</LongitudeDegrees>
            </Position>
            <AltitudeMeters>1797</AltitudeMeters>
            <DistanceMeters>NAN</DistanceMeters>
          </Trackpoint>
          <Trackpoint>
            <Time>2018-12-30T12:09:34.000Z</Time>
            <Position>
              <LatitudeDegrees>40.79180248081684112548828125</LatitudeDegrees>
              <LongitudeDegrees>-4.0618580393493175506591796875</LongitudeDegrees>
            </Position>
            <AltitudeMeters>1797</AltitudeMeters>
            <DistanceMeters>NAN</DistanceMeters>
          </Trackpoint>
          <Trackpoint>
            <Time>2018-12-30T12:09:35.000Z</Time>
            <Position>
              <LatitudeDegrees>40.79180927015841007232666015625</LatitudeDegrees>
              <LongitudeDegrees>-4.06186181120574474334716796875</LongitudeDegrees>
            </Position>
            <AltitudeMeters>1797.199951171875</AltitudeMeters>
            <DistanceMeters>NAN</DistanceMeters>
          </Trackpoint>
          <Trackpoint>
            <Time>2018-12-30T12:09:36.000Z</Time>
            <Position>
              <LatitudeDegrees>40.79181580804288387298583984375</LatitudeDegrees>
              <LongitudeDegrees>-4.06186080537736415863037109375</LongitudeDegrees>
            </Position>
            <AltitudeMeters>1797.199951171875</AltitudeMeters>
            <DistanceMeters>NAN</DistanceMeters>
          </Trackpoint>
          <Trackpoint>
            <Time>2018-12-30T12:09:37.000Z</Time>
            <Position>
              <LatitudeDegrees>40.7918170653283596038818359375</LatitudeDegrees>
              <LongitudeDegrees>-4.0618587099015712738037109375</LongitudeDegrees>
            </Position>
            <AltitudeMeters>1797.199951171875</AltitudeMeters>
            <DistanceMeters>NAN</DistanceMeters>
          </Trackpoint>
          <Trackpoint>
            <Time>2018-12-30T12:09:38.000Z</Time>
            <Position>
              <LatitudeDegrees>40.7918113656342029571533203125</LatitudeDegrees>
              <LongitudeDegrees>-4.061849825084209442138671875</LongitudeDegrees>
            </Position>
            <AltitudeMeters>1797.199951171875</AltitudeMeters>
            <DistanceMeters>NAN</DistanceMeters>
          </Trackpoint>
          <Trackpoint>
            <Time>2018-12-30T12:09:39.000Z</Time>
            <Position>
              <LatitudeDegrees>40.79180675558745861053466796875</LatitudeDegrees>
              <LongitudeDegrees>-4.06184353865683078765869140625</LongitudeDegrees>
            </Position>
            <AltitudeMeters>1797.4000244140625</AltitudeMeters>
            <DistanceMeters>NAN</DistanceMeters>
          </Trackpoint>
          <Trackpoint>
            <Time>2018-12-30T12:09:40.000Z</Time>
            <Position>
              <LatitudeDegrees>40.79179971478879451751708984375</LatitudeDegrees>
              <LongitudeDegrees>-4.061841107904911041259765625</LongitudeDegrees>
            </Position>
            <AltitudeMeters>1797.199951171875</AltitudeMeters>
            <DistanceMeters>NAN</DistanceMeters>
          </Trackpoint>
          <Trackpoint>
            <Time>2018-12-30T12:09:41.000Z</Time>
            <Position>
              <LatitudeDegrees>40.7917915843427181243896484375</LatitudeDegrees>
              <LongitudeDegrees>-4.061832726001739501953125</LongitudeDegrees>
            </Position>
            <AltitudeMeters>1797</AltitudeMeters>
            <DistanceMeters>NAN</DistanceMeters>
          </Trackpoint>
          <Trackpoint>
            <Time>2018-12-30T12:09:42.000Z</Time>
            <Position>
              <LatitudeDegrees>40.7917855493724346160888671875</LatitudeDegrees>
              <LongitudeDegrees>-4.06181906349956989288330078125</LongitudeDegrees>
            </Position>
            <AltitudeMeters>1797.4000244140625</AltitudeMeters>
            <DistanceMeters>NAN</DistanceMeters>
          </Trackpoint>
          <Trackpoint>
            <Time>2018-12-30T12:09:43.000Z</Time>
            <Position>
              <LatitudeDegrees>40.7917875610291957855224609375</LatitudeDegrees>
              <LongitudeDegrees>-4.06179986894130706787109375</LongitudeDegrees>
            </Position>
            <AltitudeMeters>1797.5999755859375</AltitudeMeters>
            <DistanceMeters>NAN</DistanceMeters>
          </Trackpoint>
          <Trackpoint>
            <Time>2018-12-30T12:09:44.000Z</Time>
            <Position>
              <LatitudeDegrees>40.79179367981851100921630859375</LatitudeDegrees>
              <LongitudeDegrees>-4.06178670935332775115966796875</LongitudeDegrees>
            </Position>
            <AltitudeMeters>1797.800048828125</AltitudeMeters>
            <DistanceMeters>NAN</DistanceMeters>
          </Trackpoint>
          <Trackpoint>
            <Time>2018-12-30T12:09:45.000Z</Time>
            <Position>
              <LatitudeDegrees>40.7917972840368747711181640625</LatitudeDegrees>
              <LongitudeDegrees>-4.0617762319743633270263671875</LongitudeDegrees>
            </Position>
            <AltitudeMeters>1797.5999755859375</AltitudeMeters>
            <DistanceMeters>NAN</DistanceMeters>
          </Trackpoint>
          <Trackpoint>
            <Time>2018-12-30T12:09:46.000Z</Time>
            <Position>
              <LatitudeDegrees>40.79180139116942882537841796875</LatitudeDegrees>
              <LongitudeDegrees>-4.0617696940898895263671875</LongitudeDegrees>
            </Position>
            <AltitudeMeters>1798</AltitudeMeters>
            <DistanceMeters>NAN</DistanceMeters>
          </Trackpoint>
          <Trackpoint>
            <Time>2018-12-30T12:09:47.000Z</Time>
            <Position>
              <LatitudeDegrees>40.79179636202752590179443359375</LatitudeDegrees>
              <LongitudeDegrees>-4.06175686977803707122802734375</LongitudeDegrees>
            </Position>
            <AltitudeMeters>1797.199951171875</AltitudeMeters>
            <DistanceMeters>NAN</DistanceMeters>
          </Trackpoint>
          <Trackpoint>
            <Time>2018-12-30T12:09:48.000Z</Time>
            <Position>
              <LatitudeDegrees>40.79179284162819385528564453125</LatitudeDegrees>
              <LongitudeDegrees>-4.06175083480775356292724609375</LongitudeDegrees>
            </Position>
            <AltitudeMeters>1797.199951171875</AltitudeMeters>
            <DistanceMeters>NAN</DistanceMeters>
          </Trackpoint>
          <Trackpoint>
            <Time>2018-12-30T12:09:49.000Z</Time>
            <Position>
              <LatitudeDegrees>40.79178932122886180877685546875</LatitudeDegrees>
              <LongitudeDegrees>-4.06174882315099239349365234375</LongitudeDegrees>
            </Position>
            <AltitudeMeters>1797.5999755859375</AltitudeMeters>
            <DistanceMeters>NAN</DistanceMeters>
          </Trackpoint>
          <Trackpoint>
            <Time>2018-12-30T12:09:50.000Z</Time>
            <Position>
              <LatitudeDegrees>40.7917872257530689239501953125</LatitudeDegrees>
              <LongitudeDegrees>-4.06174764968454837799072265625</LongitudeDegrees>
            </Position>
            <AltitudeMeters>1797.4000244140625</AltitudeMeters>
            <DistanceMeters>NAN</DistanceMeters>
          </Trackpoint>
          <Trackpoint>
            <Time>2018-12-30T12:09:51.000Z</Time>
            <Position>
              <LatitudeDegrees>40.79178647138178348541259765625</LatitudeDegrees>
              <LongitudeDegrees>-4.06174748204648494720458984375</LongitudeDegrees>
            </Position>
            <AltitudeMeters>1797</AltitudeMeters>
            <DistanceMeters>NAN</DistanceMeters>
          </Trackpoint>
          <Trackpoint>
            <Time>2018-12-30T12:09:52.000Z</Time>
            <Position>
              <LatitudeDegrees>40.79178680665791034698486328125</LatitudeDegrees>
              <LongitudeDegrees>-4.061748571693897247314453125</LongitudeDegrees>
            </Position>
            <AltitudeMeters>1797</AltitudeMeters>
            <DistanceMeters>NAN</DistanceMeters>
          </Trackpoint>
          <Trackpoint>
            <Time>2018-12-30T12:09:53.000Z</Time>
            <Position>
              <LatitudeDegrees>40.79178697429597377777099609375</LatitudeDegrees>
              <LongitudeDegrees>-4.06174899078905582427978515625</LongitudeDegrees>
            </Position>
            <AltitudeMeters>1797.199951171875</AltitudeMeters>
            <DistanceMeters>NAN</DistanceMeters>
          </Trackpoint>
          <Trackpoint>
            <Time>2018-12-30T12:09:54.000Z</Time>
            <Position>
              <LatitudeDegrees>40.7917872257530689239501953125</LatitudeDegrees>
              <LongitudeDegrees>-4.06174949370324611663818359375</LongitudeDegrees>
            </Position>
            <AltitudeMeters>1797</AltitudeMeters>
            <DistanceMeters>NAN</DistanceMeters>
          </Trackpoint>
          <Trackpoint>
            <Time>2018-12-30T12:09:55.000Z</Time>
            <Position>
              <LatitudeDegrees>40.7917878963053226470947265625</LatitudeDegrees>
              <LongitudeDegrees>-4.06174999661743640899658203125</LongitudeDegrees>
            </Position>
            <AltitudeMeters>1797</AltitudeMeters>
            <DistanceMeters>NAN</DistanceMeters>
          </Trackpoint>
          <Trackpoint>
            <Time>2018-12-30T12:09:56.000Z</Time>
            <Position>
              <LatitudeDegrees>40.79178898595273494720458984375</LatitudeDegrees>
              <LongitudeDegrees>-4.06175133772194385528564453125</LongitudeDegrees>
            </Position>
            <AltitudeMeters>1797</AltitudeMeters>
            <DistanceMeters>NAN</DistanceMeters>
          </Trackpoint>
          <Trackpoint>
            <Time>2018-12-30T12:09:57.000Z</Time>
            <Position>
              <LatitudeDegrees>40.79178965650498867034912109375</LatitudeDegrees>
              <LongitudeDegrees>-4.06175158917903900146484375</LongitudeDegrees>
            </Position>
            <AltitudeMeters>1797</AltitudeMeters>
            <DistanceMeters>NAN</DistanceMeters>
          </Trackpoint>
          <Trackpoint>
            <Time>2018-12-30T12:09:58.000Z</Time>
            <Position>
              <LatitudeDegrees>40.79178915359079837799072265625</LatitudeDegrees>
              <LongitudeDegrees>-4.061750583350658416748046875</LongitudeDegrees>
            </Position>
            <AltitudeMeters>1797</AltitudeMeters>
            <DistanceMeters>NAN</DistanceMeters>
          </Trackpoint>
          <Trackpoint>
            <Time>2018-12-30T12:09:59.000Z</Time>
            <Position>
              <LatitudeDegrees>40.79178906977176666259765625</LatitudeDegrees>
              <LongitudeDegrees>-4.06174982897937297821044921875</LongitudeDegrees>
            </Position>
            <AltitudeMeters>1797.199951171875</AltitudeMeters>
            <DistanceMeters>NAN</DistanceMeters>
          </Trackpoint>
          <Trackpoint>
            <Time>2018-12-30T12:10:00.000Z</Time>
            <Position>
              <LatitudeDegrees>40.79178915359079837799072265625</LatitudeDegrees>
              <LongitudeDegrees>-4.06174957752227783203125</LongitudeDegrees>
            </Position>
            <AltitudeMeters>1797.199951171875</AltitudeMeters>
            <DistanceMeters>NAN</DistanceMeters>
          </Trackpoint>
          <Trackpoint>
            <Time>2018-12-30T12:10:01.000Z</Time>
            <Position>
              <LatitudeDegrees>40.791789405047893524169921875</LatitudeDegrees>
              <LongitudeDegrees>-4.0617494098842144012451171875</LongitudeDegrees>
            </Position>
            <AltitudeMeters>1797.4000244140625</AltitudeMeters>
            <DistanceMeters>NAN</DistanceMeters>
          </Trackpoint>
          <Trackpoint>
            <Time>2018-12-30T12:10:02.000Z</Time>
            <Position>
              <LatitudeDegrees>40.79178982414305210113525390625</LatitudeDegrees>
              <LongitudeDegrees>-4.0617490746080875396728515625</LongitudeDegrees>
            </Position>
            <AltitudeMeters>1797.4000244140625</AltitudeMeters>
            <DistanceMeters>NAN</DistanceMeters>
          </Trackpoint>
          <Trackpoint>
            <Time>2018-12-30T12:10:03.000Z</Time>
            <Position>
              <LatitudeDegrees>40.79179082997143268585205078125</LatitudeDegrees>
              <LongitudeDegrees>-4.06174932606518268585205078125</LongitudeDegrees>
            </Position>
            <AltitudeMeters>1797.199951171875</AltitudeMeters>
            <DistanceMeters>NAN</DistanceMeters>
          </Trackpoint>
          <Trackpoint>
            <Time>2018-12-30T12:10:04.000Z</Time>
            <Position>
              <LatitudeDegrees>40.79179175198078155517578125</LatitudeDegrees>
              <LongitudeDegrees>-4.06175435520708560943603515625</LongitudeDegrees>
            </Position>
            <AltitudeMeters>1797.199951171875</AltitudeMeters>
            <DistanceMeters>NAN</DistanceMeters>
          </Trackpoint>
          <Trackpoint>
            <Time>2018-12-30T12:10:05.000Z</Time>
            <Position>
              <LatitudeDegrees>40.791791416704654693603515625</LatitudeDegrees>
              <LongitudeDegrees>-4.06176365911960601806640625</LongitudeDegrees>
            </Position>
            <AltitudeMeters>1796.800048828125</AltitudeMeters>
            <DistanceMeters>NAN</DistanceMeters>
          </Trackpoint>
          <Trackpoint>
            <Time>2018-12-30T12:10:06.000Z</Time>
            <Position>
              <LatitudeDegrees>40.79179150052368640899658203125</LatitudeDegrees>
              <LongitudeDegrees>-4.0617782436311244964599609375</LongitudeDegrees>
            </Position>
            <AltitudeMeters>1796.5999755859375</AltitudeMeters>
            <DistanceMeters>NAN</DistanceMeters>
          </Trackpoint>
          <Trackpoint>
            <Time>2018-12-30T12:10:07.000Z</Time>
            <Position>
              <LatitudeDegrees>40.79179015941917896270751953125</LatitudeDegrees>
              <LongitudeDegrees>-4.0617933310568332672119140625</LongitudeDegrees>
            </Position>
            <AltitudeMeters>1796.5999755859375</AltitudeMeters>
            <DistanceMeters>NAN</DistanceMeters>
          </Trackpoint>
          <Trackpoint>
            <Time>2018-12-30T12:10:08.000Z</Time>
            <Position>
              <LatitudeDegrees>40.7917872257530689239501953125</LatitudeDegrees>
              <LongitudeDegrees>-4.06180833466351032257080078125</LongitudeDegrees>
            </Position>
            <AltitudeMeters>1796.4000244140625</AltitudeMeters>
            <DistanceMeters>NAN</DistanceMeters>
          </Trackpoint>
          <Trackpoint>
            <Time>2018-12-30T12:10:09.000Z</Time>
            <Position>
              <LatitudeDegrees>40.79178496263921260833740234375</LatitudeDegrees>
              <LongitudeDegrees>-4.0618235059082508087158203125</LongitudeDegrees>
            </Position>
            <AltitudeMeters>1796.4000244140625</AltitudeMeters>
            <DistanceMeters>NAN</DistanceMeters>
          </Trackpoint>
          <Trackpoint>
            <Time>2018-12-30T12:10:10.000Z</Time>
            <Position>
              <LatitudeDegrees>40.7917798496782779693603515625</LatitudeDegrees>
              <LongitudeDegrees>-4.06183867715299129486083984375</LongitudeDegrees>
            </Position>
            <AltitudeMeters>1796.5999755859375</AltitudeMeters>
            <DistanceMeters>NAN</DistanceMeters>
          </Trackpoint>
          <Trackpoint>
            <Time>2018-12-30T12:10:11.000Z</Time>
            <Position>
              <LatitudeDegrees>40.7917775027453899383544921875</LatitudeDegrees>
              <LongitudeDegrees>-4.0618555247783660888671875</LongitudeDegrees>
            </Position>
            <AltitudeMeters>1796.4000244140625</AltitudeMeters>
            <DistanceMeters>NAN</DistanceMeters>
          </Trackpoint>
          <Trackpoint>
            <Time>2018-12-30T12:10:12.000Z</Time>
            <Position>
              <LatitudeDegrees>40.7917763292789459228515625</LatitudeDegrees>
              <LongitudeDegrees>-4.0618743002414703369140625</LongitudeDegrees>
            </Position>
            <AltitudeMeters>1795.800048828125</AltitudeMeters>
            <DistanceMeters>NAN</DistanceMeters>
          </Trackpoint>
          <Trackpoint>
            <Time>2018-12-30T12:10:13.000Z</Time>
            <Position>
              <LatitudeDegrees>40.79177121631801128387451171875</LatitudeDegrees>
              <LongitudeDegrees>-4.0618902258574962615966796875</LongitudeDegrees>
            </Position>
            <AltitudeMeters>1795.800048828125</AltitudeMeters>
            <DistanceMeters>NAN</DistanceMeters>
          </Trackpoint>
          <Trackpoint>
            <Time>2018-12-30T12:10:14.000Z</Time>
            <Position>
              <LatitudeDegrees>40.791768617928028106689453125</LatitudeDegrees>
              <LongitudeDegrees>-4.06190640293061733245849609375</LongitudeDegrees>
            </Position>
            <AltitudeMeters>1796</AltitudeMeters>
            <DistanceMeters>NAN</DistanceMeters>
          </Trackpoint>
          <Trackpoint>
            <Time>2018-12-30T12:10:15.000Z</Time>
            <Position>
              <LatitudeDegrees>40.79176836647093296051025390625</LatitudeDegrees>
              <LongitudeDegrees>-4.06192333437502384185791015625</LongitudeDegrees>
            </Position>
            <AltitudeMeters>1796</AltitudeMeters>
            <DistanceMeters>NAN</DistanceMeters>
          </Trackpoint>
          <Trackpoint>
            <Time>2018-12-30T12:10:16.000Z</Time>
            <Position>
              <LatitudeDegrees>40.7917714677751064300537109375</LatitudeDegrees>
              <LongitudeDegrees>-4.0619405172765254974365234375</LongitudeDegrees>
            </Position>
            <AltitudeMeters>1796</AltitudeMeters>
            <DistanceMeters>NAN</DistanceMeters>
          </Trackpoint>
          <Trackpoint>
            <Time>2018-12-30T12:10:17.000Z</Time>
            <Position>
              <LatitudeDegrees>40.7917751558125019073486328125</LatitudeDegrees>
              <LongitudeDegrees>-4.061960466206073760986328125</LongitudeDegrees>
            </Position>
            <AltitudeMeters>1796</AltitudeMeters>
            <DistanceMeters>NAN</DistanceMeters>
          </Trackpoint>
          <Trackpoint>
            <Time>2018-12-30T12:10:18.000Z</Time>
            <Position>
              <LatitudeDegrees>40.79177306033670902252197265625</LatitudeDegrees>
              <LongitudeDegrees>-4.06197798438370227813720703125</LongitudeDegrees>
            </Position>
            <AltitudeMeters>1796</AltitudeMeters>
            <DistanceMeters>NAN</DistanceMeters>
          </Trackpoint>
          <Trackpoint>
            <Time>2018-12-30T12:10:19.000Z</Time>
            <Position>
              <LatitudeDegrees>40.7917728088796138763427734375</LatitudeDegrees>
              <LongitudeDegrees>-4.0619958378374576568603515625</LongitudeDegrees>
            </Position>
            <AltitudeMeters>1796</AltitudeMeters>
            <DistanceMeters>NAN</DistanceMeters>
          </Trackpoint>
          <Trackpoint>
            <Time>2018-12-30T12:10:20.000Z</Time>
            <Position>
              <LatitudeDegrees>40.79176551662385463714599609375</LatitudeDegrees>
              <LongitudeDegrees>-4.0620110929012298583984375</LongitudeDegrees>
            </Position>
            <AltitudeMeters>1796</AltitudeMeters>
            <DistanceMeters>NAN</DistanceMeters>
          </Trackpoint>
          <Trackpoint>
            <Time>2018-12-30T12:10:21.000Z</Time>
            <Position>
              <LatitudeDegrees>40.79175830818712711334228515625</LatitudeDegrees>
              <LongitudeDegrees>-4.0620283596217632293701171875</LongitudeDegrees>
            </Position>
            <AltitudeMeters>1796</AltitudeMeters>
            <DistanceMeters>NAN</DistanceMeters>
          </Trackpoint>
          <Trackpoint>
            <Time>2018-12-30T12:10:22.000Z</Time>
            <Position>
              <LatitudeDegrees>40.79175361432135105133056640625</LatitudeDegrees>
              <LongitudeDegrees>-4.0620471350848674774169921875</LongitudeDegrees>
            </Position>
            <AltitudeMeters>1795.800048828125</AltitudeMeters>
            <DistanceMeters>NAN</DistanceMeters>
          </Trackpoint>
          <Trackpoint>
            <Time>2018-12-30T12:10:23.000Z</Time>
            <Position>
              <LatitudeDegrees>40.79174892045557498931884765625</LatitudeDegrees>
              <LongitudeDegrees>-4.06206549145281314849853515625</LongitudeDegrees>
            </Position>
            <AltitudeMeters>1795.800048828125</AltitudeMeters>
            <DistanceMeters>NAN</DistanceMeters>
          </Trackpoint>
          <Trackpoint>
            <Time>2018-12-30T12:10:24.000Z</Time>
            <Position>
              <LatitudeDegrees>40.79174355603754520416259765625</LatitudeDegrees>
              <LongitudeDegrees>-4.0620835125446319580078125</LongitudeDegrees>
            </Position>
            <AltitudeMeters>1795.800048828125</AltitudeMeters>
            <DistanceMeters>NAN</DistanceMeters>
          </Trackpoint>
          <Trackpoint>
            <Time>2018-12-30T12:10:25.000Z</Time>
            <Position>
              <LatitudeDegrees>40.79173617996275424957275390625</LatitudeDegrees>
              <LongitudeDegrees>-4.062100611627101898193359375</LongitudeDegrees>
            </Position>
            <AltitudeMeters>1795.800048828125</AltitudeMeters>
            <DistanceMeters>NAN</DistanceMeters>
          </Trackpoint>
          <Trackpoint>
            <Time>2018-12-30T12:10:26.000Z</Time>
            <Position>
              <LatitudeDegrees>40.7917312346398830413818359375</LatitudeDegrees>
              <LongitudeDegrees>-4.062117375433444976806640625</LongitudeDegrees>
            </Position>
            <AltitudeMeters>1795.800048828125</AltitudeMeters>
            <DistanceMeters>NAN</DistanceMeters>
          </Trackpoint>
          <Trackpoint>
            <Time>2018-12-30T12:10:27.000Z</Time>
            <Position>
              <LatitudeDegrees>40.79173014499247074127197265625</LatitudeDegrees>
              <LongitudeDegrees>-4.06213589943945407867431640625</LongitudeDegrees>
            </Position>
            <AltitudeMeters>1795.800048828125</AltitudeMeters>
            <DistanceMeters>NAN</DistanceMeters>
          </Trackpoint>
          <Trackpoint>
            <Time>2018-12-30T12:10:28.000Z</Time>
            <Position>
              <LatitudeDegrees>40.79172997735440731048583984375</LatitudeDegrees>
              <LongitudeDegrees>-4.06215316615998744964599609375</LongitudeDegrees>
            </Position>
            <AltitudeMeters>1795.800048828125</AltitudeMeters>
            <DistanceMeters>NAN</DistanceMeters>
          </Trackpoint>
          <Trackpoint>
            <Time>2018-12-30T12:10:29.000Z</Time>
            <Position>
              <LatitudeDegrees>40.7917231880128383636474609375</LatitudeDegrees>
              <LongitudeDegrees>-4.06216724775731563568115234375</LongitudeDegrees>
            </Position>
            <AltitudeMeters>1796</AltitudeMeters>
            <DistanceMeters>NAN</DistanceMeters>
          </Trackpoint>
          <Trackpoint>
            <Time>2018-12-30T12:10:30.000Z</Time>
            <Position>
              <LatitudeDegrees>40.79171706922352313995361328125</LatitudeDegrees>
              <LongitudeDegrees>-4.0621805749833583831787109375</LongitudeDegrees>
            </Position>
            <AltitudeMeters>1796</AltitudeMeters>
            <DistanceMeters>NAN</DistanceMeters>
          </Trackpoint>
          <Trackpoint>
            <Time>2018-12-30T12:10:31.000Z</Time>
            <Position>
              <LatitudeDegrees>40.79171254299581050872802734375</LatitudeDegrees>
              <LongitudeDegrees>-4.062197841703891754150390625</LongitudeDegrees>
            </Position>
            <AltitudeMeters>1796</AltitudeMeters>
            <DistanceMeters>NAN</DistanceMeters>
          </Trackpoint>
          <Trackpoint>
            <Time>2018-12-30T12:10:32.000Z</Time>
            <Position>
              <LatitudeDegrees>40.79171053133904933929443359375</LatitudeDegrees>
              <LongitudeDegrees>-4.0622167848050594329833984375</LongitudeDegrees>
            </Position>
            <AltitudeMeters>1796</AltitudeMeters>
            <DistanceMeters>NAN</DistanceMeters>
          </Trackpoint>
          <Trackpoint>
            <Time>2018-12-30T12:10:33.000Z</Time>
            <Position>
              <LatitudeDegrees>40.7917044125497341156005859375</LatitudeDegrees>
              <LongitudeDegrees>-4.0622310340404510498046875</LongitudeDegrees>
            </Position>
            <AltitudeMeters>1796</AltitudeMeters>
            <DistanceMeters>NAN</DistanceMeters>
          </Trackpoint>
          <Trackpoint>
            <Time>2018-12-30T12:10:34.000Z</Time>
            <Position>
              <LatitudeDegrees>40.79169519245624542236328125</LatitudeDegrees>
              <LongitudeDegrees>-4.06224452890455722808837890625</LongitudeDegrees>
            </Position>
            <AltitudeMeters>1796</AltitudeMeters>
            <DistanceMeters>NAN</DistanceMeters>
          </Trackpoint>
          <Trackpoint>
            <Time>2018-12-30T12:10:35.000Z</Time>
            <Position>
              <LatitudeDegrees>40.79168605618178844451904296875</LatitudeDegrees>
              <LongitudeDegrees>-4.06225995160639286041259765625</LongitudeDegrees>
            </Position>
            <AltitudeMeters>1796</AltitudeMeters>
            <DistanceMeters>NAN</DistanceMeters>
          </Trackpoint>
          <Trackpoint>
            <Time>2018-12-30T12:10:36.000Z</Time>
            <Position>
              <LatitudeDegrees>40.791676081717014312744140625</LatitudeDegrees>
              <LongitudeDegrees>-4.06227420084178447723388671875</LongitudeDegrees>
            </Position>
            <AltitudeMeters>1796.199951171875</AltitudeMeters>
            <DistanceMeters>NAN</DistanceMeters>
          </Trackpoint>
          <Trackpoint>
            <Time>2018-12-30T12:10:37.000Z</Time>
            <Position>
              <LatitudeDegrees>40.79166644252836704254150390625</LatitudeDegrees>
              <LongitudeDegrees>-4.0622865222394466400146484375</LongitudeDegrees>
            </Position>
            <AltitudeMeters>1796.199951171875</AltitudeMeters>
            <DistanceMeters>NAN</DistanceMeters>
          </Trackpoint>
          <Trackpoint>
            <Time>2018-12-30T12:10:38.000Z</Time>
            <Position>
              <LatitudeDegrees>40.79166023992002010345458984375</LatitudeDegrees>
              <LongitudeDegrees>-4.06229917891323566436767578125</LongitudeDegrees>
            </Position>
            <AltitudeMeters>1796.199951171875</AltitudeMeters>
            <DistanceMeters>NAN</DistanceMeters>
          </Trackpoint>
          <Trackpoint>
            <Time>2018-12-30T12:10:39.000Z</Time>
            <Position>
              <LatitudeDegrees>40.791653953492641448974609375</LatitudeDegrees>
              <LongitudeDegrees>-4.06230974011123180389404296875</LongitudeDegrees>
            </Position>
            <AltitudeMeters>1796.4000244140625</AltitudeMeters>
            <DistanceMeters>NAN</DistanceMeters>
          </Trackpoint>
          <Trackpoint>
            <Time>2018-12-30T12:10:40.000Z</Time>
            <Position>
              <LatitudeDegrees>40.791651271283626556396484375</LatitudeDegrees>
              <LongitudeDegrees>-4.06232298351824283599853515625</LongitudeDegrees>
            </Position>
            <AltitudeMeters>1796.4000244140625</AltitudeMeters>
            <DistanceMeters>NAN</DistanceMeters>
          </Trackpoint>
          <Trackpoint>
            <Time>2018-12-30T12:10:41.000Z</Time>
            <Position>
              <LatitudeDegrees>40.79164967872202396392822265625</LatitudeDegrees>
              <LongitudeDegrees>-4.062338657677173614501953125</LongitudeDegrees>
            </Position>
            <AltitudeMeters>1796.4000244140625</AltitudeMeters>
            <DistanceMeters>NAN</DistanceMeters>
          </Trackpoint>
          <Trackpoint>
            <Time>2018-12-30T12:10:42.000Z</Time>
            <Position>
              <LatitudeDegrees>40.79164154827594757080078125</LatitudeDegrees>
              <LongitudeDegrees>-4.0623515658080577850341796875</LongitudeDegrees>
            </Position>
            <AltitudeMeters>1796.4000244140625</AltitudeMeters>
            <DistanceMeters>NAN</DistanceMeters>
          </Trackpoint>
          <Trackpoint>
            <Time>2018-12-30T12:10:43.000Z</Time>
            <Position>
              <LatitudeDegrees>40.7916355133056640625</LatitudeDegrees>
              <LongitudeDegrees>-4.06236371956765651702880859375</LongitudeDegrees>
            </Position>
            <AltitudeMeters>1796.4000244140625</AltitudeMeters>
            <DistanceMeters>NAN</DistanceMeters>
          </Trackpoint>
          <Trackpoint>
            <Time>2018-12-30T12:10:44.000Z</Time>
            <Position>
              <LatitudeDegrees>40.7916261255741119384765625</LatitudeDegrees>
              <LongitudeDegrees>-4.06237696297466754913330078125</LongitudeDegrees>
            </Position>
            <AltitudeMeters>1796.4000244140625</AltitudeMeters>
            <DistanceMeters>NAN</DistanceMeters>
          </Trackpoint>
          <Trackpoint>
            <Time>2018-12-30T12:10:45.000Z</Time>
            <Position>
              <LatitudeDegrees>40.79162050969898700714111328125</LatitudeDegrees>
              <LongitudeDegrees>-4.06239037401974201202392578125</LongitudeDegrees>
            </Position>
            <AltitudeMeters>1796.4000244140625</AltitudeMeters>
            <DistanceMeters>NAN</DistanceMeters>
          </Trackpoint>
          <Trackpoint>
            <Time>2018-12-30T12:10:46.000Z</Time>
            <Position>
              <LatitudeDegrees>40.79161363653838634490966796875</LatitudeDegrees>
              <LongitudeDegrees>-4.06240462325513362884521484375</LongitudeDegrees>
            </Position>
            <AltitudeMeters>1796.5999755859375</AltitudeMeters>
            <DistanceMeters>NAN</DistanceMeters>
          </Trackpoint>
          <Trackpoint>
            <Time>2018-12-30T12:10:47.000Z</Time>
            <Position>
              <LatitudeDegrees>40.79160558991134166717529296875</LatitudeDegrees>
              <LongitudeDegrees>-4.06241677701473236083984375</LongitudeDegrees>
            </Position>
            <AltitudeMeters>1796.5999755859375</AltitudeMeters>
            <DistanceMeters>NAN</DistanceMeters>
          </Trackpoint>
          <Trackpoint>
            <Time>2018-12-30T12:10:48.000Z</Time>
            <Position>
              <LatitudeDegrees>40.7915957830846309661865234375</LatitudeDegrees>
              <LongitudeDegrees>-4.062428511679172515869140625</LongitudeDegrees>
            </Position>
            <AltitudeMeters>1796.800048828125</AltitudeMeters>
            <DistanceMeters>NAN</DistanceMeters>
          </Trackpoint>
          <Trackpoint>
            <Time>2018-12-30T12:10:49.000Z</Time>
            <Position>
              <LatitudeDegrees>40.791588909924030303955078125</LatitudeDegrees>
              <LongitudeDegrees>-4.0624417550861835479736328125</LongitudeDegrees>
            </Position>
            <AltitudeMeters>1796.800048828125</AltitudeMeters>
            <DistanceMeters>NAN</DistanceMeters>
          </Trackpoint>
          <Trackpoint>
            <Time>2018-12-30T12:10:50.000Z</Time>
            <Position>
              <LatitudeDegrees>40.79158253967761993408203125</LatitudeDegrees>
              <LongitudeDegrees>-4.0624548308551311492919921875</LongitudeDegrees>
            </Position>
            <AltitudeMeters>1797</AltitudeMeters>
            <DistanceMeters>NAN</DistanceMeters>
          </Trackpoint>
          <Trackpoint>
            <Time>2018-12-30T12:10:51.000Z</Time>
            <Position>
              <LatitudeDegrees>40.79157809726893901824951171875</LatitudeDegrees>
              <LongitudeDegrees>-4.0624722652137279510498046875</LongitudeDegrees>
            </Position>
            <AltitudeMeters>1797</AltitudeMeters>
            <DistanceMeters>NAN</DistanceMeters>
          </Trackpoint>
          <Trackpoint>
            <Time>2018-12-30T12:10:52.000Z</Time>
            <Position>
              <LatitudeDegrees>40.791572816669940948486328125</LatitudeDegrees>
              <LongitudeDegrees>-4.0624912083148956298828125</LongitudeDegrees>
            </Position>
            <AltitudeMeters>1797.199951171875</AltitudeMeters>
            <DistanceMeters>NAN</DistanceMeters>
          </Trackpoint>
          <Trackpoint>
            <Time>2018-12-30T12:10:53.000Z</Time>
            <Position>
              <LatitudeDegrees>40.79156686551868915557861328125</LatitudeDegrees>
              <LongitudeDegrees>-4.06250604428350925445556640625</LongitudeDegrees>
            </Position>
            <AltitudeMeters>1797.199951171875</AltitudeMeters>
            <DistanceMeters>NAN</DistanceMeters>
          </Trackpoint>
          <Trackpoint>
            <Time>2018-12-30T12:10:54.000Z</Time>
            <Position>
              <LatitudeDegrees>40.79155948944389820098876953125</LatitudeDegrees>
              <LongitudeDegrees>-4.062520377337932586669921875</LongitudeDegrees>
            </Position>
            <AltitudeMeters>1797.5999755859375</AltitudeMeters>
            <DistanceMeters>NAN</DistanceMeters>
          </Trackpoint>
          <Trackpoint>
            <Time>2018-12-30T12:10:55.000Z</Time>
            <Position>
              <LatitudeDegrees>40.79155982472002506256103515625</LatitudeDegrees>
              <LongitudeDegrees>-4.06253957189619541168212890625</LongitudeDegrees>
            </Position>
            <AltitudeMeters>1797.800048828125</AltitudeMeters>
            <DistanceMeters>NAN</DistanceMeters>
          </Trackpoint>
          <Trackpoint>
            <Time>2018-12-30T12:10:56.000Z</Time>
            <Position>
              <LatitudeDegrees>40.79155303537845611572265625</LatitudeDegrees>
              <LongitudeDegrees>-4.06255449168384075164794921875</LongitudeDegrees>
            </Position>
            <AltitudeMeters>1798</AltitudeMeters>
            <DistanceMeters>NAN</DistanceMeters>
          </Trackpoint>
          <Trackpoint>
            <Time>2018-12-30T12:10:57.000Z</Time>
            <Position>
              <LatitudeDegrees>40.79154406674206256866455078125</LatitudeDegrees>
              <LongitudeDegrees>-4.062567651271820068359375</LongitudeDegrees>
            </Position>
            <AltitudeMeters>1798.199951171875</AltitudeMeters>
            <DistanceMeters>NAN</DistanceMeters>
          </Trackpoint>
          <Trackpoint>
            <Time>2018-12-30T12:10:58.000Z</Time>
            <Position>
              <LatitudeDegrees>40.79153350554406642913818359375</LatitudeDegrees>
              <LongitudeDegrees>-4.06258164905011653900146484375</LongitudeDegrees>
            </Position>
            <AltitudeMeters>1798.4000244140625</AltitudeMeters>
            <DistanceMeters>NAN</DistanceMeters>
          </Trackpoint>
          <Trackpoint>
            <Time>2018-12-30T12:10:59.000Z</Time>
            <Position>
              <LatitudeDegrees>40.79152512364089488983154296875</LatitudeDegrees>
              <LongitudeDegrees>-4.06259715557098388671875</LongitudeDegrees>
            </Position>
            <AltitudeMeters>1798.4000244140625</AltitudeMeters>
            <DistanceMeters>NAN</DistanceMeters>
          </Trackpoint>
          <Trackpoint>
            <Time>2018-12-30T12:11:00.000Z</Time>
            <Position>
              <LatitudeDegrees>40.79151808284223079681396484375</LatitudeDegrees>
              <LongitudeDegrees>-4.06261333264410495758056640625</LongitudeDegrees>
            </Position>
            <AltitudeMeters>1798.4000244140625</AltitudeMeters>
            <DistanceMeters>NAN</DistanceMeters>
          </Trackpoint>
          <Trackpoint>
            <Time>2018-12-30T12:11:01.000Z</Time>
            <Position>
              <LatitudeDegrees>40.79150877892971038818359375</LatitudeDegrees>
              <LongitudeDegrees>-4.06262959353625774383544921875</LongitudeDegrees>
            </Position>
            <AltitudeMeters>1798.4000244140625</AltitudeMeters>
            <DistanceMeters>NAN</DistanceMeters>
          </Trackpoint>
          <Trackpoint>
            <Time>2018-12-30T12:11:02.000Z</Time>
            <Position>
              <LatitudeDegrees>40.7915002293884754180908203125</LatitudeDegrees>
              <LongitudeDegrees>-4.062644429504871368408203125</LongitudeDegrees>
            </Position>
            <AltitudeMeters>1798.5999755859375</AltitudeMeters>
            <DistanceMeters>NAN</DistanceMeters>
          </Trackpoint>
          <Trackpoint>
            <Time>2018-12-30T12:11:03.000Z</Time>
            <Position>
              <LatitudeDegrees>40.79149159602820873260498046875</LatitudeDegrees>
              <LongitudeDegrees>-4.06265876255929470062255859375</LongitudeDegrees>
            </Position>
            <AltitudeMeters>1798.800048828125</AltitudeMeters>
            <DistanceMeters>NAN</DistanceMeters>
          </Trackpoint>
          <Trackpoint>
            <Time>2018-12-30T12:11:04.000Z</Time>
            <Position>
              <LatitudeDegrees>40.79148656688630580902099609375</LatitudeDegrees>
              <LongitudeDegrees>-4.06267418526113033294677734375</LongitudeDegrees>
            </Position>
            <AltitudeMeters>1799</AltitudeMeters>
            <DistanceMeters>NAN</DistanceMeters>
          </Trackpoint>
          <Trackpoint>
            <Time>2018-12-30T12:11:05.000Z</Time>
            <Position>
              <LatitudeDegrees>40.79148086719214916229248046875</LatitudeDegrees>
              <LongitudeDegrees>-4.06269178725779056549072265625</LongitudeDegrees>
            </Position>
            <AltitudeMeters>1799</AltitudeMeters>
            <DistanceMeters>NAN</DistanceMeters>
          </Trackpoint>
          <Trackpoint>
            <Time>2018-12-30T12:11:06.000Z</Time>
            <Position>
              <LatitudeDegrees>40.79147600568830966949462890625</LatitudeDegrees>
              <LongitudeDegrees>-4.0627062879502773284912109375</LongitudeDegrees>
            </Position>
            <AltitudeMeters>1799.199951171875</AltitudeMeters>
            <DistanceMeters>NAN</DistanceMeters>
          </Trackpoint>
          <Trackpoint>
            <Time>2018-12-30T12:11:07.000Z</Time>
            <Position>
              <LatitudeDegrees>40.791471563279628753662109375</LatitudeDegrees>
              <LongitudeDegrees>-4.06271575950086116790771484375</LongitudeDegrees>
            </Position>
            <AltitudeMeters>1799.199951171875</AltitudeMeters>
            <DistanceMeters>NAN</DistanceMeters>
          </Trackpoint>
          <Trackpoint>
            <Time>2018-12-30T12:11:08.000Z</Time>
            <Position>
              <LatitudeDegrees>40.791468881070613861083984375</LatitudeDegrees>
              <LongitudeDegrees>-4.0627287514507770538330078125</LongitudeDegrees>
            </Position>
            <AltitudeMeters>1799.199951171875</AltitudeMeters>
            <DistanceMeters>NAN</DistanceMeters>
          </Trackpoint>
          <Trackpoint>
            <Time>2018-12-30T12:11:09.000Z</Time>
            <Position>
              <LatitudeDegrees>40.79146678559482097625732421875</LatitudeDegrees>
              <LongitudeDegrees>-4.06274191103875637054443359375</LongitudeDegrees>
            </Position>
            <AltitudeMeters>1799.199951171875</AltitudeMeters>
            <DistanceMeters>NAN</DistanceMeters>
          </Trackpoint>
          <Trackpoint>
            <Time>2018-12-30T12:11:10.000Z</Time>
            <Position>
              <LatitudeDegrees>40.7914589904248714447021484375</LatitudeDegrees>
              <LongitudeDegrees>-4.0627515502274036407470703125</LongitudeDegrees>
            </Position>
            <AltitudeMeters>1799.4000244140625</AltitudeMeters>
            <DistanceMeters>NAN</DistanceMeters>
          </Trackpoint>
          <Trackpoint>
            <Time>2018-12-30T12:11:11.000Z</Time>
            <Position>
              <LatitudeDegrees>40.79145002178847789764404296875</LatitudeDegrees>
              <LongitudeDegrees>-4.06276353634893894195556640625</LongitudeDegrees>
            </Position>
            <AltitudeMeters>1799.4000244140625</AltitudeMeters>
            <DistanceMeters>NAN</DistanceMeters>
          </Trackpoint>
          <Trackpoint>
            <Time>2018-12-30T12:11:12.000Z</Time>
            <Position>
              <LatitudeDegrees>40.79143895767629146575927734375</LatitudeDegrees>
              <LongitudeDegrees>-4.06277560628950595855712890625</LongitudeDegrees>
            </Position>
            <AltitudeMeters>1799.4000244140625</AltitudeMeters>
            <DistanceMeters>NAN</DistanceMeters>
          </Trackpoint>
          <Trackpoint>
            <Time>2018-12-30T12:11:13.000Z</Time>
            <Position>
              <LatitudeDegrees>40.791428983211517333984375</LatitudeDegrees>
              <LongitudeDegrees>-4.06279094517230987548828125</LongitudeDegrees>
            </Position>
            <AltitudeMeters>1799.4000244140625</AltitudeMeters>
            <DistanceMeters>NAN</DistanceMeters>
          </Trackpoint>
          <Trackpoint>
            <Time>2018-12-30T12:11:14.000Z</Time>
            <Position>
              <LatitudeDegrees>40.79142026603221893310546875</LatitudeDegrees>
              <LongitudeDegrees>-4.06280728988349437713623046875</LongitudeDegrees>
            </Position>
            <AltitudeMeters>1799.199951171875</AltitudeMeters>
            <DistanceMeters>NAN</DistanceMeters>
          </Trackpoint>
          <Trackpoint>
            <Time>2018-12-30T12:11:15.000Z</Time>
            <Position>
              <LatitudeDegrees>40.7914088666439056396484375</LatitudeDegrees>
              <LongitudeDegrees>-4.062824137508869171142578125</LongitudeDegrees>
            </Position>
            <AltitudeMeters>1799.199951171875</AltitudeMeters>
            <DistanceMeters>NAN</DistanceMeters>
          </Trackpoint>
          <Trackpoint>
            <Time>2018-12-30T12:11:16.000Z</Time>
            <Position>
              <LatitudeDegrees>40.79140006564557552337646484375</LatitudeDegrees>
              <LongitudeDegrees>-4.06283964402973651885986328125</LongitudeDegrees>
            </Position>
            <AltitudeMeters>1799.199951171875</AltitudeMeters>
            <DistanceMeters>NAN</DistanceMeters>
          </Trackpoint>
          <Trackpoint>
            <Time>2018-12-30T12:11:17.000Z</Time>
            <Position>
              <LatitudeDegrees>40.79139352776110172271728515625</LatitudeDegrees>
              <LongitudeDegrees>-4.0628554858267307281494140625</LongitudeDegrees>
            </Position>
            <AltitudeMeters>1799</AltitudeMeters>
            <DistanceMeters>NAN</DistanceMeters>
          </Trackpoint>
          <Trackpoint>
            <Time>2018-12-30T12:11:18.000Z</Time>
            <Position>
              <LatitudeDegrees>40.791386403143405914306640625</LatitudeDegrees>
              <LongitudeDegrees>-4.06287015415728092193603515625</LongitudeDegrees>
            </Position>
            <AltitudeMeters>1799</AltitudeMeters>
            <DistanceMeters>NAN</DistanceMeters>
          </Trackpoint>
          <Trackpoint>
            <Time>2018-12-30T12:11:19.000Z</Time>
            <Position>
              <LatitudeDegrees>40.79138179309666156768798828125</LatitudeDegrees>
              <LongitudeDegrees>-4.06288356520235538482666015625</LongitudeDegrees>
            </Position>
            <AltitudeMeters>1799</AltitudeMeters>
            <DistanceMeters>NAN</DistanceMeters>
          </Trackpoint>
          <Trackpoint>
            <Time>2018-12-30T12:11:20.000Z</Time>
            <Position>
              <LatitudeDegrees>40.79137735068798065185546875</LatitudeDegrees>
              <LongitudeDegrees>-4.06289714388549327850341796875</LongitudeDegrees>
            </Position>
            <AltitudeMeters>1799.199951171875</AltitudeMeters>
            <DistanceMeters>NAN</DistanceMeters>
          </Trackpoint>
          <Trackpoint>
            <Time>2018-12-30T12:11:21.000Z</Time>
            <Position>
              <LatitudeDegrees>40.79137022607028484344482421875</LatitudeDegrees>
              <LongitudeDegrees>-4.062911309301853179931640625</LongitudeDegrees>
            </Position>
            <AltitudeMeters>1799.5999755859375</AltitudeMeters>
            <DistanceMeters>NAN</DistanceMeters>
          </Trackpoint>
          <Trackpoint>
            <Time>2018-12-30T12:11:22.000Z</Time>
            <Position>
              <LatitudeDegrees>40.79136452637612819671630859375</LatitudeDegrees>
              <LongitudeDegrees>-4.062926732003688812255859375</LongitudeDegrees>
            </Position>
            <AltitudeMeters>1799.800048828125</AltitudeMeters>
            <DistanceMeters>NAN</DistanceMeters>
          </Trackpoint>
          <Trackpoint>
            <Time>2018-12-30T12:11:23.000Z</Time>
            <Position>
              <LatitudeDegrees>40.79136134125292301177978515625</LatitudeDegrees>
              <LongitudeDegrees>-4.06294324435293674468994140625</LongitudeDegrees>
            </Position>
            <AltitudeMeters>1800</AltitudeMeters>
            <DistanceMeters>NAN</DistanceMeters>
          </Trackpoint>
          <Trackpoint>
            <Time>2018-12-30T12:11:24.000Z</Time>
            <Position>
              <LatitudeDegrees>40.7913550548255443572998046875</LatitudeDegrees>
              <LongitudeDegrees>-4.06296101398766040802001953125</LongitudeDegrees>
            </Position>
            <AltitudeMeters>1800.199951171875</AltitudeMeters>
            <DistanceMeters>NAN</DistanceMeters>
          </Trackpoint>
          <Trackpoint>
            <Time>2018-12-30T12:11:25.000Z</Time>
            <Position>
              <LatitudeDegrees>40.7913547195494174957275390625</LatitudeDegrees>
              <LongitudeDegrees>-4.062979035079479217529296875</LongitudeDegrees>
            </Position>
            <AltitudeMeters>1800.4000244140625</AltitudeMeters>
            <DistanceMeters>NAN</DistanceMeters>
          </Trackpoint>
          <Trackpoint>
            <Time>2018-12-30T12:11:26.000Z</Time>
            <Position>
              <LatitudeDegrees>40.79134709201753139495849609375</LatitudeDegrees>
              <LongitudeDegrees>-4.06299403868615627288818359375</LongitudeDegrees>
            </Position>
            <AltitudeMeters>1800.5999755859375</AltitudeMeters>
            <DistanceMeters>NAN</DistanceMeters>
          </Trackpoint>
          <Trackpoint>
            <Time>2018-12-30T12:11:27.000Z</Time>
            <Position>
              <LatitudeDegrees>40.79134038649499416351318359375</LatitudeDegrees>
              <LongitudeDegrees>-4.06301222741603851318359375</LongitudeDegrees>
            </Position>
            <AltitudeMeters>1800.5999755859375</AltitudeMeters>
            <DistanceMeters>NAN</DistanceMeters>
          </Trackpoint>
          <Trackpoint>
            <Time>2018-12-30T12:11:28.000Z</Time>
            <Position>
              <LatitudeDegrees>40.791335441172122955322265625</LatitudeDegrees>
              <LongitudeDegrees>-4.06302840448915958404541015625</LongitudeDegrees>
            </Position>
            <AltitudeMeters>1800.5999755859375</AltitudeMeters>
            <DistanceMeters>NAN</DistanceMeters>
          </Trackpoint>
          <Trackpoint>
            <Time>2018-12-30T12:11:29.000Z</Time>
            <Position>
              <LatitudeDegrees>40.7913325913250446319580078125</LatitudeDegrees>
              <LongitudeDegrees>-4.063045084476470947265625</LongitudeDegrees>
            </Position>
            <AltitudeMeters>1800.4000244140625</AltitudeMeters>
            <DistanceMeters>NAN</DistanceMeters>
          </Trackpoint>
          <Trackpoint>
            <Time>2018-12-30T12:11:30.000Z</Time>
            <Position>
              <LatitudeDegrees>40.79132974147796630859375</LatitudeDegrees>
              <LongitudeDegrees>-4.063061513006687164306640625</LongitudeDegrees>
            </Position>
            <AltitudeMeters>1800.4000244140625</AltitudeMeters>
            <DistanceMeters>NAN</DistanceMeters>
          </Trackpoint>
          <Trackpoint>
            <Time>2018-12-30T12:11:31.000Z</Time>
            <Position>
              <LatitudeDegrees>40.791328065097332000732421875</LatitudeDegrees>
              <LongitudeDegrees>-4.06307769007980823516845703125</LongitudeDegrees>
            </Position>
            <AltitudeMeters>1800.199951171875</AltitudeMeters>
            <DistanceMeters>NAN</DistanceMeters>
          </Trackpoint>
          <Trackpoint>
            <Time>2018-12-30T12:11:32.000Z</Time>
            <Position>
              <LatitudeDegrees>40.79132697544991970062255859375</LatitudeDegrees>
              <LongitudeDegrees>-4.06309680081903934478759765625</LongitudeDegrees>
            </Position>
            <AltitudeMeters>1800</AltitudeMeters>
            <DistanceMeters>NAN</DistanceMeters>
          </Trackpoint>
          <Trackpoint>
            <Time>2018-12-30T12:11:33.000Z</Time>
            <Position>
              <LatitudeDegrees>40.79132362268865108489990234375</LatitudeDegrees>
              <LongitudeDegrees>-4.06311281025409698486328125</LongitudeDegrees>
            </Position>
            <AltitudeMeters>1800</AltitudeMeters>
            <DistanceMeters>NAN</DistanceMeters>
          </Trackpoint>
          <Trackpoint>
            <Time>2018-12-30T12:11:34.000Z</Time>
            <Position>
              <LatitudeDegrees>40.79131876118481159210205078125</LatitudeDegrees>
              <LongitudeDegrees>-4.063130579888820648193359375</LongitudeDegrees>
            </Position>
            <AltitudeMeters>1800.199951171875</AltitudeMeters>
            <DistanceMeters>NAN</DistanceMeters>
          </Trackpoint>
          <Trackpoint>
            <Time>2018-12-30T12:11:35.000Z</Time>
            <Position>
              <LatitudeDegrees>40.7913148216903209686279296875</LatitudeDegrees>
              <LongitudeDegrees>-4.06314876861870288848876953125</LongitudeDegrees>
            </Position>
            <AltitudeMeters>1800.4000244140625</AltitudeMeters>
            <DistanceMeters>NAN</DistanceMeters>
          </Trackpoint>
          <Trackpoint>
            <Time>2018-12-30T12:11:36.000Z</Time>
            <Position>
              <LatitudeDegrees>40.791313312947750091552734375</LatitudeDegrees>
              <LongitudeDegrees>-4.06316578388214111328125</LongitudeDegrees>
            </Position>
            <AltitudeMeters>1800.5999755859375</AltitudeMeters>
            <DistanceMeters>NAN</DistanceMeters>
          </Trackpoint>
          <Trackpoint>
            <Time>2018-12-30T12:11:37.000Z</Time>
            <Position>
              <LatitudeDegrees>40.791308619081974029541015625</LatitudeDegrees>
              <LongitudeDegrees>-4.06318145804107189178466796875</LongitudeDegrees>
            </Position>
            <AltitudeMeters>1800.800048828125</AltitudeMeters>
            <DistanceMeters>NAN</DistanceMeters>
          </Trackpoint>
          <Trackpoint>
            <Time>2018-12-30T12:11:38.000Z</Time>
            <Position>
              <LatitudeDegrees>40.79130417667329311370849609375</LatitudeDegrees>
              <LongitudeDegrees>-4.0631967969238758087158203125</LongitudeDegrees>
            </Position>
            <AltitudeMeters>1801</AltitudeMeters>
            <DistanceMeters>NAN</DistanceMeters>
          </Trackpoint>
          <Trackpoint>
            <Time>2018-12-30T12:11:39.000Z</Time>
            <Position>
              <LatitudeDegrees>40.79129881225526332855224609375</LatitudeDegrees>
              <LongitudeDegrees>-4.0632125549018383026123046875</LongitudeDegrees>
            </Position>
            <AltitudeMeters>1801.199951171875</AltitudeMeters>
            <DistanceMeters>NAN</DistanceMeters>
          </Trackpoint>
          <Trackpoint>
            <Time>2018-12-30T12:11:40.000Z</Time>
            <Position>
              <LatitudeDegrees>40.7912957109510898590087890625</LatitudeDegrees>
              <LongitudeDegrees>-4.0632286481559276580810546875</LongitudeDegrees>
            </Position>
            <AltitudeMeters>1801.4000244140625</AltitudeMeters>
            <DistanceMeters>NAN</DistanceMeters>
          </Trackpoint>
          <Trackpoint>
            <Time>2018-12-30T12:11:41.000Z</Time>
            <Position>
              <LatitudeDegrees>40.79129151999950408935546875</LatitudeDegrees>
              <LongitudeDegrees>-4.0632437355816364288330078125</LongitudeDegrees>
            </Position>
            <AltitudeMeters>1801.5999755859375</AltitudeMeters>
            <DistanceMeters>NAN</DistanceMeters>
          </Trackpoint>
          <Trackpoint>
            <Time>2018-12-30T12:11:42.000Z</Time>
            <Position>
              <LatitudeDegrees>40.79128758050501346588134765625</LatitudeDegrees>
              <LongitudeDegrees>-4.06325890682637691497802734375</LongitudeDegrees>
            </Position>
            <AltitudeMeters>1801.5999755859375</AltitudeMeters>
            <DistanceMeters>NAN</DistanceMeters>
          </Trackpoint>
          <Trackpoint>
            <Time>2018-12-30T12:11:43.000Z</Time>
            <Position>
              <LatitudeDegrees>40.79128271900117397308349609375</LatitudeDegrees>
              <LongitudeDegrees>-4.0632749162614345550537109375</LongitudeDegrees>
            </Position>
            <AltitudeMeters>1801.800048828125</AltitudeMeters>
            <DistanceMeters>NAN</DistanceMeters>
          </Trackpoint>
          <Trackpoint>
            <Time>2018-12-30T12:11:44.000Z</Time>
            <Position>
              <LatitudeDegrees>40.79127869568765163421630859375</LatitudeDegrees>
              <LongitudeDegrees>-4.06329226680099964141845703125</LongitudeDegrees>
            </Position>
            <AltitudeMeters>1801.800048828125</AltitudeMeters>
            <DistanceMeters>NAN</DistanceMeters>
          </Trackpoint>
          <Trackpoint>
            <Time>2018-12-30T12:11:45.000Z</Time>
            <Position>
              <LatitudeDegrees>40.79127634875476360321044921875</LatitudeDegrees>
              <LongitudeDegrees>-4.06330986879765987396240234375</LongitudeDegrees>
            </Position>
            <AltitudeMeters>1801.800048828125</AltitudeMeters>
            <DistanceMeters>NAN</DistanceMeters>
          </Trackpoint>
          <Trackpoint>
            <Time>2018-12-30T12:11:46.000Z</Time>
            <Position>
              <LatitudeDegrees>40.7912745885550975799560546875</LatitudeDegrees>
              <LongitudeDegrees>-4.06332671642303466796875</LongitudeDegrees>
            </Position>
            <AltitudeMeters>1801.800048828125</AltitudeMeters>
            <DistanceMeters>NAN</DistanceMeters>
          </Trackpoint>
          <Trackpoint>
            <Time>2018-12-30T12:11:47.000Z</Time>
            <Position>
              <LatitudeDegrees>40.79127366654574871063232421875</LatitudeDegrees>
              <LongitudeDegrees>-4.06334389932453632354736328125</LongitudeDegrees>
            </Position>
            <AltitudeMeters>1801.800048828125</AltitudeMeters>
            <DistanceMeters>NAN</DistanceMeters>
          </Trackpoint>
          <Trackpoint>
            <Time>2018-12-30T12:11:48.000Z</Time>
            <Position>
              <LatitudeDegrees>40.7912739180028438568115234375</LatitudeDegrees>
              <LongitudeDegrees>-4.06336016021668910980224609375</LongitudeDegrees>
            </Position>
            <AltitudeMeters>1802</AltitudeMeters>
            <DistanceMeters>NAN</DistanceMeters>
          </Trackpoint>
          <Trackpoint>
            <Time>2018-12-30T12:11:49.000Z</Time>
            <Position>
              <LatitudeDegrees>40.79127316363155841827392578125</LatitudeDegrees>
              <LongitudeDegrees>-4.06337491236627101898193359375</LongitudeDegrees>
            </Position>
            <AltitudeMeters>1802.199951171875</AltitudeMeters>
            <DistanceMeters>NAN</DistanceMeters>
          </Trackpoint>
          <Trackpoint>
            <Time>2018-12-30T12:11:50.000Z</Time>
            <Position>
              <LatitudeDegrees>40.79127182252705097198486328125</LatitudeDegrees>
              <LongitudeDegrees>-4.06339033506810665130615234375</LongitudeDegrees>
            </Position>
            <AltitudeMeters>1802.4000244140625</AltitudeMeters>
            <DistanceMeters>NAN</DistanceMeters>
          </Trackpoint>
          <Trackpoint>
            <Time>2018-12-30T12:11:51.000Z</Time>
            <Position>
              <LatitudeDegrees>40.791271068155765533447265625</LatitudeDegrees>
              <LongitudeDegrees>-4.0634066797792911529541015625</LongitudeDegrees>
            </Position>
            <AltitudeMeters>1802.5999755859375</AltitudeMeters>
            <DistanceMeters>NAN</DistanceMeters>
          </Trackpoint>
          <Trackpoint>
            <Time>2018-12-30T12:11:52.000Z</Time>
            <Position>
              <LatitudeDegrees>40.7912678830325603485107421875</LatitudeDegrees>
              <LongitudeDegrees>-4.06342126429080963134765625</LongitudeDegrees>
            </Position>
            <AltitudeMeters>1802.800048828125</AltitudeMeters>
            <DistanceMeters>NAN</DistanceMeters>
          </Trackpoint>
          <Trackpoint>
            <Time>2018-12-30T12:11:53.000Z</Time>
            <Position>
              <LatitudeDegrees>40.7912675477564334869384765625</LatitudeDegrees>
              <LongitudeDegrees>-4.0634368546307086944580078125</LongitudeDegrees>
            </Position>
            <AltitudeMeters>1802.800048828125</AltitudeMeters>
            <DistanceMeters>NAN</DistanceMeters>
          </Trackpoint>
          <Trackpoint>
            <Time>2018-12-30T12:11:54.000Z</Time>
            <Position>
              <LatitudeDegrees>40.79126696102321147918701171875</LatitudeDegrees>
              <LongitudeDegrees>-4.0634512715041637420654296875</LongitudeDegrees>
            </Position>
            <AltitudeMeters>1803</AltitudeMeters>
            <DistanceMeters>NAN</DistanceMeters>
          </Trackpoint>
          <Trackpoint>
            <Time>2018-12-30T12:11:55.000Z</Time>
            <Position>
              <LatitudeDegrees>40.7912675477564334869384765625</LatitudeDegrees>
              <LongitudeDegrees>-4.06346560455858707427978515625</LongitudeDegrees>
            </Position>
            <AltitudeMeters>1802.800048828125</AltitudeMeters>
            <DistanceMeters>NAN</DistanceMeters>
          </Trackpoint>
          <Trackpoint>
            <Time>2018-12-30T12:11:56.000Z</Time>
            <Position>
              <LatitudeDegrees>40.79126930795609951019287109375</LatitudeDegrees>
              <LongitudeDegrees>-4.06348203308880329132080078125</LongitudeDegrees>
            </Position>
            <AltitudeMeters>1802.800048828125</AltitudeMeters>
            <DistanceMeters>NAN</DistanceMeters>
          </Trackpoint>
          <Trackpoint>
            <Time>2018-12-30T12:11:57.000Z</Time>
            <Position>
              <LatitudeDegrees>40.79127282835543155670166015625</LatitudeDegrees>
              <LongitudeDegrees>-4.06349837779998779296875</LongitudeDegrees>
            </Position>
            <AltitudeMeters>1802.5999755859375</AltitudeMeters>
            <DistanceMeters>NAN</DistanceMeters>
          </Trackpoint>
          <Trackpoint>
            <Time>2018-12-30T12:11:58.000Z</Time>
            <Position>
              <LatitudeDegrees>40.79127601347863674163818359375</LatitudeDegrees>
              <LongitudeDegrees>-4.06351556070148944854736328125</LongitudeDegrees>
            </Position>
            <AltitudeMeters>1802.5999755859375</AltitudeMeters>
            <DistanceMeters>NAN</DistanceMeters>
          </Trackpoint>
          <Trackpoint>
            <Time>2018-12-30T12:11:59.000Z</Time>
            <Position>
              <LatitudeDegrees>40.79127869568765163421630859375</LatitudeDegrees>
              <LongitudeDegrees>-4.06353249214589595794677734375</LongitudeDegrees>
            </Position>
            <AltitudeMeters>1802.4000244140625</AltitudeMeters>
            <DistanceMeters>NAN</DistanceMeters>
          </Trackpoint>
          <Trackpoint>
            <Time>2018-12-30T12:12:00.000Z</Time>
            <Position>
              <LatitudeDegrees>40.79127970151603221893310546875</LatitudeDegrees>
              <LongitudeDegrees>-4.0635498426854610443115234375</LongitudeDegrees>
            </Position>
            <AltitudeMeters>1802.5999755859375</AltitudeMeters>
            <DistanceMeters>NAN</DistanceMeters>
          </Trackpoint>
          <Trackpoint>
            <Time>2018-12-30T12:12:01.000Z</Time>
            <Position>
              <LatitudeDegrees>40.79128690995275974273681640625</LatitudeDegrees>
              <LongitudeDegrees>-4.06356853432953357696533203125</LongitudeDegrees>
            </Position>
            <AltitudeMeters>1802.5999755859375</AltitudeMeters>
            <DistanceMeters>NAN</DistanceMeters>
          </Trackpoint>
          <Trackpoint>
            <Time>2018-12-30T12:12:02.000Z</Time>
            <Position>
              <LatitudeDegrees>40.7912903465330600738525390625</LatitudeDegrees>
              <LongitudeDegrees>-4.0635883994400501251220703125</LongitudeDegrees>
            </Position>
            <AltitudeMeters>1803</AltitudeMeters>
            <DistanceMeters>NAN</DistanceMeters>
          </Trackpoint>
          <Trackpoint>
            <Time>2018-12-30T12:12:03.000Z</Time>
            <Position>
              <LatitudeDegrees>40.79129177145659923553466796875</LatitudeDegrees>
              <LongitudeDegrees>-4.06360859982669353485107421875</LongitudeDegrees>
            </Position>
            <AltitudeMeters>1803.199951171875</AltitudeMeters>
            <DistanceMeters>NAN</DistanceMeters>
          </Trackpoint>
          <Trackpoint>
            <Time>2018-12-30T12:12:04.000Z</Time>
            <Position>
              <LatitudeDegrees>40.7912930287420749664306640625</LatitudeDegrees>
              <LongitudeDegrees>-4.06362620182335376739501953125</LongitudeDegrees>
            </Position>
            <AltitudeMeters>1803.5999755859375</AltitudeMeters>
            <DistanceMeters>NAN</DistanceMeters>
          </Trackpoint>
          <Trackpoint>
            <Time>2018-12-30T12:12:05.000Z</Time>
            <Position>
              <LatitudeDegrees>40.79129579477012157440185546875</LatitudeDegrees>
              <LongitudeDegrees>-4.0636418759822845458984375</LongitudeDegrees>
            </Position>
            <AltitudeMeters>1803.5999755859375</AltitudeMeters>
            <DistanceMeters>NAN</DistanceMeters>
          </Trackpoint>
          <Trackpoint>
            <Time>2018-12-30T12:12:06.000Z</Time>
            <Position>
              <LatitudeDegrees>40.79129956662654876708984375</LatitudeDegrees>
              <LongitudeDegrees>-4.06365788541734218597412109375</LongitudeDegrees>
            </Position>
            <AltitudeMeters>1803.800048828125</AltitudeMeters>
            <DistanceMeters>NAN</DistanceMeters>
          </Trackpoint>
          <Trackpoint>
            <Time>2018-12-30T12:12:07.000Z</Time>
            <Position>
              <LatitudeDegrees>40.7913004048168659210205078125</LatitudeDegrees>
              <LongitudeDegrees>-4.06367339193820953369140625</LongitudeDegrees>
            </Position>
            <AltitudeMeters>1804</AltitudeMeters>
            <DistanceMeters>NAN</DistanceMeters>
          </Trackpoint>
          <Trackpoint>
            <Time>2018-12-30T12:12:08.000Z</Time>
            <Position>
              <LatitudeDegrees>40.791300237178802490234375</LatitudeDegrees>
              <LongitudeDegrees>-4.06369107775390148162841796875</LongitudeDegrees>
            </Position>
            <AltitudeMeters>1804</AltitudeMeters>
            <DistanceMeters>NAN</DistanceMeters>
          </Trackpoint>
          <Trackpoint>
            <Time>2018-12-30T12:12:09.000Z</Time>
            <Position>
              <LatitudeDegrees>40.79129931516945362091064453125</LatitudeDegrees>
              <LongitudeDegrees>-4.0637087635695934295654296875</LongitudeDegrees>
            </Position>
            <AltitudeMeters>1804</AltitudeMeters>
            <DistanceMeters>NAN</DistanceMeters>
          </Trackpoint>
          <Trackpoint>
            <Time>2018-12-30T12:12:10.000Z</Time>
            <Position>
              <LatitudeDegrees>40.791296549141407012939453125</LatitudeDegrees>
              <LongitudeDegrees>-4.0637241862714290618896484375</LongitudeDegrees>
            </Position>
            <AltitudeMeters>1803.800048828125</AltitudeMeters>
            <DistanceMeters>NAN</DistanceMeters>
          </Trackpoint>
          <Trackpoint>
            <Time>2018-12-30T12:12:11.000Z</Time>
            <Position>
              <LatitudeDegrees>40.7912935316562652587890625</LatitudeDegrees>
              <LongitudeDegrees>-4.0637426264584064483642578125</LongitudeDegrees>
            </Position>
            <AltitudeMeters>1803.5999755859375</AltitudeMeters>
            <DistanceMeters>NAN</DistanceMeters>
          </Trackpoint>
          <Trackpoint>
            <Time>2018-12-30T12:12:12.000Z</Time>
            <Position>
              <LatitudeDegrees>40.79129328019917011260986328125</LatitudeDegrees>
              <LongitudeDegrees>-4.06376165337860584259033203125</LongitudeDegrees>
            </Position>
            <AltitudeMeters>1803.5999755859375</AltitudeMeters>
            <DistanceMeters>NAN</DistanceMeters>
          </Trackpoint>
          <Trackpoint>
            <Time>2018-12-30T12:12:13.000Z</Time>
            <Position>
              <LatitudeDegrees>40.79129361547529697418212890625</LatitudeDegrees>
              <LongitudeDegrees>-4.063781015574932098388671875</LongitudeDegrees>
            </Position>
            <AltitudeMeters>1803.5999755859375</AltitudeMeters>
            <DistanceMeters>NAN</DistanceMeters>
          </Trackpoint>
          <Trackpoint>
            <Time>2018-12-30T12:12:14.000Z</Time>
            <Position>
              <LatitudeDegrees>40.7912920229136943817138671875</LatitudeDegrees>
              <LongitudeDegrees>-4.063800461590290069580078125</LongitudeDegrees>
            </Position>
            <AltitudeMeters>1803.4000244140625</AltitudeMeters>
            <DistanceMeters>NAN</DistanceMeters>
          </Trackpoint>
          <Trackpoint>
            <Time>2018-12-30T12:12:15.000Z</Time>
            <Position>
              <LatitudeDegrees>40.791293866932392120361328125</LatitudeDegrees>
              <LongitudeDegrees>-4.0638215839862823486328125</LongitudeDegrees>
            </Position>
            <AltitudeMeters>1803.4000244140625</AltitudeMeters>
            <DistanceMeters>NAN</DistanceMeters>
          </Trackpoint>
          <Trackpoint>
            <Time>2018-12-30T12:12:16.000Z</Time>
            <Position>
              <LatitudeDegrees>40.7912980578839778900146484375</LatitudeDegrees>
              <LongitudeDegrees>-4.063839018344879150390625</LongitudeDegrees>
            </Position>
            <AltitudeMeters>1803.5999755859375</AltitudeMeters>
            <DistanceMeters>NAN</DistanceMeters>
          </Trackpoint>
          <Trackpoint>
            <Time>2018-12-30T12:12:17.000Z</Time>
            <Position>
              <LatitudeDegrees>40.791305266320705413818359375</LatitudeDegrees>
              <LongitudeDegrees>-4.06385586597025394439697265625</LongitudeDegrees>
            </Position>
            <AltitudeMeters>1803.800048828125</AltitudeMeters>
            <DistanceMeters>NAN</DistanceMeters>
          </Trackpoint>
          <Trackpoint>
            <Time>2018-12-30T12:12:18.000Z</Time>
            <Position>
              <LatitudeDegrees>40.79130954109132289886474609375</LatitudeDegrees>
              <LongitudeDegrees>-4.06387397088110446929931640625</LongitudeDegrees>
            </Position>
            <AltitudeMeters>1804</AltitudeMeters>
            <DistanceMeters>NAN</DistanceMeters>
          </Trackpoint>
          <Trackpoint>
            <Time>2018-12-30T12:12:19.000Z</Time>
            <Position>
              <LatitudeDegrees>40.79130937345325946807861328125</LatitudeDegrees>
              <LongitudeDegrees>-4.063889645040035247802734375</LongitudeDegrees>
            </Position>
            <AltitudeMeters>1804</AltitudeMeters>
            <DistanceMeters>NAN</DistanceMeters>
          </Trackpoint>
          <Trackpoint>
            <Time>2018-12-30T12:12:20.000Z</Time>
            <Position>
              <LatitudeDegrees>40.79131297767162322998046875</LatitudeDegrees>
              <LongitudeDegrees>-4.0639035589993000030517578125</LongitudeDegrees>
            </Position>
            <AltitudeMeters>1804</AltitudeMeters>
            <DistanceMeters>NAN</DistanceMeters>
          </Trackpoint>
          <Trackpoint>
            <Time>2018-12-30T12:12:21.000Z</Time>
            <Position>
              <LatitudeDegrees>40.79131557606160640716552734375</LatitudeDegrees>
              <LongitudeDegrees>-4.06391873024404048919677734375</LongitudeDegrees>
            </Position>
            <AltitudeMeters>1804.199951171875</AltitudeMeters>
            <DistanceMeters>NAN</DistanceMeters>
          </Trackpoint>
          <Trackpoint>
            <Time>2018-12-30T12:12:22.000Z</Time>
            <Position>
              <LatitudeDegrees>40.7913232035934925079345703125</LatitudeDegrees>
              <LongitudeDegrees>-4.06393616460263729095458984375</LongitudeDegrees>
            </Position>
            <AltitudeMeters>1804.199951171875</AltitudeMeters>
            <DistanceMeters>NAN</DistanceMeters>
          </Trackpoint>
          <Trackpoint>
            <Time>2018-12-30T12:12:23.000Z</Time>
            <Position>
              <LatitudeDegrees>40.7913275621831417083740234375</LatitudeDegrees>
              <LongitudeDegrees>-4.06395443715155124664306640625</LongitudeDegrees>
            </Position>
            <AltitudeMeters>1804.4000244140625</AltitudeMeters>
            <DistanceMeters>NAN</DistanceMeters>
          </Trackpoint>
          <Trackpoint>
            <Time>2018-12-30T12:12:24.000Z</Time>
            <Position>
              <LatitudeDegrees>40.79133309423923492431640625</LatitudeDegrees>
              <LongitudeDegrees>-4.06397438608109951019287109375</LongitudeDegrees>
            </Position>
            <AltitudeMeters>1804.4000244140625</AltitudeMeters>
            <DistanceMeters>NAN</DistanceMeters>
          </Trackpoint>
          <Trackpoint>
            <Time>2018-12-30T12:12:25.000Z</Time>
            <Position>
              <LatitudeDegrees>40.79133703373372554779052734375</LatitudeDegrees>
              <LongitudeDegrees>-4.063994921743869781494140625</LongitudeDegrees>
            </Position>
            <AltitudeMeters>1804.5999755859375</AltitudeMeters>
            <DistanceMeters>NAN</DistanceMeters>
          </Trackpoint>
          <Trackpoint>
            <Time>2018-12-30T12:12:26.000Z</Time>
            <Position>
              <LatitudeDegrees>40.79133887775242328643798828125</LatitudeDegrees>
              <LongitudeDegrees>-4.0640121884644031524658203125</LongitudeDegrees>
            </Position>
            <AltitudeMeters>1804.5999755859375</AltitudeMeters>
            <DistanceMeters>NAN</DistanceMeters>
          </Trackpoint>
          <Trackpoint>
            <Time>2018-12-30T12:12:27.000Z</Time>
            <Position>
              <LatitudeDegrees>40.79134189523756504058837890625</LatitudeDegrees>
              <LongitudeDegrees>-4.06403004191815853118896484375</LongitudeDegrees>
            </Position>
            <AltitudeMeters>1804.5999755859375</AltitudeMeters>
            <DistanceMeters>NAN</DistanceMeters>
          </Trackpoint>
          <Trackpoint>
            <Time>2018-12-30T12:12:28.000Z</Time>
            <Position>
              <LatitudeDegrees>40.79134516417980194091796875</LatitudeDegrees>
              <LongitudeDegrees>-4.06404864974319934844970703125</LongitudeDegrees>
            </Position>
            <AltitudeMeters>1804.800048828125</AltitudeMeters>
            <DistanceMeters>NAN</DistanceMeters>
          </Trackpoint>
          <Trackpoint>
            <Time>2018-12-30T12:12:29.000Z</Time>
            <Position>
              <LatitudeDegrees>40.7913480140268802642822265625</LatitudeDegrees>
              <LongitudeDegrees>-4.06406759284436702728271484375</LongitudeDegrees>
            </Position>
            <AltitudeMeters>1804.800048828125</AltitudeMeters>
            <DistanceMeters>NAN</DistanceMeters>
          </Trackpoint>
          <Trackpoint>
            <Time>2018-12-30T12:12:30.000Z</Time>
            <Position>
              <LatitudeDegrees>40.7913500256836414337158203125</LatitudeDegrees>
              <LongitudeDegrees>-4.06408645212650299072265625</LongitudeDegrees>
            </Position>
            <AltitudeMeters>1804.5999755859375</AltitudeMeters>
            <DistanceMeters>NAN</DistanceMeters>
          </Trackpoint>
          <Trackpoint>
            <Time>2018-12-30T12:12:31.000Z</Time>
            <Position>
              <LatitudeDegrees>40.7913483493030071258544921875</LatitudeDegrees>
              <LongitudeDegrees>-4.06410614959895610809326171875</LongitudeDegrees>
            </Position>
            <AltitudeMeters>1804.5999755859375</AltitudeMeters>
            <DistanceMeters>NAN</DistanceMeters>
          </Trackpoint>
          <Trackpoint>
            <Time>2018-12-30T12:12:32.000Z</Time>
            <Position>
              <LatitudeDegrees>40.79135161824524402618408203125</LatitudeDegrees>
              <LongitudeDegrees>-4.064125008881092071533203125</LongitudeDegrees>
            </Position>
            <AltitudeMeters>1804.5999755859375</AltitudeMeters>
            <DistanceMeters>NAN</DistanceMeters>
          </Trackpoint>
          <Trackpoint>
            <Time>2018-12-30T12:12:33.000Z</Time>
            <Position>
              <LatitudeDegrees>40.79135396517813205718994140625</LatitudeDegrees>
              <LongitudeDegrees>-4.06414185650646686553955078125</LongitudeDegrees>
            </Position>
            <AltitudeMeters>1804.5999755859375</AltitudeMeters>
            <DistanceMeters>NAN</DistanceMeters>
          </Trackpoint>
          <Trackpoint>
            <Time>2018-12-30T12:12:34.000Z</Time>
            <Position>
              <LatitudeDegrees>40.79135564155876636505126953125</LatitudeDegrees>
              <LongitudeDegrees>-4.064159877598285675048828125</LongitudeDegrees>
            </Position>
            <AltitudeMeters>1804.5999755859375</AltitudeMeters>
            <DistanceMeters>NAN</DistanceMeters>
          </Trackpoint>
          <Trackpoint>
            <Time>2018-12-30T12:12:35.000Z</Time>
            <Position>
              <LatitudeDegrees>40.79135455191135406494140625</LatitudeDegrees>
              <LongitudeDegrees>-4.0641764737665653228759765625</LongitudeDegrees>
            </Position>
            <AltitudeMeters>1804.5999755859375</AltitudeMeters>
            <DistanceMeters>NAN</DistanceMeters>
          </Trackpoint>
          <Trackpoint>
            <Time>2018-12-30T12:12:36.000Z</Time>
            <Position>
              <LatitudeDegrees>40.791352875530719757080078125</LatitudeDegrees>
              <LongitudeDegrees>-4.06419516541063785552978515625</LongitudeDegrees>
            </Position>
            <AltitudeMeters>1804.5999755859375</AltitudeMeters>
            <DistanceMeters>NAN</DistanceMeters>
          </Trackpoint>
          <Trackpoint>
            <Time>2018-12-30T12:12:37.000Z</Time>
            <Position>
              <LatitudeDegrees>40.791352204978466033935546875</LatitudeDegrees>
              <LongitudeDegrees>-4.064214192330837249755859375</LongitudeDegrees>
            </Position>
            <AltitudeMeters>1804.4000244140625</AltitudeMeters>
            <DistanceMeters>NAN</DistanceMeters>
          </Trackpoint>
          <Trackpoint>
            <Time>2018-12-30T12:12:38.000Z</Time>
            <Position>
              <LatitudeDegrees>40.79134994186460971832275390625</LatitudeDegrees>
              <LongitudeDegrees>-4.06423263251781463623046875</LongitudeDegrees>
            </Position>
            <AltitudeMeters>1804.4000244140625</AltitudeMeters>
            <DistanceMeters>NAN</DistanceMeters>
          </Trackpoint>
          <Trackpoint>
            <Time>2018-12-30T12:12:39.000Z</Time>
            <Position>
              <LatitudeDegrees>40.79134960658848285675048828125</LatitudeDegrees>
              <LongitudeDegrees>-4.0642512403428554534912109375</LongitudeDegrees>
            </Position>
            <AltitudeMeters>1804.199951171875</AltitudeMeters>
            <DistanceMeters>NAN</DistanceMeters>
          </Trackpoint>
          <Trackpoint>
            <Time>2018-12-30T12:12:40.000Z</Time>
            <Position>
              <LatitudeDegrees>40.7913510315120220184326171875</LatitudeDegrees>
              <LongitudeDegrees>-4.06427060253918170928955078125</LongitudeDegrees>
            </Position>
            <AltitudeMeters>1804.4000244140625</AltitudeMeters>
            <DistanceMeters>NAN</DistanceMeters>
          </Trackpoint>
          <Trackpoint>
            <Time>2018-12-30T12:12:41.000Z</Time>
            <Position>
              <LatitudeDegrees>40.7913517020642757415771484375</LatitudeDegrees>
              <LongitudeDegrees>-4.0642891265451908111572265625</LongitudeDegrees>
            </Position>
            <AltitudeMeters>1804.4000244140625</AltitudeMeters>
            <DistanceMeters>NAN</DistanceMeters>
          </Trackpoint>
          <Trackpoint>
            <Time>2018-12-30T12:12:42.000Z</Time>
            <Position>
              <LatitudeDegrees>40.79134918749332427978515625</LatitudeDegrees>
              <LongitudeDegrees>-4.06430614180862903594970703125</LongitudeDegrees>
            </Position>
            <AltitudeMeters>1804.800048828125</AltitudeMeters>
            <DistanceMeters>NAN</DistanceMeters>
          </Trackpoint>
          <Trackpoint>
            <Time>2018-12-30T12:12:43.000Z</Time>
            <Position>
              <LatitudeDegrees>40.79134725965559482574462890625</LatitudeDegrees>
              <LongitudeDegrees>-4.064322151243686676025390625</LongitudeDegrees>
            </Position>
            <AltitudeMeters>1805</AltitudeMeters>
            <DistanceMeters>NAN</DistanceMeters>
          </Trackpoint>
          <Trackpoint>
            <Time>2018-12-30T12:12:44.000Z</Time>
            <Position>
              <LatitudeDegrees>40.79134357161819934844970703125</LatitudeDegrees>
              <LongitudeDegrees>-4.06433832831680774688720703125</LongitudeDegrees>
            </Position>
            <AltitudeMeters>1805.199951171875</AltitudeMeters>
            <DistanceMeters>NAN</DistanceMeters>
          </Trackpoint>
          <Trackpoint>
            <Time>2018-12-30T12:12:45.000Z</Time>
            <Position>
              <LatitudeDegrees>40.791343152523040771484375</LatitudeDegrees>
              <LongitudeDegrees>-4.064355008304119110107421875</LongitudeDegrees>
            </Position>
            <AltitudeMeters>1805.5999755859375</AltitudeMeters>
            <DistanceMeters>NAN</DistanceMeters>
          </Trackpoint>
          <Trackpoint>
            <Time>2018-12-30T12:12:46.000Z</Time>
            <Position>
              <LatitudeDegrees>40.79134139232337474822998046875</LatitudeDegrees>
              <LongitudeDegrees>-4.06437034718692302703857421875</LongitudeDegrees>
            </Position>
            <AltitudeMeters>1805.800048828125</AltitudeMeters>
            <DistanceMeters>NAN</DistanceMeters>
          </Trackpoint>
          <Trackpoint>
            <Time>2018-12-30T12:12:47.000Z</Time>
            <Position>
              <LatitudeDegrees>40.79134072177112102508544921875</LatitudeDegrees>
              <LongitudeDegrees>-4.06438677571713924407958984375</LongitudeDegrees>
            </Position>
            <AltitudeMeters>1805.800048828125</AltitudeMeters>
            <DistanceMeters>NAN</DistanceMeters>
          </Trackpoint>
          <Trackpoint>
            <Time>2018-12-30T12:12:48.000Z</Time>
            <Position>
              <LatitudeDegrees>40.79135111533105373382568359375</LatitudeDegrees>
              <LongitudeDegrees>-4.06440588645637035369873046875</LongitudeDegrees>
            </Position>
            <AltitudeMeters>1805.800048828125</AltitudeMeters>
            <DistanceMeters>NAN</DistanceMeters>
          </Trackpoint>
          <Trackpoint>
            <Time>2018-12-30T12:12:49.000Z</Time>
            <Position>
              <LatitudeDegrees>40.7913563959300518035888671875</LatitudeDegrees>
              <LongitudeDegrees>-4.0644242428243160247802734375</LongitudeDegrees>
            </Position>
            <AltitudeMeters>1805.800048828125</AltitudeMeters>
            <DistanceMeters>NAN</DistanceMeters>
          </Trackpoint>
          <Trackpoint>
            <Time>2018-12-30T12:12:50.000Z</Time>
            <Position>
              <LatitudeDegrees>40.79135145060718059539794921875</LatitudeDegrees>
              <LongitudeDegrees>-4.0644410066306591033935546875</LongitudeDegrees>
            </Position>
            <AltitudeMeters>1805.800048828125</AltitudeMeters>
            <DistanceMeters>NAN</DistanceMeters>
          </Trackpoint>
          <Trackpoint>
            <Time>2018-12-30T12:12:51.000Z</Time>
            <Position>
              <LatitudeDegrees>40.7913436554372310638427734375</LatitudeDegrees>
              <LongitudeDegrees>-4.06445684842765331268310546875</LongitudeDegrees>
            </Position>
            <AltitudeMeters>1805.800048828125</AltitudeMeters>
            <DistanceMeters>NAN</DistanceMeters>
          </Trackpoint>
          <Trackpoint>
            <Time>2018-12-30T12:12:52.000Z</Time>
            <Position>
              <LatitudeDegrees>40.79133837483823299407958984375</LatitudeDegrees>
              <LongitudeDegrees>-4.0644691698253154754638671875</LongitudeDegrees>
            </Position>
            <AltitudeMeters>1805.800048828125</AltitudeMeters>
            <DistanceMeters>NAN</DistanceMeters>
          </Trackpoint>
          <Trackpoint>
            <Time>2018-12-30T12:12:53.000Z</Time>
            <Position>
              <LatitudeDegrees>40.79133334569633007049560546875</LatitudeDegrees>
              <LongitudeDegrees>-4.0644785575568675994873046875</LongitudeDegrees>
            </Position>
            <AltitudeMeters>1805.800048828125</AltitudeMeters>
            <DistanceMeters>NAN</DistanceMeters>
          </Trackpoint>
          <Trackpoint>
            <Time>2018-12-30T12:12:54.000Z</Time>
            <Position>
              <LatitudeDegrees>40.79132429324090480804443359375</LatitudeDegrees>
              <LongitudeDegrees>-4.064487777650356292724609375</LongitudeDegrees>
            </Position>
            <AltitudeMeters>1805.800048828125</AltitudeMeters>
            <DistanceMeters>NAN</DistanceMeters>
          </Trackpoint>
          <Trackpoint>
            <Time>2018-12-30T12:12:55.000Z</Time>
            <Position>
              <LatitudeDegrees>40.7913191802799701690673828125</LatitudeDegrees>
              <LongitudeDegrees>-4.06449859030544757843017578125</LongitudeDegrees>
            </Position>
            <AltitudeMeters>1805.800048828125</AltitudeMeters>
            <DistanceMeters>NAN</DistanceMeters>
          </Trackpoint>
          <Trackpoint>
            <Time>2018-12-30T12:12:56.000Z</Time>
            <Position>
              <LatitudeDegrees>40.79131322912871837615966796875</LatitudeDegrees>
              <LongitudeDegrees>-4.06450898386538028717041015625</LongitudeDegrees>
            </Position>
            <AltitudeMeters>1805.800048828125</AltitudeMeters>
            <DistanceMeters>NAN</DistanceMeters>
          </Trackpoint>
          <Trackpoint>
            <Time>2018-12-30T12:12:57.000Z</Time>
            <Position>
              <LatitudeDegrees>40.79130518250167369842529296875</LatitudeDegrees>
              <LongitudeDegrees>-4.0645208023488521575927734375</LongitudeDegrees>
            </Position>
            <AltitudeMeters>1805.800048828125</AltitudeMeters>
            <DistanceMeters>NAN</DistanceMeters>
          </Trackpoint>
          <Trackpoint>
            <Time>2018-12-30T12:12:58.000Z</Time>
            <Position>
              <LatitudeDegrees>40.7912933640182018280029296875</LatitudeDegrees>
              <LongitudeDegrees>-4.06453446485102176666259765625</LongitudeDegrees>
            </Position>
            <AltitudeMeters>1805.800048828125</AltitudeMeters>
            <DistanceMeters>NAN</DistanceMeters>
          </Trackpoint>
          <Trackpoint>
            <Time>2018-12-30T12:12:59.000Z</Time>
            <Position>
              <LatitudeDegrees>40.79128188081085681915283203125</LatitudeDegrees>
              <LongitudeDegrees>-4.06455005519092082977294921875</LongitudeDegrees>
            </Position>
            <AltitudeMeters>1805.5999755859375</AltitudeMeters>
            <DistanceMeters>NAN</DistanceMeters>
          </Trackpoint>
          <Trackpoint>
            <Time>2018-12-30T12:13:00.000Z</Time>
            <Position>
              <LatitudeDegrees>40.7912742532789707183837890625</LatitudeDegrees>
              <LongitudeDegrees>-4.064563214778900146484375</LongitudeDegrees>
            </Position>
            <AltitudeMeters>1805.5999755859375</AltitudeMeters>
            <DistanceMeters>NAN</DistanceMeters>
          </Trackpoint>
          <Trackpoint>
            <Time>2018-12-30T12:13:01.000Z</Time>
            <Position>
              <LatitudeDegrees>40.79126629047095775604248046875</LatitudeDegrees>
              <LongitudeDegrees>-4.06457687728106975555419921875</LongitudeDegrees>
            </Position>
            <AltitudeMeters>1805.5999755859375</AltitudeMeters>
            <DistanceMeters>NAN</DistanceMeters>
          </Trackpoint>
          <Trackpoint>
            <Time>2018-12-30T12:13:02.000Z</Time>
            <Position>
              <LatitudeDegrees>40.7912574894726276397705078125</LatitudeDegrees>
              <LongitudeDegrees>-4.06458844430744647979736328125</LongitudeDegrees>
            </Position>
            <AltitudeMeters>1805.5999755859375</AltitudeMeters>
            <DistanceMeters>NAN</DistanceMeters>
          </Trackpoint>
          <Trackpoint>
            <Time>2018-12-30T12:13:03.000Z</Time>
            <Position>
              <LatitudeDegrees>40.79124885611236095428466796875</LatitudeDegrees>
              <LongitudeDegrees>-4.06460001133382320404052734375</LongitudeDegrees>
            </Position>
            <AltitudeMeters>1805.5999755859375</AltitudeMeters>
            <DistanceMeters>NAN</DistanceMeters>
          </Trackpoint>
          <Trackpoint>
            <Time>2018-12-30T12:13:04.000Z</Time>
            <Position>
              <LatitudeDegrees>40.791242234408855438232421875</LatitudeDegrees>
              <LongitudeDegrees>-4.06461291946470737457275390625</LongitudeDegrees>
            </Position>
            <AltitudeMeters>1805.4000244140625</AltitudeMeters>
            <DistanceMeters>NAN</DistanceMeters>
          </Trackpoint>
          <Trackpoint>
            <Time>2018-12-30T12:13:05.000Z</Time>
            <Position>
              <LatitudeDegrees>40.7912326790392398834228515625</LatitudeDegrees>
              <LongitudeDegrees>-4.06462448649108409881591796875</LongitudeDegrees>
            </Position>
            <AltitudeMeters>1805.4000244140625</AltitudeMeters>
            <DistanceMeters>NAN</DistanceMeters>
          </Trackpoint>
          <Trackpoint>
            <Time>2018-12-30T12:13:06.000Z</Time>
            <Position>
              <LatitudeDegrees>40.791222117841243743896484375</LatitudeDegrees>
              <LongitudeDegrees>-4.06463722698390483856201171875</LongitudeDegrees>
            </Position>
            <AltitudeMeters>1805.4000244140625</AltitudeMeters>
            <DistanceMeters>NAN</DistanceMeters>
          </Trackpoint>
          <Trackpoint>
            <Time>2018-12-30T12:13:07.000Z</Time>
            <Position>
              <LatitudeDegrees>40.79121465794742107391357421875</LatitudeDegrees>
              <LongitudeDegrees>-4.06464946456253528594970703125</LongitudeDegrees>
            </Position>
            <AltitudeMeters>1805.4000244140625</AltitudeMeters>
            <DistanceMeters>NAN</DistanceMeters>
          </Trackpoint>
          <Trackpoint>
            <Time>2018-12-30T12:13:08.000Z</Time>
            <Position>
              <LatitudeDegrees>40.79121449030935764312744140625</LatitudeDegrees>
              <LongitudeDegrees>-4.064665473997592926025390625</LongitudeDegrees>
            </Position>
            <AltitudeMeters>1805.4000244140625</AltitudeMeters>
            <DistanceMeters>NAN</DistanceMeters>
          </Trackpoint>
          <Trackpoint>
            <Time>2018-12-30T12:13:09.000Z</Time>
            <Position>
              <LatitudeDegrees>40.79121147282421588897705078125</LatitudeDegrees>
              <LongitudeDegrees>-4.06466824002563953399658203125</LongitudeDegrees>
            </Position>
            <AltitudeMeters>1805.199951171875</AltitudeMeters>
            <DistanceMeters>NAN</DistanceMeters>
          </Trackpoint>
          <Trackpoint>
            <Time>2018-12-30T12:13:10.000Z</Time>
            <Position>
              <LatitudeDegrees>40.7912088744342327117919921875</LatitudeDegrees>
              <LongitudeDegrees>-4.064670838415622711181640625</LongitudeDegrees>
            </Position>
            <AltitudeMeters>1805.4000244140625</AltitudeMeters>
            <DistanceMeters>NAN</DistanceMeters>
          </Trackpoint>
          <Trackpoint>
            <Time>2018-12-30T12:13:11.000Z</Time>
            <Position>
              <LatitudeDegrees>40.791210047900676727294921875</LatitudeDegrees>
              <LongitudeDegrees>-4.0646720118820667266845703125</LongitudeDegrees>
            </Position>
            <AltitudeMeters>1805.4000244140625</AltitudeMeters>
            <DistanceMeters>NAN</DistanceMeters>
          </Trackpoint>
          <Trackpoint>
            <Time>2018-12-30T12:13:12.000Z</Time>
            <Position>
              <LatitudeDegrees>40.7912118919193744659423828125</LatitudeDegrees>
              <LongitudeDegrees>-4.06467108987271785736083984375</LongitudeDegrees>
            </Position>
            <AltitudeMeters>1805.4000244140625</AltitudeMeters>
            <DistanceMeters>NAN</DistanceMeters>
          </Trackpoint>
          <Trackpoint>
            <Time>2018-12-30T12:13:13.000Z</Time>
            <Position>
              <LatitudeDegrees>40.79121247865259647369384765625</LatitudeDegrees>
              <LongitudeDegrees>-4.0646710060536861419677734375</LongitudeDegrees>
            </Position>
            <AltitudeMeters>1805.4000244140625</AltitudeMeters>
            <DistanceMeters>NAN</DistanceMeters>
          </Trackpoint>
          <Trackpoint>
            <Time>2018-12-30T12:13:14.000Z</Time>
            <Position>
              <LatitudeDegrees>40.7912128977477550506591796875</LatitudeDegrees>
              <LongitudeDegrees>-4.064670838415622711181640625</LongitudeDegrees>
            </Position>
            <AltitudeMeters>1805.4000244140625</AltitudeMeters>
            <DistanceMeters>NAN</DistanceMeters>
          </Trackpoint>
          <Trackpoint>
            <Time>2018-12-30T12:13:15.000Z</Time>
            <Position>
              <LatitudeDegrees>40.79121381975710391998291015625</LatitudeDegrees>
              <LongitudeDegrees>-4.064670838415622711181640625</LongitudeDegrees>
            </Position>
            <AltitudeMeters>1805.199951171875</AltitudeMeters>
            <DistanceMeters>NAN</DistanceMeters>
          </Trackpoint>
          <Trackpoint>
            <Time>2018-12-30T12:13:16.000Z</Time>
            <Position>
              <LatitudeDegrees>40.791214741766452789306640625</LatitudeDegrees>
              <LongitudeDegrees>-4.0646710060536861419677734375</LongitudeDegrees>
            </Position>
            <AltitudeMeters>1805.199951171875</AltitudeMeters>
            <DistanceMeters>NAN</DistanceMeters>
          </Trackpoint>
          <Trackpoint>
            <Time>2018-12-30T12:13:17.000Z</Time>
            <Position>
              <LatitudeDegrees>40.79121507704257965087890625</LatitudeDegrees>
              <LongitudeDegrees>-4.064671508967876434326171875</LongitudeDegrees>
            </Position>
            <AltitudeMeters>1805.199951171875</AltitudeMeters>
            <DistanceMeters>NAN</DistanceMeters>
          </Trackpoint>
          <Trackpoint>
            <Time>2018-12-30T12:13:18.000Z</Time>
            <Position>
              <LatitudeDegrees>40.79121499322354793548583984375</LatitudeDegrees>
              <LongitudeDegrees>-4.064672179520130157470703125</LongitudeDegrees>
            </Position>
            <AltitudeMeters>1805.199951171875</AltitudeMeters>
            <DistanceMeters>NAN</DistanceMeters>
          </Trackpoint>
          <Trackpoint>
            <Time>2018-12-30T12:13:19.000Z</Time>
            <Position>
              <LatitudeDegrees>40.7912145741283893585205078125</LatitudeDegrees>
              <LongitudeDegrees>-4.0646733529865741729736328125</LongitudeDegrees>
            </Position>
            <AltitudeMeters>1805.199951171875</AltitudeMeters>
            <DistanceMeters>NAN</DistanceMeters>
          </Trackpoint>
          <Trackpoint>
            <Time>2018-12-30T12:13:20.000Z</Time>
            <Position>
              <LatitudeDegrees>40.79121532849967479705810546875</LatitudeDegrees>
              <LongitudeDegrees>-4.0646756999194622039794921875</LongitudeDegrees>
            </Position>
            <AltitudeMeters>1805</AltitudeMeters>
            <DistanceMeters>NAN</DistanceMeters>
          </Trackpoint>
          <Trackpoint>
            <Time>2018-12-30T12:13:21.000Z</Time>
            <Position>
              <LatitudeDegrees>40.79121482558548450469970703125</LatitudeDegrees>
              <LongitudeDegrees>-4.06467653810977935791015625</LongitudeDegrees>
            </Position>
            <AltitudeMeters>1805</AltitudeMeters>
            <DistanceMeters>NAN</DistanceMeters>
          </Trackpoint>
          <Trackpoint>
            <Time>2018-12-30T12:13:22.000Z</Time>
            <Position>
              <LatitudeDegrees>40.7912145741283893585205078125</LatitudeDegrees>
              <LongitudeDegrees>-4.06467746011912822723388671875</LongitudeDegrees>
            </Position>
            <AltitudeMeters>1805</AltitudeMeters>
            <DistanceMeters>NAN</DistanceMeters>
          </Trackpoint>
          <Trackpoint>
            <Time>2018-12-30T12:13:23.000Z</Time>
            <Position>
              <LatitudeDegrees>40.7912149094045162200927734375</LatitudeDegrees>
              <LongitudeDegrees>-4.0646787174046039581298828125</LongitudeDegrees>
            </Position>
            <AltitudeMeters>1805</AltitudeMeters>
            <DistanceMeters>NAN</DistanceMeters>
          </Trackpoint>
          <Trackpoint>
            <Time>2018-12-30T12:13:24.000Z</Time>
            <Position>
              <LatitudeDegrees>40.79121516086161136627197265625</LatitudeDegrees>
              <LongitudeDegrees>-4.0646797232329845428466796875</LongitudeDegrees>
            </Position>
            <AltitudeMeters>1805</AltitudeMeters>
            <DistanceMeters>NAN</DistanceMeters>
          </Trackpoint>
          <Trackpoint>
            <Time>2018-12-30T12:13:25.000Z</Time>
            <Position>
              <LatitudeDegrees>40.7912139035761356353759765625</LatitudeDegrees>
              <LongitudeDegrees>-4.064680226147174835205078125</LongitudeDegrees>
            </Position>
            <AltitudeMeters>1805</AltitudeMeters>
            <DistanceMeters>NAN</DistanceMeters>
          </Trackpoint>
          <Trackpoint>
            <Time>2018-12-30T12:13:26.000Z</Time>
            <Position>
              <LatitudeDegrees>40.7912132330238819122314453125</LatitudeDegrees>
              <LongitudeDegrees>-4.064680226147174835205078125</LongitudeDegrees>
            </Position>
            <AltitudeMeters>1805</AltitudeMeters>
            <DistanceMeters>NAN</DistanceMeters>
          </Trackpoint>
          <Trackpoint>
            <Time>2018-12-30T12:13:27.000Z</Time>
            <Position>
              <LatitudeDegrees>40.79121164046227931976318359375</LatitudeDegrees>
              <LongitudeDegrees>-4.0646834112703800201416015625</LongitudeDegrees>
            </Position>
            <AltitudeMeters>1805</AltitudeMeters>
            <DistanceMeters>NAN</DistanceMeters>
          </Trackpoint>
          <Trackpoint>
            <Time>2018-12-30T12:13:28.000Z</Time>
            <Position>
              <LatitudeDegrees>40.79120828770101070404052734375</LatitudeDegrees>
              <LongitudeDegrees>-4.064686261117458343505859375</LongitudeDegrees>
            </Position>
            <AltitudeMeters>1805</AltitudeMeters>
            <DistanceMeters>NAN</DistanceMeters>
          </Trackpoint>
          <Trackpoint>
            <Time>2018-12-30T12:13:29.000Z</Time>
            <Position>
              <LatitudeDegrees>40.7912065275013446807861328125</LatitudeDegrees>
              <LongitudeDegrees>-4.0646906197071075439453125</LongitudeDegrees>
            </Position>
            <AltitudeMeters>1805</AltitudeMeters>
            <DistanceMeters>NAN</DistanceMeters>
          </Trackpoint>
          <Trackpoint>
            <Time>2018-12-30T12:13:30.000Z</Time>
            <Position>
              <LatitudeDegrees>40.7912035100162029266357421875</LatitudeDegrees>
              <LongitudeDegrees>-4.06469531357288360595703125</LongitudeDegrees>
            </Position>
            <AltitudeMeters>1804.800048828125</AltitudeMeters>
            <DistanceMeters>NAN</DistanceMeters>
          </Trackpoint>
          <Trackpoint>
            <Time>2018-12-30T12:13:31.000Z</Time>
            <Position>
              <LatitudeDegrees>40.79119789414107799530029296875</LatitudeDegrees>
              <LongitudeDegrees>-4.06469875015318393707275390625</LongitudeDegrees>
            </Position>
            <AltitudeMeters>1804.800048828125</AltitudeMeters>
            <DistanceMeters>NAN</DistanceMeters>
          </Trackpoint>
          <Trackpoint>
            <Time>2018-12-30T12:13:32.000Z</Time>
            <Position>
              <LatitudeDegrees>40.79119705595076084136962890625</LatitudeDegrees>
              <LongitudeDegrees>-4.06470528803765773773193359375</LongitudeDegrees>
            </Position>
            <AltitudeMeters>1804.800048828125</AltitudeMeters>
            <DistanceMeters>NAN</DistanceMeters>
          </Trackpoint>
          <Trackpoint>
            <Time>2018-12-30T12:13:33.000Z</Time>
            <Position>
              <LatitudeDegrees>40.79119470901787281036376953125</LatitudeDegrees>
              <LongitudeDegrees>-4.0647105686366558074951171875</LongitudeDegrees>
            </Position>
            <AltitudeMeters>1804.800048828125</AltitudeMeters>
            <DistanceMeters>NAN</DistanceMeters>
          </Trackpoint>
          <Trackpoint>
            <Time>2018-12-30T12:13:34.000Z</Time>
            <Position>
              <LatitudeDegrees>40.7911916077136993408203125</LatitudeDegrees>
              <LongitudeDegrees>-4.06471434049308300018310546875</LongitudeDegrees>
            </Position>
            <AltitudeMeters>1804.5999755859375</AltitudeMeters>
            <DistanceMeters>NAN</DistanceMeters>
          </Trackpoint>
          <Trackpoint>
            <Time>2018-12-30T12:13:35.000Z</Time>
            <Position>
              <LatitudeDegrees>40.7911897636950016021728515625</LatitudeDegrees>
              <LongitudeDegrees>-4.06471685506403446197509765625</LongitudeDegrees>
            </Position>
            <AltitudeMeters>1804.5999755859375</AltitudeMeters>
            <DistanceMeters>NAN</DistanceMeters>
          </Trackpoint>
          <Trackpoint>
            <Time>2018-12-30T12:13:36.000Z</Time>
            <Position>
              <LatitudeDegrees>40.791187584400177001953125</LatitudeDegrees>
              <LongitudeDegrees>-4.06471945345401763916015625</LongitudeDegrees>
            </Position>
            <AltitudeMeters>1804.800048828125</AltitudeMeters>
            <DistanceMeters>NAN</DistanceMeters>
          </Trackpoint>
          <Trackpoint>
            <Time>2018-12-30T12:13:37.000Z</Time>
            <Position>
              <LatitudeDegrees>40.7911833934485912322998046875</LatitudeDegrees>
              <LongitudeDegrees>-4.064723141491413116455078125</LongitudeDegrees>
            </Position>
            <AltitudeMeters>1804.800048828125</AltitudeMeters>
            <DistanceMeters>NAN</DistanceMeters>
          </Trackpoint>
          <Trackpoint>
            <Time>2018-12-30T12:13:38.000Z</Time>
            <Position>
              <LatitudeDegrees>40.7911835610866546630859375</LatitudeDegrees>
              <LongitudeDegrees>-4.0647308528423309326171875</LongitudeDegrees>
            </Position>
            <AltitudeMeters>1804.800048828125</AltitudeMeters>
            <DistanceMeters>NAN</DistanceMeters>
          </Trackpoint>
          <Trackpoint>
            <Time>2018-12-30T12:13:39.000Z</Time>
            <Position>
              <LatitudeDegrees>40.791185237467288970947265625</LatitudeDegrees>
              <LongitudeDegrees>-4.06473613344132900238037109375</LongitudeDegrees>
            </Position>
            <AltitudeMeters>1804.800048828125</AltitudeMeters>
            <DistanceMeters>NAN</DistanceMeters>
          </Trackpoint>
          <Trackpoint>
            <Time>2018-12-30T12:13:40.000Z</Time>
            <Position>
              <LatitudeDegrees>40.79118532128632068634033203125</LatitudeDegrees>
              <LongitudeDegrees>-4.06473546288907527923583984375</LongitudeDegrees>
            </Position>
            <AltitudeMeters>1805</AltitudeMeters>
            <DistanceMeters>NAN</DistanceMeters>
          </Trackpoint>
          <Trackpoint>
            <Time>2018-12-30T12:13:41.000Z</Time>
            <Position>
              <LatitudeDegrees>40.79118884168565273284912109375</LatitudeDegrees>
              <LongitudeDegrees>-4.06473428942263126373291015625</LongitudeDegrees>
            </Position>
            <AltitudeMeters>1805</AltitudeMeters>
            <DistanceMeters>NAN</DistanceMeters>
          </Trackpoint>
          <Trackpoint>
            <Time>2018-12-30T12:13:42.000Z</Time>
            <Position>
              <LatitudeDegrees>40.79119537957012653350830078125</LatitudeDegrees>
              <LongitudeDegrees>-4.06473479233682155609130859375</LongitudeDegrees>
            </Position>
            <AltitudeMeters>1805</AltitudeMeters>
            <DistanceMeters>NAN</DistanceMeters>
          </Trackpoint>
          <Trackpoint>
            <Time>2018-12-30T12:13:43.000Z</Time>
            <Position>
              <LatitudeDegrees>40.7911944575607776641845703125</LatitudeDegrees>
              <LongitudeDegrees>-4.06474200077354907989501953125</LongitudeDegrees>
            </Position>
            <AltitudeMeters>1804.800048828125</AltitudeMeters>
            <DistanceMeters>NAN</DistanceMeters>
          </Trackpoint>
          <Trackpoint>
            <Time>2018-12-30T12:13:44.000Z</Time>
            <Position>
              <LatitudeDegrees>40.79118783585727214813232421875</LatitudeDegrees>
              <LongitudeDegrees>-4.06475088559091091156005859375</LongitudeDegrees>
            </Position>
            <AltitudeMeters>1804.800048828125</AltitudeMeters>
            <DistanceMeters>NAN</DistanceMeters>
          </Trackpoint>
          <Trackpoint>
            <Time>2018-12-30T12:13:45.000Z</Time>
            <Position>
              <LatitudeDegrees>40.79118280671536922454833984375</LatitudeDegrees>
              <LongitudeDegrees>-4.06475993804633617401123046875</LongitudeDegrees>
            </Position>
            <AltitudeMeters>1804.800048828125</AltitudeMeters>
            <DistanceMeters>NAN</DistanceMeters>
          </Trackpoint>
          <Trackpoint>
            <Time>2018-12-30T12:13:46.000Z</Time>
            <Position>
              <LatitudeDegrees>40.7911776937544345855712890625</LatitudeDegrees>
              <LongitudeDegrees>-4.06477016396820545196533203125</LongitudeDegrees>
            </Position>
            <AltitudeMeters>1804.5999755859375</AltitudeMeters>
            <DistanceMeters>NAN</DistanceMeters>
          </Trackpoint>
          <Trackpoint>
            <Time>2018-12-30T12:13:47.000Z</Time>
            <Position>
              <LatitudeDegrees>40.79117241315543651580810546875</LatitudeDegrees>
              <LongitudeDegrees>-4.0647836588323116302490234375</LongitudeDegrees>
            </Position>
            <AltitudeMeters>1804.4000244140625</AltitudeMeters>
            <DistanceMeters>NAN</DistanceMeters>
          </Trackpoint>
          <Trackpoint>
            <Time>2018-12-30T12:13:48.000Z</Time>
            <Position>
              <LatitudeDegrees>40.791169144213199615478515625</LatitudeDegrees>
              <LongitudeDegrees>-4.06479530967772006988525390625</LongitudeDegrees>
            </Position>
            <AltitudeMeters>1804.199951171875</AltitudeMeters>
            <DistanceMeters>NAN</DistanceMeters>
          </Trackpoint>
          <Trackpoint>
            <Time>2018-12-30T12:13:49.000Z</Time>
            <Position>
              <LatitudeDegrees>40.79116503708064556121826171875</LatitudeDegrees>
              <LongitudeDegrees>-4.0648074634373188018798828125</LongitudeDegrees>
            </Position>
            <AltitudeMeters>1804.4000244140625</AltitudeMeters>
            <DistanceMeters>NAN</DistanceMeters>
          </Trackpoint>
          <Trackpoint>
            <Time>2018-12-30T12:13:50.000Z</Time>
            <Position>
              <LatitudeDegrees>40.791159756481647491455078125</LatitudeDegrees>
              <LongitudeDegrees>-4.064816348254680633544921875</LongitudeDegrees>
            </Position>
            <AltitudeMeters>1804.4000244140625</AltitudeMeters>
            <DistanceMeters>NAN</DistanceMeters>
          </Trackpoint>
          <Trackpoint>
            <Time>2018-12-30T12:13:51.000Z</Time>
            <Position>
              <LatitudeDegrees>40.79115246422588825225830078125</LatitudeDegrees>
              <LongitudeDegrees>-4.06482799910008907318115234375</LongitudeDegrees>
            </Position>
            <AltitudeMeters>1804.199951171875</AltitudeMeters>
            <DistanceMeters>NAN</DistanceMeters>
          </Trackpoint>
          <Trackpoint>
            <Time>2018-12-30T12:13:52.000Z</Time>
            <Position>
              <LatitudeDegrees>40.79115011729300022125244140625</LatitudeDegrees>
              <LongitudeDegrees>-4.06484107486903667449951171875</LongitudeDegrees>
            </Position>
            <AltitudeMeters>1804.199951171875</AltitudeMeters>
            <DistanceMeters>NAN</DistanceMeters>
          </Trackpoint>
          <Trackpoint>
            <Time>2018-12-30T12:13:53.000Z</Time>
            <Position>
              <LatitudeDegrees>40.79114424996078014373779296875</LatitudeDegrees>
              <LongitudeDegrees>-4.064851887524127960205078125</LongitudeDegrees>
            </Position>
            <AltitudeMeters>1804.199951171875</AltitudeMeters>
            <DistanceMeters>NAN</DistanceMeters>
          </Trackpoint>
          <Trackpoint>
            <Time>2018-12-30T12:13:54.000Z</Time>
            <Position>
              <LatitudeDegrees>40.7911371253430843353271484375</LatitudeDegrees>
              <LongitudeDegrees>-4.06486295163631439208984375</LongitudeDegrees>
            </Position>
            <AltitudeMeters>1804.199951171875</AltitudeMeters>
            <DistanceMeters>NAN</DistanceMeters>
          </Trackpoint>
          <Trackpoint>
            <Time>2018-12-30T12:13:55.000Z</Time>
            <Position>
              <LatitudeDegrees>40.79113452695310115814208984375</LatitudeDegrees>
              <LongitudeDegrees>-4.06487627886235713958740234375</LongitudeDegrees>
            </Position>
            <AltitudeMeters>1804.199951171875</AltitudeMeters>
            <DistanceMeters>NAN</DistanceMeters>
          </Trackpoint>
          <Trackpoint>
            <Time>2018-12-30T12:13:56.000Z</Time>
            <Position>
              <LatitudeDegrees>40.7911294139921665191650390625</LatitudeDegrees>
              <LongitudeDegrees>-4.0648886002600193023681640625</LongitudeDegrees>
            </Position>
            <AltitudeMeters>1804.199951171875</AltitudeMeters>
            <DistanceMeters>NAN</DistanceMeters>
          </Trackpoint>
          <Trackpoint>
            <Time>2018-12-30T12:13:57.000Z</Time>
            <Position>
              <LatitudeDegrees>40.79112580977380275726318359375</LatitudeDegrees>
              <LongitudeDegrees>-4.0649043582379817962646484375</LongitudeDegrees>
            </Position>
            <AltitudeMeters>1804.199951171875</AltitudeMeters>
            <DistanceMeters>NAN</DistanceMeters>
          </Trackpoint>
          <Trackpoint>
            <Time>2018-12-30T12:13:58.000Z</Time>
            <Position>
              <LatitudeDegrees>40.79111960716545581817626953125</LatitudeDegrees>
              <LongitudeDegrees>-4.06491869129240512847900390625</LongitudeDegrees>
            </Position>
            <AltitudeMeters>1804</AltitudeMeters>
            <DistanceMeters>NAN</DistanceMeters>
          </Trackpoint>
          <Trackpoint>
            <Time>2018-12-30T12:13:59.000Z</Time>
            <Position>
              <LatitudeDegrees>40.79111290164291858673095703125</LatitudeDegrees>
              <LongitudeDegrees>-4.0649305097758769989013671875</LongitudeDegrees>
            </Position>
            <AltitudeMeters>1804</AltitudeMeters>
            <DistanceMeters>NAN</DistanceMeters>
          </Trackpoint>
          <Trackpoint>
            <Time>2018-12-30T12:14:00.000Z</Time>
            <Position>
              <LatitudeDegrees>40.79110502265393733978271484375</LatitudeDegrees>
              <LongitudeDegrees>-4.06494417227804660797119140625</LongitudeDegrees>
            </Position>
            <AltitudeMeters>1803.800048828125</AltitudeMeters>
            <DistanceMeters>NAN</DistanceMeters>
          </Trackpoint>
          <Trackpoint>
            <Time>2018-12-30T12:14:01.000Z</Time>
            <Position>
              <LatitudeDegrees>40.7911029271781444549560546875</LatitudeDegrees>
              <LongitudeDegrees>-4.0649613551795482635498046875</LongitudeDegrees>
            </Position>
            <AltitudeMeters>1803.5999755859375</AltitudeMeters>
            <DistanceMeters>NAN</DistanceMeters>
          </Trackpoint>
          <Trackpoint>
            <Time>2018-12-30T12:14:02.000Z</Time>
            <Position>
              <LatitudeDegrees>40.79109798185527324676513671875</LatitudeDegrees>
              <LongitudeDegrees>-4.06497686170041561126708984375</LongitudeDegrees>
            </Position>
            <AltitudeMeters>1803.4000244140625</AltitudeMeters>
            <DistanceMeters>NAN</DistanceMeters>
          </Trackpoint>
          <Trackpoint>
            <Time>2018-12-30T12:14:03.000Z</Time>
            <Position>
              <LatitudeDegrees>40.79109110869467258453369140625</LatitudeDegrees>
              <LongitudeDegrees>-4.0649962238967418670654296875</LongitudeDegrees>
            </Position>
            <AltitudeMeters>1803.4000244140625</AltitudeMeters>
            <DistanceMeters>NAN</DistanceMeters>
          </Trackpoint>
          <Trackpoint>
            <Time>2018-12-30T12:14:04.000Z</Time>
            <Position>
              <LatitudeDegrees>40.79108155332505702972412109375</LatitudeDegrees>
              <LongitudeDegrees>-4.06501105986535549163818359375</LongitudeDegrees>
            </Position>
            <AltitudeMeters>1803.199951171875</AltitudeMeters>
            <DistanceMeters>NAN</DistanceMeters>
          </Trackpoint>
          <Trackpoint>
            <Time>2018-12-30T12:14:05.000Z</Time>
            <Position>
              <LatitudeDegrees>40.79106747172772884368896484375</LatitudeDegrees>
              <LongitudeDegrees>-4.06502011232078075408935546875</LongitudeDegrees>
            </Position>
            <AltitudeMeters>1803.4000244140625</AltitudeMeters>
            <DistanceMeters>NAN</DistanceMeters>
          </Trackpoint>
          <Trackpoint>
            <Time>2018-12-30T12:14:06.000Z</Time>
            <Position>
              <LatitudeDegrees>40.79105439595878124237060546875</LatitudeDegrees>
              <LongitudeDegrees>-4.0650257281959056854248046875</LongitudeDegrees>
            </Position>
            <AltitudeMeters>1803.199951171875</AltitudeMeters>
            <DistanceMeters>NAN</DistanceMeters>
          </Trackpoint>
          <Trackpoint>
            <Time>2018-12-30T12:14:07.000Z</Time>
            <Position>
              <LatitudeDegrees>40.791047774255275726318359375</LatitudeDegrees>
              <LongitudeDegrees>-4.0650366246700286865234375</LongitudeDegrees>
            </Position>
            <AltitudeMeters>1803.199951171875</AltitudeMeters>
            <DistanceMeters>NAN</DistanceMeters>
          </Trackpoint>
          <Trackpoint>
            <Time>2018-12-30T12:14:08.000Z</Time>
            <Position>
              <LatitudeDegrees>40.79104006290435791015625</LatitudeDegrees>
              <LongitudeDegrees>-4.065046347677707672119140625</LongitudeDegrees>
            </Position>
            <AltitudeMeters>1803</AltitudeMeters>
            <DistanceMeters>NAN</DistanceMeters>
          </Trackpoint>
          <Trackpoint>
            <Time>2018-12-30T12:14:09.000Z</Time>
            <Position>
              <LatitudeDegrees>40.79103377647697925567626953125</LatitudeDegrees>
              <LongitudeDegrees>-4.06505330465734004974365234375</LongitudeDegrees>
            </Position>
            <AltitudeMeters>1803</AltitudeMeters>
            <DistanceMeters>NAN</DistanceMeters>
          </Trackpoint>
          <Trackpoint>
            <Time>2018-12-30T12:14:10.000Z</Time>
            <Position>
              <LatitudeDegrees>40.79102690331637859344482421875</LatitudeDegrees>
              <LongitudeDegrees>-4.0650619380176067352294921875</LongitudeDegrees>
            </Position>
            <AltitudeMeters>1802.800048828125</AltitudeMeters>
            <DistanceMeters>NAN</DistanceMeters>
          </Trackpoint>
          <Trackpoint>
            <Time>2018-12-30T12:14:11.000Z</Time>
            <Position>
              <LatitudeDegrees>40.7910145819187164306640625</LatitudeDegrees>
              <LongitudeDegrees>-4.0650730021297931671142578125</LongitudeDegrees>
            </Position>
            <AltitudeMeters>1802.5999755859375</AltitudeMeters>
            <DistanceMeters>NAN</DistanceMeters>
          </Trackpoint>
          <Trackpoint>
            <Time>2018-12-30T12:14:12.000Z</Time>
            <Position>
              <LatitudeDegrees>40.7910038530826568603515625</LatitudeDegrees>
              <LongitudeDegrees>-4.065087251365184783935546875</LongitudeDegrees>
            </Position>
            <AltitudeMeters>1802.199951171875</AltitudeMeters>
            <DistanceMeters>NAN</DistanceMeters>
          </Trackpoint>
          <Trackpoint>
            <Time>2018-12-30T12:14:13.000Z</Time>
            <Position>
              <LatitudeDegrees>40.79098918475210666656494140625</LatitudeDegrees>
              <LongitudeDegrees>-4.0650981478393077850341796875</LongitudeDegrees>
            </Position>
            <AltitudeMeters>1801.800048828125</AltitudeMeters>
            <DistanceMeters>NAN</DistanceMeters>
          </Trackpoint>
          <Trackpoint>
            <Time>2018-12-30T12:14:14.000Z</Time>
            <Position>
              <LatitudeDegrees>40.79097476787865161895751953125</LatitudeDegrees>
              <LongitudeDegrees>-4.065106026828289031982421875</LongitudeDegrees>
            </Position>
            <AltitudeMeters>1801.4000244140625</AltitudeMeters>
            <DistanceMeters>NAN</DistanceMeters>
          </Trackpoint>
          <Trackpoint>
            <Time>2018-12-30T12:14:15.000Z</Time>
            <Position>
              <LatitudeDegrees>40.790961273014545440673828125</LatitudeDegrees>
              <LongitudeDegrees>-4.06511650420725345611572265625</LongitudeDegrees>
            </Position>
            <AltitudeMeters>1801</AltitudeMeters>
            <DistanceMeters>NAN</DistanceMeters>
          </Trackpoint>
          <Trackpoint>
            <Time>2018-12-30T12:14:16.000Z</Time>
            <Position>
              <LatitudeDegrees>40.7909520529210567474365234375</LatitudeDegrees>
              <LongitudeDegrees>-4.0651273168623447418212890625</LongitudeDegrees>
            </Position>
            <AltitudeMeters>1800.800048828125</AltitudeMeters>
            <DistanceMeters>NAN</DistanceMeters>
          </Trackpoint>
          <Trackpoint>
            <Time>2018-12-30T12:14:17.000Z</Time>
            <Position>
              <LatitudeDegrees>40.7909456826746463775634765625</LatitudeDegrees>
              <LongitudeDegrees>-4.0651412308216094970703125</LongitudeDegrees>
            </Position>
            <AltitudeMeters>1800.5999755859375</AltitudeMeters>
            <DistanceMeters>NAN</DistanceMeters>
          </Trackpoint>
          <Trackpoint>
            <Time>2018-12-30T12:14:18.000Z</Time>
            <Position>
              <LatitudeDegrees>40.7909339480102062225341796875</LatitudeDegrees>
              <LongitudeDegrees>-4.06515221111476421356201171875</LongitudeDegrees>
            </Position>
            <AltitudeMeters>1800.5999755859375</AltitudeMeters>
            <DistanceMeters>NAN</DistanceMeters>
          </Trackpoint>
          <Trackpoint>
            <Time>2018-12-30T12:14:19.000Z</Time>
            <Position>
              <LatitudeDegrees>40.79092179425060749053955078125</LatitudeDegrees>
              <LongitudeDegrees>-4.06516361050307750701904296875</LongitudeDegrees>
            </Position>
            <AltitudeMeters>1800.4000244140625</AltitudeMeters>
            <DistanceMeters>NAN</DistanceMeters>
          </Trackpoint>
          <Trackpoint>
            <Time>2018-12-30T12:14:20.000Z</Time>
            <Position>
              <LatitudeDegrees>40.79091223888099193572998046875</LatitudeDegrees>
              <LongitudeDegrees>-4.0651752613484859466552734375</LongitudeDegrees>
            </Position>
            <AltitudeMeters>1800.4000244140625</AltitudeMeters>
            <DistanceMeters>NAN</DistanceMeters>
          </Trackpoint>
          <Trackpoint>
            <Time>2018-12-30T12:14:21.000Z</Time>
            <Position>
              <LatitudeDegrees>40.790901593863964080810546875</LatitudeDegrees>
              <LongitudeDegrees>-4.06518959440290927886962890625</LongitudeDegrees>
            </Position>
            <AltitudeMeters>1800.5999755859375</AltitudeMeters>
            <DistanceMeters>NAN</DistanceMeters>
          </Trackpoint>
          <Trackpoint>
            <Time>2018-12-30T12:14:22.000Z</Time>
            <Position>
              <LatitudeDegrees>40.7908880151808261871337890625</LatitudeDegrees>
              <LongitudeDegrees>-4.065206944942474365234375</LongitudeDegrees>
            </Position>
            <AltitudeMeters>1800.5999755859375</AltitudeMeters>
            <DistanceMeters>NAN</DistanceMeters>
          </Trackpoint>
          <Trackpoint>
            <Time>2018-12-30T12:14:23.000Z</Time>
            <Position>
              <LatitudeDegrees>40.7908762805163860321044921875</LatitudeDegrees>
              <LongitudeDegrees>-4.06521792523562908172607421875</LongitudeDegrees>
            </Position>
            <AltitudeMeters>1800.800048828125</AltitudeMeters>
            <DistanceMeters>NAN</DistanceMeters>
          </Trackpoint>
          <Trackpoint>
            <Time>2018-12-30T12:14:24.000Z</Time>
            <Position>
              <LatitudeDegrees>40.79086462967097759246826171875</LatitudeDegrees>
              <LongitudeDegrees>-4.0652285702526569366455078125</LongitudeDegrees>
            </Position>
            <AltitudeMeters>1800.5999755859375</AltitudeMeters>
            <DistanceMeters>NAN</DistanceMeters>
          </Trackpoint>
          <Trackpoint>
            <Time>2018-12-30T12:14:25.000Z</Time>
            <Position>
              <LatitudeDegrees>40.790852643549442291259765625</LatitudeDegrees>
              <LongitudeDegrees>-4.06523846089839935302734375</LongitudeDegrees>
            </Position>
            <AltitudeMeters>1800.4000244140625</AltitudeMeters>
            <DistanceMeters>NAN</DistanceMeters>
          </Trackpoint>
          <Trackpoint>
            <Time>2018-12-30T12:14:26.000Z</Time>
            <Position>
              <LatitudeDegrees>40.790844596922397613525390625</LatitudeDegrees>
              <LongitudeDegrees>-4.06525212340056896209716796875</LongitudeDegrees>
            </Position>
            <AltitudeMeters>1800.4000244140625</AltitudeMeters>
            <DistanceMeters>NAN</DistanceMeters>
          </Trackpoint>
          <Trackpoint>
            <Time>2018-12-30T12:14:27.000Z</Time>
            <Position>
              <LatitudeDegrees>40.79083495773375034332275390625</LatitudeDegrees>
              <LongitudeDegrees>-4.065266288816928863525390625</LongitudeDegrees>
            </Position>
            <AltitudeMeters>1800.199951171875</AltitudeMeters>
            <DistanceMeters>NAN</DistanceMeters>
          </Trackpoint>
          <Trackpoint>
            <Time>2018-12-30T12:14:28.000Z</Time>
            <Position>
              <LatitudeDegrees>40.79082976095378398895263671875</LatitudeDegrees>
              <LongitudeDegrees>-4.06528062187135219573974609375</LongitudeDegrees>
            </Position>
            <AltitudeMeters>1800.199951171875</AltitudeMeters>
            <DistanceMeters>NAN</DistanceMeters>
          </Trackpoint>
          <Trackpoint>
            <Time>2018-12-30T12:14:29.000Z</Time>
            <Position>
              <LatitudeDegrees>40.79082640819251537322998046875</LatitudeDegrees>
              <LongitudeDegrees>-4.06529386527836322784423828125</LongitudeDegrees>
            </Position>
            <AltitudeMeters>1800</AltitudeMeters>
            <DistanceMeters>NAN</DistanceMeters>
          </Trackpoint>
          <Trackpoint>
            <Time>2018-12-30T12:14:30.000Z</Time>
            <Position>
              <LatitudeDegrees>40.79082557000219821929931640625</LatitudeDegrees>
              <LongitudeDegrees>-4.06530492939054965972900390625</LongitudeDegrees>
            </Position>
            <AltitudeMeters>1799.800048828125</AltitudeMeters>
            <DistanceMeters>NAN</DistanceMeters>
          </Trackpoint>
          <Trackpoint>
            <Time>2018-12-30T12:14:31.000Z</Time>
            <Position>
              <LatitudeDegrees>40.79082037322223186492919921875</LatitudeDegrees>
              <LongitudeDegrees>-4.06531951390206813812255859375</LongitudeDegrees>
            </Position>
            <AltitudeMeters>1799.5999755859375</AltitudeMeters>
            <DistanceMeters>NAN</DistanceMeters>
          </Trackpoint>
          <Trackpoint>
            <Time>2018-12-30T12:14:32.000Z</Time>
            <Position>
              <LatitudeDegrees>40.79082037322223186492919921875</LatitudeDegrees>
              <LongitudeDegrees>-4.06533929519355297088623046875</LongitudeDegrees>
            </Position>
            <AltitudeMeters>1799.4000244140625</AltitudeMeters>
            <DistanceMeters>NAN</DistanceMeters>
          </Trackpoint>
          <Trackpoint>
            <Time>2018-12-30T12:14:33.000Z</Time>
            <Position>
              <LatitudeDegrees>40.7908088900148868560791015625</LatitudeDegrees>
              <LongitudeDegrees>-4.06534968875348567962646484375</LongitudeDegrees>
            </Position>
            <AltitudeMeters>1799.4000244140625</AltitudeMeters>
            <DistanceMeters>NAN</DistanceMeters>
          </Trackpoint>
          <Trackpoint>
            <Time>2018-12-30T12:14:34.000Z</Time>
            <Position>
              <LatitudeDegrees>40.7908028550446033477783203125</LatitudeDegrees>
              <LongitudeDegrees>-4.06536058522760868072509765625</LongitudeDegrees>
            </Position>
            <AltitudeMeters>1799.4000244140625</AltitudeMeters>
            <DistanceMeters>NAN</DistanceMeters>
          </Trackpoint>
          <Trackpoint>
            <Time>2018-12-30T12:14:35.000Z</Time>
            <Position>
              <LatitudeDegrees>40.7908000051975250244140625</LatitudeDegrees>
              <LongitudeDegrees>-4.06537064351141452789306640625</LongitudeDegrees>
            </Position>
            <AltitudeMeters>1799.4000244140625</AltitudeMeters>
            <DistanceMeters>NAN</DistanceMeters>
          </Trackpoint>
          <Trackpoint>
            <Time>2018-12-30T12:14:36.000Z</Time>
            <Position>
              <LatitudeDegrees>40.7907981611788272857666015625</LatitudeDegrees>
              <LongitudeDegrees>-4.06537282280623912811279296875</LongitudeDegrees>
            </Position>
            <AltitudeMeters>1799.4000244140625</AltitudeMeters>
            <DistanceMeters>NAN</DistanceMeters>
          </Trackpoint>
          <Trackpoint>
            <Time>2018-12-30T12:14:37.000Z</Time>
            <Position>
              <LatitudeDegrees>40.7907958142459392547607421875</LatitudeDegrees>
              <LongitudeDegrees>-4.065378271043300628662109375</LongitudeDegrees>
            </Position>
            <AltitudeMeters>1799.800048828125</AltitudeMeters>
            <DistanceMeters>NAN</DistanceMeters>
          </Trackpoint>
          <Trackpoint>
            <Time>2018-12-30T12:14:38.000Z</Time>
            <Position>
              <LatitudeDegrees>40.79078148119151592254638671875</LatitudeDegrees>
              <LongitudeDegrees>-4.06538858078420162200927734375</LongitudeDegrees>
            </Position>
            <AltitudeMeters>1800</AltitudeMeters>
            <DistanceMeters>NAN</DistanceMeters>
          </Trackpoint>
          <Trackpoint>
            <Time>2018-12-30T12:14:39.000Z</Time>
            <Position>
              <LatitudeDegrees>40.7907713390886783599853515625</LatitudeDegrees>
              <LongitudeDegrees>-4.0654069371521472930908203125</LongitudeDegrees>
            </Position>
            <AltitudeMeters>1800.199951171875</AltitudeMeters>
            <DistanceMeters>NAN</DistanceMeters>
          </Trackpoint>
          <Trackpoint>
            <Time>2018-12-30T12:14:40.000Z</Time>
            <Position>
              <LatitudeDegrees>40.79075868241488933563232421875</LatitudeDegrees>
              <LongitudeDegrees>-4.0654186718165874481201171875</LongitudeDegrees>
            </Position>
            <AltitudeMeters>1800.199951171875</AltitudeMeters>
            <DistanceMeters>NAN</DistanceMeters>
          </Trackpoint>
          <Trackpoint>
            <Time>2018-12-30T12:14:41.000Z</Time>
            <Position>
              <LatitudeDegrees>40.7907465286552906036376953125</LatitudeDegrees>
              <LongitudeDegrees>-4.065427221357822418212890625</LongitudeDegrees>
            </Position>
            <AltitudeMeters>1800.199951171875</AltitudeMeters>
            <DistanceMeters>NAN</DistanceMeters>
          </Trackpoint>
          <Trackpoint>
            <Time>2018-12-30T12:14:42.000Z</Time>
            <Position>
              <LatitudeDegrees>40.79073429107666015625</LatitudeDegrees>
              <LongitudeDegrees>-4.0654337592422962188720703125</LongitudeDegrees>
            </Position>
            <AltitudeMeters>1800.199951171875</AltitudeMeters>
            <DistanceMeters>NAN</DistanceMeters>
          </Trackpoint>
          <Trackpoint>
            <Time>2018-12-30T12:14:43.000Z</Time>
            <Position>
              <LatitudeDegrees>40.79072029329836368560791015625</LatitudeDegrees>
              <LongitudeDegrees>-4.065437950193881988525390625</LongitudeDegrees>
            </Position>
            <AltitudeMeters>1800.199951171875</AltitudeMeters>
            <DistanceMeters>NAN</DistanceMeters>
          </Trackpoint>
          <Trackpoint>
            <Time>2018-12-30T12:14:44.000Z</Time>
            <Position>
              <LatitudeDegrees>40.79070671461522579193115234375</LatitudeDegrees>
              <LongitudeDegrees>-4.06544708646833896636962890625</LongitudeDegrees>
            </Position>
            <AltitudeMeters>1800.199951171875</AltitudeMeters>
            <DistanceMeters>NAN</DistanceMeters>
          </Trackpoint>
          <Trackpoint>
            <Time>2018-12-30T12:14:45.000Z</Time>
            <Position>
              <LatitudeDegrees>40.79069246537983417510986328125</LatitudeDegrees>
              <LongitudeDegrees>-4.0654558874666690826416015625</LongitudeDegrees>
            </Position>
            <AltitudeMeters>1800.199951171875</AltitudeMeters>
            <DistanceMeters>NAN</DistanceMeters>
          </Trackpoint>
          <Trackpoint>
            <Time>2018-12-30T12:14:46.000Z</Time>
            <Position>
              <LatitudeDegrees>40.79067804850637912750244140625</LatitudeDegrees>
              <LongitudeDegrees>-4.06546234153211116790771484375</LongitudeDegrees>
            </Position>
            <AltitudeMeters>1800.199951171875</AltitudeMeters>
            <DistanceMeters>NAN</DistanceMeters>
          </Trackpoint>
          <Trackpoint>
            <Time>2018-12-30T12:14:47.000Z</Time>
            <Position>
              <LatitudeDegrees>40.7906670682132244110107421875</LatitudeDegrees>
              <LongitudeDegrees>-4.06547005288302898406982421875</LongitudeDegrees>
            </Position>
            <AltitudeMeters>1800.4000244140625</AltitudeMeters>
            <DistanceMeters>NAN</DistanceMeters>
          </Trackpoint>
          <Trackpoint>
            <Time>2018-12-30T12:14:48.000Z</Time>
            <Position>
              <LatitudeDegrees>40.7906524837017059326171875</LatitudeDegrees>
              <LongitudeDegrees>-4.06547558493912220001220703125</LongitudeDegrees>
            </Position>
            <AltitudeMeters>1800.4000244140625</AltitudeMeters>
            <DistanceMeters>NAN</DistanceMeters>
          </Trackpoint>
          <Trackpoint>
            <Time>2018-12-30T12:14:49.000Z</Time>
            <Position>
              <LatitudeDegrees>40.790649466216564178466796875</LatitudeDegrees>
              <LongitudeDegrees>-4.06548514030873775482177734375</LongitudeDegrees>
            </Position>
            <AltitudeMeters>1800.4000244140625</AltitudeMeters>
            <DistanceMeters>NAN</DistanceMeters>
          </Trackpoint>
          <Trackpoint>
            <Time>2018-12-30T12:14:50.000Z</Time>
            <Position>
              <LatitudeDegrees>40.79064636491239070892333984375</LatitudeDegrees>
              <LongitudeDegrees>-4.0654884092509746551513671875</LongitudeDegrees>
            </Position>
            <AltitudeMeters>1800.4000244140625</AltitudeMeters>
            <DistanceMeters>NAN</DistanceMeters>
          </Trackpoint>
          <Trackpoint>
            <Time>2018-12-30T12:14:51.000Z</Time>
            <Position>
              <LatitudeDegrees>40.79064586199820041656494140625</LatitudeDegrees>
              <LongitudeDegrees>-4.0654961206018924713134765625</LongitudeDegrees>
            </Position>
            <AltitudeMeters>1800.199951171875</AltitudeMeters>
            <DistanceMeters>NAN</DistanceMeters>
          </Trackpoint>
          <Trackpoint>
            <Time>2018-12-30T12:14:52.000Z</Time>
            <Position>
              <LatitudeDegrees>40.790646784007549285888671875</LatitudeDegrees>
              <LongitudeDegrees>-4.06550131738185882568359375</LongitudeDegrees>
            </Position>
            <AltitudeMeters>1800.199951171875</AltitudeMeters>
            <DistanceMeters>NAN</DistanceMeters>
          </Trackpoint>
          <Trackpoint>
            <Time>2018-12-30T12:14:53.000Z</Time>
            <Position>
              <LatitudeDegrees>40.79064401797950267791748046875</LatitudeDegrees>
              <LongitudeDegrees>-4.06550626270473003387451171875</LongitudeDegrees>
            </Position>
            <AltitudeMeters>1800.199951171875</AltitudeMeters>
            <DistanceMeters>NAN</DistanceMeters>
          </Trackpoint>
          <Trackpoint>
            <Time>2018-12-30T12:14:54.000Z</Time>
            <Position>
              <LatitudeDegrees>40.790649466216564178466796875</LatitudeDegrees>
              <LongitudeDegrees>-4.0655102021992206573486328125</LongitudeDegrees>
            </Position>
            <AltitudeMeters>1800.199951171875</AltitudeMeters>
            <DistanceMeters>NAN</DistanceMeters>
          </Trackpoint>
          <Trackpoint>
            <Time>2018-12-30T12:14:55.000Z</Time>
            <Position>
              <LatitudeDegrees>40.79065206460654735565185546875</LatitudeDegrees>
              <LongitudeDegrees>-4.06551204621791839599609375</LongitudeDegrees>
            </Position>
            <AltitudeMeters>1800.199951171875</AltitudeMeters>
            <DistanceMeters>NAN</DistanceMeters>
          </Trackpoint>
          <Trackpoint>
            <Time>2018-12-30T12:14:56.000Z</Time>
            <Position>
              <LatitudeDegrees>40.790657512843608856201171875</LatitudeDegrees>
              <LongitudeDegrees>-4.0655113756656646728515625</LongitudeDegrees>
            </Position>
            <AltitudeMeters>1800.4000244140625</AltitudeMeters>
            <DistanceMeters>NAN</DistanceMeters>
          </Trackpoint>
          <Trackpoint>
            <Time>2018-12-30T12:14:57.000Z</Time>
            <Position>
              <LatitudeDegrees>40.7906605303287506103515625</LatitudeDegrees>
              <LongitudeDegrees>-4.065511040389537811279296875</LongitudeDegrees>
            </Position>
            <AltitudeMeters>1800.4000244140625</AltitudeMeters>
            <DistanceMeters>NAN</DistanceMeters>
          </Trackpoint>
          <Trackpoint>
            <Time>2018-12-30T12:14:58.000Z</Time>
            <Position>
              <LatitudeDegrees>40.79066128470003604888916015625</LatitudeDegrees>
              <LongitudeDegrees>-4.06550810672342777252197265625</LongitudeDegrees>
            </Position>
            <AltitudeMeters>1800.4000244140625</AltitudeMeters>
            <DistanceMeters>NAN</DistanceMeters>
          </Trackpoint>
          <Trackpoint>
            <Time>2018-12-30T12:14:59.000Z</Time>
            <Position>
              <LatitudeDegrees>40.790662206709384918212890625</LatitudeDegrees>
              <LongitudeDegrees>-4.06550492160022258758544921875</LongitudeDegrees>
            </Position>
            <AltitudeMeters>1800.199951171875</AltitudeMeters>
            <DistanceMeters>NAN</DistanceMeters>
          </Trackpoint>
          <Trackpoint>
            <Time>2018-12-30T12:15:00.000Z</Time>
            <Position>
              <LatitudeDegrees>40.7906617037951946258544921875</LatitudeDegrees>
              <LongitudeDegrees>-4.065501652657985687255859375</LongitudeDegrees>
            </Position>
            <AltitudeMeters>1800.199951171875</AltitudeMeters>
            <DistanceMeters>NAN</DistanceMeters>
          </Trackpoint>
          <Trackpoint>
            <Time>2018-12-30T12:15:01.000Z</Time>
            <Position>
              <LatitudeDegrees>40.79066094942390918731689453125</LatitudeDegrees>
              <LongitudeDegrees>-4.06550039537250995635986328125</LongitudeDegrees>
            </Position>
            <AltitudeMeters>1800</AltitudeMeters>
            <DistanceMeters>NAN</DistanceMeters>
          </Trackpoint>
          <Trackpoint>
            <Time>2018-12-30T12:15:02.000Z</Time>
            <Position>
              <LatitudeDegrees>40.7906605303287506103515625</LatitudeDegrees>
              <LongitudeDegrees>-4.0655008144676685333251953125</LongitudeDegrees>
            </Position>
            <AltitudeMeters>1800</AltitudeMeters>
            <DistanceMeters>NAN</DistanceMeters>
          </Trackpoint>
          <Trackpoint>
            <Time>2018-12-30T12:15:03.000Z</Time>
            <Position>
              <LatitudeDegrees>40.7906590215861797332763671875</LatitudeDegrees>
              <LongitudeDegrees>-4.065501987934112548828125</LongitudeDegrees>
            </Position>
            <AltitudeMeters>1800</AltitudeMeters>
            <DistanceMeters>NAN</DistanceMeters>
          </Trackpoint>
          <Trackpoint>
            <Time>2018-12-30T12:15:04.000Z</Time>
            <Position>
              <LatitudeDegrees>40.79065776430070400238037109375</LatitudeDegrees>
              <LongitudeDegrees>-4.06549997627735137939453125</LongitudeDegrees>
            </Position>
            <AltitudeMeters>1800</AltitudeMeters>
            <DistanceMeters>NAN</DistanceMeters>
          </Trackpoint>
          <Trackpoint>
            <Time>2018-12-30T12:15:05.000Z</Time>
            <Position>
              <LatitudeDegrees>40.7906566746532917022705078125</LatitudeDegrees>
              <LongitudeDegrees>-4.06549871899187564849853515625</LongitudeDegrees>
            </Position>
            <AltitudeMeters>1800</AltitudeMeters>
            <DistanceMeters>NAN</DistanceMeters>
          </Trackpoint>
          <Trackpoint>
            <Time>2018-12-30T12:15:06.000Z</Time>
            <Position>
              <LatitudeDegrees>40.7906529866158962249755859375</LatitudeDegrees>
              <LongitudeDegrees>-4.06549821607768535614013671875</LongitudeDegrees>
            </Position>
            <AltitudeMeters>1799.800048828125</AltitudeMeters>
            <DistanceMeters>NAN</DistanceMeters>
          </Trackpoint>
          <Trackpoint>
            <Time>2018-12-30T12:15:07.000Z</Time>
            <Position>
              <LatitudeDegrees>40.790648795664310455322265625</LatitudeDegrees>
              <LongitudeDegrees>-4.06549838371574878692626953125</LongitudeDegrees>
            </Position>
            <AltitudeMeters>1799.800048828125</AltitudeMeters>
            <DistanceMeters>NAN</DistanceMeters>
          </Trackpoint>
          <Trackpoint>
            <Time>2018-12-30T12:15:08.000Z</Time>
            <Position>
              <LatitudeDegrees>40.7906479574739933013916015625</LatitudeDegrees>
              <LongitudeDegrees>-4.06549922190606594085693359375</LongitudeDegrees>
            </Position>
            <AltitudeMeters>1799.800048828125</AltitudeMeters>
            <DistanceMeters>NAN</DistanceMeters>
          </Trackpoint>
          <Trackpoint>
            <Time>2018-12-30T12:15:09.000Z</Time>
            <Position>
              <LatitudeDegrees>40.7906466163694858551025390625</LatitudeDegrees>
              <LongitudeDegrees>-4.06550056301057338714599609375</LongitudeDegrees>
            </Position>
            <AltitudeMeters>1799.800048828125</AltitudeMeters>
            <DistanceMeters>NAN</DistanceMeters>
          </Trackpoint>
          <Trackpoint>
            <Time>2018-12-30T12:15:10.000Z</Time>
            <Position>
              <LatitudeDegrees>40.79064569436013698577880859375</LatitudeDegrees>
              <LongitudeDegrees>-4.0655038319528102874755859375</LongitudeDegrees>
            </Position>
            <AltitudeMeters>1799.800048828125</AltitudeMeters>
            <DistanceMeters>NAN</DistanceMeters>
          </Trackpoint>
          <Trackpoint>
            <Time>2018-12-30T12:15:11.000Z</Time>
            <Position>
              <LatitudeDegrees>40.79064334742724895477294921875</LatitudeDegrees>
              <LongitudeDegrees>-4.06550676561892032623291015625</LongitudeDegrees>
            </Position>
            <AltitudeMeters>1799.800048828125</AltitudeMeters>
            <DistanceMeters>NAN</DistanceMeters>
          </Trackpoint>
          <Trackpoint>
            <Time>2018-12-30T12:15:12.000Z</Time>
            <Position>
              <LatitudeDegrees>40.7906409166753292083740234375</LatitudeDegrees>
              <LongitudeDegrees>-4.0655102021992206573486328125</LongitudeDegrees>
            </Position>
            <AltitudeMeters>1799.800048828125</AltitudeMeters>
            <DistanceMeters>NAN</DistanceMeters>
          </Trackpoint>
          <Trackpoint>
            <Time>2018-12-30T12:15:13.000Z</Time>
            <Position>
              <LatitudeDegrees>40.79063882119953632354736328125</LatitudeDegrees>
              <LongitudeDegrees>-4.06551313586533069610595703125</LongitudeDegrees>
            </Position>
            <AltitudeMeters>1800</AltitudeMeters>
            <DistanceMeters>NAN</DistanceMeters>
          </Trackpoint>
          <Trackpoint>
            <Time>2018-12-30T12:15:14.000Z</Time>
            <Position>
              <LatitudeDegrees>40.79063647426664829254150390625</LatitudeDegrees>
              <LongitudeDegrees>-4.065515734255313873291015625</LongitudeDegrees>
            </Position>
            <AltitudeMeters>1800</AltitudeMeters>
            <DistanceMeters>NAN</DistanceMeters>
          </Trackpoint>
          <Trackpoint>
            <Time>2018-12-30T12:15:15.000Z</Time>
            <Position>
              <LatitudeDegrees>40.79063479788601398468017578125</LatitudeDegrees>
              <LongitudeDegrees>-4.065517745912075042724609375</LongitudeDegrees>
            </Position>
            <AltitudeMeters>1800</AltitudeMeters>
            <DistanceMeters>NAN</DistanceMeters>
          </Trackpoint>
          <Trackpoint>
            <Time>2018-12-30T12:15:16.000Z</Time>
            <Position>
              <LatitudeDegrees>40.79063027165830135345458984375</LatitudeDegrees>
              <LongitudeDegrees>-4.06551741063594818115234375</LongitudeDegrees>
            </Position>
            <AltitudeMeters>1800.199951171875</AltitudeMeters>
            <DistanceMeters>NAN</DistanceMeters>
          </Trackpoint>
          <Trackpoint>
            <Time>2018-12-30T12:15:17.000Z</Time>
            <Position>
              <LatitudeDegrees>40.79062901437282562255859375</LatitudeDegrees>
              <LongitudeDegrees>-4.06551799736917018890380859375</LongitudeDegrees>
            </Position>
            <AltitudeMeters>1800.4000244140625</AltitudeMeters>
            <DistanceMeters>NAN</DistanceMeters>
          </Trackpoint>
          <Trackpoint>
            <Time>2018-12-30T12:15:18.000Z</Time>
            <Position>
              <LatitudeDegrees>40.790628008544445037841796875</LatitudeDegrees>
              <LongitudeDegrees>-4.06552118249237537384033203125</LongitudeDegrees>
            </Position>
            <AltitudeMeters>1800.5999755859375</AltitudeMeters>
            <DistanceMeters>NAN</DistanceMeters>
          </Trackpoint>
          <Trackpoint>
            <Time>2018-12-30T12:15:19.000Z</Time>
            <Position>
              <LatitudeDegrees>40.79062574543058872222900390625</LatitudeDegrees>
              <LongitudeDegrees>-4.06552369706332683563232421875</LongitudeDegrees>
            </Position>
            <AltitudeMeters>1800.800048828125</AltitudeMeters>
            <DistanceMeters>NAN</DistanceMeters>
          </Trackpoint>
          <Trackpoint>
            <Time>2018-12-30T12:15:20.000Z</Time>
            <Position>
              <LatitudeDegrees>40.79062356613576412200927734375</LatitudeDegrees>
              <LongitudeDegrees>-4.0655246190726757049560546875</LongitudeDegrees>
            </Position>
            <AltitudeMeters>1801</AltitudeMeters>
            <DistanceMeters>NAN</DistanceMeters>
          </Trackpoint>
          <Trackpoint>
            <Time>2018-12-30T12:15:21.000Z</Time>
            <Position>
              <LatitudeDegrees>40.79062138684093952178955078125</LatitudeDegrees>
              <LongitudeDegrees>-4.0655276365578174591064453125</LongitudeDegrees>
            </Position>
            <AltitudeMeters>1801</AltitudeMeters>
            <DistanceMeters>NAN</DistanceMeters>
          </Trackpoint>
          <Trackpoint>
            <Time>2018-12-30T12:15:22.000Z</Time>
            <Position>
              <LatitudeDegrees>40.79062138684093952178955078125</LatitudeDegrees>
              <LongitudeDegrees>-4.065528474748134613037109375</LongitudeDegrees>
            </Position>
            <AltitudeMeters>1801</AltitudeMeters>
            <DistanceMeters>NAN</DistanceMeters>
          </Trackpoint>
          <Trackpoint>
            <Time>2018-12-30T12:15:23.000Z</Time>
            <Position>
              <LatitudeDegrees>40.790621303021907806396484375</LatitudeDegrees>
              <LongitudeDegrees>-4.06552956439554691314697265625</LongitudeDegrees>
            </Position>
            <AltitudeMeters>1801</AltitudeMeters>
            <DistanceMeters>NAN</DistanceMeters>
          </Trackpoint>
          <Trackpoint>
            <Time>2018-12-30T12:15:24.000Z</Time>
            <Position>
              <LatitudeDegrees>40.79062038101255893707275390625</LatitudeDegrees>
              <LongitudeDegrees>-4.06553140841424465179443359375</LongitudeDegrees>
            </Position>
            <AltitudeMeters>1801</AltitudeMeters>
            <DistanceMeters>NAN</DistanceMeters>
          </Trackpoint>
          <Trackpoint>
            <Time>2018-12-30T12:15:25.000Z</Time>
            <Position>
              <LatitudeDegrees>40.79061903990805149078369140625</LatitudeDegrees>
              <LongitudeDegrees>-4.06553308479487895965576171875</LongitudeDegrees>
            </Position>
            <AltitudeMeters>1801</AltitudeMeters>
            <DistanceMeters>NAN</DistanceMeters>
          </Trackpoint>
          <Trackpoint>
            <Time>2018-12-30T12:15:26.000Z</Time>
            <Position>
              <LatitudeDegrees>40.79061669297516345977783203125</LatitudeDegrees>
              <LongitudeDegrees>-4.0655340068042278289794921875</LongitudeDegrees>
            </Position>
            <AltitudeMeters>1801.199951171875</AltitudeMeters>
            <DistanceMeters>NAN</DistanceMeters>
          </Trackpoint>
          <Trackpoint>
            <Time>2018-12-30T12:15:27.000Z</Time>
            <Position>
              <LatitudeDegrees>40.79061434604227542877197265625</LatitudeDegrees>
              <LongitudeDegrees>-4.06553484499454498291015625</LongitudeDegrees>
            </Position>
            <AltitudeMeters>1801.199951171875</AltitudeMeters>
            <DistanceMeters>NAN</DistanceMeters>
          </Trackpoint>
          <Trackpoint>
            <Time>2018-12-30T12:15:28.000Z</Time>
            <Position>
              <LatitudeDegrees>40.790613926947116851806640625</LatitudeDegrees>
              <LongitudeDegrees>-4.06553861685097217559814453125</LongitudeDegrees>
            </Position>
            <AltitudeMeters>1801.199951171875</AltitudeMeters>
            <DistanceMeters>NAN</DistanceMeters>
          </Trackpoint>
          <Trackpoint>
            <Time>2018-12-30T12:15:29.000Z</Time>
            <Position>
              <LatitudeDegrees>40.79061434604227542877197265625</LatitudeDegrees>
              <LongitudeDegrees>-4.0655430592596530914306640625</LongitudeDegrees>
            </Position>
            <AltitudeMeters>1801.199951171875</AltitudeMeters>
            <DistanceMeters>NAN</DistanceMeters>
          </Trackpoint>
          <Trackpoint>
            <Time>2018-12-30T12:15:30.000Z</Time>
            <Position>
              <LatitudeDegrees>40.79061283729970455169677734375</LatitudeDegrees>
              <LongitudeDegrees>-4.06554800458252429962158203125</LongitudeDegrees>
            </Position>
            <AltitudeMeters>1801.199951171875</AltitudeMeters>
            <DistanceMeters>NAN</DistanceMeters>
          </Trackpoint>
          <Trackpoint>
            <Time>2018-12-30T12:15:31.000Z</Time>
            <Position>
              <LatitudeDegrees>40.79061065800487995147705078125</LatitudeDegrees>
              <LongitudeDegrees>-4.065551944077014923095703125</LongitudeDegrees>
            </Position>
            <AltitudeMeters>1801.199951171875</AltitudeMeters>
            <DistanceMeters>NAN</DistanceMeters>
          </Trackpoint>
          <Trackpoint>
            <Time>2018-12-30T12:15:32.000Z</Time>
            <Position>
              <LatitudeDegrees>40.79060847871005535125732421875</LatitudeDegrees>
              <LongitudeDegrees>-4.06555521301925182342529296875</LongitudeDegrees>
            </Position>
            <AltitudeMeters>1801.199951171875</AltitudeMeters>
            <DistanceMeters>NAN</DistanceMeters>
          </Trackpoint>
          <Trackpoint>
            <Time>2018-12-30T12:15:33.000Z</Time>
            <Position>
              <LatitudeDegrees>40.79060747288167476654052734375</LatitudeDegrees>
              <LongitudeDegrees>-4.06555588357150554656982421875</LongitudeDegrees>
            </Position>
            <AltitudeMeters>1801</AltitudeMeters>
            <DistanceMeters>NAN</DistanceMeters>
          </Trackpoint>
          <Trackpoint>
            <Time>2018-12-30T12:15:34.000Z</Time>
            <Position>
              <LatitudeDegrees>40.7906073890626430511474609375</LatitudeDegrees>
              <LongitudeDegrees>-4.06555538065731525421142578125</LongitudeDegrees>
            </Position>
            <AltitudeMeters>1801</AltitudeMeters>
            <DistanceMeters>NAN</DistanceMeters>
          </Trackpoint>
          <Trackpoint>
            <Time>2018-12-30T12:15:35.000Z</Time>
            <Position>
              <LatitudeDegrees>40.79060730524361133575439453125</LatitudeDegrees>
              <LongitudeDegrees>-4.06555571593344211578369140625</LongitudeDegrees>
            </Position>
            <AltitudeMeters>1801</AltitudeMeters>
            <DistanceMeters>NAN</DistanceMeters>
          </Trackpoint>
          <Trackpoint>
            <Time>2018-12-30T12:15:36.000Z</Time>
            <Position>
              <LatitudeDegrees>40.79060764051973819732666015625</LatitudeDegrees>
              <LongitudeDegrees>-4.06555630266666412353515625</LongitudeDegrees>
            </Position>
            <AltitudeMeters>1800.800048828125</AltitudeMeters>
            <DistanceMeters>NAN</DistanceMeters>
          </Trackpoint>
          <Trackpoint>
            <Time>2018-12-30T12:15:37.000Z</Time>
            <Position>
              <LatitudeDegrees>40.7906100712716579437255859375</LatitudeDegrees>
              <LongitudeDegrees>-4.06555630266666412353515625</LongitudeDegrees>
            </Position>
            <AltitudeMeters>1800.5999755859375</AltitudeMeters>
            <DistanceMeters>NAN</DistanceMeters>
          </Trackpoint>
          <Trackpoint>
            <Time>2018-12-30T12:15:38.000Z</Time>
            <Position>
              <LatitudeDegrees>40.79061132855713367462158203125</LatitudeDegrees>
              <LongitudeDegrees>-4.06555403955280780792236328125</LongitudeDegrees>
            </Position>
            <AltitudeMeters>1800.4000244140625</AltitudeMeters>
            <DistanceMeters>NAN</DistanceMeters>
          </Trackpoint>
          <Trackpoint>
            <Time>2018-12-30T12:15:39.000Z</Time>
            <Position>
              <LatitudeDegrees>40.7906122505664825439453125</LatitudeDegrees>
              <LongitudeDegrees>-4.0655524469912052154541015625</LongitudeDegrees>
            </Position>
            <AltitudeMeters>1800.4000244140625</AltitudeMeters>
            <DistanceMeters>NAN</DistanceMeters>
          </Trackpoint>
          <Trackpoint>
            <Time>2018-12-30T12:15:40.000Z</Time>
            <Position>
              <LatitudeDegrees>40.79061183147132396697998046875</LatitudeDegrees>
              <LongitudeDegrees>-4.06554917804896831512451171875</LongitudeDegrees>
            </Position>
            <AltitudeMeters>1800.199951171875</AltitudeMeters>
            <DistanceMeters>NAN</DistanceMeters>
          </Trackpoint>
          <Trackpoint>
            <Time>2018-12-30T12:15:41.000Z</Time>
            <Position>
              <LatitudeDegrees>40.7906095683574676513671875</LatitudeDegrees>
              <LongitudeDegrees>-4.06554465182125568389892578125</LongitudeDegrees>
            </Position>
            <AltitudeMeters>1800.199951171875</AltitudeMeters>
            <DistanceMeters>NAN</DistanceMeters>
          </Trackpoint>
          <Trackpoint>
            <Time>2018-12-30T12:15:42.000Z</Time>
            <Position>
              <LatitudeDegrees>40.79060914926230907440185546875</LatitudeDegrees>
              <LongitudeDegrees>-4.065544568002223968505859375</LongitudeDegrees>
            </Position>
            <AltitudeMeters>1800.199951171875</AltitudeMeters>
            <DistanceMeters>NAN</DistanceMeters>
          </Trackpoint>
          <Trackpoint>
            <Time>2018-12-30T12:15:43.000Z</Time>
            <Position>
              <LatitudeDegrees>40.79061501659452915191650390625</LatitudeDegrees>
              <LongitudeDegrees>-4.06554766930639743804931640625</LongitudeDegrees>
            </Position>
            <AltitudeMeters>1800.199951171875</AltitudeMeters>
            <DistanceMeters>NAN</DistanceMeters>
          </Trackpoint>
          <Trackpoint>
            <Time>2018-12-30T12:15:44.000Z</Time>
            <Position>
              <LatitudeDegrees>40.790625996887683868408203125</LatitudeDegrees>
              <LongitudeDegrees>-4.06555001623928546905517578125</LongitudeDegrees>
            </Position>
            <AltitudeMeters>1800.199951171875</AltitudeMeters>
            <DistanceMeters>NAN</DistanceMeters>
          </Trackpoint>
          <Trackpoint>
            <Time>2018-12-30T12:15:45.000Z</Time>
            <Position>
              <LatitudeDegrees>40.79062976874411106109619140625</LatitudeDegrees>
              <LongitudeDegrees>-4.06554691493511199951171875</LongitudeDegrees>
            </Position>
            <AltitudeMeters>1800.199951171875</AltitudeMeters>
            <DistanceMeters>NAN</DistanceMeters>
          </Trackpoint>
          <Trackpoint>
            <Time>2018-12-30T12:15:46.000Z</Time>
            <Position>
              <LatitudeDegrees>40.7906318642199039459228515625</LatitudeDegrees>
              <LongitudeDegrees>-4.06554314307868480682373046875</LongitudeDegrees>
            </Position>
            <AltitudeMeters>1800.199951171875</AltitudeMeters>
            <DistanceMeters>NAN</DistanceMeters>
          </Trackpoint>
          <Trackpoint>
            <Time>2018-12-30T12:15:47.000Z</Time>
            <Position>
              <LatitudeDegrees>40.79063530080020427703857421875</LatitudeDegrees>
              <LongitudeDegrees>-4.06553828157484531402587890625</LongitudeDegrees>
            </Position>
            <AltitudeMeters>1800.199951171875</AltitudeMeters>
            <DistanceMeters>NAN</DistanceMeters>
          </Trackpoint>
          <Trackpoint>
            <Time>2018-12-30T12:15:48.000Z</Time>
            <Position>
              <LatitudeDegrees>40.79063437879085540771484375</LatitudeDegrees>
              <LongitudeDegrees>-4.0655340068042278289794921875</LongitudeDegrees>
            </Position>
            <AltitudeMeters>1801</AltitudeMeters>
            <DistanceMeters>NAN</DistanceMeters>
          </Trackpoint>
          <Trackpoint>
            <Time>2018-12-30T12:15:49.000Z</Time>
            <Position>
              <LatitudeDegrees>40.79062993638217449188232421875</LatitudeDegrees>
              <LongitudeDegrees>-4.0655276365578174591064453125</LongitudeDegrees>
            </Position>
            <AltitudeMeters>1801.4000244140625</AltitudeMeters>
            <DistanceMeters>NAN</DistanceMeters>
          </Trackpoint>
          <Trackpoint>
            <Time>2018-12-30T12:15:50.000Z</Time>
            <Position>
              <LatitudeDegrees>40.79062893055379390716552734375</LatitudeDegrees>
              <LongitudeDegrees>-4.0655222721397876739501953125</LongitudeDegrees>
            </Position>
            <AltitudeMeters>1801.800048828125</AltitudeMeters>
            <DistanceMeters>NAN</DistanceMeters>
          </Trackpoint>
          <Trackpoint>
            <Time>2018-12-30T12:15:51.000Z</Time>
            <Position>
              <LatitudeDegrees>40.7906298525631427764892578125</LatitudeDegrees>
              <LongitudeDegrees>-4.06552202068269252777099609375</LongitudeDegrees>
            </Position>
            <AltitudeMeters>1801.800048828125</AltitudeMeters>
            <DistanceMeters>NAN</DistanceMeters>
          </Trackpoint>
          <Trackpoint>
            <Time>2018-12-30T12:15:52.000Z</Time>
            <Position>
              <LatitudeDegrees>40.79063077457249164581298828125</LatitudeDegrees>
              <LongitudeDegrees>-4.0655249543488025665283203125</LongitudeDegrees>
            </Position>
            <AltitudeMeters>1801.5999755859375</AltitudeMeters>
            <DistanceMeters>NAN</DistanceMeters>
          </Trackpoint>
          <Trackpoint>
            <Time>2018-12-30T12:15:53.000Z</Time>
            <Position>
              <LatitudeDegrees>40.790627002716064453125</LatitudeDegrees>
              <LongitudeDegrees>-4.06553023494780063629150390625</LongitudeDegrees>
            </Position>
            <AltitudeMeters>1801.4000244140625</AltitudeMeters>
            <DistanceMeters>NAN</DistanceMeters>
          </Trackpoint>
          <Trackpoint>
            <Time>2018-12-30T12:15:54.000Z</Time>
            <Position>
              <LatitudeDegrees>40.7906162738800048828125</LatitudeDegrees>
              <LongitudeDegrees>-4.06552855856716632843017578125</LongitudeDegrees>
            </Position>
            <AltitudeMeters>1801.4000244140625</AltitudeMeters>
            <DistanceMeters>NAN</DistanceMeters>
          </Trackpoint>
          <Trackpoint>
            <Time>2018-12-30T12:15:55.000Z</Time>
            <Position>
              <LatitudeDegrees>40.79060713760554790496826171875</LatitudeDegrees>
              <LongitudeDegrees>-4.06553526408970355987548828125</LongitudeDegrees>
            </Position>
            <AltitudeMeters>1801.4000244140625</AltitudeMeters>
            <DistanceMeters>NAN</DistanceMeters>
          </Trackpoint>
          <Trackpoint>
            <Time>2018-12-30T12:15:56.000Z</Time>
            <Position>
              <LatitudeDegrees>40.790598504245281219482421875</LatitudeDegrees>
              <LongitudeDegrees>-4.065545238554477691650390625</LongitudeDegrees>
            </Position>
            <AltitudeMeters>1801.4000244140625</AltitudeMeters>
            <DistanceMeters>NAN</DistanceMeters>
          </Trackpoint>
          <Trackpoint>
            <Time>2018-12-30T12:15:57.000Z</Time>
            <Position>
              <LatitudeDegrees>40.79058433882892131805419921875</LatitudeDegrees>
              <LongitudeDegrees>-4.065547250211238861083984375</LongitudeDegrees>
            </Position>
            <AltitudeMeters>1801.4000244140625</AltitudeMeters>
            <DistanceMeters>NAN</DistanceMeters>
          </Trackpoint>
          <Trackpoint>
            <Time>2018-12-30T12:15:58.000Z</Time>
            <Position>
              <LatitudeDegrees>40.79057746566832065582275390625</LatitudeDegrees>
              <LongitudeDegrees>-4.06555085442960262298583984375</LongitudeDegrees>
            </Position>
            <AltitudeMeters>1801.5999755859375</AltitudeMeters>
            <DistanceMeters>NAN</DistanceMeters>
          </Trackpoint>
          <Trackpoint>
            <Time>2018-12-30T12:15:59.000Z</Time>
            <Position>
              <LatitudeDegrees>40.790576376020908355712890625</LatitudeDegrees>
              <LongitudeDegrees>-4.06556728295981884002685546875</LongitudeDegrees>
            </Position>
            <AltitudeMeters>1801.5999755859375</AltitudeMeters>
            <DistanceMeters>NAN</DistanceMeters>
          </Trackpoint>
          <Trackpoint>
            <Time>2018-12-30T12:16:00.000Z</Time>
            <Position>
              <LatitudeDegrees>40.79056330025196075439453125</LatitudeDegrees>
              <LongitudeDegrees>-4.06557717360556125640869140625</LongitudeDegrees>
            </Position>
            <AltitudeMeters>1802.5999755859375</AltitudeMeters>
            <DistanceMeters>NAN</DistanceMeters>
          </Trackpoint>
          <Trackpoint>
            <Time>2018-12-30T12:16:01.000Z</Time>
            <Position>
              <LatitudeDegrees>40.79055265523493289947509765625</LatitudeDegrees>
              <LongitudeDegrees>-4.06559024937450885772705078125</LongitudeDegrees>
            </Position>
            <AltitudeMeters>1803</AltitudeMeters>
            <DistanceMeters>NAN</DistanceMeters>
          </Trackpoint>
          <Trackpoint>
            <Time>2018-12-30T12:16:02.000Z</Time>
            <Position>
              <LatitudeDegrees>40.79053974710404872894287109375</LatitudeDegrees>
              <LongitudeDegrees>-4.06559879891574382781982421875</LongitudeDegrees>
            </Position>
            <AltitudeMeters>1802.5999755859375</AltitudeMeters>
            <DistanceMeters>NAN</DistanceMeters>
          </Trackpoint>
          <Trackpoint>
            <Time>2018-12-30T12:16:03.000Z</Time>
            <Position>
              <LatitudeDegrees>40.7905282638967037200927734375</LatitudeDegrees>
              <LongitudeDegrees>-4.0656107850372791290283203125</LongitudeDegrees>
            </Position>
            <AltitudeMeters>1802.4000244140625</AltitudeMeters>
            <DistanceMeters>NAN</DistanceMeters>
          </Trackpoint>
          <Trackpoint>
            <Time>2018-12-30T12:16:04.000Z</Time>
            <Position>
              <LatitudeDegrees>40.79051694832742214202880859375</LatitudeDegrees>
              <LongitudeDegrees>-4.06562478281557559967041015625</LongitudeDegrees>
            </Position>
            <AltitudeMeters>1802.4000244140625</AltitudeMeters>
            <DistanceMeters>NAN</DistanceMeters>
          </Trackpoint>
          <Trackpoint>
            <Time>2018-12-30T12:16:05.000Z</Time>
            <Position>
              <LatitudeDegrees>40.7905058003962039947509765625</LatitudeDegrees>
              <LongitudeDegrees>-4.06563542783260345458984375</LongitudeDegrees>
            </Position>
            <AltitudeMeters>1802.4000244140625</AltitudeMeters>
            <DistanceMeters>NAN</DistanceMeters>
          </Trackpoint>
          <Trackpoint>
            <Time>2018-12-30T12:16:06.000Z</Time>
            <Position>
              <LatitudeDegrees>40.7904942333698272705078125</LatitudeDegrees>
              <LongitudeDegrees>-4.06564272008836269378662109375</LongitudeDegrees>
            </Position>
            <AltitudeMeters>1802.800048828125</AltitudeMeters>
            <DistanceMeters>NAN</DistanceMeters>
          </Trackpoint>
          <Trackpoint>
            <Time>2018-12-30T12:16:07.000Z</Time>
            <Position>
              <LatitudeDegrees>40.79048207961022853851318359375</LatitudeDegrees>
              <LongitudeDegrees>-4.06564858742058277130126953125</LongitudeDegrees>
            </Position>
            <AltitudeMeters>1802.800048828125</AltitudeMeters>
            <DistanceMeters>NAN</DistanceMeters>
          </Trackpoint>
          <Trackpoint>
            <Time>2018-12-30T12:16:08.000Z</Time>
            <Position>
              <LatitudeDegrees>40.79047101549804210662841796875</LatitudeDegrees>
              <LongitudeDegrees>-4.06565546058118343353271484375</LongitudeDegrees>
            </Position>
            <AltitudeMeters>1802.800048828125</AltitudeMeters>
            <DistanceMeters>NAN</DistanceMeters>
          </Trackpoint>
          <Trackpoint>
            <Time>2018-12-30T12:16:09.000Z</Time>
            <Position>
              <LatitudeDegrees>40.790463387966156005859375</LatitudeDegrees>
              <LongitudeDegrees>-4.06566484831273555755615234375</LongitudeDegrees>
            </Position>
            <AltitudeMeters>1803</AltitudeMeters>
            <DistanceMeters>NAN</DistanceMeters>
          </Trackpoint>
          <Trackpoint>
            <Time>2018-12-30T12:16:10.000Z</Time>
            <Position>
              <LatitudeDegrees>40.79045408405363559722900390625</LatitudeDegrees>
              <LongitudeDegrees>-4.065673984587192535400390625</LongitudeDegrees>
            </Position>
            <AltitudeMeters>1803.199951171875</AltitudeMeters>
            <DistanceMeters>NAN</DistanceMeters>
          </Trackpoint>
          <Trackpoint>
            <Time>2018-12-30T12:16:11.000Z</Time>
            <Position>
              <LatitudeDegrees>40.79044486396014690399169921875</LatitudeDegrees>
              <LongitudeDegrees>-4.06568362377583980560302734375</LongitudeDegrees>
            </Position>
            <AltitudeMeters>1803.199951171875</AltitudeMeters>
            <DistanceMeters>NAN</DistanceMeters>
          </Trackpoint>
          <Trackpoint>
            <Time>2018-12-30T12:16:12.000Z</Time>
            <Position>
              <LatitudeDegrees>40.7904377393424510955810546875</LatitudeDegrees>
              <LongitudeDegrees>-4.0656939335167407989501953125</LongitudeDegrees>
            </Position>
            <AltitudeMeters>1803.4000244140625</AltitudeMeters>
            <DistanceMeters>NAN</DistanceMeters>
          </Trackpoint>
          <Trackpoint>
            <Time>2018-12-30T12:16:13.000Z</Time>
            <Position>
              <LatitudeDegrees>40.79042977653443813323974609375</LatitudeDegrees>
              <LongitudeDegrees>-4.06570248305797576904296875</LongitudeDegrees>
            </Position>
            <AltitudeMeters>1803.4000244140625</AltitudeMeters>
            <DistanceMeters>NAN</DistanceMeters>
          </Trackpoint>
          <Trackpoint>
            <Time>2018-12-30T12:16:14.000Z</Time>
            <Position>
              <LatitudeDegrees>40.79042089171707630157470703125</LatitudeDegrees>
              <LongitudeDegrees>-4.06571161933243274688720703125</LongitudeDegrees>
            </Position>
            <AltitudeMeters>1803.4000244140625</AltitudeMeters>
            <DistanceMeters>NAN</DistanceMeters>
          </Trackpoint>
          <Trackpoint>
            <Time>2018-12-30T12:16:15.000Z</Time>
            <Position>
              <LatitudeDegrees>40.790412090718746185302734375</LatitudeDegrees>
              <LongitudeDegrees>-4.065721929073333740234375</LongitudeDegrees>
            </Position>
            <AltitudeMeters>1803.4000244140625</AltitudeMeters>
            <DistanceMeters>NAN</DistanceMeters>
          </Trackpoint>
          <Trackpoint>
            <Time>2018-12-30T12:16:16.000Z</Time>
            <Position>
              <LatitudeDegrees>40.79040639102458953857421875</LatitudeDegrees>
              <LongitudeDegrees>-4.06573357991874217987060546875</LongitudeDegrees>
            </Position>
            <AltitudeMeters>1803.5999755859375</AltitudeMeters>
            <DistanceMeters>NAN</DistanceMeters>
          </Trackpoint>
          <Trackpoint>
            <Time>2018-12-30T12:16:17.000Z</Time>
            <Position>
              <LatitudeDegrees>40.790399014949798583984375</LatitudeDegrees>
              <LongitudeDegrees>-4.06574129126965999603271484375</LongitudeDegrees>
            </Position>
            <AltitudeMeters>1803.5999755859375</AltitudeMeters>
            <DistanceMeters>NAN</DistanceMeters>
          </Trackpoint>
          <Trackpoint>
            <Time>2018-12-30T12:16:18.000Z</Time>
            <Position>
              <LatitudeDegrees>40.79038920812308788299560546875</LatitudeDegrees>
              <LongitudeDegrees>-4.065743386745452880859375</LongitudeDegrees>
            </Position>
            <AltitudeMeters>1803.800048828125</AltitudeMeters>
            <DistanceMeters>NAN</DistanceMeters>
          </Trackpoint>
          <Trackpoint>
            <Time>2018-12-30T12:16:19.000Z</Time>
            <Position>
              <LatitudeDegrees>40.79038149677217006683349609375</LatitudeDegrees>
              <LongitudeDegrees>-4.06574942171573638916015625</LongitudeDegrees>
            </Position>
            <AltitudeMeters>1803.800048828125</AltitudeMeters>
            <DistanceMeters>NAN</DistanceMeters>
          </Trackpoint>
          <Trackpoint>
            <Time>2018-12-30T12:16:20.000Z</Time>
            <Position>
              <LatitudeDegrees>40.79037328250706195831298828125</LatitudeDegrees>
              <LongitudeDegrees>-4.06575755216181278228759765625</LongitudeDegrees>
            </Position>
            <AltitudeMeters>1804</AltitudeMeters>
            <DistanceMeters>NAN</DistanceMeters>
          </Trackpoint>
          <Trackpoint>
            <Time>2018-12-30T12:16:21.000Z</Time>
            <Position>
              <LatitudeDegrees>40.7903623022139072418212890625</LatitudeDegrees>
              <LongitudeDegrees>-4.06576995737850666046142578125</LongitudeDegrees>
            </Position>
            <AltitudeMeters>1804</AltitudeMeters>
            <DistanceMeters>NAN</DistanceMeters>
          </Trackpoint>
          <Trackpoint>
            <Time>2018-12-30T12:16:22.000Z</Time>
            <Position>
              <LatitudeDegrees>40.79035031609237194061279296875</LatitudeDegrees>
              <LongitudeDegrees>-4.065781943500041961669921875</LongitudeDegrees>
            </Position>
            <AltitudeMeters>1804.199951171875</AltitudeMeters>
            <DistanceMeters>NAN</DistanceMeters>
          </Trackpoint>
          <Trackpoint>
            <Time>2018-12-30T12:16:23.000Z</Time>
            <Position>
              <LatitudeDegrees>40.7903384976089000701904296875</LatitudeDegrees>
              <LongitudeDegrees>-4.06579342670738697052001953125</LongitudeDegrees>
            </Position>
            <AltitudeMeters>1804.4000244140625</AltitudeMeters>
            <DistanceMeters>NAN</DistanceMeters>
          </Trackpoint>
          <Trackpoint>
            <Time>2018-12-30T12:16:24.000Z</Time>
            <Position>
              <LatitudeDegrees>40.79032684676349163055419921875</LatitudeDegrees>
              <LongitudeDegrees>-4.06580449081957340240478515625</LongitudeDegrees>
            </Position>
            <AltitudeMeters>1804.4000244140625</AltitudeMeters>
            <DistanceMeters>NAN</DistanceMeters>
          </Trackpoint>
          <Trackpoint>
            <Time>2018-12-30T12:16:25.000Z</Time>
            <Position>
              <LatitudeDegrees>40.79031595028936862945556640625</LatitudeDegrees>
              <LongitudeDegrees>-4.0658142976462841033935546875</LongitudeDegrees>
            </Position>
            <AltitudeMeters>1804.4000244140625</AltitudeMeters>
            <DistanceMeters>NAN</DistanceMeters>
          </Trackpoint>
          <Trackpoint>
            <Time>2018-12-30T12:16:26.000Z</Time>
            <Position>
              <LatitudeDegrees>40.790306143462657928466796875</LatitudeDegrees>
              <LongitudeDegrees>-4.06582108698785305023193359375</LongitudeDegrees>
            </Position>
            <AltitudeMeters>1804.4000244140625</AltitudeMeters>
            <DistanceMeters>NAN</DistanceMeters>
          </Trackpoint>
          <Trackpoint>
            <Time>2018-12-30T12:16:27.000Z</Time>
            <Position>
              <LatitudeDegrees>40.790295414626598358154296875</LatitudeDegrees>
              <LongitudeDegrees>-4.06582863070070743560791015625</LongitudeDegrees>
            </Position>
            <AltitudeMeters>1804.5999755859375</AltitudeMeters>
            <DistanceMeters>NAN</DistanceMeters>
          </Trackpoint>
          <Trackpoint>
            <Time>2018-12-30T12:16:28.000Z</Time>
            <Position>
              <LatitudeDegrees>40.79027672298252582550048828125</LatitudeDegrees>
              <LongitudeDegrees>-4.0658290497958660125732421875</LongitudeDegrees>
            </Position>
            <AltitudeMeters>1804.5999755859375</AltitudeMeters>
            <DistanceMeters>NAN</DistanceMeters>
          </Trackpoint>
          <Trackpoint>
            <Time>2018-12-30T12:16:29.000Z</Time>
            <Position>
              <LatitudeDegrees>40.7902603782713413238525390625</LatitudeDegrees>
              <LongitudeDegrees>-4.06583315692842006683349609375</LongitudeDegrees>
            </Position>
            <AltitudeMeters>1804.5999755859375</AltitudeMeters>
            <DistanceMeters>NAN</DistanceMeters>
          </Trackpoint>
          <Trackpoint>
            <Time>2018-12-30T12:16:30.000Z</Time>
            <Position>
              <LatitudeDegrees>40.7902447879314422607421875</LatitudeDegrees>
              <LongitudeDegrees>-4.0658401139080524444580078125</LongitudeDegrees>
            </Position>
            <AltitudeMeters>1804.5999755859375</AltitudeMeters>
            <DistanceMeters>NAN</DistanceMeters>
          </Trackpoint>
          <Trackpoint>
            <Time>2018-12-30T12:16:31.000Z</Time>
            <Position>
              <LatitudeDegrees>40.79023229889571666717529296875</LatitudeDegrees>
              <LongitudeDegrees>-4.0658491663634777069091796875</LongitudeDegrees>
            </Position>
            <AltitudeMeters>1804.5999755859375</AltitudeMeters>
            <DistanceMeters>NAN</DistanceMeters>
          </Trackpoint>
          <Trackpoint>
            <Time>2018-12-30T12:16:32.000Z</Time>
            <Position>
              <LatitudeDegrees>40.7902171276509761810302734375</LatitudeDegrees>
              <LongitudeDegrees>-4.0658565424382686614990234375</LongitudeDegrees>
            </Position>
            <AltitudeMeters>1804.800048828125</AltitudeMeters>
            <DistanceMeters>NAN</DistanceMeters>
          </Trackpoint>
          <Trackpoint>
            <Time>2018-12-30T12:16:33.000Z</Time>
            <Position>
              <LatitudeDegrees>40.79020514152944087982177734375</LatitudeDegrees>
              <LongitudeDegrees>-4.0658639185130596160888671875</LongitudeDegrees>
            </Position>
            <AltitudeMeters>1804.800048828125</AltitudeMeters>
            <DistanceMeters>NAN</DistanceMeters>
          </Trackpoint>
          <Trackpoint>
            <Time>2018-12-30T12:16:34.000Z</Time>
            <Position>
              <LatitudeDegrees>40.790192820131778717041015625</LatitudeDegrees>
              <LongitudeDegrees>-4.06587188132107257843017578125</LongitudeDegrees>
            </Position>
            <AltitudeMeters>1805</AltitudeMeters>
            <DistanceMeters>NAN</DistanceMeters>
          </Trackpoint>
          <Trackpoint>
            <Time>2018-12-30T12:16:35.000Z</Time>
            <Position>
              <LatitudeDegrees>40.79018242657184600830078125</LatitudeDegrees>
              <LongitudeDegrees>-4.0658820234239101409912109375</LongitudeDegrees>
            </Position>
            <AltitudeMeters>1805</AltitudeMeters>
            <DistanceMeters>NAN</DistanceMeters>
          </Trackpoint>
          <Trackpoint>
            <Time>2018-12-30T12:16:36.000Z</Time>
            <Position>
              <LatitudeDegrees>40.79017261974513530731201171875</LatitudeDegrees>
              <LongitudeDegrees>-4.06589082442224025726318359375</LongitudeDegrees>
            </Position>
            <AltitudeMeters>1805</AltitudeMeters>
            <DistanceMeters>NAN</DistanceMeters>
          </Trackpoint>
          <Trackpoint>
            <Time>2018-12-30T12:16:37.000Z</Time>
            <Position>
              <LatitudeDegrees>40.79016306437551975250244140625</LatitudeDegrees>
              <LongitudeDegrees>-4.0659002959728240966796875</LongitudeDegrees>
            </Position>
            <AltitudeMeters>1805</AltitudeMeters>
            <DistanceMeters>NAN</DistanceMeters>
          </Trackpoint>
          <Trackpoint>
            <Time>2018-12-30T12:16:38.000Z</Time>
            <Position>
              <LatitudeDegrees>40.79015116207301616668701171875</LatitudeDegrees>
              <LongitudeDegrees>-4.06591362319886684417724609375</LongitudeDegrees>
            </Position>
            <AltitudeMeters>1805.199951171875</AltitudeMeters>
            <DistanceMeters>NAN</DistanceMeters>
          </Trackpoint>
          <Trackpoint>
            <Time>2018-12-30T12:16:39.000Z</Time>
            <Position>
              <LatitudeDegrees>40.79014143906533718109130859375</LatitudeDegrees>
              <LongitudeDegrees>-4.06592636369168758392333984375</LongitudeDegrees>
            </Position>
            <AltitudeMeters>1805.199951171875</AltitudeMeters>
            <DistanceMeters>NAN</DistanceMeters>
          </Trackpoint>
          <Trackpoint>
            <Time>2018-12-30T12:16:40.000Z</Time>
            <Position>
              <LatitudeDegrees>40.790130794048309326171875</LatitudeDegrees>
              <LongitudeDegrees>-4.0659390203654766082763671875</LongitudeDegrees>
            </Position>
            <AltitudeMeters>1805.4000244140625</AltitudeMeters>
            <DistanceMeters>NAN</DistanceMeters>
          </Trackpoint>
          <Trackpoint>
            <Time>2018-12-30T12:16:41.000Z</Time>
            <Position>
              <LatitudeDegrees>40.79011746682226657867431640625</LatitudeDegrees>
              <LongitudeDegrees>-4.065951593220233917236328125</LongitudeDegrees>
            </Position>
            <AltitudeMeters>1805.5999755859375</AltitudeMeters>
            <DistanceMeters>NAN</DistanceMeters>
          </Trackpoint>
          <Trackpoint>
            <Time>2018-12-30T12:16:42.000Z</Time>
            <Position>
              <LatitudeDegrees>40.790098272264003753662109375</LatitudeDegrees>
              <LongitudeDegrees>-4.065956957638263702392578125</LongitudeDegrees>
            </Position>
            <AltitudeMeters>1805.5999755859375</AltitudeMeters>
            <DistanceMeters>NAN</DistanceMeters>
          </Trackpoint>
          <Trackpoint>
            <Time>2018-12-30T12:16:43.000Z</Time>
            <Position>
              <LatitudeDegrees>40.79008175991475582122802734375</LatitudeDegrees>
              <LongitudeDegrees>-4.06596357934176921844482421875</LongitudeDegrees>
            </Position>
            <AltitudeMeters>1805.800048828125</AltitudeMeters>
            <DistanceMeters>NAN</DistanceMeters>
          </Trackpoint>
          <Trackpoint>
            <Time>2018-12-30T12:16:44.000Z</Time>
            <Position>
              <LatitudeDegrees>40.79006650485098361968994140625</LatitudeDegrees>
              <LongitudeDegrees>-4.06597137451171875</LongitudeDegrees>
            </Position>
            <AltitudeMeters>1806</AltitudeMeters>
            <DistanceMeters>NAN</DistanceMeters>
          </Trackpoint>
          <Trackpoint>
            <Time>2018-12-30T12:16:45.000Z</Time>
            <Position>
              <LatitudeDegrees>40.79005661420524120330810546875</LatitudeDegrees>
              <LongitudeDegrees>-4.06598453409969806671142578125</LongitudeDegrees>
            </Position>
            <AltitudeMeters>1806</AltitudeMeters>
            <DistanceMeters>NAN</DistanceMeters>
          </Trackpoint>
          <Trackpoint>
            <Time>2018-12-30T12:16:46.000Z</Time>
            <Position>
              <LatitudeDegrees>40.790043286979198455810546875</LatitudeDegrees>
              <LongitudeDegrees>-4.0659970231354236602783203125</LongitudeDegrees>
            </Position>
            <AltitudeMeters>1806</AltitudeMeters>
            <DistanceMeters>NAN</DistanceMeters>
          </Trackpoint>
          <Trackpoint>
            <Time>2018-12-30T12:16:47.000Z</Time>
            <Position>
              <LatitudeDegrees>40.7900300435721874237060546875</LatitudeDegrees>
              <LongitudeDegrees>-4.0660094283521175384521484375</LongitudeDegrees>
            </Position>
            <AltitudeMeters>1806</AltitudeMeters>
            <DistanceMeters>NAN</DistanceMeters>
          </Trackpoint>
          <Trackpoint>
            <Time>2018-12-30T12:16:48.000Z</Time>
            <Position>
              <LatitudeDegrees>40.7900168001651763916015625</LatitudeDegrees>
              <LongitudeDegrees>-4.066019318997859954833984375</LongitudeDegrees>
            </Position>
            <AltitudeMeters>1806.199951171875</AltitudeMeters>
            <DistanceMeters>NAN</DistanceMeters>
          </Trackpoint>
          <Trackpoint>
            <Time>2018-12-30T12:16:49.000Z</Time>
            <Position>
              <LatitudeDegrees>40.79000833444297313690185546875</LatitudeDegrees>
              <LongitudeDegrees>-4.0660268627107143402099609375</LongitudeDegrees>
            </Position>
            <AltitudeMeters>1806.199951171875</AltitudeMeters>
            <DistanceMeters>NAN</DistanceMeters>
          </Trackpoint>
          <Trackpoint>
            <Time>2018-12-30T12:16:50.000Z</Time>
            <Position>
              <LatitudeDegrees>40.790002048015594482421875</LatitudeDegrees>
              <LongitudeDegrees>-4.0660382620990276336669921875</LongitudeDegrees>
            </Position>
            <AltitudeMeters>1806.199951171875</AltitudeMeters>
            <DistanceMeters>NAN</DistanceMeters>
          </Trackpoint>
          <Trackpoint>
            <Time>2018-12-30T12:16:51.000Z</Time>
            <Position>
              <LatitudeDegrees>40.789997018873691558837890625</LatitudeDegrees>
              <LongitudeDegrees>-4.06604287214577198028564453125</LongitudeDegrees>
            </Position>
            <AltitudeMeters>1806.199951171875</AltitudeMeters>
            <DistanceMeters>NAN</DistanceMeters>
          </Trackpoint>
          <Trackpoint>
            <Time>2018-12-30T12:16:52.000Z</Time>
            <Position>
              <LatitudeDegrees>40.7899971865117549896240234375</LatitudeDegrees>
              <LongitudeDegrees>-4.06604488380253314971923828125</LongitudeDegrees>
            </Position>
            <AltitudeMeters>1806.4000244140625</AltitudeMeters>
            <DistanceMeters>NAN</DistanceMeters>
          </Trackpoint>
          <Trackpoint>
            <Time>2018-12-30T12:16:53.000Z</Time>
            <Position>
              <LatitudeDegrees>40.78999735414981842041015625</LatitudeDegrees>
              <LongitudeDegrees>-4.06604639254510402679443359375</LongitudeDegrees>
            </Position>
            <AltitudeMeters>1806.4000244140625</AltitudeMeters>
            <DistanceMeters>NAN</DistanceMeters>
          </Trackpoint>
          <Trackpoint>
            <Time>2018-12-30T12:16:54.000Z</Time>
            <Position>
              <LatitudeDegrees>40.78999869525432586669921875</LatitudeDegrees>
              <LongitudeDegrees>-4.06604723073542118072509765625</LongitudeDegrees>
            </Position>
            <AltitudeMeters>1806.4000244140625</AltitudeMeters>
            <DistanceMeters>NAN</DistanceMeters>
          </Trackpoint>
          <Trackpoint>
            <Time>2018-12-30T12:16:55.000Z</Time>
            <Position>
              <LatitudeDegrees>40.7900002039968967437744140625</LatitudeDegrees>
              <LongitudeDegrees>-4.0660499967634677886962890625</LongitudeDegrees>
            </Position>
            <AltitudeMeters>1806.4000244140625</AltitudeMeters>
            <DistanceMeters>NAN</DistanceMeters>
          </Trackpoint>
          <Trackpoint>
            <Time>2018-12-30T12:16:56.000Z</Time>
            <Position>
              <LatitudeDegrees>40.79000028781592845916748046875</LatitudeDegrees>
              <LongitudeDegrees>-4.066052846610546112060546875</LongitudeDegrees>
            </Position>
            <AltitudeMeters>1806.4000244140625</AltitudeMeters>
            <DistanceMeters>NAN</DistanceMeters>
          </Trackpoint>
          <Trackpoint>
            <Time>2018-12-30T12:16:57.000Z</Time>
            <Position>
              <LatitudeDegrees>40.789999701082706451416015625</LatitudeDegrees>
              <LongitudeDegrees>-4.06605192460119724273681640625</LongitudeDegrees>
            </Position>
            <AltitudeMeters>1806.4000244140625</AltitudeMeters>
            <DistanceMeters>NAN</DistanceMeters>
          </Trackpoint>
          <Trackpoint>
            <Time>2018-12-30T12:16:58.000Z</Time>
            <Position>
              <LatitudeDegrees>40.78999894671142101287841796875</LatitudeDegrees>
              <LongitudeDegrees>-4.06605075113475322723388671875</LongitudeDegrees>
            </Position>
            <AltitudeMeters>1806.4000244140625</AltitudeMeters>
            <DistanceMeters>NAN</DistanceMeters>
          </Trackpoint>
          <Trackpoint>
            <Time>2018-12-30T12:16:59.000Z</Time>
            <Position>
              <LatitudeDegrees>40.7899975217878818511962890625</LatitudeDegrees>
              <LongitudeDegrees>-4.0660479851067066192626953125</LongitudeDegrees>
            </Position>
            <AltitudeMeters>1806.4000244140625</AltitudeMeters>
            <DistanceMeters>NAN</DistanceMeters>
          </Trackpoint>
          <Trackpoint>
            <Time>2018-12-30T12:17:00.000Z</Time>
            <Position>
              <LatitudeDegrees>40.7899961806833744049072265625</LatitudeDegrees>
              <LongitudeDegrees>-4.06604538671672344207763671875</LongitudeDegrees>
            </Position>
            <AltitudeMeters>1806.5999755859375</AltitudeMeters>
            <DistanceMeters>NAN</DistanceMeters>
          </Trackpoint>
          <Trackpoint>
            <Time>2018-12-30T12:17:01.000Z</Time>
            <Position>
              <LatitudeDegrees>40.7899953424930572509765625</LatitudeDegrees>
              <LongitudeDegrees>-4.06604438088834285736083984375</LongitudeDegrees>
            </Position>
            <AltitudeMeters>1806.5999755859375</AltitudeMeters>
            <DistanceMeters>NAN</DistanceMeters>
          </Trackpoint>
          <Trackpoint>
            <Time>2018-12-30T12:17:02.000Z</Time>
            <Position>
              <LatitudeDegrees>40.78999626450240612030029296875</LatitudeDegrees>
              <LongitudeDegrees>-4.06604337505996227264404296875</LongitudeDegrees>
            </Position>
            <AltitudeMeters>1806.800048828125</AltitudeMeters>
            <DistanceMeters>NAN</DistanceMeters>
          </Trackpoint>
          <Trackpoint>
            <Time>2018-12-30T12:17:03.000Z</Time>
            <Position>
              <LatitudeDegrees>40.78999073244631290435791015625</LatitudeDegrees>
              <LongitudeDegrees>-4.0660513378679752349853515625</LongitudeDegrees>
            </Position>
            <AltitudeMeters>1806.800048828125</AltitudeMeters>
            <DistanceMeters>NAN</DistanceMeters>
          </Trackpoint>
          <Trackpoint>
            <Time>2018-12-30T12:17:04.000Z</Time>
            <Position>
              <LatitudeDegrees>40.78999173827469348907470703125</LatitudeDegrees>
              <LongitudeDegrees>-4.06605360098183155059814453125</LongitudeDegrees>
            </Position>
            <AltitudeMeters>1807</AltitudeMeters>
            <DistanceMeters>NAN</DistanceMeters>
          </Trackpoint>
          <Trackpoint>
            <Time>2018-12-30T12:17:05.000Z</Time>
            <Position>
              <LatitudeDegrees>40.7899921573698520660400390625</LatitudeDegrees>
              <LongitudeDegrees>-4.06605393625795841217041015625</LongitudeDegrees>
            </Position>
            <AltitudeMeters>1807</AltitudeMeters>
            <DistanceMeters>NAN</DistanceMeters>
          </Trackpoint>
          <Trackpoint>
            <Time>2018-12-30T12:17:06.000Z</Time>
            <Position>
              <LatitudeDegrees>40.78999467194080352783203125</LatitudeDegrees>
              <LongitudeDegrees>-4.0660560317337512969970703125</LongitudeDegrees>
            </Position>
            <AltitudeMeters>1807</AltitudeMeters>
            <DistanceMeters>NAN</DistanceMeters>
          </Trackpoint>
          <Trackpoint>
            <Time>2018-12-30T12:17:07.000Z</Time>
            <Position>
              <LatitudeDegrees>40.78999592922627925872802734375</LatitudeDegrees>
              <LongitudeDegrees>-4.0660546906292438507080078125</LongitudeDegrees>
            </Position>
            <AltitudeMeters>1807</AltitudeMeters>
            <DistanceMeters>NAN</DistanceMeters>
          </Trackpoint>
          <Trackpoint>
            <Time>2018-12-30T12:17:08.000Z</Time>
            <Position>
              <LatitudeDegrees>40.78999592922627925872802734375</LatitudeDegrees>
              <LongitudeDegrees>-4.066054187715053558349609375</LongitudeDegrees>
            </Position>
            <AltitudeMeters>1807</AltitudeMeters>
            <DistanceMeters>NAN</DistanceMeters>
          </Trackpoint>
          <Trackpoint>
            <Time>2018-12-30T12:17:09.000Z</Time>
            <Position>
              <LatitudeDegrees>40.78999659977853298187255859375</LatitudeDegrees>
              <LongitudeDegrees>-4.066054522991180419921875</LongitudeDegrees>
            </Position>
            <AltitudeMeters>1807</AltitudeMeters>
            <DistanceMeters>NAN</DistanceMeters>
          </Trackpoint>
          <Trackpoint>
            <Time>2018-12-30T12:17:10.000Z</Time>
            <Position>
              <LatitudeDegrees>40.7900015451014041900634765625</LatitudeDegrees>
              <LongitudeDegrees>-4.066049158573150634765625</LongitudeDegrees>
            </Position>
            <AltitudeMeters>1807</AltitudeMeters>
            <DistanceMeters>NAN</DistanceMeters>
          </Trackpoint>
          <Trackpoint>
            <Time>2018-12-30T12:17:11.000Z</Time>
            <Position>
              <LatitudeDegrees>40.79000548459589481353759765625</LatitudeDegrees>
              <LongitudeDegrees>-4.066060222685337066650390625</LongitudeDegrees>
            </Position>
            <AltitudeMeters>1807</AltitudeMeters>
            <DistanceMeters>NAN</DistanceMeters>
          </Trackpoint>
          <Trackpoint>
            <Time>2018-12-30T12:17:12.000Z</Time>
            <Position>
              <LatitudeDegrees>40.78999944962561130523681640625</LatitudeDegrees>
              <LongitudeDegrees>-4.0660647489130496978759765625</LongitudeDegrees>
            </Position>
            <AltitudeMeters>1807</AltitudeMeters>
            <DistanceMeters>NAN</DistanceMeters>
          </Trackpoint>
          <Trackpoint>
            <Time>2018-12-30T12:17:13.000Z</Time>
            <Position>
              <LatitudeDegrees>40.7899881340563297271728515625</LatitudeDegrees>
              <LongitudeDegrees>-4.0660727955400943756103515625</LongitudeDegrees>
            </Position>
            <AltitudeMeters>1806.800048828125</AltitudeMeters>
            <DistanceMeters>NAN</DistanceMeters>
          </Trackpoint>
          <Trackpoint>
            <Time>2018-12-30T12:17:14.000Z</Time>
            <Position>
              <LatitudeDegrees>40.789976902306079864501953125</LatitudeDegrees>
              <LongitudeDegrees>-4.06607639975845813751220703125</LongitudeDegrees>
            </Position>
            <AltitudeMeters>1806.800048828125</AltitudeMeters>
            <DistanceMeters>NAN</DistanceMeters>
          </Trackpoint>
          <Trackpoint>
            <Time>2018-12-30T12:17:15.000Z</Time>
            <Position>
              <LatitudeDegrees>40.7899666763842105865478515625</LatitudeDegrees>
              <LongitudeDegrees>-4.06608696095645427703857421875</LongitudeDegrees>
            </Position>
            <AltitudeMeters>1806.5999755859375</AltitudeMeters>
            <DistanceMeters>NAN</DistanceMeters>
          </Trackpoint>
          <Trackpoint>
            <Time>2018-12-30T12:17:16.000Z</Time>
            <Position>
              <LatitudeDegrees>40.78996038995683193206787109375</LatitudeDegrees>
              <LongitudeDegrees>-4.06609701924026012420654296875</LongitudeDegrees>
            </Position>
            <AltitudeMeters>1806.199951171875</AltitudeMeters>
            <DistanceMeters>NAN</DistanceMeters>
          </Trackpoint>
          <Trackpoint>
            <Time>2018-12-30T12:17:17.000Z</Time>
            <Position>
              <LatitudeDegrees>40.78994815237820148468017578125</LatitudeDegrees>
              <LongitudeDegrees>-4.06610422767698764801025390625</LongitudeDegrees>
            </Position>
            <AltitudeMeters>1806.199951171875</AltitudeMeters>
            <DistanceMeters>NAN</DistanceMeters>
          </Trackpoint>
          <Trackpoint>
            <Time>2018-12-30T12:17:18.000Z</Time>
            <Position>
              <LatitudeDegrees>40.78994429670274257659912109375</LatitudeDegrees>
              <LongitudeDegrees>-4.06612149439752101898193359375</LongitudeDegrees>
            </Position>
            <AltitudeMeters>1806</AltitudeMeters>
            <DistanceMeters>NAN</DistanceMeters>
          </Trackpoint>
          <Trackpoint>
            <Time>2018-12-30T12:17:19.000Z</Time>
            <Position>
              <LatitudeDegrees>40.78994010575115680694580078125</LatitudeDegrees>
              <LongitudeDegrees>-4.06613205559551715850830078125</LongitudeDegrees>
            </Position>
            <AltitudeMeters>1806</AltitudeMeters>
            <DistanceMeters>NAN</DistanceMeters>
          </Trackpoint>
          <Trackpoint>
            <Time>2018-12-30T12:17:20.000Z</Time>
            <Position>
              <LatitudeDegrees>40.7899328134953975677490234375</LatitudeDegrees>
              <LongitudeDegrees>-4.06614311970770359039306640625</LongitudeDegrees>
            </Position>
            <AltitudeMeters>1806</AltitudeMeters>
            <DistanceMeters>NAN</DistanceMeters>
          </Trackpoint>
          <Trackpoint>
            <Time>2018-12-30T12:17:21.000Z</Time>
            <Position>
              <LatitudeDegrees>40.7899200730025768280029296875</LatitudeDegrees>
              <LongitudeDegrees>-4.0661519207060337066650390625</LongitudeDegrees>
            </Position>
            <AltitudeMeters>1806.199951171875</AltitudeMeters>
            <DistanceMeters>NAN</DistanceMeters>
          </Trackpoint>
          <Trackpoint>
            <Time>2018-12-30T12:17:22.000Z</Time>
            <Position>
              <LatitudeDegrees>40.78990775160491466522216796875</LatitudeDegrees>
              <LongitudeDegrees>-4.066161476075649261474609375</LongitudeDegrees>
            </Position>
            <AltitudeMeters>1806.199951171875</AltitudeMeters>
            <DistanceMeters>NAN</DistanceMeters>
          </Trackpoint>
          <Trackpoint>
            <Time>2018-12-30T12:17:23.000Z</Time>
            <Position>
              <LatitudeDegrees>40.789896436035633087158203125</LatitudeDegrees>
              <LongitudeDegrees>-4.06617061235010623931884765625</LongitudeDegrees>
            </Position>
            <AltitudeMeters>1806.4000244140625</AltitudeMeters>
            <DistanceMeters>NAN</DistanceMeters>
          </Trackpoint>
          <Trackpoint>
            <Time>2018-12-30T12:17:24.000Z</Time>
            <Position>
              <LatitudeDegrees>40.789887048304080963134765625</LatitudeDegrees>
              <LongitudeDegrees>-4.06618033535778522491455078125</LongitudeDegrees>
            </Position>
            <AltitudeMeters>1806.4000244140625</AltitudeMeters>
            <DistanceMeters>NAN</DistanceMeters>
          </Trackpoint>
          <Trackpoint>
            <Time>2018-12-30T12:17:25.000Z</Time>
            <Position>
              <LatitudeDegrees>40.789874978363513946533203125</LatitudeDegrees>
              <LongitudeDegrees>-4.0661901421844959259033203125</LongitudeDegrees>
            </Position>
            <AltitudeMeters>1806.4000244140625</AltitudeMeters>
            <DistanceMeters>NAN</DistanceMeters>
          </Trackpoint>
          <Trackpoint>
            <Time>2018-12-30T12:17:26.000Z</Time>
            <Position>
              <LatitudeDegrees>40.7898654229938983917236328125</LatitudeDegrees>
              <LongitudeDegrees>-4.066199362277984619140625</LongitudeDegrees>
            </Position>
            <AltitudeMeters>1806.4000244140625</AltitudeMeters>
            <DistanceMeters>NAN</DistanceMeters>
          </Trackpoint>
          <Trackpoint>
            <Time>2018-12-30T12:17:27.000Z</Time>
            <Position>
              <LatitudeDegrees>40.78985176049172878265380859375</LatitudeDegrees>
              <LongitudeDegrees>-4.0662059001624584197998046875</LongitudeDegrees>
            </Position>
            <AltitudeMeters>1806.199951171875</AltitudeMeters>
            <DistanceMeters>NAN</DistanceMeters>
          </Trackpoint>
          <Trackpoint>
            <Time>2018-12-30T12:17:28.000Z</Time>
            <Position>
              <LatitudeDegrees>40.78984036110341548919677734375</LatitudeDegrees>
              <LongitudeDegrees>-4.0662141144275665283203125</LongitudeDegrees>
            </Position>
            <AltitudeMeters>1806.199951171875</AltitudeMeters>
            <DistanceMeters>NAN</DistanceMeters>
          </Trackpoint>
          <Trackpoint>
            <Time>2018-12-30T12:17:29.000Z</Time>
            <Position>
              <LatitudeDegrees>40.7898290455341339111328125</LatitudeDegrees>
              <LongitudeDegrees>-4.066223166882991790771484375</LongitudeDegrees>
            </Position>
            <AltitudeMeters>1806</AltitudeMeters>
            <DistanceMeters>NAN</DistanceMeters>
          </Trackpoint>
          <Trackpoint>
            <Time>2018-12-30T12:17:30.000Z</Time>
            <Position>
              <LatitudeDegrees>40.78982091508805751800537109375</LatitudeDegrees>
              <LongitudeDegrees>-4.06623196788132190704345703125</LongitudeDegrees>
            </Position>
            <AltitudeMeters>1805.800048828125</AltitudeMeters>
            <DistanceMeters>NAN</DistanceMeters>
          </Trackpoint>
          <Trackpoint>
            <Time>2018-12-30T12:17:31.000Z</Time>
            <Position>
              <LatitudeDegrees>40.78981286846101284027099609375</LatitudeDegrees>
              <LongitudeDegrees>-4.06624185852706432342529296875</LongitudeDegrees>
            </Position>
            <AltitudeMeters>1805.800048828125</AltitudeMeters>
            <DistanceMeters>NAN</DistanceMeters>
          </Trackpoint>
          <Trackpoint>
            <Time>2018-12-30T12:17:32.000Z</Time>
            <Position>
              <LatitudeDegrees>40.78980230726301670074462890625</LatitudeDegrees>
              <LongitudeDegrees>-4.06625275500118732452392578125</LongitudeDegrees>
            </Position>
            <AltitudeMeters>1805.5999755859375</AltitudeMeters>
            <DistanceMeters>NAN</DistanceMeters>
          </Trackpoint>
          <Trackpoint>
            <Time>2018-12-30T12:17:33.000Z</Time>
            <Position>
              <LatitudeDegrees>40.7897943444550037384033203125</LatitudeDegrees>
              <LongitudeDegrees>-4.06626532785594463348388671875</LongitudeDegrees>
            </Position>
            <AltitudeMeters>1805.5999755859375</AltitudeMeters>
            <DistanceMeters>NAN</DistanceMeters>
          </Trackpoint>
          <Trackpoint>
            <Time>2018-12-30T12:17:34.000Z</Time>
            <Position>
              <LatitudeDegrees>40.7897869683802127838134765625</LatitudeDegrees>
              <LongitudeDegrees>-4.06627513468265533447265625</LongitudeDegrees>
            </Position>
            <AltitudeMeters>1805.4000244140625</AltitudeMeters>
            <DistanceMeters>NAN</DistanceMeters>
          </Trackpoint>
          <Trackpoint>
            <Time>2018-12-30T12:17:35.000Z</Time>
            <Position>
              <LatitudeDegrees>40.78977950848639011383056640625</LatitudeDegrees>
              <LongitudeDegrees>-4.0662833489477634429931640625</LongitudeDegrees>
            </Position>
            <AltitudeMeters>1805.4000244140625</AltitudeMeters>
            <DistanceMeters>NAN</DistanceMeters>
          </Trackpoint>
          <Trackpoint>
            <Time>2018-12-30T12:17:36.000Z</Time>
            <Position>
              <LatitudeDegrees>40.78976442106068134307861328125</LatitudeDegrees>
              <LongitudeDegrees>-4.06628913246095180511474609375</LongitudeDegrees>
            </Position>
            <AltitudeMeters>1805.4000244140625</AltitudeMeters>
            <DistanceMeters>NAN</DistanceMeters>
          </Trackpoint>
          <Trackpoint>
            <Time>2018-12-30T12:17:37.000Z</Time>
            <Position>
              <LatitudeDegrees>40.78975101001560688018798828125</LatitudeDegrees>
              <LongitudeDegrees>-4.06629567034542560577392578125</LongitudeDegrees>
            </Position>
            <AltitudeMeters>1805.4000244140625</AltitudeMeters>
            <DistanceMeters>NAN</DistanceMeters>
          </Trackpoint>
          <Trackpoint>
            <Time>2018-12-30T12:17:38.000Z</Time>
            <Position>
              <LatitudeDegrees>40.78973575495183467864990234375</LatitudeDegrees>
              <LongitudeDegrees>-4.0663021244108676910400390625</LongitudeDegrees>
            </Position>
            <AltitudeMeters>1805.4000244140625</AltitudeMeters>
            <DistanceMeters>NAN</DistanceMeters>
          </Trackpoint>
          <Trackpoint>
            <Time>2018-12-30T12:17:39.000Z</Time>
            <Position>
              <LatitudeDegrees>40.78972435556352138519287109375</LatitudeDegrees>
              <LongitudeDegrees>-4.0663101710379123687744140625</LongitudeDegrees>
            </Position>
            <AltitudeMeters>1805.800048828125</AltitudeMeters>
            <DistanceMeters>NAN</DistanceMeters>
          </Trackpoint>
          <Trackpoint>
            <Time>2018-12-30T12:17:40.000Z</Time>
            <Position>
              <LatitudeDegrees>40.78971706330776214599609375</LatitudeDegrees>
              <LongitudeDegrees>-4.0663215704262256622314453125</LongitudeDegrees>
            </Position>
            <AltitudeMeters>1805.800048828125</AltitudeMeters>
            <DistanceMeters>NAN</DistanceMeters>
          </Trackpoint>
          <Trackpoint>
            <Time>2018-12-30T12:17:41.000Z</Time>
            <Position>
              <LatitudeDegrees>40.789707340300083160400390625</LatitudeDegrees>
              <LongitudeDegrees>-4.0663349814713001251220703125</LongitudeDegrees>
            </Position>
            <AltitudeMeters>1806</AltitudeMeters>
            <DistanceMeters>NAN</DistanceMeters>
          </Trackpoint>
          <Trackpoint>
            <Time>2018-12-30T12:17:42.000Z</Time>
            <Position>
              <LatitudeDegrees>40.7896949350833892822265625</LatitudeDegrees>
              <LongitudeDegrees>-4.06634663231670856475830078125</LongitudeDegrees>
            </Position>
            <AltitudeMeters>1806.199951171875</AltitudeMeters>
            <DistanceMeters>NAN</DistanceMeters>
          </Trackpoint>
          <Trackpoint>
            <Time>2018-12-30T12:17:43.000Z</Time>
            <Position>
              <LatitudeDegrees>40.78968278132379055023193359375</LatitudeDegrees>
              <LongitudeDegrees>-4.06635585241019725799560546875</LongitudeDegrees>
            </Position>
            <AltitudeMeters>1806.199951171875</AltitudeMeters>
            <DistanceMeters>NAN</DistanceMeters>
          </Trackpoint>
          <Trackpoint>
            <Time>2018-12-30T12:17:44.000Z</Time>
            <Position>
              <LatitudeDegrees>40.78967171721160411834716796875</LatitudeDegrees>
              <LongitudeDegrees>-4.0663664974272251129150390625</LongitudeDegrees>
            </Position>
            <AltitudeMeters>1806.5999755859375</AltitudeMeters>
            <DistanceMeters>NAN</DistanceMeters>
          </Trackpoint>
          <Trackpoint>
            <Time>2018-12-30T12:17:45.000Z</Time>
            <Position>
              <LatitudeDegrees>40.78966207802295684814453125</LatitudeDegrees>
              <LongitudeDegrees>-4.0663785673677921295166015625</LongitudeDegrees>
            </Position>
            <AltitudeMeters>1806.800048828125</AltitudeMeters>
            <DistanceMeters>NAN</DistanceMeters>
          </Trackpoint>
          <Trackpoint>
            <Time>2018-12-30T12:17:46.000Z</Time>
            <Position>
              <LatitudeDegrees>40.789653360843658447265625</LatitudeDegrees>
              <LongitudeDegrees>-4.06639105640351772308349609375</LongitudeDegrees>
            </Position>
            <AltitudeMeters>1807</AltitudeMeters>
            <DistanceMeters>NAN</DistanceMeters>
          </Trackpoint>
          <Trackpoint>
            <Time>2018-12-30T12:17:47.000Z</Time>
            <Position>
              <LatitudeDegrees>40.78964305110275745391845703125</LatitudeDegrees>
              <LongitudeDegrees>-4.06640329398214817047119140625</LongitudeDegrees>
            </Position>
            <AltitudeMeters>1807</AltitudeMeters>
            <DistanceMeters>NAN</DistanceMeters>
          </Trackpoint>
          <Trackpoint>
            <Time>2018-12-30T12:17:48.000Z</Time>
            <Position>
              <LatitudeDegrees>40.78963299281895160675048828125</LatitudeDegrees>
              <LongitudeDegrees>-4.0664167888462543487548828125</LongitudeDegrees>
            </Position>
            <AltitudeMeters>1807.199951171875</AltitudeMeters>
            <DistanceMeters>NAN</DistanceMeters>
          </Trackpoint>
          <Trackpoint>
            <Time>2018-12-30T12:17:49.000Z</Time>
            <Position>
              <LatitudeDegrees>40.78962318599224090576171875</LatitudeDegrees>
              <LongitudeDegrees>-4.06642927788197994232177734375</LongitudeDegrees>
            </Position>
            <AltitudeMeters>1807.199951171875</AltitudeMeters>
            <DistanceMeters>NAN</DistanceMeters>
          </Trackpoint>
          <Trackpoint>
            <Time>2018-12-30T12:17:50.000Z</Time>
            <Position>
              <LatitudeDegrees>40.7896122895181179046630859375</LatitudeDegrees>
              <LongitudeDegrees>-4.06644151546061038970947265625</LongitudeDegrees>
            </Position>
            <AltitudeMeters>1807.199951171875</AltitudeMeters>
            <DistanceMeters>NAN</DistanceMeters>
          </Trackpoint>
          <Trackpoint>
            <Time>2018-12-30T12:17:51.000Z</Time>
            <Position>
              <LatitudeDegrees>40.7896018959581851959228515625</LatitudeDegrees>
              <LongitudeDegrees>-4.06645375303924083709716796875</LongitudeDegrees>
            </Position>
            <AltitudeMeters>1807.199951171875</AltitudeMeters>
            <DistanceMeters>NAN</DistanceMeters>
          </Trackpoint>
          <Trackpoint>
            <Time>2018-12-30T12:17:52.000Z</Time>
            <Position>
              <LatitudeDegrees>40.7895921729505062103271484375</LatitudeDegrees>
              <LongitudeDegrees>-4.0664680860936641693115234375</LongitudeDegrees>
            </Position>
            <AltitudeMeters>1807.199951171875</AltitudeMeters>
            <DistanceMeters>NAN</DistanceMeters>
          </Trackpoint>
          <Trackpoint>
            <Time>2018-12-30T12:17:53.000Z</Time>
            <Position>
              <LatitudeDegrees>40.789583958685398101806640625</LatitudeDegrees>
              <LongitudeDegrees>-4.06648174859583377838134765625</LongitudeDegrees>
            </Position>
            <AltitudeMeters>1807.4000244140625</AltitudeMeters>
            <DistanceMeters>NAN</DistanceMeters>
          </Trackpoint>
          <Trackpoint>
            <Time>2018-12-30T12:17:54.000Z</Time>
            <Position>
              <LatitudeDegrees>40.78957415185868740081787109375</LatitudeDegrees>
              <LongitudeDegrees>-4.06649499200284481048583984375</LongitudeDegrees>
            </Position>
            <AltitudeMeters>1807.4000244140625</AltitudeMeters>
            <DistanceMeters>NAN</DistanceMeters>
          </Trackpoint>
          <Trackpoint>
            <Time>2018-12-30T12:17:55.000Z</Time>
            <Position>
              <LatitudeDegrees>40.78956476412713527679443359375</LatitudeDegrees>
              <LongitudeDegrees>-4.06650714576244354248046875</LongitudeDegrees>
            </Position>
            <AltitudeMeters>1807.4000244140625</AltitudeMeters>
            <DistanceMeters>NAN</DistanceMeters>
          </Trackpoint>
          <Trackpoint>
            <Time>2018-12-30T12:17:56.000Z</Time>
            <Position>
              <LatitudeDegrees>40.7895549573004245758056640625</LatitudeDegrees>
              <LongitudeDegrees>-4.0665183775126934051513671875</LongitudeDegrees>
            </Position>
            <AltitudeMeters>1807.4000244140625</AltitudeMeters>
            <DistanceMeters>NAN</DistanceMeters>
          </Trackpoint>
          <Trackpoint>
            <Time>2018-12-30T12:17:57.000Z</Time>
            <Position>
              <LatitudeDegrees>40.7895428873598575592041015625</LatitudeDegrees>
              <LongitudeDegrees>-4.06652851961553096771240234375</LongitudeDegrees>
            </Position>
            <AltitudeMeters>1807.199951171875</AltitudeMeters>
            <DistanceMeters>NAN</DistanceMeters>
          </Trackpoint>
          <Trackpoint>
            <Time>2018-12-30T12:17:58.000Z</Time>
            <Position>
              <LatitudeDegrees>40.78953106887638568878173828125</LatitudeDegrees>
              <LongitudeDegrees>-4.0665408410131931304931640625</LongitudeDegrees>
            </Position>
            <AltitudeMeters>1807</AltitudeMeters>
            <DistanceMeters>NAN</DistanceMeters>
          </Trackpoint>
          <Trackpoint>
            <Time>2018-12-30T12:17:59.000Z</Time>
            <Position>
              <LatitudeDegrees>40.78951933421194553375244140625</LatitudeDegrees>
              <LongitudeDegrees>-4.06655349768698215484619140625</LongitudeDegrees>
            </Position>
            <AltitudeMeters>1806.5999755859375</AltitudeMeters>
            <DistanceMeters>NAN</DistanceMeters>
          </Trackpoint>
          <Trackpoint>
            <Time>2018-12-30T12:18:00.000Z</Time>
            <Position>
              <LatitudeDegrees>40.78951212577521800994873046875</LatitudeDegrees>
              <LongitudeDegrees>-4.06656841747462749481201171875</LongitudeDegrees>
            </Position>
            <AltitudeMeters>1806.199951171875</AltitudeMeters>
            <DistanceMeters>NAN</DistanceMeters>
          </Trackpoint>
          <Trackpoint>
            <Time>2018-12-30T12:18:01.000Z</Time>
            <Position>
              <LatitudeDegrees>40.7895029895007610321044921875</LatitudeDegrees>
              <LongitudeDegrees>-4.066583923995494842529296875</LongitudeDegrees>
            </Position>
            <AltitudeMeters>1805.800048828125</AltitudeMeters>
            <DistanceMeters>NAN</DistanceMeters>
          </Trackpoint>
          <Trackpoint>
            <Time>2018-12-30T12:18:02.000Z</Time>
            <Position>
              <LatitudeDegrees>40.7894946075975894927978515625</LatitudeDegrees>
              <LongitudeDegrees>-4.06659808941185474395751953125</LongitudeDegrees>
            </Position>
            <AltitudeMeters>1805.4000244140625</AltitudeMeters>
            <DistanceMeters>NAN</DistanceMeters>
          </Trackpoint>
          <Trackpoint>
            <Time>2018-12-30T12:18:03.000Z</Time>
            <Position>
              <LatitudeDegrees>40.78948614187538623809814453125</LatitudeDegrees>
              <LongitudeDegrees>-4.06661082990467548370361328125</LongitudeDegrees>
            </Position>
            <AltitudeMeters>1805</AltitudeMeters>
            <DistanceMeters>NAN</DistanceMeters>
          </Trackpoint>
          <Trackpoint>
            <Time>2018-12-30T12:18:04.000Z</Time>
            <Position>
              <LatitudeDegrees>40.7894795201718807220458984375</LatitudeDegrees>
              <LongitudeDegrees>-4.06662373803555965423583984375</LongitudeDegrees>
            </Position>
            <AltitudeMeters>1804.800048828125</AltitudeMeters>
            <DistanceMeters>NAN</DistanceMeters>
          </Trackpoint>
          <Trackpoint>
            <Time>2018-12-30T12:18:05.000Z</Time>
            <Position>
              <LatitudeDegrees>40.78947289846837520599365234375</LatitudeDegrees>
              <LongitudeDegrees>-4.06663614325225353240966796875</LongitudeDegrees>
            </Position>
            <AltitudeMeters>1804.800048828125</AltitudeMeters>
            <DistanceMeters>NAN</DistanceMeters>
          </Trackpoint>
          <Trackpoint>
            <Time>2018-12-30T12:18:06.000Z</Time>
            <Position>
              <LatitudeDegrees>40.78946636058390140533447265625</LatitudeDegrees>
              <LongitudeDegrees>-4.06664821319282054901123046875</LongitudeDegrees>
            </Position>
            <AltitudeMeters>1804.5999755859375</AltitudeMeters>
            <DistanceMeters>NAN</DistanceMeters>
          </Trackpoint>
          <Trackpoint>
            <Time>2018-12-30T12:18:07.000Z</Time>
            <Position>
              <LatitudeDegrees>40.78945999033749103546142578125</LatitudeDegrees>
              <LongitudeDegrees>-4.06666195951402187347412109375</LongitudeDegrees>
            </Position>
            <AltitudeMeters>1804.5999755859375</AltitudeMeters>
            <DistanceMeters>NAN</DistanceMeters>
          </Trackpoint>
          <Trackpoint>
            <Time>2018-12-30T12:18:08.000Z</Time>
            <Position>
              <LatitudeDegrees>40.7894513569772243499755859375</LatitudeDegrees>
              <LongitudeDegrees>-4.06667436473071575164794921875</LongitudeDegrees>
            </Position>
            <AltitudeMeters>1804.5999755859375</AltitudeMeters>
            <DistanceMeters>NAN</DistanceMeters>
          </Trackpoint>
          <Trackpoint>
            <Time>2018-12-30T12:18:09.000Z</Time>
            <Position>
              <LatitudeDegrees>40.78944423235952854156494140625</LatitudeDegrees>
              <LongitudeDegrees>-4.06669012270867824554443359375</LongitudeDegrees>
            </Position>
            <AltitudeMeters>1804.5999755859375</AltitudeMeters>
            <DistanceMeters>NAN</DistanceMeters>
          </Trackpoint>
          <Trackpoint>
            <Time>2018-12-30T12:18:10.000Z</Time>
            <Position>
              <LatitudeDegrees>40.78943937085568904876708984375</LatitudeDegrees>
              <LongitudeDegrees>-4.0667064674198627471923828125</LongitudeDegrees>
            </Position>
            <AltitudeMeters>1804.4000244140625</AltitudeMeters>
            <DistanceMeters>NAN</DistanceMeters>
          </Trackpoint>
          <Trackpoint>
            <Time>2018-12-30T12:18:11.000Z</Time>
            <Position>
              <LatitudeDegrees>40.78942847438156604766845703125</LatitudeDegrees>
              <LongitudeDegrees>-4.06671962700784206390380859375</LongitudeDegrees>
            </Position>
            <AltitudeMeters>1804.4000244140625</AltitudeMeters>
            <DistanceMeters>NAN</DistanceMeters>
          </Trackpoint>
          <Trackpoint>
            <Time>2018-12-30T12:18:12.000Z</Time>
            <Position>
              <LatitudeDegrees>40.78941992484033107757568359375</LatitudeDegrees>
              <LongitudeDegrees>-4.06673370860517024993896484375</LongitudeDegrees>
            </Position>
            <AltitudeMeters>1804</AltitudeMeters>
            <DistanceMeters>NAN</DistanceMeters>
          </Trackpoint>
          <Trackpoint>
            <Time>2018-12-30T12:18:13.000Z</Time>
            <Position>
              <LatitudeDegrees>40.78941254876554012298583984375</LatitudeDegrees>
              <LongitudeDegrees>-4.06674980185925960540771484375</LongitudeDegrees>
            </Position>
            <AltitudeMeters>1804</AltitudeMeters>
            <DistanceMeters>NAN</DistanceMeters>
          </Trackpoint>
          <Trackpoint>
            <Time>2018-12-30T12:18:14.000Z</Time>
            <Position>
              <LatitudeDegrees>40.789407603442668914794921875</LatitudeDegrees>
              <LongitudeDegrees>-4.06676555983722209930419921875</LongitudeDegrees>
            </Position>
            <AltitudeMeters>1803.800048828125</AltitudeMeters>
            <DistanceMeters>NAN</DistanceMeters>
          </Trackpoint>
          <Trackpoint>
            <Time>2018-12-30T12:18:15.000Z</Time>
            <Position>
              <LatitudeDegrees>40.7894047535955905914306640625</LatitudeDegrees>
              <LongitudeDegrees>-4.066781066358089447021484375</LongitudeDegrees>
            </Position>
            <AltitudeMeters>1803.5999755859375</AltitudeMeters>
            <DistanceMeters>NAN</DistanceMeters>
          </Trackpoint>
          <Trackpoint>
            <Time>2018-12-30T12:18:16.000Z</Time>
            <Position>
              <LatitudeDegrees>40.7894020713865756988525390625</LatitudeDegrees>
              <LongitudeDegrees>-4.06679816544055938720703125</LongitudeDegrees>
            </Position>
            <AltitudeMeters>1803.5999755859375</AltitudeMeters>
            <DistanceMeters>NAN</DistanceMeters>
          </Trackpoint>
          <Trackpoint>
            <Time>2018-12-30T12:18:17.000Z</Time>
            <Position>
              <LatitudeDegrees>40.7893998920917510986328125</LatitudeDegrees>
              <LongitudeDegrees>-4.0668161027133464813232421875</LongitudeDegrees>
            </Position>
            <AltitudeMeters>1803.5999755859375</AltitudeMeters>
            <DistanceMeters>NAN</DistanceMeters>
          </Trackpoint>
          <Trackpoint>
            <Time>2018-12-30T12:18:18.000Z</Time>
            <Position>
              <LatitudeDegrees>40.78939394094049930572509765625</LatitudeDegrees>
              <LongitudeDegrees>-4.0668318606913089752197265625</LongitudeDegrees>
            </Position>
            <AltitudeMeters>1803.5999755859375</AltitudeMeters>
            <DistanceMeters>NAN</DistanceMeters>
          </Trackpoint>
          <Trackpoint>
            <Time>2018-12-30T12:18:19.000Z</Time>
            <Position>
              <LatitudeDegrees>40.789393521845340728759765625</LatitudeDegrees>
              <LongitudeDegrees>-4.0668496303260326385498046875</LongitudeDegrees>
            </Position>
            <AltitudeMeters>1803.5999755859375</AltitudeMeters>
            <DistanceMeters>NAN</DistanceMeters>
          </Trackpoint>
          <Trackpoint>
            <Time>2018-12-30T12:18:20.000Z</Time>
            <Position>
              <LatitudeDegrees>40.7893936894834041595458984375</LatitudeDegrees>
              <LongitudeDegrees>-4.0668684057891368865966796875</LongitudeDegrees>
            </Position>
            <AltitudeMeters>1803.5999755859375</AltitudeMeters>
            <DistanceMeters>NAN</DistanceMeters>
          </Trackpoint>
          <Trackpoint>
            <Time>2018-12-30T12:18:21.000Z</Time>
            <Position>
              <LatitudeDegrees>40.789398886263370513916015625</LatitudeDegrees>
              <LongitudeDegrees>-4.0668908692896366119384765625</LongitudeDegrees>
            </Position>
            <AltitudeMeters>1803.5999755859375</AltitudeMeters>
            <DistanceMeters>NAN</DistanceMeters>
          </Trackpoint>
          <Trackpoint>
            <Time>2018-12-30T12:18:22.000Z</Time>
            <Position>
              <LatitudeDegrees>40.78940081410109996795654296875</LatitudeDegrees>
              <LongitudeDegrees>-4.06691207550466060638427734375</LongitudeDegrees>
            </Position>
            <AltitudeMeters>1803.4000244140625</AltitudeMeters>
            <DistanceMeters>NAN</DistanceMeters>
          </Trackpoint>
          <Trackpoint>
            <Time>2018-12-30T12:18:23.000Z</Time>
            <Position>
              <LatitudeDegrees>40.78940114937722682952880859375</LatitudeDegrees>
              <LongitudeDegrees>-4.06693101860582828521728515625</LongitudeDegrees>
            </Position>
            <AltitudeMeters>1803.4000244140625</AltitudeMeters>
            <DistanceMeters>NAN</DistanceMeters>
          </Trackpoint>
          <Trackpoint>
            <Time>2018-12-30T12:18:24.000Z</Time>
            <Position>
              <LatitudeDegrees>40.78940047882497310638427734375</LatitudeDegrees>
              <LongitudeDegrees>-4.06695079989731311798095703125</LongitudeDegrees>
            </Position>
            <AltitudeMeters>1803.4000244140625</AltitudeMeters>
            <DistanceMeters>NAN</DistanceMeters>
          </Trackpoint>
          <Trackpoint>
            <Time>2018-12-30T12:18:25.000Z</Time>
            <Position>
              <LatitudeDegrees>40.789394862949848175048828125</LatitudeDegrees>
              <LongitudeDegrees>-4.0669676475226879119873046875</LongitudeDegrees>
            </Position>
            <AltitudeMeters>1803.199951171875</AltitudeMeters>
            <DistanceMeters>NAN</DistanceMeters>
          </Trackpoint>
          <Trackpoint>
            <Time>2018-12-30T12:18:26.000Z</Time>
            <Position>
              <LatitudeDegrees>40.7893891632556915283203125</LatitudeDegrees>
              <LongitudeDegrees>-4.06698717735707759857177734375</LongitudeDegrees>
            </Position>
            <AltitudeMeters>1803.199951171875</AltitudeMeters>
            <DistanceMeters>NAN</DistanceMeters>
          </Trackpoint>
          <Trackpoint>
            <Time>2018-12-30T12:18:27.000Z</Time>
            <Position>
              <LatitudeDegrees>40.78938421793282032012939453125</LatitudeDegrees>
              <LongitudeDegrees>-4.06700964085757732391357421875</LongitudeDegrees>
            </Position>
            <AltitudeMeters>1803.199951171875</AltitudeMeters>
            <DistanceMeters>NAN</DistanceMeters>
          </Trackpoint>
          <Trackpoint>
            <Time>2018-12-30T12:18:28.000Z</Time>
            <Position>
              <LatitudeDegrees>40.78937566839158535003662109375</LatitudeDegrees>
              <LongitudeDegrees>-4.06702774576842784881591796875</LongitudeDegrees>
            </Position>
            <AltitudeMeters>1803.199951171875</AltitudeMeters>
            <DistanceMeters>NAN</DistanceMeters>
          </Trackpoint>
          <Trackpoint>
            <Time>2018-12-30T12:18:29.000Z</Time>
            <Position>
              <LatitudeDegrees>40.78936913050711154937744140625</LatitudeDegrees>
              <LongitudeDegrees>-4.06704467721283435821533203125</LongitudeDegrees>
            </Position>
            <AltitudeMeters>1803</AltitudeMeters>
            <DistanceMeters>NAN</DistanceMeters>
          </Trackpoint>
          <Trackpoint>
            <Time>2018-12-30T12:18:30.000Z</Time>
            <Position>
              <LatitudeDegrees>40.78936695121228694915771484375</LatitudeDegrees>
              <LongitudeDegrees>-4.06706261448562145233154296875</LongitudeDegrees>
            </Position>
            <AltitudeMeters>1802.800048828125</AltitudeMeters>
            <DistanceMeters>NAN</DistanceMeters>
          </Trackpoint>
          <Trackpoint>
            <Time>2018-12-30T12:18:31.000Z</Time>
            <Position>
              <LatitudeDegrees>40.78936426900327205657958984375</LatitudeDegrees>
              <LongitudeDegrees>-4.06707979738712310791015625</LongitudeDegrees>
            </Position>
            <AltitudeMeters>1802.5999755859375</AltitudeMeters>
            <DistanceMeters>NAN</DistanceMeters>
          </Trackpoint>
          <Trackpoint>
            <Time>2018-12-30T12:18:32.000Z</Time>
            <Position>
              <LatitudeDegrees>40.78936762176454067230224609375</LatitudeDegrees>
              <LongitudeDegrees>-4.067094214260578155517578125</LongitudeDegrees>
            </Position>
            <AltitudeMeters>1802.5999755859375</AltitudeMeters>
            <DistanceMeters>NAN</DistanceMeters>
          </Trackpoint>
          <Trackpoint>
            <Time>2018-12-30T12:18:33.000Z</Time>
            <Position>
              <LatitudeDegrees>40.7893658615648746490478515625</LatitudeDegrees>
              <LongitudeDegrees>-4.06710351817309856414794921875</LongitudeDegrees>
            </Position>
            <AltitudeMeters>1802.4000244140625</AltitudeMeters>
            <DistanceMeters>NAN</DistanceMeters>
          </Trackpoint>
          <Trackpoint>
            <Time>2018-12-30T12:18:34.000Z</Time>
            <Position>
              <LatitudeDegrees>40.78936007805168628692626953125</LatitudeDegrees>
              <LongitudeDegrees>-4.06710796058177947998046875</LongitudeDegrees>
            </Position>
            <AltitudeMeters>1802.4000244140625</AltitudeMeters>
            <DistanceMeters>NAN</DistanceMeters>
          </Trackpoint>
          <Trackpoint>
            <Time>2018-12-30T12:18:35.000Z</Time>
            <Position>
              <LatitudeDegrees>40.78935186378657817840576171875</LatitudeDegrees>
              <LongitudeDegrees>-4.0671111457049846649169921875</LongitudeDegrees>
            </Position>
            <AltitudeMeters>1802.199951171875</AltitudeMeters>
            <DistanceMeters>NAN</DistanceMeters>
          </Trackpoint>
          <Trackpoint>
            <Time>2018-12-30T12:18:36.000Z</Time>
            <Position>
              <LatitudeDegrees>40.78934784047305583953857421875</LatitudeDegrees>
              <LongitudeDegrees>-4.06711676158010959625244140625</LongitudeDegrees>
            </Position>
            <AltitudeMeters>1802.4000244140625</AltitudeMeters>
            <DistanceMeters>NAN</DistanceMeters>
          </Trackpoint>
          <Trackpoint>
            <Time>2018-12-30T12:18:37.000Z</Time>
            <Position>
              <LatitudeDegrees>40.78934364952147006988525390625</LatitudeDegrees>
              <LongitudeDegrees>-4.0671180188655853271484375</LongitudeDegrees>
            </Position>
            <AltitudeMeters>1802.4000244140625</AltitudeMeters>
            <DistanceMeters>NAN</DistanceMeters>
          </Trackpoint>
          <Trackpoint>
            <Time>2018-12-30T12:18:38.000Z</Time>
            <Position>
              <LatitudeDegrees>40.7893382012844085693359375</LatitudeDegrees>
              <LongitudeDegrees>-4.06711793504655361175537109375</LongitudeDegrees>
            </Position>
            <AltitudeMeters>1802.800048828125</AltitudeMeters>
            <DistanceMeters>NAN</DistanceMeters>
          </Trackpoint>
          <Trackpoint>
            <Time>2018-12-30T12:18:39.000Z</Time>
            <Position>
              <LatitudeDegrees>40.78933325596153736114501953125</LatitudeDegrees>
              <LongitudeDegrees>-4.06711625866591930389404296875</LongitudeDegrees>
            </Position>
            <AltitudeMeters>1803</AltitudeMeters>
            <DistanceMeters>NAN</DistanceMeters>
          </Trackpoint>
          <Trackpoint>
            <Time>2018-12-30T12:18:40.000Z</Time>
            <Position>
              <LatitudeDegrees>40.78932856209576129913330078125</LatitudeDegrees>
              <LongitudeDegrees>-4.0671144984662532806396484375</LongitudeDegrees>
            </Position>
            <AltitudeMeters>1803</AltitudeMeters>
            <DistanceMeters>NAN</DistanceMeters>
          </Trackpoint>
          <Trackpoint>
            <Time>2018-12-30T12:18:41.000Z</Time>
            <Position>
              <LatitudeDegrees>40.78932370059192180633544921875</LatitudeDegrees>
              <LongitudeDegrees>-4.06711307354271411895751953125</LongitudeDegrees>
            </Position>
            <AltitudeMeters>1803.199951171875</AltitudeMeters>
            <DistanceMeters>NAN</DistanceMeters>
          </Trackpoint>
          <Trackpoint>
            <Time>2018-12-30T12:18:42.000Z</Time>
            <Position>
              <LatitudeDegrees>40.789318419992923736572265625</LatitudeDegrees>
              <LongitudeDegrees>-4.067112319171428680419921875</LongitudeDegrees>
            </Position>
            <AltitudeMeters>1803.199951171875</AltitudeMeters>
            <DistanceMeters>NAN</DistanceMeters>
          </Trackpoint>
          <Trackpoint>
            <Time>2018-12-30T12:18:43.000Z</Time>
            <Position>
              <LatitudeDegrees>40.78931515105068683624267578125</LatitudeDegrees>
              <LongitudeDegrees>-4.0671124868094921112060546875</LongitudeDegrees>
            </Position>
            <AltitudeMeters>1803.199951171875</AltitudeMeters>
            <DistanceMeters>NAN</DistanceMeters>
          </Trackpoint>
          <Trackpoint>
            <Time>2018-12-30T12:18:44.000Z</Time>
            <Position>
              <LatitudeDegrees>40.78931565396487712860107421875</LatitudeDegrees>
              <LongitudeDegrees>-4.0671111457049846649169921875</LongitudeDegrees>
            </Position>
            <AltitudeMeters>1803.199951171875</AltitudeMeters>
            <DistanceMeters>NAN</DistanceMeters>
          </Trackpoint>
          <Trackpoint>
            <Time>2018-12-30T12:18:45.000Z</Time>
            <Position>
              <LatitudeDegrees>40.789311714470386505126953125</LatitudeDegrees>
              <LongitudeDegrees>-4.06711424700915813446044921875</LongitudeDegrees>
            </Position>
            <AltitudeMeters>1803.199951171875</AltitudeMeters>
            <DistanceMeters>NAN</DistanceMeters>
          </Trackpoint>
          <Trackpoint>
            <Time>2018-12-30T12:18:46.000Z</Time>
            <Position>
              <LatitudeDegrees>40.78931012190878391265869140625</LatitudeDegrees>
              <LongitudeDegrees>-4.06711474992334842681884765625</LongitudeDegrees>
            </Position>
            <AltitudeMeters>1803.199951171875</AltitudeMeters>
            <DistanceMeters>NAN</DistanceMeters>
          </Trackpoint>
          <Trackpoint>
            <Time>2018-12-30T12:18:47.000Z</Time>
            <Position>
              <LatitudeDegrees>40.789312385022640228271484375</LatitudeDegrees>
              <LongitudeDegrees>-4.0671134926378726959228515625</LongitudeDegrees>
            </Position>
            <AltitudeMeters>1803.4000244140625</AltitudeMeters>
            <DistanceMeters>NAN</DistanceMeters>
          </Trackpoint>
          <Trackpoint>
            <Time>2018-12-30T12:18:48.000Z</Time>
            <Position>
              <LatitudeDegrees>40.789314396679401397705078125</LatitudeDegrees>
              <LongitudeDegrees>-4.0671134926378726959228515625</LongitudeDegrees>
            </Position>
            <AltitudeMeters>1803.4000244140625</AltitudeMeters>
            <DistanceMeters>NAN</DistanceMeters>
          </Trackpoint>
          <Trackpoint>
            <Time>2018-12-30T12:18:49.000Z</Time>
            <Position>
              <LatitudeDegrees>40.78931582160294055938720703125</LatitudeDegrees>
              <LongitudeDegrees>-4.06711407937109470367431640625</LongitudeDegrees>
            </Position>
            <AltitudeMeters>1803.4000244140625</AltitudeMeters>
            <DistanceMeters>NAN</DistanceMeters>
          </Trackpoint>
          <Trackpoint>
            <Time>2018-12-30T12:18:50.000Z</Time>
            <Position>
              <LatitudeDegrees>40.7893172465264797210693359375</LatitudeDegrees>
              <LongitudeDegrees>-4.0671155042946338653564453125</LongitudeDegrees>
            </Position>
            <AltitudeMeters>1803.4000244140625</AltitudeMeters>
            <DistanceMeters>NAN</DistanceMeters>
          </Trackpoint>
          <Trackpoint>
            <Time>2018-12-30T12:18:51.000Z</Time>
            <Position>
              <LatitudeDegrees>40.78931875526905059814453125</LatitudeDegrees>
              <LongitudeDegrees>-4.06711542047560214996337890625</LongitudeDegrees>
            </Position>
            <AltitudeMeters>1803.4000244140625</AltitudeMeters>
            <DistanceMeters>NAN</DistanceMeters>
          </Trackpoint>
          <Trackpoint>
            <Time>2018-12-30T12:18:52.000Z</Time>
            <Position>
              <LatitudeDegrees>40.789319090545177459716796875</LatitudeDegrees>
              <LongitudeDegrees>-4.06711659394204616546630859375</LongitudeDegrees>
            </Position>
            <AltitudeMeters>1803.5999755859375</AltitudeMeters>
            <DistanceMeters>NAN</DistanceMeters>
          </Trackpoint>
          <Trackpoint>
            <Time>2018-12-30T12:18:53.000Z</Time>
            <Position>
              <LatitudeDegrees>40.78931531868875026702880859375</LatitudeDegrees>
              <LongitudeDegrees>-4.06711827032268047332763671875</LongitudeDegrees>
            </Position>
            <AltitudeMeters>1803.4000244140625</AltitudeMeters>
            <DistanceMeters>NAN</DistanceMeters>
          </Trackpoint>
          <Trackpoint>
            <Time>2018-12-30T12:18:54.000Z</Time>
            <Position>
              <LatitudeDegrees>40.78931431286036968231201171875</LatitudeDegrees>
              <LongitudeDegrees>-4.0671175159513950347900390625</LongitudeDegrees>
            </Position>
            <AltitudeMeters>1803.4000244140625</AltitudeMeters>
            <DistanceMeters>NAN</DistanceMeters>
          </Trackpoint>
          <Trackpoint>
            <Time>2018-12-30T12:18:55.000Z</Time>
            <Position>
              <LatitudeDegrees>40.7893112115561962127685546875</LatitudeDegrees>
              <LongitudeDegrees>-4.06711877323687076568603515625</LongitudeDegrees>
            </Position>
            <AltitudeMeters>1803.199951171875</AltitudeMeters>
            <DistanceMeters>NAN</DistanceMeters>
          </Trackpoint>
          <Trackpoint>
            <Time>2018-12-30T12:18:56.000Z</Time>
            <Position>
              <LatitudeDegrees>40.789311043918132781982421875</LatitudeDegrees>
              <LongitudeDegrees>-4.0671198628842830657958984375</LongitudeDegrees>
            </Position>
            <AltitudeMeters>1803</AltitudeMeters>
            <DistanceMeters>NAN</DistanceMeters>
          </Trackpoint>
          <Trackpoint>
            <Time>2018-12-30T12:18:57.000Z</Time>
            <Position>
              <LatitudeDegrees>40.78932001255452632904052734375</LatitudeDegrees>
              <LongitudeDegrees>-4.0671141631901264190673828125</LongitudeDegrees>
            </Position>
            <AltitudeMeters>1803</AltitudeMeters>
            <DistanceMeters>NAN</DistanceMeters>
          </Trackpoint>
          <Trackpoint>
            <Time>2018-12-30T12:18:58.000Z</Time>
            <Position>
              <LatitudeDegrees>40.789325796067714691162109375</LatitudeDegrees>
              <LongitudeDegrees>-4.06711190007627010345458984375</LongitudeDegrees>
            </Position>
            <AltitudeMeters>1803</AltitudeMeters>
            <DistanceMeters>NAN</DistanceMeters>
          </Trackpoint>
          <Trackpoint>
            <Time>2018-12-30T12:18:59.000Z</Time>
            <Position>
              <LatitudeDegrees>40.78932755626738071441650390625</LatitudeDegrees>
              <LongitudeDegrees>-4.06710871495306491851806640625</LongitudeDegrees>
            </Position>
            <AltitudeMeters>1803</AltitudeMeters>
            <DistanceMeters>NAN</DistanceMeters>
          </Trackpoint>
          <Trackpoint>
            <Time>2018-12-30T12:19:00.000Z</Time>
            <Position>
              <LatitudeDegrees>40.7893269695341587066650390625</LatitudeDegrees>
              <LongitudeDegrees>-4.0671084634959697723388671875</LongitudeDegrees>
            </Position>
            <AltitudeMeters>1803</AltitudeMeters>
            <DistanceMeters>NAN</DistanceMeters>
          </Trackpoint>
          <Trackpoint>
            <Time>2018-12-30T12:19:01.000Z</Time>
            <Position>
              <LatitudeDegrees>40.7893276400864124298095703125</LatitudeDegrees>
              <LongitudeDegrees>-4.06710871495306491851806640625</LongitudeDegrees>
            </Position>
            <AltitudeMeters>1803</AltitudeMeters>
            <DistanceMeters>NAN</DistanceMeters>
          </Trackpoint>
          <Trackpoint>
            <Time>2018-12-30T12:19:02.000Z</Time>
            <Position>
              <LatitudeDegrees>40.7893293164670467376708984375</LatitudeDegrees>
              <LongitudeDegrees>-4.06711525283753871917724609375</LongitudeDegrees>
            </Position>
            <AltitudeMeters>1802.800048828125</AltitudeMeters>
            <DistanceMeters>NAN</DistanceMeters>
          </Trackpoint>
          <Trackpoint>
            <Time>2018-12-30T12:19:03.000Z</Time>
            <Position>
              <LatitudeDegrees>40.7893259637057781219482421875</LatitudeDegrees>
              <LongitudeDegrees>-4.0671332739293575286865234375</LongitudeDegrees>
            </Position>
            <AltitudeMeters>1802.800048828125</AltitudeMeters>
            <DistanceMeters>NAN</DistanceMeters>
          </Trackpoint>
          <Trackpoint>
            <Time>2018-12-30T12:19:04.000Z</Time>
            <Position>
              <LatitudeDegrees>40.78932520933449268341064453125</LatitudeDegrees>
              <LongitudeDegrees>-4.0671523846685886383056640625</LongitudeDegrees>
            </Position>
            <AltitudeMeters>1802.5999755859375</AltitudeMeters>
            <DistanceMeters>NAN</DistanceMeters>
          </Trackpoint>
          <Trackpoint>
            <Time>2018-12-30T12:19:05.000Z</Time>
            <Position>
              <LatitudeDegrees>40.78932303003966808319091796875</LatitudeDegrees>
              <LongitudeDegrees>-4.06717367470264434814453125</LongitudeDegrees>
            </Position>
            <AltitudeMeters>1802.199951171875</AltitudeMeters>
            <DistanceMeters>NAN</DistanceMeters>
          </Trackpoint>
          <Trackpoint>
            <Time>2018-12-30T12:19:06.000Z</Time>
            <Position>
              <LatitudeDegrees>40.78932152129709720611572265625</LatitudeDegrees>
              <LongitudeDegrees>-4.06719236634671688079833984375</LongitudeDegrees>
            </Position>
            <AltitudeMeters>1802</AltitudeMeters>
            <DistanceMeters>NAN</DistanceMeters>
          </Trackpoint>
          <Trackpoint>
            <Time>2018-12-30T12:19:07.000Z</Time>
            <Position>
              <LatitudeDegrees>40.7893212698400020599365234375</LatitudeDegrees>
              <LongitudeDegrees>-4.0672118961811065673828125</LongitudeDegrees>
            </Position>
            <AltitudeMeters>1801.800048828125</AltitudeMeters>
            <DistanceMeters>NAN</DistanceMeters>
          </Trackpoint>
          <Trackpoint>
            <Time>2018-12-30T12:19:08.000Z</Time>
            <Position>
              <LatitudeDegrees>40.78931883908808231353759765625</LatitudeDegrees>
              <LongitudeDegrees>-4.06722840853035449981689453125</LongitudeDegrees>
            </Position>
            <AltitudeMeters>1801.4000244140625</AltitudeMeters>
            <DistanceMeters>NAN</DistanceMeters>
          </Trackpoint>
          <Trackpoint>
            <Time>2018-12-30T12:19:09.000Z</Time>
            <Position>
              <LatitudeDegrees>40.789317078888416290283203125</LatitudeDegrees>
              <LongitudeDegrees>-4.06724768690764904022216796875</LongitudeDegrees>
            </Position>
            <AltitudeMeters>1801.199951171875</AltitudeMeters>
            <DistanceMeters>NAN</DistanceMeters>
          </Trackpoint>
          <Trackpoint>
            <Time>2018-12-30T12:19:10.000Z</Time>
            <Position>
              <LatitudeDegrees>40.789314396679401397705078125</LatitudeDegrees>
              <LongitudeDegrees>-4.06726512126624584197998046875</LongitudeDegrees>
            </Position>
            <AltitudeMeters>1801.199951171875</AltitudeMeters>
            <DistanceMeters>NAN</DistanceMeters>
          </Trackpoint>
          <Trackpoint>
            <Time>2018-12-30T12:19:11.000Z</Time>
            <Position>
              <LatitudeDegrees>40.78930978663265705108642578125</LatitudeDegrees>
              <LongitudeDegrees>-4.06727886758744716644287109375</LongitudeDegrees>
            </Position>
            <AltitudeMeters>1801</AltitudeMeters>
            <DistanceMeters>NAN</DistanceMeters>
          </Trackpoint>
          <Trackpoint>
            <Time>2018-12-30T12:19:12.000Z</Time>
            <Position>
              <LatitudeDegrees>40.789309032261371612548828125</LatitudeDegrees>
              <LongitudeDegrees>-4.06729194335639476776123046875</LongitudeDegrees>
            </Position>
            <AltitudeMeters>1800.800048828125</AltitudeMeters>
            <DistanceMeters>NAN</DistanceMeters>
          </Trackpoint>
          <Trackpoint>
            <Time>2018-12-30T12:19:13.000Z</Time>
            <Position>
              <LatitudeDegrees>40.7893086969852447509765625</LatitudeDegrees>
              <LongitudeDegrees>-4.067309796810150146484375</LongitudeDegrees>
            </Position>
            <AltitudeMeters>1800.800048828125</AltitudeMeters>
            <DistanceMeters>NAN</DistanceMeters>
          </Trackpoint>
          <Trackpoint>
            <Time>2018-12-30T12:19:14.000Z</Time>
            <Position>
              <LatitudeDegrees>40.78930802643299102783203125</LatitudeDegrees>
              <LongitudeDegrees>-4.06732630915939807891845703125</LongitudeDegrees>
            </Position>
            <AltitudeMeters>1800.800048828125</AltitudeMeters>
            <DistanceMeters>NAN</DistanceMeters>
          </Trackpoint>
          <Trackpoint>
            <Time>2018-12-30T12:19:15.000Z</Time>
            <Position>
              <LatitudeDegrees>40.78930391930043697357177734375</LatitudeDegrees>
              <LongitudeDegrees>-4.0673381276428699493408203125</LongitudeDegrees>
            </Position>
            <AltitudeMeters>1800.5999755859375</AltitudeMeters>
            <DistanceMeters>NAN</DistanceMeters>
          </Trackpoint>
          <Trackpoint>
            <Time>2018-12-30T12:19:16.000Z</Time>
            <Position>
              <LatitudeDegrees>40.7893001474440097808837890625</LatitudeDegrees>
              <LongitudeDegrees>-4.0673522092401981353759765625</LongitudeDegrees>
            </Position>
            <AltitudeMeters>1800</AltitudeMeters>
            <DistanceMeters>NAN</DistanceMeters>
          </Trackpoint>
          <Trackpoint>
            <Time>2018-12-30T12:19:17.000Z</Time>
            <Position>
              <LatitudeDegrees>40.7892961241304874420166015625</LatitudeDegrees>
              <LongitudeDegrees>-4.06736805103719234466552734375</LongitudeDegrees>
            </Position>
            <AltitudeMeters>1799.5999755859375</AltitudeMeters>
            <DistanceMeters>NAN</DistanceMeters>
          </Trackpoint>
          <Trackpoint>
            <Time>2018-12-30T12:19:18.000Z</Time>
            <Position>
              <LatitudeDegrees>40.78929168172180652618408203125</LatitudeDegrees>
              <LongitudeDegrees>-4.06738297082483768463134765625</LongitudeDegrees>
            </Position>
            <AltitudeMeters>1799.4000244140625</AltitudeMeters>
            <DistanceMeters>NAN</DistanceMeters>
          </Trackpoint>
          <Trackpoint>
            <Time>2018-12-30T12:19:19.000Z</Time>
            <Position>
              <LatitudeDegrees>40.78928464092314243316650390625</LatitudeDegrees>
              <LongitudeDegrees>-4.0673984773457050323486328125</LongitudeDegrees>
            </Position>
            <AltitudeMeters>1799.199951171875</AltitudeMeters>
            <DistanceMeters>NAN</DistanceMeters>
          </Trackpoint>
          <Trackpoint>
            <Time>2018-12-30T12:19:20.000Z</Time>
            <Position>
              <LatitudeDegrees>40.7892793603241443634033203125</LatitudeDegrees>
              <LongitudeDegrees>-4.0674149058759212493896484375</LongitudeDegrees>
            </Position>
            <AltitudeMeters>1799</AltitudeMeters>
            <DistanceMeters>NAN</DistanceMeters>
          </Trackpoint>
          <Trackpoint>
            <Time>2018-12-30T12:19:21.000Z</Time>
            <Position>
              <LatitudeDegrees>40.7892750017344951629638671875</LatitudeDegrees>
              <LongitudeDegrees>-4.0674296580255031585693359375</LongitudeDegrees>
            </Position>
            <AltitudeMeters>1799</AltitudeMeters>
            <DistanceMeters>NAN</DistanceMeters>
          </Trackpoint>
          <Trackpoint>
            <Time>2018-12-30T12:19:22.000Z</Time>
            <Position>
              <LatitudeDegrees>40.78926955349743366241455078125</LatitudeDegrees>
              <LongitudeDegrees>-4.06744399107992649078369140625</LongitudeDegrees>
            </Position>
            <AltitudeMeters>1798.5999755859375</AltitudeMeters>
            <DistanceMeters>NAN</DistanceMeters>
          </Trackpoint>
          <Trackpoint>
            <Time>2018-12-30T12:19:23.000Z</Time>
            <Position>
              <LatitudeDegrees>40.789262093603610992431640625</LatitudeDegrees>
              <LongitudeDegrees>-4.0674558095633983612060546875</LongitudeDegrees>
            </Position>
            <AltitudeMeters>1798.4000244140625</AltitudeMeters>
            <DistanceMeters>NAN</DistanceMeters>
          </Trackpoint>
          <Trackpoint>
            <Time>2018-12-30T12:19:24.000Z</Time>
            <Position>
              <LatitudeDegrees>40.7892542146146297454833984375</LatitudeDegrees>
              <LongitudeDegrees>-4.067467711865901947021484375</LongitudeDegrees>
            </Position>
            <AltitudeMeters>1798.199951171875</AltitudeMeters>
            <DistanceMeters>NAN</DistanceMeters>
          </Trackpoint>
          <Trackpoint>
            <Time>2018-12-30T12:19:25.000Z</Time>
            <Position>
              <LatitudeDegrees>40.789250023663043975830078125</LatitudeDegrees>
              <LongitudeDegrees>-4.06748204492032527923583984375</LongitudeDegrees>
            </Position>
            <AltitudeMeters>1798</AltitudeMeters>
            <DistanceMeters>NAN</DistanceMeters>
          </Trackpoint>
          <Trackpoint>
            <Time>2018-12-30T12:19:26.000Z</Time>
            <Position>
              <LatitudeDegrees>40.78924172557890415191650390625</LatitudeDegrees>
              <LongitudeDegrees>-4.06749595887959003448486328125</LongitudeDegrees>
            </Position>
            <AltitudeMeters>1797.5999755859375</AltitudeMeters>
            <DistanceMeters>NAN</DistanceMeters>
          </Trackpoint>
          <Trackpoint>
            <Time>2018-12-30T12:19:27.000Z</Time>
            <Position>
              <LatitudeDegrees>40.78923560678958892822265625</LatitudeDegrees>
              <LongitudeDegrees>-4.0675091184675693511962890625</LongitudeDegrees>
            </Position>
            <AltitudeMeters>1797.4000244140625</AltitudeMeters>
            <DistanceMeters>NAN</DistanceMeters>
          </Trackpoint>
          <Trackpoint>
            <Time>2018-12-30T12:19:28.000Z</Time>
            <Position>
              <LatitudeDegrees>40.7892324216663837432861328125</LatitudeDegrees>
              <LongitudeDegrees>-4.0675252117216587066650390625</LongitudeDegrees>
            </Position>
            <AltitudeMeters>1797.199951171875</AltitudeMeters>
            <DistanceMeters>NAN</DistanceMeters>
          </Trackpoint>
          <Trackpoint>
            <Time>2018-12-30T12:19:29.000Z</Time>
            <Position>
              <LatitudeDegrees>40.78923233784735202789306640625</LatitudeDegrees>
              <LongitudeDegrees>-4.067544154822826385498046875</LongitudeDegrees>
            </Position>
            <AltitudeMeters>1797.199951171875</AltitudeMeters>
            <DistanceMeters>NAN</DistanceMeters>
          </Trackpoint>
          <Trackpoint>
            <Time>2018-12-30T12:19:30.000Z</Time>
            <Position>
              <LatitudeDegrees>40.7892337627708911895751953125</LatitudeDegrees>
              <LongitudeDegrees>-4.06756016425788402557373046875</LongitudeDegrees>
            </Position>
            <AltitudeMeters>1797</AltitudeMeters>
            <DistanceMeters>NAN</DistanceMeters>
          </Trackpoint>
          <Trackpoint>
            <Time>2018-12-30T12:19:31.000Z</Time>
            <Position>
              <LatitudeDegrees>40.789229571819305419921875</LatitudeDegrees>
              <LongitudeDegrees>-4.0675785206258296966552734375</LongitudeDegrees>
            </Position>
            <AltitudeMeters>1797</AltitudeMeters>
            <DistanceMeters>NAN</DistanceMeters>
          </Trackpoint>
          <Trackpoint>
            <Time>2018-12-30T12:19:32.000Z</Time>
            <Position>
              <LatitudeDegrees>40.7892257161438465118408203125</LatitudeDegrees>
              <LongitudeDegrees>-4.06759620644152164459228515625</LongitudeDegrees>
            </Position>
            <AltitudeMeters>1796.800048828125</AltitudeMeters>
            <DistanceMeters>NAN</DistanceMeters>
          </Trackpoint>
          <Trackpoint>
            <Time>2018-12-30T12:19:33.000Z</Time>
            <Position>
              <LatitudeDegrees>40.78922085464000701904296875</LatitudeDegrees>
              <LongitudeDegrees>-4.06761498190462589263916015625</LongitudeDegrees>
            </Position>
            <AltitudeMeters>1796.800048828125</AltitudeMeters>
            <DistanceMeters>NAN</DistanceMeters>
          </Trackpoint>
          <Trackpoint>
            <Time>2018-12-30T12:19:34.000Z</Time>
            <Position>
              <LatitudeDegrees>40.78921280801296234130859375</LatitudeDegrees>
              <LongitudeDegrees>-4.0676331706345081329345703125</LongitudeDegrees>
            </Position>
            <AltitudeMeters>1796.5999755859375</AltitudeMeters>
            <DistanceMeters>NAN</DistanceMeters>
          </Trackpoint>
          <Trackpoint>
            <Time>2018-12-30T12:19:35.000Z</Time>
            <Position>
              <LatitudeDegrees>40.7892086170613765716552734375</LatitudeDegrees>
              <LongitudeDegrees>-4.0676517784595489501953125</LongitudeDegrees>
            </Position>
            <AltitudeMeters>1796.5999755859375</AltitudeMeters>
            <DistanceMeters>NAN</DistanceMeters>
          </Trackpoint>
          <Trackpoint>
            <Time>2018-12-30T12:19:36.000Z</Time>
            <Position>
              <LatitudeDegrees>40.78920249827206134796142578125</LatitudeDegrees>
              <LongitudeDegrees>-4.067668877542018890380859375</LongitudeDegrees>
            </Position>
            <AltitudeMeters>1796.4000244140625</AltitudeMeters>
            <DistanceMeters>NAN</DistanceMeters>
          </Trackpoint>
          <Trackpoint>
            <Time>2018-12-30T12:19:37.000Z</Time>
            <Position>
              <LatitudeDegrees>40.78919512219727039337158203125</LatitudeDegrees>
              <LongitudeDegrees>-4.06768455170094966888427734375</LongitudeDegrees>
            </Position>
            <AltitudeMeters>1796.4000244140625</AltitudeMeters>
            <DistanceMeters>NAN</DistanceMeters>
          </Trackpoint>
          <Trackpoint>
            <Time>2018-12-30T12:19:38.000Z</Time>
            <Position>
              <LatitudeDegrees>40.78918824903666973114013671875</LatitudeDegrees>
              <LongitudeDegrees>-4.0677008964121341705322265625</LongitudeDegrees>
            </Position>
            <AltitudeMeters>1796.199951171875</AltitudeMeters>
            <DistanceMeters>NAN</DistanceMeters>
          </Trackpoint>
          <Trackpoint>
            <Time>2018-12-30T12:19:39.000Z</Time>
            <Position>
              <LatitudeDegrees>40.789186321198940277099609375</LatitudeDegrees>
              <LongitudeDegrees>-4.0677213482558727264404296875</LongitudeDegrees>
            </Position>
            <AltitudeMeters>1796</AltitudeMeters>
            <DistanceMeters>NAN</DistanceMeters>
          </Trackpoint>
          <Trackpoint>
            <Time>2018-12-30T12:19:40.000Z</Time>
            <Position>
              <LatitudeDegrees>40.78918556682765483856201171875</LatitudeDegrees>
              <LongitudeDegrees>-4.06774171628057956695556640625</LongitudeDegrees>
            </Position>
            <AltitudeMeters>1796</AltitudeMeters>
            <DistanceMeters>NAN</DistanceMeters>
          </Trackpoint>
          <Trackpoint>
            <Time>2018-12-30T12:19:41.000Z</Time>
            <Position>
              <LatitudeDegrees>40.78918422572314739227294921875</LatitudeDegrees>
              <LongitudeDegrees>-4.06776250340044498443603515625</LongitudeDegrees>
            </Position>
            <AltitudeMeters>1796</AltitudeMeters>
            <DistanceMeters>NAN</DistanceMeters>
          </Trackpoint>
          <Trackpoint>
            <Time>2018-12-30T12:19:42.000Z</Time>
            <Position>
              <LatitudeDegrees>40.7891784422099590301513671875</LatitudeDegrees>
              <LongitudeDegrees>-4.06778119504451751708984375</LongitudeDegrees>
            </Position>
            <AltitudeMeters>1796</AltitudeMeters>
            <DistanceMeters>NAN</DistanceMeters>
          </Trackpoint>
          <Trackpoint>
            <Time>2018-12-30T12:19:43.000Z</Time>
            <Position>
              <LatitudeDegrees>40.7891730777919292449951171875</LatitudeDegrees>
              <LongitudeDegrees>-4.067799635231494903564453125</LongitudeDegrees>
            </Position>
            <AltitudeMeters>1795.800048828125</AltitudeMeters>
            <DistanceMeters>NAN</DistanceMeters>
          </Trackpoint>
          <Trackpoint>
            <Time>2018-12-30T12:19:44.000Z</Time>
            <Position>
              <LatitudeDegrees>40.78916628845036029815673828125</LatitudeDegrees>
              <LongitudeDegrees>-4.0678162313997745513916015625</LongitudeDegrees>
            </Position>
            <AltitudeMeters>1795.800048828125</AltitudeMeters>
            <DistanceMeters>NAN</DistanceMeters>
          </Trackpoint>
          <Trackpoint>
            <Time>2018-12-30T12:19:45.000Z</Time>
            <Position>
              <LatitudeDegrees>40.7891603372991085052490234375</LatitudeDegrees>
              <LongitudeDegrees>-4.06783157028257846832275390625</LongitudeDegrees>
            </Position>
            <AltitudeMeters>1795.800048828125</AltitudeMeters>
            <DistanceMeters>NAN</DistanceMeters>
          </Trackpoint>
          <Trackpoint>
            <Time>2018-12-30T12:19:46.000Z</Time>
            <Position>
              <LatitudeDegrees>40.78915916383266448974609375</LatitudeDegrees>
              <LongitudeDegrees>-4.0678475797176361083984375</LongitudeDegrees>
            </Position>
            <AltitudeMeters>1795.800048828125</AltitudeMeters>
            <DistanceMeters>NAN</DistanceMeters>
          </Trackpoint>
          <Trackpoint>
            <Time>2018-12-30T12:19:47.000Z</Time>
            <Position>
              <LatitudeDegrees>40.7891579903662204742431640625</LatitudeDegrees>
              <LongitudeDegrees>-4.06786358915269374847412109375</LongitudeDegrees>
            </Position>
            <AltitudeMeters>1795.5999755859375</AltitudeMeters>
            <DistanceMeters>NAN</DistanceMeters>
          </Trackpoint>
          <Trackpoint>
            <Time>2018-12-30T12:19:48.000Z</Time>
            <Position>
              <LatitudeDegrees>40.78915782272815704345703125</LatitudeDegrees>
              <LongitudeDegrees>-4.06787985004484653472900390625</LongitudeDegrees>
            </Position>
            <AltitudeMeters>1795.5999755859375</AltitudeMeters>
            <DistanceMeters>NAN</DistanceMeters>
          </Trackpoint>
          <Trackpoint>
            <Time>2018-12-30T12:19:49.000Z</Time>
            <Position>
              <LatitudeDegrees>40.789153464138507843017578125</LatitudeDegrees>
              <LongitudeDegrees>-4.067897535860538482666015625</LongitudeDegrees>
            </Position>
            <AltitudeMeters>1795.4000244140625</AltitudeMeters>
            <DistanceMeters>NAN</DistanceMeters>
          </Trackpoint>
          <Trackpoint>
            <Time>2018-12-30T12:19:50.000Z</Time>
            <Position>
              <LatitudeDegrees>40.7891477644443511962890625</LatitudeDegrees>
              <LongitudeDegrees>-4.06791639514267444610595703125</LongitudeDegrees>
            </Position>
            <AltitudeMeters>1795.199951171875</AltitudeMeters>
            <DistanceMeters>NAN</DistanceMeters>
          </Trackpoint>
          <Trackpoint>
            <Time>2018-12-30T12:19:51.000Z</Time>
            <Position>
              <LatitudeDegrees>40.78913812525570392608642578125</LatitudeDegrees>
              <LongitudeDegrees>-4.0679347515106201171875</LongitudeDegrees>
            </Position>
            <AltitudeMeters>1795</AltitudeMeters>
            <DistanceMeters>NAN</DistanceMeters>
          </Trackpoint>
          <Trackpoint>
            <Time>2018-12-30T12:19:52.000Z</Time>
            <Position>
              <LatitudeDegrees>40.7891271449625492095947265625</LatitudeDegrees>
              <LongitudeDegrees>-4.0679516829550266265869140625</LongitudeDegrees>
            </Position>
            <AltitudeMeters>1795</AltitudeMeters>
            <DistanceMeters>NAN</DistanceMeters>
          </Trackpoint>
          <Trackpoint>
            <Time>2018-12-30T12:19:53.000Z</Time>
            <Position>
              <LatitudeDegrees>40.7891247980296611785888671875</LatitudeDegrees>
              <LongitudeDegrees>-4.06796970404684543609619140625</LongitudeDegrees>
            </Position>
            <AltitudeMeters>1794.800048828125</AltitudeMeters>
            <DistanceMeters>NAN</DistanceMeters>
          </Trackpoint>
          <Trackpoint>
            <Time>2018-12-30T12:19:54.000Z</Time>
            <Position>
              <LatitudeDegrees>40.78911717049777507781982421875</LatitudeDegrees>
              <LongitudeDegrees>-4.0679862163960933685302734375</LongitudeDegrees>
            </Position>
            <AltitudeMeters>1794.800048828125</AltitudeMeters>
            <DistanceMeters>NAN</DistanceMeters>
          </Trackpoint>
          <Trackpoint>
            <Time>2018-12-30T12:19:55.000Z</Time>
            <Position>
              <LatitudeDegrees>40.7891080342233180999755859375</LatitudeDegrees>
              <LongitudeDegrees>-4.06800222583115100860595703125</LongitudeDegrees>
            </Position>
            <AltitudeMeters>1794.800048828125</AltitudeMeters>
            <DistanceMeters>NAN</DistanceMeters>
          </Trackpoint>
          <Trackpoint>
            <Time>2018-12-30T12:19:56.000Z</Time>
            <Position>
              <LatitudeDegrees>40.78909923322498798370361328125</LatitudeDegrees>
              <LongitudeDegrees>-4.068017899990081787109375</LongitudeDegrees>
            </Position>
            <AltitudeMeters>1794.800048828125</AltitudeMeters>
            <DistanceMeters>NAN</DistanceMeters>
          </Trackpoint>
          <Trackpoint>
            <Time>2018-12-30T12:19:57.000Z</Time>
            <Position>
              <LatitudeDegrees>40.7890899293124675750732421875</LatitudeDegrees>
              <LongitudeDegrees>-4.06803390942513942718505859375</LongitudeDegrees>
            </Position>
            <AltitudeMeters>1794.5999755859375</AltitudeMeters>
            <DistanceMeters>NAN</DistanceMeters>
          </Trackpoint>
          <Trackpoint>
            <Time>2018-12-30T12:19:58.000Z</Time>
            <Position>
              <LatitudeDegrees>40.7890828885138034820556640625</LatitudeDegrees>
              <LongitudeDegrees>-4.068053774535655975341796875</LongitudeDegrees>
            </Position>
            <AltitudeMeters>1794.5999755859375</AltitudeMeters>
            <DistanceMeters>NAN</DistanceMeters>
          </Trackpoint>
          <Trackpoint>
            <Time>2018-12-30T12:19:59.000Z</Time>
            <Position>
              <LatitudeDegrees>40.789072327315807342529296875</LatitudeDegrees>
              <LongitudeDegrees>-4.0680680237710475921630859375</LongitudeDegrees>
            </Position>
            <AltitudeMeters>1794.5999755859375</AltitudeMeters>
            <DistanceMeters>NAN</DistanceMeters>
          </Trackpoint>
          <Trackpoint>
            <Time>2018-12-30T12:20:00.000Z</Time>
            <Position>
              <LatitudeDegrees>40.78905916772782802581787109375</LatitudeDegrees>
              <LongitudeDegrees>-4.0680824406445026397705078125</LongitudeDegrees>
            </Position>
            <AltitudeMeters>1794.5999755859375</AltitudeMeters>
            <DistanceMeters>NAN</DistanceMeters>
          </Trackpoint>
          <Trackpoint>
            <Time>2018-12-30T12:20:01.000Z</Time>
            <Position>
              <LatitudeDegrees>40.78904726542532444000244140625</LatitudeDegrees>
              <LongitudeDegrees>-4.06809761188924312591552734375</LongitudeDegrees>
            </Position>
            <AltitudeMeters>1794.5999755859375</AltitudeMeters>
            <DistanceMeters>NAN</DistanceMeters>
          </Trackpoint>
          <Trackpoint>
            <Time>2018-12-30T12:20:02.000Z</Time>
            <Position>
              <LatitudeDegrees>40.78903838060796260833740234375</LatitudeDegrees>
              <LongitudeDegrees>-4.06811370514333248138427734375</LongitudeDegrees>
            </Position>
            <AltitudeMeters>1794.5999755859375</AltitudeMeters>
            <DistanceMeters>NAN</DistanceMeters>
          </Trackpoint>
          <Trackpoint>
            <Time>2018-12-30T12:20:03.000Z</Time>
            <Position>
              <LatitudeDegrees>40.78903133980929851531982421875</LatitudeDegrees>
              <LongitudeDegrees>-4.068128205835819244384765625</LongitudeDegrees>
            </Position>
            <AltitudeMeters>1794.5999755859375</AltitudeMeters>
            <DistanceMeters>NAN</DistanceMeters>
          </Trackpoint>
          <Trackpoint>
            <Time>2018-12-30T12:20:04.000Z</Time>
            <Position>
              <LatitudeDegrees>40.78902413137257099151611328125</LatitudeDegrees>
              <LongitudeDegrees>-4.0681399405002593994140625</LongitudeDegrees>
            </Position>
            <AltitudeMeters>1794.5999755859375</AltitudeMeters>
            <DistanceMeters>NAN</DistanceMeters>
          </Trackpoint>
          <Trackpoint>
            <Time>2018-12-30T12:20:05.000Z</Time>
            <Position>
              <LatitudeDegrees>40.78902061097323894500732421875</LatitudeDegrees>
              <LongitudeDegrees>-4.06815025024116039276123046875</LongitudeDegrees>
            </Position>
            <AltitudeMeters>1794.4000244140625</AltitudeMeters>
            <DistanceMeters>NAN</DistanceMeters>
          </Trackpoint>
          <Trackpoint>
            <Time>2018-12-30T12:20:06.000Z</Time>
            <Position>
              <LatitudeDegrees>40.7890161685645580291748046875</LatitudeDegrees>
              <LongitudeDegrees>-4.06816282309591770172119140625</LongitudeDegrees>
            </Position>
            <AltitudeMeters>1794.5999755859375</AltitudeMeters>
            <DistanceMeters>NAN</DistanceMeters>
          </Trackpoint>
          <Trackpoint>
            <Time>2018-12-30T12:20:07.000Z</Time>
            <Position>
              <LatitudeDegrees>40.7890108041465282440185546875</LatitudeDegrees>
              <LongitudeDegrees>-4.0681743063032627105712890625</LongitudeDegrees>
            </Position>
            <AltitudeMeters>1794.4000244140625</AltitudeMeters>
            <DistanceMeters>NAN</DistanceMeters>
          </Trackpoint>
          <Trackpoint>
            <Time>2018-12-30T12:20:08.000Z</Time>
            <Position>
              <LatitudeDegrees>40.78900636173784732818603515625</LatitudeDegrees>
              <LongitudeDegrees>-4.06818780116736888885498046875</LongitudeDegrees>
            </Position>
            <AltitudeMeters>1794.4000244140625</AltitudeMeters>
            <DistanceMeters>NAN</DistanceMeters>
          </Trackpoint>
          <Trackpoint>
            <Time>2018-12-30T12:20:09.000Z</Time>
            <Position>
              <LatitudeDegrees>40.78899898566305637359619140625</LatitudeDegrees>
              <LongitudeDegrees>-4.06820272095501422882080078125</LongitudeDegrees>
            </Position>
            <AltitudeMeters>1794.4000244140625</AltitudeMeters>
            <DistanceMeters>NAN</DistanceMeters>
          </Trackpoint>
          <Trackpoint>
            <Time>2018-12-30T12:20:10.000Z</Time>
            <Position>
              <LatitudeDegrees>40.78899043612182140350341796875</LatitudeDegrees>
              <LongitudeDegrees>-4.06821613200008869171142578125</LongitudeDegrees>
            </Position>
            <AltitudeMeters>1794.4000244140625</AltitudeMeters>
            <DistanceMeters>NAN</DistanceMeters>
          </Trackpoint>
          <Trackpoint>
            <Time>2018-12-30T12:20:11.000Z</Time>
            <Position>
              <LatitudeDegrees>40.78898088075220584869384765625</LatitudeDegrees>
              <LongitudeDegrees>-4.06823390163481235504150390625</LongitudeDegrees>
            </Position>
            <AltitudeMeters>1794.4000244140625</AltitudeMeters>
            <DistanceMeters>NAN</DistanceMeters>
          </Trackpoint>
          <Trackpoint>
            <Time>2018-12-30T12:20:12.000Z</Time>
            <Position>
              <LatitudeDegrees>40.7889734208583831787109375</LatitudeDegrees>
              <LongitudeDegrees>-4.068248569965362548828125</LongitudeDegrees>
            </Position>
            <AltitudeMeters>1794.199951171875</AltitudeMeters>
            <DistanceMeters>NAN</DistanceMeters>
          </Trackpoint>
          <Trackpoint>
            <Time>2018-12-30T12:20:13.000Z</Time>
            <Position>
              <LatitudeDegrees>40.788968391716480255126953125</LatitudeDegrees>
              <LongitudeDegrees>-4.068267345428466796875</LongitudeDegrees>
            </Position>
            <AltitudeMeters>1794.199951171875</AltitudeMeters>
            <DistanceMeters>NAN</DistanceMeters>
          </Trackpoint>
          <Trackpoint>
            <Time>2018-12-30T12:20:14.000Z</Time>
            <Position>
              <LatitudeDegrees>40.7889595068991184234619140625</LatitudeDegrees>
              <LongitudeDegrees>-4.0682852827012538909912109375</LongitudeDegrees>
            </Position>
            <AltitudeMeters>1794</AltitudeMeters>
            <DistanceMeters>NAN</DistanceMeters>
          </Trackpoint>
          <Trackpoint>
            <Time>2018-12-30T12:20:15.000Z</Time>
            <Position>
              <LatitudeDegrees>40.7889514602720737457275390625</LatitudeDegrees>
              <LongitudeDegrees>-4.06830045394599437713623046875</LongitudeDegrees>
            </Position>
            <AltitudeMeters>1794</AltitudeMeters>
            <DistanceMeters>NAN</DistanceMeters>
          </Trackpoint>
          <Trackpoint>
            <Time>2018-12-30T12:20:16.000Z</Time>
            <Position>
              <LatitudeDegrees>40.7889467664062976837158203125</LatitudeDegrees>
              <LongitudeDegrees>-4.0683169662952423095703125</LongitudeDegrees>
            </Position>
            <AltitudeMeters>1793.800048828125</AltitudeMeters>
            <DistanceMeters>NAN</DistanceMeters>
          </Trackpoint>
          <Trackpoint>
            <Time>2018-12-30T12:20:17.000Z</Time>
            <Position>
              <LatitudeDegrees>40.78894148580729961395263671875</LatitudeDegrees>
              <LongitudeDegrees>-4.06833280809223651885986328125</LongitudeDegrees>
            </Position>
            <AltitudeMeters>1793.800048828125</AltitudeMeters>
            <DistanceMeters>NAN</DistanceMeters>
          </Trackpoint>
          <Trackpoint>
            <Time>2018-12-30T12:20:18.000Z</Time>
            <Position>
              <LatitudeDegrees>40.78893595375120639801025390625</LatitudeDegrees>
              <LongitudeDegrees>-4.06834538094699382781982421875</LongitudeDegrees>
            </Position>
            <AltitudeMeters>1794</AltitudeMeters>
            <DistanceMeters>NAN</DistanceMeters>
          </Trackpoint>
          <Trackpoint>
            <Time>2018-12-30T12:20:19.000Z</Time>
            <Position>
              <LatitudeDegrees>40.788929499685764312744140625</LatitudeDegrees>
              <LongitudeDegrees>-4.06835426576435565948486328125</LongitudeDegrees>
            </Position>
            <AltitudeMeters>1794.199951171875</AltitudeMeters>
            <DistanceMeters>NAN</DistanceMeters>
          </Trackpoint>
          <Trackpoint>
            <Time>2018-12-30T12:20:20.000Z</Time>
            <Position>
              <LatitudeDegrees>40.788921453058719635009765625</LatitudeDegrees>
              <LongitudeDegrees>-4.06836566515266895294189453125</LongitudeDegrees>
            </Position>
            <AltitudeMeters>1794.199951171875</AltitudeMeters>
            <DistanceMeters>NAN</DistanceMeters>
          </Trackpoint>
          <Trackpoint>
            <Time>2018-12-30T12:20:21.000Z</Time>
            <Position>
              <LatitudeDegrees>40.788916088640689849853515625</LatitudeDegrees>
              <LongitudeDegrees>-4.068377651274204254150390625</LongitudeDegrees>
            </Position>
            <AltitudeMeters>1794.4000244140625</AltitudeMeters>
            <DistanceMeters>NAN</DistanceMeters>
          </Trackpoint>
          <Trackpoint>
            <Time>2018-12-30T12:20:22.000Z</Time>
            <Position>
              <LatitudeDegrees>40.7889122329652309417724609375</LatitudeDegrees>
              <LongitudeDegrees>-4.0683892183005809783935546875</LongitudeDegrees>
            </Position>
            <AltitudeMeters>1794.5999755859375</AltitudeMeters>
            <DistanceMeters>NAN</DistanceMeters>
          </Trackpoint>
          <Trackpoint>
            <Time>2018-12-30T12:20:23.000Z</Time>
            <Position>
              <LatitudeDegrees>40.788902342319488525390625</LatitudeDegrees>
              <LongitudeDegrees>-4.06840120442211627960205078125</LongitudeDegrees>
            </Position>
            <AltitudeMeters>1794.800048828125</AltitudeMeters>
            <DistanceMeters>NAN</DistanceMeters>
          </Trackpoint>
          <Trackpoint>
            <Time>2018-12-30T12:20:24.000Z</Time>
            <Position>
              <LatitudeDegrees>40.788890607655048370361328125</LatitudeDegrees>
              <LongitudeDegrees>-4.06841193325817584991455078125</LongitudeDegrees>
            </Position>
            <AltitudeMeters>1794.800048828125</AltitudeMeters>
            <DistanceMeters>NAN</DistanceMeters>
          </Trackpoint>
          <Trackpoint>
            <Time>2018-12-30T12:20:25.000Z</Time>
            <Position>
              <LatitudeDegrees>40.78887828625738620758056640625</LatitudeDegrees>
              <LongitudeDegrees>-4.0684200637042522430419921875</LongitudeDegrees>
            </Position>
            <AltitudeMeters>1794.800048828125</AltitudeMeters>
            <DistanceMeters>NAN</DistanceMeters>
          </Trackpoint>
          <Trackpoint>
            <Time>2018-12-30T12:20:26.000Z</Time>
            <Position>
              <LatitudeDegrees>40.78886554576456546783447265625</LatitudeDegrees>
              <LongitudeDegrees>-4.06842769123613834381103515625</LongitudeDegrees>
            </Position>
            <AltitudeMeters>1794.800048828125</AltitudeMeters>
            <DistanceMeters>NAN</DistanceMeters>
          </Trackpoint>
          <Trackpoint>
            <Time>2018-12-30T12:20:27.000Z</Time>
            <Position>
              <LatitudeDegrees>40.7888554036617279052734375</LatitudeDegrees>
              <LongitudeDegrees>-4.06844026409089565277099609375</LongitudeDegrees>
            </Position>
            <AltitudeMeters>1794.800048828125</AltitudeMeters>
            <DistanceMeters>NAN</DistanceMeters>
          </Trackpoint>
          <Trackpoint>
            <Time>2018-12-30T12:20:28.000Z</Time>
            <Position>
              <LatitudeDegrees>40.7888445071876049041748046875</LatitudeDegrees>
              <LongitudeDegrees>-4.06844948418438434600830078125</LongitudeDegrees>
            </Position>
            <AltitudeMeters>1794.800048828125</AltitudeMeters>
            <DistanceMeters>NAN</DistanceMeters>
          </Trackpoint>
          <Trackpoint>
            <Time>2018-12-30T12:20:29.000Z</Time>
            <Position>
              <LatitudeDegrees>40.7888371311128139495849609375</LatitudeDegrees>
              <LongitudeDegrees>-4.06845979392528533935546875</LongitudeDegrees>
            </Position>
            <AltitudeMeters>1794.800048828125</AltitudeMeters>
            <DistanceMeters>NAN</DistanceMeters>
          </Trackpoint>
          <Trackpoint>
            <Time>2018-12-30T12:20:30.000Z</Time>
            <Position>
              <LatitudeDegrees>40.788828916847705841064453125</LatitudeDegrees>
              <LongitudeDegrees>-4.06846976839005947113037109375</LongitudeDegrees>
            </Position>
            <AltitudeMeters>1795</AltitudeMeters>
            <DistanceMeters>NAN</DistanceMeters>
          </Trackpoint>
          <Trackpoint>
            <Time>2018-12-30T12:20:31.000Z</Time>
            <Position>
              <LatitudeDegrees>40.78881919384002685546875</LatitudeDegrees>
              <LongitudeDegrees>-4.06847991049289703369140625</LongitudeDegrees>
            </Position>
            <AltitudeMeters>1795</AltitudeMeters>
            <DistanceMeters>NAN</DistanceMeters>
          </Trackpoint>
          <Trackpoint>
            <Time>2018-12-30T12:20:32.000Z</Time>
            <Position>
              <LatitudeDegrees>40.7888098061084747314453125</LatitudeDegrees>
              <LongitudeDegrees>-4.06849139370024204254150390625</LongitudeDegrees>
            </Position>
            <AltitudeMeters>1795.199951171875</AltitudeMeters>
            <DistanceMeters>NAN</DistanceMeters>
          </Trackpoint>
          <Trackpoint>
            <Time>2018-12-30T12:20:33.000Z</Time>
            <Position>
              <LatitudeDegrees>40.788800418376922607421875</LatitudeDegrees>
              <LongitudeDegrees>-4.06850363127887248992919921875</LongitudeDegrees>
            </Position>
            <AltitudeMeters>1795.4000244140625</AltitudeMeters>
            <DistanceMeters>NAN</DistanceMeters>
          </Trackpoint>
          <Trackpoint>
            <Time>2018-12-30T12:20:34.000Z</Time>
            <Position>
              <LatitudeDegrees>40.7887938804924488067626953125</LatitudeDegrees>
              <LongitudeDegrees>-4.06851477921009063720703125</LongitudeDegrees>
            </Position>
            <AltitudeMeters>1795.4000244140625</AltitudeMeters>
            <DistanceMeters>NAN</DistanceMeters>
          </Trackpoint>
          <Trackpoint>
            <Time>2018-12-30T12:20:35.000Z</Time>
            <Position>
              <LatitudeDegrees>40.788784660398960113525390625</LatitudeDegrees>
              <LongitudeDegrees>-4.06852282583713531494140625</LongitudeDegrees>
            </Position>
            <AltitudeMeters>1795.4000244140625</AltitudeMeters>
            <DistanceMeters>NAN</DistanceMeters>
          </Trackpoint>
          <Trackpoint>
            <Time>2018-12-30T12:20:36.000Z</Time>
            <Position>
              <LatitudeDegrees>40.78877435065805912017822265625</LatitudeDegrees>
              <LongitudeDegrees>-4.068531207740306854248046875</LongitudeDegrees>
            </Position>
            <AltitudeMeters>1795.4000244140625</AltitudeMeters>
            <DistanceMeters>NAN</DistanceMeters>
          </Trackpoint>
          <Trackpoint>
            <Time>2018-12-30T12:20:37.000Z</Time>
            <Position>
              <LatitudeDegrees>40.788771249353885650634765625</LatitudeDegrees>
              <LongitudeDegrees>-4.06854252330958843231201171875</LongitudeDegrees>
            </Position>
            <AltitudeMeters>1795.4000244140625</AltitudeMeters>
            <DistanceMeters>NAN</DistanceMeters>
          </Trackpoint>
          <Trackpoint>
            <Time>2018-12-30T12:20:38.000Z</Time>
            <Position>
              <LatitudeDegrees>40.788765214383602142333984375</LatitudeDegrees>
              <LongitudeDegrees>-4.06855258159339427947998046875</LongitudeDegrees>
            </Position>
            <AltitudeMeters>1795.4000244140625</AltitudeMeters>
            <DistanceMeters>NAN</DistanceMeters>
          </Trackpoint>
          <Trackpoint>
            <Time>2018-12-30T12:20:39.000Z</Time>
            <Position>
              <LatitudeDegrees>40.7887549884617328643798828125</LatitudeDegrees>
              <LongitudeDegrees>-4.068560041487216949462890625</LongitudeDegrees>
            </Position>
            <AltitudeMeters>1795.4000244140625</AltitudeMeters>
            <DistanceMeters>NAN</DistanceMeters>
          </Trackpoint>
          <Trackpoint>
            <Time>2018-12-30T12:20:40.000Z</Time>
            <Position>
              <LatitudeDegrees>40.7887435890734195709228515625</LatitudeDegrees>
              <LongitudeDegrees>-4.06856616027653217315673828125</LongitudeDegrees>
            </Position>
            <AltitudeMeters>1795.4000244140625</AltitudeMeters>
            <DistanceMeters>NAN</DistanceMeters>
          </Trackpoint>
          <Trackpoint>
            <Time>2018-12-30T12:20:41.000Z</Time>
            <Position>
              <LatitudeDegrees>40.78872875310480594635009765625</LatitudeDegrees>
              <LongitudeDegrees>-4.06856867484748363494873046875</LongitudeDegrees>
            </Position>
            <AltitudeMeters>1795.4000244140625</AltitudeMeters>
            <DistanceMeters>NAN</DistanceMeters>
          </Trackpoint>
          <Trackpoint>
            <Time>2018-12-30T12:20:42.000Z</Time>
            <Position>
              <LatitudeDegrees>40.78871525824069976806640625</LatitudeDegrees>
              <LongitudeDegrees>-4.068575799465179443359375</LongitudeDegrees>
            </Position>
            <AltitudeMeters>1795.5999755859375</AltitudeMeters>
            <DistanceMeters>NAN</DistanceMeters>
          </Trackpoint>
          <Trackpoint>
            <Time>2018-12-30T12:20:43.000Z</Time>
            <Position>
              <LatitudeDegrees>40.78870452940464019775390625</LatitudeDegrees>
              <LongitudeDegrees>-4.068586528301239013671875</LongitudeDegrees>
            </Position>
            <AltitudeMeters>1795.5999755859375</AltitudeMeters>
            <DistanceMeters>NAN</DistanceMeters>
          </Trackpoint>
          <Trackpoint>
            <Time>2018-12-30T12:20:44.000Z</Time>
            <Position>
              <LatitudeDegrees>40.788691453635692596435546875</LatitudeDegrees>
              <LongitudeDegrees>-4.068596921861171722412109375</LongitudeDegrees>
            </Position>
            <AltitudeMeters>1795.800048828125</AltitudeMeters>
            <DistanceMeters>NAN</DistanceMeters>
          </Trackpoint>
          <Trackpoint>
            <Time>2018-12-30T12:20:45.000Z</Time>
            <Position>
              <LatitudeDegrees>40.788679383695125579833984375</LatitudeDegrees>
              <LongitudeDegrees>-4.06860907562077045440673828125</LongitudeDegrees>
            </Position>
            <AltitudeMeters>1795.800048828125</AltitudeMeters>
            <DistanceMeters>NAN</DistanceMeters>
          </Trackpoint>
          <Trackpoint>
            <Time>2018-12-30T12:20:46.000Z</Time>
            <Position>
              <LatitudeDegrees>40.7886730134487152099609375</LatitudeDegrees>
              <LongitudeDegrees>-4.06862483359873294830322265625</LongitudeDegrees>
            </Position>
            <AltitudeMeters>1796</AltitudeMeters>
            <DistanceMeters>NAN</DistanceMeters>
          </Trackpoint>
          <Trackpoint>
            <Time>2018-12-30T12:20:47.000Z</Time>
            <Position>
              <LatitudeDegrees>40.78866354189813137054443359375</LatitudeDegrees>
              <LongitudeDegrees>-4.06863673590123653411865234375</LongitudeDegrees>
            </Position>
            <AltitudeMeters>1796</AltitudeMeters>
            <DistanceMeters>NAN</DistanceMeters>
          </Trackpoint>
          <Trackpoint>
            <Time>2018-12-30T12:20:48.000Z</Time>
            <Position>
              <LatitudeDegrees>40.78865624964237213134765625</LatitudeDegrees>
              <LongitudeDegrees>-4.06864796765148639678955078125</LongitudeDegrees>
            </Position>
            <AltitudeMeters>1796</AltitudeMeters>
            <DistanceMeters>NAN</DistanceMeters>
          </Trackpoint>
          <Trackpoint>
            <Time>2018-12-30T12:20:49.000Z</Time>
            <Position>
              <LatitudeDegrees>40.7886523939669132232666015625</LatitudeDegrees>
              <LongitudeDegrees>-4.0686587803065776824951171875</LongitudeDegrees>
            </Position>
            <AltitudeMeters>1796</AltitudeMeters>
            <DistanceMeters>NAN</DistanceMeters>
          </Trackpoint>
          <Trackpoint>
            <Time>2018-12-30T12:20:50.000Z</Time>
            <Position>
              <LatitudeDegrees>40.7886460237205028533935546875</LatitudeDegrees>
              <LongitudeDegrees>-4.0686691738665103912353515625</LongitudeDegrees>
            </Position>
            <AltitudeMeters>1796</AltitudeMeters>
            <DistanceMeters>NAN</DistanceMeters>
          </Trackpoint>
          <Trackpoint>
            <Time>2018-12-30T12:20:51.000Z</Time>
            <Position>
              <LatitudeDegrees>40.78864158131182193756103515625</LatitudeDegrees>
              <LongitudeDegrees>-4.06868468038737773895263671875</LongitudeDegrees>
            </Position>
            <AltitudeMeters>1796</AltitudeMeters>
            <DistanceMeters>NAN</DistanceMeters>
          </Trackpoint>
          <Trackpoint>
            <Time>2018-12-30T12:20:52.000Z</Time>
            <Position>
              <LatitudeDegrees>40.788637809455394744873046875</LatitudeDegrees>
              <LongitudeDegrees>-4.0687020309269428253173828125</LongitudeDegrees>
            </Position>
            <AltitudeMeters>1795.800048828125</AltitudeMeters>
            <DistanceMeters>NAN</DistanceMeters>
          </Trackpoint>
          <Trackpoint>
            <Time>2018-12-30T12:20:53.000Z</Time>
            <Position>
              <LatitudeDegrees>40.78862967900931835174560546875</LatitudeDegrees>
              <LongitudeDegrees>-4.06871586106717586517333984375</LongitudeDegrees>
            </Position>
            <AltitudeMeters>1796</AltitudeMeters>
            <DistanceMeters>NAN</DistanceMeters>
          </Trackpoint>
          <Trackpoint>
            <Time>2018-12-30T12:20:54.000Z</Time>
            <Position>
              <LatitudeDegrees>40.78861962072551250457763671875</LatitudeDegrees>
              <LongitudeDegrees>-4.06872273422777652740478515625</LongitudeDegrees>
            </Position>
            <AltitudeMeters>1796</AltitudeMeters>
            <DistanceMeters>NAN</DistanceMeters>
          </Trackpoint>
          <Trackpoint>
            <Time>2018-12-30T12:20:55.000Z</Time>
            <Position>
              <LatitudeDegrees>40.78860788606107234954833984375</LatitudeDegrees>
              <LongitudeDegrees>-4.06872977502644062042236328125</LongitudeDegrees>
            </Position>
            <AltitudeMeters>1796</AltitudeMeters>
            <DistanceMeters>NAN</DistanceMeters>
          </Trackpoint>
          <Trackpoint>
            <Time>2018-12-30T12:20:56.000Z</Time>
            <Position>
              <LatitudeDegrees>40.7885860092937946319580078125</LatitudeDegrees>
              <LongitudeDegrees>-4.06873161904513835906982421875</LongitudeDegrees>
            </Position>
            <AltitudeMeters>1796.199951171875</AltitudeMeters>
            <DistanceMeters>NAN</DistanceMeters>
          </Trackpoint>
          <Trackpoint>
            <Time>2018-12-30T12:20:57.000Z</Time>
            <Position>
              <LatitudeDegrees>40.78856882639229297637939453125</LatitudeDegrees>
              <LongitudeDegrees>-4.0687372349202632904052734375</LongitudeDegrees>
            </Position>
            <AltitudeMeters>1796.4000244140625</AltitudeMeters>
            <DistanceMeters>NAN</DistanceMeters>
          </Trackpoint>
          <Trackpoint>
            <Time>2018-12-30T12:20:58.000Z</Time>
            <Position>
              <LatitudeDegrees>40.788553990423679351806640625</LatitudeDegrees>
              <LongitudeDegrees>-4.0687429346144199371337890625</LongitudeDegrees>
            </Position>
            <AltitudeMeters>1796.5999755859375</AltitudeMeters>
            <DistanceMeters>NAN</DistanceMeters>
          </Trackpoint>
          <Trackpoint>
            <Time>2018-12-30T12:20:59.000Z</Time>
            <Position>
              <LatitudeDegrees>40.78854401595890522003173828125</LatitudeDegrees>
              <LongitudeDegrees>-4.06874972395598888397216796875</LongitudeDegrees>
            </Position>
            <AltitudeMeters>1796.800048828125</AltitudeMeters>
            <DistanceMeters>NAN</DistanceMeters>
          </Trackpoint>
          <Trackpoint>
            <Time>2018-12-30T12:21:00.000Z</Time>
            <Position>
              <LatitudeDegrees>40.78854016028344631195068359375</LatitudeDegrees>
              <LongitudeDegrees>-4.0687556751072406768798828125</LongitudeDegrees>
            </Position>
            <AltitudeMeters>1797</AltitudeMeters>
            <DistanceMeters>NAN</DistanceMeters>
          </Trackpoint>
          <Trackpoint>
            <Time>2018-12-30T12:21:01.000Z</Time>
            <Position>
              <LatitudeDegrees>40.7885380648076534271240234375</LatitudeDegrees>
              <LongitudeDegrees>-4.06875693239271640777587890625</LongitudeDegrees>
            </Position>
            <AltitudeMeters>1797</AltitudeMeters>
            <DistanceMeters>NAN</DistanceMeters>
          </Trackpoint>
          <Trackpoint>
            <Time>2018-12-30T12:21:02.000Z</Time>
            <Position>
              <LatitudeDegrees>40.78853580169379711151123046875</LatitudeDegrees>
              <LongitudeDegrees>-4.06875626184046268463134765625</LongitudeDegrees>
            </Position>
            <AltitudeMeters>1797</AltitudeMeters>
            <DistanceMeters>NAN</DistanceMeters>
          </Trackpoint>
          <Trackpoint>
            <Time>2018-12-30T12:21:03.000Z</Time>
            <Position>
              <LatitudeDegrees>40.788528509438037872314453125</LatitudeDegrees>
              <LongitudeDegrees>-4.06875860877335071563720703125</LongitudeDegrees>
            </Position>
            <AltitudeMeters>1797</AltitudeMeters>
            <DistanceMeters>NAN</DistanceMeters>
          </Trackpoint>
          <Trackpoint>
            <Time>2018-12-30T12:21:04.000Z</Time>
            <Position>
              <LatitudeDegrees>40.78852255828678607940673828125</LatitudeDegrees>
              <LongitudeDegrees>-4.06876112334430217742919921875</LongitudeDegrees>
            </Position>
            <AltitudeMeters>1797</AltitudeMeters>
            <DistanceMeters>NAN</DistanceMeters>
          </Trackpoint>
          <Trackpoint>
            <Time>2018-12-30T12:21:05.000Z</Time>
            <Position>
              <LatitudeDegrees>40.78851937316358089447021484375</LatitudeDegrees>
              <LongitudeDegrees>-4.06876766122877597808837890625</LongitudeDegrees>
            </Position>
            <AltitudeMeters>1797</AltitudeMeters>
            <DistanceMeters>NAN</DistanceMeters>
          </Trackpoint>
          <Trackpoint>
            <Time>2018-12-30T12:21:06.000Z</Time>
            <Position>
              <LatitudeDegrees>40.78851266764104366302490234375</LatitudeDegrees>
              <LongitudeDegrees>-4.06877654604613780975341796875</LongitudeDegrees>
            </Position>
            <AltitudeMeters>1796.800048828125</AltitudeMeters>
            <DistanceMeters>NAN</DistanceMeters>
          </Trackpoint>
          <Trackpoint>
            <Time>2018-12-30T12:21:07.000Z</Time>
            <Position>
              <LatitudeDegrees>40.788505040109157562255859375</LatitudeDegrees>
              <LongitudeDegrees>-4.0687863528728485107421875</LongitudeDegrees>
            </Position>
            <AltitudeMeters>1796.800048828125</AltitudeMeters>
            <DistanceMeters>NAN</DistanceMeters>
          </Trackpoint>
          <Trackpoint>
            <Time>2018-12-30T12:21:08.000Z</Time>
            <Position>
              <LatitudeDegrees>40.78849154524505138397216796875</LatitudeDegrees>
              <LongitudeDegrees>-4.06879532150924205780029296875</LongitudeDegrees>
            </Position>
            <AltitudeMeters>1796.800048828125</AltitudeMeters>
            <DistanceMeters>NAN</DistanceMeters>
          </Trackpoint>
          <Trackpoint>
            <Time>2018-12-30T12:21:09.000Z</Time>
            <Position>
              <LatitudeDegrees>40.788478888571262359619140625</LatitudeDegrees>
              <LongitudeDegrees>-4.06880177557468414306640625</LongitudeDegrees>
            </Position>
            <AltitudeMeters>1796.800048828125</AltitudeMeters>
            <DistanceMeters>NAN</DistanceMeters>
          </Trackpoint>
          <Trackpoint>
            <Time>2018-12-30T12:21:10.000Z</Time>
            <Position>
              <LatitudeDegrees>40.7884720154106616973876953125</LatitudeDegrees>
              <LongitudeDegrees>-4.06880713999271392822265625</LongitudeDegrees>
            </Position>
            <AltitudeMeters>1796.800048828125</AltitudeMeters>
            <DistanceMeters>NAN</DistanceMeters>
          </Trackpoint>
          <Trackpoint>
            <Time>2018-12-30T12:21:11.000Z</Time>
            <Position>
              <LatitudeDegrees>40.78847251832485198974609375</LatitudeDegrees>
              <LongitudeDegrees>-4.06881141476333141326904296875</LongitudeDegrees>
            </Position>
            <AltitudeMeters>1797</AltitudeMeters>
            <DistanceMeters>NAN</DistanceMeters>
          </Trackpoint>
          <Trackpoint>
            <Time>2018-12-30T12:21:12.000Z</Time>
            <Position>
              <LatitudeDegrees>40.788474865257740020751953125</LatitudeDegrees>
              <LongitudeDegrees>-4.06881242059171199798583984375</LongitudeDegrees>
            </Position>
            <AltitudeMeters>1797.199951171875</AltitudeMeters>
            <DistanceMeters>NAN</DistanceMeters>
          </Trackpoint>
          <Trackpoint>
            <Time>2018-12-30T12:21:13.000Z</Time>
            <Position>
              <LatitudeDegrees>40.78848048113286495208740234375</LatitudeDegrees>
              <LongitudeDegrees>-4.0688130073249340057373046875</LongitudeDegrees>
            </Position>
            <AltitudeMeters>1797.4000244140625</AltitudeMeters>
            <DistanceMeters>NAN</DistanceMeters>
          </Trackpoint>
          <Trackpoint>
            <Time>2018-12-30T12:21:14.000Z</Time>
            <Position>
              <LatitudeDegrees>40.78848727047443389892578125</LatitudeDegrees>
              <LongitudeDegrees>-4.0688158571720123291015625</LongitudeDegrees>
            </Position>
            <AltitudeMeters>1797.4000244140625</AltitudeMeters>
            <DistanceMeters>NAN</DistanceMeters>
          </Trackpoint>
          <Trackpoint>
            <Time>2018-12-30T12:21:15.000Z</Time>
            <Position>
              <LatitudeDegrees>40.7884928025305271148681640625</LatitudeDegrees>
              <LongitudeDegrees>-4.0688177011907100677490234375</LongitudeDegrees>
            </Position>
            <AltitudeMeters>1797.4000244140625</AltitudeMeters>
            <DistanceMeters>NAN</DistanceMeters>
          </Trackpoint>
          <Trackpoint>
            <Time>2018-12-30T12:21:16.000Z</Time>
            <Position>
              <LatitudeDegrees>40.7884897850453853607177734375</LatitudeDegrees>
              <LongitudeDegrees>-4.06881728209555149078369140625</LongitudeDegrees>
            </Position>
            <AltitudeMeters>1797.4000244140625</AltitudeMeters>
            <DistanceMeters>NAN</DistanceMeters>
          </Trackpoint>
          <Trackpoint>
            <Time>2018-12-30T12:21:17.000Z</Time>
            <Position>
              <LatitudeDegrees>40.7884834147989749908447265625</LatitudeDegrees>
              <LongitudeDegrees>-4.06881862320005893707275390625</LongitudeDegrees>
            </Position>
            <AltitudeMeters>1797.4000244140625</AltitudeMeters>
            <DistanceMeters>NAN</DistanceMeters>
          </Trackpoint>
          <Trackpoint>
            <Time>2018-12-30T12:21:18.000Z</Time>
            <Position>
              <LatitudeDegrees>40.7884803973138332366943359375</LatitudeDegrees>
              <LongitudeDegrees>-4.06881979666650295257568359375</LongitudeDegrees>
            </Position>
            <AltitudeMeters>1797.199951171875</AltitudeMeters>
            <DistanceMeters>NAN</DistanceMeters>
          </Trackpoint>
          <Trackpoint>
            <Time>2018-12-30T12:21:19.000Z</Time>
            <Position>
              <LatitudeDegrees>40.7884773798286914825439453125</LatitudeDegrees>
              <LongitudeDegrees>-4.06881761737167835235595703125</LongitudeDegrees>
            </Position>
            <AltitudeMeters>1797.199951171875</AltitudeMeters>
            <DistanceMeters>NAN</DistanceMeters>
          </Trackpoint>
          <Trackpoint>
            <Time>2018-12-30T12:21:20.000Z</Time>
            <Position>
              <LatitudeDegrees>40.7884740270674228668212890625</LatitudeDegrees>
              <LongitudeDegrees>-4.06881325878202915191650390625</LongitudeDegrees>
            </Position>
            <AltitudeMeters>1797.199951171875</AltitudeMeters>
            <DistanceMeters>NAN</DistanceMeters>
          </Trackpoint>
          <Trackpoint>
            <Time>2018-12-30T12:21:21.000Z</Time>
            <Position>
              <LatitudeDegrees>40.78847025521099567413330078125</LatitudeDegrees>
              <LongitudeDegrees>-4.068808816373348236083984375</LongitudeDegrees>
            </Position>
            <AltitudeMeters>1797.199951171875</AltitudeMeters>
            <DistanceMeters>NAN</DistanceMeters>
          </Trackpoint>
          <Trackpoint>
            <Time>2018-12-30T12:21:22.000Z</Time>
            <Position>
              <LatitudeDegrees>40.78846807591617107391357421875</LatitudeDegrees>
              <LongitudeDegrees>-4.06880789436399936676025390625</LongitudeDegrees>
            </Position>
            <AltitudeMeters>1797.199951171875</AltitudeMeters>
            <DistanceMeters>NAN</DistanceMeters>
          </Trackpoint>
          <Trackpoint>
            <Time>2018-12-30T12:21:23.000Z</Time>
            <Position>
              <LatitudeDegrees>40.788466818630695343017578125</LatitudeDegrees>
              <LongitudeDegrees>-4.068806134164333343505859375</LongitudeDegrees>
            </Position>
            <AltitudeMeters>1797.4000244140625</AltitudeMeters>
            <DistanceMeters>NAN</DistanceMeters>
          </Trackpoint>
          <Trackpoint>
            <Time>2018-12-30T12:21:24.000Z</Time>
            <Position>
              <LatitudeDegrees>40.788464806973934173583984375</LatitudeDegrees>
              <LongitudeDegrees>-4.068806469440460205078125</LongitudeDegrees>
            </Position>
            <AltitudeMeters>1797.4000244140625</AltitudeMeters>
            <DistanceMeters>NAN</DistanceMeters>
          </Trackpoint>
          <Trackpoint>
            <Time>2018-12-30T12:21:25.000Z</Time>
            <Position>
              <LatitudeDegrees>40.78846422024071216583251953125</LatitudeDegrees>
              <LongitudeDegrees>-4.068806469440460205078125</LongitudeDegrees>
            </Position>
            <AltitudeMeters>1797.4000244140625</AltitudeMeters>
            <DistanceMeters>NAN</DistanceMeters>
          </Trackpoint>
          <Trackpoint>
            <Time>2018-12-30T12:21:26.000Z</Time>
            <Position>
              <LatitudeDegrees>40.78846354968845844268798828125</LatitudeDegrees>
              <LongitudeDegrees>-4.0688051283359527587890625</LongitudeDegrees>
            </Position>
            <AltitudeMeters>1797.4000244140625</AltitudeMeters>
            <DistanceMeters>NAN</DistanceMeters>
          </Trackpoint>
          <Trackpoint>
            <Time>2018-12-30T12:21:27.000Z</Time>
            <Position>
              <LatitudeDegrees>40.78846313059329986572265625</LatitudeDegrees>
              <LongitudeDegrees>-4.06880437396466732025146484375</LongitudeDegrees>
            </Position>
            <AltitudeMeters>1797.4000244140625</AltitudeMeters>
            <DistanceMeters>NAN</DistanceMeters>
          </Trackpoint>
          <Trackpoint>
            <Time>2018-12-30T12:21:28.000Z</Time>
            <Position>
              <LatitudeDegrees>40.7884612865746021270751953125</LatitudeDegrees>
              <LongitudeDegrees>-4.06880554743111133575439453125</LongitudeDegrees>
            </Position>
            <AltitudeMeters>1797.4000244140625</AltitudeMeters>
            <DistanceMeters>NAN</DistanceMeters>
          </Trackpoint>
          <Trackpoint>
            <Time>2018-12-30T12:21:29.000Z</Time>
            <Position>
              <LatitudeDegrees>40.7884592749178409576416015625</LatitudeDegrees>
              <LongitudeDegrees>-4.0688066370785236358642578125</LongitudeDegrees>
            </Position>
            <AltitudeMeters>1797.4000244140625</AltitudeMeters>
            <DistanceMeters>NAN</DistanceMeters>
          </Trackpoint>
          <Trackpoint>
            <Time>2018-12-30T12:21:30.000Z</Time>
            <Position>
              <LatitudeDegrees>40.78845751471817493438720703125</LatitudeDegrees>
              <LongitudeDegrees>-4.06880822964012622833251953125</LongitudeDegrees>
            </Position>
            <AltitudeMeters>1797.4000244140625</AltitudeMeters>
            <DistanceMeters>NAN</DistanceMeters>
          </Trackpoint>
          <Trackpoint>
            <Time>2018-12-30T12:21:31.000Z</Time>
            <Position>
              <LatitudeDegrees>40.78845441341400146484375</LatitudeDegrees>
              <LongitudeDegrees>-4.0688099898397922515869140625</LongitudeDegrees>
            </Position>
            <AltitudeMeters>1797.4000244140625</AltitudeMeters>
            <DistanceMeters>NAN</DistanceMeters>
          </Trackpoint>
          <Trackpoint>
            <Time>2018-12-30T12:21:32.000Z</Time>
            <Position>
              <LatitudeDegrees>40.7884518988430500030517578125</LatitudeDegrees>
              <LongitudeDegrees>-4.0688103251159191131591796875</LongitudeDegrees>
            </Position>
            <AltitudeMeters>1797.4000244140625</AltitudeMeters>
            <DistanceMeters>NAN</DistanceMeters>
          </Trackpoint>
          <Trackpoint>
            <Time>2018-12-30T12:21:33.000Z</Time>
            <Position>
              <LatitudeDegrees>40.78844829462468624114990234375</LatitudeDegrees>
              <LongitudeDegrees>-4.06881116330623626708984375</LongitudeDegrees>
            </Position>
            <AltitudeMeters>1797.199951171875</AltitudeMeters>
            <DistanceMeters>NAN</DistanceMeters>
          </Trackpoint>
          <Trackpoint>
            <Time>2018-12-30T12:21:34.000Z</Time>
            <Position>
              <LatitudeDegrees>40.78844435513019561767578125</LatitudeDegrees>
              <LongitudeDegrees>-4.06881392933428287506103515625</LongitudeDegrees>
            </Position>
            <AltitudeMeters>1797.199951171875</AltitudeMeters>
            <DistanceMeters>NAN</DistanceMeters>
          </Trackpoint>
          <Trackpoint>
            <Time>2018-12-30T12:21:35.000Z</Time>
            <Position>
              <LatitudeDegrees>40.78844108618795871734619140625</LatitudeDegrees>
              <LongitudeDegrees>-4.068814851343631744384765625</LongitudeDegrees>
            </Position>
            <AltitudeMeters>1797.199951171875</AltitudeMeters>
            <DistanceMeters>NAN</DistanceMeters>
          </Trackpoint>
          <Trackpoint>
            <Time>2018-12-30T12:21:36.000Z</Time>
            <Position>
              <LatitudeDegrees>40.78844033181667327880859375</LatitudeDegrees>
              <LongitudeDegrees>-4.06882029958069324493408203125</LongitudeDegrees>
            </Position>
            <AltitudeMeters>1797.199951171875</AltitudeMeters>
            <DistanceMeters>NAN</DistanceMeters>
          </Trackpoint>
          <Trackpoint>
            <Time>2018-12-30T12:21:37.000Z</Time>
            <Position>
              <LatitudeDegrees>40.78843773342669010162353515625</LatitudeDegrees>
              <LongitudeDegrees>-4.0688240714371204376220703125</LongitudeDegrees>
            </Position>
            <AltitudeMeters>1797.199951171875</AltitudeMeters>
            <DistanceMeters>NAN</DistanceMeters>
          </Trackpoint>
          <Trackpoint>
            <Time>2018-12-30T12:21:38.000Z</Time>
            <Position>
              <LatitudeDegrees>40.78843622468411922454833984375</LatitudeDegrees>
              <LongitudeDegrees>-4.0688264183700084686279296875</LongitudeDegrees>
            </Position>
            <AltitudeMeters>1797.199951171875</AltitudeMeters>
            <DistanceMeters>NAN</DistanceMeters>
          </Trackpoint>
          <Trackpoint>
            <Time>2018-12-30T12:21:39.000Z</Time>
            <Position>
              <LatitudeDegrees>40.788433291018009185791015625</LatitudeDegrees>
              <LongitudeDegrees>-4.06882650218904018402099609375</LongitudeDegrees>
            </Position>
            <AltitudeMeters>1797.199951171875</AltitudeMeters>
            <DistanceMeters>NAN</DistanceMeters>
          </Trackpoint>
          <Trackpoint>
            <Time>2018-12-30T12:21:40.000Z</Time>
            <Position>
              <LatitudeDegrees>40.78843287192285060882568359375</LatitudeDegrees>
              <LongitudeDegrees>-4.0688265860080718994140625</LongitudeDegrees>
            </Position>
            <AltitudeMeters>1797.199951171875</AltitudeMeters>
            <DistanceMeters>NAN</DistanceMeters>
          </Trackpoint>
          <Trackpoint>
            <Time>2018-12-30T12:21:41.000Z</Time>
            <Position>
              <LatitudeDegrees>40.78843220137059688568115234375</LatitudeDegrees>
              <LongitudeDegrees>-4.06882650218904018402099609375</LongitudeDegrees>
            </Position>
            <AltitudeMeters>1797.199951171875</AltitudeMeters>
            <DistanceMeters>NAN</DistanceMeters>
          </Trackpoint>
          <Trackpoint>
            <Time>2018-12-30T12:21:42.000Z</Time>
            <Position>
              <LatitudeDegrees>40.78843371011316776275634765625</LatitudeDegrees>
              <LongitudeDegrees>-4.06883035786449909210205078125</LongitudeDegrees>
            </Position>
            <AltitudeMeters>1797.199951171875</AltitudeMeters>
            <DistanceMeters>NAN</DistanceMeters>
          </Trackpoint>
          <Trackpoint>
            <Time>2018-12-30T12:21:43.000Z</Time>
            <Position>
              <LatitudeDegrees>40.7884342968463897705078125</LatitudeDegrees>
              <LongitudeDegrees>-4.06883102841675281524658203125</LongitudeDegrees>
            </Position>
            <AltitudeMeters>1797.199951171875</AltitudeMeters>
            <DistanceMeters>NAN</DistanceMeters>
          </Trackpoint>
          <Trackpoint>
            <Time>2018-12-30T12:21:44.000Z</Time>
            <Position>
              <LatitudeDegrees>40.788435637950897216796875</LatitudeDegrees>
              <LongitudeDegrees>-4.068830274045467376708984375</LongitudeDegrees>
            </Position>
            <AltitudeMeters>1797.199951171875</AltitudeMeters>
            <DistanceMeters>NAN</DistanceMeters>
          </Trackpoint>
          <Trackpoint>
            <Time>2018-12-30T12:21:45.000Z</Time>
            <Position>
              <LatitudeDegrees>40.78843790106475353240966796875</LatitudeDegrees>
              <LongitudeDegrees>-4.0688327886164188385009765625</LongitudeDegrees>
            </Position>
            <AltitudeMeters>1797.199951171875</AltitudeMeters>
            <DistanceMeters>NAN</DistanceMeters>
          </Trackpoint>
          <Trackpoint>
            <Time>2018-12-30T12:21:46.000Z</Time>
            <Position>
              <LatitudeDegrees>40.78843890689313411712646484375</LatitudeDegrees>
              <LongitudeDegrees>-4.06883605755865573883056640625</LongitudeDegrees>
            </Position>
            <AltitudeMeters>1797.4000244140625</AltitudeMeters>
            <DistanceMeters>NAN</DistanceMeters>
          </Trackpoint>
          <Trackpoint>
            <Time>2018-12-30T12:21:47.000Z</Time>
            <Position>
              <LatitudeDegrees>40.78843840397894382476806640625</LatitudeDegrees>
              <LongitudeDegrees>-4.06883890740573406219482421875</LongitudeDegrees>
            </Position>
            <AltitudeMeters>1797.5999755859375</AltitudeMeters>
            <DistanceMeters>NAN</DistanceMeters>
          </Trackpoint>
          <Trackpoint>
            <Time>2018-12-30T12:21:48.000Z</Time>
            <Position>
              <LatitudeDegrees>40.78843907453119754791259765625</LatitudeDegrees>
              <LongitudeDegrees>-4.06883957795798778533935546875</LongitudeDegrees>
            </Position>
            <AltitudeMeters>1798</AltitudeMeters>
            <DistanceMeters>NAN</DistanceMeters>
          </Trackpoint>
          <Trackpoint>
            <Time>2018-12-30T12:21:49.000Z</Time>
            <Position>
              <LatitudeDegrees>40.78844033181667327880859375</LatitudeDegrees>
              <LongitudeDegrees>-4.06883723102509975433349609375</LongitudeDegrees>
            </Position>
            <AltitudeMeters>1798.199951171875</AltitudeMeters>
            <DistanceMeters>NAN</DistanceMeters>
          </Trackpoint>
          <Trackpoint>
            <Time>2018-12-30T12:21:50.000Z</Time>
            <Position>
              <LatitudeDegrees>40.788440667092800140380859375</LatitudeDegrees>
              <LongitudeDegrees>-4.06883656047284603118896484375</LongitudeDegrees>
            </Position>
            <AltitudeMeters>1798.4000244140625</AltitudeMeters>
            <DistanceMeters>NAN</DistanceMeters>
          </Trackpoint>
          <Trackpoint>
            <Time>2018-12-30T12:21:51.000Z</Time>
            <Position>
              <LatitudeDegrees>40.788440667092800140380859375</LatitudeDegrees>
              <LongitudeDegrees>-4.06883723102509975433349609375</LongitudeDegrees>
            </Position>
            <AltitudeMeters>1798.4000244140625</AltitudeMeters>
            <DistanceMeters>NAN</DistanceMeters>
          </Trackpoint>
          <Trackpoint>
            <Time>2018-12-30T12:21:52.000Z</Time>
            <Position>
              <LatitudeDegrees>40.78844175674021244049072265625</LatitudeDegrees>
              <LongitudeDegrees>-4.06883756630122661590576171875</LongitudeDegrees>
            </Position>
            <AltitudeMeters>1798.4000244140625</AltitudeMeters>
            <DistanceMeters>NAN</DistanceMeters>
          </Trackpoint>
          <Trackpoint>
            <Time>2018-12-30T12:21:53.000Z</Time>
            <Position>
              <LatitudeDegrees>40.78844301402568817138671875</LatitudeDegrees>
              <LongitudeDegrees>-4.0688344649970531463623046875</LongitudeDegrees>
            </Position>
            <AltitudeMeters>1798.199951171875</AltitudeMeters>
            <DistanceMeters>NAN</DistanceMeters>
          </Trackpoint>
          <Trackpoint>
            <Time>2018-12-30T12:21:54.000Z</Time>
            <Position>
              <LatitudeDegrees>40.7884445227682590484619140625</LatitudeDegrees>
              <LongitudeDegrees>-4.06883069314062595367431640625</LongitudeDegrees>
            </Position>
            <AltitudeMeters>1797.800048828125</AltitudeMeters>
            <DistanceMeters>NAN</DistanceMeters>
          </Trackpoint>
          <Trackpoint>
            <Time>2018-12-30T12:21:55.000Z</Time>
            <Position>
              <LatitudeDegrees>40.78844510950148105621337890625</LatitudeDegrees>
              <LongitudeDegrees>-4.06882884912192821502685546875</LongitudeDegrees>
            </Position>
            <AltitudeMeters>1797.5999755859375</AltitudeMeters>
            <DistanceMeters>NAN</DistanceMeters>
          </Trackpoint>
          <Trackpoint>
            <Time>2018-12-30T12:21:56.000Z</Time>
            <Position>
              <LatitudeDegrees>40.788444019854068756103515625</LatitudeDegrees>
              <LongitudeDegrees>-4.0688292682170867919921875</LongitudeDegrees>
            </Position>
            <AltitudeMeters>1797.4000244140625</AltitudeMeters>
            <DistanceMeters>NAN</DistanceMeters>
          </Trackpoint>
          <Trackpoint>
            <Time>2018-12-30T12:21:57.000Z</Time>
            <Position>
              <LatitudeDegrees>40.78844569623470306396484375</LatitudeDegrees>
              <LongitudeDegrees>-4.06883236952126026153564453125</LongitudeDegrees>
            </Position>
            <AltitudeMeters>1797.4000244140625</AltitudeMeters>
            <DistanceMeters>NAN</DistanceMeters>
          </Trackpoint>
          <Trackpoint>
            <Time>2018-12-30T12:21:58.000Z</Time>
            <Position>
              <LatitudeDegrees>40.788453407585620880126953125</LatitudeDegrees>
              <LongitudeDegrees>-4.0688388235867023468017578125</LongitudeDegrees>
            </Position>
            <AltitudeMeters>1797.199951171875</AltitudeMeters>
            <DistanceMeters>NAN</DistanceMeters>
          </Trackpoint>
          <Trackpoint>
            <Time>2018-12-30T12:21:59.000Z</Time>
            <Position>
              <LatitudeDegrees>40.78846422024071216583251953125</LatitudeDegrees>
              <LongitudeDegrees>-4.0688438527286052703857421875</LongitudeDegrees>
            </Position>
            <AltitudeMeters>1797.199951171875</AltitudeMeters>
            <DistanceMeters>NAN</DistanceMeters>
          </Trackpoint>
          <Trackpoint>
            <Time>2018-12-30T12:22:00.000Z</Time>
            <Position>
              <LatitudeDegrees>40.7884723506867885589599609375</LatitudeDegrees>
              <LongitudeDegrees>-4.0688458643853664398193359375</LongitudeDegrees>
            </Position>
            <AltitudeMeters>1797.199951171875</AltitudeMeters>
            <DistanceMeters>NAN</DistanceMeters>
          </Trackpoint>
          <Trackpoint>
            <Time>2018-12-30T12:22:01.000Z</Time>
            <Position>
              <LatitudeDegrees>40.78847930766642093658447265625</LatitudeDegrees>
              <LongitudeDegrees>-4.06884142197668552398681640625</LongitudeDegrees>
            </Position>
            <AltitudeMeters>1797.199951171875</AltitudeMeters>
            <DistanceMeters>NAN</DistanceMeters>
          </Trackpoint>
          <Trackpoint>
            <Time>2018-12-30T12:22:02.000Z</Time>
            <Position>
              <LatitudeDegrees>40.788484923541545867919921875</LatitudeDegrees>
              <LongitudeDegrees>-4.06884008087217807769775390625</LongitudeDegrees>
            </Position>
            <AltitudeMeters>1797.199951171875</AltitudeMeters>
            <DistanceMeters>NAN</DistanceMeters>
          </Trackpoint>
          <Trackpoint>
            <Time>2018-12-30T12:22:03.000Z</Time>
            <Position>
              <LatitudeDegrees>40.78848534263670444488525390625</LatitudeDegrees>
              <LongitudeDegrees>-4.06883840449154376983642578125</LongitudeDegrees>
            </Position>
            <AltitudeMeters>1797.4000244140625</AltitudeMeters>
            <DistanceMeters>NAN</DistanceMeters>
          </Trackpoint>
          <Trackpoint>
            <Time>2018-12-30T12:22:04.000Z</Time>
            <Position>
              <LatitudeDegrees>40.78848727047443389892578125</LatitudeDegrees>
              <LongitudeDegrees>-4.06883773393929004669189453125</LongitudeDegrees>
            </Position>
            <AltitudeMeters>1797.199951171875</AltitudeMeters>
            <DistanceMeters>NAN</DistanceMeters>
          </Trackpoint>
          <Trackpoint>
            <Time>2018-12-30T12:22:05.000Z</Time>
            <Position>
              <LatitudeDegrees>40.78848718665540218353271484375</LatitudeDegrees>
              <LongitudeDegrees>-4.06883505173027515411376953125</LongitudeDegrees>
            </Position>
            <AltitudeMeters>1797.199951171875</AltitudeMeters>
            <DistanceMeters>NAN</DistanceMeters>
          </Trackpoint>
          <Trackpoint>
            <Time>2018-12-30T12:22:06.000Z</Time>
            <Position>
              <LatitudeDegrees>40.7884844206273555755615234375</LatitudeDegrees>
              <LongitudeDegrees>-4.06882616691291332244873046875</LongitudeDegrees>
            </Position>
            <AltitudeMeters>1797.199951171875</AltitudeMeters>
            <DistanceMeters>NAN</DistanceMeters>
          </Trackpoint>
          <Trackpoint>
            <Time>2018-12-30T12:22:07.000Z</Time>
            <Position>
              <LatitudeDegrees>40.7884847559034824371337890625</LatitudeDegrees>
              <LongitudeDegrees>-4.0688267536461353302001953125</LongitudeDegrees>
            </Position>
            <AltitudeMeters>1797.4000244140625</AltitudeMeters>
            <DistanceMeters>NAN</DistanceMeters>
          </Trackpoint>
          <Trackpoint>
            <Time>2018-12-30T12:22:08.000Z</Time>
            <Position>
              <LatitudeDegrees>40.78848886303603649139404296875</LatitudeDegrees>
              <LongitudeDegrees>-4.0688294358551502227783203125</LongitudeDegrees>
            </Position>
            <AltitudeMeters>1797.4000244140625</AltitudeMeters>
            <DistanceMeters>NAN</DistanceMeters>
          </Trackpoint>
          <Trackpoint>
            <Time>2018-12-30T12:23:06.000Z</Time>
            <Position>
              <LatitudeDegrees>40.78839984722435474395751953125</LatitudeDegrees>
              <LongitudeDegrees>-4.0688522346317768096923828125</LongitudeDegrees>
            </Position>
            <AltitudeMeters>1799</AltitudeMeters>
            <DistanceMeters>NAN</DistanceMeters>
          </Trackpoint>
          <Trackpoint>
            <Time>2018-12-30T12:23:07.000Z</Time>
            <Position>
              <LatitudeDegrees>40.78839004039764404296875</LatitudeDegrees>
              <LongitudeDegrees>-4.0688653104007244110107421875</LongitudeDegrees>
            </Position>
            <AltitudeMeters>1799</AltitudeMeters>
            <DistanceMeters>NAN</DistanceMeters>
          </Trackpoint>
          <Trackpoint>
            <Time>2018-12-30T12:23:08.000Z</Time>
            <Position>
              <LatitudeDegrees>40.78838123939931392669677734375</LatitudeDegrees>
              <LongitudeDegrees>-4.0688780508935451507568359375</LongitudeDegrees>
            </Position>
            <AltitudeMeters>1799</AltitudeMeters>
            <DistanceMeters>NAN</DistanceMeters>
          </Trackpoint>
          <Trackpoint>
            <Time>2018-12-30T12:23:09.000Z</Time>
            <Position>
              <LatitudeDegrees>40.78837168402969837188720703125</LatitudeDegrees>
              <LongitudeDegrees>-4.06888986937701702117919921875</LongitudeDegrees>
            </Position>
            <AltitudeMeters>1799</AltitudeMeters>
            <DistanceMeters>NAN</DistanceMeters>
          </Trackpoint>
          <Trackpoint>
            <Time>2018-12-30T12:23:10.000Z</Time>
            <Position>
              <LatitudeDegrees>40.788360536098480224609375</LatitudeDegrees>
              <LongitudeDegrees>-4.068900011479854583740234375</LongitudeDegrees>
            </Position>
            <AltitudeMeters>1798.800048828125</AltitudeMeters>
            <DistanceMeters>NAN</DistanceMeters>
          </Trackpoint>
          <Trackpoint>
            <Time>2018-12-30T12:23:11.000Z</Time>
            <Position>
              <LatitudeDegrees>40.78834905289113521575927734375</LatitudeDegrees>
              <LongitudeDegrees>-4.06890763901174068450927734375</LongitudeDegrees>
            </Position>
            <AltitudeMeters>1798.5999755859375</AltitudeMeters>
            <DistanceMeters>NAN</DistanceMeters>
          </Trackpoint>
          <Trackpoint>
            <Time>2018-12-30T12:23:12.000Z</Time>
            <Position>
              <LatitudeDegrees>40.78834117390215396881103515625</LatitudeDegrees>
              <LongitudeDegrees>-4.0689152665436267852783203125</LongitudeDegrees>
            </Position>
            <AltitudeMeters>1798.4000244140625</AltitudeMeters>
            <DistanceMeters>NAN</DistanceMeters>
          </Trackpoint>
          <Trackpoint>
            <Time>2018-12-30T12:23:13.000Z</Time>
            <Position>
              <LatitudeDegrees>40.78833480365574359893798828125</LatitudeDegrees>
              <LongitudeDegrees>-4.06891711056232452392578125</LongitudeDegrees>
            </Position>
            <AltitudeMeters>1798.4000244140625</AltitudeMeters>
            <DistanceMeters>NAN</DistanceMeters>
          </Trackpoint>
          <Trackpoint>
            <Time>2018-12-30T12:23:14.000Z</Time>
            <Position>
              <LatitudeDegrees>40.78833513893187046051025390625</LatitudeDegrees>
              <LongitudeDegrees>-4.0689129196107387542724609375</LongitudeDegrees>
            </Position>
            <AltitudeMeters>1798.4000244140625</AltitudeMeters>
            <DistanceMeters>NAN</DistanceMeters>
          </Trackpoint>
          <Trackpoint>
            <Time>2018-12-30T12:23:15.000Z</Time>
            <Position>
              <LatitudeDegrees>40.788333378732204437255859375</LatitudeDegrees>
              <LongitudeDegrees>-4.0689112432301044464111328125</LongitudeDegrees>
            </Position>
            <AltitudeMeters>1798.5999755859375</AltitudeMeters>
            <DistanceMeters>NAN</DistanceMeters>
          </Trackpoint>
          <Trackpoint>
            <Time>2018-12-30T12:23:16.000Z</Time>
            <Position>
              <LatitudeDegrees>40.7883315347135066986083984375</LatitudeDegrees>
              <LongitudeDegrees>-4.0689152665436267852783203125</LongitudeDegrees>
            </Position>
            <AltitudeMeters>1798.5999755859375</AltitudeMeters>
            <DistanceMeters>NAN</DistanceMeters>
          </Trackpoint>
          <Trackpoint>
            <Time>2018-12-30T12:23:17.000Z</Time>
            <Position>
              <LatitudeDegrees>40.788330025970935821533203125</LatitudeDegrees>
              <LongitudeDegrees>-4.06891576945781707763671875</LongitudeDegrees>
            </Position>
            <AltitudeMeters>1798.800048828125</AltitudeMeters>
            <DistanceMeters>NAN</DistanceMeters>
          </Trackpoint>
          <Trackpoint>
            <Time>2018-12-30T12:23:18.000Z</Time>
            <Position>
              <LatitudeDegrees>40.78833396546542644500732421875</LatitudeDegrees>
              <LongitudeDegrees>-4.06891702674329280853271484375</LongitudeDegrees>
            </Position>
            <AltitudeMeters>1799</AltitudeMeters>
            <DistanceMeters>NAN</DistanceMeters>
          </Trackpoint>
          <Trackpoint>
            <Time>2018-12-30T12:23:19.000Z</Time>
            <Position>
              <LatitudeDegrees>40.78833480365574359893798828125</LatitudeDegrees>
              <LongitudeDegrees>-4.06891618855297565460205078125</LongitudeDegrees>
            </Position>
            <AltitudeMeters>1799</AltitudeMeters>
            <DistanceMeters>NAN</DistanceMeters>
          </Trackpoint>
          <Trackpoint>
            <Time>2018-12-30T12:23:20.000Z</Time>
            <Position>
              <LatitudeDegrees>40.788342095911502838134765625</LatitudeDegrees>
              <LongitudeDegrees>-4.06891853548586368560791015625</LongitudeDegrees>
            </Position>
            <AltitudeMeters>1799.199951171875</AltitudeMeters>
            <DistanceMeters>NAN</DistanceMeters>
          </Trackpoint>
          <Trackpoint>
            <Time>2018-12-30T12:23:21.000Z</Time>
            <Position>
              <LatitudeDegrees>40.78834570012986660003662109375</LatitudeDegrees>
              <LongitudeDegrees>-4.0689176134765148162841796875</LongitudeDegrees>
            </Position>
            <AltitudeMeters>1799.199951171875</AltitudeMeters>
            <DistanceMeters>NAN</DistanceMeters>
          </Trackpoint>
          <Trackpoint>
            <Time>2018-12-30T12:23:22.000Z</Time>
            <Position>
              <LatitudeDegrees>40.788345448672771453857421875</LatitudeDegrees>
              <LongitudeDegrees>-4.0689169429242610931396484375</LongitudeDegrees>
            </Position>
            <AltitudeMeters>1799.199951171875</AltitudeMeters>
            <DistanceMeters>NAN</DistanceMeters>
          </Trackpoint>
          <Trackpoint>
            <Time>2018-12-30T12:23:23.000Z</Time>
            <Position>
              <LatitudeDegrees>40.788348801434040069580078125</LatitudeDegrees>
              <LongitudeDegrees>-4.0689202956855297088623046875</LongitudeDegrees>
            </Position>
            <AltitudeMeters>1799.199951171875</AltitudeMeters>
            <DistanceMeters>NAN</DistanceMeters>
          </Trackpoint>
          <Trackpoint>
            <Time>2018-12-30T12:23:24.000Z</Time>
            <Position>
              <LatitudeDegrees>40.78835642896592617034912109375</LatitudeDegrees>
              <LongitudeDegrees>-4.06892716884613037109375</LongitudeDegrees>
            </Position>
            <AltitudeMeters>1799.199951171875</AltitudeMeters>
            <DistanceMeters>NAN</DistanceMeters>
          </Trackpoint>
          <Trackpoint>
            <Time>2018-12-30T12:23:25.000Z</Time>
            <Position>
              <LatitudeDegrees>40.78835726715624332427978515625</LatitudeDegrees>
              <LongitudeDegrees>-4.06893043778836727142333984375</LongitudeDegrees>
            </Position>
            <AltitudeMeters>1799.199951171875</AltitudeMeters>
            <DistanceMeters>NAN</DistanceMeters>
          </Trackpoint>
          <Trackpoint>
            <Time>2018-12-30T12:23:26.000Z</Time>
            <Position>
              <LatitudeDegrees>40.78835961408913135528564453125</LatitudeDegrees>
              <LongitudeDegrees>-4.06893043778836727142333984375</LongitudeDegrees>
            </Position>
            <AltitudeMeters>1799.199951171875</AltitudeMeters>
            <DistanceMeters>NAN</DistanceMeters>
          </Trackpoint>
          <Trackpoint>
            <Time>2018-12-30T12:23:27.000Z</Time>
            <Position>
              <LatitudeDegrees>40.78835860826075077056884765625</LatitudeDegrees>
              <LongitudeDegrees>-4.0689303539693355560302734375</LongitudeDegrees>
            </Position>
            <AltitudeMeters>1799.199951171875</AltitudeMeters>
            <DistanceMeters>NAN</DistanceMeters>
          </Trackpoint>
          <Trackpoint>
            <Time>2018-12-30T12:23:28.000Z</Time>
            <Position>
              <LatitudeDegrees>40.788353495299816131591796875</LatitudeDegrees>
              <LongitudeDegrees>-4.068931527435779571533203125</LongitudeDegrees>
            </Position>
            <AltitudeMeters>1799.199951171875</AltitudeMeters>
            <DistanceMeters>NAN</DistanceMeters>
          </Trackpoint>
          <Trackpoint>
            <Time>2018-12-30T12:23:29.000Z</Time>
            <Position>
              <LatitudeDegrees>40.788351483643054962158203125</LatitudeDegrees>
              <LongitudeDegrees>-4.06893186271190643310546875</LongitudeDegrees>
            </Position>
            <AltitudeMeters>1799.199951171875</AltitudeMeters>
            <DistanceMeters>NAN</DistanceMeters>
          </Trackpoint>
          <Trackpoint>
            <Time>2018-12-30T12:23:30.000Z</Time>
            <Position>
              <LatitudeDegrees>40.78835223801434040069580078125</LatitudeDegrees>
              <LongitudeDegrees>-4.06893060542643070220947265625</LongitudeDegrees>
            </Position>
            <AltitudeMeters>1799.199951171875</AltitudeMeters>
            <DistanceMeters>NAN</DistanceMeters>
          </Trackpoint>
          <Trackpoint>
            <Time>2018-12-30T12:23:31.000Z</Time>
            <Position>
              <LatitudeDegrees>40.78835341148078441619873046875</LatitudeDegrees>
              <LongitudeDegrees>-4.06892993487417697906494140625</LongitudeDegrees>
            </Position>
            <AltitudeMeters>1799.199951171875</AltitudeMeters>
            <DistanceMeters>NAN</DistanceMeters>
          </Trackpoint>
          <Trackpoint>
            <Time>2018-12-30T12:23:32.000Z</Time>
            <Position>
              <LatitudeDegrees>40.788353495299816131591796875</LatitudeDegrees>
              <LongitudeDegrees>-4.06892825849354267120361328125</LongitudeDegrees>
            </Position>
            <AltitudeMeters>1799.199951171875</AltitudeMeters>
            <DistanceMeters>NAN</DistanceMeters>
          </Trackpoint>
          <Trackpoint>
            <Time>2018-12-30T12:23:33.000Z</Time>
            <Position>
              <LatitudeDegrees>40.7883536629378795623779296875</LatitudeDegrees>
              <LongitudeDegrees>-4.06892918050289154052734375</LongitudeDegrees>
            </Position>
            <AltitudeMeters>1799.199951171875</AltitudeMeters>
            <DistanceMeters>NAN</DistanceMeters>
          </Trackpoint>
          <Trackpoint>
            <Time>2018-12-30T12:23:34.000Z</Time>
            <Position>
              <LatitudeDegrees>40.7883565127849578857421875</LatitudeDegrees>
              <LongitudeDegrees>-4.06892859376966953277587890625</LongitudeDegrees>
            </Position>
            <AltitudeMeters>1799.199951171875</AltitudeMeters>
            <DistanceMeters>NAN</DistanceMeters>
          </Trackpoint>
          <Trackpoint>
            <Time>2018-12-30T12:23:35.000Z</Time>
            <Position>
              <LatitudeDegrees>40.78835986554622650146484375</LatitudeDegrees>
              <LongitudeDegrees>-4.068928845226764678955078125</LongitudeDegrees>
            </Position>
            <AltitudeMeters>1799.199951171875</AltitudeMeters>
            <DistanceMeters>NAN</DistanceMeters>
          </Trackpoint>
          <Trackpoint>
            <Time>2018-12-30T12:23:36.000Z</Time>
            <Position>
              <LatitudeDegrees>40.78836162574589252471923828125</LatitudeDegrees>
              <LongitudeDegrees>-4.068927504122257232666015625</LongitudeDegrees>
            </Position>
            <AltitudeMeters>1799</AltitudeMeters>
            <DistanceMeters>NAN</DistanceMeters>
          </Trackpoint>
          <Trackpoint>
            <Time>2018-12-30T12:23:37.000Z</Time>
            <Position>
              <LatitudeDegrees>40.78836179338395595550537109375</LatitudeDegrees>
              <LongitudeDegrees>-4.06892783939838409423828125</LongitudeDegrees>
            </Position>
            <AltitudeMeters>1799</AltitudeMeters>
            <DistanceMeters>NAN</DistanceMeters>
          </Trackpoint>
          <Trackpoint>
            <Time>2018-12-30T12:23:38.000Z</Time>
            <Position>
              <LatitudeDegrees>40.78836129046976566314697265625</LatitudeDegrees>
              <LongitudeDegrees>-4.0689283423125743865966796875</LongitudeDegrees>
            </Position>
            <AltitudeMeters>1799</AltitudeMeters>
            <DistanceMeters>NAN</DistanceMeters>
          </Trackpoint>
          <Trackpoint>
            <Time>2018-12-30T12:23:39.000Z</Time>
            <Position>
              <LatitudeDegrees>40.78836129046976566314697265625</LatitudeDegrees>
              <LongitudeDegrees>-4.0689283423125743865966796875</LongitudeDegrees>
            </Position>
            <AltitudeMeters>1799</AltitudeMeters>
            <DistanceMeters>NAN</DistanceMeters>
          </Trackpoint>
          <Trackpoint>
            <Time>2018-12-30T12:23:40.000Z</Time>
            <Position>
              <LatitudeDegrees>40.7883613742887973785400390625</LatitudeDegrees>
              <LongitudeDegrees>-4.068928174674510955810546875</LongitudeDegrees>
            </Position>
            <AltitudeMeters>1799</AltitudeMeters>
            <DistanceMeters>NAN</DistanceMeters>
          </Trackpoint>
          <Trackpoint>
            <Time>2018-12-30T12:23:41.000Z</Time>
            <Position>
              <LatitudeDegrees>40.78836112283170223236083984375</LatitudeDegrees>
              <LongitudeDegrees>-4.06892783939838409423828125</LongitudeDegrees>
            </Position>
            <AltitudeMeters>1799</AltitudeMeters>
            <DistanceMeters>NAN</DistanceMeters>
          </Trackpoint>
          <Trackpoint>
            <Time>2018-12-30T12:23:42.000Z</Time>
            <Position>
              <LatitudeDegrees>40.788361541926860809326171875</LatitudeDegrees>
              <LongitudeDegrees>-4.0689273364841938018798828125</LongitudeDegrees>
            </Position>
            <AltitudeMeters>1799</AltitudeMeters>
            <DistanceMeters>NAN</DistanceMeters>
          </Trackpoint>
          <Trackpoint>
            <Time>2018-12-30T12:23:43.000Z</Time>
            <Position>
              <LatitudeDegrees>40.7883618772029876708984375</LatitudeDegrees>
              <LongitudeDegrees>-4.06892716884613037109375</LongitudeDegrees>
            </Position>
            <AltitudeMeters>1799.199951171875</AltitudeMeters>
            <DistanceMeters>NAN</DistanceMeters>
          </Trackpoint>
          <Trackpoint>
            <Time>2018-12-30T12:23:44.000Z</Time>
            <Position>
              <LatitudeDegrees>40.7883617095649242401123046875</LatitudeDegrees>
              <LongitudeDegrees>-4.06892641447484493255615234375</LongitudeDegrees>
            </Position>
            <AltitudeMeters>1799.199951171875</AltitudeMeters>
            <DistanceMeters>NAN</DistanceMeters>
          </Trackpoint>
          <Trackpoint>
            <Time>2018-12-30T12:23:45.000Z</Time>
            <Position>
              <LatitudeDegrees>40.78836061991751194000244140625</LatitudeDegrees>
              <LongitudeDegrees>-4.0689263306558132171630859375</LongitudeDegrees>
            </Position>
            <AltitudeMeters>1799.199951171875</AltitudeMeters>
            <DistanceMeters>NAN</DistanceMeters>
          </Trackpoint>
          <Trackpoint>
            <Time>2018-12-30T12:23:46.000Z</Time>
            <Position>
              <LatitudeDegrees>40.7883593626320362091064453125</LatitudeDegrees>
              <LongitudeDegrees>-4.0689266659319400787353515625</LongitudeDegrees>
            </Position>
            <AltitudeMeters>1799.199951171875</AltitudeMeters>
            <DistanceMeters>NAN</DistanceMeters>
          </Trackpoint>
          <Trackpoint>
            <Time>2018-12-30T12:23:47.000Z</Time>
            <Position>
              <LatitudeDegrees>40.78835860826075077056884765625</LatitudeDegrees>
              <LongitudeDegrees>-4.0689270012080669403076171875</LongitudeDegrees>
            </Position>
            <AltitudeMeters>1799.199951171875</AltitudeMeters>
            <DistanceMeters>NAN</DistanceMeters>
          </Trackpoint>
          <Trackpoint>
            <Time>2018-12-30T12:23:48.000Z</Time>
            <Position>
              <LatitudeDegrees>40.7883586920797824859619140625</LatitudeDegrees>
              <LongitudeDegrees>-4.06892658211290836334228515625</LongitudeDegrees>
            </Position>
            <AltitudeMeters>1799.199951171875</AltitudeMeters>
            <DistanceMeters>NAN</DistanceMeters>
          </Trackpoint>
          <Trackpoint>
            <Time>2018-12-30T12:23:49.000Z</Time>
            <Position>
              <LatitudeDegrees>40.7883590273559093475341796875</LatitudeDegrees>
              <LongitudeDegrees>-4.0689263306558132171630859375</LongitudeDegrees>
            </Position>
            <AltitudeMeters>1799.199951171875</AltitudeMeters>
            <DistanceMeters>NAN</DistanceMeters>
          </Trackpoint>
          <Trackpoint>
            <Time>2018-12-30T12:23:50.000Z</Time>
            <Position>
              <LatitudeDegrees>40.78835693188011646270751953125</LatitudeDegrees>
              <LongitudeDegrees>-4.0689258277416229248046875</LongitudeDegrees>
            </Position>
            <AltitudeMeters>1799</AltitudeMeters>
            <DistanceMeters>NAN</DistanceMeters>
          </Trackpoint>
          <Trackpoint>
            <Time>2018-12-30T12:23:51.000Z</Time>
            <Position>
              <LatitudeDegrees>40.78835508786141872406005859375</LatitudeDegrees>
              <LongitudeDegrees>-4.0689266659319400787353515625</LongitudeDegrees>
            </Position>
            <AltitudeMeters>1799</AltitudeMeters>
            <DistanceMeters>NAN</DistanceMeters>
          </Trackpoint>
          <Trackpoint>
            <Time>2018-12-30T12:23:52.000Z</Time>
            <Position>
              <LatitudeDegrees>40.7883509807288646697998046875</LatitudeDegrees>
              <LongitudeDegrees>-4.06892959959805011749267578125</LongitudeDegrees>
            </Position>
            <AltitudeMeters>1799.199951171875</AltitudeMeters>
            <DistanceMeters>NAN</DistanceMeters>
          </Trackpoint>
          <Trackpoint>
            <Time>2018-12-30T12:23:53.000Z</Time>
            <Position>
              <LatitudeDegrees>40.788346119225025177001953125</LatitudeDegrees>
              <LongitudeDegrees>-4.06893395818769931793212890625</LongitudeDegrees>
            </Position>
            <AltitudeMeters>1799</AltitudeMeters>
            <DistanceMeters>NAN</DistanceMeters>
          </Trackpoint>
          <Trackpoint>
            <Time>2018-12-30T12:23:54.000Z</Time>
            <Position>
              <LatitudeDegrees>40.78833798877894878387451171875</LatitudeDegrees>
              <LongitudeDegrees>-4.06893764622509479522705078125</LongitudeDegrees>
            </Position>
            <AltitudeMeters>1799</AltitudeMeters>
            <DistanceMeters>NAN</DistanceMeters>
          </Trackpoint>
          <Trackpoint>
            <Time>2018-12-30T12:23:55.000Z</Time>
            <Position>
              <LatitudeDegrees>40.78832625411450862884521484375</LatitudeDegrees>
              <LongitudeDegrees>-4.06894468702375888824462890625</LongitudeDegrees>
            </Position>
            <AltitudeMeters>1799</AltitudeMeters>
            <DistanceMeters>NAN</DistanceMeters>
          </Trackpoint>
          <Trackpoint>
            <Time>2018-12-30T12:23:56.000Z</Time>
            <Position>
              <LatitudeDegrees>40.78831116668879985809326171875</LatitudeDegrees>
              <LongitudeDegrees>-4.068953655660152435302734375</LongitudeDegrees>
            </Position>
            <AltitudeMeters>1799</AltitudeMeters>
            <DistanceMeters>NAN</DistanceMeters>
          </Trackpoint>
          <Trackpoint>
            <Time>2018-12-30T12:23:57.000Z</Time>
            <Position>
              <LatitudeDegrees>40.78829255886375904083251953125</LatitudeDegrees>
              <LongitudeDegrees>-4.06896195374429225921630859375</LongitudeDegrees>
            </Position>
            <AltitudeMeters>1799</AltitudeMeters>
            <DistanceMeters>NAN</DistanceMeters>
          </Trackpoint>
          <Trackpoint>
            <Time>2018-12-30T12:23:58.000Z</Time>
            <Position>
              <LatitudeDegrees>40.78827780671417713165283203125</LatitudeDegrees>
              <LongitudeDegrees>-4.0689712576568126678466796875</LongitudeDegrees>
            </Position>
            <AltitudeMeters>1799</AltitudeMeters>
            <DistanceMeters>NAN</DistanceMeters>
          </Trackpoint>
          <Trackpoint>
            <Time>2018-12-30T12:23:59.000Z</Time>
            <Position>
              <LatitudeDegrees>40.78826540149748325347900390625</LatitudeDegrees>
              <LongitudeDegrees>-4.0689809806644916534423828125</LongitudeDegrees>
            </Position>
            <AltitudeMeters>1799.199951171875</AltitudeMeters>
            <DistanceMeters>NAN</DistanceMeters>
          </Trackpoint>
          <Trackpoint>
            <Time>2018-12-30T12:24:00.000Z</Time>
            <Position>
              <LatitudeDegrees>40.78825056552886962890625</LatitudeDegrees>
              <LongitudeDegrees>-4.06898911111056804656982421875</LongitudeDegrees>
            </Position>
            <AltitudeMeters>1799.199951171875</AltitudeMeters>
            <DistanceMeters>NAN</DistanceMeters>
          </Trackpoint>
          <Trackpoint>
            <Time>2018-12-30T12:24:01.000Z</Time>
            <Position>
              <LatitudeDegrees>40.788238830864429473876953125</LatitudeDegrees>
              <LongitudeDegrees>-4.068999253213405609130859375</LongitudeDegrees>
            </Position>
            <AltitudeMeters>1799.199951171875</AltitudeMeters>
            <DistanceMeters>NAN</DistanceMeters>
          </Trackpoint>
          <Trackpoint>
            <Time>2018-12-30T12:24:02.000Z</Time>
            <Position>
              <LatitudeDegrees>40.78822709619998931884765625</LatitudeDegrees>
              <LongitudeDegrees>-4.0690091438591480255126953125</LongitudeDegrees>
            </Position>
            <AltitudeMeters>1799.199951171875</AltitudeMeters>
            <DistanceMeters>NAN</DistanceMeters>
          </Trackpoint>
          <Trackpoint>
            <Time>2018-12-30T12:24:03.000Z</Time>
            <Position>
              <LatitudeDegrees>40.78821611590683460235595703125</LatitudeDegrees>
              <LongitudeDegrees>-4.06901962123811244964599609375</LongitudeDegrees>
            </Position>
            <AltitudeMeters>1799.199951171875</AltitudeMeters>
            <DistanceMeters>NAN</DistanceMeters>
          </Trackpoint>
          <Trackpoint>
            <Time>2018-12-30T12:24:04.000Z</Time>
            <Position>
              <LatitudeDegrees>40.78820656053721904754638671875</LatitudeDegrees>
              <LongitudeDegrees>-4.06902967952191829681396484375</LongitudeDegrees>
            </Position>
            <AltitudeMeters>1799</AltitudeMeters>
            <DistanceMeters>NAN</DistanceMeters>
          </Trackpoint>
          <Trackpoint>
            <Time>2018-12-30T12:24:05.000Z</Time>
            <Position>
              <LatitudeDegrees>40.78819625079631805419921875</LatitudeDegrees>
              <LongitudeDegrees>-4.0690399892628192901611328125</LongitudeDegrees>
            </Position>
            <AltitudeMeters>1798.800048828125</AltitudeMeters>
            <DistanceMeters>NAN</DistanceMeters>
          </Trackpoint>
          <Trackpoint>
            <Time>2018-12-30T12:24:06.000Z</Time>
            <Position>
              <LatitudeDegrees>40.78818644396960735321044921875</LatitudeDegrees>
              <LongitudeDegrees>-4.0690503828227519989013671875</LongitudeDegrees>
            </Position>
            <AltitudeMeters>1798.800048828125</AltitudeMeters>
            <DistanceMeters>NAN</DistanceMeters>
          </Trackpoint>
          <Trackpoint>
            <Time>2018-12-30T12:24:07.000Z</Time>
            <Position>
              <LatitudeDegrees>40.78817881643772125244140625</LatitudeDegrees>
              <LongitudeDegrees>-4.06906354241073131561279296875</LongitudeDegrees>
            </Position>
            <AltitudeMeters>1798.5999755859375</AltitudeMeters>
            <DistanceMeters>NAN</DistanceMeters>
          </Trackpoint>
          <Trackpoint>
            <Time>2018-12-30T12:24:08.000Z</Time>
            <Position>
              <LatitudeDegrees>40.7881749607622623443603515625</LatitudeDegrees>
              <LongitudeDegrees>-4.06907762400805950164794921875</LongitudeDegrees>
            </Position>
            <AltitudeMeters>1798.5999755859375</AltitudeMeters>
            <DistanceMeters>NAN</DistanceMeters>
          </Trackpoint>
          <Trackpoint>
            <Time>2018-12-30T12:24:09.000Z</Time>
            <Position>
              <LatitudeDegrees>40.7881669141352176666259765625</LatitudeDegrees>
              <LongitudeDegrees>-4.06909053213894367218017578125</LongitudeDegrees>
            </Position>
            <AltitudeMeters>1798.5999755859375</AltitudeMeters>
            <DistanceMeters>NAN</DistanceMeters>
          </Trackpoint>
          <Trackpoint>
            <Time>2018-12-30T12:24:10.000Z</Time>
            <Position>
              <LatitudeDegrees>40.78815777786076068878173828125</LatitudeDegrees>
              <LongitudeDegrees>-4.0691033564507961273193359375</LongitudeDegrees>
            </Position>
            <AltitudeMeters>1798.5999755859375</AltitudeMeters>
            <DistanceMeters>NAN</DistanceMeters>
          </Trackpoint>
          <Trackpoint>
            <Time>2018-12-30T12:24:11.000Z</Time>
            <Position>
              <LatitudeDegrees>40.78815065324306488037109375</LatitudeDegrees>
              <LongitudeDegrees>-4.069118611514568328857421875</LongitudeDegrees>
            </Position>
            <AltitudeMeters>1798.5999755859375</AltitudeMeters>
            <DistanceMeters>NAN</DistanceMeters>
          </Trackpoint>
          <Trackpoint>
            <Time>2018-12-30T12:24:12.000Z</Time>
            <Position>
              <LatitudeDegrees>40.7881414331495761871337890625</LatitudeDegrees>
              <LongitudeDegrees>-4.0691328607499599456787109375</LongitudeDegrees>
            </Position>
            <AltitudeMeters>1798.800048828125</AltitudeMeters>
            <DistanceMeters>NAN</DistanceMeters>
          </Trackpoint>
          <Trackpoint>
            <Time>2018-12-30T12:24:13.000Z</Time>
            <Position>
              <LatitudeDegrees>40.788127519190311431884765625</LatitudeDegrees>
              <LongitudeDegrees>-4.06914166174829006195068359375</LongitudeDegrees>
            </Position>
            <AltitudeMeters>1798.800048828125</AltitudeMeters>
            <DistanceMeters>NAN</DistanceMeters>
          </Trackpoint>
          <Trackpoint>
            <Time>2018-12-30T12:24:14.000Z</Time>
            <Position>
              <LatitudeDegrees>40.78811653889715671539306640625</LatitudeDegrees>
              <LongitudeDegrees>-4.06915255822241306304931640625</LongitudeDegrees>
            </Position>
            <AltitudeMeters>1798.800048828125</AltitudeMeters>
            <DistanceMeters>NAN</DistanceMeters>
          </Trackpoint>
          <Trackpoint>
            <Time>2018-12-30T12:24:15.000Z</Time>
            <Position>
              <LatitudeDegrees>40.78810279257595539093017578125</LatitudeDegrees>
              <LongitudeDegrees>-4.0691637061536312103271484375</LongitudeDegrees>
            </Position>
            <AltitudeMeters>1799</AltitudeMeters>
            <DistanceMeters>NAN</DistanceMeters>
          </Trackpoint>
          <Trackpoint>
            <Time>2018-12-30T12:24:16.000Z</Time>
            <Position>
              <LatitudeDegrees>40.78809122554957866668701171875</LatitudeDegrees>
              <LongitudeDegrees>-4.069173596799373626708984375</LongitudeDegrees>
            </Position>
            <AltitudeMeters>1799.199951171875</AltitudeMeters>
            <DistanceMeters>NAN</DistanceMeters>
          </Trackpoint>
          <Trackpoint>
            <Time>2018-12-30T12:24:17.000Z</Time>
            <Position>
              <LatitudeDegrees>40.78808133490383625030517578125</LatitudeDegrees>
              <LongitudeDegrees>-4.06918591819703578948974609375</LongitudeDegrees>
            </Position>
            <AltitudeMeters>1799.199951171875</AltitudeMeters>
            <DistanceMeters>NAN</DistanceMeters>
          </Trackpoint>
          <Trackpoint>
            <Time>2018-12-30T12:24:18.000Z</Time>
            <Position>
              <LatitudeDegrees>40.78807395882904529571533203125</LatitudeDegrees>
              <LongitudeDegrees>-4.06919782049953937530517578125</LongitudeDegrees>
            </Position>
            <AltitudeMeters>1799.199951171875</AltitudeMeters>
            <DistanceMeters>NAN</DistanceMeters>
          </Trackpoint>
          <Trackpoint>
            <Time>2018-12-30T12:24:19.000Z</Time>
            <Position>
              <LatitudeDegrees>40.788065157830715179443359375</LatitudeDegrees>
              <LongitudeDegrees>-4.069209136068820953369140625</LongitudeDegrees>
            </Position>
            <AltitudeMeters>1799.4000244140625</AltitudeMeters>
            <DistanceMeters>NAN</DistanceMeters>
          </Trackpoint>
          <Trackpoint>
            <Time>2018-12-30T12:24:20.000Z</Time>
            <Position>
              <LatitudeDegrees>40.7880542613565921783447265625</LatitudeDegrees>
              <LongitudeDegrees>-4.06921885907649993896484375</LongitudeDegrees>
            </Position>
            <AltitudeMeters>1799.4000244140625</AltitudeMeters>
            <DistanceMeters>NAN</DistanceMeters>
          </Trackpoint>
          <Trackpoint>
            <Time>2018-12-30T12:24:21.000Z</Time>
            <Position>
              <LatitudeDegrees>40.78804562799632549285888671875</LatitudeDegrees>
              <LongitudeDegrees>-4.0692300908267498016357421875</LongitudeDegrees>
            </Position>
            <AltitudeMeters>1799.4000244140625</AltitudeMeters>
            <DistanceMeters>NAN</DistanceMeters>
          </Trackpoint>
          <Trackpoint>
            <Time>2018-12-30T12:24:22.000Z</Time>
            <Position>
              <LatitudeDegrees>40.78803758136928081512451171875</LatitudeDegrees>
              <LongitudeDegrees>-4.06924207694828510284423828125</LongitudeDegrees>
            </Position>
            <AltitudeMeters>1799.4000244140625</AltitudeMeters>
            <DistanceMeters>NAN</DistanceMeters>
          </Trackpoint>
          <Trackpoint>
            <Time>2018-12-30T12:24:23.000Z</Time>
            <Position>
              <LatitudeDegrees>40.78802886418998241424560546875</LatitudeDegrees>
              <LongitudeDegrees>-4.069253392517566680908203125</LongitudeDegrees>
            </Position>
            <AltitudeMeters>1799.4000244140625</AltitudeMeters>
            <DistanceMeters>NAN</DistanceMeters>
          </Trackpoint>
          <Trackpoint>
            <Time>2018-12-30T12:24:24.000Z</Time>
            <Position>
              <LatitudeDegrees>40.78802115283906459808349609375</LatitudeDegrees>
              <LongitudeDegrees>-4.0692646242678165435791015625</LongitudeDegrees>
            </Position>
            <AltitudeMeters>1799.5999755859375</AltitudeMeters>
            <DistanceMeters>NAN</DistanceMeters>
          </Trackpoint>
          <Trackpoint>
            <Time>2018-12-30T12:24:25.000Z</Time>
            <Position>
              <LatitudeDegrees>40.78801394440233707427978515625</LatitudeDegrees>
              <LongitudeDegrees>-4.06927845440804958343505859375</LongitudeDegrees>
            </Position>
            <AltitudeMeters>1799.5999755859375</AltitudeMeters>
            <DistanceMeters>NAN</DistanceMeters>
          </Trackpoint>
          <Trackpoint>
            <Time>2018-12-30T12:24:26.000Z</Time>
            <Position>
              <LatitudeDegrees>40.788008160889148712158203125</LatitudeDegrees>
              <LongitudeDegrees>-4.06928985379636287689208984375</LongitudeDegrees>
            </Position>
            <AltitudeMeters>1799.800048828125</AltitudeMeters>
            <DistanceMeters>NAN</DistanceMeters>
          </Trackpoint>
          <Trackpoint>
            <Time>2018-12-30T12:24:27.000Z</Time>
            <Position>
              <LatitudeDegrees>40.788000114262104034423828125</LatitudeDegrees>
              <LongitudeDegrees>-4.0693015046417713165283203125</LongitudeDegrees>
            </Position>
            <AltitudeMeters>1799.800048828125</AltitudeMeters>
            <DistanceMeters>NAN</DistanceMeters>
          </Trackpoint>
          <Trackpoint>
            <Time>2018-12-30T12:24:28.000Z</Time>
            <Position>
              <LatitudeDegrees>40.78799106180667877197265625</LatitudeDegrees>
              <LongitudeDegrees>-4.0693129040300846099853515625</LongitudeDegrees>
            </Position>
            <AltitudeMeters>1799.800048828125</AltitudeMeters>
            <DistanceMeters>NAN</DistanceMeters>
          </Trackpoint>
          <Trackpoint>
            <Time>2018-12-30T12:24:29.000Z</Time>
            <Position>
              <LatitudeDegrees>40.7879825122654438018798828125</LatitudeDegrees>
              <LongitudeDegrees>-4.06932589598000049591064453125</LongitudeDegrees>
            </Position>
            <AltitudeMeters>1800</AltitudeMeters>
            <DistanceMeters>NAN</DistanceMeters>
          </Trackpoint>
          <Trackpoint>
            <Time>2018-12-30T12:24:30.000Z</Time>
            <Position>
              <LatitudeDegrees>40.787968933582305908203125</LatitudeDegrees>
              <LongitudeDegrees>-4.0693390555679798126220703125</LongitudeDegrees>
            </Position>
            <AltitudeMeters>1800</AltitudeMeters>
            <DistanceMeters>NAN</DistanceMeters>
          </Trackpoint>
          <Trackpoint>
            <Time>2018-12-30T12:24:31.000Z</Time>
            <Position>
              <LatitudeDegrees>40.7879560254514217376708984375</LatitudeDegrees>
              <LongitudeDegrees>-4.06934986822307109832763671875</LongitudeDegrees>
            </Position>
            <AltitudeMeters>1800</AltitudeMeters>
            <DistanceMeters>NAN</DistanceMeters>
          </Trackpoint>
          <Trackpoint>
            <Time>2018-12-30T12:24:32.000Z</Time>
            <Position>
              <LatitudeDegrees>40.7879416085779666900634765625</LatitudeDegrees>
              <LongitudeDegrees>-4.06935833394527435302734375</LongitudeDegrees>
            </Position>
            <AltitudeMeters>1800</AltitudeMeters>
            <DistanceMeters>NAN</DistanceMeters>
          </Trackpoint>
          <Trackpoint>
            <Time>2018-12-30T12:24:33.000Z</Time>
            <Position>
              <LatitudeDegrees>40.78792878426611423492431640625</LatitudeDegrees>
              <LongitudeDegrees>-4.06936747021973133087158203125</LongitudeDegrees>
            </Position>
            <AltitudeMeters>1800</AltitudeMeters>
            <DistanceMeters>NAN</DistanceMeters>
          </Trackpoint>
          <Trackpoint>
            <Time>2018-12-30T12:24:34.000Z</Time>
            <Position>
              <LatitudeDegrees>40.78791822306811809539794921875</LatitudeDegrees>
              <LongitudeDegrees>-4.06937710940837860107421875</LongitudeDegrees>
            </Position>
            <AltitudeMeters>1799.800048828125</AltitudeMeters>
            <DistanceMeters>NAN</DistanceMeters>
          </Trackpoint>
          <Trackpoint>
            <Time>2018-12-30T12:24:35.000Z</Time>
            <Position>
              <LatitudeDegrees>40.78790925443172454833984375</LatitudeDegrees>
              <LongitudeDegrees>-4.06938783824443817138671875</LongitudeDegrees>
            </Position>
            <AltitudeMeters>1799.800048828125</AltitudeMeters>
            <DistanceMeters>NAN</DistanceMeters>
          </Trackpoint>
          <Trackpoint>
            <Time>2018-12-30T12:24:36.000Z</Time>
            <Position>
              <LatitudeDegrees>40.78789911232888698577880859375</LatitudeDegrees>
              <LongitudeDegrees>-4.069396220147609710693359375</LongitudeDegrees>
            </Position>
            <AltitudeMeters>1799.800048828125</AltitudeMeters>
            <DistanceMeters>NAN</DistanceMeters>
          </Trackpoint>
          <Trackpoint>
            <Time>2018-12-30T12:24:37.000Z</Time>
            <Position>
              <LatitudeDegrees>40.78789089806377887725830078125</LatitudeDegrees>
              <LongitudeDegrees>-4.06940384767949581146240234375</LongitudeDegrees>
            </Position>
            <AltitudeMeters>1799.800048828125</AltitudeMeters>
            <DistanceMeters>NAN</DistanceMeters>
          </Trackpoint>
          <Trackpoint>
            <Time>2018-12-30T12:24:38.000Z</Time>
            <Position>
              <LatitudeDegrees>40.78788352198898792266845703125</LatitudeDegrees>
              <LongitudeDegrees>-4.06941105611622333526611328125</LongitudeDegrees>
            </Position>
            <AltitudeMeters>1799.5999755859375</AltitudeMeters>
            <DistanceMeters>NAN</DistanceMeters>
          </Trackpoint>
          <Trackpoint>
            <Time>2018-12-30T12:24:39.000Z</Time>
            <Position>
              <LatitudeDegrees>40.78787514008581638336181640625</LatitudeDegrees>
              <LongitudeDegrees>-4.06942044384777545928955078125</LongitudeDegrees>
            </Position>
            <AltitudeMeters>1799.5999755859375</AltitudeMeters>
            <DistanceMeters>NAN</DistanceMeters>
          </Trackpoint>
          <Trackpoint>
            <Time>2018-12-30T12:24:40.000Z</Time>
            <Position>
              <LatitudeDegrees>40.787866003811359405517578125</LatitudeDegrees>
              <LongitudeDegrees>-4.0694322623312473297119140625</LongitudeDegrees>
            </Position>
            <AltitudeMeters>1799.5999755859375</AltitudeMeters>
            <DistanceMeters>NAN</DistanceMeters>
          </Trackpoint>
          <Trackpoint>
            <Time>2018-12-30T12:24:41.000Z</Time>
            <Position>
              <LatitudeDegrees>40.78785619698464870452880859375</LatitudeDegrees>
              <LongitudeDegrees>-4.06944475136697292327880859375</LongitudeDegrees>
            </Position>
            <AltitudeMeters>1799.5999755859375</AltitudeMeters>
            <DistanceMeters>NAN</DistanceMeters>
          </Trackpoint>
          <Trackpoint>
            <Time>2018-12-30T12:24:42.000Z</Time>
            <Position>
              <LatitudeDegrees>40.78784488141536712646484375</LatitudeDegrees>
              <LongitudeDegrees>-4.0694537200033664703369140625</LongitudeDegrees>
            </Position>
            <AltitudeMeters>1799.800048828125</AltitudeMeters>
            <DistanceMeters>NAN</DistanceMeters>
          </Trackpoint>
          <Trackpoint>
            <Time>2018-12-30T12:24:43.000Z</Time>
            <Position>
              <LatitudeDegrees>40.7878363318741321563720703125</LatitudeDegrees>
              <LongitudeDegrees>-4.06946285627782344818115234375</LongitudeDegrees>
            </Position>
            <AltitudeMeters>1799.800048828125</AltitudeMeters>
            <DistanceMeters>NAN</DistanceMeters>
          </Trackpoint>
          <Trackpoint>
            <Time>2018-12-30T12:24:44.000Z</Time>
            <Position>
              <LatitudeDegrees>40.787824094295501708984375</LatitudeDegrees>
              <LongitudeDegrees>-4.06947190873324871063232421875</LongitudeDegrees>
            </Position>
            <AltitudeMeters>1800</AltitudeMeters>
            <DistanceMeters>NAN</DistanceMeters>
          </Trackpoint>
          <Trackpoint>
            <Time>2018-12-30T12:24:45.000Z</Time>
            <Position>
              <LatitudeDegrees>40.7878138683736324310302734375</LatitudeDegrees>
              <LongitudeDegrees>-4.0694828890264034271240234375</LongitudeDegrees>
            </Position>
            <AltitudeMeters>1800.199951171875</AltitudeMeters>
            <DistanceMeters>NAN</DistanceMeters>
          </Trackpoint>
          <Trackpoint>
            <Time>2018-12-30T12:24:46.000Z</Time>
            <Position>
              <LatitudeDegrees>40.787800289690494537353515625</LatitudeDegrees>
              <LongitudeDegrees>-4.06949378550052642822265625</LongitudeDegrees>
            </Position>
            <AltitudeMeters>1800.199951171875</AltitudeMeters>
            <DistanceMeters>NAN</DistanceMeters>
          </Trackpoint>
          <Trackpoint>
            <Time>2018-12-30T12:24:47.000Z</Time>
            <Position>
              <LatitudeDegrees>40.7877853699028491973876953125</LatitudeDegrees>
              <LongitudeDegrees>-4.0695043466985225677490234375</LongitudeDegrees>
            </Position>
            <AltitudeMeters>1800.199951171875</AltitudeMeters>
            <DistanceMeters>NAN</DistanceMeters>
          </Trackpoint>
          <Trackpoint>
            <Time>2018-12-30T12:24:48.000Z</Time>
            <Position>
              <LatitudeDegrees>40.78777254559099674224853515625</LatitudeDegrees>
              <LongitudeDegrees>-4.06951532699167728424072265625</LongitudeDegrees>
            </Position>
            <AltitudeMeters>1800.199951171875</AltitudeMeters>
            <DistanceMeters>NAN</DistanceMeters>
          </Trackpoint>
          <Trackpoint>
            <Time>2018-12-30T12:24:49.000Z</Time>
            <Position>
              <LatitudeDegrees>40.787760056555271148681640625</LatitudeDegrees>
              <LongitudeDegrees>-4.0695251338183879852294921875</LongitudeDegrees>
            </Position>
            <AltitudeMeters>1800.4000244140625</AltitudeMeters>
            <DistanceMeters>NAN</DistanceMeters>
          </Trackpoint>
          <Trackpoint>
            <Time>2018-12-30T12:24:50.000Z</Time>
            <Position>
              <LatitudeDegrees>40.78774840570986270904541015625</LatitudeDegrees>
              <LongitudeDegrees>-4.06953326426446437835693359375</LongitudeDegrees>
            </Position>
            <AltitudeMeters>1800.4000244140625</AltitudeMeters>
            <DistanceMeters>NAN</DistanceMeters>
          </Trackpoint>
          <Trackpoint>
            <Time>2018-12-30T12:24:51.000Z</Time>
            <Position>
              <LatitudeDegrees>40.7877350784838199615478515625</LatitudeDegrees>
              <LongitudeDegrees>-4.0695382095873355865478515625</LongitudeDegrees>
            </Position>
            <AltitudeMeters>1800.4000244140625</AltitudeMeters>
            <DistanceMeters>NAN</DistanceMeters>
          </Trackpoint>
          <Trackpoint>
            <Time>2018-12-30T12:24:52.000Z</Time>
            <Position>
              <LatitudeDegrees>40.78772376291453838348388671875</LatitudeDegrees>
              <LongitudeDegrees>-4.06954868696630001068115234375</LongitudeDegrees>
            </Position>
            <AltitudeMeters>1800.199951171875</AltitudeMeters>
            <DistanceMeters>NAN</DistanceMeters>
          </Trackpoint>
          <Trackpoint>
            <Time>2018-12-30T12:24:53.000Z</Time>
            <Position>
              <LatitudeDegrees>40.78771437518298625946044921875</LatitudeDegrees>
              <LongitudeDegrees>-4.06956343911588191986083984375</LongitudeDegrees>
            </Position>
            <AltitudeMeters>1800.199951171875</AltitudeMeters>
            <DistanceMeters>NAN</DistanceMeters>
          </Trackpoint>
          <Trackpoint>
            <Time>2018-12-30T12:24:54.000Z</Time>
            <Position>
              <LatitudeDegrees>40.7877106033265590667724609375</LatitudeDegrees>
              <LongitudeDegrees>-4.069577939808368682861328125</LongitudeDegrees>
            </Position>
            <AltitudeMeters>1800</AltitudeMeters>
            <DistanceMeters>NAN</DistanceMeters>
          </Trackpoint>
          <Trackpoint>
            <Time>2018-12-30T12:24:55.000Z</Time>
            <Position>
              <LatitudeDegrees>40.78769576735794544219970703125</LatitudeDegrees>
              <LongitudeDegrees>-4.0695881657302379608154296875</LongitudeDegrees>
            </Position>
            <AltitudeMeters>1800</AltitudeMeters>
            <DistanceMeters>NAN</DistanceMeters>
          </Trackpoint>
          <Trackpoint>
            <Time>2018-12-30T12:24:56.000Z</Time>
            <Position>
              <LatitudeDegrees>40.7876827754080295562744140625</LatitudeDegrees>
              <LongitudeDegrees>-4.06959428451955318450927734375</LongitudeDegrees>
            </Position>
            <AltitudeMeters>1800</AltitudeMeters>
            <DistanceMeters>NAN</DistanceMeters>
          </Trackpoint>
          <Trackpoint>
            <Time>2018-12-30T12:24:57.000Z</Time>
            <Position>
              <LatitudeDegrees>40.787669532001018524169921875</LatitudeDegrees>
              <LongitudeDegrees>-4.069602079689502716064453125</LongitudeDegrees>
            </Position>
            <AltitudeMeters>1800</AltitudeMeters>
            <DistanceMeters>NAN</DistanceMeters>
          </Trackpoint>
          <Trackpoint>
            <Time>2018-12-30T12:24:58.000Z</Time>
            <Position>
              <LatitudeDegrees>40.7876591384410858154296875</LatitudeDegrees>
              <LongitudeDegrees>-4.06961205415427684783935546875</LongitudeDegrees>
            </Position>
            <AltitudeMeters>1800</AltitudeMeters>
            <DistanceMeters>NAN</DistanceMeters>
          </Trackpoint>
          <Trackpoint>
            <Time>2018-12-30T12:24:59.000Z</Time>
            <Position>
              <LatitudeDegrees>40.7876485772430896759033203125</LatitudeDegrees>
              <LongitudeDegrees>-4.069620184600353240966796875</LongitudeDegrees>
            </Position>
            <AltitudeMeters>1800.199951171875</AltitudeMeters>
            <DistanceMeters>NAN</DistanceMeters>
          </Trackpoint>
          <Trackpoint>
            <Time>2018-12-30T12:25:00.000Z</Time>
            <Position>
              <LatitudeDegrees>40.7876375131309032440185546875</LatitudeDegrees>
              <LongitudeDegrees>-4.0696280635893344879150390625</LongitudeDegrees>
            </Position>
            <AltitudeMeters>1800.199951171875</AltitudeMeters>
            <DistanceMeters>NAN</DistanceMeters>
          </Trackpoint>
          <Trackpoint>
            <Time>2018-12-30T12:25:01.000Z</Time>
            <Position>
              <LatitudeDegrees>40.78762737102806568145751953125</LatitudeDegrees>
              <LongitudeDegrees>-4.0696344338357448577880859375</LongitudeDegrees>
            </Position>
            <AltitudeMeters>1800.4000244140625</AltitudeMeters>
            <DistanceMeters>NAN</DistanceMeters>
          </Trackpoint>
          <Trackpoint>
            <Time>2018-12-30T12:25:02.000Z</Time>
            <Position>
              <LatitudeDegrees>40.787616558372974395751953125</LatitudeDegrees>
              <LongitudeDegrees>-4.06964457593858242034912109375</LongitudeDegrees>
            </Position>
            <AltitudeMeters>1800.4000244140625</AltitudeMeters>
            <DistanceMeters>NAN</DistanceMeters>
          </Trackpoint>
          <Trackpoint>
            <Time>2018-12-30T12:25:03.000Z</Time>
            <Position>
              <LatitudeDegrees>40.78760708682239055633544921875</LatitudeDegrees>
              <LongitudeDegrees>-4.06965672969818115234375</LongitudeDegrees>
            </Position>
            <AltitudeMeters>1800.5999755859375</AltitudeMeters>
            <DistanceMeters>NAN</DistanceMeters>
          </Trackpoint>
          <Trackpoint>
            <Time>2018-12-30T12:25:04.000Z</Time>
            <Position>
              <LatitudeDegrees>40.7876028120517730712890625</LatitudeDegrees>
              <LongitudeDegrees>-4.06967072747647762298583984375</LongitudeDegrees>
            </Position>
            <AltitudeMeters>1800.800048828125</AltitudeMeters>
            <DistanceMeters>NAN</DistanceMeters>
          </Trackpoint>
          <Trackpoint>
            <Time>2018-12-30T12:25:05.000Z</Time>
            <Position>
              <LatitudeDegrees>40.787592418491840362548828125</LatitudeDegrees>
              <LongitudeDegrees>-4.06967894174158573150634765625</LongitudeDegrees>
            </Position>
            <AltitudeMeters>1800.800048828125</AltitudeMeters>
            <DistanceMeters>NAN</DistanceMeters>
          </Trackpoint>
          <Trackpoint>
            <Time>2018-12-30T12:25:06.000Z</Time>
            <Position>
              <LatitudeDegrees>40.7875848747789859771728515625</LatitudeDegrees>
              <LongitudeDegrees>-4.06969151459634304046630859375</LongitudeDegrees>
            </Position>
            <AltitudeMeters>1800.800048828125</AltitudeMeters>
            <DistanceMeters>NAN</DistanceMeters>
          </Trackpoint>
          <Trackpoint>
            <Time>2018-12-30T12:25:07.000Z</Time>
            <Position>
              <LatitudeDegrees>40.787576325237751007080078125</LatitudeDegrees>
              <LongitudeDegrees>-4.06970375217497348785400390625</LongitudeDegrees>
            </Position>
            <AltitudeMeters>1800.800048828125</AltitudeMeters>
            <DistanceMeters>NAN</DistanceMeters>
          </Trackpoint>
          <Trackpoint>
            <Time>2018-12-30T12:25:08.000Z</Time>
            <Position>
              <LatitudeDegrees>40.78756727278232574462890625</LatitudeDegrees>
              <LongitudeDegrees>-4.06971615739166736602783203125</LongitudeDegrees>
            </Position>
            <AltitudeMeters>1800.800048828125</AltitudeMeters>
            <DistanceMeters>NAN</DistanceMeters>
          </Trackpoint>
          <Trackpoint>
            <Time>2018-12-30T12:25:09.000Z</Time>
            <Position>
              <LatitudeDegrees>40.78755746595561504364013671875</LatitudeDegrees>
              <LongitudeDegrees>-4.06972856260836124420166015625</LongitudeDegrees>
            </Position>
            <AltitudeMeters>1800.800048828125</AltitudeMeters>
            <DistanceMeters>NAN</DistanceMeters>
          </Trackpoint>
          <Trackpoint>
            <Time>2018-12-30T12:25:10.000Z</Time>
            <Position>
              <LatitudeDegrees>40.78754791058599948883056640625</LatitudeDegrees>
              <LongitudeDegrees>-4.06974096782505512237548828125</LongitudeDegrees>
            </Position>
            <AltitudeMeters>1800.5999755859375</AltitudeMeters>
            <DistanceMeters>NAN</DistanceMeters>
          </Trackpoint>
          <Trackpoint>
            <Time>2018-12-30T12:25:11.000Z</Time>
            <Position>
              <LatitudeDegrees>40.787536762654781341552734375</LatitudeDegrees>
              <LongitudeDegrees>-4.06975219957530498504638671875</LongitudeDegrees>
            </Position>
            <AltitudeMeters>1800.5999755859375</AltitudeMeters>
            <DistanceMeters>NAN</DistanceMeters>
          </Trackpoint>
          <Trackpoint>
            <Time>2018-12-30T12:25:12.000Z</Time>
            <Position>
              <LatitudeDegrees>40.7875255309045314788818359375</LatitudeDegrees>
              <LongitudeDegrees>-4.06976334750652313232421875</LongitudeDegrees>
            </Position>
            <AltitudeMeters>1800.5999755859375</AltitudeMeters>
            <DistanceMeters>NAN</DistanceMeters>
          </Trackpoint>
          <Trackpoint>
            <Time>2018-12-30T12:25:13.000Z</Time>
            <Position>
              <LatitudeDegrees>40.78751186840236186981201171875</LatitudeDegrees>
              <LongitudeDegrees>-4.06977600418031215667724609375</LongitudeDegrees>
            </Position>
            <AltitudeMeters>1800.5999755859375</AltitudeMeters>
            <DistanceMeters>NAN</DistanceMeters>
          </Trackpoint>
          <Trackpoint>
            <Time>2018-12-30T12:25:14.000Z</Time>
            <Position>
              <LatitudeDegrees>40.78750197775661945343017578125</LatitudeDegrees>
              <LongitudeDegrees>-4.0697866491973400115966796875</LongitudeDegrees>
            </Position>
            <AltitudeMeters>1800.4000244140625</AltitudeMeters>
            <DistanceMeters>NAN</DistanceMeters>
          </Trackpoint>
          <Trackpoint>
            <Time>2018-12-30T12:25:15.000Z</Time>
            <Position>
              <LatitudeDegrees>40.78748890198767185211181640625</LatitudeDegrees>
              <LongitudeDegrees>-4.06979444436728954315185546875</LongitudeDegrees>
            </Position>
            <AltitudeMeters>1800.199951171875</AltitudeMeters>
            <DistanceMeters>NAN</DistanceMeters>
          </Trackpoint>
          <Trackpoint>
            <Time>2018-12-30T12:25:16.000Z</Time>
            <Position>
              <LatitudeDegrees>40.7874789275228977203369140625</LatitudeDegrees>
              <LongitudeDegrees>-4.069804251194000244140625</LongitudeDegrees>
            </Position>
            <AltitudeMeters>1800.199951171875</AltitudeMeters>
            <DistanceMeters>NAN</DistanceMeters>
          </Trackpoint>
          <Trackpoint>
            <Time>2018-12-30T12:25:17.000Z</Time>
            <Position>
              <LatitudeDegrees>40.78746962361037731170654296875</LatitudeDegrees>
              <LongitudeDegrees>-4.06981338746845722198486328125</LongitudeDegrees>
            </Position>
            <AltitudeMeters>1800.199951171875</AltitudeMeters>
            <DistanceMeters>NAN</DistanceMeters>
          </Trackpoint>
          <Trackpoint>
            <Time>2018-12-30T12:25:18.000Z</Time>
            <Position>
              <LatitudeDegrees>40.78745864331722259521484375</LatitudeDegrees>
              <LongitudeDegrees>-4.06982235610485076904296875</LongitudeDegrees>
            </Position>
            <AltitudeMeters>1800</AltitudeMeters>
            <DistanceMeters>NAN</DistanceMeters>
          </Trackpoint>
          <Trackpoint>
            <Time>2018-12-30T12:25:19.000Z</Time>
            <Position>
              <LatitudeDegrees>40.7874526083469390869140625</LatitudeDegrees>
              <LongitudeDegrees>-4.069832079112529754638671875</LongitudeDegrees>
            </Position>
            <AltitudeMeters>1800</AltitudeMeters>
            <DistanceMeters>NAN</DistanceMeters>
          </Trackpoint>
          <Trackpoint>
            <Time>2018-12-30T12:25:20.000Z</Time>
            <Position>
              <LatitudeDegrees>40.78743827529251575469970703125</LatitudeDegrees>
              <LongitudeDegrees>-4.06983719207346439361572265625</LongitudeDegrees>
            </Position>
            <AltitudeMeters>1800</AltitudeMeters>
            <DistanceMeters>NAN</DistanceMeters>
          </Trackpoint>
          <Trackpoint>
            <Time>2018-12-30T12:25:21.000Z</Time>
            <Position>
              <LatitudeDegrees>40.78742201440036296844482421875</LatitudeDegrees>
              <LongitudeDegrees>-4.06984205357730388641357421875</LongitudeDegrees>
            </Position>
            <AltitudeMeters>1800</AltitudeMeters>
            <DistanceMeters>NAN</DistanceMeters>
          </Trackpoint>
          <Trackpoint>
            <Time>2018-12-30T12:25:22.000Z</Time>
            <Position>
              <LatitudeDegrees>40.78740692697465419769287109375</LatitudeDegrees>
              <LongitudeDegrees>-4.0698503516614437103271484375</LongitudeDegrees>
            </Position>
            <AltitudeMeters>1800.199951171875</AltitudeMeters>
            <DistanceMeters>NAN</DistanceMeters>
          </Trackpoint>
          <Trackpoint>
            <Time>2018-12-30T12:25:23.000Z</Time>
            <Position>
              <LatitudeDegrees>40.7873935997486114501953125</LatitudeDegrees>
              <LongitudeDegrees>-4.06985781155526638031005859375</LongitudeDegrees>
            </Position>
            <AltitudeMeters>1800.199951171875</AltitudeMeters>
            <DistanceMeters>NAN</DistanceMeters>
          </Trackpoint>
          <Trackpoint>
            <Time>2018-12-30T12:25:24.000Z</Time>
            <Position>
              <LatitudeDegrees>40.78738278709352016448974609375</LatitudeDegrees>
              <LongitudeDegrees>-4.06986870802938938140869140625</LongitudeDegrees>
            </Position>
            <AltitudeMeters>1800.199951171875</AltitudeMeters>
            <DistanceMeters>NAN</DistanceMeters>
          </Trackpoint>
          <Trackpoint>
            <Time>2018-12-30T12:25:25.000Z</Time>
            <Position>
              <LatitudeDegrees>40.78737742267549037933349609375</LatitudeDegrees>
              <LongitudeDegrees>-4.0698806941509246826171875</LongitudeDegrees>
            </Position>
            <AltitudeMeters>1800.4000244140625</AltitudeMeters>
            <DistanceMeters>NAN</DistanceMeters>
          </Trackpoint>
          <Trackpoint>
            <Time>2018-12-30T12:25:26.000Z</Time>
            <Position>
              <LatitudeDegrees>40.78736878931522369384765625</LatitudeDegrees>
              <LongitudeDegrees>-4.0698922611773014068603515625</LongitudeDegrees>
            </Position>
            <AltitudeMeters>1800.5999755859375</AltitudeMeters>
            <DistanceMeters>NAN</DistanceMeters>
          </Trackpoint>
          <Trackpoint>
            <Time>2018-12-30T12:25:27.000Z</Time>
            <Position>
              <LatitudeDegrees>40.78735965304076671600341796875</LatitudeDegrees>
              <LongitudeDegrees>-4.06990139745175838470458984375</LongitudeDegrees>
            </Position>
            <AltitudeMeters>1800.5999755859375</AltitudeMeters>
            <DistanceMeters>NAN</DistanceMeters>
          </Trackpoint>
          <Trackpoint>
            <Time>2018-12-30T12:25:28.000Z</Time>
            <Position>
              <LatitudeDegrees>40.78735177405178546905517578125</LatitudeDegrees>
              <LongitudeDegrees>-4.06991430558264255523681640625</LongitudeDegrees>
            </Position>
            <AltitudeMeters>1800.800048828125</AltitudeMeters>
            <DistanceMeters>NAN</DistanceMeters>
          </Trackpoint>
          <Trackpoint>
            <Time>2018-12-30T12:25:29.000Z</Time>
            <Position>
              <LatitudeDegrees>40.7873453199863433837890625</LatitudeDegrees>
              <LongitudeDegrees>-4.0699271298944950103759765625</LongitudeDegrees>
            </Position>
            <AltitudeMeters>1800.800048828125</AltitudeMeters>
            <DistanceMeters>NAN</DistanceMeters>
          </Trackpoint>
          <Trackpoint>
            <Time>2018-12-30T12:25:30.000Z</Time>
            <Position>
              <LatitudeDegrees>40.78733928501605987548828125</LatitudeDegrees>
              <LongitudeDegrees>-4.06993903219699859619140625</LongitudeDegrees>
            </Position>
            <AltitudeMeters>1800.800048828125</AltitudeMeters>
            <DistanceMeters>NAN</DistanceMeters>
          </Trackpoint>
          <Trackpoint>
            <Time>2018-12-30T12:25:31.000Z</Time>
            <Position>
              <LatitudeDegrees>40.7873327471315860748291015625</LatitudeDegrees>
              <LongitudeDegrees>-4.06994682736694812774658203125</LongitudeDegrees>
            </Position>
            <AltitudeMeters>1801</AltitudeMeters>
            <DistanceMeters>NAN</DistanceMeters>
          </Trackpoint>
          <Trackpoint>
            <Time>2018-12-30T12:25:32.000Z</Time>
            <Position>
              <LatitudeDegrees>40.78732294030487537384033203125</LatitudeDegrees>
              <LongitudeDegrees>-4.069954119622707366943359375</LongitudeDegrees>
            </Position>
            <AltitudeMeters>1801</AltitudeMeters>
            <DistanceMeters>NAN</DistanceMeters>
          </Trackpoint>
          <Trackpoint>
            <Time>2018-12-30T12:25:33.000Z</Time>
            <Position>
              <LatitudeDegrees>40.78731221146881580352783203125</LatitudeDegrees>
              <LongitudeDegrees>-4.0699599869549274444580078125</LongitudeDegrees>
            </Position>
            <AltitudeMeters>1800.800048828125</AltitudeMeters>
            <DistanceMeters>NAN</DistanceMeters>
          </Trackpoint>
          <Trackpoint>
            <Time>2018-12-30T12:25:34.000Z</Time>
            <Position>
              <LatitudeDegrees>40.787300057709217071533203125</LatitudeDegrees>
              <LongitudeDegrees>-4.0699680335819721221923828125</LongitudeDegrees>
            </Position>
            <AltitudeMeters>1800.800048828125</AltitudeMeters>
            <DistanceMeters>NAN</DistanceMeters>
          </Trackpoint>
          <Trackpoint>
            <Time>2018-12-30T12:25:35.000Z</Time>
            <Position>
              <LatitudeDegrees>40.78728941269218921661376953125</LatitudeDegrees>
              <LongitudeDegrees>-4.0699797682464122772216796875</LongitudeDegrees>
            </Position>
            <AltitudeMeters>1800.800048828125</AltitudeMeters>
            <DistanceMeters>NAN</DistanceMeters>
          </Trackpoint>
          <Trackpoint>
            <Time>2018-12-30T12:25:36.000Z</Time>
            <Position>
              <LatitudeDegrees>40.7872760854661464691162109375</LatitudeDegrees>
              <LongitudeDegrees>-4.06998856924474239349365234375</LongitudeDegrees>
            </Position>
            <AltitudeMeters>1800.800048828125</AltitudeMeters>
            <DistanceMeters>NAN</DistanceMeters>
          </Trackpoint>
          <Trackpoint>
            <Time>2018-12-30T12:25:37.000Z</Time>
            <Position>
              <LatitudeDegrees>40.7872636802494525909423828125</LatitudeDegrees>
              <LongitudeDegrees>-4.069997034966945648193359375</LongitudeDegrees>
            </Position>
            <AltitudeMeters>1800.800048828125</AltitudeMeters>
            <DistanceMeters>NAN</DistanceMeters>
          </Trackpoint>
          <Trackpoint>
            <Time>2018-12-30T12:25:38.000Z</Time>
            <Position>
              <LatitudeDegrees>40.78725186176598072052001953125</LatitudeDegrees>
              <LongitudeDegrees>-4.070006422698497772216796875</LongitudeDegrees>
            </Position>
            <AltitudeMeters>1800.800048828125</AltitudeMeters>
            <DistanceMeters>NAN</DistanceMeters>
          </Trackpoint>
          <Trackpoint>
            <Time>2018-12-30T12:25:39.000Z</Time>
            <Position>
              <LatitudeDegrees>40.78724264167249202728271484375</LatitudeDegrees>
              <LongitudeDegrees>-4.07001681625843048095703125</LongitudeDegrees>
            </Position>
            <AltitudeMeters>1801</AltitudeMeters>
            <DistanceMeters>NAN</DistanceMeters>
          </Trackpoint>
          <Trackpoint>
            <Time>2018-12-30T12:25:40.000Z</Time>
            <Position>
              <LatitudeDegrees>40.78723124228417873382568359375</LatitudeDegrees>
              <LongitudeDegrees>-4.070027209818363189697265625</LongitudeDegrees>
            </Position>
            <AltitudeMeters>1801</AltitudeMeters>
            <DistanceMeters>NAN</DistanceMeters>
          </Trackpoint>
          <Trackpoint>
            <Time>2018-12-30T12:25:41.000Z</Time>
            <Position>
              <LatitudeDegrees>40.7872184179723262786865234375</LatitudeDegrees>
              <LongitudeDegrees>-4.07003961503505706787109375</LongitudeDegrees>
            </Position>
            <AltitudeMeters>1801.199951171875</AltitudeMeters>
            <DistanceMeters>NAN</DistanceMeters>
          </Trackpoint>
          <Trackpoint>
            <Time>2018-12-30T12:25:42.000Z</Time>
            <Position>
              <LatitudeDegrees>40.78720810823142528533935546875</LatitudeDegrees>
              <LongitudeDegrees>-4.070051349699497222900390625</LongitudeDegrees>
            </Position>
            <AltitudeMeters>1801.199951171875</AltitudeMeters>
            <DistanceMeters>NAN</DistanceMeters>
          </Trackpoint>
          <Trackpoint>
            <Time>2018-12-30T12:25:43.000Z</Time>
            <Position>
              <LatitudeDegrees>40.7872003130614757537841796875</LatitudeDegrees>
              <LongitudeDegrees>-4.07006266526877880096435546875</LongitudeDegrees>
            </Position>
            <AltitudeMeters>1801.199951171875</AltitudeMeters>
            <DistanceMeters>NAN</DistanceMeters>
          </Trackpoint>
          <Trackpoint>
            <Time>2018-12-30T12:25:44.000Z</Time>
            <Position>
              <LatitudeDegrees>40.78719042241573333740234375</LatitudeDegrees>
              <LongitudeDegrees>-4.0700756572186946868896484375</LongitudeDegrees>
            </Position>
            <AltitudeMeters>1801.4000244140625</AltitudeMeters>
            <DistanceMeters>NAN</DistanceMeters>
          </Trackpoint>
          <Trackpoint>
            <Time>2018-12-30T12:25:45.000Z</Time>
            <Position>
              <LatitudeDegrees>40.787180364131927490234375</LatitudeDegrees>
              <LongitudeDegrees>-4.0700880624353885650634765625</LongitudeDegrees>
            </Position>
            <AltitudeMeters>1801.4000244140625</AltitudeMeters>
            <DistanceMeters>NAN</DistanceMeters>
          </Trackpoint>
          <Trackpoint>
            <Time>2018-12-30T12:25:46.000Z</Time>
            <Position>
              <LatitudeDegrees>40.7871704734861850738525390625</LatitudeDegrees>
              <LongitudeDegrees>-4.070099629461765289306640625</LongitudeDegrees>
            </Position>
            <AltitudeMeters>1801.5999755859375</AltitudeMeters>
            <DistanceMeters>NAN</DistanceMeters>
          </Trackpoint>
          <Trackpoint>
            <Time>2018-12-30T12:25:47.000Z</Time>
            <Position>
              <LatitudeDegrees>40.78716318123042583465576171875</LatitudeDegrees>
              <LongitudeDegrees>-4.070112369954586029052734375</LongitudeDegrees>
            </Position>
            <AltitudeMeters>1801.800048828125</AltitudeMeters>
            <DistanceMeters>NAN</DistanceMeters>
          </Trackpoint>
          <Trackpoint>
            <Time>2018-12-30T12:25:48.000Z</Time>
            <Position>
              <LatitudeDegrees>40.7871594093739986419677734375</LatitudeDegrees>
              <LongitudeDegrees>-4.07012586481869220733642578125</LongitudeDegrees>
            </Position>
            <AltitudeMeters>1802</AltitudeMeters>
            <DistanceMeters>NAN</DistanceMeters>
          </Trackpoint>
          <Trackpoint>
            <Time>2018-12-30T12:25:49.000Z</Time>
            <Position>
              <LatitudeDegrees>40.78715345822274684906005859375</LatitudeDegrees>
              <LongitudeDegrees>-4.070139192044734954833984375</LongitudeDegrees>
            </Position>
            <AltitudeMeters>1802.199951171875</AltitudeMeters>
            <DistanceMeters>NAN</DistanceMeters>
          </Trackpoint>
          <Trackpoint>
            <Time>2018-12-30T12:25:50.000Z</Time>
            <Position>
              <LatitudeDegrees>40.7871547155082225799560546875</LatitudeDegrees>
              <LongitudeDegrees>-4.07015453092753887176513671875</LongitudeDegrees>
            </Position>
            <AltitudeMeters>1802.199951171875</AltitudeMeters>
            <DistanceMeters>NAN</DistanceMeters>
          </Trackpoint>
          <Trackpoint>
            <Time>2018-12-30T12:25:51.000Z</Time>
            <Position>
              <LatitudeDegrees>40.78715262003242969512939453125</LatitudeDegrees>
              <LongitudeDegrees>-4.0701705403625965118408203125</LongitudeDegrees>
            </Position>
            <AltitudeMeters>1802.199951171875</AltitudeMeters>
            <DistanceMeters>NAN</DistanceMeters>
          </Trackpoint>
          <Trackpoint>
            <Time>2018-12-30T12:25:52.000Z</Time>
            <Position>
              <LatitudeDegrees>40.78714675270020961761474609375</LatitudeDegrees>
              <LongitudeDegrees>-4.0701842866837978363037109375</LongitudeDegrees>
            </Position>
            <AltitudeMeters>1802.199951171875</AltitudeMeters>
            <DistanceMeters>NAN</DistanceMeters>
          </Trackpoint>
          <Trackpoint>
            <Time>2018-12-30T12:25:53.000Z</Time>
            <Position>
              <LatitudeDegrees>40.787137113511562347412109375</LatitudeDegrees>
              <LongitudeDegrees>-4.07019920647144317626953125</LongitudeDegrees>
            </Position>
            <AltitudeMeters>1802</AltitudeMeters>
            <DistanceMeters>NAN</DistanceMeters>
          </Trackpoint>
          <Trackpoint>
            <Time>2018-12-30T12:25:54.000Z</Time>
            <Position>
              <LatitudeDegrees>40.7871295697987079620361328125</LatitudeDegrees>
              <LongitudeDegrees>-4.07021404244005680084228515625</LongitudeDegrees>
            </Position>
            <AltitudeMeters>1802</AltitudeMeters>
            <DistanceMeters>NAN</DistanceMeters>
          </Trackpoint>
          <Trackpoint>
            <Time>2018-12-30T12:25:55.000Z</Time>
            <Position>
              <LatitudeDegrees>40.78712177462875843048095703125</LatitudeDegrees>
              <LongitudeDegrees>-4.07022762112319469451904296875</LongitudeDegrees>
            </Position>
            <AltitudeMeters>1802</AltitudeMeters>
            <DistanceMeters>NAN</DistanceMeters>
          </Trackpoint>
          <Trackpoint>
            <Time>2018-12-30T12:25:56.000Z</Time>
            <Position>
              <LatitudeDegrees>40.78711389563977718353271484375</LatitudeDegrees>
              <LongitudeDegrees>-4.07024505548179149627685546875</LongitudeDegrees>
            </Position>
            <AltitudeMeters>1802</AltitudeMeters>
            <DistanceMeters>NAN</DistanceMeters>
          </Trackpoint>
          <Trackpoint>
            <Time>2018-12-30T12:25:57.000Z</Time>
            <Position>
              <LatitudeDegrees>40.787106938660144805908203125</LatitudeDegrees>
              <LongitudeDegrees>-4.07025997526943683624267578125</LongitudeDegrees>
            </Position>
            <AltitudeMeters>1802</AltitudeMeters>
            <DistanceMeters>NAN</DistanceMeters>
          </Trackpoint>
          <Trackpoint>
            <Time>2018-12-30T12:25:58.000Z</Time>
            <Position>
              <LatitudeDegrees>40.78709880821406841278076171875</LatitudeDegrees>
              <LongitudeDegrees>-4.07027338631451129913330078125</LongitudeDegrees>
            </Position>
            <AltitudeMeters>1802</AltitudeMeters>
            <DistanceMeters>NAN</DistanceMeters>
          </Trackpoint>
          <Trackpoint>
            <Time>2018-12-30T12:25:59.000Z</Time>
            <Position>
              <LatitudeDegrees>40.78709260560572147369384765625</LatitudeDegrees>
              <LongitudeDegrees>-4.0702872164547443389892578125</LongitudeDegrees>
            </Position>
            <AltitudeMeters>1802.199951171875</AltitudeMeters>
            <DistanceMeters>NAN</DistanceMeters>
          </Trackpoint>
          <Trackpoint>
            <Time>2018-12-30T12:26:00.000Z</Time>
            <Position>
              <LatitudeDegrees>40.78707902692258358001708984375</LatitudeDegrees>
              <LongitudeDegrees>-4.07030045986175537109375</LongitudeDegrees>
            </Position>
            <AltitudeMeters>1802.4000244140625</AltitudeMeters>
            <DistanceMeters>NAN</DistanceMeters>
          </Trackpoint>
          <Trackpoint>
            <Time>2018-12-30T12:26:01.000Z</Time>
            <Position>
              <LatitudeDegrees>40.78706595115363597869873046875</LatitudeDegrees>
              <LongitudeDegrees>-4.0703103505074977874755859375</LongitudeDegrees>
            </Position>
            <AltitudeMeters>1802.5999755859375</AltitudeMeters>
            <DistanceMeters>NAN</DistanceMeters>
          </Trackpoint>
          <Trackpoint>
            <Time>2018-12-30T12:26:02.000Z</Time>
            <Position>
              <LatitudeDegrees>40.78705170191824436187744140625</LatitudeDegrees>
              <LongitudeDegrees>-4.070322923362255096435546875</LongitudeDegrees>
            </Position>
            <AltitudeMeters>1802.800048828125</AltitudeMeters>
            <DistanceMeters>NAN</DistanceMeters>
          </Trackpoint>
          <Trackpoint>
            <Time>2018-12-30T12:26:03.000Z</Time>
            <Position>
              <LatitudeDegrees>40.787040889263153076171875</LatitudeDegrees>
              <LongitudeDegrees>-4.0703344903886318206787109375</LongitudeDegrees>
            </Position>
            <AltitudeMeters>1803</AltitudeMeters>
            <DistanceMeters>NAN</DistanceMeters>
          </Trackpoint>
          <Trackpoint>
            <Time>2018-12-30T12:26:04.000Z</Time>
            <Position>
              <LatitudeDegrees>40.787031166255474090576171875</LatitudeDegrees>
              <LongitudeDegrees>-4.07034672796726226806640625</LongitudeDegrees>
            </Position>
            <AltitudeMeters>1803.199951171875</AltitudeMeters>
            <DistanceMeters>NAN</DistanceMeters>
          </Trackpoint>
          <Trackpoint>
            <Time>2018-12-30T12:26:05.000Z</Time>
            <Position>
              <LatitudeDegrees>40.7870207726955413818359375</LatitudeDegrees>
              <LongitudeDegrees>-4.0703594684600830078125</LongitudeDegrees>
            </Position>
            <AltitudeMeters>1803.4000244140625</AltitudeMeters>
            <DistanceMeters>NAN</DistanceMeters>
          </Trackpoint>
          <Trackpoint>
            <Time>2018-12-30T12:26:06.000Z</Time>
            <Position>
              <LatitudeDegrees>40.787010379135608673095703125</LatitudeDegrees>
              <LongitudeDegrees>-4.0703710354864597320556640625</LongitudeDegrees>
            </Position>
            <AltitudeMeters>1803.5999755859375</AltitudeMeters>
            <DistanceMeters>NAN</DistanceMeters>
          </Trackpoint>
          <Trackpoint>
            <Time>2018-12-30T12:26:07.000Z</Time>
            <Position>
              <LatitudeDegrees>40.7870025001466274261474609375</LatitudeDegrees>
              <LongitudeDegrees>-4.07038352452218532562255859375</LongitudeDegrees>
            </Position>
            <AltitudeMeters>1803.5999755859375</AltitudeMeters>
            <DistanceMeters>NAN</DistanceMeters>
          </Trackpoint>
          <Trackpoint>
            <Time>2018-12-30T12:26:08.000Z</Time>
            <Position>
              <LatitudeDegrees>40.7869931124150753021240234375</LatitudeDegrees>
              <LongitudeDegrees>-4.070395343005657196044921875</LongitudeDegrees>
            </Position>
            <AltitudeMeters>1803.5999755859375</AltitudeMeters>
            <DistanceMeters>NAN</DistanceMeters>
          </Trackpoint>
          <Trackpoint>
            <Time>2018-12-30T12:26:09.000Z</Time>
            <Position>
              <LatitudeDegrees>40.78698649071156978607177734375</LatitudeDegrees>
              <LongitudeDegrees>-4.070408083498477935791015625</LongitudeDegrees>
            </Position>
            <AltitudeMeters>1803.5999755859375</AltitudeMeters>
            <DistanceMeters>NAN</DistanceMeters>
          </Trackpoint>
          <Trackpoint>
            <Time>2018-12-30T12:26:10.000Z</Time>
            <Position>
              <LatitudeDegrees>40.78697022981941699981689453125</LatitudeDegrees>
              <LongitudeDegrees>-4.0704176388680934906005859375</LongitudeDegrees>
            </Position>
            <AltitudeMeters>1803.5999755859375</AltitudeMeters>
            <DistanceMeters>NAN</DistanceMeters>
          </Trackpoint>
          <Trackpoint>
            <Time>2018-12-30T12:26:11.000Z</Time>
            <Position>
              <LatitudeDegrees>40.78695648349821567535400390625</LatitudeDegrees>
              <LongitudeDegrees>-4.0704323910176753997802734375</LongitudeDegrees>
            </Position>
            <AltitudeMeters>1803.4000244140625</AltitudeMeters>
            <DistanceMeters>NAN</DistanceMeters>
          </Trackpoint>
          <Trackpoint>
            <Time>2018-12-30T12:26:12.000Z</Time>
            <Position>
              <LatitudeDegrees>40.78694826923310756683349609375</LatitudeDegrees>
              <LongitudeDegrees>-4.07044856809079647064208984375</LongitudeDegrees>
            </Position>
            <AltitudeMeters>1803.199951171875</AltitudeMeters>
            <DistanceMeters>NAN</DistanceMeters>
          </Trackpoint>
          <Trackpoint>
            <Time>2018-12-30T12:26:13.000Z</Time>
            <Position>
              <LatitudeDegrees>40.78693267889320850372314453125</LatitudeDegrees>
              <LongitudeDegrees>-4.0704627335071563720703125</LongitudeDegrees>
            </Position>
            <AltitudeMeters>1803.199951171875</AltitudeMeters>
            <DistanceMeters>NAN</DistanceMeters>
          </Trackpoint>
          <Trackpoint>
            <Time>2018-12-30T12:26:14.000Z</Time>
            <Position>
              <LatitudeDegrees>40.78692144714295864105224609375</LatitudeDegrees>
              <LongitudeDegrees>-4.0704761445522308349609375</LongitudeDegrees>
            </Position>
            <AltitudeMeters>1803.199951171875</AltitudeMeters>
            <DistanceMeters>NAN</DistanceMeters>
          </Trackpoint>
          <Trackpoint>
            <Time>2018-12-30T12:26:15.000Z</Time>
            <Position>
              <LatitudeDegrees>40.786911807954311370849609375</LatitudeDegrees>
              <LongitudeDegrees>-4.070489890873432159423828125</LongitudeDegrees>
            </Position>
            <AltitudeMeters>1803.199951171875</AltitudeMeters>
            <DistanceMeters>NAN</DistanceMeters>
          </Trackpoint>
          <Trackpoint>
            <Time>2018-12-30T12:26:16.000Z</Time>
            <Position>
              <LatitudeDegrees>40.78690116293728351593017578125</LatitudeDegrees>
              <LongitudeDegrees>-4.07050229609012603759765625</LongitudeDegrees>
            </Position>
            <AltitudeMeters>1803.199951171875</AltitudeMeters>
            <DistanceMeters>NAN</DistanceMeters>
          </Trackpoint>
          <Trackpoint>
            <Time>2018-12-30T12:26:17.000Z</Time>
            <Position>
              <LatitudeDegrees>40.7868911884725093841552734375</LatitudeDegrees>
              <LongitudeDegrees>-4.07051277346909046173095703125</LongitudeDegrees>
            </Position>
            <AltitudeMeters>1803.199951171875</AltitudeMeters>
            <DistanceMeters>NAN</DistanceMeters>
          </Trackpoint>
          <Trackpoint>
            <Time>2018-12-30T12:26:18.000Z</Time>
            <Position>
              <LatitudeDegrees>40.78688054345548152923583984375</LatitudeDegrees>
              <LongitudeDegrees>-4.070524089038372039794921875</LongitudeDegrees>
            </Position>
            <AltitudeMeters>1803.199951171875</AltitudeMeters>
            <DistanceMeters>NAN</DistanceMeters>
          </Trackpoint>
          <Trackpoint>
            <Time>2018-12-30T12:26:19.000Z</Time>
            <Position>
              <LatitudeDegrees>40.7868717424571514129638671875</LatitudeDegrees>
              <LongitudeDegrees>-4.07054252922534942626953125</LongitudeDegrees>
            </Position>
            <AltitudeMeters>1803.4000244140625</AltitudeMeters>
            <DistanceMeters>NAN</DistanceMeters>
          </Trackpoint>
          <Trackpoint>
            <Time>2018-12-30T12:26:20.000Z</Time>
            <Position>
              <LatitudeDegrees>40.786862187087535858154296875</LatitudeDegrees>
              <LongitudeDegrees>-4.0705574490129947662353515625</LongitudeDegrees>
            </Position>
            <AltitudeMeters>1803.4000244140625</AltitudeMeters>
            <DistanceMeters>NAN</DistanceMeters>
          </Trackpoint>
          <Trackpoint>
            <Time>2018-12-30T12:26:21.000Z</Time>
            <Position>
              <LatitudeDegrees>40.78684802167117595672607421875</LatitudeDegrees>
              <LongitudeDegrees>-4.07057010568678379058837890625</LongitudeDegrees>
            </Position>
            <AltitudeMeters>1803.4000244140625</AltitudeMeters>
            <DistanceMeters>NAN</DistanceMeters>
          </Trackpoint>
          <Trackpoint>
            <Time>2018-12-30T12:26:22.000Z</Time>
            <Position>
              <LatitudeDegrees>40.7868331857025623321533203125</LatitudeDegrees>
              <LongitudeDegrees>-4.0705836005508899688720703125</LongitudeDegrees>
            </Position>
            <AltitudeMeters>1803.4000244140625</AltitudeMeters>
            <DistanceMeters>NAN</DistanceMeters>
          </Trackpoint>
          <Trackpoint>
            <Time>2018-12-30T12:26:23.000Z</Time>
            <Position>
              <LatitudeDegrees>40.786821283400058746337890625</LatitudeDegrees>
              <LongitudeDegrees>-4.0705990232527256011962890625</LongitudeDegrees>
            </Position>
            <AltitudeMeters>1803.4000244140625</AltitudeMeters>
            <DistanceMeters>NAN</DistanceMeters>
          </Trackpoint>
          <Trackpoint>
            <Time>2018-12-30T12:26:24.000Z</Time>
            <Position>
              <LatitudeDegrees>40.78681197948753833770751953125</LatitudeDegrees>
              <LongitudeDegrees>-4.07061402685940265655517578125</LongitudeDegrees>
            </Position>
            <AltitudeMeters>1803.5999755859375</AltitudeMeters>
            <DistanceMeters>NAN</DistanceMeters>
          </Trackpoint>
          <Trackpoint>
            <Time>2018-12-30T12:26:25.000Z</Time>
            <Position>
              <LatitudeDegrees>40.78680762089788913726806640625</LatitudeDegrees>
              <LongitudeDegrees>-4.07062835991382598876953125</LongitudeDegrees>
            </Position>
            <AltitudeMeters>1803.800048828125</AltitudeMeters>
            <DistanceMeters>NAN</DistanceMeters>
          </Trackpoint>
          <Trackpoint>
            <Time>2018-12-30T12:26:26.000Z</Time>
            <Position>
              <LatitudeDegrees>40.78680292703211307525634765625</LatitudeDegrees>
              <LongitudeDegrees>-4.07064286060631275177001953125</LongitudeDegrees>
            </Position>
            <AltitudeMeters>1804.199951171875</AltitudeMeters>
            <DistanceMeters>NAN</DistanceMeters>
          </Trackpoint>
          <Trackpoint>
            <Time>2018-12-30T12:26:27.000Z</Time>
            <Position>
              <LatitudeDegrees>40.7867973111569881439208984375</LatitudeDegrees>
              <LongitudeDegrees>-4.07065811567008495330810546875</LongitudeDegrees>
            </Position>
            <AltitudeMeters>1804.4000244140625</AltitudeMeters>
            <DistanceMeters>NAN</DistanceMeters>
          </Trackpoint>
          <Trackpoint>
            <Time>2018-12-30T12:26:28.000Z</Time>
            <Position>
              <LatitudeDegrees>40.786790437996387481689453125</LatitudeDegrees>
              <LongitudeDegrees>-4.070674963295459747314453125</LongitudeDegrees>
            </Position>
            <AltitudeMeters>1804.5999755859375</AltitudeMeters>
            <DistanceMeters>NAN</DistanceMeters>
          </Trackpoint>
          <Trackpoint>
            <Time>2018-12-30T12:26:29.000Z</Time>
            <Position>
              <LatitudeDegrees>40.78678230755031108856201171875</LatitudeDegrees>
              <LongitudeDegrees>-4.07068929634988307952880859375</LongitudeDegrees>
            </Position>
            <AltitudeMeters>1804.5999755859375</AltitudeMeters>
            <DistanceMeters>NAN</DistanceMeters>
          </Trackpoint>
          <Trackpoint>
            <Time>2018-12-30T12:26:30.000Z</Time>
            <Position>
              <LatitudeDegrees>40.78677677549421787261962890625</LatitudeDegrees>
              <LongitudeDegrees>-4.070705808699131011962890625</LongitudeDegrees>
            </Position>
            <AltitudeMeters>1804.199951171875</AltitudeMeters>
            <DistanceMeters>NAN</DistanceMeters>
          </Trackpoint>
          <Trackpoint>
            <Time>2018-12-30T12:26:31.000Z</Time>
            <Position>
              <LatitudeDegrees>40.78677006997168064117431640625</LatitudeDegrees>
              <LongitudeDegrees>-4.07071980647742748260498046875</LongitudeDegrees>
            </Position>
            <AltitudeMeters>1803.800048828125</AltitudeMeters>
            <DistanceMeters>NAN</DistanceMeters>
          </Trackpoint>
          <Trackpoint>
            <Time>2018-12-30T12:26:32.000Z</Time>
            <Position>
              <LatitudeDegrees>40.78677241690456867218017578125</LatitudeDegrees>
              <LongitudeDegrees>-4.07073824666440486907958984375</LongitudeDegrees>
            </Position>
            <AltitudeMeters>1803.800048828125</AltitudeMeters>
            <DistanceMeters>NAN</DistanceMeters>
          </Trackpoint>
          <Trackpoint>
            <Time>2018-12-30T12:26:33.000Z</Time>
            <Position>
              <LatitudeDegrees>40.78676654957234859466552734375</LatitudeDegrees>
              <LongitudeDegrees>-4.0707532502710819244384765625</LongitudeDegrees>
            </Position>
            <AltitudeMeters>1803.5999755859375</AltitudeMeters>
            <DistanceMeters>NAN</DistanceMeters>
          </Trackpoint>
          <Trackpoint>
            <Time>2018-12-30T12:26:34.000Z</Time>
            <Position>
              <LatitudeDegrees>40.786759592592716217041015625</LatitudeDegrees>
              <LongitudeDegrees>-4.0707666613161563873291015625</LongitudeDegrees>
            </Position>
            <AltitudeMeters>1803.800048828125</AltitudeMeters>
            <DistanceMeters>NAN</DistanceMeters>
          </Trackpoint>
          <Trackpoint>
            <Time>2018-12-30T12:26:35.000Z</Time>
            <Position>
              <LatitudeDegrees>40.78675431199371814727783203125</LatitudeDegrees>
              <LongitudeDegrees>-4.0707814134657382965087890625</LongitudeDegrees>
            </Position>
            <AltitudeMeters>1803.800048828125</AltitudeMeters>
            <DistanceMeters>NAN</DistanceMeters>
          </Trackpoint>
          <Trackpoint>
            <Time>2018-12-30T12:26:36.000Z</Time>
            <Position>
              <LatitudeDegrees>40.78674525953829288482666015625</LatitudeDegrees>
              <LongitudeDegrees>-4.07079809345304965972900390625</LongitudeDegrees>
            </Position>
            <AltitudeMeters>1803.800048828125</AltitudeMeters>
            <DistanceMeters>NAN</DistanceMeters>
          </Trackpoint>
          <Trackpoint>
            <Time>2018-12-30T12:26:37.000Z</Time>
            <Position>
              <LatitudeDegrees>40.78673520125448703765869140625</LatitudeDegrees>
              <LongitudeDegrees>-4.07081116922199726104736328125</LongitudeDegrees>
            </Position>
            <AltitudeMeters>1803.800048828125</AltitudeMeters>
            <DistanceMeters>NAN</DistanceMeters>
          </Trackpoint>
          <Trackpoint>
            <Time>2018-12-30T12:26:38.000Z</Time>
            <Position>
              <LatitudeDegrees>40.78672505915164947509765625</LatitudeDegrees>
              <LongitudeDegrees>-4.07082072459161281585693359375</LongitudeDegrees>
            </Position>
            <AltitudeMeters>1803.800048828125</AltitudeMeters>
            <DistanceMeters>NAN</DistanceMeters>
          </Trackpoint>
          <Trackpoint>
            <Time>2018-12-30T12:26:39.000Z</Time>
            <Position>
              <LatitudeDegrees>40.78671189956367015838623046875</LatitudeDegrees>
              <LongitudeDegrees>-4.07083497382700443267822265625</LongitudeDegrees>
            </Position>
            <AltitudeMeters>1803.800048828125</AltitudeMeters>
            <DistanceMeters>NAN</DistanceMeters>
          </Trackpoint>
          <Trackpoint>
            <Time>2018-12-30T12:26:40.000Z</Time>
            <Position>
              <LatitudeDegrees>40.786702595651149749755859375</LatitudeDegrees>
              <LongitudeDegrees>-4.07084695994853973388671875</LongitudeDegrees>
            </Position>
            <AltitudeMeters>1803.5999755859375</AltitudeMeters>
            <DistanceMeters>NAN</DistanceMeters>
          </Trackpoint>
          <Trackpoint>
            <Time>2018-12-30T12:26:41.000Z</Time>
            <Position>
              <LatitudeDegrees>40.7866930402815341949462890625</LatitudeDegrees>
              <LongitudeDegrees>-4.07086229883134365081787109375</LongitudeDegrees>
            </Position>
            <AltitudeMeters>1803.5999755859375</AltitudeMeters>
            <DistanceMeters>NAN</DistanceMeters>
          </Trackpoint>
          <Trackpoint>
            <Time>2018-12-30T12:26:42.000Z</Time>
            <Position>
              <LatitudeDegrees>40.7866846583783626556396484375</LatitudeDegrees>
              <LongitudeDegrees>-4.0708786435425281524658203125</LongitudeDegrees>
            </Position>
            <AltitudeMeters>1803.4000244140625</AltitudeMeters>
            <DistanceMeters>NAN</DistanceMeters>
          </Trackpoint>
          <Trackpoint>
            <Time>2018-12-30T12:26:43.000Z</Time>
            <Position>
              <LatitudeDegrees>40.786673761904239654541015625</LatitudeDegrees>
              <LongitudeDegrees>-4.07088845036923885345458984375</LongitudeDegrees>
            </Position>
            <AltitudeMeters>1803.4000244140625</AltitudeMeters>
            <DistanceMeters>NAN</DistanceMeters>
          </Trackpoint>
          <Trackpoint>
            <Time>2018-12-30T12:26:44.000Z</Time>
            <Position>
              <LatitudeDegrees>40.78666211105883121490478515625</LatitudeDegrees>
              <LongitudeDegrees>-4.0708994306623935699462890625</LongitudeDegrees>
            </Position>
            <AltitudeMeters>1803.4000244140625</AltitudeMeters>
            <DistanceMeters>NAN</DistanceMeters>
          </Trackpoint>
          <Trackpoint>
            <Time>2018-12-30T12:26:45.000Z</Time>
            <Position>
              <LatitudeDegrees>40.78665138222277164459228515625</LatitudeDegrees>
              <LongitudeDegrees>-4.07091133296489715576171875</LongitudeDegrees>
            </Position>
            <AltitudeMeters>1803.199951171875</AltitudeMeters>
            <DistanceMeters>NAN</DistanceMeters>
          </Trackpoint>
          <Trackpoint>
            <Time>2018-12-30T12:26:46.000Z</Time>
            <Position>
              <LatitudeDegrees>40.786643587052822113037109375</LatitudeDegrees>
              <LongitudeDegrees>-4.070926420390605926513671875</LongitudeDegrees>
            </Position>
            <AltitudeMeters>1803</AltitudeMeters>
            <DistanceMeters>NAN</DistanceMeters>
          </Trackpoint>
          <Trackpoint>
            <Time>2018-12-30T12:26:47.000Z</Time>
            <Position>
              <LatitudeDegrees>40.78663612715899944305419921875</LatitudeDegrees>
              <LongitudeDegrees>-4.0709430165588855743408203125</LongitudeDegrees>
            </Position>
            <AltitudeMeters>1802.800048828125</AltitudeMeters>
            <DistanceMeters>NAN</DistanceMeters>
          </Trackpoint>
          <Trackpoint>
            <Time>2018-12-30T12:26:48.000Z</Time>
            <Position>
              <LatitudeDegrees>40.78663076274096965789794921875</LatitudeDegrees>
              <LongitudeDegrees>-4.07095919363200664520263671875</LongitudeDegrees>
            </Position>
            <AltitudeMeters>1802.800048828125</AltitudeMeters>
            <DistanceMeters>NAN</DistanceMeters>
          </Trackpoint>
          <Trackpoint>
            <Time>2018-12-30T12:26:49.000Z</Time>
            <Position>
              <LatitudeDegrees>40.7866251468658447265625</LatitudeDegrees>
              <LongitudeDegrees>-4.07097679562866687774658203125</LongitudeDegrees>
            </Position>
            <AltitudeMeters>1802.5999755859375</AltitudeMeters>
            <DistanceMeters>NAN</DistanceMeters>
          </Trackpoint>
          <Trackpoint>
            <Time>2018-12-30T12:26:50.000Z</Time>
            <Position>
              <LatitudeDegrees>40.78661978244781494140625</LatitudeDegrees>
              <LongitudeDegrees>-4.07099523581564426422119140625</LongitudeDegrees>
            </Position>
            <AltitudeMeters>1802.5999755859375</AltitudeMeters>
            <DistanceMeters>NAN</DistanceMeters>
          </Trackpoint>
          <Trackpoint>
            <Time>2018-12-30T12:26:51.000Z</Time>
            <Position>
              <LatitudeDegrees>40.7866149209439754486083984375</LatitudeDegrees>
              <LongitudeDegrees>-4.07101065851747989654541015625</LongitudeDegrees>
            </Position>
            <AltitudeMeters>1802.5999755859375</AltitudeMeters>
            <DistanceMeters>NAN</DistanceMeters>
          </Trackpoint>
          <Trackpoint>
            <Time>2018-12-30T12:26:52.000Z</Time>
            <Position>
              <LatitudeDegrees>40.7866088859736919403076171875</LatitudeDegrees>
              <LongitudeDegrees>-4.07102926634252071380615234375</LongitudeDegrees>
            </Position>
            <AltitudeMeters>1802.5999755859375</AltitudeMeters>
            <DistanceMeters>NAN</DistanceMeters>
          </Trackpoint>
          <Trackpoint>
            <Time>2018-12-30T12:26:53.000Z</Time>
            <Position>
              <LatitudeDegrees>40.78659757040441036224365234375</LatitudeDegrees>
              <LongitudeDegrees>-4.07104535959661006927490234375</LongitudeDegrees>
            </Position>
            <AltitudeMeters>1802.800048828125</AltitudeMeters>
            <DistanceMeters>NAN</DistanceMeters>
          </Trackpoint>
          <Trackpoint>
            <Time>2018-12-30T12:26:54.000Z</Time>
            <Position>
              <LatitudeDegrees>40.78658851794898509979248046875</LatitudeDegrees>
              <LongitudeDegrees>-4.07106094993650913238525390625</LongitudeDegrees>
            </Position>
            <AltitudeMeters>1802.800048828125</AltitudeMeters>
            <DistanceMeters>NAN</DistanceMeters>
          </Trackpoint>
          <Trackpoint>
            <Time>2018-12-30T12:26:55.000Z</Time>
            <Position>
              <LatitudeDegrees>40.78658114187419414520263671875</LatitudeDegrees>
              <LongitudeDegrees>-4.0710791386663913726806640625</LongitudeDegrees>
            </Position>
            <AltitudeMeters>1803</AltitudeMeters>
            <DistanceMeters>NAN</DistanceMeters>
          </Trackpoint>
          <Trackpoint>
            <Time>2018-12-30T12:26:56.000Z</Time>
            <Position>
              <LatitudeDegrees>40.7865713350474834442138671875</LatitudeDegrees>
              <LongitudeDegrees>-4.07109196297824382781982421875</LongitudeDegrees>
            </Position>
            <AltitudeMeters>1803</AltitudeMeters>
            <DistanceMeters>NAN</DistanceMeters>
          </Trackpoint>
          <Trackpoint>
            <Time>2018-12-30T12:26:57.000Z</Time>
            <Position>
              <LatitudeDegrees>40.7865639589726924896240234375</LatitudeDegrees>
              <LongitudeDegrees>-4.0711056254804134368896484375</LongitudeDegrees>
            </Position>
            <AltitudeMeters>1803</AltitudeMeters>
            <DistanceMeters>NAN</DistanceMeters>
          </Trackpoint>
          <Trackpoint>
            <Time>2018-12-30T12:26:58.000Z</Time>
            <Position>
              <LatitudeDegrees>40.7865596003830432891845703125</LatitudeDegrees>
              <LongitudeDegrees>-4.07112230546772480010986328125</LongitudeDegrees>
            </Position>
            <AltitudeMeters>1803</AltitudeMeters>
            <DistanceMeters>NAN</DistanceMeters>
          </Trackpoint>
          <Trackpoint>
            <Time>2018-12-30T12:26:59.000Z</Time>
            <Position>
              <LatitudeDegrees>40.78655884601175785064697265625</LatitudeDegrees>
              <LongitudeDegrees>-4.07114175148308277130126953125</LongitudeDegrees>
            </Position>
            <AltitudeMeters>1803</AltitudeMeters>
            <DistanceMeters>NAN</DistanceMeters>
          </Trackpoint>
          <Trackpoint>
            <Time>2018-12-30T12:27:00.000Z</Time>
            <Position>
              <LatitudeDegrees>40.786551721394062042236328125</LatitudeDegrees>
              <LongitudeDegrees>-4.0711589343845844268798828125</LongitudeDegrees>
            </Position>
            <AltitudeMeters>1803</AltitudeMeters>
            <DistanceMeters>NAN</DistanceMeters>
          </Trackpoint>
          <Trackpoint>
            <Time>2018-12-30T12:27:01.000Z</Time>
            <Position>
              <LatitudeDegrees>40.7865535654127597808837890625</LatitudeDegrees>
              <LongitudeDegrees>-4.07118416391313076019287109375</LongitudeDegrees>
            </Position>
            <AltitudeMeters>1803</AltitudeMeters>
            <DistanceMeters>NAN</DistanceMeters>
          </Trackpoint>
          <Trackpoint>
            <Time>2018-12-30T12:27:02.000Z</Time>
            <Position>
              <LatitudeDegrees>40.78655180521309375762939453125</LatitudeDegrees>
              <LongitudeDegrees>-4.0712058730423450469970703125</LongitudeDegrees>
            </Position>
            <AltitudeMeters>1802.800048828125</AltitudeMeters>
            <DistanceMeters>NAN</DistanceMeters>
          </Trackpoint>
          <Trackpoint>
            <Time>2018-12-30T12:27:03.000Z</Time>
            <Position>
              <LatitudeDegrees>40.786549039185047149658203125</LatitudeDegrees>
              <LongitudeDegrees>-4.07122649252414703369140625</LongitudeDegrees>
            </Position>
            <AltitudeMeters>1802.5999755859375</AltitudeMeters>
            <DistanceMeters>NAN</DistanceMeters>
          </Trackpoint>
          <Trackpoint>
            <Time>2018-12-30T12:27:04.000Z</Time>
            <Position>
              <LatitudeDegrees>40.786545015871524810791015625</LatitudeDegrees>
              <LongitudeDegrees>-4.071247279644012451171875</LongitudeDegrees>
            </Position>
            <AltitudeMeters>1802.5999755859375</AltitudeMeters>
            <DistanceMeters>NAN</DistanceMeters>
          </Trackpoint>
          <Trackpoint>
            <Time>2018-12-30T12:27:05.000Z</Time>
            <Position>
              <LatitudeDegrees>40.78653722070157527923583984375</LatitudeDegrees>
              <LongitudeDegrees>-4.07126261852681636810302734375</LongitudeDegrees>
            </Position>
            <AltitudeMeters>1802.4000244140625</AltitudeMeters>
            <DistanceMeters>NAN</DistanceMeters>
          </Trackpoint>
          <Trackpoint>
            <Time>2018-12-30T12:27:06.000Z</Time>
            <Position>
              <LatitudeDegrees>40.78653554432094097137451171875</LatitudeDegrees>
              <LongitudeDegrees>-4.071280471980571746826171875</LongitudeDegrees>
            </Position>
            <AltitudeMeters>1802.199951171875</AltitudeMeters>
            <DistanceMeters>NAN</DistanceMeters>
          </Trackpoint>
          <Trackpoint>
            <Time>2018-12-30T12:27:07.000Z</Time>
            <Position>
              <LatitudeDegrees>40.78653051517903804779052734375</LatitudeDegrees>
              <LongitudeDegrees>-4.07129815779626369476318359375</LongitudeDegrees>
            </Position>
            <AltitudeMeters>1802.199951171875</AltitudeMeters>
            <DistanceMeters>NAN</DistanceMeters>
          </Trackpoint>
          <Trackpoint>
            <Time>2018-12-30T12:27:08.000Z</Time>
            <Position>
              <LatitudeDegrees>40.7865237258374691009521484375</LatitudeDegrees>
              <LongitudeDegrees>-4.0713128261268138885498046875</LongitudeDegrees>
            </Position>
            <AltitudeMeters>1802.199951171875</AltitudeMeters>
            <DistanceMeters>NAN</DistanceMeters>
          </Trackpoint>
          <Trackpoint>
            <Time>2018-12-30T12:27:09.000Z</Time>
            <Position>
              <LatitudeDegrees>40.78651509247720241546630859375</LatitudeDegrees>
              <LongitudeDegrees>-4.07132581807672977447509765625</LongitudeDegrees>
            </Position>
            <AltitudeMeters>1802.199951171875</AltitudeMeters>
            <DistanceMeters>NAN</DistanceMeters>
          </Trackpoint>
          <Trackpoint>
            <Time>2018-12-30T12:27:10.000Z</Time>
            <Position>
              <LatitudeDegrees>40.78651693649590015411376953125</LatitudeDegrees>
              <LongitudeDegrees>-4.07134425826370716094970703125</LongitudeDegrees>
            </Position>
            <AltitudeMeters>1802.199951171875</AltitudeMeters>
            <DistanceMeters>NAN</DistanceMeters>
          </Trackpoint>
          <Trackpoint>
            <Time>2018-12-30T12:27:11.000Z</Time>
            <Position>
              <LatitudeDegrees>40.78651576302945613861083984375</LatitudeDegrees>
              <LongitudeDegrees>-4.0713657997548580169677734375</LongitudeDegrees>
            </Position>
            <AltitudeMeters>1802</AltitudeMeters>
            <DistanceMeters>NAN</DistanceMeters>
          </Trackpoint>
          <Trackpoint>
            <Time>2018-12-30T12:27:12.000Z</Time>
            <Position>
              <LatitudeDegrees>40.78650687821209430694580078125</LatitudeDegrees>
              <LongitudeDegrees>-4.0713812224566936492919921875</LongitudeDegrees>
            </Position>
            <AltitudeMeters>1802</AltitudeMeters>
            <DistanceMeters>NAN</DistanceMeters>
          </Trackpoint>
          <Trackpoint>
            <Time>2018-12-30T12:27:13.000Z</Time>
            <Position>
              <LatitudeDegrees>40.78649447299540042877197265625</LatitudeDegrees>
              <LongitudeDegrees>-4.071398489177227020263671875</LongitudeDegrees>
            </Position>
            <AltitudeMeters>1802</AltitudeMeters>
            <DistanceMeters>NAN</DistanceMeters>
          </Trackpoint>
          <Trackpoint>
            <Time>2018-12-30T12:27:14.000Z</Time>
            <Position>
              <LatitudeDegrees>40.78648793511092662811279296875</LatitudeDegrees>
              <LongitudeDegrees>-4.07141617499291896820068359375</LongitudeDegrees>
            </Position>
            <AltitudeMeters>1802.199951171875</AltitudeMeters>
            <DistanceMeters>NAN</DistanceMeters>
          </Trackpoint>
          <Trackpoint>
            <Time>2018-12-30T12:27:15.000Z</Time>
            <Position>
              <LatitudeDegrees>40.78648231923580169677734375</LatitudeDegrees>
              <LongitudeDegrees>-4.0714335255324840545654296875</LongitudeDegrees>
            </Position>
            <AltitudeMeters>1802.199951171875</AltitudeMeters>
            <DistanceMeters>NAN</DistanceMeters>
          </Trackpoint>
          <Trackpoint>
            <Time>2018-12-30T12:27:16.000Z</Time>
            <Position>
              <LatitudeDegrees>40.7864761166274547576904296875</LatitudeDegrees>
              <LongitudeDegrees>-4.0714479424059391021728515625</LongitudeDegrees>
            </Position>
            <AltitudeMeters>1802.199951171875</AltitudeMeters>
            <DistanceMeters>NAN</DistanceMeters>
          </Trackpoint>
          <Trackpoint>
            <Time>2018-12-30T12:27:17.000Z</Time>
            <Position>
              <LatitudeDegrees>40.786471255123615264892578125</LatitudeDegrees>
              <LongitudeDegrees>-4.07146210782229900360107421875</LongitudeDegrees>
            </Position>
            <AltitudeMeters>1802.4000244140625</AltitudeMeters>
            <DistanceMeters>NAN</DistanceMeters>
          </Trackpoint>
          <Trackpoint>
            <Time>2018-12-30T12:27:18.000Z</Time>
            <Position>
              <LatitudeDegrees>40.78646664507687091827392578125</LatitudeDegrees>
              <LongitudeDegrees>-4.07147551886737346649169921875</LongitudeDegrees>
            </Position>
            <AltitudeMeters>1802.5999755859375</AltitudeMeters>
            <DistanceMeters>NAN</DistanceMeters>
          </Trackpoint>
          <Trackpoint>
            <Time>2018-12-30T12:27:19.000Z</Time>
            <Position>
              <LatitudeDegrees>40.78646756708621978759765625</LatitudeDegrees>
              <LongitudeDegrees>-4.071494042873382568359375</LongitudeDegrees>
            </Position>
            <AltitudeMeters>1802.5999755859375</AltitudeMeters>
            <DistanceMeters>NAN</DistanceMeters>
          </Trackpoint>
          <Trackpoint>
            <Time>2018-12-30T12:27:20.000Z</Time>
            <Position>
              <LatitudeDegrees>40.7864730991423130035400390625</LatitudeDegrees>
              <LongitudeDegrees>-4.07151055522263050079345703125</LongitudeDegrees>
            </Position>
            <AltitudeMeters>1802.800048828125</AltitudeMeters>
            <DistanceMeters>NAN</DistanceMeters>
          </Trackpoint>
          <Trackpoint>
            <Time>2018-12-30T12:27:21.000Z</Time>
            <Position>
              <LatitudeDegrees>40.78647703863680362701416015625</LatitudeDegrees>
              <LongitudeDegrees>-4.07152689993381500244140625</LongitudeDegrees>
            </Position>
            <AltitudeMeters>1802.800048828125</AltitudeMeters>
            <DistanceMeters>NAN</DistanceMeters>
          </Trackpoint>
          <Trackpoint>
            <Time>2018-12-30T12:27:22.000Z</Time>
            <Position>
              <LatitudeDegrees>40.7864781282842159271240234375</LatitudeDegrees>
              <LongitudeDegrees>-4.07154433429241180419921875</LongitudeDegrees>
            </Position>
            <AltitudeMeters>1802.800048828125</AltitudeMeters>
            <DistanceMeters>NAN</DistanceMeters>
          </Trackpoint>
          <Trackpoint>
            <Time>2018-12-30T12:27:23.000Z</Time>
            <Position>
              <LatitudeDegrees>40.78647921793162822723388671875</LatitudeDegrees>
              <LongitudeDegrees>-4.0715659596025943756103515625</LongitudeDegrees>
            </Position>
            <AltitudeMeters>1802.800048828125</AltitudeMeters>
            <DistanceMeters>NAN</DistanceMeters>
          </Trackpoint>
          <Trackpoint>
            <Time>2018-12-30T12:27:24.000Z</Time>
            <Position>
              <LatitudeDegrees>40.786476619541645050048828125</LatitudeDegrees>
              <LongitudeDegrees>-4.071588255465030670166015625</LongitudeDegrees>
            </Position>
            <AltitudeMeters>1802.800048828125</AltitudeMeters>
            <DistanceMeters>NAN</DistanceMeters>
          </Trackpoint>
          <Trackpoint>
            <Time>2018-12-30T12:27:25.000Z</Time>
            <Position>
              <LatitudeDegrees>40.7864764519035816192626953125</LatitudeDegrees>
              <LongitudeDegrees>-4.07160711474716663360595703125</LongitudeDegrees>
            </Position>
            <AltitudeMeters>1802.800048828125</AltitudeMeters>
            <DistanceMeters>NAN</DistanceMeters>
          </Trackpoint>
          <Trackpoint>
            <Time>2018-12-30T12:27:26.000Z</Time>
            <Position>
              <LatitudeDegrees>40.7864707522094249725341796875</LatitudeDegrees>
              <LongitudeDegrees>-4.07162874005734920501708984375</LongitudeDegrees>
            </Position>
            <AltitudeMeters>1802.800048828125</AltitudeMeters>
            <DistanceMeters>NAN</DistanceMeters>
          </Trackpoint>
          <Trackpoint>
            <Time>2018-12-30T12:27:27.000Z</Time>
            <Position>
              <LatitudeDegrees>40.78646463342010974884033203125</LatitudeDegrees>
              <LongitudeDegrees>-4.0716517902910709381103515625</LongitudeDegrees>
            </Position>
            <AltitudeMeters>1802.800048828125</AltitudeMeters>
            <DistanceMeters>NAN</DistanceMeters>
          </Trackpoint>
          <Trackpoint>
            <Time>2018-12-30T12:27:28.000Z</Time>
            <Position>
              <LatitudeDegrees>40.7864600233733654022216796875</LatitudeDegrees>
              <LongitudeDegrees>-4.071670062839984893798828125</LongitudeDegrees>
            </Position>
            <AltitudeMeters>1802.800048828125</AltitudeMeters>
            <DistanceMeters>NAN</DistanceMeters>
          </Trackpoint>
          <Trackpoint>
            <Time>2018-12-30T12:27:29.000Z</Time>
            <Position>
              <LatitudeDegrees>40.7864534854888916015625</LatitudeDegrees>
              <LongitudeDegrees>-4.071686826646327972412109375</LongitudeDegrees>
            </Position>
            <AltitudeMeters>1802.800048828125</AltitudeMeters>
            <DistanceMeters>NAN</DistanceMeters>
          </Trackpoint>
          <Trackpoint>
            <Time>2018-12-30T12:27:30.000Z</Time>
            <Position>
              <LatitudeDegrees>40.78644753433763980865478515625</LatitudeDegrees>
              <LongitudeDegrees>-4.0717057697474956512451171875</LongitudeDegrees>
            </Position>
            <AltitudeMeters>1802.800048828125</AltitudeMeters>
            <DistanceMeters>NAN</DistanceMeters>
          </Trackpoint>
          <Trackpoint>
            <Time>2018-12-30T12:27:31.000Z</Time>
            <Position>
              <LatitudeDegrees>40.78644485212862491607666015625</LatitudeDegrees>
              <LongitudeDegrees>-4.0717278979718685150146484375</LongitudeDegrees>
            </Position>
            <AltitudeMeters>1802.800048828125</AltitudeMeters>
            <DistanceMeters>NAN</DistanceMeters>
          </Trackpoint>
          <Trackpoint>
            <Time>2018-12-30T12:27:32.000Z</Time>
            <Position>
              <LatitudeDegrees>40.786444433033466339111328125</LatitudeDegrees>
              <LongitudeDegrees>-4.0717470087110996246337890625</LongitudeDegrees>
            </Position>
            <AltitudeMeters>1802.800048828125</AltitudeMeters>
            <DistanceMeters>NAN</DistanceMeters>
          </Trackpoint>
          <Trackpoint>
            <Time>2018-12-30T12:27:33.000Z</Time>
            <Position>
              <LatitudeDegrees>40.78644384630024433135986328125</LatitudeDegrees>
              <LongitudeDegrees>-4.0717647783458232879638671875</LongitudeDegrees>
            </Position>
            <AltitudeMeters>1802.800048828125</AltitudeMeters>
            <DistanceMeters>NAN</DistanceMeters>
          </Trackpoint>
          <Trackpoint>
            <Time>2018-12-30T12:27:34.000Z</Time>
            <Position>
              <LatitudeDegrees>40.7864489592611789703369140625</LatitudeDegrees>
              <LongitudeDegrees>-4.0717845596373081207275390625</LongitudeDegrees>
            </Position>
            <AltitudeMeters>1802.5999755859375</AltitudeMeters>
            <DistanceMeters>NAN</DistanceMeters>
          </Trackpoint>
          <Trackpoint>
            <Time>2018-12-30T12:27:35.000Z</Time>
            <Position>
              <LatitudeDegrees>40.7864563353359699249267578125</LatitudeDegrees>
              <LongitudeDegrees>-4.0718050114810466766357421875</LongitudeDegrees>
            </Position>
            <AltitudeMeters>1802.4000244140625</AltitudeMeters>
            <DistanceMeters>NAN</DistanceMeters>
          </Trackpoint>
          <Trackpoint>
            <Time>2018-12-30T12:27:36.000Z</Time>
            <Position>
              <LatitudeDegrees>40.786461532115936279296875</LatitudeDegrees>
              <LongitudeDegrees>-4.07182864844799041748046875</LongitudeDegrees>
            </Position>
            <AltitudeMeters>1802.199951171875</AltitudeMeters>
            <DistanceMeters>NAN</DistanceMeters>
          </Trackpoint>
          <Trackpoint>
            <Time>2018-12-30T12:27:37.000Z</Time>
            <Position>
              <LatitudeDegrees>40.7864637114107608795166015625</LatitudeDegrees>
              <LongitudeDegrees>-4.07185035757720470428466796875</LongitudeDegrees>
            </Position>
            <AltitudeMeters>1802</AltitudeMeters>
            <DistanceMeters>NAN</DistanceMeters>
          </Trackpoint>
          <Trackpoint>
            <Time>2018-12-30T12:27:38.000Z</Time>
            <Position>
              <LatitudeDegrees>40.786463208496570587158203125</LatitudeDegrees>
              <LongitudeDegrees>-4.07186930067837238311767578125</LongitudeDegrees>
            </Position>
            <AltitudeMeters>1802</AltitudeMeters>
            <DistanceMeters>NAN</DistanceMeters>
          </Trackpoint>
          <Trackpoint>
            <Time>2018-12-30T12:27:39.000Z</Time>
            <Position>
              <LatitudeDegrees>40.786463208496570587158203125</LatitudeDegrees>
              <LongitudeDegrees>-4.07188606448471546173095703125</LongitudeDegrees>
            </Position>
            <AltitudeMeters>1801.800048828125</AltitudeMeters>
            <DistanceMeters>NAN</DistanceMeters>
          </Trackpoint>
          <Trackpoint>
            <Time>2018-12-30T12:27:40.000Z</Time>
            <Position>
              <LatitudeDegrees>40.7864586822688579559326171875</LatitudeDegrees>
              <LongitudeDegrees>-4.0719042532145977020263671875</LongitudeDegrees>
            </Position>
            <AltitudeMeters>1801.5999755859375</AltitudeMeters>
            <DistanceMeters>NAN</DistanceMeters>
          </Trackpoint>
          <Trackpoint>
            <Time>2018-12-30T12:27:41.000Z</Time>
            <Position>
              <LatitudeDegrees>40.78645524568855762481689453125</LatitudeDegrees>
              <LongitudeDegrees>-4.07192294485867023468017578125</LongitudeDegrees>
            </Position>
            <AltitudeMeters>1801.5999755859375</AltitudeMeters>
            <DistanceMeters>NAN</DistanceMeters>
          </Trackpoint>
          <Trackpoint>
            <Time>2018-12-30T12:27:42.000Z</Time>
            <Position>
              <LatitudeDegrees>40.78645239584147930145263671875</LatitudeDegrees>
              <LongitudeDegrees>-4.07194088213145732879638671875</LongitudeDegrees>
            </Position>
            <AltitudeMeters>1801.5999755859375</AltitudeMeters>
            <DistanceMeters>NAN</DistanceMeters>
          </Trackpoint>
          <Trackpoint>
            <Time>2018-12-30T12:27:43.000Z</Time>
            <Position>
              <LatitudeDegrees>40.78644879162311553955078125</LatitudeDegrees>
              <LongitudeDegrees>-4.07195932231843471527099609375</LongitudeDegrees>
            </Position>
            <AltitudeMeters>1801.5999755859375</AltitudeMeters>
            <DistanceMeters>NAN</DistanceMeters>
          </Trackpoint>
          <Trackpoint>
            <Time>2018-12-30T12:27:44.000Z</Time>
            <Position>
              <LatitudeDegrees>40.78644602559506893157958984375</LatitudeDegrees>
              <LongitudeDegrees>-4.071977846324443817138671875</LongitudeDegrees>
            </Position>
            <AltitudeMeters>1801.5999755859375</AltitudeMeters>
            <DistanceMeters>NAN</DistanceMeters>
          </Trackpoint>
          <Trackpoint>
            <Time>2018-12-30T12:27:45.000Z</Time>
            <Position>
              <LatitudeDegrees>40.78644803725183010101318359375</LatitudeDegrees>
              <LongitudeDegrees>-4.071998633444309234619140625</LongitudeDegrees>
            </Position>
            <AltitudeMeters>1801.4000244140625</AltitudeMeters>
            <DistanceMeters>NAN</DistanceMeters>
          </Trackpoint>
          <Trackpoint>
            <Time>2018-12-30T12:27:46.000Z</Time>
            <Position>
              <LatitudeDegrees>40.7864472828805446624755859375</LatitudeDegrees>
              <LongitudeDegrees>-4.07201715745031833648681640625</LongitudeDegrees>
            </Position>
            <AltitudeMeters>1801.4000244140625</AltitudeMeters>
            <DistanceMeters>NAN</DistanceMeters>
          </Trackpoint>
          <Trackpoint>
            <Time>2018-12-30T12:27:47.000Z</Time>
            <Position>
              <LatitudeDegrees>40.7864489592611789703369140625</LatitudeDegrees>
              <LongitudeDegrees>-4.07203651964664459228515625</LongitudeDegrees>
            </Position>
            <AltitudeMeters>1801.4000244140625</AltitudeMeters>
            <DistanceMeters>NAN</DistanceMeters>
          </Trackpoint>
          <Trackpoint>
            <Time>2018-12-30T12:27:48.000Z</Time>
            <Position>
              <LatitudeDegrees>40.78644770197570323944091796875</LatitudeDegrees>
              <LongitudeDegrees>-4.07205261290073394775390625</LongitudeDegrees>
            </Position>
            <AltitudeMeters>1801.4000244140625</AltitudeMeters>
            <DistanceMeters>NAN</DistanceMeters>
          </Trackpoint>
          <Trackpoint>
            <Time>2018-12-30T12:27:49.000Z</Time>
            <Position>
              <LatitudeDegrees>40.7864492945373058319091796875</LatitudeDegrees>
              <LongitudeDegrees>-4.0720732323825359344482421875</LongitudeDegrees>
            </Position>
            <AltitudeMeters>1801.199951171875</AltitudeMeters>
            <DistanceMeters>NAN</DistanceMeters>
          </Trackpoint>
          <Trackpoint>
            <Time>2018-12-30T12:27:50.000Z</Time>
            <Position>
              <LatitudeDegrees>40.78644921071827411651611328125</LatitudeDegrees>
              <LongitudeDegrees>-4.07209309749305248260498046875</LongitudeDegrees>
            </Position>
            <AltitudeMeters>1801.199951171875</AltitudeMeters>
            <DistanceMeters>NAN</DistanceMeters>
          </Trackpoint>
          <Trackpoint>
            <Time>2018-12-30T12:27:51.000Z</Time>
            <Position>
              <LatitudeDegrees>40.7864476181566715240478515625</LatitudeDegrees>
              <LongitudeDegrees>-4.07211053185164928436279296875</LongitudeDegrees>
            </Position>
            <AltitudeMeters>1801.199951171875</AltitudeMeters>
            <DistanceMeters>NAN</DistanceMeters>
          </Trackpoint>
          <Trackpoint>
            <Time>2018-12-30T12:27:52.000Z</Time>
            <Position>
              <LatitudeDegrees>40.78644451685249805450439453125</LatitudeDegrees>
              <LongitudeDegrees>-4.0721278823912143707275390625</LongitudeDegrees>
            </Position>
            <AltitudeMeters>1801.199951171875</AltitudeMeters>
            <DistanceMeters>NAN</DistanceMeters>
          </Trackpoint>
          <Trackpoint>
            <Time>2018-12-30T12:27:53.000Z</Time>
            <Position>
              <LatitudeDegrees>40.786442421376705169677734375</LatitudeDegrees>
              <LongitudeDegrees>-4.07214439474046230316162109375</LongitudeDegrees>
            </Position>
            <AltitudeMeters>1801.199951171875</AltitudeMeters>
            <DistanceMeters>NAN</DistanceMeters>
          </Trackpoint>
          <Trackpoint>
            <Time>2018-12-30T12:27:54.000Z</Time>
            <Position>
              <LatitudeDegrees>40.7864412479102611541748046875</LatitudeDegrees>
              <LongitudeDegrees>-4.0721627511084079742431640625</LongitudeDegrees>
            </Position>
            <AltitudeMeters>1801</AltitudeMeters>
            <DistanceMeters>NAN</DistanceMeters>
          </Trackpoint>
          <Trackpoint>
            <Time>2018-12-30T12:27:55.000Z</Time>
            <Position>
              <LatitudeDegrees>40.78643764369189739227294921875</LatitudeDegrees>
              <LongitudeDegrees>-4.07218144275248050689697265625</LongitudeDegrees>
            </Position>
            <AltitudeMeters>1801</AltitudeMeters>
            <DistanceMeters>NAN</DistanceMeters>
          </Trackpoint>
          <Trackpoint>
            <Time>2018-12-30T12:27:56.000Z</Time>
            <Position>
              <LatitudeDegrees>40.78643596731126308441162109375</LatitudeDegrees>
              <LongitudeDegrees>-4.07220155932009220123291015625</LongitudeDegrees>
            </Position>
            <AltitudeMeters>1800.800048828125</AltitudeMeters>
            <DistanceMeters>NAN</DistanceMeters>
          </Trackpoint>
          <Trackpoint>
            <Time>2018-12-30T12:27:57.000Z</Time>
            <Position>
              <LatitudeDegrees>40.786434710025787353515625</LatitudeDegrees>
              <LongitudeDegrees>-4.0722224302589893341064453125</LongitudeDegrees>
            </Position>
            <AltitudeMeters>1800.5999755859375</AltitudeMeters>
            <DistanceMeters>NAN</DistanceMeters>
          </Trackpoint>
          <Trackpoint>
            <Time>2018-12-30T12:27:58.000Z</Time>
            <Position>
              <LatitudeDegrees>40.78643160872161388397216796875</LatitudeDegrees>
              <LongitudeDegrees>-4.0722418762743473052978515625</LongitudeDegrees>
            </Position>
            <AltitudeMeters>1800.4000244140625</AltitudeMeters>
            <DistanceMeters>NAN</DistanceMeters>
          </Trackpoint>
          <Trackpoint>
            <Time>2018-12-30T12:27:59.000Z</Time>
            <Position>
              <LatitudeDegrees>40.78643395565450191497802734375</LatitudeDegrees>
              <LongitudeDegrees>-4.07225956209003925323486328125</LongitudeDegrees>
            </Position>
            <AltitudeMeters>1800.199951171875</AltitudeMeters>
            <DistanceMeters>NAN</DistanceMeters>
          </Trackpoint>
          <Trackpoint>
            <Time>2018-12-30T12:28:00.000Z</Time>
            <Position>
              <LatitudeDegrees>40.78643747605383396148681640625</LatitudeDegrees>
              <LongitudeDegrees>-4.072275571525096893310546875</LongitudeDegrees>
            </Position>
            <AltitudeMeters>1800</AltitudeMeters>
            <DistanceMeters>NAN</DistanceMeters>
          </Trackpoint>
          <Trackpoint>
            <Time>2018-12-30T12:28:01.000Z</Time>
            <Position>
              <LatitudeDegrees>40.78643948771059513092041015625</LatitudeDegrees>
              <LongitudeDegrees>-4.07229493372142314910888671875</LongitudeDegrees>
            </Position>
            <AltitudeMeters>1799.5999755859375</AltitudeMeters>
            <DistanceMeters>NAN</DistanceMeters>
          </Trackpoint>
          <Trackpoint>
            <Time>2018-12-30T12:28:02.000Z</Time>
            <Position>
              <LatitudeDegrees>40.78643403947353363037109375</LatitudeDegrees>
              <LongitudeDegrees>-4.07231505028903484344482421875</LongitudeDegrees>
            </Position>
            <AltitudeMeters>1799.5999755859375</AltitudeMeters>
            <DistanceMeters>NAN</DistanceMeters>
          </Trackpoint>
          <Trackpoint>
            <Time>2018-12-30T12:28:03.000Z</Time>
            <Position>
              <LatitudeDegrees>40.78643403947353363037109375</LatitudeDegrees>
              <LongitudeDegrees>-4.07233483158051967620849609375</LongitudeDegrees>
            </Position>
            <AltitudeMeters>1799.199951171875</AltitudeMeters>
            <DistanceMeters>NAN</DistanceMeters>
          </Trackpoint>
          <Trackpoint>
            <Time>2018-12-30T12:28:04.000Z</Time>
            <Position>
              <LatitudeDegrees>40.78643403947353363037109375</LatitudeDegrees>
              <LongitudeDegrees>-4.072352014482021331787109375</LongitudeDegrees>
            </Position>
            <AltitudeMeters>1799.199951171875</AltitudeMeters>
            <DistanceMeters>NAN</DistanceMeters>
          </Trackpoint>
          <Trackpoint>
            <Time>2018-12-30T12:28:05.000Z</Time>
            <Position>
              <LatitudeDegrees>40.78643479384481906890869140625</LatitudeDegrees>
              <LongitudeDegrees>-4.07237112522125244140625</LongitudeDegrees>
            </Position>
            <AltitudeMeters>1799</AltitudeMeters>
            <DistanceMeters>NAN</DistanceMeters>
          </Trackpoint>
          <Trackpoint>
            <Time>2018-12-30T12:28:06.000Z</Time>
            <Position>
              <LatitudeDegrees>40.7864333689212799072265625</LatitudeDegrees>
              <LongitudeDegrees>-4.072390906512737274169921875</LongitudeDegrees>
            </Position>
            <AltitudeMeters>1798.800048828125</AltitudeMeters>
            <DistanceMeters>NAN</DistanceMeters>
          </Trackpoint>
          <Trackpoint>
            <Time>2018-12-30T12:28:07.000Z</Time>
            <Position>
              <LatitudeDegrees>40.7864345423877239227294921875</LatitudeDegrees>
              <LongitudeDegrees>-4.07240926288068294525146484375</LongitudeDegrees>
            </Position>
            <AltitudeMeters>1798.5999755859375</AltitudeMeters>
            <DistanceMeters>NAN</DistanceMeters>
          </Trackpoint>
          <Trackpoint>
            <Time>2018-12-30T12:28:08.000Z</Time>
            <Position>
              <LatitudeDegrees>40.7864306867122650146484375</LatitudeDegrees>
              <LongitudeDegrees>-4.07242686487734317779541015625</LongitudeDegrees>
            </Position>
            <AltitudeMeters>1798.4000244140625</AltitudeMeters>
            <DistanceMeters>NAN</DistanceMeters>
          </Trackpoint>
          <Trackpoint>
            <Time>2018-12-30T12:28:09.000Z</Time>
            <Position>
              <LatitudeDegrees>40.78642775304615497589111328125</LatitudeDegrees>
              <LongitudeDegrees>-4.07244480215013027191162109375</LongitudeDegrees>
            </Position>
            <AltitudeMeters>1798.4000244140625</AltitudeMeters>
            <DistanceMeters>NAN</DistanceMeters>
          </Trackpoint>
          <Trackpoint>
            <Time>2018-12-30T12:28:10.000Z</Time>
            <Position>
              <LatitudeDegrees>40.7864275015890598297119140625</LatitudeDegrees>
              <LongitudeDegrees>-4.07246173359453678131103515625</LongitudeDegrees>
            </Position>
            <AltitudeMeters>1798.4000244140625</AltitudeMeters>
            <DistanceMeters>NAN</DistanceMeters>
          </Trackpoint>
          <Trackpoint>
            <Time>2018-12-30T12:28:11.000Z</Time>
            <Position>
              <LatitudeDegrees>40.7864278368651866912841796875</LatitudeDegrees>
              <LongitudeDegrees>-4.07247774302959442138671875</LongitudeDegrees>
            </Position>
            <AltitudeMeters>1798.4000244140625</AltitudeMeters>
            <DistanceMeters>NAN</DistanceMeters>
          </Trackpoint>
          <Trackpoint>
            <Time>2018-12-30T12:28:12.000Z</Time>
            <Position>
              <LatitudeDegrees>40.78642741777002811431884765625</LatitudeDegrees>
              <LongitudeDegrees>-4.07249475829303264617919921875</LongitudeDegrees>
            </Position>
            <AltitudeMeters>1798.4000244140625</AltitudeMeters>
            <DistanceMeters>NAN</DistanceMeters>
          </Trackpoint>
          <Trackpoint>
            <Time>2018-12-30T12:28:13.000Z</Time>
            <Position>
              <LatitudeDegrees>40.78643001616001129150390625</LatitudeDegrees>
              <LongitudeDegrees>-4.0725134499371051788330078125</LongitudeDegrees>
            </Position>
            <AltitudeMeters>1798.5999755859375</AltitudeMeters>
            <DistanceMeters>NAN</DistanceMeters>
          </Trackpoint>
          <Trackpoint>
            <Time>2018-12-30T12:28:14.000Z</Time>
            <Position>
              <LatitudeDegrees>40.786431021988391876220703125</LatitudeDegrees>
              <LongitudeDegrees>-4.07253365032374858856201171875</LongitudeDegrees>
            </Position>
            <AltitudeMeters>1798.800048828125</AltitudeMeters>
            <DistanceMeters>NAN</DistanceMeters>
          </Trackpoint>
          <Trackpoint>
            <Time>2018-12-30T12:28:15.000Z</Time>
            <Position>
              <LatitudeDegrees>40.78643001616001129150390625</LatitudeDegrees>
              <LongitudeDegrees>-4.072551839053630828857421875</LongitudeDegrees>
            </Position>
            <AltitudeMeters>1798.800048828125</AltitudeMeters>
            <DistanceMeters>NAN</DistanceMeters>
          </Trackpoint>
          <Trackpoint>
            <Time>2018-12-30T12:28:16.000Z</Time>
            <Position>
              <LatitudeDegrees>40.7864301837980747222900390625</LatitudeDegrees>
              <LongitudeDegrees>-4.07257069833576679229736328125</LongitudeDegrees>
            </Position>
            <AltitudeMeters>1798.800048828125</AltitudeMeters>
            <DistanceMeters>NAN</DistanceMeters>
          </Trackpoint>
          <Trackpoint>
            <Time>2018-12-30T12:28:17.000Z</Time>
            <Position>
              <LatitudeDegrees>40.7864291779696941375732421875</LatitudeDegrees>
              <LongitudeDegrees>-4.07259014435112476348876953125</LongitudeDegrees>
            </Position>
            <AltitudeMeters>1798.5999755859375</AltitudeMeters>
            <DistanceMeters>NAN</DistanceMeters>
          </Trackpoint>
          <Trackpoint>
            <Time>2018-12-30T12:28:18.000Z</Time>
            <Position>
              <LatitudeDegrees>40.7864280045032501220703125</LatitudeDegrees>
              <LongitudeDegrees>-4.07260783016681671142578125</LongitudeDegrees>
            </Position>
            <AltitudeMeters>1798.5999755859375</AltitudeMeters>
            <DistanceMeters>NAN</DistanceMeters>
          </Trackpoint>
          <Trackpoint>
            <Time>2018-12-30T12:28:19.000Z</Time>
            <Position>
              <LatitudeDegrees>40.78642523847520351409912109375</LatitudeDegrees>
              <LongitudeDegrees>-4.0726244263350963592529296875</LongitudeDegrees>
            </Position>
            <AltitudeMeters>1798.4000244140625</AltitudeMeters>
            <DistanceMeters>NAN</DistanceMeters>
          </Trackpoint>
          <Trackpoint>
            <Time>2018-12-30T12:28:20.000Z</Time>
            <Position>
              <LatitudeDegrees>40.7864224724471569061279296875</LatitudeDegrees>
              <LongitudeDegrees>-4.07264160923659801483154296875</LongitudeDegrees>
            </Position>
            <AltitudeMeters>1798.4000244140625</AltitudeMeters>
            <DistanceMeters>NAN</DistanceMeters>
          </Trackpoint>
          <Trackpoint>
            <Time>2018-12-30T12:28:21.000Z</Time>
            <Position>
              <LatitudeDegrees>40.78642071224749088287353515625</LatitudeDegrees>
              <LongitudeDegrees>-4.0726603008806705474853515625</LongitudeDegrees>
            </Position>
            <AltitudeMeters>1798.199951171875</AltitudeMeters>
            <DistanceMeters>NAN</DistanceMeters>
          </Trackpoint>
          <Trackpoint>
            <Time>2018-12-30T12:28:22.000Z</Time>
            <Position>
              <LatitudeDegrees>40.78641668893396854400634765625</LatitudeDegrees>
              <LongitudeDegrees>-4.07267832197248935699462890625</LongitudeDegrees>
            </Position>
            <AltitudeMeters>1798.199951171875</AltitudeMeters>
            <DistanceMeters>NAN</DistanceMeters>
          </Trackpoint>
          <Trackpoint>
            <Time>2018-12-30T12:28:23.000Z</Time>
            <Position>
              <LatitudeDegrees>40.7864077202975749969482421875</LatitudeDegrees>
              <LongitudeDegrees>-4.07269542105495929718017578125</LongitudeDegrees>
            </Position>
            <AltitudeMeters>1798.199951171875</AltitudeMeters>
            <DistanceMeters>NAN</DistanceMeters>
          </Trackpoint>
          <Trackpoint>
            <Time>2018-12-30T12:28:24.000Z</Time>
            <Position>
              <LatitudeDegrees>40.786404199898242950439453125</LatitudeDegrees>
              <LongitudeDegrees>-4.07271620817482471466064453125</LongitudeDegrees>
            </Position>
            <AltitudeMeters>1798.199951171875</AltitudeMeters>
            <DistanceMeters>NAN</DistanceMeters>
          </Trackpoint>
          <Trackpoint>
            <Time>2018-12-30T12:28:25.000Z</Time>
            <Position>
              <LatitudeDegrees>40.78639984130859375</LatitudeDegrees>
              <LongitudeDegrees>-4.072734899818897247314453125</LongitudeDegrees>
            </Position>
            <AltitudeMeters>1798.199951171875</AltitudeMeters>
            <DistanceMeters>NAN</DistanceMeters>
          </Trackpoint>
          <Trackpoint>
            <Time>2018-12-30T12:28:26.000Z</Time>
            <Position>
              <LatitudeDegrees>40.7863943092525005340576171875</LatitudeDegrees>
              <LongitudeDegrees>-4.07275292091071605682373046875</LongitudeDegrees>
            </Position>
            <AltitudeMeters>1798.199951171875</AltitudeMeters>
            <DistanceMeters>NAN</DistanceMeters>
          </Trackpoint>
          <Trackpoint>
            <Time>2018-12-30T12:28:27.000Z</Time>
            <Position>
              <LatitudeDegrees>40.786385424435138702392578125</LatitudeDegrees>
              <LongitudeDegrees>-4.0727689303457736968994140625</LongitudeDegrees>
            </Position>
            <AltitudeMeters>1798.199951171875</AltitudeMeters>
            <DistanceMeters>NAN</DistanceMeters>
          </Trackpoint>
          <Trackpoint>
            <Time>2018-12-30T12:28:28.000Z</Time>
            <Position>
              <LatitudeDegrees>40.78637226484715938568115234375</LatitudeDegrees>
              <LongitudeDegrees>-4.0727860294282436370849609375</LongitudeDegrees>
            </Position>
            <AltitudeMeters>1798.4000244140625</AltitudeMeters>
            <DistanceMeters>NAN</DistanceMeters>
          </Trackpoint>
          <Trackpoint>
            <Time>2018-12-30T12:28:29.000Z</Time>
            <Position>
              <LatitudeDegrees>40.78636832535266876220703125</LatitudeDegrees>
              <LongitudeDegrees>-4.07280421815812587738037109375</LongitudeDegrees>
            </Position>
            <AltitudeMeters>1798.4000244140625</AltitudeMeters>
            <DistanceMeters>NAN</DistanceMeters>
          </Trackpoint>
          <Trackpoint>
            <Time>2018-12-30T12:28:30.000Z</Time>
            <Position>
              <LatitudeDegrees>40.78636296093463897705078125</LatitudeDegrees>
              <LongitudeDegrees>-4.072822742164134979248046875</LongitudeDegrees>
            </Position>
            <AltitudeMeters>1798.4000244140625</AltitudeMeters>
            <DistanceMeters>NAN</DistanceMeters>
          </Trackpoint>
          <Trackpoint>
            <Time>2018-12-30T12:28:31.000Z</Time>
            <Position>
              <LatitudeDegrees>40.7863520644605159759521484375</LatitudeDegrees>
              <LongitudeDegrees>-4.072838835418224334716796875</LongitudeDegrees>
            </Position>
            <AltitudeMeters>1798.4000244140625</AltitudeMeters>
            <DistanceMeters>NAN</DistanceMeters>
          </Trackpoint>
          <Trackpoint>
            <Time>2018-12-30T12:28:32.000Z</Time>
            <Position>
              <LatitudeDegrees>40.78634141944348812103271484375</LatitudeDegrees>
              <LongitudeDegrees>-4.07285450957715511322021484375</LongitudeDegrees>
            </Position>
            <AltitudeMeters>1798.5999755859375</AltitudeMeters>
            <DistanceMeters>NAN</DistanceMeters>
          </Trackpoint>
          <Trackpoint>
            <Time>2018-12-30T12:28:33.000Z</Time>
            <Position>
              <LatitudeDegrees>40.78632666729390621185302734375</LatitudeDegrees>
              <LongitudeDegrees>-4.07286792062222957611083984375</LongitudeDegrees>
            </Position>
            <AltitudeMeters>1798.5999755859375</AltitudeMeters>
            <DistanceMeters>NAN</DistanceMeters>
          </Trackpoint>
          <Trackpoint>
            <Time>2018-12-30T12:28:34.000Z</Time>
            <Position>
              <LatitudeDegrees>40.78631090931594371795654296875</LatitudeDegrees>
              <LongitudeDegrees>-4.07288049347698688507080078125</LongitudeDegrees>
            </Position>
            <AltitudeMeters>1798.5999755859375</AltitudeMeters>
            <DistanceMeters>NAN</DistanceMeters>
          </Trackpoint>
          <Trackpoint>
            <Time>2018-12-30T12:28:35.000Z</Time>
            <Position>
              <LatitudeDegrees>40.78629800118505954742431640625</LatitudeDegrees>
              <LongitudeDegrees>-4.072891809046268463134765625</LongitudeDegrees>
            </Position>
            <AltitudeMeters>1798.5999755859375</AltitudeMeters>
            <DistanceMeters>NAN</DistanceMeters>
          </Trackpoint>
          <Trackpoint>
            <Time>2018-12-30T12:28:36.000Z</Time>
            <Position>
              <LatitudeDegrees>40.78628643415868282318115234375</LatitudeDegrees>
              <LongitudeDegrees>-4.0729035437107086181640625</LongitudeDegrees>
            </Position>
            <AltitudeMeters>1798.5999755859375</AltitudeMeters>
            <DistanceMeters>NAN</DistanceMeters>
          </Trackpoint>
          <Trackpoint>
            <Time>2018-12-30T12:28:37.000Z</Time>
            <Position>
              <LatitudeDegrees>40.78627050854265689849853515625</LatitudeDegrees>
              <LongitudeDegrees>-4.0729144401848316192626953125</LongitudeDegrees>
            </Position>
            <AltitudeMeters>1798.5999755859375</AltitudeMeters>
            <DistanceMeters>NAN</DistanceMeters>
          </Trackpoint>
          <Trackpoint>
            <Time>2018-12-30T12:28:38.000Z</Time>
            <Position>
              <LatitudeDegrees>40.78626447357237339019775390625</LatitudeDegrees>
              <LongitudeDegrees>-4.07292843796312808990478515625</LongitudeDegrees>
            </Position>
            <AltitudeMeters>1798.800048828125</AltitudeMeters>
            <DistanceMeters>NAN</DistanceMeters>
          </Trackpoint>
          <Trackpoint>
            <Time>2018-12-30T12:28:39.000Z</Time>
            <Position>
              <LatitudeDegrees>40.78625726513564586639404296875</LatitudeDegrees>
              <LongitudeDegrees>-4.0729419328272342681884765625</LongitudeDegrees>
            </Position>
            <AltitudeMeters>1798.800048828125</AltitudeMeters>
            <DistanceMeters>NAN</DistanceMeters>
          </Trackpoint>
          <Trackpoint>
            <Time>2018-12-30T12:28:40.000Z</Time>
            <Position>
              <LatitudeDegrees>40.78625357709825038909912109375</LatitudeDegrees>
              <LongitudeDegrees>-4.07295492477715015411376953125</LongitudeDegrees>
            </Position>
            <AltitudeMeters>1798.800048828125</AltitudeMeters>
            <DistanceMeters>NAN</DistanceMeters>
          </Trackpoint>
          <Trackpoint>
            <Time>2018-12-30T12:28:41.000Z</Time>
            <Position>
              <LatitudeDegrees>40.78624670393764972686767578125</LatitudeDegrees>
              <LongitudeDegrees>-4.07296984456479549407958984375</LongitudeDegrees>
            </Position>
            <AltitudeMeters>1799</AltitudeMeters>
            <DistanceMeters>NAN</DistanceMeters>
          </Trackpoint>
          <Trackpoint>
            <Time>2018-12-30T12:28:42.000Z</Time>
            <Position>
              <LatitudeDegrees>40.78624100424349308013916015625</LatitudeDegrees>
              <LongitudeDegrees>-4.07298509962856769561767578125</LongitudeDegrees>
            </Position>
            <AltitudeMeters>1799</AltitudeMeters>
            <DistanceMeters>NAN</DistanceMeters>
          </Trackpoint>
          <Trackpoint>
            <Time>2018-12-30T12:28:43.000Z</Time>
            <Position>
              <LatitudeDegrees>40.7862313650548458099365234375</LatitudeDegrees>
              <LongitudeDegrees>-4.07300018705427646636962890625</LongitudeDegrees>
            </Position>
            <AltitudeMeters>1799</AltitudeMeters>
            <DistanceMeters>NAN</DistanceMeters>
          </Trackpoint>
          <Trackpoint>
            <Time>2018-12-30T12:28:44.000Z</Time>
            <Position>
              <LatitudeDegrees>40.786220468580722808837890625</LatitudeDegrees>
              <LongitudeDegrees>-4.07301493920385837554931640625</LongitudeDegrees>
            </Position>
            <AltitudeMeters>1799</AltitudeMeters>
            <DistanceMeters>NAN</DistanceMeters>
          </Trackpoint>
          <Trackpoint>
            <Time>2018-12-30T12:28:45.000Z</Time>
            <Position>
              <LatitudeDegrees>40.786211080849170684814453125</LatitudeDegrees>
              <LongitudeDegrees>-4.07303002662956714630126953125</LongitudeDegrees>
            </Position>
            <AltitudeMeters>1799</AltitudeMeters>
            <DistanceMeters>NAN</DistanceMeters>
          </Trackpoint>
          <Trackpoint>
            <Time>2018-12-30T12:28:46.000Z</Time>
            <Position>
              <LatitudeDegrees>40.7862045429646968841552734375</LatitudeDegrees>
              <LongitudeDegrees>-4.07304561696946620941162109375</LongitudeDegrees>
            </Position>
            <AltitudeMeters>1799</AltitudeMeters>
            <DistanceMeters>NAN</DistanceMeters>
          </Trackpoint>
          <Trackpoint>
            <Time>2018-12-30T12:28:47.000Z</Time>
            <Position>
              <LatitudeDegrees>40.78619666397571563720703125</LatitudeDegrees>
              <LongitudeDegrees>-4.07305978238582611083984375</LongitudeDegrees>
            </Position>
            <AltitudeMeters>1799</AltitudeMeters>
            <DistanceMeters>NAN</DistanceMeters>
          </Trackpoint>
          <Trackpoint>
            <Time>2018-12-30T12:28:48.000Z</Time>
            <Position>
              <LatitudeDegrees>40.7861897908151149749755859375</LatitudeDegrees>
              <LongitudeDegrees>-4.07307361252605915069580078125</LongitudeDegrees>
            </Position>
            <AltitudeMeters>1799</AltitudeMeters>
            <DistanceMeters>NAN</DistanceMeters>
          </Trackpoint>
          <Trackpoint>
            <Time>2018-12-30T12:28:49.000Z</Time>
            <Position>
              <LatitudeDegrees>40.78618316911160945892333984375</LatitudeDegrees>
              <LongitudeDegrees>-4.0730844251811504364013671875</LongitudeDegrees>
            </Position>
            <AltitudeMeters>1799</AltitudeMeters>
            <DistanceMeters>NAN</DistanceMeters>
          </Trackpoint>
          <Trackpoint>
            <Time>2018-12-30T12:28:50.000Z</Time>
            <Position>
              <LatitudeDegrees>40.78618149273097515106201171875</LatitudeDegrees>
              <LongitudeDegrees>-4.07309171743690967559814453125</LongitudeDegrees>
            </Position>
            <AltitudeMeters>1799.199951171875</AltitudeMeters>
            <DistanceMeters>NAN</DistanceMeters>
          </Trackpoint>
          <Trackpoint>
            <Time>2018-12-30T12:28:51.000Z</Time>
            <Position>
              <LatitudeDegrees>40.78617629595100879669189453125</LatitudeDegrees>
              <LongitudeDegrees>-4.07309138216078281402587890625</LongitudeDegrees>
            </Position>
            <AltitudeMeters>1799.199951171875</AltitudeMeters>
            <DistanceMeters>NAN</DistanceMeters>
          </Trackpoint>
          <Trackpoint>
            <Time>2018-12-30T12:28:52.000Z</Time>
            <Position>
              <LatitudeDegrees>40.7861720211803913116455078125</LatitudeDegrees>
              <LongitudeDegrees>-4.073090292513370513916015625</LongitudeDegrees>
            </Position>
            <AltitudeMeters>1799.199951171875</AltitudeMeters>
            <DistanceMeters>NAN</DistanceMeters>
          </Trackpoint>
          <Trackpoint>
            <Time>2018-12-30T12:28:53.000Z</Time>
            <Position>
              <LatitudeDegrees>40.7861736975610256195068359375</LatitudeDegrees>
              <LongitudeDegrees>-4.07309867441654205322265625</LongitudeDegrees>
            </Position>
            <AltitudeMeters>1799.4000244140625</AltitudeMeters>
            <DistanceMeters>NAN</DistanceMeters>
          </Trackpoint>
          <Trackpoint>
            <Time>2018-12-30T12:28:54.000Z</Time>
            <Position>
              <LatitudeDegrees>40.786175541579723358154296875</LatitudeDegrees>
              <LongitudeDegrees>-4.073103368282318115234375</LongitudeDegrees>
            </Position>
            <AltitudeMeters>1799.800048828125</AltitudeMeters>
            <DistanceMeters>NAN</DistanceMeters>
          </Trackpoint>
          <Trackpoint>
            <Time>2018-12-30T12:28:55.000Z</Time>
            <Position>
              <LatitudeDegrees>40.78617646358907222747802734375</LatitudeDegrees>
              <LongitudeDegrees>-4.07310672104358673095703125</LongitudeDegrees>
            </Position>
            <AltitudeMeters>1800.800048828125</AltitudeMeters>
            <DistanceMeters>NAN</DistanceMeters>
          </Trackpoint>
          <Trackpoint>
            <Time>2018-12-30T12:28:56.000Z</Time>
            <Position>
              <LatitudeDegrees>40.7861812412738800048828125</LatitudeDegrees>
              <LongitudeDegrees>-4.07310965470969676971435546875</LongitudeDegrees>
            </Position>
            <AltitudeMeters>1800.800048828125</AltitudeMeters>
            <DistanceMeters>NAN</DistanceMeters>
          </Trackpoint>
          <Trackpoint>
            <Time>2018-12-30T12:28:57.000Z</Time>
            <Position>
              <LatitudeDegrees>40.78618534840643405914306640625</LatitudeDegrees>
              <LongitudeDegrees>-4.07311300747096538543701171875</LongitudeDegrees>
            </Position>
            <AltitudeMeters>1800.800048828125</AltitudeMeters>
            <DistanceMeters>NAN</DistanceMeters>
          </Trackpoint>
          <Trackpoint>
            <Time>2018-12-30T12:28:58.000Z</Time>
            <Position>
              <LatitudeDegrees>40.78618585132062435150146484375</LatitudeDegrees>
              <LongitudeDegrees>-4.07311367802321910858154296875</LongitudeDegrees>
            </Position>
            <AltitudeMeters>1800.800048828125</AltitudeMeters>
            <DistanceMeters>NAN</DistanceMeters>
          </Trackpoint>
          <Trackpoint>
            <Time>2018-12-30T12:28:59.000Z</Time>
            <Position>
              <LatitudeDegrees>40.78618518076837062835693359375</LatitudeDegrees>
              <LongitudeDegrees>-4.07311451621353626251220703125</LongitudeDegrees>
            </Position>
            <AltitudeMeters>1800.800048828125</AltitudeMeters>
            <DistanceMeters>NAN</DistanceMeters>
          </Trackpoint>
          <Trackpoint>
            <Time>2018-12-30T12:29:00.000Z</Time>
            <Position>
              <LatitudeDegrees>40.7861834205687046051025390625</LatitudeDegrees>
              <LongitudeDegrees>-4.0731172822415828704833984375</LongitudeDegrees>
            </Position>
            <AltitudeMeters>1800.800048828125</AltitudeMeters>
            <DistanceMeters>NAN</DistanceMeters>
          </Trackpoint>
          <Trackpoint>
            <Time>2018-12-30T12:29:01.000Z</Time>
            <Position>
              <LatitudeDegrees>40.78618057072162628173828125</LatitudeDegrees>
              <LongitudeDegrees>-4.073120467364788055419921875</LongitudeDegrees>
            </Position>
            <AltitudeMeters>1800.800048828125</AltitudeMeters>
            <DistanceMeters>NAN</DistanceMeters>
          </Trackpoint>
          <Trackpoint>
            <Time>2018-12-30T12:29:02.000Z</Time>
            <Position>
              <LatitudeDegrees>40.78617545776069164276123046875</LatitudeDegrees>
              <LongitudeDegrees>-4.0731256641447544097900390625</LongitudeDegrees>
            </Position>
            <AltitudeMeters>1800.800048828125</AltitudeMeters>
            <DistanceMeters>NAN</DistanceMeters>
          </Trackpoint>
          <Trackpoint>
            <Time>2018-12-30T12:29:03.000Z</Time>
            <Position>
              <LatitudeDegrees>40.786168836057186126708984375</LatitudeDegrees>
              <LongitudeDegrees>-4.07313379459083080291748046875</LongitudeDegrees>
            </Position>
            <AltitudeMeters>1800.800048828125</AltitudeMeters>
            <DistanceMeters>NAN</DistanceMeters>
          </Trackpoint>
          <Trackpoint>
            <Time>2018-12-30T12:29:04.000Z</Time>
            <Position>
              <LatitudeDegrees>40.7861606217920780181884765625</LatitudeDegrees>
              <LongitudeDegrees>-4.0731430985033512115478515625</LongitudeDegrees>
            </Position>
            <AltitudeMeters>1800.800048828125</AltitudeMeters>
            <DistanceMeters>NAN</DistanceMeters>
          </Trackpoint>
          <Trackpoint>
            <Time>2018-12-30T12:29:05.000Z</Time>
            <Position>
              <LatitudeDegrees>40.7861505635082721710205078125</LatitudeDegrees>
              <LongitudeDegrees>-4.07315508462488651275634765625</LongitudeDegrees>
            </Position>
            <AltitudeMeters>1800.800048828125</AltitudeMeters>
            <DistanceMeters>NAN</DistanceMeters>
          </Trackpoint>
          <Trackpoint>
            <Time>2018-12-30T12:29:06.000Z</Time>
            <Position>
              <LatitudeDegrees>40.7861415110528469085693359375</LatitudeDegrees>
              <LongitudeDegrees>-4.0731685794889926910400390625</LongitudeDegrees>
            </Position>
            <AltitudeMeters>1800.800048828125</AltitudeMeters>
            <DistanceMeters>NAN</DistanceMeters>
          </Trackpoint>
          <Trackpoint>
            <Time>2018-12-30T12:29:07.000Z</Time>
            <Position>
              <LatitudeDegrees>40.7861327938735485076904296875</LatitudeDegrees>
              <LongitudeDegrees>-4.07318039797246456146240234375</LongitudeDegrees>
            </Position>
            <AltitudeMeters>1800.800048828125</AltitudeMeters>
            <DistanceMeters>NAN</DistanceMeters>
          </Trackpoint>
          <Trackpoint>
            <Time>2018-12-30T12:29:08.000Z</Time>
            <Position>
              <LatitudeDegrees>40.7861267589032649993896484375</LatitudeDegrees>
              <LongitudeDegrees>-4.07319347374141216278076171875</LongitudeDegrees>
            </Position>
            <AltitudeMeters>1800.800048828125</AltitudeMeters>
            <DistanceMeters>NAN</DistanceMeters>
          </Trackpoint>
          <Trackpoint>
            <Time>2018-12-30T12:29:09.000Z</Time>
            <Position>
              <LatitudeDegrees>40.78611980192363262176513671875</LatitudeDegrees>
              <LongitudeDegrees>-4.0732061304152011871337890625</LongitudeDegrees>
            </Position>
            <AltitudeMeters>1800.800048828125</AltitudeMeters>
            <DistanceMeters>NAN</DistanceMeters>
          </Trackpoint>
          <Trackpoint>
            <Time>2018-12-30T12:29:10.000Z</Time>
            <Position>
              <LatitudeDegrees>40.78611359931528568267822265625</LatitudeDegrees>
              <LongitudeDegrees>-4.073221720755100250244140625</LongitudeDegrees>
            </Position>
            <AltitudeMeters>1800.800048828125</AltitudeMeters>
            <DistanceMeters>NAN</DistanceMeters>
          </Trackpoint>
          <Trackpoint>
            <Time>2018-12-30T12:29:11.000Z</Time>
            <Position>
              <LatitudeDegrees>40.7861063070595264434814453125</LatitudeDegrees>
              <LongitudeDegrees>-4.0732369758188724517822265625</LongitudeDegrees>
            </Position>
            <AltitudeMeters>1800.5999755859375</AltitudeMeters>
            <DistanceMeters>NAN</DistanceMeters>
          </Trackpoint>
          <Trackpoint>
            <Time>2018-12-30T12:29:12.000Z</Time>
            <Position>
              <LatitudeDegrees>40.78610437922179698944091796875</LatitudeDegrees>
              <LongitudeDegrees>-4.07325332053005695343017578125</LongitudeDegrees>
            </Position>
            <AltitudeMeters>1800</AltitudeMeters>
            <DistanceMeters>NAN</DistanceMeters>
          </Trackpoint>
          <Trackpoint>
            <Time>2018-12-30T12:29:13.000Z</Time>
            <Position>
              <LatitudeDegrees>40.7861009426414966583251953125</LatitudeDegrees>
              <LongitudeDegrees>-4.0732705034315586090087890625</LongitudeDegrees>
            </Position>
            <AltitudeMeters>1799.5999755859375</AltitudeMeters>
            <DistanceMeters>NAN</DistanceMeters>
          </Trackpoint>
          <Trackpoint>
            <Time>2018-12-30T12:29:14.000Z</Time>
            <Position>
              <LatitudeDegrees>40.78609515912830829620361328125</LatitudeDegrees>
              <LongitudeDegrees>-4.07328751869499683380126953125</LongitudeDegrees>
            </Position>
            <AltitudeMeters>1799.199951171875</AltitudeMeters>
            <DistanceMeters>NAN</DistanceMeters>
          </Trackpoint>
          <Trackpoint>
            <Time>2018-12-30T12:29:15.000Z</Time>
            <Position>
              <LatitudeDegrees>40.78608895651996135711669921875</LatitudeDegrees>
              <LongitudeDegrees>-4.0733043663203716278076171875</LongitudeDegrees>
            </Position>
            <AltitudeMeters>1799</AltitudeMeters>
            <DistanceMeters>NAN</DistanceMeters>
          </Trackpoint>
          <Trackpoint>
            <Time>2018-12-30T12:29:16.000Z</Time>
            <Position>
              <LatitudeDegrees>40.78608459793031215667724609375</LatitudeDegrees>
              <LongitudeDegrees>-4.073321633040904998779296875</LongitudeDegrees>
            </Position>
            <AltitudeMeters>1798.800048828125</AltitudeMeters>
            <DistanceMeters>NAN</DistanceMeters>
          </Trackpoint>
          <Trackpoint>
            <Time>2018-12-30T12:29:17.000Z</Time>
            <Position>
              <LatitudeDegrees>40.78607839532196521759033203125</LatitudeDegrees>
              <LongitudeDegrees>-4.07333596609532833099365234375</LongitudeDegrees>
            </Position>
            <AltitudeMeters>1798.800048828125</AltitudeMeters>
            <DistanceMeters>NAN</DistanceMeters>
          </Trackpoint>
          <Trackpoint>
            <Time>2018-12-30T12:29:18.000Z</Time>
            <Position>
              <LatitudeDegrees>40.78607051633298397064208984375</LatitudeDegrees>
              <LongitudeDegrees>-4.073349125683307647705078125</LongitudeDegrees>
            </Position>
            <AltitudeMeters>1798.800048828125</AltitudeMeters>
            <DistanceMeters>NAN</DistanceMeters>
          </Trackpoint>
          <Trackpoint>
            <Time>2018-12-30T12:29:19.000Z</Time>
            <Position>
              <LatitudeDegrees>40.786061547696590423583984375</LatitudeDegrees>
              <LongitudeDegrees>-4.07336287200450897216796875</LongitudeDegrees>
            </Position>
            <AltitudeMeters>1798.800048828125</AltitudeMeters>
            <DistanceMeters>NAN</DistanceMeters>
          </Trackpoint>
          <Trackpoint>
            <Time>2018-12-30T12:29:20.000Z</Time>
            <Position>
              <LatitudeDegrees>40.786053836345672607421875</LatitudeDegrees>
              <LongitudeDegrees>-4.07337938435375690460205078125</LongitudeDegrees>
            </Position>
            <AltitudeMeters>1798.800048828125</AltitudeMeters>
            <DistanceMeters>NAN</DistanceMeters>
          </Trackpoint>
          <Trackpoint>
            <Time>2018-12-30T12:29:21.000Z</Time>
            <Position>
              <LatitudeDegrees>40.78604721464216709136962890625</LatitudeDegrees>
              <LongitudeDegrees>-4.07339572906494140625</LongitudeDegrees>
            </Position>
            <AltitudeMeters>1798.800048828125</AltitudeMeters>
            <DistanceMeters>NAN</DistanceMeters>
          </Trackpoint>
          <Trackpoint>
            <Time>2018-12-30T12:29:22.000Z</Time>
            <Position>
              <LatitudeDegrees>40.78604050911962985992431640625</LatitudeDegrees>
              <LongitudeDegrees>-4.07341090030968189239501953125</LongitudeDegrees>
            </Position>
            <AltitudeMeters>1798.5999755859375</AltitudeMeters>
            <DistanceMeters>NAN</DistanceMeters>
          </Trackpoint>
          <Trackpoint>
            <Time>2018-12-30T12:29:23.000Z</Time>
            <Position>
              <LatitudeDegrees>40.78603128902614116668701171875</LatitudeDegrees>
              <LongitudeDegrees>-4.073422886431217193603515625</LongitudeDegrees>
            </Position>
            <AltitudeMeters>1798.5999755859375</AltitudeMeters>
            <DistanceMeters>NAN</DistanceMeters>
          </Trackpoint>
          <Trackpoint>
            <Time>2018-12-30T12:29:24.000Z</Time>
            <Position>
              <LatitudeDegrees>40.78602341003715991973876953125</LatitudeDegrees>
              <LongitudeDegrees>-4.07343403436243534088134765625</LongitudeDegrees>
            </Position>
            <AltitudeMeters>1798.5999755859375</AltitudeMeters>
            <DistanceMeters>NAN</DistanceMeters>
          </Trackpoint>
          <Trackpoint>
            <Time>2018-12-30T12:29:25.000Z</Time>
            <Position>
              <LatitudeDegrees>40.78601268120110034942626953125</LatitudeDegrees>
              <LongitudeDegrees>-4.0734448470175266265869140625</LongitudeDegrees>
            </Position>
            <AltitudeMeters>1798.5999755859375</AltitudeMeters>
            <DistanceMeters>NAN</DistanceMeters>
          </Trackpoint>
          <Trackpoint>
            <Time>2018-12-30T12:29:26.000Z</Time>
            <Position>
              <LatitudeDegrees>40.7860013656318187713623046875</LatitudeDegrees>
              <LongitudeDegrees>-4.07345473766326904296875</LongitudeDegrees>
            </Position>
            <AltitudeMeters>1798.5999755859375</AltitudeMeters>
            <DistanceMeters>NAN</DistanceMeters>
          </Trackpoint>
          <Trackpoint>
            <Time>2018-12-30T12:29:27.000Z</Time>
            <Position>
              <LatitudeDegrees>40.7859929837286472320556640625</LatitudeDegrees>
              <LongitudeDegrees>-4.07346555031836032867431640625</LongitudeDegrees>
            </Position>
            <AltitudeMeters>1798.5999755859375</AltitudeMeters>
            <DistanceMeters>NAN</DistanceMeters>
          </Trackpoint>
          <Trackpoint>
            <Time>2018-12-30T12:29:28.000Z</Time>
            <Position>
              <LatitudeDegrees>40.78598300926387310028076171875</LatitudeDegrees>
              <LongitudeDegrees>-4.07347862608730792999267578125</LongitudeDegrees>
            </Position>
            <AltitudeMeters>1798.5999755859375</AltitudeMeters>
            <DistanceMeters>NAN</DistanceMeters>
          </Trackpoint>
          <Trackpoint>
            <Time>2018-12-30T12:29:29.000Z</Time>
            <Position>
              <LatitudeDegrees>40.7859758846461772918701171875</LatitudeDegrees>
              <LongitudeDegrees>-4.07349337823688983917236328125</LongitudeDegrees>
            </Position>
            <AltitudeMeters>1798.5999755859375</AltitudeMeters>
            <DistanceMeters>NAN</DistanceMeters>
          </Trackpoint>
          <Trackpoint>
            <Time>2018-12-30T12:29:30.000Z</Time>
            <Position>
              <LatitudeDegrees>40.7859668321907520294189453125</LatitudeDegrees>
              <LongitudeDegrees>-4.07350813038647174835205078125</LongitudeDegrees>
            </Position>
            <AltitudeMeters>1798.4000244140625</AltitudeMeters>
            <DistanceMeters>NAN</DistanceMeters>
          </Trackpoint>
          <Trackpoint>
            <Time>2018-12-30T12:29:31.000Z</Time>
            <Position>
              <LatitudeDegrees>40.7859601266682147979736328125</LatitudeDegrees>
              <LongitudeDegrees>-4.0735222958028316497802734375</LongitudeDegrees>
            </Position>
            <AltitudeMeters>1798.4000244140625</AltitudeMeters>
            <DistanceMeters>NAN</DistanceMeters>
          </Trackpoint>
          <Trackpoint>
            <Time>2018-12-30T12:29:32.000Z</Time>
            <Position>
              <LatitudeDegrees>40.78595467843115329742431640625</LatitudeDegrees>
              <LongitudeDegrees>-4.07353495247662067413330078125</LongitudeDegrees>
            </Position>
            <AltitudeMeters>1798.4000244140625</AltitudeMeters>
            <DistanceMeters>NAN</DistanceMeters>
          </Trackpoint>
          <Trackpoint>
            <Time>2018-12-30T12:29:33.000Z</Time>
            <Position>
              <LatitudeDegrees>40.78595124185085296630859375</LatitudeDegrees>
              <LongitudeDegrees>-4.0735487826168537139892578125</LongitudeDegrees>
            </Position>
            <AltitudeMeters>1798.4000244140625</AltitudeMeters>
            <DistanceMeters>NAN</DistanceMeters>
          </Trackpoint>
          <Trackpoint>
            <Time>2018-12-30T12:29:34.000Z</Time>
            <Position>
              <LatitudeDegrees>40.78594394959509372711181640625</LatitudeDegrees>
              <LongitudeDegrees>-4.07356001436710357666015625</LongitudeDegrees>
            </Position>
            <AltitudeMeters>1798.4000244140625</AltitudeMeters>
            <DistanceMeters>NAN</DistanceMeters>
          </Trackpoint>
          <Trackpoint>
            <Time>2018-12-30T12:29:35.000Z</Time>
            <Position>
              <LatitudeDegrees>40.78593707643449306488037109375</LatitudeDegrees>
              <LongitudeDegrees>-4.073573760688304901123046875</LongitudeDegrees>
            </Position>
            <AltitudeMeters>1798.5999755859375</AltitudeMeters>
            <DistanceMeters>NAN</DistanceMeters>
          </Trackpoint>
          <Trackpoint>
            <Time>2018-12-30T12:29:36.000Z</Time>
            <Position>
              <LatitudeDegrees>40.7859265990555286407470703125</LatitudeDegrees>
              <LongitudeDegrees>-4.07358457334339618682861328125</LongitudeDegrees>
            </Position>
            <AltitudeMeters>1798.800048828125</AltitudeMeters>
            <DistanceMeters>NAN</DistanceMeters>
          </Trackpoint>
          <Trackpoint>
            <Time>2018-12-30T12:29:37.000Z</Time>
            <Position>
              <LatitudeDegrees>40.78591612167656421661376953125</LatitudeDegrees>
              <LongitudeDegrees>-4.07359446398913860321044921875</LongitudeDegrees>
            </Position>
            <AltitudeMeters>1799</AltitudeMeters>
            <DistanceMeters>NAN</DistanceMeters>
          </Trackpoint>
          <Trackpoint>
            <Time>2018-12-30T12:29:38.000Z</Time>
            <Position>
              <LatitudeDegrees>40.78591075725853443145751953125</LatitudeDegrees>
              <LongitudeDegrees>-4.07360418699681758880615234375</LongitudeDegrees>
            </Position>
            <AltitudeMeters>1799</AltitudeMeters>
            <DistanceMeters>NAN</DistanceMeters>
          </Trackpoint>
          <Trackpoint>
            <Time>2018-12-30T12:29:39.000Z</Time>
            <Position>
              <LatitudeDegrees>40.78590405173599720001220703125</LatitudeDegrees>
              <LongitudeDegrees>-4.07361391000449657440185546875</LongitudeDegrees>
            </Position>
            <AltitudeMeters>1799</AltitudeMeters>
            <DistanceMeters>NAN</DistanceMeters>
          </Trackpoint>
          <Trackpoint>
            <Time>2018-12-30T12:29:40.000Z</Time>
            <Position>
              <LatitudeDegrees>40.785896591842174530029296875</LatitudeDegrees>
              <LongitudeDegrees>-4.07362530939280986785888671875</LongitudeDegrees>
            </Position>
            <AltitudeMeters>1799</AltitudeMeters>
            <DistanceMeters>NAN</DistanceMeters>
          </Trackpoint>
          <Trackpoint>
            <Time>2018-12-30T12:29:41.000Z</Time>
            <Position>
              <LatitudeDegrees>40.785884857177734375</LatitudeDegrees>
              <LongitudeDegrees>-4.0736372955143451690673828125</LongitudeDegrees>
            </Position>
            <AltitudeMeters>1799</AltitudeMeters>
            <DistanceMeters>NAN</DistanceMeters>
          </Trackpoint>
          <Trackpoint>
            <Time>2018-12-30T12:29:42.000Z</Time>
            <Position>
              <LatitudeDegrees>40.785872451961040496826171875</LatitudeDegrees>
              <LongitudeDegrees>-4.07364785671234130859375</LongitudeDegrees>
            </Position>
            <AltitudeMeters>1799.199951171875</AltitudeMeters>
            <DistanceMeters>NAN</DistanceMeters>
          </Trackpoint>
          <Trackpoint>
            <Time>2018-12-30T12:29:43.000Z</Time>
            <Position>
              <LatitudeDegrees>40.78586063347756862640380859375</LatitudeDegrees>
              <LongitudeDegrees>-4.0736597590148448944091796875</LongitudeDegrees>
            </Position>
            <AltitudeMeters>1799</AltitudeMeters>
            <DistanceMeters>NAN</DistanceMeters>
          </Trackpoint>
          <Trackpoint>
            <Time>2018-12-30T12:29:44.000Z</Time>
            <Position>
              <LatitudeDegrees>40.78584797680377960205078125</LatitudeDegrees>
              <LongitudeDegrees>-4.0736704878509044647216796875</LongitudeDegrees>
            </Position>
            <AltitudeMeters>1799</AltitudeMeters>
            <DistanceMeters>NAN</DistanceMeters>
          </Trackpoint>
          <Trackpoint>
            <Time>2018-12-30T12:29:45.000Z</Time>
            <Position>
              <LatitudeDegrees>40.7858357392251491546630859375</LatitudeDegrees>
              <LongitudeDegrees>-4.0736795403063297271728515625</LongitudeDegrees>
            </Position>
            <AltitudeMeters>1799</AltitudeMeters>
            <DistanceMeters>NAN</DistanceMeters>
          </Trackpoint>
          <Trackpoint>
            <Time>2018-12-30T12:29:46.000Z</Time>
            <Position>
              <LatitudeDegrees>40.78582107089459896087646484375</LatitudeDegrees>
              <LongitudeDegrees>-4.0736882574856281280517578125</LongitudeDegrees>
            </Position>
            <AltitudeMeters>1799.199951171875</AltitudeMeters>
            <DistanceMeters>NAN</DistanceMeters>
          </Trackpoint>
          <Trackpoint>
            <Time>2018-12-30T12:29:47.000Z</Time>
            <Position>
              <LatitudeDegrees>40.7858097553253173828125</LatitudeDegrees>
              <LongitudeDegrees>-4.07369990833103656768798828125</LongitudeDegrees>
            </Position>
            <AltitudeMeters>1799.199951171875</AltitudeMeters>
            <DistanceMeters>NAN</DistanceMeters>
          </Trackpoint>
          <Trackpoint>
            <Time>2018-12-30T12:29:48.000Z</Time>
            <Position>
              <LatitudeDegrees>40.78580028377473354339599609375</LatitudeDegrees>
              <LongitudeDegrees>-4.07371331937611103057861328125</LongitudeDegrees>
            </Position>
            <AltitudeMeters>1799.199951171875</AltitudeMeters>
            <DistanceMeters>NAN</DistanceMeters>
          </Trackpoint>
          <Trackpoint>
            <Time>2018-12-30T12:29:49.000Z</Time>
            <Position>
              <LatitudeDegrees>40.7857921533286571502685546875</LatitudeDegrees>
              <LongitudeDegrees>-4.0737269818782806396484375</LongitudeDegrees>
            </Position>
            <AltitudeMeters>1799.199951171875</AltitudeMeters>
            <DistanceMeters>NAN</DistanceMeters>
          </Trackpoint>
          <Trackpoint>
            <Time>2018-12-30T12:29:50.000Z</Time>
            <Position>
              <LatitudeDegrees>40.78578150831162929534912109375</LatitudeDegrees>
              <LongitudeDegrees>-4.0737365372478961944580078125</LongitudeDegrees>
            </Position>
            <AltitudeMeters>1799.199951171875</AltitudeMeters>
            <DistanceMeters>NAN</DistanceMeters>
          </Trackpoint>
          <Trackpoint>
            <Time>2018-12-30T12:29:51.000Z</Time>
            <Position>
              <LatitudeDegrees>40.78576876781880855560302734375</LatitudeDegrees>
              <LongitudeDegrees>-4.073743410408496856689453125</LongitudeDegrees>
            </Position>
            <AltitudeMeters>1799.4000244140625</AltitudeMeters>
            <DistanceMeters>NAN</DistanceMeters>
          </Trackpoint>
          <Trackpoint>
            <Time>2018-12-30T12:29:52.000Z</Time>
            <Position>
              <LatitudeDegrees>40.78575535677373409271240234375</LatitudeDegrees>
              <LongitudeDegrees>-4.07374919392168521881103515625</LongitudeDegrees>
            </Position>
            <AltitudeMeters>1799.4000244140625</AltitudeMeters>
            <DistanceMeters>NAN</DistanceMeters>
          </Trackpoint>
          <Trackpoint>
            <Time>2018-12-30T12:29:53.000Z</Time>
            <Position>
              <LatitudeDegrees>40.7857435382902622222900390625</LatitudeDegrees>
              <LongitudeDegrees>-4.07375690527260303497314453125</LongitudeDegrees>
            </Position>
            <AltitudeMeters>1799.4000244140625</AltitudeMeters>
            <DistanceMeters>NAN</DistanceMeters>
          </Trackpoint>
          <Trackpoint>
            <Time>2018-12-30T12:29:54.000Z</Time>
            <Position>
              <LatitudeDegrees>40.785731635987758636474609375</LatitudeDegrees>
              <LongitudeDegrees>-4.07376587390899658203125</LongitudeDegrees>
            </Position>
            <AltitudeMeters>1799.4000244140625</AltitudeMeters>
            <DistanceMeters>NAN</DistanceMeters>
          </Trackpoint>
          <Trackpoint>
            <Time>2018-12-30T12:29:55.000Z</Time>
            <Position>
              <LatitudeDegrees>40.78572015278041362762451171875</LatitudeDegrees>
              <LongitudeDegrees>-4.0737750940024852752685546875</LongitudeDegrees>
            </Position>
            <AltitudeMeters>1799.5999755859375</AltitudeMeters>
            <DistanceMeters>NAN</DistanceMeters>
          </Trackpoint>
          <Trackpoint>
            <Time>2018-12-30T12:29:56.000Z</Time>
            <Position>
              <LatitudeDegrees>40.78570925630629062652587890625</LatitudeDegrees>
              <LongitudeDegrees>-4.07378473319113254547119140625</LongitudeDegrees>
            </Position>
            <AltitudeMeters>1799.5999755859375</AltitudeMeters>
            <DistanceMeters>NAN</DistanceMeters>
          </Trackpoint>
          <Trackpoint>
            <Time>2018-12-30T12:29:57.000Z</Time>
            <Position>
              <LatitudeDegrees>40.7856986112892627716064453125</LatitudeDegrees>
              <LongitudeDegrees>-4.07379470765590667724609375</LongitudeDegrees>
            </Position>
            <AltitudeMeters>1799.5999755859375</AltitudeMeters>
            <DistanceMeters>NAN</DistanceMeters>
          </Trackpoint>
          <Trackpoint>
            <Time>2018-12-30T12:29:58.000Z</Time>
            <Position>
              <LatitudeDegrees>40.7856878824532032012939453125</LatitudeDegrees>
              <LongitudeDegrees>-4.0738047659397125244140625</LongitudeDegrees>
            </Position>
            <AltitudeMeters>1799.5999755859375</AltitudeMeters>
            <DistanceMeters>NAN</DistanceMeters>
          </Trackpoint>
          <Trackpoint>
            <Time>2018-12-30T12:29:59.000Z</Time>
            <Position>
              <LatitudeDegrees>40.78567639924585819244384765625</LatitudeDegrees>
              <LongitudeDegrees>-4.073814488947391510009765625</LongitudeDegrees>
            </Position>
            <AltitudeMeters>1799.5999755859375</AltitudeMeters>
            <DistanceMeters>NAN</DistanceMeters>
          </Trackpoint>
          <Trackpoint>
            <Time>2018-12-30T12:30:00.000Z</Time>
            <Position>
              <LatitudeDegrees>40.7856644131243228912353515625</LatitudeDegrees>
              <LongitudeDegrees>-4.07382228411734104156494140625</LongitudeDegrees>
            </Position>
            <AltitudeMeters>1799.5999755859375</AltitudeMeters>
            <DistanceMeters>NAN</DistanceMeters>
          </Trackpoint>
          <Trackpoint>
            <Time>2018-12-30T12:30:01.000Z</Time>
            <Position>
              <LatitudeDegrees>40.785653851926326751708984375</LatitudeDegrees>
              <LongitudeDegrees>-4.07383351586759090423583984375</LongitudeDegrees>
            </Position>
            <AltitudeMeters>1799.800048828125</AltitudeMeters>
            <DistanceMeters>NAN</DistanceMeters>
          </Trackpoint>
          <Trackpoint>
            <Time>2018-12-30T12:30:02.000Z</Time>
            <Position>
              <LatitudeDegrees>40.78564421273767948150634765625</LatitudeDegrees>
              <LongitudeDegrees>-4.07384508289396762847900390625</LongitudeDegrees>
            </Position>
            <AltitudeMeters>1799.800048828125</AltitudeMeters>
            <DistanceMeters>NAN</DistanceMeters>
          </Trackpoint>
          <Trackpoint>
            <Time>2018-12-30T12:30:03.000Z</Time>
            <Position>
              <LatitudeDegrees>40.78563516028225421905517578125</LatitudeDegrees>
              <LongitudeDegrees>-4.0738562308251857757568359375</LongitudeDegrees>
            </Position>
            <AltitudeMeters>1800</AltitudeMeters>
            <DistanceMeters>NAN</DistanceMeters>
          </Trackpoint>
          <Trackpoint>
            <Time>2018-12-30T12:30:04.000Z</Time>
            <Position>
              <LatitudeDegrees>40.7856292091310024261474609375</LatitudeDegrees>
              <LongitudeDegrees>-4.0738703124225139617919921875</LongitudeDegrees>
            </Position>
            <AltitudeMeters>1800</AltitudeMeters>
            <DistanceMeters>NAN</DistanceMeters>
          </Trackpoint>
          <Trackpoint>
            <Time>2018-12-30T12:30:05.000Z</Time>
            <Position>
              <LatitudeDegrees>40.785625018179416656494140625</LatitudeDegrees>
              <LongitudeDegrees>-4.07388397492468357086181640625</LongitudeDegrees>
            </Position>
            <AltitudeMeters>1800</AltitudeMeters>
            <DistanceMeters>NAN</DistanceMeters>
          </Trackpoint>
          <Trackpoint>
            <Time>2018-12-30T12:30:06.000Z</Time>
            <Position>
              <LatitudeDegrees>40.7856164686381816864013671875</LatitudeDegrees>
              <LongitudeDegrees>-4.07390006817877292633056640625</LongitudeDegrees>
            </Position>
            <AltitudeMeters>1799.800048828125</AltitudeMeters>
            <DistanceMeters>NAN</DistanceMeters>
          </Trackpoint>
          <Trackpoint>
            <Time>2018-12-30T12:30:07.000Z</Time>
            <Position>
              <LatitudeDegrees>40.78560657799243927001953125</LatitudeDegrees>
              <LongitudeDegrees>-4.07391565851867198944091796875</LongitudeDegrees>
            </Position>
            <AltitudeMeters>1799.800048828125</AltitudeMeters>
            <DistanceMeters>NAN</DistanceMeters>
          </Trackpoint>
          <Trackpoint>
            <Time>2018-12-30T12:30:08.000Z</Time>
            <Position>
              <LatitudeDegrees>40.7855997048318386077880859375</LatitudeDegrees>
              <LongitudeDegrees>-4.07393284142017364501953125</LongitudeDegrees>
            </Position>
            <AltitudeMeters>1799.800048828125</AltitudeMeters>
            <DistanceMeters>NAN</DistanceMeters>
          </Trackpoint>
          <Trackpoint>
            <Time>2018-12-30T12:30:09.000Z</Time>
            <Position>
              <LatitudeDegrees>40.78559509478509426116943359375</LatitudeDegrees>
              <LongitudeDegrees>-4.0739497728645801544189453125</LongitudeDegrees>
            </Position>
            <AltitudeMeters>1799.5999755859375</AltitudeMeters>
            <DistanceMeters>NAN</DistanceMeters>
          </Trackpoint>
          <Trackpoint>
            <Time>2018-12-30T12:30:10.000Z</Time>
            <Position>
              <LatitudeDegrees>40.78559073619544506072998046875</LatitudeDegrees>
              <LongitudeDegrees>-4.07396712340414524078369140625</LongitudeDegrees>
            </Position>
            <AltitudeMeters>1799.4000244140625</AltitudeMeters>
            <DistanceMeters>NAN</DistanceMeters>
          </Trackpoint>
          <Trackpoint>
            <Time>2018-12-30T12:30:11.000Z</Time>
            <Position>
              <LatitudeDegrees>40.78558386303484439849853515625</LatitudeDegrees>
              <LongitudeDegrees>-4.07398221082985401153564453125</LongitudeDegrees>
            </Position>
            <AltitudeMeters>1799.4000244140625</AltitudeMeters>
            <DistanceMeters>NAN</DistanceMeters>
          </Trackpoint>
          <Trackpoint>
            <Time>2018-12-30T12:30:12.000Z</Time>
            <Position>
              <LatitudeDegrees>40.7855799235403537750244140625</LatitudeDegrees>
              <LongitudeDegrees>-4.07399763353168964385986328125</LongitudeDegrees>
            </Position>
            <AltitudeMeters>1799.4000244140625</AltitudeMeters>
            <DistanceMeters>NAN</DistanceMeters>
          </Trackpoint>
          <Trackpoint>
            <Time>2018-12-30T12:30:13.000Z</Time>
            <Position>
              <LatitudeDegrees>40.78557330183684825897216796875</LatitudeDegrees>
              <LongitudeDegrees>-4.0740107931196689605712890625</LongitudeDegrees>
            </Position>
            <AltitudeMeters>1799.4000244140625</AltitudeMeters>
            <DistanceMeters>NAN</DistanceMeters>
          </Trackpoint>
          <Trackpoint>
            <Time>2018-12-30T12:30:14.000Z</Time>
            <Position>
              <LatitudeDegrees>40.7855645008385181427001953125</LatitudeDegrees>
              <LongitudeDegrees>-4.07402537763118743896484375</LongitudeDegrees>
            </Position>
            <AltitudeMeters>1799.4000244140625</AltitudeMeters>
            <DistanceMeters>NAN</DistanceMeters>
          </Trackpoint>
          <Trackpoint>
            <Time>2018-12-30T12:30:15.000Z</Time>
            <Position>
              <LatitudeDegrees>40.785554945468902587890625</LatitudeDegrees>
              <LongitudeDegrees>-4.074038453400135040283203125</LongitudeDegrees>
            </Position>
            <AltitudeMeters>1799.4000244140625</AltitudeMeters>
            <DistanceMeters>NAN</DistanceMeters>
          </Trackpoint>
          <Trackpoint>
            <Time>2018-12-30T12:30:16.000Z</Time>
            <Position>
              <LatitudeDegrees>40.78554580919444561004638671875</LatitudeDegrees>
              <LongitudeDegrees>-4.074052534997463226318359375</LongitudeDegrees>
            </Position>
            <AltitudeMeters>1799.4000244140625</AltitudeMeters>
            <DistanceMeters>NAN</DistanceMeters>
          </Trackpoint>
          <Trackpoint>
            <Time>2018-12-30T12:30:17.000Z</Time>
            <Position>
              <LatitudeDegrees>40.7855406962335109710693359375</LatitudeDegrees>
              <LongitudeDegrees>-4.074068963527679443359375</LongitudeDegrees>
            </Position>
            <AltitudeMeters>1799.4000244140625</AltitudeMeters>
            <DistanceMeters>NAN</DistanceMeters>
          </Trackpoint>
          <Trackpoint>
            <Time>2018-12-30T12:30:18.000Z</Time>
            <Position>
              <LatitudeDegrees>40.7855383493006229400634765625</LatitudeDegrees>
              <LongitudeDegrees>-4.0740862302482128143310546875</LongitudeDegrees>
            </Position>
            <AltitudeMeters>1799.4000244140625</AltitudeMeters>
            <DistanceMeters>NAN</DistanceMeters>
          </Trackpoint>
          <Trackpoint>
            <Time>2018-12-30T12:30:19.000Z</Time>
            <Position>
              <LatitudeDegrees>40.78553457744419574737548828125</LatitudeDegrees>
              <LongitudeDegrees>-4.07410156913101673126220703125</LongitudeDegrees>
            </Position>
            <AltitudeMeters>1799.4000244140625</AltitudeMeters>
            <DistanceMeters>NAN</DistanceMeters>
          </Trackpoint>
          <Trackpoint>
            <Time>2018-12-30T12:30:20.000Z</Time>
            <Position>
              <LatitudeDegrees>40.78552988357841968536376953125</LatitudeDegrees>
              <LongitudeDegrees>-4.07411850057542324066162109375</LongitudeDegrees>
            </Position>
            <AltitudeMeters>1799.4000244140625</AltitudeMeters>
            <DistanceMeters>NAN</DistanceMeters>
          </Trackpoint>
          <Trackpoint>
            <Time>2018-12-30T12:30:21.000Z</Time>
            <Position>
              <LatitudeDegrees>40.78552602790296077728271484375</LatitudeDegrees>
              <LongitudeDegrees>-4.07413400709629058837890625</LongitudeDegrees>
            </Position>
            <AltitudeMeters>1799.199951171875</AltitudeMeters>
            <DistanceMeters>NAN</DistanceMeters>
          </Trackpoint>
          <Trackpoint>
            <Time>2018-12-30T12:30:22.000Z</Time>
            <Position>
              <LatitudeDegrees>40.78552485443651676177978515625</LatitudeDegrees>
              <LongitudeDegrees>-4.074151106178760528564453125</LongitudeDegrees>
            </Position>
            <AltitudeMeters>1799.199951171875</AltitudeMeters>
            <DistanceMeters>NAN</DistanceMeters>
          </Trackpoint>
          <Trackpoint>
            <Time>2018-12-30T12:30:23.000Z</Time>
            <Position>
              <LatitudeDegrees>40.785525776445865631103515625</LatitudeDegrees>
              <LongitudeDegrees>-4.0741690434515476226806640625</LongitudeDegrees>
            </Position>
            <AltitudeMeters>1799.199951171875</AltitudeMeters>
            <DistanceMeters>NAN</DistanceMeters>
          </Trackpoint>
          <Trackpoint>
            <Time>2018-12-30T12:30:24.000Z</Time>
            <Position>
              <LatitudeDegrees>40.7855232618749141693115234375</LatitudeDegrees>
              <LongitudeDegrees>-4.074185974895954132080078125</LongitudeDegrees>
            </Position>
            <AltitudeMeters>1799</AltitudeMeters>
            <DistanceMeters>NAN</DistanceMeters>
          </Trackpoint>
          <Trackpoint>
            <Time>2018-12-30T12:30:25.000Z</Time>
            <Position>
              <LatitudeDegrees>40.78551747836172580718994140625</LatitudeDegrees>
              <LongitudeDegrees>-4.0741995535790920257568359375</LongitudeDegrees>
            </Position>
            <AltitudeMeters>1799</AltitudeMeters>
            <DistanceMeters>NAN</DistanceMeters>
          </Trackpoint>
          <Trackpoint>
            <Time>2018-12-30T12:30:26.000Z</Time>
            <Position>
              <LatitudeDegrees>40.78551496379077434539794921875</LatitudeDegrees>
              <LongitudeDegrees>-4.0742189995944499969482421875</LongitudeDegrees>
            </Position>
            <AltitudeMeters>1799</AltitudeMeters>
            <DistanceMeters>NAN</DistanceMeters>
          </Trackpoint>
          <Trackpoint>
            <Time>2018-12-30T12:30:27.000Z</Time>
            <Position>
              <LatitudeDegrees>40.78551613725721836090087890625</LatitudeDegrees>
              <LongitudeDegrees>-4.074236266314983367919921875</LongitudeDegrees>
            </Position>
            <AltitudeMeters>1799</AltitudeMeters>
            <DistanceMeters>NAN</DistanceMeters>
          </Trackpoint>
          <Trackpoint>
            <Time>2018-12-30T12:30:28.000Z</Time>
            <Position>
              <LatitudeDegrees>40.78551471233367919921875</LatitudeDegrees>
              <LongitudeDegrees>-4.07425361685454845428466796875</LongitudeDegrees>
            </Position>
            <AltitudeMeters>1799</AltitudeMeters>
            <DistanceMeters>NAN</DistanceMeters>
          </Trackpoint>
          <Trackpoint>
            <Time>2018-12-30T12:30:29.000Z</Time>
            <Position>
              <LatitudeDegrees>40.78550674952566623687744140625</LatitudeDegrees>
              <LongitudeDegrees>-4.07427188940346240997314453125</LongitudeDegrees>
            </Position>
            <AltitudeMeters>1799.199951171875</AltitudeMeters>
            <DistanceMeters>NAN</DistanceMeters>
          </Trackpoint>
          <Trackpoint>
            <Time>2018-12-30T12:30:30.000Z</Time>
            <Position>
              <LatitudeDegrees>40.78549618832767009735107421875</LatitudeDegrees>
              <LongitudeDegrees>-4.07429150305688381195068359375</LongitudeDegrees>
            </Position>
            <AltitudeMeters>1799.199951171875</AltitudeMeters>
            <DistanceMeters>NAN</DistanceMeters>
          </Trackpoint>
          <Trackpoint>
            <Time>2018-12-30T12:30:31.000Z</Time>
            <Position>
              <LatitudeDegrees>40.785492919385433197021484375</LatitudeDegrees>
              <LongitudeDegrees>-4.0743115358054637908935546875</LongitudeDegrees>
            </Position>
            <AltitudeMeters>1799.199951171875</AltitudeMeters>
            <DistanceMeters>NAN</DistanceMeters>
          </Trackpoint>
          <Trackpoint>
            <Time>2018-12-30T12:30:32.000Z</Time>
            <Position>
              <LatitudeDegrees>40.7854873873293399810791015625</LatitudeDegrees>
              <LongitudeDegrees>-4.07432687468826770782470703125</LongitudeDegrees>
            </Position>
            <AltitudeMeters>1799.199951171875</AltitudeMeters>
            <DistanceMeters>NAN</DistanceMeters>
          </Trackpoint>
          <Trackpoint>
            <Time>2018-12-30T12:30:33.000Z</Time>
            <Position>
              <LatitudeDegrees>40.7854857109487056732177734375</LatitudeDegrees>
              <LongitudeDegrees>-4.0743440575897693634033203125</LongitudeDegrees>
            </Position>
            <AltitudeMeters>1799.199951171875</AltitudeMeters>
            <DistanceMeters>NAN</DistanceMeters>
          </Trackpoint>
          <Trackpoint>
            <Time>2018-12-30T12:30:34.000Z</Time>
            <Position>
              <LatitudeDegrees>40.7854850403964519500732421875</LatitudeDegrees>
              <LongitudeDegrees>-4.0743611566722393035888671875</LongitudeDegrees>
            </Position>
            <AltitudeMeters>1799.199951171875</AltitudeMeters>
            <DistanceMeters>NAN</DistanceMeters>
          </Trackpoint>
          <Trackpoint>
            <Time>2018-12-30T12:30:35.000Z</Time>
            <Position>
              <LatitudeDegrees>40.78547975979745388031005859375</LatitudeDegrees>
              <LongitudeDegrees>-4.0743779204785823822021484375</LongitudeDegrees>
            </Position>
            <AltitudeMeters>1799</AltitudeMeters>
            <DistanceMeters>NAN</DistanceMeters>
          </Trackpoint>
          <Trackpoint>
            <Time>2018-12-30T12:30:36.000Z</Time>
            <Position>
              <LatitudeDegrees>40.78547473065555095672607421875</LatitudeDegrees>
              <LongitudeDegrees>-4.0743936784565448760986328125</LongitudeDegrees>
            </Position>
            <AltitudeMeters>1799</AltitudeMeters>
            <DistanceMeters>NAN</DistanceMeters>
          </Trackpoint>
          <Trackpoint>
            <Time>2018-12-30T12:30:37.000Z</Time>
            <Position>
              <LatitudeDegrees>40.78546768985688686370849609375</LatitudeDegrees>
              <LongitudeDegrees>-4.074409939348697662353515625</LongitudeDegrees>
            </Position>
            <AltitudeMeters>1799</AltitudeMeters>
            <DistanceMeters>NAN</DistanceMeters>
          </Trackpoint>
          <Trackpoint>
            <Time>2018-12-30T12:30:38.000Z</Time>
            <Position>
              <LatitudeDegrees>40.78546349890530109405517578125</LatitudeDegrees>
              <LongitudeDegrees>-4.07442494295537471771240234375</LongitudeDegrees>
            </Position>
            <AltitudeMeters>1799</AltitudeMeters>
            <DistanceMeters>NAN</DistanceMeters>
          </Trackpoint>
          <Trackpoint>
            <Time>2018-12-30T12:30:39.000Z</Time>
            <Position>
              <LatitudeDegrees>40.78546039760112762451171875</LatitudeDegrees>
              <LongitudeDegrees>-4.07443952746689319610595703125</LongitudeDegrees>
            </Position>
            <AltitudeMeters>1799</AltitudeMeters>
            <DistanceMeters>NAN</DistanceMeters>
          </Trackpoint>
          <Trackpoint>
            <Time>2018-12-30T12:30:40.000Z</Time>
            <Position>
              <LatitudeDegrees>40.785458385944366455078125</LatitudeDegrees>
              <LongitudeDegrees>-4.0744538605213165283203125</LongitudeDegrees>
            </Position>
            <AltitudeMeters>1799</AltitudeMeters>
            <DistanceMeters>NAN</DistanceMeters>
          </Trackpoint>
          <Trackpoint>
            <Time>2018-12-30T12:30:41.000Z</Time>
            <Position>
              <LatitudeDegrees>40.78545578755438327789306640625</LatitudeDegrees>
              <LongitudeDegrees>-4.07446886412799358367919921875</LongitudeDegrees>
            </Position>
            <AltitudeMeters>1799</AltitudeMeters>
            <DistanceMeters>NAN</DistanceMeters>
          </Trackpoint>
          <Trackpoint>
            <Time>2018-12-30T12:30:42.000Z</Time>
            <Position>
              <LatitudeDegrees>40.7854565419256687164306640625</LatitudeDegrees>
              <LongitudeDegrees>-4.0744887292385101318359375</LongitudeDegrees>
            </Position>
            <AltitudeMeters>1799</AltitudeMeters>
            <DistanceMeters>NAN</DistanceMeters>
          </Trackpoint>
          <Trackpoint>
            <Time>2018-12-30T12:30:43.000Z</Time>
            <Position>
              <LatitudeDegrees>40.78545360825955867767333984375</LatitudeDegrees>
              <LongitudeDegrees>-4.07450574450194835662841796875</LongitudeDegrees>
            </Position>
            <AltitudeMeters>1799</AltitudeMeters>
            <DistanceMeters>NAN</DistanceMeters>
          </Trackpoint>
          <Trackpoint>
            <Time>2018-12-30T12:30:44.000Z</Time>
            <Position>
              <LatitudeDegrees>40.78544740565121173858642578125</LatitudeDegrees>
              <LongitudeDegrees>-4.074519574642181396484375</LongitudeDegrees>
            </Position>
            <AltitudeMeters>1799</AltitudeMeters>
            <DistanceMeters>NAN</DistanceMeters>
          </Trackpoint>
          <Trackpoint>
            <Time>2018-12-30T12:30:45.000Z</Time>
            <Position>
              <LatitudeDegrees>40.78544321469962596893310546875</LatitudeDegrees>
              <LongitudeDegrees>-4.0745344944298267364501953125</LongitudeDegrees>
            </Position>
            <AltitudeMeters>1798.800048828125</AltitudeMeters>
            <DistanceMeters>NAN</DistanceMeters>
          </Trackpoint>
          <Trackpoint>
            <Time>2018-12-30T12:30:46.000Z</Time>
            <Position>
              <LatitudeDegrees>40.78543893992900848388671875</LatitudeDegrees>
              <LongitudeDegrees>-4.07455201260745525360107421875</LongitudeDegrees>
            </Position>
            <AltitudeMeters>1798.800048828125</AltitudeMeters>
            <DistanceMeters>NAN</DistanceMeters>
          </Trackpoint>
          <Trackpoint>
            <Time>2018-12-30T12:30:47.000Z</Time>
            <Position>
              <LatitudeDegrees>40.7854320667684078216552734375</LatitudeDegrees>
              <LongitudeDegrees>-4.07456827349960803985595703125</LongitudeDegrees>
            </Position>
            <AltitudeMeters>1798.800048828125</AltitudeMeters>
            <DistanceMeters>NAN</DistanceMeters>
          </Trackpoint>
          <Trackpoint>
            <Time>2018-12-30T12:30:48.000Z</Time>
            <Position>
              <LatitudeDegrees>40.78542879782617092132568359375</LatitudeDegrees>
              <LongitudeDegrees>-4.07458621077239513397216796875</LongitudeDegrees>
            </Position>
            <AltitudeMeters>1798.800048828125</AltitudeMeters>
            <DistanceMeters>NAN</DistanceMeters>
          </Trackpoint>
          <Trackpoint>
            <Time>2018-12-30T12:30:49.000Z</Time>
            <Position>
              <LatitudeDegrees>40.785426534712314605712890625</LatitudeDegrees>
              <LongitudeDegrees>-4.0746052376925945281982421875</LongitudeDegrees>
            </Position>
            <AltitudeMeters>1799</AltitudeMeters>
            <DistanceMeters>NAN</DistanceMeters>
          </Trackpoint>
          <Trackpoint>
            <Time>2018-12-30T12:30:50.000Z</Time>
            <Position>
              <LatitudeDegrees>40.78541924245655536651611328125</LatitudeDegrees>
              <LongitudeDegrees>-4.07462409697473049163818359375</LongitudeDegrees>
            </Position>
            <AltitudeMeters>1799</AltitudeMeters>
            <DistanceMeters>NAN</DistanceMeters>
          </Trackpoint>
          <Trackpoint>
            <Time>2018-12-30T12:30:51.000Z</Time>
            <Position>
              <LatitudeDegrees>40.785410441458225250244140625</LatitudeDegrees>
              <LongitudeDegrees>-4.074641279876232147216796875</LongitudeDegrees>
            </Position>
            <AltitudeMeters>1798.800048828125</AltitudeMeters>
            <DistanceMeters>NAN</DistanceMeters>
          </Trackpoint>
          <Trackpoint>
            <Time>2018-12-30T12:30:52.000Z</Time>
            <Position>
              <LatitudeDegrees>40.785407088696956634521484375</LatitudeDegrees>
              <LongitudeDegrees>-4.0746588818728923797607421875</LongitudeDegrees>
            </Position>
            <AltitudeMeters>1798.800048828125</AltitudeMeters>
            <DistanceMeters>NAN</DistanceMeters>
          </Trackpoint>
          <Trackpoint>
            <Time>2018-12-30T12:30:53.000Z</Time>
            <Position>
              <LatitudeDegrees>40.78540281392633914947509765625</LatitudeDegrees>
              <LongitudeDegrees>-4.07467908225953578948974609375</LongitudeDegrees>
            </Position>
            <AltitudeMeters>1798.800048828125</AltitudeMeters>
            <DistanceMeters>NAN</DistanceMeters>
          </Trackpoint>
          <Trackpoint>
            <Time>2018-12-30T12:30:54.000Z</Time>
            <Position>
              <LatitudeDegrees>40.78539812006056308746337890625</LatitudeDegrees>
              <LongitudeDegrees>-4.07470003701746463775634765625</LongitudeDegrees>
            </Position>
            <AltitudeMeters>1798.800048828125</AltitudeMeters>
            <DistanceMeters>NAN</DistanceMeters>
          </Trackpoint>
          <Trackpoint>
            <Time>2018-12-30T12:30:55.000Z</Time>
            <Position>
              <LatitudeDegrees>40.7853931747376918792724609375</LatitudeDegrees>
              <LongitudeDegrees>-4.07471881248056888580322265625</LongitudeDegrees>
            </Position>
            <AltitudeMeters>1798.5999755859375</AltitudeMeters>
            <DistanceMeters>NAN</DistanceMeters>
          </Trackpoint>
          <Trackpoint>
            <Time>2018-12-30T12:30:56.000Z</Time>
            <Position>
              <LatitudeDegrees>40.78539174981415271759033203125</LatitudeDegrees>
              <LongitudeDegrees>-4.07474161125719547271728515625</LongitudeDegrees>
            </Position>
            <AltitudeMeters>1798.5999755859375</AltitudeMeters>
            <DistanceMeters>NAN</DistanceMeters>
          </Trackpoint>
          <Trackpoint>
            <Time>2018-12-30T12:30:57.000Z</Time>
            <Position>
              <LatitudeDegrees>40.785385631024837493896484375</LatitudeDegrees>
              <LongitudeDegrees>-4.07475921325385570526123046875</LongitudeDegrees>
            </Position>
            <AltitudeMeters>1798.5999755859375</AltitudeMeters>
            <DistanceMeters>NAN</DistanceMeters>
          </Trackpoint>
          <Trackpoint>
            <Time>2018-12-30T12:30:58.000Z</Time>
            <Position>
              <LatitudeDegrees>40.78537800349295139312744140625</LatitudeDegrees>
              <LongitudeDegrees>-4.0747784078121185302734375</LongitudeDegrees>
            </Position>
            <AltitudeMeters>1798.5999755859375</AltitudeMeters>
            <DistanceMeters>NAN</DistanceMeters>
          </Trackpoint>
          <Trackpoint>
            <Time>2018-12-30T12:30:59.000Z</Time>
            <Position>
              <LatitudeDegrees>40.78536811284720897674560546875</LatitudeDegrees>
              <LongitudeDegrees>-4.07479894347488880157470703125</LongitudeDegrees>
            </Position>
            <AltitudeMeters>1798.4000244140625</AltitudeMeters>
            <DistanceMeters>NAN</DistanceMeters>
          </Trackpoint>
          <Trackpoint>
            <Time>2018-12-30T12:31:00.000Z</Time>
            <Position>
              <LatitudeDegrees>40.78536392189562320709228515625</LatitudeDegrees>
              <LongitudeDegrees>-4.0748174674808979034423828125</LongitudeDegrees>
            </Position>
            <AltitudeMeters>1798.4000244140625</AltitudeMeters>
            <DistanceMeters>NAN</DistanceMeters>
          </Trackpoint>
          <Trackpoint>
            <Time>2018-12-30T12:31:01.000Z</Time>
            <Position>
              <LatitudeDegrees>40.78535805456340312957763671875</LatitudeDegrees>
              <LongitudeDegrees>-4.074835740029811859130859375</LongitudeDegrees>
            </Position>
            <AltitudeMeters>1798</AltitudeMeters>
            <DistanceMeters>NAN</DistanceMeters>
          </Trackpoint>
          <Trackpoint>
            <Time>2018-12-30T12:31:02.000Z</Time>
            <Position>
              <LatitudeDegrees>40.7853524386882781982421875</LatitudeDegrees>
              <LongitudeDegrees>-4.07485510222613811492919921875</LongitudeDegrees>
            </Position>
            <AltitudeMeters>1798</AltitudeMeters>
            <DistanceMeters>NAN</DistanceMeters>
          </Trackpoint>
          <Trackpoint>
            <Time>2018-12-30T12:31:03.000Z</Time>
            <Position>
              <LatitudeDegrees>40.78535134904086589813232421875</LatitudeDegrees>
              <LongitudeDegrees>-4.07487588934600353240966796875</LongitudeDegrees>
            </Position>
            <AltitudeMeters>1797.800048828125</AltitudeMeters>
            <DistanceMeters>NAN</DistanceMeters>
          </Trackpoint>
          <Trackpoint>
            <Time>2018-12-30T12:31:04.000Z</Time>
            <Position>
              <LatitudeDegrees>40.7853472419083118438720703125</LatitudeDegrees>
              <LongitudeDegrees>-4.074893407523632049560546875</LongitudeDegrees>
            </Position>
            <AltitudeMeters>1797.800048828125</AltitudeMeters>
            <DistanceMeters>NAN</DistanceMeters>
          </Trackpoint>
          <Trackpoint>
            <Time>2018-12-30T12:31:05.000Z</Time>
            <Position>
              <LatitudeDegrees>40.7853442244231700897216796875</LatitudeDegrees>
              <LongitudeDegrees>-4.07490916550159454345703125</LongitudeDegrees>
            </Position>
            <AltitudeMeters>1797.5999755859375</AltitudeMeters>
            <DistanceMeters>NAN</DistanceMeters>
          </Trackpoint>
          <Trackpoint>
            <Time>2018-12-30T12:31:06.000Z</Time>
            <Position>
              <LatitudeDegrees>40.785339362919330596923828125</LatitudeDegrees>
              <LongitudeDegrees>-4.0749250911176204681396484375</LongitudeDegrees>
            </Position>
            <AltitudeMeters>1797.5999755859375</AltitudeMeters>
            <DistanceMeters>NAN</DistanceMeters>
          </Trackpoint>
          <Trackpoint>
            <Time>2018-12-30T12:31:07.000Z</Time>
            <Position>
              <LatitudeDegrees>40.78533441759645938873291015625</LatitudeDegrees>
              <LongitudeDegrees>-4.07494378276169300079345703125</LongitudeDegrees>
            </Position>
            <AltitudeMeters>1797.5999755859375</AltitudeMeters>
            <DistanceMeters>NAN</DistanceMeters>
          </Trackpoint>
          <Trackpoint>
            <Time>2018-12-30T12:31:08.000Z</Time>
            <Position>
              <LatitudeDegrees>40.7853282988071441650390625</LatitudeDegrees>
              <LongitudeDegrees>-4.07496205531060695648193359375</LongitudeDegrees>
            </Position>
            <AltitudeMeters>1797.5999755859375</AltitudeMeters>
            <DistanceMeters>NAN</DistanceMeters>
          </Trackpoint>
          <Trackpoint>
            <Time>2018-12-30T12:31:09.000Z</Time>
            <Position>
              <LatitudeDegrees>40.78532226383686065673828125</LatitudeDegrees>
              <LongitudeDegrees>-4.0749804116785526275634765625</LongitudeDegrees>
            </Position>
            <AltitudeMeters>1797.5999755859375</AltitudeMeters>
            <DistanceMeters>NAN</DistanceMeters>
          </Trackpoint>
          <Trackpoint>
            <Time>2018-12-30T12:31:10.000Z</Time>
            <Position>
              <LatitudeDegrees>40.785315223038196563720703125</LatitudeDegrees>
              <LongitudeDegrees>-4.07499692402780055999755859375</LongitudeDegrees>
            </Position>
            <AltitudeMeters>1797.4000244140625</AltitudeMeters>
            <DistanceMeters>NAN</DistanceMeters>
          </Trackpoint>
          <Trackpoint>
            <Time>2018-12-30T12:31:11.000Z</Time>
            <Position>
              <LatitudeDegrees>40.78531145118176937103271484375</LatitudeDegrees>
              <LongitudeDegrees>-4.075013101100921630859375</LongitudeDegrees>
            </Position>
            <AltitudeMeters>1797.5999755859375</AltitudeMeters>
            <DistanceMeters>NAN</DistanceMeters>
          </Trackpoint>
          <Trackpoint>
            <Time>2018-12-30T12:31:12.000Z</Time>
            <Position>
              <LatitudeDegrees>40.7853049971163272857666015625</LatitudeDegrees>
              <LongitudeDegrees>-4.07503078691661357879638671875</LongitudeDegrees>
            </Position>
            <AltitudeMeters>1797.4000244140625</AltitudeMeters>
            <DistanceMeters>NAN</DistanceMeters>
          </Trackpoint>
          <Trackpoint>
            <Time>2018-12-30T12:31:13.000Z</Time>
            <Position>
              <LatitudeDegrees>40.78530223108828067779541015625</LatitudeDegrees>
              <LongitudeDegrees>-4.075050652027130126953125</LongitudeDegrees>
            </Position>
            <AltitudeMeters>1797.5999755859375</AltitudeMeters>
            <DistanceMeters>NAN</DistanceMeters>
          </Trackpoint>
          <Trackpoint>
            <Time>2018-12-30T12:31:14.000Z</Time>
            <Position>
              <LatitudeDegrees>40.78529787249863147735595703125</LatitudeDegrees>
              <LongitudeDegrees>-4.0750689245760440826416015625</LongitudeDegrees>
            </Position>
            <AltitudeMeters>1797.4000244140625</AltitudeMeters>
            <DistanceMeters>NAN</DistanceMeters>
          </Trackpoint>
          <Trackpoint>
            <Time>2018-12-30T12:31:15.000Z</Time>
            <Position>
              <LatitudeDegrees>40.78529133461415767669677734375</LatitudeDegrees>
              <LongitudeDegrees>-4.07508610747754573822021484375</LongitudeDegrees>
            </Position>
            <AltitudeMeters>1797.4000244140625</AltitudeMeters>
            <DistanceMeters>NAN</DistanceMeters>
          </Trackpoint>
          <Trackpoint>
            <Time>2018-12-30T12:31:16.000Z</Time>
            <Position>
              <LatitudeDegrees>40.78528328798711299896240234375</LatitudeDegrees>
              <LongitudeDegrees>-4.075103960931301116943359375</LongitudeDegrees>
            </Position>
            <AltitudeMeters>1797.4000244140625</AltitudeMeters>
            <DistanceMeters>NAN</DistanceMeters>
          </Trackpoint>
          <Trackpoint>
            <Time>2018-12-30T12:31:17.000Z</Time>
            <Position>
              <LatitudeDegrees>40.78527306206524372100830078125</LatitudeDegrees>
              <LongitudeDegrees>-4.075122065842151641845703125</LongitudeDegrees>
            </Position>
            <AltitudeMeters>1797.4000244140625</AltitudeMeters>
            <DistanceMeters>NAN</DistanceMeters>
          </Trackpoint>
          <Trackpoint>
            <Time>2018-12-30T12:31:18.000Z</Time>
            <Position>
              <LatitudeDegrees>40.78526635654270648956298828125</LatitudeDegrees>
              <LongitudeDegrees>-4.07513774000108242034912109375</LongitudeDegrees>
            </Position>
            <AltitudeMeters>1797.199951171875</AltitudeMeters>
            <DistanceMeters>NAN</DistanceMeters>
          </Trackpoint>
          <Trackpoint>
            <Time>2018-12-30T12:31:19.000Z</Time>
            <Position>
              <LatitudeDegrees>40.78525830991566181182861328125</LatitudeDegrees>
              <LongitudeDegrees>-4.0751510672271251678466796875</LongitudeDegrees>
            </Position>
            <AltitudeMeters>1797.199951171875</AltitudeMeters>
            <DistanceMeters>NAN</DistanceMeters>
          </Trackpoint>
          <Trackpoint>
            <Time>2018-12-30T12:31:20.000Z</Time>
            <Position>
              <LatitudeDegrees>40.78525043092668056488037109375</LatitudeDegrees>
              <LongitudeDegrees>-4.07516405917704105377197265625</LongitudeDegrees>
            </Position>
            <AltitudeMeters>1797.199951171875</AltitudeMeters>
            <DistanceMeters>NAN</DistanceMeters>
          </Trackpoint>
          <Trackpoint>
            <Time>2018-12-30T12:31:21.000Z</Time>
            <Position>
              <LatitudeDegrees>40.7852396182715892791748046875</LatitudeDegrees>
              <LongitudeDegrees>-4.07517830841243267059326171875</LongitudeDegrees>
            </Position>
            <AltitudeMeters>1797.199951171875</AltitudeMeters>
            <DistanceMeters>NAN</DistanceMeters>
          </Trackpoint>
          <Trackpoint>
            <Time>2018-12-30T12:31:22.000Z</Time>
            <Position>
              <LatitudeDegrees>40.7852319069206714630126953125</LatitudeDegrees>
              <LongitudeDegrees>-4.075193144381046295166015625</LongitudeDegrees>
            </Position>
            <AltitudeMeters>1797.199951171875</AltitudeMeters>
            <DistanceMeters>NAN</DistanceMeters>
          </Trackpoint>
          <Trackpoint>
            <Time>2018-12-30T12:31:23.000Z</Time>
            <Position>
              <LatitudeDegrees>40.7852238602936267852783203125</LatitudeDegrees>
              <LongitudeDegrees>-4.075207896530628204345703125</LongitudeDegrees>
            </Position>
            <AltitudeMeters>1797.199951171875</AltitudeMeters>
            <DistanceMeters>NAN</DistanceMeters>
          </Trackpoint>
          <Trackpoint>
            <Time>2018-12-30T12:31:24.000Z</Time>
            <Position>
              <LatitudeDegrees>40.785214640200138092041015625</LatitudeDegrees>
              <LongitudeDegrees>-4.07522155903279781341552734375</LongitudeDegrees>
            </Position>
            <AltitudeMeters>1797.199951171875</AltitudeMeters>
            <DistanceMeters>NAN</DistanceMeters>
          </Trackpoint>
          <Trackpoint>
            <Time>2018-12-30T12:31:25.000Z</Time>
            <Position>
              <LatitudeDegrees>40.7852049171924591064453125</LatitudeDegrees>
              <LongitudeDegrees>-4.07523245550692081451416015625</LongitudeDegrees>
            </Position>
            <AltitudeMeters>1797.199951171875</AltitudeMeters>
            <DistanceMeters>NAN</DistanceMeters>
          </Trackpoint>
          <Trackpoint>
            <Time>2018-12-30T12:31:26.000Z</Time>
            <Position>
              <LatitudeDegrees>40.7851967029273509979248046875</LatitudeDegrees>
              <LongitudeDegrees>-4.07524435780942440032958984375</LongitudeDegrees>
            </Position>
            <AltitudeMeters>1797.199951171875</AltitudeMeters>
            <DistanceMeters>NAN</DistanceMeters>
          </Trackpoint>
          <Trackpoint>
            <Time>2018-12-30T12:31:27.000Z</Time>
            <Position>
              <LatitudeDegrees>40.78519158996641635894775390625</LatitudeDegrees>
              <LongitudeDegrees>-4.07525810413062572479248046875</LongitudeDegrees>
            </Position>
            <AltitudeMeters>1797.199951171875</AltitudeMeters>
            <DistanceMeters>NAN</DistanceMeters>
          </Trackpoint>
          <Trackpoint>
            <Time>2018-12-30T12:31:28.000Z</Time>
            <Position>
              <LatitudeDegrees>40.78518102876842021942138671875</LatitudeDegrees>
              <LongitudeDegrees>-4.075270593166351318359375</LongitudeDegrees>
            </Position>
            <AltitudeMeters>1797.199951171875</AltitudeMeters>
            <DistanceMeters>NAN</DistanceMeters>
          </Trackpoint>
          <Trackpoint>
            <Time>2018-12-30T12:31:29.000Z</Time>
            <Position>
              <LatitudeDegrees>40.7851725630462169647216796875</LatitudeDegrees>
              <LongitudeDegrees>-4.07528324984014034271240234375</LongitudeDegrees>
            </Position>
            <AltitudeMeters>1797.199951171875</AltitudeMeters>
            <DistanceMeters>NAN</DistanceMeters>
          </Trackpoint>
          <Trackpoint>
            <Time>2018-12-30T12:31:30.000Z</Time>
            <Position>
              <LatitudeDegrees>40.78517013229429721832275390625</LatitudeDegrees>
              <LongitudeDegrees>-4.07529783435165882110595703125</LongitudeDegrees>
            </Position>
            <AltitudeMeters>1797.4000244140625</AltitudeMeters>
            <DistanceMeters>NAN</DistanceMeters>
          </Trackpoint>
          <Trackpoint>
            <Time>2018-12-30T12:31:31.000Z</Time>
            <Position>
              <LatitudeDegrees>40.78516895882785320281982421875</LatitudeDegrees>
              <LongitudeDegrees>-4.07531283795833587646484375</LongitudeDegrees>
            </Position>
            <AltitudeMeters>1797.5999755859375</AltitudeMeters>
            <DistanceMeters>NAN</DistanceMeters>
          </Trackpoint>
          <Trackpoint>
            <Time>2018-12-30T12:31:32.000Z</Time>
            <Position>
              <LatitudeDegrees>40.78516644425690174102783203125</LatitudeDegrees>
              <LongitudeDegrees>-4.07532750628888607025146484375</LongitudeDegrees>
            </Position>
            <AltitudeMeters>1797.5999755859375</AltitudeMeters>
            <DistanceMeters>NAN</DistanceMeters>
          </Trackpoint>
          <Trackpoint>
            <Time>2018-12-30T12:31:33.000Z</Time>
            <Position>
              <LatitudeDegrees>40.785166360437870025634765625</LatitudeDegrees>
              <LongitudeDegrees>-4.07534125261008739471435546875</LongitudeDegrees>
            </Position>
            <AltitudeMeters>1797.5999755859375</AltitudeMeters>
            <DistanceMeters>NAN</DistanceMeters>
          </Trackpoint>
          <Trackpoint>
            <Time>2018-12-30T12:31:34.000Z</Time>
            <Position>
              <LatitudeDegrees>40.7851655222475528717041015625</LatitudeDegrees>
              <LongitudeDegrees>-4.07534980215132236480712890625</LongitudeDegrees>
            </Position>
            <AltitudeMeters>1797.5999755859375</AltitudeMeters>
            <DistanceMeters>NAN</DistanceMeters>
          </Trackpoint>
          <Trackpoint>
            <Time>2018-12-30T12:31:35.000Z</Time>
            <Position>
              <LatitudeDegrees>40.78516661189496517181396484375</LatitudeDegrees>
              <LongitudeDegrees>-4.0753545798361301422119140625</LongitudeDegrees>
            </Position>
            <AltitudeMeters>1797.5999755859375</AltitudeMeters>
            <DistanceMeters>NAN</DistanceMeters>
          </Trackpoint>
          <Trackpoint>
            <Time>2018-12-30T12:31:36.000Z</Time>
            <Position>
              <LatitudeDegrees>40.78517113812267780303955078125</LatitudeDegrees>
              <LongitudeDegrees>-4.0753589384257793426513671875</LongitudeDegrees>
            </Position>
            <AltitudeMeters>1797.4000244140625</AltitudeMeters>
            <DistanceMeters>NAN</DistanceMeters>
          </Trackpoint>
          <Trackpoint>
            <Time>2018-12-30T12:31:37.000Z</Time>
            <Position>
              <LatitudeDegrees>40.78517071902751922607421875</LatitudeDegrees>
              <LongitudeDegrees>-4.07535902224481105804443359375</LongitudeDegrees>
            </Position>
            <AltitudeMeters>1797.4000244140625</AltitudeMeters>
            <DistanceMeters>NAN</DistanceMeters>
          </Trackpoint>
          <Trackpoint>
            <Time>2018-12-30T12:31:38.000Z</Time>
            <Position>
              <LatitudeDegrees>40.78517013229429721832275390625</LatitudeDegrees>
              <LongitudeDegrees>-4.07535969279706478118896484375</LongitudeDegrees>
            </Position>
            <AltitudeMeters>1797.4000244140625</AltitudeMeters>
            <DistanceMeters>NAN</DistanceMeters>
          </Trackpoint>
          <Trackpoint>
            <Time>2018-12-30T12:31:39.000Z</Time>
            <Position>
              <LatitudeDegrees>40.78516409732401371002197265625</LatitudeDegrees>
              <LongitudeDegrees>-4.0753604471683502197265625</LongitudeDegrees>
            </Position>
            <AltitudeMeters>1797.5999755859375</AltitudeMeters>
            <DistanceMeters>NAN</DistanceMeters>
          </Trackpoint>
          <Trackpoint>
            <Time>2018-12-30T12:31:40.000Z</Time>
            <Position>
              <LatitudeDegrees>40.78515906818211078643798828125</LatitudeDegrees>
              <LongitudeDegrees>-4.07536086626350879669189453125</LongitudeDegrees>
            </Position>
            <AltitudeMeters>1797.5999755859375</AltitudeMeters>
            <DistanceMeters>NAN</DistanceMeters>
          </Trackpoint>
          <Trackpoint>
            <Time>2018-12-30T12:31:41.000Z</Time>
            <Position>
              <LatitudeDegrees>40.78515504486858844757080078125</LatitudeDegrees>
              <LongitudeDegrees>-4.075360111892223358154296875</LongitudeDegrees>
            </Position>
            <AltitudeMeters>1797.5999755859375</AltitudeMeters>
            <DistanceMeters>NAN</DistanceMeters>
          </Trackpoint>
          <Trackpoint>
            <Time>2018-12-30T12:31:42.000Z</Time>
            <Position>
              <LatitudeDegrees>40.7851487584412097930908203125</LatitudeDegrees>
              <LongitudeDegrees>-4.07535734586417675018310546875</LongitudeDegrees>
            </Position>
            <AltitudeMeters>1797.5999755859375</AltitudeMeters>
            <DistanceMeters>NAN</DistanceMeters>
          </Trackpoint>
          <Trackpoint>
            <Time>2018-12-30T12:31:43.000Z</Time>
            <Position>
              <LatitudeDegrees>40.7851454056799411773681640625</LatitudeDegrees>
              <LongitudeDegrees>-4.075358100235462188720703125</LongitudeDegrees>
            </Position>
            <AltitudeMeters>1797.5999755859375</AltitudeMeters>
            <DistanceMeters>NAN</DistanceMeters>
          </Trackpoint>
          <Trackpoint>
            <Time>2018-12-30T12:31:44.000Z</Time>
            <Position>
              <LatitudeDegrees>40.7851405441761016845703125</LatitudeDegrees>
              <LongitudeDegrees>-4.07535918988287448883056640625</LongitudeDegrees>
            </Position>
            <AltitudeMeters>1797.5999755859375</AltitudeMeters>
            <DistanceMeters>NAN</DistanceMeters>
          </Trackpoint>
          <Trackpoint>
            <Time>2018-12-30T12:31:45.000Z</Time>
            <Position>
              <LatitudeDegrees>40.78513325192034244537353515625</LatitudeDegrees>
              <LongitudeDegrees>-4.0753659792244434356689453125</LongitudeDegrees>
            </Position>
            <AltitudeMeters>1797.5999755859375</AltitudeMeters>
            <DistanceMeters>NAN</DistanceMeters>
          </Trackpoint>
          <Trackpoint>
            <Time>2018-12-30T12:31:46.000Z</Time>
            <Position>
              <LatitudeDegrees>40.78513073734939098358154296875</LatitudeDegrees>
              <LongitudeDegrees>-4.07537042163312435150146484375</LongitudeDegrees>
            </Position>
            <AltitudeMeters>1797.5999755859375</AltitudeMeters>
            <DistanceMeters>NAN</DistanceMeters>
          </Trackpoint>
          <Trackpoint>
            <Time>2018-12-30T12:31:47.000Z</Time>
            <Position>
              <LatitudeDegrees>40.785135515034198760986328125</LatitudeDegrees>
              <LongitudeDegrees>-4.07537478022277355194091796875</LongitudeDegrees>
            </Position>
            <AltitudeMeters>1797.800048828125</AltitudeMeters>
            <DistanceMeters>NAN</DistanceMeters>
          </Trackpoint>
          <Trackpoint>
            <Time>2018-12-30T12:31:48.000Z</Time>
            <Position>
              <LatitudeDegrees>40.7851373590528964996337890625</LatitudeDegrees>
              <LongitudeDegrees>-4.075377546250820159912109375</LongitudeDegrees>
            </Position>
            <AltitudeMeters>1798.199951171875</AltitudeMeters>
            <DistanceMeters>NAN</DistanceMeters>
          </Trackpoint>
          <Trackpoint>
            <Time>2018-12-30T12:31:49.000Z</Time>
            <Position>
              <LatitudeDegrees>40.785138867795467376708984375</LatitudeDegrees>
              <LongitudeDegrees>-4.07537880353629589080810546875</LongitudeDegrees>
            </Position>
            <AltitudeMeters>1798.4000244140625</AltitudeMeters>
            <DistanceMeters>NAN</DistanceMeters>
          </Trackpoint>
          <Trackpoint>
            <Time>2018-12-30T12:31:50.000Z</Time>
            <Position>
              <LatitudeDegrees>40.78513626940548419952392578125</LatitudeDegrees>
              <LongitudeDegrees>-4.07537964172661304473876953125</LongitudeDegrees>
            </Position>
            <AltitudeMeters>1798.5999755859375</AltitudeMeters>
            <DistanceMeters>NAN</DistanceMeters>
          </Trackpoint>
          <Trackpoint>
            <Time>2018-12-30T12:31:51.000Z</Time>
            <Position>
              <LatitudeDegrees>40.7851410470902919769287109375</LatitudeDegrees>
              <LongitudeDegrees>-4.07538182102143764495849609375</LongitudeDegrees>
            </Position>
            <AltitudeMeters>1798.800048828125</AltitudeMeters>
            <DistanceMeters>NAN</DistanceMeters>
          </Trackpoint>
          <Trackpoint>
            <Time>2018-12-30T12:31:52.000Z</Time>
            <Position>
              <LatitudeDegrees>40.78513995744287967681884765625</LatitudeDegrees>
              <LongitudeDegrees>-4.075380899012088775634765625</LongitudeDegrees>
            </Position>
            <AltitudeMeters>1798.800048828125</AltitudeMeters>
            <DistanceMeters>NAN</DistanceMeters>
          </Trackpoint>
          <Trackpoint>
            <Time>2018-12-30T12:31:53.000Z</Time>
            <Position>
              <LatitudeDegrees>40.78513492830097675323486328125</LatitudeDegrees>
              <LongitudeDegrees>-4.0753803960978984832763671875</LongitudeDegrees>
            </Position>
            <AltitudeMeters>1798.5999755859375</AltitudeMeters>
            <DistanceMeters>NAN</DistanceMeters>
          </Trackpoint>
          <Trackpoint>
            <Time>2018-12-30T12:31:54.000Z</Time>
            <Position>
              <LatitudeDegrees>40.78513409011065959930419921875</LatitudeDegrees>
              <LongitudeDegrees>-4.07538064755499362945556640625</LongitudeDegrees>
            </Position>
            <AltitudeMeters>1798.199951171875</AltitudeMeters>
            <DistanceMeters>NAN</DistanceMeters>
          </Trackpoint>
          <Trackpoint>
            <Time>2018-12-30T12:31:55.000Z</Time>
            <Position>
              <LatitudeDegrees>40.78513341955840587615966796875</LatitudeDegrees>
              <LongitudeDegrees>-4.075380899012088775634765625</LongitudeDegrees>
            </Position>
            <AltitudeMeters>1798</AltitudeMeters>
            <DistanceMeters>NAN</DistanceMeters>
          </Trackpoint>
          <Trackpoint>
            <Time>2018-12-30T12:31:56.000Z</Time>
            <Position>
              <LatitudeDegrees>40.785133503377437591552734375</LatitudeDegrees>
              <LongitudeDegrees>-4.0753807313740253448486328125</LongitudeDegrees>
            </Position>
            <AltitudeMeters>1797.800048828125</AltitudeMeters>
            <DistanceMeters>NAN</DistanceMeters>
          </Trackpoint>
          <Trackpoint>
            <Time>2018-12-30T12:31:57.000Z</Time>
            <Position>
              <LatitudeDegrees>40.78513375483453273773193359375</LatitudeDegrees>
              <LongitudeDegrees>-4.0753790549933910369873046875</LongitudeDegrees>
            </Position>
            <AltitudeMeters>1797.5999755859375</AltitudeMeters>
            <DistanceMeters>NAN</DistanceMeters>
          </Trackpoint>
          <Trackpoint>
            <Time>2018-12-30T12:31:58.000Z</Time>
            <Position>
              <LatitudeDegrees>40.78513308428227901458740234375</LatitudeDegrees>
              <LongitudeDegrees>-4.07537763006985187530517578125</LongitudeDegrees>
            </Position>
            <AltitudeMeters>1797.5999755859375</AltitudeMeters>
            <DistanceMeters>NAN</DistanceMeters>
          </Trackpoint>
          <Trackpoint>
            <Time>2018-12-30T12:31:59.000Z</Time>
            <Position>
              <LatitudeDegrees>40.7851319946348667144775390625</LatitudeDegrees>
              <LongitudeDegrees>-4.075375534594058990478515625</LongitudeDegrees>
            </Position>
            <AltitudeMeters>1797.4000244140625</AltitudeMeters>
            <DistanceMeters>NAN</DistanceMeters>
          </Trackpoint>
          <Trackpoint>
            <Time>2018-12-30T12:32:00.000Z</Time>
            <Position>
              <LatitudeDegrees>40.7851289771497249603271484375</LatitudeDegrees>
              <LongitudeDegrees>-4.075372852385044097900390625</LongitudeDegrees>
            </Position>
            <AltitudeMeters>1797.199951171875</AltitudeMeters>
            <DistanceMeters>NAN</DistanceMeters>
          </Trackpoint>
          <Trackpoint>
            <Time>2018-12-30T12:32:01.000Z</Time>
            <Position>
              <LatitudeDegrees>40.78513291664421558380126953125</LatitudeDegrees>
              <LongitudeDegrees>-4.07537645660340785980224609375</LongitudeDegrees>
            </Position>
            <AltitudeMeters>1797.199951171875</AltitudeMeters>
            <DistanceMeters>NAN</DistanceMeters>
          </Trackpoint>
          <Trackpoint>
            <Time>2018-12-30T12:32:02.000Z</Time>
            <Position>
              <LatitudeDegrees>40.78513409011065959930419921875</LatitudeDegrees>
              <LongitudeDegrees>-4.075375534594058990478515625</LongitudeDegrees>
            </Position>
            <AltitudeMeters>1797.199951171875</AltitudeMeters>
            <DistanceMeters>NAN</DistanceMeters>
          </Trackpoint>
          <Trackpoint>
            <Time>2018-12-30T12:32:03.000Z</Time>
            <Position>
              <LatitudeDegrees>40.78513325192034244537353515625</LatitudeDegrees>
              <LongitudeDegrees>-4.07537025399506092071533203125</LongitudeDegrees>
            </Position>
            <AltitudeMeters>1797.4000244140625</AltitudeMeters>
            <DistanceMeters>NAN</DistanceMeters>
          </Trackpoint>
          <Trackpoint>
            <Time>2018-12-30T12:32:04.000Z</Time>
            <Position>
              <LatitudeDegrees>40.78513425774872303009033203125</LatitudeDegrees>
              <LongitudeDegrees>-4.0753684937953948974609375</LongitudeDegrees>
            </Position>
            <AltitudeMeters>1797.4000244140625</AltitudeMeters>
            <DistanceMeters>NAN</DistanceMeters>
          </Trackpoint>
          <Trackpoint>
            <Time>2018-12-30T12:32:05.000Z</Time>
            <Position>
              <LatitudeDegrees>40.78512654639780521392822265625</LatitudeDegrees>
              <LongitudeDegrees>-4.0753599442541599273681640625</LongitudeDegrees>
            </Position>
            <AltitudeMeters>1797.5999755859375</AltitudeMeters>
            <DistanceMeters>NAN</DistanceMeters>
          </Trackpoint>
          <Trackpoint>
            <Time>2018-12-30T12:32:06.000Z</Time>
            <Position>
              <LatitudeDegrees>40.78512512147426605224609375</LatitudeDegrees>
              <LongitudeDegrees>-4.07535843551158905029296875</LongitudeDegrees>
            </Position>
            <AltitudeMeters>1797.800048828125</AltitudeMeters>
            <DistanceMeters>NAN</DistanceMeters>
          </Trackpoint>
          <Trackpoint>
            <Time>2018-12-30T12:32:07.000Z</Time>
            <Position>
              <LatitudeDegrees>40.78511984087526798248291015625</LatitudeDegrees>
              <LongitudeDegrees>-4.07535349018871784210205078125</LongitudeDegrees>
            </Position>
            <AltitudeMeters>1798</AltitudeMeters>
            <DistanceMeters>NAN</DistanceMeters>
          </Trackpoint>
          <Trackpoint>
            <Time>2018-12-30T12:32:08.000Z</Time>
            <Position>
              <LatitudeDegrees>40.785119421780109405517578125</LatitudeDegrees>
              <LongitudeDegrees>-4.075352065265178680419921875</LongitudeDegrees>
            </Position>
            <AltitudeMeters>1798</AltitudeMeters>
            <DistanceMeters>NAN</DistanceMeters>
          </Trackpoint>
          <Trackpoint>
            <Time>2018-12-30T12:32:09.000Z</Time>
            <Position>
              <LatitudeDegrees>40.7851175777614116668701171875</LatitudeDegrees>
              <LongitudeDegrees>-4.07535214908421039581298828125</LongitudeDegrees>
            </Position>
            <AltitudeMeters>1798</AltitudeMeters>
            <DistanceMeters>NAN</DistanceMeters>
          </Trackpoint>
          <Trackpoint>
            <Time>2018-12-30T12:32:10.000Z</Time>
            <Position>
              <LatitudeDegrees>40.78511036932468414306640625</LatitudeDegrees>
              <LongitudeDegrees>-4.0753562562167644500732421875</LongitudeDegrees>
            </Position>
            <AltitudeMeters>1798</AltitudeMeters>
            <DistanceMeters>NAN</DistanceMeters>
          </Trackpoint>
          <Trackpoint>
            <Time>2018-12-30T12:32:11.000Z</Time>
            <Position>
              <LatitudeDegrees>40.7850974611937999725341796875</LatitudeDegrees>
              <LongitudeDegrees>-4.0753629617393016815185546875</LongitudeDegrees>
            </Position>
            <AltitudeMeters>1798.199951171875</AltitudeMeters>
            <DistanceMeters>NAN</DistanceMeters>
          </Trackpoint>
          <Trackpoint>
            <Time>2018-12-30T12:32:12.000Z</Time>
            <Position>
              <LatitudeDegrees>40.7850843854248523712158203125</LatitudeDegrees>
              <LongitudeDegrees>-4.075370170176029205322265625</LongitudeDegrees>
            </Position>
            <AltitudeMeters>1798.199951171875</AltitudeMeters>
            <DistanceMeters>NAN</DistanceMeters>
          </Trackpoint>
          <Trackpoint>
            <Time>2018-12-30T12:32:13.000Z</Time>
            <Position>
              <LatitudeDegrees>40.78507172875106334686279296875</LatitudeDegrees>
              <LongitudeDegrees>-4.0753787197172641754150390625</LongitudeDegrees>
            </Position>
            <AltitudeMeters>1798.199951171875</AltitudeMeters>
            <DistanceMeters>NAN</DistanceMeters>
          </Trackpoint>
          <Trackpoint>
            <Time>2018-12-30T12:32:14.000Z</Time>
            <Position>
              <LatitudeDegrees>40.7850622572004795074462890625</LatitudeDegrees>
              <LongitudeDegrees>-4.0753884427249431610107421875</LongitudeDegrees>
            </Position>
            <AltitudeMeters>1798</AltitudeMeters>
            <DistanceMeters>NAN</DistanceMeters>
          </Trackpoint>
          <Trackpoint>
            <Time>2018-12-30T12:32:15.000Z</Time>
            <Position>
              <LatitudeDegrees>40.7850518636405467987060546875</LatitudeDegrees>
              <LongitudeDegrees>-4.075399003922939300537109375</LongitudeDegrees>
            </Position>
            <AltitudeMeters>1797.800048828125</AltitudeMeters>
            <DistanceMeters>NAN</DistanceMeters>
          </Trackpoint>
          <Trackpoint>
            <Time>2018-12-30T12:32:16.000Z</Time>
            <Position>
              <LatitudeDegrees>40.78504524193704128265380859375</LatitudeDegrees>
              <LongitudeDegrees>-4.07541417516767978668212890625</LongitudeDegrees>
            </Position>
            <AltitudeMeters>1797.5999755859375</AltitudeMeters>
            <DistanceMeters>NAN</DistanceMeters>
          </Trackpoint>
          <Trackpoint>
            <Time>2018-12-30T12:32:17.000Z</Time>
            <Position>
              <LatitudeDegrees>40.78503702767193317413330078125</LatitudeDegrees>
              <LongitudeDegrees>-4.0754269994795322418212890625</LongitudeDegrees>
            </Position>
            <AltitudeMeters>1797.5999755859375</AltitudeMeters>
            <DistanceMeters>NAN</DistanceMeters>
          </Trackpoint>
          <Trackpoint>
            <Time>2018-12-30T12:32:18.000Z</Time>
            <Position>
              <LatitudeDegrees>40.7850307412445545196533203125</LatitudeDegrees>
              <LongitudeDegrees>-4.07543647103011608123779296875</LongitudeDegrees>
            </Position>
            <AltitudeMeters>1797.5999755859375</AltitudeMeters>
            <DistanceMeters>NAN</DistanceMeters>
          </Trackpoint>
          <Trackpoint>
            <Time>2018-12-30T12:32:19.000Z</Time>
            <Position>
              <LatitudeDegrees>40.78502546064555644989013671875</LatitudeDegrees>
              <LongitudeDegrees>-4.07544284127652645111083984375</LongitudeDegrees>
            </Position>
            <AltitudeMeters>1797.5999755859375</AltitudeMeters>
            <DistanceMeters>NAN</DistanceMeters>
          </Trackpoint>
          <Trackpoint>
            <Time>2018-12-30T12:32:20.000Z</Time>
            <Position>
              <LatitudeDegrees>40.7850186713039875030517578125</LatitudeDegrees>
              <LongitudeDegrees>-4.07545172609388828277587890625</LongitudeDegrees>
            </Position>
            <AltitudeMeters>1797.800048828125</AltitudeMeters>
            <DistanceMeters>NAN</DistanceMeters>
          </Trackpoint>
          <Trackpoint>
            <Time>2018-12-30T12:32:21.000Z</Time>
            <Position>
              <LatitudeDegrees>40.7850091159343719482421875</LatitudeDegrees>
              <LongitudeDegrees>-4.075459353625774383544921875</LongitudeDegrees>
            </Position>
            <AltitudeMeters>1798</AltitudeMeters>
            <DistanceMeters>NAN</DistanceMeters>
          </Trackpoint>
          <Trackpoint>
            <Time>2018-12-30T12:32:22.000Z</Time>
            <Position>
              <LatitudeDegrees>40.78500249423086643218994140625</LatitudeDegrees>
              <LongitudeDegrees>-4.07546564005315303802490234375</LongitudeDegrees>
            </Position>
            <AltitudeMeters>1798</AltitudeMeters>
            <DistanceMeters>NAN</DistanceMeters>
          </Trackpoint>
          <Trackpoint>
            <Time>2018-12-30T12:32:23.000Z</Time>
            <Position>
              <LatitudeDegrees>40.78499109484255313873291015625</LatitudeDegrees>
              <LongitudeDegrees>-4.07547268085181713104248046875</LongitudeDegrees>
            </Position>
            <AltitudeMeters>1798</AltitudeMeters>
            <DistanceMeters>NAN</DistanceMeters>
          </Trackpoint>
          <Trackpoint>
            <Time>2018-12-30T12:32:24.000Z</Time>
            <Position>
              <LatitudeDegrees>40.78498288057744503021240234375</LatitudeDegrees>
              <LongitudeDegrees>-4.07548072747886180877685546875</LongitudeDegrees>
            </Position>
            <AltitudeMeters>1798.199951171875</AltitudeMeters>
            <DistanceMeters>NAN</DistanceMeters>
          </Trackpoint>
          <Trackpoint>
            <Time>2018-12-30T12:32:25.000Z</Time>
            <Position>
              <LatitudeDegrees>40.78497516922652721405029296875</LatitudeDegrees>
              <LongitudeDegrees>-4.07549078576266765594482421875</LongitudeDegrees>
            </Position>
            <AltitudeMeters>1798.4000244140625</AltitudeMeters>
            <DistanceMeters>NAN</DistanceMeters>
          </Trackpoint>
          <Trackpoint>
            <Time>2018-12-30T12:32:26.000Z</Time>
            <Position>
              <LatitudeDegrees>40.78497223556041717529296875</LatitudeDegrees>
              <LongitudeDegrees>-4.0755051188170909881591796875</LongitudeDegrees>
            </Position>
            <AltitudeMeters>1798.5999755859375</AltitudeMeters>
            <DistanceMeters>NAN</DistanceMeters>
          </Trackpoint>
          <Trackpoint>
            <Time>2018-12-30T12:32:27.000Z</Time>
            <Position>
              <LatitudeDegrees>40.7849650271236896514892578125</LatitudeDegrees>
              <LongitudeDegrees>-4.07551744021475315093994140625</LongitudeDegrees>
            </Position>
            <AltitudeMeters>1798.5999755859375</AltitudeMeters>
            <DistanceMeters>NAN</DistanceMeters>
          </Trackpoint>
          <Trackpoint>
            <Time>2018-12-30T12:32:28.000Z</Time>
            <Position>
              <LatitudeDegrees>40.78495681285858154296875</LatitudeDegrees>
              <LongitudeDegrees>-4.0755302645266056060791015625</LongitudeDegrees>
            </Position>
            <AltitudeMeters>1798.5999755859375</AltitudeMeters>
            <DistanceMeters>NAN</DistanceMeters>
          </Trackpoint>
          <Trackpoint>
            <Time>2018-12-30T12:32:29.000Z</Time>
            <Position>
              <LatitudeDegrees>40.784948766231536865234375</LatitudeDegrees>
              <LongitudeDegrees>-4.07553948462009429931640625</LongitudeDegrees>
            </Position>
            <AltitudeMeters>1798.5999755859375</AltitudeMeters>
            <DistanceMeters>NAN</DistanceMeters>
          </Trackpoint>
          <Trackpoint>
            <Time>2018-12-30T12:32:30.000Z</Time>
            <Position>
              <LatitudeDegrees>40.784937702119350433349609375</LatitudeDegrees>
              <LongitudeDegrees>-4.075547866523265838623046875</LongitudeDegrees>
            </Position>
            <AltitudeMeters>1798.5999755859375</AltitudeMeters>
            <DistanceMeters>NAN</DistanceMeters>
          </Trackpoint>
          <Trackpoint>
            <Time>2018-12-30T12:32:31.000Z</Time>
            <Position>
              <LatitudeDegrees>40.78492454253137111663818359375</LatitudeDegrees>
              <LongitudeDegrees>-4.07555566169321537017822265625</LongitudeDegrees>
            </Position>
            <AltitudeMeters>1798.5999755859375</AltitudeMeters>
            <DistanceMeters>NAN</DistanceMeters>
          </Trackpoint>
          <Trackpoint>
            <Time>2018-12-30T12:32:32.000Z</Time>
            <Position>
              <LatitudeDegrees>40.7849097065627574920654296875</LatitudeDegrees>
              <LongitudeDegrees>-4.07556169666349887847900390625</LongitudeDegrees>
            </Position>
            <AltitudeMeters>1798.4000244140625</AltitudeMeters>
            <DistanceMeters>NAN</DistanceMeters>
          </Trackpoint>
          <Trackpoint>
            <Time>2018-12-30T12:32:33.000Z</Time>
            <Position>
              <LatitudeDegrees>40.78489654697477817535400390625</LatitudeDegrees>
              <LongitudeDegrees>-4.07556706108152866363525390625</LongitudeDegrees>
            </Position>
            <AltitudeMeters>1798.4000244140625</AltitudeMeters>
            <DistanceMeters>NAN</DistanceMeters>
          </Trackpoint>
          <Trackpoint>
            <Time>2018-12-30T12:32:34.000Z</Time>
            <Position>
              <LatitudeDegrees>40.78488816507160663604736328125</LatitudeDegrees>
              <LongitudeDegrees>-4.0755761973559856414794921875</LongitudeDegrees>
            </Position>
            <AltitudeMeters>1798.199951171875</AltitudeMeters>
            <DistanceMeters>NAN</DistanceMeters>
          </Trackpoint>
          <Trackpoint>
            <Time>2018-12-30T12:32:35.000Z</Time>
            <Position>
              <LatitudeDegrees>40.78488028608262538909912109375</LatitudeDegrees>
              <LongitudeDegrees>-4.07558642327785491943359375</LongitudeDegrees>
            </Position>
            <AltitudeMeters>1798.199951171875</AltitudeMeters>
            <DistanceMeters>NAN</DistanceMeters>
          </Trackpoint>
          <Trackpoint>
            <Time>2018-12-30T12:32:36.000Z</Time>
            <Position>
              <LatitudeDegrees>40.784872658550739288330078125</LatitudeDegrees>
              <LongitudeDegrees>-4.07559656538069248199462890625</LongitudeDegrees>
            </Position>
            <AltitudeMeters>1798.199951171875</AltitudeMeters>
            <DistanceMeters>NAN</DistanceMeters>
          </Trackpoint>
          <Trackpoint>
            <Time>2018-12-30T12:32:37.000Z</Time>
            <Position>
              <LatitudeDegrees>40.78486620448529720306396484375</LatitudeDegrees>
              <LongitudeDegrees>-4.07561148516833782196044921875</LongitudeDegrees>
            </Position>
            <AltitudeMeters>1798.199951171875</AltitudeMeters>
            <DistanceMeters>NAN</DistanceMeters>
          </Trackpoint>
          <Trackpoint>
            <Time>2018-12-30T12:32:38.000Z</Time>
            <Position>
              <LatitudeDegrees>40.78485463745892047882080078125</LatitudeDegrees>
              <LongitudeDegrees>-4.075625650584697723388671875</LongitudeDegrees>
            </Position>
            <AltitudeMeters>1798.199951171875</AltitudeMeters>
            <DistanceMeters>NAN</DistanceMeters>
          </Trackpoint>
          <Trackpoint>
            <Time>2018-12-30T12:32:39.000Z</Time>
            <Position>
              <LatitudeDegrees>40.7848466746509075164794921875</LatitudeDegrees>
              <LongitudeDegrees>-4.07563562504947185516357421875</LongitudeDegrees>
            </Position>
            <AltitudeMeters>1798.199951171875</AltitudeMeters>
            <DistanceMeters>NAN</DistanceMeters>
          </Trackpoint>
          <Trackpoint>
            <Time>2018-12-30T12:32:40.000Z</Time>
            <Position>
              <LatitudeDegrees>40.784841477870941162109375</LatitudeDegrees>
              <LongitudeDegrees>-4.07564677298069000244140625</LongitudeDegrees>
            </Position>
            <AltitudeMeters>1798</AltitudeMeters>
            <DistanceMeters>NAN</DistanceMeters>
          </Trackpoint>
          <Trackpoint>
            <Time>2018-12-30T12:32:41.000Z</Time>
            <Position>
              <LatitudeDegrees>40.78482882119715213775634765625</LatitudeDegrees>
              <LongitudeDegrees>-4.07565456815063953399658203125</LongitudeDegrees>
            </Position>
            <AltitudeMeters>1798</AltitudeMeters>
            <DistanceMeters>NAN</DistanceMeters>
          </Trackpoint>
          <Trackpoint>
            <Time>2018-12-30T12:32:42.000Z</Time>
            <Position>
              <LatitudeDegrees>40.78481390140950679779052734375</LatitudeDegrees>
              <LongitudeDegrees>-4.0756694041192531585693359375</LongitudeDegrees>
            </Position>
            <AltitudeMeters>1797.800048828125</AltitudeMeters>
            <DistanceMeters>NAN</DistanceMeters>
          </Trackpoint>
          <Trackpoint>
            <Time>2018-12-30T12:32:43.000Z</Time>
            <Position>
              <LatitudeDegrees>40.7848030887544155120849609375</LatitudeDegrees>
              <LongitudeDegrees>-4.075678624212741851806640625</LongitudeDegrees>
            </Position>
            <AltitudeMeters>1797.800048828125</AltitudeMeters>
            <DistanceMeters>NAN</DistanceMeters>
          </Trackpoint>
          <Trackpoint>
            <Time>2018-12-30T12:32:44.000Z</Time>
            <Position>
              <LatitudeDegrees>40.78479294665157794952392578125</LatitudeDegrees>
              <LongitudeDegrees>-4.07568943686783313751220703125</LongitudeDegrees>
            </Position>
            <AltitudeMeters>1797.5999755859375</AltitudeMeters>
            <DistanceMeters>NAN</DistanceMeters>
          </Trackpoint>
          <Trackpoint>
            <Time>2018-12-30T12:32:45.000Z</Time>
            <Position>
              <LatitudeDegrees>40.78478506766259670257568359375</LatitudeDegrees>
              <LongitudeDegrees>-4.0757059492170810699462890625</LongitudeDegrees>
            </Position>
            <AltitudeMeters>1797.5999755859375</AltitudeMeters>
            <DistanceMeters>NAN</DistanceMeters>
          </Trackpoint>
          <Trackpoint>
            <Time>2018-12-30T12:32:46.000Z</Time>
            <Position>
              <LatitudeDegrees>40.7847782783210277557373046875</LatitudeDegrees>
              <LongitudeDegrees>-4.0757294185459613800048828125</LongitudeDegrees>
            </Position>
            <AltitudeMeters>1797.5999755859375</AltitudeMeters>
            <DistanceMeters>NAN</DistanceMeters>
          </Trackpoint>
          <Trackpoint>
            <Time>2018-12-30T12:32:47.000Z</Time>
            <Position>
              <LatitudeDegrees>40.78477215953171253204345703125</LatitudeDegrees>
              <LongitudeDegrees>-4.0757545642554759979248046875</LongitudeDegrees>
            </Position>
            <AltitudeMeters>1797.5999755859375</AltitudeMeters>
            <DistanceMeters>NAN</DistanceMeters>
          </Trackpoint>
          <Trackpoint>
            <Time>2018-12-30T12:32:48.000Z</Time>
            <Position>
              <LatitudeDegrees>40.78476863913238048553466796875</LatitudeDegrees>
              <LongitudeDegrees>-4.07577727921307086944580078125</LongitudeDegrees>
            </Position>
            <AltitudeMeters>1797.4000244140625</AltitudeMeters>
            <DistanceMeters>NAN</DistanceMeters>
          </Trackpoint>
          <Trackpoint>
            <Time>2018-12-30T12:32:49.000Z</Time>
            <Position>
              <LatitudeDegrees>40.78476310707628726959228515625</LatitudeDegrees>
              <LongitudeDegrees>-4.07579739578068256378173828125</LongitudeDegrees>
            </Position>
            <AltitudeMeters>1797.199951171875</AltitudeMeters>
            <DistanceMeters>NAN</DistanceMeters>
          </Trackpoint>
          <Trackpoint>
            <Time>2018-12-30T12:32:50.000Z</Time>
            <Position>
              <LatitudeDegrees>40.78475690446794033050537109375</LatitudeDegrees>
              <LongitudeDegrees>-4.07581449486315250396728515625</LongitudeDegrees>
            </Position>
            <AltitudeMeters>1797.199951171875</AltitudeMeters>
            <DistanceMeters>NAN</DistanceMeters>
          </Trackpoint>
          <Trackpoint>
            <Time>2018-12-30T12:32:51.000Z</Time>
            <Position>
              <LatitudeDegrees>40.7847494445741176605224609375</LatitudeDegrees>
              <LongitudeDegrees>-4.075832180678844451904296875</LongitudeDegrees>
            </Position>
            <AltitudeMeters>1797.199951171875</AltitudeMeters>
            <DistanceMeters>NAN</DistanceMeters>
          </Trackpoint>
          <Trackpoint>
            <Time>2018-12-30T12:32:52.000Z</Time>
            <Position>
              <LatitudeDegrees>40.78473896719515323638916015625</LatitudeDegrees>
              <LongitudeDegrees>-4.075849615037441253662109375</LongitudeDegrees>
            </Position>
            <AltitudeMeters>1797.199951171875</AltitudeMeters>
            <DistanceMeters>NAN</DistanceMeters>
          </Trackpoint>
          <Trackpoint>
            <Time>2018-12-30T12:32:53.000Z</Time>
            <Position>
              <LatitudeDegrees>40.78473041765391826629638671875</LatitudeDegrees>
              <LongitudeDegrees>-4.07586545683443546295166015625</LongitudeDegrees>
            </Position>
            <AltitudeMeters>1797</AltitudeMeters>
            <DistanceMeters>NAN</DistanceMeters>
          </Trackpoint>
          <Trackpoint>
            <Time>2018-12-30T12:32:54.000Z</Time>
            <Position>
              <LatitudeDegrees>40.78473486006259918212890625</LatitudeDegrees>
              <LongitudeDegrees>-4.0758846513926982879638671875</LongitudeDegrees>
            </Position>
            <AltitudeMeters>1797.199951171875</AltitudeMeters>
            <DistanceMeters>NAN</DistanceMeters>
          </Trackpoint>
          <Trackpoint>
            <Time>2018-12-30T12:32:55.000Z</Time>
            <Position>
              <LatitudeDegrees>40.7847236283123493194580078125</LatitudeDegrees>
              <LongitudeDegrees>-4.0758947096765041351318359375</LongitudeDegrees>
            </Position>
            <AltitudeMeters>1797.199951171875</AltitudeMeters>
            <DistanceMeters>NAN</DistanceMeters>
          </Trackpoint>
          <Trackpoint>
            <Time>2018-12-30T12:32:56.000Z</Time>
            <Position>
              <LatitudeDegrees>40.78472522087395191192626953125</LatitudeDegrees>
              <LongitudeDegrees>-4.075906611979007720947265625</LongitudeDegrees>
            </Position>
            <AltitudeMeters>1797.199951171875</AltitudeMeters>
            <DistanceMeters>NAN</DistanceMeters>
          </Trackpoint>
          <Trackpoint>
            <Time>2018-12-30T12:32:57.000Z</Time>
            <Position>
              <LatitudeDegrees>40.7847226224839687347412109375</LatitudeDegrees>
              <LongitudeDegrees>-4.07592161558568477630615234375</LongitudeDegrees>
            </Position>
            <AltitudeMeters>1797</AltitudeMeters>
            <DistanceMeters>NAN</DistanceMeters>
          </Trackpoint>
          <Trackpoint>
            <Time>2018-12-30T12:32:58.000Z</Time>
            <Position>
              <LatitudeDegrees>40.78471499495208263397216796875</LatitudeDegrees>
              <LongitudeDegrees>-4.07593184150755405426025390625</LongitudeDegrees>
            </Position>
            <AltitudeMeters>1797</AltitudeMeters>
            <DistanceMeters>NAN</DistanceMeters>
          </Trackpoint>
          <Trackpoint>
            <Time>2018-12-30T12:32:59.000Z</Time>
            <Position>
              <LatitudeDegrees>40.784714408218860626220703125</LatitudeDegrees>
              <LongitudeDegrees>-4.07595011405646800994873046875</LongitudeDegrees>
            </Position>
            <AltitudeMeters>1797</AltitudeMeters>
            <DistanceMeters>NAN</DistanceMeters>
          </Trackpoint>
          <Trackpoint>
            <Time>2018-12-30T12:33:00.000Z</Time>
            <Position>
              <LatitudeDegrees>40.78471214510500431060791015625</LatitudeDegrees>
              <LongitudeDegrees>-4.07596872188150882720947265625</LongitudeDegrees>
            </Position>
            <AltitudeMeters>1797</AltitudeMeters>
            <DistanceMeters>NAN</DistanceMeters>
          </Trackpoint>
          <Trackpoint>
            <Time>2018-12-30T12:33:01.000Z</Time>
            <Position>
              <LatitudeDegrees>40.78470510430634021759033203125</LatitudeDegrees>
              <LongitudeDegrees>-4.075989089906215667724609375</LongitudeDegrees>
            </Position>
            <AltitudeMeters>1797</AltitudeMeters>
            <DistanceMeters>NAN</DistanceMeters>
          </Trackpoint>
          <Trackpoint>
            <Time>2018-12-30T12:33:02.000Z</Time>
            <Position>
              <LatitudeDegrees>40.78469554893672466278076171875</LatitudeDegrees>
              <LongitudeDegrees>-4.0760041773319244384765625</LongitudeDegrees>
            </Position>
            <AltitudeMeters>1797</AltitudeMeters>
            <DistanceMeters>NAN</DistanceMeters>
          </Trackpoint>
          <Trackpoint>
            <Time>2018-12-30T12:33:03.000Z</Time>
            <Position>
              <LatitudeDegrees>40.78468414954841136932373046875</LatitudeDegrees>
              <LongitudeDegrees>-4.076016247272491455078125</LongitudeDegrees>
            </Position>
            <AltitudeMeters>1797</AltitudeMeters>
            <DistanceMeters>NAN</DistanceMeters>
          </Trackpoint>
          <Trackpoint>
            <Time>2018-12-30T12:33:04.000Z</Time>
            <Position>
              <LatitudeDegrees>40.784674845635890960693359375</LatitudeDegrees>
              <LongitudeDegrees>-4.07602773047983646392822265625</LongitudeDegrees>
            </Position>
            <AltitudeMeters>1796.800048828125</AltitudeMeters>
            <DistanceMeters>NAN</DistanceMeters>
          </Trackpoint>
          <Trackpoint>
            <Time>2018-12-30T12:33:05.000Z</Time>
            <Position>
              <LatitudeDegrees>40.7846719957888126373291015625</LatitudeDegrees>
              <LongitudeDegrees>-4.07604147680103778839111328125</LongitudeDegrees>
            </Position>
            <AltitudeMeters>1796.800048828125</AltitudeMeters>
            <DistanceMeters>NAN</DistanceMeters>
          </Trackpoint>
          <Trackpoint>
            <Time>2018-12-30T12:33:06.000Z</Time>
            <Position>
              <LatitudeDegrees>40.784664452075958251953125</LatitudeDegrees>
              <LongitudeDegrees>-4.07605706714093685150146484375</LongitudeDegrees>
            </Position>
            <AltitudeMeters>1796.800048828125</AltitudeMeters>
            <DistanceMeters>NAN</DistanceMeters>
          </Trackpoint>
          <Trackpoint>
            <Time>2018-12-30T12:33:07.000Z</Time>
            <Position>
              <LatitudeDegrees>40.78465816564857959747314453125</LatitudeDegrees>
              <LongitudeDegrees>-4.07607299275696277618408203125</LongitudeDegrees>
            </Position>
            <AltitudeMeters>1796.5999755859375</AltitudeMeters>
            <DistanceMeters>NAN</DistanceMeters>
          </Trackpoint>
          <Trackpoint>
            <Time>2018-12-30T12:33:08.000Z</Time>
            <Position>
              <LatitudeDegrees>40.78465296886861324310302734375</LatitudeDegrees>
              <LongitudeDegrees>-4.076091349124908447265625</LongitudeDegrees>
            </Position>
            <AltitudeMeters>1796.800048828125</AltitudeMeters>
            <DistanceMeters>NAN</DistanceMeters>
          </Trackpoint>
          <Trackpoint>
            <Time>2018-12-30T12:33:09.000Z</Time>
            <Position>
              <LatitudeDegrees>40.78464911319315433502197265625</LatitudeDegrees>
              <LongitudeDegrees>-4.0761123038828372955322265625</LongitudeDegrees>
            </Position>
            <AltitudeMeters>1796.5999755859375</AltitudeMeters>
            <DistanceMeters>NAN</DistanceMeters>
          </Trackpoint>
          <Trackpoint>
            <Time>2018-12-30T12:33:10.000Z</Time>
            <Position>
              <LatitudeDegrees>40.7846448384225368499755859375</LatitudeDegrees>
              <LongitudeDegrees>-4.07613082788884639739990234375</LongitudeDegrees>
            </Position>
            <AltitudeMeters>1796.4000244140625</AltitudeMeters>
            <DistanceMeters>NAN</DistanceMeters>
          </Trackpoint>
          <Trackpoint>
            <Time>2018-12-30T12:33:11.000Z</Time>
            <Position>
              <LatitudeDegrees>40.78463603742420673370361328125</LatitudeDegrees>
              <LongitudeDegrees>-4.076145999133586883544921875</LongitudeDegrees>
            </Position>
            <AltitudeMeters>1796.199951171875</AltitudeMeters>
            <DistanceMeters>NAN</DistanceMeters>
          </Trackpoint>
          <Trackpoint>
            <Time>2018-12-30T12:33:12.000Z</Time>
            <Position>
              <LatitudeDegrees>40.78462681733071804046630859375</LatitudeDegrees>
              <LongitudeDegrees>-4.0761612541973590850830078125</LongitudeDegrees>
            </Position>
            <AltitudeMeters>1796</AltitudeMeters>
            <DistanceMeters>NAN</DistanceMeters>
          </Trackpoint>
          <Trackpoint>
            <Time>2018-12-30T12:33:13.000Z</Time>
            <Position>
              <LatitudeDegrees>40.784616507589817047119140625</LatitudeDegrees>
              <LongitudeDegrees>-4.076178856194019317626953125</LongitudeDegrees>
            </Position>
            <AltitudeMeters>1795.800048828125</AltitudeMeters>
            <DistanceMeters>NAN</DistanceMeters>
          </Trackpoint>
          <Trackpoint>
            <Time>2018-12-30T12:33:14.000Z</Time>
            <Position>
              <LatitudeDegrees>40.78460611402988433837890625</LatitudeDegrees>
              <LongitudeDegrees>-4.0761937759816646575927734375</LongitudeDegrees>
            </Position>
            <AltitudeMeters>1795.5999755859375</AltitudeMeters>
            <DistanceMeters>NAN</DistanceMeters>
          </Trackpoint>
          <Trackpoint>
            <Time>2018-12-30T12:33:15.000Z</Time>
            <Position>
              <LatitudeDegrees>40.78459412790834903717041015625</LatitudeDegrees>
              <LongitudeDegrees>-4.07620458863675594329833984375</LongitudeDegrees>
            </Position>
            <AltitudeMeters>1795.4000244140625</AltitudeMeters>
            <DistanceMeters>NAN</DistanceMeters>
          </Trackpoint>
          <Trackpoint>
            <Time>2018-12-30T12:33:16.000Z</Time>
            <Position>
              <LatitudeDegrees>40.7845885120332241058349609375</LatitudeDegrees>
              <LongitudeDegrees>-4.076221100986003875732421875</LongitudeDegrees>
            </Position>
            <AltitudeMeters>1795.199951171875</AltitudeMeters>
            <DistanceMeters>NAN</DistanceMeters>
          </Trackpoint>
          <Trackpoint>
            <Time>2018-12-30T12:33:17.000Z</Time>
            <Position>
              <LatitudeDegrees>40.7845799624919891357421875</LatitudeDegrees>
              <LongitudeDegrees>-4.0762373618781566619873046875</LongitudeDegrees>
            </Position>
            <AltitudeMeters>1795.199951171875</AltitudeMeters>
            <DistanceMeters>NAN</DistanceMeters>
          </Trackpoint>
          <Trackpoint>
            <Time>2018-12-30T12:33:18.000Z</Time>
            <Position>
              <LatitudeDegrees>40.78456780873239040374755859375</LatitudeDegrees>
              <LongitudeDegrees>-4.076251275837421417236328125</LongitudeDegrees>
            </Position>
            <AltitudeMeters>1795</AltitudeMeters>
            <DistanceMeters>NAN</DistanceMeters>
          </Trackpoint>
          <Trackpoint>
            <Time>2018-12-30T12:33:19.000Z</Time>
            <Position>
              <LatitudeDegrees>40.7845533080399036407470703125</LatitudeDegrees>
              <LongitudeDegrees>-4.07626141794025897979736328125</LongitudeDegrees>
            </Position>
            <AltitudeMeters>1795</AltitudeMeters>
            <DistanceMeters>NAN</DistanceMeters>
          </Trackpoint>
          <Trackpoint>
            <Time>2018-12-30T12:33:20.000Z</Time>
            <Position>
              <LatitudeDegrees>40.78454433940351009368896484375</LatitudeDegrees>
              <LongitudeDegrees>-4.076273404061794281005859375</LongitudeDegrees>
            </Position>
            <AltitudeMeters>1794.800048828125</AltitudeMeters>
            <DistanceMeters>NAN</DistanceMeters>
          </Trackpoint>
          <Trackpoint>
            <Time>2018-12-30T12:33:21.000Z</Time>
            <Position>
              <LatitudeDegrees>40.7845321856439113616943359375</LatitudeDegrees>
              <LongitudeDegrees>-4.0762858092784881591796875</LongitudeDegrees>
            </Position>
            <AltitudeMeters>1794.800048828125</AltitudeMeters>
            <DistanceMeters>NAN</DistanceMeters>
          </Trackpoint>
          <Trackpoint>
            <Time>2018-12-30T12:33:22.000Z</Time>
            <Position>
              <LatitudeDegrees>40.78452371992170810699462890625</LatitudeDegrees>
              <LongitudeDegrees>-4.07630030997097492218017578125</LongitudeDegrees>
            </Position>
            <AltitudeMeters>1794.800048828125</AltitudeMeters>
            <DistanceMeters>NAN</DistanceMeters>
          </Trackpoint>
          <Trackpoint>
            <Time>2018-12-30T12:33:23.000Z</Time>
            <Position>
              <LatitudeDegrees>40.78451332636177539825439453125</LatitudeDegrees>
              <LongitudeDegrees>-4.07631824724376201629638671875</LongitudeDegrees>
            </Position>
            <AltitudeMeters>1794.800048828125</AltitudeMeters>
            <DistanceMeters>NAN</DistanceMeters>
          </Trackpoint>
          <Trackpoint>
            <Time>2018-12-30T12:33:24.000Z</Time>
            <Position>
              <LatitudeDegrees>40.784503184258937835693359375</LatitudeDegrees>
              <LongitudeDegrees>-4.07633635215461254119873046875</LongitudeDegrees>
            </Position>
            <AltitudeMeters>1794.800048828125</AltitudeMeters>
            <DistanceMeters>NAN</DistanceMeters>
          </Trackpoint>
          <Trackpoint>
            <Time>2018-12-30T12:33:25.000Z</Time>
            <Position>
              <LatitudeDegrees>40.7844906114041805267333984375</LatitudeDegrees>
              <LongitudeDegrees>-4.07634951174259185791015625</LongitudeDegrees>
            </Position>
            <AltitudeMeters>1794.800048828125</AltitudeMeters>
            <DistanceMeters>NAN</DistanceMeters>
          </Trackpoint>
          <Trackpoint>
            <Time>2018-12-30T12:33:26.000Z</Time>
            <Position>
              <LatitudeDegrees>40.78447929583489894866943359375</LatitudeDegrees>
              <LongitudeDegrees>-4.07636451534926891326904296875</LongitudeDegrees>
            </Position>
            <AltitudeMeters>1794.5999755859375</AltitudeMeters>
            <DistanceMeters>NAN</DistanceMeters>
          </Trackpoint>
          <Trackpoint>
            <Time>2018-12-30T12:33:27.000Z</Time>
            <Position>
              <LatitudeDegrees>40.78447661362588405609130859375</LatitudeDegrees>
              <LongitudeDegrees>-4.076382704079151153564453125</LongitudeDegrees>
            </Position>
            <AltitudeMeters>1794.800048828125</AltitudeMeters>
            <DistanceMeters>NAN</DistanceMeters>
          </Trackpoint>
          <Trackpoint>
            <Time>2018-12-30T12:33:28.000Z</Time>
            <Position>
              <LatitudeDegrees>40.78446756117045879364013671875</LatitudeDegrees>
              <LongitudeDegrees>-4.0763939358294010162353515625</LongitudeDegrees>
            </Position>
            <AltitudeMeters>1794.800048828125</AltitudeMeters>
            <DistanceMeters>NAN</DistanceMeters>
          </Trackpoint>
          <Trackpoint>
            <Time>2018-12-30T12:33:29.000Z</Time>
            <Position>
              <LatitudeDegrees>40.78445993363857269287109375</LatitudeDegrees>
              <LongitudeDegrees>-4.0764080174267292022705078125</LongitudeDegrees>
            </Position>
            <AltitudeMeters>1795</AltitudeMeters>
            <DistanceMeters>NAN</DistanceMeters>
          </Trackpoint>
          <Trackpoint>
            <Time>2018-12-30T12:33:30.000Z</Time>
            <Position>
              <LatitudeDegrees>40.784444510936737060546875</LatitudeDegrees>
              <LongitudeDegrees>-4.0764123760163784027099609375</LongitudeDegrees>
            </Position>
            <AltitudeMeters>1795.199951171875</AltitudeMeters>
            <DistanceMeters>NAN</DistanceMeters>
          </Trackpoint>
          <Trackpoint>
            <Time>2018-12-30T12:33:31.000Z</Time>
            <Position>
              <LatitudeDegrees>40.7844324409961700439453125</LatitudeDegrees>
              <LongitudeDegrees>-4.0764224343001842498779296875</LongitudeDegrees>
            </Position>
            <AltitudeMeters>1795.4000244140625</AltitudeMeters>
            <DistanceMeters>NAN</DistanceMeters>
          </Trackpoint>
          <Trackpoint>
            <Time>2018-12-30T12:33:32.000Z</Time>
            <Position>
              <LatitudeDegrees>40.78442716039717197418212890625</LatitudeDegrees>
              <LongitudeDegrees>-4.0764351747930049896240234375</LongitudeDegrees>
            </Position>
            <AltitudeMeters>1795.4000244140625</AltitudeMeters>
            <DistanceMeters>NAN</DistanceMeters>
          </Trackpoint>
          <Trackpoint>
            <Time>2018-12-30T12:33:33.000Z</Time>
            <Position>
              <LatitudeDegrees>40.78441911377012729644775390625</LatitudeDegrees>
              <LongitudeDegrees>-4.07644665800034999847412109375</LongitudeDegrees>
            </Position>
            <AltitudeMeters>1795.4000244140625</AltitudeMeters>
            <DistanceMeters>NAN</DistanceMeters>
          </Trackpoint>
          <Trackpoint>
            <Time>2018-12-30T12:33:34.000Z</Time>
            <Position>
              <LatitudeDegrees>40.7844101451337337493896484375</LatitudeDegrees>
              <LongitudeDegrees>-4.0764552913606166839599609375</LongitudeDegrees>
            </Position>
            <AltitudeMeters>1795.4000244140625</AltitudeMeters>
            <DistanceMeters>NAN</DistanceMeters>
          </Trackpoint>
          <Trackpoint>
            <Time>2018-12-30T12:33:35.000Z</Time>
            <Position>
              <LatitudeDegrees>40.7844007574021816253662109375</LatitudeDegrees>
              <LongitudeDegrees>-4.0764628350734710693359375</LongitudeDegrees>
            </Position>
            <AltitudeMeters>1795.199951171875</AltitudeMeters>
            <DistanceMeters>NAN</DistanceMeters>
          </Trackpoint>
          <Trackpoint>
            <Time>2018-12-30T12:33:36.000Z</Time>
            <Position>
              <LatitudeDegrees>40.78438885509967803955078125</LatitudeDegrees>
              <LongitudeDegrees>-4.076482951641082763671875</LongitudeDegrees>
            </Position>
            <AltitudeMeters>1795.199951171875</AltitudeMeters>
            <DistanceMeters>NAN</DistanceMeters>
          </Trackpoint>
          <Trackpoint>
            <Time>2018-12-30T12:33:37.000Z</Time>
            <Position>
              <LatitudeDegrees>40.78437812626361846923828125</LatitudeDegrees>
              <LongitudeDegrees>-4.0764978714287281036376953125</LongitudeDegrees>
            </Position>
            <AltitudeMeters>1795</AltitudeMeters>
            <DistanceMeters>NAN</DistanceMeters>
          </Trackpoint>
          <Trackpoint>
            <Time>2018-12-30T12:33:38.000Z</Time>
            <Position>
              <LatitudeDegrees>40.78436714597046375274658203125</LatitudeDegrees>
              <LongitudeDegrees>-4.07651589252054691314697265625</LongitudeDegrees>
            </Position>
            <AltitudeMeters>1795</AltitudeMeters>
            <DistanceMeters>NAN</DistanceMeters>
          </Trackpoint>
          <Trackpoint>
            <Time>2018-12-30T12:33:39.000Z</Time>
            <Position>
              <LatitudeDegrees>40.78435725532472133636474609375</LatitudeDegrees>
              <LongitudeDegrees>-4.07652863301336765289306640625</LongitudeDegrees>
            </Position>
            <AltitudeMeters>1795</AltitudeMeters>
            <DistanceMeters>NAN</DistanceMeters>
          </Trackpoint>
          <Trackpoint>
            <Time>2018-12-30T12:33:40.000Z</Time>
            <Position>
              <LatitudeDegrees>40.7843487896025180816650390625</LatitudeDegrees>
              <LongitudeDegrees>-4.07654254697263240814208984375</LongitudeDegrees>
            </Position>
            <AltitudeMeters>1795</AltitudeMeters>
            <DistanceMeters>NAN</DistanceMeters>
          </Trackpoint>
          <Trackpoint>
            <Time>2018-12-30T12:33:41.000Z</Time>
            <Position>
              <LatitudeDegrees>40.78434099443256855010986328125</LatitudeDegrees>
              <LongitudeDegrees>-4.0765541978180408477783203125</LongitudeDegrees>
            </Position>
            <AltitudeMeters>1795</AltitudeMeters>
            <DistanceMeters>NAN</DistanceMeters>
          </Trackpoint>
          <Trackpoint>
            <Time>2018-12-30T12:33:42.000Z</Time>
            <Position>
              <LatitudeDegrees>40.7843353785574436187744140625</LatitudeDegrees>
              <LongitudeDegrees>-4.07656836323440074920654296875</LongitudeDegrees>
            </Position>
            <AltitudeMeters>1794.800048828125</AltitudeMeters>
            <DistanceMeters>NAN</DistanceMeters>
          </Trackpoint>
          <Trackpoint>
            <Time>2018-12-30T12:33:43.000Z</Time>
            <Position>
              <LatitudeDegrees>40.78433026559650897979736328125</LatitudeDegrees>
              <LongitudeDegrees>-4.0765863843262195587158203125</LongitudeDegrees>
            </Position>
            <AltitudeMeters>1794.800048828125</AltitudeMeters>
            <DistanceMeters>NAN</DistanceMeters>
          </Trackpoint>
          <Trackpoint>
            <Time>2018-12-30T12:33:44.000Z</Time>
            <Position>
              <LatitudeDegrees>40.784324146807193756103515625</LatitudeDegrees>
              <LongitudeDegrees>-4.07660541124641895294189453125</LongitudeDegrees>
            </Position>
            <AltitudeMeters>1794.800048828125</AltitudeMeters>
            <DistanceMeters>NAN</DistanceMeters>
          </Trackpoint>
          <Trackpoint>
            <Time>2018-12-30T12:33:45.000Z</Time>
            <Position>
              <LatitudeDegrees>40.784317441284656524658203125</LatitudeDegrees>
              <LongitudeDegrees>-4.07662183977663516998291015625</LongitudeDegrees>
            </Position>
            <AltitudeMeters>1794.5999755859375</AltitudeMeters>
            <DistanceMeters>NAN</DistanceMeters>
          </Trackpoint>
          <Trackpoint>
            <Time>2018-12-30T12:33:46.000Z</Time>
            <Position>
              <LatitudeDegrees>40.7843102328479290008544921875</LatitudeDegrees>
              <LongitudeDegrees>-4.0766386874020099639892578125</LongitudeDegrees>
            </Position>
            <AltitudeMeters>1794.199951171875</AltitudeMeters>
            <DistanceMeters>NAN</DistanceMeters>
          </Trackpoint>
          <Trackpoint>
            <Time>2018-12-30T12:33:47.000Z</Time>
            <Position>
              <LatitudeDegrees>40.78431249596178531646728515625</LatitudeDegrees>
              <LongitudeDegrees>-4.07666022889316082000732421875</LongitudeDegrees>
            </Position>
            <AltitudeMeters>1793.5999755859375</AltitudeMeters>
            <DistanceMeters>NAN</DistanceMeters>
          </Trackpoint>
          <Trackpoint>
            <Time>2018-12-30T12:33:48.000Z</Time>
            <Position>
              <LatitudeDegrees>40.7843092270195484161376953125</LatitudeDegrees>
              <LongitudeDegrees>-4.07667783088982105255126953125</LongitudeDegrees>
            </Position>
            <AltitudeMeters>1793</AltitudeMeters>
            <DistanceMeters>NAN</DistanceMeters>
          </Trackpoint>
          <Trackpoint>
            <Time>2018-12-30T12:33:49.000Z</Time>
            <Position>
              <LatitudeDegrees>40.78429673798382282257080078125</LatitudeDegrees>
              <LongitudeDegrees>-4.0766940079629421234130859375</LongitudeDegrees>
            </Position>
            <AltitudeMeters>1792.800048828125</AltitudeMeters>
            <DistanceMeters>NAN</DistanceMeters>
          </Trackpoint>
          <Trackpoint>
            <Time>2018-12-30T12:33:50.000Z</Time>
            <Position>
              <LatitudeDegrees>40.78428835608065128326416015625</LatitudeDegrees>
              <LongitudeDegrees>-4.076711274683475494384765625</LongitudeDegrees>
            </Position>
            <AltitudeMeters>1792.5999755859375</AltitudeMeters>
            <DistanceMeters>NAN</DistanceMeters>
          </Trackpoint>
          <Trackpoint>
            <Time>2018-12-30T12:33:51.000Z</Time>
            <Position>
              <LatitudeDegrees>40.784276537597179412841796875</LatitudeDegrees>
              <LongitudeDegrees>-4.0767283737659454345703125</LongitudeDegrees>
            </Position>
            <AltitudeMeters>1792.5999755859375</AltitudeMeters>
            <DistanceMeters>NAN</DistanceMeters>
          </Trackpoint>
          <Trackpoint>
            <Time>2018-12-30T12:33:52.000Z</Time>
            <Position>
              <LatitudeDegrees>40.78426790423691272735595703125</LatitudeDegrees>
              <LongitudeDegrees>-4.0767489932477474212646484375</LongitudeDegrees>
            </Position>
            <AltitudeMeters>1792.5999755859375</AltitudeMeters>
            <DistanceMeters>NAN</DistanceMeters>
          </Trackpoint>
          <Trackpoint>
            <Time>2018-12-30T12:33:53.000Z</Time>
            <Position>
              <LatitudeDegrees>40.78426471911370754241943359375</LatitudeDegrees>
              <LongitudeDegrees>-4.07676919363439083099365234375</LongitudeDegrees>
            </Position>
            <AltitudeMeters>1792.5999755859375</AltitudeMeters>
            <DistanceMeters>NAN</DistanceMeters>
          </Trackpoint>
          <Trackpoint>
            <Time>2018-12-30T12:33:54.000Z</Time>
            <Position>
              <LatitudeDegrees>40.78425206243991851806640625</LatitudeDegrees>
              <LongitudeDegrees>-4.07679098658263683319091796875</LongitudeDegrees>
            </Position>
            <AltitudeMeters>1792.4000244140625</AltitudeMeters>
            <DistanceMeters>NAN</DistanceMeters>
          </Trackpoint>
          <Trackpoint>
            <Time>2018-12-30T12:33:55.000Z</Time>
            <Position>
              <LatitudeDegrees>40.784244351089000701904296875</LatitudeDegrees>
              <LongitudeDegrees>-4.0768103487789630889892578125</LongitudeDegrees>
            </Position>
            <AltitudeMeters>1792.4000244140625</AltitudeMeters>
            <DistanceMeters>NAN</DistanceMeters>
          </Trackpoint>
          <Trackpoint>
            <Time>2018-12-30T12:33:56.000Z</Time>
            <Position>
              <LatitudeDegrees>40.78423940576612949371337890625</LatitudeDegrees>
              <LongitudeDegrees>-4.0768274478614330291748046875</LongitudeDegrees>
            </Position>
            <AltitudeMeters>1792.4000244140625</AltitudeMeters>
            <DistanceMeters>NAN</DistanceMeters>
          </Trackpoint>
          <Trackpoint>
            <Time>2018-12-30T12:33:57.000Z</Time>
            <Position>
              <LatitudeDegrees>40.78423270024359226226806640625</LatitudeDegrees>
              <LongitudeDegrees>-4.07684463076293468475341796875</LongitudeDegrees>
            </Position>
            <AltitudeMeters>1792.4000244140625</AltitudeMeters>
            <DistanceMeters>NAN</DistanceMeters>
          </Trackpoint>
          <Trackpoint>
            <Time>2018-12-30T12:33:58.000Z</Time>
            <Position>
              <LatitudeDegrees>40.78422733582556247711181640625</LatitudeDegrees>
              <LongitudeDegrees>-4.0768639929592609405517578125</LongitudeDegrees>
            </Position>
            <AltitudeMeters>1792.5999755859375</AltitudeMeters>
            <DistanceMeters>NAN</DistanceMeters>
          </Trackpoint>
          <Trackpoint>
            <Time>2018-12-30T12:33:59.000Z</Time>
            <Position>
              <LatitudeDegrees>40.78422398306429386138916015625</LatitudeDegrees>
              <LongitudeDegrees>-4.0768812596797943115234375</LongitudeDegrees>
            </Position>
            <AltitudeMeters>1792.5999755859375</AltitudeMeters>
            <DistanceMeters>NAN</DistanceMeters>
          </Trackpoint>
          <Trackpoint>
            <Time>2018-12-30T12:34:00.000Z</Time>
            <Position>
              <LatitudeDegrees>40.78422063030302524566650390625</LatitudeDegrees>
              <LongitudeDegrees>-4.0768985264003276824951171875</LongitudeDegrees>
            </Position>
            <AltitudeMeters>1792.5999755859375</AltitudeMeters>
            <DistanceMeters>NAN</DistanceMeters>
          </Trackpoint>
          <Trackpoint>
            <Time>2018-12-30T12:34:01.000Z</Time>
            <Position>
              <LatitudeDegrees>40.7842143438756465911865234375</LatitudeDegrees>
              <LongitudeDegrees>-4.076915793120861053466796875</LongitudeDegrees>
            </Position>
            <AltitudeMeters>1792.5999755859375</AltitudeMeters>
            <DistanceMeters>NAN</DistanceMeters>
          </Trackpoint>
          <Trackpoint>
            <Time>2018-12-30T12:34:02.000Z</Time>
            <Position>
              <LatitudeDegrees>40.7842083089053630828857421875</LatitudeDegrees>
              <LongitudeDegrees>-4.07693079672753810882568359375</LongitudeDegrees>
            </Position>
            <AltitudeMeters>1792.5999755859375</AltitudeMeters>
            <DistanceMeters>NAN</DistanceMeters>
          </Trackpoint>
          <Trackpoint>
            <Time>2018-12-30T12:34:03.000Z</Time>
            <Position>
              <LatitudeDegrees>40.7842029444873332977294921875</LatitudeDegrees>
              <LongitudeDegrees>-4.0769471414387226104736328125</LongitudeDegrees>
            </Position>
            <AltitudeMeters>1792.5999755859375</AltitudeMeters>
            <DistanceMeters>NAN</DistanceMeters>
          </Trackpoint>
          <Trackpoint>
            <Time>2018-12-30T12:34:04.000Z</Time>
            <Position>
              <LatitudeDegrees>40.78419850207865238189697265625</LatitudeDegrees>
              <LongitudeDegrees>-4.07696717418730258941650390625</LongitudeDegrees>
            </Position>
            <AltitudeMeters>1792.5999755859375</AltitudeMeters>
            <DistanceMeters>NAN</DistanceMeters>
          </Trackpoint>
          <Trackpoint>
            <Time>2018-12-30T12:34:05.000Z</Time>
            <Position>
              <LatitudeDegrees>40.78419280238449573516845703125</LatitudeDegrees>
              <LongitudeDegrees>-4.07698594965040683746337890625</LongitudeDegrees>
            </Position>
            <AltitudeMeters>1792.5999755859375</AltitudeMeters>
            <DistanceMeters>NAN</DistanceMeters>
          </Trackpoint>
          <Trackpoint>
            <Time>2018-12-30T12:34:06.000Z</Time>
            <Position>
              <LatitudeDegrees>40.78418777324259281158447265625</LatitudeDegrees>
              <LongitudeDegrees>-4.0770001150667667388916015625</LongitudeDegrees>
            </Position>
            <AltitudeMeters>1792.4000244140625</AltitudeMeters>
            <DistanceMeters>NAN</DistanceMeters>
          </Trackpoint>
          <Trackpoint>
            <Time>2018-12-30T12:34:07.000Z</Time>
            <Position>
              <LatitudeDegrees>40.784182660281658172607421875</LatitudeDegrees>
              <LongitudeDegrees>-4.0770113468170166015625</LongitudeDegrees>
            </Position>
            <AltitudeMeters>1792.4000244140625</AltitudeMeters>
            <DistanceMeters>NAN</DistanceMeters>
          </Trackpoint>
          <Trackpoint>
            <Time>2018-12-30T12:34:08.000Z</Time>
            <Position>
              <LatitudeDegrees>40.78417553566396236419677734375</LatitudeDegrees>
              <LongitudeDegrees>-4.0770235843956470489501953125</LongitudeDegrees>
            </Position>
            <AltitudeMeters>1792.199951171875</AltitudeMeters>
            <DistanceMeters>NAN</DistanceMeters>
          </Trackpoint>
          <Trackpoint>
            <Time>2018-12-30T12:34:09.000Z</Time>
            <Position>
              <LatitudeDegrees>40.78416648320853710174560546875</LatitudeDegrees>
              <LongitudeDegrees>-4.07703481614589691162109375</LongitudeDegrees>
            </Position>
            <AltitudeMeters>1792.199951171875</AltitudeMeters>
            <DistanceMeters>NAN</DistanceMeters>
          </Trackpoint>
          <Trackpoint>
            <Time>2018-12-30T12:34:10.000Z</Time>
            <Position>
              <LatitudeDegrees>40.78416413627564907073974609375</LatitudeDegrees>
              <LongitudeDegrees>-4.07704931683838367462158203125</LongitudeDegrees>
            </Position>
            <AltitudeMeters>1792.199951171875</AltitudeMeters>
            <DistanceMeters>NAN</DistanceMeters>
          </Trackpoint>
          <Trackpoint>
            <Time>2018-12-30T12:34:11.000Z</Time>
            <Position>
              <LatitudeDegrees>40.78416489064693450927734375</LatitudeDegrees>
              <LongitudeDegrees>-4.07706658355891704559326171875</LongitudeDegrees>
            </Position>
            <AltitudeMeters>1792.199951171875</AltitudeMeters>
            <DistanceMeters>NAN</DistanceMeters>
          </Trackpoint>
          <Trackpoint>
            <Time>2018-12-30T12:34:12.000Z</Time>
            <Position>
              <LatitudeDegrees>40.784160196781158447265625</LatitudeDegrees>
              <LongitudeDegrees>-4.07708519138395786285400390625</LongitudeDegrees>
            </Position>
            <AltitudeMeters>1792.199951171875</AltitudeMeters>
            <DistanceMeters>NAN</DistanceMeters>
          </Trackpoint>
          <Trackpoint>
            <Time>2018-12-30T12:34:13.000Z</Time>
            <Position>
              <LatitudeDegrees>40.7841539941728115081787109375</LatitudeDegrees>
              <LongitudeDegrees>-4.07710455358028411865234375</LongitudeDegrees>
            </Position>
            <AltitudeMeters>1792.199951171875</AltitudeMeters>
            <DistanceMeters>NAN</DistanceMeters>
          </Trackpoint>
          <Trackpoint>
            <Time>2018-12-30T12:34:14.000Z</Time>
            <Position>
              <LatitudeDegrees>40.78415282070636749267578125</LatitudeDegrees>
              <LongitudeDegrees>-4.0771255083382129669189453125</LongitudeDegrees>
            </Position>
            <AltitudeMeters>1792.199951171875</AltitudeMeters>
            <DistanceMeters>NAN</DistanceMeters>
          </Trackpoint>
          <Trackpoint>
            <Time>2018-12-30T12:34:15.000Z</Time>
            <Position>
              <LatitudeDegrees>40.784145109355449676513671875</LatitudeDegrees>
              <LongitudeDegrees>-4.077142439782619476318359375</LongitudeDegrees>
            </Position>
            <AltitudeMeters>1792.199951171875</AltitudeMeters>
            <DistanceMeters>NAN</DistanceMeters>
          </Trackpoint>
          <Trackpoint>
            <Time>2018-12-30T12:34:16.000Z</Time>
            <Position>
              <LatitudeDegrees>40.78413597308099269866943359375</LatitudeDegrees>
              <LongitudeDegrees>-4.0771587006747722625732421875</LongitudeDegrees>
            </Position>
            <AltitudeMeters>1792.199951171875</AltitudeMeters>
            <DistanceMeters>NAN</DistanceMeters>
          </Trackpoint>
          <Trackpoint>
            <Time>2018-12-30T12:34:17.000Z</Time>
            <Position>
              <LatitudeDegrees>40.78412725590169429779052734375</LatitudeDegrees>
              <LongitudeDegrees>-4.07717370428144931793212890625</LongitudeDegrees>
            </Position>
            <AltitudeMeters>1792.199951171875</AltitudeMeters>
            <DistanceMeters>NAN</DistanceMeters>
          </Trackpoint>
          <Trackpoint>
            <Time>2018-12-30T12:34:18.000Z</Time>
            <Position>
              <LatitudeDegrees>40.78411837108433246612548828125</LatitudeDegrees>
              <LongitudeDegrees>-4.0771897137165069580078125</LongitudeDegrees>
            </Position>
            <AltitudeMeters>1792.4000244140625</AltitudeMeters>
            <DistanceMeters>NAN</DistanceMeters>
          </Trackpoint>
          <Trackpoint>
            <Time>2018-12-30T12:34:19.000Z</Time>
            <Position>
              <LatitudeDegrees>40.78410982154309749603271484375</LatitudeDegrees>
              <LongitudeDegrees>-4.077206812798976898193359375</LongitudeDegrees>
            </Position>
            <AltitudeMeters>1792.4000244140625</AltitudeMeters>
            <DistanceMeters>NAN</DistanceMeters>
          </Trackpoint>
          <Trackpoint>
            <Time>2018-12-30T12:34:20.000Z</Time>
            <Position>
              <LatitudeDegrees>40.784100182354450225830078125</LatitudeDegrees>
              <LongitudeDegrees>-4.07722282223403453826904296875</LongitudeDegrees>
            </Position>
            <AltitudeMeters>1792.4000244140625</AltitudeMeters>
            <DistanceMeters>NAN</DistanceMeters>
          </Trackpoint>
          <Trackpoint>
            <Time>2018-12-30T12:34:21.000Z</Time>
            <Position>
              <LatitudeDegrees>40.78409490175545215606689453125</LatitudeDegrees>
              <LongitudeDegrees>-4.07724075950682163238525390625</LongitudeDegrees>
            </Position>
            <AltitudeMeters>1792.4000244140625</AltitudeMeters>
            <DistanceMeters>NAN</DistanceMeters>
          </Trackpoint>
          <Trackpoint>
            <Time>2018-12-30T12:34:22.000Z</Time>
            <Position>
              <LatitudeDegrees>40.7840879447758197784423828125</LatitudeDegrees>
              <LongitudeDegrees>-4.0772579424083232879638671875</LongitudeDegrees>
            </Position>
            <AltitudeMeters>1792.4000244140625</AltitudeMeters>
            <DistanceMeters>NAN</DistanceMeters>
          </Trackpoint>
          <Trackpoint>
            <Time>2018-12-30T12:34:23.000Z</Time>
            <Position>
              <LatitudeDegrees>40.78408174216747283935546875</LatitudeDegrees>
              <LongitudeDegrees>-4.07727487385272979736328125</LongitudeDegrees>
            </Position>
            <AltitudeMeters>1792.4000244140625</AltitudeMeters>
            <DistanceMeters>NAN</DistanceMeters>
          </Trackpoint>
          <Trackpoint>
            <Time>2018-12-30T12:34:24.000Z</Time>
            <Position>
              <LatitudeDegrees>40.7840757071971893310546875</LatitudeDegrees>
              <LongitudeDegrees>-4.07729054801166057586669921875</LongitudeDegrees>
            </Position>
            <AltitudeMeters>1792.4000244140625</AltitudeMeters>
            <DistanceMeters>NAN</DistanceMeters>
          </Trackpoint>
          <Trackpoint>
            <Time>2018-12-30T12:34:25.000Z</Time>
            <Position>
              <LatitudeDegrees>40.78407461754977703094482421875</LatitudeDegrees>
              <LongitudeDegrees>-4.077309072017669677734375</LongitudeDegrees>
            </Position>
            <AltitudeMeters>1792.199951171875</AltitudeMeters>
            <DistanceMeters>NAN</DistanceMeters>
          </Trackpoint>
          <Trackpoint>
            <Time>2018-12-30T12:34:26.000Z</Time>
            <Position>
              <LatitudeDegrees>40.78406891785562038421630859375</LatitudeDegrees>
              <LongitudeDegrees>-4.077326841652393341064453125</LongitudeDegrees>
            </Position>
            <AltitudeMeters>1792</AltitudeMeters>
            <DistanceMeters>NAN</DistanceMeters>
          </Trackpoint>
          <Trackpoint>
            <Time>2018-12-30T12:34:27.000Z</Time>
            <Position>
              <LatitudeDegrees>40.7840621285140514373779296875</LatitudeDegrees>
              <LongitudeDegrees>-4.07734218053519725799560546875</LongitudeDegrees>
            </Position>
            <AltitudeMeters>1792</AltitudeMeters>
            <DistanceMeters>NAN</DistanceMeters>
          </Trackpoint>
          <Trackpoint>
            <Time>2018-12-30T12:34:28.000Z</Time>
            <Position>
              <LatitudeDegrees>40.78405768610537052154541015625</LatitudeDegrees>
              <LongitudeDegrees>-4.0773575194180011749267578125</LongitudeDegrees>
            </Position>
            <AltitudeMeters>1792</AltitudeMeters>
            <DistanceMeters>NAN</DistanceMeters>
          </Trackpoint>
          <Trackpoint>
            <Time>2018-12-30T12:34:29.000Z</Time>
            <Position>
              <LatitudeDegrees>40.78405098058283329010009765625</LatitudeDegrees>
              <LongitudeDegrees>-4.0773712657392024993896484375</LongitudeDegrees>
            </Position>
            <AltitudeMeters>1792</AltitudeMeters>
            <DistanceMeters>NAN</DistanceMeters>
          </Trackpoint>
          <Trackpoint>
            <Time>2018-12-30T12:34:30.000Z</Time>
            <Position>
              <LatitudeDegrees>40.7840450294315814971923828125</LatitudeDegrees>
              <LongitudeDegrees>-4.0773830004036426544189453125</LongitudeDegrees>
            </Position>
            <AltitudeMeters>1791.800048828125</AltitudeMeters>
            <DistanceMeters>NAN</DistanceMeters>
          </Trackpoint>
          <Trackpoint>
            <Time>2018-12-30T12:34:31.000Z</Time>
            <Position>
              <LatitudeDegrees>40.784039832651615142822265625</LatitudeDegrees>
              <LongitudeDegrees>-4.07739615999162197113037109375</LongitudeDegrees>
            </Position>
            <AltitudeMeters>1791.5999755859375</AltitudeMeters>
            <DistanceMeters>NAN</DistanceMeters>
          </Trackpoint>
          <Trackpoint>
            <Time>2018-12-30T12:34:32.000Z</Time>
            <Position>
              <LatitudeDegrees>40.78403371386229991912841796875</LatitudeDegrees>
              <LongitudeDegrees>-4.07740772701799869537353515625</LongitudeDegrees>
            </Position>
            <AltitudeMeters>1791.5999755859375</AltitudeMeters>
            <DistanceMeters>NAN</DistanceMeters>
          </Trackpoint>
          <Trackpoint>
            <Time>2018-12-30T12:34:33.000Z</Time>
            <Position>
              <LatitudeDegrees>40.7840289361774921417236328125</LatitudeDegrees>
              <LongitudeDegrees>-4.0774182043969631195068359375</LongitudeDegrees>
            </Position>
            <AltitudeMeters>1791.4000244140625</AltitudeMeters>
            <DistanceMeters>NAN</DistanceMeters>
          </Trackpoint>
          <Trackpoint>
            <Time>2018-12-30T12:34:34.000Z</Time>
            <Position>
              <LatitudeDegrees>40.78402005136013031005859375</LatitudeDegrees>
              <LongitudeDegrees>-4.07742910087108612060546875</LongitudeDegrees>
            </Position>
            <AltitudeMeters>1791.4000244140625</AltitudeMeters>
            <DistanceMeters>NAN</DistanceMeters>
          </Trackpoint>
          <Trackpoint>
            <Time>2018-12-30T12:34:35.000Z</Time>
            <Position>
              <LatitudeDegrees>40.78400722704827785491943359375</LatitudeDegrees>
              <LongitudeDegrees>-4.07744544558227062225341796875</LongitudeDegrees>
            </Position>
            <AltitudeMeters>1791.4000244140625</AltitudeMeters>
            <DistanceMeters>NAN</DistanceMeters>
          </Trackpoint>
          <Trackpoint>
            <Time>2018-12-30T12:34:36.000Z</Time>
            <Position>
              <LatitudeDegrees>40.7840032875537872314453125</LatitudeDegrees>
              <LongitudeDegrees>-4.077460281550884246826171875</LongitudeDegrees>
            </Position>
            <AltitudeMeters>1791.199951171875</AltitudeMeters>
            <DistanceMeters>NAN</DistanceMeters>
          </Trackpoint>
          <Trackpoint>
            <Time>2018-12-30T12:34:37.000Z</Time>
            <Position>
              <LatitudeDegrees>40.7839937321841716766357421875</LatitudeDegrees>
              <LongitudeDegrees>-4.0774758718907833099365234375</LongitudeDegrees>
            </Position>
            <AltitudeMeters>1791</AltitudeMeters>
            <DistanceMeters>NAN</DistanceMeters>
          </Trackpoint>
          <Trackpoint>
            <Time>2018-12-30T12:34:38.000Z</Time>
            <Position>
              <LatitudeDegrees>40.78398325480520725250244140625</LatitudeDegrees>
              <LongitudeDegrees>-4.0774916298687458038330078125</LongitudeDegrees>
            </Position>
            <AltitudeMeters>1790.800048828125</AltitudeMeters>
            <DistanceMeters>NAN</DistanceMeters>
          </Trackpoint>
          <Trackpoint>
            <Time>2018-12-30T12:34:39.000Z</Time>
            <Position>
              <LatitudeDegrees>40.7839722745120525360107421875</LatitudeDegrees>
              <LongitudeDegrees>-4.07750948332250118255615234375</LongitudeDegrees>
            </Position>
            <AltitudeMeters>1790.5999755859375</AltitudeMeters>
            <DistanceMeters>NAN</DistanceMeters>
          </Trackpoint>
          <Trackpoint>
            <Time>2018-12-30T12:34:40.000Z</Time>
            <Position>
              <LatitudeDegrees>40.7839615456759929656982421875</LatitudeDegrees>
              <LongitudeDegrees>-4.07752725295722484588623046875</LongitudeDegrees>
            </Position>
            <AltitudeMeters>1790.4000244140625</AltitudeMeters>
            <DistanceMeters>NAN</DistanceMeters>
          </Trackpoint>
          <Trackpoint>
            <Time>2018-12-30T12:34:41.000Z</Time>
            <Position>
              <LatitudeDegrees>40.7839511521160602569580078125</LatitudeDegrees>
              <LongitudeDegrees>-4.0775435976684093475341796875</LongitudeDegrees>
            </Position>
            <AltitudeMeters>1790.199951171875</AltitudeMeters>
            <DistanceMeters>NAN</DistanceMeters>
          </Trackpoint>
          <Trackpoint>
            <Time>2018-12-30T12:34:42.000Z</Time>
            <Position>
              <LatitudeDegrees>40.78394385986030101776123046875</LatitudeDegrees>
              <LongitudeDegrees>-4.0775600261986255645751953125</LongitudeDegrees>
            </Position>
            <AltitudeMeters>1790</AltitudeMeters>
            <DistanceMeters>NAN</DistanceMeters>
          </Trackpoint>
          <Trackpoint>
            <Time>2018-12-30T12:34:43.000Z</Time>
            <Position>
              <LatitudeDegrees>40.78393422067165374755859375</LatitudeDegrees>
              <LongitudeDegrees>-4.07757687382400035858154296875</LongitudeDegrees>
            </Position>
            <AltitudeMeters>1789.800048828125</AltitudeMeters>
            <DistanceMeters>NAN</DistanceMeters>
          </Trackpoint>
          <Trackpoint>
            <Time>2018-12-30T12:34:44.000Z</Time>
            <Position>
              <LatitudeDegrees>40.78392391093075275421142578125</LatitudeDegrees>
              <LongitudeDegrees>-4.0775948949158191680908203125</LongitudeDegrees>
            </Position>
            <AltitudeMeters>1789.5999755859375</AltitudeMeters>
            <DistanceMeters>NAN</DistanceMeters>
          </Trackpoint>
          <Trackpoint>
            <Time>2018-12-30T12:34:45.000Z</Time>
            <Position>
              <LatitudeDegrees>40.78391217626631259918212890625</LatitudeDegrees>
              <LongitudeDegrees>-4.077608473598957061767578125</LongitudeDegrees>
            </Position>
            <AltitudeMeters>1789.4000244140625</AltitudeMeters>
            <DistanceMeters>NAN</DistanceMeters>
          </Trackpoint>
          <Trackpoint>
            <Time>2018-12-30T12:34:46.000Z</Time>
            <Position>
              <LatitudeDegrees>40.78389591537415981292724609375</LatitudeDegrees>
              <LongitudeDegrees>-4.07762263901531696319580078125</LongitudeDegrees>
            </Position>
            <AltitudeMeters>1789.4000244140625</AltitudeMeters>
            <DistanceMeters>NAN</DistanceMeters>
          </Trackpoint>
          <Trackpoint>
            <Time>2018-12-30T12:34:47.000Z</Time>
            <Position>
              <LatitudeDegrees>40.78388166613876819610595703125</LatitudeDegrees>
              <LongitudeDegrees>-4.077634625136852264404296875</LongitudeDegrees>
            </Position>
            <AltitudeMeters>1789</AltitudeMeters>
            <DistanceMeters>NAN</DistanceMeters>
          </Trackpoint>
          <Trackpoint>
            <Time>2018-12-30T12:34:48.000Z</Time>
            <Position>
              <LatitudeDegrees>40.7838690094649791717529296875</LatitudeDegrees>
              <LongitudeDegrees>-4.077649377286434173583984375</LongitudeDegrees>
            </Position>
            <AltitudeMeters>1788.800048828125</AltitudeMeters>
            <DistanceMeters>NAN</DistanceMeters>
          </Trackpoint>
          <Trackpoint>
            <Time>2018-12-30T12:34:49.000Z</Time>
            <Position>
              <LatitudeDegrees>40.78385735861957073211669921875</LatitudeDegrees>
              <LongitudeDegrees>-4.07765985466539859771728515625</LongitudeDegrees>
            </Position>
            <AltitudeMeters>1788.5999755859375</AltitudeMeters>
            <DistanceMeters>NAN</DistanceMeters>
          </Trackpoint>
          <Trackpoint>
            <Time>2018-12-30T12:34:50.000Z</Time>
            <Position>
              <LatitudeDegrees>40.783846713602542877197265625</LatitudeDegrees>
              <LongitudeDegrees>-4.07767175696790218353271484375</LongitudeDegrees>
            </Position>
            <AltitudeMeters>1788.199951171875</AltitudeMeters>
            <DistanceMeters>NAN</DistanceMeters>
          </Trackpoint>
          <Trackpoint>
            <Time>2018-12-30T12:34:51.000Z</Time>
            <Position>
              <LatitudeDegrees>40.7838388346135616302490234375</LatitudeDegrees>
              <LongitudeDegrees>-4.07768567092716693878173828125</LongitudeDegrees>
            </Position>
            <AltitudeMeters>1788.199951171875</AltitudeMeters>
            <DistanceMeters>NAN</DistanceMeters>
          </Trackpoint>
          <Trackpoint>
            <Time>2018-12-30T12:34:52.000Z</Time>
            <Position>
              <LatitudeDegrees>40.783832967281341552734375</LatitudeDegrees>
              <LongitudeDegrees>-4.077696315944194793701171875</LongitudeDegrees>
            </Position>
            <AltitudeMeters>1788</AltitudeMeters>
            <DistanceMeters>NAN</DistanceMeters>
          </Trackpoint>
          <Trackpoint>
            <Time>2018-12-30T12:34:53.000Z</Time>
            <Position>
              <LatitudeDegrees>40.78382902778685092926025390625</LatitudeDegrees>
              <LongitudeDegrees>-4.07770763151347637176513671875</LongitudeDegrees>
            </Position>
            <AltitudeMeters>1787.800048828125</AltitudeMeters>
            <DistanceMeters>NAN</DistanceMeters>
          </Trackpoint>
          <Trackpoint>
            <Time>2018-12-30T12:34:54.000Z</Time>
            <Position>
              <LatitudeDegrees>40.7838237471878528594970703125</LatitudeDegrees>
              <LongitudeDegrees>-4.07772104255855083465576171875</LongitudeDegrees>
            </Position>
            <AltitudeMeters>1787.800048828125</AltitudeMeters>
            <DistanceMeters>NAN</DistanceMeters>
          </Trackpoint>
          <Trackpoint>
            <Time>2018-12-30T12:34:55.000Z</Time>
            <Position>
              <LatitudeDegrees>40.78381486237049102783203125</LatitudeDegrees>
              <LongitudeDegrees>-4.07773562707006931304931640625</LongitudeDegrees>
            </Position>
            <AltitudeMeters>1787.800048828125</AltitudeMeters>
            <DistanceMeters>NAN</DistanceMeters>
          </Trackpoint>
          <Trackpoint>
            <Time>2018-12-30T12:34:56.000Z</Time>
            <Position>
              <LatitudeDegrees>40.78380388207733631134033203125</LatitudeDegrees>
              <LongitudeDegrees>-4.07774987630546092987060546875</LongitudeDegrees>
            </Position>
            <AltitudeMeters>1787.800048828125</AltitudeMeters>
            <DistanceMeters>NAN</DistanceMeters>
          </Trackpoint>
          <Trackpoint>
            <Time>2018-12-30T12:34:57.000Z</Time>
            <Position>
              <LatitudeDegrees>40.78379482962191104888916015625</LatitudeDegrees>
              <LongitudeDegrees>-4.07776261679828166961669921875</LongitudeDegrees>
            </Position>
            <AltitudeMeters>1787.800048828125</AltitudeMeters>
            <DistanceMeters>NAN</DistanceMeters>
          </Trackpoint>
          <Trackpoint>
            <Time>2018-12-30T12:34:58.000Z</Time>
            <Position>
              <LatitudeDegrees>40.7837838493287563323974609375</LatitudeDegrees>
              <LongitudeDegrees>-4.077776782214641571044921875</LongitudeDegrees>
            </Position>
            <AltitudeMeters>1787.5999755859375</AltitudeMeters>
            <DistanceMeters>NAN</DistanceMeters>
          </Trackpoint>
          <Trackpoint>
            <Time>2018-12-30T12:34:59.000Z</Time>
            <Position>
              <LatitudeDegrees>40.78377328813076019287109375</LatitudeDegrees>
              <LongitudeDegrees>-4.07779094763100147247314453125</LongitudeDegrees>
            </Position>
            <AltitudeMeters>1787.5999755859375</AltitudeMeters>
            <DistanceMeters>NAN</DistanceMeters>
          </Trackpoint>
          <Trackpoint>
            <Time>2018-12-30T12:35:00.000Z</Time>
            <Position>
              <LatitudeDegrees>40.7837607152760028839111328125</LatitudeDegrees>
              <LongitudeDegrees>-4.07780184410512447357177734375</LongitudeDegrees>
            </Position>
            <AltitudeMeters>1787.4000244140625</AltitudeMeters>
            <DistanceMeters>NAN</DistanceMeters>
          </Trackpoint>
          <Trackpoint>
            <Time>2018-12-30T12:35:01.000Z</Time>
            <Position>
              <LatitudeDegrees>40.783750154078006744384765625</LatitudeDegrees>
              <LongitudeDegrees>-4.077815003693103790283203125</LongitudeDegrees>
            </Position>
            <AltitudeMeters>1787.199951171875</AltitudeMeters>
            <DistanceMeters>NAN</DistanceMeters>
          </Trackpoint>
          <Trackpoint>
            <Time>2018-12-30T12:35:02.000Z</Time>
            <Position>
              <LatitudeDegrees>40.78374051488935947418212890625</LatitudeDegrees>
              <LongitudeDegrees>-4.077829085290431976318359375</LongitudeDegrees>
            </Position>
            <AltitudeMeters>1787</AltitudeMeters>
            <DistanceMeters>NAN</DistanceMeters>
          </Trackpoint>
          <Trackpoint>
            <Time>2018-12-30T12:35:03.000Z</Time>
            <Position>
              <LatitudeDegrees>40.7837305404245853424072265625</LatitudeDegrees>
              <LongitudeDegrees>-4.077840484678745269775390625</LongitudeDegrees>
            </Position>
            <AltitudeMeters>1786.800048828125</AltitudeMeters>
            <DistanceMeters>NAN</DistanceMeters>
          </Trackpoint>
          <Trackpoint>
            <Time>2018-12-30T12:35:04.000Z</Time>
            <Position>
              <LatitudeDegrees>40.7837208174169063568115234375</LatitudeDegrees>
              <LongitudeDegrees>-4.07785565592348575592041015625</LongitudeDegrees>
            </Position>
            <AltitudeMeters>1786.800048828125</AltitudeMeters>
            <DistanceMeters>NAN</DistanceMeters>
          </Trackpoint>
          <Trackpoint>
            <Time>2018-12-30T12:35:05.000Z</Time>
            <Position>
              <LatitudeDegrees>40.7837109267711639404296875</LatitudeDegrees>
              <LongitudeDegrees>-4.07787057571113109588623046875</LongitudeDegrees>
            </Position>
            <AltitudeMeters>1786.5999755859375</AltitudeMeters>
            <DistanceMeters>NAN</DistanceMeters>
          </Trackpoint>
          <Trackpoint>
            <Time>2018-12-30T12:35:06.000Z</Time>
            <Position>
              <LatitudeDegrees>40.78369961120188236236572265625</LatitudeDegrees>
              <LongitudeDegrees>-4.077880047261714935302734375</LongitudeDegrees>
            </Position>
            <AltitudeMeters>1786.5999755859375</AltitudeMeters>
            <DistanceMeters>NAN</DistanceMeters>
          </Trackpoint>
          <Trackpoint>
            <Time>2018-12-30T12:35:07.000Z</Time>
            <Position>
              <LatitudeDegrees>40.7836867868900299072265625</LatitudeDegrees>
              <LongitudeDegrees>-4.0778869204223155975341796875</LongitudeDegrees>
            </Position>
            <AltitudeMeters>1786.4000244140625</AltitudeMeters>
            <DistanceMeters>NAN</DistanceMeters>
          </Trackpoint>
          <Trackpoint>
            <Time>2018-12-30T12:35:08.000Z</Time>
            <Position>
              <LatitudeDegrees>40.7836748845875263214111328125</LatitudeDegrees>
              <LongitudeDegrees>-4.07789488323032855987548828125</LongitudeDegrees>
            </Position>
            <AltitudeMeters>1786.4000244140625</AltitudeMeters>
            <DistanceMeters>NAN</DistanceMeters>
          </Trackpoint>
          <Trackpoint>
            <Time>2018-12-30T12:35:09.000Z</Time>
            <Position>
              <LatitudeDegrees>40.78366197645664215087890625</LatitudeDegrees>
              <LongitudeDegrees>-4.07790225930511951446533203125</LongitudeDegrees>
            </Position>
            <AltitudeMeters>1786.4000244140625</AltitudeMeters>
            <DistanceMeters>NAN</DistanceMeters>
          </Trackpoint>
          <Trackpoint>
            <Time>2018-12-30T12:35:10.000Z</Time>
            <Position>
              <LatitudeDegrees>40.78364931978285312652587890625</LatitudeDegrees>
              <LongitudeDegrees>-4.0779124014079570770263671875</LongitudeDegrees>
            </Position>
            <AltitudeMeters>1786.4000244140625</AltitudeMeters>
            <DistanceMeters>NAN</DistanceMeters>
          </Trackpoint>
          <Trackpoint>
            <Time>2018-12-30T12:35:11.000Z</Time>
            <Position>
              <LatitudeDegrees>40.78363339416682720184326171875</LatitudeDegrees>
              <LongitudeDegrees>-4.07792489044368267059326171875</LongitudeDegrees>
            </Position>
            <AltitudeMeters>1786.199951171875</AltitudeMeters>
            <DistanceMeters>NAN</DistanceMeters>
          </Trackpoint>
          <Trackpoint>
            <Time>2018-12-30T12:35:12.000Z</Time>
            <Position>
              <LatitudeDegrees>40.7836182229220867156982421875</LatitudeDegrees>
              <LongitudeDegrees>-4.07793763093650341033935546875</LongitudeDegrees>
            </Position>
            <AltitudeMeters>1786</AltitudeMeters>
            <DistanceMeters>NAN</DistanceMeters>
          </Trackpoint>
          <Trackpoint>
            <Time>2018-12-30T12:35:13.000Z</Time>
            <Position>
              <LatitudeDegrees>40.783605314791202545166015625</LatitudeDegrees>
              <LongitudeDegrees>-4.07795037142932415008544921875</LongitudeDegrees>
            </Position>
            <AltitudeMeters>1785.800048828125</AltitudeMeters>
            <DistanceMeters>NAN</DistanceMeters>
          </Trackpoint>
          <Trackpoint>
            <Time>2018-12-30T12:35:14.000Z</Time>
            <Position>
              <LatitudeDegrees>40.78359131701290607452392578125</LatitudeDegrees>
              <LongitudeDegrees>-4.0779610164463520050048828125</LongitudeDegrees>
            </Position>
            <AltitudeMeters>1785.5999755859375</AltitudeMeters>
            <DistanceMeters>NAN</DistanceMeters>
          </Trackpoint>
          <Trackpoint>
            <Time>2018-12-30T12:35:15.000Z</Time>
            <Position>
              <LatitudeDegrees>40.78357958234846591949462890625</LatitudeDegrees>
              <LongitudeDegrees>-4.0779750980436801910400390625</LongitudeDegrees>
            </Position>
            <AltitudeMeters>1785.199951171875</AltitudeMeters>
            <DistanceMeters>NAN</DistanceMeters>
          </Trackpoint>
          <Trackpoint>
            <Time>2018-12-30T12:35:16.000Z</Time>
            <Position>
              <LatitudeDegrees>40.7835660874843597412109375</LatitudeDegrees>
              <LongitudeDegrees>-4.07798700034618377685546875</LongitudeDegrees>
            </Position>
            <AltitudeMeters>1785</AltitudeMeters>
            <DistanceMeters>NAN</DistanceMeters>
          </Trackpoint>
          <Trackpoint>
            <Time>2018-12-30T12:35:17.000Z</Time>
            <Position>
              <LatitudeDegrees>40.7835535146296024322509765625</LatitudeDegrees>
              <LongitudeDegrees>-4.07799496315419673919677734375</LongitudeDegrees>
            </Position>
            <AltitudeMeters>1785</AltitudeMeters>
            <DistanceMeters>NAN</DistanceMeters>
          </Trackpoint>
          <Trackpoint>
            <Time>2018-12-30T12:35:18.000Z</Time>
            <Position>
              <LatitudeDegrees>40.7835427857935428619384765625</LatitudeDegrees>
              <LongitudeDegrees>-4.0780019201338291168212890625</LongitudeDegrees>
            </Position>
            <AltitudeMeters>1784.800048828125</AltitudeMeters>
            <DistanceMeters>NAN</DistanceMeters>
          </Trackpoint>
          <Trackpoint>
            <Time>2018-12-30T12:35:19.000Z</Time>
            <Position>
              <LatitudeDegrees>40.78352895565330982208251953125</LatitudeDegrees>
              <LongitudeDegrees>-4.0780103020370006561279296875</LongitudeDegrees>
            </Position>
            <AltitudeMeters>1784.5999755859375</AltitudeMeters>
            <DistanceMeters>NAN</DistanceMeters>
          </Trackpoint>
          <Trackpoint>
            <Time>2018-12-30T12:35:20.000Z</Time>
            <Position>
              <LatitudeDegrees>40.78351303003728389739990234375</LatitudeDegrees>
              <LongitudeDegrees>-4.07801943831145763397216796875</LongitudeDegrees>
            </Position>
            <AltitudeMeters>1784.800048828125</AltitudeMeters>
            <DistanceMeters>NAN</DistanceMeters>
          </Trackpoint>
          <Trackpoint>
            <Time>2018-12-30T12:35:21.000Z</Time>
            <Position>
              <LatitudeDegrees>40.783504061400890350341796875</LatitudeDegrees>
              <LongitudeDegrees>-4.07803318463265895843505859375</LongitudeDegrees>
            </Position>
            <AltitudeMeters>1784.800048828125</AltitudeMeters>
            <DistanceMeters>NAN</DistanceMeters>
          </Trackpoint>
          <Trackpoint>
            <Time>2018-12-30T12:35:22.000Z</Time>
            <Position>
              <LatitudeDegrees>40.78349836170673370361328125</LatitudeDegrees>
              <LongitudeDegrees>-4.07804810442030429840087890625</LongitudeDegrees>
            </Position>
            <AltitudeMeters>1784.5999755859375</AltitudeMeters>
            <DistanceMeters>NAN</DistanceMeters>
          </Trackpoint>
          <Trackpoint>
            <Time>2018-12-30T12:35:23.000Z</Time>
            <Position>
              <LatitudeDegrees>40.7834928296506404876708984375</LatitudeDegrees>
              <LongitudeDegrees>-4.07806553877890110015869140625</LongitudeDegrees>
            </Position>
            <AltitudeMeters>1784.4000244140625</AltitudeMeters>
            <DistanceMeters>NAN</DistanceMeters>
          </Trackpoint>
          <Trackpoint>
            <Time>2018-12-30T12:35:24.000Z</Time>
            <Position>
              <LatitudeDegrees>40.78348319046199321746826171875</LatitudeDegrees>
              <LongitudeDegrees>-4.0780793689191341400146484375</LongitudeDegrees>
            </Position>
            <AltitudeMeters>1784.4000244140625</AltitudeMeters>
            <DistanceMeters>NAN</DistanceMeters>
          </Trackpoint>
          <Trackpoint>
            <Time>2018-12-30T12:35:25.000Z</Time>
            <Position>
              <LatitudeDegrees>40.783469863235950469970703125</LatitudeDegrees>
              <LongitudeDegrees>-4.07809169031679630279541015625</LongitudeDegrees>
            </Position>
            <AltitudeMeters>1784.199951171875</AltitudeMeters>
            <DistanceMeters>NAN</DistanceMeters>
          </Trackpoint>
          <Trackpoint>
            <Time>2018-12-30T12:35:26.000Z</Time>
            <Position>
              <LatitudeDegrees>40.7834539376199245452880859375</LatitudeDegrees>
              <LongitudeDegrees>-4.0781025029718875885009765625</LongitudeDegrees>
            </Position>
            <AltitudeMeters>1784</AltitudeMeters>
            <DistanceMeters>NAN</DistanceMeters>
          </Trackpoint>
          <Trackpoint>
            <Time>2018-12-30T12:35:27.000Z</Time>
            <Position>
              <LatitudeDegrees>40.7834422029554843902587890625</LatitudeDegrees>
              <LongitudeDegrees>-4.0781165845692157745361328125</LongitudeDegrees>
            </Position>
            <AltitudeMeters>1784</AltitudeMeters>
            <DistanceMeters>NAN</DistanceMeters>
          </Trackpoint>
          <Trackpoint>
            <Time>2018-12-30T12:35:28.000Z</Time>
            <Position>
              <LatitudeDegrees>40.783428959548473358154296875</LatitudeDegrees>
              <LongitudeDegrees>-4.07813259400427341461181640625</LongitudeDegrees>
            </Position>
            <AltitudeMeters>1783.800048828125</AltitudeMeters>
            <DistanceMeters>NAN</DistanceMeters>
          </Trackpoint>
          <Trackpoint>
            <Time>2018-12-30T12:35:29.000Z</Time>
            <Position>
              <LatitudeDegrees>40.78341253101825714111328125</LatitudeDegrees>
              <LongitudeDegrees>-4.07814768142998218536376953125</LongitudeDegrees>
            </Position>
            <AltitudeMeters>1783.5999755859375</AltitudeMeters>
            <DistanceMeters>NAN</DistanceMeters>
          </Trackpoint>
          <Trackpoint>
            <Time>2018-12-30T12:35:30.000Z</Time>
            <Position>
              <LatitudeDegrees>40.78339970670640468597412109375</LatitudeDegrees>
              <LongitudeDegrees>-4.078162014484405517578125</LongitudeDegrees>
            </Position>
            <AltitudeMeters>1783.5999755859375</AltitudeMeters>
            <DistanceMeters>NAN</DistanceMeters>
          </Trackpoint>
          <Trackpoint>
            <Time>2018-12-30T12:35:31.000Z</Time>
            <Position>
              <LatitudeDegrees>40.78339216299355030059814453125</LatitudeDegrees>
              <LongitudeDegrees>-4.078167043626308441162109375</LongitudeDegrees>
            </Position>
            <AltitudeMeters>1783.4000244140625</AltitudeMeters>
            <DistanceMeters>NAN</DistanceMeters>
          </Trackpoint>
          <Trackpoint>
            <Time>2018-12-30T12:35:32.000Z</Time>
            <Position>
              <LatitudeDegrees>40.78337808139622211456298828125</LatitudeDegrees>
              <LongitudeDegrees>-4.078175760805606842041015625</LongitudeDegrees>
            </Position>
            <AltitudeMeters>1783.4000244140625</AltitudeMeters>
            <DistanceMeters>NAN</DistanceMeters>
          </Trackpoint>
          <Trackpoint>
            <Time>2018-12-30T12:35:33.000Z</Time>
            <Position>
              <LatitudeDegrees>40.7833637483417987823486328125</LatitudeDegrees>
              <LongitudeDegrees>-4.07818414270877838134765625</LongitudeDegrees>
            </Position>
            <AltitudeMeters>1783.199951171875</AltitudeMeters>
            <DistanceMeters>NAN</DistanceMeters>
          </Trackpoint>
          <Trackpoint>
            <Time>2018-12-30T12:35:34.000Z</Time>
            <Position>
              <LatitudeDegrees>40.7833486609160900115966796875</LatitudeDegrees>
              <LongitudeDegrees>-4.07819218933582305908203125</LongitudeDegrees>
            </Position>
            <AltitudeMeters>1783</AltitudeMeters>
            <DistanceMeters>NAN</DistanceMeters>
          </Trackpoint>
          <Trackpoint>
            <Time>2018-12-30T12:35:35.000Z</Time>
            <Position>
              <LatitudeDegrees>40.78333432786166667938232421875</LatitudeDegrees>
              <LongitudeDegrees>-4.07820023596286773681640625</LongitudeDegrees>
            </Position>
            <AltitudeMeters>1782.800048828125</AltitudeMeters>
            <DistanceMeters>NAN</DistanceMeters>
          </Trackpoint>
          <Trackpoint>
            <Time>2018-12-30T12:35:36.000Z</Time>
            <Position>
              <LatitudeDegrees>40.7833188213407993316650390625</LatitudeDegrees>
              <LongitudeDegrees>-4.078209288418292999267578125</LongitudeDegrees>
            </Position>
            <AltitudeMeters>1782.800048828125</AltitudeMeters>
            <DistanceMeters>NAN</DistanceMeters>
          </Trackpoint>
          <Trackpoint>
            <Time>2018-12-30T12:35:37.000Z</Time>
            <Position>
              <LatitudeDegrees>40.7833044044673442840576171875</LatitudeDegrees>
              <LongitudeDegrees>-4.07822093926370143890380859375</LongitudeDegrees>
            </Position>
            <AltitudeMeters>1782.800048828125</AltitudeMeters>
            <DistanceMeters>NAN</DistanceMeters>
          </Trackpoint>
          <Trackpoint>
            <Time>2018-12-30T12:35:38.000Z</Time>
            <Position>
              <LatitudeDegrees>40.78329049050807952880859375</LatitudeDegrees>
              <LongitudeDegrees>-4.07823317684233188629150390625</LongitudeDegrees>
            </Position>
            <AltitudeMeters>1782.800048828125</AltitudeMeters>
            <DistanceMeters>NAN</DistanceMeters>
          </Trackpoint>
          <Trackpoint>
            <Time>2018-12-30T12:35:39.000Z</Time>
            <Position>
              <LatitudeDegrees>40.78327598981559276580810546875</LatitudeDegrees>
              <LongitudeDegrees>-4.0782446600496768951416015625</LongitudeDegrees>
            </Position>
            <AltitudeMeters>1782.5999755859375</AltitudeMeters>
            <DistanceMeters>NAN</DistanceMeters>
          </Trackpoint>
          <Trackpoint>
            <Time>2018-12-30T12:35:40.000Z</Time>
            <Position>
              <LatitudeDegrees>40.7832628302276134490966796875</LatitudeDegrees>
              <LongitudeDegrees>-4.07825379632413387298583984375</LongitudeDegrees>
            </Position>
            <AltitudeMeters>1782.4000244140625</AltitudeMeters>
            <DistanceMeters>NAN</DistanceMeters>
          </Trackpoint>
          <Trackpoint>
            <Time>2018-12-30T12:35:41.000Z</Time>
            <Position>
              <LatitudeDegrees>40.78324866481125354766845703125</LatitudeDegrees>
              <LongitudeDegrees>-4.0782625973224639892578125</LongitudeDegrees>
            </Position>
            <AltitudeMeters>1782.199951171875</AltitudeMeters>
            <DistanceMeters>NAN</DistanceMeters>
          </Trackpoint>
          <Trackpoint>
            <Time>2018-12-30T12:35:42.000Z</Time>
            <Position>
              <LatitudeDegrees>40.7832336612045764923095703125</LatitudeDegrees>
              <LongitudeDegrees>-4.07827265560626983642578125</LongitudeDegrees>
            </Position>
            <AltitudeMeters>1782</AltitudeMeters>
            <DistanceMeters>NAN</DistanceMeters>
          </Trackpoint>
          <Trackpoint>
            <Time>2018-12-30T12:35:43.000Z</Time>
            <Position>
              <LatitudeDegrees>40.78321714885532855987548828125</LatitudeDegrees>
              <LongitudeDegrees>-4.078282378613948822021484375</LongitudeDegrees>
            </Position>
            <AltitudeMeters>1782</AltitudeMeters>
            <DistanceMeters>NAN</DistanceMeters>
          </Trackpoint>
          <Trackpoint>
            <Time>2018-12-30T12:35:44.000Z</Time>
            <Position>
              <LatitudeDegrees>40.7832039892673492431640625</LatitudeDegrees>
              <LongitudeDegrees>-4.07828874886035919189453125</LongitudeDegrees>
            </Position>
            <AltitudeMeters>1782</AltitudeMeters>
            <DistanceMeters>NAN</DistanceMeters>
          </Trackpoint>
          <Trackpoint>
            <Time>2018-12-30T12:35:45.000Z</Time>
            <Position>
              <LatitudeDegrees>40.78318722546100616455078125</LatitudeDegrees>
              <LongitudeDegrees>-4.07829671166837215423583984375</LongitudeDegrees>
            </Position>
            <AltitudeMeters>1781.800048828125</AltitudeMeters>
            <DistanceMeters>NAN</DistanceMeters>
          </Trackpoint>
          <Trackpoint>
            <Time>2018-12-30T12:35:46.000Z</Time>
            <Position>
              <LatitudeDegrees>40.7831726409494876861572265625</LatitudeDegrees>
              <LongitudeDegrees>-4.07830618321895599365234375</LongitudeDegrees>
            </Position>
            <AltitudeMeters>1781.4000244140625</AltitudeMeters>
            <DistanceMeters>NAN</DistanceMeters>
          </Trackpoint>
          <Trackpoint>
            <Time>2018-12-30T12:35:47.000Z</Time>
            <Position>
              <LatitudeDegrees>40.78315931372344493865966796875</LatitudeDegrees>
              <LongitudeDegrees>-4.0783133916556835174560546875</LongitudeDegrees>
            </Position>
            <AltitudeMeters>1781.199951171875</AltitudeMeters>
            <DistanceMeters>NAN</DistanceMeters>
          </Trackpoint>
          <Trackpoint>
            <Time>2018-12-30T12:35:48.000Z</Time>
            <Position>
              <LatitudeDegrees>40.78314439393579959869384765625</LatitudeDegrees>
              <LongitudeDegrees>-4.07832018099725246429443359375</LongitudeDegrees>
            </Position>
            <AltitudeMeters>1781.199951171875</AltitudeMeters>
            <DistanceMeters>NAN</DistanceMeters>
          </Trackpoint>
          <Trackpoint>
            <Time>2018-12-30T12:35:49.000Z</Time>
            <Position>
              <LatitudeDegrees>40.783129893243312835693359375</LatitudeDegrees>
              <LongitudeDegrees>-4.0783264674246311187744140625</LongitudeDegrees>
            </Position>
            <AltitudeMeters>1781</AltitudeMeters>
            <DistanceMeters>NAN</DistanceMeters>
          </Trackpoint>
          <Trackpoint>
            <Time>2018-12-30T12:35:50.000Z</Time>
            <Position>
              <LatitudeDegrees>40.78311589546501636505126953125</LatitudeDegrees>
              <LongitudeDegrees>-4.0783358551561832427978515625</LongitudeDegrees>
            </Position>
            <AltitudeMeters>1781</AltitudeMeters>
            <DistanceMeters>NAN</DistanceMeters>
          </Trackpoint>
          <Trackpoint>
            <Time>2018-12-30T12:35:51.000Z</Time>
            <Position>
              <LatitudeDegrees>40.78310164622962474822998046875</LatitudeDegrees>
              <LongitudeDegrees>-4.07834566198289394378662109375</LongitudeDegrees>
            </Position>
            <AltitudeMeters>1780.800048828125</AltitudeMeters>
            <DistanceMeters>NAN</DistanceMeters>
          </Trackpoint>
          <Trackpoint>
            <Time>2018-12-30T12:35:52.000Z</Time>
            <Position>
              <LatitudeDegrees>40.78309066593647003173828125</LatitudeDegrees>
              <LongitudeDegrees>-4.07835287041962146759033203125</LongitudeDegrees>
            </Position>
            <AltitudeMeters>1780.800048828125</AltitudeMeters>
            <DistanceMeters>NAN</DistanceMeters>
          </Trackpoint>
          <Trackpoint>
            <Time>2018-12-30T12:35:53.000Z</Time>
            <Position>
              <LatitudeDegrees>40.78307549469172954559326171875</LatitudeDegrees>
              <LongitudeDegrees>-4.07836108468472957611083984375</LongitudeDegrees>
            </Position>
            <AltitudeMeters>1780.5999755859375</AltitudeMeters>
            <DistanceMeters>NAN</DistanceMeters>
          </Trackpoint>
          <Trackpoint>
            <Time>2018-12-30T12:35:54.000Z</Time>
            <Position>
              <LatitudeDegrees>40.78306652605533599853515625</LatitudeDegrees>
              <LongitudeDegrees>-4.07836854457855224609375</LongitudeDegrees>
            </Position>
            <AltitudeMeters>1780.4000244140625</AltitudeMeters>
            <DistanceMeters>NAN</DistanceMeters>
          </Trackpoint>
          <Trackpoint>
            <Time>2018-12-30T12:35:55.000Z</Time>
            <Position>
              <LatitudeDegrees>40.7830536179244518280029296875</LatitudeDegrees>
              <LongitudeDegrees>-4.07838036306202411651611328125</LongitudeDegrees>
            </Position>
            <AltitudeMeters>1780.199951171875</AltitudeMeters>
            <DistanceMeters>NAN</DistanceMeters>
          </Trackpoint>
          <Trackpoint>
            <Time>2018-12-30T12:35:56.000Z</Time>
            <Position>
              <LatitudeDegrees>40.783042050898075103759765625</LatitudeDegrees>
              <LongitudeDegrees>-4.0783886611461639404296875</LongitudeDegrees>
            </Position>
            <AltitudeMeters>1780</AltitudeMeters>
            <DistanceMeters>NAN</DistanceMeters>
          </Trackpoint>
          <Trackpoint>
            <Time>2018-12-30T12:35:57.000Z</Time>
            <Position>
              <LatitudeDegrees>40.78303040005266666412353515625</LatitudeDegrees>
              <LongitudeDegrees>-4.07839645631611347198486328125</LongitudeDegrees>
            </Position>
            <AltitudeMeters>1780</AltitudeMeters>
            <DistanceMeters>NAN</DistanceMeters>
          </Trackpoint>
          <Trackpoint>
            <Time>2018-12-30T12:35:58.000Z</Time>
            <Position>
              <LatitudeDegrees>40.78301648609340190887451171875</LatitudeDegrees>
              <LongitudeDegrees>-4.0784042514860630035400390625</LongitudeDegrees>
            </Position>
            <AltitudeMeters>1779.800048828125</AltitudeMeters>
            <DistanceMeters>NAN</DistanceMeters>
          </Trackpoint>
          <Trackpoint>
            <Time>2018-12-30T12:35:59.000Z</Time>
            <Position>
              <LatitudeDegrees>40.78300349414348602294921875</LatitudeDegrees>
              <LongitudeDegrees>-4.078410454094409942626953125</LongitudeDegrees>
            </Position>
            <AltitudeMeters>1779.5999755859375</AltitudeMeters>
            <DistanceMeters>NAN</DistanceMeters>
          </Trackpoint>
          <Trackpoint>
            <Time>2018-12-30T12:36:00.000Z</Time>
            <Position>
              <LatitudeDegrees>40.78298731707036495208740234375</LatitudeDegrees>
              <LongitudeDegrees>-4.07841640524566173553466796875</LongitudeDegrees>
            </Position>
            <AltitudeMeters>1779.4000244140625</AltitudeMeters>
            <DistanceMeters>NAN</DistanceMeters>
          </Trackpoint>
          <Trackpoint>
            <Time>2018-12-30T12:36:01.000Z</Time>
            <Position>
              <LatitudeDegrees>40.78297357074916362762451171875</LatitudeDegrees>
              <LongitudeDegrees>-4.07842227257788181304931640625</LongitudeDegrees>
            </Position>
            <AltitudeMeters>1779</AltitudeMeters>
            <DistanceMeters>NAN</DistanceMeters>
          </Trackpoint>
          <Trackpoint>
            <Time>2018-12-30T12:36:02.000Z</Time>
            <Position>
              <LatitudeDegrees>40.782962255179882049560546875</LatitudeDegrees>
              <LongitudeDegrees>-4.0784280560910701751708984375</LongitudeDegrees>
            </Position>
            <AltitudeMeters>1778.800048828125</AltitudeMeters>
            <DistanceMeters>NAN</DistanceMeters>
          </Trackpoint>
          <Trackpoint>
            <Time>2018-12-30T12:36:03.000Z</Time>
            <Position>
              <LatitudeDegrees>40.7829470001161098480224609375</LatitudeDegrees>
              <LongitudeDegrees>-4.07843652181327342987060546875</LongitudeDegrees>
            </Position>
            <AltitudeMeters>1778.5999755859375</AltitudeMeters>
            <DistanceMeters>NAN</DistanceMeters>
          </Trackpoint>
          <Trackpoint>
            <Time>2018-12-30T12:36:04.000Z</Time>
            <Position>
              <LatitudeDegrees>40.7829372771084308624267578125</LatitudeDegrees>
              <LongitudeDegrees>-4.078440964221954345703125</LongitudeDegrees>
            </Position>
            <AltitudeMeters>1778.4000244140625</AltitudeMeters>
            <DistanceMeters>NAN</DistanceMeters>
          </Trackpoint>
          <Trackpoint>
            <Time>2018-12-30T12:36:05.000Z</Time>
            <Position>
              <LatitudeDegrees>40.7829238660633563995361328125</LatitudeDegrees>
              <LongitudeDegrees>-4.078446663916110992431640625</LongitudeDegrees>
            </Position>
            <AltitudeMeters>1778.4000244140625</AltitudeMeters>
            <DistanceMeters>NAN</DistanceMeters>
          </Trackpoint>
          <Trackpoint>
            <Time>2018-12-30T12:36:06.000Z</Time>
            <Position>
              <LatitudeDegrees>40.7829077728092670440673828125</LatitudeDegrees>
              <LongitudeDegrees>-4.07845127396285533905029296875</LongitudeDegrees>
            </Position>
            <AltitudeMeters>1778.4000244140625</AltitudeMeters>
            <DistanceMeters>NAN</DistanceMeters>
          </Trackpoint>
          <Trackpoint>
            <Time>2018-12-30T12:36:07.000Z</Time>
            <Position>
              <LatitudeDegrees>40.78289243392646312713623046875</LatitudeDegrees>
              <LongitudeDegrees>-4.07845093868672847747802734375</LongitudeDegrees>
            </Position>
            <AltitudeMeters>1778.199951171875</AltitudeMeters>
            <DistanceMeters>NAN</DistanceMeters>
          </Trackpoint>
          <Trackpoint>
            <Time>2018-12-30T12:36:08.000Z</Time>
            <Position>
              <LatitudeDegrees>40.78287717886269092559814453125</LatitudeDegrees>
              <LongitudeDegrees>-4.0784521959722042083740234375</LongitudeDegrees>
            </Position>
            <AltitudeMeters>1778</AltitudeMeters>
            <DistanceMeters>NAN</DistanceMeters>
          </Trackpoint>
          <Trackpoint>
            <Time>2018-12-30T12:36:09.000Z</Time>
            <Position>
              <LatitudeDegrees>40.782862007617950439453125</LatitudeDegrees>
              <LongitudeDegrees>-4.07845412380993366241455078125</LongitudeDegrees>
            </Position>
            <AltitudeMeters>1777.800048828125</AltitudeMeters>
            <DistanceMeters>NAN</DistanceMeters>
          </Trackpoint>
          <Trackpoint>
            <Time>2018-12-30T12:36:10.000Z</Time>
            <Position>
              <LatitudeDegrees>40.78285060822963714599609375</LatitudeDegrees>
              <LongitudeDegrees>-4.07845370471477508544921875</LongitudeDegrees>
            </Position>
            <AltitudeMeters>1777.5999755859375</AltitudeMeters>
            <DistanceMeters>NAN</DistanceMeters>
          </Trackpoint>
          <Trackpoint>
            <Time>2018-12-30T12:36:11.000Z</Time>
            <Position>
              <LatitudeDegrees>40.7828393764793872833251953125</LatitudeDegrees>
              <LongitudeDegrees>-4.07845437526702880859375</LongitudeDegrees>
            </Position>
            <AltitudeMeters>1777.5999755859375</AltitudeMeters>
            <DistanceMeters>NAN</DistanceMeters>
          </Trackpoint>
          <Trackpoint>
            <Time>2018-12-30T12:36:12.000Z</Time>
            <Position>
              <LatitudeDegrees>40.78282722271978855133056640625</LatitudeDegrees>
              <LongitudeDegrees>-4.078454039990901947021484375</LongitudeDegrees>
            </Position>
            <AltitudeMeters>1777.4000244140625</AltitudeMeters>
            <DistanceMeters>NAN</DistanceMeters>
          </Trackpoint>
          <Trackpoint>
            <Time>2018-12-30T12:36:13.000Z</Time>
            <Position>
              <LatitudeDegrees>40.7828172482550144195556640625</LatitudeDegrees>
              <LongitudeDegrees>-4.0784572251141071319580078125</LongitudeDegrees>
            </Position>
            <AltitudeMeters>1777.199951171875</AltitudeMeters>
            <DistanceMeters>NAN</DistanceMeters>
          </Trackpoint>
          <Trackpoint>
            <Time>2018-12-30T12:36:14.000Z</Time>
            <Position>
              <LatitudeDegrees>40.7828028313815593719482421875</LatitudeDegrees>
              <LongitudeDegrees>-4.07846133224666118621826171875</LongitudeDegrees>
            </Position>
            <AltitudeMeters>1777.199951171875</AltitudeMeters>
            <DistanceMeters>NAN</DistanceMeters>
          </Trackpoint>
          <Trackpoint>
            <Time>2018-12-30T12:36:15.000Z</Time>
            <Position>
              <LatitudeDegrees>40.78278916887938976287841796875</LatitudeDegrees>
              <LongitudeDegrees>-4.0784619189798831939697265625</LongitudeDegrees>
            </Position>
            <AltitudeMeters>1777</AltitudeMeters>
            <DistanceMeters>NAN</DistanceMeters>
          </Trackpoint>
          <Trackpoint>
            <Time>2018-12-30T12:36:16.000Z</Time>
            <Position>
              <LatitudeDegrees>40.78277491964399814605712890625</LatitudeDegrees>
              <LongitudeDegrees>-4.0784659422934055328369140625</LongitudeDegrees>
            </Position>
            <AltitudeMeters>1777</AltitudeMeters>
            <DistanceMeters>NAN</DistanceMeters>
          </Trackpoint>
          <Trackpoint>
            <Time>2018-12-30T12:36:17.000Z</Time>
            <Position>
              <LatitudeDegrees>40.7827646099030971527099609375</LatitudeDegrees>
              <LongitudeDegrees>-4.0784692950546741485595703125</LongitudeDegrees>
            </Position>
            <AltitudeMeters>1776.800048828125</AltitudeMeters>
            <DistanceMeters>NAN</DistanceMeters>
          </Trackpoint>
          <Trackpoint>
            <Time>2018-12-30T12:36:18.000Z</Time>
            <Position>
              <LatitudeDegrees>40.78275044448673725128173828125</LatitudeDegrees>
              <LongitudeDegrees>-4.0784723125398159027099609375</LongitudeDegrees>
            </Position>
            <AltitudeMeters>1776.800048828125</AltitudeMeters>
            <DistanceMeters>NAN</DistanceMeters>
          </Trackpoint>
          <Trackpoint>
            <Time>2018-12-30T12:36:19.000Z</Time>
            <Position>
              <LatitudeDegrees>40.78273686580359935760498046875</LatitudeDegrees>
              <LongitudeDegrees>-4.07846854068338871002197265625</LongitudeDegrees>
            </Position>
            <AltitudeMeters>1776.5999755859375</AltitudeMeters>
            <DistanceMeters>NAN</DistanceMeters>
          </Trackpoint>
          <Trackpoint>
            <Time>2018-12-30T12:36:20.000Z</Time>
            <Position>
              <LatitudeDegrees>40.7827237062156200408935546875</LatitudeDegrees>
              <LongitudeDegrees>-4.078462086617946624755859375</LongitudeDegrees>
            </Position>
            <AltitudeMeters>1776.5999755859375</AltitudeMeters>
            <DistanceMeters>NAN</DistanceMeters>
          </Trackpoint>
          <Trackpoint>
            <Time>2018-12-30T12:36:21.000Z</Time>
            <Position>
              <LatitudeDegrees>40.78271138481795787811279296875</LatitudeDegrees>
              <LongitudeDegrees>-4.07845814712345600128173828125</LongitudeDegrees>
            </Position>
            <AltitudeMeters>1776.4000244140625</AltitudeMeters>
            <DistanceMeters>NAN</DistanceMeters>
          </Trackpoint>
          <Trackpoint>
            <Time>2018-12-30T12:36:22.000Z</Time>
            <Position>
              <LatitudeDegrees>40.78270618803799152374267578125</LatitudeDegrees>
              <LongitudeDegrees>-4.07845378853380680084228515625</LongitudeDegrees>
            </Position>
            <AltitudeMeters>1776.4000244140625</AltitudeMeters>
            <DistanceMeters>NAN</DistanceMeters>
          </Trackpoint>
          <Trackpoint>
            <Time>2018-12-30T12:36:23.000Z</Time>
            <Position>
              <LatitudeDegrees>40.7826925255358219146728515625</LatitudeDegrees>
              <LongitudeDegrees>-4.07845814712345600128173828125</LongitudeDegrees>
            </Position>
            <AltitudeMeters>1776.4000244140625</AltitudeMeters>
            <DistanceMeters>NAN</DistanceMeters>
          </Trackpoint>
          <Trackpoint>
            <Time>2018-12-30T12:36:24.000Z</Time>
            <Position>
              <LatitudeDegrees>40.78267760574817657470703125</LatitudeDegrees>
              <LongitudeDegrees>-4.078465439379215240478515625</LongitudeDegrees>
            </Position>
            <AltitudeMeters>1776.4000244140625</AltitudeMeters>
            <DistanceMeters>NAN</DistanceMeters>
          </Trackpoint>
          <Trackpoint>
            <Time>2018-12-30T12:36:25.000Z</Time>
            <Position>
              <LatitudeDegrees>40.782663859426975250244140625</LatitudeDegrees>
              <LongitudeDegrees>-4.07846837304532527923583984375</LongitudeDegrees>
            </Position>
            <AltitudeMeters>1776.199951171875</AltitudeMeters>
            <DistanceMeters>NAN</DistanceMeters>
          </Trackpoint>
          <Trackpoint>
            <Time>2018-12-30T12:36:26.000Z</Time>
            <Position>
              <LatitudeDegrees>40.78265572898089885711669921875</LatitudeDegrees>
              <LongitudeDegrees>-4.07846401445567607879638671875</LongitudeDegrees>
            </Position>
            <AltitudeMeters>1776</AltitudeMeters>
            <DistanceMeters>NAN</DistanceMeters>
          </Trackpoint>
          <Trackpoint>
            <Time>2018-12-30T12:36:27.000Z</Time>
            <Position>
              <LatitudeDegrees>40.782643072307109832763671875</LatitudeDegrees>
              <LongitudeDegrees>-4.07846443355083465576171875</LongitudeDegrees>
            </Position>
            <AltitudeMeters>1776</AltitudeMeters>
            <DistanceMeters>NAN</DistanceMeters>
          </Trackpoint>
          <Trackpoint>
            <Time>2018-12-30T12:36:28.000Z</Time>
            <Position>
              <LatitudeDegrees>40.782635696232318878173828125</LatitudeDegrees>
              <LongitudeDegrees>-4.07846418209373950958251953125</LongitudeDegrees>
            </Position>
            <AltitudeMeters>1775.800048828125</AltitudeMeters>
            <DistanceMeters>NAN</DistanceMeters>
          </Trackpoint>
          <Trackpoint>
            <Time>2018-12-30T12:36:29.000Z</Time>
            <Position>
              <LatitudeDegrees>40.7826246321201324462890625</LatitudeDegrees>
              <LongitudeDegrees>-4.0784646011888980865478515625</LongitudeDegrees>
            </Position>
            <AltitudeMeters>1775.800048828125</AltitudeMeters>
            <DistanceMeters>NAN</DistanceMeters>
          </Trackpoint>
          <Trackpoint>
            <Time>2018-12-30T12:36:30.000Z</Time>
            <Position>
              <LatitudeDegrees>40.7826117239892482757568359375</LatitudeDegrees>
              <LongitudeDegrees>-4.0784666128456592559814453125</LongitudeDegrees>
            </Position>
            <AltitudeMeters>1775.5999755859375</AltitudeMeters>
            <DistanceMeters>NAN</DistanceMeters>
          </Trackpoint>
          <Trackpoint>
            <Time>2018-12-30T12:36:31.000Z</Time>
            <Position>
              <LatitudeDegrees>40.782598145306110382080078125</LatitudeDegrees>
              <LongitudeDegrees>-4.078466780483722686767578125</LongitudeDegrees>
            </Position>
            <AltitudeMeters>1775.4000244140625</AltitudeMeters>
            <DistanceMeters>NAN</DistanceMeters>
          </Trackpoint>
          <Trackpoint>
            <Time>2018-12-30T12:36:32.000Z</Time>
            <Position>
              <LatitudeDegrees>40.7825825549662113189697265625</LatitudeDegrees>
              <LongitudeDegrees>-4.07846711575984954833984375</LongitudeDegrees>
            </Position>
            <AltitudeMeters>1775.4000244140625</AltitudeMeters>
            <DistanceMeters>NAN</DistanceMeters>
          </Trackpoint>
          <Trackpoint>
            <Time>2018-12-30T12:36:33.000Z</Time>
            <Position>
              <LatitudeDegrees>40.78256889246404170989990234375</LatitudeDegrees>
              <LongitudeDegrees>-4.07846904359757900238037109375</LongitudeDegrees>
            </Position>
            <AltitudeMeters>1775.4000244140625</AltitudeMeters>
            <DistanceMeters>NAN</DistanceMeters>
          </Trackpoint>
          <Trackpoint>
            <Time>2018-12-30T12:36:34.000Z</Time>
            <Position>
              <LatitudeDegrees>40.782557912170886993408203125</LatitudeDegrees>
              <LongitudeDegrees>-4.078471474349498748779296875</LongitudeDegrees>
            </Position>
            <AltitudeMeters>1775.4000244140625</AltitudeMeters>
            <DistanceMeters>NAN</DistanceMeters>
          </Trackpoint>
          <Trackpoint>
            <Time>2018-12-30T12:36:35.000Z</Time>
            <Position>
              <LatitudeDegrees>40.78254609368741512298583984375</LatitudeDegrees>
              <LongitudeDegrees>-4.07847340218722820281982421875</LongitudeDegrees>
            </Position>
            <AltitudeMeters>1775.4000244140625</AltitudeMeters>
            <DistanceMeters>NAN</DistanceMeters>
          </Trackpoint>
          <Trackpoint>
            <Time>2018-12-30T12:36:36.000Z</Time>
            <Position>
              <LatitudeDegrees>40.78253586776554584503173828125</LatitudeDegrees>
              <LongitudeDegrees>-4.07847323454916477203369140625</LongitudeDegrees>
            </Position>
            <AltitudeMeters>1775.199951171875</AltitudeMeters>
            <DistanceMeters>NAN</DistanceMeters>
          </Trackpoint>
          <Trackpoint>
            <Time>2018-12-30T12:36:37.000Z</Time>
            <Position>
              <LatitudeDegrees>40.78252379782497882843017578125</LatitudeDegrees>
              <LongitudeDegrees>-4.07847524620592594146728515625</LongitudeDegrees>
            </Position>
            <AltitudeMeters>1775.199951171875</AltitudeMeters>
            <DistanceMeters>NAN</DistanceMeters>
          </Trackpoint>
          <Trackpoint>
            <Time>2018-12-30T12:36:38.000Z</Time>
            <Position>
              <LatitudeDegrees>40.782507956027984619140625</LatitudeDegrees>
              <LongitudeDegrees>-4.07848061062395572662353515625</LongitudeDegrees>
            </Position>
            <AltitudeMeters>1775.199951171875</AltitudeMeters>
            <DistanceMeters>NAN</DistanceMeters>
          </Trackpoint>
          <Trackpoint>
            <Time>2018-12-30T12:36:39.000Z</Time>
            <Position>
              <LatitudeDegrees>40.78249655663967132568359375</LatitudeDegrees>
              <LongitudeDegrees>-4.07848983071744441986083984375</LongitudeDegrees>
            </Position>
            <AltitudeMeters>1775.199951171875</AltitudeMeters>
            <DistanceMeters>NAN</DistanceMeters>
          </Trackpoint>
          <Trackpoint>
            <Time>2018-12-30T12:36:40.000Z</Time>
            <Position>
              <LatitudeDegrees>40.78248406760394573211669921875</LatitudeDegrees>
              <LongitudeDegrees>-4.07849905081093311309814453125</LongitudeDegrees>
            </Position>
            <AltitudeMeters>1775.4000244140625</AltitudeMeters>
            <DistanceMeters>NAN</DistanceMeters>
          </Trackpoint>
          <Trackpoint>
            <Time>2018-12-30T12:36:41.000Z</Time>
            <Position>
              <LatitudeDegrees>40.7824712432920932769775390625</LatitudeDegrees>
              <LongitudeDegrees>-4.0785038284957408905029296875</LongitudeDegrees>
            </Position>
            <AltitudeMeters>1775.5999755859375</AltitudeMeters>
            <DistanceMeters>NAN</DistanceMeters>
          </Trackpoint>
          <Trackpoint>
            <Time>2018-12-30T12:36:42.000Z</Time>
            <Position>
              <LatitudeDegrees>40.7824608497321605682373046875</LatitudeDegrees>
              <LongitudeDegrees>-4.07850877381861209869384765625</LongitudeDegrees>
            </Position>
            <AltitudeMeters>1775.800048828125</AltitudeMeters>
            <DistanceMeters>NAN</DistanceMeters>
          </Trackpoint>
          <Trackpoint>
            <Time>2018-12-30T12:36:43.000Z</Time>
            <Position>
              <LatitudeDegrees>40.78244986943900585174560546875</LatitudeDegrees>
              <LongitudeDegrees>-4.07851346768438816070556640625</LongitudeDegrees>
            </Position>
            <AltitudeMeters>1776</AltitudeMeters>
            <DistanceMeters>NAN</DistanceMeters>
          </Trackpoint>
          <Trackpoint>
            <Time>2018-12-30T12:36:44.000Z</Time>
            <Position>
              <LatitudeDegrees>40.78243930824100971221923828125</LatitudeDegrees>
              <LongitudeDegrees>-4.07851732335984706878662109375</LongitudeDegrees>
            </Position>
            <AltitudeMeters>1776.199951171875</AltitudeMeters>
            <DistanceMeters>NAN</DistanceMeters>
          </Trackpoint>
          <Trackpoint>
            <Time>2018-12-30T12:36:45.000Z</Time>
            <Position>
              <LatitudeDegrees>40.78242857940495014190673828125</LatitudeDegrees>
              <LongitudeDegrees>-4.0785205923020839691162109375</LongitudeDegrees>
            </Position>
            <AltitudeMeters>1776.199951171875</AltitudeMeters>
            <DistanceMeters>NAN</DistanceMeters>
          </Trackpoint>
          <Trackpoint>
            <Time>2018-12-30T12:36:46.000Z</Time>
            <Position>
              <LatitudeDegrees>40.7824152521789073944091796875</LatitudeDegrees>
              <LongitudeDegrees>-4.07852419652044773101806640625</LongitudeDegrees>
            </Position>
            <AltitudeMeters>1776.199951171875</AltitudeMeters>
            <DistanceMeters>NAN</DistanceMeters>
          </Trackpoint>
          <Trackpoint>
            <Time>2018-12-30T12:36:47.000Z</Time>
            <Position>
              <LatitudeDegrees>40.78240326605737209320068359375</LatitudeDegrees>
              <LongitudeDegrees>-4.0785272978246212005615234375</LongitudeDegrees>
            </Position>
            <AltitudeMeters>1776.199951171875</AltitudeMeters>
            <DistanceMeters>NAN</DistanceMeters>
          </Trackpoint>
          <Trackpoint>
            <Time>2018-12-30T12:36:48.000Z</Time>
            <Position>
              <LatitudeDegrees>40.78239195048809051513671875</LatitudeDegrees>
              <LongitudeDegrees>-4.07853324897587299346923828125</LongitudeDegrees>
            </Position>
            <AltitudeMeters>1776</AltitudeMeters>
            <DistanceMeters>NAN</DistanceMeters>
          </Trackpoint>
          <Trackpoint>
            <Time>2018-12-30T12:36:49.000Z</Time>
            <Position>
              <LatitudeDegrees>40.78237828798592090606689453125</LatitudeDegrees>
              <LongitudeDegrees>-4.07853811047971248626708984375</LongitudeDegrees>
            </Position>
            <AltitudeMeters>1775.800048828125</AltitudeMeters>
            <DistanceMeters>NAN</DistanceMeters>
          </Trackpoint>
          <Trackpoint>
            <Time>2018-12-30T12:36:50.000Z</Time>
            <Position>
              <LatitudeDegrees>40.78236554749310016632080078125</LatitudeDegrees>
              <LongitudeDegrees>-4.078542888164520263671875</LongitudeDegrees>
            </Position>
            <AltitudeMeters>1775.5999755859375</AltitudeMeters>
            <DistanceMeters>NAN</DistanceMeters>
          </Trackpoint>
          <Trackpoint>
            <Time>2018-12-30T12:36:51.000Z</Time>
            <Position>
              <LatitudeDegrees>40.78235213644802570343017578125</LatitudeDegrees>
              <LongitudeDegrees>-4.07854867167770862579345703125</LongitudeDegrees>
            </Position>
            <AltitudeMeters>1775.4000244140625</AltitudeMeters>
            <DistanceMeters>NAN</DistanceMeters>
          </Trackpoint>
          <Trackpoint>
            <Time>2018-12-30T12:36:52.000Z</Time>
            <Position>
              <LatitudeDegrees>40.78233989886939525604248046875</LatitudeDegrees>
              <LongitudeDegrees>-4.0785554610192775726318359375</LongitudeDegrees>
            </Position>
            <AltitudeMeters>1775.4000244140625</AltitudeMeters>
            <DistanceMeters>NAN</DistanceMeters>
          </Trackpoint>
          <Trackpoint>
            <Time>2018-12-30T12:36:53.000Z</Time>
            <Position>
              <LatitudeDegrees>40.7823260687291622161865234375</LatitudeDegrees>
              <LongitudeDegrees>-4.07856342382729053497314453125</LongitudeDegrees>
            </Position>
            <AltitudeMeters>1775.4000244140625</AltitudeMeters>
            <DistanceMeters>NAN</DistanceMeters>
          </Trackpoint>
          <Trackpoint>
            <Time>2018-12-30T12:36:54.000Z</Time>
            <Position>
              <LatitudeDegrees>40.78231190331280231475830078125</LatitudeDegrees>
              <LongitudeDegrees>-4.0785708837211132049560546875</LongitudeDegrees>
            </Position>
            <AltitudeMeters>1775.199951171875</AltitudeMeters>
            <DistanceMeters>NAN</DistanceMeters>
          </Trackpoint>
          <Trackpoint>
            <Time>2018-12-30T12:36:55.000Z</Time>
            <Position>
              <LatitudeDegrees>40.78229815699160099029541015625</LatitudeDegrees>
              <LongitudeDegrees>-4.07857683487236499786376953125</LongitudeDegrees>
            </Position>
            <AltitudeMeters>1775.199951171875</AltitudeMeters>
            <DistanceMeters>NAN</DistanceMeters>
          </Trackpoint>
          <Trackpoint>
            <Time>2018-12-30T12:36:56.000Z</Time>
            <Position>
              <LatitudeDegrees>40.782283656299114227294921875</LatitudeDegrees>
              <LongitudeDegrees>-4.078582786023616790771484375</LongitudeDegrees>
            </Position>
            <AltitudeMeters>1775.4000244140625</AltitudeMeters>
            <DistanceMeters>NAN</DistanceMeters>
          </Trackpoint>
          <Trackpoint>
            <Time>2018-12-30T12:36:57.000Z</Time>
            <Position>
              <LatitudeDegrees>40.78227116726338863372802734375</LatitudeDegrees>
              <LongitudeDegrees>-4.07858655788004398345947265625</LongitudeDegrees>
            </Position>
            <AltitudeMeters>1775.4000244140625</AltitudeMeters>
            <DistanceMeters>NAN</DistanceMeters>
          </Trackpoint>
          <Trackpoint>
            <Time>2018-12-30T12:36:58.000Z</Time>
            <Position>
              <LatitudeDegrees>40.78225624747574329376220703125</LatitudeDegrees>
              <LongitudeDegrees>-4.07859141938388347625732421875</LongitudeDegrees>
            </Position>
            <AltitudeMeters>1775.4000244140625</AltitudeMeters>
            <DistanceMeters>NAN</DistanceMeters>
          </Trackpoint>
          <Trackpoint>
            <Time>2018-12-30T12:36:59.000Z</Time>
            <Position>
              <LatitudeDegrees>40.78224367462098598480224609375</LatitudeDegrees>
              <LongitudeDegrees>-4.078596532344818115234375</LongitudeDegrees>
            </Position>
            <AltitudeMeters>1775.199951171875</AltitudeMeters>
            <DistanceMeters>NAN</DistanceMeters>
          </Trackpoint>
          <Trackpoint>
            <Time>2018-12-30T12:37:00.000Z</Time>
            <Position>
              <LatitudeDegrees>40.78223101794719696044921875</LatitudeDegrees>
              <LongitudeDegrees>-4.0785987116396427154541015625</LongitudeDegrees>
            </Position>
            <AltitudeMeters>1774.5999755859375</AltitudeMeters>
            <DistanceMeters>NAN</DistanceMeters>
          </Trackpoint>
          <Trackpoint>
            <Time>2018-12-30T12:37:01.000Z</Time>
            <Position>
              <LatitudeDegrees>40.7822177745401859283447265625</LatitudeDegrees>
              <LongitudeDegrees>-4.07859980128705501556396484375</LongitudeDegrees>
            </Position>
            <AltitudeMeters>1774</AltitudeMeters>
            <DistanceMeters>NAN</DistanceMeters>
          </Trackpoint>
          <Trackpoint>
            <Time>2018-12-30T12:37:02.000Z</Time>
            <Position>
              <LatitudeDegrees>40.7822087220847606658935546875</LatitudeDegrees>
              <LongitudeDegrees>-4.0786010585725307464599609375</LongitudeDegrees>
            </Position>
            <AltitudeMeters>1773.199951171875</AltitudeMeters>
            <DistanceMeters>NAN</DistanceMeters>
          </Trackpoint>
          <Trackpoint>
            <Time>2018-12-30T12:37:03.000Z</Time>
            <Position>
              <LatitudeDegrees>40.7821983285248279571533203125</LatitudeDegrees>
              <LongitudeDegrees>-4.07860248349606990814208984375</LongitudeDegrees>
            </Position>
            <AltitudeMeters>1772.800048828125</AltitudeMeters>
            <DistanceMeters>NAN</DistanceMeters>
          </Trackpoint>
          <Trackpoint>
            <Time>2018-12-30T12:37:04.000Z</Time>
            <Position>
              <LatitudeDegrees>40.7821875996887683868408203125</LatitudeDegrees>
              <LongitudeDegrees>-4.07860659062862396240234375</LongitudeDegrees>
            </Position>
            <AltitudeMeters>1772.4000244140625</AltitudeMeters>
            <DistanceMeters>NAN</DistanceMeters>
          </Trackpoint>
          <Trackpoint>
            <Time>2018-12-30T12:37:05.000Z</Time>
            <Position>
              <LatitudeDegrees>40.78217527829110622406005859375</LatitudeDegrees>
              <LongitudeDegrees>-4.07860600389540195465087890625</LongitudeDegrees>
            </Position>
            <AltitudeMeters>1772.4000244140625</AltitudeMeters>
            <DistanceMeters>NAN</DistanceMeters>
          </Trackpoint>
          <Trackpoint>
            <Time>2018-12-30T12:37:06.000Z</Time>
            <Position>
              <LatitudeDegrees>40.78215901739895343780517578125</LatitudeDegrees>
              <LongitudeDegrees>-4.07860298641026020050048828125</LongitudeDegrees>
            </Position>
            <AltitudeMeters>1772.199951171875</AltitudeMeters>
            <DistanceMeters>NAN</DistanceMeters>
          </Trackpoint>
          <Trackpoint>
            <Time>2018-12-30T12:37:07.000Z</Time>
            <Position>
              <LatitudeDegrees>40.78214250504970550537109375</LatitudeDegrees>
              <LongitudeDegrees>-4.07860030420124530792236328125</LongitudeDegrees>
            </Position>
            <AltitudeMeters>1772.4000244140625</AltitudeMeters>
            <DistanceMeters>NAN</DistanceMeters>
          </Trackpoint>
          <Trackpoint>
            <Time>2018-12-30T12:37:08.000Z</Time>
            <Position>
              <LatitudeDegrees>40.7821262441575527191162109375</LatitudeDegrees>
              <LongitudeDegrees>-4.07860080711543560028076171875</LongitudeDegrees>
            </Position>
            <AltitudeMeters>1772.4000244140625</AltitudeMeters>
            <DistanceMeters>NAN</DistanceMeters>
          </Trackpoint>
          <Trackpoint>
            <Time>2018-12-30T12:37:09.000Z</Time>
            <Position>
              <LatitudeDegrees>40.7821074686944484710693359375</LatitudeDegrees>
              <LongitudeDegrees>-4.0786013938486576080322265625</LongitudeDegrees>
            </Position>
            <AltitudeMeters>1772.4000244140625</AltitudeMeters>
            <DistanceMeters>NAN</DistanceMeters>
          </Trackpoint>
          <Trackpoint>
            <Time>2018-12-30T12:37:10.000Z</Time>
            <Position>
              <LatitudeDegrees>40.78209179453551769256591796875</LatitudeDegrees>
              <LongitudeDegrees>-4.07859963364899158477783203125</LongitudeDegrees>
            </Position>
            <AltitudeMeters>1772.4000244140625</AltitudeMeters>
            <DistanceMeters>NAN</DistanceMeters>
          </Trackpoint>
          <Trackpoint>
            <Time>2018-12-30T12:37:11.000Z</Time>
            <Position>
              <LatitudeDegrees>40.78207570128142833709716796875</LatitudeDegrees>
              <LongitudeDegrees>-4.0785977058112621307373046875</LongitudeDegrees>
            </Position>
            <AltitudeMeters>1772.199951171875</AltitudeMeters>
            <DistanceMeters>NAN</DistanceMeters>
          </Trackpoint>
          <Trackpoint>
            <Time>2018-12-30T12:37:12.000Z</Time>
            <Position>
              <LatitudeDegrees>40.78206145204603672027587890625</LatitudeDegrees>
              <LongitudeDegrees>-4.07859586179256439208984375</LongitudeDegrees>
            </Position>
            <AltitudeMeters>1771.5999755859375</AltitudeMeters>
            <DistanceMeters>NAN</DistanceMeters>
          </Trackpoint>
          <Trackpoint>
            <Time>2018-12-30T12:37:13.000Z</Time>
            <Position>
              <LatitudeDegrees>40.78204929828643798828125</LatitudeDegrees>
              <LongitudeDegrees>-4.07859577797353267669677734375</LongitudeDegrees>
            </Position>
            <AltitudeMeters>1771.199951171875</AltitudeMeters>
            <DistanceMeters>NAN</DistanceMeters>
          </Trackpoint>
          <Trackpoint>
            <Time>2018-12-30T12:37:14.000Z</Time>
            <Position>
              <LatitudeDegrees>40.782044269144535064697265625</LatitudeDegrees>
              <LongitudeDegrees>-4.0785973705351352691650390625</LongitudeDegrees>
            </Position>
            <AltitudeMeters>1770.800048828125</AltitudeMeters>
            <DistanceMeters>NAN</DistanceMeters>
          </Trackpoint>
          <Trackpoint>
            <Time>2018-12-30T12:37:15.000Z</Time>
            <Position>
              <LatitudeDegrees>40.7820372283458709716796875</LatitudeDegrees>
              <LongitudeDegrees>-4.078595526516437530517578125</LongitudeDegrees>
            </Position>
            <AltitudeMeters>1770.5999755859375</AltitudeMeters>
            <DistanceMeters>NAN</DistanceMeters>
          </Trackpoint>
          <Trackpoint>
            <Time>2018-12-30T12:37:16.000Z</Time>
            <Position>
              <LatitudeDegrees>40.78203194774687290191650390625</LatitudeDegrees>
              <LongitudeDegrees>-4.07859561033546924591064453125</LongitudeDegrees>
            </Position>
            <AltitudeMeters>1770.5999755859375</AltitudeMeters>
            <DistanceMeters>NAN</DistanceMeters>
          </Trackpoint>
          <Trackpoint>
            <Time>2018-12-30T12:37:17.000Z</Time>
            <Position>
              <LatitudeDegrees>40.78202239237725734710693359375</LatitudeDegrees>
              <LongitudeDegrees>-4.078597538173198699951171875</LongitudeDegrees>
            </Position>
            <AltitudeMeters>1770.5999755859375</AltitudeMeters>
            <DistanceMeters>NAN</DistanceMeters>
          </Trackpoint>
          <Trackpoint>
            <Time>2018-12-30T12:37:18.000Z</Time>
            <Position>
              <LatitudeDegrees>40.78200881369411945343017578125</LatitudeDegrees>
              <LongitudeDegrees>-4.078601896762847900390625</LongitudeDegrees>
            </Position>
            <AltitudeMeters>1770.4000244140625</AltitudeMeters>
            <DistanceMeters>NAN</DistanceMeters>
          </Trackpoint>
          <Trackpoint>
            <Time>2018-12-30T12:37:19.000Z</Time>
            <Position>
              <LatitudeDegrees>40.78198953531682491302490234375</LatitudeDegrees>
              <LongitudeDegrees>-4.07860181294381618499755859375</LongitudeDegrees>
            </Position>
            <AltitudeMeters>1770</AltitudeMeters>
            <DistanceMeters>NAN</DistanceMeters>
          </Trackpoint>
          <Trackpoint>
            <Time>2018-12-30T12:37:20.000Z</Time>
            <Position>
              <LatitudeDegrees>40.781969167292118072509765625</LatitudeDegrees>
              <LongitudeDegrees>-4.07859980128705501556396484375</LongitudeDegrees>
            </Position>
            <AltitudeMeters>1770</AltitudeMeters>
            <DistanceMeters>NAN</DistanceMeters>
          </Trackpoint>
          <Trackpoint>
            <Time>2018-12-30T12:37:21.000Z</Time>
            <Position>
              <LatitudeDegrees>40.78195014037191867828369140625</LatitudeDegrees>
              <LongitudeDegrees>-4.07859745435416698455810546875</LongitudeDegrees>
            </Position>
            <AltitudeMeters>1769.800048828125</AltitudeMeters>
            <DistanceMeters>NAN</DistanceMeters>
          </Trackpoint>
          <Trackpoint>
            <Time>2018-12-30T12:37:22.000Z</Time>
            <Position>
              <LatitudeDegrees>40.78193253837525844573974609375</LatitudeDegrees>
              <LongitudeDegrees>-4.07859611324965953826904296875</LongitudeDegrees>
            </Position>
            <AltitudeMeters>1769.800048828125</AltitudeMeters>
            <DistanceMeters>NAN</DistanceMeters>
          </Trackpoint>
          <Trackpoint>
            <Time>2018-12-30T12:37:23.000Z</Time>
            <Position>
              <LatitudeDegrees>40.78191493637859821319580078125</LatitudeDegrees>
              <LongitudeDegrees>-4.07859317958354949951171875</LongitudeDegrees>
            </Position>
            <AltitudeMeters>1769.5999755859375</AltitudeMeters>
            <DistanceMeters>NAN</DistanceMeters>
          </Trackpoint>
          <Trackpoint>
            <Time>2018-12-30T12:37:24.000Z</Time>
            <Position>
              <LatitudeDegrees>40.7818977534770965576171875</LatitudeDegrees>
              <LongitudeDegrees>-4.07859309576451778411865234375</LongitudeDegrees>
            </Position>
            <AltitudeMeters>1769.5999755859375</AltitudeMeters>
            <DistanceMeters>NAN</DistanceMeters>
          </Trackpoint>
          <Trackpoint>
            <Time>2018-12-30T12:37:25.000Z</Time>
            <Position>
              <LatitudeDegrees>40.781880654394626617431640625</LatitudeDegrees>
              <LongitudeDegrees>-4.07859309576451778411865234375</LongitudeDegrees>
            </Position>
            <AltitudeMeters>1769.5999755859375</AltitudeMeters>
            <DistanceMeters>NAN</DistanceMeters>
          </Trackpoint>
          <Trackpoint>
            <Time>2018-12-30T12:37:26.000Z</Time>
            <Position>
              <LatitudeDegrees>40.78186414204537868499755859375</LatitudeDegrees>
              <LongitudeDegrees>-4.07859343104064464569091796875</LongitudeDegrees>
            </Position>
            <AltitudeMeters>1769.5999755859375</AltitudeMeters>
            <DistanceMeters>NAN</DistanceMeters>
          </Trackpoint>
          <Trackpoint>
            <Time>2018-12-30T12:37:27.000Z</Time>
            <Position>
              <LatitudeDegrees>40.78184637241065502166748046875</LatitudeDegrees>
              <LongitudeDegrees>-4.078594185411930084228515625</LongitudeDegrees>
            </Position>
            <AltitudeMeters>1769.5999755859375</AltitudeMeters>
            <DistanceMeters>NAN</DistanceMeters>
          </Trackpoint>
          <Trackpoint>
            <Time>2018-12-30T12:37:28.000Z</Time>
            <Position>
              <LatitudeDegrees>40.78182994388043880462646484375</LatitudeDegrees>
              <LongitudeDegrees>-4.07859376631677150726318359375</LongitudeDegrees>
            </Position>
            <AltitudeMeters>1769.4000244140625</AltitudeMeters>
            <DistanceMeters>NAN</DistanceMeters>
          </Trackpoint>
          <Trackpoint>
            <Time>2018-12-30T12:37:29.000Z</Time>
            <Position>
              <LatitudeDegrees>40.78181267715990543365478515625</LatitudeDegrees>
              <LongitudeDegrees>-4.07859326340258121490478515625</LongitudeDegrees>
            </Position>
            <AltitudeMeters>1769.4000244140625</AltitudeMeters>
            <DistanceMeters>NAN</DistanceMeters>
          </Trackpoint>
          <Trackpoint>
            <Time>2018-12-30T12:37:30.000Z</Time>
            <Position>
              <LatitudeDegrees>40.78179809264838695526123046875</LatitudeDegrees>
              <LongitudeDegrees>-4.078594185411930084228515625</LongitudeDegrees>
            </Position>
            <AltitudeMeters>1769.5999755859375</AltitudeMeters>
            <DistanceMeters>NAN</DistanceMeters>
          </Trackpoint>
          <Trackpoint>
            <Time>2018-12-30T12:37:31.000Z</Time>
            <Position>
              <LatitudeDegrees>40.7817819155752658843994140625</LatitudeDegrees>
              <LongitudeDegrees>-4.0785966999828815460205078125</LongitudeDegrees>
            </Position>
            <AltitudeMeters>1769.800048828125</AltitudeMeters>
            <DistanceMeters>NAN</DistanceMeters>
          </Trackpoint>
          <Trackpoint>
            <Time>2018-12-30T12:37:32.000Z</Time>
            <Position>
              <LatitudeDegrees>40.78176624141633510589599609375</LatitudeDegrees>
              <LongitudeDegrees>-4.07859577797353267669677734375</LongitudeDegrees>
            </Position>
            <AltitudeMeters>1769.800048828125</AltitudeMeters>
            <DistanceMeters>NAN</DistanceMeters>
          </Trackpoint>
          <Trackpoint>
            <Time>2018-12-30T12:37:33.000Z</Time>
            <Position>
              <LatitudeDegrees>40.7817514054477214813232421875</LatitudeDegrees>
              <LongitudeDegrees>-4.07859452068805694580078125</LongitudeDegrees>
            </Position>
            <AltitudeMeters>1769.800048828125</AltitudeMeters>
            <DistanceMeters>NAN</DistanceMeters>
          </Trackpoint>
          <Trackpoint>
            <Time>2018-12-30T12:37:34.000Z</Time>
            <Position>
              <LatitudeDegrees>40.78173422254621982574462890625</LatitudeDegrees>
              <LongitudeDegrees>-4.07859158702194690704345703125</LongitudeDegrees>
            </Position>
            <AltitudeMeters>1770</AltitudeMeters>
            <DistanceMeters>NAN</DistanceMeters>
          </Trackpoint>
          <Trackpoint>
            <Time>2018-12-30T12:37:35.000Z</Time>
            <Position>
              <LatitudeDegrees>40.7817180454730987548828125</LatitudeDegrees>
              <LongitudeDegrees>-4.078588820993900299072265625</LongitudeDegrees>
            </Position>
            <AltitudeMeters>1770</AltitudeMeters>
            <DistanceMeters>NAN</DistanceMeters>
          </Trackpoint>
          <Trackpoint>
            <Time>2018-12-30T12:37:36.000Z</Time>
            <Position>
              <LatitudeDegrees>40.78169968910515308380126953125</LatitudeDegrees>
              <LongitudeDegrees>-4.078586809337139129638671875</LongitudeDegrees>
            </Position>
            <AltitudeMeters>1770</AltitudeMeters>
            <DistanceMeters>NAN</DistanceMeters>
          </Trackpoint>
          <Trackpoint>
            <Time>2018-12-30T12:37:37.000Z</Time>
            <Position>
              <LatitudeDegrees>40.78168326057493686676025390625</LatitudeDegrees>
              <LongitudeDegrees>-4.078586138784885406494140625</LongitudeDegrees>
            </Position>
            <AltitudeMeters>1769.800048828125</AltitudeMeters>
            <DistanceMeters>NAN</DistanceMeters>
          </Trackpoint>
          <Trackpoint>
            <Time>2018-12-30T12:37:38.000Z</Time>
            <Position>
              <LatitudeDegrees>40.7816679216921329498291015625</LatitudeDegrees>
              <LongitudeDegrees>-4.07858840189874172210693359375</LongitudeDegrees>
            </Position>
            <AltitudeMeters>1769.5999755859375</AltitudeMeters>
            <DistanceMeters>NAN</DistanceMeters>
          </Trackpoint>
          <Trackpoint>
            <Time>2018-12-30T12:37:39.000Z</Time>
            <Position>
              <LatitudeDegrees>40.78165425918996334075927734375</LatitudeDegrees>
              <LongitudeDegrees>-4.07858907245099544525146484375</LongitudeDegrees>
            </Position>
            <AltitudeMeters>1769.5999755859375</AltitudeMeters>
            <DistanceMeters>NAN</DistanceMeters>
          </Trackpoint>
          <Trackpoint>
            <Time>2018-12-30T12:37:40.000Z</Time>
            <Position>
              <LatitudeDegrees>40.78163716010749340057373046875</LatitudeDegrees>
              <LongitudeDegrees>-4.0785844624042510986328125</LongitudeDegrees>
            </Position>
            <AltitudeMeters>1769.4000244140625</AltitudeMeters>
            <DistanceMeters>NAN</DistanceMeters>
          </Trackpoint>
          <Trackpoint>
            <Time>2018-12-30T12:37:41.000Z</Time>
            <Position>
              <LatitudeDegrees>40.78162156976759433746337890625</LatitudeDegrees>
              <LongitudeDegrees>-4.07858253456652164459228515625</LongitudeDegrees>
            </Position>
            <AltitudeMeters>1769.199951171875</AltitudeMeters>
            <DistanceMeters>NAN</DistanceMeters>
          </Trackpoint>
          <Trackpoint>
            <Time>2018-12-30T12:37:42.000Z</Time>
            <Position>
              <LatitudeDegrees>40.78161000274121761322021484375</LatitudeDegrees>
              <LongitudeDegrees>-4.07858102582395076751708984375</LongitudeDegrees>
            </Position>
            <AltitudeMeters>1769</AltitudeMeters>
            <DistanceMeters>NAN</DistanceMeters>
          </Trackpoint>
          <Trackpoint>
            <Time>2018-12-30T12:37:43.000Z</Time>
            <Position>
              <LatitudeDegrees>40.7815991900861263275146484375</LatitudeDegrees>
              <LongitudeDegrees>-4.078578092157840728759765625</LongitudeDegrees>
            </Position>
            <AltitudeMeters>1768.800048828125</AltitudeMeters>
            <DistanceMeters>NAN</DistanceMeters>
          </Trackpoint>
          <Trackpoint>
            <Time>2018-12-30T12:37:44.000Z</Time>
            <Position>
              <LatitudeDegrees>40.7815830968320369720458984375</LatitudeDegrees>
              <LongitudeDegrees>-4.07857951708137989044189453125</LongitudeDegrees>
            </Position>
            <AltitudeMeters>1768.800048828125</AltitudeMeters>
            <DistanceMeters>NAN</DistanceMeters>
          </Trackpoint>
          <Trackpoint>
            <Time>2018-12-30T12:37:45.000Z</Time>
            <Position>
              <LatitudeDegrees>40.78156658448278903961181640625</LatitudeDegrees>
              <LongitudeDegrees>-4.07858119346201419830322265625</LongitudeDegrees>
            </Position>
            <AltitudeMeters>1768.5999755859375</AltitudeMeters>
            <DistanceMeters>NAN</DistanceMeters>
          </Trackpoint>
          <Trackpoint>
            <Time>2018-12-30T12:37:46.000Z</Time>
            <Position>
              <LatitudeDegrees>40.7815522514283657073974609375</LatitudeDegrees>
              <LongitudeDegrees>-4.07857901416718959808349609375</LongitudeDegrees>
            </Position>
            <AltitudeMeters>1768.5999755859375</AltitudeMeters>
            <DistanceMeters>NAN</DistanceMeters>
          </Trackpoint>
          <Trackpoint>
            <Time>2018-12-30T12:37:47.000Z</Time>
            <Position>
              <LatitudeDegrees>40.78153674490749835968017578125</LatitudeDegrees>
              <LongitudeDegrees>-4.07858119346201419830322265625</LongitudeDegrees>
            </Position>
            <AltitudeMeters>1768.4000244140625</AltitudeMeters>
            <DistanceMeters>NAN</DistanceMeters>
          </Trackpoint>
          <Trackpoint>
            <Time>2018-12-30T12:37:48.000Z</Time>
            <Position>
              <LatitudeDegrees>40.781520903110504150390625</LatitudeDegrees>
              <LongitudeDegrees>-4.078585468232631683349609375</LongitudeDegrees>
            </Position>
            <AltitudeMeters>1768.199951171875</AltitudeMeters>
            <DistanceMeters>NAN</DistanceMeters>
          </Trackpoint>
          <Trackpoint>
            <Time>2018-12-30T12:37:49.000Z</Time>
            <Position>
              <LatitudeDegrees>40.78150682151317596435546875</LatitudeDegrees>
              <LongitudeDegrees>-4.07858823426067829132080078125</LongitudeDegrees>
            </Position>
            <AltitudeMeters>1768.199951171875</AltitudeMeters>
            <DistanceMeters>NAN</DistanceMeters>
          </Trackpoint>
          <Trackpoint>
            <Time>2018-12-30T12:37:50.000Z</Time>
            <Position>
              <LatitudeDegrees>40.78149475157260894775390625</LatitudeDegrees>
              <LongitudeDegrees>-4.07859276048839092254638671875</LongitudeDegrees>
            </Position>
            <AltitudeMeters>1768</AltitudeMeters>
            <DistanceMeters>NAN</DistanceMeters>
          </Trackpoint>
          <Trackpoint>
            <Time>2018-12-30T12:37:51.000Z</Time>
            <Position>
              <LatitudeDegrees>40.7814828492701053619384765625</LatitudeDegrees>
              <LongitudeDegrees>-4.0785992145538330078125</LongitudeDegrees>
            </Position>
            <AltitudeMeters>1768</AltitudeMeters>
            <DistanceMeters>NAN</DistanceMeters>
          </Trackpoint>
          <Trackpoint>
            <Time>2018-12-30T12:37:52.000Z</Time>
            <Position>
              <LatitudeDegrees>40.78147153370082378387451171875</LatitudeDegrees>
              <LongitudeDegrees>-4.07860617153346538543701171875</LongitudeDegrees>
            </Position>
            <AltitudeMeters>1767.800048828125</AltitudeMeters>
            <DistanceMeters>NAN</DistanceMeters>
          </Trackpoint>
          <Trackpoint>
            <Time>2018-12-30T12:37:53.000Z</Time>
            <Position>
              <LatitudeDegrees>40.78145728446543216705322265625</LatitudeDegrees>
              <LongitudeDegrees>-4.078612290322780609130859375</LongitudeDegrees>
            </Position>
            <AltitudeMeters>1767.5999755859375</AltitudeMeters>
            <DistanceMeters>NAN</DistanceMeters>
          </Trackpoint>
          <Trackpoint>
            <Time>2018-12-30T12:37:54.000Z</Time>
            <Position>
              <LatitudeDegrees>40.78144404105842113494873046875</LatitudeDegrees>
              <LongitudeDegrees>-4.0786231867969036102294921875</LongitudeDegrees>
            </Position>
            <AltitudeMeters>1767.5999755859375</AltitudeMeters>
            <DistanceMeters>NAN</DistanceMeters>
          </Trackpoint>
          <Trackpoint>
            <Time>2018-12-30T12:37:55.000Z</Time>
            <Position>
              <LatitudeDegrees>40.78143197111785411834716796875</LatitudeDegrees>
              <LongitudeDegrees>-4.07864254899322986602783203125</LongitudeDegrees>
            </Position>
            <AltitudeMeters>1767.5999755859375</AltitudeMeters>
            <DistanceMeters>NAN</DistanceMeters>
          </Trackpoint>
          <Trackpoint>
            <Time>2018-12-30T12:37:56.000Z</Time>
            <Position>
              <LatitudeDegrees>40.78141688369214534759521484375</LatitudeDegrees>
              <LongitudeDegrees>-4.07864808104932308197021484375</LongitudeDegrees>
            </Position>
            <AltitudeMeters>1767.5999755859375</AltitudeMeters>
            <DistanceMeters>NAN</DistanceMeters>
          </Trackpoint>
          <Trackpoint>
            <Time>2018-12-30T12:37:57.000Z</Time>
            <Position>
              <LatitudeDegrees>40.78140246681869029998779296875</LatitudeDegrees>
              <LongitudeDegrees>-4.07865629531443119049072265625</LongitudeDegrees>
            </Position>
            <AltitudeMeters>1767.4000244140625</AltitudeMeters>
            <DistanceMeters>NAN</DistanceMeters>
          </Trackpoint>
          <Trackpoint>
            <Time>2018-12-30T12:37:58.000Z</Time>
            <Position>
              <LatitudeDegrees>40.781388469040393829345703125</LatitudeDegrees>
              <LongitudeDegrees>-4.07866082154214382171630859375</LongitudeDegrees>
            </Position>
            <AltitudeMeters>1767.199951171875</AltitudeMeters>
            <DistanceMeters>NAN</DistanceMeters>
          </Trackpoint>
          <Trackpoint>
            <Time>2018-12-30T12:37:59.000Z</Time>
            <Position>
              <LatitudeDegrees>40.7813748903572559356689453125</LatitudeDegrees>
              <LongitudeDegrees>-4.07866501249372959136962890625</LongitudeDegrees>
            </Position>
            <AltitudeMeters>1767</AltitudeMeters>
            <DistanceMeters>NAN</DistanceMeters>
          </Trackpoint>
          <Trackpoint>
            <Time>2018-12-30T12:38:00.000Z</Time>
            <Position>
              <LatitudeDegrees>40.78136265277862548828125</LatitudeDegrees>
              <LongitudeDegrees>-4.07867255620658397674560546875</LongitudeDegrees>
            </Position>
            <AltitudeMeters>1766.5999755859375</AltitudeMeters>
            <DistanceMeters>NAN</DistanceMeters>
          </Trackpoint>
          <Trackpoint>
            <Time>2018-12-30T12:38:01.000Z</Time>
            <Position>
              <LatitudeDegrees>40.78135049901902675628662109375</LatitudeDegrees>
              <LongitudeDegrees>-4.07868211157619953155517578125</LongitudeDegrees>
            </Position>
            <AltitudeMeters>1766.4000244140625</AltitudeMeters>
            <DistanceMeters>NAN</DistanceMeters>
          </Trackpoint>
          <Trackpoint>
            <Time>2018-12-30T12:38:02.000Z</Time>
            <Position>
              <LatitudeDegrees>40.78134077601134777069091796875</LatitudeDegrees>
              <LongitudeDegrees>-4.078685380518436431884765625</LongitudeDegrees>
            </Position>
            <AltitudeMeters>1766</AltitudeMeters>
            <DistanceMeters>NAN</DistanceMeters>
          </Trackpoint>
          <Trackpoint>
            <Time>2018-12-30T12:38:03.000Z</Time>
            <Position>
              <LatitudeDegrees>40.78132853843271732330322265625</LatitudeDegrees>
              <LongitudeDegrees>-4.07868378795683383941650390625</LongitudeDegrees>
            </Position>
            <AltitudeMeters>1765.800048828125</AltitudeMeters>
            <DistanceMeters>NAN</DistanceMeters>
          </Trackpoint>
          <Trackpoint>
            <Time>2018-12-30T12:38:04.000Z</Time>
            <Position>
              <LatitudeDegrees>40.78131713904440402984619140625</LatitudeDegrees>
              <LongitudeDegrees>-4.07868915237486362457275390625</LongitudeDegrees>
            </Position>
            <AltitudeMeters>1765.5999755859375</AltitudeMeters>
            <DistanceMeters>NAN</DistanceMeters>
          </Trackpoint>
          <Trackpoint>
            <Time>2018-12-30T12:38:05.000Z</Time>
            <Position>
              <LatitudeDegrees>40.7813051529228687286376953125</LatitudeDegrees>
              <LongitudeDegrees>-4.07869602553546428680419921875</LongitudeDegrees>
            </Position>
            <AltitudeMeters>1765.4000244140625</AltitudeMeters>
            <DistanceMeters>NAN</DistanceMeters>
          </Trackpoint>
          <Trackpoint>
            <Time>2018-12-30T12:38:06.000Z</Time>
            <Position>
              <LatitudeDegrees>40.781289897859096527099609375</LatitudeDegrees>
              <LongitudeDegrees>-4.0787026472389698028564453125</LongitudeDegrees>
            </Position>
            <AltitudeMeters>1765.4000244140625</AltitudeMeters>
            <DistanceMeters>NAN</DistanceMeters>
          </Trackpoint>
          <Trackpoint>
            <Time>2018-12-30T12:38:07.000Z</Time>
            <Position>
              <LatitudeDegrees>40.781273134052753448486328125</LatitudeDegrees>
              <LongitudeDegrees>-4.0787116996943950653076171875</LongitudeDegrees>
            </Position>
            <AltitudeMeters>1765.199951171875</AltitudeMeters>
            <DistanceMeters>NAN</DistanceMeters>
          </Trackpoint>
          <Trackpoint>
            <Time>2018-12-30T12:38:08.000Z</Time>
            <Position>
              <LatitudeDegrees>40.78125494532287120819091796875</LatitudeDegrees>
              <LongitudeDegrees>-4.07871932722628116607666015625</LongitudeDegrees>
            </Position>
            <AltitudeMeters>1765.199951171875</AltitudeMeters>
            <DistanceMeters>NAN</DistanceMeters>
          </Trackpoint>
          <Trackpoint>
            <Time>2018-12-30T12:38:09.000Z</Time>
            <Position>
              <LatitudeDegrees>40.78123969025909900665283203125</LatitudeDegrees>
              <LongitudeDegrees>-4.07872653566300868988037109375</LongitudeDegrees>
            </Position>
            <AltitudeMeters>1765.199951171875</AltitudeMeters>
            <DistanceMeters>NAN</DistanceMeters>
          </Trackpoint>
          <Trackpoint>
            <Time>2018-12-30T12:38:10.000Z</Time>
            <Position>
              <LatitudeDegrees>40.78122644685208797454833984375</LatitudeDegrees>
              <LongitudeDegrees>-4.07873257063329219818115234375</LongitudeDegrees>
            </Position>
            <AltitudeMeters>1765.199951171875</AltitudeMeters>
            <DistanceMeters>NAN</DistanceMeters>
          </Trackpoint>
          <Trackpoint>
            <Time>2018-12-30T12:38:11.000Z</Time>
            <Position>
              <LatitudeDegrees>40.781215131282806396484375</LatitudeDegrees>
              <LongitudeDegrees>-4.07873944379389286041259765625</LongitudeDegrees>
            </Position>
            <AltitudeMeters>1765</AltitudeMeters>
            <DistanceMeters>NAN</DistanceMeters>
          </Trackpoint>
          <Trackpoint>
            <Time>2018-12-30T12:38:12.000Z</Time>
            <Position>
              <LatitudeDegrees>40.7812062464654445648193359375</LatitudeDegrees>
              <LongitudeDegrees>-4.07874598167836666107177734375</LongitudeDegrees>
            </Position>
            <AltitudeMeters>1765</AltitudeMeters>
            <DistanceMeters>NAN</DistanceMeters>
          </Trackpoint>
          <Trackpoint>
            <Time>2018-12-30T12:38:13.000Z</Time>
            <Position>
              <LatitudeDegrees>40.7812002114951610565185546875</LatitudeDegrees>
              <LongitudeDegrees>-4.078752100467681884765625</LongitudeDegrees>
            </Position>
            <AltitudeMeters>1765</AltitudeMeters>
            <DistanceMeters>NAN</DistanceMeters>
          </Trackpoint>
          <Trackpoint>
            <Time>2018-12-30T12:38:14.000Z</Time>
            <Position>
              <LatitudeDegrees>40.78119300305843353271484375</LatitudeDegrees>
              <LongitudeDegrees>-4.07876123674213886260986328125</LongitudeDegrees>
            </Position>
            <AltitudeMeters>1765</AltitudeMeters>
            <DistanceMeters>NAN</DistanceMeters>
          </Trackpoint>
          <Trackpoint>
            <Time>2018-12-30T12:38:15.000Z</Time>
            <Position>
              <LatitudeDegrees>40.781180597841739654541015625</LatitudeDegrees>
              <LongitudeDegrees>-4.078772552311420440673828125</LongitudeDegrees>
            </Position>
            <AltitudeMeters>1765</AltitudeMeters>
            <DistanceMeters>NAN</DistanceMeters>
          </Trackpoint>
          <Trackpoint>
            <Time>2018-12-30T12:38:16.000Z</Time>
            <Position>
              <LatitudeDegrees>40.78116592951118946075439453125</LatitudeDegrees>
              <LongitudeDegrees>-4.07878336496651172637939453125</LongitudeDegrees>
            </Position>
            <AltitudeMeters>1764.800048828125</AltitudeMeters>
            <DistanceMeters>NAN</DistanceMeters>
          </Trackpoint>
          <Trackpoint>
            <Time>2018-12-30T12:38:17.000Z</Time>
            <Position>
              <LatitudeDegrees>40.7811549492180347442626953125</LatitudeDegrees>
              <LongitudeDegrees>-4.07879241742193698883056640625</LongitudeDegrees>
            </Position>
            <AltitudeMeters>1764.4000244140625</AltitudeMeters>
            <DistanceMeters>NAN</DistanceMeters>
          </Trackpoint>
          <Trackpoint>
            <Time>2018-12-30T12:38:18.000Z</Time>
            <Position>
              <LatitudeDegrees>40.78114338219165802001953125</LatitudeDegrees>
              <LongitudeDegrees>-4.07880146987736225128173828125</LongitudeDegrees>
            </Position>
            <AltitudeMeters>1764</AltitudeMeters>
            <DistanceMeters>NAN</DistanceMeters>
          </Trackpoint>
          <Trackpoint>
            <Time>2018-12-30T12:38:19.000Z</Time>
            <Position>
              <LatitudeDegrees>40.7811308093369007110595703125</LatitudeDegrees>
              <LongitudeDegrees>-4.078810773789882659912109375</LongitudeDegrees>
            </Position>
            <AltitudeMeters>1763.5999755859375</AltitudeMeters>
            <DistanceMeters>NAN</DistanceMeters>
          </Trackpoint>
          <Trackpoint>
            <Time>2018-12-30T12:38:20.000Z</Time>
            <Position>
              <LatitudeDegrees>40.78112267889082431793212890625</LatitudeDegrees>
              <LongitudeDegrees>-4.07881756313145160675048828125</LongitudeDegrees>
            </Position>
            <AltitudeMeters>1763.199951171875</AltitudeMeters>
            <DistanceMeters>NAN</DistanceMeters>
          </Trackpoint>
          <Trackpoint>
            <Time>2018-12-30T12:38:21.000Z</Time>
            <Position>
              <LatitudeDegrees>40.78111329115927219390869140625</LatitudeDegrees>
              <LongitudeDegrees>-4.0788230113685131072998046875</LongitudeDegrees>
            </Position>
            <AltitudeMeters>1762.800048828125</AltitudeMeters>
            <DistanceMeters>NAN</DistanceMeters>
          </Trackpoint>
          <Trackpoint>
            <Time>2018-12-30T12:38:22.000Z</Time>
            <Position>
              <LatitudeDegrees>40.78110792674124240875244140625</LatitudeDegrees>
              <LongitudeDegrees>-4.0788243524730205535888671875</LongitudeDegrees>
            </Position>
            <AltitudeMeters>1762.4000244140625</AltitudeMeters>
            <DistanceMeters>NAN</DistanceMeters>
          </Trackpoint>
          <Trackpoint>
            <Time>2018-12-30T12:38:23.000Z</Time>
            <Position>
              <LatitudeDegrees>40.78109971247613430023193359375</LatitudeDegrees>
              <LongitudeDegrees>-4.07883248291909694671630859375</LongitudeDegrees>
            </Position>
            <AltitudeMeters>1762.199951171875</AltitudeMeters>
            <DistanceMeters>NAN</DistanceMeters>
          </Trackpoint>
          <Trackpoint>
            <Time>2018-12-30T12:38:24.000Z</Time>
            <Position>
              <LatitudeDegrees>40.78108839690685272216796875</LatitudeDegrees>
              <LongitudeDegrees>-4.07884019427001476287841796875</LongitudeDegrees>
            </Position>
            <AltitudeMeters>1762</AltitudeMeters>
            <DistanceMeters>NAN</DistanceMeters>
          </Trackpoint>
          <Trackpoint>
            <Time>2018-12-30T12:38:25.000Z</Time>
            <Position>
              <LatitudeDegrees>40.7810738123953342437744140625</LatitudeDegrees>
              <LongitudeDegrees>-4.07884606160223484039306640625</LongitudeDegrees>
            </Position>
            <AltitudeMeters>1761.800048828125</AltitudeMeters>
            <DistanceMeters>NAN</DistanceMeters>
          </Trackpoint>
          <Trackpoint>
            <Time>2018-12-30T12:38:26.000Z</Time>
            <Position>
              <LatitudeDegrees>40.7810607366263866424560546875</LatitudeDegrees>
              <LongitudeDegrees>-4.07885461114346981048583984375</LongitudeDegrees>
            </Position>
            <AltitudeMeters>1761.5999755859375</AltitudeMeters>
            <DistanceMeters>NAN</DistanceMeters>
          </Trackpoint>
          <Trackpoint>
            <Time>2018-12-30T12:38:27.000Z</Time>
            <Position>
              <LatitudeDegrees>40.78104875050485134124755859375</LatitudeDegrees>
              <LongitudeDegrees>-4.0788632445037364959716796875</LongitudeDegrees>
            </Position>
            <AltitudeMeters>1761.5999755859375</AltitudeMeters>
            <DistanceMeters>NAN</DistanceMeters>
          </Trackpoint>
          <Trackpoint>
            <Time>2018-12-30T12:38:28.000Z</Time>
            <Position>
              <LatitudeDegrees>40.78103450126945972442626953125</LatitudeDegrees>
              <LongitudeDegrees>-4.078869782388210296630859375</LongitudeDegrees>
            </Position>
            <AltitudeMeters>1761.5999755859375</AltitudeMeters>
            <DistanceMeters>NAN</DistanceMeters>
          </Trackpoint>
          <Trackpoint>
            <Time>2018-12-30T12:38:29.000Z</Time>
            <Position>
              <LatitudeDegrees>40.78102528117597103118896484375</LatitudeDegrees>
              <LongitudeDegrees>-4.07887271605432033538818359375</LongitudeDegrees>
            </Position>
            <AltitudeMeters>1761.4000244140625</AltitudeMeters>
            <DistanceMeters>NAN</DistanceMeters>
          </Trackpoint>
          <Trackpoint>
            <Time>2018-12-30T12:38:30.000Z</Time>
            <Position>
              <LatitudeDegrees>40.7810154743492603302001953125</LatitudeDegrees>
              <LongitudeDegrees>-4.07887749373912811279296875</LongitudeDegrees>
            </Position>
            <AltitudeMeters>1761.199951171875</AltitudeMeters>
            <DistanceMeters>NAN</DistanceMeters>
          </Trackpoint>
          <Trackpoint>
            <Time>2018-12-30T12:38:31.000Z</Time>
            <Position>
              <LatitudeDegrees>40.7810057513415813446044921875</LatitudeDegrees>
              <LongitudeDegrees>-4.07888679765164852142333984375</LongitudeDegrees>
            </Position>
            <AltitudeMeters>1760.800048828125</AltitudeMeters>
            <DistanceMeters>NAN</DistanceMeters>
          </Trackpoint>
          <Trackpoint>
            <Time>2018-12-30T12:38:32.000Z</Time>
            <Position>
              <LatitudeDegrees>40.780999548733234405517578125</LatitudeDegrees>
              <LongitudeDegrees>-4.07889786176383495330810546875</LongitudeDegrees>
            </Position>
            <AltitudeMeters>1760.800048828125</AltitudeMeters>
            <DistanceMeters>NAN</DistanceMeters>
          </Trackpoint>
          <Trackpoint>
            <Time>2018-12-30T12:38:33.000Z</Time>
            <Position>
              <LatitudeDegrees>40.78099158592522144317626953125</LatitudeDegrees>
              <LongitudeDegrees>-4.07890724949538707733154296875</LongitudeDegrees>
            </Position>
            <AltitudeMeters>1760.5999755859375</AltitudeMeters>
            <DistanceMeters>NAN</DistanceMeters>
          </Trackpoint>
          <Trackpoint>
            <Time>2018-12-30T12:38:34.000Z</Time>
            <Position>
              <LatitudeDegrees>40.780979432165622711181640625</LatitudeDegrees>
              <LongitudeDegrees>-4.07891646958887577056884765625</LongitudeDegrees>
            </Position>
            <AltitudeMeters>1760.5999755859375</AltitudeMeters>
            <DistanceMeters>NAN</DistanceMeters>
          </Trackpoint>
          <Trackpoint>
            <Time>2018-12-30T12:38:35.000Z</Time>
            <Position>
              <LatitudeDegrees>40.7809702120721340179443359375</LatitudeDegrees>
              <LongitudeDegrees>-4.0789225883781909942626953125</LongitudeDegrees>
            </Position>
            <AltitudeMeters>1760.5999755859375</AltitudeMeters>
            <DistanceMeters>NAN</DistanceMeters>
          </Trackpoint>
          <Trackpoint>
            <Time>2018-12-30T12:38:36.000Z</Time>
            <Position>
              <LatitudeDegrees>40.78095805831253528594970703125</LatitudeDegrees>
              <LongitudeDegrees>-4.0789292939007282257080078125</LongitudeDegrees>
            </Position>
            <AltitudeMeters>1760.5999755859375</AltitudeMeters>
            <DistanceMeters>NAN</DistanceMeters>
          </Trackpoint>
          <Trackpoint>
            <Time>2018-12-30T12:38:37.000Z</Time>
            <Position>
              <LatitudeDegrees>40.7809470780193805694580078125</LatitudeDegrees>
              <LongitudeDegrees>-4.0789406932890415191650390625</LongitudeDegrees>
            </Position>
            <AltitudeMeters>1760.4000244140625</AltitudeMeters>
            <DistanceMeters>NAN</DistanceMeters>
          </Trackpoint>
          <Trackpoint>
            <Time>2018-12-30T12:38:38.000Z</Time>
            <Position>
              <LatitudeDegrees>40.78093827702105045318603515625</LatitudeDegrees>
              <LongitudeDegrees>-4.0789519250392913818359375</LongitudeDegrees>
            </Position>
            <AltitudeMeters>1760.199951171875</AltitudeMeters>
            <DistanceMeters>NAN</DistanceMeters>
          </Trackpoint>
          <Trackpoint>
            <Time>2018-12-30T12:38:39.000Z</Time>
            <Position>
              <LatitudeDegrees>40.78093014657497406005859375</LatitudeDegrees>
              <LongitudeDegrees>-4.07896424643695354461669921875</LongitudeDegrees>
            </Position>
            <AltitudeMeters>1759.800048828125</AltitudeMeters>
            <DistanceMeters>NAN</DistanceMeters>
          </Trackpoint>
          <Trackpoint>
            <Time>2018-12-30T12:38:40.000Z</Time>
            <Position>
              <LatitudeDegrees>40.78091748990118503570556640625</LatitudeDegrees>
              <LongitudeDegrees>-4.07897715456783771514892578125</LongitudeDegrees>
            </Position>
            <AltitudeMeters>1759.5999755859375</AltitudeMeters>
            <DistanceMeters>NAN</DistanceMeters>
          </Trackpoint>
          <Trackpoint>
            <Time>2018-12-30T12:38:41.000Z</Time>
            <Position>
              <LatitudeDegrees>40.7809078507125377655029296875</LatitudeDegrees>
              <LongitudeDegrees>-4.0789903141558170318603515625</LongitudeDegrees>
            </Position>
            <AltitudeMeters>1759.4000244140625</AltitudeMeters>
            <DistanceMeters>NAN</DistanceMeters>
          </Trackpoint>
          <Trackpoint>
            <Time>2018-12-30T12:38:42.000Z</Time>
            <Position>
              <LatitudeDegrees>40.78089804388582706451416015625</LatitudeDegrees>
              <LongitudeDegrees>-4.07900230027735233306884765625</LongitudeDegrees>
            </Position>
            <AltitudeMeters>1759.4000244140625</AltitudeMeters>
            <DistanceMeters>NAN</DistanceMeters>
          </Trackpoint>
          <Trackpoint>
            <Time>2018-12-30T12:38:43.000Z</Time>
            <Position>
              <LatitudeDegrees>40.78089016489684581756591796875</LatitudeDegrees>
              <LongitudeDegrees>-4.0790157951414585113525390625</LongitudeDegrees>
            </Position>
            <AltitudeMeters>1759.4000244140625</AltitudeMeters>
            <DistanceMeters>NAN</DistanceMeters>
          </Trackpoint>
          <Trackpoint>
            <Time>2018-12-30T12:38:44.000Z</Time>
            <Position>
              <LatitudeDegrees>40.78088245354592800140380859375</LatitudeDegrees>
              <LongitudeDegrees>-4.07902593724429607391357421875</LongitudeDegrees>
            </Position>
            <AltitudeMeters>1759.199951171875</AltitudeMeters>
            <DistanceMeters>NAN</DistanceMeters>
          </Trackpoint>
          <Trackpoint>
            <Time>2018-12-30T12:38:45.000Z</Time>
            <Position>
              <LatitudeDegrees>40.78087541274726390838623046875</LatitudeDegrees>
              <LongitudeDegrees>-4.07903616316616535186767578125</LongitudeDegrees>
            </Position>
            <AltitudeMeters>1759</AltitudeMeters>
            <DistanceMeters>NAN</DistanceMeters>
          </Trackpoint>
          <Trackpoint>
            <Time>2018-12-30T12:38:46.000Z</Time>
            <Position>
              <LatitudeDegrees>40.780866444110870361328125</LatitudeDegrees>
              <LongitudeDegrees>-4.07904705964028835296630859375</LongitudeDegrees>
            </Position>
            <AltitudeMeters>1758.800048828125</AltitudeMeters>
            <DistanceMeters>NAN</DistanceMeters>
          </Trackpoint>
          <Trackpoint>
            <Time>2018-12-30T12:38:47.000Z</Time>
            <Position>
              <LatitudeDegrees>40.7808558829128742218017578125</LatitudeDegrees>
              <LongitudeDegrees>-4.079056195914745330810546875</LongitudeDegrees>
            </Position>
            <AltitudeMeters>1758.5999755859375</AltitudeMeters>
            <DistanceMeters>NAN</DistanceMeters>
          </Trackpoint>
          <Trackpoint>
            <Time>2018-12-30T12:38:48.000Z</Time>
            <Position>
              <LatitudeDegrees>40.78084607608616352081298828125</LatitudeDegrees>
              <LongitudeDegrees>-4.07906415872275829315185546875</LongitudeDegrees>
            </Position>
            <AltitudeMeters>1758.4000244140625</AltitudeMeters>
            <DistanceMeters>NAN</DistanceMeters>
          </Trackpoint>
          <Trackpoint>
            <Time>2018-12-30T12:38:49.000Z</Time>
            <Position>
              <LatitudeDegrees>40.78083283267915248870849609375</LatitudeDegrees>
              <LongitudeDegrees>-4.079072959721088409423828125</LongitudeDegrees>
            </Position>
            <AltitudeMeters>1758.199951171875</AltitudeMeters>
            <DistanceMeters>NAN</DistanceMeters>
          </Trackpoint>
          <Trackpoint>
            <Time>2018-12-30T12:38:50.000Z</Time>
            <Position>
              <LatitudeDegrees>40.780819840729236602783203125</LatitudeDegrees>
              <LongitudeDegrees>-4.0790835209190845489501953125</LongitudeDegrees>
            </Position>
            <AltitudeMeters>1758</AltitudeMeters>
            <DistanceMeters>NAN</DistanceMeters>
          </Trackpoint>
          <Trackpoint>
            <Time>2018-12-30T12:38:51.000Z</Time>
            <Position>
              <LatitudeDegrees>40.7808082737028598785400390625</LatitudeDegrees>
              <LongitudeDegrees>-4.0790922380983829498291015625</LongitudeDegrees>
            </Position>
            <AltitudeMeters>1758</AltitudeMeters>
            <DistanceMeters>NAN</DistanceMeters>
          </Trackpoint>
          <Trackpoint>
            <Time>2018-12-30T12:38:52.000Z</Time>
            <Position>
              <LatitudeDegrees>40.78079611994326114654541015625</LatitudeDegrees>
              <LongitudeDegrees>-4.079100787639617919921875</LongitudeDegrees>
            </Position>
            <AltitudeMeters>1758</AltitudeMeters>
            <DistanceMeters>NAN</DistanceMeters>
          </Trackpoint>
          <Trackpoint>
            <Time>2018-12-30T12:38:53.000Z</Time>
            <Position>
              <LatitudeDegrees>40.78078069724142551422119140625</LatitudeDegrees>
              <LongitudeDegrees>-4.07911218702793121337890625</LongitudeDegrees>
            </Position>
            <AltitudeMeters>1757.800048828125</AltitudeMeters>
            <DistanceMeters>NAN</DistanceMeters>
          </Trackpoint>
          <Trackpoint>
            <Time>2018-12-30T12:38:54.000Z</Time>
            <Position>
              <LatitudeDegrees>40.78076519072055816650390625</LatitudeDegrees>
              <LongitudeDegrees>-4.0791237540543079376220703125</LongitudeDegrees>
            </Position>
            <AltitudeMeters>1757.800048828125</AltitudeMeters>
            <DistanceMeters>NAN</DistanceMeters>
          </Trackpoint>
          <Trackpoint>
            <Time>2018-12-30T12:38:55.000Z</Time>
            <Position>
              <LatitudeDegrees>40.78075270168483257293701171875</LatitudeDegrees>
              <LongitudeDegrees>-4.07913406379520893096923828125</LongitudeDegrees>
            </Position>
            <AltitudeMeters>1757.800048828125</AltitudeMeters>
            <DistanceMeters>NAN</DistanceMeters>
          </Trackpoint>
          <Trackpoint>
            <Time>2018-12-30T12:38:56.000Z</Time>
            <Position>
              <LatitudeDegrees>40.78073811717331409454345703125</LatitudeDegrees>
              <LongitudeDegrees>-4.07914462499320507049560546875</LongitudeDegrees>
            </Position>
            <AltitudeMeters>1757.5999755859375</AltitudeMeters>
            <DistanceMeters>NAN</DistanceMeters>
          </Trackpoint>
          <Trackpoint>
            <Time>2018-12-30T12:38:57.000Z</Time>
            <Position>
              <LatitudeDegrees>40.7807242870330810546875</LatitudeDegrees>
              <LongitudeDegrees>-4.07915602438151836395263671875</LongitudeDegrees>
            </Position>
            <AltitudeMeters>1757.5999755859375</AltitudeMeters>
            <DistanceMeters>NAN</DistanceMeters>
          </Trackpoint>
          <Trackpoint>
            <Time>2018-12-30T12:38:58.000Z</Time>
            <Position>
              <LatitudeDegrees>40.78070886433124542236328125</LatitudeDegrees>
              <LongitudeDegrees>-4.079168848693370819091796875</LongitudeDegrees>
            </Position>
            <AltitudeMeters>1757.4000244140625</AltitudeMeters>
            <DistanceMeters>NAN</DistanceMeters>
          </Trackpoint>
          <Trackpoint>
            <Time>2018-12-30T12:38:59.000Z</Time>
            <Position>
              <LatitudeDegrees>40.7806972973048686981201171875</LatitudeDegrees>
              <LongitudeDegrees>-4.079180918633937835693359375</LongitudeDegrees>
            </Position>
            <AltitudeMeters>1757.199951171875</AltitudeMeters>
            <DistanceMeters>NAN</DistanceMeters>
          </Trackpoint>
          <Trackpoint>
            <Time>2018-12-30T12:39:00.000Z</Time>
            <Position>
              <LatitudeDegrees>40.78068581409752368927001953125</LatitudeDegrees>
              <LongitudeDegrees>-4.07919139601290225982666015625</LongitudeDegrees>
            </Position>
            <AltitudeMeters>1757.199951171875</AltitudeMeters>
            <DistanceMeters>NAN</DistanceMeters>
          </Trackpoint>
          <Trackpoint>
            <Time>2018-12-30T12:39:01.000Z</Time>
            <Position>
              <LatitudeDegrees>40.78067692928016185760498046875</LatitudeDegrees>
              <LongitudeDegrees>-4.07920279540121555328369140625</LongitudeDegrees>
            </Position>
            <AltitudeMeters>1757</AltitudeMeters>
            <DistanceMeters>NAN</DistanceMeters>
          </Trackpoint>
          <Trackpoint>
            <Time>2018-12-30T12:39:02.000Z</Time>
            <Position>
              <LatitudeDegrees>40.78066770918667316436767578125</LatitudeDegrees>
              <LongitudeDegrees>-4.07921411097049713134765625</LongitudeDegrees>
            </Position>
            <AltitudeMeters>1756.5999755859375</AltitudeMeters>
            <DistanceMeters>NAN</DistanceMeters>
          </Trackpoint>
          <Trackpoint>
            <Time>2018-12-30T12:39:03.000Z</Time>
            <Position>
              <LatitudeDegrees>40.78065882436931133270263671875</LatitudeDegrees>
              <LongitudeDegrees>-4.079221822321414947509765625</LongitudeDegrees>
            </Position>
            <AltitudeMeters>1756.4000244140625</AltitudeMeters>
            <DistanceMeters>NAN</DistanceMeters>
          </Trackpoint>
          <Trackpoint>
            <Time>2018-12-30T12:39:04.000Z</Time>
            <Position>
              <LatitudeDegrees>40.7806470058858394622802734375</LatitudeDegrees>
              <LongitudeDegrees>-4.07922861166298389434814453125</LongitudeDegrees>
            </Position>
            <AltitudeMeters>1756.199951171875</AltitudeMeters>
            <DistanceMeters>NAN</DistanceMeters>
          </Trackpoint>
          <Trackpoint>
            <Time>2018-12-30T12:39:05.000Z</Time>
            <Position>
              <LatitudeDegrees>40.7806396298110485076904296875</LatitudeDegrees>
              <LongitudeDegrees>-4.07923498190939426422119140625</LongitudeDegrees>
            </Position>
            <AltitudeMeters>1756</AltitudeMeters>
            <DistanceMeters>NAN</DistanceMeters>
          </Trackpoint>
          <Trackpoint>
            <Time>2018-12-30T12:39:06.000Z</Time>
            <Position>
              <LatitudeDegrees>40.78063116408884525299072265625</LatitudeDegrees>
              <LongitudeDegrees>-4.07924638129770755767822265625</LongitudeDegrees>
            </Position>
            <AltitudeMeters>1756</AltitudeMeters>
            <DistanceMeters>NAN</DistanceMeters>
          </Trackpoint>
          <Trackpoint>
            <Time>2018-12-30T12:39:07.000Z</Time>
            <Position>
              <LatitudeDegrees>40.78062303364276885986328125</LatitudeDegrees>
              <LongitudeDegrees>-4.0792555175721645355224609375</LongitudeDegrees>
            </Position>
            <AltitudeMeters>1756</AltitudeMeters>
            <DistanceMeters>NAN</DistanceMeters>
          </Trackpoint>
          <Trackpoint>
            <Time>2018-12-30T12:39:08.000Z</Time>
            <Position>
              <LatitudeDegrees>40.780612640082836151123046875</LatitudeDegrees>
              <LongitudeDegrees>-4.07926381565630435943603515625</LongitudeDegrees>
            </Position>
            <AltitudeMeters>1756</AltitudeMeters>
            <DistanceMeters>NAN</DistanceMeters>
          </Trackpoint>
          <Trackpoint>
            <Time>2018-12-30T12:39:09.000Z</Time>
            <Position>
              <LatitudeDegrees>40.780598558485507965087890625</LatitudeDegrees>
              <LongitudeDegrees>-4.07927102409303188323974609375</LongitudeDegrees>
            </Position>
            <AltitudeMeters>1756.199951171875</AltitudeMeters>
            <DistanceMeters>NAN</DistanceMeters>
          </Trackpoint>
          <Trackpoint>
            <Time>2018-12-30T12:39:10.000Z</Time>
            <Position>
              <LatitudeDegrees>40.7805839739739894866943359375</LatitudeDegrees>
              <LongitudeDegrees>-4.0792756341397762298583984375</LongitudeDegrees>
            </Position>
            <AltitudeMeters>1756.199951171875</AltitudeMeters>
            <DistanceMeters>NAN</DistanceMeters>
          </Trackpoint>
          <Trackpoint>
            <Time>2018-12-30T12:39:11.000Z</Time>
            <Position>
              <LatitudeDegrees>40.7805722393095493316650390625</LatitudeDegrees>
              <LongitudeDegrees>-4.07928326167166233062744140625</LongitudeDegrees>
            </Position>
            <AltitudeMeters>1756.5999755859375</AltitudeMeters>
            <DistanceMeters>NAN</DistanceMeters>
          </Trackpoint>
          <Trackpoint>
            <Time>2018-12-30T12:39:12.000Z</Time>
            <Position>
              <LatitudeDegrees>40.7805593311786651611328125</LatitudeDegrees>
              <LongitudeDegrees>-4.07929264940321445465087890625</LongitudeDegrees>
            </Position>
            <AltitudeMeters>1756.5999755859375</AltitudeMeters>
            <DistanceMeters>NAN</DistanceMeters>
          </Trackpoint>
          <Trackpoint>
            <Time>2018-12-30T12:39:13.000Z</Time>
            <Position>
              <LatitudeDegrees>40.780545584857463836669921875</LatitudeDegrees>
              <LongitudeDegrees>-4.0793017856776714324951171875</LongitudeDegrees>
            </Position>
            <AltitudeMeters>1756.4000244140625</AltitudeMeters>
            <DistanceMeters>NAN</DistanceMeters>
          </Trackpoint>
          <Trackpoint>
            <Time>2018-12-30T12:39:14.000Z</Time>
            <Position>
              <LatitudeDegrees>40.78053326345980167388916015625</LatitudeDegrees>
              <LongitudeDegrees>-4.0793128497898578643798828125</LongitudeDegrees>
            </Position>
            <AltitudeMeters>1756.199951171875</AltitudeMeters>
            <DistanceMeters>NAN</DistanceMeters>
          </Trackpoint>
          <Trackpoint>
            <Time>2018-12-30T12:39:15.000Z</Time>
            <Position>
              <LatitudeDegrees>40.7805212773382663726806640625</LatitudeDegrees>
              <LongitudeDegrees>-4.07932567410171031951904296875</LongitudeDegrees>
            </Position>
            <AltitudeMeters>1756.199951171875</AltitudeMeters>
            <DistanceMeters>NAN</DistanceMeters>
          </Trackpoint>
          <Trackpoint>
            <Time>2018-12-30T12:39:16.000Z</Time>
            <Position>
              <LatitudeDegrees>40.78050979413092136383056640625</LatitudeDegrees>
              <LongitudeDegrees>-4.0793386660516262054443359375</LongitudeDegrees>
            </Position>
            <AltitudeMeters>1756</AltitudeMeters>
            <DistanceMeters>NAN</DistanceMeters>
          </Trackpoint>
          <Trackpoint>
            <Time>2018-12-30T12:39:17.000Z</Time>
            <Position>
              <LatitudeDegrees>40.7804974727332592010498046875</LatitudeDegrees>
              <LongitudeDegrees>-4.07935098744928836822509765625</LongitudeDegrees>
            </Position>
            <AltitudeMeters>1755.5999755859375</AltitudeMeters>
            <DistanceMeters>NAN</DistanceMeters>
          </Trackpoint>
          <Trackpoint>
            <Time>2018-12-30T12:39:18.000Z</Time>
            <Position>
              <LatitudeDegrees>40.7804880850017070770263671875</LatitudeDegrees>
              <LongitudeDegrees>-4.07936297357082366943359375</LongitudeDegrees>
            </Position>
            <AltitudeMeters>1755</AltitudeMeters>
            <DistanceMeters>NAN</DistanceMeters>
          </Trackpoint>
          <Trackpoint>
            <Time>2018-12-30T12:39:19.000Z</Time>
            <Position>
              <LatitudeDegrees>40.78048062510788440704345703125</LatitudeDegrees>
              <LongitudeDegrees>-4.079373367130756378173828125</LongitudeDegrees>
            </Position>
            <AltitudeMeters>1754.5999755859375</AltitudeMeters>
            <DistanceMeters>NAN</DistanceMeters>
          </Trackpoint>
          <Trackpoint>
            <Time>2018-12-30T12:39:20.000Z</Time>
            <Position>
              <LatitudeDegrees>40.78047023154795169830322265625</LatitudeDegrees>
              <LongitudeDegrees>-4.07938174903392791748046875</LongitudeDegrees>
            </Position>
            <AltitudeMeters>1754.4000244140625</AltitudeMeters>
            <DistanceMeters>NAN</DistanceMeters>
          </Trackpoint>
          <Trackpoint>
            <Time>2018-12-30T12:39:21.000Z</Time>
            <Position>
              <LatitudeDegrees>40.78045832924544811248779296875</LatitudeDegrees>
              <LongitudeDegrees>-4.07938753254711627960205078125</LongitudeDegrees>
            </Position>
            <AltitudeMeters>1754</AltitudeMeters>
            <DistanceMeters>NAN</DistanceMeters>
          </Trackpoint>
          <Trackpoint>
            <Time>2018-12-30T12:39:22.000Z</Time>
            <Position>
              <LatitudeDegrees>40.7804475165903568267822265625</LatitudeDegrees>
              <LongitudeDegrees>-4.079394154250621795654296875</LongitudeDegrees>
            </Position>
            <AltitudeMeters>1753.5999755859375</AltitudeMeters>
            <DistanceMeters>NAN</DistanceMeters>
          </Trackpoint>
          <Trackpoint>
            <Time>2018-12-30T12:39:23.000Z</Time>
            <Position>
              <LatitudeDegrees>40.78043553046882152557373046875</LatitudeDegrees>
              <LongitudeDegrees>-4.07940111123025417327880859375</LongitudeDegrees>
            </Position>
            <AltitudeMeters>1753.5999755859375</AltitudeMeters>
            <DistanceMeters>NAN</DistanceMeters>
          </Trackpoint>
          <Trackpoint>
            <Time>2018-12-30T12:39:24.000Z</Time>
            <Position>
              <LatitudeDegrees>40.780422873795032501220703125</LatitudeDegrees>
              <LongitudeDegrees>-4.07940966077148914337158203125</LongitudeDegrees>
            </Position>
            <AltitudeMeters>1753.4000244140625</AltitudeMeters>
            <DistanceMeters>NAN</DistanceMeters>
          </Trackpoint>
          <Trackpoint>
            <Time>2018-12-30T12:39:25.000Z</Time>
            <Position>
              <LatitudeDegrees>40.78041189350187778472900390625</LatitudeDegrees>
              <LongitudeDegrees>-4.079417288303375244140625</LongitudeDegrees>
            </Position>
            <AltitudeMeters>1753.199951171875</AltitudeMeters>
            <DistanceMeters>NAN</DistanceMeters>
          </Trackpoint>
          <Trackpoint>
            <Time>2018-12-30T12:39:26.000Z</Time>
            <Position>
              <LatitudeDegrees>40.780400745570659637451171875</LatitudeDegrees>
              <LongitudeDegrees>-4.0794265083968639373779296875</LongitudeDegrees>
            </Position>
            <AltitudeMeters>1753</AltitudeMeters>
            <DistanceMeters>NAN</DistanceMeters>
          </Trackpoint>
          <Trackpoint>
            <Time>2018-12-30T12:39:27.000Z</Time>
            <Position>
              <LatitudeDegrees>40.78038825653493404388427734375</LatitudeDegrees>
              <LongitudeDegrees>-4.07943346537649631500244140625</LongitudeDegrees>
            </Position>
            <AltitudeMeters>1752.800048828125</AltitudeMeters>
            <DistanceMeters>NAN</DistanceMeters>
          </Trackpoint>
          <Trackpoint>
            <Time>2018-12-30T12:39:28.000Z</Time>
            <Position>
              <LatitudeDegrees>40.78037434257566928863525390625</LatitudeDegrees>
              <LongitudeDegrees>-4.0794399194419384002685546875</LongitudeDegrees>
            </Position>
            <AltitudeMeters>1752.800048828125</AltitudeMeters>
            <DistanceMeters>NAN</DistanceMeters>
          </Trackpoint>
          <Trackpoint>
            <Time>2018-12-30T12:39:29.000Z</Time>
            <Position>
              <LatitudeDegrees>40.780362524092197418212890625</LatitudeDegrees>
              <LongitudeDegrees>-4.07944452948868274688720703125</LongitudeDegrees>
            </Position>
            <AltitudeMeters>1752.5999755859375</AltitudeMeters>
            <DistanceMeters>NAN</DistanceMeters>
          </Trackpoint>
          <Trackpoint>
            <Time>2018-12-30T12:39:30.000Z</Time>
            <Position>
              <LatitudeDegrees>40.78035078942775726318359375</LatitudeDegrees>
              <LongitudeDegrees>-4.07945123501121997833251953125</LongitudeDegrees>
            </Position>
            <AltitudeMeters>1752.5999755859375</AltitudeMeters>
            <DistanceMeters>NAN</DistanceMeters>
          </Trackpoint>
          <Trackpoint>
            <Time>2018-12-30T12:39:31.000Z</Time>
            <Position>
              <LatitudeDegrees>40.78033830039203166961669921875</LatitudeDegrees>
              <LongitudeDegrees>-4.07945726998150348663330078125</LongitudeDegrees>
            </Position>
            <AltitudeMeters>1752.5999755859375</AltitudeMeters>
            <DistanceMeters>NAN</DistanceMeters>
          </Trackpoint>
          <Trackpoint>
            <Time>2018-12-30T12:39:32.000Z</Time>
            <Position>
              <LatitudeDegrees>40.78032488934695720672607421875</LatitudeDegrees>
              <LongitudeDegrees>-4.07946179620921611785888671875</LongitudeDegrees>
            </Position>
            <AltitudeMeters>1752.5999755859375</AltitudeMeters>
            <DistanceMeters>NAN</DistanceMeters>
          </Trackpoint>
          <Trackpoint>
            <Time>2018-12-30T12:39:33.000Z</Time>
            <Position>
              <LatitudeDegrees>40.7803103886544704437255859375</LatitudeDegrees>
              <LongitudeDegrees>-4.07946431078016757965087890625</LongitudeDegrees>
            </Position>
            <AltitudeMeters>1752.4000244140625</AltitudeMeters>
            <DistanceMeters>NAN</DistanceMeters>
          </Trackpoint>
          <Trackpoint>
            <Time>2018-12-30T12:39:34.000Z</Time>
            <Position>
              <LatitudeDegrees>40.78029572032392024993896484375</LatitudeDegrees>
              <LongitudeDegrees>-4.07946833409368991851806640625</LongitudeDegrees>
            </Position>
            <AltitudeMeters>1752.4000244140625</AltitudeMeters>
            <DistanceMeters>NAN</DistanceMeters>
          </Trackpoint>
          <Trackpoint>
            <Time>2018-12-30T12:39:35.000Z</Time>
            <Position>
              <LatitudeDegrees>40.78028197400271892547607421875</LatitudeDegrees>
              <LongitudeDegrees>-4.07947353087365627288818359375</LongitudeDegrees>
            </Position>
            <AltitudeMeters>1752.199951171875</AltitudeMeters>
            <DistanceMeters>NAN</DistanceMeters>
          </Trackpoint>
          <Trackpoint>
            <Time>2018-12-30T12:39:36.000Z</Time>
            <Position>
              <LatitudeDegrees>40.7802669703960418701171875</LatitudeDegrees>
              <LongitudeDegrees>-4.0794789791107177734375</LongitudeDegrees>
            </Position>
            <AltitudeMeters>1752</AltitudeMeters>
            <DistanceMeters>NAN</DistanceMeters>
          </Trackpoint>
          <Trackpoint>
            <Time>2018-12-30T12:39:37.000Z</Time>
            <Position>
              <LatitudeDegrees>40.7802510447800159454345703125</LatitudeDegrees>
              <LongitudeDegrees>-4.0794856846332550048828125</LongitudeDegrees>
            </Position>
            <AltitudeMeters>1752</AltitudeMeters>
            <DistanceMeters>NAN</DistanceMeters>
          </Trackpoint>
          <Trackpoint>
            <Time>2018-12-30T12:39:38.000Z</Time>
            <Position>
              <LatitudeDegrees>40.7802359573543071746826171875</LatitudeDegrees>
              <LongitudeDegrees>-4.0794925577938556671142578125</LongitudeDegrees>
            </Position>
            <AltitudeMeters>1751.800048828125</AltitudeMeters>
            <DistanceMeters>NAN</DistanceMeters>
          </Trackpoint>
          <Trackpoint>
            <Time>2018-12-30T12:39:39.000Z</Time>
            <Position>
              <LatitudeDegrees>40.78022246249020099639892578125</LatitudeDegrees>
              <LongitudeDegrees>-4.0794972516596317291259765625</LongitudeDegrees>
            </Position>
            <AltitudeMeters>1751.800048828125</AltitudeMeters>
            <DistanceMeters>NAN</DistanceMeters>
          </Trackpoint>
          <Trackpoint>
            <Time>2018-12-30T12:39:40.000Z</Time>
            <Position>
              <LatitudeDegrees>40.78021173365414142608642578125</LatitudeDegrees>
              <LongitudeDegrees>-4.07950353808701038360595703125</LongitudeDegrees>
            </Position>
            <AltitudeMeters>1751.800048828125</AltitudeMeters>
            <DistanceMeters>NAN</DistanceMeters>
          </Trackpoint>
          <Trackpoint>
            <Time>2018-12-30T12:39:41.000Z</Time>
            <Position>
              <LatitudeDegrees>40.7802000828087329864501953125</LatitudeDegrees>
              <LongitudeDegrees>-4.07950588501989841461181640625</LongitudeDegrees>
            </Position>
            <AltitudeMeters>1751.800048828125</AltitudeMeters>
            <DistanceMeters>NAN</DistanceMeters>
          </Trackpoint>
          <Trackpoint>
            <Time>2018-12-30T12:39:42.000Z</Time>
            <Position>
              <LatitudeDegrees>40.78018994070589542388916015625</LatitudeDegrees>
              <LongitudeDegrees>-4.07950647175312042236328125</LongitudeDegrees>
            </Position>
            <AltitudeMeters>1751.800048828125</AltitudeMeters>
            <DistanceMeters>NAN</DistanceMeters>
          </Trackpoint>
          <Trackpoint>
            <Time>2018-12-30T12:39:43.000Z</Time>
            <Position>
              <LatitudeDegrees>40.7801792956888675689697265625</LatitudeDegrees>
              <LongitudeDegrees>-4.07950756140053272247314453125</LongitudeDegrees>
            </Position>
            <AltitudeMeters>1752</AltitudeMeters>
            <DistanceMeters>NAN</DistanceMeters>
          </Trackpoint>
          <Trackpoint>
            <Time>2018-12-30T12:39:44.000Z</Time>
            <Position>
              <LatitudeDegrees>40.78016848303377628326416015625</LatitudeDegrees>
              <LongitudeDegrees>-4.07950923778116703033447265625</LongitudeDegrees>
            </Position>
            <AltitudeMeters>1752</AltitudeMeters>
            <DistanceMeters>NAN</DistanceMeters>
          </Trackpoint>
          <Trackpoint>
            <Time>2018-12-30T12:39:45.000Z</Time>
            <Position>
              <LatitudeDegrees>40.7801618613302707672119140625</LatitudeDegrees>
              <LongitudeDegrees>-4.07951091416180133819580078125</LongitudeDegrees>
            </Position>
            <AltitudeMeters>1752</AltitudeMeters>
            <DistanceMeters>NAN</DistanceMeters>
          </Trackpoint>
          <Trackpoint>
            <Time>2018-12-30T12:39:46.000Z</Time>
            <Position>
              <LatitudeDegrees>40.7801621966063976287841796875</LatitudeDegrees>
              <LongitudeDegrees>-4.07951544038951396942138671875</LongitudeDegrees>
            </Position>
            <AltitudeMeters>1752</AltitudeMeters>
            <DistanceMeters>NAN</DistanceMeters>
          </Trackpoint>
          <Trackpoint>
            <Time>2018-12-30T12:39:47.000Z</Time>
            <Position>
              <LatitudeDegrees>40.780158340930938720703125</LatitudeDegrees>
              <LongitudeDegrees>-4.0795210562646389007568359375</LongitudeDegrees>
            </Position>
            <AltitudeMeters>1752</AltitudeMeters>
            <DistanceMeters>NAN</DistanceMeters>
          </Trackpoint>
          <Trackpoint>
            <Time>2018-12-30T12:39:48.000Z</Time>
            <Position>
              <LatitudeDegrees>40.780147276818752288818359375</LatitudeDegrees>
              <LongitudeDegrees>-4.07951460219919681549072265625</LongitudeDegrees>
            </Position>
            <AltitudeMeters>1752.199951171875</AltitudeMeters>
            <DistanceMeters>NAN</DistanceMeters>
          </Trackpoint>
          <Trackpoint>
            <Time>2018-12-30T12:39:49.000Z</Time>
            <Position>
              <LatitudeDegrees>40.78013679943978786468505859375</LatitudeDegrees>
              <LongitudeDegrees>-4.07951049506664276123046875</LongitudeDegrees>
            </Position>
            <AltitudeMeters>1752.199951171875</AltitudeMeters>
            <DistanceMeters>NAN</DistanceMeters>
          </Trackpoint>
          <Trackpoint>
            <Time>2018-12-30T12:39:50.000Z</Time>
            <Position>
              <LatitudeDegrees>40.7801233045756816864013671875</LatitudeDegrees>
              <LongitudeDegrees>-4.0795059688389301300048828125</LongitudeDegrees>
            </Position>
            <AltitudeMeters>1752.199951171875</AltitudeMeters>
            <DistanceMeters>NAN</DistanceMeters>
          </Trackpoint>
          <Trackpoint>
            <Time>2018-12-30T12:39:51.000Z</Time>
            <Position>
              <LatitudeDegrees>40.78011064790189266204833984375</LatitudeDegrees>
              <LongitudeDegrees>-4.07950244843959808349609375</LongitudeDegrees>
            </Position>
            <AltitudeMeters>1752</AltitudeMeters>
            <DistanceMeters>NAN</DistanceMeters>
          </Trackpoint>
          <Trackpoint>
            <Time>2018-12-30T12:39:52.000Z</Time>
            <Position>
              <LatitudeDegrees>40.78009874559938907623291015625</LatitudeDegrees>
              <LongitudeDegrees>-4.07949767075479030609130859375</LongitudeDegrees>
            </Position>
            <AltitudeMeters>1752.199951171875</AltitudeMeters>
            <DistanceMeters>NAN</DistanceMeters>
          </Trackpoint>
          <Trackpoint>
            <Time>2018-12-30T12:39:53.000Z</Time>
            <Position>
              <LatitudeDegrees>40.7800857536494731903076171875</LatitudeDegrees>
              <LongitudeDegrees>-4.07949029467999935150146484375</LongitudeDegrees>
            </Position>
            <AltitudeMeters>1752.199951171875</AltitudeMeters>
            <DistanceMeters>NAN</DistanceMeters>
          </Trackpoint>
          <Trackpoint>
            <Time>2018-12-30T12:39:54.000Z</Time>
            <Position>
              <LatitudeDegrees>40.78007318079471588134765625</LatitudeDegrees>
              <LongitudeDegrees>-4.0794803202152252197265625</LongitudeDegrees>
            </Position>
            <AltitudeMeters>1752.199951171875</AltitudeMeters>
            <DistanceMeters>NAN</DistanceMeters>
          </Trackpoint>
          <Trackpoint>
            <Time>2018-12-30T12:39:55.000Z</Time>
            <Position>
              <LatitudeDegrees>40.780057422816753387451171875</LatitudeDegrees>
              <LongitudeDegrees>-4.07947361469268798828125</LongitudeDegrees>
            </Position>
            <AltitudeMeters>1752.4000244140625</AltitudeMeters>
            <DistanceMeters>NAN</DistanceMeters>
          </Trackpoint>
          <Trackpoint>
            <Time>2018-12-30T12:39:56.000Z</Time>
            <Position>
              <LatitudeDegrees>40.78004426322877407073974609375</LatitudeDegrees>
              <LongitudeDegrees>-4.07946347258985042572021484375</LongitudeDegrees>
            </Position>
            <AltitudeMeters>1752.4000244140625</AltitudeMeters>
            <DistanceMeters>NAN</DistanceMeters>
          </Trackpoint>
          <Trackpoint>
            <Time>2018-12-30T12:39:57.000Z</Time>
            <Position>
              <LatitudeDegrees>40.78003294765949249267578125</LatitudeDegrees>
              <LongitudeDegrees>-4.07945307902991771697998046875</LongitudeDegrees>
            </Position>
            <AltitudeMeters>1752.4000244140625</AltitudeMeters>
            <DistanceMeters>NAN</DistanceMeters>
          </Trackpoint>
          <Trackpoint>
            <Time>2018-12-30T12:39:58.000Z</Time>
            <Position>
              <LatitudeDegrees>40.78001978807151317596435546875</LatitudeDegrees>
              <LongitudeDegrees>-4.0794389136135578155517578125</LongitudeDegrees>
            </Position>
            <AltitudeMeters>1752.199951171875</AltitudeMeters>
            <DistanceMeters>NAN</DistanceMeters>
          </Trackpoint>
          <Trackpoint>
            <Time>2018-12-30T12:39:59.000Z</Time>
            <Position>
              <LatitudeDegrees>40.7800059579312801361083984375</LatitudeDegrees>
              <LongitudeDegrees>-4.07942541874945163726806640625</LongitudeDegrees>
            </Position>
            <AltitudeMeters>1752.199951171875</AltitudeMeters>
            <DistanceMeters>NAN</DistanceMeters>
          </Trackpoint>
          <Trackpoint>
            <Time>2018-12-30T12:40:00.000Z</Time>
            <Position>
              <LatitudeDegrees>40.7799912057816982269287109375</LatitudeDegrees>
              <LongitudeDegrees>-4.0794134326279163360595703125</LongitudeDegrees>
            </Position>
            <AltitudeMeters>1752.199951171875</AltitudeMeters>
            <DistanceMeters>NAN</DistanceMeters>
          </Trackpoint>
          <Trackpoint>
            <Time>2018-12-30T12:40:01.000Z</Time>
            <Position>
              <LatitudeDegrees>40.77997888438403606414794921875</LatitudeDegrees>
              <LongitudeDegrees>-4.079402200877666473388671875</LongitudeDegrees>
            </Position>
            <AltitudeMeters>1752.199951171875</AltitudeMeters>
            <DistanceMeters>NAN</DistanceMeters>
          </Trackpoint>
          <Trackpoint>
            <Time>2018-12-30T12:40:02.000Z</Time>
            <Position>
              <LatitudeDegrees>40.77996723353862762451171875</LatitudeDegrees>
              <LongitudeDegrees>-4.07939189113676548004150390625</LongitudeDegrees>
            </Position>
            <AltitudeMeters>1752.4000244140625</AltitudeMeters>
            <DistanceMeters>NAN</DistanceMeters>
          </Trackpoint>
          <Trackpoint>
            <Time>2018-12-30T12:40:03.000Z</Time>
            <Position>
              <LatitudeDegrees>40.7799533195793628692626953125</LatitudeDegrees>
              <LongitudeDegrees>-4.07937982119619846343994140625</LongitudeDegrees>
            </Position>
            <AltitudeMeters>1752.4000244140625</AltitudeMeters>
            <DistanceMeters>NAN</DistanceMeters>
          </Trackpoint>
          <Trackpoint>
            <Time>2018-12-30T12:40:04.000Z</Time>
            <Position>
              <LatitudeDegrees>40.77994150109589099884033203125</LatitudeDegrees>
              <LongitudeDegrees>-4.07936967909336090087890625</LongitudeDegrees>
            </Position>
            <AltitudeMeters>1752.5999755859375</AltitudeMeters>
            <DistanceMeters>NAN</DistanceMeters>
          </Trackpoint>
          <Trackpoint>
            <Time>2018-12-30T12:40:05.000Z</Time>
            <Position>
              <LatitudeDegrees>40.77993127517402172088623046875</LatitudeDegrees>
              <LongitudeDegrees>-4.07936121337115764617919921875</LongitudeDegrees>
            </Position>
            <AltitudeMeters>1752.800048828125</AltitudeMeters>
            <DistanceMeters>NAN</DistanceMeters>
          </Trackpoint>
          <Trackpoint>
            <Time>2018-12-30T12:40:06.000Z</Time>
            <Position>
              <LatitudeDegrees>40.77992121689021587371826171875</LatitudeDegrees>
              <LongitudeDegrees>-4.079350568354129791259765625</LongitudeDegrees>
            </Position>
            <AltitudeMeters>1752.800048828125</AltitudeMeters>
            <DistanceMeters>NAN</DistanceMeters>
          </Trackpoint>
          <Trackpoint>
            <Time>2018-12-30T12:40:07.000Z</Time>
            <Position>
              <LatitudeDegrees>40.77991233207285404205322265625</LatitudeDegrees>
              <LongitudeDegrees>-4.07934025861322879791259765625</LongitudeDegrees>
            </Position>
            <AltitudeMeters>1752.800048828125</AltitudeMeters>
            <DistanceMeters>NAN</DistanceMeters>
          </Trackpoint>
          <Trackpoint>
            <Time>2018-12-30T12:40:08.000Z</Time>
            <Position>
              <LatitudeDegrees>40.77990143559873104095458984375</LatitudeDegrees>
              <LongitudeDegrees>-4.0793289430439472198486328125</LongitudeDegrees>
            </Position>
            <AltitudeMeters>1752.800048828125</AltitudeMeters>
            <DistanceMeters>NAN</DistanceMeters>
          </Trackpoint>
          <Trackpoint>
            <Time>2018-12-30T12:40:09.000Z</Time>
            <Position>
              <LatitudeDegrees>40.77988869510591030120849609375</LatitudeDegrees>
              <LongitudeDegrees>-4.07931603491306304931640625</LongitudeDegrees>
            </Position>
            <AltitudeMeters>1753</AltitudeMeters>
            <DistanceMeters>NAN</DistanceMeters>
          </Trackpoint>
          <Trackpoint>
            <Time>2018-12-30T12:40:10.000Z</Time>
            <Position>
              <LatitudeDegrees>40.77987260185182094573974609375</LatitudeDegrees>
              <LongitudeDegrees>-4.07929935492575168609619140625</LongitudeDegrees>
            </Position>
            <AltitudeMeters>1753</AltitudeMeters>
            <DistanceMeters>NAN</DistanceMeters>
          </Trackpoint>
          <Trackpoint>
            <Time>2018-12-30T12:40:11.000Z</Time>
            <Position>
              <LatitudeDegrees>40.7798631303012371063232421875</LatitudeDegrees>
              <LongitudeDegrees>-4.07928577624261379241943359375</LongitudeDegrees>
            </Position>
            <AltitudeMeters>1753.199951171875</AltitudeMeters>
            <DistanceMeters>NAN</DistanceMeters>
          </Trackpoint>
          <Trackpoint>
            <Time>2018-12-30T12:40:12.000Z</Time>
            <Position>
              <LatitudeDegrees>40.779850222170352935791015625</LatitudeDegrees>
              <LongitudeDegrees>-4.07927487976849079132080078125</LongitudeDegrees>
            </Position>
            <AltitudeMeters>1753.199951171875</AltitudeMeters>
            <DistanceMeters>NAN</DistanceMeters>
          </Trackpoint>
          <Trackpoint>
            <Time>2018-12-30T12:40:13.000Z</Time>
            <Position>
              <LatitudeDegrees>40.77983924187719821929931640625</LatitudeDegrees>
              <LongitudeDegrees>-4.0792645700275897979736328125</LongitudeDegrees>
            </Position>
            <AltitudeMeters>1753.5999755859375</AltitudeMeters>
            <DistanceMeters>NAN</DistanceMeters>
          </Trackpoint>
          <Trackpoint>
            <Time>2018-12-30T12:40:14.000Z</Time>
            <Position>
              <LatitudeDegrees>40.77982616610825061798095703125</LatitudeDegrees>
              <LongitudeDegrees>-4.07925208099186420440673828125</LongitudeDegrees>
            </Position>
            <AltitudeMeters>1753.800048828125</AltitudeMeters>
            <DistanceMeters>NAN</DistanceMeters>
          </Trackpoint>
          <Trackpoint>
            <Time>2018-12-30T12:40:15.000Z</Time>
            <Position>
              <LatitudeDegrees>40.779814012348651885986328125</LatitudeDegrees>
              <LongitudeDegrees>-4.07923917286098003387451171875</LongitudeDegrees>
            </Position>
            <AltitudeMeters>1754.199951171875</AltitudeMeters>
            <DistanceMeters>NAN</DistanceMeters>
          </Trackpoint>
          <Trackpoint>
            <Time>2018-12-30T12:40:16.000Z</Time>
            <Position>
              <LatitudeDegrees>40.779803954064846038818359375</LatitudeDegrees>
              <LongitudeDegrees>-4.079227857291698455810546875</LongitudeDegrees>
            </Position>
            <AltitudeMeters>1754.199951171875</AltitudeMeters>
            <DistanceMeters>NAN</DistanceMeters>
          </Trackpoint>
          <Trackpoint>
            <Time>2018-12-30T12:40:17.000Z</Time>
            <Position>
              <LatitudeDegrees>40.77979557216167449951171875</LatitudeDegrees>
              <LongitudeDegrees>-4.07921855337917804718017578125</LongitudeDegrees>
            </Position>
            <AltitudeMeters>1754.4000244140625</AltitudeMeters>
            <DistanceMeters>NAN</DistanceMeters>
          </Trackpoint>
          <Trackpoint>
            <Time>2018-12-30T12:40:18.000Z</Time>
            <Position>
              <LatitudeDegrees>40.779789872467517852783203125</LatitudeDegrees>
              <LongitudeDegrees>-4.0792048908770084381103515625</LongitudeDegrees>
            </Position>
            <AltitudeMeters>1754.4000244140625</AltitudeMeters>
            <DistanceMeters>NAN</DistanceMeters>
          </Trackpoint>
          <Trackpoint>
            <Time>2018-12-30T12:40:19.000Z</Time>
            <Position>
              <LatitudeDegrees>40.77978727407753467559814453125</LatitudeDegrees>
              <LongitudeDegrees>-4.07919122837483882904052734375</LongitudeDegrees>
            </Position>
            <AltitudeMeters>1754.4000244140625</AltitudeMeters>
            <DistanceMeters>NAN</DistanceMeters>
          </Trackpoint>
          <Trackpoint>
            <Time>2018-12-30T12:40:20.000Z</Time>
            <Position>
              <LatitudeDegrees>40.77977989800274372100830078125</LatitudeDegrees>
              <LongitudeDegrees>-4.07917580567300319671630859375</LongitudeDegrees>
            </Position>
            <AltitudeMeters>1754.4000244140625</AltitudeMeters>
            <DistanceMeters>NAN</DistanceMeters>
          </Trackpoint>
          <Trackpoint>
            <Time>2018-12-30T12:40:21.000Z</Time>
            <Position>
              <LatitudeDegrees>40.77977352775633335113525390625</LatitudeDegrees>
              <LongitudeDegrees>-4.07916289754211902618408203125</LongitudeDegrees>
            </Position>
            <AltitudeMeters>1754.4000244140625</AltitudeMeters>
            <DistanceMeters>NAN</DistanceMeters>
          </Trackpoint>
          <Trackpoint>
            <Time>2018-12-30T12:40:22.000Z</Time>
            <Position>
              <LatitudeDegrees>40.77976405620574951171875</LatitudeDegrees>
              <LongitudeDegrees>-4.07914973795413970947265625</LongitudeDegrees>
            </Position>
            <AltitudeMeters>1754.5999755859375</AltitudeMeters>
            <DistanceMeters>NAN</DistanceMeters>
          </Trackpoint>
          <Trackpoint>
            <Time>2018-12-30T12:40:23.000Z</Time>
            <Position>
              <LatitudeDegrees>40.77975894324481487274169921875</LatitudeDegrees>
              <LongitudeDegrees>-4.07914177514612674713134765625</LongitudeDegrees>
            </Position>
            <AltitudeMeters>1754.800048828125</AltitudeMeters>
            <DistanceMeters>NAN</DistanceMeters>
          </Trackpoint>
          <Trackpoint>
            <Time>2018-12-30T12:40:24.000Z</Time>
            <Position>
              <LatitudeDegrees>40.779748298227787017822265625</LatitudeDegrees>
              <LongitudeDegrees>-4.0791321359574794769287109375</LongitudeDegrees>
            </Position>
            <AltitudeMeters>1754.800048828125</AltitudeMeters>
            <DistanceMeters>NAN</DistanceMeters>
          </Trackpoint>
          <Trackpoint>
            <Time>2018-12-30T12:40:25.000Z</Time>
            <Position>
              <LatitudeDegrees>40.77973731793463230133056640625</LatitudeDegrees>
              <LongitudeDegrees>-4.07912082038819789886474609375</LongitudeDegrees>
            </Position>
            <AltitudeMeters>1754.800048828125</AltitudeMeters>
            <DistanceMeters>NAN</DistanceMeters>
          </Trackpoint>
          <Trackpoint>
            <Time>2018-12-30T12:40:26.000Z</Time>
            <Position>
              <LatitudeDegrees>40.77972960658371448516845703125</LatitudeDegrees>
              <LongitudeDegrees>-4.079108498990535736083984375</LongitudeDegrees>
            </Position>
            <AltitudeMeters>1754.800048828125</AltitudeMeters>
            <DistanceMeters>NAN</DistanceMeters>
          </Trackpoint>
          <Trackpoint>
            <Time>2018-12-30T12:40:27.000Z</Time>
            <Position>
              <LatitudeDegrees>40.7797223143279552459716796875</LatitudeDegrees>
              <LongitudeDegrees>-4.07909517176449298858642578125</LongitudeDegrees>
            </Position>
            <AltitudeMeters>1754.800048828125</AltitudeMeters>
            <DistanceMeters>NAN</DistanceMeters>
          </Trackpoint>
          <Trackpoint>
            <Time>2018-12-30T12:40:28.000Z</Time>
            <Position>
              <LatitudeDegrees>40.7797159440815448760986328125</LatitudeDegrees>
              <LongitudeDegrees>-4.079083018004894256591796875</LongitudeDegrees>
            </Position>
            <AltitudeMeters>1754.800048828125</AltitudeMeters>
            <DistanceMeters>NAN</DistanceMeters>
          </Trackpoint>
          <Trackpoint>
            <Time>2018-12-30T12:40:29.000Z</Time>
            <Position>
              <LatitudeDegrees>40.77970697544515132904052734375</LatitudeDegrees>
              <LongitudeDegrees>-4.07907103188335895538330078125</LongitudeDegrees>
            </Position>
            <AltitudeMeters>1754.800048828125</AltitudeMeters>
            <DistanceMeters>NAN</DistanceMeters>
          </Trackpoint>
          <Trackpoint>
            <Time>2018-12-30T12:40:30.000Z</Time>
            <Position>
              <LatitudeDegrees>40.77970094047486782073974609375</LatitudeDegrees>
              <LongitudeDegrees>-4.07905996777117252349853515625</LongitudeDegrees>
            </Position>
            <AltitudeMeters>1755</AltitudeMeters>
            <DistanceMeters>NAN</DistanceMeters>
          </Trackpoint>
          <Trackpoint>
            <Time>2018-12-30T12:40:31.000Z</Time>
            <Position>
              <LatitudeDegrees>40.77969021163880825042724609375</LatitudeDegrees>
              <LongitudeDegrees>-4.079045467078685760498046875</LongitudeDegrees>
            </Position>
            <AltitudeMeters>1755</AltitudeMeters>
            <DistanceMeters>NAN</DistanceMeters>
          </Trackpoint>
          <Trackpoint>
            <Time>2018-12-30T12:40:32.000Z</Time>
            <Position>
              <LatitudeDegrees>40.77967864461243152618408203125</LatitudeDegrees>
              <LongitudeDegrees>-4.0790349058806896209716796875</LongitudeDegrees>
            </Position>
            <AltitudeMeters>1755.199951171875</AltitudeMeters>
            <DistanceMeters>NAN</DistanceMeters>
          </Trackpoint>
          <Trackpoint>
            <Time>2018-12-30T12:40:33.000Z</Time>
            <Position>
              <LatitudeDegrees>40.77966825105249881744384765625</LatitudeDegrees>
              <LongitudeDegrees>-4.07902610488235950469970703125</LongitudeDegrees>
            </Position>
            <AltitudeMeters>1755.199951171875</AltitudeMeters>
            <DistanceMeters>NAN</DistanceMeters>
          </Trackpoint>
          <Trackpoint>
            <Time>2018-12-30T12:40:34.000Z</Time>
            <Position>
              <LatitudeDegrees>40.779659114778041839599609375</LatitudeDegrees>
              <LongitudeDegrees>-4.0790178067982196807861328125</LongitudeDegrees>
            </Position>
            <AltitudeMeters>1755.4000244140625</AltitudeMeters>
            <DistanceMeters>NAN</DistanceMeters>
          </Trackpoint>
          <Trackpoint>
            <Time>2018-12-30T12:40:35.000Z</Time>
            <Position>
              <LatitudeDegrees>40.77965282835066318511962890625</LatitudeDegrees>
              <LongitudeDegrees>-4.07900758087635040283203125</LongitudeDegrees>
            </Position>
            <AltitudeMeters>1755.4000244140625</AltitudeMeters>
            <DistanceMeters>NAN</DistanceMeters>
          </Trackpoint>
          <Trackpoint>
            <Time>2018-12-30T12:40:36.000Z</Time>
            <Position>
              <LatitudeDegrees>40.7796465419232845306396484375</LatitudeDegrees>
              <LongitudeDegrees>-4.07899861223995685577392578125</LongitudeDegrees>
            </Position>
            <AltitudeMeters>1755.4000244140625</AltitudeMeters>
            <DistanceMeters>NAN</DistanceMeters>
          </Trackpoint>
          <Trackpoint>
            <Time>2018-12-30T12:40:37.000Z</Time>
            <Position>
              <LatitudeDegrees>40.7796405069530010223388671875</LatitudeDegrees>
              <LongitudeDegrees>-4.0789886377751827239990234375</LongitudeDegrees>
            </Position>
            <AltitudeMeters>1755.5999755859375</AltitudeMeters>
            <DistanceMeters>NAN</DistanceMeters>
          </Trackpoint>
          <Trackpoint>
            <Time>2018-12-30T12:40:38.000Z</Time>
            <Position>
              <LatitudeDegrees>40.779635645449161529541015625</LatitudeDegrees>
              <LongitudeDegrees>-4.07898268662393093109130859375</LongitudeDegrees>
            </Position>
            <AltitudeMeters>1755.5999755859375</AltitudeMeters>
            <DistanceMeters>NAN</DistanceMeters>
          </Trackpoint>
          <Trackpoint>
            <Time>2018-12-30T12:40:39.000Z</Time>
            <Position>
              <LatitudeDegrees>40.77962852083146572113037109375</LatitudeDegrees>
              <LongitudeDegrees>-4.0789742209017276763916015625</LongitudeDegrees>
            </Position>
            <AltitudeMeters>1755.5999755859375</AltitudeMeters>
            <DistanceMeters>NAN</DistanceMeters>
          </Trackpoint>
          <Trackpoint>
            <Time>2018-12-30T12:40:40.000Z</Time>
            <Position>
              <LatitudeDegrees>40.77961611561477184295654296875</LatitudeDegrees>
              <LongitudeDegrees>-4.07896424643695354461669921875</LongitudeDegrees>
            </Position>
            <AltitudeMeters>1755.5999755859375</AltitudeMeters>
            <DistanceMeters>NAN</DistanceMeters>
          </Trackpoint>
          <Trackpoint>
            <Time>2018-12-30T12:40:41.000Z</Time>
            <Position>
              <LatitudeDegrees>40.77960873953998088836669921875</LatitudeDegrees>
              <LongitudeDegrees>-4.0789517574012279510498046875</LongitudeDegrees>
            </Position>
            <AltitudeMeters>1755.800048828125</AltitudeMeters>
            <DistanceMeters>NAN</DistanceMeters>
          </Trackpoint>
          <Trackpoint>
            <Time>2018-12-30T12:40:42.000Z</Time>
            <Position>
              <LatitudeDegrees>40.7796044647693634033203125</LatitudeDegrees>
              <LongitudeDegrees>-4.078943543136119842529296875</LongitudeDegrees>
            </Position>
            <AltitudeMeters>1755.800048828125</AltitudeMeters>
            <DistanceMeters>NAN</DistanceMeters>
          </Trackpoint>
          <Trackpoint>
            <Time>2018-12-30T12:40:43.000Z</Time>
            <Position>
              <LatitudeDegrees>40.7795962505042552947998046875</LatitudeDegrees>
              <LongitudeDegrees>-4.078932143747806549072265625</LongitudeDegrees>
            </Position>
            <AltitudeMeters>1756</AltitudeMeters>
            <DistanceMeters>NAN</DistanceMeters>
          </Trackpoint>
          <Trackpoint>
            <Time>2018-12-30T12:40:44.000Z</Time>
            <Position>
              <LatitudeDegrees>40.7795821689069271087646484375</LatitudeDegrees>
              <LongitudeDegrees>-4.078916721045970916748046875</LongitudeDegrees>
            </Position>
            <AltitudeMeters>1756</AltitudeMeters>
            <DistanceMeters>NAN</DistanceMeters>
          </Trackpoint>
          <Trackpoint>
            <Time>2018-12-30T12:40:45.000Z</Time>
            <Position>
              <LatitudeDegrees>40.779573954641819000244140625</LatitudeDegrees>
              <LongitudeDegrees>-4.07890825532376766204833984375</LongitudeDegrees>
            </Position>
            <AltitudeMeters>1756</AltitudeMeters>
            <DistanceMeters>NAN</DistanceMeters>
          </Trackpoint>
          <Trackpoint>
            <Time>2018-12-30T12:40:46.000Z</Time>
            <Position>
              <LatitudeDegrees>40.779560543596744537353515625</LatitudeDegrees>
              <LongitudeDegrees>-4.07890004105865955352783203125</LongitudeDegrees>
            </Position>
            <AltitudeMeters>1756</AltitudeMeters>
            <DistanceMeters>NAN</DistanceMeters>
          </Trackpoint>
          <Trackpoint>
            <Time>2018-12-30T12:40:47.000Z</Time>
            <Position>
              <LatitudeDegrees>40.77955149114131927490234375</LatitudeDegrees>
              <LongitudeDegrees>-4.07889098860323429107666015625</LongitudeDegrees>
            </Position>
            <AltitudeMeters>1756</AltitudeMeters>
            <DistanceMeters>NAN</DistanceMeters>
          </Trackpoint>
          <Trackpoint>
            <Time>2018-12-30T12:40:48.000Z</Time>
            <Position>
              <LatitudeDegrees>40.779543779790401458740234375</LatitudeDegrees>
              <LongitudeDegrees>-4.07888352870941162109375</LongitudeDegrees>
            </Position>
            <AltitudeMeters>1756</AltitudeMeters>
            <DistanceMeters>NAN</DistanceMeters>
          </Trackpoint>
          <Trackpoint>
            <Time>2018-12-30T12:40:49.000Z</Time>
            <Position>
              <LatitudeDegrees>40.7795372419059276580810546875</LatitudeDegrees>
              <LongitudeDegrees>-4.0788773261010646820068359375</LongitudeDegrees>
            </Position>
            <AltitudeMeters>1755.800048828125</AltitudeMeters>
            <DistanceMeters>NAN</DistanceMeters>
          </Trackpoint>
          <Trackpoint>
            <Time>2018-12-30T12:40:50.000Z</Time>
            <Position>
              <LatitudeDegrees>40.77952693216502666473388671875</LatitudeDegrees>
              <LongitudeDegrees>-4.07886869274079799652099609375</LongitudeDegrees>
            </Position>
            <AltitudeMeters>1755.800048828125</AltitudeMeters>
            <DistanceMeters>NAN</DistanceMeters>
          </Trackpoint>
          <Trackpoint>
            <Time>2018-12-30T12:40:51.000Z</Time>
            <Position>
              <LatitudeDegrees>40.77951687388122081756591796875</LatitudeDegrees>
              <LongitudeDegrees>-4.0788595564663410186767578125</LongitudeDegrees>
            </Position>
            <AltitudeMeters>1755.5999755859375</AltitudeMeters>
            <DistanceMeters>NAN</DistanceMeters>
          </Trackpoint>
          <Trackpoint>
            <Time>2018-12-30T12:40:52.000Z</Time>
            <Position>
              <LatitudeDegrees>40.77950580976903438568115234375</LatitudeDegrees>
              <LongitudeDegrees>-4.078849665820598602294921875</LongitudeDegrees>
            </Position>
            <AltitudeMeters>1755.5999755859375</AltitudeMeters>
            <DistanceMeters>NAN</DistanceMeters>
          </Trackpoint>
          <Trackpoint>
            <Time>2018-12-30T12:40:53.000Z</Time>
            <Position>
              <LatitudeDegrees>40.77949021942913532257080078125</LatitudeDegrees>
              <LongitudeDegrees>-4.0788417868316173553466796875</LongitudeDegrees>
            </Position>
            <AltitudeMeters>1755.5999755859375</AltitudeMeters>
            <DistanceMeters>NAN</DistanceMeters>
          </Trackpoint>
          <Trackpoint>
            <Time>2018-12-30T12:40:54.000Z</Time>
            <Position>
              <LatitudeDegrees>40.77947747893631458282470703125</LatitudeDegrees>
              <LongitudeDegrees>-4.0788317285478115081787109375</LongitudeDegrees>
            </Position>
            <AltitudeMeters>1755.5999755859375</AltitudeMeters>
            <DistanceMeters>NAN</DistanceMeters>
          </Trackpoint>
          <Trackpoint>
            <Time>2018-12-30T12:40:55.000Z</Time>
            <Position>
              <LatitudeDegrees>40.77946222387254238128662109375</LatitudeDegrees>
              <LongitudeDegrees>-4.07882309518754482269287109375</LongitudeDegrees>
            </Position>
            <AltitudeMeters>1755.5999755859375</AltitudeMeters>
            <DistanceMeters>NAN</DistanceMeters>
          </Trackpoint>
          <Trackpoint>
            <Time>2018-12-30T12:40:56.000Z</Time>
            <Position>
              <LatitudeDegrees>40.77944847755134105682373046875</LatitudeDegrees>
              <LongitudeDegrees>-4.0788142941892147064208984375</LongitudeDegrees>
            </Position>
            <AltitudeMeters>1755.800048828125</AltitudeMeters>
            <DistanceMeters>NAN</DistanceMeters>
          </Trackpoint>
          <Trackpoint>
            <Time>2018-12-30T12:40:57.000Z</Time>
            <Position>
              <LatitudeDegrees>40.77943615615367889404296875</LatitudeDegrees>
              <LongitudeDegrees>-4.07880482263863086700439453125</LongitudeDegrees>
            </Position>
            <AltitudeMeters>1756</AltitudeMeters>
            <DistanceMeters>NAN</DistanceMeters>
          </Trackpoint>
          <Trackpoint>
            <Time>2018-12-30T12:40:58.000Z</Time>
            <Position>
              <LatitudeDegrees>40.7794259302318096160888671875</LatitudeDegrees>
              <LongitudeDegrees>-4.0787935070693492889404296875</LongitudeDegrees>
            </Position>
            <AltitudeMeters>1756.199951171875</AltitudeMeters>
            <DistanceMeters>NAN</DistanceMeters>
          </Trackpoint>
          <Trackpoint>
            <Time>2018-12-30T12:40:59.000Z</Time>
            <Position>
              <LatitudeDegrees>40.77941469848155975341796875</LatitudeDegrees>
              <LongitudeDegrees>-4.07878420315682888031005859375</LongitudeDegrees>
            </Position>
            <AltitudeMeters>1756.199951171875</AltitudeMeters>
            <DistanceMeters>NAN</DistanceMeters>
          </Trackpoint>
          <Trackpoint>
            <Time>2018-12-30T12:41:00.000Z</Time>
            <Position>
              <LatitudeDegrees>40.77940472401678562164306640625</LatitudeDegrees>
              <LongitudeDegrees>-4.0787754021584987640380859375</LongitudeDegrees>
            </Position>
            <AltitudeMeters>1756.199951171875</AltitudeMeters>
            <DistanceMeters>NAN</DistanceMeters>
          </Trackpoint>
          <Trackpoint>
            <Time>2018-12-30T12:41:01.000Z</Time>
            <Position>
              <LatitudeDegrees>40.77939324080944061279296875</LatitudeDegrees>
              <LongitudeDegrees>-4.07876509241759777069091796875</LongitudeDegrees>
            </Position>
            <AltitudeMeters>1756.199951171875</AltitudeMeters>
            <DistanceMeters>NAN</DistanceMeters>
          </Trackpoint>
          <Trackpoint>
            <Time>2018-12-30T12:41:02.000Z</Time>
            <Position>
              <LatitudeDegrees>40.77938276343047618865966796875</LatitudeDegrees>
              <LongitudeDegrees>-4.07875520177185535430908203125</LongitudeDegrees>
            </Position>
            <AltitudeMeters>1756.199951171875</AltitudeMeters>
            <DistanceMeters>NAN</DistanceMeters>
          </Trackpoint>
          <Trackpoint>
            <Time>2018-12-30T12:41:03.000Z</Time>
            <Position>
              <LatitudeDegrees>40.7793684303760528564453125</LatitudeDegrees>
              <LongitudeDegrees>-4.07874732278287410736083984375</LongitudeDegrees>
            </Position>
            <AltitudeMeters>1756.199951171875</AltitudeMeters>
            <DistanceMeters>NAN</DistanceMeters>
          </Trackpoint>
          <Trackpoint>
            <Time>2018-12-30T12:41:04.000Z</Time>
            <Position>
              <LatitudeDegrees>40.77935300767421722412109375</LatitudeDegrees>
              <LongitudeDegrees>-4.07874044962227344512939453125</LongitudeDegrees>
            </Position>
            <AltitudeMeters>1756</AltitudeMeters>
            <DistanceMeters>NAN</DistanceMeters>
          </Trackpoint>
          <Trackpoint>
            <Time>2018-12-30T12:41:05.000Z</Time>
            <Position>
              <LatitudeDegrees>40.7793390937149524688720703125</LatitudeDegrees>
              <LongitudeDegrees>-4.07873190008103847503662109375</LongitudeDegrees>
            </Position>
            <AltitudeMeters>1756</AltitudeMeters>
            <DistanceMeters>NAN</DistanceMeters>
          </Trackpoint>
          <Trackpoint>
            <Time>2018-12-30T12:41:06.000Z</Time>
            <Position>
              <LatitudeDegrees>40.77932484447956085205078125</LatitudeDegrees>
              <LongitudeDegrees>-4.07872050069272518157958984375</LongitudeDegrees>
            </Position>
            <AltitudeMeters>1756</AltitudeMeters>
            <DistanceMeters>NAN</DistanceMeters>
          </Trackpoint>
          <Trackpoint>
            <Time>2018-12-30T12:41:07.000Z</Time>
            <Position>
              <LatitudeDegrees>40.77931185252964496612548828125</LatitudeDegrees>
              <LongitudeDegrees>-4.0787105262279510498046875</LongitudeDegrees>
            </Position>
            <AltitudeMeters>1756</AltitudeMeters>
            <DistanceMeters>NAN</DistanceMeters>
          </Trackpoint>
          <Trackpoint>
            <Time>2018-12-30T12:41:08.000Z</Time>
            <Position>
              <LatitudeDegrees>40.77929978258907794952392578125</LatitudeDegrees>
              <LongitudeDegrees>-4.078697450459003448486328125</LongitudeDegrees>
            </Position>
            <AltitudeMeters>1756</AltitudeMeters>
            <DistanceMeters>NAN</DistanceMeters>
          </Trackpoint>
          <Trackpoint>
            <Time>2018-12-30T12:41:09.000Z</Time>
            <Position>
              <LatitudeDegrees>40.7792854495346546173095703125</LatitudeDegrees>
              <LongitudeDegrees>-4.0786837041378021240234375</LongitudeDegrees>
            </Position>
            <AltitudeMeters>1756.199951171875</AltitudeMeters>
            <DistanceMeters>NAN</DistanceMeters>
          </Trackpoint>
          <Trackpoint>
            <Time>2018-12-30T12:41:10.000Z</Time>
            <Position>
              <LatitudeDegrees>40.77927446924149990081787109375</LatitudeDegrees>
              <LongitudeDegrees>-4.07867272384464740753173828125</LongitudeDegrees>
            </Position>
            <AltitudeMeters>1756.199951171875</AltitudeMeters>
            <DistanceMeters>NAN</DistanceMeters>
          </Trackpoint>
          <Trackpoint>
            <Time>2018-12-30T12:41:11.000Z</Time>
            <Position>
              <LatitudeDegrees>40.77926608733832836151123046875</LatitudeDegrees>
              <LongitudeDegrees>-4.07866216264665126800537109375</LongitudeDegrees>
            </Position>
            <AltitudeMeters>1756.4000244140625</AltitudeMeters>
            <DistanceMeters>NAN</DistanceMeters>
          </Trackpoint>
          <Trackpoint>
            <Time>2018-12-30T12:41:12.000Z</Time>
            <Position>
              <LatitudeDegrees>40.77926005236804485321044921875</LatitudeDegrees>
              <LongitudeDegrees>-4.078651852905750274658203125</LongitudeDegrees>
            </Position>
            <AltitudeMeters>1756.5999755859375</AltitudeMeters>
            <DistanceMeters>NAN</DistanceMeters>
          </Trackpoint>
          <Trackpoint>
            <Time>2018-12-30T12:41:13.000Z</Time>
            <Position>
              <LatitudeDegrees>40.7792505808174610137939453125</LatitudeDegrees>
              <LongitudeDegrees>-4.07864305190742015838623046875</LongitudeDegrees>
            </Position>
            <AltitudeMeters>1756.5999755859375</AltitudeMeters>
            <DistanceMeters>NAN</DistanceMeters>
          </Trackpoint>
          <Trackpoint>
            <Time>2018-12-30T12:41:14.000Z</Time>
            <Position>
              <LatitudeDegrees>40.77924295328557491302490234375</LatitudeDegrees>
              <LongitudeDegrees>-4.078631736338138580322265625</LongitudeDegrees>
            </Position>
            <AltitudeMeters>1756.800048828125</AltitudeMeters>
            <DistanceMeters>NAN</DistanceMeters>
          </Trackpoint>
          <Trackpoint>
            <Time>2018-12-30T12:41:15.000Z</Time>
            <Position>
              <LatitudeDegrees>40.77923239208757877349853515625</LatitudeDegrees>
              <LongitudeDegrees>-4.07861991785466670989990234375</LongitudeDegrees>
            </Position>
            <AltitudeMeters>1757</AltitudeMeters>
            <DistanceMeters>NAN</DistanceMeters>
          </Trackpoint>
          <Trackpoint>
            <Time>2018-12-30T12:41:16.000Z</Time>
            <Position>
              <LatitudeDegrees>40.7792157121002674102783203125</LatitudeDegrees>
              <LongitudeDegrees>-4.07861019484698772430419921875</LongitudeDegrees>
            </Position>
            <AltitudeMeters>1757.199951171875</AltitudeMeters>
            <DistanceMeters>NAN</DistanceMeters>
          </Trackpoint>
          <Trackpoint>
            <Time>2018-12-30T12:41:17.000Z</Time>
            <Position>
              <LatitudeDegrees>40.7792056538164615631103515625</LatitudeDegrees>
              <LongitudeDegrees>-4.078599549829959869384765625</LongitudeDegrees>
            </Position>
            <AltitudeMeters>1757.4000244140625</AltitudeMeters>
            <DistanceMeters>NAN</DistanceMeters>
          </Trackpoint>
          <Trackpoint>
            <Time>2018-12-30T12:41:18.000Z</Time>
            <Position>
              <LatitudeDegrees>40.7791945897042751312255859375</LatitudeDegrees>
              <LongitudeDegrees>-4.07858974300324916839599609375</LongitudeDegrees>
            </Position>
            <AltitudeMeters>1757.5999755859375</AltitudeMeters>
            <DistanceMeters>NAN</DistanceMeters>
          </Trackpoint>
          <Trackpoint>
            <Time>2018-12-30T12:41:19.000Z</Time>
            <Position>
              <LatitudeDegrees>40.77918134629726409912109375</LatitudeDegrees>
              <LongitudeDegrees>-4.07858110964298248291015625</LongitudeDegrees>
            </Position>
            <AltitudeMeters>1758</AltitudeMeters>
            <DistanceMeters>NAN</DistanceMeters>
          </Trackpoint>
          <Trackpoint>
            <Time>2018-12-30T12:41:20.000Z</Time>
            <Position>
              <LatitudeDegrees>40.7791687734425067901611328125</LatitudeDegrees>
              <LongitudeDegrees>-4.07857264392077922821044921875</LongitudeDegrees>
            </Position>
            <AltitudeMeters>1758.199951171875</AltitudeMeters>
            <DistanceMeters>NAN</DistanceMeters>
          </Trackpoint>
          <Trackpoint>
            <Time>2018-12-30T12:41:21.000Z</Time>
            <Position>
              <LatitudeDegrees>40.77915628440678119659423828125</LatitudeDegrees>
              <LongitudeDegrees>-4.07856903970241546630859375</LongitudeDegrees>
            </Position>
            <AltitudeMeters>1758.4000244140625</AltitudeMeters>
            <DistanceMeters>NAN</DistanceMeters>
          </Trackpoint>
          <Trackpoint>
            <Time>2018-12-30T12:41:22.000Z</Time>
            <Position>
              <LatitudeDegrees>40.77914421446621417999267578125</LatitudeDegrees>
              <LongitudeDegrees>-4.07856325618922710418701171875</LongitudeDegrees>
            </Position>
            <AltitudeMeters>1758.5999755859375</AltitudeMeters>
            <DistanceMeters>NAN</DistanceMeters>
          </Trackpoint>
          <Trackpoint>
            <Time>2018-12-30T12:41:23.000Z</Time>
            <Position>
              <LatitudeDegrees>40.77913566492497920989990234375</LatitudeDegrees>
              <LongitudeDegrees>-4.078555293381214141845703125</LongitudeDegrees>
            </Position>
            <AltitudeMeters>1758.5999755859375</AltitudeMeters>
            <DistanceMeters>NAN</DistanceMeters>
          </Trackpoint>
          <Trackpoint>
            <Time>2018-12-30T12:41:24.000Z</Time>
            <Position>
              <LatitudeDegrees>40.77912501990795135498046875</LatitudeDegrees>
              <LongitudeDegrees>-4.078542888164520263671875</LongitudeDegrees>
            </Position>
            <AltitudeMeters>1758.5999755859375</AltitudeMeters>
            <DistanceMeters>NAN</DistanceMeters>
          </Trackpoint>
          <Trackpoint>
            <Time>2018-12-30T12:41:25.000Z</Time>
            <Position>
              <LatitudeDegrees>40.7791151292622089385986328125</LatitudeDegrees>
              <LongitudeDegrees>-4.07853148877620697021484375</LongitudeDegrees>
            </Position>
            <AltitudeMeters>1758.5999755859375</AltitudeMeters>
            <DistanceMeters>NAN</DistanceMeters>
          </Trackpoint>
          <Trackpoint>
            <Time>2018-12-30T12:41:26.000Z</Time>
            <Position>
              <LatitudeDegrees>40.77910549007356166839599609375</LatitudeDegrees>
              <LongitudeDegrees>-4.07852050848305225372314453125</LongitudeDegrees>
            </Position>
            <AltitudeMeters>1758.4000244140625</AltitudeMeters>
            <DistanceMeters>NAN</DistanceMeters>
          </Trackpoint>
          <Trackpoint>
            <Time>2018-12-30T12:41:27.000Z</Time>
            <Position>
              <LatitudeDegrees>40.7790940068662166595458984375</LatitudeDegrees>
              <LongitudeDegrees>-4.07851112075150012969970703125</LongitudeDegrees>
            </Position>
            <AltitudeMeters>1758.4000244140625</AltitudeMeters>
            <DistanceMeters>NAN</DistanceMeters>
          </Trackpoint>
          <Trackpoint>
            <Time>2018-12-30T12:41:28.000Z</Time>
            <Position>
              <LatitudeDegrees>40.77908067964017391204833984375</LatitudeDegrees>
              <LongitudeDegrees>-4.078505001962184906005859375</LongitudeDegrees>
            </Position>
            <AltitudeMeters>1758.199951171875</AltitudeMeters>
            <DistanceMeters>NAN</DistanceMeters>
          </Trackpoint>
          <Trackpoint>
            <Time>2018-12-30T12:41:29.000Z</Time>
            <Position>
              <LatitudeDegrees>40.779069364070892333984375</LatitudeDegrees>
              <LongitudeDegrees>-4.07849553041160106658935546875</LongitudeDegrees>
            </Position>
            <AltitudeMeters>1758.199951171875</AltitudeMeters>
            <DistanceMeters>NAN</DistanceMeters>
          </Trackpoint>
          <Trackpoint>
            <Time>2018-12-30T12:41:30.000Z</Time>
            <Position>
              <LatitudeDegrees>40.77906257472932338714599609375</LatitudeDegrees>
              <LongitudeDegrees>-4.078488908708095550537109375</LongitudeDegrees>
            </Position>
            <AltitudeMeters>1758.199951171875</AltitudeMeters>
            <DistanceMeters>NAN</DistanceMeters>
          </Trackpoint>
          <Trackpoint>
            <Time>2018-12-30T12:41:31.000Z</Time>
            <Position>
              <LatitudeDegrees>40.77905469574034214019775390625</LatitudeDegrees>
              <LongitudeDegrees>-4.0784837119281291961669921875</LongitudeDegrees>
            </Position>
            <AltitudeMeters>1758.199951171875</AltitudeMeters>
            <DistanceMeters>NAN</DistanceMeters>
          </Trackpoint>
          <Trackpoint>
            <Time>2018-12-30T12:41:32.000Z</Time>
            <Position>
              <LatitudeDegrees>40.77904329635202884674072265625</LatitudeDegrees>
              <LongitudeDegrees>-4.07847658731043338775634765625</LongitudeDegrees>
            </Position>
            <AltitudeMeters>1758</AltitudeMeters>
            <DistanceMeters>NAN</DistanceMeters>
          </Trackpoint>
          <Trackpoint>
            <Time>2018-12-30T12:41:33.000Z</Time>
            <Position>
              <LatitudeDegrees>40.779028795659542083740234375</LatitudeDegrees>
              <LongitudeDegrees>-4.07846988178789615631103515625</LongitudeDegrees>
            </Position>
            <AltitudeMeters>1758</AltitudeMeters>
            <DistanceMeters>NAN</DistanceMeters>
          </Trackpoint>
          <Trackpoint>
            <Time>2018-12-30T12:41:34.000Z</Time>
            <Position>
              <LatitudeDegrees>40.77901831828057765960693359375</LatitudeDegrees>
              <LongitudeDegrees>-4.0784642659127712249755859375</LongitudeDegrees>
            </Position>
            <AltitudeMeters>1758</AltitudeMeters>
            <DistanceMeters>NAN</DistanceMeters>
          </Trackpoint>
          <Trackpoint>
            <Time>2018-12-30T12:41:35.000Z</Time>
            <Position>
              <LatitudeDegrees>40.77900432050228118896484375</LatitudeDegrees>
              <LongitudeDegrees>-4.07845370471477508544921875</LongitudeDegrees>
            </Position>
            <AltitudeMeters>1758</AltitudeMeters>
            <DistanceMeters>NAN</DistanceMeters>
          </Trackpoint>
          <Trackpoint>
            <Time>2018-12-30T12:41:36.000Z</Time>
            <Position>
              <LatitudeDegrees>40.7789924181997776031494140625</LatitudeDegrees>
              <LongitudeDegrees>-4.0784438140690326690673828125</LongitudeDegrees>
            </Position>
            <AltitudeMeters>1758.199951171875</AltitudeMeters>
            <DistanceMeters>NAN</DistanceMeters>
          </Trackpoint>
          <Trackpoint>
            <Time>2018-12-30T12:41:37.000Z</Time>
            <Position>
              <LatitudeDegrees>40.778977163136005401611328125</LatitudeDegrees>
              <LongitudeDegrees>-4.078434593975543975830078125</LongitudeDegrees>
            </Position>
            <AltitudeMeters>1758.4000244140625</AltitudeMeters>
            <DistanceMeters>NAN</DistanceMeters>
          </Trackpoint>
          <Trackpoint>
            <Time>2018-12-30T12:41:38.000Z</Time>
            <Position>
              <LatitudeDegrees>40.7789609022438526153564453125</LatitudeDegrees>
              <LongitudeDegrees>-4.0784253738820552825927734375</LongitudeDegrees>
            </Position>
            <AltitudeMeters>1758.5999755859375</AltitudeMeters>
            <DistanceMeters>NAN</DistanceMeters>
          </Trackpoint>
          <Trackpoint>
            <Time>2018-12-30T12:41:39.000Z</Time>
            <Position>
              <LatitudeDegrees>40.77894824557006359100341796875</LatitudeDegrees>
              <LongitudeDegrees>-4.0784181654453277587890625</LongitudeDegrees>
            </Position>
            <AltitudeMeters>1758.800048828125</AltitudeMeters>
            <DistanceMeters>NAN</DistanceMeters>
          </Trackpoint>
          <Trackpoint>
            <Time>2018-12-30T12:41:40.000Z</Time>
            <Position>
              <LatitudeDegrees>40.778934247791767120361328125</LatitudeDegrees>
              <LongitudeDegrees>-4.0784128010272979736328125</LongitudeDegrees>
            </Position>
            <AltitudeMeters>1759</AltitudeMeters>
            <DistanceMeters>NAN</DistanceMeters>
          </Trackpoint>
          <Trackpoint>
            <Time>2018-12-30T12:41:41.000Z</Time>
            <Position>
              <LatitudeDegrees>40.77891756780445575714111328125</LatitudeDegrees>
              <LongitudeDegrees>-4.07840299420058727264404296875</LongitudeDegrees>
            </Position>
            <AltitudeMeters>1759</AltitudeMeters>
            <DistanceMeters>NAN</DistanceMeters>
          </Trackpoint>
          <Trackpoint>
            <Time>2018-12-30T12:41:42.000Z</Time>
            <Position>
              <LatitudeDegrees>40.77890641987323760986328125</LatitudeDegrees>
              <LongitudeDegrees>-4.078398048877716064453125</LongitudeDegrees>
            </Position>
            <AltitudeMeters>1759</AltitudeMeters>
            <DistanceMeters>NAN</DistanceMeters>
          </Trackpoint>
          <Trackpoint>
            <Time>2018-12-30T12:41:43.000Z</Time>
            <Position>
              <LatitudeDegrees>40.7788961939513683319091796875</LatitudeDegrees>
              <LongitudeDegrees>-4.07839125953614711761474609375</LongitudeDegrees>
            </Position>
            <AltitudeMeters>1759</AltitudeMeters>
            <DistanceMeters>NAN</DistanceMeters>
          </Trackpoint>
          <Trackpoint>
            <Time>2018-12-30T12:41:44.000Z</Time>
            <Position>
              <LatitudeDegrees>40.77888890169560909271240234375</LatitudeDegrees>
              <LongitudeDegrees>-4.07838623039424419403076171875</LongitudeDegrees>
            </Position>
            <AltitudeMeters>1759</AltitudeMeters>
            <DistanceMeters>NAN</DistanceMeters>
          </Trackpoint>
          <Trackpoint>
            <Time>2018-12-30T12:41:45.000Z</Time>
            <Position>
              <LatitudeDegrees>40.77888001687824726104736328125</LatitudeDegrees>
              <LongitudeDegrees>-4.07838136889040470123291015625</LongitudeDegrees>
            </Position>
            <AltitudeMeters>1759.199951171875</AltitudeMeters>
            <DistanceMeters>NAN</DistanceMeters>
          </Trackpoint>
          <Trackpoint>
            <Time>2018-12-30T12:41:46.000Z</Time>
            <Position>
              <LatitudeDegrees>40.77886844985187053680419921875</LatitudeDegrees>
              <LongitudeDegrees>-4.078374914824962615966796875</LongitudeDegrees>
            </Position>
            <AltitudeMeters>1759.199951171875</AltitudeMeters>
            <DistanceMeters>NAN</DistanceMeters>
          </Trackpoint>
          <Trackpoint>
            <Time>2018-12-30T12:41:47.000Z</Time>
            <Position>
              <LatitudeDegrees>40.778859145939350128173828125</LatitudeDegrees>
              <LongitudeDegrees>-4.07837055623531341552734375</LongitudeDegrees>
            </Position>
            <AltitudeMeters>1759.199951171875</AltitudeMeters>
            <DistanceMeters>NAN</DistanceMeters>
          </Trackpoint>
          <Trackpoint>
            <Time>2018-12-30T12:41:48.000Z</Time>
            <Position>
              <LatitudeDegrees>40.7788495905697345733642578125</LatitudeDegrees>
              <LongitudeDegrees>-4.07836091704666614532470703125</LongitudeDegrees>
            </Position>
            <AltitudeMeters>1759.199951171875</AltitudeMeters>
            <DistanceMeters>NAN</DistanceMeters>
          </Trackpoint>
          <Trackpoint>
            <Time>2018-12-30T12:41:49.000Z</Time>
            <Position>
              <LatitudeDegrees>40.778836347162723541259765625</LatitudeDegrees>
              <LongitudeDegrees>-4.07835773192346096038818359375</LongitudeDegrees>
            </Position>
            <AltitudeMeters>1759.199951171875</AltitudeMeters>
            <DistanceMeters>NAN</DistanceMeters>
          </Trackpoint>
          <Trackpoint>
            <Time>2018-12-30T12:41:50.000Z</Time>
            <Position>
              <LatitudeDegrees>40.77882151119410991668701171875</LatitudeDegrees>
              <LongitudeDegrees>-4.07835043966770172119140625</LongitudeDegrees>
            </Position>
            <AltitudeMeters>1759.199951171875</AltitudeMeters>
            <DistanceMeters>NAN</DistanceMeters>
          </Trackpoint>
          <Trackpoint>
            <Time>2018-12-30T12:41:51.000Z</Time>
            <Position>
              <LatitudeDegrees>40.77880944125354290008544921875</LatitudeDegrees>
              <LongitudeDegrees>-4.078346751630306243896484375</LongitudeDegrees>
            </Position>
            <AltitudeMeters>1759.199951171875</AltitudeMeters>
            <DistanceMeters>NAN</DistanceMeters>
          </Trackpoint>
          <Trackpoint>
            <Time>2018-12-30T12:41:52.000Z</Time>
            <Position>
              <LatitudeDegrees>40.77879519201815128326416015625</LatitudeDegrees>
              <LongitudeDegrees>-4.07834096811711788177490234375</LongitudeDegrees>
            </Position>
            <AltitudeMeters>1759.4000244140625</AltitudeMeters>
            <DistanceMeters>NAN</DistanceMeters>
          </Trackpoint>
          <Trackpoint>
            <Time>2018-12-30T12:41:53.000Z</Time>
            <Position>
              <LatitudeDegrees>40.77877993695437908172607421875</LatitudeDegrees>
              <LongitudeDegrees>-4.0783368609845638275146484375</LongitudeDegrees>
            </Position>
            <AltitudeMeters>1759.4000244140625</AltitudeMeters>
            <DistanceMeters>NAN</DistanceMeters>
          </Trackpoint>
          <Trackpoint>
            <Time>2018-12-30T12:41:54.000Z</Time>
            <Position>
              <LatitudeDegrees>40.77876702882349491119384765625</LatitudeDegrees>
              <LongitudeDegrees>-4.07833426259458065032958984375</LongitudeDegrees>
            </Position>
            <AltitudeMeters>1759.4000244140625</AltitudeMeters>
            <DistanceMeters>NAN</DistanceMeters>
          </Trackpoint>
          <Trackpoint>
            <Time>2018-12-30T12:41:55.000Z</Time>
            <Position>
              <LatitudeDegrees>40.7787568867206573486328125</LatitudeDegrees>
              <LongitudeDegrees>-4.07833300530910491943359375</LongitudeDegrees>
            </Position>
            <AltitudeMeters>1759.4000244140625</AltitudeMeters>
            <DistanceMeters>NAN</DistanceMeters>
          </Trackpoint>
          <Trackpoint>
            <Time>2018-12-30T12:41:56.000Z</Time>
            <Position>
              <LatitudeDegrees>40.77874791808426380157470703125</LatitudeDegrees>
              <LongitudeDegrees>-4.07832973636686801910400390625</LongitudeDegrees>
            </Position>
            <AltitudeMeters>1759.199951171875</AltitudeMeters>
            <DistanceMeters>NAN</DistanceMeters>
          </Trackpoint>
          <Trackpoint>
            <Time>2018-12-30T12:41:57.000Z</Time>
            <Position>
              <LatitudeDegrees>40.77873802743852138519287109375</LatitudeDegrees>
              <LongitudeDegrees>-4.0783268027007579803466796875</LongitudeDegrees>
            </Position>
            <AltitudeMeters>1759.4000244140625</AltitudeMeters>
            <DistanceMeters>NAN</DistanceMeters>
          </Trackpoint>
          <Trackpoint>
            <Time>2018-12-30T12:41:58.000Z</Time>
            <Position>
              <LatitudeDegrees>40.77872813679277896881103515625</LatitudeDegrees>
              <LongitudeDegrees>-4.07832470722496509552001953125</LongitudeDegrees>
            </Position>
            <AltitudeMeters>1759.4000244140625</AltitudeMeters>
            <DistanceMeters>NAN</DistanceMeters>
          </Trackpoint>
          <Trackpoint>
            <Time>2018-12-30T12:41:59.000Z</Time>
            <Position>
              <LatitudeDegrees>40.778716318309307098388671875</LatitudeDegrees>
              <LongitudeDegrees>-4.0783261321485042572021484375</LongitudeDegrees>
            </Position>
            <AltitudeMeters>1759.4000244140625</AltitudeMeters>
            <DistanceMeters>NAN</DistanceMeters>
          </Trackpoint>
          <Trackpoint>
            <Time>2018-12-30T12:42:00.000Z</Time>
            <Position>
              <LatitudeDegrees>40.77870416454970836639404296875</LatitudeDegrees>
              <LongitudeDegrees>-4.078325964510440826416015625</LongitudeDegrees>
            </Position>
            <AltitudeMeters>1759.4000244140625</AltitudeMeters>
            <DistanceMeters>NAN</DistanceMeters>
          </Trackpoint>
          <Trackpoint>
            <Time>2018-12-30T12:42:01.000Z</Time>
            <Position>
              <LatitudeDegrees>40.7786946929991245269775390625</LatitudeDegrees>
              <LongitudeDegrees>-4.07833023928105831146240234375</LongitudeDegrees>
            </Position>
            <AltitudeMeters>1759.4000244140625</AltitudeMeters>
            <DistanceMeters>NAN</DistanceMeters>
          </Trackpoint>
          <Trackpoint>
            <Time>2018-12-30T12:42:02.000Z</Time>
            <Position>
              <LatitudeDegrees>40.77867650426924228668212890625</LatitudeDegrees>
              <LongitudeDegrees>-4.0783288143575191497802734375</LongitudeDegrees>
            </Position>
            <AltitudeMeters>1759.4000244140625</AltitudeMeters>
            <DistanceMeters>NAN</DistanceMeters>
          </Trackpoint>
          <Trackpoint>
            <Time>2018-12-30T12:42:03.000Z</Time>
            <Position>
              <LatitudeDegrees>40.77866099774837493896484375</LatitudeDegrees>
              <LongitudeDegrees>-4.0783271379768848419189453125</LongitudeDegrees>
            </Position>
            <AltitudeMeters>1759.4000244140625</AltitudeMeters>
            <DistanceMeters>NAN</DistanceMeters>
          </Trackpoint>
          <Trackpoint>
            <Time>2018-12-30T12:42:04.000Z</Time>
            <Position>
              <LatitudeDegrees>40.77864565886557102203369140625</LatitudeDegrees>
              <LongitudeDegrees>-4.078327976167201995849609375</LongitudeDegrees>
            </Position>
            <AltitudeMeters>1759.5999755859375</AltitudeMeters>
            <DistanceMeters>NAN</DistanceMeters>
          </Trackpoint>
          <Trackpoint>
            <Time>2018-12-30T12:42:05.000Z</Time>
            <Position>
              <LatitudeDegrees>40.77863375656306743621826171875</LatitudeDegrees>
              <LongitudeDegrees>-4.0783278085291385650634765625</LongitudeDegrees>
            </Position>
            <AltitudeMeters>1759.5999755859375</AltitudeMeters>
            <DistanceMeters>NAN</DistanceMeters>
          </Trackpoint>
          <Trackpoint>
            <Time>2018-12-30T12:42:06.000Z</Time>
            <Position>
              <LatitudeDegrees>40.77862453646957874298095703125</LatitudeDegrees>
              <LongitudeDegrees>-4.0783271379768848419189453125</LongitudeDegrees>
            </Position>
            <AltitudeMeters>1759.800048828125</AltitudeMeters>
            <DistanceMeters>NAN</DistanceMeters>
          </Trackpoint>
          <Trackpoint>
            <Time>2018-12-30T12:42:07.000Z</Time>
            <Position>
              <LatitudeDegrees>40.77861196361482143402099609375</LatitudeDegrees>
              <LongitudeDegrees>-4.07832805998623371124267578125</LongitudeDegrees>
            </Position>
            <AltitudeMeters>1759.800048828125</AltitudeMeters>
            <DistanceMeters>NAN</DistanceMeters>
          </Trackpoint>
          <Trackpoint>
            <Time>2018-12-30T12:42:08.000Z</Time>
            <Position>
              <LatitudeDegrees>40.77859939076006412506103515625</LatitudeDegrees>
              <LongitudeDegrees>-4.0783296525478363037109375</LongitudeDegrees>
            </Position>
            <AltitudeMeters>1760</AltitudeMeters>
            <DistanceMeters>NAN</DistanceMeters>
          </Trackpoint>
          <Trackpoint>
            <Time>2018-12-30T12:42:09.000Z</Time>
            <Position>
              <LatitudeDegrees>40.7785823754966259002685546875</LatitudeDegrees>
              <LongitudeDegrees>-4.07833191566169261932373046875</LongitudeDegrees>
            </Position>
            <AltitudeMeters>1760</AltitudeMeters>
            <DistanceMeters>NAN</DistanceMeters>
          </Trackpoint>
          <Trackpoint>
            <Time>2018-12-30T12:42:10.000Z</Time>
            <Position>
              <LatitudeDegrees>40.7785656116902828216552734375</LatitudeDegrees>
              <LongitudeDegrees>-4.07833057455718517303466796875</LongitudeDegrees>
            </Position>
            <AltitudeMeters>1760</AltitudeMeters>
            <DistanceMeters>NAN</DistanceMeters>
          </Trackpoint>
          <Trackpoint>
            <Time>2018-12-30T12:42:11.000Z</Time>
            <Position>
              <LatitudeDegrees>40.77855261974036693572998046875</LatitudeDegrees>
              <LongitudeDegrees>-4.0783304907381534576416015625</LongitudeDegrees>
            </Position>
            <AltitudeMeters>1760</AltitudeMeters>
            <DistanceMeters>NAN</DistanceMeters>
          </Trackpoint>
          <Trackpoint>
            <Time>2018-12-30T12:42:12.000Z</Time>
            <Position>
              <LatitudeDegrees>40.77854029834270477294921875</LatitudeDegrees>
              <LongitudeDegrees>-4.078333675861358642578125</LongitudeDegrees>
            </Position>
            <AltitudeMeters>1760</AltitudeMeters>
            <DistanceMeters>NAN</DistanceMeters>
          </Trackpoint>
          <Trackpoint>
            <Time>2018-12-30T12:42:13.000Z</Time>
            <Position>
              <LatitudeDegrees>40.77852613292634487152099609375</LatitudeDegrees>
              <LongitudeDegrees>-4.078338034451007843017578125</LongitudeDegrees>
            </Position>
            <AltitudeMeters>1760</AltitudeMeters>
            <DistanceMeters>NAN</DistanceMeters>
          </Trackpoint>
          <Trackpoint>
            <Time>2018-12-30T12:42:14.000Z</Time>
            <Position>
              <LatitudeDegrees>40.77851154841482639312744140625</LatitudeDegrees>
              <LongitudeDegrees>-4.078342057764530181884765625</LongitudeDegrees>
            </Position>
            <AltitudeMeters>1760</AltitudeMeters>
            <DistanceMeters>NAN</DistanceMeters>
          </Trackpoint>
          <Trackpoint>
            <Time>2018-12-30T12:42:15.000Z</Time>
            <Position>
              <LatitudeDegrees>40.7784985564649105072021484375</LatitudeDegrees>
              <LongitudeDegrees>-4.07834549434483051300048828125</LongitudeDegrees>
            </Position>
            <AltitudeMeters>1759.800048828125</AltitudeMeters>
            <DistanceMeters>NAN</DistanceMeters>
          </Trackpoint>
          <Trackpoint>
            <Time>2018-12-30T12:42:16.000Z</Time>
            <Position>
              <LatitudeDegrees>40.77848640270531177520751953125</LatitudeDegrees>
              <LongitudeDegrees>-4.07835303805768489837646484375</LongitudeDegrees>
            </Position>
            <AltitudeMeters>1759.800048828125</AltitudeMeters>
            <DistanceMeters>NAN</DistanceMeters>
          </Trackpoint>
          <Trackpoint>
            <Time>2018-12-30T12:42:17.000Z</Time>
            <Position>
              <LatitudeDegrees>40.77847701497375965118408203125</LatitudeDegrees>
              <LongitudeDegrees>-4.078360162675380706787109375</LongitudeDegrees>
            </Position>
            <AltitudeMeters>1759.800048828125</AltitudeMeters>
            <DistanceMeters>NAN</DistanceMeters>
          </Trackpoint>
          <Trackpoint>
            <Time>2018-12-30T12:42:18.000Z</Time>
            <Position>
              <LatitudeDegrees>40.778466872870922088623046875</LatitudeDegrees>
              <LongitudeDegrees>-4.078367538750171661376953125</LongitudeDegrees>
            </Position>
            <AltitudeMeters>1759.800048828125</AltitudeMeters>
            <DistanceMeters>NAN</DistanceMeters>
          </Trackpoint>
          <Trackpoint>
            <Time>2018-12-30T12:42:19.000Z</Time>
            <Position>
              <LatitudeDegrees>40.77846108935773372650146484375</LatitudeDegrees>
              <LongitudeDegrees>-4.078373573720455169677734375</LongitudeDegrees>
            </Position>
            <AltitudeMeters>1760</AltitudeMeters>
            <DistanceMeters>NAN</DistanceMeters>
          </Trackpoint>
          <Trackpoint>
            <Time>2018-12-30T12:42:20.000Z</Time>
            <Position>
              <LatitudeDegrees>40.7784506119787693023681640625</LatitudeDegrees>
              <LongitudeDegrees>-4.0783817879855632781982421875</LongitudeDegrees>
            </Position>
            <AltitudeMeters>1760</AltitudeMeters>
            <DistanceMeters>NAN</DistanceMeters>
          </Trackpoint>
          <Trackpoint>
            <Time>2018-12-30T12:42:21.000Z</Time>
            <Position>
              <LatitudeDegrees>40.77843979932367801666259765625</LatitudeDegrees>
              <LongitudeDegrees>-4.0783901698887348175048828125</LongitudeDegrees>
            </Position>
            <AltitudeMeters>1760</AltitudeMeters>
            <DistanceMeters>NAN</DistanceMeters>
          </Trackpoint>
          <Trackpoint>
            <Time>2018-12-30T12:42:22.000Z</Time>
            <Position>
              <LatitudeDegrees>40.77842890284955501556396484375</LatitudeDegrees>
              <LongitudeDegrees>-4.078401066362857818603515625</LongitudeDegrees>
            </Position>
            <AltitudeMeters>1760</AltitudeMeters>
            <DistanceMeters>NAN</DistanceMeters>
          </Trackpoint>
          <Trackpoint>
            <Time>2018-12-30T12:42:23.000Z</Time>
            <Position>
              <LatitudeDegrees>40.77842018567025661468505859375</LatitudeDegrees>
              <LongitudeDegrees>-4.0784074366092681884765625</LongitudeDegrees>
            </Position>
            <AltitudeMeters>1760.199951171875</AltitudeMeters>
            <DistanceMeters>NAN</DistanceMeters>
          </Trackpoint>
          <Trackpoint>
            <Time>2018-12-30T12:42:24.000Z</Time>
            <Position>
              <LatitudeDegrees>40.7784127257764339447021484375</LatitudeDegrees>
              <LongitudeDegrees>-4.07841472886502742767333984375</LongitudeDegrees>
            </Position>
            <AltitudeMeters>1760.199951171875</AltitudeMeters>
            <DistanceMeters>NAN</DistanceMeters>
          </Trackpoint>
          <Trackpoint>
            <Time>2018-12-30T12:42:25.000Z</Time>
            <Position>
              <LatitudeDegrees>40.77840325422585010528564453125</LatitudeDegrees>
              <LongitudeDegrees>-4.07842394895851612091064453125</LongitudeDegrees>
            </Position>
            <AltitudeMeters>1760.4000244140625</AltitudeMeters>
            <DistanceMeters>NAN</DistanceMeters>
          </Trackpoint>
          <Trackpoint>
            <Time>2018-12-30T12:42:26.000Z</Time>
            <Position>
              <LatitudeDegrees>40.77839721925556659698486328125</LatitudeDegrees>
              <LongitudeDegrees>-4.07842981629073619842529296875</LongitudeDegrees>
            </Position>
            <AltitudeMeters>1760.4000244140625</AltitudeMeters>
            <DistanceMeters>NAN</DistanceMeters>
          </Trackpoint>
          <Trackpoint>
            <Time>2018-12-30T12:42:27.000Z</Time>
            <Position>
              <LatitudeDegrees>40.77838850207626819610595703125</LatitudeDegrees>
              <LongitudeDegrees>-4.0784374438226222991943359375</LongitudeDegrees>
            </Position>
            <AltitudeMeters>1760.5999755859375</AltitudeMeters>
            <DistanceMeters>NAN</DistanceMeters>
          </Trackpoint>
          <Trackpoint>
            <Time>2018-12-30T12:42:28.000Z</Time>
            <Position>
              <LatitudeDegrees>40.7783785276114940643310546875</LatitudeDegrees>
              <LongitudeDegrees>-4.07844473607838153839111328125</LongitudeDegrees>
            </Position>
            <AltitudeMeters>1760.5999755859375</AltitudeMeters>
            <DistanceMeters>NAN</DistanceMeters>
          </Trackpoint>
          <Trackpoint>
            <Time>2018-12-30T12:42:29.000Z</Time>
            <Position>
              <LatitudeDegrees>40.77836704440414905548095703125</LatitudeDegrees>
              <LongitudeDegrees>-4.07845563255250453948974609375</LongitudeDegrees>
            </Position>
            <AltitudeMeters>1760.5999755859375</AltitudeMeters>
            <DistanceMeters>NAN</DistanceMeters>
          </Trackpoint>
          <Trackpoint>
            <Time>2018-12-30T12:42:30.000Z</Time>
            <Position>
              <LatitudeDegrees>40.778356231749057769775390625</LatitudeDegrees>
              <LongitudeDegrees>-4.07847004942595958709716796875</LongitudeDegrees>
            </Position>
            <AltitudeMeters>1760.800048828125</AltitudeMeters>
            <DistanceMeters>NAN</DistanceMeters>
          </Trackpoint>
          <Trackpoint>
            <Time>2018-12-30T12:42:31.000Z</Time>
            <Position>
              <LatitudeDegrees>40.77834323979914188385009765625</LatitudeDegrees>
              <LongitudeDegrees>-4.078480862081050872802734375</LongitudeDegrees>
            </Position>
            <AltitudeMeters>1761</AltitudeMeters>
            <DistanceMeters>NAN</DistanceMeters>
          </Trackpoint>
          <Trackpoint>
            <Time>2018-12-30T12:42:32.000Z</Time>
            <Position>
              <LatitudeDegrees>40.7783305831253528594970703125</LatitudeDegrees>
              <LongitudeDegrees>-4.07849259674549102783203125</LongitudeDegrees>
            </Position>
            <AltitudeMeters>1761.199951171875</AltitudeMeters>
            <DistanceMeters>NAN</DistanceMeters>
          </Trackpoint>
          <Trackpoint>
            <Time>2018-12-30T12:42:33.000Z</Time>
            <Position>
              <LatitudeDegrees>40.778318680822849273681640625</LatitudeDegrees>
              <LongitudeDegrees>-4.078503660857677459716796875</LongitudeDegrees>
            </Position>
            <AltitudeMeters>1761.4000244140625</AltitudeMeters>
            <DistanceMeters>NAN</DistanceMeters>
          </Trackpoint>
          <Trackpoint>
            <Time>2018-12-30T12:42:34.000Z</Time>
            <Position>
              <LatitudeDegrees>40.77830719761550426483154296875</LatitudeDegrees>
              <LongitudeDegrees>-4.07851480878889560699462890625</LongitudeDegrees>
            </Position>
            <AltitudeMeters>1761.5999755859375</AltitudeMeters>
            <DistanceMeters>NAN</DistanceMeters>
          </Trackpoint>
          <Trackpoint>
            <Time>2018-12-30T12:42:35.000Z</Time>
            <Position>
              <LatitudeDegrees>40.77829848043620586395263671875</LatitudeDegrees>
              <LongitudeDegrees>-4.078527130186557769775390625</LongitudeDegrees>
            </Position>
            <AltitudeMeters>1761.5999755859375</AltitudeMeters>
            <DistanceMeters>NAN</DistanceMeters>
          </Trackpoint>
          <Trackpoint>
            <Time>2018-12-30T12:42:36.000Z</Time>
            <Position>
              <LatitudeDegrees>40.778291188180446624755859375</LatitudeDegrees>
              <LongitudeDegrees>-4.07853844575583934783935546875</LongitudeDegrees>
            </Position>
            <AltitudeMeters>1761.800048828125</AltitudeMeters>
            <DistanceMeters>NAN</DistanceMeters>
          </Trackpoint>
          <Trackpoint>
            <Time>2018-12-30T12:42:37.000Z</Time>
            <Position>
              <LatitudeDegrees>40.77828205190598964691162109375</LatitudeDegrees>
              <LongitudeDegrees>-4.0785487554967403411865234375</LongitudeDegrees>
            </Position>
            <AltitudeMeters>1761.800048828125</AltitudeMeters>
            <DistanceMeters>NAN</DistanceMeters>
          </Trackpoint>
          <Trackpoint>
            <Time>2018-12-30T12:42:38.000Z</Time>
            <Position>
              <LatitudeDegrees>40.77827484346926212310791015625</LatitudeDegrees>
              <LongitudeDegrees>-4.0785611607134342193603515625</LongitudeDegrees>
            </Position>
            <AltitudeMeters>1761.800048828125</AltitudeMeters>
            <DistanceMeters>NAN</DistanceMeters>
          </Trackpoint>
          <Trackpoint>
            <Time>2018-12-30T12:42:39.000Z</Time>
            <Position>
              <LatitudeDegrees>40.7782678864896297454833984375</LatitudeDegrees>
              <LongitudeDegrees>-4.07857465557754039764404296875</LongitudeDegrees>
            </Position>
            <AltitudeMeters>1761.800048828125</AltitudeMeters>
            <DistanceMeters>NAN</DistanceMeters>
          </Trackpoint>
          <Trackpoint>
            <Time>2018-12-30T12:42:40.000Z</Time>
            <Position>
              <LatitudeDegrees>40.7782571576535701751708984375</LatitudeDegrees>
              <LongitudeDegrees>-4.07858756370842456817626953125</LongitudeDegrees>
            </Position>
            <AltitudeMeters>1762</AltitudeMeters>
            <DistanceMeters>NAN</DistanceMeters>
          </Trackpoint>
          <Trackpoint>
            <Time>2018-12-30T12:42:41.000Z</Time>
            <Position>
              <LatitudeDegrees>40.77824751846492290496826171875</LatitudeDegrees>
              <LongitudeDegrees>-4.07859594561159610748291015625</LongitudeDegrees>
            </Position>
            <AltitudeMeters>1762</AltitudeMeters>
            <DistanceMeters>NAN</DistanceMeters>
          </Trackpoint>
          <Trackpoint>
            <Time>2018-12-30T12:42:42.000Z</Time>
            <Position>
              <LatitudeDegrees>40.77823427505791187286376953125</LatitudeDegrees>
              <LongitudeDegrees>-4.07860164530575275421142578125</LongitudeDegrees>
            </Position>
            <AltitudeMeters>1762</AltitudeMeters>
            <DistanceMeters>NAN</DistanceMeters>
          </Trackpoint>
          <Trackpoint>
            <Time>2018-12-30T12:42:43.000Z</Time>
            <Position>
              <LatitudeDegrees>40.778222121298313140869140625</LatitudeDegrees>
              <LongitudeDegrees>-4.0786077640950679779052734375</LongitudeDegrees>
            </Position>
            <AltitudeMeters>1762</AltitudeMeters>
            <DistanceMeters>NAN</DistanceMeters>
          </Trackpoint>
          <Trackpoint>
            <Time>2018-12-30T12:42:44.000Z</Time>
            <Position>
              <LatitudeDegrees>40.77821080572903156280517578125</LatitudeDegrees>
              <LongitudeDegrees>-4.07861530780792236328125</LongitudeDegrees>
            </Position>
            <AltitudeMeters>1762</AltitudeMeters>
            <DistanceMeters>NAN</DistanceMeters>
          </Trackpoint>
          <Trackpoint>
            <Time>2018-12-30T12:42:45.000Z</Time>
            <Position>
              <LatitudeDegrees>40.77819890342652797698974609375</LatitudeDegrees>
              <LongitudeDegrees>-4.07862645573914051055908203125</LongitudeDegrees>
            </Position>
            <AltitudeMeters>1762</AltitudeMeters>
            <DistanceMeters>NAN</DistanceMeters>
          </Trackpoint>
          <Trackpoint>
            <Time>2018-12-30T12:42:46.000Z</Time>
            <Position>
              <LatitudeDegrees>40.77818666584789752960205078125</LatitudeDegrees>
              <LongitudeDegrees>-4.0786382742226123809814453125</LongitudeDegrees>
            </Position>
            <AltitudeMeters>1762.199951171875</AltitudeMeters>
            <DistanceMeters>NAN</DistanceMeters>
          </Trackpoint>
          <Trackpoint>
            <Time>2018-12-30T12:42:47.000Z</Time>
            <Position>
              <LatitudeDegrees>40.77817526645958423614501953125</LatitudeDegrees>
              <LongitudeDegrees>-4.07864942215383052825927734375</LongitudeDegrees>
            </Position>
            <AltitudeMeters>1762.199951171875</AltitudeMeters>
            <DistanceMeters>NAN</DistanceMeters>
          </Trackpoint>
          <Trackpoint>
            <Time>2018-12-30T12:42:48.000Z</Time>
            <Position>
              <LatitudeDegrees>40.7781693153083324432373046875</LatitudeDegrees>
              <LongitudeDegrees>-4.07865696586668491363525390625</LongitudeDegrees>
            </Position>
            <AltitudeMeters>1762.199951171875</AltitudeMeters>
            <DistanceMeters>NAN</DistanceMeters>
          </Trackpoint>
          <Trackpoint>
            <Time>2018-12-30T12:42:49.000Z</Time>
            <Position>
              <LatitudeDegrees>40.7781622745096683502197265625</LatitudeDegrees>
              <LongitudeDegrees>-4.07866551540791988372802734375</LongitudeDegrees>
            </Position>
            <AltitudeMeters>1762.199951171875</AltitudeMeters>
            <DistanceMeters>NAN</DistanceMeters>
          </Trackpoint>
          <Trackpoint>
            <Time>2018-12-30T12:42:50.000Z</Time>
            <Position>
              <LatitudeDegrees>40.77815230004489421844482421875</LatitudeDegrees>
              <LongitudeDegrees>-4.07867322675883769989013671875</LongitudeDegrees>
            </Position>
            <AltitudeMeters>1762.199951171875</AltitudeMeters>
            <DistanceMeters>NAN</DistanceMeters>
          </Trackpoint>
          <Trackpoint>
            <Time>2018-12-30T12:42:51.000Z</Time>
            <Position>
              <LatitudeDegrees>40.77813771553337574005126953125</LatitudeDegrees>
              <LongitudeDegrees>-4.07867808826267719268798828125</LongitudeDegrees>
            </Position>
            <AltitudeMeters>1762.199951171875</AltitudeMeters>
            <DistanceMeters>NAN</DistanceMeters>
          </Trackpoint>
          <Trackpoint>
            <Time>2018-12-30T12:42:52.000Z</Time>
            <Position>
              <LatitudeDegrees>40.778124891221523284912109375</LatitudeDegrees>
              <LongitudeDegrees>-4.0786865539848804473876953125</LongitudeDegrees>
            </Position>
            <AltitudeMeters>1762.199951171875</AltitudeMeters>
            <DistanceMeters>NAN</DistanceMeters>
          </Trackpoint>
          <Trackpoint>
            <Time>2018-12-30T12:42:53.000Z</Time>
            <Position>
              <LatitudeDegrees>40.778110139071941375732421875</LatitudeDegrees>
              <LongitudeDegrees>-4.0786939300596714019775390625</LongitudeDegrees>
            </Position>
            <AltitudeMeters>1762.199951171875</AltitudeMeters>
            <DistanceMeters>NAN</DistanceMeters>
          </Trackpoint>
          <Trackpoint>
            <Time>2018-12-30T12:42:54.000Z</Time>
            <Position>
              <LatitudeDegrees>40.77809773385524749755859375</LatitudeDegrees>
              <LongitudeDegrees>-4.07870088703930377960205078125</LongitudeDegrees>
            </Position>
            <AltitudeMeters>1762.199951171875</AltitudeMeters>
            <DistanceMeters>NAN</DistanceMeters>
          </Trackpoint>
          <Trackpoint>
            <Time>2018-12-30T12:42:55.000Z</Time>
            <Position>
              <LatitudeDegrees>40.77808675356209278106689453125</LatitudeDegrees>
              <LongitudeDegrees>-4.07870776019990444183349609375</LongitudeDegrees>
            </Position>
            <AltitudeMeters>1762</AltitudeMeters>
            <DistanceMeters>NAN</DistanceMeters>
          </Trackpoint>
          <Trackpoint>
            <Time>2018-12-30T12:42:56.000Z</Time>
            <Position>
              <LatitudeDegrees>40.77807870693504810333251953125</LatitudeDegrees>
              <LongitudeDegrees>-4.07871748320758342742919921875</LongitudeDegrees>
            </Position>
            <AltitudeMeters>1762.199951171875</AltitudeMeters>
            <DistanceMeters>NAN</DistanceMeters>
          </Trackpoint>
          <Trackpoint>
            <Time>2018-12-30T12:42:57.000Z</Time>
            <Position>
              <LatitudeDegrees>40.77806864865124225616455078125</LatitudeDegrees>
              <LongitudeDegrees>-4.07872485928237438201904296875</LongitudeDegrees>
            </Position>
            <AltitudeMeters>1762.199951171875</AltitudeMeters>
            <DistanceMeters>NAN</DistanceMeters>
          </Trackpoint>
          <Trackpoint>
            <Time>2018-12-30T12:42:58.000Z</Time>
            <Position>
              <LatitudeDegrees>40.778063200414180755615234375</LatitudeDegrees>
              <LongitudeDegrees>-4.0787375159561634063720703125</LongitudeDegrees>
            </Position>
            <AltitudeMeters>1762.199951171875</AltitudeMeters>
            <DistanceMeters>NAN</DistanceMeters>
          </Trackpoint>
          <Trackpoint>
            <Time>2018-12-30T12:42:59.000Z</Time>
            <Position>
              <LatitudeDegrees>40.77805347740650177001953125</LatitudeDegrees>
              <LongitudeDegrees>-4.0787485800683498382568359375</LongitudeDegrees>
            </Position>
            <AltitudeMeters>1762.199951171875</AltitudeMeters>
            <DistanceMeters>NAN</DistanceMeters>
          </Trackpoint>
          <Trackpoint>
            <Time>2018-12-30T12:43:00.000Z</Time>
            <Position>
              <LatitudeDegrees>40.778045095503330230712890625</LatitudeDegrees>
              <LongitudeDegrees>-4.0787596441805362701416015625</LongitudeDegrees>
            </Position>
            <AltitudeMeters>1762.199951171875</AltitudeMeters>
            <DistanceMeters>NAN</DistanceMeters>
          </Trackpoint>
          <Trackpoint>
            <Time>2018-12-30T12:43:01.000Z</Time>
            <Position>
              <LatitudeDegrees>40.77803864143788814544677734375</LatitudeDegrees>
              <LongitudeDegrees>-4.07876911573112010955810546875</LongitudeDegrees>
            </Position>
            <AltitudeMeters>1762.199951171875</AltitudeMeters>
            <DistanceMeters>NAN</DistanceMeters>
          </Trackpoint>
          <Trackpoint>
            <Time>2018-12-30T12:43:02.000Z</Time>
            <Position>
              <LatitudeDegrees>40.7780258171260356903076171875</LatitudeDegrees>
              <LongitudeDegrees>-4.07877850346267223358154296875</LongitudeDegrees>
            </Position>
            <AltitudeMeters>1762</AltitudeMeters>
            <DistanceMeters>NAN</DistanceMeters>
          </Trackpoint>
          <Trackpoint>
            <Time>2018-12-30T12:43:03.000Z</Time>
            <Position>
              <LatitudeDegrees>40.7780140824615955352783203125</LatitudeDegrees>
              <LongitudeDegrees>-4.07879074104130268096923828125</LongitudeDegrees>
            </Position>
            <AltitudeMeters>1762</AltitudeMeters>
            <DistanceMeters>NAN</DistanceMeters>
          </Trackpoint>
          <Trackpoint>
            <Time>2018-12-30T12:43:04.000Z</Time>
            <Position>
              <LatitudeDegrees>40.77800209634006023406982421875</LatitudeDegrees>
              <LongitudeDegrees>-4.0788002125918865203857421875</LongitudeDegrees>
            </Position>
            <AltitudeMeters>1761.800048828125</AltitudeMeters>
            <DistanceMeters>NAN</DistanceMeters>
          </Trackpoint>
          <Trackpoint>
            <Time>2018-12-30T12:43:05.000Z</Time>
            <Position>
              <LatitudeDegrees>40.77798868529498577117919921875</LatitudeDegrees>
              <LongitudeDegrees>-4.0788089297711849212646484375</LongitudeDegrees>
            </Position>
            <AltitudeMeters>1761.800048828125</AltitudeMeters>
            <DistanceMeters>NAN</DistanceMeters>
          </Trackpoint>
          <Trackpoint>
            <Time>2018-12-30T12:43:06.000Z</Time>
            <Position>
              <LatitudeDegrees>40.77797963283956050872802734375</LatitudeDegrees>
              <LongitudeDegrees>-4.0788176469504833221435546875</LongitudeDegrees>
            </Position>
            <AltitudeMeters>1761.800048828125</AltitudeMeters>
            <DistanceMeters>NAN</DistanceMeters>
          </Trackpoint>
          <Trackpoint>
            <Time>2018-12-30T12:43:07.000Z</Time>
            <Position>
              <LatitudeDegrees>40.7779691554605960845947265625</LatitudeDegrees>
              <LongitudeDegrees>-4.07882292754948139190673828125</LongitudeDegrees>
            </Position>
            <AltitudeMeters>1761.800048828125</AltitudeMeters>
            <DistanceMeters>NAN</DistanceMeters>
          </Trackpoint>
          <Trackpoint>
            <Time>2018-12-30T12:43:08.000Z</Time>
            <Position>
              <LatitudeDegrees>40.777956582605838775634765625</LatitudeDegrees>
              <LongitudeDegrees>-4.07882845960557460784912109375</LongitudeDegrees>
            </Position>
            <AltitudeMeters>1761.800048828125</AltitudeMeters>
            <DistanceMeters>NAN</DistanceMeters>
          </Trackpoint>
          <Trackpoint>
            <Time>2018-12-30T12:43:09.000Z</Time>
            <Position>
              <LatitudeDegrees>40.7779352925717830657958984375</LatitudeDegrees>
              <LongitudeDegrees>-4.07883617095649242401123046875</LongitudeDegrees>
            </Position>
            <AltitudeMeters>1762</AltitudeMeters>
            <DistanceMeters>NAN</DistanceMeters>
          </Trackpoint>
          <Trackpoint>
            <Time>2018-12-30T12:43:10.000Z</Time>
            <Position>
              <LatitudeDegrees>40.7779175229370594024658203125</LatitudeDegrees>
              <LongitudeDegrees>-4.07884237356483936309814453125</LongitudeDegrees>
            </Position>
            <AltitudeMeters>1762</AltitudeMeters>
            <DistanceMeters>NAN</DistanceMeters>
          </Trackpoint>
          <Trackpoint>
            <Time>2018-12-30T12:43:11.000Z</Time>
            <Position>
              <LatitudeDegrees>40.7778957299888134002685546875</LatitudeDegrees>
              <LongitudeDegrees>-4.07884933054447174072265625</LongitudeDegrees>
            </Position>
            <AltitudeMeters>1762</AltitudeMeters>
            <DistanceMeters>NAN</DistanceMeters>
          </Trackpoint>
          <Trackpoint>
            <Time>2018-12-30T12:43:12.000Z</Time>
            <Position>
              <LatitudeDegrees>40.7778799720108509063720703125</LatitudeDegrees>
              <LongitudeDegrees>-4.0788525156676769256591796875</LongitudeDegrees>
            </Position>
            <AltitudeMeters>1762</AltitudeMeters>
            <DistanceMeters>NAN</DistanceMeters>
          </Trackpoint>
          <Trackpoint>
            <Time>2018-12-30T12:43:13.000Z</Time>
            <Position>
              <LatitudeDegrees>40.77786480076611042022705078125</LatitudeDegrees>
              <LongitudeDegrees>-4.0788595564663410186767578125</LongitudeDegrees>
            </Position>
            <AltitudeMeters>1762</AltitudeMeters>
            <DistanceMeters>NAN</DistanceMeters>
          </Trackpoint>
          <Trackpoint>
            <Time>2018-12-30T12:43:14.000Z</Time>
            <Position>
              <LatitudeDegrees>40.77785088680684566497802734375</LatitudeDegrees>
              <LongitudeDegrees>-4.07886651344597339630126953125</LongitudeDegrees>
            </Position>
            <AltitudeMeters>1762</AltitudeMeters>
            <DistanceMeters>NAN</DistanceMeters>
          </Trackpoint>
          <Trackpoint>
            <Time>2018-12-30T12:43:15.000Z</Time>
            <Position>
              <LatitudeDegrees>40.77783613465726375579833984375</LatitudeDegrees>
              <LongitudeDegrees>-4.0788706205785274505615234375</LongitudeDegrees>
            </Position>
            <AltitudeMeters>1762</AltitudeMeters>
            <DistanceMeters>NAN</DistanceMeters>
          </Trackpoint>
          <Trackpoint>
            <Time>2018-12-30T12:43:16.000Z</Time>
            <Position>
              <LatitudeDegrees>40.77781903557479381561279296875</LatitudeDegrees>
              <LongitudeDegrees>-4.07887615263462066650390625</LongitudeDegrees>
            </Position>
            <AltitudeMeters>1762.199951171875</AltitudeMeters>
            <DistanceMeters>NAN</DistanceMeters>
          </Trackpoint>
          <Trackpoint>
            <Time>2018-12-30T12:43:17.000Z</Time>
            <Position>
              <LatitudeDegrees>40.77780269086360931396484375</LatitudeDegrees>
              <LongitudeDegrees>-4.07888093031942844390869140625</LongitudeDegrees>
            </Position>
            <AltitudeMeters>1762.199951171875</AltitudeMeters>
            <DistanceMeters>NAN</DistanceMeters>
          </Trackpoint>
          <Trackpoint>
            <Time>2018-12-30T12:43:18.000Z</Time>
            <Position>
              <LatitudeDegrees>40.77778584323823451995849609375</LatitudeDegrees>
              <LongitudeDegrees>-4.0788813494145870208740234375</LongitudeDegrees>
            </Position>
            <AltitudeMeters>1762.199951171875</AltitudeMeters>
            <DistanceMeters>NAN</DistanceMeters>
          </Trackpoint>
          <Trackpoint>
            <Time>2018-12-30T12:43:19.000Z</Time>
            <Position>
              <LatitudeDegrees>40.777770169079303741455078125</LatitudeDegrees>
              <LongitudeDegrees>-4.07888595946133136749267578125</LongitudeDegrees>
            </Position>
            <AltitudeMeters>1762.4000244140625</AltitudeMeters>
            <DistanceMeters>NAN</DistanceMeters>
          </Trackpoint>
          <Trackpoint>
            <Time>2018-12-30T12:43:20.000Z</Time>
            <Position>
              <LatitudeDegrees>40.777754746377468109130859375</LatitudeDegrees>
              <LongitudeDegrees>-4.0788924135267734527587890625</LongitudeDegrees>
            </Position>
            <AltitudeMeters>1762.4000244140625</AltitudeMeters>
            <DistanceMeters>NAN</DistanceMeters>
          </Trackpoint>
          <Trackpoint>
            <Time>2018-12-30T12:43:21.000Z</Time>
            <Position>
              <LatitudeDegrees>40.777742005884647369384765625</LatitudeDegrees>
              <LongitudeDegrees>-4.0788937546312808990478515625</LongitudeDegrees>
            </Position>
            <AltitudeMeters>1762.5999755859375</AltitudeMeters>
            <DistanceMeters>NAN</DistanceMeters>
          </Trackpoint>
          <Trackpoint>
            <Time>2018-12-30T12:43:22.000Z</Time>
            <Position>
              <LatitudeDegrees>40.77772867865860462188720703125</LatitudeDegrees>
              <LongitudeDegrees>-4.07889501191675662994384765625</LongitudeDegrees>
            </Position>
            <AltitudeMeters>1762.800048828125</AltitudeMeters>
            <DistanceMeters>NAN</DistanceMeters>
          </Trackpoint>
          <Trackpoint>
            <Time>2018-12-30T12:43:23.000Z</Time>
            <Position>
              <LatitudeDegrees>40.7777126692235469818115234375</LatitudeDegrees>
              <LongitudeDegrees>-4.078895263373851776123046875</LongitudeDegrees>
            </Position>
            <AltitudeMeters>1763</AltitudeMeters>
            <DistanceMeters>NAN</DistanceMeters>
          </Trackpoint>
          <Trackpoint>
            <Time>2018-12-30T12:43:24.000Z</Time>
            <Position>
              <LatitudeDegrees>40.77770168893039226531982421875</LatitudeDegrees>
              <LongitudeDegrees>-4.07889786176383495330810546875</LongitudeDegrees>
            </Position>
            <AltitudeMeters>1763</AltitudeMeters>
            <DistanceMeters>NAN</DistanceMeters>
          </Trackpoint>
          <Trackpoint>
            <Time>2018-12-30T12:43:25.000Z</Time>
            <Position>
              <LatitudeDegrees>40.77769079245626926422119140625</LatitudeDegrees>
              <LongitudeDegrees>-4.0789041481912136077880859375</LongitudeDegrees>
            </Position>
            <AltitudeMeters>1763.199951171875</AltitudeMeters>
            <DistanceMeters>NAN</DistanceMeters>
          </Trackpoint>
          <Trackpoint>
            <Time>2018-12-30T12:43:26.000Z</Time>
            <Position>
              <LatitudeDegrees>40.7776788063347339630126953125</LatitudeDegrees>
              <LongitudeDegrees>-4.0789108537137508392333984375</LongitudeDegrees>
            </Position>
            <AltitudeMeters>1763.4000244140625</AltitudeMeters>
            <DistanceMeters>NAN</DistanceMeters>
          </Trackpoint>
          <Trackpoint>
            <Time>2018-12-30T12:43:27.000Z</Time>
            <Position>
              <LatitudeDegrees>40.777671597898006439208984375</LatitudeDegrees>
              <LongitudeDegrees>-4.07891931943595409393310546875</LongitudeDegrees>
            </Position>
            <AltitudeMeters>1763.5999755859375</AltitudeMeters>
            <DistanceMeters>NAN</DistanceMeters>
          </Trackpoint>
          <Trackpoint>
            <Time>2018-12-30T12:43:28.000Z</Time>
            <Position>
              <LatitudeDegrees>40.7776593603193759918212890625</LatitudeDegrees>
              <LongitudeDegrees>-4.07892979681491851806640625</LongitudeDegrees>
            </Position>
            <AltitudeMeters>1763.4000244140625</AltitudeMeters>
            <DistanceMeters>NAN</DistanceMeters>
          </Trackpoint>
          <Trackpoint>
            <Time>2018-12-30T12:43:29.000Z</Time>
            <Position>
              <LatitudeDegrees>40.77764854766428470611572265625</LatitudeDegrees>
              <LongitudeDegrees>-4.07893784344196319580078125</LongitudeDegrees>
            </Position>
            <AltitudeMeters>1763.4000244140625</AltitudeMeters>
            <DistanceMeters>NAN</DistanceMeters>
          </Trackpoint>
          <Trackpoint>
            <Time>2018-12-30T12:43:30.000Z</Time>
            <Position>
              <LatitudeDegrees>40.7776358909904956817626953125</LatitudeDegrees>
              <LongitudeDegrees>-4.07894295640289783477783203125</LongitudeDegrees>
            </Position>
            <AltitudeMeters>1763.5999755859375</AltitudeMeters>
            <DistanceMeters>NAN</DistanceMeters>
          </Trackpoint>
          <Trackpoint>
            <Time>2018-12-30T12:43:31.000Z</Time>
            <Position>
              <LatitudeDegrees>40.7776214741170406341552734375</LatitudeDegrees>
              <LongitudeDegrees>-4.0789514221251010894775390625</LongitudeDegrees>
            </Position>
            <AltitudeMeters>1763.5999755859375</AltitudeMeters>
            <DistanceMeters>NAN</DistanceMeters>
          </Trackpoint>
          <Trackpoint>
            <Time>2018-12-30T12:43:32.000Z</Time>
            <Position>
              <LatitudeDegrees>40.77761317603290081024169921875</LatitudeDegrees>
              <LongitudeDegrees>-4.078962989151477813720703125</LongitudeDegrees>
            </Position>
            <AltitudeMeters>1763.800048828125</AltitudeMeters>
            <DistanceMeters>NAN</DistanceMeters>
          </Trackpoint>
          <Trackpoint>
            <Time>2018-12-30T12:43:33.000Z</Time>
            <Position>
              <LatitudeDegrees>40.7776026986539363861083984375</LatitudeDegrees>
              <LongitudeDegrees>-4.078974388539791107177734375</LongitudeDegrees>
            </Position>
            <AltitudeMeters>1764</AltitudeMeters>
            <DistanceMeters>NAN</DistanceMeters>
          </Trackpoint>
          <Trackpoint>
            <Time>2018-12-30T12:43:34.000Z</Time>
            <Position>
              <LatitudeDegrees>40.777589790523052215576171875</LatitudeDegrees>
              <LongitudeDegrees>-4.07898075878620147705078125</LongitudeDegrees>
            </Position>
            <AltitudeMeters>1764</AltitudeMeters>
            <DistanceMeters>NAN</DistanceMeters>
          </Trackpoint>
          <Trackpoint>
            <Time>2018-12-30T12:43:35.000Z</Time>
            <Position>
              <LatitudeDegrees>40.7775788940489292144775390625</LatitudeDegrees>
              <LongitudeDegrees>-4.07898251898586750030517578125</LongitudeDegrees>
            </Position>
            <AltitudeMeters>1764.199951171875</AltitudeMeters>
            <DistanceMeters>NAN</DistanceMeters>
          </Trackpoint>
          <Trackpoint>
            <Time>2018-12-30T12:43:36.000Z</Time>
            <Position>
              <LatitudeDegrees>40.77756774611771106719970703125</LatitudeDegrees>
              <LongitudeDegrees>-4.07898687757551670074462890625</LongitudeDegrees>
            </Position>
            <AltitudeMeters>1764.199951171875</AltitudeMeters>
            <DistanceMeters>NAN</DistanceMeters>
          </Trackpoint>
          <Trackpoint>
            <Time>2018-12-30T12:43:37.000Z</Time>
            <Position>
              <LatitudeDegrees>40.77755718491971492767333984375</LatitudeDegrees>
              <LongitudeDegrees>-4.07899911515414714813232421875</LongitudeDegrees>
            </Position>
            <AltitudeMeters>1764.4000244140625</AltitudeMeters>
            <DistanceMeters>NAN</DistanceMeters>
          </Trackpoint>
          <Trackpoint>
            <Time>2018-12-30T12:43:38.000Z</Time>
            <Position>
              <LatitudeDegrees>40.77754712663590908050537109375</LatitudeDegrees>
              <LongitudeDegrees>-4.07900816760957241058349609375</LongitudeDegrees>
            </Position>
            <AltitudeMeters>1764.4000244140625</AltitudeMeters>
            <DistanceMeters>NAN</DistanceMeters>
          </Trackpoint>
          <Trackpoint>
            <Time>2018-12-30T12:43:39.000Z</Time>
            <Position>
              <LatitudeDegrees>40.77753287740051746368408203125</LatitudeDegrees>
              <LongitudeDegrees>-4.0790136158466339111328125</LongitudeDegrees>
            </Position>
            <AltitudeMeters>1764.5999755859375</AltitudeMeters>
            <DistanceMeters>NAN</DistanceMeters>
          </Trackpoint>
          <Trackpoint>
            <Time>2018-12-30T12:43:40.000Z</Time>
            <Position>
              <LatitudeDegrees>40.77752147801220417022705078125</LatitudeDegrees>
              <LongitudeDegrees>-4.07901420257985591888427734375</LongitudeDegrees>
            </Position>
            <AltitudeMeters>1764.5999755859375</AltitudeMeters>
            <DistanceMeters>NAN</DistanceMeters>
          </Trackpoint>
          <Trackpoint>
            <Time>2018-12-30T12:43:41.000Z</Time>
            <Position>
              <LatitudeDegrees>40.77750672586262226104736328125</LatitudeDegrees>
              <LongitudeDegrees>-4.07901286147534847259521484375</LongitudeDegrees>
            </Position>
            <AltitudeMeters>1764.5999755859375</AltitudeMeters>
            <DistanceMeters>NAN</DistanceMeters>
          </Trackpoint>
          <Trackpoint>
            <Time>2018-12-30T12:43:42.000Z</Time>
            <Position>
              <LatitudeDegrees>40.77749666757881641387939453125</LatitudeDegrees>
              <LongitudeDegrees>-4.079012610018253326416015625</LongitudeDegrees>
            </Position>
            <AltitudeMeters>1764.800048828125</AltitudeMeters>
            <DistanceMeters>NAN</DistanceMeters>
          </Trackpoint>
          <Trackpoint>
            <Time>2018-12-30T12:43:43.000Z</Time>
            <Position>
              <LatitudeDegrees>40.7774876989424228668212890625</LatitudeDegrees>
              <LongitudeDegrees>-4.07901638187468051910400390625</LongitudeDegrees>
            </Position>
            <AltitudeMeters>1764.800048828125</AltitudeMeters>
            <DistanceMeters>NAN</DistanceMeters>
          </Trackpoint>
          <Trackpoint>
            <Time>2018-12-30T12:43:44.000Z</Time>
            <Position>
              <LatitudeDegrees>40.77747948467731475830078125</LatitudeDegrees>
              <LongitudeDegrees>-4.07902174629271030426025390625</LongitudeDegrees>
            </Position>
            <AltitudeMeters>1764.800048828125</AltitudeMeters>
            <DistanceMeters>NAN</DistanceMeters>
          </Trackpoint>
          <Trackpoint>
            <Time>2018-12-30T12:43:45.000Z</Time>
            <Position>
              <LatitudeDegrees>40.77747034840285778045654296875</LatitudeDegrees>
              <LongitudeDegrees>-4.07902442850172519683837890625</LongitudeDegrees>
            </Position>
            <AltitudeMeters>1764.800048828125</AltitudeMeters>
            <DistanceMeters>NAN</DistanceMeters>
          </Trackpoint>
          <Trackpoint>
            <Time>2018-12-30T12:43:46.000Z</Time>
            <Position>
              <LatitudeDegrees>40.7774581946432590484619140625</LatitudeDegrees>
              <LongitudeDegrees>-4.0790297091007232666015625</LongitudeDegrees>
            </Position>
            <AltitudeMeters>1764.800048828125</AltitudeMeters>
            <DistanceMeters>NAN</DistanceMeters>
          </Trackpoint>
          <Trackpoint>
            <Time>2018-12-30T12:43:47.000Z</Time>
            <Position>
              <LatitudeDegrees>40.77744168229401111602783203125</LatitudeDegrees>
              <LongitudeDegrees>-4.07903130166232585906982421875</LongitudeDegrees>
            </Position>
            <AltitudeMeters>1764.800048828125</AltitudeMeters>
            <DistanceMeters>NAN</DistanceMeters>
          </Trackpoint>
          <Trackpoint>
            <Time>2018-12-30T12:43:48.000Z</Time>
            <Position>
              <LatitudeDegrees>40.777425505220890045166015625</LatitudeDegrees>
              <LongitudeDegrees>-4.07903498969972133636474609375</LongitudeDegrees>
            </Position>
            <AltitudeMeters>1765</AltitudeMeters>
            <DistanceMeters>NAN</DistanceMeters>
          </Trackpoint>
          <Trackpoint>
            <Time>2018-12-30T12:43:49.000Z</Time>
            <Position>
              <LatitudeDegrees>40.77740748412907123565673828125</LatitudeDegrees>
              <LongitudeDegrees>-4.079042114317417144775390625</LongitudeDegrees>
            </Position>
            <AltitudeMeters>1765</AltitudeMeters>
            <DistanceMeters>NAN</DistanceMeters>
          </Trackpoint>
          <Trackpoint>
            <Time>2018-12-30T12:43:50.000Z</Time>
            <Position>
              <LatitudeDegrees>40.777398683130741119384765625</LatitudeDegrees>
              <LongitudeDegrees>-4.0790498256683349609375</LongitudeDegrees>
            </Position>
            <AltitudeMeters>1765.199951171875</AltitudeMeters>
            <DistanceMeters>NAN</DistanceMeters>
          </Trackpoint>
          <Trackpoint>
            <Time>2018-12-30T12:43:51.000Z</Time>
            <Position>
              <LatitudeDegrees>40.7773876190185546875</LatitudeDegrees>
              <LongitudeDegrees>-4.07905829139053821563720703125</LongitudeDegrees>
            </Position>
            <AltitudeMeters>1765.199951171875</AltitudeMeters>
            <DistanceMeters>NAN</DistanceMeters>
          </Trackpoint>
          <Trackpoint>
            <Time>2018-12-30T12:43:52.000Z</Time>
            <Position>
              <LatitudeDegrees>40.77737110666930675506591796875</LatitudeDegrees>
              <LongitudeDegrees>-4.07906851731240749359130859375</LongitudeDegrees>
            </Position>
            <AltitudeMeters>1765.199951171875</AltitudeMeters>
            <DistanceMeters>NAN</DistanceMeters>
          </Trackpoint>
          <Trackpoint>
            <Time>2018-12-30T12:43:53.000Z</Time>
            <Position>
              <LatitudeDegrees>40.77735853381454944610595703125</LatitudeDegrees>
              <LongitudeDegrees>-4.07907463610172271728515625</LongitudeDegrees>
            </Position>
            <AltitudeMeters>1765.4000244140625</AltitudeMeters>
            <DistanceMeters>NAN</DistanceMeters>
          </Trackpoint>
          <Trackpoint>
            <Time>2018-12-30T12:43:54.000Z</Time>
            <Position>
              <LatitudeDegrees>40.77734914608299732208251953125</LatitudeDegrees>
              <LongitudeDegrees>-4.0790808387100696563720703125</LongitudeDegrees>
            </Position>
            <AltitudeMeters>1765.4000244140625</AltitudeMeters>
            <DistanceMeters>NAN</DistanceMeters>
          </Trackpoint>
          <Trackpoint>
            <Time>2018-12-30T12:43:55.000Z</Time>
            <Position>
              <LatitudeDegrees>40.7773421891033649444580078125</LatitudeDegrees>
              <LongitudeDegrees>-4.07908737659454345703125</LongitudeDegrees>
            </Position>
            <AltitudeMeters>1765.4000244140625</AltitudeMeters>
            <DistanceMeters>NAN</DistanceMeters>
          </Trackpoint>
          <Trackpoint>
            <Time>2018-12-30T12:43:56.000Z</Time>
            <Position>
              <LatitudeDegrees>40.77732852660119533538818359375</LatitudeDegrees>
              <LongitudeDegrees>-4.079098440706729888916015625</LongitudeDegrees>
            </Position>
            <AltitudeMeters>1765.4000244140625</AltitudeMeters>
            <DistanceMeters>NAN</DistanceMeters>
          </Trackpoint>
          <Trackpoint>
            <Time>2018-12-30T12:43:57.000Z</Time>
            <Position>
              <LatitudeDegrees>40.77732165344059467315673828125</LatitudeDegrees>
              <LongitudeDegrees>-4.07910372130572795867919921875</LongitudeDegrees>
            </Position>
            <AltitudeMeters>1765.5999755859375</AltitudeMeters>
            <DistanceMeters>NAN</DistanceMeters>
          </Trackpoint>
          <Trackpoint>
            <Time>2018-12-30T12:43:58.000Z</Time>
            <Position>
              <LatitudeDegrees>40.7773116789758205413818359375</LatitudeDegrees>
              <LongitudeDegrees>-4.07910640351474285125732421875</LongitudeDegrees>
            </Position>
            <AltitudeMeters>1765.5999755859375</AltitudeMeters>
            <DistanceMeters>NAN</DistanceMeters>
          </Trackpoint>
          <Trackpoint>
            <Time>2018-12-30T12:43:59.000Z</Time>
            <Position>
              <LatitudeDegrees>40.7772949151694774627685546875</LatitudeDegrees>
              <LongitudeDegrees>-4.07911243848502635955810546875</LongitudeDegrees>
            </Position>
            <AltitudeMeters>1766</AltitudeMeters>
            <DistanceMeters>NAN</DistanceMeters>
          </Trackpoint>
          <Trackpoint>
            <Time>2018-12-30T12:44:00.000Z</Time>
            <Position>
              <LatitudeDegrees>40.77728477306663990020751953125</LatitudeDegrees>
              <LongitudeDegrees>-4.079120568931102752685546875</LongitudeDegrees>
            </Position>
            <AltitudeMeters>1766</AltitudeMeters>
            <DistanceMeters>NAN</DistanceMeters>
          </Trackpoint>
          <Trackpoint>
            <Time>2018-12-30T12:44:01.000Z</Time>
            <Position>
              <LatitudeDegrees>40.7772741280496120452880859375</LatitudeDegrees>
              <LongitudeDegrees>-4.0791262686252593994140625</LongitudeDegrees>
            </Position>
            <AltitudeMeters>1766.199951171875</AltitudeMeters>
            <DistanceMeters>NAN</DistanceMeters>
          </Trackpoint>
          <Trackpoint>
            <Time>2018-12-30T12:44:02.000Z</Time>
            <Position>
              <LatitudeDegrees>40.77726046554744243621826171875</LatitudeDegrees>
              <LongitudeDegrees>-4.07913004048168659210205078125</LongitudeDegrees>
            </Position>
            <AltitudeMeters>1766.4000244140625</AltitudeMeters>
            <DistanceMeters>NAN</DistanceMeters>
          </Trackpoint>
          <Trackpoint>
            <Time>2018-12-30T12:44:03.000Z</Time>
            <Position>
              <LatitudeDegrees>40.77724604867398738861083984375</LatitudeDegrees>
              <LongitudeDegrees>-4.07913590781390666961669921875</LongitudeDegrees>
            </Position>
            <AltitudeMeters>1766.4000244140625</AltitudeMeters>
            <DistanceMeters>NAN</DistanceMeters>
          </Trackpoint>
          <Trackpoint>
            <Time>2018-12-30T12:44:04.000Z</Time>
            <Position>
              <LatitudeDegrees>40.7772266864776611328125</LatitudeDegrees>
              <LongitudeDegrees>-4.07914227806031703948974609375</LongitudeDegrees>
            </Position>
            <AltitudeMeters>1766.199951171875</AltitudeMeters>
            <DistanceMeters>NAN</DistanceMeters>
          </Trackpoint>
          <Trackpoint>
            <Time>2018-12-30T12:44:05.000Z</Time>
            <Position>
              <LatitudeDegrees>40.7772057317197322845458984375</LatitudeDegrees>
              <LongitudeDegrees>-4.07914973795413970947265625</LongitudeDegrees>
            </Position>
            <AltitudeMeters>1766.199951171875</AltitudeMeters>
            <DistanceMeters>NAN</DistanceMeters>
          </Trackpoint>
          <Trackpoint>
            <Time>2018-12-30T12:44:06.000Z</Time>
            <Position>
              <LatitudeDegrees>40.7771866209805011749267578125</LatitudeDegrees>
              <LongitudeDegrees>-4.07916138879954814910888671875</LongitudeDegrees>
            </Position>
            <AltitudeMeters>1765.800048828125</AltitudeMeters>
            <DistanceMeters>NAN</DistanceMeters>
          </Trackpoint>
          <Trackpoint>
            <Time>2018-12-30T12:44:07.000Z</Time>
            <Position>
              <LatitudeDegrees>40.77717497013509273529052734375</LatitudeDegrees>
              <LongitudeDegrees>-4.0791676752269268035888671875</LongitudeDegrees>
            </Position>
            <AltitudeMeters>1765.4000244140625</AltitudeMeters>
            <DistanceMeters>NAN</DistanceMeters>
          </Trackpoint>
          <Trackpoint>
            <Time>2018-12-30T12:44:08.000Z</Time>
            <Position>
              <LatitudeDegrees>40.77716424129903316497802734375</LatitudeDegrees>
              <LongitudeDegrees>-4.079176224768161773681640625</LongitudeDegrees>
            </Position>
            <AltitudeMeters>1765.199951171875</AltitudeMeters>
            <DistanceMeters>NAN</DistanceMeters>
          </Trackpoint>
          <Trackpoint>
            <Time>2018-12-30T12:44:09.000Z</Time>
            <Position>
              <LatitudeDegrees>40.77715225517749786376953125</LatitudeDegrees>
              <LongitudeDegrees>-4.079180248081684112548828125</LongitudeDegrees>
            </Position>
            <AltitudeMeters>1765</AltitudeMeters>
            <DistanceMeters>NAN</DistanceMeters>
          </Trackpoint>
          <Trackpoint>
            <Time>2018-12-30T12:44:10.000Z</Time>
            <Position>
              <LatitudeDegrees>40.7771433703601360321044921875</LatitudeDegrees>
              <LongitudeDegrees>-4.07918988727033138275146484375</LongitudeDegrees>
            </Position>
            <AltitudeMeters>1765</AltitudeMeters>
            <DistanceMeters>NAN</DistanceMeters>
          </Trackpoint>
          <Trackpoint>
            <Time>2018-12-30T12:44:11.000Z</Time>
            <Position>
              <LatitudeDegrees>40.77713255770504474639892578125</LatitudeDegrees>
              <LongitudeDegrees>-4.07919290475547313690185546875</LongitudeDegrees>
            </Position>
            <AltitudeMeters>1765.199951171875</AltitudeMeters>
            <DistanceMeters>NAN</DistanceMeters>
          </Trackpoint>
          <Trackpoint>
            <Time>2018-12-30T12:44:12.000Z</Time>
            <Position>
              <LatitudeDegrees>40.77711797319352626800537109375</LatitudeDegrees>
              <LongitudeDegrees>-4.07919458113610744476318359375</LongitudeDegrees>
            </Position>
            <AltitudeMeters>1765.199951171875</AltitudeMeters>
            <DistanceMeters>NAN</DistanceMeters>
          </Trackpoint>
          <Trackpoint>
            <Time>2018-12-30T12:44:13.000Z</Time>
            <Position>
              <LatitudeDegrees>40.77710322104394435882568359375</LatitudeDegrees>
              <LongitudeDegrees>-4.07919793389737606048583984375</LongitudeDegrees>
            </Position>
            <AltitudeMeters>1765.4000244140625</AltitudeMeters>
            <DistanceMeters>NAN</DistanceMeters>
          </Trackpoint>
          <Trackpoint>
            <Time>2018-12-30T12:44:14.000Z</Time>
            <Position>
              <LatitudeDegrees>40.77708813361823558807373046875</LatitudeDegrees>
              <LongitudeDegrees>-4.07920313067734241485595703125</LongitudeDegrees>
            </Position>
            <AltitudeMeters>1765.5999755859375</AltitudeMeters>
            <DistanceMeters>NAN</DistanceMeters>
          </Trackpoint>
          <Trackpoint>
            <Time>2018-12-30T12:44:15.000Z</Time>
            <Position>
              <LatitudeDegrees>40.77707958407700061798095703125</LatitudeDegrees>
              <LongitudeDegrees>-4.079212434589862823486328125</LongitudeDegrees>
            </Position>
            <AltitudeMeters>1765.5999755859375</AltitudeMeters>
            <DistanceMeters>NAN</DistanceMeters>
          </Trackpoint>
          <Trackpoint>
            <Time>2018-12-30T12:44:16.000Z</Time>
            <Position>
              <LatitudeDegrees>40.77707841061055660247802734375</LatitudeDegrees>
              <LongitudeDegrees>-4.07922215759754180908203125</LongitudeDegrees>
            </Position>
            <AltitudeMeters>1765.800048828125</AltitudeMeters>
            <DistanceMeters>NAN</DistanceMeters>
          </Trackpoint>
          <Trackpoint>
            <Time>2018-12-30T12:44:17.000Z</Time>
            <Position>
              <LatitudeDegrees>40.7770716212689876556396484375</LatitudeDegrees>
              <LongitudeDegrees>-4.0792250074446201324462890625</LongitudeDegrees>
            </Position>
            <AltitudeMeters>1765.800048828125</AltitudeMeters>
            <DistanceMeters>NAN</DistanceMeters>
          </Trackpoint>
          <Trackpoint>
            <Time>2018-12-30T12:44:18.000Z</Time>
            <Position>
              <LatitudeDegrees>40.7770662568509578704833984375</LatitudeDegrees>
              <LongitudeDegrees>-4.07922894693911075592041015625</LongitudeDegrees>
            </Position>
            <AltitudeMeters>1765.800048828125</AltitudeMeters>
            <DistanceMeters>NAN</DistanceMeters>
          </Trackpoint>
          <Trackpoint>
            <Time>2018-12-30T12:44:19.000Z</Time>
            <Position>
              <LatitudeDegrees>40.77705779112875461578369140625</LatitudeDegrees>
              <LongitudeDegrees>-4.07923732884228229522705078125</LongitudeDegrees>
            </Position>
            <AltitudeMeters>1765.800048828125</AltitudeMeters>
            <DistanceMeters>NAN</DistanceMeters>
          </Trackpoint>
          <Trackpoint>
            <Time>2018-12-30T12:44:20.000Z</Time>
            <Position>
              <LatitudeDegrees>40.77704722993075847625732421875</LatitudeDegrees>
              <LongitudeDegrees>-4.07924185506999492645263671875</LongitudeDegrees>
            </Position>
            <AltitudeMeters>1765.800048828125</AltitudeMeters>
            <DistanceMeters>NAN</DistanceMeters>
          </Trackpoint>
          <Trackpoint>
            <Time>2018-12-30T12:44:21.000Z</Time>
            <Position>
              <LatitudeDegrees>40.77703423798084259033203125</LatitudeDegrees>
              <LongitudeDegrees>-4.0792461298406124114990234375</LongitudeDegrees>
            </Position>
            <AltitudeMeters>1765.800048828125</AltitudeMeters>
            <DistanceMeters>NAN</DistanceMeters>
          </Trackpoint>
          <Trackpoint>
            <Time>2018-12-30T12:44:22.000Z</Time>
            <Position>
              <LatitudeDegrees>40.77702107839286327362060546875</LatitudeDegrees>
              <LongitudeDegrees>-4.0792558528482913970947265625</LongitudeDegrees>
            </Position>
            <AltitudeMeters>1765.5999755859375</AltitudeMeters>
            <DistanceMeters>NAN</DistanceMeters>
          </Trackpoint>
          <Trackpoint>
            <Time>2018-12-30T12:44:23.000Z</Time>
            <Position>
              <LatitudeDegrees>40.77700481750071048736572265625</LatitudeDegrees>
              <LongitudeDegrees>-4.0792675875127315521240234375</LongitudeDegrees>
            </Position>
            <AltitudeMeters>1765.5999755859375</AltitudeMeters>
            <DistanceMeters>NAN</DistanceMeters>
          </Trackpoint>
          <Trackpoint>
            <Time>2018-12-30T12:44:24.000Z</Time>
            <Position>
              <LatitudeDegrees>40.77698989771306514739990234375</LatitudeDegrees>
              <LongitudeDegrees>-4.07927756197750568389892578125</LongitudeDegrees>
            </Position>
            <AltitudeMeters>1765.5999755859375</AltitudeMeters>
            <DistanceMeters>NAN</DistanceMeters>
          </Trackpoint>
          <Trackpoint>
            <Time>2018-12-30T12:44:25.000Z</Time>
            <Position>
              <LatitudeDegrees>40.77697766013443470001220703125</LatitudeDegrees>
              <LongitudeDegrees>-4.07928829081356525421142578125</LongitudeDegrees>
            </Position>
            <AltitudeMeters>1765.800048828125</AltitudeMeters>
            <DistanceMeters>NAN</DistanceMeters>
          </Trackpoint>
          <Trackpoint>
            <Time>2018-12-30T12:44:26.000Z</Time>
            <Position>
              <LatitudeDegrees>40.77696391381323337554931640625</LatitudeDegrees>
              <LongitudeDegrees>-4.07929725944995880126953125</LongitudeDegrees>
            </Position>
            <AltitudeMeters>1766</AltitudeMeters>
            <DistanceMeters>NAN</DistanceMeters>
          </Trackpoint>
          <Trackpoint>
            <Time>2018-12-30T12:44:27.000Z</Time>
            <Position>
              <LatitudeDegrees>40.77695016749203205108642578125</LatitudeDegrees>
              <LongitudeDegrees>-4.07930237241089344024658203125</LongitudeDegrees>
            </Position>
            <AltitudeMeters>1766.199951171875</AltitudeMeters>
            <DistanceMeters>NAN</DistanceMeters>
          </Trackpoint>
          <Trackpoint>
            <Time>2018-12-30T12:44:28.000Z</Time>
            <Position>
              <LatitudeDegrees>40.77693524770438671112060546875</LatitudeDegrees>
              <LongitudeDegrees>-4.07931008376181125640869140625</LongitudeDegrees>
            </Position>
            <AltitudeMeters>1766.4000244140625</AltitudeMeters>
            <DistanceMeters>NAN</DistanceMeters>
          </Trackpoint>
          <Trackpoint>
            <Time>2018-12-30T12:44:29.000Z</Time>
            <Position>
              <LatitudeDegrees>40.7769217528402805328369140625</LatitudeDegrees>
              <LongitudeDegrees>-4.07931796275079250335693359375</LongitudeDegrees>
            </Position>
            <AltitudeMeters>1766.5999755859375</AltitudeMeters>
            <DistanceMeters>NAN</DistanceMeters>
          </Trackpoint>
          <Trackpoint>
            <Time>2018-12-30T12:44:30.000Z</Time>
            <Position>
              <LatitudeDegrees>40.77691228128969669342041015625</LatitudeDegrees>
              <LongitudeDegrees>-4.07932919450104236602783203125</LongitudeDegrees>
            </Position>
            <AltitudeMeters>1766.5999755859375</AltitudeMeters>
            <DistanceMeters>NAN</DistanceMeters>
          </Trackpoint>
          <Trackpoint>
            <Time>2018-12-30T12:44:31.000Z</Time>
            <Position>
              <LatitudeDegrees>40.7768999598920345306396484375</LatitudeDegrees>
              <LongitudeDegrees>-4.07933874987065792083740234375</LongitudeDegrees>
            </Position>
            <AltitudeMeters>1766.5999755859375</AltitudeMeters>
            <DistanceMeters>NAN</DistanceMeters>
          </Trackpoint>
          <Trackpoint>
            <Time>2018-12-30T12:44:32.000Z</Time>
            <Position>
              <LatitudeDegrees>40.776885710656642913818359375</LatitudeDegrees>
              <LongitudeDegrees>-4.0793457068502902984619140625</LongitudeDegrees>
            </Position>
            <AltitudeMeters>1766.5999755859375</AltitudeMeters>
            <DistanceMeters>NAN</DistanceMeters>
          </Trackpoint>
          <Trackpoint>
            <Time>2018-12-30T12:44:33.000Z</Time>
            <Position>
              <LatitudeDegrees>40.7768717966973781585693359375</LatitudeDegrees>
              <LongitudeDegrees>-4.0793557651340961456298828125</LongitudeDegrees>
            </Position>
            <AltitudeMeters>1766.5999755859375</AltitudeMeters>
            <DistanceMeters>NAN</DistanceMeters>
          </Trackpoint>
          <Trackpoint>
            <Time>2018-12-30T12:44:34.000Z</Time>
            <Position>
              <LatitudeDegrees>40.776860229671001434326171875</LatitudeDegrees>
              <LongitudeDegrees>-4.0793618001043796539306640625</LongitudeDegrees>
            </Position>
            <AltitudeMeters>1766.5999755859375</AltitudeMeters>
            <DistanceMeters>NAN</DistanceMeters>
          </Trackpoint>
          <Trackpoint>
            <Time>2018-12-30T12:44:35.000Z</Time>
            <Position>
              <LatitudeDegrees>40.77684774063527584075927734375</LatitudeDegrees>
              <LongitudeDegrees>-4.0793681703507900238037109375</LongitudeDegrees>
            </Position>
            <AltitudeMeters>1766.5999755859375</AltitudeMeters>
            <DistanceMeters>NAN</DistanceMeters>
          </Trackpoint>
          <Trackpoint>
            <Time>2018-12-30T12:44:36.000Z</Time>
            <Position>
              <LatitudeDegrees>40.77683265320956707000732421875</LatitudeDegrees>
              <LongitudeDegrees>-4.07937236130237579345703125</LongitudeDegrees>
            </Position>
            <AltitudeMeters>1766.5999755859375</AltitudeMeters>
            <DistanceMeters>NAN</DistanceMeters>
          </Trackpoint>
          <Trackpoint>
            <Time>2018-12-30T12:44:37.000Z</Time>
            <Position>
              <LatitudeDegrees>40.7768158055841922760009765625</LatitudeDegrees>
              <LongitudeDegrees>-4.079374708235263824462890625</LongitudeDegrees>
            </Position>
            <AltitudeMeters>1766.5999755859375</AltitudeMeters>
            <DistanceMeters>NAN</DistanceMeters>
          </Trackpoint>
          <Trackpoint>
            <Time>2018-12-30T12:44:38.000Z</Time>
            <Position>
              <LatitudeDegrees>40.77679409645497798919677734375</LatitudeDegrees>
              <LongitudeDegrees>-4.07937210984528064727783203125</LongitudeDegrees>
            </Position>
            <AltitudeMeters>1766.800048828125</AltitudeMeters>
            <DistanceMeters>NAN</DistanceMeters>
          </Trackpoint>
          <Trackpoint>
            <Time>2018-12-30T12:44:39.000Z</Time>
            <Position>
              <LatitudeDegrees>40.77677113004028797149658203125</LatitudeDegrees>
              <LongitudeDegrees>-4.07936389558017253875732421875</LongitudeDegrees>
            </Position>
            <AltitudeMeters>1767</AltitudeMeters>
            <DistanceMeters>NAN</DistanceMeters>
          </Trackpoint>
          <Trackpoint>
            <Time>2018-12-30T12:44:40.000Z</Time>
            <Position>
              <LatitudeDegrees>40.7767497561872005462646484375</LatitudeDegrees>
              <LongitudeDegrees>-4.07935970462858676910400390625</LongitudeDegrees>
            </Position>
            <AltitudeMeters>1767.199951171875</AltitudeMeters>
            <DistanceMeters>NAN</DistanceMeters>
          </Trackpoint>
          <Trackpoint>
            <Time>2018-12-30T12:44:41.000Z</Time>
            <Position>
              <LatitudeDegrees>40.7767291367053985595703125</LatitudeDegrees>
              <LongitudeDegrees>-4.0793567709624767303466796875</LongitudeDegrees>
            </Position>
            <AltitudeMeters>1767.199951171875</AltitudeMeters>
            <DistanceMeters>NAN</DistanceMeters>
          </Trackpoint>
          <Trackpoint>
            <Time>2018-12-30T12:44:42.000Z</Time>
            <Position>
              <LatitudeDegrees>40.776714384555816650390625</LatitudeDegrees>
              <LongitudeDegrees>-4.07935936935245990753173828125</LongitudeDegrees>
            </Position>
            <AltitudeMeters>1767.199951171875</AltitudeMeters>
            <DistanceMeters>NAN</DistanceMeters>
          </Trackpoint>
          <Trackpoint>
            <Time>2018-12-30T12:44:43.000Z</Time>
            <Position>
              <LatitudeDegrees>40.77669787220656871795654296875</LatitudeDegrees>
              <LongitudeDegrees>-4.0793591178953647613525390625</LongitudeDegrees>
            </Position>
            <AltitudeMeters>1767.199951171875</AltitudeMeters>
            <DistanceMeters>NAN</DistanceMeters>
          </Trackpoint>
          <Trackpoint>
            <Time>2018-12-30T12:44:44.000Z</Time>
            <Position>
              <LatitudeDegrees>40.7766823656857013702392578125</LatitudeDegrees>
              <LongitudeDegrees>-4.07935869880020618438720703125</LongitudeDegrees>
            </Position>
            <AltitudeMeters>1767</AltitudeMeters>
            <DistanceMeters>NAN</DistanceMeters>
          </Trackpoint>
          <Trackpoint>
            <Time>2018-12-30T12:44:45.000Z</Time>
            <Position>
              <LatitudeDegrees>40.77666677534580230712890625</LatitudeDegrees>
              <LongitudeDegrees>-4.0793554298579692840576171875</LongitudeDegrees>
            </Position>
            <AltitudeMeters>1766.800048828125</AltitudeMeters>
            <DistanceMeters>NAN</DistanceMeters>
          </Trackpoint>
          <Trackpoint>
            <Time>2018-12-30T12:44:46.000Z</Time>
            <Position>
              <LatitudeDegrees>40.77665043063461780548095703125</LatitudeDegrees>
              <LongitudeDegrees>-4.07935668714344501495361328125</LongitudeDegrees>
            </Position>
            <AltitudeMeters>1766.4000244140625</AltitudeMeters>
            <DistanceMeters>NAN</DistanceMeters>
          </Trackpoint>
          <Trackpoint>
            <Time>2018-12-30T12:44:47.000Z</Time>
            <Position>
              <LatitudeDegrees>40.7766347564756870269775390625</LatitudeDegrees>
              <LongitudeDegrees>-4.07935819588601589202880859375</LongitudeDegrees>
            </Position>
            <AltitudeMeters>1766.4000244140625</AltitudeMeters>
            <DistanceMeters>NAN</DistanceMeters>
          </Trackpoint>
          <Trackpoint>
            <Time>2018-12-30T12:44:48.000Z</Time>
            <Position>
              <LatitudeDegrees>40.7766189984977245330810546875</LatitudeDegrees>
              <LongitudeDegrees>-4.0793621353805065155029296875</LongitudeDegrees>
            </Position>
            <AltitudeMeters>1766.199951171875</AltitudeMeters>
            <DistanceMeters>NAN</DistanceMeters>
          </Trackpoint>
          <Trackpoint>
            <Time>2018-12-30T12:44:49.000Z</Time>
            <Position>
              <LatitudeDegrees>40.77660449780523777008056640625</LatitudeDegrees>
              <LongitudeDegrees>-4.07936406321823596954345703125</LongitudeDegrees>
            </Position>
            <AltitudeMeters>1766.199951171875</AltitudeMeters>
            <DistanceMeters>NAN</DistanceMeters>
          </Trackpoint>
          <Trackpoint>
            <Time>2018-12-30T12:44:50.000Z</Time>
            <Position>
              <LatitudeDegrees>40.776589326560497283935546875</LatitudeDegrees>
              <LongitudeDegrees>-4.079366661608219146728515625</LongitudeDegrees>
            </Position>
            <AltitudeMeters>1766.199951171875</AltitudeMeters>
            <DistanceMeters>NAN</DistanceMeters>
          </Trackpoint>
          <Trackpoint>
            <Time>2018-12-30T12:44:51.000Z</Time>
            <Position>
              <LatitudeDegrees>40.7765757478773593902587890625</LatitudeDegrees>
              <LongitudeDegrees>-4.07937210984528064727783203125</LongitudeDegrees>
            </Position>
            <AltitudeMeters>1766.199951171875</AltitudeMeters>
            <DistanceMeters>NAN</DistanceMeters>
          </Trackpoint>
          <Trackpoint>
            <Time>2018-12-30T12:44:52.000Z</Time>
            <Position>
              <LatitudeDegrees>40.7765630073845386505126953125</LatitudeDegrees>
              <LongitudeDegrees>-4.07937780953943729400634765625</LongitudeDegrees>
            </Position>
            <AltitudeMeters>1766.4000244140625</AltitudeMeters>
            <DistanceMeters>NAN</DistanceMeters>
          </Trackpoint>
          <Trackpoint>
            <Time>2018-12-30T12:44:53.000Z</Time>
            <Position>
              <LatitudeDegrees>40.77654716558754444122314453125</LatitudeDegrees>
              <LongitudeDegrees>-4.079386107623577117919921875</LongitudeDegrees>
            </Position>
            <AltitudeMeters>1766.5999755859375</AltitudeMeters>
            <DistanceMeters>NAN</DistanceMeters>
          </Trackpoint>
          <Trackpoint>
            <Time>2018-12-30T12:44:54.000Z</Time>
            <Position>
              <LatitudeDegrees>40.77653526328504085540771484375</LatitudeDegrees>
              <LongitudeDegrees>-4.0793919749557971954345703125</LongitudeDegrees>
            </Position>
            <AltitudeMeters>1766.800048828125</AltitudeMeters>
            <DistanceMeters>NAN</DistanceMeters>
          </Trackpoint>
          <Trackpoint>
            <Time>2018-12-30T12:44:55.000Z</Time>
            <Position>
              <LatitudeDegrees>40.77652067877352237701416015625</LatitudeDegrees>
              <LongitudeDegrees>-4.07939708791673183441162109375</LongitudeDegrees>
            </Position>
            <AltitudeMeters>1766.800048828125</AltitudeMeters>
            <DistanceMeters>NAN</DistanceMeters>
          </Trackpoint>
          <Trackpoint>
            <Time>2018-12-30T12:44:56.000Z</Time>
            <Position>
              <LatitudeDegrees>40.7765066809952259063720703125</LatitudeDegrees>
              <LongitudeDegrees>-4.0794047154486179351806640625</LongitudeDegrees>
            </Position>
            <AltitudeMeters>1767</AltitudeMeters>
            <DistanceMeters>NAN</DistanceMeters>
          </Trackpoint>
          <Trackpoint>
            <Time>2018-12-30T12:44:57.000Z</Time>
            <Position>
              <LatitudeDegrees>40.77649377286434173583984375</LatitudeDegrees>
              <LongitudeDegrees>-4.0794100798666477203369140625</LongitudeDegrees>
            </Position>
            <AltitudeMeters>1767</AltitudeMeters>
            <DistanceMeters>NAN</DistanceMeters>
          </Trackpoint>
          <Trackpoint>
            <Time>2018-12-30T12:44:58.000Z</Time>
            <Position>
              <LatitudeDegrees>40.7764798589050769805908203125</LatitudeDegrees>
              <LongitudeDegrees>-4.0794151090085506439208984375</LongitudeDegrees>
            </Position>
            <AltitudeMeters>1767.199951171875</AltitudeMeters>
            <DistanceMeters>NAN</DistanceMeters>
          </Trackpoint>
          <Trackpoint>
            <Time>2018-12-30T12:44:59.000Z</Time>
            <Position>
              <LatitudeDegrees>40.7764674536883831024169921875</LatitudeDegrees>
              <LongitudeDegrees>-4.0794221498072147369384765625</LongitudeDegrees>
            </Position>
            <AltitudeMeters>1767.199951171875</AltitudeMeters>
            <DistanceMeters>NAN</DistanceMeters>
          </Trackpoint>
          <Trackpoint>
            <Time>2018-12-30T12:45:00.000Z</Time>
            <Position>
              <LatitudeDegrees>40.776451192796230316162109375</LatitudeDegrees>
              <LongitudeDegrees>-4.07942558638751506805419921875</LongitudeDegrees>
            </Position>
            <AltitudeMeters>1767.199951171875</AltitudeMeters>
            <DistanceMeters>NAN</DistanceMeters>
          </Trackpoint>
          <Trackpoint>
            <Time>2018-12-30T12:45:01.000Z</Time>
            <Position>
              <LatitudeDegrees>40.77643736265599727630615234375</LatitudeDegrees>
              <LongitudeDegrees>-4.079429693520069122314453125</LongitudeDegrees>
            </Position>
            <AltitudeMeters>1767.4000244140625</AltitudeMeters>
            <DistanceMeters>NAN</DistanceMeters>
          </Trackpoint>
          <Trackpoint>
            <Time>2018-12-30T12:45:02.000Z</Time>
            <Position>
              <LatitudeDegrees>40.77642395161092281341552734375</LatitudeDegrees>
              <LongitudeDegrees>-4.07943313010036945343017578125</LongitudeDegrees>
            </Position>
            <AltitudeMeters>1767.4000244140625</AltitudeMeters>
            <DistanceMeters>NAN</DistanceMeters>
          </Trackpoint>
          <Trackpoint>
            <Time>2018-12-30T12:45:03.000Z</Time>
            <Position>
              <LatitudeDegrees>40.77641406096518039703369140625</LatitudeDegrees>
              <LongitudeDegrees>-4.07944000326097011566162109375</LongitudeDegrees>
            </Position>
            <AltitudeMeters>1767.4000244140625</AltitudeMeters>
            <DistanceMeters>NAN</DistanceMeters>
          </Trackpoint>
          <Trackpoint>
            <Time>2018-12-30T12:45:04.000Z</Time>
            <Position>
              <LatitudeDegrees>40.77640551142394542694091796875</LatitudeDegrees>
              <LongitudeDegrees>-4.07944880425930023193359375</LongitudeDegrees>
            </Position>
            <AltitudeMeters>1767.4000244140625</AltitudeMeters>
            <DistanceMeters>NAN</DistanceMeters>
          </Trackpoint>
          <Trackpoint>
            <Time>2018-12-30T12:45:05.000Z</Time>
            <Position>
              <LatitudeDegrees>40.7763943634927272796630859375</LatitudeDegrees>
              <LongitudeDegrees>-4.07945743761956691741943359375</LongitudeDegrees>
            </Position>
            <AltitudeMeters>1767.4000244140625</AltitudeMeters>
            <DistanceMeters>NAN</DistanceMeters>
          </Trackpoint>
          <Trackpoint>
            <Time>2018-12-30T12:45:06.000Z</Time>
            <Position>
              <LatitudeDegrees>40.7763849757611751556396484375</LatitudeDegrees>
              <LongitudeDegrees>-4.079460538923740386962890625</LongitudeDegrees>
            </Position>
            <AltitudeMeters>1767.4000244140625</AltitudeMeters>
            <DistanceMeters>NAN</DistanceMeters>
          </Trackpoint>
          <Trackpoint>
            <Time>2018-12-30T12:45:07.000Z</Time>
            <Position>
              <LatitudeDegrees>40.7763755880296230316162109375</LatitudeDegrees>
              <LongitudeDegrees>-4.0794640593230724334716796875</LongitudeDegrees>
            </Position>
            <AltitudeMeters>1767.4000244140625</AltitudeMeters>
            <DistanceMeters>NAN</DistanceMeters>
          </Trackpoint>
          <Trackpoint>
            <Time>2018-12-30T12:45:08.000Z</Time>
            <Position>
              <LatitudeDegrees>40.776363350450992584228515625</LatitudeDegrees>
              <LongitudeDegrees>-4.07946531660854816436767578125</LongitudeDegrees>
            </Position>
            <AltitudeMeters>1767.4000244140625</AltitudeMeters>
            <DistanceMeters>NAN</DistanceMeters>
          </Trackpoint>
          <Trackpoint>
            <Time>2018-12-30T12:45:09.000Z</Time>
            <Position>
              <LatitudeDegrees>40.77635052613914012908935546875</LatitudeDegrees>
              <LongitudeDegrees>-4.07946548424661159515380859375</LongitudeDegrees>
            </Position>
            <AltitudeMeters>1767.4000244140625</AltitudeMeters>
            <DistanceMeters>NAN</DistanceMeters>
          </Trackpoint>
          <Trackpoint>
            <Time>2018-12-30T12:45:10.000Z</Time>
            <Position>
              <LatitudeDegrees>40.77633879147469997406005859375</LatitudeDegrees>
              <LongitudeDegrees>-4.0794674120843410491943359375</LongitudeDegrees>
            </Position>
            <AltitudeMeters>1767.199951171875</AltitudeMeters>
            <DistanceMeters>NAN</DistanceMeters>
          </Trackpoint>
          <Trackpoint>
            <Time>2018-12-30T12:45:11.000Z</Time>
            <Position>
              <LatitudeDegrees>40.776334516704082489013671875</LatitudeDegrees>
              <LongitudeDegrees>-4.07947772182524204254150390625</LongitudeDegrees>
            </Position>
            <AltitudeMeters>1767.4000244140625</AltitudeMeters>
            <DistanceMeters>NAN</DistanceMeters>
          </Trackpoint>
          <Trackpoint>
            <Time>2018-12-30T12:45:12.000Z</Time>
            <Position>
              <LatitudeDegrees>40.7763330079615116119384765625</LatitudeDegrees>
              <LongitudeDegrees>-4.07948409207165241241455078125</LongitudeDegrees>
            </Position>
            <AltitudeMeters>1767.199951171875</AltitudeMeters>
            <DistanceMeters>NAN</DistanceMeters>
          </Trackpoint>
          <Trackpoint>
            <Time>2018-12-30T12:45:13.000Z</Time>
            <Position>
              <LatitudeDegrees>40.77633158303797245025634765625</LatitudeDegrees>
              <LongitudeDegrees>-4.07948903739452362060546875</LongitudeDegrees>
            </Position>
            <AltitudeMeters>1767.4000244140625</AltitudeMeters>
            <DistanceMeters>NAN</DistanceMeters>
          </Trackpoint>
          <Trackpoint>
            <Time>2018-12-30T12:45:14.000Z</Time>
            <Position>
              <LatitudeDegrees>40.77633082866668701171875</LatitudeDegrees>
              <LongitudeDegrees>-4.079489372670650482177734375</LongitudeDegrees>
            </Position>
            <AltitudeMeters>1767.4000244140625</AltitudeMeters>
            <DistanceMeters>NAN</DistanceMeters>
          </Trackpoint>
          <Trackpoint>
            <Time>2018-12-30T12:45:15.000Z</Time>
            <Position>
              <LatitudeDegrees>40.7763279788196086883544921875</LatitudeDegrees>
              <LongitudeDegrees>-4.07948769629001617431640625</LongitudeDegrees>
            </Position>
            <AltitudeMeters>1767.4000244140625</AltitudeMeters>
            <DistanceMeters>NAN</DistanceMeters>
          </Trackpoint>
          <Trackpoint>
            <Time>2018-12-30T12:45:16.000Z</Time>
            <Position>
              <LatitudeDegrees>40.77632772736251354217529296875</LatitudeDegrees>
              <LongitudeDegrees>-4.079487361013889312744140625</LongitudeDegrees>
            </Position>
            <AltitudeMeters>1767.4000244140625</AltitudeMeters>
            <DistanceMeters>NAN</DistanceMeters>
          </Trackpoint>
          <Trackpoint>
            <Time>2018-12-30T12:45:17.000Z</Time>
            <Position>
              <LatitudeDegrees>40.77632789500057697296142578125</LatitudeDegrees>
              <LongitudeDegrees>-4.0794875286519527435302734375</LongitudeDegrees>
            </Position>
            <AltitudeMeters>1767.4000244140625</AltitudeMeters>
            <DistanceMeters>NAN</DistanceMeters>
          </Trackpoint>
          <Trackpoint>
            <Time>2018-12-30T12:45:18.000Z</Time>
            <Position>
              <LatitudeDegrees>40.776328146457672119140625</LatitudeDegrees>
              <LongitudeDegrees>-4.079488031566143035888671875</LongitudeDegrees>
            </Position>
            <AltitudeMeters>1767.4000244140625</AltitudeMeters>
            <DistanceMeters>NAN</DistanceMeters>
          </Trackpoint>
          <Trackpoint>
            <Time>2018-12-30T12:45:19.000Z</Time>
            <Position>
              <LatitudeDegrees>40.776327811181545257568359375</LatitudeDegrees>
              <LongitudeDegrees>-4.07948895357549190521240234375</LongitudeDegrees>
            </Position>
            <AltitudeMeters>1767.4000244140625</AltitudeMeters>
            <DistanceMeters>NAN</DistanceMeters>
          </Trackpoint>
          <Trackpoint>
            <Time>2018-12-30T12:45:20.000Z</Time>
            <Position>
              <LatitudeDegrees>40.77632613480091094970703125</LatitudeDegrees>
              <LongitudeDegrees>-4.079490713775157928466796875</LongitudeDegrees>
            </Position>
            <AltitudeMeters>1767.4000244140625</AltitudeMeters>
            <DistanceMeters>NAN</DistanceMeters>
          </Trackpoint>
          <Trackpoint>
            <Time>2018-12-30T12:45:21.000Z</Time>
            <Position>
              <LatitudeDegrees>40.776322782039642333984375</LatitudeDegrees>
              <LongitudeDegrees>-4.0794922225177288055419921875</LongitudeDegrees>
            </Position>
            <AltitudeMeters>1767.4000244140625</AltitudeMeters>
            <DistanceMeters>NAN</DistanceMeters>
          </Trackpoint>
          <Trackpoint>
            <Time>2018-12-30T12:45:22.000Z</Time>
            <Position>
              <LatitudeDegrees>40.77631901018321514129638671875</LatitudeDegrees>
              <LongitudeDegrees>-4.07949415035545825958251953125</LongitudeDegrees>
            </Position>
            <AltitudeMeters>1767.4000244140625</AltitudeMeters>
            <DistanceMeters>NAN</DistanceMeters>
          </Trackpoint>
          <Trackpoint>
            <Time>2018-12-30T12:45:23.000Z</Time>
            <Position>
              <LatitudeDegrees>40.7763142324984073638916015625</LatitudeDegrees>
              <LongitudeDegrees>-4.07949331216514110565185546875</LongitudeDegrees>
            </Position>
            <AltitudeMeters>1767.5999755859375</AltitudeMeters>
            <DistanceMeters>NAN</DistanceMeters>
          </Trackpoint>
          <Trackpoint>
            <Time>2018-12-30T12:45:24.000Z</Time>
            <Position>
              <LatitudeDegrees>40.776306353509426116943359375</LatitudeDegrees>
              <LongitudeDegrees>-4.07949498854577541351318359375</LongitudeDegrees>
            </Position>
            <AltitudeMeters>1767.5999755859375</AltitudeMeters>
            <DistanceMeters>NAN</DistanceMeters>
          </Trackpoint>
          <Trackpoint>
            <Time>2018-12-30T12:45:25.000Z</Time>
            <Position>
              <LatitudeDegrees>40.77629973180592060089111328125</LatitudeDegrees>
              <LongitudeDegrees>-4.07949431799352169036865234375</LongitudeDegrees>
            </Position>
            <AltitudeMeters>1767.5999755859375</AltitudeMeters>
            <DistanceMeters>NAN</DistanceMeters>
          </Trackpoint>
          <Trackpoint>
            <Time>2018-12-30T12:45:26.000Z</Time>
            <Position>
              <LatitudeDegrees>40.77628791332244873046875</LatitudeDegrees>
              <LongitudeDegrees>-4.07950404100120067596435546875</LongitudeDegrees>
            </Position>
            <AltitudeMeters>1767.5999755859375</AltitudeMeters>
            <DistanceMeters>NAN</DistanceMeters>
          </Trackpoint>
          <Trackpoint>
            <Time>2018-12-30T12:45:27.000Z</Time>
            <Position>
              <LatitudeDegrees>40.77628112398087978363037109375</LatitudeDegrees>
              <LongitudeDegrees>-4.07950789667665958404541015625</LongitudeDegrees>
            </Position>
            <AltitudeMeters>1767.5999755859375</AltitudeMeters>
            <DistanceMeters>NAN</DistanceMeters>
          </Trackpoint>
          <Trackpoint>
            <Time>2018-12-30T12:45:28.000Z</Time>
            <Position>
              <LatitudeDegrees>40.776274837553501129150390625</LatitudeDegrees>
              <LongitudeDegrees>-4.079508818686008453369140625</LongitudeDegrees>
            </Position>
            <AltitudeMeters>1767.5999755859375</AltitudeMeters>
            <DistanceMeters>NAN</DistanceMeters>
          </Trackpoint>
          <Trackpoint>
            <Time>2018-12-30T12:45:29.000Z</Time>
            <Position>
              <LatitudeDegrees>40.776269473135471343994140625</LatitudeDegrees>
              <LongitudeDegrees>-4.07950990833342075347900390625</LongitudeDegrees>
            </Position>
            <AltitudeMeters>1767.5999755859375</AltitudeMeters>
            <DistanceMeters>NAN</DistanceMeters>
          </Trackpoint>
          <Trackpoint>
            <Time>2018-12-30T12:45:30.000Z</Time>
            <Position>
              <LatitudeDegrees>40.77626100741326808929443359375</LatitudeDegrees>
              <LongitudeDegrees>-4.0795160271227359771728515625</LongitudeDegrees>
            </Position>
            <AltitudeMeters>1767.5999755859375</AltitudeMeters>
            <DistanceMeters>NAN</DistanceMeters>
          </Trackpoint>
          <Trackpoint>
            <Time>2018-12-30T12:45:31.000Z</Time>
            <Position>
              <LatitudeDegrees>40.7762522064149379730224609375</LatitudeDegrees>
              <LongitudeDegrees>-4.07952264882624149322509765625</LongitudeDegrees>
            </Position>
            <AltitudeMeters>1767.5999755859375</AltitudeMeters>
            <DistanceMeters>NAN</DistanceMeters>
          </Trackpoint>
          <Trackpoint>
            <Time>2018-12-30T12:45:32.000Z</Time>
            <Position>
              <LatitudeDegrees>40.77624030411243438720703125</LatitudeDegrees>
              <LongitudeDegrees>-4.0795297734439373016357421875</LongitudeDegrees>
            </Position>
            <AltitudeMeters>1767.5999755859375</AltitudeMeters>
            <DistanceMeters>NAN</DistanceMeters>
          </Trackpoint>
          <Trackpoint>
            <Time>2018-12-30T12:45:33.000Z</Time>
            <Position>
              <LatitudeDegrees>40.77623183839023113250732421875</LatitudeDegrees>
              <LongitudeDegrees>-4.07953790389001369476318359375</LongitudeDegrees>
            </Position>
            <AltitudeMeters>1767.5999755859375</AltitudeMeters>
            <DistanceMeters>NAN</DistanceMeters>
          </Trackpoint>
          <Trackpoint>
            <Time>2018-12-30T12:45:34.000Z</Time>
            <Position>
              <LatitudeDegrees>40.77622345648705959320068359375</LatitudeDegrees>
              <LongitudeDegrees>-4.07954494468867778778076171875</LongitudeDegrees>
            </Position>
            <AltitudeMeters>1767.5999755859375</AltitudeMeters>
            <DistanceMeters>NAN</DistanceMeters>
          </Trackpoint>
          <Trackpoint>
            <Time>2018-12-30T12:45:35.000Z</Time>
            <Position>
              <LatitudeDegrees>40.77621708624064922332763671875</LatitudeDegrees>
              <LongitudeDegrees>-4.079548381268978118896484375</LongitudeDegrees>
            </Position>
            <AltitudeMeters>1767.5999755859375</AltitudeMeters>
            <DistanceMeters>NAN</DistanceMeters>
          </Trackpoint>
          <Trackpoint>
            <Time>2018-12-30T12:45:36.000Z</Time>
            <Position>
              <LatitudeDegrees>40.77620811760425567626953125</LatitudeDegrees>
              <LongitudeDegrees>-4.079553745687007904052734375</LongitudeDegrees>
            </Position>
            <AltitudeMeters>1767.4000244140625</AltitudeMeters>
            <DistanceMeters>NAN</DistanceMeters>
          </Trackpoint>
          <Trackpoint>
            <Time>2018-12-30T12:45:37.000Z</Time>
            <Position>
              <LatitudeDegrees>40.77620250172913074493408203125</LatitudeDegrees>
              <LongitudeDegrees>-4.07955835573375225067138671875</LongitudeDegrees>
            </Position>
            <AltitudeMeters>1767.4000244140625</AltitudeMeters>
            <DistanceMeters>NAN</DistanceMeters>
          </Trackpoint>
          <Trackpoint>
            <Time>2018-12-30T12:45:38.000Z</Time>
            <Position>
              <LatitudeDegrees>40.77619411982595920562744140625</LatitudeDegrees>
              <LongitudeDegrees>-4.07956405542790889739990234375</LongitudeDegrees>
            </Position>
            <AltitudeMeters>1767.4000244140625</AltitudeMeters>
            <DistanceMeters>NAN</DistanceMeters>
          </Trackpoint>
          <Trackpoint>
            <Time>2018-12-30T12:45:39.000Z</Time>
            <Position>
              <LatitudeDegrees>40.77618758194148540496826171875</LatitudeDegrees>
              <LongitudeDegrees>-4.07956640236079692840576171875</LongitudeDegrees>
            </Position>
            <AltitudeMeters>1767.199951171875</AltitudeMeters>
            <DistanceMeters>NAN</DistanceMeters>
          </Trackpoint>
          <Trackpoint>
            <Time>2018-12-30T12:45:40.000Z</Time>
            <Position>
              <LatitudeDegrees>40.77618054114282131195068359375</LatitudeDegrees>
              <LongitudeDegrees>-4.07957109622657299041748046875</LongitudeDegrees>
            </Position>
            <AltitudeMeters>1767.199951171875</AltitudeMeters>
            <DistanceMeters>NAN</DistanceMeters>
          </Trackpoint>
          <Trackpoint>
            <Time>2018-12-30T12:45:41.000Z</Time>
            <Position>
              <LatitudeDegrees>40.77617366798222064971923828125</LatitudeDegrees>
              <LongitudeDegrees>-4.07957528717815876007080078125</LongitudeDegrees>
            </Position>
            <AltitudeMeters>1767.199951171875</AltitudeMeters>
            <DistanceMeters>NAN</DistanceMeters>
          </Trackpoint>
          <Trackpoint>
            <Time>2018-12-30T12:45:42.000Z</Time>
            <Position>
              <LatitudeDegrees>40.77617081813514232635498046875</LatitudeDegrees>
              <LongitudeDegrees>-4.079582579433917999267578125</LongitudeDegrees>
            </Position>
            <AltitudeMeters>1767.199951171875</AltitudeMeters>
            <DistanceMeters>NAN</DistanceMeters>
          </Trackpoint>
          <Trackpoint>
            <Time>2018-12-30T12:45:43.000Z</Time>
            <Position>
              <LatitudeDegrees>40.776166208088397979736328125</LatitudeDegrees>
              <LongitudeDegrees>-4.07958165742456912994384765625</LongitudeDegrees>
            </Position>
            <AltitudeMeters>1767.199951171875</AltitudeMeters>
            <DistanceMeters>NAN</DistanceMeters>
          </Trackpoint>
          <Trackpoint>
            <Time>2018-12-30T12:45:44.000Z</Time>
            <Position>
              <LatitudeDegrees>40.7761660404503345489501953125</LatitudeDegrees>
              <LongitudeDegrees>-4.07958266325294971466064453125</LongitudeDegrees>
            </Position>
            <AltitudeMeters>1767.199951171875</AltitudeMeters>
            <DistanceMeters>NAN</DistanceMeters>
          </Trackpoint>
          <Trackpoint>
            <Time>2018-12-30T12:45:45.000Z</Time>
            <Position>
              <LatitudeDegrees>40.77616193331778049468994140625</LatitudeDegrees>
              <LongitudeDegrees>-4.079587273299694061279296875</LongitudeDegrees>
            </Position>
            <AltitudeMeters>1767.199951171875</AltitudeMeters>
            <DistanceMeters>NAN</DistanceMeters>
          </Trackpoint>
          <Trackpoint>
            <Time>2018-12-30T12:45:46.000Z</Time>
            <Position>
              <LatitudeDegrees>40.776153467595577239990234375</LatitudeDegrees>
              <LongitudeDegrees>-4.07959121279418468475341796875</LongitudeDegrees>
            </Position>
            <AltitudeMeters>1767.199951171875</AltitudeMeters>
            <DistanceMeters>NAN</DistanceMeters>
          </Trackpoint>
          <Trackpoint>
            <Time>2018-12-30T12:45:47.000Z</Time>
            <Position>
              <LatitudeDegrees>40.77614366076886653900146484375</LatitudeDegrees>
              <LongitudeDegrees>-4.079596661031246185302734375</LongitudeDegrees>
            </Position>
            <AltitudeMeters>1767.199951171875</AltitudeMeters>
            <DistanceMeters>NAN</DistanceMeters>
          </Trackpoint>
          <Trackpoint>
            <Time>2018-12-30T12:45:48.000Z</Time>
            <Position>
              <LatitudeDegrees>40.77612840570509433746337890625</LatitudeDegrees>
              <LongitudeDegrees>-4.07960127107799053192138671875</LongitudeDegrees>
            </Position>
            <AltitudeMeters>1767.4000244140625</AltitudeMeters>
            <DistanceMeters>NAN</DistanceMeters>
          </Trackpoint>
          <Trackpoint>
            <Time>2018-12-30T12:45:49.000Z</Time>
            <Position>
              <LatitudeDegrees>40.77611315064132213592529296875</LatitudeDegrees>
              <LongitudeDegrees>-4.07960361801087856292724609375</LongitudeDegrees>
            </Position>
            <AltitudeMeters>1767.800048828125</AltitudeMeters>
            <DistanceMeters>NAN</DistanceMeters>
          </Trackpoint>
          <Trackpoint>
            <Time>2018-12-30T12:45:50.000Z</Time>
            <Position>
              <LatitudeDegrees>40.7761030085384845733642578125</LatitudeDegrees>
              <LongitudeDegrees>-4.0796092338860034942626953125</LongitudeDegrees>
            </Position>
            <AltitudeMeters>1768.199951171875</AltitudeMeters>
            <DistanceMeters>NAN</DistanceMeters>
          </Trackpoint>
          <Trackpoint>
            <Time>2018-12-30T12:45:51.000Z</Time>
            <Position>
              <LatitudeDegrees>40.7760949619114398956298828125</LatitudeDegrees>
              <LongitudeDegrees>-4.07961585558950901031494140625</LongitudeDegrees>
            </Position>
            <AltitudeMeters>1768.199951171875</AltitudeMeters>
            <DistanceMeters>NAN</DistanceMeters>
          </Trackpoint>
          <Trackpoint>
            <Time>2018-12-30T12:45:52.000Z</Time>
            <Position>
              <LatitudeDegrees>40.77608364634215831756591796875</LatitudeDegrees>
              <LongitudeDegrees>-4.079623483121395111083984375</LongitudeDegrees>
            </Position>
            <AltitudeMeters>1768.199951171875</AltitudeMeters>
            <DistanceMeters>NAN</DistanceMeters>
          </Trackpoint>
          <Trackpoint>
            <Time>2018-12-30T12:45:53.000Z</Time>
            <Position>
              <LatitudeDegrees>40.7760761864483356475830078125</LatitudeDegrees>
              <LongitudeDegrees>-4.0796320326626300811767578125</LongitudeDegrees>
            </Position>
            <AltitudeMeters>1768.4000244140625</AltitudeMeters>
            <DistanceMeters>NAN</DistanceMeters>
          </Trackpoint>
          <Trackpoint>
            <Time>2018-12-30T12:45:54.000Z</Time>
            <Position>
              <LatitudeDegrees>40.776072330772876739501953125</LatitudeDegrees>
              <LongitudeDegrees>-4.07964334823191165924072265625</LongitudeDegrees>
            </Position>
            <AltitudeMeters>1768.5999755859375</AltitudeMeters>
            <DistanceMeters>NAN</DistanceMeters>
          </Trackpoint>
          <Trackpoint>
            <Time>2018-12-30T12:45:55.000Z</Time>
            <Position>
              <LatitudeDegrees>40.77606202103197574615478515625</LatitudeDegrees>
              <LongitudeDegrees>-4.079652316868305206298828125</LongitudeDegrees>
            </Position>
            <AltitudeMeters>1768.5999755859375</AltitudeMeters>
            <DistanceMeters>NAN</DistanceMeters>
          </Trackpoint>
          <Trackpoint>
            <Time>2018-12-30T12:45:56.000Z</Time>
            <Position>
              <LatitudeDegrees>40.7760530523955821990966796875</LatitudeDegrees>
              <LongitudeDegrees>-4.07965826801955699920654296875</LongitudeDegrees>
            </Position>
            <AltitudeMeters>1768.5999755859375</AltitudeMeters>
            <DistanceMeters>NAN</DistanceMeters>
          </Trackpoint>
          <Trackpoint>
            <Time>2018-12-30T12:45:57.000Z</Time>
            <Position>
              <LatitudeDegrees>40.776046179234981536865234375</LatitudeDegrees>
              <LongitudeDegrees>-4.07966606318950653076171875</LongitudeDegrees>
            </Position>
            <AltitudeMeters>1768.5999755859375</AltitudeMeters>
            <DistanceMeters>NAN</DistanceMeters>
          </Trackpoint>
          <Trackpoint>
            <Time>2018-12-30T12:45:58.000Z</Time>
            <Position>
              <LatitudeDegrees>40.7760346122086048126220703125</LatitudeDegrees>
              <LongitudeDegrees>-4.079672433435916900634765625</LongitudeDegrees>
            </Position>
            <AltitudeMeters>1768.800048828125</AltitudeMeters>
            <DistanceMeters>NAN</DistanceMeters>
          </Trackpoint>
          <Trackpoint>
            <Time>2018-12-30T12:45:59.000Z</Time>
            <Position>
              <LatitudeDegrees>40.77602262608706951141357421875</LatitudeDegrees>
              <LongitudeDegrees>-4.07967754639685153961181640625</LongitudeDegrees>
            </Position>
            <AltitudeMeters>1768.800048828125</AltitudeMeters>
            <DistanceMeters>NAN</DistanceMeters>
          </Trackpoint>
          <Trackpoint>
            <Time>2018-12-30T12:46:00.000Z</Time>
            <Position>
              <LatitudeDegrees>40.7760121487081050872802734375</LatitudeDegrees>
              <LongitudeDegrees>-4.07968324609100818634033203125</LongitudeDegrees>
            </Position>
            <AltitudeMeters>1769</AltitudeMeters>
            <DistanceMeters>NAN</DistanceMeters>
          </Trackpoint>
          <Trackpoint>
            <Time>2018-12-30T12:46:01.000Z</Time>
            <Position>
              <LatitudeDegrees>40.77600519172847270965576171875</LatitudeDegrees>
              <LongitudeDegrees>-4.07969766296446323394775390625</LongitudeDegrees>
            </Position>
            <AltitudeMeters>1769</AltitudeMeters>
            <DistanceMeters>NAN</DistanceMeters>
          </Trackpoint>
          <Trackpoint>
            <Time>2018-12-30T12:46:02.000Z</Time>
            <Position>
              <LatitudeDegrees>40.77599563635885715484619140625</LatitudeDegrees>
              <LongitudeDegrees>-4.07971157692372798919677734375</LongitudeDegrees>
            </Position>
            <AltitudeMeters>1769.4000244140625</AltitudeMeters>
            <DistanceMeters>NAN</DistanceMeters>
          </Trackpoint>
          <Trackpoint>
            <Time>2018-12-30T12:46:03.000Z</Time>
            <Position>
              <LatitudeDegrees>40.775985158979892730712890625</LatitudeDegrees>
              <LongitudeDegrees>-4.07972163520753383636474609375</LongitudeDegrees>
            </Position>
            <AltitudeMeters>1769.5999755859375</AltitudeMeters>
            <DistanceMeters>NAN</DistanceMeters>
          </Trackpoint>
          <Trackpoint>
            <Time>2018-12-30T12:46:04.000Z</Time>
            <Position>
              <LatitudeDegrees>40.77597166411578655242919921875</LatitudeDegrees>
              <LongitudeDegrees>-4.07973110675811767578125</LongitudeDegrees>
            </Position>
            <AltitudeMeters>1769.800048828125</AltitudeMeters>
            <DistanceMeters>NAN</DistanceMeters>
          </Trackpoint>
          <Trackpoint>
            <Time>2018-12-30T12:46:05.000Z</Time>
            <Position>
              <LatitudeDegrees>40.775957666337490081787109375</LatitudeDegrees>
              <LongitudeDegrees>-4.07973823137581348419189453125</LongitudeDegrees>
            </Position>
            <AltitudeMeters>1770</AltitudeMeters>
            <DistanceMeters>NAN</DistanceMeters>
          </Trackpoint>
          <Trackpoint>
            <Time>2018-12-30T12:46:06.000Z</Time>
            <Position>
              <LatitudeDegrees>40.77594651840627193450927734375</LatitudeDegrees>
              <LongitudeDegrees>-4.0797423385083675384521484375</LongitudeDegrees>
            </Position>
            <AltitudeMeters>1770</AltitudeMeters>
            <DistanceMeters>NAN</DistanceMeters>
          </Trackpoint>
          <Trackpoint>
            <Time>2018-12-30T12:46:07.000Z</Time>
            <Position>
              <LatitudeDegrees>40.77593344263732433319091796875</LatitudeDegrees>
              <LongitudeDegrees>-4.0797450207173824310302734375</LongitudeDegrees>
            </Position>
            <AltitudeMeters>1770.199951171875</AltitudeMeters>
            <DistanceMeters>NAN</DistanceMeters>
          </Trackpoint>
          <Trackpoint>
            <Time>2018-12-30T12:46:08.000Z</Time>
            <Position>
              <LatitudeDegrees>40.77591215260326862335205078125</LatitudeDegrees>
              <LongitudeDegrees>-4.079744517803192138671875</LongitudeDegrees>
            </Position>
            <AltitudeMeters>1770.4000244140625</AltitudeMeters>
            <DistanceMeters>NAN</DistanceMeters>
          </Trackpoint>
          <Trackpoint>
            <Time>2018-12-30T12:46:09.000Z</Time>
            <Position>
              <LatitudeDegrees>40.77589505352079868316650390625</LatitudeDegrees>
              <LongitudeDegrees>-4.0797483734786510467529296875</LongitudeDegrees>
            </Position>
            <AltitudeMeters>1770.5999755859375</AltitudeMeters>
            <DistanceMeters>NAN</DistanceMeters>
          </Trackpoint>
          <Trackpoint>
            <Time>2018-12-30T12:46:10.000Z</Time>
            <Position>
              <LatitudeDegrees>40.7758773677051067352294921875</LatitudeDegrees>
              <LongitudeDegrees>-4.07975801266729831695556640625</LongitudeDegrees>
            </Position>
            <AltitudeMeters>1770.800048828125</AltitudeMeters>
            <DistanceMeters>NAN</DistanceMeters>
          </Trackpoint>
          <Trackpoint>
            <Time>2018-12-30T12:46:11.000Z</Time>
            <Position>
              <LatitudeDegrees>40.77586487866938114166259765625</LatitudeDegrees>
              <LongitudeDegrees>-4.0797654725611209869384765625</LongitudeDegrees>
            </Position>
            <AltitudeMeters>1771.199951171875</AltitudeMeters>
            <DistanceMeters>NAN</DistanceMeters>
          </Trackpoint>
          <Trackpoint>
            <Time>2018-12-30T12:46:12.000Z</Time>
            <Position>
              <LatitudeDegrees>40.77585331164300441741943359375</LatitudeDegrees>
              <LongitudeDegrees>-4.07977444119751453399658203125</LongitudeDegrees>
            </Position>
            <AltitudeMeters>1771.4000244140625</AltitudeMeters>
            <DistanceMeters>NAN</DistanceMeters>
          </Trackpoint>
          <Trackpoint>
            <Time>2018-12-30T12:46:13.000Z</Time>
            <Position>
              <LatitudeDegrees>40.775840990245342254638671875</LatitudeDegrees>
              <LongitudeDegrees>-4.07978634350001811981201171875</LongitudeDegrees>
            </Position>
            <AltitudeMeters>1771.4000244140625</AltitudeMeters>
            <DistanceMeters>NAN</DistanceMeters>
          </Trackpoint>
          <Trackpoint>
            <Time>2018-12-30T12:46:14.000Z</Time>
            <Position>
              <LatitudeDegrees>40.7758277468383312225341796875</LatitudeDegrees>
              <LongitudeDegrees>-4.0797941386699676513671875</LongitudeDegrees>
            </Position>
            <AltitudeMeters>1771.5999755859375</AltitudeMeters>
            <DistanceMeters>NAN</DistanceMeters>
          </Trackpoint>
          <Trackpoint>
            <Time>2018-12-30T12:46:15.000Z</Time>
            <Position>
              <LatitudeDegrees>40.775812156498432159423828125</LatitudeDegrees>
              <LongitudeDegrees>-4.079799838364124298095703125</LongitudeDegrees>
            </Position>
            <AltitudeMeters>1771.5999755859375</AltitudeMeters>
            <DistanceMeters>NAN</DistanceMeters>
          </Trackpoint>
          <Trackpoint>
            <Time>2018-12-30T12:46:16.000Z</Time>
            <Position>
              <LatitudeDegrees>40.7757979072630405426025390625</LatitudeDegrees>
              <LongitudeDegrees>-4.07980629242956638336181640625</LongitudeDegrees>
            </Position>
            <AltitudeMeters>1771.4000244140625</AltitudeMeters>
            <DistanceMeters>NAN</DistanceMeters>
          </Trackpoint>
          <Trackpoint>
            <Time>2018-12-30T12:46:17.000Z</Time>
            <Position>
              <LatitudeDegrees>40.7757855020463466644287109375</LatitudeDegrees>
              <LongitudeDegrees>-4.0798127464950084686279296875</LongitudeDegrees>
            </Position>
            <AltitudeMeters>1771.4000244140625</AltitudeMeters>
            <DistanceMeters>NAN</DistanceMeters>
          </Trackpoint>
          <Trackpoint>
            <Time>2018-12-30T12:46:18.000Z</Time>
            <Position>
              <LatitudeDegrees>40.7757724262773990631103515625</LatitudeDegrees>
              <LongitudeDegrees>-4.079820625483989715576171875</LongitudeDegrees>
            </Position>
            <AltitudeMeters>1771.199951171875</AltitudeMeters>
            <DistanceMeters>NAN</DistanceMeters>
          </Trackpoint>
          <Trackpoint>
            <Time>2018-12-30T12:46:19.000Z</Time>
            <Position>
              <LatitudeDegrees>40.7757603563368320465087890625</LatitudeDegrees>
              <LongitudeDegrees>-4.07982858829200267791748046875</LongitudeDegrees>
            </Position>
            <AltitudeMeters>1770.800048828125</AltitudeMeters>
            <DistanceMeters>NAN</DistanceMeters>
          </Trackpoint>
          <Trackpoint>
            <Time>2018-12-30T12:46:20.000Z</Time>
            <Position>
              <LatitudeDegrees>40.775747112929821014404296875</LatitudeDegrees>
              <LongitudeDegrees>-4.079837389290332794189453125</LongitudeDegrees>
            </Position>
            <AltitudeMeters>1770.5999755859375</AltitudeMeters>
            <DistanceMeters>NAN</DistanceMeters>
          </Trackpoint>
          <Trackpoint>
            <Time>2018-12-30T12:46:21.000Z</Time>
            <Position>
              <LatitudeDegrees>40.77573244459927082061767578125</LatitudeDegrees>
              <LongitudeDegrees>-4.07984484918415546417236328125</LongitudeDegrees>
            </Position>
            <AltitudeMeters>1770.4000244140625</AltitudeMeters>
            <DistanceMeters>NAN</DistanceMeters>
          </Trackpoint>
          <Trackpoint>
            <Time>2018-12-30T12:46:22.000Z</Time>
            <Position>
              <LatitudeDegrees>40.77571635134518146514892578125</LatitudeDegrees>
              <LongitudeDegrees>-4.079854153096675872802734375</LongitudeDegrees>
            </Position>
            <AltitudeMeters>1770.199951171875</AltitudeMeters>
            <DistanceMeters>NAN</DistanceMeters>
          </Trackpoint>
          <Trackpoint>
            <Time>2018-12-30T12:46:23.000Z</Time>
            <Position>
              <LatitudeDegrees>40.7757023535668849945068359375</LatitudeDegrees>
              <LongitudeDegrees>-4.07986328937113285064697265625</LongitudeDegrees>
            </Position>
            <AltitudeMeters>1770</AltitudeMeters>
            <DistanceMeters>NAN</DistanceMeters>
          </Trackpoint>
          <Trackpoint>
            <Time>2018-12-30T12:46:24.000Z</Time>
            <Position>
              <LatitudeDegrees>40.7756882719695568084716796875</LatitudeDegrees>
              <LongitudeDegrees>-4.07987133599817752838134765625</LongitudeDegrees>
            </Position>
            <AltitudeMeters>1770</AltitudeMeters>
            <DistanceMeters>NAN</DistanceMeters>
          </Trackpoint>
          <Trackpoint>
            <Time>2018-12-30T12:46:25.000Z</Time>
            <Position>
              <LatitudeDegrees>40.77567762695252895355224609375</LatitudeDegrees>
              <LongitudeDegrees>-4.0798808075487613677978515625</LongitudeDegrees>
            </Position>
            <AltitudeMeters>1770.199951171875</AltitudeMeters>
            <DistanceMeters>NAN</DistanceMeters>
          </Trackpoint>
          <Trackpoint>
            <Time>2018-12-30T12:46:26.000Z</Time>
            <Position>
              <LatitudeDegrees>40.77566924504935741424560546875</LatitudeDegrees>
              <LongitudeDegrees>-4.0798933804035186767578125</LongitudeDegrees>
            </Position>
            <AltitudeMeters>1770.199951171875</AltitudeMeters>
            <DistanceMeters>NAN</DistanceMeters>
          </Trackpoint>
          <Trackpoint>
            <Time>2018-12-30T12:46:27.000Z</Time>
            <Position>
              <LatitudeDegrees>40.77565960586071014404296875</LatitudeDegrees>
              <LongitudeDegrees>-4.07990737818181514739990234375</LongitudeDegrees>
            </Position>
            <AltitudeMeters>1770.199951171875</AltitudeMeters>
            <DistanceMeters>NAN</DistanceMeters>
          </Trackpoint>
          <Trackpoint>
            <Time>2018-12-30T12:46:28.000Z</Time>
            <Position>
              <LatitudeDegrees>40.7756483741104602813720703125</LatitudeDegrees>
              <LongitudeDegrees>-4.07991978339850902557373046875</LongitudeDegrees>
            </Position>
            <AltitudeMeters>1770.199951171875</AltitudeMeters>
            <DistanceMeters>NAN</DistanceMeters>
          </Trackpoint>
          <Trackpoint>
            <Time>2018-12-30T12:46:29.000Z</Time>
            <Position>
              <LatitudeDegrees>40.77563680708408355712890625</LatitudeDegrees>
              <LongitudeDegrees>-4.07992900349199771881103515625</LongitudeDegrees>
            </Position>
            <AltitudeMeters>1770.4000244140625</AltitudeMeters>
            <DistanceMeters>NAN</DistanceMeters>
          </Trackpoint>
          <Trackpoint>
            <Time>2018-12-30T12:46:30.000Z</Time>
            <Position>
              <LatitudeDegrees>40.7756262458860874176025390625</LatitudeDegrees>
              <LongitudeDegrees>-4.07993772067129611968994140625</LongitudeDegrees>
            </Position>
            <AltitudeMeters>1770.4000244140625</AltitudeMeters>
            <DistanceMeters>NAN</DistanceMeters>
          </Trackpoint>
          <Trackpoint>
            <Time>2018-12-30T12:46:31.000Z</Time>
            <Position>
              <LatitudeDegrees>40.77561727724969387054443359375</LatitudeDegrees>
              <LongitudeDegrees>-4.0799481980502605438232421875</LongitudeDegrees>
            </Position>
            <AltitudeMeters>1770.4000244140625</AltitudeMeters>
            <DistanceMeters>NAN</DistanceMeters>
          </Trackpoint>
          <Trackpoint>
            <Time>2018-12-30T12:46:32.000Z</Time>
            <Position>
              <LatitudeDegrees>40.7756081409752368927001953125</LatitudeDegrees>
              <LongitudeDegrees>-4.07996102236211299896240234375</LongitudeDegrees>
            </Position>
            <AltitudeMeters>1770.4000244140625</AltitudeMeters>
            <DistanceMeters>NAN</DistanceMeters>
          </Trackpoint>
          <Trackpoint>
            <Time>2018-12-30T12:46:33.000Z</Time>
            <Position>
              <LatitudeDegrees>40.7755997590720653533935546875</LatitudeDegrees>
              <LongitudeDegrees>-4.07997476868331432342529296875</LongitudeDegrees>
            </Position>
            <AltitudeMeters>1770.5999755859375</AltitudeMeters>
            <DistanceMeters>NAN</DistanceMeters>
          </Trackpoint>
          <Trackpoint>
            <Time>2018-12-30T12:46:34.000Z</Time>
            <Position>
              <LatitudeDegrees>40.77559347264468669891357421875</LatitudeDegrees>
              <LongitudeDegrees>-4.07998834736645221710205078125</LongitudeDegrees>
            </Position>
            <AltitudeMeters>1770.5999755859375</AltitudeMeters>
            <DistanceMeters>NAN</DistanceMeters>
          </Trackpoint>
          <Trackpoint>
            <Time>2018-12-30T12:46:35.000Z</Time>
            <Position>
              <LatitudeDegrees>40.7755846716463565826416015625</LatitudeDegrees>
              <LongitudeDegrees>-4.0800011716783046722412109375</LongitudeDegrees>
            </Position>
            <AltitudeMeters>1770.800048828125</AltitudeMeters>
            <DistanceMeters>NAN</DistanceMeters>
          </Trackpoint>
          <Trackpoint>
            <Time>2018-12-30T12:46:36.000Z</Time>
            <Position>
              <LatitudeDegrees>40.77557989396154880523681640625</LatitudeDegrees>
              <LongitudeDegrees>-4.08001684583723545074462890625</LongitudeDegrees>
            </Position>
            <AltitudeMeters>1770.800048828125</AltitudeMeters>
            <DistanceMeters>NAN</DistanceMeters>
          </Trackpoint>
          <Trackpoint>
            <Time>2018-12-30T12:46:37.000Z</Time>
            <Position>
              <LatitudeDegrees>40.77557084150612354278564453125</LatitudeDegrees>
              <LongitudeDegrees>-4.08003151416778564453125</LongitudeDegrees>
            </Position>
            <AltitudeMeters>1771</AltitudeMeters>
            <DistanceMeters>NAN</DistanceMeters>
          </Trackpoint>
          <Trackpoint>
            <Time>2018-12-30T12:46:38.000Z</Time>
            <Position>
              <LatitudeDegrees>40.7755623757839202880859375</LatitudeDegrees>
              <LongitudeDegrees>-4.08004752360284328460693359375</LongitudeDegrees>
            </Position>
            <AltitudeMeters>1771</AltitudeMeters>
            <DistanceMeters>NAN</DistanceMeters>
          </Trackpoint>
          <Trackpoint>
            <Time>2018-12-30T12:46:39.000Z</Time>
            <Position>
              <LatitudeDegrees>40.77555826865136623382568359375</LatitudeDegrees>
              <LongitudeDegrees>-4.08006059937179088592529296875</LongitudeDegrees>
            </Position>
            <AltitudeMeters>1771</AltitudeMeters>
            <DistanceMeters>NAN</DistanceMeters>
          </Trackpoint>
          <Trackpoint>
            <Time>2018-12-30T12:46:40.000Z</Time>
            <Position>
              <LatitudeDegrees>40.7755528204143047332763671875</LatitudeDegrees>
              <LongitudeDegrees>-4.080072082579135894775390625</LongitudeDegrees>
            </Position>
            <AltitudeMeters>1771.199951171875</AltitudeMeters>
            <DistanceMeters>NAN</DistanceMeters>
          </Trackpoint>
          <Trackpoint>
            <Time>2018-12-30T12:46:41.000Z</Time>
            <Position>
              <LatitudeDegrees>40.77554586343467235565185546875</LatitudeDegrees>
              <LongitudeDegrees>-4.08008490689098834991455078125</LongitudeDegrees>
            </Position>
            <AltitudeMeters>1771.4000244140625</AltitudeMeters>
            <DistanceMeters>NAN</DistanceMeters>
          </Trackpoint>
          <Trackpoint>
            <Time>2018-12-30T12:46:42.000Z</Time>
            <Position>
              <LatitudeDegrees>40.7755373977124691009521484375</LatitudeDegrees>
              <LongitudeDegrees>-4.08009412698447704315185546875</LongitudeDegrees>
            </Position>
            <AltitudeMeters>1771.4000244140625</AltitudeMeters>
            <DistanceMeters>NAN</DistanceMeters>
          </Trackpoint>
          <Trackpoint>
            <Time>2018-12-30T12:46:43.000Z</Time>
            <Position>
              <LatitudeDegrees>40.77553329057991504669189453125</LatitudeDegrees>
              <LongitudeDegrees>-4.08010351471602916717529296875</LongitudeDegrees>
            </Position>
            <AltitudeMeters>1771.5999755859375</AltitudeMeters>
            <DistanceMeters>NAN</DistanceMeters>
          </Trackpoint>
          <Trackpoint>
            <Time>2018-12-30T12:46:44.000Z</Time>
            <Position>
              <LatitudeDegrees>40.77552692033350467681884765625</LatitudeDegrees>
              <LongitudeDegrees>-4.080114327371120452880859375</LongitudeDegrees>
            </Position>
            <AltitudeMeters>1771.5999755859375</AltitudeMeters>
            <DistanceMeters>NAN</DistanceMeters>
          </Trackpoint>
          <Trackpoint>
            <Time>2018-12-30T12:46:45.000Z</Time>
            <Position>
              <LatitudeDegrees>40.77551719732582569122314453125</LatitudeDegrees>
              <LongitudeDegrees>-4.08012614585459232330322265625</LongitudeDegrees>
            </Position>
            <AltitudeMeters>1771.800048828125</AltitudeMeters>
            <DistanceMeters>NAN</DistanceMeters>
          </Trackpoint>
          <Trackpoint>
            <Time>2018-12-30T12:46:46.000Z</Time>
            <Position>
              <LatitudeDegrees>40.77550713904201984405517578125</LatitudeDegrees>
              <LongitudeDegrees>-4.08013955689966678619384765625</LongitudeDegrees>
            </Position>
            <AltitudeMeters>1771.800048828125</AltitudeMeters>
            <DistanceMeters>NAN</DistanceMeters>
          </Trackpoint>
          <Trackpoint>
            <Time>2018-12-30T12:46:47.000Z</Time>
            <Position>
              <LatitudeDegrees>40.77549674548208713531494140625</LatitudeDegrees>
              <LongitudeDegrees>-4.08015263266861438751220703125</LongitudeDegrees>
            </Position>
            <AltitudeMeters>1771.800048828125</AltitudeMeters>
            <DistanceMeters>NAN</DistanceMeters>
          </Trackpoint>
          <Trackpoint>
            <Time>2018-12-30T12:46:48.000Z</Time>
            <Position>
              <LatitudeDegrees>40.77548702247440814971923828125</LatitudeDegrees>
              <LongitudeDegrees>-4.08016361296176910400390625</LongitudeDegrees>
            </Position>
            <AltitudeMeters>1771.800048828125</AltitudeMeters>
            <DistanceMeters>NAN</DistanceMeters>
          </Trackpoint>
          <Trackpoint>
            <Time>2018-12-30T12:46:49.000Z</Time>
            <Position>
              <LatitudeDegrees>40.77547662891447544097900390625</LatitudeDegrees>
              <LongitudeDegrees>-4.08017124049365520477294921875</LongitudeDegrees>
            </Position>
            <AltitudeMeters>1771.800048828125</AltitudeMeters>
            <DistanceMeters>NAN</DistanceMeters>
          </Trackpoint>
          <Trackpoint>
            <Time>2018-12-30T12:46:50.000Z</Time>
            <Position>
              <LatitudeDegrees>40.77546472661197185516357421875</LatitudeDegrees>
              <LongitudeDegrees>-4.0801795385777950286865234375</LongitudeDegrees>
            </Position>
            <AltitudeMeters>1771.800048828125</AltitudeMeters>
            <DistanceMeters>NAN</DistanceMeters>
          </Trackpoint>
          <Trackpoint>
            <Time>2018-12-30T12:46:51.000Z</Time>
            <Position>
              <LatitudeDegrees>40.77545533888041973114013671875</LatitudeDegrees>
              <LongitudeDegrees>-4.0801916085183620452880859375</LongitudeDegrees>
            </Position>
            <AltitudeMeters>1772</AltitudeMeters>
            <DistanceMeters>NAN</DistanceMeters>
          </Trackpoint>
          <Trackpoint>
            <Time>2018-12-30T12:46:52.000Z</Time>
            <Position>
              <LatitudeDegrees>40.77545047737658023834228515625</LatitudeDegrees>
              <LongitudeDegrees>-4.0802056901156902313232421875</LongitudeDegrees>
            </Position>
            <AltitudeMeters>1772</AltitudeMeters>
            <DistanceMeters>NAN</DistanceMeters>
          </Trackpoint>
          <Trackpoint>
            <Time>2018-12-30T12:46:53.000Z</Time>
            <Position>
              <LatitudeDegrees>40.775441341102123260498046875</LatitudeDegrees>
              <LongitudeDegrees>-4.08021750859916210174560546875</LongitudeDegrees>
            </Position>
            <AltitudeMeters>1772</AltitudeMeters>
            <DistanceMeters>NAN</DistanceMeters>
          </Trackpoint>
          <Trackpoint>
            <Time>2018-12-30T12:46:54.000Z</Time>
            <Position>
              <LatitudeDegrees>40.77543295919895172119140625</LatitudeDegrees>
              <LongitudeDegrees>-4.0802301652729511260986328125</LongitudeDegrees>
            </Position>
            <AltitudeMeters>1772</AltitudeMeters>
            <DistanceMeters>NAN</DistanceMeters>
          </Trackpoint>
          <Trackpoint>
            <Time>2018-12-30T12:46:55.000Z</Time>
            <Position>
              <LatitudeDegrees>40.77542650513350963592529296875</LatitudeDegrees>
              <LongitudeDegrees>-4.08024500124156475067138671875</LongitudeDegrees>
            </Position>
            <AltitudeMeters>1772</AltitudeMeters>
            <DistanceMeters>NAN</DistanceMeters>
          </Trackpoint>
          <Trackpoint>
            <Time>2018-12-30T12:46:56.000Z</Time>
            <Position>
              <LatitudeDegrees>40.775421224534511566162109375</LatitudeDegrees>
              <LongitudeDegrees>-4.080261178314685821533203125</LongitudeDegrees>
            </Position>
            <AltitudeMeters>1772.199951171875</AltitudeMeters>
            <DistanceMeters>NAN</DistanceMeters>
          </Trackpoint>
          <Trackpoint>
            <Time>2018-12-30T12:46:57.000Z</Time>
            <Position>
              <LatitudeDegrees>40.77541108243167400360107421875</LatitudeDegrees>
              <LongitudeDegrees>-4.08027467317879199981689453125</LongitudeDegrees>
            </Position>
            <AltitudeMeters>1772.199951171875</AltitudeMeters>
            <DistanceMeters>NAN</DistanceMeters>
          </Trackpoint>
          <Trackpoint>
            <Time>2018-12-30T12:46:58.000Z</Time>
            <Position>
              <LatitudeDegrees>40.77540077269077301025390625</LatitudeDegrees>
              <LongitudeDegrees>-4.08028808422386646270751953125</LongitudeDegrees>
            </Position>
            <AltitudeMeters>1772.199951171875</AltitudeMeters>
            <DistanceMeters>NAN</DistanceMeters>
          </Trackpoint>
          <Trackpoint>
            <Time>2018-12-30T12:46:59.000Z</Time>
            <Position>
              <LatitudeDegrees>40.77539130114018917083740234375</LatitudeDegrees>
              <LongitudeDegrees>-4.08030174672603607177734375</LongitudeDegrees>
            </Position>
            <AltitudeMeters>1772.199951171875</AltitudeMeters>
            <DistanceMeters>NAN</DistanceMeters>
          </Trackpoint>
          <Trackpoint>
            <Time>2018-12-30T12:47:00.000Z</Time>
            <Position>
              <LatitudeDegrees>40.775380320847034454345703125</LatitudeDegrees>
              <LongitudeDegrees>-4.080318510532379150390625</LongitudeDegrees>
            </Position>
            <AltitudeMeters>1772.199951171875</AltitudeMeters>
            <DistanceMeters>NAN</DistanceMeters>
          </Trackpoint>
          <Trackpoint>
            <Time>2018-12-30T12:47:01.000Z</Time>
            <Position>
              <LatitudeDegrees>40.77537084929645061492919921875</LatitudeDegrees>
              <LongitudeDegrees>-4.08033234067261219024658203125</LongitudeDegrees>
            </Position>
            <AltitudeMeters>1772.199951171875</AltitudeMeters>
            <DistanceMeters>NAN</DistanceMeters>
          </Trackpoint>
          <Trackpoint>
            <Time>2018-12-30T12:47:02.000Z</Time>
            <Position>
              <LatitudeDegrees>40.77536246739327907562255859375</LatitudeDegrees>
              <LongitudeDegrees>-4.08034591935575008392333984375</LongitudeDegrees>
            </Position>
            <AltitudeMeters>1772.199951171875</AltitudeMeters>
            <DistanceMeters>NAN</DistanceMeters>
          </Trackpoint>
          <Trackpoint>
            <Time>2018-12-30T12:47:03.000Z</Time>
            <Position>
              <LatitudeDegrees>40.77535576187074184417724609375</LatitudeDegrees>
              <LongitudeDegrees>-4.08035807311534881591796875</LongitudeDegrees>
            </Position>
            <AltitudeMeters>1772.199951171875</AltitudeMeters>
            <DistanceMeters>NAN</DistanceMeters>
          </Trackpoint>
          <Trackpoint>
            <Time>2018-12-30T12:47:04.000Z</Time>
            <Position>
              <LatitudeDegrees>40.77534754760563373565673828125</LatitudeDegrees>
              <LongitudeDegrees>-4.08036955632269382476806640625</LongitudeDegrees>
            </Position>
            <AltitudeMeters>1772.199951171875</AltitudeMeters>
            <DistanceMeters>NAN</DistanceMeters>
          </Trackpoint>
          <Trackpoint>
            <Time>2018-12-30T12:47:05.000Z</Time>
            <Position>
              <LatitudeDegrees>40.7753389142453670501708984375</LatitudeDegrees>
              <LongitudeDegrees>-4.08038397319614887237548828125</LongitudeDegrees>
            </Position>
            <AltitudeMeters>1772.199951171875</AltitudeMeters>
            <DistanceMeters>NAN</DistanceMeters>
          </Trackpoint>
          <Trackpoint>
            <Time>2018-12-30T12:47:06.000Z</Time>
            <Position>
              <LatitudeDegrees>40.7753285206854343414306640625</LatitudeDegrees>
              <LongitudeDegrees>-4.08040073700249195098876953125</LongitudeDegrees>
            </Position>
            <AltitudeMeters>1772.199951171875</AltitudeMeters>
            <DistanceMeters>NAN</DistanceMeters>
          </Trackpoint>
          <Trackpoint>
            <Time>2018-12-30T12:47:07.000Z</Time>
            <Position>
              <LatitudeDegrees>40.775320641696453094482421875</LatitudeDegrees>
              <LongitudeDegrees>-4.0804135613143444061279296875</LongitudeDegrees>
            </Position>
            <AltitudeMeters>1772.4000244140625</AltitudeMeters>
            <DistanceMeters>NAN</DistanceMeters>
          </Trackpoint>
          <Trackpoint>
            <Time>2018-12-30T12:47:08.000Z</Time>
            <Position>
              <LatitudeDegrees>40.7753151096403598785400390625</LatitudeDegrees>
              <LongitudeDegrees>-4.08042772673070430755615234375</LongitudeDegrees>
            </Position>
            <AltitudeMeters>1772.4000244140625</AltitudeMeters>
            <DistanceMeters>NAN</DistanceMeters>
          </Trackpoint>
          <Trackpoint>
            <Time>2018-12-30T12:47:09.000Z</Time>
            <Position>
              <LatitudeDegrees>40.77530832029879093170166015625</LatitudeDegrees>
              <LongitudeDegrees>-4.0804397128522396087646484375</LongitudeDegrees>
            </Position>
            <AltitudeMeters>1772.4000244140625</AltitudeMeters>
            <DistanceMeters>NAN</DistanceMeters>
          </Trackpoint>
          <Trackpoint>
            <Time>2018-12-30T12:47:10.000Z</Time>
            <Position>
              <LatitudeDegrees>40.7752954959869384765625</LatitudeDegrees>
              <LongitudeDegrees>-4.08045756630599498748779296875</LongitudeDegrees>
            </Position>
            <AltitudeMeters>1772.5999755859375</AltitudeMeters>
            <DistanceMeters>NAN</DistanceMeters>
          </Trackpoint>
          <Trackpoint>
            <Time>2018-12-30T12:47:11.000Z</Time>
            <Position>
              <LatitudeDegrees>40.7752859406173229217529296875</LatitudeDegrees>
              <LongitudeDegrees>-4.0804692171514034271240234375</LongitudeDegrees>
            </Position>
            <AltitudeMeters>1772.800048828125</AltitudeMeters>
            <DistanceMeters>NAN</DistanceMeters>
          </Trackpoint>
          <Trackpoint>
            <Time>2018-12-30T12:47:12.000Z</Time>
            <Position>
              <LatitudeDegrees>40.77527831308543682098388671875</LatitudeDegrees>
              <LongitudeDegrees>-4.08048287965357303619384765625</LongitudeDegrees>
            </Position>
            <AltitudeMeters>1772.800048828125</AltitudeMeters>
            <DistanceMeters>NAN</DistanceMeters>
          </Trackpoint>
          <Trackpoint>
            <Time>2018-12-30T12:47:13.000Z</Time>
            <Position>
              <LatitudeDegrees>40.77526775188744068145751953125</LatitudeDegrees>
              <LongitudeDegrees>-4.08049578778445720672607421875</LongitudeDegrees>
            </Position>
            <AltitudeMeters>1772.800048828125</AltitudeMeters>
            <DistanceMeters>NAN</DistanceMeters>
          </Trackpoint>
          <Trackpoint>
            <Time>2018-12-30T12:47:14.000Z</Time>
            <Position>
              <LatitudeDegrees>40.7752567715942859649658203125</LatitudeDegrees>
              <LongitudeDegrees>-4.08050886355340480804443359375</LongitudeDegrees>
            </Position>
            <AltitudeMeters>1772.800048828125</AltitudeMeters>
            <DistanceMeters>NAN</DistanceMeters>
          </Trackpoint>
          <Trackpoint>
            <Time>2018-12-30T12:47:15.000Z</Time>
            <Position>
              <LatitudeDegrees>40.77524880878627300262451171875</LatitudeDegrees>
              <LongitudeDegrees>-4.08052478916943073272705078125</LongitudeDegrees>
            </Position>
            <AltitudeMeters>1772.800048828125</AltitudeMeters>
            <DistanceMeters>NAN</DistanceMeters>
          </Trackpoint>
          <Trackpoint>
            <Time>2018-12-30T12:47:16.000Z</Time>
            <Position>
              <LatitudeDegrees>40.7752405107021331787109375</LatitudeDegrees>
              <LongitudeDegrees>-4.08054188825190067291259765625</LongitudeDegrees>
            </Position>
            <AltitudeMeters>1772.800048828125</AltitudeMeters>
            <DistanceMeters>NAN</DistanceMeters>
          </Trackpoint>
          <Trackpoint>
            <Time>2018-12-30T12:47:17.000Z</Time>
            <Position>
              <LatitudeDegrees>40.77523238025605678558349609375</LatitudeDegrees>
              <LongitudeDegrees>-4.08055731095373630523681640625</LongitudeDegrees>
            </Position>
            <AltitudeMeters>1772.800048828125</AltitudeMeters>
            <DistanceMeters>NAN</DistanceMeters>
          </Trackpoint>
          <Trackpoint>
            <Time>2018-12-30T12:47:18.000Z</Time>
            <Position>
              <LatitudeDegrees>40.7752276025712490081787109375</LatitudeDegrees>
              <LongitudeDegrees>-4.08057793043553829193115234375</LongitudeDegrees>
            </Position>
            <AltitudeMeters>1772.5999755859375</AltitudeMeters>
            <DistanceMeters>NAN</DistanceMeters>
          </Trackpoint>
          <Trackpoint>
            <Time>2018-12-30T12:47:19.000Z</Time>
            <Position>
              <LatitudeDegrees>40.77521963976323604583740234375</LatitudeDegrees>
              <LongitudeDegrees>-4.08058874309062957763671875</LongitudeDegrees>
            </Position>
            <AltitudeMeters>1772.5999755859375</AltitudeMeters>
            <DistanceMeters>NAN</DistanceMeters>
          </Trackpoint>
          <Trackpoint>
            <Time>2018-12-30T12:47:20.000Z</Time>
            <Position>
              <LatitudeDegrees>40.77521075494587421417236328125</LatitudeDegrees>
              <LongitudeDegrees>-4.08059670589864253997802734375</LongitudeDegrees>
            </Position>
            <AltitudeMeters>1772.4000244140625</AltitudeMeters>
            <DistanceMeters>NAN</DistanceMeters>
          </Trackpoint>
          <Trackpoint>
            <Time>2018-12-30T12:47:21.000Z</Time>
            <Position>
              <LatitudeDegrees>40.7752054743468761444091796875</LatitudeDegrees>
              <LongitudeDegrees>-4.080607853829860687255859375</LongitudeDegrees>
            </Position>
            <AltitudeMeters>1772.4000244140625</AltitudeMeters>
            <DistanceMeters>NAN</DistanceMeters>
          </Trackpoint>
          <Trackpoint>
            <Time>2018-12-30T12:47:22.000Z</Time>
            <Position>
              <LatitudeDegrees>40.775195918977260589599609375</LatitudeDegrees>
              <LongitudeDegrees>-4.08061816357076168060302734375</LongitudeDegrees>
            </Position>
            <AltitudeMeters>1772.4000244140625</AltitudeMeters>
            <DistanceMeters>NAN</DistanceMeters>
          </Trackpoint>
          <Trackpoint>
            <Time>2018-12-30T12:47:23.000Z</Time>
            <Position>
              <LatitudeDegrees>40.775190554559230804443359375</LatitudeDegrees>
              <LongitudeDegrees>-4.08063241280615329742431640625</LongitudeDegrees>
            </Position>
            <AltitudeMeters>1772.4000244140625</AltitudeMeters>
            <DistanceMeters>NAN</DistanceMeters>
          </Trackpoint>
          <Trackpoint>
            <Time>2018-12-30T12:47:24.000Z</Time>
            <Position>
              <LatitudeDegrees>40.775185190141201019287109375</LatitudeDegrees>
              <LongitudeDegrees>-4.08064641058444976806640625</LongitudeDegrees>
            </Position>
            <AltitudeMeters>1772.4000244140625</AltitudeMeters>
            <DistanceMeters>NAN</DistanceMeters>
          </Trackpoint>
          <Trackpoint>
            <Time>2018-12-30T12:47:25.000Z</Time>
            <Position>
              <LatitudeDegrees>40.77517387457191944122314453125</LatitudeDegrees>
              <LongitudeDegrees>-4.080656804144382476806640625</LongitudeDegrees>
            </Position>
            <AltitudeMeters>1772.4000244140625</AltitudeMeters>
            <DistanceMeters>NAN</DistanceMeters>
          </Trackpoint>
          <Trackpoint>
            <Time>2018-12-30T12:47:26.000Z</Time>
            <Position>
              <LatitudeDegrees>40.7751632295548915863037109375</LatitudeDegrees>
              <LongitudeDegrees>-4.0806650184094905853271484375</LongitudeDegrees>
            </Position>
            <AltitudeMeters>1772.5999755859375</AltitudeMeters>
            <DistanceMeters>NAN</DistanceMeters>
          </Trackpoint>
          <Trackpoint>
            <Time>2018-12-30T12:47:27.000Z</Time>
            <Position>
              <LatitudeDegrees>40.7751528359949588775634765625</LatitudeDegrees>
              <LongitudeDegrees>-4.080677591264247894287109375</LongitudeDegrees>
            </Position>
            <AltitudeMeters>1772.5999755859375</AltitudeMeters>
            <DistanceMeters>NAN</DistanceMeters>
          </Trackpoint>
          <Trackpoint>
            <Time>2018-12-30T12:47:28.000Z</Time>
            <Position>
              <LatitudeDegrees>40.775144957005977630615234375</LatitudeDegrees>
              <LongitudeDegrees>-4.08069343306124210357666015625</LongitudeDegrees>
            </Position>
            <AltitudeMeters>1772.5999755859375</AltitudeMeters>
            <DistanceMeters>NAN</DistanceMeters>
          </Trackpoint>
          <Trackpoint>
            <Time>2018-12-30T12:47:29.000Z</Time>
            <Position>
              <LatitudeDegrees>40.77513297088444232940673828125</LatitudeDegrees>
              <LongitudeDegrees>-4.08070407807826995849609375</LongitudeDegrees>
            </Position>
            <AltitudeMeters>1772.5999755859375</AltitudeMeters>
            <DistanceMeters>NAN</DistanceMeters>
          </Trackpoint>
          <Trackpoint>
            <Time>2018-12-30T12:47:30.000Z</Time>
            <Position>
              <LatitudeDegrees>40.7751226611435413360595703125</LatitudeDegrees>
              <LongitudeDegrees>-4.08071656711399555206298828125</LongitudeDegrees>
            </Position>
            <AltitudeMeters>1772.5999755859375</AltitudeMeters>
            <DistanceMeters>NAN</DistanceMeters>
          </Trackpoint>
          <Trackpoint>
            <Time>2018-12-30T12:47:31.000Z</Time>
            <Position>
              <LatitudeDegrees>40.7751117646694183349609375</LatitudeDegrees>
              <LongitudeDegrees>-4.08072327263653278350830078125</LongitudeDegrees>
            </Position>
            <AltitudeMeters>1772.5999755859375</AltitudeMeters>
            <DistanceMeters>NAN</DistanceMeters>
          </Trackpoint>
          <Trackpoint>
            <Time>2018-12-30T12:47:32.000Z</Time>
            <Position>
              <LatitudeDegrees>40.7751015387475490570068359375</LatitudeDegrees>
              <LongitudeDegrees>-4.08074020408093929290771484375</LongitudeDegrees>
            </Position>
            <AltitudeMeters>1772.4000244140625</AltitudeMeters>
            <DistanceMeters>NAN</DistanceMeters>
          </Trackpoint>
          <Trackpoint>
            <Time>2018-12-30T12:47:33.000Z</Time>
            <Position>
              <LatitudeDegrees>40.77509139664471149444580078125</LatitudeDegrees>
              <LongitudeDegrees>-4.08075361512601375579833984375</LongitudeDegrees>
            </Position>
            <AltitudeMeters>1772.4000244140625</AltitudeMeters>
            <DistanceMeters>NAN</DistanceMeters>
          </Trackpoint>
          <Trackpoint>
            <Time>2018-12-30T12:47:34.000Z</Time>
            <Position>
              <LatitudeDegrees>40.77508720569312572479248046875</LatitudeDegrees>
              <LongitudeDegrees>-4.08076970838010311126708984375</LongitudeDegrees>
            </Position>
            <AltitudeMeters>1772.199951171875</AltitudeMeters>
            <DistanceMeters>NAN</DistanceMeters>
          </Trackpoint>
          <Trackpoint>
            <Time>2018-12-30T12:47:35.000Z</Time>
            <Position>
              <LatitudeDegrees>40.77507781796157360076904296875</LatitudeDegrees>
              <LongitudeDegrees>-4.080780185759067535400390625</LongitudeDegrees>
            </Position>
            <AltitudeMeters>1772.199951171875</AltitudeMeters>
            <DistanceMeters>NAN</DistanceMeters>
          </Trackpoint>
          <Trackpoint>
            <Time>2018-12-30T12:47:36.000Z</Time>
            <Position>
              <LatitudeDegrees>40.77507044188678264617919921875</LatitudeDegrees>
              <LongitudeDegrees>-4.08079602755606174468994140625</LongitudeDegrees>
            </Position>
            <AltitudeMeters>1772.199951171875</AltitudeMeters>
            <DistanceMeters>NAN</DistanceMeters>
          </Trackpoint>
          <Trackpoint>
            <Time>2018-12-30T12:47:37.000Z</Time>
            <Position>
              <LatitudeDegrees>40.77505879104137420654296875</LatitudeDegrees>
              <LongitudeDegrees>-4.0808106958866119384765625</LongitudeDegrees>
            </Position>
            <AltitudeMeters>1772.199951171875</AltitudeMeters>
            <DistanceMeters>NAN</DistanceMeters>
          </Trackpoint>
          <Trackpoint>
            <Time>2018-12-30T12:47:38.000Z</Time>
            <Position>
              <LatitudeDegrees>40.77504563145339488983154296875</LatitudeDegrees>
              <LongitudeDegrees>-4.0808214247226715087890625</LongitudeDegrees>
            </Position>
            <AltitudeMeters>1772.199951171875</AltitudeMeters>
            <DistanceMeters>NAN</DistanceMeters>
          </Trackpoint>
          <Trackpoint>
            <Time>2018-12-30T12:47:39.000Z</Time>
            <Position>
              <LatitudeDegrees>40.775031633675098419189453125</LatitudeDegrees>
              <LongitudeDegrees>-4.080831818282604217529296875</LongitudeDegrees>
            </Position>
            <AltitudeMeters>1772.199951171875</AltitudeMeters>
            <DistanceMeters>NAN</DistanceMeters>
          </Trackpoint>
          <Trackpoint>
            <Time>2018-12-30T12:47:40.000Z</Time>
            <Position>
              <LatitudeDegrees>40.77501813881099224090576171875</LatitudeDegrees>
              <LongitudeDegrees>-4.08083374612033367156982421875</LongitudeDegrees>
            </Position>
            <AltitudeMeters>1772.199951171875</AltitudeMeters>
            <DistanceMeters>NAN</DistanceMeters>
          </Trackpoint>
          <Trackpoint>
            <Time>2018-12-30T12:47:41.000Z</Time>
            <Position>
              <LatitudeDegrees>40.77500757761299610137939453125</LatitudeDegrees>
              <LongitudeDegrees>-4.08084766007959842681884765625</LongitudeDegrees>
            </Position>
            <AltitudeMeters>1772.4000244140625</AltitudeMeters>
            <DistanceMeters>NAN</DistanceMeters>
          </Trackpoint>
          <Trackpoint>
            <Time>2018-12-30T12:47:42.000Z</Time>
            <Position>
              <LatitudeDegrees>40.77499969862401485443115234375</LatitudeDegrees>
              <LongitudeDegrees>-4.0808588080108165740966796875</LongitudeDegrees>
            </Position>
            <AltitudeMeters>1772.4000244140625</AltitudeMeters>
            <DistanceMeters>NAN</DistanceMeters>
          </Trackpoint>
          <Trackpoint>
            <Time>2018-12-30T12:47:43.000Z</Time>
            <Position>
              <LatitudeDegrees>40.7749959267675876617431640625</LatitudeDegrees>
              <LongitudeDegrees>-4.08088252879679203033447265625</LongitudeDegrees>
            </Position>
            <AltitudeMeters>1772.4000244140625</AltitudeMeters>
            <DistanceMeters>NAN</DistanceMeters>
          </Trackpoint>
          <Trackpoint>
            <Time>2018-12-30T12:47:44.000Z</Time>
            <Position>
              <LatitudeDegrees>40.77498503029346466064453125</LatitudeDegrees>
              <LongitudeDegrees>-4.08090096898376941680908203125</LongitudeDegrees>
            </Position>
            <AltitudeMeters>1772.4000244140625</AltitudeMeters>
            <DistanceMeters>NAN</DistanceMeters>
          </Trackpoint>
          <Trackpoint>
            <Time>2018-12-30T12:47:45.000Z</Time>
            <Position>
              <LatitudeDegrees>40.7749744690954685211181640625</LatitudeDegrees>
              <LongitudeDegrees>-4.0809171460568904876708984375</LongitudeDegrees>
            </Position>
            <AltitudeMeters>1772.5999755859375</AltitudeMeters>
            <DistanceMeters>NAN</DistanceMeters>
          </Trackpoint>
          <Trackpoint>
            <Time>2018-12-30T12:47:46.000Z</Time>
            <Position>
              <LatitudeDegrees>40.77496516518294811248779296875</LatitudeDegrees>
              <LongitudeDegrees>-4.08092946745455265045166015625</LongitudeDegrees>
            </Position>
            <AltitudeMeters>1772.5999755859375</AltitudeMeters>
            <DistanceMeters>NAN</DistanceMeters>
          </Trackpoint>
          <Trackpoint>
            <Time>2018-12-30T12:47:47.000Z</Time>
            <Position>
              <LatitudeDegrees>40.7749587111175060272216796875</LatitudeDegrees>
              <LongitudeDegrees>-4.08094924874603748321533203125</LongitudeDegrees>
            </Position>
            <AltitudeMeters>1772.5999755859375</AltitudeMeters>
            <DistanceMeters>NAN</DistanceMeters>
          </Trackpoint>
          <Trackpoint>
            <Time>2018-12-30T12:47:48.000Z</Time>
            <Position>
              <LatitudeDegrees>40.774947814643383026123046875</LatitudeDegrees>
              <LongitudeDegrees>-4.08097095787525177001953125</LongitudeDegrees>
            </Position>
            <AltitudeMeters>1772.5999755859375</AltitudeMeters>
            <DistanceMeters>NAN</DistanceMeters>
          </Trackpoint>
          <Trackpoint>
            <Time>2018-12-30T12:47:49.000Z</Time>
            <Position>
              <LatitudeDegrees>40.7749379239976406097412109375</LatitudeDegrees>
              <LongitudeDegrees>-4.08098244108259677886962890625</LongitudeDegrees>
            </Position>
            <AltitudeMeters>1772.4000244140625</AltitudeMeters>
            <DistanceMeters>NAN</DistanceMeters>
          </Trackpoint>
          <Trackpoint>
            <Time>2018-12-30T12:47:50.000Z</Time>
            <Position>
              <LatitudeDegrees>40.77492727898061275482177734375</LatitudeDegrees>
              <LongitudeDegrees>-4.08099216409027576446533203125</LongitudeDegrees>
            </Position>
            <AltitudeMeters>1772.4000244140625</AltitudeMeters>
            <DistanceMeters>NAN</DistanceMeters>
          </Trackpoint>
          <Trackpoint>
            <Time>2018-12-30T12:47:51.000Z</Time>
            <Position>
              <LatitudeDegrees>40.774912275373935699462890625</LatitudeDegrees>
              <LongitudeDegrees>-4.08099819906055927276611328125</LongitudeDegrees>
            </Position>
            <AltitudeMeters>1772</AltitudeMeters>
            <DistanceMeters>NAN</DistanceMeters>
          </Trackpoint>
          <Trackpoint>
            <Time>2018-12-30T12:47:52.000Z</Time>
            <Position>
              <LatitudeDegrees>40.77490313909947872161865234375</LatitudeDegrees>
              <LongitudeDegrees>-4.0810113586485385894775390625</LongitudeDegrees>
            </Position>
            <AltitudeMeters>1771.5999755859375</AltitudeMeters>
            <DistanceMeters>NAN</DistanceMeters>
          </Trackpoint>
          <Trackpoint>
            <Time>2018-12-30T12:47:53.000Z</Time>
            <Position>
              <LatitudeDegrees>40.77489123679697513580322265625</LatitudeDegrees>
              <LongitudeDegrees>-4.0810251049697399139404296875</LongitudeDegrees>
            </Position>
            <AltitudeMeters>1771.199951171875</AltitudeMeters>
            <DistanceMeters>NAN</DistanceMeters>
          </Trackpoint>
          <Trackpoint>
            <Time>2018-12-30T12:47:54.000Z</Time>
            <Position>
              <LatitudeDegrees>40.7748795859515666961669921875</LatitudeDegrees>
              <LongitudeDegrees>-4.0810425393283367156982421875</LongitudeDegrees>
            </Position>
            <AltitudeMeters>1771.199951171875</AltitudeMeters>
            <DistanceMeters>NAN</DistanceMeters>
          </Trackpoint>
          <Trackpoint>
            <Time>2018-12-30T12:47:55.000Z</Time>
            <Position>
              <LatitudeDegrees>40.774867348372936248779296875</LatitudeDegrees>
              <LongitudeDegrees>-4.0810576267540454864501953125</LongitudeDegrees>
            </Position>
            <AltitudeMeters>1770.800048828125</AltitudeMeters>
            <DistanceMeters>NAN</DistanceMeters>
          </Trackpoint>
          <Trackpoint>
            <Time>2018-12-30T12:47:56.000Z</Time>
            <Position>
              <LatitudeDegrees>40.77485385350883007049560546875</LatitudeDegrees>
              <LongitudeDegrees>-4.08106994815170764923095703125</LongitudeDegrees>
            </Position>
            <AltitudeMeters>1770.800048828125</AltitudeMeters>
            <DistanceMeters>NAN</DistanceMeters>
          </Trackpoint>
          <Trackpoint>
            <Time>2018-12-30T12:47:57.000Z</Time>
            <Position>
              <LatitudeDegrees>40.77483759261667728424072265625</LatitudeDegrees>
              <LongitudeDegrees>-4.0810797549784183502197265625</LongitudeDegrees>
            </Position>
            <AltitudeMeters>1770.5999755859375</AltitudeMeters>
            <DistanceMeters>NAN</DistanceMeters>
          </Trackpoint>
          <Trackpoint>
            <Time>2018-12-30T12:47:58.000Z</Time>
            <Position>
              <LatitudeDegrees>40.77483155764639377593994140625</LatitudeDegrees>
              <LongitudeDegrees>-4.081100039184093475341796875</LongitudeDegrees>
            </Position>
            <AltitudeMeters>1770.5999755859375</AltitudeMeters>
            <DistanceMeters>NAN</DistanceMeters>
          </Trackpoint>
          <Trackpoint>
            <Time>2018-12-30T12:47:59.000Z</Time>
            <Position>
              <LatitudeDegrees>40.774826109409332275390625</LatitudeDegrees>
              <LongitudeDegrees>-4.08111655153334140777587890625</LongitudeDegrees>
            </Position>
            <AltitudeMeters>1770.5999755859375</AltitudeMeters>
            <DistanceMeters>NAN</DistanceMeters>
          </Trackpoint>
          <Trackpoint>
            <Time>2018-12-30T12:48:00.000Z</Time>
            <Position>
              <LatitudeDegrees>40.77481663785874843597412109375</LatitudeDegrees>
              <LongitudeDegrees>-4.08112878911197185516357421875</LongitudeDegrees>
            </Position>
            <AltitudeMeters>1770.5999755859375</AltitudeMeters>
            <DistanceMeters>NAN</DistanceMeters>
          </Trackpoint>
          <Trackpoint>
            <Time>2018-12-30T12:48:01.000Z</Time>
            <Position>
              <LatitudeDegrees>40.77480238862335681915283203125</LatitudeDegrees>
              <LongitudeDegrees>-4.08114069141447544097900390625</LongitudeDegrees>
            </Position>
            <AltitudeMeters>1770.5999755859375</AltitudeMeters>
            <DistanceMeters>NAN</DistanceMeters>
          </Trackpoint>
          <Trackpoint>
            <Time>2018-12-30T12:48:02.000Z</Time>
            <Position>
              <LatitudeDegrees>40.77478596009314060211181640625</LatitudeDegrees>
              <LongitudeDegrees>-4.08114890567958354949951171875</LongitudeDegrees>
            </Position>
            <AltitudeMeters>1770.5999755859375</AltitudeMeters>
            <DistanceMeters>NAN</DistanceMeters>
          </Trackpoint>
          <Trackpoint>
            <Time>2018-12-30T12:48:03.000Z</Time>
            <Position>
              <LatitudeDegrees>40.7747719623148441314697265625</LatitudeDegrees>
              <LongitudeDegrees>-4.08115795813500881195068359375</LongitudeDegrees>
            </Position>
            <AltitudeMeters>1770.5999755859375</AltitudeMeters>
            <DistanceMeters>NAN</DistanceMeters>
          </Trackpoint>
          <Trackpoint>
            <Time>2018-12-30T12:48:04.000Z</Time>
            <Position>
              <LatitudeDegrees>40.77475897036492824554443359375</LatitudeDegrees>
              <LongitudeDegrees>-4.08116902224719524383544921875</LongitudeDegrees>
            </Position>
            <AltitudeMeters>1770.4000244140625</AltitudeMeters>
            <DistanceMeters>NAN</DistanceMeters>
          </Trackpoint>
          <Trackpoint>
            <Time>2018-12-30T12:48:05.000Z</Time>
            <Position>
              <LatitudeDegrees>40.774748325347900390625</LatitudeDegrees>
              <LongitudeDegrees>-4.0811749733984470367431640625</LongitudeDegrees>
            </Position>
            <AltitudeMeters>1770.199951171875</AltitudeMeters>
            <DistanceMeters>NAN</DistanceMeters>
          </Trackpoint>
          <Trackpoint>
            <Time>2018-12-30T12:48:06.000Z</Time>
            <Position>
              <LatitudeDegrees>40.77473826706409454345703125</LatitudeDegrees>
              <LongitudeDegrees>-4.081182517111301422119140625</LongitudeDegrees>
            </Position>
            <AltitudeMeters>1770</AltitudeMeters>
            <DistanceMeters>NAN</DistanceMeters>
          </Trackpoint>
          <Trackpoint>
            <Time>2018-12-30T12:48:07.000Z</Time>
            <Position>
              <LatitudeDegrees>40.77472728677093982696533203125</LatitudeDegrees>
              <LongitudeDegrees>-4.081191234290599822998046875</LongitudeDegrees>
            </Position>
            <AltitudeMeters>1769.800048828125</AltitudeMeters>
            <DistanceMeters>NAN</DistanceMeters>
          </Trackpoint>
          <Trackpoint>
            <Time>2018-12-30T12:48:08.000Z</Time>
            <Position>
              <LatitudeDegrees>40.77471639029681682586669921875</LatitudeDegrees>
              <LongitudeDegrees>-4.08119567669928073883056640625</LongitudeDegrees>
            </Position>
            <AltitudeMeters>1769.800048828125</AltitudeMeters>
            <DistanceMeters>NAN</DistanceMeters>
          </Trackpoint>
          <Trackpoint>
            <Time>2018-12-30T12:48:09.000Z</Time>
            <Position>
              <LatitudeDegrees>40.77469996176660060882568359375</LatitudeDegrees>
              <LongitudeDegrees>-4.08119358122348785400390625</LongitudeDegrees>
            </Position>
            <AltitudeMeters>1769.800048828125</AltitudeMeters>
            <DistanceMeters>NAN</DistanceMeters>
          </Trackpoint>
          <Trackpoint>
            <Time>2018-12-30T12:48:10.000Z</Time>
            <Position>
              <LatitudeDegrees>40.77468789182603359222412109375</LatitudeDegrees>
              <LongitudeDegrees>-4.081193245947360992431640625</LongitudeDegrees>
            </Position>
            <AltitudeMeters>1769.800048828125</AltitudeMeters>
            <DistanceMeters>NAN</DistanceMeters>
          </Trackpoint>
          <Trackpoint>
            <Time>2018-12-30T12:48:11.000Z</Time>
            <Position>
              <LatitudeDegrees>40.77467783354222774505615234375</LatitudeDegrees>
              <LongitudeDegrees>-4.081192575395107269287109375</LongitudeDegrees>
            </Position>
            <AltitudeMeters>1769.800048828125</AltitudeMeters>
            <DistanceMeters>NAN</DistanceMeters>
          </Trackpoint>
          <Trackpoint>
            <Time>2018-12-30T12:48:12.000Z</Time>
            <Position>
              <LatitudeDegrees>40.77466090209782123565673828125</LatitudeDegrees>
              <LongitudeDegrees>-4.08119902946054935455322265625</LongitudeDegrees>
            </Position>
            <AltitudeMeters>1769.800048828125</AltitudeMeters>
            <DistanceMeters>NAN</DistanceMeters>
          </Trackpoint>
          <Trackpoint>
            <Time>2018-12-30T12:48:13.000Z</Time>
            <Position>
              <LatitudeDegrees>40.77464933507144451141357421875</LatitudeDegrees>
              <LongitudeDegrees>-4.08120657317340373992919921875</LongitudeDegrees>
            </Position>
            <AltitudeMeters>1769.800048828125</AltitudeMeters>
            <DistanceMeters>NAN</DistanceMeters>
          </Trackpoint>
          <Trackpoint>
            <Time>2018-12-30T12:48:14.000Z</Time>
            <Position>
              <LatitudeDegrees>40.77464028261601924896240234375</LatitudeDegrees>
              <LongitudeDegrees>-4.08121503889560699462890625</LongitudeDegrees>
            </Position>
            <AltitudeMeters>1769.800048828125</AltitudeMeters>
            <DistanceMeters>NAN</DistanceMeters>
          </Trackpoint>
          <Trackpoint>
            <Time>2018-12-30T12:48:15.000Z</Time>
            <Position>
              <LatitudeDegrees>40.7746341638267040252685546875</LatitudeDegrees>
              <LongitudeDegrees>-4.0812225826084613800048828125</LongitudeDegrees>
            </Position>
            <AltitudeMeters>1769.800048828125</AltitudeMeters>
            <DistanceMeters>NAN</DistanceMeters>
          </Trackpoint>
          <Trackpoint>
            <Time>2018-12-30T12:48:16.000Z</Time>
            <Position>
              <LatitudeDegrees>40.7746262848377227783203125</LatitudeDegrees>
              <LongitudeDegrees>-4.08122652210295200347900390625</LongitudeDegrees>
            </Position>
            <AltitudeMeters>1769.5999755859375</AltitudeMeters>
            <DistanceMeters>NAN</DistanceMeters>
          </Trackpoint>
          <Trackpoint>
            <Time>2018-12-30T12:48:17.000Z</Time>
            <Position>
              <LatitudeDegrees>40.77462016604840755462646484375</LatitudeDegrees>
              <LongitudeDegrees>-4.08122970722615718841552734375</LongitudeDegrees>
            </Position>
            <AltitudeMeters>1769.5999755859375</AltitudeMeters>
            <DistanceMeters>NAN</DistanceMeters>
          </Trackpoint>
          <Trackpoint>
            <Time>2018-12-30T12:48:18.000Z</Time>
            <Position>
              <LatitudeDegrees>40.77461346052587032318115234375</LatitudeDegrees>
              <LongitudeDegrees>-4.0812390111386775970458984375</LongitudeDegrees>
            </Position>
            <AltitudeMeters>1769.5999755859375</AltitudeMeters>
            <DistanceMeters>NAN</DistanceMeters>
          </Trackpoint>
          <Trackpoint>
            <Time>2018-12-30T12:48:19.000Z</Time>
            <Position>
              <LatitudeDegrees>40.77460558153688907623291015625</LatitudeDegrees>
              <LongitudeDegrees>-4.08124345354735851287841796875</LongitudeDegrees>
            </Position>
            <AltitudeMeters>1769.5999755859375</AltitudeMeters>
            <DistanceMeters>NAN</DistanceMeters>
          </Trackpoint>
          <Trackpoint>
            <Time>2018-12-30T12:48:20.000Z</Time>
            <Position>
              <LatitudeDegrees>40.7745952717959880828857421875</LatitudeDegrees>
              <LongitudeDegrees>-4.0812507458031177520751953125</LongitudeDegrees>
            </Position>
            <AltitudeMeters>1769.4000244140625</AltitudeMeters>
            <DistanceMeters>NAN</DistanceMeters>
          </Trackpoint>
          <Trackpoint>
            <Time>2018-12-30T12:48:21.000Z</Time>
            <Position>
              <LatitudeDegrees>40.7745873928070068359375</LatitudeDegrees>
              <LongitudeDegrees>-4.08125870861113071441650390625</LongitudeDegrees>
            </Position>
            <AltitudeMeters>1769.4000244140625</AltitudeMeters>
            <DistanceMeters>NAN</DistanceMeters>
          </Trackpoint>
          <Trackpoint>
            <Time>2018-12-30T12:48:22.000Z</Time>
            <Position>
              <LatitudeDegrees>40.77457792125642299652099609375</LatitudeDegrees>
              <LongitudeDegrees>-4.08126541413366794586181640625</LongitudeDegrees>
            </Position>
            <AltitudeMeters>1769.4000244140625</AltitudeMeters>
            <DistanceMeters>NAN</DistanceMeters>
          </Trackpoint>
          <Trackpoint>
            <Time>2018-12-30T12:48:23.000Z</Time>
            <Position>
              <LatitudeDegrees>40.7745718024671077728271484375</LatitudeDegrees>
              <LongitudeDegrees>-4.08127379603683948516845703125</LongitudeDegrees>
            </Position>
            <AltitudeMeters>1769.4000244140625</AltitudeMeters>
            <DistanceMeters>NAN</DistanceMeters>
          </Trackpoint>
          <Trackpoint>
            <Time>2018-12-30T12:48:24.000Z</Time>
            <Position>
              <LatitudeDegrees>40.77456417493522167205810546875</LatitudeDegrees>
              <LongitudeDegrees>-4.0812809206545352935791015625</LongitudeDegrees>
            </Position>
            <AltitudeMeters>1769.4000244140625</AltitudeMeters>
            <DistanceMeters>NAN</DistanceMeters>
          </Trackpoint>
          <Trackpoint>
            <Time>2018-12-30T12:48:25.000Z</Time>
            <Position>
              <LatitudeDegrees>40.77454858459532260894775390625</LatitudeDegrees>
              <LongitudeDegrees>-4.0812829323112964630126953125</LongitudeDegrees>
            </Position>
            <AltitudeMeters>1769.4000244140625</AltitudeMeters>
            <DistanceMeters>NAN</DistanceMeters>
          </Trackpoint>
          <Trackpoint>
            <Time>2018-12-30T12:48:26.000Z</Time>
            <Position>
              <LatitudeDegrees>40.77454020269215106964111328125</LatitudeDegrees>
              <LongitudeDegrees>-4.08128620125353336334228515625</LongitudeDegrees>
            </Position>
            <AltitudeMeters>1769.4000244140625</AltitudeMeters>
            <DistanceMeters>NAN</DistanceMeters>
          </Trackpoint>
          <Trackpoint>
            <Time>2018-12-30T12:48:27.000Z</Time>
            <Position>
              <LatitudeDegrees>40.77452612109482288360595703125</LatitudeDegrees>
              <LongitudeDegrees>-4.08129441551864147186279296875</LongitudeDegrees>
            </Position>
            <AltitudeMeters>1769.4000244140625</AltitudeMeters>
            <DistanceMeters>NAN</DistanceMeters>
          </Trackpoint>
          <Trackpoint>
            <Time>2018-12-30T12:48:28.000Z</Time>
            <Position>
              <LatitudeDegrees>40.7745134644210338592529296875</LatitudeDegrees>
              <LongitudeDegrees>-4.08130447380244731903076171875</LongitudeDegrees>
            </Position>
            <AltitudeMeters>1769.4000244140625</AltitudeMeters>
            <DistanceMeters>NAN</DistanceMeters>
          </Trackpoint>
          <Trackpoint>
            <Time>2018-12-30T12:48:29.000Z</Time>
            <Position>
              <LatitudeDegrees>40.7744987122714519500732421875</LatitudeDegrees>
              <LongitudeDegrees>-4.08130824565887451171875</LongitudeDegrees>
            </Position>
            <AltitudeMeters>1769.4000244140625</AltitudeMeters>
            <DistanceMeters>NAN</DistanceMeters>
          </Trackpoint>
          <Trackpoint>
            <Time>2018-12-30T12:48:30.000Z</Time>
            <Position>
              <LatitudeDegrees>40.774482451379299163818359375</LatitudeDegrees>
              <LongitudeDegrees>-4.081313945353031158447265625</LongitudeDegrees>
            </Position>
            <AltitudeMeters>1769.5999755859375</AltitudeMeters>
            <DistanceMeters>NAN</DistanceMeters>
          </Trackpoint>
          <Trackpoint>
            <Time>2018-12-30T12:48:31.000Z</Time>
            <Position>
              <LatitudeDegrees>40.77446275390684604644775390625</LatitudeDegrees>
              <LongitudeDegrees>-4.08132090233266353607177734375</LongitudeDegrees>
            </Position>
            <AltitudeMeters>1769.5999755859375</AltitudeMeters>
            <DistanceMeters>NAN</DistanceMeters>
          </Trackpoint>
          <Trackpoint>
            <Time>2018-12-30T12:48:32.000Z</Time>
            <Position>
              <LatitudeDegrees>40.77444179914891719818115234375</LatitudeDegrees>
              <LongitudeDegrees>-4.081329368054866790771484375</LongitudeDegrees>
            </Position>
            <AltitudeMeters>1769.5999755859375</AltitudeMeters>
            <DistanceMeters>NAN</DistanceMeters>
          </Trackpoint>
          <Trackpoint>
            <Time>2018-12-30T12:48:33.000Z</Time>
            <Position>
              <LatitudeDegrees>40.77441916801035404205322265625</LatitudeDegrees>
              <LongitudeDegrees>-4.081342779099941253662109375</LongitudeDegrees>
            </Position>
            <AltitudeMeters>1769.5999755859375</AltitudeMeters>
            <DistanceMeters>NAN</DistanceMeters>
          </Trackpoint>
          <Trackpoint>
            <Time>2018-12-30T12:48:34.000Z</Time>
            <Position>
              <LatitudeDegrees>40.7743974588811397552490234375</LatitudeDegrees>
              <LongitudeDegrees>-4.0813476406037807464599609375</LongitudeDegrees>
            </Position>
            <AltitudeMeters>1769.5999755859375</AltitudeMeters>
            <DistanceMeters>NAN</DistanceMeters>
          </Trackpoint>
          <Trackpoint>
            <Time>2018-12-30T12:48:35.000Z</Time>
            <Position>
              <LatitudeDegrees>40.77437843196094036102294921875</LatitudeDegrees>
              <LongitudeDegrees>-4.0813578665256500244140625</LongitudeDegrees>
            </Position>
            <AltitudeMeters>1769.5999755859375</AltitudeMeters>
            <DistanceMeters>NAN</DistanceMeters>
          </Trackpoint>
          <Trackpoint>
            <Time>2018-12-30T12:48:36.000Z</Time>
            <Position>
              <LatitudeDegrees>40.7743612490594387054443359375</LatitudeDegrees>
              <LongitudeDegrees>-4.08137287013232707977294921875</LongitudeDegrees>
            </Position>
            <AltitudeMeters>1769.4000244140625</AltitudeMeters>
            <DistanceMeters>NAN</DistanceMeters>
          </Trackpoint>
          <Trackpoint>
            <Time>2018-12-30T12:48:37.000Z</Time>
            <Position>
              <LatitudeDegrees>40.77434373088181018829345703125</LatitudeDegrees>
              <LongitudeDegrees>-4.081383682787418365478515625</LongitudeDegrees>
            </Position>
            <AltitudeMeters>1769.4000244140625</AltitudeMeters>
            <DistanceMeters>NAN</DistanceMeters>
          </Trackpoint>
          <Trackpoint>
            <Time>2018-12-30T12:48:38.000Z</Time>
            <Position>
              <LatitudeDegrees>40.774323530495166778564453125</LatitudeDegrees>
              <LongitudeDegrees>-4.0813885442912578582763671875</LongitudeDegrees>
            </Position>
            <AltitudeMeters>1769.4000244140625</AltitudeMeters>
            <DistanceMeters>NAN</DistanceMeters>
          </Trackpoint>
          <Trackpoint>
            <Time>2018-12-30T12:48:39.000Z</Time>
            <Position>
              <LatitudeDegrees>40.7743017375469207763671875</LatitudeDegrees>
              <LongitudeDegrees>-4.0813882090151309967041015625</LongitudeDegrees>
            </Position>
            <AltitudeMeters>1769.4000244140625</AltitudeMeters>
            <DistanceMeters>NAN</DistanceMeters>
          </Trackpoint>
          <Trackpoint>
            <Time>2018-12-30T12:48:40.000Z</Time>
            <Position>
              <LatitudeDegrees>40.77428572811186313629150390625</LatitudeDegrees>
              <LongitudeDegrees>-4.08139483071863651275634765625</LongitudeDegrees>
            </Position>
            <AltitudeMeters>1769.4000244140625</AltitudeMeters>
            <DistanceMeters>NAN</DistanceMeters>
          </Trackpoint>
          <Trackpoint>
            <Time>2018-12-30T12:48:41.000Z</Time>
            <Position>
              <LatitudeDegrees>40.77426762320101261138916015625</LatitudeDegrees>
              <LongitudeDegrees>-4.0813992731273174285888671875</LongitudeDegrees>
            </Position>
            <AltitudeMeters>1769.5999755859375</AltitudeMeters>
            <DistanceMeters>NAN</DistanceMeters>
          </Trackpoint>
          <Trackpoint>
            <Time>2018-12-30T12:48:42.000Z</Time>
            <Position>
              <LatitudeDegrees>40.7742576487362384796142578125</LatitudeDegrees>
              <LongitudeDegrees>-4.0814100019633769989013671875</LongitudeDegrees>
            </Position>
            <AltitudeMeters>1769.5999755859375</AltitudeMeters>
            <DistanceMeters>NAN</DistanceMeters>
          </Trackpoint>
          <Trackpoint>
            <Time>2018-12-30T12:48:43.000Z</Time>
            <Position>
              <LatitudeDegrees>40.7742452435195446014404296875</LatitudeDegrees>
              <LongitudeDegrees>-4.08141980879008769989013671875</LongitudeDegrees>
            </Position>
            <AltitudeMeters>1769.5999755859375</AltitudeMeters>
            <DistanceMeters>NAN</DistanceMeters>
          </Trackpoint>
          <Trackpoint>
            <Time>2018-12-30T12:48:44.000Z</Time>
            <Position>
              <LatitudeDegrees>40.774233676493167877197265625</LatitudeDegrees>
              <LongitudeDegrees>-4.08142802305519580841064453125</LongitudeDegrees>
            </Position>
            <AltitudeMeters>1769.5999755859375</AltitudeMeters>
            <DistanceMeters>NAN</DistanceMeters>
          </Trackpoint>
          <Trackpoint>
            <Time>2018-12-30T12:48:45.000Z</Time>
            <Position>
              <LatitudeDegrees>40.7742257975041866302490234375</LatitudeDegrees>
              <LongitudeDegrees>-4.0814378298819065093994140625</LongitudeDegrees>
            </Position>
            <AltitudeMeters>1769.5999755859375</AltitudeMeters>
            <DistanceMeters>NAN</DistanceMeters>
          </Trackpoint>
          <Trackpoint>
            <Time>2018-12-30T12:48:46.000Z</Time>
            <Position>
              <LatitudeDegrees>40.77421884052455425262451171875</LatitudeDegrees>
              <LongitudeDegrees>-4.0814455412328243255615234375</LongitudeDegrees>
            </Position>
            <AltitudeMeters>1769.5999755859375</AltitudeMeters>
            <DistanceMeters>NAN</DistanceMeters>
          </Trackpoint>
          <Trackpoint>
            <Time>2018-12-30T12:48:47.000Z</Time>
            <Position>
              <LatitudeDegrees>40.7742154039442539215087890625</LatitudeDegrees>
              <LongitudeDegrees>-4.0814571082592010498046875</LongitudeDegrees>
            </Position>
            <AltitudeMeters>1769.5999755859375</AltitudeMeters>
            <DistanceMeters>NAN</DistanceMeters>
          </Trackpoint>
          <Trackpoint>
            <Time>2018-12-30T12:48:48.000Z</Time>
            <Position>
              <LatitudeDegrees>40.77420760877430438995361328125</LatitudeDegrees>
              <LongitudeDegrees>-4.08146440051496028900146484375</LongitudeDegrees>
            </Position>
            <AltitudeMeters>1769.4000244140625</AltitudeMeters>
            <DistanceMeters>NAN</DistanceMeters>
          </Trackpoint>
          <Trackpoint>
            <Time>2018-12-30T12:48:49.000Z</Time>
            <Position>
              <LatitudeDegrees>40.774198472499847412109375</LatitudeDegrees>
              <LongitudeDegrees>-4.0814700163900852203369140625</LongitudeDegrees>
            </Position>
            <AltitudeMeters>1769.4000244140625</AltitudeMeters>
            <DistanceMeters>NAN</DistanceMeters>
          </Trackpoint>
          <Trackpoint>
            <Time>2018-12-30T12:48:50.000Z</Time>
            <Position>
              <LatitudeDegrees>40.77418841421604156494140625</LatitudeDegrees>
              <LongitudeDegrees>-4.08147781156003475189208984375</LongitudeDegrees>
            </Position>
            <AltitudeMeters>1769.199951171875</AltitudeMeters>
            <DistanceMeters>NAN</DistanceMeters>
          </Trackpoint>
          <Trackpoint>
            <Time>2018-12-30T12:48:51.000Z</Time>
            <Position>
              <LatitudeDegrees>40.7741788588464260101318359375</LatitudeDegrees>
              <LongitudeDegrees>-4.08148686401546001434326171875</LongitudeDegrees>
            </Position>
            <AltitudeMeters>1769.199951171875</AltitudeMeters>
            <DistanceMeters>NAN</DistanceMeters>
          </Trackpoint>
          <Trackpoint>
            <Time>2018-12-30T12:48:52.000Z</Time>
            <Position>
              <LatitudeDegrees>40.7741724886000156402587890625</LatitudeDegrees>
              <LongitudeDegrees>-4.08149658702313899993896484375</LongitudeDegrees>
            </Position>
            <AltitudeMeters>1769.199951171875</AltitudeMeters>
            <DistanceMeters>NAN</DistanceMeters>
          </Trackpoint>
          <Trackpoint>
            <Time>2018-12-30T12:48:53.000Z</Time>
            <Position>
              <LatitudeDegrees>40.77416134066879749298095703125</LatitudeDegrees>
              <LongitudeDegrees>-4.08150077797472476959228515625</LongitudeDegrees>
            </Position>
            <AltitudeMeters>1769</AltitudeMeters>
            <DistanceMeters>NAN</DistanceMeters>
          </Trackpoint>
          <Trackpoint>
            <Time>2018-12-30T12:48:54.000Z</Time>
            <Position>
              <LatitudeDegrees>40.7741480134427547454833984375</LatitudeDegrees>
              <LongitudeDegrees>-4.081504382193088531494140625</LongitudeDegrees>
            </Position>
            <AltitudeMeters>1769</AltitudeMeters>
            <DistanceMeters>NAN</DistanceMeters>
          </Trackpoint>
          <Trackpoint>
            <Time>2018-12-30T12:48:55.000Z</Time>
            <Position>
              <LatitudeDegrees>40.7741386257112026214599609375</LatitudeDegrees>
              <LongitudeDegrees>-4.0815134346485137939453125</LongitudeDegrees>
            </Position>
            <AltitudeMeters>1769</AltitudeMeters>
            <DistanceMeters>NAN</DistanceMeters>
          </Trackpoint>
          <Trackpoint>
            <Time>2018-12-30T12:48:56.000Z</Time>
            <Position>
              <LatitudeDegrees>40.7741166651248931884765625</LatitudeDegrees>
              <LongitudeDegrees>-4.0815233252942562103271484375</LongitudeDegrees>
            </Position>
            <AltitudeMeters>1768.800048828125</AltitudeMeters>
            <DistanceMeters>NAN</DistanceMeters>
          </Trackpoint>
          <Trackpoint>
            <Time>2018-12-30T12:48:57.000Z</Time>
            <Position>
              <LatitudeDegrees>40.7741054333746433258056640625</LatitudeDegrees>
              <LongitudeDegrees>-4.0815313719213008880615234375</LongitudeDegrees>
            </Position>
            <AltitudeMeters>1768.800048828125</AltitudeMeters>
            <DistanceMeters>NAN</DistanceMeters>
          </Trackpoint>
          <Trackpoint>
            <Time>2018-12-30T12:48:58.000Z</Time>
            <Position>
              <LatitudeDegrees>40.774096213281154632568359375</LatitudeDegrees>
              <LongitudeDegrees>-4.08153732307255268096923828125</LongitudeDegrees>
            </Position>
            <AltitudeMeters>1768.800048828125</AltitudeMeters>
            <DistanceMeters>NAN</DistanceMeters>
          </Trackpoint>
          <Trackpoint>
            <Time>2018-12-30T12:48:59.000Z</Time>
            <Position>
              <LatitudeDegrees>40.774084143340587615966796875</LatitudeDegrees>
              <LongitudeDegrees>-4.0815410949289798736572265625</LongitudeDegrees>
            </Position>
            <AltitudeMeters>1768.5999755859375</AltitudeMeters>
            <DistanceMeters>NAN</DistanceMeters>
          </Trackpoint>
          <Trackpoint>
            <Time>2018-12-30T12:49:00.000Z</Time>
            <Position>
              <LatitudeDegrees>40.774063356220722198486328125</LatitudeDegrees>
              <LongitudeDegrees>-4.08154319040477275848388671875</LongitudeDegrees>
            </Position>
            <AltitudeMeters>1768.5999755859375</AltitudeMeters>
            <DistanceMeters>NAN</DistanceMeters>
          </Trackpoint>
          <Trackpoint>
            <Time>2018-12-30T12:49:01.000Z</Time>
            <Position>
              <LatitudeDegrees>40.77405002899467945098876953125</LatitudeDegrees>
              <LongitudeDegrees>-4.081549979746341705322265625</LongitudeDegrees>
            </Position>
            <AltitudeMeters>1768.4000244140625</AltitudeMeters>
            <DistanceMeters>NAN</DistanceMeters>
          </Trackpoint>
          <Trackpoint>
            <Time>2018-12-30T12:49:02.000Z</Time>
            <Position>
              <LatitudeDegrees>40.774035193026065826416015625</LatitudeDegrees>
              <LongitudeDegrees>-4.08155760727822780609130859375</LongitudeDegrees>
            </Position>
            <AltitudeMeters>1768.4000244140625</AltitudeMeters>
            <DistanceMeters>NAN</DistanceMeters>
          </Trackpoint>
          <Trackpoint>
            <Time>2018-12-30T12:49:03.000Z</Time>
            <Position>
              <LatitudeDegrees>40.7740206085145473480224609375</LatitudeDegrees>
              <LongitudeDegrees>-4.0815635584294795989990234375</LongitudeDegrees>
            </Position>
            <AltitudeMeters>1768.5999755859375</AltitudeMeters>
            <DistanceMeters>NAN</DistanceMeters>
          </Trackpoint>
          <Trackpoint>
            <Time>2018-12-30T12:49:04.000Z</Time>
            <Position>
              <LatitudeDegrees>40.7740085385739803314208984375</LatitudeDegrees>
              <LongitudeDegrees>-4.08156967721879482269287109375</LongitudeDegrees>
            </Position>
            <AltitudeMeters>1768.5999755859375</AltitudeMeters>
            <DistanceMeters>NAN</DistanceMeters>
          </Trackpoint>
          <Trackpoint>
            <Time>2018-12-30T12:49:05.000Z</Time>
            <Position>
              <LatitudeDegrees>40.77399688772857189178466796875</LatitudeDegrees>
              <LongitudeDegrees>-4.081576801836490631103515625</LongitudeDegrees>
            </Position>
            <AltitudeMeters>1768.5999755859375</AltitudeMeters>
            <DistanceMeters>NAN</DistanceMeters>
          </Trackpoint>
          <Trackpoint>
            <Time>2018-12-30T12:49:06.000Z</Time>
            <Position>
              <LatitudeDegrees>40.7739857397973537445068359375</LatitudeDegrees>
              <LongitudeDegrees>-4.08158426173031330108642578125</LongitudeDegrees>
            </Position>
            <AltitudeMeters>1768.4000244140625</AltitudeMeters>
            <DistanceMeters>NAN</DistanceMeters>
          </Trackpoint>
          <Trackpoint>
            <Time>2018-12-30T12:49:07.000Z</Time>
            <Position>
              <LatitudeDegrees>40.77396838925778865814208984375</LatitudeDegrees>
              <LongitudeDegrees>-4.08159063197672367095947265625</LongitudeDegrees>
            </Position>
            <AltitudeMeters>1768.4000244140625</AltitudeMeters>
            <DistanceMeters>NAN</DistanceMeters>
          </Trackpoint>
          <Trackpoint>
            <Time>2018-12-30T12:49:08.000Z</Time>
            <Position>
              <LatitudeDegrees>40.77396000735461711883544921875</LatitudeDegrees>
              <LongitudeDegrees>-4.08159867860376834869384765625</LongitudeDegrees>
            </Position>
            <AltitudeMeters>1768.199951171875</AltitudeMeters>
            <DistanceMeters>NAN</DistanceMeters>
          </Trackpoint>
          <Trackpoint>
            <Time>2018-12-30T12:49:09.000Z</Time>
            <Position>
              <LatitudeDegrees>40.77394072897732257843017578125</LatitudeDegrees>
              <LongitudeDegrees>-4.08160018734633922576904296875</LongitudeDegrees>
            </Position>
            <AltitudeMeters>1768</AltitudeMeters>
            <DistanceMeters>NAN</DistanceMeters>
          </Trackpoint>
          <Trackpoint>
            <Time>2018-12-30T12:49:10.000Z</Time>
            <Position>
              <LatitudeDegrees>40.7739324308931827545166015625</LatitudeDegrees>
              <LongitudeDegrees>-4.08161527477204799652099609375</LongitudeDegrees>
            </Position>
            <AltitudeMeters>1767.800048828125</AltitudeMeters>
            <DistanceMeters>NAN</DistanceMeters>
          </Trackpoint>
          <Trackpoint>
            <Time>2018-12-30T12:49:11.000Z</Time>
            <Position>
              <LatitudeDegrees>40.77392446808516979217529296875</LatitudeDegrees>
              <LongitudeDegrees>-4.08162516541779041290283203125</LongitudeDegrees>
            </Position>
            <AltitudeMeters>1767.5999755859375</AltitudeMeters>
            <DistanceMeters>NAN</DistanceMeters>
          </Trackpoint>
          <Trackpoint>
            <Time>2018-12-30T12:49:12.000Z</Time>
            <Position>
              <LatitudeDegrees>40.77391440980136394500732421875</LatitudeDegrees>
              <LongitudeDegrees>-4.08163606189191341400146484375</LongitudeDegrees>
            </Position>
            <AltitudeMeters>1767.5999755859375</AltitudeMeters>
            <DistanceMeters>NAN</DistanceMeters>
          </Trackpoint>
          <Trackpoint>
            <Time>2018-12-30T12:49:13.000Z</Time>
            <Position>
              <LatitudeDegrees>40.7739076204597949981689453125</LatitudeDegrees>
              <LongitudeDegrees>-4.0816463716328144073486328125</LongitudeDegrees>
            </Position>
            <AltitudeMeters>1767.5999755859375</AltitudeMeters>
            <DistanceMeters>NAN</DistanceMeters>
          </Trackpoint>
          <Trackpoint>
            <Time>2018-12-30T12:49:14.000Z</Time>
            <Position>
              <LatitudeDegrees>40.773893706500530242919921875</LatitudeDegrees>
              <LongitudeDegrees>-4.08165232278406620025634765625</LongitudeDegrees>
            </Position>
            <AltitudeMeters>1767.5999755859375</AltitudeMeters>
            <DistanceMeters>NAN</DistanceMeters>
          </Trackpoint>
          <Trackpoint>
            <Time>2018-12-30T12:49:15.000Z</Time>
            <Position>
              <LatitudeDegrees>40.7738807983696460723876953125</LatitudeDegrees>
              <LongitudeDegrees>-4.081659279763698577880859375</LongitudeDegrees>
            </Position>
            <AltitudeMeters>1767.5999755859375</AltitudeMeters>
            <DistanceMeters>NAN</DistanceMeters>
          </Trackpoint>
          <Trackpoint>
            <Time>2018-12-30T12:49:16.000Z</Time>
            <Position>
              <LatitudeDegrees>40.773860849440097808837890625</LatitudeDegrees>
              <LongitudeDegrees>-4.0816624648869037628173828125</LongitudeDegrees>
            </Position>
            <AltitudeMeters>1767.5999755859375</AltitudeMeters>
            <DistanceMeters>NAN</DistanceMeters>
          </Trackpoint>
          <Trackpoint>
            <Time>2018-12-30T12:49:17.000Z</Time>
            <Position>
              <LatitudeDegrees>40.7738422416150569915771484375</LatitudeDegrees>
              <LongitudeDegrees>-4.08166992478072643280029296875</LongitudeDegrees>
            </Position>
            <AltitudeMeters>1767.5999755859375</AltitudeMeters>
            <DistanceMeters>NAN</DistanceMeters>
          </Trackpoint>
          <Trackpoint>
            <Time>2018-12-30T12:49:18.000Z</Time>
            <Position>
              <LatitudeDegrees>40.77382924966514110565185546875</LatitudeDegrees>
              <LongitudeDegrees>-4.0816805697977542877197265625</LongitudeDegrees>
            </Position>
            <AltitudeMeters>1767.4000244140625</AltitudeMeters>
            <DistanceMeters>NAN</DistanceMeters>
          </Trackpoint>
          <Trackpoint>
            <Time>2018-12-30T12:49:19.000Z</Time>
            <Position>
              <LatitudeDegrees>40.7738140784204006195068359375</LatitudeDegrees>
              <LongitudeDegrees>-4.0816889517009258270263671875</LongitudeDegrees>
            </Position>
            <AltitudeMeters>1767.199951171875</AltitudeMeters>
            <DistanceMeters>NAN</DistanceMeters>
          </Trackpoint>
          <Trackpoint>
            <Time>2018-12-30T12:49:20.000Z</Time>
            <Position>
              <LatitudeDegrees>40.7737921178340911865234375</LatitudeDegrees>
              <LongitudeDegrees>-4.0816946513950824737548828125</LongitudeDegrees>
            </Position>
            <AltitudeMeters>1767.199951171875</AltitudeMeters>
            <DistanceMeters>NAN</DistanceMeters>
          </Trackpoint>
          <Trackpoint>
            <Time>2018-12-30T12:49:21.000Z</Time>
            <Position>
              <LatitudeDegrees>40.7737704925239086151123046875</LatitudeDegrees>
              <LongitudeDegrees>-4.0816985070705413818359375</LongitudeDegrees>
            </Position>
            <AltitudeMeters>1767</AltitudeMeters>
            <DistanceMeters>NAN</DistanceMeters>
          </Trackpoint>
          <Trackpoint>
            <Time>2018-12-30T12:49:22.000Z</Time>
            <Position>
              <LatitudeDegrees>40.7737594284117221832275390625</LatitudeDegrees>
              <LongitudeDegrees>-4.081708230078220367431640625</LongitudeDegrees>
            </Position>
            <AltitudeMeters>1767</AltitudeMeters>
            <DistanceMeters>NAN</DistanceMeters>
          </Trackpoint>
          <Trackpoint>
            <Time>2018-12-30T12:49:23.000Z</Time>
            <Position>
              <LatitudeDegrees>40.7737545669078826904296875</LatitudeDegrees>
              <LongitudeDegrees>-4.08172574825584888458251953125</LongitudeDegrees>
            </Position>
            <AltitudeMeters>1767</AltitudeMeters>
            <DistanceMeters>NAN</DistanceMeters>
          </Trackpoint>
          <Trackpoint>
            <Time>2018-12-30T12:49:24.000Z</Time>
            <Position>
              <LatitudeDegrees>40.7737399823963642120361328125</LatitudeDegrees>
              <LongitudeDegrees>-4.0817318670451641082763671875</LongitudeDegrees>
            </Position>
            <AltitudeMeters>1766.800048828125</AltitudeMeters>
            <DistanceMeters>NAN</DistanceMeters>
          </Trackpoint>
          <Trackpoint>
            <Time>2018-12-30T12:49:25.000Z</Time>
            <Position>
              <LatitudeDegrees>40.7737277448177337646484375</LatitudeDegrees>
              <LongitudeDegrees>-4.08173882402479648590087890625</LongitudeDegrees>
            </Position>
            <AltitudeMeters>1766.800048828125</AltitudeMeters>
            <DistanceMeters>NAN</DistanceMeters>
          </Trackpoint>
          <Trackpoint>
            <Time>2018-12-30T12:49:26.000Z</Time>
            <Position>
              <LatitudeDegrees>40.7737098075449466705322265625</LatitudeDegrees>
              <LongitudeDegrees>-4.0817415900528430938720703125</LongitudeDegrees>
            </Position>
            <AltitudeMeters>1766.5999755859375</AltitudeMeters>
            <DistanceMeters>NAN</DistanceMeters>
          </Trackpoint>
          <Trackpoint>
            <Time>2018-12-30T12:49:27.000Z</Time>
            <Position>
              <LatitudeDegrees>40.7736947201192378997802734375</LatitudeDegrees>
              <LongitudeDegrees>-4.0817509777843952178955078125</LongitudeDegrees>
            </Position>
            <AltitudeMeters>1766.4000244140625</AltitudeMeters>
            <DistanceMeters>NAN</DistanceMeters>
          </Trackpoint>
          <Trackpoint>
            <Time>2018-12-30T12:49:28.000Z</Time>
            <Position>
              <LatitudeDegrees>40.7736796326935291290283203125</LatitudeDegrees>
              <LongitudeDegrees>-4.08175944350659847259521484375</LongitudeDegrees>
            </Position>
            <AltitudeMeters>1766.199951171875</AltitudeMeters>
            <DistanceMeters>NAN</DistanceMeters>
          </Trackpoint>
          <Trackpoint>
            <Time>2018-12-30T12:49:29.000Z</Time>
            <Position>
              <LatitudeDegrees>40.77366404235363006591796875</LatitudeDegrees>
              <LongitudeDegrees>-4.0817687474191188812255859375</LongitudeDegrees>
            </Position>
            <AltitudeMeters>1766.199951171875</AltitudeMeters>
            <DistanceMeters>NAN</DistanceMeters>
          </Trackpoint>
          <Trackpoint>
            <Time>2018-12-30T12:49:30.000Z</Time>
            <Position>
              <LatitudeDegrees>40.77365121804177761077880859375</LatitudeDegrees>
              <LongitudeDegrees>-4.0817747823894023895263671875</LongitudeDegrees>
            </Position>
            <AltitudeMeters>1766.199951171875</AltitudeMeters>
            <DistanceMeters>NAN</DistanceMeters>
          </Trackpoint>
          <Trackpoint>
            <Time>2018-12-30T12:49:31.000Z</Time>
            <Position>
              <LatitudeDegrees>40.773634202778339385986328125</LatitudeDegrees>
              <LongitudeDegrees>-4.0817888639867305755615234375</LongitudeDegrees>
            </Position>
            <AltitudeMeters>1766.199951171875</AltitudeMeters>
            <DistanceMeters>NAN</DistanceMeters>
          </Trackpoint>
          <Trackpoint>
            <Time>2018-12-30T12:49:32.000Z</Time>
            <Position>
              <LatitudeDegrees>40.773621462285518646240234375</LatitudeDegrees>
              <LongitudeDegrees>-4.081796072423458099365234375</LongitudeDegrees>
            </Position>
            <AltitudeMeters>1766.199951171875</AltitudeMeters>
            <DistanceMeters>NAN</DistanceMeters>
          </Trackpoint>
          <Trackpoint>
            <Time>2018-12-30T12:49:33.000Z</Time>
            <Position>
              <LatitudeDegrees>40.77360394410789012908935546875</LatitudeDegrees>
              <LongitudeDegrees>-4.081800766289234161376953125</LongitudeDegrees>
            </Position>
            <AltitudeMeters>1766.4000244140625</AltitudeMeters>
            <DistanceMeters>NAN</DistanceMeters>
          </Trackpoint>
          <Trackpoint>
            <Time>2018-12-30T12:49:34.000Z</Time>
            <Position>
              <LatitudeDegrees>40.77358382754027843475341796875</LatitudeDegrees>
              <LongitudeDegrees>-4.081803448498249053955078125</LongitudeDegrees>
            </Position>
            <AltitudeMeters>1766.4000244140625</AltitudeMeters>
            <DistanceMeters>NAN</DistanceMeters>
          </Trackpoint>
          <Trackpoint>
            <Time>2018-12-30T12:49:35.000Z</Time>
            <Position>
              <LatitudeDegrees>40.77356706373393535614013671875</LatitudeDegrees>
              <LongitudeDegrees>-4.08180646598339080810546875</LongitudeDegrees>
            </Position>
            <AltitudeMeters>1766.5999755859375</AltitudeMeters>
            <DistanceMeters>NAN</DistanceMeters>
          </Trackpoint>
          <Trackpoint>
            <Time>2018-12-30T12:49:36.000Z</Time>
            <Position>
              <LatitudeDegrees>40.77355138957500457763671875</LatitudeDegrees>
              <LongitudeDegrees>-4.08180453814566135406494140625</LongitudeDegrees>
            </Position>
            <AltitudeMeters>1766.4000244140625</AltitudeMeters>
            <DistanceMeters>NAN</DistanceMeters>
          </Trackpoint>
          <Trackpoint>
            <Time>2018-12-30T12:49:37.000Z</Time>
            <Position>
              <LatitudeDegrees>40.773543007671833038330078125</LatitudeDegrees>
              <LongitudeDegrees>-4.08180504105985164642333984375</LongitudeDegrees>
            </Position>
            <AltitudeMeters>1766.4000244140625</AltitudeMeters>
            <DistanceMeters>NAN</DistanceMeters>
          </Trackpoint>
          <Trackpoint>
            <Time>2018-12-30T12:49:38.000Z</Time>
            <Position>
              <LatitudeDegrees>40.773534290492534637451171875</LatitudeDegrees>
              <LongitudeDegrees>-4.08180520869791507720947265625</LongitudeDegrees>
            </Position>
            <AltitudeMeters>1766.199951171875</AltitudeMeters>
            <DistanceMeters>NAN</DistanceMeters>
          </Trackpoint>
          <Trackpoint>
            <Time>2018-12-30T12:49:39.000Z</Time>
            <Position>
              <LatitudeDegrees>40.77352716587483882904052734375</LatitudeDegrees>
              <LongitudeDegrees>-4.08180403523147106170654296875</LongitudeDegrees>
            </Position>
            <AltitudeMeters>1766.199951171875</AltitudeMeters>
            <DistanceMeters>NAN</DistanceMeters>
          </Trackpoint>
          <Trackpoint>
            <Time>2018-12-30T12:49:40.000Z</Time>
            <Position>
              <LatitudeDegrees>40.77351727522909641265869140625</LatitudeDegrees>
              <LongitudeDegrees>-4.08180244266986846923828125</LongitudeDegrees>
            </Position>
            <AltitudeMeters>1766</AltitudeMeters>
            <DistanceMeters>NAN</DistanceMeters>
          </Trackpoint>
          <Trackpoint>
            <Time>2018-12-30T12:49:41.000Z</Time>
            <Position>
              <LatitudeDegrees>40.773513503372669219970703125</LatitudeDegrees>
              <LongitudeDegrees>-4.081802107393741607666015625</LongitudeDegrees>
            </Position>
            <AltitudeMeters>1766</AltitudeMeters>
            <DistanceMeters>NAN</DistanceMeters>
          </Trackpoint>
          <Trackpoint>
            <Time>2018-12-30T12:49:42.000Z</Time>
            <Position>
              <LatitudeDegrees>40.773511826992034912109375</LatitudeDegrees>
              <LongitudeDegrees>-4.08180034719407558441162109375</LongitudeDegrees>
            </Position>
            <AltitudeMeters>1766</AltitudeMeters>
            <DistanceMeters>NAN</DistanceMeters>
          </Trackpoint>
          <Trackpoint>
            <Time>2018-12-30T12:49:43.000Z</Time>
            <Position>
              <LatitudeDegrees>40.7735078036785125732421875</LatitudeDegrees>
              <LongitudeDegrees>-4.0817995928227901458740234375</LongitudeDegrees>
            </Position>
            <AltitudeMeters>1766</AltitudeMeters>
            <DistanceMeters>NAN</DistanceMeters>
          </Trackpoint>
          <Trackpoint>
            <Time>2018-12-30T12:49:44.000Z</Time>
            <Position>
              <LatitudeDegrees>40.77350369654595851898193359375</LatitudeDegrees>
              <LongitudeDegrees>-4.0818016044795513153076171875</LongitudeDegrees>
            </Position>
            <AltitudeMeters>1766</AltitudeMeters>
            <DistanceMeters>NAN</DistanceMeters>
          </Trackpoint>
          <Trackpoint>
            <Time>2018-12-30T12:49:45.000Z</Time>
            <Position>
              <LatitudeDegrees>40.77349816448986530303955078125</LatitudeDegrees>
              <LongitudeDegrees>-4.0818057954311370849609375</LongitudeDegrees>
            </Position>
            <AltitudeMeters>1766</AltitudeMeters>
            <DistanceMeters>NAN</DistanceMeters>
          </Trackpoint>
          <Trackpoint>
            <Time>2018-12-30T12:49:46.000Z</Time>
            <Position>
              <LatitudeDegrees>40.77348927967250347137451171875</LatitudeDegrees>
              <LongitudeDegrees>-4.08181007020175457000732421875</LongitudeDegrees>
            </Position>
            <AltitudeMeters>1766.199951171875</AltitudeMeters>
            <DistanceMeters>NAN</DistanceMeters>
          </Trackpoint>
          <Trackpoint>
            <Time>2018-12-30T12:49:47.000Z</Time>
            <Position>
              <LatitudeDegrees>40.773483328521251678466796875</LatitudeDegrees>
              <LongitudeDegrees>-4.0818197093904018402099609375</LongitudeDegrees>
            </Position>
            <AltitudeMeters>1766.199951171875</AltitudeMeters>
            <DistanceMeters>NAN</DistanceMeters>
          </Trackpoint>
          <Trackpoint>
            <Time>2018-12-30T12:49:48.000Z</Time>
            <Position>
              <LatitudeDegrees>40.77347687445580959320068359375</LatitudeDegrees>
              <LongitudeDegrees>-4.0818311087787151336669921875</LongitudeDegrees>
            </Position>
            <AltitudeMeters>1766</AltitudeMeters>
            <DistanceMeters>NAN</DistanceMeters>
          </Trackpoint>
          <Trackpoint>
            <Time>2018-12-30T12:49:49.000Z</Time>
            <Position>
              <LatitudeDegrees>40.773469246923923492431640625</LatitudeDegrees>
              <LongitudeDegrees>-4.081843011081218719482421875</LongitudeDegrees>
            </Position>
            <AltitudeMeters>1766</AltitudeMeters>
            <DistanceMeters>NAN</DistanceMeters>
          </Trackpoint>
          <Trackpoint>
            <Time>2018-12-30T12:49:50.000Z</Time>
            <Position>
              <LatitudeDegrees>40.7734570093452930450439453125</LatitudeDegrees>
              <LongitudeDegrees>-4.0818485431373119354248046875</LongitudeDegrees>
            </Position>
            <AltitudeMeters>1765.800048828125</AltitudeMeters>
            <DistanceMeters>NAN</DistanceMeters>
          </Trackpoint>
          <Trackpoint>
            <Time>2018-12-30T12:49:51.000Z</Time>
            <Position>
              <LatitudeDegrees>40.773448459804058074951171875</LatitudeDegrees>
              <LongitudeDegrees>-4.0818567574024200439453125</LongitudeDegrees>
            </Position>
            <AltitudeMeters>1765.5999755859375</AltitudeMeters>
            <DistanceMeters>NAN</DistanceMeters>
          </Trackpoint>
          <Trackpoint>
            <Time>2018-12-30T12:49:52.000Z</Time>
            <Position>
              <LatitudeDegrees>40.77343999408185482025146484375</LatitudeDegrees>
              <LongitudeDegrees>-4.081863462924957275390625</LongitudeDegrees>
            </Position>
            <AltitudeMeters>1765.4000244140625</AltitudeMeters>
            <DistanceMeters>NAN</DistanceMeters>
          </Trackpoint>
          <Trackpoint>
            <Time>2018-12-30T12:49:53.000Z</Time>
            <Position>
              <LatitudeDegrees>40.77343513257801532745361328125</LatitudeDegrees>
              <LongitudeDegrees>-4.08187360502779483795166015625</LongitudeDegrees>
            </Position>
            <AltitudeMeters>1765.4000244140625</AltitudeMeters>
            <DistanceMeters>NAN</DistanceMeters>
          </Trackpoint>
          <Trackpoint>
            <Time>2018-12-30T12:49:54.000Z</Time>
            <Position>
              <LatitudeDegrees>40.773422978818416595458984375</LatitudeDegrees>
              <LongitudeDegrees>-4.08187762834131717681884765625</LongitudeDegrees>
            </Position>
            <AltitudeMeters>1765.199951171875</AltitudeMeters>
            <DistanceMeters>NAN</DistanceMeters>
          </Trackpoint>
          <Trackpoint>
            <Time>2018-12-30T12:49:55.000Z</Time>
            <Position>
              <LatitudeDegrees>40.77341401018202304840087890625</LatitudeDegrees>
              <LongitudeDegrees>-4.0818862617015838623046875</LongitudeDegrees>
            </Position>
            <AltitudeMeters>1765.199951171875</AltitudeMeters>
            <DistanceMeters>NAN</DistanceMeters>
          </Trackpoint>
          <Trackpoint>
            <Time>2018-12-30T12:49:56.000Z</Time>
            <Position>
              <LatitudeDegrees>40.77339892275631427764892578125</LatitudeDegrees>
              <LongitudeDegrees>-4.08189020119607448577880859375</LongitudeDegrees>
            </Position>
            <AltitudeMeters>1765.199951171875</AltitudeMeters>
            <DistanceMeters>NAN</DistanceMeters>
          </Trackpoint>
          <Trackpoint>
            <Time>2018-12-30T12:49:57.000Z</Time>
            <Position>
              <LatitudeDegrees>40.77338333241641521453857421875</LatitudeDegrees>
              <LongitudeDegrees>-4.08189808018505573272705078125</LongitudeDegrees>
            </Position>
            <AltitudeMeters>1765.199951171875</AltitudeMeters>
            <DistanceMeters>NAN</DistanceMeters>
          </Trackpoint>
          <Trackpoint>
            <Time>2018-12-30T12:49:58.000Z</Time>
            <Position>
              <LatitudeDegrees>40.77337327413260936737060546875</LatitudeDegrees>
              <LongitudeDegrees>-4.0819078870117664337158203125</LongitudeDegrees>
            </Position>
            <AltitudeMeters>1765</AltitudeMeters>
            <DistanceMeters>NAN</DistanceMeters>
          </Trackpoint>
          <Trackpoint>
            <Time>2018-12-30T12:49:59.000Z</Time>
            <Position>
              <LatitudeDegrees>40.7733597792685031890869140625</LatitudeDegrees>
              <LongitudeDegrees>-4.0819159336388111114501953125</LongitudeDegrees>
            </Position>
            <AltitudeMeters>1765</AltitudeMeters>
            <DistanceMeters>NAN</DistanceMeters>
          </Trackpoint>
          <Trackpoint>
            <Time>2018-12-30T12:50:00.000Z</Time>
            <Position>
              <LatitudeDegrees>40.77335022389888763427734375</LatitudeDegrees>
              <LongitudeDegrees>-4.08192255534231662750244140625</LongitudeDegrees>
            </Position>
            <AltitudeMeters>1765</AltitudeMeters>
            <DistanceMeters>NAN</DistanceMeters>
          </Trackpoint>
          <Trackpoint>
            <Time>2018-12-30T12:50:01.000Z</Time>
            <Position>
              <LatitudeDegrees>40.773338489234447479248046875</LatitudeDegrees>
              <LongitudeDegrees>-4.0819251537322998046875</LongitudeDegrees>
            </Position>
            <AltitudeMeters>1765</AltitudeMeters>
            <DistanceMeters>NAN</DistanceMeters>
          </Trackpoint>
          <Trackpoint>
            <Time>2018-12-30T12:50:02.000Z</Time>
            <Position>
              <LatitudeDegrees>40.7733252458274364471435546875</LatitudeDegrees>
              <LongitudeDegrees>-4.08192850649356842041015625</LongitudeDegrees>
            </Position>
            <AltitudeMeters>1765</AltitudeMeters>
            <DistanceMeters>NAN</DistanceMeters>
          </Trackpoint>
          <Trackpoint>
            <Time>2018-12-30T12:50:03.000Z</Time>
            <Position>
              <LatitudeDegrees>40.7733148522675037384033203125</LatitudeDegrees>
              <LongitudeDegrees>-4.08193412236869335174560546875</LongitudeDegrees>
            </Position>
            <AltitudeMeters>1765</AltitudeMeters>
            <DistanceMeters>NAN</DistanceMeters>
          </Trackpoint>
          <Trackpoint>
            <Time>2018-12-30T12:50:04.000Z</Time>
            <Position>
              <LatitudeDegrees>40.77330504544079303741455078125</LatitudeDegrees>
              <LongitudeDegrees>-4.08194233663380146026611328125</LongitudeDegrees>
            </Position>
            <AltitudeMeters>1765</AltitudeMeters>
            <DistanceMeters>NAN</DistanceMeters>
          </Trackpoint>
          <Trackpoint>
            <Time>2018-12-30T12:50:05.000Z</Time>
            <Position>
              <LatitudeDegrees>40.773294903337955474853515625</LatitudeDegrees>
              <LongitudeDegrees>-4.08195155672729015350341796875</LongitudeDegrees>
            </Position>
            <AltitudeMeters>1765</AltitudeMeters>
            <DistanceMeters>NAN</DistanceMeters>
          </Trackpoint>
          <Trackpoint>
            <Time>2018-12-30T12:50:06.000Z</Time>
            <Position>
              <LatitudeDegrees>40.77328258194029331207275390625</LatitudeDegrees>
              <LongitudeDegrees>-4.08195943571627140045166015625</LongitudeDegrees>
            </Position>
            <AltitudeMeters>1765</AltitudeMeters>
            <DistanceMeters>NAN</DistanceMeters>
          </Trackpoint>
          <Trackpoint>
            <Time>2018-12-30T12:50:07.000Z</Time>
            <Position>
              <LatitudeDegrees>40.7732719369232654571533203125</LatitudeDegrees>
              <LongitudeDegrees>-4.08196329139173030853271484375</LongitudeDegrees>
            </Position>
            <AltitudeMeters>1765</AltitudeMeters>
            <DistanceMeters>NAN</DistanceMeters>
          </Trackpoint>
          <Trackpoint>
            <Time>2018-12-30T12:50:08.000Z</Time>
            <Position>
              <LatitudeDegrees>40.77326011843979358673095703125</LatitudeDegrees>
              <LongitudeDegrees>-4.081970416009426116943359375</LongitudeDegrees>
            </Position>
            <AltitudeMeters>1764.800048828125</AltitudeMeters>
            <DistanceMeters>NAN</DistanceMeters>
          </Trackpoint>
          <Trackpoint>
            <Time>2018-12-30T12:50:09.000Z</Time>
            <Position>
              <LatitudeDegrees>40.77324687503278255462646484375</LatitudeDegrees>
              <LongitudeDegrees>-4.08197770826518535614013671875</LongitudeDegrees>
            </Position>
            <AltitudeMeters>1764.800048828125</AltitudeMeters>
            <DistanceMeters>NAN</DistanceMeters>
          </Trackpoint>
          <Trackpoint>
            <Time>2018-12-30T12:50:10.000Z</Time>
            <Position>
              <LatitudeDegrees>40.773234553635120391845703125</LatitudeDegrees>
              <LongitudeDegrees>-4.081986509263515472412109375</LongitudeDegrees>
            </Position>
            <AltitudeMeters>1764.5999755859375</AltitudeMeters>
            <DistanceMeters>NAN</DistanceMeters>
          </Trackpoint>
          <Trackpoint>
            <Time>2018-12-30T12:50:11.000Z</Time>
            <Position>
              <LatitudeDegrees>40.77322122640907764434814453125</LatitudeDegrees>
              <LongitudeDegrees>-4.08199329860508441925048828125</LongitudeDegrees>
            </Position>
            <AltitudeMeters>1764.5999755859375</AltitudeMeters>
            <DistanceMeters>NAN</DistanceMeters>
          </Trackpoint>
          <Trackpoint>
            <Time>2018-12-30T12:50:12.000Z</Time>
            <Position>
              <LatitudeDegrees>40.77321016229689121246337890625</LatitudeDegrees>
              <LongitudeDegrees>-4.0819974057376384735107421875</LongitudeDegrees>
            </Position>
            <AltitudeMeters>1764.5999755859375</AltitudeMeters>
            <DistanceMeters>NAN</DistanceMeters>
          </Trackpoint>
          <Trackpoint>
            <Time>2018-12-30T12:50:13.000Z</Time>
            <Position>
              <LatitudeDegrees>40.77319675125181674957275390625</LatitudeDegrees>
              <LongitudeDegrees>-4.08200084231793880462646484375</LongitudeDegrees>
            </Position>
            <AltitudeMeters>1764.5999755859375</AltitudeMeters>
            <DistanceMeters>NAN</DistanceMeters>
          </Trackpoint>
          <Trackpoint>
            <Time>2018-12-30T12:50:14.000Z</Time>
            <Position>
              <LatitudeDegrees>40.77317831106483936309814453125</LatitudeDegrees>
              <LongitudeDegrees>-4.08200654201209545135498046875</LongitudeDegrees>
            </Position>
            <AltitudeMeters>1764.5999755859375</AltitudeMeters>
            <DistanceMeters>NAN</DistanceMeters>
          </Trackpoint>
          <Trackpoint>
            <Time>2018-12-30T12:50:15.000Z</Time>
            <Position>
              <LatitudeDegrees>40.7731626369059085845947265625</LatitudeDegrees>
              <LongitudeDegrees>-4.08201157115399837493896484375</LongitudeDegrees>
            </Position>
            <AltitudeMeters>1764.800048828125</AltitudeMeters>
            <DistanceMeters>NAN</DistanceMeters>
          </Trackpoint>
          <Trackpoint>
            <Time>2018-12-30T12:50:16.000Z</Time>
            <Position>
              <LatitudeDegrees>40.77315115369856357574462890625</LatitudeDegrees>
              <LongitudeDegrees>-4.08201911486685276031494140625</LongitudeDegrees>
            </Position>
            <AltitudeMeters>1764.800048828125</AltitudeMeters>
            <DistanceMeters>NAN</DistanceMeters>
          </Trackpoint>
          <Trackpoint>
            <Time>2018-12-30T12:50:17.000Z</Time>
            <Position>
              <LatitudeDegrees>40.7731411792337894439697265625</LatitudeDegrees>
              <LongitudeDegrees>-4.08202514983713626861572265625</LongitudeDegrees>
            </Position>
            <AltitudeMeters>1764.800048828125</AltitudeMeters>
            <DistanceMeters>NAN</DistanceMeters>
          </Trackpoint>
          <Trackpoint>
            <Time>2018-12-30T12:50:18.000Z</Time>
            <Position>
              <LatitudeDegrees>40.77313154004514217376708984375</LatitudeDegrees>
              <LongitudeDegrees>-4.082030765712261199951171875</LongitudeDegrees>
            </Position>
            <AltitudeMeters>1764.5999755859375</AltitudeMeters>
            <DistanceMeters>NAN</DistanceMeters>
          </Trackpoint>
          <Trackpoint>
            <Time>2018-12-30T12:50:19.000Z</Time>
            <Position>
              <LatitudeDegrees>40.773131959140300750732421875</LatitudeDegrees>
              <LongitudeDegrees>-4.08203805796802043914794921875</LongitudeDegrees>
            </Position>
            <AltitudeMeters>1764.5999755859375</AltitudeMeters>
            <DistanceMeters>NAN</DistanceMeters>
          </Trackpoint>
          <Trackpoint>
            <Time>2018-12-30T12:50:20.000Z</Time>
            <Position>
              <LatitudeDegrees>40.77313539572060108184814453125</LatitudeDegrees>
              <LongitudeDegrees>-4.08204241655766963958740234375</LongitudeDegrees>
            </Position>
            <AltitudeMeters>1764.4000244140625</AltitudeMeters>
            <DistanceMeters>NAN</DistanceMeters>
          </Trackpoint>
          <Trackpoint>
            <Time>2018-12-30T12:50:21.000Z</Time>
            <Position>
              <LatitudeDegrees>40.77313271351158618927001953125</LatitudeDegrees>
              <LongitudeDegrees>-4.08204291947185993194580078125</LongitudeDegrees>
            </Position>
            <AltitudeMeters>1764.5999755859375</AltitudeMeters>
            <DistanceMeters>NAN</DistanceMeters>
          </Trackpoint>
          <Trackpoint>
            <Time>2018-12-30T12:50:22.000Z</Time>
            <Position>
              <LatitudeDegrees>40.773126594722270965576171875</LatitudeDegrees>
              <LongitudeDegrees>-4.082037471234798431396484375</LongitudeDegrees>
            </Position>
            <AltitudeMeters>1764.4000244140625</AltitudeMeters>
            <DistanceMeters>NAN</DistanceMeters>
          </Trackpoint>
          <Trackpoint>
            <Time>2018-12-30T12:50:23.000Z</Time>
            <Position>
              <LatitudeDegrees>40.77311494387686252593994140625</LatitudeDegrees>
              <LongitudeDegrees>-4.0820326097309589385986328125</LongitudeDegrees>
            </Position>
            <AltitudeMeters>1764.4000244140625</AltitudeMeters>
            <DistanceMeters>NAN</DistanceMeters>
          </Trackpoint>
          <Trackpoint>
            <Time>2018-12-30T12:50:24.000Z</Time>
            <Position>
              <LatitudeDegrees>40.77311041764914989471435546875</LatitudeDegrees>
              <LongitudeDegrees>-4.0820275805890560150146484375</LongitudeDegrees>
            </Position>
            <AltitudeMeters>1764.4000244140625</AltitudeMeters>
            <DistanceMeters>NAN</DistanceMeters>
          </Trackpoint>
          <Trackpoint>
            <Time>2018-12-30T12:50:25.000Z</Time>
            <Position>
              <LatitudeDegrees>40.7731053046882152557373046875</LatitudeDegrees>
              <LongitudeDegrees>-4.08202867023646831512451171875</LongitudeDegrees>
            </Position>
            <AltitudeMeters>1764.5999755859375</AltitudeMeters>
            <DistanceMeters>NAN</DistanceMeters>
          </Trackpoint>
          <Trackpoint>
            <Time>2018-12-30T12:50:26.000Z</Time>
            <Position>
              <LatitudeDegrees>40.77309968881309032440185546875</LatitudeDegrees>
              <LongitudeDegrees>-4.08203043043613433837890625</LongitudeDegrees>
            </Position>
            <AltitudeMeters>1764.5999755859375</AltitudeMeters>
            <DistanceMeters>NAN</DistanceMeters>
          </Trackpoint>
          <Trackpoint>
            <Time>2018-12-30T12:50:27.000Z</Time>
            <Position>
              <LatitudeDegrees>40.77309583313763141632080078125</LatitudeDegrees>
              <LongitudeDegrees>-4.08203638158738613128662109375</LongitudeDegrees>
            </Position>
            <AltitudeMeters>1764.5999755859375</AltitudeMeters>
            <DistanceMeters>NAN</DistanceMeters>
          </Trackpoint>
          <Trackpoint>
            <Time>2018-12-30T12:50:28.000Z</Time>
            <Position>
              <LatitudeDegrees>40.77308594249188899993896484375</LatitudeDegrees>
              <LongitudeDegrees>-4.08203847706317901611328125</LongitudeDegrees>
            </Position>
            <AltitudeMeters>1764.5999755859375</AltitudeMeters>
            <DistanceMeters>NAN</DistanceMeters>
          </Trackpoint>
          <Trackpoint>
            <Time>2018-12-30T12:50:29.000Z</Time>
            <Position>
              <LatitudeDegrees>40.77307663857936859130859375</LatitudeDegrees>
              <LongitudeDegrees>-4.08204493112862110137939453125</LongitudeDegrees>
            </Position>
            <AltitudeMeters>1764.5999755859375</AltitudeMeters>
            <DistanceMeters>NAN</DistanceMeters>
          </Trackpoint>
          <Trackpoint>
            <Time>2018-12-30T12:50:30.000Z</Time>
            <Position>
              <LatitudeDegrees>40.77307253144681453704833984375</LatitudeDegrees>
              <LongitudeDegrees>-4.0820498764514923095703125</LongitudeDegrees>
            </Position>
            <AltitudeMeters>1764.5999755859375</AltitudeMeters>
            <DistanceMeters>NAN</DistanceMeters>
          </Trackpoint>
          <Trackpoint>
            <Time>2018-12-30T12:50:31.000Z</Time>
            <Position>
              <LatitudeDegrees>40.773065574467182159423828125</LatitudeDegrees>
              <LongitudeDegrees>-4.0820590965449810028076171875</LongitudeDegrees>
            </Position>
            <AltitudeMeters>1764.5999755859375</AltitudeMeters>
            <DistanceMeters>NAN</DistanceMeters>
          </Trackpoint>
          <Trackpoint>
            <Time>2018-12-30T12:50:32.000Z</Time>
            <Position>
              <LatitudeDegrees>40.77305224724113941192626953125</LatitudeDegrees>
              <LongitudeDegrees>-4.08206655643880367279052734375</LongitudeDegrees>
            </Position>
            <AltitudeMeters>1764.800048828125</AltitudeMeters>
            <DistanceMeters>NAN</DistanceMeters>
          </Trackpoint>
          <Trackpoint>
            <Time>2018-12-30T12:50:33.000Z</Time>
            <Position>
              <LatitudeDegrees>40.77303715981543064117431640625</LatitudeDegrees>
              <LongitudeDegrees>-4.0820704959332942962646484375</LongitudeDegrees>
            </Position>
            <AltitudeMeters>1765.199951171875</AltitudeMeters>
            <DistanceMeters>NAN</DistanceMeters>
          </Trackpoint>
          <Trackpoint>
            <Time>2018-12-30T12:50:34.000Z</Time>
            <Position>
              <LatitudeDegrees>40.7730211503803730010986328125</LatitudeDegrees>
              <LongitudeDegrees>-4.08206990920007228851318359375</LongitudeDegrees>
            </Position>
            <AltitudeMeters>1765.199951171875</AltitudeMeters>
            <DistanceMeters>NAN</DistanceMeters>
          </Trackpoint>
          <Trackpoint>
            <Time>2018-12-30T12:50:35.000Z</Time>
            <Position>
              <LatitudeDegrees>40.77300748787820339202880859375</LatitudeDegrees>
              <LongitudeDegrees>-4.08207527361810207366943359375</LongitudeDegrees>
            </Position>
            <AltitudeMeters>1765.4000244140625</AltitudeMeters>
            <DistanceMeters>NAN</DistanceMeters>
          </Trackpoint>
          <Trackpoint>
            <Time>2018-12-30T12:50:36.000Z</Time>
            <Position>
              <LatitudeDegrees>40.77299625612795352935791015625</LatitudeDegrees>
              <LongitudeDegrees>-4.0820845775306224822998046875</LongitudeDegrees>
            </Position>
            <AltitudeMeters>1765.5999755859375</AltitudeMeters>
            <DistanceMeters>NAN</DistanceMeters>
          </Trackpoint>
          <Trackpoint>
            <Time>2018-12-30T12:50:37.000Z</Time>
            <Position>
              <LatitudeDegrees>40.77298804186284542083740234375</LatitudeDegrees>
              <LongitudeDegrees>-4.08209371380507946014404296875</LongitudeDegrees>
            </Position>
            <AltitudeMeters>1765.5999755859375</AltitudeMeters>
            <DistanceMeters>NAN</DistanceMeters>
          </Trackpoint>
          <Trackpoint>
            <Time>2018-12-30T12:50:38.000Z</Time>
            <Position>
              <LatitudeDegrees>40.77298016287386417388916015625</LatitudeDegrees>
              <LongitudeDegrees>-4.0821010060608386993408203125</LongitudeDegrees>
            </Position>
            <AltitudeMeters>1765.5999755859375</AltitudeMeters>
            <DistanceMeters>NAN</DistanceMeters>
          </Trackpoint>
          <Trackpoint>
            <Time>2018-12-30T12:50:39.000Z</Time>
            <Position>
              <LatitudeDegrees>40.77296976931393146514892578125</LatitudeDegrees>
              <LongitudeDegrees>-4.08210662193596363067626953125</LongitudeDegrees>
            </Position>
            <AltitudeMeters>1765.4000244140625</AltitudeMeters>
            <DistanceMeters>NAN</DistanceMeters>
          </Trackpoint>
          <Trackpoint>
            <Time>2018-12-30T12:50:40.000Z</Time>
            <Position>
              <LatitudeDegrees>40.77296038158237934112548828125</LatitudeDegrees>
              <LongitudeDegrees>-4.08211349509656429290771484375</LongitudeDegrees>
            </Position>
            <AltitudeMeters>1765.199951171875</AltitudeMeters>
            <DistanceMeters>NAN</DistanceMeters>
          </Trackpoint>
          <Trackpoint>
            <Time>2018-12-30T12:50:41.000Z</Time>
            <Position>
              <LatitudeDegrees>40.77295015566051006317138671875</LatitudeDegrees>
              <LongitudeDegrees>-4.08212053589522838592529296875</LongitudeDegrees>
            </Position>
            <AltitudeMeters>1765</AltitudeMeters>
            <DistanceMeters>NAN</DistanceMeters>
          </Trackpoint>
          <Trackpoint>
            <Time>2018-12-30T12:50:42.000Z</Time>
            <Position>
              <LatitudeDegrees>40.772939510643482208251953125</LatitudeDegrees>
              <LongitudeDegrees>-4.0821288339793682098388671875</LongitudeDegrees>
            </Position>
            <AltitudeMeters>1764.800048828125</AltitudeMeters>
            <DistanceMeters>NAN</DistanceMeters>
          </Trackpoint>
          <Trackpoint>
            <Time>2018-12-30T12:50:43.000Z</Time>
            <Position>
              <LatitudeDegrees>40.77293037436902523040771484375</LatitudeDegrees>
              <LongitudeDegrees>-4.08214031718671321868896484375</LongitudeDegrees>
            </Position>
            <AltitudeMeters>1764.5999755859375</AltitudeMeters>
            <DistanceMeters>NAN</DistanceMeters>
          </Trackpoint>
          <Trackpoint>
            <Time>2018-12-30T12:50:44.000Z</Time>
            <Position>
              <LatitudeDegrees>40.7729219086468219757080078125</LatitudeDegrees>
              <LongitudeDegrees>-4.08214844763278961181640625</LongitudeDegrees>
            </Position>
            <AltitudeMeters>1764.4000244140625</AltitudeMeters>
            <DistanceMeters>NAN</DistanceMeters>
          </Trackpoint>
          <Trackpoint>
            <Time>2018-12-30T12:50:45.000Z</Time>
            <Position>
              <LatitudeDegrees>40.7729141972959041595458984375</LatitudeDegrees>
              <LongitudeDegrees>-4.08215406350791454315185546875</LongitudeDegrees>
            </Position>
            <AltitudeMeters>1764.199951171875</AltitudeMeters>
            <DistanceMeters>NAN</DistanceMeters>
          </Trackpoint>
          <Trackpoint>
            <Time>2018-12-30T12:50:46.000Z</Time>
            <Position>
              <LatitudeDegrees>40.7728957571089267730712890625</LatitudeDegrees>
              <LongitudeDegrees>-4.0821583382785320281982421875</LongitudeDegrees>
            </Position>
            <AltitudeMeters>1764.4000244140625</AltitudeMeters>
            <DistanceMeters>NAN</DistanceMeters>
          </Trackpoint>
          <Trackpoint>
            <Time>2018-12-30T12:50:47.000Z</Time>
            <Position>
              <LatitudeDegrees>40.77287103049457073211669921875</LatitudeDegrees>
              <LongitudeDegrees>-4.082154817879199981689453125</LongitudeDegrees>
            </Position>
            <AltitudeMeters>1764.4000244140625</AltitudeMeters>
            <DistanceMeters>NAN</DistanceMeters>
          </Trackpoint>
          <Trackpoint>
            <Time>2018-12-30T12:50:48.000Z</Time>
            <Position>
              <LatitudeDegrees>40.77285401523113250732421875</LatitudeDegrees>
              <LongitudeDegrees>-4.0821670554578304290771484375</LongitudeDegrees>
            </Position>
            <AltitudeMeters>1764.4000244140625</AltitudeMeters>
            <DistanceMeters>NAN</DistanceMeters>
          </Trackpoint>
          <Trackpoint>
            <Time>2018-12-30T12:50:49.000Z</Time>
            <Position>
              <LatitudeDegrees>40.77283968217670917510986328125</LatitudeDegrees>
              <LongitudeDegrees>-4.08217283897101879119873046875</LongitudeDegrees>
            </Position>
            <AltitudeMeters>1764.4000244140625</AltitudeMeters>
            <DistanceMeters>NAN</DistanceMeters>
          </Trackpoint>
          <Trackpoint>
            <Time>2018-12-30T12:50:50.000Z</Time>
            <Position>
              <LatitudeDegrees>40.7728246785700321197509765625</LatitudeDegrees>
              <LongitudeDegrees>-4.08218340016901493072509765625</LongitudeDegrees>
            </Position>
            <AltitudeMeters>1764.199951171875</AltitudeMeters>
            <DistanceMeters>NAN</DistanceMeters>
          </Trackpoint>
          <Trackpoint>
            <Time>2018-12-30T12:50:51.000Z</Time>
            <Position>
              <LatitudeDegrees>40.7728109322488307952880859375</LatitudeDegrees>
              <LongitudeDegrees>-4.08219404518604278564453125</LongitudeDegrees>
            </Position>
            <AltitudeMeters>1764.199951171875</AltitudeMeters>
            <DistanceMeters>NAN</DistanceMeters>
          </Trackpoint>
          <Trackpoint>
            <Time>2018-12-30T12:50:52.000Z</Time>
            <Position>
              <LatitudeDegrees>40.77279961667954921722412109375</LatitudeDegrees>
              <LongitudeDegrees>-4.0822019241750240325927734375</LongitudeDegrees>
            </Position>
            <AltitudeMeters>1764</AltitudeMeters>
            <DistanceMeters>NAN</DistanceMeters>
          </Trackpoint>
          <Trackpoint>
            <Time>2018-12-30T12:50:53.000Z</Time>
            <Position>
              <LatitudeDegrees>40.77278469689190387725830078125</LatitudeDegrees>
              <LongitudeDegrees>-4.08220351673662662506103515625</LongitudeDegrees>
            </Position>
            <AltitudeMeters>1764</AltitudeMeters>
            <DistanceMeters>NAN</DistanceMeters>
          </Trackpoint>
          <Trackpoint>
            <Time>2018-12-30T12:50:54.000Z</Time>
            <Position>
              <LatitudeDegrees>40.7727717049419879913330078125</LatitudeDegrees>
              <LongitudeDegrees>-4.0822109766304492950439453125</LongitudeDegrees>
            </Position>
            <AltitudeMeters>1763.5999755859375</AltitudeMeters>
            <DistanceMeters>NAN</DistanceMeters>
          </Trackpoint>
          <Trackpoint>
            <Time>2018-12-30T12:50:55.000Z</Time>
            <Position>
              <LatitudeDegrees>40.7727613113820552825927734375</LatitudeDegrees>
              <LongitudeDegrees>-4.08222011290490627288818359375</LongitudeDegrees>
            </Position>
            <AltitudeMeters>1763.5999755859375</AltitudeMeters>
            <DistanceMeters>NAN</DistanceMeters>
          </Trackpoint>
          <Trackpoint>
            <Time>2018-12-30T12:50:56.000Z</Time>
            <Position>
              <LatitudeDegrees>40.7727536000311374664306640625</LatitudeDegrees>
              <LongitudeDegrees>-4.08222648315131664276123046875</LongitudeDegrees>
            </Position>
            <AltitudeMeters>1763.4000244140625</AltitudeMeters>
            <DistanceMeters>NAN</DistanceMeters>
          </Trackpoint>
          <Trackpoint>
            <Time>2018-12-30T12:50:57.000Z</Time>
            <Position>
              <LatitudeDegrees>40.77274077571928501129150390625</LatitudeDegrees>
              <LongitudeDegrees>-4.08222782425582408905029296875</LongitudeDegrees>
            </Position>
            <AltitudeMeters>1763.4000244140625</AltitudeMeters>
            <DistanceMeters>NAN</DistanceMeters>
          </Trackpoint>
          <Trackpoint>
            <Time>2018-12-30T12:50:58.000Z</Time>
            <Position>
              <LatitudeDegrees>40.77273474074900150299072265625</LatitudeDegrees>
              <LongitudeDegrees>-4.08223251812160015106201171875</LongitudeDegrees>
            </Position>
            <AltitudeMeters>1763.4000244140625</AltitudeMeters>
            <DistanceMeters>NAN</DistanceMeters>
          </Trackpoint>
          <Trackpoint>
            <Time>2018-12-30T12:50:59.000Z</Time>
            <Position>
              <LatitudeDegrees>40.772730968892574310302734375</LatitudeDegrees>
              <LongitudeDegrees>-4.082246012985706329345703125</LongitudeDegrees>
            </Position>
            <AltitudeMeters>1763.4000244140625</AltitudeMeters>
            <DistanceMeters>NAN</DistanceMeters>
          </Trackpoint>
          <Trackpoint>
            <Time>2018-12-30T12:51:00.000Z</Time>
            <Position>
              <LatitudeDegrees>40.77272485010325908660888671875</LatitudeDegrees>
              <LongitudeDegrees>-4.08225866965949535369873046875</LongitudeDegrees>
            </Position>
            <AltitudeMeters>1763.4000244140625</AltitudeMeters>
            <DistanceMeters>NAN</DistanceMeters>
          </Trackpoint>
          <Trackpoint>
            <Time>2018-12-30T12:51:01.000Z</Time>
            <Position>
              <LatitudeDegrees>40.77271730639040470123291015625</LatitudeDegrees>
              <LongitudeDegrees>-4.08226939849555492401123046875</LongitudeDegrees>
            </Position>
            <AltitudeMeters>1763.199951171875</AltitudeMeters>
            <DistanceMeters>NAN</DistanceMeters>
          </Trackpoint>
          <Trackpoint>
            <Time>2018-12-30T12:51:02.000Z</Time>
            <Position>
              <LatitudeDegrees>40.77270984649658203125</LatitudeDegrees>
              <LongitudeDegrees>-4.082279540598392486572265625</LongitudeDegrees>
            </Position>
            <AltitudeMeters>1763.199951171875</AltitudeMeters>
            <DistanceMeters>NAN</DistanceMeters>
          </Trackpoint>
          <Trackpoint>
            <Time>2018-12-30T12:51:03.000Z</Time>
            <Position>
              <LatitudeDegrees>40.772698782384395599365234375</LatitudeDegrees>
              <LongitudeDegrees>-4.08229135908186435699462890625</LongitudeDegrees>
            </Position>
            <AltitudeMeters>1763</AltitudeMeters>
            <DistanceMeters>NAN</DistanceMeters>
          </Trackpoint>
          <Trackpoint>
            <Time>2018-12-30T12:51:04.000Z</Time>
            <Position>
              <LatitudeDegrees>40.77268411405384540557861328125</LatitudeDegrees>
              <LongitudeDegrees>-4.08229731023311614990234375</LongitudeDegrees>
            </Position>
            <AltitudeMeters>1763</AltitudeMeters>
            <DistanceMeters>NAN</DistanceMeters>
          </Trackpoint>
          <Trackpoint>
            <Time>2018-12-30T12:51:05.000Z</Time>
            <Position>
              <LatitudeDegrees>40.77266684733331203460693359375</LatitudeDegrees>
              <LongitudeDegrees>-4.0823045186698436737060546875</LongitudeDegrees>
            </Position>
            <AltitudeMeters>1762.800048828125</AltitudeMeters>
            <DistanceMeters>NAN</DistanceMeters>
          </Trackpoint>
          <Trackpoint>
            <Time>2018-12-30T12:51:06.000Z</Time>
            <Position>
              <LatitudeDegrees>40.77265578322112560272216796875</LatitudeDegrees>
              <LongitudeDegrees>-4.0823100507259368896484375</LongitudeDegrees>
            </Position>
            <AltitudeMeters>1762.800048828125</AltitudeMeters>
            <DistanceMeters>NAN</DistanceMeters>
          </Trackpoint>
          <Trackpoint>
            <Time>2018-12-30T12:51:07.000Z</Time>
            <Position>
              <LatitudeDegrees>40.772641785442829132080078125</LatitudeDegrees>
              <LongitudeDegrees>-4.082309715449810028076171875</LongitudeDegrees>
            </Position>
            <AltitudeMeters>1762.800048828125</AltitudeMeters>
            <DistanceMeters>NAN</DistanceMeters>
          </Trackpoint>
          <Trackpoint>
            <Time>2018-12-30T12:51:08.000Z</Time>
            <Position>
              <LatitudeDegrees>40.7726318947970867156982421875</LatitudeDegrees>
              <LongitudeDegrees>-4.08232019282877445220947265625</LongitudeDegrees>
            </Position>
            <AltitudeMeters>1763</AltitudeMeters>
            <DistanceMeters>NAN</DistanceMeters>
          </Trackpoint>
          <Trackpoint>
            <Time>2018-12-30T12:51:09.000Z</Time>
            <Position>
              <LatitudeDegrees>40.7726201601326465606689453125</LatitudeDegrees>
              <LongitudeDegrees>-4.08232756890356540679931640625</LongitudeDegrees>
            </Position>
            <AltitudeMeters>1762.800048828125</AltitudeMeters>
            <DistanceMeters>NAN</DistanceMeters>
          </Trackpoint>
          <Trackpoint>
            <Time>2018-12-30T12:51:10.000Z</Time>
            <Position>
              <LatitudeDegrees>40.7726074196398258209228515625</LatitudeDegrees>
              <LongitudeDegrees>-4.082335866987705230712890625</LongitudeDegrees>
            </Position>
            <AltitudeMeters>1762.800048828125</AltitudeMeters>
            <DistanceMeters>NAN</DistanceMeters>
          </Trackpoint>
          <Trackpoint>
            <Time>2018-12-30T12:51:11.000Z</Time>
            <Position>
              <LatitudeDegrees>40.77259090729057788848876953125</LatitudeDegrees>
              <LongitudeDegrees>-4.08234097994863986968994140625</LongitudeDegrees>
            </Position>
            <AltitudeMeters>1762.800048828125</AltitudeMeters>
            <DistanceMeters>NAN</DistanceMeters>
          </Trackpoint>
          <Trackpoint>
            <Time>2018-12-30T12:51:12.000Z</Time>
            <Position>
              <LatitudeDegrees>40.77257447876036167144775390625</LatitudeDegrees>
              <LongitudeDegrees>-4.08234466798603534698486328125</LongitudeDegrees>
            </Position>
            <AltitudeMeters>1762.800048828125</AltitudeMeters>
            <DistanceMeters>NAN</DistanceMeters>
          </Trackpoint>
          <Trackpoint>
            <Time>2018-12-30T12:51:13.000Z</Time>
            <Position>
              <LatitudeDegrees>40.7725601457059383392333984375</LatitudeDegrees>
              <LongitudeDegrees>-4.08234785310924053192138671875</LongitudeDegrees>
            </Position>
            <AltitudeMeters>1762.800048828125</AltitudeMeters>
            <DistanceMeters>NAN</DistanceMeters>
          </Trackpoint>
          <Trackpoint>
            <Time>2018-12-30T12:51:14.000Z</Time>
            <Position>
              <LatitudeDegrees>40.772547237575054168701171875</LatitudeDegrees>
              <LongitudeDegrees>-4.08235405571758747100830078125</LongitudeDegrees>
            </Position>
            <AltitudeMeters>1762.800048828125</AltitudeMeters>
            <DistanceMeters>NAN</DistanceMeters>
          </Trackpoint>
          <Trackpoint>
            <Time>2018-12-30T12:51:15.000Z</Time>
            <Position>
              <LatitudeDegrees>40.77253491617739200592041015625</LatitudeDegrees>
              <LongitudeDegrees>-4.0823601745069026947021484375</LongitudeDegrees>
            </Position>
            <AltitudeMeters>1762.800048828125</AltitudeMeters>
            <DistanceMeters>NAN</DistanceMeters>
          </Trackpoint>
          <Trackpoint>
            <Time>2018-12-30T12:51:16.000Z</Time>
            <Position>
              <LatitudeDegrees>40.77252184040844440460205078125</LatitudeDegrees>
              <LongitudeDegrees>-4.08236436545848846435546875</LongitudeDegrees>
            </Position>
            <AltitudeMeters>1762.800048828125</AltitudeMeters>
            <DistanceMeters>NAN</DistanceMeters>
          </Trackpoint>
          <Trackpoint>
            <Time>2018-12-30T12:51:17.000Z</Time>
            <Position>
              <LatitudeDegrees>40.77250658534467220306396484375</LatitudeDegrees>
              <LongitudeDegrees>-4.0823705680668354034423828125</LongitudeDegrees>
            </Position>
            <AltitudeMeters>1762.800048828125</AltitudeMeters>
            <DistanceMeters>NAN</DistanceMeters>
          </Trackpoint>
          <Trackpoint>
            <Time>2018-12-30T12:51:18.000Z</Time>
            <Position>
              <LatitudeDegrees>40.77249535359442234039306640625</LatitudeDegrees>
              <LongitudeDegrees>-4.0823732502758502960205078125</LongitudeDegrees>
            </Position>
            <AltitudeMeters>1762.800048828125</AltitudeMeters>
            <DistanceMeters>NAN</DistanceMeters>
          </Trackpoint>
          <Trackpoint>
            <Time>2018-12-30T12:51:19.000Z</Time>
            <Position>
              <LatitudeDegrees>40.77248496003448963165283203125</LatitudeDegrees>
              <LongitudeDegrees>-4.08237777650356292724609375</LongitudeDegrees>
            </Position>
            <AltitudeMeters>1762.5999755859375</AltitudeMeters>
            <DistanceMeters>NAN</DistanceMeters>
          </Trackpoint>
          <Trackpoint>
            <Time>2018-12-30T12:51:20.000Z</Time>
            <Position>
              <LatitudeDegrees>40.77247314155101776123046875</LatitudeDegrees>
              <LongitudeDegrees>-4.0823846496641635894775390625</LongitudeDegrees>
            </Position>
            <AltitudeMeters>1762.5999755859375</AltitudeMeters>
            <DistanceMeters>NAN</DistanceMeters>
          </Trackpoint>
          <Trackpoint>
            <Time>2018-12-30T12:51:21.000Z</Time>
            <Position>
              <LatitudeDegrees>40.772462077438831329345703125</LatitudeDegrees>
              <LongitudeDegrees>-4.08239412121474742889404296875</LongitudeDegrees>
            </Position>
            <AltitudeMeters>1762.5999755859375</AltitudeMeters>
            <DistanceMeters>NAN</DistanceMeters>
          </Trackpoint>
          <Trackpoint>
            <Time>2018-12-30T12:51:22.000Z</Time>
            <Position>
              <LatitudeDegrees>40.7724468223750591278076171875</LatitudeDegrees>
              <LongitudeDegrees>-4.08240183256566524505615234375</LongitudeDegrees>
            </Position>
            <AltitudeMeters>1762.5999755859375</AltitudeMeters>
            <DistanceMeters>NAN</DistanceMeters>
          </Trackpoint>
          <Trackpoint>
            <Time>2018-12-30T12:51:23.000Z</Time>
            <Position>
              <LatitudeDegrees>40.772428214550018310546875</LatitudeDegrees>
              <LongitudeDegrees>-4.0824084542691707611083984375</LongitudeDegrees>
            </Position>
            <AltitudeMeters>1762.5999755859375</AltitudeMeters>
            <DistanceMeters>NAN</DistanceMeters>
          </Trackpoint>
          <Trackpoint>
            <Time>2018-12-30T12:51:24.000Z</Time>
            <Position>
              <LatitudeDegrees>40.7724126242101192474365234375</LatitudeDegrees>
              <LongitudeDegrees>-4.082417674362659454345703125</LongitudeDegrees>
            </Position>
            <AltitudeMeters>1762.5999755859375</AltitudeMeters>
            <DistanceMeters>NAN</DistanceMeters>
          </Trackpoint>
          <Trackpoint>
            <Time>2018-12-30T12:51:25.000Z</Time>
            <Position>
              <LatitudeDegrees>40.7724005542695522308349609375</LatitudeDegrees>
              <LongitudeDegrees>-4.08242404460906982421875</LongitudeDegrees>
            </Position>
            <AltitudeMeters>1762.4000244140625</AltitudeMeters>
            <DistanceMeters>NAN</DistanceMeters>
          </Trackpoint>
          <Trackpoint>
            <Time>2018-12-30T12:51:26.000Z</Time>
            <Position>
              <LatitudeDegrees>40.77238253317773342132568359375</LatitudeDegrees>
              <LongitudeDegrees>-4.082431755959987640380859375</LongitudeDegrees>
            </Position>
            <AltitudeMeters>1762.4000244140625</AltitudeMeters>
            <DistanceMeters>NAN</DistanceMeters>
          </Trackpoint>
          <Trackpoint>
            <Time>2018-12-30T12:51:27.000Z</Time>
            <Position>
              <LatitudeDegrees>40.7723703794181346893310546875</LatitudeDegrees>
              <LongitudeDegrees>-4.08244214951992034912109375</LongitudeDegrees>
            </Position>
            <AltitudeMeters>1762.4000244140625</AltitudeMeters>
            <DistanceMeters>NAN</DistanceMeters>
          </Trackpoint>
          <Trackpoint>
            <Time>2018-12-30T12:51:28.000Z</Time>
            <Position>
              <LatitudeDegrees>40.77235654927790164947509765625</LatitudeDegrees>
              <LongitudeDegrees>-4.0824493579566478729248046875</LongitudeDegrees>
            </Position>
            <AltitudeMeters>1762.199951171875</AltitudeMeters>
            <DistanceMeters>NAN</DistanceMeters>
          </Trackpoint>
          <Trackpoint>
            <Time>2018-12-30T12:51:29.000Z</Time>
            <Position>
              <LatitudeDegrees>40.7723410427570343017578125</LatitudeDegrees>
              <LongitudeDegrees>-4.0824617631733417510986328125</LongitudeDegrees>
            </Position>
            <AltitudeMeters>1762.199951171875</AltitudeMeters>
            <DistanceMeters>NAN</DistanceMeters>
          </Trackpoint>
          <Trackpoint>
            <Time>2018-12-30T12:51:30.000Z</Time>
            <Position>
              <LatitudeDegrees>40.772326290607452392578125</LatitudeDegrees>
              <LongitudeDegrees>-4.08247165381908416748046875</LongitudeDegrees>
            </Position>
            <AltitudeMeters>1762.199951171875</AltitudeMeters>
            <DistanceMeters>NAN</DistanceMeters>
          </Trackpoint>
          <Trackpoint>
            <Time>2018-12-30T12:51:31.000Z</Time>
            <Position>
              <LatitudeDegrees>40.77231489121913909912109375</LatitudeDegrees>
              <LongitudeDegrees>-4.08248213119804859161376953125</LongitudeDegrees>
            </Position>
            <AltitudeMeters>1762.199951171875</AltitudeMeters>
            <DistanceMeters>NAN</DistanceMeters>
          </Trackpoint>
          <Trackpoint>
            <Time>2018-12-30T12:51:32.000Z</Time>
            <Position>
              <LatitudeDegrees>40.77229988761246204376220703125</LatitudeDegrees>
              <LongitudeDegrees>-4.0824882499873638153076171875</LongitudeDegrees>
            </Position>
            <AltitudeMeters>1762.199951171875</AltitudeMeters>
            <DistanceMeters>NAN</DistanceMeters>
          </Trackpoint>
          <Trackpoint>
            <Time>2018-12-30T12:51:33.000Z</Time>
            <Position>
              <LatitudeDegrees>40.7722852192819118499755859375</LatitudeDegrees>
              <LongitudeDegrees>-4.08249453641474246978759765625</LongitudeDegrees>
            </Position>
            <AltitudeMeters>1762.199951171875</AltitudeMeters>
            <DistanceMeters>NAN</DistanceMeters>
          </Trackpoint>
          <Trackpoint>
            <Time>2018-12-30T12:51:34.000Z</Time>
            <Position>
              <LatitudeDegrees>40.7722751609981060028076171875</LatitudeDegrees>
              <LongitudeDegrees>-4.0825080312788486480712890625</LongitudeDegrees>
            </Position>
            <AltitudeMeters>1762.199951171875</AltitudeMeters>
            <DistanceMeters>NAN</DistanceMeters>
          </Trackpoint>
          <Trackpoint>
            <Time>2018-12-30T12:51:35.000Z</Time>
            <Position>
              <LatitudeDegrees>40.7722637616097927093505859375</LatitudeDegrees>
              <LongitudeDegrees>-4.08251767046749591827392578125</LongitudeDegrees>
            </Position>
            <AltitudeMeters>1762.199951171875</AltitudeMeters>
            <DistanceMeters>NAN</DistanceMeters>
          </Trackpoint>
          <Trackpoint>
            <Time>2018-12-30T12:51:36.000Z</Time>
            <Position>
              <LatitudeDegrees>40.77224959619343280792236328125</LatitudeDegrees>
              <LongitudeDegrees>-4.08252420835196971893310546875</LongitudeDegrees>
            </Position>
            <AltitudeMeters>1762</AltitudeMeters>
            <DistanceMeters>NAN</DistanceMeters>
          </Trackpoint>
          <Trackpoint>
            <Time>2018-12-30T12:51:37.000Z</Time>
            <Position>
              <LatitudeDegrees>40.77223668806254863739013671875</LatitudeDegrees>
              <LongitudeDegrees>-4.08253208734095096588134765625</LongitudeDegrees>
            </Position>
            <AltitudeMeters>1762.199951171875</AltitudeMeters>
            <DistanceMeters>NAN</DistanceMeters>
          </Trackpoint>
          <Trackpoint>
            <Time>2018-12-30T12:51:38.000Z</Time>
            <Position>
              <LatitudeDegrees>40.7722255401313304901123046875</LatitudeDegrees>
              <LongitudeDegrees>-4.08254130743443965911865234375</LongitudeDegrees>
            </Position>
            <AltitudeMeters>1762</AltitudeMeters>
            <DistanceMeters>NAN</DistanceMeters>
          </Trackpoint>
          <Trackpoint>
            <Time>2018-12-30T12:51:39.000Z</Time>
            <Position>
              <LatitudeDegrees>40.77221372164785861968994140625</LatitudeDegrees>
              <LongitudeDegrees>-4.08254935406148433685302734375</LongitudeDegrees>
            </Position>
            <AltitudeMeters>1762</AltitudeMeters>
            <DistanceMeters>NAN</DistanceMeters>
          </Trackpoint>
          <Trackpoint>
            <Time>2018-12-30T12:51:40.000Z</Time>
            <Position>
              <LatitudeDegrees>40.77219813130795955657958984375</LatitudeDegrees>
              <LongitudeDegrees>-4.08255438320338726043701171875</LongitudeDegrees>
            </Position>
            <AltitudeMeters>1761.800048828125</AltitudeMeters>
            <DistanceMeters>NAN</DistanceMeters>
          </Trackpoint>
          <Trackpoint>
            <Time>2018-12-30T12:51:41.000Z</Time>
            <Position>
              <LatitudeDegrees>40.77218438498675823211669921875</LatitudeDegrees>
              <LongitudeDegrees>-4.082559160888195037841796875</LongitudeDegrees>
            </Position>
            <AltitudeMeters>1761.800048828125</AltitudeMeters>
            <DistanceMeters>NAN</DistanceMeters>
          </Trackpoint>
          <Trackpoint>
            <Time>2018-12-30T12:51:42.000Z</Time>
            <Position>
              <LatitudeDegrees>40.7721720635890960693359375</LatitudeDegrees>
              <LongitudeDegrees>-4.0825675427913665771484375</LongitudeDegrees>
            </Position>
            <AltitudeMeters>1761.800048828125</AltitudeMeters>
            <DistanceMeters>NAN</DistanceMeters>
          </Trackpoint>
          <Trackpoint>
            <Time>2018-12-30T12:51:43.000Z</Time>
            <Position>
              <LatitudeDegrees>40.7721618376672267913818359375</LatitudeDegrees>
              <LongitudeDegrees>-4.0825767628848552703857421875</LongitudeDegrees>
            </Position>
            <AltitudeMeters>1761.5999755859375</AltitudeMeters>
            <DistanceMeters>NAN</DistanceMeters>
          </Trackpoint>
          <Trackpoint>
            <Time>2018-12-30T12:51:44.000Z</Time>
            <Position>
              <LatitudeDegrees>40.77214968390762805938720703125</LatitudeDegrees>
              <LongitudeDegrees>-4.082585312426090240478515625</LongitudeDegrees>
            </Position>
            <AltitudeMeters>1761.5999755859375</AltitudeMeters>
            <DistanceMeters>NAN</DistanceMeters>
          </Trackpoint>
          <Trackpoint>
            <Time>2018-12-30T12:51:45.000Z</Time>
            <Position>
              <LatitudeDegrees>40.77213660813868045806884765625</LatitudeDegrees>
              <LongitudeDegrees>-4.08259562216699123382568359375</LongitudeDegrees>
            </Position>
            <AltitudeMeters>1761.4000244140625</AltitudeMeters>
            <DistanceMeters>NAN</DistanceMeters>
          </Trackpoint>
          <Trackpoint>
            <Time>2018-12-30T12:51:46.000Z</Time>
            <Position>
              <LatitudeDegrees>40.7721232809126377105712890625</LatitudeDegrees>
              <LongitudeDegrees>-4.0825982205569744110107421875</LongitudeDegrees>
            </Position>
            <AltitudeMeters>1761.199951171875</AltitudeMeters>
            <DistanceMeters>NAN</DistanceMeters>
          </Trackpoint>
          <Trackpoint>
            <Time>2018-12-30T12:51:47.000Z</Time>
            <Position>
              <LatitudeDegrees>40.7721172459423542022705078125</LatitudeDegrees>
              <LongitudeDegrees>-4.0825985558331012725830078125</LongitudeDegrees>
            </Position>
            <AltitudeMeters>1760.800048828125</AltitudeMeters>
            <DistanceMeters>NAN</DistanceMeters>
          </Trackpoint>
          <Trackpoint>
            <Time>2018-12-30T12:51:48.000Z</Time>
            <Position>
              <LatitudeDegrees>40.77211028896272182464599609375</LatitudeDegrees>
              <LongitudeDegrees>-4.0825975500047206878662109375</LongitudeDegrees>
            </Position>
            <AltitudeMeters>1760.800048828125</AltitudeMeters>
            <DistanceMeters>NAN</DistanceMeters>
          </Trackpoint>
          <Trackpoint>
            <Time>2018-12-30T12:51:49.000Z</Time>
            <Position>
              <LatitudeDegrees>40.7721058465540409088134765625</LatitudeDegrees>
              <LongitudeDegrees>-4.08259780146181583404541015625</LongitudeDegrees>
            </Position>
            <AltitudeMeters>1760.5999755859375</AltitudeMeters>
            <DistanceMeters>NAN</DistanceMeters>
          </Trackpoint>
          <Trackpoint>
            <Time>2018-12-30T12:51:50.000Z</Time>
            <Position>
              <LatitudeDegrees>40.77210324816405773162841796875</LatitudeDegrees>
              <LongitudeDegrees>-4.082598052918910980224609375</LongitudeDegrees>
            </Position>
            <AltitudeMeters>1760.5999755859375</AltitudeMeters>
            <DistanceMeters>NAN</DistanceMeters>
          </Trackpoint>
          <Trackpoint>
            <Time>2018-12-30T12:51:51.000Z</Time>
            <Position>
              <LatitudeDegrees>40.77210173942148685455322265625</LatitudeDegrees>
              <LongitudeDegrees>-4.0825995616614818572998046875</LongitudeDegrees>
            </Position>
            <AltitudeMeters>1760.5999755859375</AltitudeMeters>
            <DistanceMeters>NAN</DistanceMeters>
          </Trackpoint>
          <Trackpoint>
            <Time>2018-12-30T12:51:52.000Z</Time>
            <Position>
              <LatitudeDegrees>40.7721001468598842620849609375</LatitudeDegrees>
              <LongitudeDegrees>-4.08259931020438671112060546875</LongitudeDegrees>
            </Position>
            <AltitudeMeters>1760.5999755859375</AltitudeMeters>
            <DistanceMeters>NAN</DistanceMeters>
          </Trackpoint>
          <Trackpoint>
            <Time>2018-12-30T12:51:53.000Z</Time>
            <Position>
              <LatitudeDegrees>40.77210006304085254669189453125</LatitudeDegrees>
              <LongitudeDegrees>-4.082599394023418426513671875</LongitudeDegrees>
            </Position>
            <AltitudeMeters>1760.800048828125</AltitudeMeters>
            <DistanceMeters>NAN</DistanceMeters>
          </Trackpoint>
          <Trackpoint>
            <Time>2018-12-30T12:51:54.000Z</Time>
            <Position>
              <LatitudeDegrees>40.77209972776472568511962890625</LatitudeDegrees>
              <LongitudeDegrees>-4.0826002322137355804443359375</LongitudeDegrees>
            </Position>
            <AltitudeMeters>1760.800048828125</AltitudeMeters>
            <DistanceMeters>NAN</DistanceMeters>
          </Trackpoint>
          <Trackpoint>
            <Time>2018-12-30T12:51:55.000Z</Time>
            <Position>
              <LatitudeDegrees>40.77209939248859882354736328125</LatitudeDegrees>
              <LongitudeDegrees>-4.08260098658502101898193359375</LongitudeDegrees>
            </Position>
            <AltitudeMeters>1760.800048828125</AltitudeMeters>
            <DistanceMeters>NAN</DistanceMeters>
          </Trackpoint>
          <Trackpoint>
            <Time>2018-12-30T12:51:56.000Z</Time>
            <Position>
              <LatitudeDegrees>40.77209888957440853118896484375</LatitudeDegrees>
              <LongitudeDegrees>-4.08260115422308444976806640625</LongitudeDegrees>
            </Position>
            <AltitudeMeters>1760.800048828125</AltitudeMeters>
            <DistanceMeters>NAN</DistanceMeters>
          </Trackpoint>
          <Trackpoint>
            <Time>2018-12-30T12:51:57.000Z</Time>
            <Position>
              <LatitudeDegrees>40.77209897339344024658203125</LatitudeDegrees>
              <LongitudeDegrees>-4.0826025791466236114501953125</LongitudeDegrees>
            </Position>
            <AltitudeMeters>1760.5999755859375</AltitudeMeters>
            <DistanceMeters>NAN</DistanceMeters>
          </Trackpoint>
          <Trackpoint>
            <Time>2018-12-30T12:51:58.000Z</Time>
            <Position>
              <LatitudeDegrees>40.77209888957440853118896484375</LatitudeDegrees>
              <LongitudeDegrees>-4.0826024115085601806640625</LongitudeDegrees>
            </Position>
            <AltitudeMeters>1760.5999755859375</AltitudeMeters>
            <DistanceMeters>NAN</DistanceMeters>
          </Trackpoint>
          <Trackpoint>
            <Time>2018-12-30T12:51:59.000Z</Time>
            <Position>
              <LatitudeDegrees>40.772096626460552215576171875</LatitudeDegrees>
              <LongitudeDegrees>-4.08259947784245014190673828125</LongitudeDegrees>
            </Position>
            <AltitudeMeters>1760.5999755859375</AltitudeMeters>
            <DistanceMeters>NAN</DistanceMeters>
          </Trackpoint>
          <Trackpoint>
            <Time>2018-12-30T12:52:00.000Z</Time>
            <Position>
              <LatitudeDegrees>40.77209251932799816131591796875</LatitudeDegrees>
              <LongitudeDegrees>-4.0825911797583103179931640625</LongitudeDegrees>
            </Position>
            <AltitudeMeters>1760.5999755859375</AltitudeMeters>
            <DistanceMeters>NAN</DistanceMeters>
          </Trackpoint>
          <Trackpoint>
            <Time>2018-12-30T12:52:01.000Z</Time>
            <Position>
              <LatitudeDegrees>40.77208799310028553009033203125</LatitudeDegrees>
              <LongitudeDegrees>-4.0825817920267581939697265625</LongitudeDegrees>
            </Position>
            <AltitudeMeters>1760.5999755859375</AltitudeMeters>
            <DistanceMeters>NAN</DistanceMeters>
          </Trackpoint>
          <Trackpoint>
            <Time>2018-12-30T12:52:02.000Z</Time>
            <Position>
              <LatitudeDegrees>40.77208698727190494537353515625</LatitudeDegrees>
              <LongitudeDegrees>-4.08257617615163326263427734375</LongitudeDegrees>
            </Position>
            <AltitudeMeters>1760.5999755859375</AltitudeMeters>
            <DistanceMeters>NAN</DistanceMeters>
          </Trackpoint>
          <Trackpoint>
            <Time>2018-12-30T12:52:03.000Z</Time>
            <Position>
              <LatitudeDegrees>40.7720837183296680450439453125</LatitudeDegrees>
              <LongitudeDegrees>-4.08257366158068180084228515625</LongitudeDegrees>
            </Position>
            <AltitudeMeters>1760.800048828125</AltitudeMeters>
            <DistanceMeters>NAN</DistanceMeters>
          </Trackpoint>
          <Trackpoint>
            <Time>2018-12-30T12:52:04.000Z</Time>
            <Position>
              <LatitudeDegrees>40.7720813713967800140380859375</LatitudeDegrees>
              <LongitudeDegrees>-4.0825729072093963623046875</LongitudeDegrees>
            </Position>
            <AltitudeMeters>1760.800048828125</AltitudeMeters>
            <DistanceMeters>NAN</DistanceMeters>
          </Trackpoint>
          <Trackpoint>
            <Time>2018-12-30T12:52:05.000Z</Time>
            <Position>
              <LatitudeDegrees>40.77208162285387516021728515625</LatitudeDegrees>
              <LongitudeDegrees>-4.0825707279145717620849609375</LongitudeDegrees>
            </Position>
            <AltitudeMeters>1761</AltitudeMeters>
            <DistanceMeters>NAN</DistanceMeters>
          </Trackpoint>
          <Trackpoint>
            <Time>2018-12-30T12:52:06.000Z</Time>
            <Position>
              <LatitudeDegrees>40.7720830477774143218994140625</LatitudeDegrees>
              <LongitudeDegrees>-4.08256863243877887725830078125</LongitudeDegrees>
            </Position>
            <AltitudeMeters>1761</AltitudeMeters>
            <DistanceMeters>NAN</DistanceMeters>
          </Trackpoint>
          <Trackpoint>
            <Time>2018-12-30T12:52:07.000Z</Time>
            <Position>
              <LatitudeDegrees>40.77208514325320720672607421875</LatitudeDegrees>
              <LongitudeDegrees>-4.0825670398771762847900390625</LongitudeDegrees>
            </Position>
            <AltitudeMeters>1761.199951171875</AltitudeMeters>
            <DistanceMeters>NAN</DistanceMeters>
          </Trackpoint>
          <Trackpoint>
            <Time>2018-12-30T12:52:08.000Z</Time>
            <Position>
              <LatitudeDegrees>40.77206368558108806610107421875</LatitudeDegrees>
              <LongitudeDegrees>-4.082547090947628021240234375</LongitudeDegrees>
            </Position>
            <AltitudeMeters>1761.199951171875</AltitudeMeters>
            <DistanceMeters>NAN</DistanceMeters>
          </Trackpoint>
          <Trackpoint>
            <Time>2018-12-30T12:52:09.000Z</Time>
            <Position>
              <LatitudeDegrees>40.7720609195530414581298828125</LatitudeDegrees>
              <LongitudeDegrees>-4.08254533074796199798583984375</LongitudeDegrees>
            </Position>
            <AltitudeMeters>1761.199951171875</AltitudeMeters>
            <DistanceMeters>NAN</DistanceMeters>
          </Trackpoint>
          <Trackpoint>
            <Time>2018-12-30T12:52:10.000Z</Time>
            <Position>
              <LatitudeDegrees>40.7720599137246608734130859375</LatitudeDegrees>
              <LongitudeDegrees>-4.0825449116528034210205078125</LongitudeDegrees>
            </Position>
            <AltitudeMeters>1761.199951171875</AltitudeMeters>
            <DistanceMeters>NAN</DistanceMeters>
          </Trackpoint>
          <Trackpoint>
            <Time>2018-12-30T12:52:11.000Z</Time>
            <Position>
              <LatitudeDegrees>40.7720595784485340118408203125</LatitudeDegrees>
              <LongitudeDegrees>-4.08254432491958141326904296875</LongitudeDegrees>
            </Position>
            <AltitudeMeters>1761.5999755859375</AltitudeMeters>
            <DistanceMeters>NAN</DistanceMeters>
          </Trackpoint>
          <Trackpoint>
            <Time>2018-12-30T12:52:12.000Z</Time>
            <Position>
              <LatitudeDegrees>40.77205966226756572723388671875</LatitudeDegrees>
              <LongitudeDegrees>-4.082543067634105682373046875</LongitudeDegrees>
            </Position>
            <AltitudeMeters>1761.800048828125</AltitudeMeters>
            <DistanceMeters>NAN</DistanceMeters>
          </Trackpoint>
          <Trackpoint>
            <Time>2018-12-30T12:52:13.000Z</Time>
            <Position>
              <LatitudeDegrees>40.7720592431724071502685546875</LatitudeDegrees>
              <LongitudeDegrees>-4.08254164271056652069091796875</LongitudeDegrees>
            </Position>
            <AltitudeMeters>1762</AltitudeMeters>
            <DistanceMeters>NAN</DistanceMeters>
          </Trackpoint>
          <Trackpoint>
            <Time>2018-12-30T12:52:14.000Z</Time>
            <Position>
              <LatitudeDegrees>40.772059746086597442626953125</LatitudeDegrees>
              <LongitudeDegrees>-4.08254139125347137451171875</LongitudeDegrees>
            </Position>
            <AltitudeMeters>1762.199951171875</AltitudeMeters>
            <DistanceMeters>NAN</DistanceMeters>
          </Trackpoint>
          <Trackpoint>
            <Time>2018-12-30T12:52:15.000Z</Time>
            <Position>
              <LatitudeDegrees>40.77205966226756572723388671875</LatitudeDegrees>
              <LongitudeDegrees>-4.08254264853894710540771484375</LongitudeDegrees>
            </Position>
            <AltitudeMeters>1762.4000244140625</AltitudeMeters>
            <DistanceMeters>NAN</DistanceMeters>
          </Trackpoint>
          <Trackpoint>
            <Time>2018-12-30T12:52:16.000Z</Time>
            <Position>
              <LatitudeDegrees>40.77205781824886798858642578125</LatitudeDegrees>
              <LongitudeDegrees>-4.082545749843120574951171875</LongitudeDegrees>
            </Position>
            <AltitudeMeters>1762.4000244140625</AltitudeMeters>
            <DistanceMeters>NAN</DistanceMeters>
          </Trackpoint>
          <Trackpoint>
            <Time>2018-12-30T12:52:17.000Z</Time>
            <Position>
              <LatitudeDegrees>40.77205396257340908050537109375</LatitudeDegrees>
              <LongitudeDegrees>-4.08255212008953094482421875</LongitudeDegrees>
            </Position>
            <AltitudeMeters>1762.4000244140625</AltitudeMeters>
            <DistanceMeters>NAN</DistanceMeters>
          </Trackpoint>
          <Trackpoint>
            <Time>2018-12-30T12:52:18.000Z</Time>
            <Position>
              <LatitudeDegrees>40.77204876579344272613525390625</LatitudeDegrees>
              <LongitudeDegrees>-4.08256016671657562255859375</LongitudeDegrees>
            </Position>
            <AltitudeMeters>1762.4000244140625</AltitudeMeters>
            <DistanceMeters>NAN</DistanceMeters>
          </Trackpoint>
          <Trackpoint>
            <Time>2018-12-30T12:52:19.000Z</Time>
            <Position>
              <LatitudeDegrees>40.77204206027090549468994140625</LatitudeDegrees>
              <LongitudeDegrees>-4.08256947062909603118896484375</LongitudeDegrees>
            </Position>
            <AltitudeMeters>1762.4000244140625</AltitudeMeters>
            <DistanceMeters>NAN</DistanceMeters>
          </Trackpoint>
          <Trackpoint>
            <Time>2018-12-30T12:52:20.000Z</Time>
            <Position>
              <LatitudeDegrees>40.77203334309160709381103515625</LatitudeDegrees>
              <LongitudeDegrees>-4.0825784392654895782470703125</LongitudeDegrees>
            </Position>
            <AltitudeMeters>1762</AltitudeMeters>
            <DistanceMeters>NAN</DistanceMeters>
          </Trackpoint>
          <Trackpoint>
            <Time>2018-12-30T12:52:21.000Z</Time>
            <Position>
              <LatitudeDegrees>40.77202412299811840057373046875</LatitudeDegrees>
              <LongitudeDegrees>-4.0825874917209148406982421875</LongitudeDegrees>
            </Position>
            <AltitudeMeters>1761.5999755859375</AltitudeMeters>
            <DistanceMeters>NAN</DistanceMeters>
          </Trackpoint>
          <Trackpoint>
            <Time>2018-12-30T12:52:22.000Z</Time>
            <Position>
              <LatitudeDegrees>40.77201582491397857666015625</LatitudeDegrees>
              <LongitudeDegrees>-4.08259545452892780303955078125</LongitudeDegrees>
            </Position>
            <AltitudeMeters>1761</AltitudeMeters>
            <DistanceMeters>NAN</DistanceMeters>
          </Trackpoint>
          <Trackpoint>
            <Time>2018-12-30T12:52:23.000Z</Time>
            <Position>
              <LatitudeDegrees>40.772007443010807037353515625</LatitudeDegrees>
              <LongitudeDegrees>-4.08260132186114788055419921875</LongitudeDegrees>
            </Position>
            <AltitudeMeters>1760.800048828125</AltitudeMeters>
            <DistanceMeters>NAN</DistanceMeters>
          </Trackpoint>
          <Trackpoint>
            <Time>2018-12-30T12:52:24.000Z</Time>
            <Position>
              <LatitudeDegrees>40.771997384727001190185546875</LatitudeDegrees>
              <LongitudeDegrees>-4.08260903321206569671630859375</LongitudeDegrees>
            </Position>
            <AltitudeMeters>1760.5999755859375</AltitudeMeters>
            <DistanceMeters>NAN</DistanceMeters>
          </Trackpoint>
          <Trackpoint>
            <Time>2018-12-30T12:52:25.000Z</Time>
            <Position>
              <LatitudeDegrees>40.77198766171932220458984375</LatitudeDegrees>
              <LongitudeDegrees>-4.08261540345847606658935546875</LongitudeDegrees>
            </Position>
            <AltitudeMeters>1760.4000244140625</AltitudeMeters>
            <DistanceMeters>NAN</DistanceMeters>
          </Trackpoint>
          <Trackpoint>
            <Time>2018-12-30T12:52:26.000Z</Time>
            <Position>
              <LatitudeDegrees>40.77197651378810405731201171875</LatitudeDegrees>
              <LongitudeDegrees>-4.0826226957142353057861328125</LongitudeDegrees>
            </Position>
            <AltitudeMeters>1760.199951171875</AltitudeMeters>
            <DistanceMeters>NAN</DistanceMeters>
          </Trackpoint>
          <Trackpoint>
            <Time>2018-12-30T12:52:27.000Z</Time>
            <Position>
              <LatitudeDegrees>40.771965868771076202392578125</LatitudeDegrees>
              <LongitudeDegrees>-4.082633592188358306884765625</LongitudeDegrees>
            </Position>
            <AltitudeMeters>1760.199951171875</AltitudeMeters>
            <DistanceMeters>NAN</DistanceMeters>
          </Trackpoint>
          <Trackpoint>
            <Time>2018-12-30T12:52:28.000Z</Time>
            <Position>
              <LatitudeDegrees>40.7719583250582218170166015625</LatitudeDegrees>
              <LongitudeDegrees>-4.08264356665313243865966796875</LongitudeDegrees>
            </Position>
            <AltitudeMeters>1760</AltitudeMeters>
            <DistanceMeters>NAN</DistanceMeters>
          </Trackpoint>
          <Trackpoint>
            <Time>2018-12-30T12:52:29.000Z</Time>
            <Position>
              <LatitudeDegrees>40.77194885350763797760009765625</LatitudeDegrees>
              <LongitudeDegrees>-4.0826522000133991241455078125</LongitudeDegrees>
            </Position>
            <AltitudeMeters>1760</AltitudeMeters>
            <DistanceMeters>NAN</DistanceMeters>
          </Trackpoint>
          <Trackpoint>
            <Time>2018-12-30T12:52:30.000Z</Time>
            <Position>
              <LatitudeDegrees>40.77194214798510074615478515625</LatitudeDegrees>
              <LongitudeDegrees>-4.08266552723944187164306640625</LongitudeDegrees>
            </Position>
            <AltitudeMeters>1759.800048828125</AltitudeMeters>
            <DistanceMeters>NAN</DistanceMeters>
          </Trackpoint>
          <Trackpoint>
            <Time>2018-12-30T12:52:31.000Z</Time>
            <Position>
              <LatitudeDegrees>40.77193141914904117584228515625</LatitudeDegrees>
              <LongitudeDegrees>-4.0826736576855182647705078125</LongitudeDegrees>
            </Position>
            <AltitudeMeters>1759.800048828125</AltitudeMeters>
            <DistanceMeters>NAN</DistanceMeters>
          </Trackpoint>
          <Trackpoint>
            <Time>2018-12-30T12:52:32.000Z</Time>
            <Position>
              <LatitudeDegrees>40.7719234563410282135009765625</LatitudeDegrees>
              <LongitudeDegrees>-4.08268229104578495025634765625</LongitudeDegrees>
            </Position>
            <AltitudeMeters>1759.800048828125</AltitudeMeters>
            <DistanceMeters>NAN</DistanceMeters>
          </Trackpoint>
          <Trackpoint>
            <Time>2018-12-30T12:52:33.000Z</Time>
            <Position>
              <LatitudeDegrees>40.7719160802662372589111328125</LatitudeDegrees>
              <LongitudeDegrees>-4.0826904214918613433837890625</LongitudeDegrees>
            </Position>
            <AltitudeMeters>1759.800048828125</AltitudeMeters>
            <DistanceMeters>NAN</DistanceMeters>
          </Trackpoint>
          <Trackpoint>
            <Time>2018-12-30T12:52:34.000Z</Time>
            <Position>
              <LatitudeDegrees>40.7719073630869388580322265625</LatitudeDegrees>
              <LongitudeDegrees>-4.08269888721406459808349609375</LongitudeDegrees>
            </Position>
            <AltitudeMeters>1759.800048828125</AltitudeMeters>
            <DistanceMeters>NAN</DistanceMeters>
          </Trackpoint>
          <Trackpoint>
            <Time>2018-12-30T12:52:35.000Z</Time>
            <Position>
              <LatitudeDegrees>40.7718959636986255645751953125</LatitudeDegrees>
              <LongitudeDegrees>-4.08270374871790409088134765625</LongitudeDegrees>
            </Position>
            <AltitudeMeters>1759.5999755859375</AltitudeMeters>
            <DistanceMeters>NAN</DistanceMeters>
          </Trackpoint>
          <Trackpoint>
            <Time>2018-12-30T12:52:36.000Z</Time>
            <Position>
              <LatitudeDegrees>40.77188146300613880157470703125</LatitudeDegrees>
              <LongitudeDegrees>-4.0827091969549655914306640625</LongitudeDegrees>
            </Position>
            <AltitudeMeters>1759.4000244140625</AltitudeMeters>
            <DistanceMeters>NAN</DistanceMeters>
          </Trackpoint>
          <Trackpoint>
            <Time>2018-12-30T12:52:37.000Z</Time>
            <Position>
              <LatitudeDegrees>40.7718711532652378082275390625</LatitudeDegrees>
              <LongitudeDegrees>-4.08272109925746917724609375</LongitudeDegrees>
            </Position>
            <AltitudeMeters>1759.199951171875</AltitudeMeters>
            <DistanceMeters>NAN</DistanceMeters>
          </Trackpoint>
          <Trackpoint>
            <Time>2018-12-30T12:52:38.000Z</Time>
            <Position>
              <LatitudeDegrees>40.77186201699078083038330078125</LatitudeDegrees>
              <LongitudeDegrees>-4.082726798951625823974609375</LongitudeDegrees>
            </Position>
            <AltitudeMeters>1759</AltitudeMeters>
            <DistanceMeters>NAN</DistanceMeters>
          </Trackpoint>
          <Trackpoint>
            <Time>2018-12-30T12:52:39.000Z</Time>
            <Position>
              <LatitudeDegrees>40.77185447327792644500732421875</LatitudeDegrees>
              <LongitudeDegrees>-4.08273518085479736328125</LongitudeDegrees>
            </Position>
            <AltitudeMeters>1758.800048828125</AltitudeMeters>
            <DistanceMeters>NAN</DistanceMeters>
          </Trackpoint>
          <Trackpoint>
            <Time>2018-12-30T12:52:40.000Z</Time>
            <Position>
              <LatitudeDegrees>40.7718408107757568359375</LatitudeDegrees>
              <LongitudeDegrees>-4.0827410481870174407958984375</LongitudeDegrees>
            </Position>
            <AltitudeMeters>1758.800048828125</AltitudeMeters>
            <DistanceMeters>NAN</DistanceMeters>
          </Trackpoint>
          <Trackpoint>
            <Time>2018-12-30T12:52:41.000Z</Time>
            <Position>
              <LatitudeDegrees>40.771834440529346466064453125</LatitudeDegrees>
              <LongitudeDegrees>-4.08274951390922069549560546875</LongitudeDegrees>
            </Position>
            <AltitudeMeters>1758.5999755859375</AltitudeMeters>
            <DistanceMeters>NAN</DistanceMeters>
          </Trackpoint>
          <Trackpoint>
            <Time>2018-12-30T12:52:42.000Z</Time>
            <Position>
              <LatitudeDegrees>40.77182530425488948822021484375</LatitudeDegrees>
              <LongitudeDegrees>-4.08275722526013851165771484375</LongitudeDegrees>
            </Position>
            <AltitudeMeters>1758.4000244140625</AltitudeMeters>
            <DistanceMeters>NAN</DistanceMeters>
          </Trackpoint>
          <Trackpoint>
            <Time>2018-12-30T12:52:43.000Z</Time>
            <Position>
              <LatitudeDegrees>40.771814994513988494873046875</LatitudeDegrees>
              <LongitudeDegrees>-4.08276493661105632781982421875</LongitudeDegrees>
            </Position>
            <AltitudeMeters>1758.4000244140625</AltitudeMeters>
            <DistanceMeters>NAN</DistanceMeters>
          </Trackpoint>
          <Trackpoint>
            <Time>2018-12-30T12:52:44.000Z</Time>
            <Position>
              <LatitudeDegrees>40.77180393040180206298828125</LatitudeDegrees>
              <LongitudeDegrees>-4.08277398906648159027099609375</LongitudeDegrees>
            </Position>
            <AltitudeMeters>1758.4000244140625</AltitudeMeters>
            <DistanceMeters>NAN</DistanceMeters>
          </Trackpoint>
          <Trackpoint>
            <Time>2018-12-30T12:52:45.000Z</Time>
            <Position>
              <LatitudeDegrees>40.771790854632854461669921875</LatitudeDegrees>
              <LongitudeDegrees>-4.0827829577028751373291015625</LongitudeDegrees>
            </Position>
            <AltitudeMeters>1758.199951171875</AltitudeMeters>
            <DistanceMeters>NAN</DistanceMeters>
          </Trackpoint>
          <Trackpoint>
            <Time>2018-12-30T12:52:46.000Z</Time>
            <Position>
              <LatitudeDegrees>40.77177819795906543731689453125</LatitudeDegrees>
              <LongitudeDegrees>-4.08279092051088809967041015625</LongitudeDegrees>
            </Position>
            <AltitudeMeters>1758.199951171875</AltitudeMeters>
            <DistanceMeters>NAN</DistanceMeters>
          </Trackpoint>
          <Trackpoint>
            <Time>2018-12-30T12:52:47.000Z</Time>
            <Position>
              <LatitudeDegrees>40.7717643678188323974609375</LatitudeDegrees>
              <LongitudeDegrees>-4.0827980451285839080810546875</LongitudeDegrees>
            </Position>
            <AltitudeMeters>1758.199951171875</AltitudeMeters>
            <DistanceMeters>NAN</DistanceMeters>
          </Trackpoint>
          <Trackpoint>
            <Time>2018-12-30T12:52:48.000Z</Time>
            <Position>
              <LatitudeDegrees>40.7717497833073139190673828125</LatitudeDegrees>
              <LongitudeDegrees>-4.08280600793659687042236328125</LongitudeDegrees>
            </Position>
            <AltitudeMeters>1758.199951171875</AltitudeMeters>
            <DistanceMeters>NAN</DistanceMeters>
          </Trackpoint>
          <Trackpoint>
            <Time>2018-12-30T12:52:49.000Z</Time>
            <Position>
              <LatitudeDegrees>40.7717333547770977020263671875</LatitudeDegrees>
              <LongitudeDegrees>-4.08281321637332439422607421875</LongitudeDegrees>
            </Position>
            <AltitudeMeters>1758</AltitudeMeters>
            <DistanceMeters>NAN</DistanceMeters>
          </Trackpoint>
          <Trackpoint>
            <Time>2018-12-30T12:52:50.000Z</Time>
            <Position>
              <LatitudeDegrees>40.7717196084558963775634765625</LatitudeDegrees>
              <LongitudeDegrees>-4.08282143063843250274658203125</LongitudeDegrees>
            </Position>
            <AltitudeMeters>1757.5999755859375</AltitudeMeters>
            <DistanceMeters>NAN</DistanceMeters>
          </Trackpoint>
          <Trackpoint>
            <Time>2018-12-30T12:52:51.000Z</Time>
            <Position>
              <LatitudeDegrees>40.77170510776340961456298828125</LatitudeDegrees>
              <LongitudeDegrees>-4.08282813616096973419189453125</LongitudeDegrees>
            </Position>
            <AltitudeMeters>1757.5999755859375</AltitudeMeters>
            <DistanceMeters>NAN</DistanceMeters>
          </Trackpoint>
          <Trackpoint>
            <Time>2018-12-30T12:52:52.000Z</Time>
            <Position>
              <LatitudeDegrees>40.771693289279937744140625</LatitudeDegrees>
              <LongitudeDegrees>-4.08283484168350696563720703125</LongitudeDegrees>
            </Position>
            <AltitudeMeters>1757.4000244140625</AltitudeMeters>
            <DistanceMeters>NAN</DistanceMeters>
          </Trackpoint>
          <Trackpoint>
            <Time>2018-12-30T12:52:53.000Z</Time>
            <Position>
              <LatitudeDegrees>40.77168264426290988922119140625</LatitudeDegrees>
              <LongitudeDegrees>-4.08284070901572704315185546875</LongitudeDegrees>
            </Position>
            <AltitudeMeters>1757.4000244140625</AltitudeMeters>
            <DistanceMeters>NAN</DistanceMeters>
          </Trackpoint>
          <Trackpoint>
            <Time>2018-12-30T12:52:54.000Z</Time>
            <Position>
              <LatitudeDegrees>40.77167308889329433441162109375</LatitudeDegrees>
              <LongitudeDegrees>-4.0828449837863445281982421875</LongitudeDegrees>
            </Position>
            <AltitudeMeters>1757.199951171875</AltitudeMeters>
            <DistanceMeters>NAN</DistanceMeters>
          </Trackpoint>
          <Trackpoint>
            <Time>2018-12-30T12:52:55.000Z</Time>
            <Position>
              <LatitudeDegrees>40.77166034840047359466552734375</LatitudeDegrees>
              <LongitudeDegrees>-4.08284741453826427459716796875</LongitudeDegrees>
            </Position>
            <AltitudeMeters>1757.199951171875</AltitudeMeters>
            <DistanceMeters>NAN</DistanceMeters>
          </Trackpoint>
          <Trackpoint>
            <Time>2018-12-30T12:52:56.000Z</Time>
            <Position>
              <LatitudeDegrees>40.771648027002811431884765625</LatitudeDegrees>
              <LongitudeDegrees>-4.0828480012714862823486328125</LongitudeDegrees>
            </Position>
            <AltitudeMeters>1757.199951171875</AltitudeMeters>
            <DistanceMeters>NAN</DistanceMeters>
          </Trackpoint>
          <Trackpoint>
            <Time>2018-12-30T12:52:57.000Z</Time>
            <Position>
              <LatitudeDegrees>40.77163838781416416168212890625</LatitudeDegrees>
              <LongitudeDegrees>-4.08285093493759632110595703125</LongitudeDegrees>
            </Position>
            <AltitudeMeters>1757</AltitudeMeters>
            <DistanceMeters>NAN</DistanceMeters>
          </Trackpoint>
          <Trackpoint>
            <Time>2018-12-30T12:52:58.000Z</Time>
            <Position>
              <LatitudeDegrees>40.771628580987453460693359375</LatitudeDegrees>
              <LongitudeDegrees>-4.0828530304133892059326171875</LongitudeDegrees>
            </Position>
            <AltitudeMeters>1757</AltitudeMeters>
            <DistanceMeters>NAN</DistanceMeters>
          </Trackpoint>
          <Trackpoint>
            <Time>2018-12-30T12:52:59.000Z</Time>
            <Position>
              <LatitudeDegrees>40.7716186903417110443115234375</LatitudeDegrees>
              <LongitudeDegrees>-4.08285696990787982940673828125</LongitudeDegrees>
            </Position>
            <AltitudeMeters>1757</AltitudeMeters>
            <DistanceMeters>NAN</DistanceMeters>
          </Trackpoint>
          <Trackpoint>
            <Time>2018-12-30T12:53:00.000Z</Time>
            <Position>
              <LatitudeDegrees>40.77161055989563465118408203125</LatitudeDegrees>
              <LongitudeDegrees>-4.08286459743976593017578125</LongitudeDegrees>
            </Position>
            <AltitudeMeters>1757</AltitudeMeters>
            <DistanceMeters>NAN</DistanceMeters>
          </Trackpoint>
          <Trackpoint>
            <Time>2018-12-30T12:53:01.000Z</Time>
            <Position>
              <LatitudeDegrees>40.77159832231700420379638671875</LatitudeDegrees>
              <LongitudeDegrees>-4.08287155441939830780029296875</LongitudeDegrees>
            </Position>
            <AltitudeMeters>1757</AltitudeMeters>
            <DistanceMeters>NAN</DistanceMeters>
          </Trackpoint>
          <Trackpoint>
            <Time>2018-12-30T12:53:02.000Z</Time>
            <Position>
              <LatitudeDegrees>40.77158541418612003326416015625</LatitudeDegrees>
              <LongitudeDegrees>-4.08288060687482357025146484375</LongitudeDegrees>
            </Position>
            <AltitudeMeters>1756.800048828125</AltitudeMeters>
            <DistanceMeters>NAN</DistanceMeters>
          </Trackpoint>
          <Trackpoint>
            <Time>2018-12-30T12:53:03.000Z</Time>
            <Position>
              <LatitudeDegrees>40.77157166786491870880126953125</LatitudeDegrees>
              <LongitudeDegrees>-4.0828878991305828094482421875</LongitudeDegrees>
            </Position>
            <AltitudeMeters>1756.800048828125</AltitudeMeters>
            <DistanceMeters>NAN</DistanceMeters>
          </Trackpoint>
          <Trackpoint>
            <Time>2018-12-30T12:53:04.000Z</Time>
            <Position>
              <LatitudeDegrees>40.7715616934001445770263671875</LatitudeDegrees>
              <LongitudeDegrees>-4.08290055580437183380126953125</LongitudeDegrees>
            </Position>
            <AltitudeMeters>1756.800048828125</AltitudeMeters>
            <DistanceMeters>NAN</DistanceMeters>
          </Trackpoint>
          <Trackpoint>
            <Time>2018-12-30T12:53:05.000Z</Time>
            <Position>
              <LatitudeDegrees>40.77155088074505329132080078125</LatitudeDegrees>
              <LongitudeDegrees>-4.08291555941104888916015625</LongitudeDegrees>
            </Position>
            <AltitudeMeters>1756.800048828125</AltitudeMeters>
            <DistanceMeters>NAN</DistanceMeters>
          </Trackpoint>
          <Trackpoint>
            <Time>2018-12-30T12:53:06.000Z</Time>
            <Position>
              <LatitudeDegrees>40.77153998427093029022216796875</LatitudeDegrees>
              <LongitudeDegrees>-4.082930646836757659912109375</LongitudeDegrees>
            </Position>
            <AltitudeMeters>1756.800048828125</AltitudeMeters>
            <DistanceMeters>NAN</DistanceMeters>
          </Trackpoint>
          <Trackpoint>
            <Time>2018-12-30T12:53:07.000Z</Time>
            <Position>
              <LatitudeDegrees>40.7715321891009807586669921875</LatitudeDegrees>
              <LongitudeDegrees>-4.08294481225311756134033203125</LongitudeDegrees>
            </Position>
            <AltitudeMeters>1756.5999755859375</AltitudeMeters>
            <DistanceMeters>NAN</DistanceMeters>
          </Trackpoint>
          <Trackpoint>
            <Time>2018-12-30T12:53:08.000Z</Time>
            <Position>
              <LatitudeDegrees>40.771523304283618927001953125</LatitudeDegrees>
              <LongitudeDegrees>-4.08295445144176483154296875</LongitudeDegrees>
            </Position>
            <AltitudeMeters>1756.5999755859375</AltitudeMeters>
            <DistanceMeters>NAN</DistanceMeters>
          </Trackpoint>
          <Trackpoint>
            <Time>2018-12-30T12:53:09.000Z</Time>
            <Position>
              <LatitudeDegrees>40.77151115052402019500732421875</LatitudeDegrees>
              <LongitudeDegrees>-4.08296593464910984039306640625</LongitudeDegrees>
            </Position>
            <AltitudeMeters>1756.5999755859375</AltitudeMeters>
            <DistanceMeters>NAN</DistanceMeters>
          </Trackpoint>
          <Trackpoint>
            <Time>2018-12-30T12:53:10.000Z</Time>
            <Position>
              <LatitudeDegrees>40.7715010084211826324462890625</LatitudeDegrees>
              <LongitudeDegrees>-4.08297565765678882598876953125</LongitudeDegrees>
            </Position>
            <AltitudeMeters>1756.5999755859375</AltitudeMeters>
            <DistanceMeters>NAN</DistanceMeters>
          </Trackpoint>
          <Trackpoint>
            <Time>2018-12-30T12:53:11.000Z</Time>
            <Position>
              <LatitudeDegrees>40.771494470536708831787109375</LatitudeDegrees>
              <LongitudeDegrees>-4.08298395574092864990234375</LongitudeDegrees>
            </Position>
            <AltitudeMeters>1756.5999755859375</AltitudeMeters>
            <DistanceMeters>NAN</DistanceMeters>
          </Trackpoint>
          <Trackpoint>
            <Time>2018-12-30T12:53:12.000Z</Time>
            <Position>
              <LatitudeDegrees>40.7714879326522350311279296875</LatitudeDegrees>
              <LongitudeDegrees>-4.08299242146313190460205078125</LongitudeDegrees>
            </Position>
            <AltitudeMeters>1756.5999755859375</AltitudeMeters>
            <DistanceMeters>NAN</DistanceMeters>
          </Trackpoint>
          <Trackpoint>
            <Time>2018-12-30T12:53:13.000Z</Time>
            <Position>
              <LatitudeDegrees>40.77148399315774440765380859375</LatitudeDegrees>
              <LongitudeDegrees>-4.0830008871853351593017578125</LongitudeDegrees>
            </Position>
            <AltitudeMeters>1756.5999755859375</AltitudeMeters>
            <DistanceMeters>NAN</DistanceMeters>
          </Trackpoint>
          <Trackpoint>
            <Time>2018-12-30T12:53:14.000Z</Time>
            <Position>
              <LatitudeDegrees>40.77147142030298709869384765625</LatitudeDegrees>
              <LongitudeDegrees>-4.0830062516033649444580078125</LongitudeDegrees>
            </Position>
            <AltitudeMeters>1756.800048828125</AltitudeMeters>
            <DistanceMeters>NAN</DistanceMeters>
          </Trackpoint>
          <Trackpoint>
            <Time>2018-12-30T12:53:15.000Z</Time>
            <Position>
              <LatitudeDegrees>40.77145926654338836669921875</LatitudeDegrees>
              <LongitudeDegrees>-4.083011448383331298828125</LongitudeDegrees>
            </Position>
            <AltitudeMeters>1757</AltitudeMeters>
            <DistanceMeters>NAN</DistanceMeters>
          </Trackpoint>
          <Trackpoint>
            <Time>2018-12-30T12:53:16.000Z</Time>
            <Position>
              <LatitudeDegrees>40.77144711278378963470458984375</LatitudeDegrees>
              <LongitudeDegrees>-4.0830189920961856842041015625</LongitudeDegrees>
            </Position>
            <AltitudeMeters>1757</AltitudeMeters>
            <DistanceMeters>NAN</DistanceMeters>
          </Trackpoint>
          <Trackpoint>
            <Time>2018-12-30T12:53:17.000Z</Time>
            <Position>
              <LatitudeDegrees>40.77143646776676177978515625</LatitudeDegrees>
              <LongitudeDegrees>-4.08303097821772098541259765625</LongitudeDegrees>
            </Position>
            <AltitudeMeters>1757</AltitudeMeters>
            <DistanceMeters>NAN</DistanceMeters>
          </Trackpoint>
          <Trackpoint>
            <Time>2018-12-30T12:53:18.000Z</Time>
            <Position>
              <LatitudeDegrees>40.77142305672168731689453125</LatitudeDegrees>
              <LongitudeDegrees>-4.083040617406368255615234375</LongitudeDegrees>
            </Position>
            <AltitudeMeters>1757</AltitudeMeters>
            <DistanceMeters>NAN</DistanceMeters>
          </Trackpoint>
          <Trackpoint>
            <Time>2018-12-30T12:53:19.000Z</Time>
            <Position>
              <LatitudeDegrees>40.77141174115240573883056640625</LatitudeDegrees>
              <LongitudeDegrees>-4.0830516815185546875</LongitudeDegrees>
            </Position>
            <AltitudeMeters>1757</AltitudeMeters>
            <DistanceMeters>NAN</DistanceMeters>
          </Trackpoint>
          <Trackpoint>
            <Time>2018-12-30T12:53:20.000Z</Time>
            <Position>
              <LatitudeDegrees>40.771400593221187591552734375</LatitudeDegrees>
              <LongitudeDegrees>-4.083065092563629150390625</LongitudeDegrees>
            </Position>
            <AltitudeMeters>1757</AltitudeMeters>
            <DistanceMeters>NAN</DistanceMeters>
          </Trackpoint>
          <Trackpoint>
            <Time>2018-12-30T12:53:21.000Z</Time>
            <Position>
              <LatitudeDegrees>40.7713836617767810821533203125</LatitudeDegrees>
              <LongitudeDegrees>-4.0830769948661327362060546875</LongitudeDegrees>
            </Position>
            <AltitudeMeters>1757</AltitudeMeters>
            <DistanceMeters>NAN</DistanceMeters>
          </Trackpoint>
          <Trackpoint>
            <Time>2018-12-30T12:53:22.000Z</Time>
            <Position>
              <LatitudeDegrees>40.77137611806392669677734375</LatitudeDegrees>
              <LongitudeDegrees>-4.08308596350252628326416015625</LongitudeDegrees>
            </Position>
            <AltitudeMeters>1757</AltitudeMeters>
            <DistanceMeters>NAN</DistanceMeters>
          </Trackpoint>
          <Trackpoint>
            <Time>2018-12-30T12:53:23.000Z</Time>
            <Position>
              <LatitudeDegrees>40.77135859988629817962646484375</LatitudeDegrees>
              <LongitudeDegrees>-4.08309484831988811492919921875</LongitudeDegrees>
            </Position>
            <AltitudeMeters>1756.800048828125</AltitudeMeters>
            <DistanceMeters>NAN</DistanceMeters>
          </Trackpoint>
          <Trackpoint>
            <Time>2018-12-30T12:53:24.000Z</Time>
            <Position>
              <LatitudeDegrees>40.771348290145397186279296875</LatitudeDegrees>
              <LongitudeDegrees>-4.08310323022305965423583984375</LongitudeDegrees>
            </Position>
            <AltitudeMeters>1756.5999755859375</AltitudeMeters>
            <DistanceMeters>NAN</DistanceMeters>
          </Trackpoint>
          <Trackpoint>
            <Time>2018-12-30T12:53:25.000Z</Time>
            <Position>
              <LatitudeDegrees>40.77133429236710071563720703125</LatitudeDegrees>
              <LongitudeDegrees>-4.0831098519265651702880859375</LongitudeDegrees>
            </Position>
            <AltitudeMeters>1756.4000244140625</AltitudeMeters>
            <DistanceMeters>NAN</DistanceMeters>
          </Trackpoint>
          <Trackpoint>
            <Time>2018-12-30T12:53:26.000Z</Time>
            <Position>
              <LatitudeDegrees>40.771320797502994537353515625</LatitudeDegrees>
              <LongitudeDegrees>-4.08311613835394382476806640625</LongitudeDegrees>
            </Position>
            <AltitudeMeters>1756.199951171875</AltitudeMeters>
            <DistanceMeters>NAN</DistanceMeters>
          </Trackpoint>
          <Trackpoint>
            <Time>2018-12-30T12:53:27.000Z</Time>
            <Position>
              <LatitudeDegrees>40.77130696736276149749755859375</LatitudeDegrees>
              <LongitudeDegrees>-4.08312619663774967193603515625</LongitudeDegrees>
            </Position>
            <AltitudeMeters>1756</AltitudeMeters>
            <DistanceMeters>NAN</DistanceMeters>
          </Trackpoint>
          <Trackpoint>
            <Time>2018-12-30T12:53:28.000Z</Time>
            <Position>
              <LatitudeDegrees>40.77129087410867214202880859375</LatitudeDegrees>
              <LongitudeDegrees>-4.08313776366412639617919921875</LongitudeDegrees>
            </Position>
            <AltitudeMeters>1756</AltitudeMeters>
            <DistanceMeters>NAN</DistanceMeters>
          </Trackpoint>
          <Trackpoint>
            <Time>2018-12-30T12:53:29.000Z</Time>
            <Position>
              <LatitudeDegrees>40.77127662487328052520751953125</LatitudeDegrees>
              <LongitudeDegrees>-4.08314513973891735076904296875</LongitudeDegrees>
            </Position>
            <AltitudeMeters>1755.800048828125</AltitudeMeters>
            <DistanceMeters>NAN</DistanceMeters>
          </Trackpoint>
          <Trackpoint>
            <Time>2018-12-30T12:53:30.000Z</Time>
            <Position>
              <LatitudeDegrees>40.77126572839915752410888671875</LatitudeDegrees>
              <LongitudeDegrees>-4.08315318636596202850341796875</LongitudeDegrees>
            </Position>
            <AltitudeMeters>1755.800048828125</AltitudeMeters>
            <DistanceMeters>NAN</DistanceMeters>
          </Trackpoint>
          <Trackpoint>
            <Time>2018-12-30T12:53:31.000Z</Time>
            <Position>
              <LatitudeDegrees>40.77125181443989276885986328125</LatitudeDegrees>
              <LongitudeDegrees>-4.083163999021053314208984375</LongitudeDegrees>
            </Position>
            <AltitudeMeters>1755.800048828125</AltitudeMeters>
            <DistanceMeters>NAN</DistanceMeters>
          </Trackpoint>
          <Trackpoint>
            <Time>2018-12-30T12:53:32.000Z</Time>
            <Position>
              <LatitudeDegrees>40.7712440192699432373046875</LatitudeDegrees>
              <LongitudeDegrees>-4.0831732191145420074462890625</LongitudeDegrees>
            </Position>
            <AltitudeMeters>1755.800048828125</AltitudeMeters>
            <DistanceMeters>NAN</DistanceMeters>
          </Trackpoint>
          <Trackpoint>
            <Time>2018-12-30T12:53:33.000Z</Time>
            <Position>
              <LatitudeDegrees>40.7712358050048351287841796875</LatitudeDegrees>
              <LongitudeDegrees>-4.08318151719868183135986328125</LongitudeDegrees>
            </Position>
            <AltitudeMeters>1755.800048828125</AltitudeMeters>
            <DistanceMeters>NAN</DistanceMeters>
          </Trackpoint>
          <Trackpoint>
            <Time>2018-12-30T12:53:34.000Z</Time>
            <Position>
              <LatitudeDegrees>40.77122348360717296600341796875</LatitudeDegrees>
              <LongitudeDegrees>-4.08318889327347278594970703125</LongitudeDegrees>
            </Position>
            <AltitudeMeters>1755.800048828125</AltitudeMeters>
            <DistanceMeters>NAN</DistanceMeters>
          </Trackpoint>
          <Trackpoint>
            <Time>2018-12-30T12:53:35.000Z</Time>
            <Position>
              <LatitudeDegrees>40.77120739035308361053466796875</LatitudeDegrees>
              <LongitudeDegrees>-4.08319274894893169403076171875</LongitudeDegrees>
            </Position>
            <AltitudeMeters>1755.800048828125</AltitudeMeters>
            <DistanceMeters>NAN</DistanceMeters>
          </Trackpoint>
          <Trackpoint>
            <Time>2018-12-30T12:53:36.000Z</Time>
            <Position>
              <LatitudeDegrees>40.77119372785091400146484375</LatitudeDegrees>
              <LongitudeDegrees>-4.08319861628115177154541015625</LongitudeDegrees>
            </Position>
            <AltitudeMeters>1755.800048828125</AltitudeMeters>
            <DistanceMeters>NAN</DistanceMeters>
          </Trackpoint>
          <Trackpoint>
            <Time>2018-12-30T12:53:37.000Z</Time>
            <Position>
              <LatitudeDegrees>40.77118299901485443115234375</LatitudeDegrees>
              <LongitudeDegrees>-4.0832064114511013031005859375</LongitudeDegrees>
            </Position>
            <AltitudeMeters>1755.800048828125</AltitudeMeters>
            <DistanceMeters>NAN</DistanceMeters>
          </Trackpoint>
          <Trackpoint>
            <Time>2018-12-30T12:53:38.000Z</Time>
            <Position>
              <LatitudeDegrees>40.77117302455008029937744140625</LatitudeDegrees>
              <LongitudeDegrees>-4.08321797847747802734375</LongitudeDegrees>
            </Position>
            <AltitudeMeters>1755.800048828125</AltitudeMeters>
            <DistanceMeters>NAN</DistanceMeters>
          </Trackpoint>
          <Trackpoint>
            <Time>2018-12-30T12:53:39.000Z</Time>
            <Position>
              <LatitudeDegrees>40.771163888275623321533203125</LatitudeDegrees>
              <LongitudeDegrees>-4.0832300484180450439453125</LongitudeDegrees>
            </Position>
            <AltitudeMeters>1755.800048828125</AltitudeMeters>
            <DistanceMeters>NAN</DistanceMeters>
          </Trackpoint>
          <Trackpoint>
            <Time>2018-12-30T12:53:40.000Z</Time>
            <Position>
              <LatitudeDegrees>40.771157182753086090087890625</LatitudeDegrees>
              <LongitudeDegrees>-4.0832449682056903839111328125</LongitudeDegrees>
            </Position>
            <AltitudeMeters>1755.800048828125</AltitudeMeters>
            <DistanceMeters>NAN</DistanceMeters>
          </Trackpoint>
          <Trackpoint>
            <Time>2018-12-30T12:53:41.000Z</Time>
            <Position>
              <LatitudeDegrees>40.7711496390402317047119140625</LatitudeDegrees>
              <LongitudeDegrees>-4.08325896598398685455322265625</LongitudeDegrees>
            </Position>
            <AltitudeMeters>1755.800048828125</AltitudeMeters>
            <DistanceMeters>NAN</DistanceMeters>
          </Trackpoint>
          <Trackpoint>
            <Time>2018-12-30T12:53:42.000Z</Time>
            <Position>
              <LatitudeDegrees>40.7711419276893138885498046875</LatitudeDegrees>
              <LongitudeDegrees>-4.08327489160001277923583984375</LongitudeDegrees>
            </Position>
            <AltitudeMeters>1756</AltitudeMeters>
            <DistanceMeters>NAN</DistanceMeters>
          </Trackpoint>
          <Trackpoint>
            <Time>2018-12-30T12:53:43.000Z</Time>
            <Position>
              <LatitudeDegrees>40.77113580889999866485595703125</LatitudeDegrees>
              <LongitudeDegrees>-4.0832902304828166961669921875</LongitudeDegrees>
            </Position>
            <AltitudeMeters>1756.199951171875</AltitudeMeters>
            <DistanceMeters>NAN</DistanceMeters>
          </Trackpoint>
          <Trackpoint>
            <Time>2018-12-30T12:53:44.000Z</Time>
            <Position>
              <LatitudeDegrees>40.77112692408263683319091796875</LatitudeDegrees>
              <LongitudeDegrees>-4.083302132785320281982421875</LongitudeDegrees>
            </Position>
            <AltitudeMeters>1756.4000244140625</AltitudeMeters>
            <DistanceMeters>NAN</DistanceMeters>
          </Trackpoint>
          <Trackpoint>
            <Time>2018-12-30T12:53:45.000Z</Time>
            <Position>
              <LatitudeDegrees>40.77111284248530864715576171875</LatitudeDegrees>
              <LongitudeDegrees>-4.0833105146884918212890625</LongitudeDegrees>
            </Position>
            <AltitudeMeters>1756.4000244140625</AltitudeMeters>
            <DistanceMeters>NAN</DistanceMeters>
          </Trackpoint>
          <Trackpoint>
            <Time>2018-12-30T12:53:46.000Z</Time>
            <Position>
              <LatitudeDegrees>40.77109985053539276123046875</LatitudeDegrees>
              <LongitudeDegrees>-4.0833193995058536529541015625</LongitudeDegrees>
            </Position>
            <AltitudeMeters>1756.4000244140625</AltitudeMeters>
            <DistanceMeters>NAN</DistanceMeters>
          </Trackpoint>
          <Trackpoint>
            <Time>2018-12-30T12:53:47.000Z</Time>
            <Position>
              <LatitudeDegrees>40.77108836732804775238037109375</LatitudeDegrees>
              <LongitudeDegrees>-4.08332727849483489990234375</LongitudeDegrees>
            </Position>
            <AltitudeMeters>1756.199951171875</AltitudeMeters>
            <DistanceMeters>NAN</DistanceMeters>
          </Trackpoint>
          <Trackpoint>
            <Time>2018-12-30T12:53:48.000Z</Time>
            <Position>
              <LatitudeDegrees>40.77107428573071956634521484375</LatitudeDegrees>
              <LongitudeDegrees>-4.0833331458270549774169921875</LongitudeDegrees>
            </Position>
            <AltitudeMeters>1756</AltitudeMeters>
            <DistanceMeters>NAN</DistanceMeters>
          </Trackpoint>
          <Trackpoint>
            <Time>2018-12-30T12:53:49.000Z</Time>
            <Position>
              <LatitudeDegrees>40.77106238342821598052978515625</LatitudeDegrees>
              <LongitudeDegrees>-4.083341024816036224365234375</LongitudeDegrees>
            </Position>
            <AltitudeMeters>1755.800048828125</AltitudeMeters>
            <DistanceMeters>NAN</DistanceMeters>
          </Trackpoint>
          <Trackpoint>
            <Time>2018-12-30T12:53:50.000Z</Time>
            <Position>
              <LatitudeDegrees>40.7710500620305538177490234375</LatitudeDegrees>
              <LongitudeDegrees>-4.0833509154617786407470703125</LongitudeDegrees>
            </Position>
            <AltitudeMeters>1755.5999755859375</AltitudeMeters>
            <DistanceMeters>NAN</DistanceMeters>
          </Trackpoint>
          <Trackpoint>
            <Time>2018-12-30T12:53:51.000Z</Time>
            <Position>
              <LatitudeDegrees>40.77103690244257450103759765625</LatitudeDegrees>
              <LongitudeDegrees>-4.0833582915365695953369140625</LongitudeDegrees>
            </Position>
            <AltitudeMeters>1755.5999755859375</AltitudeMeters>
            <DistanceMeters>NAN</DistanceMeters>
          </Trackpoint>
          <Trackpoint>
            <Time>2018-12-30T12:53:52.000Z</Time>
            <Position>
              <LatitudeDegrees>40.77102382667362689971923828125</LatitudeDegrees>
              <LongitudeDegrees>-4.08336625434458255767822265625</LongitudeDegrees>
            </Position>
            <AltitudeMeters>1755.4000244140625</AltitudeMeters>
            <DistanceMeters>NAN</DistanceMeters>
          </Trackpoint>
          <Trackpoint>
            <Time>2018-12-30T12:53:53.000Z</Time>
            <Position>
              <LatitudeDegrees>40.7710133492946624755859375</LatitudeDegrees>
              <LongitudeDegrees>-4.08337262459099292755126953125</LongitudeDegrees>
            </Position>
            <AltitudeMeters>1755.4000244140625</AltitudeMeters>
            <DistanceMeters>NAN</DistanceMeters>
          </Trackpoint>
          <Trackpoint>
            <Time>2018-12-30T12:53:54.000Z</Time>
            <Position>
              <LatitudeDegrees>40.7710041292011737823486328125</LatitudeDegrees>
              <LongitudeDegrees>-4.08338184468448162078857421875</LongitudeDegrees>
            </Position>
            <AltitudeMeters>1755.4000244140625</AltitudeMeters>
            <DistanceMeters>NAN</DistanceMeters>
          </Trackpoint>
          <Trackpoint>
            <Time>2018-12-30T12:53:55.000Z</Time>
            <Position>
              <LatitudeDegrees>40.77099599875509738922119140625</LatitudeDegrees>
              <LongitudeDegrees>-4.0833998657763004302978515625</LongitudeDegrees>
            </Position>
            <AltitudeMeters>1755.4000244140625</AltitudeMeters>
            <DistanceMeters>NAN</DistanceMeters>
          </Trackpoint>
          <Trackpoint>
            <Time>2018-12-30T12:53:56.000Z</Time>
            <Position>
              <LatitudeDegrees>40.77098853886127471923828125</LatitudeDegrees>
              <LongitudeDegrees>-4.08341386355459690093994140625</LongitudeDegrees>
            </Position>
            <AltitudeMeters>1755.5999755859375</AltitudeMeters>
            <DistanceMeters>NAN</DistanceMeters>
          </Trackpoint>
          <Trackpoint>
            <Time>2018-12-30T12:53:57.000Z</Time>
            <Position>
              <LatitudeDegrees>40.77098225243389606475830078125</LatitudeDegrees>
              <LongitudeDegrees>-4.083426184952259063720703125</LongitudeDegrees>
            </Position>
            <AltitudeMeters>1756.199951171875</AltitudeMeters>
            <DistanceMeters>NAN</DistanceMeters>
          </Trackpoint>
          <Trackpoint>
            <Time>2018-12-30T12:53:58.000Z</Time>
            <Position>
              <LatitudeDegrees>40.77097454108297824859619140625</LatitudeDegrees>
              <LongitudeDegrees>-4.08343934454023838043212890625</LongitudeDegrees>
            </Position>
            <AltitudeMeters>1756.4000244140625</AltitudeMeters>
            <DistanceMeters>NAN</DistanceMeters>
          </Trackpoint>
          <Trackpoint>
            <Time>2018-12-30T12:53:59.000Z</Time>
            <Position>
              <LatitudeDegrees>40.77096867375075817108154296875</LatitudeDegrees>
              <LongitudeDegrees>-4.0834501571953296661376953125</LongitudeDegrees>
            </Position>
            <AltitudeMeters>1756.5999755859375</AltitudeMeters>
            <DistanceMeters>NAN</DistanceMeters>
          </Trackpoint>
          <Trackpoint>
            <Time>2018-12-30T12:54:00.000Z</Time>
            <Position>
              <LatitudeDegrees>40.7709595374763011932373046875</LatitudeDegrees>
              <LongitudeDegrees>-4.08345862291753292083740234375</LongitudeDegrees>
            </Position>
            <AltitudeMeters>1756.5999755859375</AltitudeMeters>
            <DistanceMeters>NAN</DistanceMeters>
          </Trackpoint>
          <Trackpoint>
            <Time>2018-12-30T12:54:01.000Z</Time>
            <Position>
              <LatitudeDegrees>40.77094822190701961517333984375</LatitudeDegrees>
              <LongitudeDegrees>-4.08346750773489475250244140625</LongitudeDegrees>
            </Position>
            <AltitudeMeters>1756.4000244140625</AltitudeMeters>
            <DistanceMeters>NAN</DistanceMeters>
          </Trackpoint>
          <Trackpoint>
            <Time>2018-12-30T12:54:02.000Z</Time>
            <Position>
              <LatitudeDegrees>40.77093816362321376800537109375</LatitudeDegrees>
              <LongitudeDegrees>-4.0834816731512546539306640625</LongitudeDegrees>
            </Position>
            <AltitudeMeters>1756.4000244140625</AltitudeMeters>
            <DistanceMeters>NAN</DistanceMeters>
          </Trackpoint>
          <Trackpoint>
            <Time>2018-12-30T12:54:03.000Z</Time>
            <Position>
              <LatitudeDegrees>40.7709296979010105133056640625</LatitudeDegrees>
              <LongitudeDegrees>-4.08349759876728057861328125</LongitudeDegrees>
            </Position>
            <AltitudeMeters>1756.199951171875</AltitudeMeters>
            <DistanceMeters>NAN</DistanceMeters>
          </Trackpoint>
          <Trackpoint>
            <Time>2018-12-30T12:54:04.000Z</Time>
            <Position>
              <LatitudeDegrees>40.770920477807521820068359375</LatitudeDegrees>
              <LongitudeDegrees>-4.08351360820233821868896484375</LongitudeDegrees>
            </Position>
            <AltitudeMeters>1756</AltitudeMeters>
            <DistanceMeters>NAN</DistanceMeters>
          </Trackpoint>
          <Trackpoint>
            <Time>2018-12-30T12:54:05.000Z</Time>
            <Position>
              <LatitudeDegrees>40.7709115929901599884033203125</LatitudeDegrees>
              <LongitudeDegrees>-4.083528108894824981689453125</LongitudeDegrees>
            </Position>
            <AltitudeMeters>1755.800048828125</AltitudeMeters>
            <DistanceMeters>NAN</DistanceMeters>
          </Trackpoint>
          <Trackpoint>
            <Time>2018-12-30T12:54:06.000Z</Time>
            <Position>
              <LatitudeDegrees>40.770901702344417572021484375</LatitudeDegrees>
              <LongitudeDegrees>-4.08354026265442371368408203125</LongitudeDegrees>
            </Position>
            <AltitudeMeters>1755.800048828125</AltitudeMeters>
            <DistanceMeters>NAN</DistanceMeters>
          </Trackpoint>
          <Trackpoint>
            <Time>2018-12-30T12:54:07.000Z</Time>
            <Position>
              <LatitudeDegrees>40.77089373953640460968017578125</LatitudeDegrees>
              <LongitudeDegrees>-4.0835537575185298919677734375</LongitudeDegrees>
            </Position>
            <AltitudeMeters>1755.800048828125</AltitudeMeters>
            <DistanceMeters>NAN</DistanceMeters>
          </Trackpoint>
          <Trackpoint>
            <Time>2018-12-30T12:54:08.000Z</Time>
            <Position>
              <LatitudeDegrees>40.7708851061761379241943359375</LatitudeDegrees>
              <LongitudeDegrees>-4.08356674946844577789306640625</LongitudeDegrees>
            </Position>
            <AltitudeMeters>1756</AltitudeMeters>
            <DistanceMeters>NAN</DistanceMeters>
          </Trackpoint>
          <Trackpoint>
            <Time>2018-12-30T12:54:09.000Z</Time>
            <Position>
              <LatitudeDegrees>40.77087680809199810028076171875</LatitudeDegrees>
              <LongitudeDegrees>-4.08357999287545680999755859375</LongitudeDegrees>
            </Position>
            <AltitudeMeters>1755.800048828125</AltitudeMeters>
            <DistanceMeters>NAN</DistanceMeters>
          </Trackpoint>
          <Trackpoint>
            <Time>2018-12-30T12:54:10.000Z</Time>
            <Position>
              <LatitudeDegrees>40.7708686776459217071533203125</LatitudeDegrees>
              <LongitudeDegrees>-4.08359189517796039581298828125</LongitudeDegrees>
            </Position>
            <AltitudeMeters>1756</AltitudeMeters>
            <DistanceMeters>NAN</DistanceMeters>
          </Trackpoint>
          <Trackpoint>
            <Time>2018-12-30T12:54:11.000Z</Time>
            <Position>
              <LatitudeDegrees>40.77086188830435276031494140625</LatitudeDegrees>
              <LongitudeDegrees>-4.08360564149916172027587890625</LongitudeDegrees>
            </Position>
            <AltitudeMeters>1756</AltitudeMeters>
            <DistanceMeters>NAN</DistanceMeters>
          </Trackpoint>
          <Trackpoint>
            <Time>2018-12-30T12:54:12.000Z</Time>
            <Position>
              <LatitudeDegrees>40.770852081477642059326171875</LatitudeDegrees>
              <LongitudeDegrees>-4.083615951240062713623046875</LongitudeDegrees>
            </Position>
            <AltitudeMeters>1756</AltitudeMeters>
            <DistanceMeters>NAN</DistanceMeters>
          </Trackpoint>
          <Trackpoint>
            <Time>2018-12-30T12:54:13.000Z</Time>
            <Position>
              <LatitudeDegrees>40.77084411866962909698486328125</LatitudeDegrees>
              <LongitudeDegrees>-4.08362768590450286865234375</LongitudeDegrees>
            </Position>
            <AltitudeMeters>1756</AltitudeMeters>
            <DistanceMeters>NAN</DistanceMeters>
          </Trackpoint>
          <Trackpoint>
            <Time>2018-12-30T12:54:14.000Z</Time>
            <Position>
              <LatitudeDegrees>40.77083556912839412689208984375</LatitudeDegrees>
              <LongitudeDegrees>-4.0836377441883087158203125</LongitudeDegrees>
            </Position>
            <AltitudeMeters>1756</AltitudeMeters>
            <DistanceMeters>NAN</DistanceMeters>
          </Trackpoint>
          <Trackpoint>
            <Time>2018-12-30T12:54:15.000Z</Time>
            <Position>
              <LatitudeDegrees>40.77082869596779346466064453125</LatitudeDegrees>
              <LongitudeDegrees>-4.0836503170430660247802734375</LongitudeDegrees>
            </Position>
            <AltitudeMeters>1756</AltitudeMeters>
            <DistanceMeters>NAN</DistanceMeters>
          </Trackpoint>
          <Trackpoint>
            <Time>2018-12-30T12:54:16.000Z</Time>
            <Position>
              <LatitudeDegrees>40.7708207331597805023193359375</LatitudeDegrees>
              <LongitudeDegrees>-4.083662219345569610595703125</LongitudeDegrees>
            </Position>
            <AltitudeMeters>1756</AltitudeMeters>
            <DistanceMeters>NAN</DistanceMeters>
          </Trackpoint>
          <Trackpoint>
            <Time>2018-12-30T12:54:17.000Z</Time>
            <Position>
              <LatitudeDegrees>40.7708126865327358245849609375</LatitudeDegrees>
              <LongitudeDegrees>-4.0836757980287075042724609375</LongitudeDegrees>
            </Position>
            <AltitudeMeters>1756</AltitudeMeters>
            <DistanceMeters>NAN</DistanceMeters>
          </Trackpoint>
          <Trackpoint>
            <Time>2018-12-30T12:54:18.000Z</Time>
            <Position>
              <LatitudeDegrees>40.77080723829567432403564453125</LatitudeDegrees>
              <LongitudeDegrees>-4.08369247801601886749267578125</LongitudeDegrees>
            </Position>
            <AltitudeMeters>1755.800048828125</AltitudeMeters>
            <DistanceMeters>NAN</DistanceMeters>
          </Trackpoint>
          <Trackpoint>
            <Time>2018-12-30T12:54:19.000Z</Time>
            <Position>
              <LatitudeDegrees>40.77080053277313709259033203125</LatitudeDegrees>
              <LongitudeDegrees>-4.08371075056493282318115234375</LongitudeDegrees>
            </Position>
            <AltitudeMeters>1755.800048828125</AltitudeMeters>
            <DistanceMeters>NAN</DistanceMeters>
          </Trackpoint>
          <Trackpoint>
            <Time>2018-12-30T12:54:20.000Z</Time>
            <Position>
              <LatitudeDegrees>40.77078913338482379913330078125</LatitudeDegrees>
              <LongitudeDegrees>-4.08372265286743640899658203125</LongitudeDegrees>
            </Position>
            <AltitudeMeters>1755.800048828125</AltitudeMeters>
            <DistanceMeters>NAN</DistanceMeters>
          </Trackpoint>
          <Trackpoint>
            <Time>2018-12-30T12:54:21.000Z</Time>
            <Position>
              <LatitudeDegrees>40.77077932655811309814453125</LatitudeDegrees>
              <LongitudeDegrees>-4.08373556099832057952880859375</LongitudeDegrees>
            </Position>
            <AltitudeMeters>1755.5999755859375</AltitudeMeters>
            <DistanceMeters>NAN</DistanceMeters>
          </Trackpoint>
          <Trackpoint>
            <Time>2018-12-30T12:54:22.000Z</Time>
            <Position>
              <LatitudeDegrees>40.7707679271697998046875</LatitudeDegrees>
              <LongitudeDegrees>-4.0837445296347141265869140625</LongitudeDegrees>
            </Position>
            <AltitudeMeters>1755.5999755859375</AltitudeMeters>
            <DistanceMeters>NAN</DistanceMeters>
          </Trackpoint>
          <Trackpoint>
            <Time>2018-12-30T12:54:23.000Z</Time>
            <Position>
              <LatitudeDegrees>40.77075661160051822662353515625</LatitudeDegrees>
              <LongitudeDegrees>-4.0837525762617588043212890625</LongitudeDegrees>
            </Position>
            <AltitudeMeters>1755.5999755859375</AltitudeMeters>
            <DistanceMeters>NAN</DistanceMeters>
          </Trackpoint>
          <Trackpoint>
            <Time>2018-12-30T12:54:24.000Z</Time>
            <Position>
              <LatitudeDegrees>40.77074672095477581024169921875</LatitudeDegrees>
              <LongitudeDegrees>-4.0837612934410572052001953125</LongitudeDegrees>
            </Position>
            <AltitudeMeters>1755.5999755859375</AltitudeMeters>
            <DistanceMeters>NAN</DistanceMeters>
          </Trackpoint>
          <Trackpoint>
            <Time>2018-12-30T12:54:25.000Z</Time>
            <Position>
              <LatitudeDegrees>40.77073431573808193206787109375</LatitudeDegrees>
              <LongitudeDegrees>-4.08377260901033878326416015625</LongitudeDegrees>
            </Position>
            <AltitudeMeters>1755.5999755859375</AltitudeMeters>
            <DistanceMeters>NAN</DistanceMeters>
          </Trackpoint>
          <Trackpoint>
            <Time>2018-12-30T12:54:26.000Z</Time>
            <Position>
              <LatitudeDegrees>40.77072073705494403839111328125</LatitudeDegrees>
              <LongitudeDegrees>-4.083783924579620361328125</LongitudeDegrees>
            </Position>
            <AltitudeMeters>1755.5999755859375</AltitudeMeters>
            <DistanceMeters>NAN</DistanceMeters>
          </Trackpoint>
          <Trackpoint>
            <Time>2018-12-30T12:54:27.000Z</Time>
            <Position>
              <LatitudeDegrees>40.77071134932339191436767578125</LatitudeDegrees>
              <LongitudeDegrees>-4.083794653415679931640625</LongitudeDegrees>
            </Position>
            <AltitudeMeters>1756</AltitudeMeters>
            <DistanceMeters>NAN</DistanceMeters>
          </Trackpoint>
          <Trackpoint>
            <Time>2018-12-30T12:54:28.000Z</Time>
            <Position>
              <LatitudeDegrees>40.77070011757314205169677734375</LatitudeDegrees>
              <LongitudeDegrees>-4.0838013589382171630859375</LongitudeDegrees>
            </Position>
            <AltitudeMeters>1756.4000244140625</AltitudeMeters>
            <DistanceMeters>NAN</DistanceMeters>
          </Trackpoint>
          <Trackpoint>
            <Time>2018-12-30T12:54:29.000Z</Time>
            <Position>
              <LatitudeDegrees>40.77068905346095561981201171875</LatitudeDegrees>
              <LongitudeDegrees>-4.08380932174623012542724609375</LongitudeDegrees>
            </Position>
            <AltitudeMeters>1756.5999755859375</AltitudeMeters>
            <DistanceMeters>NAN</DistanceMeters>
          </Trackpoint>
          <Trackpoint>
            <Time>2018-12-30T12:54:30.000Z</Time>
            <Position>
              <LatitudeDegrees>40.77067614533007144927978515625</LatitudeDegrees>
              <LongitudeDegrees>-4.0838166140019893646240234375</LongitudeDegrees>
            </Position>
            <AltitudeMeters>1757.199951171875</AltitudeMeters>
            <DistanceMeters>NAN</DistanceMeters>
          </Trackpoint>
          <Trackpoint>
            <Time>2018-12-30T12:54:31.000Z</Time>
            <Position>
              <LatitudeDegrees>40.77066306956112384796142578125</LatitudeDegrees>
              <LongitudeDegrees>-4.083821810781955718994140625</LongitudeDegrees>
            </Position>
            <AltitudeMeters>1757.4000244140625</AltitudeMeters>
            <DistanceMeters>NAN</DistanceMeters>
          </Trackpoint>
          <Trackpoint>
            <Time>2018-12-30T12:54:32.000Z</Time>
            <Position>
              <LatitudeDegrees>40.7706530950963497161865234375</LatitudeDegrees>
              <LongitudeDegrees>-4.0838300250470638275146484375</LongitudeDegrees>
            </Position>
            <AltitudeMeters>1757.5999755859375</AltitudeMeters>
            <DistanceMeters>NAN</DistanceMeters>
          </Trackpoint>
          <Trackpoint>
            <Time>2018-12-30T12:54:33.000Z</Time>
            <Position>
              <LatitudeDegrees>40.77064454555511474609375</LatitudeDegrees>
              <LongitudeDegrees>-4.0838414244353771209716796875</LongitudeDegrees>
            </Position>
            <AltitudeMeters>1757.5999755859375</AltitudeMeters>
            <DistanceMeters>NAN</DistanceMeters>
          </Trackpoint>
          <Trackpoint>
            <Time>2018-12-30T12:54:34.000Z</Time>
            <Position>
              <LatitudeDegrees>40.77063339762389659881591796875</LatitudeDegrees>
              <LongitudeDegrees>-4.083851315081119537353515625</LongitudeDegrees>
            </Position>
            <AltitudeMeters>1757.5999755859375</AltitudeMeters>
            <DistanceMeters>NAN</DistanceMeters>
          </Trackpoint>
          <Trackpoint>
            <Time>2018-12-30T12:54:35.000Z</Time>
            <Position>
              <LatitudeDegrees>40.7706222496926784515380859375</LatitudeDegrees>
              <LongitudeDegrees>-4.0838672406971454620361328125</LongitudeDegrees>
            </Position>
            <AltitudeMeters>1757.5999755859375</AltitudeMeters>
            <DistanceMeters>NAN</DistanceMeters>
          </Trackpoint>
          <Trackpoint>
            <Time>2018-12-30T12:54:36.000Z</Time>
            <Position>
              <LatitudeDegrees>40.77061110176146030426025390625</LatitudeDegrees>
              <LongitudeDegrees>-4.08388123847544193267822265625</LongitudeDegrees>
            </Position>
            <AltitudeMeters>1757.199951171875</AltitudeMeters>
            <DistanceMeters>NAN</DistanceMeters>
          </Trackpoint>
          <Trackpoint>
            <Time>2018-12-30T12:54:37.000Z</Time>
            <Position>
              <LatitudeDegrees>40.77060523442924022674560546875</LatitudeDegrees>
              <LongitudeDegrees>-4.08389515243470668792724609375</LongitudeDegrees>
            </Position>
            <AltitudeMeters>1757</AltitudeMeters>
            <DistanceMeters>NAN</DistanceMeters>
          </Trackpoint>
          <Trackpoint>
            <Time>2018-12-30T12:54:38.000Z</Time>
            <Position>
              <LatitudeDegrees>40.7705964334309101104736328125</LatitudeDegrees>
              <LongitudeDegrees>-4.0839074738323688507080078125</LongitudeDegrees>
            </Position>
            <AltitudeMeters>1756.800048828125</AltitudeMeters>
            <DistanceMeters>NAN</DistanceMeters>
          </Trackpoint>
          <Trackpoint>
            <Time>2018-12-30T12:54:39.000Z</Time>
            <Position>
              <LatitudeDegrees>40.7705868780612945556640625</LatitudeDegrees>
              <LongitudeDegrees>-4.08391912467777729034423828125</LongitudeDegrees>
            </Position>
            <AltitudeMeters>1756.800048828125</AltitudeMeters>
            <DistanceMeters>NAN</DistanceMeters>
          </Trackpoint>
          <Trackpoint>
            <Time>2018-12-30T12:54:40.000Z</Time>
            <Position>
              <LatitudeDegrees>40.770577825605869293212890625</LatitudeDegrees>
              <LongitudeDegrees>-4.0839327871799468994140625</LongitudeDegrees>
            </Position>
            <AltitudeMeters>1756.800048828125</AltitudeMeters>
            <DistanceMeters>NAN</DistanceMeters>
          </Trackpoint>
          <Trackpoint>
            <Time>2018-12-30T12:54:41.000Z</Time>
            <Position>
              <LatitudeDegrees>40.77056743204593658447265625</LatitudeDegrees>
              <LongitudeDegrees>-4.08394896425306797027587890625</LongitudeDegrees>
            </Position>
            <AltitudeMeters>1756.5999755859375</AltitudeMeters>
            <DistanceMeters>NAN</DistanceMeters>
          </Trackpoint>
          <Trackpoint>
            <Time>2018-12-30T12:54:42.000Z</Time>
            <Position>
              <LatitudeDegrees>40.77055913396179676055908203125</LatitudeDegrees>
              <LongitudeDegrees>-4.08396572805941104888916015625</LongitudeDegrees>
            </Position>
            <AltitudeMeters>1756.5999755859375</AltitudeMeters>
            <DistanceMeters>NAN</DistanceMeters>
          </Trackpoint>
          <Trackpoint>
            <Time>2018-12-30T12:54:43.000Z</Time>
            <Position>
              <LatitudeDegrees>40.7705521769821643829345703125</LatitudeDegrees>
              <LongitudeDegrees>-4.083984754979610443115234375</LongitudeDegrees>
            </Position>
            <AltitudeMeters>1756.5999755859375</AltitudeMeters>
            <DistanceMeters>NAN</DistanceMeters>
          </Trackpoint>
          <Trackpoint>
            <Time>2018-12-30T12:54:44.000Z</Time>
            <Position>
              <LatitudeDegrees>40.7705444656312465667724609375</LatitudeDegrees>
              <LongitudeDegrees>-4.08399942331016063690185546875</LongitudeDegrees>
            </Position>
            <AltitudeMeters>1756.5999755859375</AltitudeMeters>
            <DistanceMeters>NAN</DistanceMeters>
          </Trackpoint>
          <Trackpoint>
            <Time>2018-12-30T12:54:45.000Z</Time>
            <Position>
              <LatitudeDegrees>40.7705347426235675811767578125</LatitudeDegrees>
              <LongitudeDegrees>-4.08401316963136196136474609375</LongitudeDegrees>
            </Position>
            <AltitudeMeters>1756.800048828125</AltitudeMeters>
            <DistanceMeters>NAN</DistanceMeters>
          </Trackpoint>
          <Trackpoint>
            <Time>2018-12-30T12:54:46.000Z</Time>
            <Position>
              <LatitudeDegrees>40.7705233432352542877197265625</LatitudeDegrees>
              <LongitudeDegrees>-4.084025323390960693359375</LongitudeDegrees>
            </Position>
            <AltitudeMeters>1756.800048828125</AltitudeMeters>
            <DistanceMeters>NAN</DistanceMeters>
          </Trackpoint>
          <Trackpoint>
            <Time>2018-12-30T12:54:47.000Z</Time>
            <Position>
              <LatitudeDegrees>40.77051387168467044830322265625</LatitudeDegrees>
              <LongitudeDegrees>-4.08403764478862285614013671875</LongitudeDegrees>
            </Position>
            <AltitudeMeters>1756.800048828125</AltitudeMeters>
            <DistanceMeters>NAN</DistanceMeters>
          </Trackpoint>
          <Trackpoint>
            <Time>2018-12-30T12:54:48.000Z</Time>
            <Position>
              <LatitudeDegrees>40.77050632797181606292724609375</LatitudeDegrees>
              <LongitudeDegrees>-4.08405105583369731903076171875</LongitudeDegrees>
            </Position>
            <AltitudeMeters>1756.800048828125</AltitudeMeters>
            <DistanceMeters>NAN</DistanceMeters>
          </Trackpoint>
          <Trackpoint>
            <Time>2018-12-30T12:54:49.000Z</Time>
            <Position>
              <LatitudeDegrees>40.77049928717315196990966796875</LatitudeDegrees>
              <LongitudeDegrees>-4.08406513743102550506591796875</LongitudeDegrees>
            </Position>
            <AltitudeMeters>1756.800048828125</AltitudeMeters>
            <DistanceMeters>NAN</DistanceMeters>
          </Trackpoint>
          <Trackpoint>
            <Time>2018-12-30T12:54:50.000Z</Time>
            <Position>
              <LatitudeDegrees>40.7704884745180606842041015625</LatitudeDegrees>
              <LongitudeDegrees>-4.0840781293809413909912109375</LongitudeDegrees>
            </Position>
            <AltitudeMeters>1756.800048828125</AltitudeMeters>
            <DistanceMeters>NAN</DistanceMeters>
          </Trackpoint>
          <Trackpoint>
            <Time>2018-12-30T12:54:51.000Z</Time>
            <Position>
              <LatitudeDegrees>40.77047296799719333648681640625</LatitudeDegrees>
              <LongitudeDegrees>-4.0840855054557323455810546875</LongitudeDegrees>
            </Position>
            <AltitudeMeters>1756.800048828125</AltitudeMeters>
            <DistanceMeters>NAN</DistanceMeters>
          </Trackpoint>
          <Trackpoint>
            <Time>2018-12-30T12:54:52.000Z</Time>
            <Position>
              <LatitudeDegrees>40.7704603113234043121337890625</LatitudeDegrees>
              <LongitudeDegrees>-4.08409765921533107757568359375</LongitudeDegrees>
            </Position>
            <AltitudeMeters>1756.5999755859375</AltitudeMeters>
            <DistanceMeters>NAN</DistanceMeters>
          </Trackpoint>
          <Trackpoint>
            <Time>2018-12-30T12:54:53.000Z</Time>
            <Position>
              <LatitudeDegrees>40.77044849283993244171142578125</LatitudeDegrees>
              <LongitudeDegrees>-4.0841093100607395172119140625</LongitudeDegrees>
            </Position>
            <AltitudeMeters>1756.5999755859375</AltitudeMeters>
            <DistanceMeters>NAN</DistanceMeters>
          </Trackpoint>
          <Trackpoint>
            <Time>2018-12-30T12:54:54.000Z</Time>
            <Position>
              <LatitudeDegrees>40.770437009632587432861328125</LatitudeDegrees>
              <LongitudeDegrees>-4.084120206534862518310546875</LongitudeDegrees>
            </Position>
            <AltitudeMeters>1756.5999755859375</AltitudeMeters>
            <DistanceMeters>NAN</DistanceMeters>
          </Trackpoint>
          <Trackpoint>
            <Time>2018-12-30T12:54:55.000Z</Time>
            <Position>
              <LatitudeDegrees>40.77042820863425731658935546875</LatitudeDegrees>
              <LongitudeDegrees>-4.08413202501833438873291015625</LongitudeDegrees>
            </Position>
            <AltitudeMeters>1756.5999755859375</AltitudeMeters>
            <DistanceMeters>NAN</DistanceMeters>
          </Trackpoint>
          <Trackpoint>
            <Time>2018-12-30T12:54:56.000Z</Time>
            <Position>
              <LatitudeDegrees>40.77042116783559322357177734375</LatitudeDegrees>
              <LongitudeDegrees>-4.0841471962630748748779296875</LongitudeDegrees>
            </Position>
            <AltitudeMeters>1756.5999755859375</AltitudeMeters>
            <DistanceMeters>NAN</DistanceMeters>
          </Trackpoint>
          <Trackpoint>
            <Time>2018-12-30T12:54:57.000Z</Time>
            <Position>
              <LatitudeDegrees>40.77041211538016796112060546875</LatitudeDegrees>
              <LongitudeDegrees>-4.08415968529880046844482421875</LongitudeDegrees>
            </Position>
            <AltitudeMeters>1756.800048828125</AltitudeMeters>
            <DistanceMeters>NAN</DistanceMeters>
          </Trackpoint>
          <Trackpoint>
            <Time>2018-12-30T12:54:58.000Z</Time>
            <Position>
              <LatitudeDegrees>40.7703991234302520751953125</LatitudeDegrees>
              <LongitudeDegrees>-4.0841720066964626312255859375</LongitudeDegrees>
            </Position>
            <AltitudeMeters>1756.800048828125</AltitudeMeters>
            <DistanceMeters>NAN</DistanceMeters>
          </Trackpoint>
          <Trackpoint>
            <Time>2018-12-30T12:54:59.000Z</Time>
            <Position>
              <LatitudeDegrees>40.77038361690938472747802734375</LatitudeDegrees>
              <LongitudeDegrees>-4.08418332226574420928955078125</LongitudeDegrees>
            </Position>
            <AltitudeMeters>1756.800048828125</AltitudeMeters>
            <DistanceMeters>NAN</DistanceMeters>
          </Trackpoint>
          <Trackpoint>
            <Time>2018-12-30T12:55:00.000Z</Time>
            <Position>
              <LatitudeDegrees>40.7703694514930248260498046875</LatitudeDegrees>
              <LongitudeDegrees>-4.0841961465775966644287109375</LongitudeDegrees>
            </Position>
            <AltitudeMeters>1756.5999755859375</AltitudeMeters>
            <DistanceMeters>NAN</DistanceMeters>
          </Trackpoint>
          <Trackpoint>
            <Time>2018-12-30T12:55:01.000Z</Time>
            <Position>
              <LatitudeDegrees>40.770357213914394378662109375</LatitudeDegrees>
              <LongitudeDegrees>-4.0842085517942905426025390625</LongitudeDegrees>
            </Position>
            <AltitudeMeters>1756.5999755859375</AltitudeMeters>
            <DistanceMeters>NAN</DistanceMeters>
          </Trackpoint>
          <Trackpoint>
            <Time>2018-12-30T12:55:02.000Z</Time>
            <Position>
              <LatitudeDegrees>40.77035243622958660125732421875</LatitudeDegrees>
              <LongitudeDegrees>-4.08422305248677730560302734375</LongitudeDegrees>
            </Position>
            <AltitudeMeters>1756.5999755859375</AltitudeMeters>
            <DistanceMeters>NAN</DistanceMeters>
          </Trackpoint>
          <Trackpoint>
            <Time>2018-12-30T12:55:03.000Z</Time>
            <Position>
              <LatitudeDegrees>40.77034656889736652374267578125</LatitudeDegrees>
              <LongitudeDegrees>-4.08423579297959804534912109375</LongitudeDegrees>
            </Position>
            <AltitudeMeters>1756.4000244140625</AltitudeMeters>
            <DistanceMeters>NAN</DistanceMeters>
          </Trackpoint>
          <Trackpoint>
            <Time>2018-12-30T12:55:04.000Z</Time>
            <Position>
              <LatitudeDegrees>40.770339109003543853759765625</LatitudeDegrees>
              <LongitudeDegrees>-4.08424970693886280059814453125</LongitudeDegrees>
            </Position>
            <AltitudeMeters>1756.4000244140625</AltitudeMeters>
            <DistanceMeters>NAN</DistanceMeters>
          </Trackpoint>
          <Trackpoint>
            <Time>2018-12-30T12:55:05.000Z</Time>
            <Position>
              <LatitudeDegrees>40.77033081091940402984619140625</LatitudeDegrees>
              <LongitudeDegrees>-4.08426261506974697113037109375</LongitudeDegrees>
            </Position>
            <AltitudeMeters>1756.4000244140625</AltitudeMeters>
            <DistanceMeters>NAN</DistanceMeters>
          </Trackpoint>
          <Trackpoint>
            <Time>2018-12-30T12:55:06.000Z</Time>
            <Position>
              <LatitudeDegrees>40.77032343484461307525634765625</LatitudeDegrees>
              <LongitudeDegrees>-4.0842749364674091339111328125</LongitudeDegrees>
            </Position>
            <AltitudeMeters>1756.199951171875</AltitudeMeters>
            <DistanceMeters>NAN</DistanceMeters>
          </Trackpoint>
          <Trackpoint>
            <Time>2018-12-30T12:55:07.000Z</Time>
            <Position>
              <LatitudeDegrees>40.7703131251037120819091796875</LatitudeDegrees>
              <LongitudeDegrees>-4.08428625203669071197509765625</LongitudeDegrees>
            </Position>
            <AltitudeMeters>1756.199951171875</AltitudeMeters>
            <DistanceMeters>NAN</DistanceMeters>
          </Trackpoint>
          <Trackpoint>
            <Time>2018-12-30T12:55:08.000Z</Time>
            <Position>
              <LatitudeDegrees>40.77030382119119167327880859375</LatitudeDegrees>
              <LongitudeDegrees>-4.084298908710479736328125</LongitudeDegrees>
            </Position>
            <AltitudeMeters>1756.199951171875</AltitudeMeters>
            <DistanceMeters>NAN</DistanceMeters>
          </Trackpoint>
          <Trackpoint>
            <Time>2018-12-30T12:55:09.000Z</Time>
            <Position>
              <LatitudeDegrees>40.770294182002544403076171875</LatitudeDegrees>
              <LongitudeDegrees>-4.084310643374919891357421875</LongitudeDegrees>
            </Position>
            <AltitudeMeters>1756.4000244140625</AltitudeMeters>
            <DistanceMeters>NAN</DistanceMeters>
          </Trackpoint>
          <Trackpoint>
            <Time>2018-12-30T12:55:10.000Z</Time>
            <Position>
              <LatitudeDegrees>40.77028722502291202545166015625</LatitudeDegrees>
              <LongitudeDegrees>-4.08432531170547008514404296875</LongitudeDegrees>
            </Position>
            <AltitudeMeters>1756.4000244140625</AltitudeMeters>
            <DistanceMeters>NAN</DistanceMeters>
          </Trackpoint>
          <Trackpoint>
            <Time>2018-12-30T12:55:11.000Z</Time>
            <Position>
              <LatitudeDegrees>40.7702779211103916168212890625</LatitudeDegrees>
              <LongitudeDegrees>-4.08433972857892513275146484375</LongitudeDegrees>
            </Position>
            <AltitudeMeters>1756.4000244140625</AltitudeMeters>
            <DistanceMeters>NAN</DistanceMeters>
          </Trackpoint>
          <Trackpoint>
            <Time>2018-12-30T12:55:12.000Z</Time>
            <Position>
              <LatitudeDegrees>40.77026710845530033111572265625</LatitudeDegrees>
              <LongitudeDegrees>-4.08435163088142871856689453125</LongitudeDegrees>
            </Position>
            <AltitudeMeters>1756.5999755859375</AltitudeMeters>
            <DistanceMeters>NAN</DistanceMeters>
          </Trackpoint>
          <Trackpoint>
            <Time>2018-12-30T12:55:13.000Z</Time>
            <Position>
              <LatitudeDegrees>40.77025738544762134552001953125</LatitudeDegrees>
              <LongitudeDegrees>-4.0843627788126468658447265625</LongitudeDegrees>
            </Position>
            <AltitudeMeters>1756.5999755859375</AltitudeMeters>
            <DistanceMeters>NAN</DistanceMeters>
          </Trackpoint>
          <Trackpoint>
            <Time>2018-12-30T12:55:14.000Z</Time>
            <Position>
              <LatitudeDegrees>40.77025235630571842193603515625</LatitudeDegrees>
              <LongitudeDegrees>-4.08437459729611873626708984375</LongitudeDegrees>
            </Position>
            <AltitudeMeters>1756.800048828125</AltitudeMeters>
            <DistanceMeters>NAN</DistanceMeters>
          </Trackpoint>
          <Trackpoint>
            <Time>2018-12-30T12:55:15.000Z</Time>
            <Position>
              <LatitudeDegrees>40.77024112455546855926513671875</LatitudeDegrees>
              <LongitudeDegrees>-4.08438205718994140625</LongitudeDegrees>
            </Position>
            <AltitudeMeters>1756.800048828125</AltitudeMeters>
            <DistanceMeters>NAN</DistanceMeters>
          </Trackpoint>
          <Trackpoint>
            <Time>2018-12-30T12:55:16.000Z</Time>
            <Position>
              <LatitudeDegrees>40.7702296413481235504150390625</LatitudeDegrees>
              <LongitudeDegrees>-4.0843909420073032379150390625</LongitudeDegrees>
            </Position>
            <AltitudeMeters>1756.800048828125</AltitudeMeters>
            <DistanceMeters>NAN</DistanceMeters>
          </Trackpoint>
          <Trackpoint>
            <Time>2018-12-30T12:55:17.000Z</Time>
            <Position>
              <LatitudeDegrees>40.77021799050271511077880859375</LatitudeDegrees>
              <LongitudeDegrees>-4.08440016210079193115234375</LongitudeDegrees>
            </Position>
            <AltitudeMeters>1756.800048828125</AltitudeMeters>
            <DistanceMeters>NAN</DistanceMeters>
          </Trackpoint>
          <Trackpoint>
            <Time>2018-12-30T12:55:18.000Z</Time>
            <Position>
              <LatitudeDegrees>40.77020935714244842529296875</LatitudeDegrees>
              <LongitudeDegrees>-4.0844117291271686553955078125</LongitudeDegrees>
            </Position>
            <AltitudeMeters>1756.5999755859375</AltitudeMeters>
            <DistanceMeters>NAN</DistanceMeters>
          </Trackpoint>
          <Trackpoint>
            <Time>2018-12-30T12:55:19.000Z</Time>
            <Position>
              <LatitudeDegrees>40.770198963582515716552734375</LatitudeDegrees>
              <LongitudeDegrees>-4.0844237990677356719970703125</LongitudeDegrees>
            </Position>
            <AltitudeMeters>1756.4000244140625</AltitudeMeters>
            <DistanceMeters>NAN</DistanceMeters>
          </Trackpoint>
          <Trackpoint>
            <Time>2018-12-30T12:55:20.000Z</Time>
            <Position>
              <LatitudeDegrees>40.77018932439386844635009765625</LatitudeDegrees>
              <LongitudeDegrees>-4.08443637192249298095703125</LongitudeDegrees>
            </Position>
            <AltitudeMeters>1756.199951171875</AltitudeMeters>
            <DistanceMeters>NAN</DistanceMeters>
          </Trackpoint>
          <Trackpoint>
            <Time>2018-12-30T12:55:21.000Z</Time>
            <Position>
              <LatitudeDegrees>40.7701800204813480377197265625</LatitudeDegrees>
              <LongitudeDegrees>-4.08445179462432861328125</LongitudeDegrees>
            </Position>
            <AltitudeMeters>1756.199951171875</AltitudeMeters>
            <DistanceMeters>NAN</DistanceMeters>
          </Trackpoint>
          <Trackpoint>
            <Time>2018-12-30T12:55:22.000Z</Time>
            <Position>
              <LatitudeDegrees>40.77017247676849365234375</LatitudeDegrees>
              <LongitudeDegrees>-4.0844667144119739532470703125</LongitudeDegrees>
            </Position>
            <AltitudeMeters>1756.199951171875</AltitudeMeters>
            <DistanceMeters>NAN</DistanceMeters>
          </Trackpoint>
          <Trackpoint>
            <Time>2018-12-30T12:55:23.000Z</Time>
            <Position>
              <LatitudeDegrees>40.77016434632241725921630859375</LatitudeDegrees>
              <LongitudeDegrees>-4.08448020927608013153076171875</LongitudeDegrees>
            </Position>
            <AltitudeMeters>1756.199951171875</AltitudeMeters>
            <DistanceMeters>NAN</DistanceMeters>
          </Trackpoint>
          <Trackpoint>
            <Time>2018-12-30T12:55:24.000Z</Time>
            <Position>
              <LatitudeDegrees>40.7701577246189117431640625</LatitudeDegrees>
              <LongitudeDegrees>-4.08449345268309116363525390625</LongitudeDegrees>
            </Position>
            <AltitudeMeters>1756</AltitudeMeters>
            <DistanceMeters>NAN</DistanceMeters>
          </Trackpoint>
          <Trackpoint>
            <Time>2018-12-30T12:55:25.000Z</Time>
            <Position>
              <LatitudeDegrees>40.7701521925628185272216796875</LatitudeDegrees>
              <LongitudeDegrees>-4.0845082886517047882080078125</LongitudeDegrees>
            </Position>
            <AltitudeMeters>1756</AltitudeMeters>
            <DistanceMeters>NAN</DistanceMeters>
          </Trackpoint>
          <Trackpoint>
            <Time>2018-12-30T12:55:26.000Z</Time>
            <Position>
              <LatitudeDegrees>40.77014657668769359588623046875</LatitudeDegrees>
              <LongitudeDegrees>-4.08452111296355724334716796875</LongitudeDegrees>
            </Position>
            <AltitudeMeters>1756.199951171875</AltitudeMeters>
            <DistanceMeters>NAN</DistanceMeters>
          </Trackpoint>
          <Trackpoint>
            <Time>2018-12-30T12:55:27.000Z</Time>
            <Position>
              <LatitudeDegrees>40.77013970352709293365478515625</LatitudeDegrees>
              <LongitudeDegrees>-4.0845334343612194061279296875</LongitudeDegrees>
            </Position>
            <AltitudeMeters>1756.4000244140625</AltitudeMeters>
            <DistanceMeters>NAN</DistanceMeters>
          </Trackpoint>
          <Trackpoint>
            <Time>2018-12-30T12:55:28.000Z</Time>
            <Position>
              <LatitudeDegrees>40.77013182453811168670654296875</LatitudeDegrees>
              <LongitudeDegrees>-4.0845470130443572998046875</LongitudeDegrees>
            </Position>
            <AltitudeMeters>1756.5999755859375</AltitudeMeters>
            <DistanceMeters>NAN</DistanceMeters>
          </Trackpoint>
          <Trackpoint>
            <Time>2018-12-30T12:55:29.000Z</Time>
            <Position>
              <LatitudeDegrees>40.77012193389236927032470703125</LatitudeDegrees>
              <LongitudeDegrees>-4.084561765193939208984375</LongitudeDegrees>
            </Position>
            <AltitudeMeters>1756.5999755859375</AltitudeMeters>
            <DistanceMeters>NAN</DistanceMeters>
          </Trackpoint>
          <Trackpoint>
            <Time>2018-12-30T12:55:30.000Z</Time>
            <Position>
              <LatitudeDegrees>40.77011237852275371551513671875</LatitudeDegrees>
              <LongitudeDegrees>-4.0845750086009502410888671875</LongitudeDegrees>
            </Position>
            <AltitudeMeters>1756.800048828125</AltitudeMeters>
            <DistanceMeters>NAN</DistanceMeters>
          </Trackpoint>
          <Trackpoint>
            <Time>2018-12-30T12:55:31.000Z</Time>
            <Position>
              <LatitudeDegrees>40.77010265551507472991943359375</LatitudeDegrees>
              <LongitudeDegrees>-4.0845867432653903961181640625</LongitudeDegrees>
            </Position>
            <AltitudeMeters>1756.800048828125</AltitudeMeters>
            <DistanceMeters>NAN</DistanceMeters>
          </Trackpoint>
          <Trackpoint>
            <Time>2018-12-30T12:55:32.000Z</Time>
            <Position>
              <LatitudeDegrees>40.7700881548225879669189453125</LatitudeDegrees>
              <LongitudeDegrees>-4.0845998190343379974365234375</LongitudeDegrees>
            </Position>
            <AltitudeMeters>1757</AltitudeMeters>
            <DistanceMeters>NAN</DistanceMeters>
          </Trackpoint>
          <Trackpoint>
            <Time>2018-12-30T12:55:33.000Z</Time>
            <Position>
              <LatitudeDegrees>40.77007834799587726593017578125</LatitudeDegrees>
              <LongitudeDegrees>-4.08461146987974643707275390625</LongitudeDegrees>
            </Position>
            <AltitudeMeters>1757.199951171875</AltitudeMeters>
            <DistanceMeters>NAN</DistanceMeters>
          </Trackpoint>
          <Trackpoint>
            <Time>2018-12-30T12:55:34.000Z</Time>
            <Position>
              <LatitudeDegrees>40.77007248066365718841552734375</LatitudeDegrees>
              <LongitudeDegrees>-4.08462404273450374603271484375</LongitudeDegrees>
            </Position>
            <AltitudeMeters>1757.4000244140625</AltitudeMeters>
            <DistanceMeters>NAN</DistanceMeters>
          </Trackpoint>
          <Trackpoint>
            <Time>2018-12-30T12:55:35.000Z</Time>
            <Position>
              <LatitudeDegrees>40.77006275765597820281982421875</LatitudeDegrees>
              <LongitudeDegrees>-4.08463678322732448577880859375</LongitudeDegrees>
            </Position>
            <AltitudeMeters>1757.4000244140625</AltitudeMeters>
            <DistanceMeters>NAN</DistanceMeters>
          </Trackpoint>
          <Trackpoint>
            <Time>2018-12-30T12:55:36.000Z</Time>
            <Position>
              <LatitudeDegrees>40.7700556330382823944091796875</LatitudeDegrees>
              <LongitudeDegrees>-4.08464801497757434844970703125</LongitudeDegrees>
            </Position>
            <AltitudeMeters>1757.4000244140625</AltitudeMeters>
            <DistanceMeters>NAN</DistanceMeters>
          </Trackpoint>
          <Trackpoint>
            <Time>2018-12-30T12:55:37.000Z</Time>
            <Position>
              <LatitudeDegrees>40.77004716731607913970947265625</LatitudeDegrees>
              <LongitudeDegrees>-4.08466033637523651123046875</LongitudeDegrees>
            </Position>
            <AltitudeMeters>1757.4000244140625</AltitudeMeters>
            <DistanceMeters>NAN</DistanceMeters>
          </Trackpoint>
          <Trackpoint>
            <Time>2018-12-30T12:55:38.000Z</Time>
            <Position>
              <LatitudeDegrees>40.7700388692319393157958984375</LatitudeDegrees>
              <LongitudeDegrees>-4.0846732445061206817626953125</LongitudeDegrees>
            </Position>
            <AltitudeMeters>1757.199951171875</AltitudeMeters>
            <DistanceMeters>NAN</DistanceMeters>
          </Trackpoint>
          <Trackpoint>
            <Time>2018-12-30T12:55:39.000Z</Time>
            <Position>
              <LatitudeDegrees>40.7700331695377826690673828125</LatitudeDegrees>
              <LongitudeDegrees>-4.08468774519860744476318359375</LongitudeDegrees>
            </Position>
            <AltitudeMeters>1757</AltitudeMeters>
            <DistanceMeters>NAN</DistanceMeters>
          </Trackpoint>
          <Trackpoint>
            <Time>2018-12-30T12:55:40.000Z</Time>
            <Position>
              <LatitudeDegrees>40.77002403326332569122314453125</LatitudeDegrees>
              <LongitudeDegrees>-4.08469746820628643035888671875</LongitudeDegrees>
            </Position>
            <AltitudeMeters>1757</AltitudeMeters>
            <DistanceMeters>NAN</DistanceMeters>
          </Trackpoint>
          <Trackpoint>
            <Time>2018-12-30T12:55:41.000Z</Time>
            <Position>
              <LatitudeDegrees>40.77001355588436126708984375</LatitudeDegrees>
              <LongitudeDegrees>-4.08471020869910717010498046875</LongitudeDegrees>
            </Position>
            <AltitudeMeters>1757</AltitudeMeters>
            <DistanceMeters>NAN</DistanceMeters>
          </Trackpoint>
          <Trackpoint>
            <Time>2018-12-30T12:55:42.000Z</Time>
            <Position>
              <LatitudeDegrees>40.77000324614346027374267578125</LatitudeDegrees>
              <LongitudeDegrees>-4.08472336828708648681640625</LongitudeDegrees>
            </Position>
            <AltitudeMeters>1756.800048828125</AltitudeMeters>
            <DistanceMeters>NAN</DistanceMeters>
          </Trackpoint>
          <Trackpoint>
            <Time>2018-12-30T12:55:43.000Z</Time>
            <Position>
              <LatitudeDegrees>40.7699912600219249725341796875</LatitudeDegrees>
              <LongitudeDegrees>-4.08473401330411434173583984375</LongitudeDegrees>
            </Position>
            <AltitudeMeters>1756.800048828125</AltitudeMeters>
            <DistanceMeters>NAN</DistanceMeters>
          </Trackpoint>
          <Trackpoint>
            <Time>2018-12-30T12:55:44.000Z</Time>
            <Position>
              <LatitudeDegrees>40.7699801959097385406494140625</LatitudeDegrees>
              <LongitudeDegrees>-4.08474792726337909698486328125</LongitudeDegrees>
            </Position>
            <AltitudeMeters>1756.800048828125</AltitudeMeters>
            <DistanceMeters>NAN</DistanceMeters>
          </Trackpoint>
          <Trackpoint>
            <Time>2018-12-30T12:55:45.000Z</Time>
            <Position>
              <LatitudeDegrees>40.76997189782559871673583984375</LatitudeDegrees>
              <LongitudeDegrees>-4.084765613079071044921875</LongitudeDegrees>
            </Position>
            <AltitudeMeters>1756.800048828125</AltitudeMeters>
            <DistanceMeters>NAN</DistanceMeters>
          </Trackpoint>
          <Trackpoint>
            <Time>2018-12-30T12:55:46.000Z</Time>
            <Position>
              <LatitudeDegrees>40.76996502466499805450439453125</LatitudeDegrees>
              <LongitudeDegrees>-4.084784053266048431396484375</LongitudeDegrees>
            </Position>
            <AltitudeMeters>1756.5999755859375</AltitudeMeters>
            <DistanceMeters>NAN</DistanceMeters>
          </Trackpoint>
          <Trackpoint>
            <Time>2018-12-30T12:55:47.000Z</Time>
            <Position>
              <LatitudeDegrees>40.769955217838287353515625</LatitudeDegrees>
              <LongitudeDegrees>-4.0848003141582012176513671875</LongitudeDegrees>
            </Position>
            <AltitudeMeters>1756.4000244140625</AltitudeMeters>
            <DistanceMeters>NAN</DistanceMeters>
          </Trackpoint>
          <Trackpoint>
            <Time>2018-12-30T12:55:48.000Z</Time>
            <Position>
              <LatitudeDegrees>40.76994809322059154510498046875</LatitudeDegrees>
              <LongitudeDegrees>-4.084814898669719696044921875</LongitudeDegrees>
            </Position>
            <AltitudeMeters>1756.4000244140625</AltitudeMeters>
            <DistanceMeters>NAN</DistanceMeters>
          </Trackpoint>
          <Trackpoint>
            <Time>2018-12-30T12:55:49.000Z</Time>
            <Position>
              <LatitudeDegrees>40.7699402980506420135498046875</LatitudeDegrees>
              <LongitudeDegrees>-4.08483023755252361297607421875</LongitudeDegrees>
            </Position>
            <AltitudeMeters>1756.4000244140625</AltitudeMeters>
            <DistanceMeters>NAN</DistanceMeters>
          </Trackpoint>
          <Trackpoint>
            <Time>2018-12-30T12:55:50.000Z</Time>
            <Position>
              <LatitudeDegrees>40.769930742681026458740234375</LatitudeDegrees>
              <LongitudeDegrees>-4.08484314568340778350830078125</LongitudeDegrees>
            </Position>
            <AltitudeMeters>1756.4000244140625</AltitudeMeters>
            <DistanceMeters>NAN</DistanceMeters>
          </Trackpoint>
          <Trackpoint>
            <Time>2018-12-30T12:55:51.000Z</Time>
            <Position>
              <LatitudeDegrees>40.76991892419755458831787109375</LatitudeDegrees>
              <LongitudeDegrees>-4.08485605381429195404052734375</LongitudeDegrees>
            </Position>
            <AltitudeMeters>1756.4000244140625</AltitudeMeters>
            <DistanceMeters>NAN</DistanceMeters>
          </Trackpoint>
          <Trackpoint>
            <Time>2018-12-30T12:55:52.000Z</Time>
            <Position>
              <LatitudeDegrees>40.76990802772343158721923828125</LatitudeDegrees>
              <LongitudeDegrees>-4.08486963249742984771728515625</LongitudeDegrees>
            </Position>
            <AltitudeMeters>1756.4000244140625</AltitudeMeters>
            <DistanceMeters>NAN</DistanceMeters>
          </Trackpoint>
          <Trackpoint>
            <Time>2018-12-30T12:55:53.000Z</Time>
            <Position>
              <LatitudeDegrees>40.76989780180156230926513671875</LatitudeDegrees>
              <LongitudeDegrees>-4.0848864801228046417236328125</LongitudeDegrees>
            </Position>
            <AltitudeMeters>1756.5999755859375</AltitudeMeters>
            <DistanceMeters>NAN</DistanceMeters>
          </Trackpoint>
          <Trackpoint>
            <Time>2018-12-30T12:55:54.000Z</Time>
            <Position>
              <LatitudeDegrees>40.769889168441295623779296875</LatitudeDegrees>
              <LongitudeDegrees>-4.084901399910449981689453125</LongitudeDegrees>
            </Position>
            <AltitudeMeters>1756.4000244140625</AltitudeMeters>
            <DistanceMeters>NAN</DistanceMeters>
          </Trackpoint>
          <Trackpoint>
            <Time>2018-12-30T12:55:55.000Z</Time>
            <Position>
              <LatitudeDegrees>40.7698806189000606536865234375</LatitudeDegrees>
              <LongitudeDegrees>-4.08491657115519046783447265625</LongitudeDegrees>
            </Position>
            <AltitudeMeters>1756.4000244140625</AltitudeMeters>
            <DistanceMeters>NAN</DistanceMeters>
          </Trackpoint>
          <Trackpoint>
            <Time>2018-12-30T12:55:56.000Z</Time>
            <Position>
              <LatitudeDegrees>40.76987005770206451416015625</LatitudeDegrees>
              <LongitudeDegrees>-4.084927551448345184326171875</LongitudeDegrees>
            </Position>
            <AltitudeMeters>1756.199951171875</AltitudeMeters>
            <DistanceMeters>NAN</DistanceMeters>
          </Trackpoint>
          <Trackpoint>
            <Time>2018-12-30T12:55:57.000Z</Time>
            <Position>
              <LatitudeDegrees>40.7698605023324489593505859375</LatitudeDegrees>
              <LongitudeDegrees>-4.08494004048407077789306640625</LongitudeDegrees>
            </Position>
            <AltitudeMeters>1756.199951171875</AltitudeMeters>
            <DistanceMeters>NAN</DistanceMeters>
          </Trackpoint>
          <Trackpoint>
            <Time>2018-12-30T12:55:58.000Z</Time>
            <Position>
              <LatitudeDegrees>40.76985036022961139678955078125</LatitudeDegrees>
              <LongitudeDegrees>-4.0849542059004306793212890625</LongitudeDegrees>
            </Position>
            <AltitudeMeters>1756.199951171875</AltitudeMeters>
            <DistanceMeters>NAN</DistanceMeters>
          </Trackpoint>
          <Trackpoint>
            <Time>2018-12-30T12:55:59.000Z</Time>
            <Position>
              <LatitudeDegrees>40.7698387093842029571533203125</LatitudeDegrees>
              <LongitudeDegrees>-4.084967114031314849853515625</LongitudeDegrees>
            </Position>
            <AltitudeMeters>1756</AltitudeMeters>
            <DistanceMeters>NAN</DistanceMeters>
          </Trackpoint>
          <Trackpoint>
            <Time>2018-12-30T12:56:00.000Z</Time>
            <Position>
              <LatitudeDegrees>40.7698283158242702484130859375</LatitudeDegrees>
              <LongitudeDegrees>-4.08498194999992847442626953125</LongitudeDegrees>
            </Position>
            <AltitudeMeters>1756</AltitudeMeters>
            <DistanceMeters>NAN</DistanceMeters>
          </Trackpoint>
          <Trackpoint>
            <Time>2018-12-30T12:56:01.000Z</Time>
            <Position>
              <LatitudeDegrees>40.76981532387435436248779296875</LatitudeDegrees>
              <LongitudeDegrees>-4.0849937684834003448486328125</LongitudeDegrees>
            </Position>
            <AltitudeMeters>1755.800048828125</AltitudeMeters>
            <DistanceMeters>NAN</DistanceMeters>
          </Trackpoint>
          <Trackpoint>
            <Time>2018-12-30T12:56:02.000Z</Time>
            <Position>
              <LatitudeDegrees>40.76980241574347019195556640625</LatitudeDegrees>
              <LongitudeDegrees>-4.08500407822430133819580078125</LongitudeDegrees>
            </Position>
            <AltitudeMeters>1755.800048828125</AltitudeMeters>
            <DistanceMeters>NAN</DistanceMeters>
          </Trackpoint>
          <Trackpoint>
            <Time>2018-12-30T12:56:03.000Z</Time>
            <Position>
              <LatitudeDegrees>40.7697929441928863525390625</LatitudeDegrees>
              <LongitudeDegrees>-4.08501430414617061614990234375</LongitudeDegrees>
            </Position>
            <AltitudeMeters>1755.800048828125</AltitudeMeters>
            <DistanceMeters>NAN</DistanceMeters>
          </Trackpoint>
          <Trackpoint>
            <Time>2018-12-30T12:56:04.000Z</Time>
            <Position>
              <LatitudeDegrees>40.769780538976192474365234375</LatitudeDegrees>
              <LongitudeDegrees>-4.08502318896353244781494140625</LongitudeDegrees>
            </Position>
            <AltitudeMeters>1755.800048828125</AltitudeMeters>
            <DistanceMeters>NAN</DistanceMeters>
          </Trackpoint>
          <Trackpoint>
            <Time>2018-12-30T12:56:05.000Z</Time>
            <Position>
              <LatitudeDegrees>40.76976804994046688079833984375</LatitudeDegrees>
              <LongitudeDegrees>-4.08503358252346515655517578125</LongitudeDegrees>
            </Position>
            <AltitudeMeters>1755.800048828125</AltitudeMeters>
            <DistanceMeters>NAN</DistanceMeters>
          </Trackpoint>
          <Trackpoint>
            <Time>2018-12-30T12:56:06.000Z</Time>
            <Position>
              <LatitudeDegrees>40.76975874602794647216796875</LatitudeDegrees>
              <LongitudeDegrees>-4.08504665829241275787353515625</LongitudeDegrees>
            </Position>
            <AltitudeMeters>1755.5999755859375</AltitudeMeters>
            <DistanceMeters>NAN</DistanceMeters>
          </Trackpoint>
          <Trackpoint>
            <Time>2018-12-30T12:56:07.000Z</Time>
            <Position>
              <LatitudeDegrees>40.76974826864898204803466796875</LatitudeDegrees>
              <LongitudeDegrees>-4.0850608237087726593017578125</LongitudeDegrees>
            </Position>
            <AltitudeMeters>1755.4000244140625</AltitudeMeters>
            <DistanceMeters>NAN</DistanceMeters>
          </Trackpoint>
          <Trackpoint>
            <Time>2018-12-30T12:56:08.000Z</Time>
            <Position>
              <LatitudeDegrees>40.7697394676506519317626953125</LatitudeDegrees>
              <LongitudeDegrees>-4.08507431857287883758544921875</LongitudeDegrees>
            </Position>
            <AltitudeMeters>1755.4000244140625</AltitudeMeters>
            <DistanceMeters>NAN</DistanceMeters>
          </Trackpoint>
          <Trackpoint>
            <Time>2018-12-30T12:56:09.000Z</Time>
            <Position>
              <LatitudeDegrees>40.7697324268519878387451171875</LatitudeDegrees>
              <LongitudeDegrees>-4.08508907072246074676513671875</LongitudeDegrees>
            </Position>
            <AltitudeMeters>1755.4000244140625</AltitudeMeters>
            <DistanceMeters>NAN</DistanceMeters>
          </Trackpoint>
          <Trackpoint>
            <Time>2018-12-30T12:56:10.000Z</Time>
            <Position>
              <LatitudeDegrees>40.7697267271578311920166015625</LatitudeDegrees>
              <LongitudeDegrees>-4.08510248176753520965576171875</LongitudeDegrees>
            </Position>
            <AltitudeMeters>1755.199951171875</AltitudeMeters>
            <DistanceMeters>NAN</DistanceMeters>
          </Trackpoint>
          <Trackpoint>
            <Time>2018-12-30T12:56:11.000Z</Time>
            <Position>
              <LatitudeDegrees>40.769717507064342498779296875</LatitudeDegrees>
              <LongitudeDegrees>-4.08511538989841938018798828125</LongitudeDegrees>
            </Position>
            <AltitudeMeters>1755.199951171875</AltitudeMeters>
            <DistanceMeters>NAN</DistanceMeters>
          </Trackpoint>
          <Trackpoint>
            <Time>2018-12-30T12:56:12.000Z</Time>
            <Position>
              <LatitudeDegrees>40.76970434747636318206787109375</LatitudeDegrees>
              <LongitudeDegrees>-4.085125364363193511962890625</LongitudeDegrees>
            </Position>
            <AltitudeMeters>1755</AltitudeMeters>
            <DistanceMeters>NAN</DistanceMeters>
          </Trackpoint>
          <Trackpoint>
            <Time>2018-12-30T12:56:13.000Z</Time>
            <Position>
              <LatitudeDegrees>40.7696918584406375885009765625</LatitudeDegrees>
              <LongitudeDegrees>-4.0851386077702045440673828125</LongitudeDegrees>
            </Position>
            <AltitudeMeters>1755.199951171875</AltitudeMeters>
            <DistanceMeters>NAN</DistanceMeters>
          </Trackpoint>
          <Trackpoint>
            <Time>2018-12-30T12:56:14.000Z</Time>
            <Position>
              <LatitudeDegrees>40.76967869885265827178955078125</LatitudeDegrees>
              <LongitudeDegrees>-4.08515227027237415313720703125</LongitudeDegrees>
            </Position>
            <AltitudeMeters>1755</AltitudeMeters>
            <DistanceMeters>NAN</DistanceMeters>
          </Trackpoint>
          <Trackpoint>
            <Time>2018-12-30T12:56:15.000Z</Time>
            <Position>
              <LatitudeDegrees>40.76966830529272556304931640625</LatitudeDegrees>
              <LongitudeDegrees>-4.08516115508973598480224609375</LongitudeDegrees>
            </Position>
            <AltitudeMeters>1755</AltitudeMeters>
            <DistanceMeters>NAN</DistanceMeters>
          </Trackpoint>
          <Trackpoint>
            <Time>2018-12-30T12:56:16.000Z</Time>
            <Position>
              <LatitudeDegrees>40.76966059394180774688720703125</LatitudeDegrees>
              <LongitudeDegrees>-4.08517423085868358612060546875</LongitudeDegrees>
            </Position>
            <AltitudeMeters>1754.800048828125</AltitudeMeters>
            <DistanceMeters>NAN</DistanceMeters>
          </Trackpoint>
          <Trackpoint>
            <Time>2018-12-30T12:56:17.000Z</Time>
            <Position>
              <LatitudeDegrees>40.769654475152492523193359375</LatitudeDegrees>
              <LongitudeDegrees>-4.0851880609989166259765625</LongitudeDegrees>
            </Position>
            <AltitudeMeters>1754.800048828125</AltitudeMeters>
            <DistanceMeters>NAN</DistanceMeters>
          </Trackpoint>
          <Trackpoint>
            <Time>2018-12-30T12:56:18.000Z</Time>
            <Position>
              <LatitudeDegrees>40.7696479372680187225341796875</LatitudeDegrees>
              <LongitudeDegrees>-4.08520214259624481201171875</LongitudeDegrees>
            </Position>
            <AltitudeMeters>1754.5999755859375</AltitudeMeters>
            <DistanceMeters>NAN</DistanceMeters>
          </Trackpoint>
          <Trackpoint>
            <Time>2018-12-30T12:56:19.000Z</Time>
            <Position>
              <LatitudeDegrees>40.76964030973613262176513671875</LatitudeDegrees>
              <LongitudeDegrees>-4.08521479927003383636474609375</LongitudeDegrees>
            </Position>
            <AltitudeMeters>1754.5999755859375</AltitudeMeters>
            <DistanceMeters>NAN</DistanceMeters>
          </Trackpoint>
          <Trackpoint>
            <Time>2018-12-30T12:56:20.000Z</Time>
            <Position>
              <LatitudeDegrees>40.7696331851184368133544921875</LatitudeDegrees>
              <LongitudeDegrees>-4.085227958858013153076171875</LongitudeDegrees>
            </Position>
            <AltitudeMeters>1754.4000244140625</AltitudeMeters>
            <DistanceMeters>NAN</DistanceMeters>
          </Trackpoint>
          <Trackpoint>
            <Time>2018-12-30T12:56:21.000Z</Time>
            <Position>
              <LatitudeDegrees>40.7696224562823772430419921875</LatitudeDegrees>
              <LongitudeDegrees>-4.0852415375411510467529296875</LongitudeDegrees>
            </Position>
            <AltitudeMeters>1754.4000244140625</AltitudeMeters>
            <DistanceMeters>NAN</DistanceMeters>
          </Trackpoint>
          <Trackpoint>
            <Time>2018-12-30T12:56:22.000Z</Time>
            <Position>
              <LatitudeDegrees>40.76961658895015716552734375</LatitudeDegrees>
              <LongitudeDegrees>-4.08525645732879638671875</LongitudeDegrees>
            </Position>
            <AltitudeMeters>1754.199951171875</AltitudeMeters>
            <DistanceMeters>NAN</DistanceMeters>
          </Trackpoint>
          <Trackpoint>
            <Time>2018-12-30T12:56:23.000Z</Time>
            <Position>
              <LatitudeDegrees>40.769607536494731903076171875</LatitudeDegrees>
              <LongitudeDegrees>-4.08526877872645854949951171875</LongitudeDegrees>
            </Position>
            <AltitudeMeters>1754</AltitudeMeters>
            <DistanceMeters>NAN</DistanceMeters>
          </Trackpoint>
          <Trackpoint>
            <Time>2018-12-30T12:56:24.000Z</Time>
            <Position>
              <LatitudeDegrees>40.7695989869534969329833984375</LatitudeDegrees>
              <LongitudeDegrees>-4.08528604544699192047119140625</LongitudeDegrees>
            </Position>
            <AltitudeMeters>1753.800048828125</AltitudeMeters>
            <DistanceMeters>NAN</DistanceMeters>
          </Trackpoint>
          <Trackpoint>
            <Time>2018-12-30T12:56:25.000Z</Time>
            <Position>
              <LatitudeDegrees>40.7695906050503253936767578125</LatitudeDegrees>
              <LongitudeDegrees>-4.085305072367191314697265625</LongitudeDegrees>
            </Position>
            <AltitudeMeters>1753.5999755859375</AltitudeMeters>
            <DistanceMeters>NAN</DistanceMeters>
          </Trackpoint>
          <Trackpoint>
            <Time>2018-12-30T12:56:26.000Z</Time>
            <Position>
              <LatitudeDegrees>40.76958172023296356201171875</LatitudeDegrees>
              <LongitudeDegrees>-4.08532284200191497802734375</LongitudeDegrees>
            </Position>
            <AltitudeMeters>1753.4000244140625</AltitudeMeters>
            <DistanceMeters>NAN</DistanceMeters>
          </Trackpoint>
          <Trackpoint>
            <Time>2018-12-30T12:56:27.000Z</Time>
            <Position>
              <LatitudeDegrees>40.769571326673030853271484375</LatitudeDegrees>
              <LongitudeDegrees>-4.08533935435116291046142578125</LongitudeDegrees>
            </Position>
            <AltitudeMeters>1753.5999755859375</AltitudeMeters>
            <DistanceMeters>NAN</DistanceMeters>
          </Trackpoint>
          <Trackpoint>
            <Time>2018-12-30T12:56:28.000Z</Time>
            <Position>
              <LatitudeDegrees>40.76955548487603664398193359375</LatitudeDegrees>
              <LongitudeDegrees>-4.0853489935398101806640625</LongitudeDegrees>
            </Position>
            <AltitudeMeters>1753.4000244140625</AltitudeMeters>
            <DistanceMeters>NAN</DistanceMeters>
          </Trackpoint>
          <Trackpoint>
            <Time>2018-12-30T12:56:29.000Z</Time>
            <Position>
              <LatitudeDegrees>40.769546516239643096923828125</LatitudeDegrees>
              <LongitudeDegrees>-4.08536299131810665130615234375</LongitudeDegrees>
            </Position>
            <AltitudeMeters>1753.4000244140625</AltitudeMeters>
            <DistanceMeters>NAN</DistanceMeters>
          </Trackpoint>
          <Trackpoint>
            <Time>2018-12-30T12:56:30.000Z</Time>
            <Position>
              <LatitudeDegrees>40.76953754760324954986572265625</LatitudeDegrees>
              <LongitudeDegrees>-4.08537556417286396026611328125</LongitudeDegrees>
            </Position>
            <AltitudeMeters>1753.5999755859375</AltitudeMeters>
            <DistanceMeters>NAN</DistanceMeters>
          </Trackpoint>
          <Trackpoint>
            <Time>2018-12-30T12:56:31.000Z</Time>
            <Position>
              <LatitudeDegrees>40.7695309258997440338134765625</LatitudeDegrees>
              <LongitudeDegrees>-4.08539299853146076202392578125</LongitudeDegrees>
            </Position>
            <AltitudeMeters>1753.5999755859375</AltitudeMeters>
            <DistanceMeters>NAN</DistanceMeters>
          </Trackpoint>
          <Trackpoint>
            <Time>2018-12-30T12:56:32.000Z</Time>
            <Position>
              <LatitudeDegrees>40.769522376358509063720703125</LatitudeDegrees>
              <LongitudeDegrees>-4.08540691249072551727294921875</LongitudeDegrees>
            </Position>
            <AltitudeMeters>1753.5999755859375</AltitudeMeters>
            <DistanceMeters>NAN</DistanceMeters>
          </Trackpoint>
          <Trackpoint>
            <Time>2018-12-30T12:56:33.000Z</Time>
            <Position>
              <LatitudeDegrees>40.76951005496084690093994140625</LatitudeDegrees>
              <LongitudeDegrees>-4.08541579730808734893798828125</LongitudeDegrees>
            </Position>
            <AltitudeMeters>1753.5999755859375</AltitudeMeters>
            <DistanceMeters>NAN</DistanceMeters>
          </Trackpoint>
          <Trackpoint>
            <Time>2018-12-30T12:56:34.000Z</Time>
            <Position>
              <LatitudeDegrees>40.769498236477375030517578125</LatitudeDegrees>
              <LongitudeDegrees>-4.085421748459339141845703125</LongitudeDegrees>
            </Position>
            <AltitudeMeters>1753.5999755859375</AltitudeMeters>
            <DistanceMeters>NAN</DistanceMeters>
          </Trackpoint>
          <Trackpoint>
            <Time>2018-12-30T12:56:35.000Z</Time>
            <Position>
              <LatitudeDegrees>40.76949312351644039154052734375</LatitudeDegrees>
              <LongitudeDegrees>-4.085436165332794189453125</LongitudeDegrees>
            </Position>
            <AltitudeMeters>1753.5999755859375</AltitudeMeters>
            <DistanceMeters>NAN</DistanceMeters>
          </Trackpoint>
          <Trackpoint>
            <Time>2018-12-30T12:56:36.000Z</Time>
            <Position>
              <LatitudeDegrees>40.76948708854615688323974609375</LatitudeDegrees>
              <LongitudeDegrees>-4.08545267768204212188720703125</LongitudeDegrees>
            </Position>
            <AltitudeMeters>1753.5999755859375</AltitudeMeters>
            <DistanceMeters>NAN</DistanceMeters>
          </Trackpoint>
          <Trackpoint>
            <Time>2018-12-30T12:56:37.000Z</Time>
            <Position>
              <LatitudeDegrees>40.7694792933762073516845703125</LatitudeDegrees>
              <LongitudeDegrees>-4.085470698773860931396484375</LongitudeDegrees>
            </Position>
            <AltitudeMeters>1753.5999755859375</AltitudeMeters>
            <DistanceMeters>NAN</DistanceMeters>
          </Trackpoint>
          <Trackpoint>
            <Time>2018-12-30T12:56:38.000Z</Time>
            <Position>
              <LatitudeDegrees>40.76946747489273548126220703125</LatitudeDegrees>
              <LongitudeDegrees>-4.08548536710441112518310546875</LongitudeDegrees>
            </Position>
            <AltitudeMeters>1753.5999755859375</AltitudeMeters>
            <DistanceMeters>NAN</DistanceMeters>
          </Trackpoint>
          <Trackpoint>
            <Time>2018-12-30T12:56:39.000Z</Time>
            <Position>
              <LatitudeDegrees>40.76945590786635875701904296875</LatitudeDegrees>
              <LongitudeDegrees>-4.08549995161592960357666015625</LongitudeDegrees>
            </Position>
            <AltitudeMeters>1753.5999755859375</AltitudeMeters>
            <DistanceMeters>NAN</DistanceMeters>
          </Trackpoint>
          <Trackpoint>
            <Time>2018-12-30T12:56:40.000Z</Time>
            <Position>
              <LatitudeDegrees>40.7694474421441555023193359375</LatitudeDegrees>
              <LongitudeDegrees>-4.0855157934129238128662109375</LongitudeDegrees>
            </Position>
            <AltitudeMeters>1753.5999755859375</AltitudeMeters>
            <DistanceMeters>NAN</DistanceMeters>
          </Trackpoint>
          <Trackpoint>
            <Time>2018-12-30T12:56:41.000Z</Time>
            <Position>
              <LatitudeDegrees>40.7694388926029205322265625</LatitudeDegrees>
              <LongitudeDegrees>-4.08552928827702999114990234375</LongitudeDegrees>
            </Position>
            <AltitudeMeters>1753.4000244140625</AltitudeMeters>
            <DistanceMeters>NAN</DistanceMeters>
          </Trackpoint>
          <Trackpoint>
            <Time>2018-12-30T12:56:42.000Z</Time>
            <Position>
              <LatitudeDegrees>40.7694343663752079010009765625</LatitudeDegrees>
              <LongitudeDegrees>-4.08553951419889926910400390625</LongitudeDegrees>
            </Position>
            <AltitudeMeters>1753</AltitudeMeters>
            <DistanceMeters>NAN</DistanceMeters>
          </Trackpoint>
          <Trackpoint>
            <Time>2018-12-30T12:56:43.000Z</Time>
            <Position>
              <LatitudeDegrees>40.76943227089941501617431640625</LatitudeDegrees>
              <LongitudeDegrees>-4.085543118417263031005859375</LongitudeDegrees>
            </Position>
            <AltitudeMeters>1753</AltitudeMeters>
            <DistanceMeters>NAN</DistanceMeters>
          </Trackpoint>
          <Trackpoint>
            <Time>2018-12-30T12:56:44.000Z</Time>
            <Position>
              <LatitudeDegrees>40.769430510699748992919921875</LatitudeDegrees>
              <LongitudeDegrees>-4.0855447947978973388671875</LongitudeDegrees>
            </Position>
            <AltitudeMeters>1752.800048828125</AltitudeMeters>
            <DistanceMeters>NAN</DistanceMeters>
          </Trackpoint>
          <Trackpoint>
            <Time>2018-12-30T12:56:45.000Z</Time>
            <Position>
              <LatitudeDegrees>40.7694276608526706695556640625</LatitudeDegrees>
              <LongitudeDegrees>-4.08555124886333942413330078125</LongitudeDegrees>
            </Position>
            <AltitudeMeters>1752.800048828125</AltitudeMeters>
            <DistanceMeters>NAN</DistanceMeters>
          </Trackpoint>
          <Trackpoint>
            <Time>2018-12-30T12:56:46.000Z</Time>
            <Position>
              <LatitudeDegrees>40.7694227993488311767578125</LatitudeDegrees>
              <LongitudeDegrees>-4.0855543501675128936767578125</LongitudeDegrees>
            </Position>
            <AltitudeMeters>1752.5999755859375</AltitudeMeters>
            <DistanceMeters>NAN</DistanceMeters>
          </Trackpoint>
          <Trackpoint>
            <Time>2018-12-30T12:56:47.000Z</Time>
            <Position>
              <LatitudeDegrees>40.76941810548305511474609375</LatitudeDegrees>
              <LongitudeDegrees>-4.08555711619555950164794921875</LongitudeDegrees>
            </Position>
            <AltitudeMeters>1752.5999755859375</AltitudeMeters>
            <DistanceMeters>NAN</DistanceMeters>
          </Trackpoint>
          <Trackpoint>
            <Time>2018-12-30T12:56:48.000Z</Time>
            <Position>
              <LatitudeDegrees>40.76941483654081821441650390625</LatitudeDegrees>
              <LongitudeDegrees>-4.08555963076651096343994140625</LongitudeDegrees>
            </Position>
            <AltitudeMeters>1752.5999755859375</AltitudeMeters>
            <DistanceMeters>NAN</DistanceMeters>
          </Trackpoint>
          <Trackpoint>
            <Time>2018-12-30T12:56:49.000Z</Time>
            <Position>
              <LatitudeDegrees>40.769412405788898468017578125</LatitudeDegrees>
              <LongitudeDegrees>-4.085569269955158233642578125</LongitudeDegrees>
            </Position>
            <AltitudeMeters>1752.5999755859375</AltitudeMeters>
            <DistanceMeters>NAN</DistanceMeters>
          </Trackpoint>
          <Trackpoint>
            <Time>2018-12-30T12:56:50.000Z</Time>
            <Position>
              <LatitudeDegrees>40.76940779574215412139892578125</LatitudeDegrees>
              <LongitudeDegrees>-4.0855805017054080963134765625</LongitudeDegrees>
            </Position>
            <AltitudeMeters>1752.5999755859375</AltitudeMeters>
            <DistanceMeters>NAN</DistanceMeters>
          </Trackpoint>
          <Trackpoint>
            <Time>2018-12-30T12:56:51.000Z</Time>
            <Position>
              <LatitudeDegrees>40.76940000057220458984375</LatitudeDegrees>
              <LongitudeDegrees>-4.085589386522769927978515625</LongitudeDegrees>
            </Position>
            <AltitudeMeters>1752.5999755859375</AltitudeMeters>
            <DistanceMeters>NAN</DistanceMeters>
          </Trackpoint>
          <Trackpoint>
            <Time>2018-12-30T12:56:52.000Z</Time>
            <Position>
              <LatitudeDegrees>40.76939287595450878143310546875</LatitudeDegrees>
              <LongitudeDegrees>-4.08559835515916347503662109375</LongitudeDegrees>
            </Position>
            <AltitudeMeters>1752.5999755859375</AltitudeMeters>
            <DistanceMeters>NAN</DistanceMeters>
          </Trackpoint>
          <Trackpoint>
            <Time>2018-12-30T12:56:53.000Z</Time>
            <Position>
              <LatitudeDegrees>40.769388936460018157958984375</LatitudeDegrees>
              <LongitudeDegrees>-4.08560740761458873748779296875</LongitudeDegrees>
            </Position>
            <AltitudeMeters>1752.5999755859375</AltitudeMeters>
            <DistanceMeters>NAN</DistanceMeters>
          </Trackpoint>
          <Trackpoint>
            <Time>2018-12-30T12:56:54.000Z</Time>
            <Position>
              <LatitudeDegrees>40.7693827338516712188720703125</LatitudeDegrees>
              <LongitudeDegrees>-4.0856197290122509002685546875</LongitudeDegrees>
            </Position>
            <AltitudeMeters>1752.5999755859375</AltitudeMeters>
            <DistanceMeters>NAN</DistanceMeters>
          </Trackpoint>
          <Trackpoint>
            <Time>2018-12-30T12:56:55.000Z</Time>
            <Position>
              <LatitudeDegrees>40.76937426812946796417236328125</LatitudeDegrees>
              <LongitudeDegrees>-4.08563171513378620147705078125</LongitudeDegrees>
            </Position>
            <AltitudeMeters>1752.5999755859375</AltitudeMeters>
            <DistanceMeters>NAN</DistanceMeters>
          </Trackpoint>
          <Trackpoint>
            <Time>2018-12-30T12:56:56.000Z</Time>
            <Position>
              <LatitudeDegrees>40.76936605386435985565185546875</LatitudeDegrees>
              <LongitudeDegrees>-4.08564269542694091796875</LongitudeDegrees>
            </Position>
            <AltitudeMeters>1752.5999755859375</AltitudeMeters>
            <DistanceMeters>NAN</DistanceMeters>
          </Trackpoint>
          <Trackpoint>
            <Time>2018-12-30T12:56:57.000Z</Time>
            <Position>
              <LatitudeDegrees>40.76935532502830028533935546875</LatitudeDegrees>
              <LongitudeDegrees>-4.0856532566249370574951171875</LongitudeDegrees>
            </Position>
            <AltitudeMeters>1752.4000244140625</AltitudeMeters>
            <DistanceMeters>NAN</DistanceMeters>
          </Trackpoint>
          <Trackpoint>
            <Time>2018-12-30T12:56:58.000Z</Time>
            <Position>
              <LatitudeDegrees>40.76934124343097209930419921875</LatitudeDegrees>
              <LongitudeDegrees>-4.0856599621474742889404296875</LongitudeDegrees>
            </Position>
            <AltitudeMeters>1752.199951171875</AltitudeMeters>
            <DistanceMeters>NAN</DistanceMeters>
          </Trackpoint>
          <Trackpoint>
            <Time>2018-12-30T12:56:59.000Z</Time>
            <Position>
              <LatitudeDegrees>40.76933168806135654449462890625</LatitudeDegrees>
              <LongitudeDegrees>-4.085666835308074951171875</LongitudeDegrees>
            </Position>
            <AltitudeMeters>1752</AltitudeMeters>
            <DistanceMeters>NAN</DistanceMeters>
          </Trackpoint>
          <Trackpoint>
            <Time>2018-12-30T12:57:00.000Z</Time>
            <Position>
              <LatitudeDegrees>40.76931861229240894317626953125</LatitudeDegrees>
              <LongitudeDegrees>-4.0856713615357875823974609375</LongitudeDegrees>
            </Position>
            <AltitudeMeters>1752</AltitudeMeters>
            <DistanceMeters>NAN</DistanceMeters>
          </Trackpoint>
          <Trackpoint>
            <Time>2018-12-30T12:57:01.000Z</Time>
            <Position>
              <LatitudeDegrees>40.76930972747504711151123046875</LatitudeDegrees>
              <LongitudeDegrees>-4.0856787376105785369873046875</LongitudeDegrees>
            </Position>
            <AltitudeMeters>1752</AltitudeMeters>
            <DistanceMeters>NAN</DistanceMeters>
          </Trackpoint>
          <Trackpoint>
            <Time>2018-12-30T12:57:02.000Z</Time>
            <Position>
              <LatitudeDegrees>40.7693046145141124725341796875</LatitudeDegrees>
              <LongitudeDegrees>-4.085690975189208984375</LongitudeDegrees>
            </Position>
            <AltitudeMeters>1752</AltitudeMeters>
            <DistanceMeters>NAN</DistanceMeters>
          </Trackpoint>
          <Trackpoint>
            <Time>2018-12-30T12:57:03.000Z</Time>
            <Position>
              <LatitudeDegrees>40.769297741353511810302734375</LatitudeDegrees>
              <LongitudeDegrees>-4.08570363186299800872802734375</LongitudeDegrees>
            </Position>
            <AltitudeMeters>1752</AltitudeMeters>
            <DistanceMeters>NAN</DistanceMeters>
          </Trackpoint>
          <Trackpoint>
            <Time>2018-12-30T12:57:04.000Z</Time>
            <Position>
              <LatitudeDegrees>40.76928726397454738616943359375</LatitudeDegrees>
              <LongitudeDegrees>-4.085711427032947540283203125</LongitudeDegrees>
            </Position>
            <AltitudeMeters>1752</AltitudeMeters>
            <DistanceMeters>NAN</DistanceMeters>
          </Trackpoint>
          <Trackpoint>
            <Time>2018-12-30T12:57:05.000Z</Time>
            <Position>
              <LatitudeDegrees>40.76927351765334606170654296875</LatitudeDegrees>
              <LongitudeDegrees>-4.08571335487067699432373046875</LongitudeDegrees>
            </Position>
            <AltitudeMeters>1752</AltitudeMeters>
            <DistanceMeters>NAN</DistanceMeters>
          </Trackpoint>
          <Trackpoint>
            <Time>2018-12-30T12:57:06.000Z</Time>
            <Position>
              <LatitudeDegrees>40.7692620344460010528564453125</LatitudeDegrees>
              <LongitudeDegrees>-4.08571905456483364105224609375</LongitudeDegrees>
            </Position>
            <AltitudeMeters>1752</AltitudeMeters>
            <DistanceMeters>NAN</DistanceMeters>
          </Trackpoint>
          <Trackpoint>
            <Time>2018-12-30T12:57:07.000Z</Time>
            <Position>
              <LatitudeDegrees>40.769248791038990020751953125</LatitudeDegrees>
              <LongitudeDegrees>-4.08572425134479999542236328125</LongitudeDegrees>
            </Position>
            <AltitudeMeters>1752</AltitudeMeters>
            <DistanceMeters>NAN</DistanceMeters>
          </Trackpoint>
          <Trackpoint>
            <Time>2018-12-30T12:57:08.000Z</Time>
            <Position>
              <LatitudeDegrees>40.7692338712513446807861328125</LatitudeDegrees>
              <LongitudeDegrees>-4.085730202496051788330078125</LongitudeDegrees>
            </Position>
            <AltitudeMeters>1752.199951171875</AltitudeMeters>
            <DistanceMeters>NAN</DistanceMeters>
          </Trackpoint>
          <Trackpoint>
            <Time>2018-12-30T12:57:09.000Z</Time>
            <Position>
              <LatitudeDegrees>40.769223980605602264404296875</LatitudeDegrees>
              <LongitudeDegrees>-4.08574369736015796661376953125</LongitudeDegrees>
            </Position>
            <AltitudeMeters>1752.4000244140625</AltitudeMeters>
            <DistanceMeters>NAN</DistanceMeters>
          </Trackpoint>
          <Trackpoint>
            <Time>2018-12-30T12:57:10.000Z</Time>
            <Position>
              <LatitudeDegrees>40.769215933978557586669921875</LatitudeDegrees>
              <LongitudeDegrees>-4.08575534820556640625</LongitudeDegrees>
            </Position>
            <AltitudeMeters>1752.4000244140625</AltitudeMeters>
            <DistanceMeters>NAN</DistanceMeters>
          </Trackpoint>
          <Trackpoint>
            <Time>2018-12-30T12:57:11.000Z</Time>
            <Position>
              <LatitudeDegrees>40.76920646242797374725341796875</LatitudeDegrees>
              <LongitudeDegrees>-4.0857632271945476531982421875</LongitudeDegrees>
            </Position>
            <AltitudeMeters>1752.4000244140625</AltitudeMeters>
            <DistanceMeters>NAN</DistanceMeters>
          </Trackpoint>
          <Trackpoint>
            <Time>2018-12-30T12:57:12.000Z</Time>
            <Position>
              <LatitudeDegrees>40.7691969908773899078369140625</LatitudeDegrees>
              <LongitudeDegrees>-4.0857701003551483154296875</LongitudeDegrees>
            </Position>
            <AltitudeMeters>1752.4000244140625</AltitudeMeters>
            <DistanceMeters>NAN</DistanceMeters>
          </Trackpoint>
          <Trackpoint>
            <Time>2018-12-30T12:57:13.000Z</Time>
            <Position>
              <LatitudeDegrees>40.769187770783901214599609375</LatitudeDegrees>
              <LongitudeDegrees>-4.08578359521925449371337890625</LongitudeDegrees>
            </Position>
            <AltitudeMeters>1752.5999755859375</AltitudeMeters>
            <DistanceMeters>NAN</DistanceMeters>
          </Trackpoint>
          <Trackpoint>
            <Time>2018-12-30T12:57:14.000Z</Time>
            <Position>
              <LatitudeDegrees>40.7691814005374908447265625</LatitudeDegrees>
              <LongitudeDegrees>-4.085795916616916656494140625</LongitudeDegrees>
            </Position>
            <AltitudeMeters>1752.199951171875</AltitudeMeters>
            <DistanceMeters>NAN</DistanceMeters>
          </Trackpoint>
          <Trackpoint>
            <Time>2018-12-30T12:57:15.000Z</Time>
            <Position>
              <LatitudeDegrees>40.7691708393394947052001953125</LatitudeDegrees>
              <LongitudeDegrees>-4.0858034603297710418701171875</LongitudeDegrees>
            </Position>
            <AltitudeMeters>1752</AltitudeMeters>
            <DistanceMeters>NAN</DistanceMeters>
          </Trackpoint>
          <Trackpoint>
            <Time>2018-12-30T12:57:16.000Z</Time>
            <Position>
              <LatitudeDegrees>40.76916019432246685028076171875</LatitudeDegrees>
              <LongitudeDegrees>-4.08580739982426166534423828125</LongitudeDegrees>
            </Position>
            <AltitudeMeters>1752</AltitudeMeters>
            <DistanceMeters>NAN</DistanceMeters>
          </Trackpoint>
          <Trackpoint>
            <Time>2018-12-30T12:57:17.000Z</Time>
            <Position>
              <LatitudeDegrees>40.7691530697047710418701171875</LatitudeDegrees>
              <LongitudeDegrees>-4.085808657109737396240234375</LongitudeDegrees>
            </Position>
            <AltitudeMeters>1751.800048828125</AltitudeMeters>
            <DistanceMeters>NAN</DistanceMeters>
          </Trackpoint>
          <Trackpoint>
            <Time>2018-12-30T12:57:18.000Z</Time>
            <Position>
              <LatitudeDegrees>40.769138820469379425048828125</LatitudeDegrees>
              <LongitudeDegrees>-4.08580874092876911163330078125</LongitudeDegrees>
            </Position>
            <AltitudeMeters>1751.800048828125</AltitudeMeters>
            <DistanceMeters>NAN</DistanceMeters>
          </Trackpoint>
          <Trackpoint>
            <Time>2018-12-30T12:57:19.000Z</Time>
            <Position>
              <LatitudeDegrees>40.76912515796720981597900390625</LatitudeDegrees>
              <LongitudeDegrees>-4.08580823801457881927490234375</LongitudeDegrees>
            </Position>
            <AltitudeMeters>1751.800048828125</AltitudeMeters>
            <DistanceMeters>NAN</DistanceMeters>
          </Trackpoint>
          <Trackpoint>
            <Time>2018-12-30T12:57:20.000Z</Time>
            <Position>
              <LatitudeDegrees>40.769116021692752838134765625</LatitudeDegrees>
              <LongitudeDegrees>-4.08581293188035488128662109375</LongitudeDegrees>
            </Position>
            <AltitudeMeters>1751.800048828125</AltitudeMeters>
            <DistanceMeters>NAN</DistanceMeters>
          </Trackpoint>
          <Trackpoint>
            <Time>2018-12-30T12:57:21.000Z</Time>
            <Position>
              <LatitudeDegrees>40.769106633961200714111328125</LatitudeDegrees>
              <LongitudeDegrees>-4.085818044841289520263671875</LongitudeDegrees>
            </Position>
            <AltitudeMeters>1751.800048828125</AltitudeMeters>
            <DistanceMeters>NAN</DistanceMeters>
          </Trackpoint>
          <Trackpoint>
            <Time>2018-12-30T12:57:22.000Z</Time>
            <Position>
              <LatitudeDegrees>40.769096910953521728515625</LatitudeDegrees>
              <LongitudeDegrees>-4.08582500182092189788818359375</LongitudeDegrees>
            </Position>
            <AltitudeMeters>1751.800048828125</AltitudeMeters>
            <DistanceMeters>NAN</DistanceMeters>
          </Trackpoint>
          <Trackpoint>
            <Time>2018-12-30T12:57:23.000Z</Time>
            <Position>
              <LatitudeDegrees>40.76908593066036701202392578125</LatitudeDegrees>
              <LongitudeDegrees>-4.08583371900022029876708984375</LongitudeDegrees>
            </Position>
            <AltitudeMeters>1751.800048828125</AltitudeMeters>
            <DistanceMeters>NAN</DistanceMeters>
          </Trackpoint>
          <Trackpoint>
            <Time>2018-12-30T12:57:24.000Z</Time>
            <Position>
              <LatitudeDegrees>40.7690762914717197418212890625</LatitudeDegrees>
              <LongitudeDegrees>-4.08584478311240673065185546875</LongitudeDegrees>
            </Position>
            <AltitudeMeters>1751.800048828125</AltitudeMeters>
            <DistanceMeters>NAN</DistanceMeters>
          </Trackpoint>
          <Trackpoint>
            <Time>2018-12-30T12:57:25.000Z</Time>
            <Position>
              <LatitudeDegrees>40.76906698755919933319091796875</LatitudeDegrees>
              <LongitudeDegrees>-4.08585534431040287017822265625</LongitudeDegrees>
            </Position>
            <AltitudeMeters>1752</AltitudeMeters>
            <DistanceMeters>NAN</DistanceMeters>
          </Trackpoint>
          <Trackpoint>
            <Time>2018-12-30T12:57:26.000Z</Time>
            <Position>
              <LatitudeDegrees>40.7690494693815708160400390625</LatitudeDegrees>
              <LongitudeDegrees>-4.085862971842288970947265625</LongitudeDegrees>
            </Position>
            <AltitudeMeters>1752</AltitudeMeters>
            <DistanceMeters>NAN</DistanceMeters>
          </Trackpoint>
          <Trackpoint>
            <Time>2018-12-30T12:57:27.000Z</Time>
            <Position>
              <LatitudeDegrees>40.76903748326003551483154296875</LatitudeDegrees>
              <LongitudeDegrees>-4.08587110228836536407470703125</LongitudeDegrees>
            </Position>
            <AltitudeMeters>1752</AltitudeMeters>
            <DistanceMeters>NAN</DistanceMeters>
          </Trackpoint>
          <Trackpoint>
            <Time>2018-12-30T12:57:28.000Z</Time>
            <Position>
              <LatitudeDegrees>40.769026838243007659912109375</LatitudeDegrees>
              <LongitudeDegrees>-4.0858785621821880340576171875</LongitudeDegrees>
            </Position>
            <AltitudeMeters>1752</AltitudeMeters>
            <DistanceMeters>NAN</DistanceMeters>
          </Trackpoint>
          <Trackpoint>
            <Time>2018-12-30T12:57:29.000Z</Time>
            <Position>
              <LatitudeDegrees>40.76901585794985294342041015625</LatitudeDegrees>
              <LongitudeDegrees>-4.08588568679988384246826171875</LongitudeDegrees>
            </Position>
            <AltitudeMeters>1752</AltitudeMeters>
            <DistanceMeters>NAN</DistanceMeters>
          </Trackpoint>
          <Trackpoint>
            <Time>2018-12-30T12:57:30.000Z</Time>
            <Position>
              <LatitudeDegrees>40.769003368914127349853515625</LatitudeDegrees>
              <LongitudeDegrees>-4.0858909673988819122314453125</LongitudeDegrees>
            </Position>
            <AltitudeMeters>1752.199951171875</AltitudeMeters>
            <DistanceMeters>NAN</DistanceMeters>
          </Trackpoint>
          <Trackpoint>
            <Time>2018-12-30T12:57:31.000Z</Time>
            <Position>
              <LatitudeDegrees>40.768989957869052886962890625</LatitudeDegrees>
              <LongitudeDegrees>-4.08589742146432399749755859375</LongitudeDegrees>
            </Position>
            <AltitudeMeters>1752.199951171875</AltitudeMeters>
            <DistanceMeters>NAN</DistanceMeters>
          </Trackpoint>
          <Trackpoint>
            <Time>2018-12-30T12:57:32.000Z</Time>
            <Position>
              <LatitudeDegrees>40.7689773850142955780029296875</LatitudeDegrees>
              <LongitudeDegrees>-4.0859063901007175445556640625</LongitudeDegrees>
            </Position>
            <AltitudeMeters>1752.199951171875</AltitudeMeters>
            <DistanceMeters>NAN</DistanceMeters>
          </Trackpoint>
          <Trackpoint>
            <Time>2018-12-30T12:57:33.000Z</Time>
            <Position>
              <LatitudeDegrees>40.76896590180695056915283203125</LatitudeDegrees>
              <LongitudeDegrees>-4.08591426908969879150390625</LongitudeDegrees>
            </Position>
            <AltitudeMeters>1752.4000244140625</AltitudeMeters>
            <DistanceMeters>NAN</DistanceMeters>
          </Trackpoint>
          <Trackpoint>
            <Time>2018-12-30T12:57:34.000Z</Time>
            <Position>
              <LatitudeDegrees>40.768959783017635345458984375</LatitudeDegrees>
              <LongitudeDegrees>-4.08592759631574153900146484375</LongitudeDegrees>
            </Position>
            <AltitudeMeters>1752.4000244140625</AltitudeMeters>
            <DistanceMeters>NAN</DistanceMeters>
          </Trackpoint>
          <Trackpoint>
            <Time>2018-12-30T12:57:35.000Z</Time>
            <Position>
              <LatitudeDegrees>40.76895534060895442962646484375</LatitudeDegrees>
              <LongitudeDegrees>-4.08594352193176746368408203125</LongitudeDegrees>
            </Position>
            <AltitudeMeters>1752.5999755859375</AltitudeMeters>
            <DistanceMeters>NAN</DistanceMeters>
          </Trackpoint>
          <Trackpoint>
            <Time>2018-12-30T12:57:36.000Z</Time>
            <Position>
              <LatitudeDegrees>40.76894871890544891357421875</LatitudeDegrees>
              <LongitudeDegrees>-4.0859570167958736419677734375</LongitudeDegrees>
            </Position>
            <AltitudeMeters>1752.5999755859375</AltitudeMeters>
            <DistanceMeters>NAN</DistanceMeters>
          </Trackpoint>
          <Trackpoint>
            <Time>2018-12-30T12:57:37.000Z</Time>
            <Position>
              <LatitudeDegrees>40.76893891207873821258544921875</LatitudeDegrees>
              <LongitudeDegrees>-4.0859699249267578125</LongitudeDegrees>
            </Position>
            <AltitudeMeters>1752.5999755859375</AltitudeMeters>
            <DistanceMeters>NAN</DistanceMeters>
          </Trackpoint>
          <Trackpoint>
            <Time>2018-12-30T12:57:38.000Z</Time>
            <Position>
              <LatitudeDegrees>40.7689291052520275115966796875</LatitudeDegrees>
              <LongitudeDegrees>-4.085983671247959136962890625</LongitudeDegrees>
            </Position>
            <AltitudeMeters>1752.800048828125</AltitudeMeters>
            <DistanceMeters>NAN</DistanceMeters>
          </Trackpoint>
          <Trackpoint>
            <Time>2018-12-30T12:57:39.000Z</Time>
            <Position>
              <LatitudeDegrees>40.7689136825501918792724609375</LatitudeDegrees>
              <LongitudeDegrees>-4.08599448390305042266845703125</LongitudeDegrees>
            </Position>
            <AltitudeMeters>1753</AltitudeMeters>
            <DistanceMeters>NAN</DistanceMeters>
          </Trackpoint>
          <Trackpoint>
            <Time>2018-12-30T12:57:40.000Z</Time>
            <Position>
              <LatitudeDegrees>40.768903456628322601318359375</LatitudeDegrees>
              <LongitudeDegrees>-4.086008481681346893310546875</LongitudeDegrees>
            </Position>
            <AltitudeMeters>1753</AltitudeMeters>
            <DistanceMeters>NAN</DistanceMeters>
          </Trackpoint>
          <Trackpoint>
            <Time>2018-12-30T12:57:41.000Z</Time>
            <Position>
              <LatitudeDegrees>40.768895410001277923583984375</LatitudeDegrees>
              <LongitudeDegrees>-4.08601946197450160980224609375</LongitudeDegrees>
            </Position>
            <AltitudeMeters>1753</AltitudeMeters>
            <DistanceMeters>NAN</DistanceMeters>
          </Trackpoint>
          <Trackpoint>
            <Time>2018-12-30T12:57:42.000Z</Time>
            <Position>
              <LatitudeDegrees>40.76888811774551868438720703125</LatitudeDegrees>
              <LongitudeDegrees>-4.0860351361334323883056640625</LongitudeDegrees>
            </Position>
            <AltitudeMeters>1753</AltitudeMeters>
            <DistanceMeters>NAN</DistanceMeters>
          </Trackpoint>
          <Trackpoint>
            <Time>2018-12-30T12:57:43.000Z</Time>
            <Position>
              <LatitudeDegrees>40.768878646194934844970703125</LatitudeDegrees>
              <LongitudeDegrees>-4.0860455296933650970458984375</LongitudeDegrees>
            </Position>
            <AltitudeMeters>1753</AltitudeMeters>
            <DistanceMeters>NAN</DistanceMeters>
          </Trackpoint>
          <Trackpoint>
            <Time>2018-12-30T12:57:44.000Z</Time>
            <Position>
              <LatitudeDegrees>40.76887135393917560577392578125</LatitudeDegrees>
              <LongitudeDegrees>-4.0860619582235813140869140625</LongitudeDegrees>
            </Position>
            <AltitudeMeters>1753</AltitudeMeters>
            <DistanceMeters>NAN</DistanceMeters>
          </Trackpoint>
          <Trackpoint>
            <Time>2018-12-30T12:57:45.000Z</Time>
            <Position>
              <LatitudeDegrees>40.76886699534952640533447265625</LatitudeDegrees>
              <LongitudeDegrees>-4.0860763750970363616943359375</LongitudeDegrees>
            </Position>
            <AltitudeMeters>1753</AltitudeMeters>
            <DistanceMeters>NAN</DistanceMeters>
          </Trackpoint>
          <Trackpoint>
            <Time>2018-12-30T12:57:46.000Z</Time>
            <Position>
              <LatitudeDegrees>40.768860876560211181640625</LatitudeDegrees>
              <LongitudeDegrees>-4.0860877744853496551513671875</LongitudeDegrees>
            </Position>
            <AltitudeMeters>1753</AltitudeMeters>
            <DistanceMeters>NAN</DistanceMeters>
          </Trackpoint>
          <Trackpoint>
            <Time>2018-12-30T12:57:47.000Z</Time>
            <Position>
              <LatitudeDegrees>40.7688533328473567962646484375</LatitudeDegrees>
              <LongitudeDegrees>-4.08610026352107524871826171875</LongitudeDegrees>
            </Position>
            <AltitudeMeters>1752.800048828125</AltitudeMeters>
            <DistanceMeters>NAN</DistanceMeters>
          </Trackpoint>
          <Trackpoint>
            <Time>2018-12-30T12:57:48.000Z</Time>
            <Position>
              <LatitudeDegrees>40.76884486712515354156494140625</LatitudeDegrees>
              <LongitudeDegrees>-4.08611048944294452667236328125</LongitudeDegrees>
            </Position>
            <AltitudeMeters>1752.800048828125</AltitudeMeters>
            <DistanceMeters>NAN</DistanceMeters>
          </Trackpoint>
          <Trackpoint>
            <Time>2018-12-30T12:57:49.000Z</Time>
            <Position>
              <LatitudeDegrees>40.7688389159739017486572265625</LatitudeDegrees>
              <LongitudeDegrees>-4.086122475564479827880859375</LongitudeDegrees>
            </Position>
            <AltitudeMeters>1752.5999755859375</AltitudeMeters>
            <DistanceMeters>NAN</DistanceMeters>
          </Trackpoint>
          <Trackpoint>
            <Time>2018-12-30T12:57:50.000Z</Time>
            <Position>
              <LatitudeDegrees>40.7688301987946033477783203125</LatitudeDegrees>
              <LongitudeDegrees>-4.086130522191524505615234375</LongitudeDegrees>
            </Position>
            <AltitudeMeters>1752.4000244140625</AltitudeMeters>
            <DistanceMeters>NAN</DistanceMeters>
          </Trackpoint>
          <Trackpoint>
            <Time>2018-12-30T12:57:51.000Z</Time>
            <Position>
              <LatitudeDegrees>40.768825672566890716552734375</LatitudeDegrees>
              <LongitudeDegrees>-4.0861454419791698455810546875</LongitudeDegrees>
            </Position>
            <AltitudeMeters>1752.4000244140625</AltitudeMeters>
            <DistanceMeters>NAN</DistanceMeters>
          </Trackpoint>
          <Trackpoint>
            <Time>2018-12-30T12:57:52.000Z</Time>
            <Position>
              <LatitudeDegrees>40.7688219845294952392578125</LatitudeDegrees>
              <LongitudeDegrees>-4.08615994267165660858154296875</LongitudeDegrees>
            </Position>
            <AltitudeMeters>1752.4000244140625</AltitudeMeters>
            <DistanceMeters>NAN</DistanceMeters>
          </Trackpoint>
          <Trackpoint>
            <Time>2018-12-30T12:57:53.000Z</Time>
            <Position>
              <LatitudeDegrees>40.76881687156856060028076171875</LatitudeDegrees>
              <LongitudeDegrees>-4.08617469482123851776123046875</LongitudeDegrees>
            </Position>
            <AltitudeMeters>1752.4000244140625</AltitudeMeters>
            <DistanceMeters>NAN</DistanceMeters>
          </Trackpoint>
          <Trackpoint>
            <Time>2018-12-30T12:57:54.000Z</Time>
            <Position>
              <LatitudeDegrees>40.7688110880553722381591796875</LatitudeDegrees>
              <LongitudeDegrees>-4.086189530789852142333984375</LongitudeDegrees>
            </Position>
            <AltitudeMeters>1752.5999755859375</AltitudeMeters>
            <DistanceMeters>NAN</DistanceMeters>
          </Trackpoint>
          <Trackpoint>
            <Time>2018-12-30T12:57:55.000Z</Time>
            <Position>
              <LatitudeDegrees>40.76880647800862789154052734375</LatitudeDegrees>
              <LongitudeDegrees>-4.0862037800252437591552734375</LongitudeDegrees>
            </Position>
            <AltitudeMeters>1752.5999755859375</AltitudeMeters>
            <DistanceMeters>NAN</DistanceMeters>
          </Trackpoint>
          <Trackpoint>
            <Time>2018-12-30T12:57:56.000Z</Time>
            <Position>
              <LatitudeDegrees>40.768801532685756683349609375</LatitudeDegrees>
              <LongitudeDegrees>-4.0862171910703182220458984375</LongitudeDegrees>
            </Position>
            <AltitudeMeters>1752.5999755859375</AltitudeMeters>
            <DistanceMeters>NAN</DistanceMeters>
          </Trackpoint>
          <Trackpoint>
            <Time>2018-12-30T12:57:57.000Z</Time>
            <Position>
              <LatitudeDegrees>40.76879709027707576751708984375</LatitudeDegrees>
              <LongitudeDegrees>-4.086231775581836700439453125</LongitudeDegrees>
            </Position>
            <AltitudeMeters>1752.5999755859375</AltitudeMeters>
            <DistanceMeters>NAN</DistanceMeters>
          </Trackpoint>
          <Trackpoint>
            <Time>2018-12-30T12:57:58.000Z</Time>
            <Position>
              <LatitudeDegrees>40.76879139058291912078857421875</LatitudeDegrees>
              <LongitudeDegrees>-4.08624459989368915557861328125</LongitudeDegrees>
            </Position>
            <AltitudeMeters>1752.4000244140625</AltitudeMeters>
            <DistanceMeters>NAN</DistanceMeters>
          </Trackpoint>
          <Trackpoint>
            <Time>2018-12-30T12:57:59.000Z</Time>
            <Position>
              <LatitudeDegrees>40.7687852717936038970947265625</LatitudeDegrees>
              <LongitudeDegrees>-4.08625801093876361846923828125</LongitudeDegrees>
            </Position>
            <AltitudeMeters>1752.4000244140625</AltitudeMeters>
            <DistanceMeters>NAN</DistanceMeters>
          </Trackpoint>
          <Trackpoint>
            <Time>2018-12-30T12:58:00.000Z</Time>
            <Position>
              <LatitudeDegrees>40.76877680607140064239501953125</LatitudeDegrees>
              <LongitudeDegrees>-4.08626890741288661956787109375</LongitudeDegrees>
            </Position>
            <AltitudeMeters>1752.199951171875</AltitudeMeters>
            <DistanceMeters>NAN</DistanceMeters>
          </Trackpoint>
          <Trackpoint>
            <Time>2018-12-30T12:58:01.000Z</Time>
            <Position>
              <LatitudeDegrees>40.7687698490917682647705078125</LatitudeDegrees>
              <LongitudeDegrees>-4.08627997152507305145263671875</LongitudeDegrees>
            </Position>
            <AltitudeMeters>1752.199951171875</AltitudeMeters>
            <DistanceMeters>NAN</DistanceMeters>
          </Trackpoint>
          <Trackpoint>
            <Time>2018-12-30T12:58:02.000Z</Time>
            <Position>
              <LatitudeDegrees>40.768759287893772125244140625</LatitudeDegrees>
              <LongitudeDegrees>-4.08629170618951320648193359375</LongitudeDegrees>
            </Position>
            <AltitudeMeters>1752</AltitudeMeters>
            <DistanceMeters>NAN</DistanceMeters>
          </Trackpoint>
          <Trackpoint>
            <Time>2018-12-30T12:58:03.000Z</Time>
            <Position>
              <LatitudeDegrees>40.768747888505458831787109375</LatitudeDegrees>
              <LongitudeDegrees>-4.08630277030169963836669921875</LongitudeDegrees>
            </Position>
            <AltitudeMeters>1752</AltitudeMeters>
            <DistanceMeters>NAN</DistanceMeters>
          </Trackpoint>
          <Trackpoint>
            <Time>2018-12-30T12:58:04.000Z</Time>
            <Position>
              <LatitudeDegrees>40.76873808167874813079833984375</LatitudeDegrees>
              <LongitudeDegrees>-4.086316265165805816650390625</LongitudeDegrees>
            </Position>
            <AltitudeMeters>1752</AltitudeMeters>
            <DistanceMeters>NAN</DistanceMeters>
          </Trackpoint>
          <Trackpoint>
            <Time>2018-12-30T12:58:05.000Z</Time>
            <Position>
              <LatitudeDegrees>40.7687302865087985992431640625</LatitudeDegrees>
              <LongitudeDegrees>-4.08633462153375148773193359375</LongitudeDegrees>
            </Position>
            <AltitudeMeters>1752</AltitudeMeters>
            <DistanceMeters>NAN</DistanceMeters>
          </Trackpoint>
          <Trackpoint>
            <Time>2018-12-30T12:58:06.000Z</Time>
            <Position>
              <LatitudeDegrees>40.768723078072071075439453125</LatitudeDegrees>
              <LongitudeDegrees>-4.08634744584560394287109375</LongitudeDegrees>
            </Position>
            <AltitudeMeters>1752</AltitudeMeters>
            <DistanceMeters>NAN</DistanceMeters>
          </Trackpoint>
          <Trackpoint>
            <Time>2018-12-30T12:58:07.000Z</Time>
            <Position>
              <LatitudeDegrees>40.7687182165682315826416015625</LatitudeDegrees>
              <LongitudeDegrees>-4.08636312000453472137451171875</LongitudeDegrees>
            </Position>
            <AltitudeMeters>1752</AltitudeMeters>
            <DistanceMeters>NAN</DistanceMeters>
          </Trackpoint>
          <Trackpoint>
            <Time>2018-12-30T12:58:08.000Z</Time>
            <Position>
              <LatitudeDegrees>40.76870840974152088165283203125</LatitudeDegrees>
              <LongitudeDegrees>-4.08637787215411663055419921875</LongitudeDegrees>
            </Position>
            <AltitudeMeters>1752</AltitudeMeters>
            <DistanceMeters>NAN</DistanceMeters>
          </Trackpoint>
          <Trackpoint>
            <Time>2018-12-30T12:58:09.000Z</Time>
            <Position>
              <LatitudeDegrees>40.76869868673384189605712890625</LatitudeDegrees>
              <LongitudeDegrees>-4.0863932110369205474853515625</LongitudeDegrees>
            </Position>
            <AltitudeMeters>1752</AltitudeMeters>
            <DistanceMeters>NAN</DistanceMeters>
          </Trackpoint>
          <Trackpoint>
            <Time>2018-12-30T12:58:10.000Z</Time>
            <Position>
              <LatitudeDegrees>40.76868829317390918731689453125</LatitudeDegrees>
              <LongitudeDegrees>-4.08641072921454906463623046875</LongitudeDegrees>
            </Position>
            <AltitudeMeters>1752</AltitudeMeters>
            <DistanceMeters>NAN</DistanceMeters>
          </Trackpoint>
          <Trackpoint>
            <Time>2018-12-30T12:58:11.000Z</Time>
            <Position>
              <LatitudeDegrees>40.76867915689945220947265625</LatitudeDegrees>
              <LongitudeDegrees>-4.08642522990703582763671875</LongitudeDegrees>
            </Position>
            <AltitudeMeters>1752.199951171875</AltitudeMeters>
            <DistanceMeters>NAN</DistanceMeters>
          </Trackpoint>
          <Trackpoint>
            <Time>2018-12-30T12:58:12.000Z</Time>
            <Position>
              <LatitudeDegrees>40.76867320574820041656494140625</LatitudeDegrees>
              <LongitudeDegrees>-4.0864418260753154754638671875</LongitudeDegrees>
            </Position>
            <AltitudeMeters>1752.199951171875</AltitudeMeters>
            <DistanceMeters>NAN</DistanceMeters>
          </Trackpoint>
          <Trackpoint>
            <Time>2018-12-30T12:58:13.000Z</Time>
            <Position>
              <LatitudeDegrees>40.7686679251492023468017578125</LatitudeDegrees>
              <LongitudeDegrees>-4.08645783551037311553955078125</LongitudeDegrees>
            </Position>
            <AltitudeMeters>1752.199951171875</AltitudeMeters>
            <DistanceMeters>NAN</DistanceMeters>
          </Trackpoint>
          <Trackpoint>
            <Time>2018-12-30T12:58:14.000Z</Time>
            <Position>
              <LatitudeDegrees>40.76866113580763339996337890625</LatitudeDegrees>
              <LongitudeDegrees>-4.08647082746028900146484375</LongitudeDegrees>
            </Position>
            <AltitudeMeters>1752.199951171875</AltitudeMeters>
            <DistanceMeters>NAN</DistanceMeters>
          </Trackpoint>
          <Trackpoint>
            <Time>2018-12-30T12:58:15.000Z</Time>
            <Position>
              <LatitudeDegrees>40.7686503231525421142578125</LatitudeDegrees>
              <LongitudeDegrees>-4.08647694624960422515869140625</LongitudeDegrees>
            </Position>
            <AltitudeMeters>1752.199951171875</AltitudeMeters>
            <DistanceMeters>NAN</DistanceMeters>
          </Trackpoint>
          <Trackpoint>
            <Time>2018-12-30T12:58:16.000Z</Time>
            <Position>
              <LatitudeDegrees>40.76863783411681652069091796875</LatitudeDegrees>
              <LongitudeDegrees>-4.0864854119718074798583984375</LongitudeDegrees>
            </Position>
            <AltitudeMeters>1752.199951171875</AltitudeMeters>
            <DistanceMeters>NAN</DistanceMeters>
          </Trackpoint>
          <Trackpoint>
            <Time>2018-12-30T12:58:17.000Z</Time>
            <Position>
              <LatitudeDegrees>40.76862190850079059600830078125</LatitudeDegrees>
              <LongitudeDegrees>-4.08649454824626445770263671875</LongitudeDegrees>
            </Position>
            <AltitudeMeters>1752.199951171875</AltitudeMeters>
            <DistanceMeters>NAN</DistanceMeters>
          </Trackpoint>
          <Trackpoint>
            <Time>2018-12-30T12:58:18.000Z</Time>
            <Position>
              <LatitudeDegrees>40.76861268840730190277099609375</LatitudeDegrees>
              <LongitudeDegrees>-4.08650611527264118194580078125</LongitudeDegrees>
            </Position>
            <AltitudeMeters>1752.4000244140625</AltitudeMeters>
            <DistanceMeters>NAN</DistanceMeters>
          </Trackpoint>
          <Trackpoint>
            <Time>2018-12-30T12:58:19.000Z</Time>
            <Position>
              <LatitudeDegrees>40.76860313303768634796142578125</LatitudeDegrees>
              <LongitudeDegrees>-4.08651801757514476776123046875</LongitudeDegrees>
            </Position>
            <AltitudeMeters>1752.4000244140625</AltitudeMeters>
            <DistanceMeters>NAN</DistanceMeters>
          </Trackpoint>
          <Trackpoint>
            <Time>2018-12-30T12:58:20.000Z</Time>
            <Position>
              <LatitudeDegrees>40.76859734952449798583984375</LatitudeDegrees>
              <LongitudeDegrees>-4.0865283273160457611083984375</LongitudeDegrees>
            </Position>
            <AltitudeMeters>1752.4000244140625</AltitudeMeters>
            <DistanceMeters>NAN</DistanceMeters>
          </Trackpoint>
          <Trackpoint>
            <Time>2018-12-30T12:58:21.000Z</Time>
            <Position>
              <LatitudeDegrees>40.76859357766807079315185546875</LatitudeDegrees>
              <LongitudeDegrees>-4.08654064871370792388916015625</LongitudeDegrees>
            </Position>
            <AltitudeMeters>1752.4000244140625</AltitudeMeters>
            <DistanceMeters>NAN</DistanceMeters>
          </Trackpoint>
          <Trackpoint>
            <Time>2018-12-30T12:58:22.000Z</Time>
            <Position>
              <LatitudeDegrees>40.768581926822662353515625</LatitudeDegrees>
              <LongitudeDegrees>-4.08655129373073577880859375</LongitudeDegrees>
            </Position>
            <AltitudeMeters>1752.199951171875</AltitudeMeters>
            <DistanceMeters>NAN</DistanceMeters>
          </Trackpoint>
          <Trackpoint>
            <Time>2018-12-30T12:58:23.000Z</Time>
            <Position>
              <LatitudeDegrees>40.7685703597962856292724609375</LatitudeDegrees>
              <LongitudeDegrees>-4.0865631960332393646240234375</LongitudeDegrees>
            </Position>
            <AltitudeMeters>1752.199951171875</AltitudeMeters>
            <DistanceMeters>NAN</DistanceMeters>
          </Trackpoint>
          <Trackpoint>
            <Time>2018-12-30T12:58:24.000Z</Time>
            <Position>
              <LatitudeDegrees>40.76855309307575225830078125</LatitudeDegrees>
              <LongitudeDegrees>-4.086570404469966888427734375</LongitudeDegrees>
            </Position>
            <AltitudeMeters>1752</AltitudeMeters>
            <DistanceMeters>NAN</DistanceMeters>
          </Trackpoint>
          <Trackpoint>
            <Time>2018-12-30T12:58:25.000Z</Time>
            <Position>
              <LatitudeDegrees>40.76853959821164608001708984375</LatitudeDegrees>
              <LongitudeDegrees>-4.0865814685821533203125</LongitudeDegrees>
            </Position>
            <AltitudeMeters>1751.800048828125</AltitudeMeters>
            <DistanceMeters>NAN</DistanceMeters>
          </Trackpoint>
          <Trackpoint>
            <Time>2018-12-30T12:58:26.000Z</Time>
            <Position>
              <LatitudeDegrees>40.76852761209011077880859375</LatitudeDegrees>
              <LongitudeDegrees>-4.08659026958048343658447265625</LongitudeDegrees>
            </Position>
            <AltitudeMeters>1751.800048828125</AltitudeMeters>
            <DistanceMeters>NAN</DistanceMeters>
          </Trackpoint>
          <Trackpoint>
            <Time>2018-12-30T12:58:27.000Z</Time>
            <Position>
              <LatitudeDegrees>40.7685183919966220855712890625</LatitudeDegrees>
              <LongitudeDegrees>-4.08660401590168476104736328125</LongitudeDegrees>
            </Position>
            <AltitudeMeters>1751.800048828125</AltitudeMeters>
            <DistanceMeters>NAN</DistanceMeters>
          </Trackpoint>
          <Trackpoint>
            <Time>2018-12-30T12:58:28.000Z</Time>
            <Position>
              <LatitudeDegrees>40.7685079984366893768310546875</LatitudeDegrees>
              <LongitudeDegrees>-4.08661558292806148529052734375</LongitudeDegrees>
            </Position>
            <AltitudeMeters>1751.800048828125</AltitudeMeters>
            <DistanceMeters>NAN</DistanceMeters>
          </Trackpoint>
          <Trackpoint>
            <Time>2018-12-30T12:58:29.000Z</Time>
            <Position>
              <LatitudeDegrees>40.7684986107051372528076171875</LatitudeDegrees>
              <LongitudeDegrees>-4.0866262279450893402099609375</LongitudeDegrees>
            </Position>
            <AltitudeMeters>1751.800048828125</AltitudeMeters>
            <DistanceMeters>NAN</DistanceMeters>
          </Trackpoint>
          <Trackpoint>
            <Time>2018-12-30T12:58:30.000Z</Time>
            <Position>
              <LatitudeDegrees>40.768492408096790313720703125</LatitudeDegrees>
              <LongitudeDegrees>-4.08663687296211719512939453125</LongitudeDegrees>
            </Position>
            <AltitudeMeters>1752</AltitudeMeters>
            <DistanceMeters>NAN</DistanceMeters>
          </Trackpoint>
          <Trackpoint>
            <Time>2018-12-30T12:58:31.000Z</Time>
            <Position>
              <LatitudeDegrees>40.76848612166941165924072265625</LatitudeDegrees>
              <LongitudeDegrees>-4.086644165217876434326171875</LongitudeDegrees>
            </Position>
            <AltitudeMeters>1752</AltitudeMeters>
            <DistanceMeters>NAN</DistanceMeters>
          </Trackpoint>
          <Trackpoint>
            <Time>2018-12-30T12:58:32.000Z</Time>
            <Position>
              <LatitudeDegrees>40.76848075725138187408447265625</LatitudeDegrees>
              <LongitudeDegrees>-4.0866543911397457122802734375</LongitudeDegrees>
            </Position>
            <AltitudeMeters>1752.199951171875</AltitudeMeters>
            <DistanceMeters>NAN</DistanceMeters>
          </Trackpoint>
          <Trackpoint>
            <Time>2018-12-30T12:58:33.000Z</Time>
            <Position>
              <LatitudeDegrees>40.76847136951982975006103515625</LatitudeDegrees>
              <LongitudeDegrees>-4.08665799535810947418212890625</LongitudeDegrees>
            </Position>
            <AltitudeMeters>1752.4000244140625</AltitudeMeters>
            <DistanceMeters>NAN</DistanceMeters>
          </Trackpoint>
          <Trackpoint>
            <Time>2018-12-30T12:58:34.000Z</Time>
            <Position>
              <LatitudeDegrees>40.76846231706440448760986328125</LatitudeDegrees>
              <LongitudeDegrees>-4.08666688017547130584716796875</LongitudeDegrees>
            </Position>
            <AltitudeMeters>1752.5999755859375</AltitudeMeters>
            <DistanceMeters>NAN</DistanceMeters>
          </Trackpoint>
          <Trackpoint>
            <Time>2018-12-30T12:58:35.000Z</Time>
            <Position>
              <LatitudeDegrees>40.76845251023769378662109375</LatitudeDegrees>
              <LongitudeDegrees>-4.086672998964786529541015625</LongitudeDegrees>
            </Position>
            <AltitudeMeters>1752.5999755859375</AltitudeMeters>
            <DistanceMeters>NAN</DistanceMeters>
          </Trackpoint>
          <Trackpoint>
            <Time>2018-12-30T12:58:36.000Z</Time>
            <Position>
              <LatitudeDegrees>40.76844178140163421630859375</LatitudeDegrees>
              <LongitudeDegrees>-4.0866822190582752227783203125</LongitudeDegrees>
            </Position>
            <AltitudeMeters>1752.800048828125</AltitudeMeters>
            <DistanceMeters>NAN</DistanceMeters>
          </Trackpoint>
          <Trackpoint>
            <Time>2018-12-30T12:58:37.000Z</Time>
            <Position>
              <LatitudeDegrees>40.7684345729649066925048828125</LatitudeDegrees>
              <LongitudeDegrees>-4.08669269643723964691162109375</LongitudeDegrees>
            </Position>
            <AltitudeMeters>1752.800048828125</AltitudeMeters>
            <DistanceMeters>NAN</DistanceMeters>
          </Trackpoint>
          <Trackpoint>
            <Time>2018-12-30T12:58:38.000Z</Time>
            <Position>
              <LatitudeDegrees>40.76842459850013256072998046875</LatitudeDegrees>
              <LongitudeDegrees>-4.08670241944491863250732421875</LongitudeDegrees>
            </Position>
            <AltitudeMeters>1752.800048828125</AltitudeMeters>
            <DistanceMeters>NAN</DistanceMeters>
          </Trackpoint>
          <Trackpoint>
            <Time>2018-12-30T12:58:39.000Z</Time>
            <Position>
              <LatitudeDegrees>40.7684161327779293060302734375</LatitudeDegrees>
              <LongitudeDegrees>-4.08671281300485134124755859375</LongitudeDegrees>
            </Position>
            <AltitudeMeters>1752.800048828125</AltitudeMeters>
            <DistanceMeters>NAN</DistanceMeters>
          </Trackpoint>
          <Trackpoint>
            <Time>2018-12-30T12:58:40.000Z</Time>
            <Position>
              <LatitudeDegrees>40.76840783469378948211669921875</LatitudeDegrees>
              <LongitudeDegrees>-4.08672153018414974212646484375</LongitudeDegrees>
            </Position>
            <AltitudeMeters>1752.800048828125</AltitudeMeters>
            <DistanceMeters>NAN</DistanceMeters>
          </Trackpoint>
          <Trackpoint>
            <Time>2018-12-30T12:58:41.000Z</Time>
            <Position>
              <LatitudeDegrees>40.76839878223836421966552734375</LatitudeDegrees>
              <LongitudeDegrees>-4.08673410303890705108642578125</LongitudeDegrees>
            </Position>
            <AltitudeMeters>1752.800048828125</AltitudeMeters>
            <DistanceMeters>NAN</DistanceMeters>
          </Trackpoint>
          <Trackpoint>
            <Time>2018-12-30T12:58:42.000Z</Time>
            <Position>
              <LatitudeDegrees>40.76839040033519268035888671875</LatitudeDegrees>
              <LongitudeDegrees>-4.0867452509701251983642578125</LongitudeDegrees>
            </Position>
            <AltitudeMeters>1752.800048828125</AltitudeMeters>
            <DistanceMeters>NAN</DistanceMeters>
          </Trackpoint>
          <Trackpoint>
            <Time>2018-12-30T12:58:43.000Z</Time>
            <Position>
              <LatitudeDegrees>40.7683859579265117645263671875</LatitudeDegrees>
              <LongitudeDegrees>-4.08675589598715305328369140625</LongitudeDegrees>
            </Position>
            <AltitudeMeters>1753</AltitudeMeters>
            <DistanceMeters>NAN</DistanceMeters>
          </Trackpoint>
          <Trackpoint>
            <Time>2018-12-30T12:58:44.000Z</Time>
            <Position>
              <LatitudeDegrees>40.76838185079395771026611328125</LatitudeDegrees>
              <LongitudeDegrees>-4.08676343970000743865966796875</LongitudeDegrees>
            </Position>
            <AltitudeMeters>1753</AltitudeMeters>
            <DistanceMeters>NAN</DistanceMeters>
          </Trackpoint>
          <Trackpoint>
            <Time>2018-12-30T12:58:45.000Z</Time>
            <Position>
              <LatitudeDegrees>40.76837514527142047882080078125</LatitudeDegrees>
              <LongitudeDegrees>-4.0867693908512592315673828125</LongitudeDegrees>
            </Position>
            <AltitudeMeters>1753.199951171875</AltitudeMeters>
            <DistanceMeters>NAN</DistanceMeters>
          </Trackpoint>
          <Trackpoint>
            <Time>2018-12-30T12:58:46.000Z</Time>
            <Position>
              <LatitudeDegrees>40.76836659573018550872802734375</LatitudeDegrees>
              <LongitudeDegrees>-4.0867764316499233245849609375</LongitudeDegrees>
            </Position>
            <AltitudeMeters>1753.199951171875</AltitudeMeters>
            <DistanceMeters>NAN</DistanceMeters>
          </Trackpoint>
          <Trackpoint>
            <Time>2018-12-30T12:58:47.000Z</Time>
            <Position>
              <LatitudeDegrees>40.76835704036056995391845703125</LatitudeDegrees>
              <LongitudeDegrees>-4.08678439445793628692626953125</LongitudeDegrees>
            </Position>
            <AltitudeMeters>1753.199951171875</AltitudeMeters>
            <DistanceMeters>NAN</DistanceMeters>
          </Trackpoint>
          <Trackpoint>
            <Time>2018-12-30T12:58:48.000Z</Time>
            <Position>
              <LatitudeDegrees>40.76834480278193950653076171875</LatitudeDegrees>
              <LongitudeDegrees>-4.08679327927529811859130859375</LongitudeDegrees>
            </Position>
            <AltitudeMeters>1753.4000244140625</AltitudeMeters>
            <DistanceMeters>NAN</DistanceMeters>
          </Trackpoint>
          <Trackpoint>
            <Time>2018-12-30T12:58:49.000Z</Time>
            <Position>
              <LatitudeDegrees>40.7683370076119899749755859375</LatitudeDegrees>
              <LongitudeDegrees>-4.08680082298815250396728515625</LongitudeDegrees>
            </Position>
            <AltitudeMeters>1753.4000244140625</AltitudeMeters>
            <DistanceMeters>NAN</DistanceMeters>
          </Trackpoint>
          <Trackpoint>
            <Time>2018-12-30T12:58:50.000Z</Time>
            <Position>
              <LatitudeDegrees>40.7683323137462139129638671875</LatitudeDegrees>
              <LongitudeDegrees>-4.086809791624546051025390625</LongitudeDegrees>
            </Position>
            <AltitudeMeters>1753.4000244140625</AltitudeMeters>
            <DistanceMeters>NAN</DistanceMeters>
          </Trackpoint>
          <Trackpoint>
            <Time>2018-12-30T12:58:51.000Z</Time>
            <Position>
              <LatitudeDegrees>40.76831010170280933380126953125</LatitudeDegrees>
              <LongitudeDegrees>-4.08681306056678295135498046875</LongitudeDegrees>
            </Position>
            <AltitudeMeters>1753.4000244140625</AltitudeMeters>
            <DistanceMeters>NAN</DistanceMeters>
          </Trackpoint>
          <Trackpoint>
            <Time>2018-12-30T12:58:52.000Z</Time>
            <Position>
              <LatitudeDegrees>40.76829317025840282440185546875</LatitudeDegrees>
              <LongitudeDegrees>-4.0868126414716243743896484375</LongitudeDegrees>
            </Position>
            <AltitudeMeters>1753.199951171875</AltitudeMeters>
            <DistanceMeters>NAN</DistanceMeters>
          </Trackpoint>
          <Trackpoint>
            <Time>2018-12-30T12:58:53.000Z</Time>
            <Position>
              <LatitudeDegrees>40.76827791519463062286376953125</LatitudeDegrees>
              <LongitudeDegrees>-4.08681138418614864349365234375</LongitudeDegrees>
            </Position>
            <AltitudeMeters>1753</AltitudeMeters>
            <DistanceMeters>NAN</DistanceMeters>
          </Trackpoint>
          <Trackpoint>
            <Time>2018-12-30T12:58:54.000Z</Time>
            <Position>
              <LatitudeDegrees>40.768261067569255828857421875</LatitudeDegrees>
              <LongitudeDegrees>-4.08681188710033893585205078125</LongitudeDegrees>
            </Position>
            <AltitudeMeters>1753.199951171875</AltitudeMeters>
            <DistanceMeters>NAN</DistanceMeters>
          </Trackpoint>
          <Trackpoint>
            <Time>2018-12-30T12:58:55.000Z</Time>
            <Position>
              <LatitudeDegrees>40.76824841089546680450439453125</LatitudeDegrees>
              <LongitudeDegrees>-4.08680702559649944305419921875</LongitudeDegrees>
            </Position>
            <AltitudeMeters>1753.4000244140625</AltitudeMeters>
            <DistanceMeters>NAN</DistanceMeters>
          </Trackpoint>
          <Trackpoint>
            <Time>2018-12-30T12:58:56.000Z</Time>
            <Position>
              <LatitudeDegrees>40.76823131181299686431884765625</LatitudeDegrees>
              <LongitudeDegrees>-4.08680786378681659698486328125</LongitudeDegrees>
            </Position>
            <AltitudeMeters>1753.5999755859375</AltitudeMeters>
            <DistanceMeters>NAN</DistanceMeters>
          </Trackpoint>
          <Trackpoint>
            <Time>2018-12-30T12:58:57.000Z</Time>
            <Position>
              <LatitudeDegrees>40.76821873895823955535888671875</LatitudeDegrees>
              <LongitudeDegrees>-4.08680803142488002777099609375</LongitudeDegrees>
            </Position>
            <AltitudeMeters>1753.5999755859375</AltitudeMeters>
            <DistanceMeters>NAN</DistanceMeters>
          </Trackpoint>
          <Trackpoint>
            <Time>2018-12-30T12:58:58.000Z</Time>
            <Position>
              <LatitudeDegrees>40.7682069204747676849365234375</LatitudeDegrees>
              <LongitudeDegrees>-4.08680937252938747406005859375</LongitudeDegrees>
            </Position>
            <AltitudeMeters>1753.800048828125</AltitudeMeters>
            <DistanceMeters>NAN</DistanceMeters>
          </Trackpoint>
          <Trackpoint>
            <Time>2018-12-30T12:58:59.000Z</Time>
            <Position>
              <LatitudeDegrees>40.76818889938294887542724609375</LatitudeDegrees>
              <LongitudeDegrees>-4.086809121072292327880859375</LongitudeDegrees>
            </Position>
            <AltitudeMeters>1753.800048828125</AltitudeMeters>
            <DistanceMeters>NAN</DistanceMeters>
          </Trackpoint>
          <Trackpoint>
            <Time>2018-12-30T12:59:00.000Z</Time>
            <Position>
              <LatitudeDegrees>40.7681755721569061279296875</LatitudeDegrees>
              <LongitudeDegrees>-4.0868089534342288970947265625</LongitudeDegrees>
            </Position>
            <AltitudeMeters>1754</AltitudeMeters>
            <DistanceMeters>NAN</DistanceMeters>
          </Trackpoint>
          <Trackpoint>
            <Time>2018-12-30T12:59:01.000Z</Time>
            <Position>
              <LatitudeDegrees>40.76816744171082973480224609375</LatitudeDegrees>
              <LongitudeDegrees>-4.0868052653968334197998046875</LongitudeDegrees>
            </Position>
            <AltitudeMeters>1754.199951171875</AltitudeMeters>
            <DistanceMeters>NAN</DistanceMeters>
          </Trackpoint>
          <Trackpoint>
            <Time>2018-12-30T12:59:02.000Z</Time>
            <Position>
              <LatitudeDegrees>40.768158137798309326171875</LatitudeDegrees>
              <LongitudeDegrees>-4.0868049301207065582275390625</LongitudeDegrees>
            </Position>
            <AltitudeMeters>1754.199951171875</AltitudeMeters>
            <DistanceMeters>NAN</DistanceMeters>
          </Trackpoint>
          <Trackpoint>
            <Time>2018-12-30T12:59:03.000Z</Time>
            <Position>
              <LatitudeDegrees>40.76814447529613971710205078125</LatitudeDegrees>
              <LongitudeDegrees>-4.0868081152439117431640625</LongitudeDegrees>
            </Position>
            <AltitudeMeters>1754.4000244140625</AltitudeMeters>
            <DistanceMeters>NAN</DistanceMeters>
          </Trackpoint>
          <Trackpoint>
            <Time>2018-12-30T12:59:04.000Z</Time>
            <Position>
              <LatitudeDegrees>40.768135674297809600830078125</LatitudeDegrees>
              <LongitudeDegrees>-4.08681004308164119720458984375</LongitudeDegrees>
            </Position>
            <AltitudeMeters>1754.4000244140625</AltitudeMeters>
            <DistanceMeters>NAN</DistanceMeters>
          </Trackpoint>
          <Trackpoint>
            <Time>2018-12-30T12:59:05.000Z</Time>
            <Position>
              <LatitudeDegrees>40.7681214250624179840087890625</LatitudeDegrees>
              <LongitudeDegrees>-4.08681222237646579742431640625</LongitudeDegrees>
            </Position>
            <AltitudeMeters>1754.4000244140625</AltitudeMeters>
            <DistanceMeters>NAN</DistanceMeters>
          </Trackpoint>
          <Trackpoint>
            <Time>2018-12-30T12:59:06.000Z</Time>
            <Position>
              <LatitudeDegrees>40.76810541562736034393310546875</LatitudeDegrees>
              <LongitudeDegrees>-4.08681104891002178192138671875</LongitudeDegrees>
            </Position>
            <AltitudeMeters>1754.4000244140625</AltitudeMeters>
            <DistanceMeters>NAN</DistanceMeters>
          </Trackpoint>
          <Trackpoint>
            <Time>2018-12-30T12:59:07.000Z</Time>
            <Position>
              <LatitudeDegrees>40.768077336251735687255859375</LatitudeDegrees>
              <LongitudeDegrees>-4.086819179356098175048828125</LongitudeDegrees>
            </Position>
            <AltitudeMeters>1754.5999755859375</AltitudeMeters>
            <DistanceMeters>NAN</DistanceMeters>
          </Trackpoint>
          <Trackpoint>
            <Time>2018-12-30T12:59:08.000Z</Time>
            <Position>
              <LatitudeDegrees>40.76805017888545989990234375</LatitudeDegrees>
              <LongitudeDegrees>-4.08682060427963733673095703125</LongitudeDegrees>
            </Position>
            <AltitudeMeters>1754.5999755859375</AltitudeMeters>
            <DistanceMeters>NAN</DistanceMeters>
          </Trackpoint>
          <Trackpoint>
            <Time>2018-12-30T12:59:09.000Z</Time>
            <Position>
              <LatitudeDegrees>40.768024027347564697265625</LatitudeDegrees>
              <LongitudeDegrees>-4.08682043664157390594482421875</LongitudeDegrees>
            </Position>
            <AltitudeMeters>1754.5999755859375</AltitudeMeters>
            <DistanceMeters>NAN</DistanceMeters>
          </Trackpoint>
          <Trackpoint>
            <Time>2018-12-30T12:59:10.000Z</Time>
            <Position>
              <LatitudeDegrees>40.76800583861768245697021484375</LatitudeDegrees>
              <LongitudeDegrees>-4.08682026900351047515869140625</LongitudeDegrees>
            </Position>
            <AltitudeMeters>1754.5999755859375</AltitudeMeters>
            <DistanceMeters>NAN</DistanceMeters>
          </Trackpoint>
          <Trackpoint>
            <Time>2018-12-30T12:59:11.000Z</Time>
            <Position>
              <LatitudeDegrees>40.76799158938229084014892578125</LatitudeDegrees>
              <LongitudeDegrees>-4.08681926317512989044189453125</LongitudeDegrees>
            </Position>
            <AltitudeMeters>1754.800048828125</AltitudeMeters>
            <DistanceMeters>NAN</DistanceMeters>
          </Trackpoint>
          <Trackpoint>
            <Time>2018-12-30T12:59:12.000Z</Time>
            <Position>
              <LatitudeDegrees>40.76798169873654842376708984375</LatitudeDegrees>
              <LongitudeDegrees>-4.08681708388030529022216796875</LongitudeDegrees>
            </Position>
            <AltitudeMeters>1754.800048828125</AltitudeMeters>
            <DistanceMeters>NAN</DistanceMeters>
          </Trackpoint>
          <Trackpoint>
            <Time>2018-12-30T12:59:13.000Z</Time>
            <Position>
              <LatitudeDegrees>40.76796711422502994537353515625</LatitudeDegrees>
              <LongitudeDegrees>-4.08681415021419525146484375</LongitudeDegrees>
            </Position>
            <AltitudeMeters>1755</AltitudeMeters>
            <DistanceMeters>NAN</DistanceMeters>
          </Trackpoint>
          <Trackpoint>
            <Time>2018-12-30T12:59:14.000Z</Time>
            <Position>
              <LatitudeDegrees>40.76795554719865322113037109375</LatitudeDegrees>
              <LongitudeDegrees>-4.08681540749967098236083984375</LongitudeDegrees>
            </Position>
            <AltitudeMeters>1755.199951171875</AltitudeMeters>
            <DistanceMeters>NAN</DistanceMeters>
          </Trackpoint>
          <Trackpoint>
            <Time>2018-12-30T12:59:15.000Z</Time>
            <Position>
              <LatitudeDegrees>40.76794196851551532745361328125</LatitudeDegrees>
              <LongitudeDegrees>-4.0868166647851467132568359375</LongitudeDegrees>
            </Position>
            <AltitudeMeters>1755.4000244140625</AltitudeMeters>
            <DistanceMeters>NAN</DistanceMeters>
          </Trackpoint>
          <Trackpoint>
            <Time>2018-12-30T12:59:16.000Z</Time>
            <Position>
              <LatitudeDegrees>40.76792486943304538726806640625</LatitudeDegrees>
              <LongitudeDegrees>-4.08681792207062244415283203125</LongitudeDegrees>
            </Position>
            <AltitudeMeters>1755.4000244140625</AltitudeMeters>
            <DistanceMeters>NAN</DistanceMeters>
          </Trackpoint>
          <Trackpoint>
            <Time>2018-12-30T12:59:17.000Z</Time>
            <Position>
              <LatitudeDegrees>40.76790844090282917022705078125</LatitudeDegrees>
              <LongitudeDegrees>-4.08681859262287616729736328125</LongitudeDegrees>
            </Position>
            <AltitudeMeters>1755.5999755859375</AltitudeMeters>
            <DistanceMeters>NAN</DistanceMeters>
          </Trackpoint>
          <Trackpoint>
            <Time>2018-12-30T12:59:18.000Z</Time>
            <Position>
              <LatitudeDegrees>40.76788547448813915252685546875</LatitudeDegrees>
              <LongitudeDegrees>-4.08682353794574737548828125</LongitudeDegrees>
            </Position>
            <AltitudeMeters>1755.5999755859375</AltitudeMeters>
            <DistanceMeters>NAN</DistanceMeters>
          </Trackpoint>
          <Trackpoint>
            <Time>2018-12-30T12:59:19.000Z</Time>
            <Position>
              <LatitudeDegrees>40.76786938123404979705810546875</LatitudeDegrees>
              <LongitudeDegrees>-4.08682362176477909088134765625</LongitudeDegrees>
            </Position>
            <AltitudeMeters>1755.5999755859375</AltitudeMeters>
            <DistanceMeters>NAN</DistanceMeters>
          </Trackpoint>
          <Trackpoint>
            <Time>2018-12-30T12:59:20.000Z</Time>
            <Position>
              <LatitudeDegrees>40.7678542099893093109130859375</LatitudeDegrees>
              <LongitudeDegrees>-4.08682596869766712188720703125</LongitudeDegrees>
            </Position>
            <AltitudeMeters>1755.5999755859375</AltitudeMeters>
            <DistanceMeters>NAN</DistanceMeters>
          </Trackpoint>
          <Trackpoint>
            <Time>2018-12-30T12:59:21.000Z</Time>
            <Position>
              <LatitudeDegrees>40.7678387872874736785888671875</LatitudeDegrees>
              <LongitudeDegrees>-4.0868280641734600067138671875</LongitudeDegrees>
            </Position>
            <AltitudeMeters>1755.5999755859375</AltitudeMeters>
            <DistanceMeters>NAN</DistanceMeters>
          </Trackpoint>
          <Trackpoint>
            <Time>2018-12-30T12:59:22.000Z</Time>
            <Position>
              <LatitudeDegrees>40.7678206823766231536865234375</LatitudeDegrees>
              <LongitudeDegrees>-4.08683066256344318389892578125</LongitudeDegrees>
            </Position>
            <AltitudeMeters>1755.4000244140625</AltitudeMeters>
            <DistanceMeters>NAN</DistanceMeters>
          </Trackpoint>
          <Trackpoint>
            <Time>2018-12-30T12:59:23.000Z</Time>
            <Position>
              <LatitudeDegrees>40.76780140399932861328125</LatitudeDegrees>
              <LongitudeDegrees>-4.08683518879115581512451171875</LongitudeDegrees>
            </Position>
            <AltitudeMeters>1755.4000244140625</AltitudeMeters>
            <DistanceMeters>NAN</DistanceMeters>
          </Trackpoint>
          <Trackpoint>
            <Time>2018-12-30T12:59:24.000Z</Time>
            <Position>
              <LatitudeDegrees>40.767784304916858673095703125</LatitudeDegrees>
              <LongitudeDegrees>-4.08683820627629756927490234375</LongitudeDegrees>
            </Position>
            <AltitudeMeters>1755.4000244140625</AltitudeMeters>
            <DistanceMeters>NAN</DistanceMeters>
          </Trackpoint>
          <Trackpoint>
            <Time>2018-12-30T12:59:25.000Z</Time>
            <Position>
              <LatitudeDegrees>40.76777013950049877166748046875</LatitudeDegrees>
              <LongitudeDegrees>-4.08683937974274158477783203125</LongitudeDegrees>
            </Position>
            <AltitudeMeters>1755.199951171875</AltitudeMeters>
            <DistanceMeters>NAN</DistanceMeters>
          </Trackpoint>
          <Trackpoint>
            <Time>2018-12-30T12:59:26.000Z</Time>
            <Position>
              <LatitudeDegrees>40.767752788960933685302734375</LatitudeDegrees>
              <LongitudeDegrees>-4.0868441574275493621826171875</LongitudeDegrees>
            </Position>
            <AltitudeMeters>1755.199951171875</AltitudeMeters>
            <DistanceMeters>NAN</DistanceMeters>
          </Trackpoint>
          <Trackpoint>
            <Time>2018-12-30T12:59:27.000Z</Time>
            <Position>
              <LatitudeDegrees>40.767738707363605499267578125</LatitudeDegrees>
              <LongitudeDegrees>-4.08684365451335906982421875</LongitudeDegrees>
            </Position>
            <AltitudeMeters>1755.199951171875</AltitudeMeters>
            <DistanceMeters>NAN</DistanceMeters>
          </Trackpoint>
          <Trackpoint>
            <Time>2018-12-30T12:59:28.000Z</Time>
            <Position>
              <LatitudeDegrees>40.7677170820534229278564453125</LatitudeDegrees>
              <LongitudeDegrees>-4.08684608526527881622314453125</LongitudeDegrees>
            </Position>
            <AltitudeMeters>1755.199951171875</AltitudeMeters>
            <DistanceMeters>NAN</DistanceMeters>
          </Trackpoint>
          <Trackpoint>
            <Time>2018-12-30T12:59:29.000Z</Time>
            <Position>
              <LatitudeDegrees>40.767704509198665618896484375</LatitudeDegrees>
              <LongitudeDegrees>-4.08684742636978626251220703125</LongitudeDegrees>
            </Position>
            <AltitudeMeters>1755.199951171875</AltitudeMeters>
            <DistanceMeters>NAN</DistanceMeters>
          </Trackpoint>
          <Trackpoint>
            <Time>2018-12-30T12:59:30.000Z</Time>
            <Position>
              <LatitudeDegrees>40.7676892541348934173583984375</LatitudeDegrees>
              <LongitudeDegrees>-4.0868483483791351318359375</LongitudeDegrees>
            </Position>
            <AltitudeMeters>1755.4000244140625</AltitudeMeters>
            <DistanceMeters>NAN</DistanceMeters>
          </Trackpoint>
          <Trackpoint>
            <Time>2018-12-30T12:59:31.000Z</Time>
            <Position>
              <LatitudeDegrees>40.76767542399466037750244140625</LatitudeDegrees>
              <LongitudeDegrees>-4.08684927038848400115966796875</LongitudeDegrees>
            </Position>
            <AltitudeMeters>1755.4000244140625</AltitudeMeters>
            <DistanceMeters>NAN</DistanceMeters>
          </Trackpoint>
          <Trackpoint>
            <Time>2018-12-30T12:59:32.000Z</Time>
            <Position>
              <LatitudeDegrees>40.76765564270317554473876953125</LatitudeDegrees>
              <LongitudeDegrees>-4.08685295842587947845458984375</LongitudeDegrees>
            </Position>
            <AltitudeMeters>1755.5999755859375</AltitudeMeters>
            <DistanceMeters>NAN</DistanceMeters>
          </Trackpoint>
          <Trackpoint>
            <Time>2018-12-30T12:59:33.000Z</Time>
            <Position>
              <LatitudeDegrees>40.76764290221035480499267578125</LatitudeDegrees>
              <LongitudeDegrees>-4.08685228787362575531005859375</LongitudeDegrees>
            </Position>
            <AltitudeMeters>1756.199951171875</AltitudeMeters>
            <DistanceMeters>NAN</DistanceMeters>
          </Trackpoint>
          <Trackpoint>
            <Time>2018-12-30T12:59:34.000Z</Time>
            <Position>
              <LatitudeDegrees>40.76762714423239231109619140625</LatitudeDegrees>
              <LongitudeDegrees>-4.0868510305881500244140625</LongitudeDegrees>
            </Position>
            <AltitudeMeters>1756.5999755859375</AltitudeMeters>
            <DistanceMeters>NAN</DistanceMeters>
          </Trackpoint>
          <Trackpoint>
            <Time>2018-12-30T12:59:35.000Z</Time>
            <Position>
              <LatitudeDegrees>40.76760903932154178619384765625</LatitudeDegrees>
              <LongitudeDegrees>-4.08684960566461086273193359375</LongitudeDegrees>
            </Position>
            <AltitudeMeters>1757</AltitudeMeters>
            <DistanceMeters>NAN</DistanceMeters>
          </Trackpoint>
          <Trackpoint>
            <Time>2018-12-30T12:59:36.000Z</Time>
            <Position>
              <LatitudeDegrees>40.767592526972293853759765625</LatitudeDegrees>
              <LongitudeDegrees>-4.086849354207515716552734375</LongitudeDegrees>
            </Position>
            <AltitudeMeters>1757</AltitudeMeters>
            <DistanceMeters>NAN</DistanceMeters>
          </Trackpoint>
          <Trackpoint>
            <Time>2018-12-30T12:59:37.000Z</Time>
            <Position>
              <LatitudeDegrees>40.76757484115660190582275390625</LatitudeDegrees>
              <LongitudeDegrees>-4.08684901893138885498046875</LongitudeDegrees>
            </Position>
            <AltitudeMeters>1757.199951171875</AltitudeMeters>
            <DistanceMeters>NAN</DistanceMeters>
          </Trackpoint>
          <Trackpoint>
            <Time>2018-12-30T12:59:38.000Z</Time>
            <Position>
              <LatitudeDegrees>40.76755790971219539642333984375</LatitudeDegrees>
              <LongitudeDegrees>-4.086848683655261993408203125</LongitudeDegrees>
            </Position>
            <AltitudeMeters>1757</AltitudeMeters>
            <DistanceMeters>NAN</DistanceMeters>
          </Trackpoint>
          <Trackpoint>
            <Time>2018-12-30T12:59:39.000Z</Time>
            <Position>
              <LatitudeDegrees>40.7675403915345668792724609375</LatitudeDegrees>
              <LongitudeDegrees>-4.0868478454649448394775390625</LongitudeDegrees>
            </Position>
            <AltitudeMeters>1757</AltitudeMeters>
            <DistanceMeters>NAN</DistanceMeters>
          </Trackpoint>
          <Trackpoint>
            <Time>2018-12-30T12:59:40.000Z</Time>
            <Position>
              <LatitudeDegrees>40.767528153955936431884765625</LatitudeDegrees>
              <LongitudeDegrees>-4.08684440888464450836181640625</LongitudeDegrees>
            </Position>
            <AltitudeMeters>1757.199951171875</AltitudeMeters>
            <DistanceMeters>NAN</DistanceMeters>
          </Trackpoint>
          <Trackpoint>
            <Time>2018-12-30T12:59:41.000Z</Time>
            <Position>
              <LatitudeDegrees>40.7675179280340671539306640625</LatitudeDegrees>
              <LongitudeDegrees>-4.08684072084724903106689453125</LongitudeDegrees>
            </Position>
            <AltitudeMeters>1757.199951171875</AltitudeMeters>
            <DistanceMeters>NAN</DistanceMeters>
          </Trackpoint>
          <Trackpoint>
            <Time>2018-12-30T12:59:42.000Z</Time>
            <Position>
              <LatitudeDegrees>40.767499990761280059814453125</LatitudeDegrees>
              <LongitudeDegrees>-4.086837284266948699951171875</LongitudeDegrees>
            </Position>
            <AltitudeMeters>1757.199951171875</AltitudeMeters>
            <DistanceMeters>NAN</DistanceMeters>
          </Trackpoint>
          <Trackpoint>
            <Time>2018-12-30T12:59:43.000Z</Time>
            <Position>
              <LatitudeDegrees>40.76748423278331756591796875</LatitudeDegrees>
              <LongitudeDegrees>-4.08683569170534610748291015625</LongitudeDegrees>
            </Position>
            <AltitudeMeters>1757.199951171875</AltitudeMeters>
            <DistanceMeters>NAN</DistanceMeters>
          </Trackpoint>
          <Trackpoint>
            <Time>2018-12-30T12:59:44.000Z</Time>
            <Position>
              <LatitudeDegrees>40.7674726657569408416748046875</LatitudeDegrees>
              <LongitudeDegrees>-4.0868295729160308837890625</LongitudeDegrees>
            </Position>
            <AltitudeMeters>1757.199951171875</AltitudeMeters>
            <DistanceMeters>NAN</DistanceMeters>
          </Trackpoint>
          <Trackpoint>
            <Time>2018-12-30T12:59:45.000Z</Time>
            <Position>
              <LatitudeDegrees>40.767463780939579010009765625</LatitudeDegrees>
              <LongitudeDegrees>-4.086823202669620513916015625</LongitudeDegrees>
            </Position>
            <AltitudeMeters>1757.199951171875</AltitudeMeters>
            <DistanceMeters>NAN</DistanceMeters>
          </Trackpoint>
          <Trackpoint>
            <Time>2018-12-30T12:59:46.000Z</Time>
            <Position>
              <LatitudeDegrees>40.7674535550177097320556640625</LatitudeDegrees>
              <LongitudeDegrees>-4.08681993372738361358642578125</LongitudeDegrees>
            </Position>
            <AltitudeMeters>1757.199951171875</AltitudeMeters>
            <DistanceMeters>NAN</DistanceMeters>
          </Trackpoint>
          <Trackpoint>
            <Time>2018-12-30T12:59:47.000Z</Time>
            <Position>
              <LatitudeDegrees>40.767438299953937530517578125</LatitudeDegrees>
              <LongitudeDegrees>-4.08682093955576419830322265625</LongitudeDegrees>
            </Position>
            <AltitudeMeters>1757.199951171875</AltitudeMeters>
            <DistanceMeters>NAN</DistanceMeters>
          </Trackpoint>
          <Trackpoint>
            <Time>2018-12-30T12:59:48.000Z</Time>
            <Position>
              <LatitudeDegrees>40.767422206699848175048828125</LatitudeDegrees>
              <LongitudeDegrees>-4.08682110719382762908935546875</LongitudeDegrees>
            </Position>
            <AltitudeMeters>1757.199951171875</AltitudeMeters>
            <DistanceMeters>NAN</DistanceMeters>
          </Trackpoint>
          <Trackpoint>
            <Time>2018-12-30T12:59:49.000Z</Time>
            <Position>
              <LatitudeDegrees>40.76740770600736141204833984375</LatitudeDegrees>
              <LongitudeDegrees>-4.0868180058896541595458984375</LongitudeDegrees>
            </Position>
            <AltitudeMeters>1757.4000244140625</AltitudeMeters>
            <DistanceMeters>NAN</DistanceMeters>
          </Trackpoint>
          <Trackpoint>
            <Time>2018-12-30T12:59:50.000Z</Time>
            <Position>
              <LatitudeDegrees>40.76740049757063388824462890625</LatitudeDegrees>
              <LongitudeDegrees>-4.08681239001452922821044921875</LongitudeDegrees>
            </Position>
            <AltitudeMeters>1757.4000244140625</AltitudeMeters>
            <DistanceMeters>NAN</DistanceMeters>
          </Trackpoint>
          <Trackpoint>
            <Time>2018-12-30T12:59:51.000Z</Time>
            <Position>
              <LatitudeDegrees>40.7673908583819866180419921875</LatitudeDegrees>
              <LongitudeDegrees>-4.08681104891002178192138671875</LongitudeDegrees>
            </Position>
            <AltitudeMeters>1757.4000244140625</AltitudeMeters>
            <DistanceMeters>NAN</DistanceMeters>
          </Trackpoint>
          <Trackpoint>
            <Time>2018-12-30T12:59:52.000Z</Time>
            <Position>
              <LatitudeDegrees>40.76738096773624420166015625</LatitudeDegrees>
              <LongitudeDegrees>-4.08680903725326061248779296875</LongitudeDegrees>
            </Position>
            <AltitudeMeters>1757.5999755859375</AltitudeMeters>
            <DistanceMeters>NAN</DistanceMeters>
          </Trackpoint>
          <Trackpoint>
            <Time>2018-12-30T12:59:53.000Z</Time>
            <Position>
              <LatitudeDegrees>40.76736219227313995361328125</LatitudeDegrees>
              <LongitudeDegrees>-4.08680736087262630462646484375</LongitudeDegrees>
            </Position>
            <AltitudeMeters>1757.5999755859375</AltitudeMeters>
            <DistanceMeters>NAN</DistanceMeters>
          </Trackpoint>
          <Trackpoint>
            <Time>2018-12-30T12:59:54.000Z</Time>
            <Position>
              <LatitudeDegrees>40.7673472724854946136474609375</LatitudeDegrees>
              <LongitudeDegrees>-4.08680367283523082733154296875</LongitudeDegrees>
            </Position>
            <AltitudeMeters>1757.5999755859375</AltitudeMeters>
            <DistanceMeters>NAN</DistanceMeters>
          </Trackpoint>
          <Trackpoint>
            <Time>2018-12-30T12:59:55.000Z</Time>
            <Position>
              <LatitudeDegrees>40.7673284970223903656005859375</LatitudeDegrees>
              <LongitudeDegrees>-4.08679545857012271881103515625</LongitudeDegrees>
            </Position>
            <AltitudeMeters>1757.800048828125</AltitudeMeters>
            <DistanceMeters>NAN</DistanceMeters>
          </Trackpoint>
          <Trackpoint>
            <Time>2018-12-30T12:59:56.000Z</Time>
            <Position>
              <LatitudeDegrees>40.76731123030185699462890625</LatitudeDegrees>
              <LongitudeDegrees>-4.08678975887596607208251953125</LongitudeDegrees>
            </Position>
            <AltitudeMeters>1757.800048828125</AltitudeMeters>
            <DistanceMeters>NAN</DistanceMeters>
          </Trackpoint>
          <Trackpoint>
            <Time>2018-12-30T12:59:57.000Z</Time>
            <Position>
              <LatitudeDegrees>40.767296813428401947021484375</LatitudeDegrees>
              <LongitudeDegrees>-4.0867864899337291717529296875</LongitudeDegrees>
            </Position>
            <AltitudeMeters>1758</AltitudeMeters>
            <DistanceMeters>NAN</DistanceMeters>
          </Trackpoint>
          <Trackpoint>
            <Time>2018-12-30T12:59:58.000Z</Time>
            <Position>
              <LatitudeDegrees>40.767279379069805145263671875</LatitudeDegrees>
              <LongitudeDegrees>-4.08678598701953887939453125</LongitudeDegrees>
            </Position>
            <AltitudeMeters>1758</AltitudeMeters>
            <DistanceMeters>NAN</DistanceMeters>
          </Trackpoint>
          <Trackpoint>
            <Time>2018-12-30T12:59:59.000Z</Time>
            <Position>
              <LatitudeDegrees>40.767257250845432281494140625</LatitudeDegrees>
              <LongitudeDegrees>-4.08678791485726833343505859375</LongitudeDegrees>
            </Position>
            <AltitudeMeters>1758.199951171875</AltitudeMeters>
            <DistanceMeters>NAN</DistanceMeters>
          </Trackpoint>
          <Trackpoint>
            <Time>2018-12-30T13:00:00.000Z</Time>
            <Position>
              <LatitudeDegrees>40.76724057085812091827392578125</LatitudeDegrees>
              <LongitudeDegrees>-4.086786322295665740966796875</LongitudeDegrees>
            </Position>
            <AltitudeMeters>1758.199951171875</AltitudeMeters>
            <DistanceMeters>NAN</DistanceMeters>
          </Trackpoint>
          <Trackpoint>
            <Time>2018-12-30T13:00:01.000Z</Time>
            <Position>
              <LatitudeDegrees>40.76722984202206134796142578125</LatitudeDegrees>
              <LongitudeDegrees>-4.08678255043923854827880859375</LongitudeDegrees>
            </Position>
            <AltitudeMeters>1758.4000244140625</AltitudeMeters>
            <DistanceMeters>NAN</DistanceMeters>
          </Trackpoint>
          <Trackpoint>
            <Time>2018-12-30T13:00:02.000Z</Time>
            <Position>
              <LatitudeDegrees>40.76722003519535064697265625</LatitudeDegrees>
              <LongitudeDegrees>-4.08677701838314533233642578125</LongitudeDegrees>
            </Position>
            <AltitudeMeters>1758.4000244140625</AltitudeMeters>
            <DistanceMeters>NAN</DistanceMeters>
          </Trackpoint>
          <Trackpoint>
            <Time>2018-12-30T13:00:03.000Z</Time>
            <Position>
              <LatitudeDegrees>40.7672134973108768463134765625</LatitudeDegrees>
              <LongitudeDegrees>-4.08676846884191036224365234375</LongitudeDegrees>
            </Position>
            <AltitudeMeters>1758.5999755859375</AltitudeMeters>
            <DistanceMeters>NAN</DistanceMeters>
          </Trackpoint>
          <Trackpoint>
            <Time>2018-12-30T13:00:04.000Z</Time>
            <Position>
              <LatitudeDegrees>40.7672059535980224609375</LatitudeDegrees>
              <LongitudeDegrees>-4.086766205728054046630859375</LongitudeDegrees>
            </Position>
            <AltitudeMeters>1758.5999755859375</AltitudeMeters>
            <DistanceMeters>NAN</DistanceMeters>
          </Trackpoint>
          <Trackpoint>
            <Time>2018-12-30T13:00:05.000Z</Time>
            <Position>
              <LatitudeDegrees>40.76720654033124446868896484375</LatitudeDegrees>
              <LongitudeDegrees>-4.086762182414531707763671875</LongitudeDegrees>
            </Position>
            <AltitudeMeters>1758.5999755859375</AltitudeMeters>
            <DistanceMeters>NAN</DistanceMeters>
          </Trackpoint>
          <Trackpoint>
            <Time>2018-12-30T13:00:06.000Z</Time>
            <Position>
              <LatitudeDegrees>40.76720134355127811431884765625</LatitudeDegrees>
              <LongitudeDegrees>-4.0867598354816436767578125</LongitudeDegrees>
            </Position>
            <AltitudeMeters>1758.5999755859375</AltitudeMeters>
            <DistanceMeters>NAN</DistanceMeters>
          </Trackpoint>
          <Trackpoint>
            <Time>2018-12-30T13:00:07.000Z</Time>
            <Position>
              <LatitudeDegrees>40.7671896927058696746826171875</LatitudeDegrees>
              <LongitudeDegrees>-4.0867556445300579071044921875</LongitudeDegrees>
            </Position>
            <AltitudeMeters>1758.5999755859375</AltitudeMeters>
            <DistanceMeters>NAN</DistanceMeters>
          </Trackpoint>
          <Trackpoint>
            <Time>2018-12-30T13:00:08.000Z</Time>
            <Position>
              <LatitudeDegrees>40.7671796344220638275146484375</LatitudeDegrees>
              <LongitudeDegrees>-4.08675254322588443756103515625</LongitudeDegrees>
            </Position>
            <AltitudeMeters>1758.5999755859375</AltitudeMeters>
            <DistanceMeters>NAN</DistanceMeters>
          </Trackpoint>
          <Trackpoint>
            <Time>2018-12-30T13:00:09.000Z</Time>
            <Position>
              <LatitudeDegrees>40.76716236770153045654296875</LatitudeDegrees>
              <LongitudeDegrees>-4.08675069920718669891357421875</LongitudeDegrees>
            </Position>
            <AltitudeMeters>1758.5999755859375</AltitudeMeters>
            <DistanceMeters>NAN</DistanceMeters>
          </Trackpoint>
          <Trackpoint>
            <Time>2018-12-30T13:00:10.000Z</Time>
            <Position>
              <LatitudeDegrees>40.76714954338967800140380859375</LatitudeDegrees>
              <LongitudeDegrees>-4.086746089160442352294921875</LongitudeDegrees>
            </Position>
            <AltitudeMeters>1758.4000244140625</AltitudeMeters>
            <DistanceMeters>NAN</DistanceMeters>
          </Trackpoint>
          <Trackpoint>
            <Time>2018-12-30T13:00:11.000Z</Time>
            <Position>
              <LatitudeDegrees>40.76713462360203266143798828125</LatitudeDegrees>
              <LongitudeDegrees>-4.0867472626268863677978515625</LongitudeDegrees>
            </Position>
            <AltitudeMeters>1758.4000244140625</AltitudeMeters>
            <DistanceMeters>NAN</DistanceMeters>
          </Trackpoint>
          <Trackpoint>
            <Time>2018-12-30T13:00:12.000Z</Time>
            <Position>
              <LatitudeDegrees>40.76711366884410381317138671875</LatitudeDegrees>
              <LongitudeDegrees>-4.08674835227429866790771484375</LongitudeDegrees>
            </Position>
            <AltitudeMeters>1758.4000244140625</AltitudeMeters>
            <DistanceMeters>NAN</DistanceMeters>
          </Trackpoint>
          <Trackpoint>
            <Time>2018-12-30T13:00:13.000Z</Time>
            <Position>
              <LatitudeDegrees>40.7670971564948558807373046875</LatitudeDegrees>
              <LongitudeDegrees>-4.08674734644591808319091796875</LongitudeDegrees>
            </Position>
            <AltitudeMeters>1758.4000244140625</AltitudeMeters>
            <DistanceMeters>NAN</DistanceMeters>
          </Trackpoint>
          <Trackpoint>
            <Time>2018-12-30T13:00:14.000Z</Time>
            <Position>
              <LatitudeDegrees>40.76708952896296977996826171875</LatitudeDegrees>
              <LongitudeDegrees>-4.086748771369457244873046875</LongitudeDegrees>
            </Position>
            <AltitudeMeters>1758.5999755859375</AltitudeMeters>
            <DistanceMeters>NAN</DistanceMeters>
          </Trackpoint>
          <Trackpoint>
            <Time>2018-12-30T13:00:15.000Z</Time>
            <Position>
              <LatitudeDegrees>40.767082236707210540771484375</LatitudeDegrees>
              <LongitudeDegrees>-4.086751453578472137451171875</LongitudeDegrees>
            </Position>
            <AltitudeMeters>1758.5999755859375</AltitudeMeters>
            <DistanceMeters>NAN</DistanceMeters>
          </Trackpoint>
          <Trackpoint>
            <Time>2018-12-30T13:00:16.000Z</Time>
            <Position>
              <LatitudeDegrees>40.76706974767148494720458984375</LatitudeDegrees>
              <LongitudeDegrees>-4.086755476891994476318359375</LongitudeDegrees>
            </Position>
            <AltitudeMeters>1758.5999755859375</AltitudeMeters>
            <DistanceMeters>NAN</DistanceMeters>
          </Trackpoint>
          <Trackpoint>
            <Time>2018-12-30T13:00:17.000Z</Time>
            <Position>
              <LatitudeDegrees>40.76705985702574253082275390625</LatitudeDegrees>
              <LongitudeDegrees>-4.08675916492938995361328125</LongitudeDegrees>
            </Position>
            <AltitudeMeters>1758.800048828125</AltitudeMeters>
            <DistanceMeters>NAN</DistanceMeters>
          </Trackpoint>
          <Trackpoint>
            <Time>2018-12-30T13:00:18.000Z</Time>
            <Position>
              <LatitudeDegrees>40.76705046929419040679931640625</LatitudeDegrees>
              <LongitudeDegrees>-4.08676394261419773101806640625</LongitudeDegrees>
            </Position>
            <AltitudeMeters>1758.800048828125</AltitudeMeters>
            <DistanceMeters>NAN</DistanceMeters>
          </Trackpoint>
          <Trackpoint>
            <Time>2018-12-30T13:00:19.000Z</Time>
            <Position>
              <LatitudeDegrees>40.76704191975295543670654296875</LatitudeDegrees>
              <LongitudeDegrees>-4.086768887937068939208984375</LongitudeDegrees>
            </Position>
            <AltitudeMeters>1758.800048828125</AltitudeMeters>
            <DistanceMeters>NAN</DistanceMeters>
          </Trackpoint>
          <Trackpoint>
            <Time>2018-12-30T13:00:20.000Z</Time>
            <Position>
              <LatitudeDegrees>40.7670408301055431365966796875</LatitudeDegrees>
              <LongitudeDegrees>-4.0867700614035129547119140625</LongitudeDegrees>
            </Position>
            <AltitudeMeters>1758.800048828125</AltitudeMeters>
            <DistanceMeters>NAN</DistanceMeters>
          </Trackpoint>
          <Trackpoint>
            <Time>2018-12-30T13:00:21.000Z</Time>
            <Position>
              <LatitudeDegrees>40.76704024337232112884521484375</LatitudeDegrees>
              <LongitudeDegrees>-4.08677098341286182403564453125</LongitudeDegrees>
            </Position>
            <AltitudeMeters>1758.800048828125</AltitudeMeters>
            <DistanceMeters>NAN</DistanceMeters>
          </Trackpoint>
          <Trackpoint>
            <Time>2018-12-30T13:00:22.000Z</Time>
            <Position>
              <LatitudeDegrees>40.767039991915225982666015625</LatitudeDegrees>
              <LongitudeDegrees>-4.08677148632705211639404296875</LongitudeDegrees>
            </Position>
            <AltitudeMeters>1758.800048828125</AltitudeMeters>
            <DistanceMeters>NAN</DistanceMeters>
          </Trackpoint>
          <Trackpoint>
            <Time>2018-12-30T13:00:23.000Z</Time>
            <Position>
              <LatitudeDegrees>40.7670398242771625518798828125</LatitudeDegrees>
              <LongitudeDegrees>-4.08677131868898868560791015625</LongitudeDegrees>
            </Position>
            <AltitudeMeters>1758.5999755859375</AltitudeMeters>
            <DistanceMeters>NAN</DistanceMeters>
          </Trackpoint>
          <Trackpoint>
            <Time>2018-12-30T13:00:24.000Z</Time>
            <Position>
              <LatitudeDegrees>40.7670374773442745208740234375</LatitudeDegrees>
              <LongitudeDegrees>-4.08677416853606700897216796875</LongitudeDegrees>
            </Position>
            <AltitudeMeters>1758.5999755859375</AltitudeMeters>
            <DistanceMeters>NAN</DistanceMeters>
          </Trackpoint>
          <Trackpoint>
            <Time>2018-12-30T13:00:25.000Z</Time>
            <Position>
              <LatitudeDegrees>40.76703362166881561279296875</LatitudeDegrees>
              <LongitudeDegrees>-4.0867801196873188018798828125</LongitudeDegrees>
            </Position>
            <AltitudeMeters>1758.4000244140625</AltitudeMeters>
            <DistanceMeters>NAN</DistanceMeters>
          </Trackpoint>
          <Trackpoint>
            <Time>2018-12-30T13:00:26.000Z</Time>
            <Position>
              <LatitudeDegrees>40.7670287601649761199951171875</LatitudeDegrees>
              <LongitudeDegrees>-4.08678422681987285614013671875</LongitudeDegrees>
            </Position>
            <AltitudeMeters>1758.4000244140625</AltitudeMeters>
            <DistanceMeters>NAN</DistanceMeters>
          </Trackpoint>
          <Trackpoint>
            <Time>2018-12-30T13:00:27.000Z</Time>
            <Position>
              <LatitudeDegrees>40.76702800579369068145751953125</LatitudeDegrees>
              <LongitudeDegrees>-4.08678238280117511749267578125</LongitudeDegrees>
            </Position>
            <AltitudeMeters>1758.4000244140625</AltitudeMeters>
            <DistanceMeters>NAN</DistanceMeters>
          </Trackpoint>
          <Trackpoint>
            <Time>2018-12-30T13:00:28.000Z</Time>
            <Position>
              <LatitudeDegrees>40.76703253202140331268310546875</LatitudeDegrees>
              <LongitudeDegrees>-4.0867750905454158782958984375</LongitudeDegrees>
            </Position>
            <AltitudeMeters>1758.4000244140625</AltitudeMeters>
            <DistanceMeters>NAN</DistanceMeters>
          </Trackpoint>
          <Trackpoint>
            <Time>2018-12-30T13:00:29.000Z</Time>
            <Position>
              <LatitudeDegrees>40.76703856699168682098388671875</LatitudeDegrees>
              <LongitudeDegrees>-4.08676679246127605438232421875</LongitudeDegrees>
            </Position>
            <AltitudeMeters>1758.5999755859375</AltitudeMeters>
            <DistanceMeters>NAN</DistanceMeters>
          </Trackpoint>
          <Trackpoint>
            <Time>2018-12-30T13:00:30.000Z</Time>
            <Position>
              <LatitudeDegrees>40.7670472003519535064697265625</LatitudeDegrees>
              <LongitudeDegrees>-4.08675941638648509979248046875</LongitudeDegrees>
            </Position>
            <AltitudeMeters>1758.800048828125</AltitudeMeters>
            <DistanceMeters>NAN</DistanceMeters>
          </Trackpoint>
          <Trackpoint>
            <Time>2018-12-30T13:00:31.000Z</Time>
            <Position>
              <LatitudeDegrees>40.7670557498931884765625</LatitudeDegrees>
              <LongitudeDegrees>-4.08675438724458217620849609375</LongitudeDegrees>
            </Position>
            <AltitudeMeters>1758.800048828125</AltitudeMeters>
            <DistanceMeters>NAN</DistanceMeters>
          </Trackpoint>
          <Trackpoint>
            <Time>2018-12-30T13:00:32.000Z</Time>
            <Position>
              <LatitudeDegrees>40.7670646347105503082275390625</LatitudeDegrees>
              <LongitudeDegrees>-4.0867499448359012603759765625</LongitudeDegrees>
            </Position>
            <AltitudeMeters>1758.800048828125</AltitudeMeters>
            <DistanceMeters>NAN</DistanceMeters>
          </Trackpoint>
          <Trackpoint>
            <Time>2018-12-30T13:00:33.000Z</Time>
            <Position>
              <LatitudeDegrees>40.76707117259502410888671875</LatitudeDegrees>
              <LongitudeDegrees>-4.0867445804178714752197265625</LongitudeDegrees>
            </Position>
            <AltitudeMeters>1758.800048828125</AltitudeMeters>
            <DistanceMeters>NAN</DistanceMeters>
          </Trackpoint>
          <Trackpoint>
            <Time>2018-12-30T13:00:34.000Z</Time>
            <Position>
              <LatitudeDegrees>40.76707662083208560943603515625</LatitudeDegrees>
              <LongitudeDegrees>-4.0867449156939983367919921875</LongitudeDegrees>
            </Position>
            <AltitudeMeters>1758.800048828125</AltitudeMeters>
            <DistanceMeters>NAN</DistanceMeters>
          </Trackpoint>
          <Trackpoint>
            <Time>2018-12-30T13:00:35.000Z</Time>
            <Position>
              <LatitudeDegrees>40.76708114705979824066162109375</LatitudeDegrees>
              <LongitudeDegrees>-4.086739718914031982421875</LongitudeDegrees>
            </Position>
            <AltitudeMeters>1758.800048828125</AltitudeMeters>
            <DistanceMeters>NAN</DistanceMeters>
          </Trackpoint>
          <Trackpoint>
            <Time>2018-12-30T13:00:36.000Z</Time>
            <Position>
              <LatitudeDegrees>40.7670874334871768951416015625</LatitudeDegrees>
              <LongitudeDegrees>-4.08672438003122806549072265625</LongitudeDegrees>
            </Position>
            <AltitudeMeters>1758.800048828125</AltitudeMeters>
            <DistanceMeters>NAN</DistanceMeters>
          </Trackpoint>
          <Trackpoint>
            <Time>2018-12-30T13:00:37.000Z</Time>
            <Position>
              <LatitudeDegrees>40.767093636095523834228515625</LatitudeDegrees>
              <LongitudeDegrees>-4.08669772557914257049560546875</LongitudeDegrees>
            </Position>
            <AltitudeMeters>1758.800048828125</AltitudeMeters>
            <DistanceMeters>NAN</DistanceMeters>
          </Trackpoint>
          <Trackpoint>
            <Time>2018-12-30T13:00:38.000Z</Time>
            <Position>
              <LatitudeDegrees>40.767092965543270111083984375</LatitudeDegrees>
              <LongitudeDegrees>-4.086675345897674560546875</LongitudeDegrees>
            </Position>
            <AltitudeMeters>1758.800048828125</AltitudeMeters>
            <DistanceMeters>NAN</DistanceMeters>
          </Trackpoint>
          <Trackpoint>
            <Time>2018-12-30T13:00:39.000Z</Time>
            <Position>
              <LatitudeDegrees>40.767097659409046173095703125</LatitudeDegrees>
              <LongitudeDegrees>-4.0866661258041858673095703125</LongitudeDegrees>
            </Position>
            <AltitudeMeters>1758.800048828125</AltitudeMeters>
            <DistanceMeters>NAN</DistanceMeters>
          </Trackpoint>
          <Trackpoint>
            <Time>2018-12-30T13:00:40.000Z</Time>
            <Position>
              <LatitudeDegrees>40.7670981623232364654541015625</LatitudeDegrees>
              <LongitudeDegrees>-4.0866681374609470367431640625</LongitudeDegrees>
            </Position>
            <AltitudeMeters>1758.800048828125</AltitudeMeters>
            <DistanceMeters>NAN</DistanceMeters>
          </Trackpoint>
          <Trackpoint>
            <Time>2018-12-30T13:00:41.000Z</Time>
            <Position>
              <LatitudeDegrees>40.76709791086614131927490234375</LatitudeDegrees>
              <LongitudeDegrees>-4.086669981479644775390625</LongitudeDegrees>
            </Position>
            <AltitudeMeters>1758.800048828125</AltitudeMeters>
            <DistanceMeters>NAN</DistanceMeters>
          </Trackpoint>
          <Trackpoint>
            <Time>2018-12-30T13:00:42.000Z</Time>
            <Position>
              <LatitudeDegrees>40.7671052031219005584716796875</LatitudeDegrees>
              <LongitudeDegrees>-4.08665321767330169677734375</LongitudeDegrees>
            </Position>
            <AltitudeMeters>1758.800048828125</AltitudeMeters>
            <DistanceMeters>NAN</DistanceMeters>
          </Trackpoint>
          <Trackpoint>
            <Time>2018-12-30T13:00:43.000Z</Time>
            <Position>
              <LatitudeDegrees>40.76711484231054782867431640625</LatitudeDegrees>
              <LongitudeDegrees>-4.08663620240986347198486328125</LongitudeDegrees>
            </Position>
            <AltitudeMeters>1758.800048828125</AltitudeMeters>
            <DistanceMeters>NAN</DistanceMeters>
          </Trackpoint>
          <Trackpoint>
            <Time>2018-12-30T13:00:44.000Z</Time>
            <Position>
              <LatitudeDegrees>40.76712423004209995269775390625</LatitudeDegrees>
              <LongitudeDegrees>-4.086635448038578033447265625</LongitudeDegrees>
            </Position>
            <AltitudeMeters>1758.800048828125</AltitudeMeters>
            <DistanceMeters>NAN</DistanceMeters>
          </Trackpoint>
          <Trackpoint>
            <Time>2018-12-30T13:00:45.000Z</Time>
            <Position>
              <LatitudeDegrees>40.76710578985512256622314453125</LatitudeDegrees>
              <LongitudeDegrees>-4.08659714274108409881591796875</LongitudeDegrees>
            </Position>
            <AltitudeMeters>1758.800048828125</AltitudeMeters>
            <DistanceMeters>NAN</DistanceMeters>
          </Trackpoint>
          <Trackpoint>
            <Time>2018-12-30T13:00:46.000Z</Time>
            <Position>
              <LatitudeDegrees>40.7670892775058746337890625</LatitudeDegrees>
              <LongitudeDegrees>-4.08658540807664394378662109375</LongitudeDegrees>
            </Position>
            <AltitudeMeters>1758.800048828125</AltitudeMeters>
            <DistanceMeters>NAN</DistanceMeters>
          </Trackpoint>
          <Trackpoint>
            <Time>2018-12-30T13:00:47.000Z</Time>
            <Position>
              <LatitudeDegrees>40.7670824043452739715576171875</LatitudeDegrees>
              <LongitudeDegrees>-4.08657803200185298919677734375</LongitudeDegrees>
            </Position>
            <AltitudeMeters>1758.800048828125</AltitudeMeters>
            <DistanceMeters>NAN</DistanceMeters>
          </Trackpoint>
          <Trackpoint>
            <Time>2018-12-30T13:00:48.000Z</Time>
            <Position>
              <LatitudeDegrees>40.76707653701305389404296875</LatitudeDegrees>
              <LongitudeDegrees>-4.086562693119049072265625</LongitudeDegrees>
            </Position>
            <AltitudeMeters>1758.800048828125</AltitudeMeters>
            <DistanceMeters>NAN</DistanceMeters>
          </Trackpoint>
          <Trackpoint>
            <Time>2018-12-30T13:00:49.000Z</Time>
            <Position>
              <LatitudeDegrees>40.76707360334694385528564453125</LatitudeDegrees>
              <LongitudeDegrees>-4.0865652076900005340576171875</LongitudeDegrees>
            </Position>
            <AltitudeMeters>1758.800048828125</AltitudeMeters>
            <DistanceMeters>NAN</DistanceMeters>
          </Trackpoint>
          <Trackpoint>
            <Time>2018-12-30T13:00:50.000Z</Time>
            <Position>
              <LatitudeDegrees>40.767067484557628631591796875</LatitudeDegrees>
              <LongitudeDegrees>-4.08656814135611057281494140625</LongitudeDegrees>
            </Position>
            <AltitudeMeters>1758.800048828125</AltitudeMeters>
            <DistanceMeters>NAN</DistanceMeters>
          </Trackpoint>
          <Trackpoint>
            <Time>2018-12-30T13:00:51.000Z</Time>
            <Position>
              <LatitudeDegrees>40.7670639641582965850830078125</LatitudeDegrees>
              <LongitudeDegrees>-4.08657543361186981201171875</LongitudeDegrees>
            </Position>
            <AltitudeMeters>1758.800048828125</AltitudeMeters>
            <DistanceMeters>NAN</DistanceMeters>
          </Trackpoint>
          <Trackpoint>
            <Time>2018-12-30T13:00:52.000Z</Time>
            <Position>
              <LatitudeDegrees>40.76706044375896453857421875</LatitudeDegrees>
              <LongitudeDegrees>-4.0865816362202167510986328125</LongitudeDegrees>
            </Position>
            <AltitudeMeters>1758.800048828125</AltitudeMeters>
            <DistanceMeters>NAN</DistanceMeters>
          </Trackpoint>
          <Trackpoint>
            <Time>2018-12-30T13:00:53.000Z</Time>
            <Position>
              <LatitudeDegrees>40.7670544087886810302734375</LatitudeDegrees>
              <LongitudeDegrees>-4.0865853242576122283935546875</LongitudeDegrees>
            </Position>
            <AltitudeMeters>1759</AltitudeMeters>
            <DistanceMeters>NAN</DistanceMeters>
          </Trackpoint>
          <Trackpoint>
            <Time>2018-12-30T13:00:54.000Z</Time>
            <Position>
              <LatitudeDegrees>40.76704124920070171356201171875</LatitudeDegrees>
              <LongitudeDegrees>-4.086589850485324859619140625</LongitudeDegrees>
            </Position>
            <AltitudeMeters>1759</AltitudeMeters>
            <DistanceMeters>NAN</DistanceMeters>
          </Trackpoint>
          <Trackpoint>
            <Time>2018-12-30T13:00:55.000Z</Time>
            <Position>
              <LatitudeDegrees>40.76703689061105251312255859375</LatitudeDegrees>
              <LongitudeDegrees>-4.08659865148365497589111328125</LongitudeDegrees>
            </Position>
            <AltitudeMeters>1759.199951171875</AltitudeMeters>
            <DistanceMeters>NAN</DistanceMeters>
          </Trackpoint>
          <Trackpoint>
            <Time>2018-12-30T13:00:56.000Z</Time>
            <Position>
              <LatitudeDegrees>40.76702448539435863494873046875</LatitudeDegrees>
              <LongitudeDegrees>-4.0866071172058582305908203125</LongitudeDegrees>
            </Position>
            <AltitudeMeters>1759.199951171875</AltitudeMeters>
            <DistanceMeters>NAN</DistanceMeters>
          </Trackpoint>
          <Trackpoint>
            <Time>2018-12-30T13:00:57.000Z</Time>
            <Position>
              <LatitudeDegrees>40.7670079730451107025146484375</LatitudeDegrees>
              <LongitudeDegrees>-4.08661977387964725494384765625</LongitudeDegrees>
            </Position>
            <AltitudeMeters>1759.4000244140625</AltitudeMeters>
            <DistanceMeters>NAN</DistanceMeters>
          </Trackpoint>
          <Trackpoint>
            <Time>2018-12-30T13:00:58.000Z</Time>
            <Position>
              <LatitudeDegrees>40.7669928856194019317626953125</LatitudeDegrees>
              <LongitudeDegrees>-4.086627401411533355712890625</LongitudeDegrees>
            </Position>
            <AltitudeMeters>1759.4000244140625</AltitudeMeters>
            <DistanceMeters>NAN</DistanceMeters>
          </Trackpoint>
          <Trackpoint>
            <Time>2018-12-30T13:00:59.000Z</Time>
            <Position>
              <LatitudeDegrees>40.7669774629175662994384765625</LatitudeDegrees>
              <LongitudeDegrees>-4.086630754172801971435546875</LongitudeDegrees>
            </Position>
            <AltitudeMeters>1759.5999755859375</AltitudeMeters>
            <DistanceMeters>NAN</DistanceMeters>
          </Trackpoint>
          <Trackpoint>
            <Time>2018-12-30T13:01:00.000Z</Time>
            <Position>
              <LatitudeDegrees>40.76696111820638179779052734375</LatitudeDegrees>
              <LongitudeDegrees>-4.08663553185760974884033203125</LongitudeDegrees>
            </Position>
            <AltitudeMeters>1759.5999755859375</AltitudeMeters>
            <DistanceMeters>NAN</DistanceMeters>
          </Trackpoint>
          <Trackpoint>
            <Time>2018-12-30T13:01:01.000Z</Time>
            <Position>
              <LatitudeDegrees>40.76695072464644908905029296875</LatitudeDegrees>
              <LongitudeDegrees>-4.08663586713373661041259765625</LongitudeDegrees>
            </Position>
            <AltitudeMeters>1759.5999755859375</AltitudeMeters>
            <DistanceMeters>NAN</DistanceMeters>
          </Trackpoint>
          <Trackpoint>
            <Time>2018-12-30T13:01:02.000Z</Time>
            <Position>
              <LatitudeDegrees>40.7669422589242458343505859375</LatitudeDegrees>
              <LongitudeDegrees>-4.0866342745721340179443359375</LongitudeDegrees>
            </Position>
            <AltitudeMeters>1759.800048828125</AltitudeMeters>
            <DistanceMeters>NAN</DistanceMeters>
          </Trackpoint>
          <Trackpoint>
            <Time>2018-12-30T13:01:03.000Z</Time>
            <Position>
              <LatitudeDegrees>40.7669288478791713714599609375</LatitudeDegrees>
              <LongitudeDegrees>-4.086644835770130157470703125</LongitudeDegrees>
            </Position>
            <AltitudeMeters>1759.800048828125</AltitudeMeters>
            <DistanceMeters>NAN</DistanceMeters>
          </Trackpoint>
          <Trackpoint>
            <Time>2018-12-30T13:01:04.000Z</Time>
            <Position>
              <LatitudeDegrees>40.76691870577633380889892578125</LatitudeDegrees>
              <LongitudeDegrees>-4.086647517979145050048828125</LongitudeDegrees>
            </Position>
            <AltitudeMeters>1759.800048828125</AltitudeMeters>
            <DistanceMeters>NAN</DistanceMeters>
          </Trackpoint>
          <Trackpoint>
            <Time>2018-12-30T13:01:05.000Z</Time>
            <Position>
              <LatitudeDegrees>40.76690965332090854644775390625</LatitudeDegrees>
              <LongitudeDegrees>-4.08665514551103115081787109375</LongitudeDegrees>
            </Position>
            <AltitudeMeters>1759.800048828125</AltitudeMeters>
            <DistanceMeters>NAN</DistanceMeters>
          </Trackpoint>
          <Trackpoint>
            <Time>2018-12-30T13:01:06.000Z</Time>
            <Position>
              <LatitudeDegrees>40.7669015228748321533203125</LatitudeDegrees>
              <LongitudeDegrees>-4.08666126430034637451171875</LongitudeDegrees>
            </Position>
            <AltitudeMeters>1759.800048828125</AltitudeMeters>
            <DistanceMeters>NAN</DistanceMeters>
          </Trackpoint>
          <Trackpoint>
            <Time>2018-12-30T13:01:07.000Z</Time>
            <Position>
              <LatitudeDegrees>40.76689414680004119873046875</LatitudeDegrees>
              <LongitudeDegrees>-4.0866661258041858673095703125</LongitudeDegrees>
            </Position>
            <AltitudeMeters>1759.800048828125</AltitudeMeters>
            <DistanceMeters>NAN</DistanceMeters>
          </Trackpoint>
          <Trackpoint>
            <Time>2018-12-30T13:01:08.000Z</Time>
            <Position>
              <LatitudeDegrees>40.7668829150497913360595703125</LatitudeDegrees>
              <LongitudeDegrees>-4.0866708196699619293212890625</LongitudeDegrees>
            </Position>
            <AltitudeMeters>1759.800048828125</AltitudeMeters>
            <DistanceMeters>NAN</DistanceMeters>
          </Trackpoint>
          <Trackpoint>
            <Time>2018-12-30T13:01:09.000Z</Time>
            <Position>
              <LatitudeDegrees>40.7668718509376049041748046875</LatitudeDegrees>
              <LongitudeDegrees>-4.08667794428765773773193359375</LongitudeDegrees>
            </Position>
            <AltitudeMeters>1759.800048828125</AltitudeMeters>
            <DistanceMeters>NAN</DistanceMeters>
          </Trackpoint>
          <Trackpoint>
            <Time>2018-12-30T13:01:10.000Z</Time>
            <Position>
              <LatitudeDegrees>40.76686388812959194183349609375</LatitudeDegrees>
              <LongitudeDegrees>-4.0866766870021820068359375</LongitudeDegrees>
            </Position>
            <AltitudeMeters>1760</AltitudeMeters>
            <DistanceMeters>NAN</DistanceMeters>
          </Trackpoint>
          <Trackpoint>
            <Time>2018-12-30T13:01:11.000Z</Time>
            <Position>
              <LatitudeDegrees>40.766855590045452117919921875</LatitudeDegrees>
              <LongitudeDegrees>-4.08668079413473606109619140625</LongitudeDegrees>
            </Position>
            <AltitudeMeters>1760</AltitudeMeters>
            <DistanceMeters>NAN</DistanceMeters>
          </Trackpoint>
          <Trackpoint>
            <Time>2018-12-30T13:01:12.000Z</Time>
            <Position>
              <LatitudeDegrees>40.766846872866153717041015625</LatitudeDegrees>
              <LongitudeDegrees>-4.08668213523924350738525390625</LongitudeDegrees>
            </Position>
            <AltitudeMeters>1760.199951171875</AltitudeMeters>
            <DistanceMeters>NAN</DistanceMeters>
          </Trackpoint>
          <Trackpoint>
            <Time>2018-12-30T13:01:13.000Z</Time>
            <Position>
              <LatitudeDegrees>40.76683647930622100830078125</LatitudeDegrees>
              <LongitudeDegrees>-4.086685068905353546142578125</LongitudeDegrees>
            </Position>
            <AltitudeMeters>1760.199951171875</AltitudeMeters>
            <DistanceMeters>NAN</DistanceMeters>
          </Trackpoint>
          <Trackpoint>
            <Time>2018-12-30T13:01:14.000Z</Time>
            <Position>
              <LatitudeDegrees>40.7668265886604785919189453125</LatitudeDegrees>
              <LongitudeDegrees>-4.08668364398181438446044921875</LongitudeDegrees>
            </Position>
            <AltitudeMeters>1760.4000244140625</AltitudeMeters>
            <DistanceMeters>NAN</DistanceMeters>
          </Trackpoint>
          <Trackpoint>
            <Time>2018-12-30T13:01:15.000Z</Time>
            <Position>
              <LatitudeDegrees>40.76681812293827533721923828125</LatitudeDegrees>
              <LongitudeDegrees>-4.08668582327663898468017578125</LongitudeDegrees>
            </Position>
            <AltitudeMeters>1760.4000244140625</AltitudeMeters>
            <DistanceMeters>NAN</DistanceMeters>
          </Trackpoint>
          <Trackpoint>
            <Time>2018-12-30T13:01:16.000Z</Time>
            <Position>
              <LatitudeDegrees>40.76680831611156463623046875</LatitudeDegrees>
              <LongitudeDegrees>-4.086683727800846099853515625</LongitudeDegrees>
            </Position>
            <AltitudeMeters>1760.4000244140625</AltitudeMeters>
            <DistanceMeters>NAN</DistanceMeters>
          </Trackpoint>
          <Trackpoint>
            <Time>2018-12-30T13:01:17.000Z</Time>
            <Position>
              <LatitudeDegrees>40.76679415069520473480224609375</LatitudeDegrees>
              <LongitudeDegrees>-4.0866808779537677764892578125</LongitudeDegrees>
            </Position>
            <AltitudeMeters>1760.5999755859375</AltitudeMeters>
            <DistanceMeters>NAN</DistanceMeters>
          </Trackpoint>
          <Trackpoint>
            <Time>2018-12-30T13:01:18.000Z</Time>
            <Position>
              <LatitudeDegrees>40.76677403412759304046630859375</LatitudeDegrees>
              <LongitudeDegrees>-4.08668917603790760040283203125</LongitudeDegrees>
            </Position>
            <AltitudeMeters>1760.800048828125</AltitudeMeters>
            <DistanceMeters>NAN</DistanceMeters>
          </Trackpoint>
          <Trackpoint>
            <Time>2018-12-30T13:01:19.000Z</Time>
            <Position>
              <LatitudeDegrees>40.766757689416408538818359375</LatitudeDegrees>
              <LongitudeDegrees>-4.0866926126182079315185546875</LongitudeDegrees>
            </Position>
            <AltitudeMeters>1760.800048828125</AltitudeMeters>
            <DistanceMeters>NAN</DistanceMeters>
          </Trackpoint>
          <Trackpoint>
            <Time>2018-12-30T13:01:20.000Z</Time>
            <Position>
              <LatitudeDegrees>40.76674100942909717559814453125</LatitudeDegrees>
              <LongitudeDegrees>-4.08669403754174709320068359375</LongitudeDegrees>
            </Position>
            <AltitudeMeters>1761</AltitudeMeters>
            <DistanceMeters>NAN</DistanceMeters>
          </Trackpoint>
          <Trackpoint>
            <Time>2018-12-30T13:01:21.000Z</Time>
            <Position>
              <LatitudeDegrees>40.76672843657433986663818359375</LatitudeDegrees>
              <LongitudeDegrees>-4.0866929478943347930908203125</LongitudeDegrees>
            </Position>
            <AltitudeMeters>1760.800048828125</AltitudeMeters>
            <DistanceMeters>NAN</DistanceMeters>
          </Trackpoint>
          <Trackpoint>
            <Time>2018-12-30T13:01:22.000Z</Time>
            <Position>
              <LatitudeDegrees>40.76671779155731201171875</LatitudeDegrees>
              <LongitudeDegrees>-4.08669454045593738555908203125</LongitudeDegrees>
            </Position>
            <AltitudeMeters>1760.800048828125</AltitudeMeters>
            <DistanceMeters>NAN</DistanceMeters>
          </Trackpoint>
          <Trackpoint>
            <Time>2018-12-30T13:01:23.000Z</Time>
            <Position>
              <LatitudeDegrees>40.7667058892548084259033203125</LatitudeDegrees>
              <LongitudeDegrees>-4.0866900980472564697265625</LongitudeDegrees>
            </Position>
            <AltitudeMeters>1760.5999755859375</AltitudeMeters>
            <DistanceMeters>NAN</DistanceMeters>
          </Trackpoint>
          <Trackpoint>
            <Time>2018-12-30T13:01:24.000Z</Time>
            <Position>
              <LatitudeDegrees>40.766693316400051116943359375</LatitudeDegrees>
              <LongitudeDegrees>-4.0866882540285587310791015625</LongitudeDegrees>
            </Position>
            <AltitudeMeters>1760.199951171875</AltitudeMeters>
            <DistanceMeters>NAN</DistanceMeters>
          </Trackpoint>
          <Trackpoint>
            <Time>2018-12-30T13:01:25.000Z</Time>
            <Position>
              <LatitudeDegrees>40.7666804082691669464111328125</LatitudeDegrees>
              <LongitudeDegrees>-4.08668942749500274658203125</LongitudeDegrees>
            </Position>
            <AltitudeMeters>1760</AltitudeMeters>
            <DistanceMeters>NAN</DistanceMeters>
          </Trackpoint>
          <Trackpoint>
            <Time>2018-12-30T13:01:26.000Z</Time>
            <Position>
              <LatitudeDegrees>40.766669847071170806884765625</LatitudeDegrees>
              <LongitudeDegrees>-4.08668867312371730804443359375</LongitudeDegrees>
            </Position>
            <AltitudeMeters>1759.800048828125</AltitudeMeters>
            <DistanceMeters>NAN</DistanceMeters>
          </Trackpoint>
          <Trackpoint>
            <Time>2018-12-30T13:01:27.000Z</Time>
            <Position>
              <LatitudeDegrees>40.76665719039738178253173828125</LatitudeDegrees>
              <LongitudeDegrees>-4.086690433323383331298828125</LongitudeDegrees>
            </Position>
            <AltitudeMeters>1759.800048828125</AltitudeMeters>
            <DistanceMeters>NAN</DistanceMeters>
          </Trackpoint>
          <Trackpoint>
            <Time>2018-12-30T13:01:28.000Z</Time>
            <Position>
              <LatitudeDegrees>40.7666465453803539276123046875</LatitudeDegrees>
              <LongitudeDegrees>-4.0866902656853199005126953125</LongitudeDegrees>
            </Position>
            <AltitudeMeters>1759.5999755859375</AltitudeMeters>
            <DistanceMeters>NAN</DistanceMeters>
          </Trackpoint>
          <Trackpoint>
            <Time>2018-12-30T13:01:29.000Z</Time>
            <Position>
              <LatitudeDegrees>40.766637660562992095947265625</LatitudeDegrees>
              <LongitudeDegrees>-4.0866906009614467620849609375</LongitudeDegrees>
            </Position>
            <AltitudeMeters>1759.5999755859375</AltitudeMeters>
            <DistanceMeters>NAN</DistanceMeters>
          </Trackpoint>
          <Trackpoint>
            <Time>2018-12-30T13:01:30.000Z</Time>
            <Position>
              <LatitudeDegrees>40.76662148348987102508544921875</LatitudeDegrees>
              <LongitudeDegrees>-4.0866869129240512847900390625</LongitudeDegrees>
            </Position>
            <AltitudeMeters>1759.5999755859375</AltitudeMeters>
            <DistanceMeters>NAN</DistanceMeters>
          </Trackpoint>
          <Trackpoint>
            <Time>2018-12-30T13:01:31.000Z</Time>
            <Position>
              <LatitudeDegrees>40.76660404913127422332763671875</LatitudeDegrees>
              <LongitudeDegrees>-4.08668682910501956939697265625</LongitudeDegrees>
            </Position>
            <AltitudeMeters>1759.5999755859375</AltitudeMeters>
            <DistanceMeters>NAN</DistanceMeters>
          </Trackpoint>
          <Trackpoint>
            <Time>2018-12-30T13:01:32.000Z</Time>
            <Position>
              <LatitudeDegrees>40.76658745296299457550048828125</LatitudeDegrees>
              <LongitudeDegrees>-4.08668783493340015411376953125</LongitudeDegrees>
            </Position>
            <AltitudeMeters>1759.5999755859375</AltitudeMeters>
            <DistanceMeters>NAN</DistanceMeters>
          </Trackpoint>
          <Trackpoint>
            <Time>2018-12-30T13:01:33.000Z</Time>
            <Position>
              <LatitudeDegrees>40.76657538302242755889892578125</LatitudeDegrees>
              <LongitudeDegrees>-4.0866900980472564697265625</LongitudeDegrees>
            </Position>
            <AltitudeMeters>1759.5999755859375</AltitudeMeters>
            <DistanceMeters>NAN</DistanceMeters>
          </Trackpoint>
          <Trackpoint>
            <Time>2018-12-30T13:01:34.000Z</Time>
            <Position>
              <LatitudeDegrees>40.76656557619571685791015625</LatitudeDegrees>
              <LongitudeDegrees>-4.08669638447463512420654296875</LongitudeDegrees>
            </Position>
            <AltitudeMeters>1759.5999755859375</AltitudeMeters>
            <DistanceMeters>NAN</DistanceMeters>
          </Trackpoint>
          <Trackpoint>
            <Time>2018-12-30T13:01:35.000Z</Time>
            <Position>
              <LatitudeDegrees>40.76655811630189418792724609375</LatitudeDegrees>
              <LongitudeDegrees>-4.08670485019683837890625</LongitudeDegrees>
            </Position>
            <AltitudeMeters>1759.800048828125</AltitudeMeters>
            <DistanceMeters>NAN</DistanceMeters>
          </Trackpoint>
          <Trackpoint>
            <Time>2018-12-30T13:01:36.000Z</Time>
            <Position>
              <LatitudeDegrees>40.766545794904232025146484375</LatitudeDegrees>
              <LongitudeDegrees>-4.08671499229967594146728515625</LongitudeDegrees>
            </Position>
            <AltitudeMeters>1759.800048828125</AltitudeMeters>
            <DistanceMeters>NAN</DistanceMeters>
          </Trackpoint>
          <Trackpoint>
            <Time>2018-12-30T13:01:37.000Z</Time>
            <Position>
              <LatitudeDegrees>40.7665352337062358856201171875</LatitudeDegrees>
              <LongitudeDegrees>-4.086719267070293426513671875</LongitudeDegrees>
            </Position>
            <AltitudeMeters>1759.800048828125</AltitudeMeters>
            <DistanceMeters>NAN</DistanceMeters>
          </Trackpoint>
          <Trackpoint>
            <Time>2018-12-30T13:01:38.000Z</Time>
            <Position>
              <LatitudeDegrees>40.766522325575351715087890625</LatitudeDegrees>
              <LongitudeDegrees>-4.0867221169173717498779296875</LongitudeDegrees>
            </Position>
            <AltitudeMeters>1759.800048828125</AltitudeMeters>
            <DistanceMeters>NAN</DistanceMeters>
          </Trackpoint>
          <Trackpoint>
            <Time>2018-12-30T13:01:39.000Z</Time>
            <Position>
              <LatitudeDegrees>40.76650816015899181365966796875</LatitudeDegrees>
              <LongitudeDegrees>-4.0867276489734649658203125</LongitudeDegrees>
            </Position>
            <AltitudeMeters>1759.800048828125</AltitudeMeters>
            <DistanceMeters>NAN</DistanceMeters>
          </Trackpoint>
          <Trackpoint>
            <Time>2018-12-30T13:01:40.000Z</Time>
            <Position>
              <LatitudeDegrees>40.76649625785648822784423828125</LatitudeDegrees>
              <LongitudeDegrees>-4.0867335163056850433349609375</LongitudeDegrees>
            </Position>
            <AltitudeMeters>1759.800048828125</AltitudeMeters>
            <DistanceMeters>NAN</DistanceMeters>
          </Trackpoint>
          <Trackpoint>
            <Time>2018-12-30T13:01:41.000Z</Time>
            <Position>
              <LatitudeDegrees>40.76648066751658916473388671875</LatitudeDegrees>
              <LongitudeDegrees>-4.08673628233373165130615234375</LongitudeDegrees>
            </Position>
            <AltitudeMeters>1759.800048828125</AltitudeMeters>
            <DistanceMeters>NAN</DistanceMeters>
          </Trackpoint>
          <Trackpoint>
            <Time>2018-12-30T13:01:42.000Z</Time>
            <Position>
              <LatitudeDegrees>40.76646759174764156341552734375</LatitudeDegrees>
              <LongitudeDegrees>-4.086742065846920013427734375</LongitudeDegrees>
            </Position>
            <AltitudeMeters>1759.800048828125</AltitudeMeters>
            <DistanceMeters>NAN</DistanceMeters>
          </Trackpoint>
          <Trackpoint>
            <Time>2018-12-30T13:01:43.000Z</Time>
            <Position>
              <LatitudeDegrees>40.7664535939693450927734375</LatitudeDegrees>
              <LongitudeDegrees>-4.0867452509701251983642578125</LongitudeDegrees>
            </Position>
            <AltitudeMeters>1759.800048828125</AltitudeMeters>
            <DistanceMeters>NAN</DistanceMeters>
          </Trackpoint>
          <Trackpoint>
            <Time>2018-12-30T13:01:44.000Z</Time>
            <Position>
              <LatitudeDegrees>40.766441524028778076171875</LatitudeDegrees>
              <LongitudeDegrees>-4.08674709498882293701171875</LongitudeDegrees>
            </Position>
            <AltitudeMeters>1759.800048828125</AltitudeMeters>
            <DistanceMeters>NAN</DistanceMeters>
          </Trackpoint>
          <Trackpoint>
            <Time>2018-12-30T13:01:45.000Z</Time>
            <Position>
              <LatitudeDegrees>40.7664252631366252899169921875</LatitudeDegrees>
              <LongitudeDegrees>-4.08674567006528377532958984375</LongitudeDegrees>
            </Position>
            <AltitudeMeters>1759.800048828125</AltitudeMeters>
            <DistanceMeters>NAN</DistanceMeters>
          </Trackpoint>
          <Trackpoint>
            <Time>2018-12-30T13:01:46.000Z</Time>
            <Position>
              <LatitudeDegrees>40.76640841551125049591064453125</LatitudeDegrees>
              <LongitudeDegrees>-4.08674701116979122161865234375</LongitudeDegrees>
            </Position>
            <AltitudeMeters>1759.800048828125</AltitudeMeters>
            <DistanceMeters>NAN</DistanceMeters>
          </Trackpoint>
          <Trackpoint>
            <Time>2018-12-30T13:01:47.000Z</Time>
            <Position>
              <LatitudeDegrees>40.7663877122104167938232421875</LatitudeDegrees>
              <LongitudeDegrees>-4.08674843609333038330078125</LongitudeDegrees>
            </Position>
            <AltitudeMeters>1759.800048828125</AltitudeMeters>
            <DistanceMeters>NAN</DistanceMeters>
          </Trackpoint>
          <Trackpoint>
            <Time>2018-12-30T13:01:48.000Z</Time>
            <Position>
              <LatitudeDegrees>40.7663709484040737152099609375</LatitudeDegrees>
              <LongitudeDegrees>-4.08675153739750385284423828125</LongitudeDegrees>
            </Position>
            <AltitudeMeters>1759.800048828125</AltitudeMeters>
            <DistanceMeters>NAN</DistanceMeters>
          </Trackpoint>
          <Trackpoint>
            <Time>2018-12-30T13:01:49.000Z</Time>
            <Position>
              <LatitudeDegrees>40.76635896228253841400146484375</LatitudeDegrees>
              <LongitudeDegrees>-4.086758159101009368896484375</LongitudeDegrees>
            </Position>
            <AltitudeMeters>1759.800048828125</AltitudeMeters>
            <DistanceMeters>NAN</DistanceMeters>
          </Trackpoint>
          <Trackpoint>
            <Time>2018-12-30T13:01:50.000Z</Time>
            <Position>
              <LatitudeDegrees>40.7663488201797008514404296875</LatitudeDegrees>
              <LongitudeDegrees>-4.0867663733661174774169921875</LongitudeDegrees>
            </Position>
            <AltitudeMeters>1759.800048828125</AltitudeMeters>
            <DistanceMeters>NAN</DistanceMeters>
          </Trackpoint>
          <Trackpoint>
            <Time>2018-12-30T13:01:51.000Z</Time>
            <Position>
              <LatitudeDegrees>40.7663347385823726654052734375</LatitudeDegrees>
              <LongitudeDegrees>-4.086776264011859893798828125</LongitudeDegrees>
            </Position>
            <AltitudeMeters>1759.800048828125</AltitudeMeters>
            <DistanceMeters>NAN</DistanceMeters>
          </Trackpoint>
          <Trackpoint>
            <Time>2018-12-30T13:01:52.000Z</Time>
            <Position>
              <LatitudeDegrees>40.7663196511566638946533203125</LatitudeDegrees>
              <LongitudeDegrees>-4.08678255043923854827880859375</LongitudeDegrees>
            </Position>
            <AltitudeMeters>1760</AltitudeMeters>
            <DistanceMeters>NAN</DistanceMeters>
          </Trackpoint>
          <Trackpoint>
            <Time>2018-12-30T13:01:53.000Z</Time>
            <Position>
              <LatitudeDegrees>40.7663059048354625701904296875</LatitudeDegrees>
              <LongitudeDegrees>-4.08678908832371234893798828125</LongitudeDegrees>
            </Position>
            <AltitudeMeters>1760</AltitudeMeters>
            <DistanceMeters>NAN</DistanceMeters>
          </Trackpoint>
          <Trackpoint>
            <Time>2018-12-30T13:01:54.000Z</Time>
            <Position>
              <LatitudeDegrees>40.7662924937903881072998046875</LatitudeDegrees>
              <LongitudeDegrees>-4.0867935307323932647705078125</LongitudeDegrees>
            </Position>
            <AltitudeMeters>1760.199951171875</AltitudeMeters>
            <DistanceMeters>NAN</DistanceMeters>
          </Trackpoint>
          <Trackpoint>
            <Time>2018-12-30T13:01:55.000Z</Time>
            <Position>
              <LatitudeDegrees>40.76628017239272594451904296875</LatitudeDegrees>
              <LongitudeDegrees>-4.08680048771202564239501953125</LongitudeDegrees>
            </Position>
            <AltitudeMeters>1760.199951171875</AltitudeMeters>
            <DistanceMeters>NAN</DistanceMeters>
          </Trackpoint>
          <Trackpoint>
            <Time>2018-12-30T13:01:56.000Z</Time>
            <Position>
              <LatitudeDegrees>40.7662673480808734893798828125</LatitudeDegrees>
              <LongitudeDegrees>-4.086804427206516265869140625</LongitudeDegrees>
            </Position>
            <AltitudeMeters>1760.199951171875</AltitudeMeters>
            <DistanceMeters>NAN</DistanceMeters>
          </Trackpoint>
          <Trackpoint>
            <Time>2018-12-30T13:01:57.000Z</Time>
            <Position>
              <LatitudeDegrees>40.7662559486925601959228515625</LatitudeDegrees>
              <LongitudeDegrees>-4.08681280910968780517578125</LongitudeDegrees>
            </Position>
            <AltitudeMeters>1760</AltitudeMeters>
            <DistanceMeters>NAN</DistanceMeters>
          </Trackpoint>
          <Trackpoint>
            <Time>2018-12-30T13:01:58.000Z</Time>
            <Position>
              <LatitudeDegrees>40.76624161563813686370849609375</LatitudeDegrees>
              <LongitudeDegrees>-4.08681951463222503662109375</LongitudeDegrees>
            </Position>
            <AltitudeMeters>1759.800048828125</AltitudeMeters>
            <DistanceMeters>NAN</DistanceMeters>
          </Trackpoint>
          <Trackpoint>
            <Time>2018-12-30T13:01:59.000Z</Time>
            <Position>
              <LatitudeDegrees>40.766226947307586669921875</LatitudeDegrees>
              <LongitudeDegrees>-4.086824543774127960205078125</LongitudeDegrees>
            </Position>
            <AltitudeMeters>1759.800048828125</AltitudeMeters>
            <DistanceMeters>NAN</DistanceMeters>
          </Trackpoint>
          <Trackpoint>
            <Time>2018-12-30T13:02:00.000Z</Time>
            <Position>
              <LatitudeDegrees>40.76621328480541706085205078125</LatitudeDegrees>
              <LongitudeDegrees>-4.08683015964925289154052734375</LongitudeDegrees>
            </Position>
            <AltitudeMeters>1759.5999755859375</AltitudeMeters>
            <DistanceMeters>NAN</DistanceMeters>
          </Trackpoint>
          <Trackpoint>
            <Time>2018-12-30T13:02:01.000Z</Time>
            <Position>
              <LatitudeDegrees>40.7662006281316280364990234375</LatitudeDegrees>
              <LongitudeDegrees>-4.0868381224572658538818359375</LongitudeDegrees>
            </Position>
            <AltitudeMeters>1759.5999755859375</AltitudeMeters>
            <DistanceMeters>NAN</DistanceMeters>
          </Trackpoint>
          <Trackpoint>
            <Time>2018-12-30T13:02:02.000Z</Time>
            <Position>
              <LatitudeDegrees>40.76618897728621959686279296875</LatitudeDegrees>
              <LongitudeDegrees>-4.0868498571217060089111328125</LongitudeDegrees>
            </Position>
            <AltitudeMeters>1759.5999755859375</AltitudeMeters>
            <DistanceMeters>NAN</DistanceMeters>
          </Trackpoint>
          <Trackpoint>
            <Time>2018-12-30T13:02:03.000Z</Time>
            <Position>
              <LatitudeDegrees>40.7661795057356357574462890625</LatitudeDegrees>
              <LongitudeDegrees>-4.086863100528717041015625</LongitudeDegrees>
            </Position>
            <AltitudeMeters>1759.4000244140625</AltitudeMeters>
            <DistanceMeters>NAN</DistanceMeters>
          </Trackpoint>
          <Trackpoint>
            <Time>2018-12-30T13:02:04.000Z</Time>
            <Position>
              <LatitudeDegrees>40.7661701180040836334228515625</LatitudeDegrees>
              <LongitudeDegrees>-4.08687491901218891143798828125</LongitudeDegrees>
            </Position>
            <AltitudeMeters>1759.4000244140625</AltitudeMeters>
            <DistanceMeters>NAN</DistanceMeters>
          </Trackpoint>
          <Trackpoint>
            <Time>2018-12-30T13:02:05.000Z</Time>
            <Position>
              <LatitudeDegrees>40.76616131700575351715087890625</LatitudeDegrees>
              <LongitudeDegrees>-4.08688749186694622039794921875</LongitudeDegrees>
            </Position>
            <AltitudeMeters>1759.199951171875</AltitudeMeters>
            <DistanceMeters>NAN</DistanceMeters>
          </Trackpoint>
          <Trackpoint>
            <Time>2018-12-30T13:02:06.000Z</Time>
            <Position>
              <LatitudeDegrees>40.7661493308842182159423828125</LatitudeDegrees>
              <LongitudeDegrees>-4.0868993103504180908203125</LongitudeDegrees>
            </Position>
            <AltitudeMeters>1759.199951171875</AltitudeMeters>
            <DistanceMeters>NAN</DistanceMeters>
          </Trackpoint>
          <Trackpoint>
            <Time>2018-12-30T13:02:07.000Z</Time>
            <Position>
              <LatitudeDegrees>40.766136087477207183837890625</LatitudeDegrees>
              <LongitudeDegrees>-4.08690995536744594573974609375</LongitudeDegrees>
            </Position>
            <AltitudeMeters>1759</AltitudeMeters>
            <DistanceMeters>NAN</DistanceMeters>
          </Trackpoint>
          <Trackpoint>
            <Time>2018-12-30T13:02:08.000Z</Time>
            <Position>
              <LatitudeDegrees>40.766123346984386444091796875</LatitudeDegrees>
              <LongitudeDegrees>-4.0869189240038394927978515625</LongitudeDegrees>
            </Position>
            <AltitudeMeters>1759</AltitudeMeters>
            <DistanceMeters>NAN</DistanceMeters>
          </Trackpoint>
          <Trackpoint>
            <Time>2018-12-30T13:02:09.000Z</Time>
            <Position>
              <LatitudeDegrees>40.76611102558672428131103515625</LatitudeDegrees>
              <LongitudeDegrees>-4.0869266353547573089599609375</LongitudeDegrees>
            </Position>
            <AltitudeMeters>1758.800048828125</AltitudeMeters>
            <DistanceMeters>NAN</DistanceMeters>
          </Trackpoint>
          <Trackpoint>
            <Time>2018-12-30T13:02:10.000Z</Time>
            <Position>
              <LatitudeDegrees>40.76609794981777667999267578125</LatitudeDegrees>
              <LongitudeDegrees>-4.0869313292205333709716796875</LongitudeDegrees>
            </Position>
            <AltitudeMeters>1758.800048828125</AltitudeMeters>
            <DistanceMeters>NAN</DistanceMeters>
          </Trackpoint>
          <Trackpoint>
            <Time>2018-12-30T13:02:11.000Z</Time>
            <Position>
              <LatitudeDegrees>40.7660852931439876556396484375</LatitudeDegrees>
              <LongitudeDegrees>-4.08693845383822917938232421875</LongitudeDegrees>
            </Position>
            <AltitudeMeters>1758.5999755859375</AltitudeMeters>
            <DistanceMeters>NAN</DistanceMeters>
          </Trackpoint>
          <Trackpoint>
            <Time>2018-12-30T13:02:12.000Z</Time>
            <Position>
              <LatitudeDegrees>40.766072385013103485107421875</LatitudeDegrees>
              <LongitudeDegrees>-4.0869470871984958648681640625</LongitudeDegrees>
            </Position>
            <AltitudeMeters>1758.5999755859375</AltitudeMeters>
            <DistanceMeters>NAN</DistanceMeters>
          </Trackpoint>
          <Trackpoint>
            <Time>2018-12-30T13:02:13.000Z</Time>
            <Position>
              <LatitudeDegrees>40.76606006361544132232666015625</LatitudeDegrees>
              <LongitudeDegrees>-4.086953960359096527099609375</LongitudeDegrees>
            </Position>
            <AltitudeMeters>1758.4000244140625</AltitudeMeters>
            <DistanceMeters>NAN</DistanceMeters>
          </Trackpoint>
          <Trackpoint>
            <Time>2018-12-30T13:02:14.000Z</Time>
            <Position>
              <LatitudeDegrees>40.76604832895100116729736328125</LatitudeDegrees>
              <LongitudeDegrees>-4.0869588218629360198974609375</LongitudeDegrees>
            </Position>
            <AltitudeMeters>1758.4000244140625</AltitudeMeters>
            <DistanceMeters>NAN</DistanceMeters>
          </Trackpoint>
          <Trackpoint>
            <Time>2018-12-30T13:02:15.000Z</Time>
            <Position>
              <LatitudeDegrees>40.76603542082011699676513671875</LatitudeDegrees>
              <LongitudeDegrees>-4.0869636833667755126953125</LongitudeDegrees>
            </Position>
            <AltitudeMeters>1758.4000244140625</AltitudeMeters>
            <DistanceMeters>NAN</DistanceMeters>
          </Trackpoint>
          <Trackpoint>
            <Time>2018-12-30T13:02:16.000Z</Time>
            <Position>
              <LatitudeDegrees>40.7660212554037570953369140625</LatitudeDegrees>
              <LongitudeDegrees>-4.08696644939482212066650390625</LongitudeDegrees>
            </Position>
            <AltitudeMeters>1758.199951171875</AltitudeMeters>
            <DistanceMeters>NAN</DistanceMeters>
          </Trackpoint>
          <Trackpoint>
            <Time>2018-12-30T13:02:17.000Z</Time>
            <Position>
              <LatitudeDegrees>40.7660058327019214630126953125</LatitudeDegrees>
              <LongitudeDegrees>-4.08697416074573993682861328125</LongitudeDegrees>
            </Position>
            <AltitudeMeters>1758.199951171875</AltitudeMeters>
            <DistanceMeters>NAN</DistanceMeters>
          </Trackpoint>
          <Trackpoint>
            <Time>2018-12-30T13:02:18.000Z</Time>
            <Position>
              <LatitudeDegrees>40.7659924216568470001220703125</LatitudeDegrees>
              <LongitudeDegrees>-4.08698405139148235321044921875</LongitudeDegrees>
            </Position>
            <AltitudeMeters>1758.4000244140625</AltitudeMeters>
            <DistanceMeters>NAN</DistanceMeters>
          </Trackpoint>
          <Trackpoint>
            <Time>2018-12-30T13:02:19.000Z</Time>
            <Position>
              <LatitudeDegrees>40.76598244719207286834716796875</LatitudeDegrees>
              <LongitudeDegrees>-4.08699561841785907745361328125</LongitudeDegrees>
            </Position>
            <AltitudeMeters>1758.4000244140625</AltitudeMeters>
            <DistanceMeters>NAN</DistanceMeters>
          </Trackpoint>
          <Trackpoint>
            <Time>2018-12-30T13:02:20.000Z</Time>
            <Position>
              <LatitudeDegrees>40.76597523875534534454345703125</LatitudeDegrees>
              <LongitudeDegrees>-4.0870071016252040863037109375</LongitudeDegrees>
            </Position>
            <AltitudeMeters>1758.4000244140625</AltitudeMeters>
            <DistanceMeters>NAN</DistanceMeters>
          </Trackpoint>
          <Trackpoint>
            <Time>2018-12-30T13:02:21.000Z</Time>
            <Position>
              <LatitudeDegrees>40.7659686170518398284912109375</LatitudeDegrees>
              <LongitudeDegrees>-4.08701607026159763336181640625</LongitudeDegrees>
            </Position>
            <AltitudeMeters>1758.4000244140625</AltitudeMeters>
            <DistanceMeters>NAN</DistanceMeters>
          </Trackpoint>
          <Trackpoint>
            <Time>2018-12-30T13:02:22.000Z</Time>
            <Position>
              <LatitudeDegrees>40.7659568823873996734619140625</LatitudeDegrees>
              <LongitudeDegrees>-4.08702076412737369537353515625</LongitudeDegrees>
            </Position>
            <AltitudeMeters>1758.5999755859375</AltitudeMeters>
            <DistanceMeters>NAN</DistanceMeters>
          </Trackpoint>
          <Trackpoint>
            <Time>2018-12-30T13:02:23.000Z</Time>
            <Position>
              <LatitudeDegrees>40.765947997570037841796875</LatitudeDegrees>
              <LongitudeDegrees>-4.08702931366860866546630859375</LongitudeDegrees>
            </Position>
            <AltitudeMeters>1758.5999755859375</AltitudeMeters>
            <DistanceMeters>NAN</DistanceMeters>
          </Trackpoint>
          <Trackpoint>
            <Time>2018-12-30T13:02:24.000Z</Time>
            <Position>
              <LatitudeDegrees>40.7659404538571834564208984375</LatitudeDegrees>
              <LongitudeDegrees>-4.0870396234095096588134765625</LongitudeDegrees>
            </Position>
            <AltitudeMeters>1758.5999755859375</AltitudeMeters>
            <DistanceMeters>NAN</DistanceMeters>
          </Trackpoint>
          <Trackpoint>
            <Time>2018-12-30T13:02:25.000Z</Time>
            <Position>
              <LatitudeDegrees>40.76593299396336078643798828125</LatitudeDegrees>
              <LongitudeDegrees>-4.08705060370266437530517578125</LongitudeDegrees>
            </Position>
            <AltitudeMeters>1758.5999755859375</AltitudeMeters>
            <DistanceMeters>NAN</DistanceMeters>
          </Trackpoint>
          <Trackpoint>
            <Time>2018-12-30T13:02:26.000Z</Time>
            <Position>
              <LatitudeDegrees>40.76592293567955493927001953125</LatitudeDegrees>
              <LongitudeDegrees>-4.087057895958423614501953125</LongitudeDegrees>
            </Position>
            <AltitudeMeters>1758.5999755859375</AltitudeMeters>
            <DistanceMeters>NAN</DistanceMeters>
          </Trackpoint>
          <Trackpoint>
            <Time>2018-12-30T13:02:27.000Z</Time>
            <Position>
              <LatitudeDegrees>40.7659089379012584686279296875</LatitudeDegrees>
              <LongitudeDegrees>-4.08706334419548511505126953125</LongitudeDegrees>
            </Position>
            <AltitudeMeters>1758.4000244140625</AltitudeMeters>
            <DistanceMeters>NAN</DistanceMeters>
          </Trackpoint>
          <Trackpoint>
            <Time>2018-12-30T13:02:28.000Z</Time>
            <Position>
              <LatitudeDegrees>40.76589393429458141326904296875</LatitudeDegrees>
              <LongitudeDegrees>-4.08707256428897380828857421875</LongitudeDegrees>
            </Position>
            <AltitudeMeters>1758.4000244140625</AltitudeMeters>
            <DistanceMeters>NAN</DistanceMeters>
          </Trackpoint>
          <Trackpoint>
            <Time>2018-12-30T13:02:29.000Z</Time>
            <Position>
              <LatitudeDegrees>40.76588588766753673553466796875</LatitudeDegrees>
              <LongitudeDegrees>-4.087088406085968017578125</LongitudeDegrees>
            </Position>
            <AltitudeMeters>1758.199951171875</AltitudeMeters>
            <DistanceMeters>NAN</DistanceMeters>
          </Trackpoint>
          <Trackpoint>
            <Time>2018-12-30T13:02:30.000Z</Time>
            <Position>
              <LatitudeDegrees>40.7658755779266357421875</LatitudeDegrees>
              <LongitudeDegrees>-4.0870979614555835723876953125</LongitudeDegrees>
            </Position>
            <AltitudeMeters>1758.199951171875</AltitudeMeters>
            <DistanceMeters>NAN</DistanceMeters>
          </Trackpoint>
          <Trackpoint>
            <Time>2018-12-30T13:02:31.000Z</Time>
            <Position>
              <LatitudeDegrees>40.76586996205151081085205078125</LatitudeDegrees>
              <LongitudeDegrees>-4.0871143899857997894287109375</LongitudeDegrees>
            </Position>
            <AltitudeMeters>1758</AltitudeMeters>
            <DistanceMeters>NAN</DistanceMeters>
          </Trackpoint>
          <Trackpoint>
            <Time>2018-12-30T13:02:32.000Z</Time>
            <Position>
              <LatitudeDegrees>40.76586107723414897918701171875</LatitudeDegrees>
              <LongitudeDegrees>-4.0871274657547473907470703125</LongitudeDegrees>
            </Position>
            <AltitudeMeters>1757.800048828125</AltitudeMeters>
            <DistanceMeters>NAN</DistanceMeters>
          </Trackpoint>
          <Trackpoint>
            <Time>2018-12-30T13:02:33.000Z</Time>
            <Position>
              <LatitudeDegrees>40.76585286296904087066650390625</LatitudeDegrees>
              <LongitudeDegrees>-4.08714364282786846160888671875</LongitudeDegrees>
            </Position>
            <AltitudeMeters>1757.5999755859375</AltitudeMeters>
            <DistanceMeters>NAN</DistanceMeters>
          </Trackpoint>
          <Trackpoint>
            <Time>2018-12-30T13:02:34.000Z</Time>
            <Position>
              <LatitudeDegrees>40.7658418826758861541748046875</LatitudeDegrees>
              <LongitudeDegrees>-4.08715638332068920135498046875</LongitudeDegrees>
            </Position>
            <AltitudeMeters>1757.4000244140625</AltitudeMeters>
            <DistanceMeters>NAN</DistanceMeters>
          </Trackpoint>
          <Trackpoint>
            <Time>2018-12-30T13:02:35.000Z</Time>
            <Position>
              <LatitudeDegrees>40.76583257876336574554443359375</LatitudeDegrees>
              <LongitudeDegrees>-4.08717331476509571075439453125</LongitudeDegrees>
            </Position>
            <AltitudeMeters>1757.4000244140625</AltitudeMeters>
            <DistanceMeters>NAN</DistanceMeters>
          </Trackpoint>
          <Trackpoint>
            <Time>2018-12-30T13:02:36.000Z</Time>
            <Position>
              <LatitudeDegrees>40.76582201756536960601806640625</LatitudeDegrees>
              <LongitudeDegrees>-4.0871854685246944427490234375</LongitudeDegrees>
            </Position>
            <AltitudeMeters>1757.199951171875</AltitudeMeters>
            <DistanceMeters>NAN</DistanceMeters>
          </Trackpoint>
          <Trackpoint>
            <Time>2018-12-30T13:02:37.000Z</Time>
            <Position>
              <LatitudeDegrees>40.76580785214900970458984375</LatitudeDegrees>
              <LongitudeDegrees>-4.08718831837177276611328125</LongitudeDegrees>
            </Position>
            <AltitudeMeters>1757</AltitudeMeters>
            <DistanceMeters>NAN</DistanceMeters>
          </Trackpoint>
          <Trackpoint>
            <Time>2018-12-30T13:02:38.000Z</Time>
            <Position>
              <LatitudeDegrees>40.76579435728490352630615234375</LatitudeDegrees>
              <LongitudeDegrees>-4.08720248378813266754150390625</LongitudeDegrees>
            </Position>
            <AltitudeMeters>1757</AltitudeMeters>
            <DistanceMeters>NAN</DistanceMeters>
          </Trackpoint>
          <Trackpoint>
            <Time>2018-12-30T13:02:39.000Z</Time>
            <Position>
              <LatitudeDegrees>40.76578178443014621734619140625</LatitudeDegrees>
              <LongitudeDegrees>-4.08721254207193851470947265625</LongitudeDegrees>
            </Position>
            <AltitudeMeters>1757</AltitudeMeters>
            <DistanceMeters>NAN</DistanceMeters>
          </Trackpoint>
          <Trackpoint>
            <Time>2018-12-30T13:02:40.000Z</Time>
            <Position>
              <LatitudeDegrees>40.765770971775054931640625</LatitudeDegrees>
              <LongitudeDegrees>-4.087223522365093231201171875</LongitudeDegrees>
            </Position>
            <AltitudeMeters>1757</AltitudeMeters>
            <DistanceMeters>NAN</DistanceMeters>
          </Trackpoint>
          <Trackpoint>
            <Time>2018-12-30T13:02:41.000Z</Time>
            <Position>
              <LatitudeDegrees>40.7657594047486782073974609375</LatitudeDegrees>
              <LongitudeDegrees>-4.08723567612469196319580078125</LongitudeDegrees>
            </Position>
            <AltitudeMeters>1756.800048828125</AltitudeMeters>
            <DistanceMeters>NAN</DistanceMeters>
          </Trackpoint>
          <Trackpoint>
            <Time>2018-12-30T13:02:42.000Z</Time>
            <Position>
              <LatitudeDegrees>40.7657500170171260833740234375</LatitudeDegrees>
              <LongitudeDegrees>-4.08724104054272174835205078125</LongitudeDegrees>
            </Position>
            <AltitudeMeters>1756.800048828125</AltitudeMeters>
            <DistanceMeters>NAN</DistanceMeters>
          </Trackpoint>
          <Trackpoint>
            <Time>2018-12-30T13:02:43.000Z</Time>
            <Position>
              <LatitudeDegrees>40.76574138365685939788818359375</LatitudeDegrees>
              <LongitudeDegrees>-4.08724841661751270294189453125</LongitudeDegrees>
            </Position>
            <AltitudeMeters>1756.5999755859375</AltitudeMeters>
            <DistanceMeters>NAN</DistanceMeters>
          </Trackpoint>
          <Trackpoint>
            <Time>2018-12-30T13:02:44.000Z</Time>
            <Position>
              <LatitudeDegrees>40.76573115773499011993408203125</LatitudeDegrees>
              <LongitudeDegrees>-4.08725126646459102630615234375</LongitudeDegrees>
            </Position>
            <AltitudeMeters>1756.199951171875</AltitudeMeters>
            <DistanceMeters>NAN</DistanceMeters>
          </Trackpoint>
          <Trackpoint>
            <Time>2018-12-30T13:02:45.000Z</Time>
            <Position>
              <LatitudeDegrees>40.7657215185463428497314453125</LatitudeDegrees>
              <LongitudeDegrees>-4.08725671470165252685546875</LongitudeDegrees>
            </Position>
            <AltitudeMeters>1756</AltitudeMeters>
            <DistanceMeters>NAN</DistanceMeters>
          </Trackpoint>
          <Trackpoint>
            <Time>2018-12-30T13:02:46.000Z</Time>
            <Position>
              <LatitudeDegrees>40.76571221463382244110107421875</LatitudeDegrees>
              <LongitudeDegrees>-4.08726098947227001190185546875</LongitudeDegrees>
            </Position>
            <AltitudeMeters>1755.800048828125</AltitudeMeters>
            <DistanceMeters>NAN</DistanceMeters>
          </Trackpoint>
          <Trackpoint>
            <Time>2018-12-30T13:02:47.000Z</Time>
            <Position>
              <LatitudeDegrees>40.76569964177906513214111328125</LatitudeDegrees>
              <LongitudeDegrees>-4.087275825440883636474609375</LongitudeDegrees>
            </Position>
            <AltitudeMeters>1755.800048828125</AltitudeMeters>
            <DistanceMeters>NAN</DistanceMeters>
          </Trackpoint>
          <Trackpoint>
            <Time>2018-12-30T13:02:48.000Z</Time>
            <Position>
              <LatitudeDegrees>40.7656891644001007080078125</LatitudeDegrees>
              <LongitudeDegrees>-4.0872890688478946685791015625</LongitudeDegrees>
            </Position>
            <AltitudeMeters>1755.5999755859375</AltitudeMeters>
            <DistanceMeters>NAN</DistanceMeters>
          </Trackpoint>
          <Trackpoint>
            <Time>2018-12-30T13:02:49.000Z</Time>
            <Position>
              <LatitudeDegrees>40.76567600481212139129638671875</LatitudeDegrees>
              <LongitudeDegrees>-4.0873051621019840240478515625</LongitudeDegrees>
            </Position>
            <AltitudeMeters>1755.5999755859375</AltitudeMeters>
            <DistanceMeters>NAN</DistanceMeters>
          </Trackpoint>
          <Trackpoint>
            <Time>2018-12-30T13:02:50.000Z</Time>
            <Position>
              <LatitudeDegrees>40.765663348138332366943359375</LatitudeDegrees>
              <LongitudeDegrees>-4.0873168967664241790771484375</LongitudeDegrees>
            </Position>
            <AltitudeMeters>1755.4000244140625</AltitudeMeters>
            <DistanceMeters>NAN</DistanceMeters>
          </Trackpoint>
          <Trackpoint>
            <Time>2018-12-30T13:02:51.000Z</Time>
            <Position>
              <LatitudeDegrees>40.76564951799809932708740234375</LatitudeDegrees>
              <LongitudeDegrees>-4.08732871524989604949951171875</LongitudeDegrees>
            </Position>
            <AltitudeMeters>1755.4000244140625</AltitudeMeters>
            <DistanceMeters>NAN</DistanceMeters>
          </Trackpoint>
          <Trackpoint>
            <Time>2018-12-30T13:02:52.000Z</Time>
            <Position>
              <LatitudeDegrees>40.76563577167689800262451171875</LatitudeDegrees>
              <LongitudeDegrees>-4.087343551218509674072265625</LongitudeDegrees>
            </Position>
            <AltitudeMeters>1755.4000244140625</AltitudeMeters>
            <DistanceMeters>NAN</DistanceMeters>
          </Trackpoint>
          <Trackpoint>
            <Time>2018-12-30T13:02:53.000Z</Time>
            <Position>
              <LatitudeDegrees>40.765625126659870147705078125</LatitudeDegrees>
              <LongitudeDegrees>-4.0873564593493938446044921875</LongitudeDegrees>
            </Position>
            <AltitudeMeters>1755.4000244140625</AltitudeMeters>
            <DistanceMeters>NAN</DistanceMeters>
          </Trackpoint>
          <Trackpoint>
            <Time>2018-12-30T13:02:54.000Z</Time>
            <Position>
              <LatitudeDegrees>40.76561716385185718536376953125</LatitudeDegrees>
              <LongitudeDegrees>-4.08736945129930973052978515625</LongitudeDegrees>
            </Position>
            <AltitudeMeters>1755.199951171875</AltitudeMeters>
            <DistanceMeters>NAN</DistanceMeters>
          </Trackpoint>
          <Trackpoint>
            <Time>2018-12-30T13:02:55.000Z</Time>
            <Position>
              <LatitudeDegrees>40.76561272144317626953125</LatitudeDegrees>
              <LongitudeDegrees>-4.08738252706825733184814453125</LongitudeDegrees>
            </Position>
            <AltitudeMeters>1754.800048828125</AltitudeMeters>
            <DistanceMeters>NAN</DistanceMeters>
          </Trackpoint>
          <Trackpoint>
            <Time>2018-12-30T13:02:56.000Z</Time>
            <Position>
              <LatitudeDegrees>40.76560593210160732269287109375</LatitudeDegrees>
              <LongitudeDegrees>-4.0873983688652515411376953125</LongitudeDegrees>
            </Position>
            <AltitudeMeters>1754.5999755859375</AltitudeMeters>
            <DistanceMeters>NAN</DistanceMeters>
          </Trackpoint>
          <Trackpoint>
            <Time>2018-12-30T13:02:57.000Z</Time>
            <Position>
              <LatitudeDegrees>40.76559822075068950653076171875</LatitudeDegrees>
              <LongitudeDegrees>-4.08741387538611888885498046875</LongitudeDegrees>
            </Position>
            <AltitudeMeters>1754.4000244140625</AltitudeMeters>
            <DistanceMeters>NAN</DistanceMeters>
          </Trackpoint>
          <Trackpoint>
            <Time>2018-12-30T13:02:58.000Z</Time>
            <Position>
              <LatitudeDegrees>40.7655897550284862518310546875</LatitudeDegrees>
              <LongitudeDegrees>-4.08742980100214481353759765625</LongitudeDegrees>
            </Position>
            <AltitudeMeters>1754.4000244140625</AltitudeMeters>
            <DistanceMeters>NAN</DistanceMeters>
          </Trackpoint>
          <Trackpoint>
            <Time>2018-12-30T13:02:59.000Z</Time>
            <Position>
              <LatitudeDegrees>40.76557944528758525848388671875</LatitudeDegrees>
              <LongitudeDegrees>-4.08744488842785358428955078125</LongitudeDegrees>
            </Position>
            <AltitudeMeters>1754.4000244140625</AltitudeMeters>
            <DistanceMeters>NAN</DistanceMeters>
          </Trackpoint>
          <Trackpoint>
            <Time>2018-12-30T13:03:00.000Z</Time>
            <Position>
              <LatitudeDegrees>40.76557072810828685760498046875</LatitudeDegrees>
              <LongitudeDegrees>-4.08746031112968921661376953125</LongitudeDegrees>
            </Position>
            <AltitudeMeters>1754.4000244140625</AltitudeMeters>
            <DistanceMeters>NAN</DistanceMeters>
          </Trackpoint>
          <Trackpoint>
            <Time>2018-12-30T13:03:01.000Z</Time>
            <Position>
              <LatitudeDegrees>40.765562765300273895263671875</LatitudeDegrees>
              <LongitudeDegrees>-4.08747573383152484893798828125</LongitudeDegrees>
            </Position>
            <AltitudeMeters>1754.4000244140625</AltitudeMeters>
            <DistanceMeters>NAN</DistanceMeters>
          </Trackpoint>
          <Trackpoint>
            <Time>2018-12-30T13:03:02.000Z</Time>
            <Position>
              <LatitudeDegrees>40.7655550539493560791015625</LatitudeDegrees>
              <LongitudeDegrees>-4.0874945931136608123779296875</LongitudeDegrees>
            </Position>
            <AltitudeMeters>1754.4000244140625</AltitudeMeters>
            <DistanceMeters>NAN</DistanceMeters>
          </Trackpoint>
          <Trackpoint>
            <Time>2018-12-30T13:03:03.000Z</Time>
            <Position>
              <LatitudeDegrees>40.76554658822715282440185546875</LatitudeDegrees>
              <LongitudeDegrees>-4.087509848177433013916015625</LongitudeDegrees>
            </Position>
            <AltitudeMeters>1754.199951171875</AltitudeMeters>
            <DistanceMeters>NAN</DistanceMeters>
          </Trackpoint>
          <Trackpoint>
            <Time>2018-12-30T13:03:04.000Z</Time>
            <Position>
              <LatitudeDegrees>40.76553904451429843902587890625</LatitudeDegrees>
              <LongitudeDegrees>-4.08752501942217350006103515625</LongitudeDegrees>
            </Position>
            <AltitudeMeters>1754</AltitudeMeters>
            <DistanceMeters>NAN</DistanceMeters>
          </Trackpoint>
          <Trackpoint>
            <Time>2018-12-30T13:03:05.000Z</Time>
            <Position>
              <LatitudeDegrees>40.76553401537239551544189453125</LatitudeDegrees>
              <LongitudeDegrees>-4.08754262141883373260498046875</LongitudeDegrees>
            </Position>
            <AltitudeMeters>1754</AltitudeMeters>
            <DistanceMeters>NAN</DistanceMeters>
          </Trackpoint>
          <Trackpoint>
            <Time>2018-12-30T13:03:06.000Z</Time>
            <Position>
              <LatitudeDegrees>40.7655240409076213836669921875</LatitudeDegrees>
              <LongitudeDegrees>-4.087553434073925018310546875</LongitudeDegrees>
            </Position>
            <AltitudeMeters>1753.800048828125</AltitudeMeters>
            <DistanceMeters>NAN</DistanceMeters>
          </Trackpoint>
          <Trackpoint>
            <Time>2018-12-30T13:03:07.000Z</Time>
            <Position>
              <LatitudeDegrees>40.76551817357540130615234375</LatitudeDegrees>
              <LongitudeDegrees>-4.08757162280380725860595703125</LongitudeDegrees>
            </Position>
            <AltitudeMeters>1753.800048828125</AltitudeMeters>
            <DistanceMeters>NAN</DistanceMeters>
          </Trackpoint>
          <Trackpoint>
            <Time>2018-12-30T13:03:08.000Z</Time>
            <Position>
              <LatitudeDegrees>40.76550987549126148223876953125</LatitudeDegrees>
              <LongitudeDegrees>-4.08758637495338916778564453125</LongitudeDegrees>
            </Position>
            <AltitudeMeters>1753.5999755859375</AltitudeMeters>
            <DistanceMeters>NAN</DistanceMeters>
          </Trackpoint>
          <Trackpoint>
            <Time>2018-12-30T13:03:09.000Z</Time>
            <Position>
              <LatitudeDegrees>40.76550048775970935821533203125</LatitudeDegrees>
              <LongitudeDegrees>-4.0875998698174953460693359375</LongitudeDegrees>
            </Position>
            <AltitudeMeters>1753.5999755859375</AltitudeMeters>
            <DistanceMeters>NAN</DistanceMeters>
          </Trackpoint>
          <Trackpoint>
            <Time>2018-12-30T13:03:10.000Z</Time>
            <Position>
              <LatitudeDegrees>40.76548690907657146453857421875</LatitudeDegrees>
              <LongitudeDegrees>-4.08760950900614261627197265625</LongitudeDegrees>
            </Position>
            <AltitudeMeters>1753.4000244140625</AltitudeMeters>
            <DistanceMeters>NAN</DistanceMeters>
          </Trackpoint>
          <Trackpoint>
            <Time>2018-12-30T13:03:11.000Z</Time>
            <Position>
              <LatitudeDegrees>40.76547433622181415557861328125</LatitudeDegrees>
              <LongitudeDegrees>-4.0876203216612339019775390625</LongitudeDegrees>
            </Position>
            <AltitudeMeters>1753.5999755859375</AltitudeMeters>
            <DistanceMeters>NAN</DistanceMeters>
          </Trackpoint>
          <Trackpoint>
            <Time>2018-12-30T13:03:12.000Z</Time>
            <Position>
              <LatitudeDegrees>40.7654620148241519927978515625</LatitudeDegrees>
              <LongitudeDegrees>-4.0876328945159912109375</LongitudeDegrees>
            </Position>
            <AltitudeMeters>1753.5999755859375</AltitudeMeters>
            <DistanceMeters>NAN</DistanceMeters>
          </Trackpoint>
          <Trackpoint>
            <Time>2018-12-30T13:03:13.000Z</Time>
            <Position>
              <LatitudeDegrees>40.7654486037790775299072265625</LatitudeDegrees>
              <LongitudeDegrees>-4.08764571882784366607666015625</LongitudeDegrees>
            </Position>
            <AltitudeMeters>1753.5999755859375</AltitudeMeters>
            <DistanceMeters>NAN</DistanceMeters>
          </Trackpoint>
          <Trackpoint>
            <Time>2018-12-30T13:03:14.000Z</Time>
            <Position>
              <LatitudeDegrees>40.7654345221817493438720703125</LatitudeDegrees>
              <LongitudeDegrees>-4.08765661530196666717529296875</LongitudeDegrees>
            </Position>
            <AltitudeMeters>1753.800048828125</AltitudeMeters>
            <DistanceMeters>NAN</DistanceMeters>
          </Trackpoint>
          <Trackpoint>
            <Time>2018-12-30T13:03:15.000Z</Time>
            <Position>
              <LatitudeDegrees>40.76542136259377002716064453125</LatitudeDegrees>
              <LongitudeDegrees>-4.0876706130802631378173828125</LongitudeDegrees>
            </Position>
            <AltitudeMeters>1753.800048828125</AltitudeMeters>
            <DistanceMeters>NAN</DistanceMeters>
          </Trackpoint>
          <Trackpoint>
            <Time>2018-12-30T13:03:16.000Z</Time>
            <Position>
              <LatitudeDegrees>40.76540895737707614898681640625</LatitudeDegrees>
              <LongitudeDegrees>-4.08768318593502044677734375</LongitudeDegrees>
            </Position>
            <AltitudeMeters>1753.800048828125</AltitudeMeters>
            <DistanceMeters>NAN</DistanceMeters>
          </Trackpoint>
          <Trackpoint>
            <Time>2018-12-30T13:03:17.000Z</Time>
            <Position>
              <LatitudeDegrees>40.76539873145520687103271484375</LatitudeDegrees>
              <LongitudeDegrees>-4.08769601024687290191650390625</LongitudeDegrees>
            </Position>
            <AltitudeMeters>1753.800048828125</AltitudeMeters>
            <DistanceMeters>NAN</DistanceMeters>
          </Trackpoint>
          <Trackpoint>
            <Time>2018-12-30T13:03:18.000Z</Time>
            <Position>
              <LatitudeDegrees>40.76538582332432270050048828125</LatitudeDegrees>
              <LongitudeDegrees>-4.08770455978810787200927734375</LongitudeDegrees>
            </Position>
            <AltitudeMeters>1753.800048828125</AltitudeMeters>
            <DistanceMeters>NAN</DistanceMeters>
          </Trackpoint>
          <Trackpoint>
            <Time>2018-12-30T13:03:19.000Z</Time>
            <Position>
              <LatitudeDegrees>40.765370316803455352783203125</LatitudeDegrees>
              <LongitudeDegrees>-4.08771394751965999603271484375</LongitudeDegrees>
            </Position>
            <AltitudeMeters>1753.800048828125</AltitudeMeters>
            <DistanceMeters>NAN</DistanceMeters>
          </Trackpoint>
          <Trackpoint>
            <Time>2018-12-30T13:03:20.000Z</Time>
            <Position>
              <LatitudeDegrees>40.76535816304385662078857421875</LatitudeDegrees>
              <LongitudeDegrees>-4.08772786147892475128173828125</LongitudeDegrees>
            </Position>
            <AltitudeMeters>1753.5999755859375</AltitudeMeters>
            <DistanceMeters>NAN</DistanceMeters>
          </Trackpoint>
          <Trackpoint>
            <Time>2018-12-30T13:03:21.000Z</Time>
            <Position>
              <LatitudeDegrees>40.76534508727490901947021484375</LatitudeDegrees>
              <LongitudeDegrees>-4.0877396799623966217041015625</LongitudeDegrees>
            </Position>
            <AltitudeMeters>1753.5999755859375</AltitudeMeters>
            <DistanceMeters>NAN</DistanceMeters>
          </Trackpoint>
          <Trackpoint>
            <Time>2018-12-30T13:03:22.000Z</Time>
            <Position>
              <LatitudeDegrees>40.765336453914642333984375</LatitudeDegrees>
              <LongitudeDegrees>-4.08775853924453258514404296875</LongitudeDegrees>
            </Position>
            <AltitudeMeters>1753.5999755859375</AltitudeMeters>
            <DistanceMeters>NAN</DistanceMeters>
          </Trackpoint>
          <Trackpoint>
            <Time>2018-12-30T13:03:23.000Z</Time>
            <Position>
              <LatitudeDegrees>40.76532614417374134063720703125</LatitudeDegrees>
              <LongitudeDegrees>-4.0877722017467021942138671875</LongitudeDegrees>
            </Position>
            <AltitudeMeters>1753.5999755859375</AltitudeMeters>
            <DistanceMeters>NAN</DistanceMeters>
          </Trackpoint>
          <Trackpoint>
            <Time>2018-12-30T13:03:24.000Z</Time>
            <Position>
              <LatitudeDegrees>40.7653136551380157470703125</LatitudeDegrees>
              <LongitudeDegrees>-4.08778385259211063385009765625</LongitudeDegrees>
            </Position>
            <AltitudeMeters>1753.5999755859375</AltitudeMeters>
            <DistanceMeters>NAN</DistanceMeters>
          </Trackpoint>
          <Trackpoint>
            <Time>2018-12-30T13:03:25.000Z</Time>
            <Position>
              <LatitudeDegrees>40.76530334539711475372314453125</LatitudeDegrees>
              <LongitudeDegrees>-4.08779441379010677337646484375</LongitudeDegrees>
            </Position>
            <AltitudeMeters>1753.5999755859375</AltitudeMeters>
            <DistanceMeters>NAN</DistanceMeters>
          </Trackpoint>
          <Trackpoint>
            <Time>2018-12-30T13:03:26.000Z</Time>
            <Position>
              <LatitudeDegrees>40.76529328711330890655517578125</LatitudeDegrees>
              <LongitudeDegrees>-4.0878037177026271820068359375</LongitudeDegrees>
            </Position>
            <AltitudeMeters>1753.800048828125</AltitudeMeters>
            <DistanceMeters>NAN</DistanceMeters>
          </Trackpoint>
          <Trackpoint>
            <Time>2018-12-30T13:03:27.000Z</Time>
            <Position>
              <LatitudeDegrees>40.76528482139110565185546875</LatitudeDegrees>
              <LongitudeDegrees>-4.08781687729060649871826171875</LongitudeDegrees>
            </Position>
            <AltitudeMeters>1754</AltitudeMeters>
            <DistanceMeters>NAN</DistanceMeters>
          </Trackpoint>
          <Trackpoint>
            <Time>2018-12-30T13:03:28.000Z</Time>
            <Position>
              <LatitudeDegrees>40.76527551747858524322509765625</LatitudeDegrees>
              <LongitudeDegrees>-4.08782928250730037689208984375</LongitudeDegrees>
            </Position>
            <AltitudeMeters>1754</AltitudeMeters>
            <DistanceMeters>NAN</DistanceMeters>
          </Trackpoint>
          <Trackpoint>
            <Time>2018-12-30T13:03:29.000Z</Time>
            <Position>
              <LatitudeDegrees>40.7652626931667327880859375</LatitudeDegrees>
              <LongitudeDegrees>-4.08783598802983760833740234375</LongitudeDegrees>
            </Position>
            <AltitudeMeters>1754</AltitudeMeters>
            <DistanceMeters>NAN</DistanceMeters>
          </Trackpoint>
          <Trackpoint>
            <Time>2018-12-30T13:03:30.000Z</Time>
            <Position>
              <LatitudeDegrees>40.76525104232132434844970703125</LatitudeDegrees>
              <LongitudeDegrees>-4.08784755505621433258056640625</LongitudeDegrees>
            </Position>
            <AltitudeMeters>1754</AltitudeMeters>
            <DistanceMeters>NAN</DistanceMeters>
          </Trackpoint>
          <Trackpoint>
            <Time>2018-12-30T13:03:31.000Z</Time>
            <Position>
              <LatitudeDegrees>40.765238888561725616455078125</LatitudeDegrees>
              <LongitudeDegrees>-4.08785711042582988739013671875</LongitudeDegrees>
            </Position>
            <AltitudeMeters>1754</AltitudeMeters>
            <DistanceMeters>NAN</DistanceMeters>
          </Trackpoint>
          <Trackpoint>
            <Time>2018-12-30T13:03:32.000Z</Time>
            <Position>
              <LatitudeDegrees>40.76522673480212688446044921875</LatitudeDegrees>
              <LongitudeDegrees>-4.08786884509027004241943359375</LongitudeDegrees>
            </Position>
            <AltitudeMeters>1754.199951171875</AltitudeMeters>
            <DistanceMeters>NAN</DistanceMeters>
          </Trackpoint>
          <Trackpoint>
            <Time>2018-12-30T13:03:33.000Z</Time>
            <Position>
              <LatitudeDegrees>40.76521550305187702178955078125</LatitudeDegrees>
              <LongitudeDegrees>-4.0878758020699024200439453125</LongitudeDegrees>
            </Position>
            <AltitudeMeters>1754.199951171875</AltitudeMeters>
            <DistanceMeters>NAN</DistanceMeters>
          </Trackpoint>
          <Trackpoint>
            <Time>2018-12-30T13:03:34.000Z</Time>
            <Position>
              <LatitudeDegrees>40.76520343311131000518798828125</LatitudeDegrees>
              <LongitudeDegrees>-4.08787789754569530487060546875</LongitudeDegrees>
            </Position>
            <AltitudeMeters>1754.199951171875</AltitudeMeters>
            <DistanceMeters>NAN</DistanceMeters>
          </Trackpoint>
          <Trackpoint>
            <Time>2018-12-30T13:03:35.000Z</Time>
            <Position>
              <LatitudeDegrees>40.7651860825717449188232421875</LatitudeDegrees>
              <LongitudeDegrees>-4.08788125030696392059326171875</LongitudeDegrees>
            </Position>
            <AltitudeMeters>1754.199951171875</AltitudeMeters>
            <DistanceMeters>NAN</DistanceMeters>
          </Trackpoint>
          <Trackpoint>
            <Time>2018-12-30T13:03:36.000Z</Time>
            <Position>
              <LatitudeDegrees>40.7651723362505435943603515625</LatitudeDegrees>
              <LongitudeDegrees>-4.08788627944886684417724609375</LongitudeDegrees>
            </Position>
            <AltitudeMeters>1754.4000244140625</AltitudeMeters>
            <DistanceMeters>NAN</DistanceMeters>
          </Trackpoint>
          <Trackpoint>
            <Time>2018-12-30T13:03:37.000Z</Time>
            <Position>
              <LatitudeDegrees>40.76515750028192996978759765625</LatitudeDegrees>
              <LongitudeDegrees>-4.08788971602916717529296875</LongitudeDegrees>
            </Position>
            <AltitudeMeters>1754.4000244140625</AltitudeMeters>
            <DistanceMeters>NAN</DistanceMeters>
          </Trackpoint>
          <Trackpoint>
            <Time>2018-12-30T13:03:38.000Z</Time>
            <Position>
              <LatitudeDegrees>40.76514140702784061431884765625</LatitudeDegrees>
              <LongitudeDegrees>-4.08789449371397495269775390625</LongitudeDegrees>
            </Position>
            <AltitudeMeters>1754.5999755859375</AltitudeMeters>
            <DistanceMeters>NAN</DistanceMeters>
          </Trackpoint>
          <Trackpoint>
            <Time>2018-12-30T13:03:39.000Z</Time>
            <Position>
              <LatitudeDegrees>40.765126906335353851318359375</LatitudeDegrees>
              <LongitudeDegrees>-4.0878986008465290069580078125</LongitudeDegrees>
            </Position>
            <AltitudeMeters>1754.5999755859375</AltitudeMeters>
            <DistanceMeters>NAN</DistanceMeters>
          </Trackpoint>
          <Trackpoint>
            <Time>2018-12-30T13:03:40.000Z</Time>
            <Position>
              <LatitudeDegrees>40.765112824738025665283203125</LatitudeDegrees>
              <LongitudeDegrees>-4.0879026241600513458251953125</LongitudeDegrees>
            </Position>
            <AltitudeMeters>1754.800048828125</AltitudeMeters>
            <DistanceMeters>NAN</DistanceMeters>
          </Trackpoint>
          <Trackpoint>
            <Time>2018-12-30T13:03:41.000Z</Time>
            <Position>
              <LatitudeDegrees>40.76509765349328517913818359375</LatitudeDegrees>
              <LongitudeDegrees>-4.087905474007129669189453125</LongitudeDegrees>
            </Position>
            <AltitudeMeters>1754.800048828125</AltitudeMeters>
            <DistanceMeters>NAN</DistanceMeters>
          </Trackpoint>
          <Trackpoint>
            <Time>2018-12-30T13:03:42.000Z</Time>
            <Position>
              <LatitudeDegrees>40.76508290134370326995849609375</LatitudeDegrees>
              <LongitudeDegrees>-4.08790840767323970794677734375</LongitudeDegrees>
            </Position>
            <AltitudeMeters>1754.800048828125</AltitudeMeters>
            <DistanceMeters>NAN</DistanceMeters>
          </Trackpoint>
          <Trackpoint>
            <Time>2018-12-30T13:03:43.000Z</Time>
            <Position>
              <LatitudeDegrees>40.7650673948228359222412109375</LatitudeDegrees>
              <LongitudeDegrees>-4.08791117370128631591796875</LongitudeDegrees>
            </Position>
            <AltitudeMeters>1755</AltitudeMeters>
            <DistanceMeters>NAN</DistanceMeters>
          </Trackpoint>
          <Trackpoint>
            <Time>2018-12-30T13:03:44.000Z</Time>
            <Position>
              <LatitudeDegrees>40.76505155302584171295166015625</LatitudeDegrees>
              <LongitudeDegrees>-4.0879167057573795318603515625</LongitudeDegrees>
            </Position>
            <AltitudeMeters>1755</AltitudeMeters>
            <DistanceMeters>NAN</DistanceMeters>
          </Trackpoint>
          <Trackpoint>
            <Time>2018-12-30T13:03:45.000Z</Time>
            <Position>
              <LatitudeDegrees>40.7650382257997989654541015625</LatitudeDegrees>
              <LongitudeDegrees>-4.0879207290709018707275390625</LongitudeDegrees>
            </Position>
            <AltitudeMeters>1755.199951171875</AltitudeMeters>
            <DistanceMeters>NAN</DistanceMeters>
          </Trackpoint>
          <Trackpoint>
            <Time>2018-12-30T13:03:46.000Z</Time>
            <Position>
              <LatitudeDegrees>40.76502322219312191009521484375</LatitudeDegrees>
              <LongitudeDegrees>-4.0879239141941070556640625</LongitudeDegrees>
            </Position>
            <AltitudeMeters>1755.4000244140625</AltitudeMeters>
            <DistanceMeters>NAN</DistanceMeters>
          </Trackpoint>
          <Trackpoint>
            <Time>2018-12-30T13:03:47.000Z</Time>
            <Position>
              <LatitudeDegrees>40.76500830240547657012939453125</LatitudeDegrees>
              <LongitudeDegrees>-4.08792533911764621734619140625</LongitudeDegrees>
            </Position>
            <AltitudeMeters>1755.5999755859375</AltitudeMeters>
            <DistanceMeters>NAN</DistanceMeters>
          </Trackpoint>
          <Trackpoint>
            <Time>2018-12-30T13:03:48.000Z</Time>
            <Position>
              <LatitudeDegrees>40.76499405317008495330810546875</LatitudeDegrees>
              <LongitudeDegrees>-4.08792567439377307891845703125</LongitudeDegrees>
            </Position>
            <AltitudeMeters>1755.5999755859375</AltitudeMeters>
            <DistanceMeters>NAN</DistanceMeters>
          </Trackpoint>
          <Trackpoint>
            <Time>2018-12-30T13:03:49.000Z</Time>
            <Position>
              <LatitudeDegrees>40.7649782113730907440185546875</LatitudeDegrees>
              <LongitudeDegrees>-4.087926261126995086669921875</LongitudeDegrees>
            </Position>
            <AltitudeMeters>1755.5999755859375</AltitudeMeters>
            <DistanceMeters>NAN</DistanceMeters>
          </Trackpoint>
          <Trackpoint>
            <Time>2018-12-30T13:03:50.000Z</Time>
            <Position>
              <LatitudeDegrees>40.764961279928684234619140625</LatitudeDegrees>
              <LongitudeDegrees>-4.08792885951697826385498046875</LongitudeDegrees>
            </Position>
            <AltitudeMeters>1755.4000244140625</AltitudeMeters>
            <DistanceMeters>NAN</DistanceMeters>
          </Trackpoint>
          <Trackpoint>
            <Time>2018-12-30T13:03:51.000Z</Time>
            <Position>
              <LatitudeDegrees>40.76494644396007061004638671875</LatitudeDegrees>
              <LongitudeDegrees>-4.08793271519243717193603515625</LongitudeDegrees>
            </Position>
            <AltitudeMeters>1755.4000244140625</AltitudeMeters>
            <DistanceMeters>NAN</DistanceMeters>
          </Trackpoint>
          <Trackpoint>
            <Time>2018-12-30T13:03:52.000Z</Time>
            <Position>
              <LatitudeDegrees>40.7649300992488861083984375</LatitudeDegrees>
              <LongitudeDegrees>-4.087937660515308380126953125</LongitudeDegrees>
            </Position>
            <AltitudeMeters>1755.4000244140625</AltitudeMeters>
            <DistanceMeters>NAN</DistanceMeters>
          </Trackpoint>
          <Trackpoint>
            <Time>2018-12-30T13:03:53.000Z</Time>
            <Position>
              <LatitudeDegrees>40.764913670718669891357421875</LatitudeDegrees>
              <LongitudeDegrees>-4.087939672172069549560546875</LongitudeDegrees>
            </Position>
            <AltitudeMeters>1755.4000244140625</AltitudeMeters>
            <DistanceMeters>NAN</DistanceMeters>
          </Trackpoint>
          <Trackpoint>
            <Time>2018-12-30T13:03:54.000Z</Time>
            <Position>
              <LatitudeDegrees>40.76489933766424655914306640625</LatitudeDegrees>
              <LongitudeDegrees>-4.08794092945754528045654296875</LongitudeDegrees>
            </Position>
            <AltitudeMeters>1755.5999755859375</AltitudeMeters>
            <DistanceMeters>NAN</DistanceMeters>
          </Trackpoint>
          <Trackpoint>
            <Time>2018-12-30T13:03:55.000Z</Time>
            <Position>
              <LatitudeDegrees>40.76488458551466464996337890625</LatitudeDegrees>
              <LongitudeDegrees>-4.08794067800045013427734375</LongitudeDegrees>
            </Position>
            <AltitudeMeters>1755.5999755859375</AltitudeMeters>
            <DistanceMeters>NAN</DistanceMeters>
          </Trackpoint>
          <Trackpoint>
            <Time>2018-12-30T13:03:56.000Z</Time>
            <Position>
              <LatitudeDegrees>40.7648710906505584716796875</LatitudeDegrees>
              <LongitudeDegrees>-4.08793925307691097259521484375</LongitudeDegrees>
            </Position>
            <AltitudeMeters>1755.5999755859375</AltitudeMeters>
            <DistanceMeters>NAN</DistanceMeters>
          </Trackpoint>
          <Trackpoint>
            <Time>2018-12-30T13:03:57.000Z</Time>
            <Position>
              <LatitudeDegrees>40.76485591940581798553466796875</LatitudeDegrees>
              <LongitudeDegrees>-4.0879400074481964111328125</LongitudeDegrees>
            </Position>
            <AltitudeMeters>1755.800048828125</AltitudeMeters>
            <DistanceMeters>NAN</DistanceMeters>
          </Trackpoint>
          <Trackpoint>
            <Time>2018-12-30T13:03:58.000Z</Time>
            <Position>
              <LatitudeDegrees>40.7648389041423797607421875</LatitudeDegrees>
              <LongitudeDegrees>-4.08794310875236988067626953125</LongitudeDegrees>
            </Position>
            <AltitudeMeters>1755.800048828125</AltitudeMeters>
            <DistanceMeters>NAN</DistanceMeters>
          </Trackpoint>
          <Trackpoint>
            <Time>2018-12-30T13:03:59.000Z</Time>
            <Position>
              <LatitudeDegrees>40.76482306234538555145263671875</LatitudeDegrees>
              <LongitudeDegrees>-4.08794847317039966583251953125</LongitudeDegrees>
            </Position>
            <AltitudeMeters>1756</AltitudeMeters>
            <DistanceMeters>NAN</DistanceMeters>
          </Trackpoint>
          <Trackpoint>
            <Time>2018-12-30T13:04:00.000Z</Time>
            <Position>
              <LatitudeDegrees>40.76480814255774021148681640625</LatitudeDegrees>
              <LongitudeDegrees>-4.08795434050261974334716796875</LongitudeDegrees>
            </Position>
            <AltitudeMeters>1755.800048828125</AltitudeMeters>
            <DistanceMeters>NAN</DistanceMeters>
          </Trackpoint>
          <Trackpoint>
            <Time>2018-12-30T13:04:01.000Z</Time>
            <Position>
              <LatitudeDegrees>40.76479288749396800994873046875</LatitudeDegrees>
              <LongitudeDegrees>-4.08796104602515697479248046875</LongitudeDegrees>
            </Position>
            <AltitudeMeters>1755.800048828125</AltitudeMeters>
            <DistanceMeters>NAN</DistanceMeters>
          </Trackpoint>
          <Trackpoint>
            <Time>2018-12-30T13:04:02.000Z</Time>
            <Position>
              <LatitudeDegrees>40.76477947644889354705810546875</LatitudeDegrees>
              <LongitudeDegrees>-4.08796808682382106781005859375</LongitudeDegrees>
            </Position>
            <AltitudeMeters>1755.800048828125</AltitudeMeters>
            <DistanceMeters>NAN</DistanceMeters>
          </Trackpoint>
          <Trackpoint>
            <Time>2018-12-30T13:04:03.000Z</Time>
            <Position>
              <LatitudeDegrees>40.76476941816508769989013671875</LatitudeDegrees>
              <LongitudeDegrees>-4.087971858680248260498046875</LongitudeDegrees>
            </Position>
            <AltitudeMeters>1755.5999755859375</AltitudeMeters>
            <DistanceMeters>NAN</DistanceMeters>
          </Trackpoint>
          <Trackpoint>
            <Time>2018-12-30T13:04:04.000Z</Time>
            <Position>
              <LatitudeDegrees>40.76476179063320159912109375</LatitudeDegrees>
              <LongitudeDegrees>-4.0879804082214832305908203125</LongitudeDegrees>
            </Position>
            <AltitudeMeters>1755.5999755859375</AltitudeMeters>
            <DistanceMeters>NAN</DistanceMeters>
          </Trackpoint>
          <Trackpoint>
            <Time>2018-12-30T13:04:05.000Z</Time>
            <Position>
              <LatitudeDegrees>40.7647525705397129058837890625</LatitudeDegrees>
              <LongitudeDegrees>-4.087988622486591339111328125</LongitudeDegrees>
            </Position>
            <AltitudeMeters>1755.5999755859375</AltitudeMeters>
            <DistanceMeters>NAN</DistanceMeters>
          </Trackpoint>
          <Trackpoint>
            <Time>2018-12-30T13:04:06.000Z</Time>
            <Position>
              <LatitudeDegrees>40.76474301517009735107421875</LatitudeDegrees>
              <LongitudeDegrees>-4.08800044097006320953369140625</LongitudeDegrees>
            </Position>
            <AltitudeMeters>1755.5999755859375</AltitudeMeters>
            <DistanceMeters>NAN</DistanceMeters>
          </Trackpoint>
          <Trackpoint>
            <Time>2018-12-30T13:04:07.000Z</Time>
            <Position>
              <LatitudeDegrees>40.76473237015306949615478515625</LatitudeDegrees>
              <LongitudeDegrees>-4.08801041543483734130859375</LongitudeDegrees>
            </Position>
            <AltitudeMeters>1755.4000244140625</AltitudeMeters>
            <DistanceMeters>NAN</DistanceMeters>
          </Trackpoint>
          <Trackpoint>
            <Time>2018-12-30T13:04:08.000Z</Time>
            <Position>
              <LatitudeDegrees>40.7647200487554073333740234375</LatitudeDegrees>
              <LongitudeDegrees>-4.08802038989961147308349609375</LongitudeDegrees>
            </Position>
            <AltitudeMeters>1755.4000244140625</AltitudeMeters>
            <DistanceMeters>NAN</DistanceMeters>
          </Trackpoint>
          <Trackpoint>
            <Time>2018-12-30T13:04:09.000Z</Time>
            <Position>
              <LatitudeDegrees>40.7647083140909671783447265625</LatitudeDegrees>
              <LongitudeDegrees>-4.0880306996405124664306640625</LongitudeDegrees>
            </Position>
            <AltitudeMeters>1755.4000244140625</AltitudeMeters>
            <DistanceMeters>NAN</DistanceMeters>
          </Trackpoint>
          <Trackpoint>
            <Time>2018-12-30T13:04:10.000Z</Time>
            <Position>
              <LatitudeDegrees>40.76470077037811279296875</LatitudeDegrees>
              <LongitudeDegrees>-4.088040255010128021240234375</LongitudeDegrees>
            </Position>
            <AltitudeMeters>1755.4000244140625</AltitudeMeters>
            <DistanceMeters>NAN</DistanceMeters>
          </Trackpoint>
          <Trackpoint>
            <Time>2018-12-30T13:04:11.000Z</Time>
            <Position>
              <LatitudeDegrees>40.7646935619413852691650390625</LatitudeDegrees>
              <LongitudeDegrees>-4.08804930746555328369140625</LongitudeDegrees>
            </Position>
            <AltitudeMeters>1755.4000244140625</AltitudeMeters>
            <DistanceMeters>NAN</DistanceMeters>
          </Trackpoint>
          <Trackpoint>
            <Time>2018-12-30T13:04:12.000Z</Time>
            <Position>
              <LatitudeDegrees>40.7646861858665943145751953125</LatitudeDegrees>
              <LongitudeDegrees>-4.0880555100739002227783203125</LongitudeDegrees>
            </Position>
            <AltitudeMeters>1755.199951171875</AltitudeMeters>
            <DistanceMeters>NAN</DistanceMeters>
          </Trackpoint>
          <Trackpoint>
            <Time>2018-12-30T13:04:13.000Z</Time>
            <Position>
              <LatitudeDegrees>40.76467654667794704437255859375</LatitudeDegrees>
              <LongitudeDegrees>-4.08806313760578632354736328125</LongitudeDegrees>
            </Position>
            <AltitudeMeters>1755</AltitudeMeters>
            <DistanceMeters>NAN</DistanceMeters>
          </Trackpoint>
          <Trackpoint>
            <Time>2018-12-30T13:04:14.000Z</Time>
            <Position>
              <LatitudeDegrees>40.76466766186058521270751953125</LatitudeDegrees>
              <LongitudeDegrees>-4.08807076513767242431640625</LongitudeDegrees>
            </Position>
            <AltitudeMeters>1754.800048828125</AltitudeMeters>
            <DistanceMeters>NAN</DistanceMeters>
          </Trackpoint>
          <Trackpoint>
            <Time>2018-12-30T13:04:15.000Z</Time>
            <Position>
              <LatitudeDegrees>40.76465492136776447296142578125</LatitudeDegrees>
              <LongitudeDegrees>-4.08807856030762195587158203125</LongitudeDegrees>
            </Position>
            <AltitudeMeters>1754.800048828125</AltitudeMeters>
            <DistanceMeters>NAN</DistanceMeters>
          </Trackpoint>
          <Trackpoint>
            <Time>2018-12-30T13:04:16.000Z</Time>
            <Position>
              <LatitudeDegrees>40.764643438160419464111328125</LatitudeDegrees>
              <LongitudeDegrees>-4.0880875289440155029296875</LongitudeDegrees>
            </Position>
            <AltitudeMeters>1754.5999755859375</AltitudeMeters>
            <DistanceMeters>NAN</DistanceMeters>
          </Trackpoint>
          <Trackpoint>
            <Time>2018-12-30T13:04:17.000Z</Time>
            <Position>
              <LatitudeDegrees>40.76463438570499420166015625</LatitudeDegrees>
              <LongitudeDegrees>-4.08810135908424854278564453125</LongitudeDegrees>
            </Position>
            <AltitudeMeters>1754.5999755859375</AltitudeMeters>
            <DistanceMeters>NAN</DistanceMeters>
          </Trackpoint>
          <Trackpoint>
            <Time>2018-12-30T13:04:18.000Z</Time>
            <Position>
              <LatitudeDegrees>40.76462591998279094696044921875</LatitudeDegrees>
              <LongitudeDegrees>-4.0881138481199741363525390625</LongitudeDegrees>
            </Position>
            <AltitudeMeters>1754.5999755859375</AltitudeMeters>
            <DistanceMeters>NAN</DistanceMeters>
          </Trackpoint>
          <Trackpoint>
            <Time>2018-12-30T13:04:19.000Z</Time>
            <Position>
              <LatitudeDegrees>40.764615945518016815185546875</LatitudeDegrees>
              <LongitudeDegrees>-4.0881255827844142913818359375</LongitudeDegrees>
            </Position>
            <AltitudeMeters>1754.4000244140625</AltitudeMeters>
            <DistanceMeters>NAN</DistanceMeters>
          </Trackpoint>
          <Trackpoint>
            <Time>2018-12-30T13:04:20.000Z</Time>
            <Position>
              <LatitudeDegrees>40.76460630632936954498291015625</LatitudeDegrees>
              <LongitudeDegrees>-4.088136814534664154052734375</LongitudeDegrees>
            </Position>
            <AltitudeMeters>1754.4000244140625</AltitudeMeters>
            <DistanceMeters>NAN</DistanceMeters>
          </Trackpoint>
          <Trackpoint>
            <Time>2018-12-30T13:04:21.000Z</Time>
            <Position>
              <LatitudeDegrees>40.76459549367427825927734375</LatitudeDegrees>
              <LongitudeDegrees>-4.0881470404565334320068359375</LongitudeDegrees>
            </Position>
            <AltitudeMeters>1754.4000244140625</AltitudeMeters>
            <DistanceMeters>NAN</DistanceMeters>
          </Trackpoint>
          <Trackpoint>
            <Time>2018-12-30T13:04:22.000Z</Time>
            <Position>
              <LatitudeDegrees>40.76458401046693325042724609375</LatitudeDegrees>
              <LongitudeDegrees>-4.08815584145486354827880859375</LongitudeDegrees>
            </Position>
            <AltitudeMeters>1754.199951171875</AltitudeMeters>
            <DistanceMeters>NAN</DistanceMeters>
          </Trackpoint>
          <Trackpoint>
            <Time>2018-12-30T13:04:23.000Z</Time>
            <Position>
              <LatitudeDegrees>40.764573700726032257080078125</LatitudeDegrees>
              <LongitudeDegrees>-4.08816757611930370330810546875</LongitudeDegrees>
            </Position>
            <AltitudeMeters>1754</AltitudeMeters>
            <DistanceMeters>NAN</DistanceMeters>
          </Trackpoint>
          <Trackpoint>
            <Time>2018-12-30T13:04:24.000Z</Time>
            <Position>
              <LatitudeDegrees>40.76456456445157527923583984375</LatitudeDegrees>
              <LongitudeDegrees>-4.0881788916885852813720703125</LongitudeDegrees>
            </Position>
            <AltitudeMeters>1754</AltitudeMeters>
            <DistanceMeters>NAN</DistanceMeters>
          </Trackpoint>
          <Trackpoint>
            <Time>2018-12-30T13:04:25.000Z</Time>
            <Position>
              <LatitudeDegrees>40.7645545899868011474609375</LatitudeDegrees>
              <LongitudeDegrees>-4.0881889499723911285400390625</LongitudeDegrees>
            </Position>
            <AltitudeMeters>1753.800048828125</AltitudeMeters>
            <DistanceMeters>NAN</DistanceMeters>
          </Trackpoint>
          <Trackpoint>
            <Time>2018-12-30T13:04:26.000Z</Time>
            <Position>
              <LatitudeDegrees>40.764544866979122161865234375</LatitudeDegrees>
              <LongitudeDegrees>-4.0882001817226409912109375</LongitudeDegrees>
            </Position>
            <AltitudeMeters>1753.800048828125</AltitudeMeters>
            <DistanceMeters>NAN</DistanceMeters>
          </Trackpoint>
          <Trackpoint>
            <Time>2018-12-30T13:04:27.000Z</Time>
            <Position>
              <LatitudeDegrees>40.76453774236142635345458984375</LatitudeDegrees>
              <LongitudeDegrees>-4.088213257491588592529296875</LongitudeDegrees>
            </Position>
            <AltitudeMeters>1753.800048828125</AltitudeMeters>
            <DistanceMeters>NAN</DistanceMeters>
          </Trackpoint>
          <Trackpoint>
            <Time>2018-12-30T13:04:28.000Z</Time>
            <Position>
              <LatitudeDegrees>40.76452575623989105224609375</LatitudeDegrees>
              <LongitudeDegrees>-4.0882244892418384552001953125</LongitudeDegrees>
            </Position>
            <AltitudeMeters>1753.5999755859375</AltitudeMeters>
            <DistanceMeters>NAN</DistanceMeters>
          </Trackpoint>
          <Trackpoint>
            <Time>2018-12-30T13:04:29.000Z</Time>
            <Position>
              <LatitudeDegrees>40.7645131833851337432861328125</LatitudeDegrees>
              <LongitudeDegrees>-4.0882337093353271484375</LongitudeDegrees>
            </Position>
            <AltitudeMeters>1753.5999755859375</AltitudeMeters>
            <DistanceMeters>NAN</DistanceMeters>
          </Trackpoint>
          <Trackpoint>
            <Time>2018-12-30T13:04:30.000Z</Time>
            <Position>
              <LatitudeDegrees>40.76450186781585216522216796875</LatitudeDegrees>
              <LongitudeDegrees>-4.0882419236004352569580078125</LongitudeDegrees>
            </Position>
            <AltitudeMeters>1753.5999755859375</AltitudeMeters>
            <DistanceMeters>NAN</DistanceMeters>
          </Trackpoint>
          <Trackpoint>
            <Time>2018-12-30T13:04:31.000Z</Time>
            <Position>
              <LatitudeDegrees>40.76449113897979259490966796875</LatitudeDegrees>
              <LongitudeDegrees>-4.088252484798431396484375</LongitudeDegrees>
            </Position>
            <AltitudeMeters>1753.5999755859375</AltitudeMeters>
            <DistanceMeters>NAN</DistanceMeters>
          </Trackpoint>
          <Trackpoint>
            <Time>2018-12-30T13:04:32.000Z</Time>
            <Position>
              <LatitudeDegrees>40.76447906903922557830810546875</LatitudeDegrees>
              <LongitudeDegrees>-4.088265895843505859375</LongitudeDegrees>
            </Position>
            <AltitudeMeters>1753.5999755859375</AltitudeMeters>
            <DistanceMeters>NAN</DistanceMeters>
          </Trackpoint>
          <Trackpoint>
            <Time>2018-12-30T13:04:33.000Z</Time>
            <Position>
              <LatitudeDegrees>40.7644682563841342926025390625</LatitudeDegrees>
              <LongitudeDegrees>-4.08827704377472400665283203125</LongitudeDegrees>
            </Position>
            <AltitudeMeters>1753.5999755859375</AltitudeMeters>
            <DistanceMeters>NAN</DistanceMeters>
          </Trackpoint>
          <Trackpoint>
            <Time>2018-12-30T13:04:34.000Z</Time>
            <Position>
              <LatitudeDegrees>40.764461047947406768798828125</LatitudeDegrees>
              <LongitudeDegrees>-4.0882885269820690155029296875</LongitudeDegrees>
            </Position>
            <AltitudeMeters>1753.5999755859375</AltitudeMeters>
            <DistanceMeters>NAN</DistanceMeters>
          </Trackpoint>
          <Trackpoint>
            <Time>2018-12-30T13:04:35.000Z</Time>
            <Position>
              <LatitudeDegrees>40.76445207931101322174072265625</LatitudeDegrees>
              <LongitudeDegrees>-4.0882994234561920166015625</LongitudeDegrees>
            </Position>
            <AltitudeMeters>1753.5999755859375</AltitudeMeters>
            <DistanceMeters>NAN</DistanceMeters>
          </Trackpoint>
          <Trackpoint>
            <Time>2018-12-30T13:04:36.000Z</Time>
            <Position>
              <LatitudeDegrees>40.7644390873610973358154296875</LatitudeDegrees>
              <LongitudeDegrees>-4.08831090666353702545166015625</LongitudeDegrees>
            </Position>
            <AltitudeMeters>1753.5999755859375</AltitudeMeters>
            <DistanceMeters>NAN</DistanceMeters>
          </Trackpoint>
          <Trackpoint>
            <Time>2018-12-30T13:04:37.000Z</Time>
            <Position>
              <LatitudeDegrees>40.76442726887762546539306640625</LatitudeDegrees>
              <LongitudeDegrees>-4.08832130022346973419189453125</LongitudeDegrees>
            </Position>
            <AltitudeMeters>1753.4000244140625</AltitudeMeters>
            <DistanceMeters>NAN</DistanceMeters>
          </Trackpoint>
          <Trackpoint>
            <Time>2018-12-30T13:04:38.000Z</Time>
            <Position>
              <LatitudeDegrees>40.76441771350800991058349609375</LatitudeDegrees>
              <LongitudeDegrees>-4.0883337892591953277587890625</LongitudeDegrees>
            </Position>
            <AltitudeMeters>1753.199951171875</AltitudeMeters>
            <DistanceMeters>NAN</DistanceMeters>
          </Trackpoint>
          <Trackpoint>
            <Time>2018-12-30T13:04:39.000Z</Time>
            <Position>
              <LatitudeDegrees>40.76440815813839435577392578125</LatitudeDegrees>
              <LongitudeDegrees>-4.08834636211395263671875</LongitudeDegrees>
            </Position>
            <AltitudeMeters>1753</AltitudeMeters>
            <DistanceMeters>NAN</DistanceMeters>
          </Trackpoint>
          <Trackpoint>
            <Time>2018-12-30T13:04:40.000Z</Time>
            <Position>
              <LatitudeDegrees>40.76439835131168365478515625</LatitudeDegrees>
              <LongitudeDegrees>-4.08835851587355136871337890625</LongitudeDegrees>
            </Position>
            <AltitudeMeters>1753</AltitudeMeters>
            <DistanceMeters>NAN</DistanceMeters>
          </Trackpoint>
          <Trackpoint>
            <Time>2018-12-30T13:04:41.000Z</Time>
            <Position>
              <LatitudeDegrees>40.76438762247562408447265625</LatitudeDegrees>
              <LongitudeDegrees>-4.08837251365184783935546875</LongitudeDegrees>
            </Position>
            <AltitudeMeters>1752.800048828125</AltitudeMeters>
            <DistanceMeters>NAN</DistanceMeters>
          </Trackpoint>
          <Trackpoint>
            <Time>2018-12-30T13:04:42.000Z</Time>
            <Position>
              <LatitudeDegrees>40.764376558363437652587890625</LatitudeDegrees>
              <LongitudeDegrees>-4.08838927745819091796875</LongitudeDegrees>
            </Position>
            <AltitudeMeters>1752.5999755859375</AltitudeMeters>
            <DistanceMeters>NAN</DistanceMeters>
          </Trackpoint>
          <Trackpoint>
            <Time>2018-12-30T13:04:43.000Z</Time>
            <Position>
              <LatitudeDegrees>40.76436256058514118194580078125</LatitudeDegrees>
              <LongitudeDegrees>-4.08840470016002655029296875</LongitudeDegrees>
            </Position>
            <AltitudeMeters>1752.5999755859375</AltitudeMeters>
            <DistanceMeters>NAN</DistanceMeters>
          </Trackpoint>
          <Trackpoint>
            <Time>2018-12-30T13:04:44.000Z</Time>
            <Position>
              <LatitudeDegrees>40.76434764079749584197998046875</LatitudeDegrees>
              <LongitudeDegrees>-4.0884176082909107208251953125</LongitudeDegrees>
            </Position>
            <AltitudeMeters>1752.5999755859375</AltitudeMeters>
            <DistanceMeters>NAN</DistanceMeters>
          </Trackpoint>
          <Trackpoint>
            <Time>2018-12-30T13:04:45.000Z</Time>
            <Position>
              <LatitudeDegrees>40.76433288864791393280029296875</LatitudeDegrees>
              <LongitudeDegrees>-4.08842925913631916046142578125</LongitudeDegrees>
            </Position>
            <AltitudeMeters>1752.5999755859375</AltitudeMeters>
            <DistanceMeters>NAN</DistanceMeters>
          </Trackpoint>
          <Trackpoint>
            <Time>2018-12-30T13:04:46.000Z</Time>
            <Position>
              <LatitudeDegrees>40.76431947760283946990966796875</LatitudeDegrees>
              <LongitudeDegrees>-4.08843948505818843841552734375</LongitudeDegrees>
            </Position>
            <AltitudeMeters>1752.5999755859375</AltitudeMeters>
            <DistanceMeters>NAN</DistanceMeters>
          </Trackpoint>
          <Trackpoint>
            <Time>2018-12-30T13:04:47.000Z</Time>
            <Position>
              <LatitudeDegrees>40.764306150376796722412109375</LatitudeDegrees>
              <LongitudeDegrees>-4.0884467773139476776123046875</LongitudeDegrees>
            </Position>
            <AltitudeMeters>1752.5999755859375</AltitudeMeters>
            <DistanceMeters>NAN</DistanceMeters>
          </Trackpoint>
          <Trackpoint>
            <Time>2018-12-30T13:04:48.000Z</Time>
            <Position>
              <LatitudeDegrees>40.76429382897913455963134765625</LatitudeDegrees>
              <LongitudeDegrees>-4.08845490776002407073974609375</LongitudeDegrees>
            </Position>
            <AltitudeMeters>1752.4000244140625</AltitudeMeters>
            <DistanceMeters>NAN</DistanceMeters>
          </Trackpoint>
          <Trackpoint>
            <Time>2018-12-30T13:04:49.000Z</Time>
            <Position>
              <LatitudeDegrees>40.7642791606485843658447265625</LatitudeDegrees>
              <LongitudeDegrees>-4.0884625352919101715087890625</LongitudeDegrees>
            </Position>
            <AltitudeMeters>1752.4000244140625</AltitudeMeters>
            <DistanceMeters>NAN</DistanceMeters>
          </Trackpoint>
          <Trackpoint>
            <Time>2018-12-30T13:04:50.000Z</Time>
            <Position>
              <LatitudeDegrees>40.764263905584812164306640625</LatitudeDegrees>
              <LongitudeDegrees>-4.08847150392830371856689453125</LongitudeDegrees>
            </Position>
            <AltitudeMeters>1752.4000244140625</AltitudeMeters>
            <DistanceMeters>NAN</DistanceMeters>
          </Trackpoint>
          <Trackpoint>
            <Time>2018-12-30T13:04:51.000Z</Time>
            <Position>
              <LatitudeDegrees>40.76424856670200824737548828125</LatitudeDegrees>
              <LongitudeDegrees>-4.08848206512629985809326171875</LongitudeDegrees>
            </Position>
            <AltitudeMeters>1752.199951171875</AltitudeMeters>
            <DistanceMeters>NAN</DistanceMeters>
          </Trackpoint>
          <Trackpoint>
            <Time>2018-12-30T13:04:52.000Z</Time>
            <Position>
              <LatitudeDegrees>40.76423549093306064605712890625</LatitudeDegrees>
              <LongitudeDegrees>-4.0884953923523426055908203125</LongitudeDegrees>
            </Position>
            <AltitudeMeters>1752.199951171875</AltitudeMeters>
            <DistanceMeters>NAN</DistanceMeters>
          </Trackpoint>
          <Trackpoint>
            <Time>2018-12-30T13:04:53.000Z</Time>
            <Position>
              <LatitudeDegrees>40.764219649136066436767578125</LatitudeDegrees>
              <LongitudeDegrees>-4.0885064564645290374755859375</LongitudeDegrees>
            </Position>
            <AltitudeMeters>1752</AltitudeMeters>
            <DistanceMeters>NAN</DistanceMeters>
          </Trackpoint>
          <Trackpoint>
            <Time>2018-12-30T13:04:54.000Z</Time>
            <Position>
              <LatitudeDegrees>40.76420313678681850433349609375</LatitudeDegrees>
              <LongitudeDegrees>-4.088515341281890869140625</LongitudeDegrees>
            </Position>
            <AltitudeMeters>1752</AltitudeMeters>
            <DistanceMeters>NAN</DistanceMeters>
          </Trackpoint>
          <Trackpoint>
            <Time>2018-12-30T13:04:55.000Z</Time>
            <Position>
              <LatitudeDegrees>40.7641872949898242950439453125</LatitudeDegrees>
              <LongitudeDegrees>-4.08852498047053813934326171875</LongitudeDegrees>
            </Position>
            <AltitudeMeters>1752</AltitudeMeters>
            <DistanceMeters>NAN</DistanceMeters>
          </Trackpoint>
          <Trackpoint>
            <Time>2018-12-30T13:04:56.000Z</Time>
            <Position>
              <LatitudeDegrees>40.764175392687320709228515625</LatitudeDegrees>
              <LongitudeDegrees>-4.08853788860142230987548828125</LongitudeDegrees>
            </Position>
            <AltitudeMeters>1751.800048828125</AltitudeMeters>
            <DistanceMeters>NAN</DistanceMeters>
          </Trackpoint>
          <Trackpoint>
            <Time>2018-12-30T13:04:57.000Z</Time>
            <Position>
              <LatitudeDegrees>40.76416491530835628509521484375</LatitudeDegrees>
              <LongitudeDegrees>-4.088551215827465057373046875</LongitudeDegrees>
            </Position>
            <AltitudeMeters>1751.800048828125</AltitudeMeters>
            <DistanceMeters>NAN</DistanceMeters>
          </Trackpoint>
          <Trackpoint>
            <Time>2018-12-30T13:04:58.000Z</Time>
            <Position>
              <LatitudeDegrees>40.76415561139583587646484375</LatitudeDegrees>
              <LongitudeDegrees>-4.08856253139674663543701171875</LongitudeDegrees>
            </Position>
            <AltitudeMeters>1751.800048828125</AltitudeMeters>
            <DistanceMeters>NAN</DistanceMeters>
          </Trackpoint>
          <Trackpoint>
            <Time>2018-12-30T13:04:59.000Z</Time>
            <Position>
              <LatitudeDegrees>40.764146558940410614013671875</LatitudeDegrees>
              <LongitudeDegrees>-4.088572673499584197998046875</LongitudeDegrees>
            </Position>
            <AltitudeMeters>1751.800048828125</AltitudeMeters>
            <DistanceMeters>NAN</DistanceMeters>
          </Trackpoint>
          <Trackpoint>
            <Time>2018-12-30T13:05:00.000Z</Time>
            <Position>
              <LatitudeDegrees>40.76413683593273162841796875</LatitudeDegrees>
              <LongitudeDegrees>-4.08858097158372402191162109375</LongitudeDegrees>
            </Position>
            <AltitudeMeters>1751.800048828125</AltitudeMeters>
            <DistanceMeters>NAN</DistanceMeters>
          </Trackpoint>
          <Trackpoint>
            <Time>2018-12-30T13:05:01.000Z</Time>
            <Position>
              <LatitudeDegrees>40.76413054950535297393798828125</LatitudeDegrees>
              <LongitudeDegrees>-4.088594131171703338623046875</LongitudeDegrees>
            </Position>
            <AltitudeMeters>1751.800048828125</AltitudeMeters>
            <DistanceMeters>NAN</DistanceMeters>
          </Trackpoint>
          <Trackpoint>
            <Time>2018-12-30T13:05:02.000Z</Time>
            <Position>
              <LatitudeDegrees>40.7641225866973400115966796875</LatitudeDegrees>
              <LongitudeDegrees>-4.088610894978046417236328125</LongitudeDegrees>
            </Position>
            <AltitudeMeters>1751.800048828125</AltitudeMeters>
            <DistanceMeters>NAN</DistanceMeters>
          </Trackpoint>
          <Trackpoint>
            <Time>2018-12-30T13:05:03.000Z</Time>
            <Position>
              <LatitudeDegrees>40.76411546207964420318603515625</LatitudeDegrees>
              <LongitudeDegrees>-4.08862623386085033416748046875</LongitudeDegrees>
            </Position>
            <AltitudeMeters>1751.800048828125</AltitudeMeters>
            <DistanceMeters>NAN</DistanceMeters>
          </Trackpoint>
          <Trackpoint>
            <Time>2018-12-30T13:05:04.000Z</Time>
            <Position>
              <LatitudeDegrees>40.76410858891904354095458984375</LatitudeDegrees>
              <LongitudeDegrees>-4.08864073455333709716796875</LongitudeDegrees>
            </Position>
            <AltitudeMeters>1751.5999755859375</AltitudeMeters>
            <DistanceMeters>NAN</DistanceMeters>
          </Trackpoint>
          <Trackpoint>
            <Time>2018-12-30T13:05:05.000Z</Time>
            <Position>
              <LatitudeDegrees>40.764100290834903717041015625</LatitudeDegrees>
              <LongitudeDegrees>-4.08865456469357013702392578125</LongitudeDegrees>
            </Position>
            <AltitudeMeters>1751.5999755859375</AltitudeMeters>
            <DistanceMeters>NAN</DistanceMeters>
          </Trackpoint>
          <Trackpoint>
            <Time>2018-12-30T13:05:06.000Z</Time>
            <Position>
              <LatitudeDegrees>40.76409014873206615447998046875</LatitudeDegrees>
              <LongitudeDegrees>-4.08866780810058116912841796875</LongitudeDegrees>
            </Position>
            <AltitudeMeters>1751.5999755859375</AltitudeMeters>
            <DistanceMeters>NAN</DistanceMeters>
          </Trackpoint>
          <Trackpoint>
            <Time>2018-12-30T13:05:07.000Z</Time>
            <Position>
              <LatitudeDegrees>40.76408050954341888427734375</LatitudeDegrees>
              <LongitudeDegrees>-4.0886802971363067626953125</LongitudeDegrees>
            </Position>
            <AltitudeMeters>1751.5999755859375</AltitudeMeters>
            <DistanceMeters>NAN</DistanceMeters>
          </Trackpoint>
          <Trackpoint>
            <Time>2018-12-30T13:05:08.000Z</Time>
            <Position>
              <LatitudeDegrees>40.76407087035477161407470703125</LatitudeDegrees>
              <LongitudeDegrees>-4.08869245089590549468994140625</LongitudeDegrees>
            </Position>
            <AltitudeMeters>1751.5999755859375</AltitudeMeters>
            <DistanceMeters>NAN</DistanceMeters>
          </Trackpoint>
          <Trackpoint>
            <Time>2018-12-30T13:05:09.000Z</Time>
            <Position>
              <LatitudeDegrees>40.764062739908695220947265625</LatitudeDegrees>
              <LongitudeDegrees>-4.088704772293567657470703125</LongitudeDegrees>
            </Position>
            <AltitudeMeters>1751.5999755859375</AltitudeMeters>
            <DistanceMeters>NAN</DistanceMeters>
          </Trackpoint>
          <Trackpoint>
            <Time>2018-12-30T13:05:10.000Z</Time>
            <Position>
              <LatitudeDegrees>40.7640558667480945587158203125</LatitudeDegrees>
              <LongitudeDegrees>-4.08871583640575408935546875</LongitudeDegrees>
            </Position>
            <AltitudeMeters>1751.5999755859375</AltitudeMeters>
            <DistanceMeters>NAN</DistanceMeters>
          </Trackpoint>
          <Trackpoint>
            <Time>2018-12-30T13:05:11.000Z</Time>
            <Position>
              <LatitudeDegrees>40.7640474848449230194091796875</LatitudeDegrees>
              <LongitudeDegrees>-4.08872715197503566741943359375</LongitudeDegrees>
            </Position>
            <AltitudeMeters>1751.5999755859375</AltitudeMeters>
            <DistanceMeters>NAN</DistanceMeters>
          </Trackpoint>
          <Trackpoint>
            <Time>2018-12-30T13:05:12.000Z</Time>
            <Position>
              <LatitudeDegrees>40.76403901912271976470947265625</LatitudeDegrees>
              <LongitudeDegrees>-4.088741652667522430419921875</LongitudeDegrees>
            </Position>
            <AltitudeMeters>1751.5999755859375</AltitudeMeters>
            <DistanceMeters>NAN</DistanceMeters>
          </Trackpoint>
          <Trackpoint>
            <Time>2018-12-30T13:05:13.000Z</Time>
            <Position>
              <LatitudeDegrees>40.7640317268669605255126953125</LatitudeDegrees>
              <LongitudeDegrees>-4.08875414170324802398681640625</LongitudeDegrees>
            </Position>
            <AltitudeMeters>1751.5999755859375</AltitudeMeters>
            <DistanceMeters>NAN</DistanceMeters>
          </Trackpoint>
          <Trackpoint>
            <Time>2018-12-30T13:05:14.000Z</Time>
            <Position>
              <LatitudeDegrees>40.76402443461120128631591796875</LatitudeDegrees>
              <LongitudeDegrees>-4.0887673012912273406982421875</LongitudeDegrees>
            </Position>
            <AltitudeMeters>1751.5999755859375</AltitudeMeters>
            <DistanceMeters>NAN</DistanceMeters>
          </Trackpoint>
          <Trackpoint>
            <Time>2018-12-30T13:05:15.000Z</Time>
            <Position>
              <LatitudeDegrees>40.76401823200285434722900390625</LatitudeDegrees>
              <LongitudeDegrees>-4.0887830592691898345947265625</LongitudeDegrees>
            </Position>
            <AltitudeMeters>1751.5999755859375</AltitudeMeters>
            <DistanceMeters>NAN</DistanceMeters>
          </Trackpoint>
          <Trackpoint>
            <Time>2018-12-30T13:05:16.000Z</Time>
            <Position>
              <LatitudeDegrees>40.76401412487030029296875</LatitudeDegrees>
              <LongitudeDegrees>-4.08880342729389667510986328125</LongitudeDegrees>
            </Position>
            <AltitudeMeters>1751.5999755859375</AltitudeMeters>
            <DistanceMeters>NAN</DistanceMeters>
          </Trackpoint>
          <Trackpoint>
            <Time>2018-12-30T13:05:17.000Z</Time>
            <Position>
              <LatitudeDegrees>40.76400884427130222320556640625</LatitudeDegrees>
              <LongitudeDegrees>-4.088822118937969207763671875</LongitudeDegrees>
            </Position>
            <AltitudeMeters>1751.5999755859375</AltitudeMeters>
            <DistanceMeters>NAN</DistanceMeters>
          </Trackpoint>
          <Trackpoint>
            <Time>2018-12-30T13:05:18.000Z</Time>
            <Position>
              <LatitudeDegrees>40.7640025578439235687255859375</LatitudeDegrees>
              <LongitudeDegrees>-4.088837541639804840087890625</LongitudeDegrees>
            </Position>
            <AltitudeMeters>1751.5999755859375</AltitudeMeters>
            <DistanceMeters>NAN</DistanceMeters>
          </Trackpoint>
          <Trackpoint>
            <Time>2018-12-30T13:05:19.000Z</Time>
            <Position>
              <LatitudeDegrees>40.76399526558816432952880859375</LatitudeDegrees>
              <LongitudeDegrees>-4.08885355107486248016357421875</LongitudeDegrees>
            </Position>
            <AltitudeMeters>1751.5999755859375</AltitudeMeters>
            <DistanceMeters>NAN</DistanceMeters>
          </Trackpoint>
          <Trackpoint>
            <Time>2018-12-30T13:05:20.000Z</Time>
            <Position>
              <LatitudeDegrees>40.76398705132305622100830078125</LatitudeDegrees>
              <LongitudeDegrees>-4.0888672135770320892333984375</LongitudeDegrees>
            </Position>
            <AltitudeMeters>1751.5999755859375</AltitudeMeters>
            <DistanceMeters>NAN</DistanceMeters>
          </Trackpoint>
          <Trackpoint>
            <Time>2018-12-30T13:05:21.000Z</Time>
            <Position>
              <LatitudeDegrees>40.763980932533740997314453125</LatitudeDegrees>
              <LongitudeDegrees>-4.08888573758304119110107421875</LongitudeDegrees>
            </Position>
            <AltitudeMeters>1751.4000244140625</AltitudeMeters>
            <DistanceMeters>NAN</DistanceMeters>
          </Trackpoint>
          <Trackpoint>
            <Time>2018-12-30T13:05:22.000Z</Time>
            <Position>
              <LatitudeDegrees>40.763975568115711212158203125</LatitudeDegrees>
              <LongitudeDegrees>-4.08890090882778167724609375</LongitudeDegrees>
            </Position>
            <AltitudeMeters>1751.5999755859375</AltitudeMeters>
            <DistanceMeters>NAN</DistanceMeters>
          </Trackpoint>
          <Trackpoint>
            <Time>2018-12-30T13:05:23.000Z</Time>
            <Position>
              <LatitudeDegrees>40.76396861113607883453369140625</LatitudeDegrees>
              <LongitudeDegrees>-4.0889124758541584014892578125</LongitudeDegrees>
            </Position>
            <AltitudeMeters>1751.5999755859375</AltitudeMeters>
            <DistanceMeters>NAN</DistanceMeters>
          </Trackpoint>
          <Trackpoint>
            <Time>2018-12-30T13:05:24.000Z</Time>
            <Position>
              <LatitudeDegrees>40.76396048069000244140625</LatitudeDegrees>
              <LongitudeDegrees>-4.08892379142343997955322265625</LongitudeDegrees>
            </Position>
            <AltitudeMeters>1751.5999755859375</AltitudeMeters>
            <DistanceMeters>NAN</DistanceMeters>
          </Trackpoint>
          <Trackpoint>
            <Time>2018-12-30T13:05:25.000Z</Time>
            <Position>
              <LatitudeDegrees>40.763950757682323455810546875</LatitudeDegrees>
              <LongitudeDegrees>-4.08893988467752933502197265625</LongitudeDegrees>
            </Position>
            <AltitudeMeters>1751.5999755859375</AltitudeMeters>
            <DistanceMeters>NAN</DistanceMeters>
          </Trackpoint>
          <Trackpoint>
            <Time>2018-12-30T13:05:26.000Z</Time>
            <Position>
              <LatitudeDegrees>40.76394296251237392425537109375</LatitudeDegrees>
              <LongitudeDegrees>-4.08895379863679409027099609375</LongitudeDegrees>
            </Position>
            <AltitudeMeters>1751.5999755859375</AltitudeMeters>
            <DistanceMeters>NAN</DistanceMeters>
          </Trackpoint>
          <Trackpoint>
            <Time>2018-12-30T13:05:27.000Z</Time>
            <Position>
              <LatitudeDegrees>40.76393675990402698516845703125</LatitudeDegrees>
              <LongitudeDegrees>-4.08896788023412227630615234375</LongitudeDegrees>
            </Position>
            <AltitudeMeters>1751.5999755859375</AltitudeMeters>
            <DistanceMeters>NAN</DistanceMeters>
          </Trackpoint>
          <Trackpoint>
            <Time>2018-12-30T13:05:28.000Z</Time>
            <Position>
              <LatitudeDegrees>40.763930976390838623046875</LatitudeDegrees>
              <LongitudeDegrees>-4.08897911198437213897705078125</LongitudeDegrees>
            </Position>
            <AltitudeMeters>1751.800048828125</AltitudeMeters>
            <DistanceMeters>NAN</DistanceMeters>
          </Trackpoint>
          <Trackpoint>
            <Time>2018-12-30T13:05:29.000Z</Time>
            <Position>
              <LatitudeDegrees>40.76392485760152339935302734375</LatitudeDegrees>
              <LongitudeDegrees>-4.08899076282978057861328125</LongitudeDegrees>
            </Position>
            <AltitudeMeters>1751.800048828125</AltitudeMeters>
            <DistanceMeters>NAN</DistanceMeters>
          </Trackpoint>
          <Trackpoint>
            <Time>2018-12-30T13:05:30.000Z</Time>
            <Position>
              <LatitudeDegrees>40.7639200799167156219482421875</LatitudeDegrees>
              <LongitudeDegrees>-4.0890080295503139495849609375</LongitudeDegrees>
            </Position>
            <AltitudeMeters>1751.5999755859375</AltitudeMeters>
            <DistanceMeters>NAN</DistanceMeters>
          </Trackpoint>
          <Trackpoint>
            <Time>2018-12-30T13:05:31.000Z</Time>
            <Position>
              <LatitudeDegrees>40.763911865651607513427734375</LatitudeDegrees>
              <LongitudeDegrees>-4.0890231169760227203369140625</LongitudeDegrees>
            </Position>
            <AltitudeMeters>1751.5999755859375</AltitudeMeters>
            <DistanceMeters>NAN</DistanceMeters>
          </Trackpoint>
          <Trackpoint>
            <Time>2018-12-30T13:05:32.000Z</Time>
            <Position>
              <LatitudeDegrees>40.7639046572148799896240234375</LatitudeDegrees>
              <LongitudeDegrees>-4.08904046751558780670166015625</LongitudeDegrees>
            </Position>
            <AltitudeMeters>1751.5999755859375</AltitudeMeters>
            <DistanceMeters>NAN</DistanceMeters>
          </Trackpoint>
          <Trackpoint>
            <Time>2018-12-30T13:05:33.000Z</Time>
            <Position>
              <LatitudeDegrees>40.7638959400355815887451171875</LatitudeDegrees>
              <LongitudeDegrees>-4.0890579856932163238525390625</LongitudeDegrees>
            </Position>
            <AltitudeMeters>1751.4000244140625</AltitudeMeters>
            <DistanceMeters>NAN</DistanceMeters>
          </Trackpoint>
          <Trackpoint>
            <Time>2018-12-30T13:05:34.000Z</Time>
            <Position>
              <LatitudeDegrees>40.76389283873140811920166015625</LatitudeDegrees>
              <LongitudeDegrees>-4.0890811197459697723388671875</LongitudeDegrees>
            </Position>
            <AltitudeMeters>1751.4000244140625</AltitudeMeters>
            <DistanceMeters>NAN</DistanceMeters>
          </Trackpoint>
          <Trackpoint>
            <Time>2018-12-30T13:05:35.000Z</Time>
            <Position>
              <LatitudeDegrees>40.76389132998883724212646484375</LatitudeDegrees>
              <LongitudeDegrees>-4.08910232596099376678466796875</LongitudeDegrees>
            </Position>
            <AltitudeMeters>1751.199951171875</AltitudeMeters>
            <DistanceMeters>NAN</DistanceMeters>
          </Trackpoint>
          <Trackpoint>
            <Time>2018-12-30T13:05:36.000Z</Time>
            <Position>
              <LatitudeDegrees>40.7638868875801563262939453125</LatitudeDegrees>
              <LongitudeDegrees>-4.08912546001374721527099609375</LongitudeDegrees>
            </Position>
            <AltitudeMeters>1751.199951171875</AltitudeMeters>
            <DistanceMeters>NAN</DistanceMeters>
          </Trackpoint>
          <Trackpoint>
            <Time>2018-12-30T13:05:37.000Z</Time>
            <Position>
              <LatitudeDegrees>40.7638801820576190948486328125</LatitudeDegrees>
              <LongitudeDegrees>-4.08914775587618350982666015625</LongitudeDegrees>
            </Position>
            <AltitudeMeters>1751.199951171875</AltitudeMeters>
            <DistanceMeters>NAN</DistanceMeters>
          </Trackpoint>
          <Trackpoint>
            <Time>2018-12-30T13:05:38.000Z</Time>
            <Position>
              <LatitudeDegrees>40.7638711296021938323974609375</LatitudeDegrees>
              <LongitudeDegrees>-4.0891676209867000579833984375</LongitudeDegrees>
            </Position>
            <AltitudeMeters>1751</AltitudeMeters>
            <DistanceMeters>NAN</DistanceMeters>
          </Trackpoint>
          <Trackpoint>
            <Time>2018-12-30T13:05:39.000Z</Time>
            <Position>
              <LatitudeDegrees>40.7638630829751491546630859375</LatitudeDegrees>
              <LongitudeDegrees>-4.0891840495169162750244140625</LongitudeDegrees>
            </Position>
            <AltitudeMeters>1750.800048828125</AltitudeMeters>
            <DistanceMeters>NAN</DistanceMeters>
          </Trackpoint>
          <Trackpoint>
            <Time>2018-12-30T13:05:40.000Z</Time>
            <Position>
              <LatitudeDegrees>40.7638506777584552764892578125</LatitudeDegrees>
              <LongitudeDegrees>-4.0891961194574832916259765625</LongitudeDegrees>
            </Position>
            <AltitudeMeters>1750.5999755859375</AltitudeMeters>
            <DistanceMeters>NAN</DistanceMeters>
          </Trackpoint>
          <Trackpoint>
            <Time>2018-12-30T13:05:41.000Z</Time>
            <Position>
              <LatitudeDegrees>40.76383349485695362091064453125</LatitudeDegrees>
              <LongitudeDegrees>-4.08920693211257457733154296875</LongitudeDegrees>
            </Position>
            <AltitudeMeters>1750.4000244140625</AltitudeMeters>
            <DistanceMeters>NAN</DistanceMeters>
          </Trackpoint>
          <Trackpoint>
            <Time>2018-12-30T13:05:42.000Z</Time>
            <Position>
              <LatitudeDegrees>40.76381840743124485015869140625</LatitudeDegrees>
              <LongitudeDegrees>-4.089217744767665863037109375</LongitudeDegrees>
            </Position>
            <AltitudeMeters>1750.199951171875</AltitudeMeters>
            <DistanceMeters>NAN</DistanceMeters>
          </Trackpoint>
          <Trackpoint>
            <Time>2018-12-30T13:05:43.000Z</Time>
            <Position>
              <LatitudeDegrees>40.76380482874810695648193359375</LatitudeDegrees>
              <LongitudeDegrees>-4.08923157490789890289306640625</LongitudeDegrees>
            </Position>
            <AltitudeMeters>1750</AltitudeMeters>
            <DistanceMeters>NAN</DistanceMeters>
          </Trackpoint>
          <Trackpoint>
            <Time>2018-12-30T13:05:44.000Z</Time>
            <Position>
              <LatitudeDegrees>40.763797201216220855712890625</LatitudeDegrees>
              <LongitudeDegrees>-4.08924615941941738128662109375</LongitudeDegrees>
            </Position>
            <AltitudeMeters>1750</AltitudeMeters>
            <DistanceMeters>NAN</DistanceMeters>
          </Trackpoint>
          <Trackpoint>
            <Time>2018-12-30T13:05:45.000Z</Time>
            <Position>
              <LatitudeDegrees>40.76378789730370044708251953125</LatitudeDegrees>
              <LongitudeDegrees>-4.0892596542835235595703125</LongitudeDegrees>
            </Position>
            <AltitudeMeters>1750</AltitudeMeters>
            <DistanceMeters>NAN</DistanceMeters>
          </Trackpoint>
          <Trackpoint>
            <Time>2018-12-30T13:05:46.000Z</Time>
            <Position>
              <LatitudeDegrees>40.76377985067665576934814453125</LatitudeDegrees>
              <LongitudeDegrees>-4.08927449025213718414306640625</LongitudeDegrees>
            </Position>
            <AltitudeMeters>1750.199951171875</AltitudeMeters>
            <DistanceMeters>NAN</DistanceMeters>
          </Trackpoint>
          <Trackpoint>
            <Time>2018-12-30T13:05:47.000Z</Time>
            <Position>
              <LatitudeDegrees>40.76377297751605510711669921875</LatitudeDegrees>
              <LongitudeDegrees>-4.08928907476365566253662109375</LongitudeDegrees>
            </Position>
            <AltitudeMeters>1750.199951171875</AltitudeMeters>
            <DistanceMeters>NAN</DistanceMeters>
          </Trackpoint>
          <Trackpoint>
            <Time>2018-12-30T13:05:48.000Z</Time>
            <Position>
              <LatitudeDegrees>40.76376325450837612152099609375</LatitudeDegrees>
              <LongitudeDegrees>-4.08930324018001556396484375</LongitudeDegrees>
            </Position>
            <AltitudeMeters>1750.199951171875</AltitudeMeters>
            <DistanceMeters>NAN</DistanceMeters>
          </Trackpoint>
          <Trackpoint>
            <Time>2018-12-30T13:05:49.000Z</Time>
            <Position>
              <LatitudeDegrees>40.76375537551939487457275390625</LatitudeDegrees>
              <LongitudeDegrees>-4.08931690268218517303466796875</LongitudeDegrees>
            </Position>
            <AltitudeMeters>1750.199951171875</AltitudeMeters>
            <DistanceMeters>NAN</DistanceMeters>
          </Trackpoint>
          <Trackpoint>
            <Time>2018-12-30T13:05:50.000Z</Time>
            <Position>
              <LatitudeDegrees>40.76374833472073078155517578125</LatitudeDegrees>
              <LongitudeDegrees>-4.089329056441783905029296875</LongitudeDegrees>
            </Position>
            <AltitudeMeters>1750.199951171875</AltitudeMeters>
            <DistanceMeters>NAN</DistanceMeters>
          </Trackpoint>
          <Trackpoint>
            <Time>2018-12-30T13:05:51.000Z</Time>
            <Position>
              <LatitudeDegrees>40.76373584568500518798828125</LatitudeDegrees>
              <LongitudeDegrees>-4.08933903090655803680419921875</LongitudeDegrees>
            </Position>
            <AltitudeMeters>1750.199951171875</AltitudeMeters>
            <DistanceMeters>NAN</DistanceMeters>
          </Trackpoint>
          <Trackpoint>
            <Time>2018-12-30T13:05:52.000Z</Time>
            <Position>
              <LatitudeDegrees>40.76372335664927959442138671875</LatitudeDegrees>
              <LongitudeDegrees>-4.089349173009395599365234375</LongitudeDegrees>
            </Position>
            <AltitudeMeters>1750</AltitudeMeters>
            <DistanceMeters>NAN</DistanceMeters>
          </Trackpoint>
          <Trackpoint>
            <Time>2018-12-30T13:05:53.000Z</Time>
            <Position>
              <LatitudeDegrees>40.76371598057448863983154296875</LatitudeDegrees>
              <LongitudeDegrees>-4.08936786465346813201904296875</LongitudeDegrees>
            </Position>
            <AltitudeMeters>1750</AltitudeMeters>
            <DistanceMeters>NAN</DistanceMeters>
          </Trackpoint>
          <Trackpoint>
            <Time>2018-12-30T13:05:54.000Z</Time>
            <Position>
              <LatitudeDegrees>40.763703994452953338623046875</LatitudeDegrees>
              <LongitudeDegrees>-4.08937909640371799468994140625</LongitudeDegrees>
            </Position>
            <AltitudeMeters>1749.800048828125</AltitudeMeters>
            <DistanceMeters>NAN</DistanceMeters>
          </Trackpoint>
          <Trackpoint>
            <Time>2018-12-30T13:05:55.000Z</Time>
            <Position>
              <LatitudeDegrees>40.7636887393891811370849609375</LatitudeDegrees>
              <LongitudeDegrees>-4.089386723935604095458984375</LongitudeDegrees>
            </Position>
            <AltitudeMeters>1749.800048828125</AltitudeMeters>
            <DistanceMeters>NAN</DistanceMeters>
          </Trackpoint>
          <Trackpoint>
            <Time>2018-12-30T13:05:56.000Z</Time>
            <Position>
              <LatitudeDegrees>40.7636810280382633209228515625</LatitudeDegrees>
              <LongitudeDegrees>-4.08939938060939311981201171875</LongitudeDegrees>
            </Position>
            <AltitudeMeters>1749.800048828125</AltitudeMeters>
            <DistanceMeters>NAN</DistanceMeters>
          </Trackpoint>
          <Trackpoint>
            <Time>2018-12-30T13:05:57.000Z</Time>
            <Position>
              <LatitudeDegrees>40.76367256231606006622314453125</LatitudeDegrees>
              <LongitudeDegrees>-4.0894153900444507598876953125</LongitudeDegrees>
            </Position>
            <AltitudeMeters>1749.800048828125</AltitudeMeters>
            <DistanceMeters>NAN</DistanceMeters>
          </Trackpoint>
          <Trackpoint>
            <Time>2018-12-30T13:05:58.000Z</Time>
            <Position>
              <LatitudeDegrees>40.7636649347841739654541015625</LatitudeDegrees>
              <LongitudeDegrees>-4.0894328244030475616455078125</LongitudeDegrees>
            </Position>
            <AltitudeMeters>1749.5999755859375</AltitudeMeters>
            <DistanceMeters>NAN</DistanceMeters>
          </Trackpoint>
          <Trackpoint>
            <Time>2018-12-30T13:05:59.000Z</Time>
            <Position>
              <LatitudeDegrees>40.76365764252841472625732421875</LatitudeDegrees>
              <LongitudeDegrees>-4.08944866620004177093505859375</LongitudeDegrees>
            </Position>
            <AltitudeMeters>1749.5999755859375</AltitudeMeters>
            <DistanceMeters>NAN</DistanceMeters>
          </Trackpoint>
          <Trackpoint>
            <Time>2018-12-30T13:06:00.000Z</Time>
            <Position>
              <LatitudeDegrees>40.76365412212908267974853515625</LatitudeDegrees>
              <LongitudeDegrees>-4.0894683636724948883056640625</LongitudeDegrees>
            </Position>
            <AltitudeMeters>1749.5999755859375</AltitudeMeters>
            <DistanceMeters>NAN</DistanceMeters>
          </Trackpoint>
          <Trackpoint>
            <Time>2018-12-30T13:06:01.000Z</Time>
            <Position>
              <LatitudeDegrees>40.76364825479686260223388671875</LatitudeDegrees>
              <LongitudeDegrees>-4.08948563039302825927734375</LongitudeDegrees>
            </Position>
            <AltitudeMeters>1749.4000244140625</AltitudeMeters>
            <DistanceMeters>NAN</DistanceMeters>
          </Trackpoint>
          <Trackpoint>
            <Time>2018-12-30T13:06:02.000Z</Time>
            <Position>
              <LatitudeDegrees>40.763642974197864532470703125</LatitudeDegrees>
              <LongitudeDegrees>-4.0895022265613079071044921875</LongitudeDegrees>
            </Position>
            <AltitudeMeters>1749.4000244140625</AltitudeMeters>
            <DistanceMeters>NAN</DistanceMeters>
          </Trackpoint>
          <Trackpoint>
            <Time>2018-12-30T13:06:03.000Z</Time>
            <Position>
              <LatitudeDegrees>40.7636371068656444549560546875</LatitudeDegrees>
              <LongitudeDegrees>-4.089515469968318939208984375</LongitudeDegrees>
            </Position>
            <AltitudeMeters>1749.4000244140625</AltitudeMeters>
            <DistanceMeters>NAN</DistanceMeters>
          </Trackpoint>
          <Trackpoint>
            <Time>2018-12-30T13:06:04.000Z</Time>
            <Position>
              <LatitudeDegrees>40.7636319100856781005859375</LatitudeDegrees>
              <LongitudeDegrees>-4.0895307250320911407470703125</LongitudeDegrees>
            </Position>
            <AltitudeMeters>1749.4000244140625</AltitudeMeters>
            <DistanceMeters>NAN</DistanceMeters>
          </Trackpoint>
          <Trackpoint>
            <Time>2018-12-30T13:06:05.000Z</Time>
            <Position>
              <LatitudeDegrees>40.76362864114344120025634765625</LatitudeDegrees>
              <LongitudeDegrees>-4.08954606391489505767822265625</LongitudeDegrees>
            </Position>
            <AltitudeMeters>1749.199951171875</AltitudeMeters>
            <DistanceMeters>NAN</DistanceMeters>
          </Trackpoint>
          <Trackpoint>
            <Time>2018-12-30T13:06:06.000Z</Time>
            <Position>
              <LatitudeDegrees>40.7636247016489505767822265625</LatitudeDegrees>
              <LongitudeDegrees>-4.08956316299736499786376953125</LongitudeDegrees>
            </Position>
            <AltitudeMeters>1749.199951171875</AltitudeMeters>
            <DistanceMeters>NAN</DistanceMeters>
          </Trackpoint>
          <Trackpoint>
            <Time>2018-12-30T13:06:07.000Z</Time>
            <Position>
              <LatitudeDegrees>40.76361992396414279937744140625</LatitudeDegrees>
              <LongitudeDegrees>-4.08958017826080322265625</LongitudeDegrees>
            </Position>
            <AltitudeMeters>1749.199951171875</AltitudeMeters>
            <DistanceMeters>NAN</DistanceMeters>
          </Trackpoint>
          <Trackpoint>
            <Time>2018-12-30T13:06:08.000Z</Time>
            <Position>
              <LatitudeDegrees>40.763614475727081298828125</LatitudeDegrees>
              <LongitudeDegrees>-4.08960096538066864013671875</LongitudeDegrees>
            </Position>
            <AltitudeMeters>1749.199951171875</AltitudeMeters>
            <DistanceMeters>NAN</DistanceMeters>
          </Trackpoint>
          <Trackpoint>
            <Time>2018-12-30T13:06:09.000Z</Time>
            <Position>
              <LatitudeDegrees>40.76360567472875118255615234375</LatitudeDegrees>
              <LongitudeDegrees>-4.08961839973926544189453125</LongitudeDegrees>
            </Position>
            <AltitudeMeters>1749</AltitudeMeters>
            <DistanceMeters>NAN</DistanceMeters>
          </Trackpoint>
          <Trackpoint>
            <Time>2018-12-30T13:06:10.000Z</Time>
            <Position>
              <LatitudeDegrees>40.76359427534043788909912109375</LatitudeDegrees>
              <LongitudeDegrees>-4.08963273279368877410888671875</LongitudeDegrees>
            </Position>
            <AltitudeMeters>1749</AltitudeMeters>
            <DistanceMeters>NAN</DistanceMeters>
          </Trackpoint>
          <Trackpoint>
            <Time>2018-12-30T13:06:11.000Z</Time>
            <Position>
              <LatitudeDegrees>40.763583965599536895751953125</LatitudeDegrees>
              <LongitudeDegrees>-4.08964731730520725250244140625</LongitudeDegrees>
            </Position>
            <AltitudeMeters>1749</AltitudeMeters>
            <DistanceMeters>NAN</DistanceMeters>
          </Trackpoint>
          <Trackpoint>
            <Time>2018-12-30T13:06:12.000Z</Time>
            <Position>
              <LatitudeDegrees>40.76357566751539707183837890625</LatitudeDegrees>
              <LongitudeDegrees>-4.08966039307415485382080078125</LongitudeDegrees>
            </Position>
            <AltitudeMeters>1749</AltitudeMeters>
            <DistanceMeters>NAN</DistanceMeters>
          </Trackpoint>
          <Trackpoint>
            <Time>2018-12-30T13:06:13.000Z</Time>
            <Position>
              <LatitudeDegrees>40.76356762088835239410400390625</LatitudeDegrees>
              <LongitudeDegrees>-4.08967648632824420928955078125</LongitudeDegrees>
            </Position>
            <AltitudeMeters>1748.800048828125</AltitudeMeters>
            <DistanceMeters>NAN</DistanceMeters>
          </Trackpoint>
          <Trackpoint>
            <Time>2018-12-30T13:06:14.000Z</Time>
            <Position>
              <LatitudeDegrees>40.763556472957134246826171875</LatitudeDegrees>
              <LongitudeDegrees>-4.08968855626881122589111328125</LongitudeDegrees>
            </Position>
            <AltitudeMeters>1748.5999755859375</AltitudeMeters>
            <DistanceMeters>NAN</DistanceMeters>
          </Trackpoint>
          <Trackpoint>
            <Time>2018-12-30T13:06:15.000Z</Time>
            <Position>
              <LatitudeDegrees>40.76354465447366237640380859375</LatitudeDegrees>
              <LongitudeDegrees>-4.0896986983716487884521484375</LongitudeDegrees>
            </Position>
            <AltitudeMeters>1748.4000244140625</AltitudeMeters>
            <DistanceMeters>NAN</DistanceMeters>
          </Trackpoint>
          <Trackpoint>
            <Time>2018-12-30T13:06:16.000Z</Time>
            <Position>
              <LatitudeDegrees>40.76353241689503192901611328125</LatitudeDegrees>
              <LongitudeDegrees>-4.08970699645578861236572265625</LongitudeDegrees>
            </Position>
            <AltitudeMeters>1748</AltitudeMeters>
            <DistanceMeters>NAN</DistanceMeters>
          </Trackpoint>
          <Trackpoint>
            <Time>2018-12-30T13:06:17.000Z</Time>
            <Position>
              <LatitudeDegrees>40.7635221071541309356689453125</LatitudeDegrees>
              <LongitudeDegrees>-4.0897151269018650054931640625</LongitudeDegrees>
            </Position>
            <AltitudeMeters>1747.800048828125</AltitudeMeters>
            <DistanceMeters>NAN</DistanceMeters>
          </Trackpoint>
          <Trackpoint>
            <Time>2018-12-30T13:06:18.000Z</Time>
            <Position>
              <LatitudeDegrees>40.76351045630872249603271484375</LatitudeDegrees>
              <LongitudeDegrees>-4.08972258679568767547607421875</LongitudeDegrees>
            </Position>
            <AltitudeMeters>1747.800048828125</AltitudeMeters>
            <DistanceMeters>NAN</DistanceMeters>
          </Trackpoint>
          <Trackpoint>
            <Time>2018-12-30T13:06:19.000Z</Time>
            <Position>
              <LatitudeDegrees>40.76349847018718719482421875</LatitudeDegrees>
              <LongitudeDegrees>-4.08972996287047863006591796875</LongitudeDegrees>
            </Position>
            <AltitudeMeters>1747.800048828125</AltitudeMeters>
            <DistanceMeters>NAN</DistanceMeters>
          </Trackpoint>
          <Trackpoint>
            <Time>2018-12-30T13:06:20.000Z</Time>
            <Position>
              <LatitudeDegrees>40.763489417731761932373046875</LatitudeDegrees>
              <LongitudeDegrees>-4.0897392667829990386962890625</LongitudeDegrees>
            </Position>
            <AltitudeMeters>1747.800048828125</AltitudeMeters>
            <DistanceMeters>NAN</DistanceMeters>
          </Trackpoint>
          <Trackpoint>
            <Time>2018-12-30T13:06:21.000Z</Time>
            <Position>
              <LatitudeDegrees>40.76347567141056060791015625</LatitudeDegrees>
              <LongitudeDegrees>-4.0897513367235660552978515625</LongitudeDegrees>
            </Position>
            <AltitudeMeters>1747.800048828125</AltitudeMeters>
            <DistanceMeters>NAN</DistanceMeters>
          </Trackpoint>
          <Trackpoint>
            <Time>2018-12-30T13:06:22.000Z</Time>
            <Position>
              <LatitudeDegrees>40.7634617574512958526611328125</LatitudeDegrees>
              <LongitudeDegrees>-4.0897714532911777496337890625</LongitudeDegrees>
            </Position>
            <AltitudeMeters>1747.800048828125</AltitudeMeters>
            <DistanceMeters>NAN</DistanceMeters>
          </Trackpoint>
          <Trackpoint>
            <Time>2018-12-30T13:06:23.000Z</Time>
            <Position>
              <LatitudeDegrees>40.7634466700255870819091796875</LatitudeDegrees>
              <LongitudeDegrees>-4.0897851996123790740966796875</LongitudeDegrees>
            </Position>
            <AltitudeMeters>1748</AltitudeMeters>
            <DistanceMeters>NAN</DistanceMeters>
          </Trackpoint>
          <Trackpoint>
            <Time>2018-12-30T13:06:24.000Z</Time>
            <Position>
              <LatitudeDegrees>40.76343300752341747283935546875</LatitudeDegrees>
              <LongitudeDegrees>-4.08979718573391437530517578125</LongitudeDegrees>
            </Position>
            <AltitudeMeters>1748.199951171875</AltitudeMeters>
            <DistanceMeters>NAN</DistanceMeters>
          </Trackpoint>
          <Trackpoint>
            <Time>2018-12-30T13:06:25.000Z</Time>
            <Position>
              <LatitudeDegrees>40.763419009745121002197265625</LatitudeDegrees>
              <LongitudeDegrees>-4.08980875276029109954833984375</LongitudeDegrees>
            </Position>
            <AltitudeMeters>1748.4000244140625</AltitudeMeters>
            <DistanceMeters>NAN</DistanceMeters>
          </Trackpoint>
          <Trackpoint>
            <Time>2018-12-30T13:06:26.000Z</Time>
            <Position>
              <LatitudeDegrees>40.76340333558619022369384765625</LatitudeDegrees>
              <LongitudeDegrees>-4.08981822431087493896484375</LongitudeDegrees>
            </Position>
            <AltitudeMeters>1748.5999755859375</AltitudeMeters>
            <DistanceMeters>NAN</DistanceMeters>
          </Trackpoint>
          <Trackpoint>
            <Time>2018-12-30T13:06:27.000Z</Time>
            <Position>
              <LatitudeDegrees>40.7633878290653228759765625</LatitudeDegrees>
              <LongitudeDegrees>-4.08982819877564907073974609375</LongitudeDegrees>
            </Position>
            <AltitudeMeters>1748.5999755859375</AltitudeMeters>
            <DistanceMeters>NAN</DistanceMeters>
          </Trackpoint>
          <Trackpoint>
            <Time>2018-12-30T13:06:28.000Z</Time>
            <Position>
              <LatitudeDegrees>40.76337383128702640533447265625</LatitudeDegrees>
              <LongitudeDegrees>-4.08983624540269374847412109375</LongitudeDegrees>
            </Position>
            <AltitudeMeters>1748.800048828125</AltitudeMeters>
            <DistanceMeters>NAN</DistanceMeters>
          </Trackpoint>
          <Trackpoint>
            <Time>2018-12-30T13:06:29.000Z</Time>
            <Position>
              <LatitudeDegrees>40.763360671699047088623046875</LatitudeDegrees>
              <LongitudeDegrees>-4.08984236419200897216796875</LongitudeDegrees>
            </Position>
            <AltitudeMeters>1748.800048828125</AltitudeMeters>
            <DistanceMeters>NAN</DistanceMeters>
          </Trackpoint>
          <Trackpoint>
            <Time>2018-12-30T13:06:30.000Z</Time>
            <Position>
              <LatitudeDegrees>40.76334868557751178741455078125</LatitudeDegrees>
              <LongitudeDegrees>-4.08984764479100704193115234375</LongitudeDegrees>
            </Position>
            <AltitudeMeters>1749</AltitudeMeters>
            <DistanceMeters>NAN</DistanceMeters>
          </Trackpoint>
          <Trackpoint>
            <Time>2018-12-30T13:06:31.000Z</Time>
            <Position>
              <LatitudeDegrees>40.76332907192409038543701171875</LatitudeDegrees>
              <LongitudeDegrees>-4.0898606367409229278564453125</LongitudeDegrees>
            </Position>
            <AltitudeMeters>1749</AltitudeMeters>
            <DistanceMeters>NAN</DistanceMeters>
          </Trackpoint>
          <Trackpoint>
            <Time>2018-12-30T13:06:32.000Z</Time>
            <Position>
              <LatitudeDegrees>40.76331197284162044525146484375</LatitudeDegrees>
              <LongitudeDegrees>-4.08987279050052165985107421875</LongitudeDegrees>
            </Position>
            <AltitudeMeters>1748.800048828125</AltitudeMeters>
            <DistanceMeters>NAN</DistanceMeters>
          </Trackpoint>
          <Trackpoint>
            <Time>2018-12-30T13:06:33.000Z</Time>
            <Position>
              <LatitudeDegrees>40.76329638250172138214111328125</LatitudeDegrees>
              <LongitudeDegrees>-4.08988519571721553802490234375</LongitudeDegrees>
            </Position>
            <AltitudeMeters>1748.800048828125</AltitudeMeters>
            <DistanceMeters>NAN</DistanceMeters>
          </Trackpoint>
          <Trackpoint>
            <Time>2018-12-30T13:06:34.000Z</Time>
            <Position>
              <LatitudeDegrees>40.7632813788950443267822265625</LatitudeDegrees>
              <LongitudeDegrees>-4.08989743329584598541259765625</LongitudeDegrees>
            </Position>
            <AltitudeMeters>1748.800048828125</AltitudeMeters>
            <DistanceMeters>NAN</DistanceMeters>
          </Trackpoint>
          <Trackpoint>
            <Time>2018-12-30T13:06:35.000Z</Time>
            <Position>
              <LatitudeDegrees>40.76327341608703136444091796875</LatitudeDegrees>
              <LongitudeDegrees>-4.089908413589000701904296875</LongitudeDegrees>
            </Position>
            <AltitudeMeters>1748.800048828125</AltitudeMeters>
            <DistanceMeters>NAN</DistanceMeters>
          </Trackpoint>
          <Trackpoint>
            <Time>2018-12-30T13:06:36.000Z</Time>
            <Position>
              <LatitudeDegrees>40.7632669620215892791748046875</LatitudeDegrees>
              <LongitudeDegrees>-4.0899189747869968414306640625</LongitudeDegrees>
            </Position>
            <AltitudeMeters>1748.5999755859375</AltitudeMeters>
            <DistanceMeters>NAN</DistanceMeters>
          </Trackpoint>
          <Trackpoint>
            <Time>2018-12-30T13:06:37.000Z</Time>
            <Position>
              <LatitudeDegrees>40.76325631700456142425537109375</LatitudeDegrees>
              <LongitudeDegrees>-4.08993112854659557342529296875</LongitudeDegrees>
            </Position>
            <AltitudeMeters>1748.4000244140625</AltitudeMeters>
            <DistanceMeters>NAN</DistanceMeters>
          </Trackpoint>
          <Trackpoint>
            <Time>2018-12-30T13:06:38.000Z</Time>
            <Position>
              <LatitudeDegrees>40.7632418163120746612548828125</LatitudeDegrees>
              <LongitudeDegrees>-4.089939929544925689697265625</LongitudeDegrees>
            </Position>
            <AltitudeMeters>1748.4000244140625</AltitudeMeters>
            <DistanceMeters>NAN</DistanceMeters>
          </Trackpoint>
          <Trackpoint>
            <Time>2018-12-30T13:06:39.000Z</Time>
            <Position>
              <LatitudeDegrees>40.7632250525057315826416015625</LatitudeDegrees>
              <LongitudeDegrees>-4.08994940109550952911376953125</LongitudeDegrees>
            </Position>
            <AltitudeMeters>1748.199951171875</AltitudeMeters>
            <DistanceMeters>NAN</DistanceMeters>
          </Trackpoint>
          <Trackpoint>
            <Time>2018-12-30T13:06:40.000Z</Time>
            <Position>
              <LatitudeDegrees>40.76321055181324481964111328125</LatitudeDegrees>
              <LongitudeDegrees>-4.089961387217044830322265625</LongitudeDegrees>
            </Position>
            <AltitudeMeters>1748</AltitudeMeters>
            <DistanceMeters>NAN</DistanceMeters>
          </Trackpoint>
          <Trackpoint>
            <Time>2018-12-30T13:06:41.000Z</Time>
            <Position>
              <LatitudeDegrees>40.7631995715200901031494140625</LatitudeDegrees>
              <LongitudeDegrees>-4.08997320570051670074462890625</LongitudeDegrees>
            </Position>
            <AltitudeMeters>1748</AltitudeMeters>
            <DistanceMeters>NAN</DistanceMeters>
          </Trackpoint>
          <Trackpoint>
            <Time>2018-12-30T13:06:42.000Z</Time>
            <Position>
              <LatitudeDegrees>40.7631893455982208251953125</LatitudeDegrees>
              <LongitudeDegrees>-4.0899850241839885711669921875</LongitudeDegrees>
            </Position>
            <AltitudeMeters>1748</AltitudeMeters>
            <DistanceMeters>NAN</DistanceMeters>
          </Trackpoint>
          <Trackpoint>
            <Time>2018-12-30T13:06:43.000Z</Time>
            <Position>
              <LatitudeDegrees>40.7631761021912097930908203125</LatitudeDegrees>
              <LongitudeDegrees>-4.0899964235723018646240234375</LongitudeDegrees>
            </Position>
            <AltitudeMeters>1748</AltitudeMeters>
            <DistanceMeters>NAN</DistanceMeters>
          </Trackpoint>
          <Trackpoint>
            <Time>2018-12-30T13:06:44.000Z</Time>
            <Position>
              <LatitudeDegrees>40.7631630264222621917724609375</LatitudeDegrees>
              <LongitudeDegrees>-4.09000773914158344268798828125</LongitudeDegrees>
            </Position>
            <AltitudeMeters>1748</AltitudeMeters>
            <DistanceMeters>NAN</DistanceMeters>
          </Trackpoint>
          <Trackpoint>
            <Time>2018-12-30T13:06:45.000Z</Time>
            <Position>
              <LatitudeDegrees>40.7631496153771877288818359375</LatitudeDegrees>
              <LongitudeDegrees>-4.090019725263118743896484375</LongitudeDegrees>
            </Position>
            <AltitudeMeters>1748</AltitudeMeters>
            <DistanceMeters>NAN</DistanceMeters>
          </Trackpoint>
          <Trackpoint>
            <Time>2018-12-30T13:06:46.000Z</Time>
            <Position>
              <LatitudeDegrees>40.7631397247314453125</LatitudeDegrees>
              <LongitudeDegrees>-4.0900312922894954681396484375</LongitudeDegrees>
            </Position>
            <AltitudeMeters>1748</AltitudeMeters>
            <DistanceMeters>NAN</DistanceMeters>
          </Trackpoint>
          <Trackpoint>
            <Time>2018-12-30T13:06:47.000Z</Time>
            <Position>
              <LatitudeDegrees>40.7631298340857028961181640625</LatitudeDegrees>
              <LongitudeDegrees>-4.09004126675426959991455078125</LongitudeDegrees>
            </Position>
            <AltitudeMeters>1748</AltitudeMeters>
            <DistanceMeters>NAN</DistanceMeters>
          </Trackpoint>
          <Trackpoint>
            <Time>2018-12-30T13:06:48.000Z</Time>
            <Position>
              <LatitudeDegrees>40.76312203891575336456298828125</LatitudeDegrees>
              <LongitudeDegrees>-4.0900530852377414703369140625</LongitudeDegrees>
            </Position>
            <AltitudeMeters>1748</AltitudeMeters>
            <DistanceMeters>NAN</DistanceMeters>
          </Trackpoint>
          <Trackpoint>
            <Time>2018-12-30T13:06:49.000Z</Time>
            <Position>
              <LatitudeDegrees>40.76311667449772357940673828125</LatitudeDegrees>
              <LongitudeDegrees>-4.090063981711864471435546875</LongitudeDegrees>
            </Position>
            <AltitudeMeters>1748</AltitudeMeters>
            <DistanceMeters>NAN</DistanceMeters>
          </Trackpoint>
          <Trackpoint>
            <Time>2018-12-30T13:06:50.000Z</Time>
            <Position>
              <LatitudeDegrees>40.763105861842632293701171875</LatitudeDegrees>
              <LongitudeDegrees>-4.090076051652431488037109375</LongitudeDegrees>
            </Position>
            <AltitudeMeters>1748</AltitudeMeters>
            <DistanceMeters>NAN</DistanceMeters>
          </Trackpoint>
          <Trackpoint>
            <Time>2018-12-30T13:06:51.000Z</Time>
            <Position>
              <LatitudeDegrees>40.76309069059789180755615234375</LatitudeDegrees>
              <LongitudeDegrees>-4.0900866128504276275634765625</LongitudeDegrees>
            </Position>
            <AltitudeMeters>1748</AltitudeMeters>
            <DistanceMeters>NAN</DistanceMeters>
          </Trackpoint>
          <Trackpoint>
            <Time>2018-12-30T13:06:52.000Z</Time>
            <Position>
              <LatitudeDegrees>40.76307593844830989837646484375</LatitudeDegrees>
              <LongitudeDegrees>-4.09009692259132862091064453125</LongitudeDegrees>
            </Position>
            <AltitudeMeters>1748</AltitudeMeters>
            <DistanceMeters>NAN</DistanceMeters>
          </Trackpoint>
          <Trackpoint>
            <Time>2018-12-30T13:06:53.000Z</Time>
            <Position>
              <LatitudeDegrees>40.76306554488837718963623046875</LatitudeDegrees>
              <LongitudeDegrees>-4.09010295756161212921142578125</LongitudeDegrees>
            </Position>
            <AltitudeMeters>1747.800048828125</AltitudeMeters>
            <DistanceMeters>NAN</DistanceMeters>
          </Trackpoint>
          <Trackpoint>
            <Time>2018-12-30T13:06:54.000Z</Time>
            <Position>
              <LatitudeDegrees>40.76306051574647426605224609375</LatitudeDegrees>
              <LongitudeDegrees>-4.09011058509349822998046875</LongitudeDegrees>
            </Position>
            <AltitudeMeters>1747.800048828125</AltitudeMeters>
            <DistanceMeters>NAN</DistanceMeters>
          </Trackpoint>
          <Trackpoint>
            <Time>2018-12-30T13:06:55.000Z</Time>
            <Position>
              <LatitudeDegrees>40.76304827816784381866455078125</LatitudeDegrees>
              <LongitudeDegrees>-4.0901201404631137847900390625</LongitudeDegrees>
            </Position>
            <AltitudeMeters>1747.5999755859375</AltitudeMeters>
            <DistanceMeters>NAN</DistanceMeters>
          </Trackpoint>
          <Trackpoint>
            <Time>2018-12-30T13:06:56.000Z</Time>
            <Position>
              <LatitudeDegrees>40.76303570531308650970458984375</LatitudeDegrees>
              <LongitudeDegrees>-4.09013112075626850128173828125</LongitudeDegrees>
            </Position>
            <AltitudeMeters>1747.5999755859375</AltitudeMeters>
            <DistanceMeters>NAN</DistanceMeters>
          </Trackpoint>
          <Trackpoint>
            <Time>2018-12-30T13:06:57.000Z</Time>
            <Position>
              <LatitudeDegrees>40.763020701706409454345703125</LatitudeDegrees>
              <LongitudeDegrees>-4.0901399217545986175537109375</LongitudeDegrees>
            </Position>
            <AltitudeMeters>1747.5999755859375</AltitudeMeters>
            <DistanceMeters>NAN</DistanceMeters>
          </Trackpoint>
          <Trackpoint>
            <Time>2018-12-30T13:06:58.000Z</Time>
            <Position>
              <LatitudeDegrees>40.76301106251776218414306640625</LatitudeDegrees>
              <LongitudeDegrees>-4.090146459639072418212890625</LongitudeDegrees>
            </Position>
            <AltitudeMeters>1747.5999755859375</AltitudeMeters>
            <DistanceMeters>NAN</DistanceMeters>
          </Trackpoint>
          <Trackpoint>
            <Time>2018-12-30T13:06:59.000Z</Time>
            <Position>
              <LatitudeDegrees>40.763003267347812652587890625</LatitudeDegrees>
              <LongitudeDegrees>-4.090151153504848480224609375</LongitudeDegrees>
            </Position>
            <AltitudeMeters>1747.4000244140625</AltitudeMeters>
            <DistanceMeters>NAN</DistanceMeters>
          </Trackpoint>
          <Trackpoint>
            <Time>2018-12-30T13:07:00.000Z</Time>
            <Position>
              <LatitudeDegrees>40.7629881799221038818359375</LatitudeDegrees>
              <LongitudeDegrees>-4.090160541236400604248046875</LongitudeDegrees>
            </Position>
            <AltitudeMeters>1747.4000244140625</AltitudeMeters>
            <DistanceMeters>NAN</DistanceMeters>
          </Trackpoint>
          <Trackpoint>
            <Time>2018-12-30T13:07:01.000Z</Time>
            <Position>
              <LatitudeDegrees>40.76297543942928314208984375</LatitudeDegrees>
              <LongitudeDegrees>-4.09016833640635013580322265625</LongitudeDegrees>
            </Position>
            <AltitudeMeters>1747.199951171875</AltitudeMeters>
            <DistanceMeters>NAN</DistanceMeters>
          </Trackpoint>
          <Trackpoint>
            <Time>2018-12-30T13:07:02.000Z</Time>
            <Position>
              <LatitudeDegrees>40.762967057526111602783203125</LatitudeDegrees>
              <LongitudeDegrees>-4.09017487429082393646240234375</LongitudeDegrees>
            </Position>
            <AltitudeMeters>1747.199951171875</AltitudeMeters>
            <DistanceMeters>NAN</DistanceMeters>
          </Trackpoint>
          <Trackpoint>
            <Time>2018-12-30T13:07:03.000Z</Time>
            <Position>
              <LatitudeDegrees>40.7629642076790332794189453125</LatitudeDegrees>
              <LongitudeDegrees>-4.090183675289154052734375</LongitudeDegrees>
            </Position>
            <AltitudeMeters>1747</AltitudeMeters>
            <DistanceMeters>NAN</DistanceMeters>
          </Trackpoint>
          <Trackpoint>
            <Time>2018-12-30T13:07:04.000Z</Time>
            <Position>
              <LatitudeDegrees>40.76295356266200542449951171875</LatitudeDegrees>
              <LongitudeDegrees>-4.09019147045910358428955078125</LongitudeDegrees>
            </Position>
            <AltitudeMeters>1747</AltitudeMeters>
            <DistanceMeters>NAN</DistanceMeters>
          </Trackpoint>
          <Trackpoint>
            <Time>2018-12-30T13:07:05.000Z</Time>
            <Position>
              <LatitudeDegrees>40.76294015161693096160888671875</LatitudeDegrees>
              <LongitudeDegrees>-4.09019666723906993865966796875</LongitudeDegrees>
            </Position>
            <AltitudeMeters>1746.800048828125</AltitudeMeters>
            <DistanceMeters>NAN</DistanceMeters>
          </Trackpoint>
          <Trackpoint>
            <Time>2018-12-30T13:07:06.000Z</Time>
            <Position>
              <LatitudeDegrees>40.762925483286380767822265625</LatitudeDegrees>
              <LongitudeDegrees>-4.09019901417195796966552734375</LongitudeDegrees>
            </Position>
            <AltitudeMeters>1746.4000244140625</AltitudeMeters>
            <DistanceMeters>NAN</DistanceMeters>
          </Trackpoint>
          <Trackpoint>
            <Time>2018-12-30T13:07:07.000Z</Time>
            <Position>
              <LatitudeDegrees>40.76291601173579692840576171875</LatitudeDegrees>
              <LongitudeDegrees>-4.0901996009051799774169921875</LongitudeDegrees>
            </Position>
            <AltitudeMeters>1746.199951171875</AltitudeMeters>
            <DistanceMeters>NAN</DistanceMeters>
          </Trackpoint>
          <Trackpoint>
            <Time>2018-12-30T13:07:08.000Z</Time>
            <Position>
              <LatitudeDegrees>40.7629038579761981964111328125</LatitudeDegrees>
              <LongitudeDegrees>-4.09019934944808483123779296875</LongitudeDegrees>
            </Position>
            <AltitudeMeters>1746.199951171875</AltitudeMeters>
            <DistanceMeters>NAN</DistanceMeters>
          </Trackpoint>
          <Trackpoint>
            <Time>2018-12-30T13:07:09.000Z</Time>
            <Position>
              <LatitudeDegrees>40.76289606280624866485595703125</LatitudeDegrees>
              <LongitudeDegrees>-4.09019549377262592315673828125</LongitudeDegrees>
            </Position>
            <AltitudeMeters>1746.199951171875</AltitudeMeters>
            <DistanceMeters>NAN</DistanceMeters>
          </Trackpoint>
          <Trackpoint>
            <Time>2018-12-30T13:07:10.000Z</Time>
            <Position>
              <LatitudeDegrees>40.762886591255664825439453125</LatitudeDegrees>
              <LongitudeDegrees>-4.09018971025943756103515625</LongitudeDegrees>
            </Position>
            <AltitudeMeters>1746.4000244140625</AltitudeMeters>
            <DistanceMeters>NAN</DistanceMeters>
          </Trackpoint>
          <Trackpoint>
            <Time>2018-12-30T13:07:11.000Z</Time>
            <Position>
              <LatitudeDegrees>40.76287611387670040130615234375</LatitudeDegrees>
              <LongitudeDegrees>-4.09018191508948802947998046875</LongitudeDegrees>
            </Position>
            <AltitudeMeters>1746.4000244140625</AltitudeMeters>
            <DistanceMeters>NAN</DistanceMeters>
          </Trackpoint>
          <Trackpoint>
            <Time>2018-12-30T13:07:12.000Z</Time>
            <Position>
              <LatitudeDegrees>40.7628639601171016693115234375</LatitudeDegrees>
              <LongitudeDegrees>-4.09017571248114109039306640625</LongitudeDegrees>
            </Position>
            <AltitudeMeters>1746.4000244140625</AltitudeMeters>
            <DistanceMeters>NAN</DistanceMeters>
          </Trackpoint>
          <Trackpoint>
            <Time>2018-12-30T13:07:13.000Z</Time>
            <Position>
              <LatitudeDegrees>40.7628458552062511444091796875</LatitudeDegrees>
              <LongitudeDegrees>-4.090174622833728790283203125</LongitudeDegrees>
            </Position>
            <AltitudeMeters>1746.5999755859375</AltitudeMeters>
            <DistanceMeters>NAN</DistanceMeters>
          </Trackpoint>
          <Trackpoint>
            <Time>2018-12-30T13:07:14.000Z</Time>
            <Position>
              <LatitudeDegrees>40.76283236034214496612548828125</LatitudeDegrees>
              <LongitudeDegrees>-4.0901700966060161590576171875</LongitudeDegrees>
            </Position>
            <AltitudeMeters>1746.5999755859375</AltitudeMeters>
            <DistanceMeters>NAN</DistanceMeters>
          </Trackpoint>
          <Trackpoint>
            <Time>2018-12-30T13:07:15.000Z</Time>
            <Position>
              <LatitudeDegrees>40.76281593181192874908447265625</LatitudeDegrees>
              <LongitudeDegrees>-4.09016481600701808929443359375</LongitudeDegrees>
            </Position>
            <AltitudeMeters>1746.800048828125</AltitudeMeters>
            <DistanceMeters>NAN</DistanceMeters>
          </Trackpoint>
          <Trackpoint>
            <Time>2018-12-30T13:07:16.000Z</Time>
            <Position>
              <LatitudeDegrees>40.7627964019775390625</LatitudeDegrees>
              <LongitudeDegrees>-4.09016263671219348907470703125</LongitudeDegrees>
            </Position>
            <AltitudeMeters>1746.5999755859375</AltitudeMeters>
            <DistanceMeters>NAN</DistanceMeters>
          </Trackpoint>
          <Trackpoint>
            <Time>2018-12-30T13:07:17.000Z</Time>
            <Position>
              <LatitudeDegrees>40.76278424821794033050537109375</LatitudeDegrees>
              <LongitudeDegrees>-4.09015442244708538055419921875</LongitudeDegrees>
            </Position>
            <AltitudeMeters>1746.5999755859375</AltitudeMeters>
            <DistanceMeters>NAN</DistanceMeters>
          </Trackpoint>
          <Trackpoint>
            <Time>2018-12-30T13:07:18.000Z</Time>
            <Position>
              <LatitudeDegrees>40.76277569867670536041259765625</LatitudeDegrees>
              <LongitudeDegrees>-4.0901447832584381103515625</LongitudeDegrees>
            </Position>
            <AltitudeMeters>1746.4000244140625</AltitudeMeters>
            <DistanceMeters>NAN</DistanceMeters>
          </Trackpoint>
          <Trackpoint>
            <Time>2018-12-30T13:07:19.000Z</Time>
            <Position>
              <LatitudeDegrees>40.76277050189673900604248046875</LatitudeDegrees>
              <LongitudeDegrees>-4.090135060250759124755859375</LongitudeDegrees>
            </Position>
            <AltitudeMeters>1746.4000244140625</AltitudeMeters>
            <DistanceMeters>NAN</DistanceMeters>
          </Trackpoint>
          <Trackpoint>
            <Time>2018-12-30T13:07:20.000Z</Time>
            <Position>
              <LatitudeDegrees>40.76276488602161407470703125</LatitudeDegrees>
              <LongitudeDegrees>-4.09012575633823871612548828125</LongitudeDegrees>
            </Position>
            <AltitudeMeters>1746.4000244140625</AltitudeMeters>
            <DistanceMeters>NAN</DistanceMeters>
          </Trackpoint>
          <Trackpoint>
            <Time>2018-12-30T13:07:21.000Z</Time>
            <Position>
              <LatitudeDegrees>40.7627506367862224578857421875</LatitudeDegrees>
              <LongitudeDegrees>-4.09012223593890666961669921875</LongitudeDegrees>
            </Position>
            <AltitudeMeters>1746.4000244140625</AltitudeMeters>
            <DistanceMeters>NAN</DistanceMeters>
          </Trackpoint>
          <Trackpoint>
            <Time>2018-12-30T13:07:22.000Z</Time>
            <Position>
              <LatitudeDegrees>40.76274208724498748779296875</LatitudeDegrees>
              <LongitudeDegrees>-4.0901174582540988922119140625</LongitudeDegrees>
            </Position>
            <AltitudeMeters>1746.4000244140625</AltitudeMeters>
            <DistanceMeters>NAN</DistanceMeters>
          </Trackpoint>
          <Trackpoint>
            <Time>2018-12-30T13:07:23.000Z</Time>
            <Position>
              <LatitudeDegrees>40.762732364237308502197265625</LatitudeDegrees>
              <LongitudeDegrees>-4.09011469222605228424072265625</LongitudeDegrees>
            </Position>
            <AltitudeMeters>1746.4000244140625</AltitudeMeters>
            <DistanceMeters>NAN</DistanceMeters>
          </Trackpoint>
          <Trackpoint>
            <Time>2018-12-30T13:07:24.000Z</Time>
            <Position>
              <LatitudeDegrees>40.76272373087704181671142578125</LatitudeDegrees>
              <LongitudeDegrees>-4.0901125967502593994140625</LongitudeDegrees>
            </Position>
            <AltitudeMeters>1746.4000244140625</AltitudeMeters>
            <DistanceMeters>NAN</DistanceMeters>
          </Trackpoint>
          <Trackpoint>
            <Time>2018-12-30T13:07:25.000Z</Time>
            <Position>
              <LatitudeDegrees>40.76271618716418743133544921875</LatitudeDegrees>
              <LongitudeDegrees>-4.09010815434157848358154296875</LongitudeDegrees>
            </Position>
            <AltitudeMeters>1746.4000244140625</AltitudeMeters>
            <DistanceMeters>NAN</DistanceMeters>
          </Trackpoint>
          <Trackpoint>
            <Time>2018-12-30T13:07:26.000Z</Time>
            <Position>
              <LatitudeDegrees>40.76270378194749355316162109375</LatitudeDegrees>
              <LongitudeDegrees>-4.0901003591716289520263671875</LongitudeDegrees>
            </Position>
            <AltitudeMeters>1746.4000244140625</AltitudeMeters>
            <DistanceMeters>NAN</DistanceMeters>
          </Trackpoint>
          <Trackpoint>
            <Time>2018-12-30T13:07:27.000Z</Time>
            <Position>
              <LatitudeDegrees>40.76268567703664302825927734375</LatitudeDegrees>
              <LongitudeDegrees>-4.09009859897196292877197265625</LongitudeDegrees>
            </Position>
            <AltitudeMeters>1746.5999755859375</AltitudeMeters>
            <DistanceMeters>NAN</DistanceMeters>
          </Trackpoint>
          <Trackpoint>
            <Time>2018-12-30T13:07:28.000Z</Time>
            <Position>
              <LatitudeDegrees>40.76267193071544170379638671875</LatitudeDegrees>
              <LongitudeDegrees>-4.09008820541203022003173828125</LongitudeDegrees>
            </Position>
            <AltitudeMeters>1746.5999755859375</AltitudeMeters>
            <DistanceMeters>NAN</DistanceMeters>
          </Trackpoint>
          <Trackpoint>
            <Time>2018-12-30T13:07:29.000Z</Time>
            <Position>
              <LatitudeDegrees>40.762656591832637786865234375</LatitudeDegrees>
              <LongitudeDegrees>-4.09008434973657131195068359375</LongitudeDegrees>
            </Position>
            <AltitudeMeters>1746.5999755859375</AltitudeMeters>
            <DistanceMeters>NAN</DistanceMeters>
          </Trackpoint>
          <Trackpoint>
            <Time>2018-12-30T13:07:30.000Z</Time>
            <Position>
              <LatitudeDegrees>40.762641169130802154541015625</LatitudeDegrees>
              <LongitudeDegrees>-4.09007848240435123443603515625</LongitudeDegrees>
            </Position>
            <AltitudeMeters>1746.5999755859375</AltitudeMeters>
            <DistanceMeters>NAN</DistanceMeters>
          </Trackpoint>
          <Trackpoint>
            <Time>2018-12-30T13:07:31.000Z</Time>
            <Position>
              <LatitudeDegrees>40.76262809336185455322265625</LatitudeDegrees>
              <LongitudeDegrees>-4.0900638140738010406494140625</LongitudeDegrees>
            </Position>
            <AltitudeMeters>1746.5999755859375</AltitudeMeters>
            <DistanceMeters>NAN</DistanceMeters>
          </Trackpoint>
          <Trackpoint>
            <Time>2018-12-30T13:07:32.000Z</Time>
            <Position>
              <LatitudeDegrees>40.762614347040653228759765625</LatitudeDegrees>
              <LongitudeDegrees>-4.09005903638899326324462890625</LongitudeDegrees>
            </Position>
            <AltitudeMeters>1746.4000244140625</AltitudeMeters>
            <DistanceMeters>NAN</DistanceMeters>
          </Trackpoint>
          <Trackpoint>
            <Time>2018-12-30T13:07:33.000Z</Time>
            <Position>
              <LatitudeDegrees>40.7626073062419891357421875</LatitudeDegrees>
              <LongitudeDegrees>-4.090048559010028839111328125</LongitudeDegrees>
            </Position>
            <AltitudeMeters>1746.4000244140625</AltitudeMeters>
            <DistanceMeters>NAN</DistanceMeters>
          </Trackpoint>
          <Trackpoint>
            <Time>2018-12-30T13:07:34.000Z</Time>
            <Position>
              <LatitudeDegrees>40.7625970803201198577880859375</LatitudeDegrees>
              <LongitudeDegrees>-4.09003925509750843048095703125</LongitudeDegrees>
            </Position>
            <AltitudeMeters>1746.4000244140625</AltitudeMeters>
            <DistanceMeters>NAN</DistanceMeters>
          </Trackpoint>
          <Trackpoint>
            <Time>2018-12-30T13:07:35.000Z</Time>
            <Position>
              <LatitudeDegrees>40.76258358545601367950439453125</LatitudeDegrees>
              <LongitudeDegrees>-4.09003137610852718353271484375</LongitudeDegrees>
            </Position>
            <AltitudeMeters>1746.4000244140625</AltitudeMeters>
            <DistanceMeters>NAN</DistanceMeters>
          </Trackpoint>
          <Trackpoint>
            <Time>2018-12-30T13:07:36.000Z</Time>
            <Position>
              <LatitudeDegrees>40.76256179250776767730712890625</LatitudeDegrees>
              <LongitudeDegrees>-4.09003187902271747589111328125</LongitudeDegrees>
            </Position>
            <AltitudeMeters>1746.4000244140625</AltitudeMeters>
            <DistanceMeters>NAN</DistanceMeters>
          </Trackpoint>
          <Trackpoint>
            <Time>2018-12-30T13:07:37.000Z</Time>
            <Position>
              <LatitudeDegrees>40.76254636980593204498291015625</LatitudeDegrees>
              <LongitudeDegrees>-4.090025424957275390625</LongitudeDegrees>
            </Position>
            <AltitudeMeters>1746.4000244140625</AltitudeMeters>
            <DistanceMeters>NAN</DistanceMeters>
          </Trackpoint>
          <Trackpoint>
            <Time>2018-12-30T13:07:38.000Z</Time>
            <Position>
              <LatitudeDegrees>40.762531198561191558837890625</LatitudeDegrees>
              <LongitudeDegrees>-4.090018384158611297607421875</LongitudeDegrees>
            </Position>
            <AltitudeMeters>1746.4000244140625</AltitudeMeters>
            <DistanceMeters>NAN</DistanceMeters>
          </Trackpoint>
          <Trackpoint>
            <Time>2018-12-30T13:07:39.000Z</Time>
            <Position>
              <LatitudeDegrees>40.762509740889072418212890625</LatitudeDegrees>
              <LongitudeDegrees>-4.09001159481704235076904296875</LongitudeDegrees>
            </Position>
            <AltitudeMeters>1746.199951171875</AltitudeMeters>
            <DistanceMeters>NAN</DistanceMeters>
          </Trackpoint>
          <Trackpoint>
            <Time>2018-12-30T13:07:40.000Z</Time>
            <Position>
              <LatitudeDegrees>40.7624946534633636474609375</LatitudeDegrees>
              <LongitudeDegrees>-4.09000639803707599639892578125</LongitudeDegrees>
            </Position>
            <AltitudeMeters>1746</AltitudeMeters>
            <DistanceMeters>NAN</DistanceMeters>
          </Trackpoint>
          <Trackpoint>
            <Time>2018-12-30T13:07:41.000Z</Time>
            <Position>
              <LatitudeDegrees>40.76246657408773899078369140625</LatitudeDegrees>
              <LongitudeDegrees>-4.0900078229606151580810546875</LongitudeDegrees>
            </Position>
            <AltitudeMeters>1745.800048828125</AltitudeMeters>
            <DistanceMeters>NAN</DistanceMeters>
          </Trackpoint>
          <Trackpoint>
            <Time>2018-12-30T13:07:42.000Z</Time>
            <Position>
              <LatitudeDegrees>40.7624522410333156585693359375</LatitudeDegrees>
              <LongitudeDegrees>-4.09000187180936336517333984375</LongitudeDegrees>
            </Position>
            <AltitudeMeters>1745.800048828125</AltitudeMeters>
            <DistanceMeters>NAN</DistanceMeters>
          </Trackpoint>
          <Trackpoint>
            <Time>2018-12-30T13:07:43.000Z</Time>
            <Position>
              <LatitudeDegrees>40.76242835260927677154541015625</LatitudeDegrees>
              <LongitudeDegrees>-4.08999181352555751800537109375</LongitudeDegrees>
            </Position>
            <AltitudeMeters>1745.800048828125</AltitudeMeters>
            <DistanceMeters>NAN</DistanceMeters>
          </Trackpoint>
          <Trackpoint>
            <Time>2018-12-30T13:07:44.000Z</Time>
            <Position>
              <LatitudeDegrees>40.76240253634750843048095703125</LatitudeDegrees>
              <LongitudeDegrees>-4.0899783186614513397216796875</LongitudeDegrees>
            </Position>
            <AltitudeMeters>1745.5999755859375</AltitudeMeters>
            <DistanceMeters>NAN</DistanceMeters>
          </Trackpoint>
          <Trackpoint>
            <Time>2018-12-30T13:07:45.000Z</Time>
            <Position>
              <LatitudeDegrees>40.762380994856357574462890625</LatitudeDegrees>
              <LongitudeDegrees>-4.08997111022472381591796875</LongitudeDegrees>
            </Position>
            <AltitudeMeters>1745.5999755859375</AltitudeMeters>
            <DistanceMeters>NAN</DistanceMeters>
          </Trackpoint>
          <Trackpoint>
            <Time>2018-12-30T13:07:46.000Z</Time>
            <Position>
              <LatitudeDegrees>40.76236330904066562652587890625</LatitudeDegrees>
              <LongitudeDegrees>-4.08996331505477428436279296875</LongitudeDegrees>
            </Position>
            <AltitudeMeters>1745.5999755859375</AltitudeMeters>
            <DistanceMeters>NAN</DistanceMeters>
          </Trackpoint>
          <Trackpoint>
            <Time>2018-12-30T13:07:47.000Z</Time>
            <Position>
              <LatitudeDegrees>40.762340761721134185791015625</LatitudeDegrees>
              <LongitudeDegrees>-4.0899635665118694305419921875</LongitudeDegrees>
            </Position>
            <AltitudeMeters>1745.4000244140625</AltitudeMeters>
            <DistanceMeters>NAN</DistanceMeters>
          </Trackpoint>
          <Trackpoint>
            <Time>2018-12-30T13:07:48.000Z</Time>
            <Position>
              <LatitudeDegrees>40.76232944615185260772705078125</LatitudeDegrees>
              <LongitudeDegrees>-4.089957363903522491455078125</LongitudeDegrees>
            </Position>
            <AltitudeMeters>1745.199951171875</AltitudeMeters>
            <DistanceMeters>NAN</DistanceMeters>
          </Trackpoint>
          <Trackpoint>
            <Time>2018-12-30T13:07:49.000Z</Time>
            <Position>
              <LatitudeDegrees>40.7623087428510189056396484375</LatitudeDegrees>
              <LongitudeDegrees>-4.08995308913290500640869140625</LongitudeDegrees>
            </Position>
            <AltitudeMeters>1745</AltitudeMeters>
            <DistanceMeters>NAN</DistanceMeters>
          </Trackpoint>
          <Trackpoint>
            <Time>2018-12-30T13:07:50.000Z</Time>
            <Position>
              <LatitudeDegrees>40.76229072175920009613037109375</LatitudeDegrees>
              <LongitudeDegrees>-4.08994822762906551361083984375</LongitudeDegrees>
            </Position>
            <AltitudeMeters>1745</AltitudeMeters>
            <DistanceMeters>NAN</DistanceMeters>
          </Trackpoint>
          <Trackpoint>
            <Time>2018-12-30T13:07:51.000Z</Time>
            <Position>
              <LatitudeDegrees>40.76226993463933467864990234375</LatitudeDegrees>
              <LongitudeDegrees>-4.0899457968771457672119140625</LongitudeDegrees>
            </Position>
            <AltitudeMeters>1744.800048828125</AltitudeMeters>
            <DistanceMeters>NAN</DistanceMeters>
          </Trackpoint>
          <Trackpoint>
            <Time>2018-12-30T13:07:52.000Z</Time>
            <Position>
              <LatitudeDegrees>40.7622547633945941925048828125</LatitudeDegrees>
              <LongitudeDegrees>-4.08993448130786418914794921875</LongitudeDegrees>
            </Position>
            <AltitudeMeters>1744.800048828125</AltitudeMeters>
            <DistanceMeters>NAN</DistanceMeters>
          </Trackpoint>
          <Trackpoint>
            <Time>2018-12-30T13:07:53.000Z</Time>
            <Position>
              <LatitudeDegrees>40.762246213853359222412109375</LatitudeDegrees>
              <LongitudeDegrees>-4.08992257900536060333251953125</LongitudeDegrees>
            </Position>
            <AltitudeMeters>1744.800048828125</AltitudeMeters>
            <DistanceMeters>NAN</DistanceMeters>
          </Trackpoint>
          <Trackpoint>
            <Time>2018-12-30T13:07:54.000Z</Time>
            <Position>
              <LatitudeDegrees>40.76223121024668216705322265625</LatitudeDegrees>
              <LongitudeDegrees>-4.089916460216045379638671875</LongitudeDegrees>
            </Position>
            <AltitudeMeters>1744.5999755859375</AltitudeMeters>
            <DistanceMeters>NAN</DistanceMeters>
          </Trackpoint>
          <Trackpoint>
            <Time>2018-12-30T13:07:55.000Z</Time>
            <Position>
              <LatitudeDegrees>40.762217380106449127197265625</LatitudeDegrees>
              <LongitudeDegrees>-4.08990849740803241729736328125</LongitudeDegrees>
            </Position>
            <AltitudeMeters>1744.4000244140625</AltitudeMeters>
            <DistanceMeters>NAN</DistanceMeters>
          </Trackpoint>
          <Trackpoint>
            <Time>2018-12-30T13:07:56.000Z</Time>
            <Position>
              <LatitudeDegrees>40.7622049748897552490234375</LatitudeDegrees>
              <LongitudeDegrees>-4.0898975171148777008056640625</LongitudeDegrees>
            </Position>
            <AltitudeMeters>1744.4000244140625</AltitudeMeters>
            <DistanceMeters>NAN</DistanceMeters>
          </Trackpoint>
          <Trackpoint>
            <Time>2018-12-30T13:07:57.000Z</Time>
            <Position>
              <LatitudeDegrees>40.76219265349209308624267578125</LatitudeDegrees>
              <LongitudeDegrees>-4.08988821320235729217529296875</LongitudeDegrees>
            </Position>
            <AltitudeMeters>1744.4000244140625</AltitudeMeters>
            <DistanceMeters>NAN</DistanceMeters>
          </Trackpoint>
          <Trackpoint>
            <Time>2018-12-30T13:07:58.000Z</Time>
            <Position>
              <LatitudeDegrees>40.76217773370444774627685546875</LatitudeDegrees>
              <LongitudeDegrees>-4.08987857401371002197265625</LongitudeDegrees>
            </Position>
            <AltitudeMeters>1744.4000244140625</AltitudeMeters>
            <DistanceMeters>NAN</DistanceMeters>
          </Trackpoint>
          <Trackpoint>
            <Time>2018-12-30T13:07:59.000Z</Time>
            <Position>
              <LatitudeDegrees>40.76216415502130985260009765625</LatitudeDegrees>
              <LongitudeDegrees>-4.0898690186440944671630859375</LongitudeDegrees>
            </Position>
            <AltitudeMeters>1744.199951171875</AltitudeMeters>
            <DistanceMeters>NAN</DistanceMeters>
          </Trackpoint>
          <Trackpoint>
            <Time>2018-12-30T13:08:00.000Z</Time>
            <Position>
              <LatitudeDegrees>40.76214931905269622802734375</LatitudeDegrees>
              <LongitudeDegrees>-4.08985937945544719696044921875</LongitudeDegrees>
            </Position>
            <AltitudeMeters>1744.199951171875</AltitudeMeters>
            <DistanceMeters>NAN</DistanceMeters>
          </Trackpoint>
          <Trackpoint>
            <Time>2018-12-30T13:08:01.000Z</Time>
            <Position>
              <LatitudeDegrees>40.76214118860661983489990234375</LatitudeDegrees>
              <LongitudeDegrees>-4.08984982408583164215087890625</LongitudeDegrees>
            </Position>
            <AltitudeMeters>1744.4000244140625</AltitudeMeters>
            <DistanceMeters>NAN</DistanceMeters>
          </Trackpoint>
          <Trackpoint>
            <Time>2018-12-30T13:08:02.000Z</Time>
            <Position>
              <LatitudeDegrees>40.76213456690311431884765625</LatitudeDegrees>
              <LongitudeDegrees>-4.08983959816396236419677734375</LongitudeDegrees>
            </Position>
            <AltitudeMeters>1744.199951171875</AltitudeMeters>
            <DistanceMeters>NAN</DistanceMeters>
          </Trackpoint>
          <Trackpoint>
            <Time>2018-12-30T13:08:03.000Z</Time>
            <Position>
              <LatitudeDegrees>40.76213113032281398773193359375</LatitudeDegrees>
              <LongitudeDegrees>-4.089829288423061370849609375</LongitudeDegrees>
            </Position>
            <AltitudeMeters>1744.199951171875</AltitudeMeters>
            <DistanceMeters>NAN</DistanceMeters>
          </Trackpoint>
          <Trackpoint>
            <Time>2018-12-30T13:08:04.000Z</Time>
            <Position>
              <LatitudeDegrees>40.7621297053992748260498046875</LatitudeDegrees>
              <LongitudeDegrees>-4.08981009386479854583740234375</LongitudeDegrees>
            </Position>
            <AltitudeMeters>1744.199951171875</AltitudeMeters>
            <DistanceMeters>NAN</DistanceMeters>
          </Trackpoint>
          <Trackpoint>
            <Time>2018-12-30T13:08:05.000Z</Time>
            <Position>
              <LatitudeDegrees>40.76212224550545215606689453125</LatitudeDegrees>
              <LongitudeDegrees>-4.08979944884777069091796875</LongitudeDegrees>
            </Position>
            <AltitudeMeters>1744.199951171875</AltitudeMeters>
            <DistanceMeters>NAN</DistanceMeters>
          </Trackpoint>
          <Trackpoint>
            <Time>2018-12-30T13:08:06.000Z</Time>
            <Position>
              <LatitudeDegrees>40.7621149532496929168701171875</LatitudeDegrees>
              <LongitudeDegrees>-4.0897805057466030120849609375</LongitudeDegrees>
            </Position>
            <AltitudeMeters>1744.199951171875</AltitudeMeters>
            <DistanceMeters>NAN</DistanceMeters>
          </Trackpoint>
          <Trackpoint>
            <Time>2018-12-30T13:08:07.000Z</Time>
            <Position>
              <LatitudeDegrees>40.7621065713465213775634765625</LatitudeDegrees>
              <LongitudeDegrees>-4.08976281993091106414794921875</LongitudeDegrees>
            </Position>
            <AltitudeMeters>1744.199951171875</AltitudeMeters>
            <DistanceMeters>NAN</DistanceMeters>
          </Trackpoint>
          <Trackpoint>
            <Time>2018-12-30T13:08:08.000Z</Time>
            <Position>
              <LatitudeDegrees>40.76209642924368381500244140625</LatitudeDegrees>
              <LongitudeDegrees>-4.08974538557231426239013671875</LongitudeDegrees>
            </Position>
            <AltitudeMeters>1744.4000244140625</AltitudeMeters>
            <DistanceMeters>NAN</DistanceMeters>
          </Trackpoint>
          <Trackpoint>
            <Time>2018-12-30T13:08:09.000Z</Time>
            <Position>
              <LatitudeDegrees>40.76208285056054592132568359375</LatitudeDegrees>
              <LongitudeDegrees>-4.0897317230701446533203125</LongitudeDegrees>
            </Position>
            <AltitudeMeters>1744.4000244140625</AltitudeMeters>
            <DistanceMeters>NAN</DistanceMeters>
          </Trackpoint>
          <Trackpoint>
            <Time>2018-12-30T13:08:10.000Z</Time>
            <Position>
              <LatitudeDegrees>40.76206591911613941192626953125</LatitudeDegrees>
              <LongitudeDegrees>-4.0897238440811634063720703125</LongitudeDegrees>
            </Position>
            <AltitudeMeters>1744.800048828125</AltitudeMeters>
            <DistanceMeters>NAN</DistanceMeters>
          </Trackpoint>
          <Trackpoint>
            <Time>2018-12-30T13:08:11.000Z</Time>
            <Position>
              <LatitudeDegrees>40.76204882003366947174072265625</LatitudeDegrees>
              <LongitudeDegrees>-4.08971085213124752044677734375</LongitudeDegrees>
            </Position>
            <AltitudeMeters>1744.800048828125</AltitudeMeters>
            <DistanceMeters>NAN</DistanceMeters>
          </Trackpoint>
          <Trackpoint>
            <Time>2018-12-30T13:08:12.000Z</Time>
            <Position>
              <LatitudeDegrees>40.7620324753224849700927734375</LatitudeDegrees>
              <LongitudeDegrees>-4.089696519076824188232421875</LongitudeDegrees>
            </Position>
            <AltitudeMeters>1744.800048828125</AltitudeMeters>
            <DistanceMeters>NAN</DistanceMeters>
          </Trackpoint>
          <Trackpoint>
            <Time>2018-12-30T13:08:13.000Z</Time>
            <Position>
              <LatitudeDegrees>40.76200925745069980621337890625</LatitudeDegrees>
              <LongitudeDegrees>-4.08968671225011348724365234375</LongitudeDegrees>
            </Position>
            <AltitudeMeters>1745</AltitudeMeters>
            <DistanceMeters>NAN</DistanceMeters>
          </Trackpoint>
          <Trackpoint>
            <Time>2018-12-30T13:08:14.000Z</Time>
            <Position>
              <LatitudeDegrees>40.76199517585337162017822265625</LatitudeDegrees>
              <LongitudeDegrees>-4.08967782743275165557861328125</LongitudeDegrees>
            </Position>
            <AltitudeMeters>1744.800048828125</AltitudeMeters>
            <DistanceMeters>NAN</DistanceMeters>
          </Trackpoint>
          <Trackpoint>
            <Time>2018-12-30T13:08:15.000Z</Time>
            <Position>
              <LatitudeDegrees>40.76198159717023372650146484375</LatitudeDegrees>
              <LongitudeDegrees>-4.0896685235202312469482421875</LongitudeDegrees>
            </Position>
            <AltitudeMeters>1744.5999755859375</AltitudeMeters>
            <DistanceMeters>NAN</DistanceMeters>
          </Trackpoint>
          <Trackpoint>
            <Time>2018-12-30T13:08:16.000Z</Time>
            <Position>
              <LatitudeDegrees>40.76197204180061817169189453125</LatitudeDegrees>
              <LongitudeDegrees>-4.08966072835028171539306640625</LongitudeDegrees>
            </Position>
            <AltitudeMeters>1744.5999755859375</AltitudeMeters>
            <DistanceMeters>NAN</DistanceMeters>
          </Trackpoint>
          <Trackpoint>
            <Time>2018-12-30T13:08:17.000Z</Time>
            <Position>
              <LatitudeDegrees>40.7619654200971126556396484375</LatitudeDegrees>
              <LongitudeDegrees>-4.08964564092457294464111328125</LongitudeDegrees>
            </Position>
            <AltitudeMeters>1744.4000244140625</AltitudeMeters>
            <DistanceMeters>NAN</DistanceMeters>
          </Trackpoint>
          <Trackpoint>
            <Time>2018-12-30T13:08:18.000Z</Time>
            <Position>
              <LatitudeDegrees>40.761956535279750823974609375</LatitudeDegrees>
              <LongitudeDegrees>-4.08963457681238651275634765625</LongitudeDegrees>
            </Position>
            <AltitudeMeters>1744.4000244140625</AltitudeMeters>
            <DistanceMeters>NAN</DistanceMeters>
          </Trackpoint>
          <Trackpoint>
            <Time>2018-12-30T13:08:19.000Z</Time>
            <Position>
              <LatitudeDegrees>40.76194924302399158477783203125</LatitudeDegrees>
              <LongitudeDegrees>-4.08962334506213665008544921875</LongitudeDegrees>
            </Position>
            <AltitudeMeters>1744.4000244140625</AltitudeMeters>
            <DistanceMeters>NAN</DistanceMeters>
          </Trackpoint>
          <Trackpoint>
            <Time>2018-12-30T13:08:20.000Z</Time>
            <Position>
              <LatitudeDegrees>40.761943794786930084228515625</LatitudeDegrees>
              <LongitudeDegrees>-4.08961177803575992584228515625</LongitudeDegrees>
            </Position>
            <AltitudeMeters>1744.4000244140625</AltitudeMeters>
            <DistanceMeters>NAN</DistanceMeters>
          </Trackpoint>
          <Trackpoint>
            <Time>2018-12-30T13:08:21.000Z</Time>
            <Position>
              <LatitudeDegrees>40.76193767599761486053466796875</LatitudeDegrees>
              <LongitudeDegrees>-4.08960096538066864013671875</LongitudeDegrees>
            </Position>
            <AltitudeMeters>1744.4000244140625</AltitudeMeters>
            <DistanceMeters>NAN</DistanceMeters>
          </Trackpoint>
          <Trackpoint>
            <Time>2018-12-30T13:08:22.000Z</Time>
            <Position>
              <LatitudeDegrees>40.761932395398616790771484375</LatitudeDegrees>
              <LongitudeDegrees>-4.08958889544010162353515625</LongitudeDegrees>
            </Position>
            <AltitudeMeters>1744.4000244140625</AltitudeMeters>
            <DistanceMeters>NAN</DistanceMeters>
          </Trackpoint>
          <Trackpoint>
            <Time>2018-12-30T13:08:23.000Z</Time>
            <Position>
              <LatitudeDegrees>40.76192594133317470550537109375</LatitudeDegrees>
              <LongitudeDegrees>-4.0895766578614711761474609375</LongitudeDegrees>
            </Position>
            <AltitudeMeters>1744.4000244140625</AltitudeMeters>
            <DistanceMeters>NAN</DistanceMeters>
          </Trackpoint>
          <Trackpoint>
            <Time>2018-12-30T13:08:24.000Z</Time>
            <Position>
              <LatitudeDegrees>40.7619131170213222503662109375</LatitudeDegrees>
              <LongitudeDegrees>-4.0895635820925235748291015625</LongitudeDegrees>
            </Position>
            <AltitudeMeters>1744.4000244140625</AltitudeMeters>
            <DistanceMeters>NAN</DistanceMeters>
          </Trackpoint>
          <Trackpoint>
            <Time>2018-12-30T13:08:25.000Z</Time>
            <Position>
              <LatitudeDegrees>40.76190389692783355712890625</LatitudeDegrees>
              <LongitudeDegrees>-4.08955075778067111968994140625</LongitudeDegrees>
            </Position>
            <AltitudeMeters>1744.199951171875</AltitudeMeters>
            <DistanceMeters>NAN</DistanceMeters>
          </Trackpoint>
          <Trackpoint>
            <Time>2018-12-30T13:08:26.000Z</Time>
            <Position>
              <LatitudeDegrees>40.76189945451915264129638671875</LatitudeDegrees>
              <LongitudeDegrees>-4.089534580707550048828125</LongitudeDegrees>
            </Position>
            <AltitudeMeters>1744.199951171875</AltitudeMeters>
            <DistanceMeters>NAN</DistanceMeters>
          </Trackpoint>
          <Trackpoint>
            <Time>2018-12-30T13:08:27.000Z</Time>
            <Position>
              <LatitudeDegrees>40.76189040206372737884521484375</LatitudeDegrees>
              <LongitudeDegrees>-4.0895303897559642791748046875</LongitudeDegrees>
            </Position>
            <AltitudeMeters>1744</AltitudeMeters>
            <DistanceMeters>NAN</DistanceMeters>
          </Trackpoint>
          <Trackpoint>
            <Time>2018-12-30T13:08:28.000Z</Time>
            <Position>
              <LatitudeDegrees>40.7618844509124755859375</LatitudeDegrees>
              <LongitudeDegrees>-4.08952225930988788604736328125</LongitudeDegrees>
            </Position>
            <AltitudeMeters>1744</AltitudeMeters>
            <DistanceMeters>NAN</DistanceMeters>
          </Trackpoint>
          <Trackpoint>
            <Time>2018-12-30T13:08:29.000Z</Time>
            <Position>
              <LatitudeDegrees>40.76186961494386196136474609375</LatitudeDegrees>
              <LongitudeDegrees>-4.08951002173125743865966796875</LongitudeDegrees>
            </Position>
            <AltitudeMeters>1743.800048828125</AltitudeMeters>
            <DistanceMeters>NAN</DistanceMeters>
          </Trackpoint>
          <Trackpoint>
            <Time>2018-12-30T13:08:30.000Z</Time>
            <Position>
              <LatitudeDegrees>40.7618554495275020599365234375</LatitudeDegrees>
              <LongitudeDegrees>-4.08949862234294414520263671875</LongitudeDegrees>
            </Position>
            <AltitudeMeters>1743.800048828125</AltitudeMeters>
            <DistanceMeters>NAN</DistanceMeters>
          </Trackpoint>
          <Trackpoint>
            <Time>2018-12-30T13:08:31.000Z</Time>
            <Position>
              <LatitudeDegrees>40.76183147728443145751953125</LatitudeDegrees>
              <LongitudeDegrees>-4.08949107863008975982666015625</LongitudeDegrees>
            </Position>
            <AltitudeMeters>1743.800048828125</AltitudeMeters>
            <DistanceMeters>NAN</DistanceMeters>
          </Trackpoint>
          <Trackpoint>
            <Time>2018-12-30T13:08:32.000Z</Time>
            <Position>
              <LatitudeDegrees>40.7618152163922786712646484375</LatitudeDegrees>
              <LongitudeDegrees>-4.0894849598407745361328125</LongitudeDegrees>
            </Position>
            <AltitudeMeters>1743.5999755859375</AltitudeMeters>
            <DistanceMeters>NAN</DistanceMeters>
          </Trackpoint>
          <Trackpoint>
            <Time>2018-12-30T13:08:33.000Z</Time>
            <Position>
              <LatitudeDegrees>40.76180675067007541656494140625</LatitudeDegrees>
              <LongitudeDegrees>-4.08947490155696868896484375</LongitudeDegrees>
            </Position>
            <AltitudeMeters>1743.5999755859375</AltitudeMeters>
            <DistanceMeters>NAN</DistanceMeters>
          </Trackpoint>
          <Trackpoint>
            <Time>2018-12-30T13:08:34.000Z</Time>
            <Position>
              <LatitudeDegrees>40.76179660856723785400390625</LatitudeDegrees>
              <LongitudeDegrees>-4.089462496340274810791015625</LongitudeDegrees>
            </Position>
            <AltitudeMeters>1743.5999755859375</AltitudeMeters>
            <DistanceMeters>NAN</DistanceMeters>
          </Trackpoint>
          <Trackpoint>
            <Time>2018-12-30T13:08:35.000Z</Time>
            <Position>
              <LatitudeDegrees>40.76178646646440029144287109375</LatitudeDegrees>
              <LongitudeDegrees>-4.0894539467990398406982421875</LongitudeDegrees>
            </Position>
            <AltitudeMeters>1743.5999755859375</AltitudeMeters>
            <DistanceMeters>NAN</DistanceMeters>
          </Trackpoint>
          <Trackpoint>
            <Time>2018-12-30T13:08:36.000Z</Time>
            <Position>
              <LatitudeDegrees>40.7617776654660701751708984375</LatitudeDegrees>
              <LongitudeDegrees>-4.0894452296197414398193359375</LongitudeDegrees>
            </Position>
            <AltitudeMeters>1743.5999755859375</AltitudeMeters>
            <DistanceMeters>NAN</DistanceMeters>
          </Trackpoint>
          <Trackpoint>
            <Time>2018-12-30T13:08:37.000Z</Time>
            <Position>
              <LatitudeDegrees>40.76177087612450122833251953125</LatitudeDegrees>
              <LongitudeDegrees>-4.08943223766982555389404296875</LongitudeDegrees>
            </Position>
            <AltitudeMeters>1743.800048828125</AltitudeMeters>
            <DistanceMeters>NAN</DistanceMeters>
          </Trackpoint>
          <Trackpoint>
            <Time>2018-12-30T13:08:38.000Z</Time>
            <Position>
              <LatitudeDegrees>40.76175612397491931915283203125</LatitudeDegrees>
              <LongitudeDegrees>-4.08942251466214656829833984375</LongitudeDegrees>
            </Position>
            <AltitudeMeters>1743.800048828125</AltitudeMeters>
            <DistanceMeters>NAN</DistanceMeters>
          </Trackpoint>
          <Trackpoint>
            <Time>2018-12-30T13:08:39.000Z</Time>
            <Position>
              <LatitudeDegrees>40.76174430549144744873046875</LatitudeDegrees>
              <LongitudeDegrees>-4.08941413275897502899169921875</LongitudeDegrees>
            </Position>
            <AltitudeMeters>1743.800048828125</AltitudeMeters>
            <DistanceMeters>NAN</DistanceMeters>
          </Trackpoint>
          <Trackpoint>
            <Time>2018-12-30T13:08:40.000Z</Time>
            <Position>
              <LatitudeDegrees>40.76173751614987850189208984375</LatitudeDegrees>
              <LongitudeDegrees>-4.0894043259322643280029296875</LongitudeDegrees>
            </Position>
            <AltitudeMeters>1743.5999755859375</AltitudeMeters>
            <DistanceMeters>NAN</DistanceMeters>
          </Trackpoint>
          <Trackpoint>
            <Time>2018-12-30T13:08:41.000Z</Time>
            <Position>
              <LatitudeDegrees>40.7617297209799289703369140625</LatitudeDegrees>
              <LongitudeDegrees>-4.08939669840037822723388671875</LongitudeDegrees>
            </Position>
            <AltitudeMeters>1743.5999755859375</AltitudeMeters>
            <DistanceMeters>NAN</DistanceMeters>
          </Trackpoint>
          <Trackpoint>
            <Time>2018-12-30T13:08:42.000Z</Time>
            <Position>
              <LatitudeDegrees>40.76172955334186553955078125</LatitudeDegrees>
              <LongitudeDegrees>-4.0893899090588092803955078125</LongitudeDegrees>
            </Position>
            <AltitudeMeters>1743.4000244140625</AltitudeMeters>
            <DistanceMeters>NAN</DistanceMeters>
          </Trackpoint>
          <Trackpoint>
            <Time>2018-12-30T13:08:43.000Z</Time>
            <Position>
              <LatitudeDegrees>40.7617166452109813690185546875</LatitudeDegrees>
              <LongitudeDegrees>-4.08939317800104618072509765625</LongitudeDegrees>
            </Position>
            <AltitudeMeters>1743.4000244140625</AltitudeMeters>
            <DistanceMeters>NAN</DistanceMeters>
          </Trackpoint>
          <Trackpoint>
            <Time>2018-12-30T13:08:44.000Z</Time>
            <Position>
              <LatitudeDegrees>40.76170700602233409881591796875</LatitudeDegrees>
              <LongitudeDegrees>-4.08939468674361705780029296875</LongitudeDegrees>
            </Position>
            <AltitudeMeters>1743.4000244140625</AltitudeMeters>
            <DistanceMeters>NAN</DistanceMeters>
          </Trackpoint>
          <Trackpoint>
            <Time>2018-12-30T13:08:45.000Z</Time>
            <Position>
              <LatitudeDegrees>40.76169091276824474334716796875</LatitudeDegrees>
              <LongitudeDegrees>-4.089389741420745849609375</LongitudeDegrees>
            </Position>
            <AltitudeMeters>1743.199951171875</AltitudeMeters>
            <DistanceMeters>NAN</DistanceMeters>
          </Trackpoint>
          <Trackpoint>
            <Time>2018-12-30T13:08:46.000Z</Time>
            <Position>
              <LatitudeDegrees>40.761678926646709442138671875</LatitudeDegrees>
              <LongitudeDegrees>-4.0893845446407794952392578125</LongitudeDegrees>
            </Position>
            <AltitudeMeters>1743</AltitudeMeters>
            <DistanceMeters>NAN</DistanceMeters>
          </Trackpoint>
          <Trackpoint>
            <Time>2018-12-30T13:08:47.000Z</Time>
            <Position>
              <LatitudeDegrees>40.7616673596203327178955078125</LatitudeDegrees>
              <LongitudeDegrees>-4.08937272615730762481689453125</LongitudeDegrees>
            </Position>
            <AltitudeMeters>1743</AltitudeMeters>
            <DistanceMeters>NAN</DistanceMeters>
          </Trackpoint>
          <Trackpoint>
            <Time>2018-12-30T13:08:48.000Z</Time>
            <Position>
              <LatitudeDegrees>40.76165311038494110107421875</LatitudeDegrees>
              <LongitudeDegrees>-4.08936602063477039337158203125</LongitudeDegrees>
            </Position>
            <AltitudeMeters>1743.199951171875</AltitudeMeters>
            <DistanceMeters>NAN</DistanceMeters>
          </Trackpoint>
          <Trackpoint>
            <Time>2018-12-30T13:08:49.000Z</Time>
            <Position>
              <LatitudeDegrees>40.76163710094988346099853515625</LatitudeDegrees>
              <LongitudeDegrees>-4.08935361541807651519775390625</LongitudeDegrees>
            </Position>
            <AltitudeMeters>1743</AltitudeMeters>
            <DistanceMeters>NAN</DistanceMeters>
          </Trackpoint>
          <Trackpoint>
            <Time>2018-12-30T13:08:50.000Z</Time>
            <Position>
              <LatitudeDegrees>40.76162000186741352081298828125</LatitudeDegrees>
              <LongitudeDegrees>-4.08934171311557292938232421875</LongitudeDegrees>
            </Position>
            <AltitudeMeters>1742.800048828125</AltitudeMeters>
            <DistanceMeters>NAN</DistanceMeters>
          </Trackpoint>
          <Trackpoint>
            <Time>2018-12-30T13:08:51.000Z</Time>
            <Position>
              <LatitudeDegrees>40.7616060040891170501708984375</LatitudeDegrees>
              <LongitudeDegrees>-4.08932494930922985076904296875</LongitudeDegrees>
            </Position>
            <AltitudeMeters>1742.5999755859375</AltitudeMeters>
            <DistanceMeters>NAN</DistanceMeters>
          </Trackpoint>
          <Trackpoint>
            <Time>2018-12-30T13:08:52.000Z</Time>
            <Position>
              <LatitudeDegrees>40.76159720309078693389892578125</LatitudeDegrees>
              <LongitudeDegrees>-4.08930265344679355621337890625</LongitudeDegrees>
            </Position>
            <AltitudeMeters>1742.4000244140625</AltitudeMeters>
            <DistanceMeters>NAN</DistanceMeters>
          </Trackpoint>
          <Trackpoint>
            <Time>2018-12-30T13:08:53.000Z</Time>
            <Position>
              <LatitudeDegrees>40.76158395968377590179443359375</LatitudeDegrees>
              <LongitudeDegrees>-4.0892883203923702239990234375</LongitudeDegrees>
            </Position>
            <AltitudeMeters>1742.4000244140625</AltitudeMeters>
            <DistanceMeters>NAN</DistanceMeters>
          </Trackpoint>
          <Trackpoint>
            <Time>2018-12-30T13:08:54.000Z</Time>
            <Position>
              <LatitudeDegrees>40.76157188974320888519287109375</LatitudeDegrees>
              <LongitudeDegrees>-4.08926971256732940673828125</LongitudeDegrees>
            </Position>
            <AltitudeMeters>1742.199951171875</AltitudeMeters>
            <DistanceMeters>NAN</DistanceMeters>
          </Trackpoint>
          <Trackpoint>
            <Time>2018-12-30T13:08:55.000Z</Time>
            <Position>
              <LatitudeDegrees>40.76155495829880237579345703125</LatitudeDegrees>
              <LongitudeDegrees>-4.08925504423677921295166015625</LongitudeDegrees>
            </Position>
            <AltitudeMeters>1742.199951171875</AltitudeMeters>
            <DistanceMeters>NAN</DistanceMeters>
          </Trackpoint>
          <Trackpoint>
            <Time>2018-12-30T13:08:56.000Z</Time>
            <Position>
              <LatitudeDegrees>40.76154221780598163604736328125</LatitudeDegrees>
              <LongitudeDegrees>-4.08924314193427562713623046875</LongitudeDegrees>
            </Position>
            <AltitudeMeters>1742.199951171875</AltitudeMeters>
            <DistanceMeters>NAN</DistanceMeters>
          </Trackpoint>
          <Trackpoint>
            <Time>2018-12-30T13:08:57.000Z</Time>
            <Position>
              <LatitudeDegrees>40.7615302316844463348388671875</LatitudeDegrees>
              <LongitudeDegrees>-4.0892336703836917877197265625</LongitudeDegrees>
            </Position>
            <AltitudeMeters>1742.199951171875</AltitudeMeters>
            <DistanceMeters>NAN</DistanceMeters>
          </Trackpoint>
          <Trackpoint>
            <Time>2018-12-30T13:08:58.000Z</Time>
            <Position>
              <LatitudeDegrees>40.7615211792290210723876953125</LatitudeDegrees>
              <LongitudeDegrees>-4.08922269009053707122802734375</LongitudeDegrees>
            </Position>
            <AltitudeMeters>1742.199951171875</AltitudeMeters>
            <DistanceMeters>NAN</DistanceMeters>
          </Trackpoint>
          <Trackpoint>
            <Time>2018-12-30T13:08:59.000Z</Time>
            <Position>
              <LatitudeDegrees>40.76150265522301197052001953125</LatitudeDegrees>
              <LongitudeDegrees>-4.08921732567250728607177734375</LongitudeDegrees>
            </Position>
            <AltitudeMeters>1742.199951171875</AltitudeMeters>
            <DistanceMeters>NAN</DistanceMeters>
          </Trackpoint>
          <Trackpoint>
            <Time>2018-12-30T13:09:00.000Z</Time>
            <Position>
              <LatitudeDegrees>40.76148689724504947662353515625</LatitudeDegrees>
              <LongitudeDegrees>-4.08920994959771633148193359375</LongitudeDegrees>
            </Position>
            <AltitudeMeters>1742.199951171875</AltitudeMeters>
            <DistanceMeters>NAN</DistanceMeters>
          </Trackpoint>
          <Trackpoint>
            <Time>2018-12-30T13:09:01.000Z</Time>
            <Position>
              <LatitudeDegrees>40.76147030107676982879638671875</LatitudeDegrees>
              <LongitudeDegrees>-4.0892006456851959228515625</LongitudeDegrees>
            </Position>
            <AltitudeMeters>1742.199951171875</AltitudeMeters>
            <DistanceMeters>NAN</DistanceMeters>
          </Trackpoint>
          <Trackpoint>
            <Time>2018-12-30T13:09:02.000Z</Time>
            <Position>
              <LatitudeDegrees>40.76145521365106105804443359375</LatitudeDegrees>
              <LongitudeDegrees>-4.089188911020755767822265625</LongitudeDegrees>
            </Position>
            <AltitudeMeters>1742.199951171875</AltitudeMeters>
            <DistanceMeters>NAN</DistanceMeters>
          </Trackpoint>
          <Trackpoint>
            <Time>2018-12-30T13:09:03.000Z</Time>
            <Position>
              <LatitudeDegrees>40.76144616119563579559326171875</LatitudeDegrees>
              <LongitudeDegrees>-4.08917759545147418975830078125</LongitudeDegrees>
            </Position>
            <AltitudeMeters>1742.199951171875</AltitudeMeters>
            <DistanceMeters>NAN</DistanceMeters>
          </Trackpoint>
          <Trackpoint>
            <Time>2018-12-30T13:09:04.000Z</Time>
            <Position>
              <LatitudeDegrees>40.761434175074100494384765625</LatitudeDegrees>
              <LongitudeDegrees>-4.0891619212925434112548828125</LongitudeDegrees>
            </Position>
            <AltitudeMeters>1742</AltitudeMeters>
            <DistanceMeters>NAN</DistanceMeters>
          </Trackpoint>
          <Trackpoint>
            <Time>2018-12-30T13:09:05.000Z</Time>
            <Position>
              <LatitudeDegrees>40.76142688281834125518798828125</LatitudeDegrees>
              <LongitudeDegrees>-4.08914959989488124847412109375</LongitudeDegrees>
            </Position>
            <AltitudeMeters>1742</AltitudeMeters>
            <DistanceMeters>NAN</DistanceMeters>
          </Trackpoint>
          <Trackpoint>
            <Time>2018-12-30T13:09:06.000Z</Time>
            <Position>
              <LatitudeDegrees>40.761416070163249969482421875</LatitudeDegrees>
              <LongitudeDegrees>-4.0891424752771854400634765625</LongitudeDegrees>
            </Position>
            <AltitudeMeters>1742</AltitudeMeters>
            <DistanceMeters>NAN</DistanceMeters>
          </Trackpoint>
          <Trackpoint>
            <Time>2018-12-30T13:09:07.000Z</Time>
            <Position>
              <LatitudeDegrees>40.76140609569847583770751953125</LatitudeDegrees>
              <LongitudeDegrees>-4.08913199789822101593017578125</LongitudeDegrees>
            </Position>
            <AltitudeMeters>1741.800048828125</AltitudeMeters>
            <DistanceMeters>NAN</DistanceMeters>
          </Trackpoint>
          <Trackpoint>
            <Time>2018-12-30T13:09:08.000Z</Time>
            <Position>
              <LatitudeDegrees>40.761390589177608489990234375</LatitudeDegrees>
              <LongitudeDegrees>-4.08912562765181064605712890625</LongitudeDegrees>
            </Position>
            <AltitudeMeters>1741.800048828125</AltitudeMeters>
            <DistanceMeters>NAN</DistanceMeters>
          </Trackpoint>
          <Trackpoint>
            <Time>2018-12-30T13:09:09.000Z</Time>
            <Position>
              <LatitudeDegrees>40.761374495923519134521484375</LatitudeDegrees>
              <LongitudeDegrees>-4.0891174972057342529296875</LongitudeDegrees>
            </Position>
            <AltitudeMeters>1741.5999755859375</AltitudeMeters>
            <DistanceMeters>NAN</DistanceMeters>
          </Trackpoint>
          <Trackpoint>
            <Time>2018-12-30T13:09:10.000Z</Time>
            <Position>
              <LatitudeDegrees>40.761357732117176055908203125</LatitudeDegrees>
              <LongitudeDegrees>-4.08911523409187793731689453125</LongitudeDegrees>
            </Position>
            <AltitudeMeters>1741.5999755859375</AltitudeMeters>
            <DistanceMeters>NAN</DistanceMeters>
          </Trackpoint>
          <Trackpoint>
            <Time>2018-12-30T13:09:11.000Z</Time>
            <Position>
              <LatitudeDegrees>40.76134306378662586212158203125</LatitudeDegrees>
              <LongitudeDegrees>-4.08910886384546756744384765625</LongitudeDegrees>
            </Position>
            <AltitudeMeters>1741.5999755859375</AltitudeMeters>
            <DistanceMeters>NAN</DistanceMeters>
          </Trackpoint>
          <Trackpoint>
            <Time>2018-12-30T13:09:12.000Z</Time>
            <Position>
              <LatitudeDegrees>40.7613278925418853759765625</LatitudeDegrees>
              <LongitudeDegrees>-4.089105762541294097900390625</LongitudeDegrees>
            </Position>
            <AltitudeMeters>1741.4000244140625</AltitudeMeters>
            <DistanceMeters>NAN</DistanceMeters>
          </Trackpoint>
          <Trackpoint>
            <Time>2018-12-30T13:09:13.000Z</Time>
            <Position>
              <LatitudeDegrees>40.7613233663141727447509765625</LatitudeDegrees>
              <LongitudeDegrees>-4.089092351496219635009765625</LongitudeDegrees>
            </Position>
            <AltitudeMeters>1741.4000244140625</AltitudeMeters>
            <DistanceMeters>NAN</DistanceMeters>
          </Trackpoint>
          <Trackpoint>
            <Time>2018-12-30T13:09:14.000Z</Time>
            <Position>
              <LatitudeDegrees>40.76131590642035007476806640625</LatitudeDegrees>
              <LongitudeDegrees>-4.08907835371792316436767578125</LongitudeDegrees>
            </Position>
            <AltitudeMeters>1741.4000244140625</AltitudeMeters>
            <DistanceMeters>NAN</DistanceMeters>
          </Trackpoint>
          <Trackpoint>
            <Time>2018-12-30T13:09:15.000Z</Time>
            <Position>
              <LatitudeDegrees>40.7613079436123371124267578125</LatitudeDegrees>
              <LongitudeDegrees>-4.08906930126249790191650390625</LongitudeDegrees>
            </Position>
            <AltitudeMeters>1741.199951171875</AltitudeMeters>
            <DistanceMeters>NAN</DistanceMeters>
          </Trackpoint>
          <Trackpoint>
            <Time>2018-12-30T13:09:16.000Z</Time>
            <Position>
              <LatitudeDegrees>40.76129662804305553436279296875</LatitudeDegrees>
              <LongitudeDegrees>-4.08906511031091213226318359375</LongitudeDegrees>
            </Position>
            <AltitudeMeters>1741.199951171875</AltitudeMeters>
            <DistanceMeters>NAN</DistanceMeters>
          </Trackpoint>
          <Trackpoint>
            <Time>2018-12-30T13:09:17.000Z</Time>
            <Position>
              <LatitudeDegrees>40.76128589920699596405029296875</LatitudeDegrees>
              <LongitudeDegrees>-4.08906058408319950103759765625</LongitudeDegrees>
            </Position>
            <AltitudeMeters>1741</AltitudeMeters>
            <DistanceMeters>NAN</DistanceMeters>
          </Trackpoint>
          <Trackpoint>
            <Time>2018-12-30T13:09:18.000Z</Time>
            <Position>
              <LatitudeDegrees>40.7612801156938076019287109375</LatitudeDegrees>
              <LongitudeDegrees>-4.089051783084869384765625</LongitudeDegrees>
            </Position>
            <AltitudeMeters>1740.800048828125</AltitudeMeters>
            <DistanceMeters>NAN</DistanceMeters>
          </Trackpoint>
          <Trackpoint>
            <Time>2018-12-30T13:09:19.000Z</Time>
            <Position>
              <LatitudeDegrees>40.76126947067677974700927734375</LatitudeDegrees>
              <LongitudeDegrees>-4.08904398791491985321044921875</LongitudeDegrees>
            </Position>
            <AltitudeMeters>1740.800048828125</AltitudeMeters>
            <DistanceMeters>NAN</DistanceMeters>
          </Trackpoint>
          <Trackpoint>
            <Time>2018-12-30T13:09:20.000Z</Time>
            <Position>
              <LatitudeDegrees>40.76125991530716419219970703125</LatitudeDegrees>
              <LongitudeDegrees>-4.08903904259204864501953125</LongitudeDegrees>
            </Position>
            <AltitudeMeters>1740.800048828125</AltitudeMeters>
            <DistanceMeters>NAN</DistanceMeters>
          </Trackpoint>
          <Trackpoint>
            <Time>2018-12-30T13:09:21.000Z</Time>
            <Position>
              <LatitudeDegrees>40.76124767772853374481201171875</LatitudeDegrees>
              <LongitudeDegrees>-4.08903577364981174468994140625</LongitudeDegrees>
            </Position>
            <AltitudeMeters>1740.5999755859375</AltitudeMeters>
            <DistanceMeters>NAN</DistanceMeters>
          </Trackpoint>
          <Trackpoint>
            <Time>2018-12-30T13:09:22.000Z</Time>
            <Position>
              <LatitudeDegrees>40.76123812235891819000244140625</LatitudeDegrees>
              <LongitudeDegrees>-4.0890291519463062286376953125</LongitudeDegrees>
            </Position>
            <AltitudeMeters>1740.5999755859375</AltitudeMeters>
            <DistanceMeters>NAN</DistanceMeters>
          </Trackpoint>
          <Trackpoint>
            <Time>2018-12-30T13:09:23.000Z</Time>
            <Position>
              <LatitudeDegrees>40.7612264715135097503662109375</LatitudeDegrees>
              <LongitudeDegrees>-4.08902135677635669708251953125</LongitudeDegrees>
            </Position>
            <AltitudeMeters>1740.5999755859375</AltitudeMeters>
            <DistanceMeters>NAN</DistanceMeters>
          </Trackpoint>
          <Trackpoint>
            <Time>2018-12-30T13:09:24.000Z</Time>
            <Position>
              <LatitudeDegrees>40.7612184248864650726318359375</LatitudeDegrees>
              <LongitudeDegrees>-4.08900761045515537261962890625</LongitudeDegrees>
            </Position>
            <AltitudeMeters>1740.800048828125</AltitudeMeters>
            <DistanceMeters>NAN</DistanceMeters>
          </Trackpoint>
          <Trackpoint>
            <Time>2018-12-30T13:09:25.000Z</Time>
            <Position>
              <LatitudeDegrees>40.761210210621356964111328125</LatitudeDegrees>
              <LongitudeDegrees>-4.08898296765983104705810546875</LongitudeDegrees>
            </Position>
            <AltitudeMeters>1740.5999755859375</AltitudeMeters>
            <DistanceMeters>NAN</DistanceMeters>
          </Trackpoint>
          <Trackpoint>
            <Time>2018-12-30T13:09:26.000Z</Time>
            <Position>
              <LatitudeDegrees>40.7611996494233608245849609375</LatitudeDegrees>
              <LongitudeDegrees>-4.088971652090549468994140625</LongitudeDegrees>
            </Position>
            <AltitudeMeters>1740.5999755859375</AltitudeMeters>
            <DistanceMeters>NAN</DistanceMeters>
          </Trackpoint>
          <Trackpoint>
            <Time>2018-12-30T13:09:27.000Z</Time>
            <Position>
              <LatitudeDegrees>40.761192776262760162353515625</LatitudeDegrees>
              <LongitudeDegrees>-4.0889592468738555908203125</LongitudeDegrees>
            </Position>
            <AltitudeMeters>1740.5999755859375</AltitudeMeters>
            <DistanceMeters>NAN</DistanceMeters>
          </Trackpoint>
          <Trackpoint>
            <Time>2018-12-30T13:09:28.000Z</Time>
            <Position>
              <LatitudeDegrees>40.7611832208931446075439453125</LatitudeDegrees>
              <LongitudeDegrees>-4.08895195461809635162353515625</LongitudeDegrees>
            </Position>
            <AltitudeMeters>1740.5999755859375</AltitudeMeters>
            <DistanceMeters>NAN</DistanceMeters>
          </Trackpoint>
          <Trackpoint>
            <Time>2018-12-30T13:09:29.000Z</Time>
            <Position>
              <LatitudeDegrees>40.7611734978854656219482421875</LatitudeDegrees>
              <LongitudeDegrees>-4.0889453329145908355712890625</LongitudeDegrees>
            </Position>
            <AltitudeMeters>1740.5999755859375</AltitudeMeters>
            <DistanceMeters>NAN</DistanceMeters>
          </Trackpoint>
          <Trackpoint>
            <Time>2018-12-30T13:09:30.000Z</Time>
            <Position>
              <LatitudeDegrees>40.76115950010716915130615234375</LatitudeDegrees>
              <LongitudeDegrees>-4.08893644809722900390625</LongitudeDegrees>
            </Position>
            <AltitudeMeters>1740.5999755859375</AltitudeMeters>
            <DistanceMeters>NAN</DistanceMeters>
          </Trackpoint>
          <Trackpoint>
            <Time>2018-12-30T13:09:31.000Z</Time>
            <Position>
              <LatitudeDegrees>40.7611392997205257415771484375</LatitudeDegrees>
              <LongitudeDegrees>-4.08892429433763027191162109375</LongitudeDegrees>
            </Position>
            <AltitudeMeters>1740.5999755859375</AltitudeMeters>
            <DistanceMeters>NAN</DistanceMeters>
          </Trackpoint>
          <Trackpoint>
            <Time>2018-12-30T13:09:32.000Z</Time>
            <Position>
              <LatitudeDegrees>40.761124379932880401611328125</LatitudeDegrees>
              <LongitudeDegrees>-4.08890384249389171600341796875</LongitudeDegrees>
            </Position>
            <AltitudeMeters>1740.5999755859375</AltitudeMeters>
            <DistanceMeters>NAN</DistanceMeters>
          </Trackpoint>
          <Trackpoint>
            <Time>2018-12-30T13:09:33.000Z</Time>
            <Position>
              <LatitudeDegrees>40.76111105270683765411376953125</LatitudeDegrees>
              <LongitudeDegrees>-4.0888940356671810150146484375</LongitudeDegrees>
            </Position>
            <AltitudeMeters>1740.5999755859375</AltitudeMeters>
            <DistanceMeters>NAN</DistanceMeters>
          </Trackpoint>
          <Trackpoint>
            <Time>2018-12-30T13:09:34.000Z</Time>
            <Position>
              <LatitudeDegrees>40.76109395362436771392822265625</LatitudeDegrees>
              <LongitudeDegrees>-4.088885486125946044921875</LongitudeDegrees>
            </Position>
            <AltitudeMeters>1740.5999755859375</AltitudeMeters>
            <DistanceMeters>NAN</DistanceMeters>
          </Trackpoint>
          <Trackpoint>
            <Time>2018-12-30T13:09:35.000Z</Time>
            <Position>
              <LatitudeDegrees>40.7610757648944854736328125</LatitudeDegrees>
              <LongitudeDegrees>-4.0888734161853790283203125</LongitudeDegrees>
            </Position>
            <AltitudeMeters>1740.5999755859375</AltitudeMeters>
            <DistanceMeters>NAN</DistanceMeters>
          </Trackpoint>
          <Trackpoint>
            <Time>2018-12-30T13:09:36.000Z</Time>
            <Position>
              <LatitudeDegrees>40.76105229556560516357421875</LatitudeDegrees>
              <LongitudeDegrees>-4.088865704834461212158203125</LongitudeDegrees>
            </Position>
            <AltitudeMeters>1740.5999755859375</AltitudeMeters>
            <DistanceMeters>NAN</DistanceMeters>
          </Trackpoint>
          <Trackpoint>
            <Time>2018-12-30T13:09:37.000Z</Time>
            <Position>
              <LatitudeDegrees>40.76104198582470417022705078125</LatitudeDegrees>
              <LongitudeDegrees>-4.08885397017002105712890625</LongitudeDegrees>
            </Position>
            <AltitudeMeters>1740.5999755859375</AltitudeMeters>
            <DistanceMeters>NAN</DistanceMeters>
          </Trackpoint>
          <Trackpoint>
            <Time>2018-12-30T13:09:38.000Z</Time>
            <Position>
              <LatitudeDegrees>40.76103326864540576934814453125</LatitudeDegrees>
              <LongitudeDegrees>-4.0888439118862152099609375</LongitudeDegrees>
            </Position>
            <AltitudeMeters>1740.5999755859375</AltitudeMeters>
            <DistanceMeters>NAN</DistanceMeters>
          </Trackpoint>
          <Trackpoint>
            <Time>2018-12-30T13:09:39.000Z</Time>
            <Position>
              <LatitudeDegrees>40.761018097400665283203125</LatitudeDegrees>
              <LongitudeDegrees>-4.0888440795242786407470703125</LongitudeDegrees>
            </Position>
            <AltitudeMeters>1740.5999755859375</AltitudeMeters>
            <DistanceMeters>NAN</DistanceMeters>
          </Trackpoint>
          <Trackpoint>
            <Time>2018-12-30T13:09:40.000Z</Time>
            <Position>
              <LatitudeDegrees>40.7610087096691131591796875</LatitudeDegrees>
              <LongitudeDegrees>-4.0888407267630100250244140625</LongitudeDegrees>
            </Position>
            <AltitudeMeters>1740.5999755859375</AltitudeMeters>
            <DistanceMeters>NAN</DistanceMeters>
          </Trackpoint>
          <Trackpoint>
            <Time>2018-12-30T13:09:41.000Z</Time>
            <Position>
              <LatitudeDegrees>40.7609984837472438812255859375</LatitudeDegrees>
              <LongitudeDegrees>-4.08884014002978801727294921875</LongitudeDegrees>
            </Position>
            <AltitudeMeters>1740.800048828125</AltitudeMeters>
            <DistanceMeters>NAN</DistanceMeters>
          </Trackpoint>
          <Trackpoint>
            <Time>2018-12-30T13:09:42.000Z</Time>
            <Position>
              <LatitudeDegrees>40.7609864138066768646240234375</LatitudeDegrees>
              <LongitudeDegrees>-4.0888377092778682708740234375</LongitudeDegrees>
            </Position>
            <AltitudeMeters>1740.800048828125</AltitudeMeters>
            <DistanceMeters>NAN</DistanceMeters>
          </Trackpoint>
          <Trackpoint>
            <Time>2018-12-30T13:09:43.000Z</Time>
            <Position>
              <LatitudeDegrees>40.76096914708614349365234375</LatitudeDegrees>
              <LongitudeDegrees>-4.0888345241546630859375</LongitudeDegrees>
            </Position>
            <AltitudeMeters>1741</AltitudeMeters>
            <DistanceMeters>NAN</DistanceMeters>
          </Trackpoint>
          <Trackpoint>
            <Time>2018-12-30T13:09:44.000Z</Time>
            <Position>
              <LatitudeDegrees>40.760957412421703338623046875</LatitudeDegrees>
              <LongitudeDegrees>-4.08882807008922100067138671875</LongitudeDegrees>
            </Position>
            <AltitudeMeters>1741.199951171875</AltitudeMeters>
            <DistanceMeters>NAN</DistanceMeters>
          </Trackpoint>
          <Trackpoint>
            <Time>2018-12-30T13:09:45.000Z</Time>
            <Position>
              <LatitudeDegrees>40.76094827614724636077880859375</LatitudeDegrees>
              <LongitudeDegrees>-4.08882287330925464630126953125</LongitudeDegrees>
            </Position>
            <AltitudeMeters>1741.199951171875</AltitudeMeters>
            <DistanceMeters>NAN</DistanceMeters>
          </Trackpoint>
          <Trackpoint>
            <Time>2018-12-30T13:09:46.000Z</Time>
            <Position>
              <LatitudeDegrees>40.76093788258731365203857421875</LatitudeDegrees>
              <LongitudeDegrees>-4.08881918527185916900634765625</LongitudeDegrees>
            </Position>
            <AltitudeMeters>1741.199951171875</AltitudeMeters>
            <DistanceMeters>NAN</DistanceMeters>
          </Trackpoint>
          <Trackpoint>
            <Time>2018-12-30T13:09:47.000Z</Time>
            <Position>
              <LatitudeDegrees>40.76092430390417575836181640625</LatitudeDegrees>
              <LongitudeDegrees>-4.0888144075870513916015625</LongitudeDegrees>
            </Position>
            <AltitudeMeters>1741.199951171875</AltitudeMeters>
            <DistanceMeters>NAN</DistanceMeters>
          </Trackpoint>
          <Trackpoint>
            <Time>2018-12-30T13:09:48.000Z</Time>
            <Position>
              <LatitudeDegrees>40.7609094679355621337890625</LatitudeDegrees>
              <LongitudeDegrees>-4.08881214447319507598876953125</LongitudeDegrees>
            </Position>
            <AltitudeMeters>1741.199951171875</AltitudeMeters>
            <DistanceMeters>NAN</DistanceMeters>
          </Trackpoint>
          <Trackpoint>
            <Time>2018-12-30T13:09:49.000Z</Time>
            <Position>
              <LatitudeDegrees>40.76089899055659770965576171875</LatitudeDegrees>
              <LongitudeDegrees>-4.0888108871877193450927734375</LongitudeDegrees>
            </Position>
            <AltitudeMeters>1741.199951171875</AltitudeMeters>
            <DistanceMeters>NAN</DistanceMeters>
          </Trackpoint>
          <Trackpoint>
            <Time>2018-12-30T13:09:50.000Z</Time>
            <Position>
              <LatitudeDegrees>40.760887674987316131591796875</LatitudeDegrees>
              <LongitudeDegrees>-4.08880812115967273712158203125</LongitudeDegrees>
            </Position>
            <AltitudeMeters>1741</AltitudeMeters>
            <DistanceMeters>NAN</DistanceMeters>
          </Trackpoint>
          <Trackpoint>
            <Time>2018-12-30T13:09:51.000Z</Time>
            <Position>
              <LatitudeDegrees>40.7608777843415737152099609375</LatitudeDegrees>
              <LongitudeDegrees>-4.08880309201776981353759765625</LongitudeDegrees>
            </Position>
            <AltitudeMeters>1741</AltitudeMeters>
            <DistanceMeters>NAN</DistanceMeters>
          </Trackpoint>
          <Trackpoint>
            <Time>2018-12-30T13:09:52.000Z</Time>
            <Position>
              <LatitudeDegrees>40.7608734257519245147705078125</LatitudeDegrees>
              <LongitudeDegrees>-4.08880007453262805938720703125</LongitudeDegrees>
            </Position>
            <AltitudeMeters>1741</AltitudeMeters>
            <DistanceMeters>NAN</DistanceMeters>
          </Trackpoint>
          <Trackpoint>
            <Time>2018-12-30T13:09:53.000Z</Time>
            <Position>
              <LatitudeDegrees>40.76086630113422870635986328125</LatitudeDegrees>
              <LongitudeDegrees>-4.08880175091326236724853515625</LongitudeDegrees>
            </Position>
            <AltitudeMeters>1741</AltitudeMeters>
            <DistanceMeters>NAN</DistanceMeters>
          </Trackpoint>
          <Trackpoint>
            <Time>2018-12-30T13:09:54.000Z</Time>
            <Position>
              <LatitudeDegrees>40.76085372827947139739990234375</LatitudeDegrees>
              <LongitudeDegrees>-4.0888085402548313140869140625</LongitudeDegrees>
            </Position>
            <AltitudeMeters>1741</AltitudeMeters>
            <DistanceMeters>NAN</DistanceMeters>
          </Trackpoint>
          <Trackpoint>
            <Time>2018-12-30T13:09:55.000Z</Time>
            <Position>
              <LatitudeDegrees>40.76084668748080730438232421875</LatitudeDegrees>
              <LongitudeDegrees>-4.0888088755309581756591796875</LongitudeDegrees>
            </Position>
            <AltitudeMeters>1741</AltitudeMeters>
            <DistanceMeters>NAN</DistanceMeters>
          </Trackpoint>
          <Trackpoint>
            <Time>2018-12-30T13:09:56.000Z</Time>
            <Position>
              <LatitudeDegrees>40.7608343660831451416015625</LatitudeDegrees>
              <LongitudeDegrees>-4.0888082049787044525146484375</LongitudeDegrees>
            </Position>
            <AltitudeMeters>1741.199951171875</AltitudeMeters>
            <DistanceMeters>NAN</DistanceMeters>
          </Trackpoint>
          <Trackpoint>
            <Time>2018-12-30T13:09:57.000Z</Time>
            <Position>
              <LatitudeDegrees>40.7608261518180370330810546875</LatitudeDegrees>
              <LongitudeDegrees>-4.0887994877994060516357421875</LongitudeDegrees>
            </Position>
            <AltitudeMeters>1741.4000244140625</AltitudeMeters>
            <DistanceMeters>NAN</DistanceMeters>
          </Trackpoint>
          <Trackpoint>
            <Time>2018-12-30T13:09:58.000Z</Time>
            <Position>
              <LatitudeDegrees>40.7608113996684551239013671875</LatitudeDegrees>
              <LongitudeDegrees>-4.088800661265850067138671875</LongitudeDegrees>
            </Position>
            <AltitudeMeters>1741.5999755859375</AltitudeMeters>
            <DistanceMeters>NAN</DistanceMeters>
          </Trackpoint>
          <Trackpoint>
            <Time>2018-12-30T13:09:59.000Z</Time>
            <Position>
              <LatitudeDegrees>40.76079974882304668426513671875</LatitudeDegrees>
              <LongitudeDegrees>-4.08880527131259441375732421875</LongitudeDegrees>
            </Position>
            <AltitudeMeters>1741.800048828125</AltitudeMeters>
            <DistanceMeters>NAN</DistanceMeters>
          </Trackpoint>
          <Trackpoint>
            <Time>2018-12-30T13:10:00.000Z</Time>
            <Position>
              <LatitudeDegrees>40.76078382320702075958251953125</LatitudeDegrees>
              <LongitudeDegrees>-4.0888031758368015289306640625</LongitudeDegrees>
            </Position>
            <AltitudeMeters>1741.800048828125</AltitudeMeters>
            <DistanceMeters>NAN</DistanceMeters>
          </Trackpoint>
          <Trackpoint>
            <Time>2018-12-30T13:10:01.000Z</Time>
            <Position>
              <LatitudeDegrees>40.760765634477138519287109375</LatitudeDegrees>
              <LongitudeDegrees>-4.0888061933219432830810546875</LongitudeDegrees>
            </Position>
            <AltitudeMeters>1741.800048828125</AltitudeMeters>
            <DistanceMeters>NAN</DistanceMeters>
          </Trackpoint>
          <Trackpoint>
            <Time>2018-12-30T13:10:02.000Z</Time>
            <Position>
              <LatitudeDegrees>40.76075457036495208740234375</LatitudeDegrees>
              <LongitudeDegrees>-4.08879873342812061309814453125</LongitudeDegrees>
            </Position>
            <AltitudeMeters>1741.800048828125</AltitudeMeters>
            <DistanceMeters>NAN</DistanceMeters>
          </Trackpoint>
          <Trackpoint>
            <Time>2018-12-30T13:10:03.000Z</Time>
            <Position>
              <LatitudeDegrees>40.76074711047112941741943359375</LatitudeDegrees>
              <LongitudeDegrees>-4.08879068680107593536376953125</LongitudeDegrees>
            </Position>
            <AltitudeMeters>1741.800048828125</AltitudeMeters>
            <DistanceMeters>NAN</DistanceMeters>
          </Trackpoint>
          <Trackpoint>
            <Time>2018-12-30T13:10:04.000Z</Time>
            <Position>
              <LatitudeDegrees>40.7607332803308963775634765625</LatitudeDegrees>
              <LongitudeDegrees>-4.08878532238304615020751953125</LongitudeDegrees>
            </Position>
            <AltitudeMeters>1741.800048828125</AltitudeMeters>
            <DistanceMeters>NAN</DistanceMeters>
          </Trackpoint>
          <Trackpoint>
            <Time>2018-12-30T13:10:05.000Z</Time>
            <Position>
              <LatitudeDegrees>40.760719366371631622314453125</LatitudeDegrees>
              <LongitudeDegrees>-4.0887817181646823883056640625</LongitudeDegrees>
            </Position>
            <AltitudeMeters>1741.800048828125</AltitudeMeters>
            <DistanceMeters>NAN</DistanceMeters>
          </Trackpoint>
          <Trackpoint>
            <Time>2018-12-30T13:10:06.000Z</Time>
            <Position>
              <LatitudeDegrees>40.76068977825343608856201171875</LatitudeDegrees>
              <LongitudeDegrees>-4.088795967400074005126953125</LongitudeDegrees>
            </Position>
            <AltitudeMeters>1741.800048828125</AltitudeMeters>
            <DistanceMeters>NAN</DistanceMeters>
          </Trackpoint>
          <Trackpoint>
            <Time>2018-12-30T13:10:07.000Z</Time>
            <Position>
              <LatitudeDegrees>40.7606762833893299102783203125</LatitudeDegrees>
              <LongitudeDegrees>-4.088798649609088897705078125</LongitudeDegrees>
            </Position>
            <AltitudeMeters>1741.800048828125</AltitudeMeters>
            <DistanceMeters>NAN</DistanceMeters>
          </Trackpoint>
          <Trackpoint>
            <Time>2018-12-30T13:10:08.000Z</Time>
            <Position>
              <LatitudeDegrees>40.76065809465944766998291015625</LatitudeDegrees>
              <LongitudeDegrees>-4.0888071991503238677978515625</LongitudeDegrees>
            </Position>
            <AltitudeMeters>1741.800048828125</AltitudeMeters>
            <DistanceMeters>NAN</DistanceMeters>
          </Trackpoint>
          <Trackpoint>
            <Time>2018-12-30T13:10:09.000Z</Time>
            <Position>
              <LatitudeDegrees>40.76064736582338809967041015625</LatitudeDegrees>
              <LongitudeDegrees>-4.08880778588354587554931640625</LongitudeDegrees>
            </Position>
            <AltitudeMeters>1741.800048828125</AltitudeMeters>
            <DistanceMeters>NAN</DistanceMeters>
          </Trackpoint>
          <Trackpoint>
            <Time>2018-12-30T13:10:10.000Z</Time>
            <Position>
              <LatitudeDegrees>40.7606296800076961517333984375</LatitudeDegrees>
              <LongitudeDegrees>-4.0888142399489879608154296875</LongitudeDegrees>
            </Position>
            <AltitudeMeters>1741.800048828125</AltitudeMeters>
            <DistanceMeters>NAN</DistanceMeters>
          </Trackpoint>
          <Trackpoint>
            <Time>2018-12-30T13:10:11.000Z</Time>
            <Position>
              <LatitudeDegrees>40.76061584986746311187744140625</LatitudeDegrees>
              <LongitudeDegrees>-4.08881918527185916900634765625</LongitudeDegrees>
            </Position>
            <AltitudeMeters>1741.800048828125</AltitudeMeters>
            <DistanceMeters>NAN</DistanceMeters>
          </Trackpoint>
          <Trackpoint>
            <Time>2018-12-30T13:10:12.000Z</Time>
            <Position>
              <LatitudeDegrees>40.7606098987162113189697265625</LatitudeDegrees>
              <LongitudeDegrees>-4.08881801180541515350341796875</LongitudeDegrees>
            </Position>
            <AltitudeMeters>1741.800048828125</AltitudeMeters>
            <DistanceMeters>NAN</DistanceMeters>
          </Trackpoint>
          <Trackpoint>
            <Time>2018-12-30T13:10:13.000Z</Time>
            <Position>
              <LatitudeDegrees>40.76060931198298931121826171875</LatitudeDegrees>
              <LongitudeDegrees>-4.08881901763379573822021484375</LongitudeDegrees>
            </Position>
            <AltitudeMeters>1741.800048828125</AltitudeMeters>
            <DistanceMeters>NAN</DistanceMeters>
          </Trackpoint>
          <Trackpoint>
            <Time>2018-12-30T13:10:14.000Z</Time>
            <Position>
              <LatitudeDegrees>40.76060394756495952606201171875</LatitudeDegrees>
              <LongitudeDegrees>-4.08881507813930511474609375</LongitudeDegrees>
            </Position>
            <AltitudeMeters>1741.800048828125</AltitudeMeters>
            <DistanceMeters>NAN</DistanceMeters>
          </Trackpoint>
          <Trackpoint>
            <Time>2018-12-30T13:10:15.000Z</Time>
            <Position>
              <LatitudeDegrees>40.76059036888182163238525390625</LatitudeDegrees>
              <LongitudeDegrees>-4.08880560658872127532958984375</LongitudeDegrees>
            </Position>
            <AltitudeMeters>1741.5999755859375</AltitudeMeters>
            <DistanceMeters>NAN</DistanceMeters>
          </Trackpoint>
          <Trackpoint>
            <Time>2018-12-30T13:10:16.000Z</Time>
            <Position>
              <LatitudeDegrees>40.760583914816379547119140625</LatitudeDegrees>
              <LongitudeDegrees>-4.08881465904414653778076171875</LongitudeDegrees>
            </Position>
            <AltitudeMeters>1741.5999755859375</AltitudeMeters>
            <DistanceMeters>NAN</DistanceMeters>
          </Trackpoint>
          <Trackpoint>
            <Time>2018-12-30T13:10:17.000Z</Time>
            <Position>
              <LatitudeDegrees>40.76056941412389278411865234375</LatitudeDegrees>
              <LongitudeDegrees>-4.0888224542140960693359375</LongitudeDegrees>
            </Position>
            <AltitudeMeters>1741.4000244140625</AltitudeMeters>
            <DistanceMeters>NAN</DistanceMeters>
          </Trackpoint>
          <Trackpoint>
            <Time>2018-12-30T13:10:18.000Z</Time>
            <Position>
              <LatitudeDegrees>40.76055550016462802886962890625</LatitudeDegrees>
              <LongitudeDegrees>-4.08882488496601581573486328125</LongitudeDegrees>
            </Position>
            <AltitudeMeters>1741.4000244140625</AltitudeMeters>
            <DistanceMeters>NAN</DistanceMeters>
          </Trackpoint>
          <Trackpoint>
            <Time>2018-12-30T13:10:19.000Z</Time>
            <Position>
              <LatitudeDegrees>40.7605398260056972503662109375</LatitudeDegrees>
              <LongitudeDegrees>-4.08881851471960544586181640625</LongitudeDegrees>
            </Position>
            <AltitudeMeters>1741.4000244140625</AltitudeMeters>
            <DistanceMeters>NAN</DistanceMeters>
          </Trackpoint>
          <Trackpoint>
            <Time>2018-12-30T13:10:20.000Z</Time>
            <Position>
              <LatitudeDegrees>40.760530270636081695556640625</LatitudeDegrees>
              <LongitudeDegrees>-4.08881641924381256103515625</LongitudeDegrees>
            </Position>
            <AltitudeMeters>1741.199951171875</AltitudeMeters>
            <DistanceMeters>NAN</DistanceMeters>
          </Trackpoint>
          <Trackpoint>
            <Time>2018-12-30T13:10:21.000Z</Time>
            <Position>
              <LatitudeDegrees>40.76052029617130756378173828125</LatitudeDegrees>
              <LongitudeDegrees>-4.08881113864481449127197265625</LongitudeDegrees>
            </Position>
            <AltitudeMeters>1741</AltitudeMeters>
            <DistanceMeters>NAN</DistanceMeters>
          </Trackpoint>
          <Trackpoint>
            <Time>2018-12-30T13:10:22.000Z</Time>
            <Position>
              <LatitudeDegrees>40.76049464754760265350341796875</LatitudeDegrees>
              <LongitudeDegrees>-4.0888256393373012542724609375</LongitudeDegrees>
            </Position>
            <AltitudeMeters>1740.800048828125</AltitudeMeters>
            <DistanceMeters>NAN</DistanceMeters>
          </Trackpoint>
          <Trackpoint>
            <Time>2018-12-30T13:10:23.000Z</Time>
            <Position>
              <LatitudeDegrees>40.76048291288316249847412109375</LatitudeDegrees>
              <LongitudeDegrees>-4.08882589079439640045166015625</LongitudeDegrees>
            </Position>
            <AltitudeMeters>1740.4000244140625</AltitudeMeters>
            <DistanceMeters>NAN</DistanceMeters>
          </Trackpoint>
          <Trackpoint>
            <Time>2018-12-30T13:10:24.000Z</Time>
            <Position>
              <LatitudeDegrees>40.76045759953558444976806640625</LatitudeDegrees>
              <LongitudeDegrees>-4.08883611671626567840576171875</LongitudeDegrees>
            </Position>
            <AltitudeMeters>1740.199951171875</AltitudeMeters>
            <DistanceMeters>NAN</DistanceMeters>
          </Trackpoint>
          <Trackpoint>
            <Time>2018-12-30T13:10:25.000Z</Time>
            <Position>
              <LatitudeDegrees>40.7604335434734821319580078125</LatitudeDegrees>
              <LongitudeDegrees>-4.0888511203229427337646484375</LongitudeDegrees>
            </Position>
            <AltitudeMeters>1740</AltitudeMeters>
            <DistanceMeters>NAN</DistanceMeters>
          </Trackpoint>
          <Trackpoint>
            <Time>2018-12-30T13:10:26.000Z</Time>
            <Position>
              <LatitudeDegrees>40.76042055152356624603271484375</LatitudeDegrees>
              <LongitudeDegrees>-4.08885472454130649566650390625</LongitudeDegrees>
            </Position>
            <AltitudeMeters>1739.800048828125</AltitudeMeters>
            <DistanceMeters>NAN</DistanceMeters>
          </Trackpoint>
          <Trackpoint>
            <Time>2018-12-30T13:10:27.000Z</Time>
            <Position>
              <LatitudeDegrees>40.76039339415729045867919921875</LatitudeDegrees>
              <LongitudeDegrees>-4.08886595629155635833740234375</LongitudeDegrees>
            </Position>
            <AltitudeMeters>1739.800048828125</AltitudeMeters>
            <DistanceMeters>NAN</DistanceMeters>
          </Trackpoint>
          <Trackpoint>
            <Time>2018-12-30T13:10:28.000Z</Time>
            <Position>
              <LatitudeDegrees>40.76037797145545482635498046875</LatitudeDegrees>
              <LongitudeDegrees>-4.08887249417603015899658203125</LongitudeDegrees>
            </Position>
            <AltitudeMeters>1739.5999755859375</AltitudeMeters>
            <DistanceMeters>NAN</DistanceMeters>
          </Trackpoint>
          <Trackpoint>
            <Time>2018-12-30T13:10:29.000Z</Time>
            <Position>
              <LatitudeDegrees>40.76037595979869365692138671875</LatitudeDegrees>
              <LongitudeDegrees>-4.088870398700237274169921875</LongitudeDegrees>
            </Position>
            <AltitudeMeters>1739.5999755859375</AltitudeMeters>
            <DistanceMeters>NAN</DistanceMeters>
          </Trackpoint>
          <Trackpoint>
            <Time>2018-12-30T13:10:30.000Z</Time>
            <Position>
              <LatitudeDegrees>40.7603622972965240478515625</LatitudeDegrees>
              <LongitudeDegrees>-4.08886662684381008148193359375</LongitudeDegrees>
            </Position>
            <AltitudeMeters>1739.4000244140625</AltitudeMeters>
            <DistanceMeters>NAN</DistanceMeters>
          </Trackpoint>
          <Trackpoint>
            <Time>2018-12-30T13:10:31.000Z</Time>
            <Position>
              <LatitudeDegrees>40.760351903736591339111328125</LatitudeDegrees>
              <LongitudeDegrees>-4.08887266181409358978271484375</LongitudeDegrees>
            </Position>
            <AltitudeMeters>1739.199951171875</AltitudeMeters>
            <DistanceMeters>NAN</DistanceMeters>
          </Trackpoint>
          <Trackpoint>
            <Time>2018-12-30T13:10:32.000Z</Time>
            <Position>
              <LatitudeDegrees>40.7603483833372592926025390625</LatitudeDegrees>
              <LongitudeDegrees>-4.08887383528053760528564453125</LongitudeDegrees>
            </Position>
            <AltitudeMeters>1739.199951171875</AltitudeMeters>
            <DistanceMeters>NAN</DistanceMeters>
          </Trackpoint>
          <Trackpoint>
            <Time>2018-12-30T13:10:33.000Z</Time>
            <Position>
              <LatitudeDegrees>40.76034075580537319183349609375</LatitudeDegrees>
              <LongitudeDegrees>-4.08887115307152271270751953125</LongitudeDegrees>
            </Position>
            <AltitudeMeters>1739.199951171875</AltitudeMeters>
            <DistanceMeters>NAN</DistanceMeters>
          </Trackpoint>
          <Trackpoint>
            <Time>2018-12-30T13:10:34.000Z</Time>
            <Position>
              <LatitudeDegrees>40.76033212244510650634765625</LatitudeDegrees>
              <LongitudeDegrees>-4.088864363729953765869140625</LongitudeDegrees>
            </Position>
            <AltitudeMeters>1739</AltitudeMeters>
            <DistanceMeters>NAN</DistanceMeters>
          </Trackpoint>
          <Trackpoint>
            <Time>2018-12-30T13:10:35.000Z</Time>
            <Position>
              <LatitudeDegrees>40.76031879521906375885009765625</LatitudeDegrees>
              <LongitudeDegrees>-4.0888595022261142730712890625</LongitudeDegrees>
            </Position>
            <AltitudeMeters>1739</AltitudeMeters>
            <DistanceMeters>NAN</DistanceMeters>
          </Trackpoint>
          <Trackpoint>
            <Time>2018-12-30T13:10:36.000Z</Time>
            <Position>
              <LatitudeDegrees>40.76030471362173557281494140625</LatitudeDegrees>
              <LongitudeDegrees>-4.0888548083603382110595703125</LongitudeDegrees>
            </Position>
            <AltitudeMeters>1738.800048828125</AltitudeMeters>
            <DistanceMeters>NAN</DistanceMeters>
          </Trackpoint>
          <Trackpoint>
            <Time>2018-12-30T13:10:37.000Z</Time>
            <Position>
              <LatitudeDegrees>40.76029700227081775665283203125</LatitudeDegrees>
              <LongitudeDegrees>-4.0888491086661815643310546875</LongitudeDegrees>
            </Position>
            <AltitudeMeters>1738.5999755859375</AltitudeMeters>
            <DistanceMeters>NAN</DistanceMeters>
          </Trackpoint>
          <Trackpoint>
            <Time>2018-12-30T13:10:38.000Z</Time>
            <Position>
              <LatitudeDegrees>40.7602903805673122406005859375</LatitudeDegrees>
              <LongitudeDegrees>-4.0888434089720249176025390625</LongitudeDegrees>
            </Position>
            <AltitudeMeters>1738.4000244140625</AltitudeMeters>
            <DistanceMeters>NAN</DistanceMeters>
          </Trackpoint>
          <Trackpoint>
            <Time>2018-12-30T13:10:39.000Z</Time>
            <Position>
              <LatitudeDegrees>40.760282836854457855224609375</LatitudeDegrees>
              <LongitudeDegrees>-4.08884164877235889434814453125</LongitudeDegrees>
            </Position>
            <AltitudeMeters>1738.199951171875</AltitudeMeters>
            <DistanceMeters>NAN</DistanceMeters>
          </Trackpoint>
          <Trackpoint>
            <Time>2018-12-30T13:10:40.000Z</Time>
            <Position>
              <LatitudeDegrees>40.7602737843990325927734375</LatitudeDegrees>
              <LongitudeDegrees>-4.08884164877235889434814453125</LongitudeDegrees>
            </Position>
            <AltitudeMeters>1738.199951171875</AltitudeMeters>
            <DistanceMeters>NAN</DistanceMeters>
          </Trackpoint>
          <Trackpoint>
            <Time>2018-12-30T13:10:41.000Z</Time>
            <Position>
              <LatitudeDegrees>40.7602672465145587921142578125</LatitudeDegrees>
              <LongitudeDegrees>-4.0888367034494876861572265625</LongitudeDegrees>
            </Position>
            <AltitudeMeters>1738.199951171875</AltitudeMeters>
            <DistanceMeters>NAN</DistanceMeters>
          </Trackpoint>
          <Trackpoint>
            <Time>2018-12-30T13:10:42.000Z</Time>
            <Position>
              <LatitudeDegrees>40.7602568529546260833740234375</LatitudeDegrees>
              <LongitudeDegrees>-4.08884047530591487884521484375</LongitudeDegrees>
            </Position>
            <AltitudeMeters>1738.199951171875</AltitudeMeters>
            <DistanceMeters>NAN</DistanceMeters>
          </Trackpoint>
          <Trackpoint>
            <Time>2018-12-30T13:10:43.000Z</Time>
            <Position>
              <LatitudeDegrees>40.76023397035896778106689453125</LatitudeDegrees>
              <LongitudeDegrees>-4.088853299617767333984375</LongitudeDegrees>
            </Position>
            <AltitudeMeters>1738.199951171875</AltitudeMeters>
            <DistanceMeters>NAN</DistanceMeters>
          </Trackpoint>
          <Trackpoint>
            <Time>2018-12-30T13:10:44.000Z</Time>
            <Position>
              <LatitudeDegrees>40.76022206805646419525146484375</LatitudeDegrees>
              <LongitudeDegrees>-4.0888538025319576263427734375</LongitudeDegrees>
            </Position>
            <AltitudeMeters>1738.199951171875</AltitudeMeters>
            <DistanceMeters>NAN</DistanceMeters>
          </Trackpoint>
          <Trackpoint>
            <Time>2018-12-30T13:10:45.000Z</Time>
            <Position>
              <LatitudeDegrees>40.76021569781005382537841796875</LatitudeDegrees>
              <LongitudeDegrees>-4.08885355107486248016357421875</LongitudeDegrees>
            </Position>
            <AltitudeMeters>1738</AltitudeMeters>
            <DistanceMeters>NAN</DistanceMeters>
          </Trackpoint>
          <Trackpoint>
            <Time>2018-12-30T13:10:46.000Z</Time>
            <Position>
              <LatitudeDegrees>40.7602107524871826171875</LatitudeDegrees>
              <LongitudeDegrees>-4.0888460911810398101806640625</LongitudeDegrees>
            </Position>
            <AltitudeMeters>1738</AltitudeMeters>
            <DistanceMeters>NAN</DistanceMeters>
          </Trackpoint>
          <Trackpoint>
            <Time>2018-12-30T13:10:47.000Z</Time>
            <Position>
              <LatitudeDegrees>40.76020228676497936248779296875</LatitudeDegrees>
              <LongitudeDegrees>-4.0888457559049129486083984375</LongitudeDegrees>
            </Position>
            <AltitudeMeters>1738</AltitudeMeters>
            <DistanceMeters>NAN</DistanceMeters>
          </Trackpoint>
          <Trackpoint>
            <Time>2018-12-30T13:10:48.000Z</Time>
            <Position>
              <LatitudeDegrees>40.76019893400371074676513671875</LatitudeDegrees>
              <LongitudeDegrees>-4.08883477561175823211669921875</LongitudeDegrees>
            </Position>
            <AltitudeMeters>1737.800048828125</AltitudeMeters>
            <DistanceMeters>NAN</DistanceMeters>
          </Trackpoint>
          <Trackpoint>
            <Time>2018-12-30T13:10:49.000Z</Time>
            <Position>
              <LatitudeDegrees>40.760184265673160552978515625</LatitudeDegrees>
              <LongitudeDegrees>-4.08884148113429546356201171875</LongitudeDegrees>
            </Position>
            <AltitudeMeters>1737.800048828125</AltitudeMeters>
            <DistanceMeters>NAN</DistanceMeters>
          </Trackpoint>
          <Trackpoint>
            <Time>2018-12-30T13:10:50.000Z</Time>
            <Position>
              <LatitudeDegrees>40.7601743750274181365966796875</LatitudeDegrees>
              <LongitudeDegrees>-4.088841564953327178955078125</LongitudeDegrees>
            </Position>
            <AltitudeMeters>1737.800048828125</AltitudeMeters>
            <DistanceMeters>NAN</DistanceMeters>
          </Trackpoint>
          <Trackpoint>
            <Time>2018-12-30T13:10:51.000Z</Time>
            <Position>
              <LatitudeDegrees>40.76015777885913848876953125</LatitudeDegrees>
              <LongitudeDegrees>-4.08884785138070583343505859375</LongitudeDegrees>
            </Position>
            <AltitudeMeters>1737.800048828125</AltitudeMeters>
            <DistanceMeters>NAN</DistanceMeters>
          </Trackpoint>
          <Trackpoint>
            <Time>2018-12-30T13:10:52.000Z</Time>
            <Position>
              <LatitudeDegrees>40.76013925485312938690185546875</LatitudeDegrees>
              <LongitudeDegrees>-4.08884768374264240264892578125</LongitudeDegrees>
            </Position>
            <AltitudeMeters>1737.800048828125</AltitudeMeters>
            <DistanceMeters>NAN</DistanceMeters>
          </Trackpoint>
          <Trackpoint>
            <Time>2018-12-30T13:10:53.000Z</Time>
            <Position>
              <LatitudeDegrees>40.7601247541606426239013671875</LatitudeDegrees>
              <LongitudeDegrees>-4.08883921802043914794921875</LongitudeDegrees>
            </Position>
            <AltitudeMeters>1737.800048828125</AltitudeMeters>
            <DistanceMeters>NAN</DistanceMeters>
          </Trackpoint>
          <Trackpoint>
            <Time>2018-12-30T13:10:54.000Z</Time>
            <Position>
              <LatitudeDegrees>40.76010170392692089080810546875</LatitudeDegrees>
              <LongitudeDegrees>-4.08883930183947086334228515625</LongitudeDegrees>
            </Position>
            <AltitudeMeters>1737.5999755859375</AltitudeMeters>
            <DistanceMeters>NAN</DistanceMeters>
          </Trackpoint>
          <Trackpoint>
            <Time>2018-12-30T13:10:55.000Z</Time>
            <Position>
              <LatitudeDegrees>40.7600838504731655120849609375</LatitudeDegrees>
              <LongitudeDegrees>-4.0888356976211071014404296875</LongitudeDegrees>
            </Position>
            <AltitudeMeters>1737.5999755859375</AltitudeMeters>
            <DistanceMeters>NAN</DistanceMeters>
          </Trackpoint>
          <Trackpoint>
            <Time>2018-12-30T13:10:56.000Z</Time>
            <Position>
              <LatitudeDegrees>40.76007169671356678009033203125</LatitudeDegrees>
              <LongitudeDegrees>-4.088829495012760162353515625</LongitudeDegrees>
            </Position>
            <AltitudeMeters>1737.800048828125</AltitudeMeters>
            <DistanceMeters>NAN</DistanceMeters>
          </Trackpoint>
          <Trackpoint>
            <Time>2018-12-30T13:10:57.000Z</Time>
            <Position>
              <LatitudeDegrees>40.76005610637366771697998046875</LatitudeDegrees>
              <LongitudeDegrees>-4.0888286568224430084228515625</LongitudeDegrees>
            </Position>
            <AltitudeMeters>1738</AltitudeMeters>
            <DistanceMeters>NAN</DistanceMeters>
          </Trackpoint>
          <Trackpoint>
            <Time>2018-12-30T13:10:58.000Z</Time>
            <Position>
              <LatitudeDegrees>40.76003900729119777679443359375</LatitudeDegrees>
              <LongitudeDegrees>-4.08883192576467990875244140625</LongitudeDegrees>
            </Position>
            <AltitudeMeters>1738</AltitudeMeters>
            <DistanceMeters>NAN</DistanceMeters>
          </Trackpoint>
          <Trackpoint>
            <Time>2018-12-30T13:10:59.000Z</Time>
            <Position>
              <LatitudeDegrees>40.7600268535315990447998046875</LatitudeDegrees>
              <LongitudeDegrees>-4.08882983028888702392578125</LongitudeDegrees>
            </Position>
            <AltitudeMeters>1738.199951171875</AltitudeMeters>
            <DistanceMeters>NAN</DistanceMeters>
          </Trackpoint>
          <Trackpoint>
            <Time>2018-12-30T13:11:00.000Z</Time>
            <Position>
              <LatitudeDegrees>40.7600028812885284423828125</LatitudeDegrees>
              <LongitudeDegrees>-4.0888343565165996551513671875</LongitudeDegrees>
            </Position>
            <AltitudeMeters>1738.199951171875</AltitudeMeters>
            <DistanceMeters>NAN</DistanceMeters>
          </Trackpoint>
          <Trackpoint>
            <Time>2018-12-30T13:11:01.000Z</Time>
            <Position>
              <LatitudeDegrees>40.75999776832759380340576171875</LatitudeDegrees>
              <LongitudeDegrees>-4.08883293159306049346923828125</LongitudeDegrees>
            </Position>
            <AltitudeMeters>1738.199951171875</AltitudeMeters>
            <DistanceMeters>NAN</DistanceMeters>
          </Trackpoint>
          <Trackpoint>
            <Time>2018-12-30T13:11:02.000Z</Time>
            <Position>
              <LatitudeDegrees>40.75998234562575817108154296875</LatitudeDegrees>
              <LongitudeDegrees>-4.088837206363677978515625</LongitudeDegrees>
            </Position>
            <AltitudeMeters>1738.199951171875</AltitudeMeters>
            <DistanceMeters>NAN</DistanceMeters>
          </Trackpoint>
          <Trackpoint>
            <Time>2018-12-30T13:11:03.000Z</Time>
            <Position>
              <LatitudeDegrees>40.7599653303623199462890625</LatitudeDegrees>
              <LongitudeDegrees>-4.0888360328972339630126953125</LongitudeDegrees>
            </Position>
            <AltitudeMeters>1738.199951171875</AltitudeMeters>
            <DistanceMeters>NAN</DistanceMeters>
          </Trackpoint>
          <Trackpoint>
            <Time>2018-12-30T13:11:04.000Z</Time>
            <Position>
              <LatitudeDegrees>40.7599492371082305908203125</LatitudeDegrees>
              <LongitudeDegrees>-4.08883410505950450897216796875</LongitudeDegrees>
            </Position>
            <AltitudeMeters>1738.199951171875</AltitudeMeters>
            <DistanceMeters>NAN</DistanceMeters>
          </Trackpoint>
          <Trackpoint>
            <Time>2018-12-30T13:11:05.000Z</Time>
            <Position>
              <LatitudeDegrees>40.75993649661540985107421875</LatitudeDegrees>
              <LongitudeDegrees>-4.08882941119372844696044921875</LongitudeDegrees>
            </Position>
            <AltitudeMeters>1738.199951171875</AltitudeMeters>
            <DistanceMeters>NAN</DistanceMeters>
          </Trackpoint>
          <Trackpoint>
            <Time>2018-12-30T13:11:06.000Z</Time>
            <Position>
              <LatitudeDegrees>40.75992266647517681121826171875</LatitudeDegrees>
              <LongitudeDegrees>-4.08882446587085723876953125</LongitudeDegrees>
            </Position>
            <AltitudeMeters>1738.4000244140625</AltitudeMeters>
            <DistanceMeters>NAN</DistanceMeters>
          </Trackpoint>
          <Trackpoint>
            <Time>2018-12-30T13:11:07.000Z</Time>
            <Position>
              <LatitudeDegrees>40.7599061541259288787841796875</LatitudeDegrees>
              <LongitudeDegrees>-4.0888185985386371612548828125</LongitudeDegrees>
            </Position>
            <AltitudeMeters>1738.5999755859375</AltitudeMeters>
            <DistanceMeters>NAN</DistanceMeters>
          </Trackpoint>
          <Trackpoint>
            <Time>2018-12-30T13:11:08.000Z</Time>
            <Position>
              <LatitudeDegrees>40.759891234338283538818359375</LatitudeDegrees>
              <LongitudeDegrees>-4.0888132341206073760986328125</LongitudeDegrees>
            </Position>
            <AltitudeMeters>1738.5999755859375</AltitudeMeters>
            <DistanceMeters>NAN</DistanceMeters>
          </Trackpoint>
          <Trackpoint>
            <Time>2018-12-30T13:11:09.000Z</Time>
            <Position>
              <LatitudeDegrees>40.75987807475030422210693359375</LatitudeDegrees>
              <LongitudeDegrees>-4.0888098813593387603759765625</LongitudeDegrees>
            </Position>
            <AltitudeMeters>1738.5999755859375</AltitudeMeters>
            <DistanceMeters>NAN</DistanceMeters>
          </Trackpoint>
          <Trackpoint>
            <Time>2018-12-30T13:11:10.000Z</Time>
            <Position>
              <LatitudeDegrees>40.759859718382358551025390625</LatitudeDegrees>
              <LongitudeDegrees>-4.08881180919706821441650390625</LongitudeDegrees>
            </Position>
            <AltitudeMeters>1738.5999755859375</AltitudeMeters>
            <DistanceMeters>NAN</DistanceMeters>
          </Trackpoint>
          <Trackpoint>
            <Time>2018-12-30T13:11:11.000Z</Time>
            <Position>
              <LatitudeDegrees>40.75984488241374492645263671875</LatitudeDegrees>
              <LongitudeDegrees>-4.08880594186484813690185546875</LongitudeDegrees>
            </Position>
            <AltitudeMeters>1738.5999755859375</AltitudeMeters>
            <DistanceMeters>NAN</DistanceMeters>
          </Trackpoint>
          <Trackpoint>
            <Time>2018-12-30T13:11:12.000Z</Time>
            <Position>
              <LatitudeDegrees>40.7598365843296051025390625</LatitudeDegrees>
              <LongitudeDegrees>-4.0887964703142642974853515625</LongitudeDegrees>
            </Position>
            <AltitudeMeters>1738.4000244140625</AltitudeMeters>
            <DistanceMeters>NAN</DistanceMeters>
          </Trackpoint>
          <Trackpoint>
            <Time>2018-12-30T13:11:13.000Z</Time>
            <Position>
              <LatitudeDegrees>40.7598253525793552398681640625</LatitudeDegrees>
              <LongitudeDegrees>-4.08878750167787075042724609375</LongitudeDegrees>
            </Position>
            <AltitudeMeters>1738.199951171875</AltitudeMeters>
            <DistanceMeters>NAN</DistanceMeters>
          </Trackpoint>
          <Trackpoint>
            <Time>2018-12-30T13:11:14.000Z</Time>
            <Position>
              <LatitudeDegrees>40.75981169007718563079833984375</LatitudeDegrees>
              <LongitudeDegrees>-4.0887867473065853118896484375</LongitudeDegrees>
            </Position>
            <AltitudeMeters>1738.199951171875</AltitudeMeters>
            <DistanceMeters>NAN</DistanceMeters>
          </Trackpoint>
          <Trackpoint>
            <Time>2018-12-30T13:11:15.000Z</Time>
            <Position>
              <LatitudeDegrees>40.759798027575016021728515625</LatitudeDegrees>
              <LongitudeDegrees>-4.08878515474498271942138671875</LongitudeDegrees>
            </Position>
            <AltitudeMeters>1738.199951171875</AltitudeMeters>
            <DistanceMeters>NAN</DistanceMeters>
          </Trackpoint>
          <Trackpoint>
            <Time>2018-12-30T13:11:16.000Z</Time>
            <Position>
              <LatitudeDegrees>40.75978067703545093536376953125</LatitudeDegrees>
              <LongitudeDegrees>-4.08877409063279628753662109375</LongitudeDegrees>
            </Position>
            <AltitudeMeters>1738</AltitudeMeters>
            <DistanceMeters>NAN</DistanceMeters>
          </Trackpoint>
          <Trackpoint>
            <Time>2018-12-30T13:11:17.000Z</Time>
            <Position>
              <LatitudeDegrees>40.75977028347551822662353515625</LatitudeDegrees>
              <LongitudeDegrees>-4.08876755274832248687744140625</LongitudeDegrees>
            </Position>
            <AltitudeMeters>1737.800048828125</AltitudeMeters>
            <DistanceMeters>NAN</DistanceMeters>
          </Trackpoint>
          <Trackpoint>
            <Time>2018-12-30T13:11:18.000Z</Time>
            <Position>
              <LatitudeDegrees>40.7597623206675052642822265625</LatitudeDegrees>
              <LongitudeDegrees>-4.0887535549700260162353515625</LongitudeDegrees>
            </Position>
            <AltitudeMeters>1737.5999755859375</AltitudeMeters>
            <DistanceMeters>NAN</DistanceMeters>
          </Trackpoint>
          <Trackpoint>
            <Time>2018-12-30T13:11:19.000Z</Time>
            <Position>
              <LatitudeDegrees>40.75974337756633758544921875</LatitudeDegrees>
              <LongitudeDegrees>-4.088755063712596893310546875</LongitudeDegrees>
            </Position>
            <AltitudeMeters>1737.5999755859375</AltitudeMeters>
            <DistanceMeters>NAN</DistanceMeters>
          </Trackpoint>
          <Trackpoint>
            <Time>2018-12-30T13:11:20.000Z</Time>
            <Position>
              <LatitudeDegrees>40.75972996652126312255859375</LatitudeDegrees>
              <LongitudeDegrees>-4.08875246532261371612548828125</LongitudeDegrees>
            </Position>
            <AltitudeMeters>1737.5999755859375</AltitudeMeters>
            <DistanceMeters>NAN</DistanceMeters>
          </Trackpoint>
          <Trackpoint>
            <Time>2018-12-30T13:11:21.000Z</Time>
            <Position>
              <LatitudeDegrees>40.75971781276166439056396484375</LatitudeDegrees>
              <LongitudeDegrees>-4.08875095658004283905029296875</LongitudeDegrees>
            </Position>
            <AltitudeMeters>1737.5999755859375</AltitudeMeters>
            <DistanceMeters>NAN</DistanceMeters>
          </Trackpoint>
          <Trackpoint>
            <Time>2018-12-30T13:11:22.000Z</Time>
            <Position>
              <LatitudeDegrees>40.7597073353826999664306640625</LatitudeDegrees>
              <LongitudeDegrees>-4.08875246532261371612548828125</LongitudeDegrees>
            </Position>
            <AltitudeMeters>1737.5999755859375</AltitudeMeters>
            <DistanceMeters>NAN</DistanceMeters>
          </Trackpoint>
          <Trackpoint>
            <Time>2018-12-30T13:11:23.000Z</Time>
            <Position>
              <LatitudeDegrees>40.75969375669956207275390625</LatitudeDegrees>
              <LongitudeDegrees>-4.08875766210258007049560546875</LongitudeDegrees>
            </Position>
            <AltitudeMeters>1737.5999755859375</AltitudeMeters>
            <DistanceMeters>NAN</DistanceMeters>
          </Trackpoint>
          <Trackpoint>
            <Time>2018-12-30T13:11:24.000Z</Time>
            <Position>
              <LatitudeDegrees>40.7596825249493122100830078125</LatitudeDegrees>
              <LongitudeDegrees>-4.08875296823680400848388671875</LongitudeDegrees>
            </Position>
            <AltitudeMeters>1737.5999755859375</AltitudeMeters>
            <DistanceMeters>NAN</DistanceMeters>
          </Trackpoint>
          <Trackpoint>
            <Time>2018-12-30T13:11:25.000Z</Time>
            <Position>
              <LatitudeDegrees>40.75966869480907917022705078125</LatitudeDegrees>
              <LongitudeDegrees>-4.08875045366585254669189453125</LongitudeDegrees>
            </Position>
            <AltitudeMeters>1737.4000244140625</AltitudeMeters>
            <DistanceMeters>NAN</DistanceMeters>
          </Trackpoint>
          <Trackpoint>
            <Time>2018-12-30T13:11:26.000Z</Time>
            <Position>
              <LatitudeDegrees>40.75965679250657558441162109375</LatitudeDegrees>
              <LongitudeDegrees>-4.08874793909490108489990234375</LongitudeDegrees>
            </Position>
            <AltitudeMeters>1737.4000244140625</AltitudeMeters>
            <DistanceMeters>NAN</DistanceMeters>
          </Trackpoint>
          <Trackpoint>
            <Time>2018-12-30T13:11:27.000Z</Time>
            <Position>
              <LatitudeDegrees>40.75964547693729400634765625</LatitudeDegrees>
              <LongitudeDegrees>-4.08874441869556903839111328125</LongitudeDegrees>
            </Position>
            <AltitudeMeters>1737.199951171875</AltitudeMeters>
            <DistanceMeters>NAN</DistanceMeters>
          </Trackpoint>
          <Trackpoint>
            <Time>2018-12-30T13:11:28.000Z</Time>
            <Position>
              <LatitudeDegrees>40.7596365921199321746826171875</LatitudeDegrees>
              <LongitudeDegrees>-4.0887351147830486297607421875</LongitudeDegrees>
            </Position>
            <AltitudeMeters>1737.199951171875</AltitudeMeters>
            <DistanceMeters>NAN</DistanceMeters>
          </Trackpoint>
          <Trackpoint>
            <Time>2018-12-30T13:11:29.000Z</Time>
            <Position>
              <LatitudeDegrees>40.75962728820741176605224609375</LatitudeDegrees>
              <LongitudeDegrees>-4.08873167820274829864501953125</LongitudeDegrees>
            </Position>
            <AltitudeMeters>1737.199951171875</AltitudeMeters>
            <DistanceMeters>NAN</DistanceMeters>
          </Trackpoint>
          <Trackpoint>
            <Time>2018-12-30T13:11:30.000Z</Time>
            <Position>
              <LatitudeDegrees>40.75960314832627773284912109375</LatitudeDegrees>
              <LongitudeDegrees>-4.08873327076435089111328125</LongitudeDegrees>
            </Position>
            <AltitudeMeters>1737.199951171875</AltitudeMeters>
            <DistanceMeters>NAN</DistanceMeters>
          </Trackpoint>
          <Trackpoint>
            <Time>2018-12-30T13:11:31.000Z</Time>
            <Position>
              <LatitudeDegrees>40.75958873145282268524169921875</LatitudeDegrees>
              <LongitudeDegrees>-4.08872849307954311370849609375</LongitudeDegrees>
            </Position>
            <AltitudeMeters>1737</AltitudeMeters>
            <DistanceMeters>NAN</DistanceMeters>
          </Trackpoint>
          <Trackpoint>
            <Time>2018-12-30T13:11:32.000Z</Time>
            <Position>
              <LatitudeDegrees>40.7595772482454776763916015625</LatitudeDegrees>
              <LongitudeDegrees>-4.08872145228087902069091796875</LongitudeDegrees>
            </Position>
            <AltitudeMeters>1737</AltitudeMeters>
            <DistanceMeters>NAN</DistanceMeters>
          </Trackpoint>
          <Trackpoint>
            <Time>2018-12-30T13:11:33.000Z</Time>
            <Position>
              <LatitudeDegrees>40.7595651783049106597900390625</LatitudeDegrees>
              <LongitudeDegrees>-4.08871809951961040496826171875</LongitudeDegrees>
            </Position>
            <AltitudeMeters>1737</AltitudeMeters>
            <DistanceMeters>NAN</DistanceMeters>
          </Trackpoint>
          <Trackpoint>
            <Time>2018-12-30T13:11:34.000Z</Time>
            <Position>
              <LatitudeDegrees>40.7595415413379669189453125</LatitudeDegrees>
              <LongitudeDegrees>-4.088727571070194244384765625</LongitudeDegrees>
            </Position>
            <AltitudeMeters>1736.800048828125</AltitudeMeters>
            <DistanceMeters>NAN</DistanceMeters>
          </Trackpoint>
          <Trackpoint>
            <Time>2018-12-30T13:11:35.000Z</Time>
            <Position>
              <LatitudeDegrees>40.7595303095877170562744140625</LatitudeDegrees>
              <LongitudeDegrees>-4.08872664906084537506103515625</LongitudeDegrees>
            </Position>
            <AltitudeMeters>1736.800048828125</AltitudeMeters>
            <DistanceMeters>NAN</DistanceMeters>
          </Trackpoint>
          <Trackpoint>
            <Time>2018-12-30T13:11:36.000Z</Time>
            <Position>
              <LatitudeDegrees>40.75951614417135715484619140625</LatitudeDegrees>
              <LongitudeDegrees>-4.0887243859469890594482421875</LongitudeDegrees>
            </Position>
            <AltitudeMeters>1736.800048828125</AltitudeMeters>
            <DistanceMeters>NAN</DistanceMeters>
          </Trackpoint>
          <Trackpoint>
            <Time>2018-12-30T13:11:37.000Z</Time>
            <Position>
              <LatitudeDegrees>40.759498290717601776123046875</LatitudeDegrees>
              <LongitudeDegrees>-4.08872446976602077484130859375</LongitudeDegrees>
            </Position>
            <AltitudeMeters>1736.5999755859375</AltitudeMeters>
            <DistanceMeters>NAN</DistanceMeters>
          </Trackpoint>
          <Trackpoint>
            <Time>2018-12-30T13:11:38.000Z</Time>
            <Position>
              <LatitudeDegrees>40.75948228128254413604736328125</LatitudeDegrees>
              <LongitudeDegrees>-4.088726900517940521240234375</LongitudeDegrees>
            </Position>
            <AltitudeMeters>1736.5999755859375</AltitudeMeters>
            <DistanceMeters>NAN</DistanceMeters>
          </Trackpoint>
          <Trackpoint>
            <Time>2018-12-30T13:11:39.000Z</Time>
            <Position>
              <LatitudeDegrees>40.75947306118905544281005859375</LatitudeDegrees>
              <LongitudeDegrees>-4.0887247212231159210205078125</LongitudeDegrees>
            </Position>
            <AltitudeMeters>1736.800048828125</AltitudeMeters>
            <DistanceMeters>NAN</DistanceMeters>
          </Trackpoint>
          <Trackpoint>
            <Time>2018-12-30T13:11:40.000Z</Time>
            <Position>
              <LatitudeDegrees>40.75946602039039134979248046875</LatitudeDegrees>
              <LongitudeDegrees>-4.08872254192829132080078125</LongitudeDegrees>
            </Position>
            <AltitudeMeters>1736.800048828125</AltitudeMeters>
            <DistanceMeters>NAN</DistanceMeters>
          </Trackpoint>
          <Trackpoint>
            <Time>2018-12-30T13:11:41.000Z</Time>
            <Position>
              <LatitudeDegrees>40.75945344753563404083251953125</LatitudeDegrees>
              <LongitudeDegrees>-4.08872388303279876708984375</LongitudeDegrees>
            </Position>
            <AltitudeMeters>1736.5999755859375</AltitudeMeters>
            <DistanceMeters>NAN</DistanceMeters>
          </Trackpoint>
          <Trackpoint>
            <Time>2018-12-30T13:11:42.000Z</Time>
            <Position>
              <LatitudeDegrees>40.7594471611082553863525390625</LatitudeDegrees>
              <LongitudeDegrees>-4.08872329629957675933837890625</LongitudeDegrees>
            </Position>
            <AltitudeMeters>1736.5999755859375</AltitudeMeters>
            <DistanceMeters>NAN</DistanceMeters>
          </Trackpoint>
          <Trackpoint>
            <Time>2018-12-30T13:11:43.000Z</Time>
            <Position>
              <LatitudeDegrees>40.75943869538605213165283203125</LatitudeDegrees>
              <LongitudeDegrees>-4.08872522413730621337890625</LongitudeDegrees>
            </Position>
            <AltitudeMeters>1736.5999755859375</AltitudeMeters>
            <DistanceMeters>NAN</DistanceMeters>
          </Trackpoint>
          <Trackpoint>
            <Time>2018-12-30T13:11:44.000Z</Time>
            <Position>
              <LatitudeDegrees>40.75942042283713817596435546875</LatitudeDegrees>
              <LongitudeDegrees>-4.08873285166919231414794921875</LongitudeDegrees>
            </Position>
            <AltitudeMeters>1736.4000244140625</AltitudeMeters>
            <DistanceMeters>NAN</DistanceMeters>
          </Trackpoint>
          <Trackpoint>
            <Time>2018-12-30T13:11:45.000Z</Time>
            <Position>
              <LatitudeDegrees>40.759399719536304473876953125</LatitudeDegrees>
              <LongitudeDegrees>-4.0887366235256195068359375</LongitudeDegrees>
            </Position>
            <AltitudeMeters>1736.4000244140625</AltitudeMeters>
            <DistanceMeters>NAN</DistanceMeters>
          </Trackpoint>
          <Trackpoint>
            <Time>2018-12-30T13:11:46.000Z</Time>
            <Position>
              <LatitudeDegrees>40.759383626282215118408203125</LatitudeDegrees>
              <LongitudeDegrees>-4.0887317620217800140380859375</LongitudeDegrees>
            </Position>
            <AltitudeMeters>1736.4000244140625</AltitudeMeters>
            <DistanceMeters>NAN</DistanceMeters>
          </Trackpoint>
          <Trackpoint>
            <Time>2018-12-30T13:11:47.000Z</Time>
            <Position>
              <LatitudeDegrees>40.7593663595616817474365234375</LatitudeDegrees>
              <LongitudeDegrees>-4.08873084001243114471435546875</LongitudeDegrees>
            </Position>
            <AltitudeMeters>1736.199951171875</AltitudeMeters>
            <DistanceMeters>NAN</DistanceMeters>
          </Trackpoint>
          <Trackpoint>
            <Time>2018-12-30T13:11:48.000Z</Time>
            <Position>
              <LatitudeDegrees>40.75934481807053089141845703125</LatitudeDegrees>
              <LongitudeDegrees>-4.08873595297336578369140625</LongitudeDegrees>
            </Position>
            <AltitudeMeters>1736.4000244140625</AltitudeMeters>
            <DistanceMeters>NAN</DistanceMeters>
          </Trackpoint>
          <Trackpoint>
            <Time>2018-12-30T13:11:49.000Z</Time>
            <Position>
              <LatitudeDegrees>40.75933434069156646728515625</LatitudeDegrees>
              <LongitudeDegrees>-4.088737629354000091552734375</LongitudeDegrees>
            </Position>
            <AltitudeMeters>1736.4000244140625</AltitudeMeters>
            <DistanceMeters>NAN</DistanceMeters>
          </Trackpoint>
          <Trackpoint>
            <Time>2018-12-30T13:11:50.000Z</Time>
            <Position>
              <LatitudeDegrees>40.75932168401777744293212890625</LatitudeDegrees>
              <LongitudeDegrees>-4.0887240506708621978759765625</LongitudeDegrees>
            </Position>
            <AltitudeMeters>1736.5999755859375</AltitudeMeters>
            <DistanceMeters>NAN</DistanceMeters>
          </Trackpoint>
          <Trackpoint>
            <Time>2018-12-30T13:11:51.000Z</Time>
            <Position>
              <LatitudeDegrees>40.759315229952335357666015625</LatitudeDegrees>
              <LongitudeDegrees>-4.08872312866151332855224609375</LongitudeDegrees>
            </Position>
            <AltitudeMeters>1736.5999755859375</AltitudeMeters>
            <DistanceMeters>NAN</DistanceMeters>
          </Trackpoint>
          <Trackpoint>
            <Time>2018-12-30T13:11:52.000Z</Time>
            <Position>
              <LatitudeDegrees>40.759306512773036956787109375</LatitudeDegrees>
              <LongitudeDegrees>-4.08871340565383434295654296875</LongitudeDegrees>
            </Position>
            <AltitudeMeters>1736.800048828125</AltitudeMeters>
            <DistanceMeters>NAN</DistanceMeters>
          </Trackpoint>
          <Trackpoint>
            <Time>2018-12-30T13:11:53.000Z</Time>
            <Position>
              <LatitudeDegrees>40.759293772280216217041015625</LatitudeDegrees>
              <LongitudeDegrees>-4.0887113101780414581298828125</LongitudeDegrees>
            </Position>
            <AltitudeMeters>1736.800048828125</AltitudeMeters>
            <DistanceMeters>NAN</DistanceMeters>
          </Trackpoint>
          <Trackpoint>
            <Time>2018-12-30T13:11:54.000Z</Time>
            <Position>
              <LatitudeDegrees>40.75928027741611003875732421875</LatitudeDegrees>
              <LongitudeDegrees>-4.0887103043496608734130859375</LongitudeDegrees>
            </Position>
            <AltitudeMeters>1736.800048828125</AltitudeMeters>
            <DistanceMeters>NAN</DistanceMeters>
          </Trackpoint>
          <Trackpoint>
            <Time>2018-12-30T13:11:55.000Z</Time>
            <Position>
              <LatitudeDegrees>40.75926904566586017608642578125</LatitudeDegrees>
              <LongitudeDegrees>-4.08870468847453594207763671875</LongitudeDegrees>
            </Position>
            <AltitudeMeters>1736.800048828125</AltitudeMeters>
            <DistanceMeters>NAN</DistanceMeters>
          </Trackpoint>
          <Trackpoint>
            <Time>2018-12-30T13:11:56.000Z</Time>
            <Position>
              <LatitudeDegrees>40.759260244667530059814453125</LatitudeDegrees>
              <LongitudeDegrees>-4.0886982344090938568115234375</LongitudeDegrees>
            </Position>
            <AltitudeMeters>1736.800048828125</AltitudeMeters>
            <DistanceMeters>NAN</DistanceMeters>
          </Trackpoint>
          <Trackpoint>
            <Time>2018-12-30T13:11:57.000Z</Time>
            <Position>
              <LatitudeDegrees>40.7592537067830562591552734375</LatitudeDegrees>
              <LongitudeDegrees>-4.0886883437633514404296875</LongitudeDegrees>
            </Position>
            <AltitudeMeters>1736.800048828125</AltitudeMeters>
            <DistanceMeters>NAN</DistanceMeters>
          </Trackpoint>
          <Trackpoint>
            <Time>2018-12-30T13:11:58.000Z</Time>
            <Position>
              <LatitudeDegrees>40.75924507342278957366943359375</LatitudeDegrees>
              <LongitudeDegrees>-4.08867669291794300079345703125</LongitudeDegrees>
            </Position>
            <AltitudeMeters>1736.5999755859375</AltitudeMeters>
            <DistanceMeters>NAN</DistanceMeters>
          </Trackpoint>
          <Trackpoint>
            <Time>2018-12-30T13:11:59.000Z</Time>
            <Position>
              <LatitudeDegrees>40.75923099182546138763427734375</LatitudeDegrees>
              <LongitudeDegrees>-4.08867300488054752349853515625</LongitudeDegrees>
            </Position>
            <AltitudeMeters>1736.800048828125</AltitudeMeters>
            <DistanceMeters>NAN</DistanceMeters>
          </Trackpoint>
          <Trackpoint>
            <Time>2018-12-30T13:12:00.000Z</Time>
            <Position>
              <LatitudeDegrees>40.7592164911329746246337890625</LatitudeDegrees>
              <LongitudeDegrees>-4.0886642038822174072265625</LongitudeDegrees>
            </Position>
            <AltitudeMeters>1736.800048828125</AltitudeMeters>
            <DistanceMeters>NAN</DistanceMeters>
          </Trackpoint>
          <Trackpoint>
            <Time>2018-12-30T13:12:01.000Z</Time>
            <Position>
              <LatitudeDegrees>40.7592050917446613311767578125</LatitudeDegrees>
              <LongitudeDegrees>-4.0886626951396465301513671875</LongitudeDegrees>
            </Position>
            <AltitudeMeters>1736.800048828125</AltitudeMeters>
            <DistanceMeters>NAN</DistanceMeters>
          </Trackpoint>
          <Trackpoint>
            <Time>2018-12-30T13:12:02.000Z</Time>
            <Position>
              <LatitudeDegrees>40.75919109396636486053466796875</LatitudeDegrees>
              <LongitudeDegrees>-4.088663198053836822509765625</LongitudeDegrees>
            </Position>
            <AltitudeMeters>1736.800048828125</AltitudeMeters>
            <DistanceMeters>NAN</DistanceMeters>
          </Trackpoint>
          <Trackpoint>
            <Time>2018-12-30T13:12:03.000Z</Time>
            <Position>
              <LatitudeDegrees>40.75914918445050716400146484375</LatitudeDegrees>
              <LongitudeDegrees>-4.0886925347149372100830078125</LongitudeDegrees>
            </Position>
            <AltitudeMeters>1737</AltitudeMeters>
            <DistanceMeters>NAN</DistanceMeters>
          </Trackpoint>
          <Trackpoint>
            <Time>2018-12-30T13:12:04.000Z</Time>
            <Position>
              <LatitudeDegrees>40.75913141481578350067138671875</LatitudeDegrees>
              <LongitudeDegrees>-4.08869571983814239501953125</LongitudeDegrees>
            </Position>
            <AltitudeMeters>1736.800048828125</AltitudeMeters>
            <DistanceMeters>NAN</DistanceMeters>
          </Trackpoint>
          <Trackpoint>
            <Time>2018-12-30T13:12:05.000Z</Time>
            <Position>
              <LatitudeDegrees>40.7591155730187892913818359375</LatitudeDegrees>
              <LongitudeDegrees>-4.08869345672428607940673828125</LongitudeDegrees>
            </Position>
            <AltitudeMeters>1736.800048828125</AltitudeMeters>
            <DistanceMeters>NAN</DistanceMeters>
          </Trackpoint>
          <Trackpoint>
            <Time>2018-12-30T13:12:06.000Z</Time>
            <Position>
              <LatitudeDegrees>40.7590994797646999359130859375</LatitudeDegrees>
              <LongitudeDegrees>-4.0886990725994110107421875</LongitudeDegrees>
            </Position>
            <AltitudeMeters>1736.5999755859375</AltitudeMeters>
            <DistanceMeters>NAN</DistanceMeters>
          </Trackpoint>
          <Trackpoint>
            <Time>2018-12-30T13:12:07.000Z</Time>
            <Position>
              <LatitudeDegrees>40.75909302569925785064697265625</LatitudeDegrees>
              <LongitudeDegrees>-4.0887005813419818878173828125</LongitudeDegrees>
            </Position>
            <AltitudeMeters>1736.4000244140625</AltitudeMeters>
            <DistanceMeters>NAN</DistanceMeters>
          </Trackpoint>
          <Trackpoint>
            <Time>2018-12-30T13:12:08.000Z</Time>
            <Position>
              <LatitudeDegrees>40.7590867392718791961669921875</LatitudeDegrees>
              <LongitudeDegrees>-4.08870150335133075714111328125</LongitudeDegrees>
            </Position>
            <AltitudeMeters>1736.199951171875</AltitudeMeters>
            <DistanceMeters>NAN</DistanceMeters>
          </Trackpoint>
          <Trackpoint>
            <Time>2018-12-30T13:12:09.000Z</Time>
            <Position>
              <LatitudeDegrees>40.75907475315034389495849609375</LatitudeDegrees>
              <LongitudeDegrees>-4.088683314621448516845703125</LongitudeDegrees>
            </Position>
            <AltitudeMeters>1736</AltitudeMeters>
            <DistanceMeters>NAN</DistanceMeters>
          </Trackpoint>
          <Trackpoint>
            <Time>2018-12-30T13:12:10.000Z</Time>
            <Position>
              <LatitudeDegrees>40.7590612582862377166748046875</LatitudeDegrees>
              <LongitudeDegrees>-4.08868222497403621673583984375</LongitudeDegrees>
            </Position>
            <AltitudeMeters>1736</AltitudeMeters>
            <DistanceMeters>NAN</DistanceMeters>
          </Trackpoint>
          <Trackpoint>
            <Time>2018-12-30T13:12:11.000Z</Time>
            <Position>
              <LatitudeDegrees>40.759051032364368438720703125</LatitudeDegrees>
              <LongitudeDegrees>-4.0886690653860569000244140625</LongitudeDegrees>
            </Position>
            <AltitudeMeters>1736</AltitudeMeters>
            <DistanceMeters>NAN</DistanceMeters>
          </Trackpoint>
          <Trackpoint>
            <Time>2018-12-30T13:12:12.000Z</Time>
            <Position>
              <LatitudeDegrees>40.7590300776064395904541015625</LatitudeDegrees>
              <LongitudeDegrees>-4.0886576659977436065673828125</LongitudeDegrees>
            </Position>
            <AltitudeMeters>1736</AltitudeMeters>
            <DistanceMeters>NAN</DistanceMeters>
          </Trackpoint>
          <Trackpoint>
            <Time>2018-12-30T13:12:13.000Z</Time>
            <Position>
              <LatitudeDegrees>40.75900711119174957275390625</LatitudeDegrees>
              <LongitudeDegrees>-4.0886657126247882843017578125</LongitudeDegrees>
            </Position>
            <AltitudeMeters>1735.800048828125</AltitudeMeters>
            <DistanceMeters>NAN</DistanceMeters>
          </Trackpoint>
          <Trackpoint>
            <Time>2018-12-30T13:12:14.000Z</Time>
            <Position>
              <LatitudeDegrees>40.7589916884899139404296875</LatitudeDegrees>
              <LongitudeDegrees>-4.0886519663035869598388671875</LongitudeDegrees>
            </Position>
            <AltitudeMeters>1735.800048828125</AltitudeMeters>
            <DistanceMeters>NAN</DistanceMeters>
          </Trackpoint>
          <Trackpoint>
            <Time>2018-12-30T13:12:15.000Z</Time>
            <Position>
              <LatitudeDegrees>40.75897115282714366912841796875</LatitudeDegrees>
              <LongitudeDegrees>-4.088643752038478851318359375</LongitudeDegrees>
            </Position>
            <AltitudeMeters>1735.800048828125</AltitudeMeters>
            <DistanceMeters>NAN</DistanceMeters>
          </Trackpoint>
          <Trackpoint>
            <Time>2018-12-30T13:12:16.000Z</Time>
            <Position>
              <LatitudeDegrees>40.75895807705819606781005859375</LatitudeDegrees>
              <LongitudeDegrees>-4.08863478340208530426025390625</LongitudeDegrees>
            </Position>
            <AltitudeMeters>1735.800048828125</AltitudeMeters>
            <DistanceMeters>NAN</DistanceMeters>
          </Trackpoint>
          <Trackpoint>
            <Time>2018-12-30T13:12:17.000Z</Time>
            <Position>
              <LatitudeDegrees>40.75894500128924846649169921875</LatitudeDegrees>
              <LongitudeDegrees>-4.0886301733553409576416015625</LongitudeDegrees>
            </Position>
            <AltitudeMeters>1735.5999755859375</AltitudeMeters>
            <DistanceMeters>NAN</DistanceMeters>
          </Trackpoint>
          <Trackpoint>
            <Time>2018-12-30T13:12:18.000Z</Time>
            <Position>
              <LatitudeDegrees>40.7589326798915863037109375</LatitudeDegrees>
              <LongitudeDegrees>-4.08862187527120113372802734375</LongitudeDegrees>
            </Position>
            <AltitudeMeters>1735.5999755859375</AltitudeMeters>
            <DistanceMeters>NAN</DistanceMeters>
          </Trackpoint>
          <Trackpoint>
            <Time>2018-12-30T13:12:19.000Z</Time>
            <Position>
              <LatitudeDegrees>40.7589134015142917633056640625</LatitudeDegrees>
              <LongitudeDegrees>-4.088623635470867156982421875</LongitudeDegrees>
            </Position>
            <AltitudeMeters>1735.4000244140625</AltitudeMeters>
            <DistanceMeters>NAN</DistanceMeters>
          </Trackpoint>
          <Trackpoint>
            <Time>2018-12-30T13:12:20.000Z</Time>
            <Position>
              <LatitudeDegrees>40.758902169764041900634765625</LatitudeDegrees>
              <LongitudeDegrees>-4.0886281616985797882080078125</LongitudeDegrees>
            </Position>
            <AltitudeMeters>1735.4000244140625</AltitudeMeters>
            <DistanceMeters>NAN</DistanceMeters>
          </Trackpoint>
          <Trackpoint>
            <Time>2018-12-30T13:12:21.000Z</Time>
            <Position>
              <LatitudeDegrees>40.758888088166713714599609375</LatitudeDegrees>
              <LongitudeDegrees>-4.08863159827888011932373046875</LongitudeDegrees>
            </Position>
            <AltitudeMeters>1735.199951171875</AltitudeMeters>
            <DistanceMeters>NAN</DistanceMeters>
          </Trackpoint>
          <Trackpoint>
            <Time>2018-12-30T13:12:22.000Z</Time>
            <Position>
              <LatitudeDegrees>40.758869647979736328125</LatitudeDegrees>
              <LongitudeDegrees>-4.08863268792629241943359375</LongitudeDegrees>
            </Position>
            <AltitudeMeters>1735.199951171875</AltitudeMeters>
            <DistanceMeters>NAN</DistanceMeters>
          </Trackpoint>
          <Trackpoint>
            <Time>2018-12-30T13:12:23.000Z</Time>
            <Position>
              <LatitudeDegrees>40.75884710066020488739013671875</LatitudeDegrees>
              <LongitudeDegrees>-4.08863612450659275054931640625</LongitudeDegrees>
            </Position>
            <AltitudeMeters>1735.199951171875</AltitudeMeters>
            <DistanceMeters>NAN</DistanceMeters>
          </Trackpoint>
          <Trackpoint>
            <Time>2018-12-30T13:12:24.000Z</Time>
            <Position>
              <LatitudeDegrees>40.7588225416839122772216796875</LatitudeDegrees>
              <LongitudeDegrees>-4.08864383585751056671142578125</LongitudeDegrees>
            </Position>
            <AltitudeMeters>1735</AltitudeMeters>
            <DistanceMeters>NAN</DistanceMeters>
          </Trackpoint>
          <Trackpoint>
            <Time>2018-12-30T13:12:25.000Z</Time>
            <Position>
              <LatitudeDegrees>40.7588146626949310302734375</LatitudeDegrees>
              <LongitudeDegrees>-4.0886400640010833740234375</LongitudeDegrees>
            </Position>
            <AltitudeMeters>1735</AltitudeMeters>
            <DistanceMeters>NAN</DistanceMeters>
          </Trackpoint>
          <Trackpoint>
            <Time>2018-12-30T13:12:26.000Z</Time>
            <Position>
              <LatitudeDegrees>40.75880468823015689849853515625</LatitudeDegrees>
              <LongitudeDegrees>-4.0886395610868930816650390625</LongitudeDegrees>
            </Position>
            <AltitudeMeters>1735</AltitudeMeters>
            <DistanceMeters>NAN</DistanceMeters>
          </Trackpoint>
          <Trackpoint>
            <Time>2018-12-30T13:12:27.000Z</Time>
            <Position>
              <LatitudeDegrees>40.75879580341279506683349609375</LatitudeDegrees>
              <LongitudeDegrees>-4.08863671123981475830078125</LongitudeDegrees>
            </Position>
            <AltitudeMeters>1735.199951171875</AltitudeMeters>
            <DistanceMeters>NAN</DistanceMeters>
          </Trackpoint>
          <Trackpoint>
            <Time>2018-12-30T13:12:28.000Z</Time>
            <Position>
              <LatitudeDegrees>40.7587866671383380889892578125</LatitudeDegrees>
              <LongitudeDegrees>-4.08863629214465618133544921875</LongitudeDegrees>
            </Position>
            <AltitudeMeters>1735.199951171875</AltitudeMeters>
            <DistanceMeters>NAN</DistanceMeters>
          </Trackpoint>
          <Trackpoint>
            <Time>2018-12-30T13:12:29.000Z</Time>
            <Position>
              <LatitudeDegrees>40.75876881368458271026611328125</LatitudeDegrees>
              <LongitudeDegrees>-4.088641069829463958740234375</LongitudeDegrees>
            </Position>
            <AltitudeMeters>1735.199951171875</AltitudeMeters>
            <DistanceMeters>NAN</DistanceMeters>
          </Trackpoint>
          <Trackpoint>
            <Time>2018-12-30T13:12:30.000Z</Time>
            <Position>
              <LatitudeDegrees>40.758750624954700469970703125</LatitudeDegrees>
              <LongitudeDegrees>-4.08864207565784454345703125</LongitudeDegrees>
            </Position>
            <AltitudeMeters>1735.199951171875</AltitudeMeters>
            <DistanceMeters>NAN</DistanceMeters>
          </Trackpoint>
          <Trackpoint>
            <Time>2018-12-30T13:12:31.000Z</Time>
            <Position>
              <LatitudeDegrees>40.75872816145420074462890625</LatitudeDegrees>
              <LongitudeDegrees>-4.0886442549526691436767578125</LongitudeDegrees>
            </Position>
            <AltitudeMeters>1735.4000244140625</AltitudeMeters>
            <DistanceMeters>NAN</DistanceMeters>
          </Trackpoint>
          <Trackpoint>
            <Time>2018-12-30T13:12:32.000Z</Time>
            <Position>
              <LatitudeDegrees>40.758710391819477081298828125</LatitudeDegrees>
              <LongitudeDegrees>-4.08864316530525684356689453125</LongitudeDegrees>
            </Position>
            <AltitudeMeters>1735.5999755859375</AltitudeMeters>
            <DistanceMeters>NAN</DistanceMeters>
          </Trackpoint>
          <Trackpoint>
            <Time>2018-12-30T13:12:33.000Z</Time>
            <Position>
              <LatitudeDegrees>40.75869371183216571807861328125</LatitudeDegrees>
              <LongitudeDegrees>-4.08863914199173450469970703125</LongitudeDegrees>
            </Position>
            <AltitudeMeters>1735.5999755859375</AltitudeMeters>
            <DistanceMeters>NAN</DistanceMeters>
          </Trackpoint>
          <Trackpoint>
            <Time>2018-12-30T13:12:34.000Z</Time>
            <Position>
              <LatitudeDegrees>40.7586733438074588775634765625</LatitudeDegrees>
              <LongitudeDegrees>-4.0886308439075946807861328125</LongitudeDegrees>
            </Position>
            <AltitudeMeters>1735.5999755859375</AltitudeMeters>
            <DistanceMeters>NAN</DistanceMeters>
          </Trackpoint>
          <Trackpoint>
            <Time>2018-12-30T13:12:35.000Z</Time>
            <Position>
              <LatitudeDegrees>40.75866043567657470703125</LatitudeDegrees>
              <LongitudeDegrees>-4.08862061798572540283203125</LongitudeDegrees>
            </Position>
            <AltitudeMeters>1735.800048828125</AltitudeMeters>
            <DistanceMeters>NAN</DistanceMeters>
          </Trackpoint>
          <Trackpoint>
            <Time>2018-12-30T13:12:36.000Z</Time>
            <Position>
              <LatitudeDegrees>40.75864727608859539031982421875</LatitudeDegrees>
              <LongitudeDegrees>-4.08860762603580951690673828125</LongitudeDegrees>
            </Position>
            <AltitudeMeters>1735.800048828125</AltitudeMeters>
            <DistanceMeters>NAN</DistanceMeters>
          </Trackpoint>
          <Trackpoint>
            <Time>2018-12-30T13:12:37.000Z</Time>
            <Position>
              <LatitudeDegrees>40.75863436795771121978759765625</LatitudeDegrees>
              <LongitudeDegrees>-4.0886013396084308624267578125</LongitudeDegrees>
            </Position>
            <AltitudeMeters>1735.800048828125</AltitudeMeters>
            <DistanceMeters>NAN</DistanceMeters>
          </Trackpoint>
          <Trackpoint>
            <Time>2018-12-30T13:12:38.000Z</Time>
            <Position>
              <LatitudeDegrees>40.75862347148358821868896484375</LatitudeDegrees>
              <LongitudeDegrees>-4.08859773539006710052490234375</LongitudeDegrees>
            </Position>
            <AltitudeMeters>1735.800048828125</AltitudeMeters>
            <DistanceMeters>NAN</DistanceMeters>
          </Trackpoint>
          <Trackpoint>
            <Time>2018-12-30T13:12:39.000Z</Time>
            <Position>
              <LatitudeDegrees>40.758611150085926055908203125</LatitudeDegrees>
              <LongitudeDegrees>-4.0885939635336399078369140625</LongitudeDegrees>
            </Position>
            <AltitudeMeters>1735.800048828125</AltitudeMeters>
            <DistanceMeters>NAN</DistanceMeters>
          </Trackpoint>
          <Trackpoint>
            <Time>2018-12-30T13:12:40.000Z</Time>
            <Position>
              <LatitudeDegrees>40.7585969008505344390869140625</LatitudeDegrees>
              <LongitudeDegrees>-4.08859647810459136962890625</LongitudeDegrees>
            </Position>
            <AltitudeMeters>1735.5999755859375</AltitudeMeters>
            <DistanceMeters>NAN</DistanceMeters>
          </Trackpoint>
          <Trackpoint>
            <Time>2018-12-30T13:12:41.000Z</Time>
            <Position>
              <LatitudeDegrees>40.75857887975871562957763671875</LatitudeDegrees>
              <LongitudeDegrees>-4.088603518903255462646484375</LongitudeDegrees>
            </Position>
            <AltitudeMeters>1735.5999755859375</AltitudeMeters>
            <DistanceMeters>NAN</DistanceMeters>
          </Trackpoint>
          <Trackpoint>
            <Time>2018-12-30T13:12:42.000Z</Time>
            <Position>
              <LatitudeDegrees>40.7585667259991168975830078125</LatitudeDegrees>
              <LongitudeDegrees>-4.08860276453197002410888671875</LongitudeDegrees>
            </Position>
            <AltitudeMeters>1735.5999755859375</AltitudeMeters>
            <DistanceMeters>NAN</DistanceMeters>
          </Trackpoint>
          <Trackpoint>
            <Time>2018-12-30T13:12:43.000Z</Time>
            <Position>
              <LatitudeDegrees>40.75855490751564502716064453125</LatitudeDegrees>
              <LongitudeDegrees>-4.0885949693620204925537109375</LongitudeDegrees>
            </Position>
            <AltitudeMeters>1735.5999755859375</AltitudeMeters>
            <DistanceMeters>NAN</DistanceMeters>
          </Trackpoint>
          <Trackpoint>
            <Time>2018-12-30T13:12:44.000Z</Time>
            <Position>
              <LatitudeDegrees>40.75854434631764888763427734375</LatitudeDegrees>
              <LongitudeDegrees>-4.0885912813246250152587890625</LongitudeDegrees>
            </Position>
            <AltitudeMeters>1735.5999755859375</AltitudeMeters>
            <DistanceMeters>NAN</DistanceMeters>
          </Trackpoint>
          <Trackpoint>
            <Time>2018-12-30T13:12:45.000Z</Time>
            <Position>
              <LatitudeDegrees>40.7585315220057964324951171875</LatitudeDegrees>
              <LongitudeDegrees>-4.0885882638394832611083984375</LongitudeDegrees>
            </Position>
            <AltitudeMeters>1735.5999755859375</AltitudeMeters>
            <DistanceMeters>NAN</DistanceMeters>
          </Trackpoint>
          <Trackpoint>
            <Time>2018-12-30T13:12:46.000Z</Time>
            <Position>
              <LatitudeDegrees>40.75851785950362682342529296875</LatitudeDegrees>
              <LongitudeDegrees>-4.0885859169065952301025390625</LongitudeDegrees>
            </Position>
            <AltitudeMeters>1735.4000244140625</AltitudeMeters>
            <DistanceMeters>NAN</DistanceMeters>
          </Trackpoint>
          <Trackpoint>
            <Time>2018-12-30T13:12:47.000Z</Time>
            <Position>
              <LatitudeDegrees>40.7585035264492034912109375</LatitudeDegrees>
              <LongitudeDegrees>-4.08858113922178745269775390625</LongitudeDegrees>
            </Position>
            <AltitudeMeters>1735.4000244140625</AltitudeMeters>
            <DistanceMeters>NAN</DistanceMeters>
          </Trackpoint>
          <Trackpoint>
            <Time>2018-12-30T13:12:48.000Z</Time>
            <Position>
              <LatitudeDegrees>40.7584943063557147979736328125</LatitudeDegrees>
              <LongitudeDegrees>-4.088578708469867706298828125</LongitudeDegrees>
            </Position>
            <AltitudeMeters>1735.4000244140625</AltitudeMeters>
            <DistanceMeters>NAN</DistanceMeters>
          </Trackpoint>
          <Trackpoint>
            <Time>2018-12-30T13:12:49.000Z</Time>
            <Position>
              <LatitudeDegrees>40.75848097912967205047607421875</LatitudeDegrees>
              <LongitudeDegrees>-4.08858214505016803741455078125</LongitudeDegrees>
            </Position>
            <AltitudeMeters>1735.4000244140625</AltitudeMeters>
            <DistanceMeters>NAN</DistanceMeters>
          </Trackpoint>
          <Trackpoint>
            <Time>2018-12-30T13:12:50.000Z</Time>
            <Position>
              <LatitudeDegrees>40.75846530497074127197265625</LatitudeDegrees>
              <LongitudeDegrees>-4.08856437541544437408447265625</LongitudeDegrees>
            </Position>
            <AltitudeMeters>1735.199951171875</AltitudeMeters>
            <DistanceMeters>NAN</DistanceMeters>
          </Trackpoint>
          <Trackpoint>
            <Time>2018-12-30T13:12:51.000Z</Time>
            <Position>
              <LatitudeDegrees>40.758454240858554840087890625</LatitudeDegrees>
              <LongitudeDegrees>-4.0885611064732074737548828125</LongitudeDegrees>
            </Position>
            <AltitudeMeters>1735.199951171875</AltitudeMeters>
            <DistanceMeters>NAN</DistanceMeters>
          </Trackpoint>
          <Trackpoint>
            <Time>2018-12-30T13:12:52.000Z</Time>
            <Position>
              <LatitudeDegrees>40.75843772850930690765380859375</LatitudeDegrees>
              <LongitudeDegrees>-4.0885544009506702423095703125</LongitudeDegrees>
            </Position>
            <AltitudeMeters>1735.199951171875</AltitudeMeters>
            <DistanceMeters>NAN</DistanceMeters>
          </Trackpoint>
          <Trackpoint>
            <Time>2018-12-30T13:12:53.000Z</Time>
            <Position>
              <LatitudeDegrees>40.75842716731131076812744140625</LatitudeDegrees>
              <LongitudeDegrees>-4.0885544009506702423095703125</LongitudeDegrees>
            </Position>
            <AltitudeMeters>1735.199951171875</AltitudeMeters>
            <DistanceMeters>NAN</DistanceMeters>
          </Trackpoint>
          <Trackpoint>
            <Time>2018-12-30T13:12:54.000Z</Time>
            <Position>
              <LatitudeDegrees>40.75841367244720458984375</LatitudeDegrees>
              <LongitudeDegrees>-4.0885554067790508270263671875</LongitudeDegrees>
            </Position>
            <AltitudeMeters>1735</AltitudeMeters>
            <DistanceMeters>NAN</DistanceMeters>
          </Trackpoint>
          <Trackpoint>
            <Time>2018-12-30T13:12:55.000Z</Time>
            <Position>
              <LatitudeDegrees>40.7584004290401935577392578125</LatitudeDegrees>
              <LongitudeDegrees>-4.0885574184358119964599609375</LongitudeDegrees>
            </Position>
            <AltitudeMeters>1735</AltitudeMeters>
            <DistanceMeters>NAN</DistanceMeters>
          </Trackpoint>
          <Trackpoint>
            <Time>2018-12-30T13:12:56.000Z</Time>
            <Position>
              <LatitudeDegrees>40.75838752090930938720703125</LatitudeDegrees>
              <LongitudeDegrees>-4.088556580245494842529296875</LongitudeDegrees>
            </Position>
            <AltitudeMeters>1734.800048828125</AltitudeMeters>
            <DistanceMeters>NAN</DistanceMeters>
          </Trackpoint>
          <Trackpoint>
            <Time>2018-12-30T13:12:57.000Z</Time>
            <Position>
              <LatitudeDegrees>40.7583746127784252166748046875</LatitudeDegrees>
              <LongitudeDegrees>-4.08855381421744823455810546875</LongitudeDegrees>
            </Position>
            <AltitudeMeters>1734.800048828125</AltitudeMeters>
            <DistanceMeters>NAN</DistanceMeters>
          </Trackpoint>
          <Trackpoint>
            <Time>2018-12-30T13:12:58.000Z</Time>
            <Position>
              <LatitudeDegrees>40.758354999125003814697265625</LatitudeDegrees>
              <LongitudeDegrees>-4.0885461866855621337890625</LongitudeDegrees>
            </Position>
            <AltitudeMeters>1734.800048828125</AltitudeMeters>
            <DistanceMeters>NAN</DistanceMeters>
          </Trackpoint>
          <Trackpoint>
            <Time>2018-12-30T13:12:59.000Z</Time>
            <Position>
              <LatitudeDegrees>40.75834100134670734405517578125</LatitudeDegrees>
              <LongitudeDegrees>-4.0885354578495025634765625</LongitudeDegrees>
            </Position>
            <AltitudeMeters>1734.800048828125</AltitudeMeters>
            <DistanceMeters>NAN</DistanceMeters>
          </Trackpoint>
          <Trackpoint>
            <Time>2018-12-30T13:13:00.000Z</Time>
            <Position>
              <LatitudeDegrees>40.75832675211131572723388671875</LatitudeDegrees>
              <LongitudeDegrees>-4.0885295905172824859619140625</LongitudeDegrees>
            </Position>
            <AltitudeMeters>1734.5999755859375</AltitudeMeters>
            <DistanceMeters>NAN</DistanceMeters>
          </Trackpoint>
          <Trackpoint>
            <Time>2018-12-30T13:13:01.000Z</Time>
            <Position>
              <LatitudeDegrees>40.758311413228511810302734375</LatitudeDegrees>
              <LongitudeDegrees>-4.08852581866085529327392578125</LongitudeDegrees>
            </Position>
            <AltitudeMeters>1734.5999755859375</AltitudeMeters>
            <DistanceMeters>NAN</DistanceMeters>
          </Trackpoint>
          <Trackpoint>
            <Time>2018-12-30T13:13:02.000Z</Time>
            <Position>
              <LatitudeDegrees>40.75829121284186840057373046875</LatitudeDegrees>
              <LongitudeDegrees>-4.0885262377560138702392578125</LongitudeDegrees>
            </Position>
            <AltitudeMeters>1734.4000244140625</AltitudeMeters>
            <DistanceMeters>NAN</DistanceMeters>
          </Trackpoint>
          <Trackpoint>
            <Time>2018-12-30T13:13:03.000Z</Time>
            <Position>
              <LatitudeDegrees>40.7582767121493816375732421875</LatitudeDegrees>
              <LongitudeDegrees>-4.0885181911289691925048828125</LongitudeDegrees>
            </Position>
            <AltitudeMeters>1734.4000244140625</AltitudeMeters>
            <DistanceMeters>NAN</DistanceMeters>
          </Trackpoint>
          <Trackpoint>
            <Time>2018-12-30T13:13:04.000Z</Time>
            <Position>
              <LatitudeDegrees>40.7582559250295162200927734375</LatitudeDegrees>
              <LongitudeDegrees>-4.0885094739496707916259765625</LongitudeDegrees>
            </Position>
            <AltitudeMeters>1734.4000244140625</AltitudeMeters>
            <DistanceMeters>NAN</DistanceMeters>
          </Trackpoint>
          <Trackpoint>
            <Time>2018-12-30T13:13:05.000Z</Time>
            <Position>
              <LatitudeDegrees>40.75823404826223850250244140625</LatitudeDegrees>
              <LongitudeDegrees>-4.088507629930973052978515625</LongitudeDegrees>
            </Position>
            <AltitudeMeters>1734.4000244140625</AltitudeMeters>
            <DistanceMeters>NAN</DistanceMeters>
          </Trackpoint>
          <Trackpoint>
            <Time>2018-12-30T13:13:06.000Z</Time>
            <Position>
              <LatitudeDegrees>40.75821049511432647705078125</LatitudeDegrees>
              <LongitudeDegrees>-4.08850436098873615264892578125</LongitudeDegrees>
            </Position>
            <AltitudeMeters>1734.4000244140625</AltitudeMeters>
            <DistanceMeters>NAN</DistanceMeters>
          </Trackpoint>
          <Trackpoint>
            <Time>2018-12-30T13:13:07.000Z</Time>
            <Position>
              <LatitudeDegrees>40.758188031613826751708984375</LatitudeDegrees>
              <LongitudeDegrees>-4.08850670792162418365478515625</LongitudeDegrees>
            </Position>
            <AltitudeMeters>1734.199951171875</AltitudeMeters>
            <DistanceMeters>NAN</DistanceMeters>
          </Trackpoint>
          <Trackpoint>
            <Time>2018-12-30T13:13:08.000Z</Time>
            <Position>
              <LatitudeDegrees>40.7581747882068157196044921875</LatitudeDegrees>
              <LongitudeDegrees>-4.08850125968456268310546875</LongitudeDegrees>
            </Position>
            <AltitudeMeters>1734</AltitudeMeters>
            <DistanceMeters>NAN</DistanceMeters>
          </Trackpoint>
          <Trackpoint>
            <Time>2018-12-30T13:13:09.000Z</Time>
            <Position>
              <LatitudeDegrees>40.75815542601048946380615234375</LatitudeDegrees>
              <LongitudeDegrees>-4.0885024331510066986083984375</LongitudeDegrees>
            </Position>
            <AltitudeMeters>1734.199951171875</AltitudeMeters>
            <DistanceMeters>NAN</DistanceMeters>
          </Trackpoint>
          <Trackpoint>
            <Time>2018-12-30T13:13:10.000Z</Time>
            <Position>
              <LatitudeDegrees>40.75813597999513149261474609375</LatitudeDegrees>
              <LongitudeDegrees>-4.08849857747554779052734375</LongitudeDegrees>
            </Position>
            <AltitudeMeters>1734</AltitudeMeters>
            <DistanceMeters>NAN</DistanceMeters>
          </Trackpoint>
          <Trackpoint>
            <Time>2018-12-30T13:13:11.000Z</Time>
            <Position>
              <LatitudeDegrees>40.75812139548361301422119140625</LatitudeDegrees>
              <LongitudeDegrees>-4.088489525020122528076171875</LongitudeDegrees>
            </Position>
            <AltitudeMeters>1733.800048828125</AltitudeMeters>
            <DistanceMeters>NAN</DistanceMeters>
          </Trackpoint>
          <Trackpoint>
            <Time>2018-12-30T13:13:12.000Z</Time>
            <Position>
              <LatitudeDegrees>40.75811167247593402862548828125</LatitudeDegrees>
              <LongitudeDegrees>-4.08848172985017299652099609375</LongitudeDegrees>
            </Position>
            <AltitudeMeters>1733.5999755859375</AltitudeMeters>
            <DistanceMeters>NAN</DistanceMeters>
          </Trackpoint>
          <Trackpoint>
            <Time>2018-12-30T13:13:13.000Z</Time>
            <Position>
              <LatitudeDegrees>40.758094154298305511474609375</LatitudeDegrees>
              <LongitudeDegrees>-4.0884799696505069732666015625</LongitudeDegrees>
            </Position>
            <AltitudeMeters>1733.199951171875</AltitudeMeters>
            <DistanceMeters>NAN</DistanceMeters>
          </Trackpoint>
          <Trackpoint>
            <Time>2018-12-30T13:13:14.000Z</Time>
            <Position>
              <LatitudeDegrees>40.75808786787092685699462890625</LatitudeDegrees>
              <LongitudeDegrees>-4.0884699113667011260986328125</LongitudeDegrees>
            </Position>
            <AltitudeMeters>1733.199951171875</AltitudeMeters>
            <DistanceMeters>NAN</DistanceMeters>
          </Trackpoint>
          <Trackpoint>
            <Time>2018-12-30T13:13:15.000Z</Time>
            <Position>
              <LatitudeDegrees>40.75806892476975917816162109375</LatitudeDegrees>
              <LongitudeDegrees>-4.08846463076770305633544921875</LongitudeDegrees>
            </Position>
            <AltitudeMeters>1733.199951171875</AltitudeMeters>
            <DistanceMeters>NAN</DistanceMeters>
          </Trackpoint>
          <Trackpoint>
            <Time>2018-12-30T13:13:16.000Z</Time>
            <Position>
              <LatitudeDegrees>40.75804595835506916046142578125</LatitudeDegrees>
              <LongitudeDegrees>-4.088460020720958709716796875</LongitudeDegrees>
            </Position>
            <AltitudeMeters>1733</AltitudeMeters>
            <DistanceMeters>NAN</DistanceMeters>
          </Trackpoint>
          <Trackpoint>
            <Time>2018-12-30T13:13:17.000Z</Time>
            <Position>
              <LatitudeDegrees>40.7580245845019817352294921875</LatitudeDegrees>
              <LongitudeDegrees>-4.0884554944932460784912109375</LongitudeDegrees>
            </Position>
            <AltitudeMeters>1733</AltitudeMeters>
            <DistanceMeters>NAN</DistanceMeters>
          </Trackpoint>
          <Trackpoint>
            <Time>2018-12-30T13:13:18.000Z</Time>
            <Position>
              <LatitudeDegrees>40.75801075436174869537353515625</LatitudeDegrees>
              <LongitudeDegrees>-4.0884474478662014007568359375</LongitudeDegrees>
            </Position>
            <AltitudeMeters>1732.800048828125</AltitudeMeters>
            <DistanceMeters>NAN</DistanceMeters>
          </Trackpoint>
          <Trackpoint>
            <Time>2018-12-30T13:13:19.000Z</Time>
            <Position>
              <LatitudeDegrees>40.75800941325724124908447265625</LatitudeDegrees>
              <LongitudeDegrees>-4.08844183199107646942138671875</LongitudeDegrees>
            </Position>
            <AltitudeMeters>1732.800048828125</AltitudeMeters>
            <DistanceMeters>NAN</DistanceMeters>
          </Trackpoint>
          <Trackpoint>
            <Time>2018-12-30T13:13:20.000Z</Time>
            <Position>
              <LatitudeDegrees>40.758004970848560333251953125</LatitudeDegrees>
              <LongitudeDegrees>-4.088437221944332122802734375</LongitudeDegrees>
            </Position>
            <AltitudeMeters>1732.800048828125</AltitudeMeters>
            <DistanceMeters>NAN</DistanceMeters>
          </Trackpoint>
          <Trackpoint>
            <Time>2018-12-30T13:13:21.000Z</Time>
            <Position>
              <LatitudeDegrees>40.75799591839313507080078125</LatitudeDegrees>
              <LongitudeDegrees>-4.088431857526302337646484375</LongitudeDegrees>
            </Position>
            <AltitudeMeters>1732.800048828125</AltitudeMeters>
            <DistanceMeters>NAN</DistanceMeters>
          </Trackpoint>
          <Trackpoint>
            <Time>2018-12-30T13:13:22.000Z</Time>
            <Position>
              <LatitudeDegrees>40.75798007659614086151123046875</LatitudeDegrees>
              <LongitudeDegrees>-4.08843093551695346832275390625</LongitudeDegrees>
            </Position>
            <AltitudeMeters>1732.5999755859375</AltitudeMeters>
            <DistanceMeters>NAN</DistanceMeters>
          </Trackpoint>
          <Trackpoint>
            <Time>2018-12-30T13:13:23.000Z</Time>
            <Position>
              <LatitudeDegrees>40.75796314515173435211181640625</LatitudeDegrees>
              <LongitudeDegrees>-4.08842372708022594451904296875</LongitudeDegrees>
            </Position>
            <AltitudeMeters>1732.5999755859375</AltitudeMeters>
            <DistanceMeters>NAN</DistanceMeters>
          </Trackpoint>
          <Trackpoint>
            <Time>2018-12-30T13:13:24.000Z</Time>
            <Position>
              <LatitudeDegrees>40.75795291922986507415771484375</LatitudeDegrees>
              <LongitudeDegrees>-4.0884182788431644439697265625</LongitudeDegrees>
            </Position>
            <AltitudeMeters>1732.4000244140625</AltitudeMeters>
            <DistanceMeters>NAN</DistanceMeters>
          </Trackpoint>
          <Trackpoint>
            <Time>2018-12-30T13:13:25.000Z</Time>
            <Position>
              <LatitudeDegrees>40.75793917290866374969482421875</LatitudeDegrees>
              <LongitudeDegrees>-4.0884189493954181671142578125</LongitudeDegrees>
            </Position>
            <AltitudeMeters>1732.4000244140625</AltitudeMeters>
            <DistanceMeters>NAN</DistanceMeters>
          </Trackpoint>
          <Trackpoint>
            <Time>2018-12-30T13:13:26.000Z</Time>
            <Position>
              <LatitudeDegrees>40.75792861171066761016845703125</LatitudeDegrees>
              <LongitudeDegrees>-4.08841811120510101318359375</LongitudeDegrees>
            </Position>
            <AltitudeMeters>1732.199951171875</AltitudeMeters>
            <DistanceMeters>NAN</DistanceMeters>
          </Trackpoint>
          <Trackpoint>
            <Time>2018-12-30T13:13:27.000Z</Time>
            <Position>
              <LatitudeDegrees>40.7579186372458934783935546875</LatitudeDegrees>
              <LongitudeDegrees>-4.08841350115835666656494140625</LongitudeDegrees>
            </Position>
            <AltitudeMeters>1732.199951171875</AltitudeMeters>
            <DistanceMeters>NAN</DistanceMeters>
          </Trackpoint>
          <Trackpoint>
            <Time>2018-12-30T13:13:28.000Z</Time>
            <Position>
              <LatitudeDegrees>40.75790665112435817718505859375</LatitudeDegrees>
              <LongitudeDegrees>-4.0884068794548511505126953125</LongitudeDegrees>
            </Position>
            <AltitudeMeters>1732.199951171875</AltitudeMeters>
            <DistanceMeters>NAN</DistanceMeters>
          </Trackpoint>
          <Trackpoint>
            <Time>2018-12-30T13:13:29.000Z</Time>
            <Position>
              <LatitudeDegrees>40.75789801776409149169921875</LatitudeDegrees>
              <LongitudeDegrees>-4.08839941956102848052978515625</LongitudeDegrees>
            </Position>
            <AltitudeMeters>1732.199951171875</AltitudeMeters>
            <DistanceMeters>NAN</DistanceMeters>
          </Trackpoint>
          <Trackpoint>
            <Time>2018-12-30T13:13:30.000Z</Time>
            <Position>
              <LatitudeDegrees>40.7578866183757781982421875</LatitudeDegrees>
              <LongitudeDegrees>-4.08839254640042781829833984375</LongitudeDegrees>
            </Position>
            <AltitudeMeters>1732.199951171875</AltitudeMeters>
            <DistanceMeters>NAN</DistanceMeters>
          </Trackpoint>
          <Trackpoint>
            <Time>2018-12-30T13:13:31.000Z</Time>
            <Position>
              <LatitudeDegrees>40.7578785717487335205078125</LatitudeDegrees>
              <LongitudeDegrees>-4.08837695606052875518798828125</LongitudeDegrees>
            </Position>
            <AltitudeMeters>1732.199951171875</AltitudeMeters>
            <DistanceMeters>NAN</DistanceMeters>
          </Trackpoint>
          <Trackpoint>
            <Time>2018-12-30T13:13:32.000Z</Time>
            <Position>
              <LatitudeDegrees>40.75786943547427654266357421875</LatitudeDegrees>
              <LongitudeDegrees>-4.088365472853183746337890625</LongitudeDegrees>
            </Position>
            <AltitudeMeters>1732.199951171875</AltitudeMeters>
            <DistanceMeters>NAN</DistanceMeters>
          </Trackpoint>
          <Trackpoint>
            <Time>2018-12-30T13:13:33.000Z</Time>
            <Position>
              <LatitudeDegrees>40.7578639872372150421142578125</LatitudeDegrees>
              <LongitudeDegrees>-4.088350720703601837158203125</LongitudeDegrees>
            </Position>
            <AltitudeMeters>1732.199951171875</AltitudeMeters>
            <DistanceMeters>NAN</DistanceMeters>
          </Trackpoint>
          <Trackpoint>
            <Time>2018-12-30T13:13:34.000Z</Time>
            <Position>
              <LatitudeDegrees>40.75785485096275806427001953125</LatitudeDegrees>
              <LongitudeDegrees>-4.08834342844784259796142578125</LongitudeDegrees>
            </Position>
            <AltitudeMeters>1732.199951171875</AltitudeMeters>
            <DistanceMeters>NAN</DistanceMeters>
          </Trackpoint>
          <Trackpoint>
            <Time>2018-12-30T13:13:35.000Z</Time>
            <Position>
              <LatitudeDegrees>40.75784915126860141754150390625</LatitudeDegrees>
              <LongitudeDegrees>-4.08833437599241733551025390625</LongitudeDegrees>
            </Position>
            <AltitudeMeters>1732.199951171875</AltitudeMeters>
            <DistanceMeters>NAN</DistanceMeters>
          </Trackpoint>
          <Trackpoint>
            <Time>2018-12-30T13:13:36.000Z</Time>
            <Position>
              <LatitudeDegrees>40.75783657841384410858154296875</LatitudeDegrees>
              <LongitudeDegrees>-4.08832549117505550384521484375</LongitudeDegrees>
            </Position>
            <AltitudeMeters>1732.199951171875</AltitudeMeters>
            <DistanceMeters>NAN</DistanceMeters>
          </Trackpoint>
          <Trackpoint>
            <Time>2018-12-30T13:13:37.000Z</Time>
            <Position>
              <LatitudeDegrees>40.75782568193972110748291015625</LatitudeDegrees>
              <LongitudeDegrees>-4.0883123315870761871337890625</LongitudeDegrees>
            </Position>
            <AltitudeMeters>1732.199951171875</AltitudeMeters>
            <DistanceMeters>NAN</DistanceMeters>
          </Trackpoint>
          <Trackpoint>
            <Time>2018-12-30T13:13:38.000Z</Time>
            <Position>
              <LatitudeDegrees>40.75781461782753467559814453125</LatitudeDegrees>
              <LongitudeDegrees>-4.088303782045841217041015625</LongitudeDegrees>
            </Position>
            <AltitudeMeters>1732.199951171875</AltitudeMeters>
            <DistanceMeters>NAN</DistanceMeters>
          </Trackpoint>
          <Trackpoint>
            <Time>2018-12-30T13:13:39.000Z</Time>
            <Position>
              <LatitudeDegrees>40.75780011713504791259765625</LatitudeDegrees>
              <LongitudeDegrees>-4.08830143511295318603515625</LongitudeDegrees>
            </Position>
            <AltitudeMeters>1732</AltitudeMeters>
            <DistanceMeters>NAN</DistanceMeters>
          </Trackpoint>
          <Trackpoint>
            <Time>2018-12-30T13:13:40.000Z</Time>
            <Position>
              <LatitudeDegrees>40.757788717746734619140625</LatitudeDegrees>
              <LongitudeDegrees>-4.0882972441613674163818359375</LongitudeDegrees>
            </Position>
            <AltitudeMeters>1732</AltitudeMeters>
            <DistanceMeters>NAN</DistanceMeters>
          </Trackpoint>
          <Trackpoint>
            <Time>2018-12-30T13:13:41.000Z</Time>
            <Position>
              <LatitudeDegrees>40.7577717863023281097412109375</LatitudeDegrees>
              <LongitudeDegrees>-4.08829875290393829345703125</LongitudeDegrees>
            </Position>
            <AltitudeMeters>1732</AltitudeMeters>
            <DistanceMeters>NAN</DistanceMeters>
          </Trackpoint>
          <Trackpoint>
            <Time>2018-12-30T13:13:42.000Z</Time>
            <Position>
              <LatitudeDegrees>40.75775627978146076202392578125</LatitudeDegrees>
              <LongitudeDegrees>-4.08830302767455577850341796875</LongitudeDegrees>
            </Position>
            <AltitudeMeters>1732</AltitudeMeters>
            <DistanceMeters>NAN</DistanceMeters>
          </Trackpoint>
          <Trackpoint>
            <Time>2018-12-30T13:13:43.000Z</Time>
            <Position>
              <LatitudeDegrees>40.75773884542286396026611328125</LatitudeDegrees>
              <LongitudeDegrees>-4.08830604515969753265380859375</LongitudeDegrees>
            </Position>
            <AltitudeMeters>1732</AltitudeMeters>
            <DistanceMeters>NAN</DistanceMeters>
          </Trackpoint>
          <Trackpoint>
            <Time>2018-12-30T13:13:44.000Z</Time>
            <Position>
              <LatitudeDegrees>40.75772308744490146636962890625</LatitudeDegrees>
              <LongitudeDegrees>-4.0883083082735538482666015625</LongitudeDegrees>
            </Position>
            <AltitudeMeters>1732</AltitudeMeters>
            <DistanceMeters>NAN</DistanceMeters>
          </Trackpoint>
          <Trackpoint>
            <Time>2018-12-30T13:13:45.000Z</Time>
            <Position>
              <LatitudeDegrees>40.757713280618190765380859375</LatitudeDegrees>
              <LongitudeDegrees>-4.08830671571195125579833984375</LongitudeDegrees>
            </Position>
            <AltitudeMeters>1731.800048828125</AltitudeMeters>
            <DistanceMeters>NAN</DistanceMeters>
          </Trackpoint>
          <Trackpoint>
            <Time>2018-12-30T13:13:46.000Z</Time>
            <Position>
              <LatitudeDegrees>40.75769207440316677093505859375</LatitudeDegrees>
              <LongitudeDegrees>-4.08831040374934673309326171875</LongitudeDegrees>
            </Position>
            <AltitudeMeters>1731.5999755859375</AltitudeMeters>
            <DistanceMeters>NAN</DistanceMeters>
          </Trackpoint>
          <Trackpoint>
            <Time>2018-12-30T13:13:47.000Z</Time>
            <Position>
              <LatitudeDegrees>40.757682435214519500732421875</LatitudeDegrees>
              <LongitudeDegrees>-4.0883079729974269866943359375</LongitudeDegrees>
            </Position>
            <AltitudeMeters>1731.5999755859375</AltitudeMeters>
            <DistanceMeters>NAN</DistanceMeters>
          </Trackpoint>
          <Trackpoint>
            <Time>2018-12-30T13:13:48.000Z</Time>
            <Position>
              <LatitudeDegrees>40.7576722092926502227783203125</LatitudeDegrees>
              <LongitudeDegrees>-4.0883086435496807098388671875</LongitudeDegrees>
            </Position>
            <AltitudeMeters>1731.4000244140625</AltitudeMeters>
            <DistanceMeters>NAN</DistanceMeters>
          </Trackpoint>
          <Trackpoint>
            <Time>2018-12-30T13:13:49.000Z</Time>
            <Position>
              <LatitudeDegrees>40.7576586306095123291015625</LatitudeDegrees>
              <LongitudeDegrees>-4.0883126668632030487060546875</LongitudeDegrees>
            </Position>
            <AltitudeMeters>1731.4000244140625</AltitudeMeters>
            <DistanceMeters>NAN</DistanceMeters>
          </Trackpoint>
          <Trackpoint>
            <Time>2018-12-30T13:13:50.000Z</Time>
            <Position>
              <LatitudeDegrees>40.7576467283070087432861328125</LatitudeDegrees>
              <LongitudeDegrees>-4.08831140957772731781005859375</LongitudeDegrees>
            </Position>
            <AltitudeMeters>1731.199951171875</AltitudeMeters>
            <DistanceMeters>NAN</DistanceMeters>
          </Trackpoint>
          <Trackpoint>
            <Time>2018-12-30T13:13:51.000Z</Time>
            <Position>
              <LatitudeDegrees>40.7576343230903148651123046875</LatitudeDegrees>
              <LongitudeDegrees>-4.08831224776804447174072265625</LongitudeDegrees>
            </Position>
            <AltitudeMeters>1731.199951171875</AltitudeMeters>
            <DistanceMeters>NAN</DistanceMeters>
          </Trackpoint>
          <Trackpoint>
            <Time>2018-12-30T13:13:52.000Z</Time>
            <Position>
              <LatitudeDegrees>40.75762334279716014862060546875</LatitudeDegrees>
              <LongitudeDegrees>-4.088315181434154510498046875</LongitudeDegrees>
            </Position>
            <AltitudeMeters>1731.199951171875</AltitudeMeters>
            <DistanceMeters>NAN</DistanceMeters>
          </Trackpoint>
          <Trackpoint>
            <Time>2018-12-30T13:13:53.000Z</Time>
            <Position>
              <LatitudeDegrees>40.757613368332386016845703125</LatitudeDegrees>
              <LongitudeDegrees>-4.08831895329058170318603515625</LongitudeDegrees>
            </Position>
            <AltitudeMeters>1731.199951171875</AltitudeMeters>
            <DistanceMeters>NAN</DistanceMeters>
          </Trackpoint>
          <Trackpoint>
            <Time>2018-12-30T13:13:54.000Z</Time>
            <Position>
              <LatitudeDegrees>40.75760364532470703125</LatitudeDegrees>
              <LongitudeDegrees>-4.08832314424216747283935546875</LongitudeDegrees>
            </Position>
            <AltitudeMeters>1731</AltitudeMeters>
            <DistanceMeters>NAN</DistanceMeters>
          </Trackpoint>
          <Trackpoint>
            <Time>2018-12-30T13:13:55.000Z</Time>
            <Position>
              <LatitudeDegrees>40.75759517960250377655029296875</LatitudeDegrees>
              <LongitudeDegrees>-4.088332951068878173828125</LongitudeDegrees>
            </Position>
            <AltitudeMeters>1731</AltitudeMeters>
            <DistanceMeters>NAN</DistanceMeters>
          </Trackpoint>
          <Trackpoint>
            <Time>2018-12-30T13:13:56.000Z</Time>
            <Position>
              <LatitudeDegrees>40.75758495368063449859619140625</LatitudeDegrees>
              <LongitudeDegrees>-4.08834745176136493682861328125</LongitudeDegrees>
            </Position>
            <AltitudeMeters>1730.800048828125</AltitudeMeters>
            <DistanceMeters>NAN</DistanceMeters>
          </Trackpoint>
          <Trackpoint>
            <Time>2018-12-30T13:13:57.000Z</Time>
            <Position>
              <LatitudeDegrees>40.7575769908726215362548828125</LatitudeDegrees>
              <LongitudeDegrees>-4.08835046924650669097900390625</LongitudeDegrees>
            </Position>
            <AltitudeMeters>1730.800048828125</AltitudeMeters>
            <DistanceMeters>NAN</DistanceMeters>
          </Trackpoint>
          <Trackpoint>
            <Time>2018-12-30T13:13:58.000Z</Time>
            <Position>
              <LatitudeDegrees>40.75756701640784740447998046875</LatitudeDegrees>
              <LongitudeDegrees>-4.08834929578006267547607421875</LongitudeDegrees>
            </Position>
            <AltitudeMeters>1730.800048828125</AltitudeMeters>
            <DistanceMeters>NAN</DistanceMeters>
          </Trackpoint>
          <Trackpoint>
            <Time>2018-12-30T13:13:59.000Z</Time>
            <Position>
              <LatitudeDegrees>40.75754262506961822509765625</LatitudeDegrees>
              <LongitudeDegrees>-4.08835197798907756805419921875</LongitudeDegrees>
            </Position>
            <AltitudeMeters>1730.800048828125</AltitudeMeters>
            <DistanceMeters>NAN</DistanceMeters>
          </Trackpoint>
          <Trackpoint>
            <Time>2018-12-30T13:14:00.000Z</Time>
            <Position>
              <LatitudeDegrees>40.7575159706175327301025390625</LatitudeDegrees>
              <LongitudeDegrees>-4.0883562527596950531005859375</LongitudeDegrees>
            </Position>
            <AltitudeMeters>1730.5999755859375</AltitudeMeters>
            <DistanceMeters>NAN</DistanceMeters>
          </Trackpoint>
          <Trackpoint>
            <Time>2018-12-30T13:14:01.000Z</Time>
            <Position>
              <LatitudeDegrees>40.75749811716377735137939453125</LatitudeDegrees>
              <LongitudeDegrees>-4.0883602760732173919677734375</LongitudeDegrees>
            </Position>
            <AltitudeMeters>1730.5999755859375</AltitudeMeters>
            <DistanceMeters>NAN</DistanceMeters>
          </Trackpoint>
          <Trackpoint>
            <Time>2018-12-30T13:14:02.000Z</Time>
            <Position>
              <LatitudeDegrees>40.757475234568119049072265625</LatitudeDegrees>
              <LongitudeDegrees>-4.0883706696331501007080078125</LongitudeDegrees>
            </Position>
            <AltitudeMeters>1730.4000244140625</AltitudeMeters>
            <DistanceMeters>NAN</DistanceMeters>
          </Trackpoint>
          <Trackpoint>
            <Time>2018-12-30T13:14:03.000Z</Time>
            <Position>
              <LatitudeDegrees>40.75745855458080768585205078125</LatitudeDegrees>
              <LongitudeDegrees>-4.08837645314633846282958984375</LongitudeDegrees>
            </Position>
            <AltitudeMeters>1730.199951171875</AltitudeMeters>
            <DistanceMeters>NAN</DistanceMeters>
          </Trackpoint>
          <Trackpoint>
            <Time>2018-12-30T13:14:04.000Z</Time>
            <Position>
              <LatitudeDegrees>40.75744212605059146881103515625</LatitudeDegrees>
              <LongitudeDegrees>-4.088381566107273101806640625</LongitudeDegrees>
            </Position>
            <AltitudeMeters>1730.199951171875</AltitudeMeters>
            <DistanceMeters>NAN</DistanceMeters>
          </Trackpoint>
          <Trackpoint>
            <Time>2018-12-30T13:14:05.000Z</Time>
            <Position>
              <LatitudeDegrees>40.75742737390100955963134765625</LatitudeDegrees>
              <LongitudeDegrees>-4.0883879363536834716796875</LongitudeDegrees>
            </Position>
            <AltitudeMeters>1730</AltitudeMeters>
            <DistanceMeters>NAN</DistanceMeters>
          </Trackpoint>
          <Trackpoint>
            <Time>2018-12-30T13:14:06.000Z</Time>
            <Position>
              <LatitudeDegrees>40.75741387903690338134765625</LatitudeDegrees>
              <LongitudeDegrees>-4.08839740790426731109619140625</LongitudeDegrees>
            </Position>
            <AltitudeMeters>1730</AltitudeMeters>
            <DistanceMeters>NAN</DistanceMeters>
          </Trackpoint>
          <Trackpoint>
            <Time>2018-12-30T13:14:07.000Z</Time>
            <Position>
              <LatitudeDegrees>40.7573997974395751953125</LatitudeDegrees>
              <LongitudeDegrees>-4.08839807845652103424072265625</LongitudeDegrees>
            </Position>
            <AltitudeMeters>1730</AltitudeMeters>
            <DistanceMeters>NAN</DistanceMeters>
          </Trackpoint>
          <Trackpoint>
            <Time>2018-12-30T13:14:08.000Z</Time>
            <Position>
              <LatitudeDegrees>40.75738362036645412445068359375</LatitudeDegrees>
              <LongitudeDegrees>-4.08840578980743885040283203125</LongitudeDegrees>
            </Position>
            <AltitudeMeters>1730</AltitudeMeters>
            <DistanceMeters>NAN</DistanceMeters>
          </Trackpoint>
          <Trackpoint>
            <Time>2018-12-30T13:14:09.000Z</Time>
            <Position>
              <LatitudeDegrees>40.757371298968791961669921875</LatitudeDegrees>
              <LongitudeDegrees>-4.08840528689324855804443359375</LongitudeDegrees>
            </Position>
            <AltitudeMeters>1730.199951171875</AltitudeMeters>
            <DistanceMeters>NAN</DistanceMeters>
          </Trackpoint>
          <Trackpoint>
            <Time>2018-12-30T13:14:10.000Z</Time>
            <Position>
              <LatitudeDegrees>40.75735755264759063720703125</LatitudeDegrees>
              <LongitudeDegrees>-4.0884045325219631195068359375</LongitudeDegrees>
            </Position>
            <AltitudeMeters>1730.199951171875</AltitudeMeters>
            <DistanceMeters>NAN</DistanceMeters>
          </Trackpoint>
          <Trackpoint>
            <Time>2018-12-30T13:14:11.000Z</Time>
            <Position>
              <LatitudeDegrees>40.75734145939350128173828125</LatitudeDegrees>
              <LongitudeDegrees>-4.08840545453131198883056640625</LongitudeDegrees>
            </Position>
            <AltitudeMeters>1730.199951171875</AltitudeMeters>
            <DistanceMeters>NAN</DistanceMeters>
          </Trackpoint>
          <Trackpoint>
            <Time>2018-12-30T13:14:12.000Z</Time>
            <Position>
              <LatitudeDegrees>40.75733232311904430389404296875</LatitudeDegrees>
              <LongitudeDegrees>-4.0884159319102764129638671875</LongitudeDegrees>
            </Position>
            <AltitudeMeters>1730.4000244140625</AltitudeMeters>
            <DistanceMeters>NAN</DistanceMeters>
          </Trackpoint>
          <Trackpoint>
            <Time>2018-12-30T13:14:13.000Z</Time>
            <Position>
              <LatitudeDegrees>40.7573228515684604644775390625</LatitudeDegrees>
              <LongitudeDegrees>-4.08841903321444988250732421875</LongitudeDegrees>
            </Position>
            <AltitudeMeters>1731</AltitudeMeters>
            <DistanceMeters>NAN</DistanceMeters>
          </Trackpoint>
          <Trackpoint>
            <Time>2018-12-30T13:14:14.000Z</Time>
            <Position>
              <LatitudeDegrees>40.75730633921921253204345703125</LatitudeDegrees>
              <LongitudeDegrees>-4.08842724747955799102783203125</LongitudeDegrees>
            </Position>
            <AltitudeMeters>1731.4000244140625</AltitudeMeters>
            <DistanceMeters>NAN</DistanceMeters>
          </Trackpoint>
          <Trackpoint>
            <Time>2018-12-30T13:14:15.000Z</Time>
            <Position>
              <LatitudeDegrees>40.75729208998382091522216796875</LatitudeDegrees>
              <LongitudeDegrees>-4.088435210287570953369140625</LongitudeDegrees>
            </Position>
            <AltitudeMeters>1731.5999755859375</AltitudeMeters>
            <DistanceMeters>NAN</DistanceMeters>
          </Trackpoint>
          <Trackpoint>
            <Time>2018-12-30T13:14:16.000Z</Time>
            <Position>
              <LatitudeDegrees>40.75727750547230243682861328125</LatitudeDegrees>
              <LongitudeDegrees>-4.08844199962913990020751953125</LongitudeDegrees>
            </Position>
            <AltitudeMeters>1731.800048828125</AltitudeMeters>
            <DistanceMeters>NAN</DistanceMeters>
          </Trackpoint>
          <Trackpoint>
            <Time>2018-12-30T13:14:17.000Z</Time>
            <Position>
              <LatitudeDegrees>40.7572638429701328277587890625</LatitudeDegrees>
              <LongitudeDegrees>-4.08844350837171077728271484375</LongitudeDegrees>
            </Position>
            <AltitudeMeters>1731.800048828125</AltitudeMeters>
            <DistanceMeters>NAN</DistanceMeters>
          </Trackpoint>
          <Trackpoint>
            <Time>2018-12-30T13:14:18.000Z</Time>
            <Position>
              <LatitudeDegrees>40.75724381022155284881591796875</LatitudeDegrees>
              <LongitudeDegrees>-4.0884447656571865081787109375</LongitudeDegrees>
            </Position>
            <AltitudeMeters>1732</AltitudeMeters>
            <DistanceMeters>NAN</DistanceMeters>
          </Trackpoint>
          <Trackpoint>
            <Time>2018-12-30T13:14:19.000Z</Time>
            <Position>
              <LatitudeDegrees>40.75722587294876575469970703125</LatitudeDegrees>
              <LongitudeDegrees>-4.08844501711428165435791015625</LongitudeDegrees>
            </Position>
            <AltitudeMeters>1731.800048828125</AltitudeMeters>
            <DistanceMeters>NAN</DistanceMeters>
          </Trackpoint>
          <Trackpoint>
            <Time>2018-12-30T13:14:20.000Z</Time>
            <Position>
              <LatitudeDegrees>40.7572101987898349761962890625</LatitudeDegrees>
              <LongitudeDegrees>-4.08844635821878910064697265625</LongitudeDegrees>
            </Position>
            <AltitudeMeters>1731.800048828125</AltitudeMeters>
            <DistanceMeters>NAN</DistanceMeters>
          </Trackpoint>
          <Trackpoint>
            <Time>2018-12-30T13:14:21.000Z</Time>
            <Position>
              <LatitudeDegrees>40.75719485990703105926513671875</LatitudeDegrees>
              <LongitudeDegrees>-4.08844736404716968536376953125</LongitudeDegrees>
            </Position>
            <AltitudeMeters>1731.800048828125</AltitudeMeters>
            <DistanceMeters>NAN</DistanceMeters>
          </Trackpoint>
          <Trackpoint>
            <Time>2018-12-30T13:14:22.000Z</Time>
            <Position>
              <LatitudeDegrees>40.75718027539551258087158203125</LatitudeDegrees>
              <LongitudeDegrees>-4.088451974093914031982421875</LongitudeDegrees>
            </Position>
            <AltitudeMeters>1731.800048828125</AltitudeMeters>
            <DistanceMeters>NAN</DistanceMeters>
          </Trackpoint>
          <Trackpoint>
            <Time>2018-12-30T13:14:23.000Z</Time>
            <Position>
              <LatitudeDegrees>40.75716585852205753326416015625</LatitudeDegrees>
              <LongitudeDegrees>-4.08845624886453151702880859375</LongitudeDegrees>
            </Position>
            <AltitudeMeters>1731.5999755859375</AltitudeMeters>
            <DistanceMeters>NAN</DistanceMeters>
          </Trackpoint>
          <Trackpoint>
            <Time>2018-12-30T13:14:24.000Z</Time>
            <Position>
              <LatitudeDegrees>40.75714775361120700836181640625</LatitudeDegrees>
              <LongitudeDegrees>-4.08845608122646808624267578125</LongitudeDegrees>
            </Position>
            <AltitudeMeters>1731.5999755859375</AltitudeMeters>
            <DistanceMeters>NAN</DistanceMeters>
          </Trackpoint>
          <Trackpoint>
            <Time>2018-12-30T13:14:25.000Z</Time>
            <Position>
              <LatitudeDegrees>40.75713534839451313018798828125</LatitudeDegrees>
              <LongitudeDegrees>-4.08845574595034122467041015625</LongitudeDegrees>
            </Position>
            <AltitudeMeters>1731.4000244140625</AltitudeMeters>
            <DistanceMeters>NAN</DistanceMeters>
          </Trackpoint>
          <Trackpoint>
            <Time>2018-12-30T13:14:26.000Z</Time>
            <Position>
              <LatitudeDegrees>40.75712017714977264404296875</LatitudeDegrees>
              <LongitudeDegrees>-4.0884549915790557861328125</LongitudeDegrees>
            </Position>
            <AltitudeMeters>1731.4000244140625</AltitudeMeters>
            <DistanceMeters>NAN</DistanceMeters>
          </Trackpoint>
          <Trackpoint>
            <Time>2018-12-30T13:14:27.000Z</Time>
            <Position>
              <LatitudeDegrees>40.75710265897214412689208984375</LatitudeDegrees>
              <LongitudeDegrees>-4.088455997407436370849609375</LongitudeDegrees>
            </Position>
            <AltitudeMeters>1731.4000244140625</AltitudeMeters>
            <DistanceMeters>NAN</DistanceMeters>
          </Trackpoint>
          <Trackpoint>
            <Time>2018-12-30T13:14:28.000Z</Time>
            <Position>
              <LatitudeDegrees>40.7570854760706424713134765625</LatitudeDegrees>
              <LongitudeDegrees>-4.0884576737880706787109375</LongitudeDegrees>
            </Position>
            <AltitudeMeters>1731.4000244140625</AltitudeMeters>
            <DistanceMeters>NAN</DistanceMeters>
          </Trackpoint>
          <Trackpoint>
            <Time>2018-12-30T13:14:29.000Z</Time>
            <Position>
              <LatitudeDegrees>40.7570710591971874237060546875</LatitudeDegrees>
              <LongitudeDegrees>-4.08845566213130950927734375</LongitudeDegrees>
            </Position>
            <AltitudeMeters>1731.4000244140625</AltitudeMeters>
            <DistanceMeters>NAN</DistanceMeters>
          </Trackpoint>
          <Trackpoint>
            <Time>2018-12-30T13:14:30.000Z</Time>
            <Position>
              <LatitudeDegrees>40.75706041418015956878662109375</LatitudeDegrees>
              <LongitudeDegrees>-4.08845373429358005523681640625</LongitudeDegrees>
            </Position>
            <AltitudeMeters>1731.4000244140625</AltitudeMeters>
            <DistanceMeters>NAN</DistanceMeters>
          </Trackpoint>
          <Trackpoint>
            <Time>2018-12-30T13:14:31.000Z</Time>
            <Position>
              <LatitudeDegrees>40.75705312192440032958984375</LatitudeDegrees>
              <LongitudeDegrees>-4.08845004625618457794189453125</LongitudeDegrees>
            </Position>
            <AltitudeMeters>1731.5999755859375</AltitudeMeters>
            <DistanceMeters>NAN</DistanceMeters>
          </Trackpoint>
          <Trackpoint>
            <Time>2018-12-30T13:14:32.000Z</Time>
            <Position>
              <LatitudeDegrees>40.75704314745962619781494140625</LatitudeDegrees>
              <LongitudeDegrees>-4.08844820223748683929443359375</LongitudeDegrees>
            </Position>
            <AltitudeMeters>1731.800048828125</AltitudeMeters>
            <DistanceMeters>NAN</DistanceMeters>
          </Trackpoint>
          <Trackpoint>
            <Time>2018-12-30T13:14:33.000Z</Time>
            <Position>
              <LatitudeDegrees>40.75703057460486888885498046875</LatitudeDegrees>
              <LongitudeDegrees>-4.0884484536945819854736328125</LongitudeDegrees>
            </Position>
            <AltitudeMeters>1732</AltitudeMeters>
            <DistanceMeters>NAN</DistanceMeters>
          </Trackpoint>
          <Trackpoint>
            <Time>2018-12-30T13:14:34.000Z</Time>
            <Position>
              <LatitudeDegrees>40.7570224441587924957275390625</LatitudeDegrees>
              <LongitudeDegrees>-4.08845641650259494781494140625</LongitudeDegrees>
            </Position>
            <AltitudeMeters>1732</AltitudeMeters>
            <DistanceMeters>NAN</DistanceMeters>
          </Trackpoint>
          <Trackpoint>
            <Time>2018-12-30T13:14:35.000Z</Time>
            <Position>
              <LatitudeDegrees>40.75701213441789150238037109375</LatitudeDegrees>
              <LongitudeDegrees>-4.08845926634967327117919921875</LongitudeDegrees>
            </Position>
            <AltitudeMeters>1732.199951171875</AltitudeMeters>
            <DistanceMeters>NAN</DistanceMeters>
          </Trackpoint>
          <Trackpoint>
            <Time>2018-12-30T13:14:36.000Z</Time>
            <Position>
              <LatitudeDegrees>40.75700459070503711700439453125</LatitudeDegrees>
              <LongitudeDegrees>-4.08846111036837100982666015625</LongitudeDegrees>
            </Position>
            <AltitudeMeters>1732.199951171875</AltitudeMeters>
            <DistanceMeters>NAN</DistanceMeters>
          </Trackpoint>
          <Trackpoint>
            <Time>2018-12-30T13:14:37.000Z</Time>
            <Position>
              <LatitudeDegrees>40.75698983855545520782470703125</LatitudeDegrees>
              <LongitudeDegrees>-4.088458679616451263427734375</LongitudeDegrees>
            </Position>
            <AltitudeMeters>1732</AltitudeMeters>
            <DistanceMeters>NAN</DistanceMeters>
          </Trackpoint>
          <Trackpoint>
            <Time>2018-12-30T13:14:38.000Z</Time>
            <Position>
              <LatitudeDegrees>40.75697961263358592987060546875</LatitudeDegrees>
              <LongitudeDegrees>-4.088459350168704986572265625</LongitudeDegrees>
            </Position>
            <AltitudeMeters>1731.800048828125</AltitudeMeters>
            <DistanceMeters>NAN</DistanceMeters>
          </Trackpoint>
          <Trackpoint>
            <Time>2018-12-30T13:14:39.000Z</Time>
            <Position>
              <LatitudeDegrees>40.7569691352546215057373046875</LatitudeDegrees>
              <LongitudeDegrees>-4.08846077509224414825439453125</LongitudeDegrees>
            </Position>
            <AltitudeMeters>1731.4000244140625</AltitudeMeters>
            <DistanceMeters>NAN</DistanceMeters>
          </Trackpoint>
          <Trackpoint>
            <Time>2018-12-30T13:14:40.000Z</Time>
            <Position>
              <LatitudeDegrees>40.756953544914722442626953125</LatitudeDegrees>
              <LongitudeDegrees>-4.088460020720958709716796875</LongitudeDegrees>
            </Position>
            <AltitudeMeters>1731</AltitudeMeters>
            <DistanceMeters>NAN</DistanceMeters>
          </Trackpoint>
          <Trackpoint>
            <Time>2018-12-30T13:14:41.000Z</Time>
            <Position>
              <LatitudeDegrees>40.75693183578550815582275390625</LatitudeDegrees>
              <LongitudeDegrees>-4.08845758996903896331787109375</LongitudeDegrees>
            </Position>
            <AltitudeMeters>1730.4000244140625</AltitudeMeters>
            <DistanceMeters>NAN</DistanceMeters>
          </Trackpoint>
          <Trackpoint>
            <Time>2018-12-30T13:14:42.000Z</Time>
            <Position>
              <LatitudeDegrees>40.75691306032240390777587890625</LatitudeDegrees>
              <LongitudeDegrees>-4.08845960162580013275146484375</LongitudeDegrees>
            </Position>
            <AltitudeMeters>1730</AltitudeMeters>
            <DistanceMeters>NAN</DistanceMeters>
          </Trackpoint>
          <Trackpoint>
            <Time>2018-12-30T13:14:43.000Z</Time>
            <Position>
              <LatitudeDegrees>40.75689964927732944488525390625</LatitudeDegrees>
              <LongitudeDegrees>-4.08846731297671794891357421875</LongitudeDegrees>
            </Position>
            <AltitudeMeters>1729.800048828125</AltitudeMeters>
            <DistanceMeters>NAN</DistanceMeters>
          </Trackpoint>
          <Trackpoint>
            <Time>2018-12-30T13:14:44.000Z</Time>
            <Position>
              <LatitudeDegrees>40.75688674114644527435302734375</LatitudeDegrees>
              <LongitudeDegrees>-4.0884732641279697418212890625</LongitudeDegrees>
            </Position>
            <AltitudeMeters>1729.800048828125</AltitudeMeters>
            <DistanceMeters>NAN</DistanceMeters>
          </Trackpoint>
          <Trackpoint>
            <Time>2018-12-30T13:14:45.000Z</Time>
            <Position>
              <LatitudeDegrees>40.756874419748783111572265625</LatitudeDegrees>
              <LongitudeDegrees>-4.0884766168892383575439453125</LongitudeDegrees>
            </Position>
            <AltitudeMeters>1729.800048828125</AltitudeMeters>
            <DistanceMeters>NAN</DistanceMeters>
          </Trackpoint>
          <Trackpoint>
            <Time>2018-12-30T13:14:46.000Z</Time>
            <Position>
              <LatitudeDegrees>40.75686268508434295654296875</LatitudeDegrees>
              <LongitudeDegrees>-4.0884813107550144195556640625</LongitudeDegrees>
            </Position>
            <AltitudeMeters>1729.800048828125</AltitudeMeters>
            <DistanceMeters>NAN</DistanceMeters>
          </Trackpoint>
          <Trackpoint>
            <Time>2018-12-30T13:14:47.000Z</Time>
            <Position>
              <LatitudeDegrees>40.75685103423893451690673828125</LatitudeDegrees>
              <LongitudeDegrees>-4.0884871780872344970703125</LongitudeDegrees>
            </Position>
            <AltitudeMeters>1729.800048828125</AltitudeMeters>
            <DistanceMeters>NAN</DistanceMeters>
          </Trackpoint>
          <Trackpoint>
            <Time>2018-12-30T13:14:48.000Z</Time>
            <Position>
              <LatitudeDegrees>40.7568397186696529388427734375</LatitudeDegrees>
              <LongitudeDegrees>-4.0884950570762157440185546875</LongitudeDegrees>
            </Position>
            <AltitudeMeters>1729.800048828125</AltitudeMeters>
            <DistanceMeters>NAN</DistanceMeters>
          </Trackpoint>
          <Trackpoint>
            <Time>2018-12-30T13:14:49.000Z</Time>
            <Position>
              <LatitudeDegrees>40.7568216137588024139404296875</LatitudeDegrees>
              <LongitudeDegrees>-4.0885020978748798370361328125</LongitudeDegrees>
            </Position>
            <AltitudeMeters>1729.800048828125</AltitudeMeters>
            <DistanceMeters>NAN</DistanceMeters>
          </Trackpoint>
          <Trackpoint>
            <Time>2018-12-30T13:14:50.000Z</Time>
            <Position>
              <LatitudeDegrees>40.7568048499524593353271484375</LatitudeDegrees>
              <LongitudeDegrees>-4.0885101445019245147705078125</LongitudeDegrees>
            </Position>
            <AltitudeMeters>1730</AltitudeMeters>
            <DistanceMeters>NAN</DistanceMeters>
          </Trackpoint>
          <Trackpoint>
            <Time>2018-12-30T13:14:51.000Z</Time>
            <Position>
              <LatitudeDegrees>40.7567904330790042877197265625</LatitudeDegrees>
              <LongitudeDegrees>-4.08851928077638149261474609375</LongitudeDegrees>
            </Position>
            <AltitudeMeters>1730</AltitudeMeters>
            <DistanceMeters>NAN</DistanceMeters>
          </Trackpoint>
          <Trackpoint>
            <Time>2018-12-30T13:14:52.000Z</Time>
            <Position>
              <LatitudeDegrees>40.7567766867578029632568359375</LatitudeDegrees>
              <LongitudeDegrees>-4.08853151835501194000244140625</LongitudeDegrees>
            </Position>
            <AltitudeMeters>1729.800048828125</AltitudeMeters>
            <DistanceMeters>NAN</DistanceMeters>
          </Trackpoint>
          <Trackpoint>
            <Time>2018-12-30T13:14:53.000Z</Time>
            <Position>
              <LatitudeDegrees>40.75675950385630130767822265625</LatitudeDegrees>
              <LongitudeDegrees>-4.088533110916614532470703125</LongitudeDegrees>
            </Position>
            <AltitudeMeters>1729.800048828125</AltitudeMeters>
            <DistanceMeters>NAN</DistanceMeters>
          </Trackpoint>
          <Trackpoint>
            <Time>2018-12-30T13:14:54.000Z</Time>
            <Position>
              <LatitudeDegrees>40.7567441649734973907470703125</LatitudeDegrees>
              <LongitudeDegrees>-4.08853889442980289459228515625</LongitudeDegrees>
            </Position>
            <AltitudeMeters>1729.800048828125</AltitudeMeters>
            <DistanceMeters>NAN</DistanceMeters>
          </Trackpoint>
          <Trackpoint>
            <Time>2018-12-30T13:14:55.000Z</Time>
            <Position>
              <LatitudeDegrees>40.75673150829970836639404296875</LatitudeDegrees>
              <LongitudeDegrees>-4.0885433368384838104248046875</LongitudeDegrees>
            </Position>
            <AltitudeMeters>1729.800048828125</AltitudeMeters>
            <DistanceMeters>NAN</DistanceMeters>
          </Trackpoint>
          <Trackpoint>
            <Time>2018-12-30T13:14:56.000Z</Time>
            <Position>
              <LatitudeDegrees>40.75671524740755558013916015625</LatitudeDegrees>
              <LongitudeDegrees>-4.088547863066196441650390625</LongitudeDegrees>
            </Position>
            <AltitudeMeters>1729.800048828125</AltitudeMeters>
            <DistanceMeters>NAN</DistanceMeters>
          </Trackpoint>
          <Trackpoint>
            <Time>2018-12-30T13:14:57.000Z</Time>
            <Position>
              <LatitudeDegrees>40.756700746715068817138671875</LatitudeDegrees>
              <LongitudeDegrees>-4.08855364657938480377197265625</LongitudeDegrees>
            </Position>
            <AltitudeMeters>1729.800048828125</AltitudeMeters>
            <DistanceMeters>NAN</DistanceMeters>
          </Trackpoint>
          <Trackpoint>
            <Time>2018-12-30T13:14:58.000Z</Time>
            <Position>
              <LatitudeDegrees>40.75668524019420146942138671875</LatitudeDegrees>
              <LongitudeDegrees>-4.0885555744171142578125</LongitudeDegrees>
            </Position>
            <AltitudeMeters>1730</AltitudeMeters>
            <DistanceMeters>NAN</DistanceMeters>
          </Trackpoint>
          <Trackpoint>
            <Time>2018-12-30T13:14:59.000Z</Time>
            <Position>
              <LatitudeDegrees>40.7566704042255878448486328125</LatitudeDegrees>
              <LongitudeDegrees>-4.0885584242641925811767578125</LongitudeDegrees>
            </Position>
            <AltitudeMeters>1730</AltitudeMeters>
            <DistanceMeters>NAN</DistanceMeters>
          </Trackpoint>
          <Trackpoint>
            <Time>2018-12-30T13:15:00.000Z</Time>
            <Position>
              <LatitudeDegrees>40.7566506229341030120849609375</LatitudeDegrees>
              <LongitudeDegrees>-4.0885574184358119964599609375</LongitudeDegrees>
            </Position>
            <AltitudeMeters>1730</AltitudeMeters>
            <DistanceMeters>NAN</DistanceMeters>
          </Trackpoint>
          <Trackpoint>
            <Time>2018-12-30T13:15:01.000Z</Time>
            <Position>
              <LatitudeDegrees>40.756636373698711395263671875</LatitudeDegrees>
              <LongitudeDegrees>-4.08856119029223918914794921875</LongitudeDegrees>
            </Position>
            <AltitudeMeters>1730</AltitudeMeters>
            <DistanceMeters>NAN</DistanceMeters>
          </Trackpoint>
          <Trackpoint>
            <Time>2018-12-30T13:15:02.000Z</Time>
            <Position>
              <LatitudeDegrees>40.75662304647266864776611328125</LatitudeDegrees>
              <LongitudeDegrees>-4.0885711647570133209228515625</LongitudeDegrees>
            </Position>
            <AltitudeMeters>1730</AltitudeMeters>
            <DistanceMeters>NAN</DistanceMeters>
          </Trackpoint>
          <Trackpoint>
            <Time>2018-12-30T13:15:03.000Z</Time>
            <Position>
              <LatitudeDegrees>40.75661282055079936981201171875</LatitudeDegrees>
              <LongitudeDegrees>-4.08858516253530979156494140625</LongitudeDegrees>
            </Position>
            <AltitudeMeters>1730</AltitudeMeters>
            <DistanceMeters>NAN</DistanceMeters>
          </Trackpoint>
          <Trackpoint>
            <Time>2018-12-30T13:15:04.000Z</Time>
            <Position>
              <LatitudeDegrees>40.75659756548702716827392578125</LatitudeDegrees>
              <LongitudeDegrees>-4.08860024996101856231689453125</LongitudeDegrees>
            </Position>
            <AltitudeMeters>1729.800048828125</AltitudeMeters>
            <DistanceMeters>NAN</DistanceMeters>
          </Trackpoint>
          <Trackpoint>
            <Time>2018-12-30T13:15:05.000Z</Time>
            <Position>
              <LatitudeDegrees>40.75658650137484073638916015625</LatitudeDegrees>
              <LongitudeDegrees>-4.0886160917580127716064453125</LongitudeDegrees>
            </Position>
            <AltitudeMeters>1729.800048828125</AltitudeMeters>
            <DistanceMeters>NAN</DistanceMeters>
          </Trackpoint>
          <Trackpoint>
            <Time>2018-12-30T13:15:06.000Z</Time>
            <Position>
              <LatitudeDegrees>40.75657811947166919708251953125</LatitudeDegrees>
              <LongitudeDegrees>-4.08862874843180179595947265625</LongitudeDegrees>
            </Position>
            <AltitudeMeters>1729.800048828125</AltitudeMeters>
            <DistanceMeters>NAN</DistanceMeters>
          </Trackpoint>
          <Trackpoint>
            <Time>2018-12-30T13:15:07.000Z</Time>
            <Position>
              <LatitudeDegrees>40.7565668039023876190185546875</LatitudeDegrees>
              <LongitudeDegrees>-4.0886385552585124969482421875</LongitudeDegrees>
            </Position>
            <AltitudeMeters>1729.5999755859375</AltitudeMeters>
            <DistanceMeters>NAN</DistanceMeters>
          </Trackpoint>
          <Trackpoint>
            <Time>2018-12-30T13:15:08.000Z</Time>
            <Position>
              <LatitudeDegrees>40.75655314140021800994873046875</LatitudeDegrees>
              <LongitudeDegrees>-4.08864635042846202850341796875</LongitudeDegrees>
            </Position>
            <AltitudeMeters>1729.4000244140625</AltitudeMeters>
            <DistanceMeters>NAN</DistanceMeters>
          </Trackpoint>
          <Trackpoint>
            <Time>2018-12-30T13:15:09.000Z</Time>
            <Position>
              <LatitudeDegrees>40.75654291547834873199462890625</LatitudeDegrees>
              <LongitudeDegrees>-4.0886539779603481292724609375</LongitudeDegrees>
            </Position>
            <AltitudeMeters>1729.4000244140625</AltitudeMeters>
            <DistanceMeters>NAN</DistanceMeters>
          </Trackpoint>
          <Trackpoint>
            <Time>2018-12-30T13:15:10.000Z</Time>
            <Position>
              <LatitudeDegrees>40.7565321028232574462890625</LatitudeDegrees>
              <LongitudeDegrees>-4.08866462297737598419189453125</LongitudeDegrees>
            </Position>
            <AltitudeMeters>1729.4000244140625</AltitudeMeters>
            <DistanceMeters>NAN</DistanceMeters>
          </Trackpoint>
          <Trackpoint>
            <Time>2018-12-30T13:15:11.000Z</Time>
            <Position>
              <LatitudeDegrees>40.7565218769013881683349609375</LatitudeDegrees>
              <LongitudeDegrees>-4.08867283724248409271240234375</LongitudeDegrees>
            </Position>
            <AltitudeMeters>1729.4000244140625</AltitudeMeters>
            <DistanceMeters>NAN</DistanceMeters>
          </Trackpoint>
          <Trackpoint>
            <Time>2018-12-30T13:15:12.000Z</Time>
            <Position>
              <LatitudeDegrees>40.756515003740787506103515625</LatitudeDegrees>
              <LongitudeDegrees>-4.0886811353266239166259765625</LongitudeDegrees>
            </Position>
            <AltitudeMeters>1729.4000244140625</AltitudeMeters>
            <DistanceMeters>NAN</DistanceMeters>
          </Trackpoint>
          <Trackpoint>
            <Time>2018-12-30T13:15:13.000Z</Time>
            <Position>
              <LatitudeDegrees>40.7565052807331085205078125</LatitudeDegrees>
              <LongitudeDegrees>-4.0886908583343029022216796875</LongitudeDegrees>
            </Position>
            <AltitudeMeters>1729.4000244140625</AltitudeMeters>
            <DistanceMeters>NAN</DistanceMeters>
          </Trackpoint>
          <Trackpoint>
            <Time>2018-12-30T13:15:14.000Z</Time>
            <Position>
              <LatitudeDegrees>40.7564984075725078582763671875</LatitudeDegrees>
              <LongitudeDegrees>-4.0887017548084259033203125</LongitudeDegrees>
            </Position>
            <AltitudeMeters>1729.4000244140625</AltitudeMeters>
            <DistanceMeters>NAN</DistanceMeters>
          </Trackpoint>
          <Trackpoint>
            <Time>2018-12-30T13:15:15.000Z</Time>
            <Position>
              <LatitudeDegrees>40.7564917020499706268310546875</LatitudeDegrees>
              <LongitudeDegrees>-4.08871290273964405059814453125</LongitudeDegrees>
            </Position>
            <AltitudeMeters>1729.4000244140625</AltitudeMeters>
            <DistanceMeters>NAN</DistanceMeters>
          </Trackpoint>
          <Trackpoint>
            <Time>2018-12-30T13:15:16.000Z</Time>
            <Position>
              <LatitudeDegrees>40.75648642145097255706787109375</LatitudeDegrees>
              <LongitudeDegrees>-4.08872614614665508270263671875</LongitudeDegrees>
            </Position>
            <AltitudeMeters>1729.4000244140625</AltitudeMeters>
            <DistanceMeters>NAN</DistanceMeters>
          </Trackpoint>
          <Trackpoint>
            <Time>2018-12-30T13:15:17.000Z</Time>
            <Position>
              <LatitudeDegrees>40.75648139230906963348388671875</LatitudeDegrees>
              <LongitudeDegrees>-4.08873922191560268402099609375</LongitudeDegrees>
            </Position>
            <AltitudeMeters>1729.5999755859375</AltitudeMeters>
            <DistanceMeters>NAN</DistanceMeters>
          </Trackpoint>
          <Trackpoint>
            <Time>2018-12-30T13:15:18.000Z</Time>
            <Position>
              <LatitudeDegrees>40.75647376477718353271484375</LatitudeDegrees>
              <LongitudeDegrees>-4.088752381503582000732421875</LongitudeDegrees>
            </Position>
            <AltitudeMeters>1729.5999755859375</AltitudeMeters>
            <DistanceMeters>NAN</DistanceMeters>
          </Trackpoint>
          <Trackpoint>
            <Time>2018-12-30T13:15:19.000Z</Time>
            <Position>
              <LatitudeDegrees>40.75646848417818546295166015625</LatitudeDegrees>
              <LongitudeDegrees>-4.08876839093863964080810546875</LongitudeDegrees>
            </Position>
            <AltitudeMeters>1730</AltitudeMeters>
            <DistanceMeters>NAN</DistanceMeters>
          </Trackpoint>
          <Trackpoint>
            <Time>2018-12-30T13:15:20.000Z</Time>
            <Position>
              <LatitudeDegrees>40.756469070911407470703125</LatitudeDegrees>
              <LongitudeDegrees>-4.088779874145984649658203125</LongitudeDegrees>
            </Position>
            <AltitudeMeters>1730</AltitudeMeters>
            <DistanceMeters>NAN</DistanceMeters>
          </Trackpoint>
          <Trackpoint>
            <Time>2018-12-30T13:15:21.000Z</Time>
            <Position>
              <LatitudeDegrees>40.75646362267434597015380859375</LatitudeDegrees>
              <LongitudeDegrees>-4.0887890942394733428955078125</LongitudeDegrees>
            </Position>
            <AltitudeMeters>1730.199951171875</AltitudeMeters>
            <DistanceMeters>NAN</DistanceMeters>
          </Trackpoint>
          <Trackpoint>
            <Time>2018-12-30T13:15:22.000Z</Time>
            <Position>
              <LatitudeDegrees>40.75645876117050647735595703125</LatitudeDegrees>
              <LongitudeDegrees>-4.08879957161843776702880859375</LongitudeDegrees>
            </Position>
            <AltitudeMeters>1730.4000244140625</AltitudeMeters>
            <DistanceMeters>NAN</DistanceMeters>
          </Trackpoint>
          <Trackpoint>
            <Time>2018-12-30T13:15:23.000Z</Time>
            <Position>
              <LatitudeDegrees>40.75645230710506439208984375</LatitudeDegrees>
              <LongitudeDegrees>-4.08881130628287792205810546875</LongitudeDegrees>
            </Position>
            <AltitudeMeters>1730.4000244140625</AltitudeMeters>
            <DistanceMeters>NAN</DistanceMeters>
          </Trackpoint>
          <Trackpoint>
            <Time>2018-12-30T13:15:24.000Z</Time>
            <Position>
              <LatitudeDegrees>40.7564491219818592071533203125</LatitudeDegrees>
              <LongitudeDegrees>-4.08882672898471355438232421875</LongitudeDegrees>
            </Position>
            <AltitudeMeters>1730.4000244140625</AltitudeMeters>
            <DistanceMeters>NAN</DistanceMeters>
          </Trackpoint>
          <Trackpoint>
            <Time>2018-12-30T13:15:25.000Z</Time>
            <Position>
              <LatitudeDegrees>40.7564467750489711761474609375</LatitudeDegrees>
              <LongitudeDegrees>-4.08884449861943721771240234375</LongitudeDegrees>
            </Position>
            <AltitudeMeters>1730.5999755859375</AltitudeMeters>
            <DistanceMeters>NAN</DistanceMeters>
          </Trackpoint>
          <Trackpoint>
            <Time>2018-12-30T13:15:26.000Z</Time>
            <Position>
              <LatitudeDegrees>40.756441242992877960205078125</LatitudeDegrees>
              <LongitudeDegrees>-4.088858999311923980712890625</LongitudeDegrees>
            </Position>
            <AltitudeMeters>1730.4000244140625</AltitudeMeters>
            <DistanceMeters>NAN</DistanceMeters>
          </Trackpoint>
          <Trackpoint>
            <Time>2018-12-30T13:15:27.000Z</Time>
            <Position>
              <LatitudeDegrees>40.75643353164196014404296875</LatitudeDegrees>
              <LongitudeDegrees>-4.08887215889990329742431640625</LongitudeDegrees>
            </Position>
            <AltitudeMeters>1730.5999755859375</AltitudeMeters>
            <DistanceMeters>NAN</DistanceMeters>
          </Trackpoint>
          <Trackpoint>
            <Time>2018-12-30T13:15:28.000Z</Time>
            <Position>
              <LatitudeDegrees>40.756421126425266265869140625</LatitudeDegrees>
              <LongitudeDegrees>-4.08889143727719783782958984375</LongitudeDegrees>
            </Position>
            <AltitudeMeters>1730.5999755859375</AltitudeMeters>
            <DistanceMeters>NAN</DistanceMeters>
          </Trackpoint>
          <Trackpoint>
            <Time>2018-12-30T13:15:29.000Z</Time>
            <Position>
              <LatitudeDegrees>40.75641266070306301116943359375</LatitudeDegrees>
              <LongitudeDegrees>-4.08890032209455966949462890625</LongitudeDegrees>
            </Position>
            <AltitudeMeters>1730.4000244140625</AltitudeMeters>
            <DistanceMeters>NAN</DistanceMeters>
          </Trackpoint>
          <Trackpoint>
            <Time>2018-12-30T13:15:30.000Z</Time>
            <Position>
              <LatitudeDegrees>40.7563991658389568328857421875</LatitudeDegrees>
              <LongitudeDegrees>-4.0889164991676807403564453125</LongitudeDegrees>
            </Position>
            <AltitudeMeters>1730.4000244140625</AltitudeMeters>
            <DistanceMeters>NAN</DistanceMeters>
          </Trackpoint>
          <Trackpoint>
            <Time>2018-12-30T13:15:31.000Z</Time>
            <Position>
              <LatitudeDegrees>40.75639061629772186279296875</LatitudeDegrees>
              <LongitudeDegrees>-4.088928401470184326171875</LongitudeDegrees>
            </Position>
            <AltitudeMeters>1730.4000244140625</AltitudeMeters>
            <DistanceMeters>NAN</DistanceMeters>
          </Trackpoint>
          <Trackpoint>
            <Time>2018-12-30T13:15:32.000Z</Time>
            <Position>
              <LatitudeDegrees>40.756376869976520538330078125</LatitudeDegrees>
              <LongitudeDegrees>-4.08894558437168598175048828125</LongitudeDegrees>
            </Position>
            <AltitudeMeters>1730.199951171875</AltitudeMeters>
            <DistanceMeters>NAN</DistanceMeters>
          </Trackpoint>
          <Trackpoint>
            <Time>2018-12-30T13:15:33.000Z</Time>
            <Position>
              <LatitudeDegrees>40.75636513531208038330078125</LatitudeDegrees>
              <LongitudeDegrees>-4.0889587439596652984619140625</LongitudeDegrees>
            </Position>
            <AltitudeMeters>1730.199951171875</AltitudeMeters>
            <DistanceMeters>NAN</DistanceMeters>
          </Trackpoint>
          <Trackpoint>
            <Time>2018-12-30T13:15:34.000Z</Time>
            <Position>
              <LatitudeDegrees>40.75635734014213085174560546875</LatitudeDegrees>
              <LongitudeDegrees>-4.08896570093929767608642578125</LongitudeDegrees>
            </Position>
            <AltitudeMeters>1730</AltitudeMeters>
            <DistanceMeters>NAN</DistanceMeters>
          </Trackpoint>
          <Trackpoint>
            <Time>2018-12-30T13:15:35.000Z</Time>
            <Position>
              <LatitudeDegrees>40.7563522271811962127685546875</LatitudeDegrees>
              <LongitudeDegrees>-4.08897123299539089202880859375</LongitudeDegrees>
            </Position>
            <AltitudeMeters>1729.800048828125</AltitudeMeters>
            <DistanceMeters>NAN</DistanceMeters>
          </Trackpoint>
          <Trackpoint>
            <Time>2018-12-30T13:15:36.000Z</Time>
            <Position>
              <LatitudeDegrees>40.75634828768670558929443359375</LatitudeDegrees>
              <LongitudeDegrees>-4.0889785252511501312255859375</LongitudeDegrees>
            </Position>
            <AltitudeMeters>1729.800048828125</AltitudeMeters>
            <DistanceMeters>NAN</DistanceMeters>
          </Trackpoint>
          <Trackpoint>
            <Time>2018-12-30T13:15:37.000Z</Time>
            <Position>
              <LatitudeDegrees>40.7563425041735172271728515625</LatitudeDegrees>
              <LongitudeDegrees>-4.08898330293595790863037109375</LongitudeDegrees>
            </Position>
            <AltitudeMeters>1729.5999755859375</AltitudeMeters>
            <DistanceMeters>NAN</DistanceMeters>
          </Trackpoint>
          <Trackpoint>
            <Time>2018-12-30T13:15:38.000Z</Time>
            <Position>
              <LatitudeDegrees>40.756335966289043426513671875</LatitudeDegrees>
              <LongitudeDegrees>-4.0889892540872097015380859375</LongitudeDegrees>
            </Position>
            <AltitudeMeters>1729.5999755859375</AltitudeMeters>
            <DistanceMeters>NAN</DistanceMeters>
          </Trackpoint>
          <Trackpoint>
            <Time>2018-12-30T13:15:39.000Z</Time>
            <Position>
              <LatitudeDegrees>40.75631962157785892486572265625</LatitudeDegrees>
              <LongitudeDegrees>-4.08901951275765895843505859375</LongitudeDegrees>
            </Position>
            <AltitudeMeters>1729.5999755859375</AltitudeMeters>
            <DistanceMeters>NAN</DistanceMeters>
          </Trackpoint>
          <Trackpoint>
            <Time>2018-12-30T13:15:40.000Z</Time>
            <Position>
              <LatitudeDegrees>40.75630922801792621612548828125</LatitudeDegrees>
              <LongitudeDegrees>-4.08902722410857677459716796875</LongitudeDegrees>
            </Position>
            <AltitudeMeters>1729.800048828125</AltitudeMeters>
            <DistanceMeters>NAN</DistanceMeters>
          </Trackpoint>
          <Trackpoint>
            <Time>2018-12-30T13:15:41.000Z</Time>
            <Position>
              <LatitudeDegrees>40.7562969066202640533447265625</LatitudeDegrees>
              <LongitudeDegrees>-4.089032672345638275146484375</LongitudeDegrees>
            </Position>
            <AltitudeMeters>1729.800048828125</AltitudeMeters>
            <DistanceMeters>NAN</DistanceMeters>
          </Trackpoint>
          <Trackpoint>
            <Time>2018-12-30T13:15:42.000Z</Time>
            <Position>
              <LatitudeDegrees>40.7562918774783611297607421875</LatitudeDegrees>
              <LongitudeDegrees>-4.0890291519463062286376953125</LongitudeDegrees>
            </Position>
            <AltitudeMeters>1730</AltitudeMeters>
            <DistanceMeters>NAN</DistanceMeters>
          </Trackpoint>
          <Trackpoint>
            <Time>2018-12-30T13:15:43.000Z</Time>
            <Position>
              <LatitudeDegrees>40.75629062019288539886474609375</LatitudeDegrees>
              <LongitudeDegrees>-4.08903895877301692962646484375</LongitudeDegrees>
            </Position>
            <AltitudeMeters>1730</AltitudeMeters>
            <DistanceMeters>NAN</DistanceMeters>
          </Trackpoint>
          <Trackpoint>
            <Time>2018-12-30T13:15:44.000Z</Time>
            <Position>
              <LatitudeDegrees>40.75628601014614105224609375</LatitudeDegrees>
              <LongitudeDegrees>-4.08904951997101306915283203125</LongitudeDegrees>
            </Position>
            <AltitudeMeters>1729.800048828125</AltitudeMeters>
            <DistanceMeters>NAN</DistanceMeters>
          </Trackpoint>
          <Trackpoint>
            <Time>2018-12-30T13:15:45.000Z</Time>
            <Position>
              <LatitudeDegrees>40.75628575868904590606689453125</LatitudeDegrees>
              <LongitudeDegrees>-4.0890593267977237701416015625</LongitudeDegrees>
            </Position>
            <AltitudeMeters>1730</AltitudeMeters>
            <DistanceMeters>NAN</DistanceMeters>
          </Trackpoint>
          <Trackpoint>
            <Time>2018-12-30T13:15:46.000Z</Time>
            <Position>
              <LatitudeDegrees>40.75628341175615787506103515625</LatitudeDegrees>
              <LongitudeDegrees>-4.0890697203576564788818359375</LongitudeDegrees>
            </Position>
            <AltitudeMeters>1729.800048828125</AltitudeMeters>
            <DistanceMeters>NAN</DistanceMeters>
          </Trackpoint>
          <Trackpoint>
            <Time>2018-12-30T13:15:47.000Z</Time>
            <Position>
              <LatitudeDegrees>40.75627704150974750518798828125</LatitudeDegrees>
              <LongitudeDegrees>-4.089078940451145172119140625</LongitudeDegrees>
            </Position>
            <AltitudeMeters>1729.800048828125</AltitudeMeters>
            <DistanceMeters>NAN</DistanceMeters>
          </Trackpoint>
          <Trackpoint>
            <Time>2018-12-30T13:15:48.000Z</Time>
            <Position>
              <LatitudeDegrees>40.75626815669238567352294921875</LatitudeDegrees>
              <LongitudeDegrees>-4.08909880556166172027587890625</LongitudeDegrees>
            </Position>
            <AltitudeMeters>1729.5999755859375</AltitudeMeters>
            <DistanceMeters>NAN</DistanceMeters>
          </Trackpoint>
          <Trackpoint>
            <Time>2018-12-30T13:15:49.000Z</Time>
            <Position>
              <LatitudeDegrees>40.75626916252076625823974609375</LatitudeDegrees>
              <LongitudeDegrees>-4.08911741338670253753662109375</LongitudeDegrees>
            </Position>
            <AltitudeMeters>1729.199951171875</AltitudeMeters>
            <DistanceMeters>NAN</DistanceMeters>
          </Trackpoint>
          <Trackpoint>
            <Time>2018-12-30T13:15:50.000Z</Time>
            <Position>
              <LatitudeDegrees>40.75626564212143421173095703125</LatitudeDegrees>
              <LongitudeDegrees>-4.08913828432559967041015625</LongitudeDegrees>
            </Position>
            <AltitudeMeters>1728.800048828125</AltitudeMeters>
            <DistanceMeters>NAN</DistanceMeters>
          </Trackpoint>
          <Trackpoint>
            <Time>2018-12-30T13:15:51.000Z</Time>
            <Position>
              <LatitudeDegrees>40.75626480393111705780029296875</LatitudeDegrees>
              <LongitudeDegrees>-4.08915764652192592620849609375</LongitudeDegrees>
            </Position>
            <AltitudeMeters>1728.4000244140625</AltitudeMeters>
            <DistanceMeters>NAN</DistanceMeters>
          </Trackpoint>
          <Trackpoint>
            <Time>2018-12-30T13:15:52.000Z</Time>
            <Position>
              <LatitudeDegrees>40.75626396574079990386962890625</LatitudeDegrees>
              <LongitudeDegrees>-4.08917726017534732818603515625</LongitudeDegrees>
            </Position>
            <AltitudeMeters>1728.199951171875</AltitudeMeters>
            <DistanceMeters>NAN</DistanceMeters>
          </Trackpoint>
          <Trackpoint>
            <Time>2018-12-30T13:15:53.000Z</Time>
            <Position>
              <LatitudeDegrees>40.7562606967985630035400390625</LatitudeDegrees>
              <LongitudeDegrees>-4.08919100649654865264892578125</LongitudeDegrees>
            </Position>
            <AltitudeMeters>1728</AltitudeMeters>
            <DistanceMeters>NAN</DistanceMeters>
          </Trackpoint>
          <Trackpoint>
            <Time>2018-12-30T13:15:54.000Z</Time>
            <Position>
              <LatitudeDegrees>40.75625608675181865692138671875</LatitudeDegrees>
              <LongitudeDegrees>-4.08920659683644771575927734375</LongitudeDegrees>
            </Position>
            <AltitudeMeters>1728</AltitudeMeters>
            <DistanceMeters>NAN</DistanceMeters>
          </Trackpoint>
          <Trackpoint>
            <Time>2018-12-30T13:15:55.000Z</Time>
            <Position>
              <LatitudeDegrees>40.7562533207237720489501953125</LatitudeDegrees>
              <LongitudeDegrees>-4.08922352828085422515869140625</LongitudeDegrees>
            </Position>
            <AltitudeMeters>1727.800048828125</AltitudeMeters>
            <DistanceMeters>NAN</DistanceMeters>
          </Trackpoint>
          <Trackpoint>
            <Time>2018-12-30T13:15:56.000Z</Time>
            <Position>
              <LatitudeDegrees>40.7562466152012348175048828125</LatitudeDegrees>
              <LongitudeDegrees>-4.08923685550689697265625</LongitudeDegrees>
            </Position>
            <AltitudeMeters>1727.800048828125</AltitudeMeters>
            <DistanceMeters>NAN</DistanceMeters>
          </Trackpoint>
          <Trackpoint>
            <Time>2018-12-30T13:15:57.000Z</Time>
            <Position>
              <LatitudeDegrees>40.75624301098287105560302734375</LatitudeDegrees>
              <LongitudeDegrees>-4.08924884162843227386474609375</LongitudeDegrees>
            </Position>
            <AltitudeMeters>1727.800048828125</AltitudeMeters>
            <DistanceMeters>NAN</DistanceMeters>
          </Trackpoint>
          <Trackpoint>
            <Time>2018-12-30T13:15:58.000Z</Time>
            <Position>
              <LatitudeDegrees>40.75623161159455776214599609375</LatitudeDegrees>
              <LongitudeDegrees>-4.0892588160932064056396484375</LongitudeDegrees>
            </Position>
            <AltitudeMeters>1727.800048828125</AltitudeMeters>
            <DistanceMeters>NAN</DistanceMeters>
          </Trackpoint>
          <Trackpoint>
            <Time>2018-12-30T13:15:59.000Z</Time>
            <Position>
              <LatitudeDegrees>40.75622566044330596923828125</LatitudeDegrees>
              <LongitudeDegrees>-4.089276082813739776611328125</LongitudeDegrees>
            </Position>
            <AltitudeMeters>1727.800048828125</AltitudeMeters>
            <DistanceMeters>NAN</DistanceMeters>
          </Trackpoint>
          <Trackpoint>
            <Time>2018-12-30T13:16:00.000Z</Time>
            <Position>
              <LatitudeDegrees>40.75622222386300563812255859375</LatitudeDegrees>
              <LongitudeDegrees>-4.08929460681974887847900390625</LongitudeDegrees>
            </Position>
            <AltitudeMeters>1727.800048828125</AltitudeMeters>
            <DistanceMeters>NAN</DistanceMeters>
          </Trackpoint>
          <Trackpoint>
            <Time>2018-12-30T13:16:01.000Z</Time>
            <Position>
              <LatitudeDegrees>40.7562164403498172760009765625</LatitudeDegrees>
              <LongitudeDegrees>-4.089311622083187103271484375</LongitudeDegrees>
            </Position>
            <AltitudeMeters>1727.800048828125</AltitudeMeters>
            <DistanceMeters>NAN</DistanceMeters>
          </Trackpoint>
          <Trackpoint>
            <Time>2018-12-30T13:16:02.000Z</Time>
            <Position>
              <LatitudeDegrees>40.75621283613145351409912109375</LatitudeDegrees>
              <LongitudeDegrees>-4.089325368404388427734375</LongitudeDegrees>
            </Position>
            <AltitudeMeters>1727.5999755859375</AltitudeMeters>
            <DistanceMeters>NAN</DistanceMeters>
          </Trackpoint>
          <Trackpoint>
            <Time>2018-12-30T13:16:03.000Z</Time>
            <Position>
              <LatitudeDegrees>40.756204538047313690185546875</LatitudeDegrees>
              <LongitudeDegrees>-4.08933802507817745208740234375</LongitudeDegrees>
            </Position>
            <AltitudeMeters>1727.5999755859375</AltitudeMeters>
            <DistanceMeters>NAN</DistanceMeters>
          </Trackpoint>
          <Trackpoint>
            <Time>2018-12-30T13:16:04.000Z</Time>
            <Position>
              <LatitudeDegrees>40.75619556941092014312744140625</LatitudeDegrees>
              <LongitudeDegrees>-4.08935076557099819183349609375</LongitudeDegrees>
            </Position>
            <AltitudeMeters>1727.5999755859375</AltitudeMeters>
            <DistanceMeters>NAN</DistanceMeters>
          </Trackpoint>
          <Trackpoint>
            <Time>2018-12-30T13:16:05.000Z</Time>
            <Position>
              <LatitudeDegrees>40.7561855949461460113525390625</LatitudeDegrees>
              <LongitudeDegrees>-4.08936384133994579315185546875</LongitudeDegrees>
            </Position>
            <AltitudeMeters>1727.5999755859375</AltitudeMeters>
            <DistanceMeters>NAN</DistanceMeters>
          </Trackpoint>
          <Trackpoint>
            <Time>2018-12-30T13:16:06.000Z</Time>
            <Position>
              <LatitudeDegrees>40.75617411173880100250244140625</LatitudeDegrees>
              <LongitudeDegrees>-4.08937633037567138671875</LongitudeDegrees>
            </Position>
            <AltitudeMeters>1727.5999755859375</AltitudeMeters>
            <DistanceMeters>NAN</DistanceMeters>
          </Trackpoint>
          <Trackpoint>
            <Time>2018-12-30T13:16:07.000Z</Time>
            <Position>
              <LatitudeDegrees>40.75616572983562946319580078125</LatitudeDegrees>
              <LongitudeDegrees>-4.0893919207155704498291015625</LongitudeDegrees>
            </Position>
            <AltitudeMeters>1727.5999755859375</AltitudeMeters>
            <DistanceMeters>NAN</DistanceMeters>
          </Trackpoint>
          <Trackpoint>
            <Time>2018-12-30T13:16:08.000Z</Time>
            <Position>
              <LatitudeDegrees>40.75615500099956989288330078125</LatitudeDegrees>
              <LongitudeDegrees>-4.089403487741947174072265625</LongitudeDegrees>
            </Position>
            <AltitudeMeters>1727.5999755859375</AltitudeMeters>
            <DistanceMeters>NAN</DistanceMeters>
          </Trackpoint>
          <Trackpoint>
            <Time>2018-12-30T13:16:09.000Z</Time>
            <Position>
              <LatitudeDegrees>40.75614343397319316864013671875</LatitudeDegrees>
              <LongitudeDegrees>-4.0894138813018798828125</LongitudeDegrees>
            </Position>
            <AltitudeMeters>1727.5999755859375</AltitudeMeters>
            <DistanceMeters>NAN</DistanceMeters>
          </Trackpoint>
          <Trackpoint>
            <Time>2018-12-30T13:16:10.000Z</Time>
            <Position>
              <LatitudeDegrees>40.75613605789840221405029296875</LatitudeDegrees>
              <LongitudeDegrees>-4.08943072892725467681884765625</LongitudeDegrees>
            </Position>
            <AltitudeMeters>1727.5999755859375</AltitudeMeters>
            <DistanceMeters>NAN</DistanceMeters>
          </Trackpoint>
          <Trackpoint>
            <Time>2018-12-30T13:16:11.000Z</Time>
            <Position>
              <LatitudeDegrees>40.7561299391090869903564453125</LatitudeDegrees>
              <LongitudeDegrees>-4.08944665454328060150146484375</LongitudeDegrees>
            </Position>
            <AltitudeMeters>1727.5999755859375</AltitudeMeters>
            <DistanceMeters>NAN</DistanceMeters>
          </Trackpoint>
          <Trackpoint>
            <Time>2018-12-30T13:16:12.000Z</Time>
            <Position>
              <LatitudeDegrees>40.75612147338688373565673828125</LatitudeDegrees>
              <LongitudeDegrees>-4.0894608199596405029296875</LongitudeDegrees>
            </Position>
            <AltitudeMeters>1727.5999755859375</AltitudeMeters>
            <DistanceMeters>NAN</DistanceMeters>
          </Trackpoint>
          <Trackpoint>
            <Time>2018-12-30T13:16:13.000Z</Time>
            <Position>
              <LatitudeDegrees>40.7561101578176021575927734375</LatitudeDegrees>
              <LongitudeDegrees>-4.08947297371923923492431640625</LongitudeDegrees>
            </Position>
            <AltitudeMeters>1727.5999755859375</AltitudeMeters>
            <DistanceMeters>NAN</DistanceMeters>
          </Trackpoint>
          <Trackpoint>
            <Time>2018-12-30T13:16:14.000Z</Time>
            <Position>
              <LatitudeDegrees>40.75610051862895488739013671875</LatitudeDegrees>
              <LongitudeDegrees>-4.089489988982677459716796875</LongitudeDegrees>
            </Position>
            <AltitudeMeters>1727.4000244140625</AltitudeMeters>
            <DistanceMeters>NAN</DistanceMeters>
          </Trackpoint>
          <Trackpoint>
            <Time>2018-12-30T13:16:15.000Z</Time>
            <Position>
              <LatitudeDegrees>40.75608492828905582427978515625</LatitudeDegrees>
              <LongitudeDegrees>-4.08950113691389560699462890625</LongitudeDegrees>
            </Position>
            <AltitudeMeters>1727.199951171875</AltitudeMeters>
            <DistanceMeters>NAN</DistanceMeters>
          </Trackpoint>
          <Trackpoint>
            <Time>2018-12-30T13:16:16.000Z</Time>
            <Position>
              <LatitudeDegrees>40.756071098148822784423828125</LatitudeDegrees>
              <LongitudeDegrees>-4.089507423341274261474609375</LongitudeDegrees>
            </Position>
            <AltitudeMeters>1727</AltitudeMeters>
            <DistanceMeters>NAN</DistanceMeters>
          </Trackpoint>
          <Trackpoint>
            <Time>2018-12-30T13:16:17.000Z</Time>
            <Position>
              <LatitudeDegrees>40.75606011785566806793212890625</LatitudeDegrees>
              <LongitudeDegrees>-4.08951572142541408538818359375</LongitudeDegrees>
            </Position>
            <AltitudeMeters>1726.800048828125</AltitudeMeters>
            <DistanceMeters>NAN</DistanceMeters>
          </Trackpoint>
          <Trackpoint>
            <Time>2018-12-30T13:16:18.000Z</Time>
            <Position>
              <LatitudeDegrees>40.756050646305084228515625</LatitudeDegrees>
              <LongitudeDegrees>-4.08952980302274227142333984375</LongitudeDegrees>
            </Position>
            <AltitudeMeters>1726.800048828125</AltitudeMeters>
            <DistanceMeters>NAN</DistanceMeters>
          </Trackpoint>
          <Trackpoint>
            <Time>2018-12-30T13:16:19.000Z</Time>
            <Position>
              <LatitudeDegrees>40.7560390792787075042724609375</LatitudeDegrees>
              <LongitudeDegrees>-4.08954690210521221160888671875</LongitudeDegrees>
            </Position>
            <AltitudeMeters>1726.5999755859375</AltitudeMeters>
            <DistanceMeters>NAN</DistanceMeters>
          </Trackpoint>
          <Trackpoint>
            <Time>2018-12-30T13:16:20.000Z</Time>
            <Position>
              <LatitudeDegrees>40.7560296915471553802490234375</LatitudeDegrees>
              <LongitudeDegrees>-4.08956366591155529022216796875</LongitudeDegrees>
            </Position>
            <AltitudeMeters>1726.5999755859375</AltitudeMeters>
            <DistanceMeters>NAN</DistanceMeters>
          </Trackpoint>
          <Trackpoint>
            <Time>2018-12-30T13:16:21.000Z</Time>
            <Position>
              <LatitudeDegrees>40.7560236565768718719482421875</LatitudeDegrees>
              <LongitudeDegrees>-4.08958353102207183837890625</LongitudeDegrees>
            </Position>
            <AltitudeMeters>1726.5999755859375</AltitudeMeters>
            <DistanceMeters>NAN</DistanceMeters>
          </Trackpoint>
          <Trackpoint>
            <Time>2018-12-30T13:16:22.000Z</Time>
            <Position>
              <LatitudeDegrees>40.75602089054882526397705078125</LatitudeDegrees>
              <LongitudeDegrees>-4.08960842527449131011962890625</LongitudeDegrees>
            </Position>
            <AltitudeMeters>1726.5999755859375</AltitudeMeters>
            <DistanceMeters>NAN</DistanceMeters>
          </Trackpoint>
          <Trackpoint>
            <Time>2018-12-30T13:16:23.000Z</Time>
            <Position>
              <LatitudeDegrees>40.756007395684719085693359375</LatitudeDegrees>
              <LongitudeDegrees>-4.08961948938667774200439453125</LongitudeDegrees>
            </Position>
            <AltitudeMeters>1726.4000244140625</AltitudeMeters>
            <DistanceMeters>NAN</DistanceMeters>
          </Trackpoint>
          <Trackpoint>
            <Time>2018-12-30T13:16:24.000Z</Time>
            <Position>
              <LatitudeDegrees>40.75599591247737407684326171875</LatitudeDegrees>
              <LongitudeDegrees>-4.08962971530854701995849609375</LongitudeDegrees>
            </Position>
            <AltitudeMeters>1726.4000244140625</AltitudeMeters>
            <DistanceMeters>NAN</DistanceMeters>
          </Trackpoint>
          <Trackpoint>
            <Time>2018-12-30T13:16:25.000Z</Time>
            <Position>
              <LatitudeDegrees>40.755985267460346221923828125</LatitudeDegrees>
              <LongitudeDegrees>-4.08964379690587520599365234375</LongitudeDegrees>
            </Position>
            <AltitudeMeters>1726.199951171875</AltitudeMeters>
            <DistanceMeters>NAN</DistanceMeters>
          </Trackpoint>
          <Trackpoint>
            <Time>2018-12-30T13:16:26.000Z</Time>
            <Position>
              <LatitudeDegrees>40.75597596354782581329345703125</LatitudeDegrees>
              <LongitudeDegrees>-4.0896541066467761993408203125</LongitudeDegrees>
            </Position>
            <AltitudeMeters>1726.199951171875</AltitudeMeters>
            <DistanceMeters>NAN</DistanceMeters>
          </Trackpoint>
          <Trackpoint>
            <Time>2018-12-30T13:16:27.000Z</Time>
            <Position>
              <LatitudeDegrees>40.75596640817821025848388671875</LatitudeDegrees>
              <LongitudeDegrees>-4.08966877497732639312744140625</LongitudeDegrees>
            </Position>
            <AltitudeMeters>1726.199951171875</AltitudeMeters>
            <DistanceMeters>NAN</DistanceMeters>
          </Trackpoint>
          <Trackpoint>
            <Time>2018-12-30T13:16:28.000Z</Time>
            <Position>
              <LatitudeDegrees>40.75595903210341930389404296875</LatitudeDegrees>
              <LongitudeDegrees>-4.0896836109459400177001953125</LongitudeDegrees>
            </Position>
            <AltitudeMeters>1725.800048828125</AltitudeMeters>
            <DistanceMeters>NAN</DistanceMeters>
          </Trackpoint>
          <Trackpoint>
            <Time>2018-12-30T13:16:29.000Z</Time>
            <Position>
              <LatitudeDegrees>40.75595199130475521087646484375</LatitudeDegrees>
              <LongitudeDegrees>-4.08970280550420284271240234375</LongitudeDegrees>
            </Position>
            <AltitudeMeters>1725.800048828125</AltitudeMeters>
            <DistanceMeters>NAN</DistanceMeters>
          </Trackpoint>
          <Trackpoint>
            <Time>2018-12-30T13:16:30.000Z</Time>
            <Position>
              <LatitudeDegrees>40.7559438608586788177490234375</LatitudeDegrees>
              <LongitudeDegrees>-4.0897208265960216522216796875</LongitudeDegrees>
            </Position>
            <AltitudeMeters>1725.800048828125</AltitudeMeters>
            <DistanceMeters>NAN</DistanceMeters>
          </Trackpoint>
          <Trackpoint>
            <Time>2018-12-30T13:16:31.000Z</Time>
            <Position>
              <LatitudeDegrees>40.7559324614703655242919921875</LatitudeDegrees>
              <LongitudeDegrees>-4.0897357463836669921875</LongitudeDegrees>
            </Position>
            <AltitudeMeters>1725.5999755859375</AltitudeMeters>
            <DistanceMeters>NAN</DistanceMeters>
          </Trackpoint>
          <Trackpoint>
            <Time>2018-12-30T13:16:32.000Z</Time>
            <Position>
              <LatitudeDegrees>40.75592382811009883880615234375</LatitudeDegrees>
              <LongitudeDegrees>-4.089750833809375762939453125</LongitudeDegrees>
            </Position>
            <AltitudeMeters>1725.800048828125</AltitudeMeters>
            <DistanceMeters>NAN</DistanceMeters>
          </Trackpoint>
          <Trackpoint>
            <Time>2018-12-30T13:16:33.000Z</Time>
            <Position>
              <LatitudeDegrees>40.7559140212833881378173828125</LatitudeDegrees>
              <LongitudeDegrees>-4.089759550988674163818359375</LongitudeDegrees>
            </Position>
            <AltitudeMeters>1725.800048828125</AltitudeMeters>
            <DistanceMeters>NAN</DistanceMeters>
          </Trackpoint>
          <Trackpoint>
            <Time>2018-12-30T13:16:34.000Z</Time>
            <Position>
              <LatitudeDegrees>40.755909495055675506591796875</LatitudeDegrees>
              <LongitudeDegrees>-4.08977254293859004974365234375</LongitudeDegrees>
            </Position>
            <AltitudeMeters>1726</AltitudeMeters>
            <DistanceMeters>NAN</DistanceMeters>
          </Trackpoint>
          <Trackpoint>
            <Time>2018-12-30T13:16:35.000Z</Time>
            <Position>
              <LatitudeDegrees>40.75590069405734539031982421875</LatitudeDegrees>
              <LongitudeDegrees>-4.08978645689785480499267578125</LongitudeDegrees>
            </Position>
            <AltitudeMeters>1726</AltitudeMeters>
            <DistanceMeters>NAN</DistanceMeters>
          </Trackpoint>
          <Trackpoint>
            <Time>2018-12-30T13:16:36.000Z</Time>
            <Position>
              <LatitudeDegrees>40.75589348562061786651611328125</LatitudeDegrees>
              <LongitudeDegrees>-4.0898022986948490142822265625</LongitudeDegrees>
            </Position>
            <AltitudeMeters>1725.5999755859375</AltitudeMeters>
            <DistanceMeters>NAN</DistanceMeters>
          </Trackpoint>
          <Trackpoint>
            <Time>2018-12-30T13:16:37.000Z</Time>
            <Position>
              <LatitudeDegrees>40.75588661246001720428466796875</LatitudeDegrees>
              <LongitudeDegrees>-4.08981981687247753143310546875</LongitudeDegrees>
            </Position>
            <AltitudeMeters>1725.4000244140625</AltitudeMeters>
            <DistanceMeters>NAN</DistanceMeters>
          </Trackpoint>
          <Trackpoint>
            <Time>2018-12-30T13:16:38.000Z</Time>
            <Position>
              <LatitudeDegrees>40.7558814994990825653076171875</LatitudeDegrees>
              <LongitudeDegrees>-4.08983842469751834869384765625</LongitudeDegrees>
            </Position>
            <AltitudeMeters>1725.199951171875</AltitudeMeters>
            <DistanceMeters>NAN</DistanceMeters>
          </Trackpoint>
          <Trackpoint>
            <Time>2018-12-30T13:16:39.000Z</Time>
            <Position>
              <LatitudeDegrees>40.75587336905300617218017578125</LatitudeDegrees>
              <LongitudeDegrees>-4.08985284157097339630126953125</LongitudeDegrees>
            </Position>
            <AltitudeMeters>1725</AltitudeMeters>
            <DistanceMeters>NAN</DistanceMeters>
          </Trackpoint>
          <Trackpoint>
            <Time>2018-12-30T13:16:40.000Z</Time>
            <Position>
              <LatitudeDegrees>40.7558637298643589019775390625</LatitudeDegrees>
              <LongitudeDegrees>-4.08986742608249187469482421875</LongitudeDegrees>
            </Position>
            <AltitudeMeters>1725</AltitudeMeters>
            <DistanceMeters>NAN</DistanceMeters>
          </Trackpoint>
          <Trackpoint>
            <Time>2018-12-30T13:16:41.000Z</Time>
            <Position>
              <LatitudeDegrees>40.755856521427631378173828125</LatitudeDegrees>
              <LongitudeDegrees>-4.0898827649652957916259765625</LongitudeDegrees>
            </Position>
            <AltitudeMeters>1724.800048828125</AltitudeMeters>
            <DistanceMeters>NAN</DistanceMeters>
          </Trackpoint>
          <Trackpoint>
            <Time>2018-12-30T13:16:42.000Z</Time>
            <Position>
              <LatitudeDegrees>40.755847804248332977294921875</LatitudeDegrees>
              <LongitudeDegrees>-4.08989869058132171630859375</LongitudeDegrees>
            </Position>
            <AltitudeMeters>1724.800048828125</AltitudeMeters>
            <DistanceMeters>NAN</DistanceMeters>
          </Trackpoint>
          <Trackpoint>
            <Time>2018-12-30T13:16:43.000Z</Time>
            <Position>
              <LatitudeDegrees>40.75583933852612972259521484375</LatitudeDegrees>
              <LongitudeDegrees>-4.08991453237831592559814453125</LongitudeDegrees>
            </Position>
            <AltitudeMeters>1724.800048828125</AltitudeMeters>
            <DistanceMeters>NAN</DistanceMeters>
          </Trackpoint>
          <Trackpoint>
            <Time>2018-12-30T13:16:44.000Z</Time>
            <Position>
              <LatitudeDegrees>40.75583003461360931396484375</LatitudeDegrees>
              <LongitudeDegrees>-4.089930541813373565673828125</LongitudeDegrees>
            </Position>
            <AltitudeMeters>1724.800048828125</AltitudeMeters>
            <DistanceMeters>NAN</DistanceMeters>
          </Trackpoint>
          <Trackpoint>
            <Time>2018-12-30T13:16:45.000Z</Time>
            <Position>
              <LatitudeDegrees>40.75581737793982028961181640625</LatitudeDegrees>
              <LongitudeDegrees>-4.0899451263248920440673828125</LongitudeDegrees>
            </Position>
            <AltitudeMeters>1724.800048828125</AltitudeMeters>
            <DistanceMeters>NAN</DistanceMeters>
          </Trackpoint>
          <Trackpoint>
            <Time>2018-12-30T13:16:46.000Z</Time>
            <Position>
              <LatitudeDegrees>40.75580849312245845794677734375</LatitudeDegrees>
              <LongitudeDegrees>-4.0899597108364105224609375</LongitudeDegrees>
            </Position>
            <AltitudeMeters>1724.5999755859375</AltitudeMeters>
            <DistanceMeters>NAN</DistanceMeters>
          </Trackpoint>
          <Trackpoint>
            <Time>2018-12-30T13:16:47.000Z</Time>
            <Position>
              <LatitudeDegrees>40.75579977594316005706787109375</LatitudeDegrees>
              <LongitudeDegrees>-4.0899742953479290008544921875</LongitudeDegrees>
            </Position>
            <AltitudeMeters>1724.5999755859375</AltitudeMeters>
            <DistanceMeters>NAN</DistanceMeters>
          </Trackpoint>
          <Trackpoint>
            <Time>2018-12-30T13:16:48.000Z</Time>
            <Position>
              <LatitudeDegrees>40.75579441152513027191162109375</LatitudeDegrees>
              <LongitudeDegrees>-4.0899865329265594482421875</LongitudeDegrees>
            </Position>
            <AltitudeMeters>1724.5999755859375</AltitudeMeters>
            <DistanceMeters>NAN</DistanceMeters>
          </Trackpoint>
          <Trackpoint>
            <Time>2018-12-30T13:16:49.000Z</Time>
            <Position>
              <LatitudeDegrees>40.7557899691164493560791015625</LatitudeDegrees>
              <LongitudeDegrees>-4.09000103361904621124267578125</LongitudeDegrees>
            </Position>
            <AltitudeMeters>1724.4000244140625</AltitudeMeters>
            <DistanceMeters>NAN</DistanceMeters>
          </Trackpoint>
          <Trackpoint>
            <Time>2018-12-30T13:16:50.000Z</Time>
            <Position>
              <LatitudeDegrees>40.755785442888736724853515625</LatitudeDegrees>
              <LongitudeDegrees>-4.0900212340056896209716796875</LongitudeDegrees>
            </Position>
            <AltitudeMeters>1724.4000244140625</AltitudeMeters>
            <DistanceMeters>NAN</DistanceMeters>
          </Trackpoint>
          <Trackpoint>
            <Time>2018-12-30T13:16:51.000Z</Time>
            <Position>
              <LatitudeDegrees>40.7557795755565166473388671875</LatitudeDegrees>
              <LongitudeDegrees>-4.09004059620201587677001953125</LongitudeDegrees>
            </Position>
            <AltitudeMeters>1724.4000244140625</AltitudeMeters>
            <DistanceMeters>NAN</DistanceMeters>
          </Trackpoint>
          <Trackpoint>
            <Time>2018-12-30T13:16:52.000Z</Time>
            <Position>
              <LatitudeDegrees>40.75577144511044025421142578125</LatitudeDegrees>
              <LongitudeDegrees>-4.09005903638899326324462890625</LongitudeDegrees>
            </Position>
            <AltitudeMeters>1724.4000244140625</AltitudeMeters>
            <DistanceMeters>NAN</DistanceMeters>
          </Trackpoint>
          <Trackpoint>
            <Time>2018-12-30T13:16:53.000Z</Time>
            <Position>
              <LatitudeDegrees>40.7557621411979198455810546875</LatitudeDegrees>
              <LongitudeDegrees>-4.0900755487382411956787109375</LongitudeDegrees>
            </Position>
            <AltitudeMeters>1724.199951171875</AltitudeMeters>
            <DistanceMeters>NAN</DistanceMeters>
          </Trackpoint>
          <Trackpoint>
            <Time>2018-12-30T13:16:54.000Z</Time>
            <Position>
              <LatitudeDegrees>40.75575032271444797515869140625</LatitudeDegrees>
              <LongitudeDegrees>-4.0900929830968379974365234375</LongitudeDegrees>
            </Position>
            <AltitudeMeters>1724.199951171875</AltitudeMeters>
            <DistanceMeters>NAN</DistanceMeters>
          </Trackpoint>
          <Trackpoint>
            <Time>2018-12-30T13:16:55.000Z</Time>
            <Position>
              <LatitudeDegrees>40.75573858805000782012939453125</LatitudeDegrees>
              <LongitudeDegrees>-4.09010848961770534515380859375</LongitudeDegrees>
            </Position>
            <AltitudeMeters>1724.199951171875</AltitudeMeters>
            <DistanceMeters>NAN</DistanceMeters>
          </Trackpoint>
          <Trackpoint>
            <Time>2018-12-30T13:16:56.000Z</Time>
            <Position>
              <LatitudeDegrees>40.75572567991912364959716796875</LatitudeDegrees>
              <LongitudeDegrees>-4.09012307412922382354736328125</LongitudeDegrees>
            </Position>
            <AltitudeMeters>1724</AltitudeMeters>
            <DistanceMeters>NAN</DistanceMeters>
          </Trackpoint>
          <Trackpoint>
            <Time>2018-12-30T13:16:57.000Z</Time>
            <Position>
              <LatitudeDegrees>40.7557182200253009796142578125</LatitudeDegrees>
              <LongitudeDegrees>-4.09013799391686916351318359375</LongitudeDegrees>
            </Position>
            <AltitudeMeters>1723.800048828125</AltitudeMeters>
            <DistanceMeters>NAN</DistanceMeters>
          </Trackpoint>
          <Trackpoint>
            <Time>2018-12-30T13:16:58.000Z</Time>
            <Position>
              <LatitudeDegrees>40.75570573098957538604736328125</LatitudeDegrees>
              <LongitudeDegrees>-4.09014620818197727203369140625</LongitudeDegrees>
            </Position>
            <AltitudeMeters>1723.800048828125</AltitudeMeters>
            <DistanceMeters>NAN</DistanceMeters>
          </Trackpoint>
          <Trackpoint>
            <Time>2018-12-30T13:16:59.000Z</Time>
            <Position>
              <LatitudeDegrees>40.75569332577288150787353515625</LatitudeDegrees>
              <LongitudeDegrees>-4.09015777520835399627685546875</LongitudeDegrees>
            </Position>
            <AltitudeMeters>1723.5999755859375</AltitudeMeters>
            <DistanceMeters>NAN</DistanceMeters>
          </Trackpoint>
          <Trackpoint>
            <Time>2018-12-30T13:17:00.000Z</Time>
            <Position>
              <LatitudeDegrees>40.7556823454797267913818359375</LatitudeDegrees>
              <LongitudeDegrees>-4.09016867168247699737548828125</LongitudeDegrees>
            </Position>
            <AltitudeMeters>1723.5999755859375</AltitudeMeters>
            <DistanceMeters>NAN</DistanceMeters>
          </Trackpoint>
          <Trackpoint>
            <Time>2018-12-30T13:17:01.000Z</Time>
            <Position>
              <LatitudeDegrees>40.7556702755391597747802734375</LatitudeDegrees>
              <LongitudeDegrees>-4.09017856232821941375732421875</LongitudeDegrees>
            </Position>
            <AltitudeMeters>1723.5999755859375</AltitudeMeters>
            <DistanceMeters>NAN</DistanceMeters>
          </Trackpoint>
          <Trackpoint>
            <Time>2018-12-30T13:17:02.000Z</Time>
            <Position>
              <LatitudeDegrees>40.75566063635051250457763671875</LatitudeDegrees>
              <LongitudeDegrees>-4.090192727744579315185546875</LongitudeDegrees>
            </Position>
            <AltitudeMeters>1723.5999755859375</AltitudeMeters>
            <DistanceMeters>NAN</DistanceMeters>
          </Trackpoint>
          <Trackpoint>
            <Time>2018-12-30T13:17:03.000Z</Time>
            <Position>
              <LatitudeDegrees>40.75564789585769176483154296875</LatitudeDegrees>
              <LongitudeDegrees>-4.0902083180844783782958984375</LongitudeDegrees>
            </Position>
            <AltitudeMeters>1723.5999755859375</AltitudeMeters>
            <DistanceMeters>NAN</DistanceMeters>
          </Trackpoint>
          <Trackpoint>
            <Time>2018-12-30T13:17:04.000Z</Time>
            <Position>
              <LatitudeDegrees>40.755636580288410186767578125</LatitudeDegrees>
              <LongitudeDegrees>-4.09021728672087192535400390625</LongitudeDegrees>
            </Position>
            <AltitudeMeters>1723.5999755859375</AltitudeMeters>
            <DistanceMeters>NAN</DistanceMeters>
          </Trackpoint>
          <Trackpoint>
            <Time>2018-12-30T13:17:05.000Z</Time>
            <Position>
              <LatitudeDegrees>40.75562543235719203948974609375</LatitudeDegrees>
              <LongitudeDegrees>-4.09023053012788295745849609375</LongitudeDegrees>
            </Position>
            <AltitudeMeters>1723.5999755859375</AltitudeMeters>
            <DistanceMeters>NAN</DistanceMeters>
          </Trackpoint>
          <Trackpoint>
            <Time>2018-12-30T13:17:06.000Z</Time>
            <Position>
              <LatitudeDegrees>40.75561520643532276153564453125</LatitudeDegrees>
              <LongitudeDegrees>-4.0902465395629405975341796875</LongitudeDegrees>
            </Position>
            <AltitudeMeters>1724</AltitudeMeters>
            <DistanceMeters>NAN</DistanceMeters>
          </Trackpoint>
          <Trackpoint>
            <Time>2018-12-30T13:17:07.000Z</Time>
            <Position>
              <LatitudeDegrees>40.75560648925602436065673828125</LatitudeDegrees>
              <LongitudeDegrees>-4.09026389010250568389892578125</LongitudeDegrees>
            </Position>
            <AltitudeMeters>1724</AltitudeMeters>
            <DistanceMeters>NAN</DistanceMeters>
          </Trackpoint>
          <Trackpoint>
            <Time>2018-12-30T13:17:08.000Z</Time>
            <Position>
              <LatitudeDegrees>40.75559877790510654449462890625</LatitudeDegrees>
              <LongitudeDegrees>-4.090280570089817047119140625</LongitudeDegrees>
            </Position>
            <AltitudeMeters>1724</AltitudeMeters>
            <DistanceMeters>NAN</DistanceMeters>
          </Trackpoint>
          <Trackpoint>
            <Time>2018-12-30T13:17:09.000Z</Time>
            <Position>
              <LatitudeDegrees>40.7555928267538547515869140625</LatitudeDegrees>
              <LongitudeDegrees>-4.09029372967779636383056640625</LongitudeDegrees>
            </Position>
            <AltitudeMeters>1724</AltitudeMeters>
            <DistanceMeters>NAN</DistanceMeters>
          </Trackpoint>
          <Trackpoint>
            <Time>2018-12-30T13:17:10.000Z</Time>
            <Position>
              <LatitudeDegrees>40.75558989308774471282958984375</LatitudeDegrees>
              <LongitudeDegrees>-4.0903132595121860504150390625</LongitudeDegrees>
            </Position>
            <AltitudeMeters>1724</AltitudeMeters>
            <DistanceMeters>NAN</DistanceMeters>
          </Trackpoint>
          <Trackpoint>
            <Time>2018-12-30T13:17:11.000Z</Time>
            <Position>
              <LatitudeDegrees>40.75558000244200229644775390625</LatitudeDegrees>
              <LongitudeDegrees>-4.09032675437629222869873046875</LongitudeDegrees>
            </Position>
            <AltitudeMeters>1724</AltitudeMeters>
            <DistanceMeters>NAN</DistanceMeters>
          </Trackpoint>
          <Trackpoint>
            <Time>2018-12-30T13:17:12.000Z</Time>
            <Position>
              <LatitudeDegrees>40.7555670104920864105224609375</LatitudeDegrees>
              <LongitudeDegrees>-4.09033630974590778350830078125</LongitudeDegrees>
            </Position>
            <AltitudeMeters>1724</AltitudeMeters>
            <DistanceMeters>NAN</DistanceMeters>
          </Trackpoint>
          <Trackpoint>
            <Time>2018-12-30T13:17:13.000Z</Time>
            <Position>
              <LatitudeDegrees>40.75555401854217052459716796875</LatitudeDegrees>
              <LongitudeDegrees>-4.09034720622003078460693359375</LongitudeDegrees>
            </Position>
            <AltitudeMeters>1723.800048828125</AltitudeMeters>
            <DistanceMeters>NAN</DistanceMeters>
          </Trackpoint>
          <Trackpoint>
            <Time>2018-12-30T13:17:14.000Z</Time>
            <Position>
              <LatitudeDegrees>40.75554261915385723114013671875</LatitudeDegrees>
              <LongitudeDegrees>-4.09036145545542240142822265625</LongitudeDegrees>
            </Position>
            <AltitudeMeters>1723.800048828125</AltitudeMeters>
            <DistanceMeters>NAN</DistanceMeters>
          </Trackpoint>
          <Trackpoint>
            <Time>2018-12-30T13:17:15.000Z</Time>
            <Position>
              <LatitudeDegrees>40.755530297756195068359375</LatitudeDegrees>
              <LongitudeDegrees>-4.09037201665341854095458984375</LongitudeDegrees>
            </Position>
            <AltitudeMeters>1723.5999755859375</AltitudeMeters>
            <DistanceMeters>NAN</DistanceMeters>
          </Trackpoint>
          <Trackpoint>
            <Time>2018-12-30T13:17:16.000Z</Time>
            <Position>
              <LatitudeDegrees>40.7555197365581989288330078125</LatitudeDegrees>
              <LongitudeDegrees>-4.09038727171719074249267578125</LongitudeDegrees>
            </Position>
            <AltitudeMeters>1723.5999755859375</AltitudeMeters>
            <DistanceMeters>NAN</DistanceMeters>
          </Trackpoint>
          <Trackpoint>
            <Time>2018-12-30T13:17:17.000Z</Time>
            <Position>
              <LatitudeDegrees>40.7555100135505199432373046875</LatitudeDegrees>
              <LongitudeDegrees>-4.0904004313051700592041015625</LongitudeDegrees>
            </Position>
            <AltitudeMeters>1723.5999755859375</AltitudeMeters>
            <DistanceMeters>NAN</DistanceMeters>
          </Trackpoint>
          <Trackpoint>
            <Time>2018-12-30T13:17:18.000Z</Time>
            <Position>
              <LatitudeDegrees>40.75550205074250698089599609375</LatitudeDegrees>
              <LongitudeDegrees>-4.0904104895889759063720703125</LongitudeDegrees>
            </Position>
            <AltitudeMeters>1723.4000244140625</AltitudeMeters>
            <DistanceMeters>NAN</DistanceMeters>
          </Trackpoint>
          <Trackpoint>
            <Time>2018-12-30T13:17:19.000Z</Time>
            <Position>
              <LatitudeDegrees>40.75549182482063770294189453125</LatitudeDegrees>
              <LongitudeDegrees>-4.09042130224406719207763671875</LongitudeDegrees>
            </Position>
            <AltitudeMeters>1723.4000244140625</AltitudeMeters>
            <DistanceMeters>NAN</DistanceMeters>
          </Trackpoint>
          <Trackpoint>
            <Time>2018-12-30T13:17:20.000Z</Time>
            <Position>
              <LatitudeDegrees>40.75548411346971988677978515625</LatitudeDegrees>
              <LongitudeDegrees>-4.09043689258396625518798828125</LongitudeDegrees>
            </Position>
            <AltitudeMeters>1723.4000244140625</AltitudeMeters>
            <DistanceMeters>NAN</DistanceMeters>
          </Trackpoint>
          <Trackpoint>
            <Time>2018-12-30T13:17:21.000Z</Time>
            <Position>
              <LatitudeDegrees>40.7554768212139606475830078125</LatitudeDegrees>
              <LongitudeDegrees>-4.090453572571277618408203125</LongitudeDegrees>
            </Position>
            <AltitudeMeters>1723.199951171875</AltitudeMeters>
            <DistanceMeters>NAN</DistanceMeters>
          </Trackpoint>
          <Trackpoint>
            <Time>2018-12-30T13:17:22.000Z</Time>
            <Position>
              <LatitudeDegrees>40.7554694451391696929931640625</LatitudeDegrees>
              <LongitudeDegrees>-4.09046958200633525848388671875</LongitudeDegrees>
            </Position>
            <AltitudeMeters>1723.199951171875</AltitudeMeters>
            <DistanceMeters>NAN</DistanceMeters>
          </Trackpoint>
          <Trackpoint>
            <Time>2018-12-30T13:17:23.000Z</Time>
            <Position>
              <LatitudeDegrees>40.75546550564467906951904296875</LatitudeDegrees>
              <LongitudeDegrees>-4.09048718400299549102783203125</LongitudeDegrees>
            </Position>
            <AltitudeMeters>1723.199951171875</AltitudeMeters>
            <DistanceMeters>NAN</DistanceMeters>
          </Trackpoint>
          <Trackpoint>
            <Time>2018-12-30T13:17:24.000Z</Time>
            <Position>
              <LatitudeDegrees>40.755454860627651214599609375</LatitudeDegrees>
              <LongitudeDegrees>-4.09049942158162593841552734375</LongitudeDegrees>
            </Position>
            <AltitudeMeters>1723.199951171875</AltitudeMeters>
            <DistanceMeters>NAN</DistanceMeters>
          </Trackpoint>
          <Trackpoint>
            <Time>2018-12-30T13:17:25.000Z</Time>
            <Position>
              <LatitudeDegrees>40.75544522143900394439697265625</LatitudeDegrees>
              <LongitudeDegrees>-4.0905154310166835784912109375</LongitudeDegrees>
            </Position>
            <AltitudeMeters>1723</AltitudeMeters>
            <DistanceMeters>NAN</DistanceMeters>
          </Trackpoint>
          <Trackpoint>
            <Time>2018-12-30T13:17:26.000Z</Time>
            <Position>
              <LatitudeDegrees>40.755435414612293243408203125</LatitudeDegrees>
              <LongitudeDegrees>-4.0905283391475677490234375</LongitudeDegrees>
            </Position>
            <AltitudeMeters>1722.800048828125</AltitudeMeters>
            <DistanceMeters>NAN</DistanceMeters>
          </Trackpoint>
          <Trackpoint>
            <Time>2018-12-30T13:17:27.000Z</Time>
            <Position>
              <LatitudeDegrees>40.75542770326137542724609375</LatitudeDegrees>
              <LongitudeDegrees>-4.09054418094456195831298828125</LongitudeDegrees>
            </Position>
            <AltitudeMeters>1722.5999755859375</AltitudeMeters>
            <DistanceMeters>NAN</DistanceMeters>
          </Trackpoint>
          <Trackpoint>
            <Time>2018-12-30T13:17:28.000Z</Time>
            <Position>
              <LatitudeDegrees>40.755423344671726226806640625</LatitudeDegrees>
              <LongitudeDegrees>-4.0905596874654293060302734375</LongitudeDegrees>
            </Position>
            <AltitudeMeters>1722.4000244140625</AltitudeMeters>
            <DistanceMeters>NAN</DistanceMeters>
          </Trackpoint>
          <Trackpoint>
            <Time>2018-12-30T13:17:29.000Z</Time>
            <Position>
              <LatitudeDegrees>40.755419321358203887939453125</LatitudeDegrees>
              <LongitudeDegrees>-4.09058206714689731597900390625</LongitudeDegrees>
            </Position>
            <AltitudeMeters>1722.199951171875</AltitudeMeters>
            <DistanceMeters>NAN</DistanceMeters>
          </Trackpoint>
          <Trackpoint>
            <Time>2018-12-30T13:17:30.000Z</Time>
            <Position>
              <LatitudeDegrees>40.7554124481976032257080078125</LatitudeDegrees>
              <LongitudeDegrees>-4.09060453064739704132080078125</LongitudeDegrees>
            </Position>
            <AltitudeMeters>1722.199951171875</AltitudeMeters>
            <DistanceMeters>NAN</DistanceMeters>
          </Trackpoint>
          <Trackpoint>
            <Time>2018-12-30T13:17:31.000Z</Time>
            <Position>
              <LatitudeDegrees>40.755406580865383148193359375</LatitudeDegrees>
              <LongitudeDegrees>-4.09062397666275501251220703125</LongitudeDegrees>
            </Position>
            <AltitudeMeters>1722</AltitudeMeters>
            <DistanceMeters>NAN</DistanceMeters>
          </Trackpoint>
          <Trackpoint>
            <Time>2018-12-30T13:17:32.000Z</Time>
            <Position>
              <LatitudeDegrees>40.75539928860962390899658203125</LatitudeDegrees>
              <LongitudeDegrees>-4.09064434468746185302734375</LongitudeDegrees>
            </Position>
            <AltitudeMeters>1722</AltitudeMeters>
            <DistanceMeters>NAN</DistanceMeters>
          </Trackpoint>
          <Trackpoint>
            <Time>2018-12-30T13:17:33.000Z</Time>
            <Position>
              <LatitudeDegrees>40.755390487611293792724609375</LatitudeDegrees>
              <LongitudeDegrees>-4.0906632877886295318603515625</LongitudeDegrees>
            </Position>
            <AltitudeMeters>1721.800048828125</AltitudeMeters>
            <DistanceMeters>NAN</DistanceMeters>
          </Trackpoint>
          <Trackpoint>
            <Time>2018-12-30T13:17:34.000Z</Time>
            <Position>
              <LatitudeDegrees>40.75538537465035915374755859375</LatitudeDegrees>
              <LongitudeDegrees>-4.090680889785289764404296875</LongitudeDegrees>
            </Position>
            <AltitudeMeters>1721.800048828125</AltitudeMeters>
            <DistanceMeters>NAN</DistanceMeters>
          </Trackpoint>
          <Trackpoint>
            <Time>2018-12-30T13:17:35.000Z</Time>
            <Position>
              <LatitudeDegrees>40.7553805969655513763427734375</LatitudeDegrees>
              <LongitudeDegrees>-4.09069790504872798919677734375</LongitudeDegrees>
            </Position>
            <AltitudeMeters>1721.5999755859375</AltitudeMeters>
            <DistanceMeters>NAN</DistanceMeters>
          </Trackpoint>
          <Trackpoint>
            <Time>2018-12-30T13:17:36.000Z</Time>
            <Position>
              <LatitudeDegrees>40.75537112541496753692626953125</LatitudeDegrees>
              <LongitudeDegrees>-4.0907162614166736602783203125</LongitudeDegrees>
            </Position>
            <AltitudeMeters>1721.5999755859375</AltitudeMeters>
            <DistanceMeters>NAN</DistanceMeters>
          </Trackpoint>
          <Trackpoint>
            <Time>2018-12-30T13:17:37.000Z</Time>
            <Position>
              <LatitudeDegrees>40.75536291114985942840576171875</LatitudeDegrees>
              <LongitudeDegrees>-4.0907350368797779083251953125</LongitudeDegrees>
            </Position>
            <AltitudeMeters>1721.5999755859375</AltitudeMeters>
            <DistanceMeters>NAN</DistanceMeters>
          </Trackpoint>
          <Trackpoint>
            <Time>2018-12-30T13:17:38.000Z</Time>
            <Position>
              <LatitudeDegrees>40.75535050593316555023193359375</LatitudeDegrees>
              <LongitudeDegrees>-4.0907504595816135406494140625</LongitudeDegrees>
            </Position>
            <AltitudeMeters>1721.4000244140625</AltitudeMeters>
            <DistanceMeters>NAN</DistanceMeters>
          </Trackpoint>
          <Trackpoint>
            <Time>2018-12-30T13:17:39.000Z</Time>
            <Position>
              <LatitudeDegrees>40.75534028001129627227783203125</LatitudeDegrees>
              <LongitudeDegrees>-4.09076713956892490386962890625</LongitudeDegrees>
            </Position>
            <AltitudeMeters>1721.4000244140625</AltitudeMeters>
            <DistanceMeters>NAN</DistanceMeters>
          </Trackpoint>
          <Trackpoint>
            <Time>2018-12-30T13:17:40.000Z</Time>
            <Position>
              <LatitudeDegrees>40.755329467356204986572265625</LatitudeDegrees>
              <LongitudeDegrees>-4.09077870659530162811279296875</LongitudeDegrees>
            </Position>
            <AltitudeMeters>1721.4000244140625</AltitudeMeters>
            <DistanceMeters>NAN</DistanceMeters>
          </Trackpoint>
          <Trackpoint>
            <Time>2018-12-30T13:17:41.000Z</Time>
            <Position>
              <LatitudeDegrees>40.755321420729160308837890625</LatitudeDegrees>
              <LongitudeDegrees>-4.09079412929713726043701171875</LongitudeDegrees>
            </Position>
            <AltitudeMeters>1721.4000244140625</AltitudeMeters>
            <DistanceMeters>NAN</DistanceMeters>
          </Trackpoint>
          <Trackpoint>
            <Time>2018-12-30T13:17:42.000Z</Time>
            <Position>
              <LatitudeDegrees>40.75531429611146450042724609375</LatitudeDegrees>
              <LongitudeDegrees>-4.09081055782735347747802734375</LongitudeDegrees>
            </Position>
            <AltitudeMeters>1721</AltitudeMeters>
            <DistanceMeters>NAN</DistanceMeters>
          </Trackpoint>
          <Trackpoint>
            <Time>2018-12-30T13:17:43.000Z</Time>
            <Position>
              <LatitudeDegrees>40.75530834496021270751953125</LatitudeDegrees>
              <LongitudeDegrees>-4.09082665108144283294677734375</LongitudeDegrees>
            </Position>
            <AltitudeMeters>1721</AltitudeMeters>
            <DistanceMeters>NAN</DistanceMeters>
          </Trackpoint>
          <Trackpoint>
            <Time>2018-12-30T13:17:44.000Z</Time>
            <Position>
              <LatitudeDegrees>40.75529853813350200653076171875</LatitudeDegrees>
              <LongitudeDegrees>-4.09084090031683444976806640625</LongitudeDegrees>
            </Position>
            <AltitudeMeters>1721</AltitudeMeters>
            <DistanceMeters>NAN</DistanceMeters>
          </Trackpoint>
          <Trackpoint>
            <Time>2018-12-30T13:17:45.000Z</Time>
            <Position>
              <LatitudeDegrees>40.75529300607740879058837890625</LatitudeDegrees>
              <LongitudeDegrees>-4.09085380844771862030029296875</LongitudeDegrees>
            </Position>
            <AltitudeMeters>1720.800048828125</AltitudeMeters>
            <DistanceMeters>NAN</DistanceMeters>
          </Trackpoint>
          <Trackpoint>
            <Time>2018-12-30T13:17:46.000Z</Time>
            <Position>
              <LatitudeDegrees>40.75528864748775959014892578125</LatitudeDegrees>
              <LongitudeDegrees>-4.0908662974834442138671875</LongitudeDegrees>
            </Position>
            <AltitudeMeters>1720.5999755859375</AltitudeMeters>
            <DistanceMeters>NAN</DistanceMeters>
          </Trackpoint>
          <Trackpoint>
            <Time>2018-12-30T13:17:47.000Z</Time>
            <Position>
              <LatitudeDegrees>40.75527842156589031219482421875</LatitudeDegrees>
              <LongitudeDegrees>-4.09087677486240863800048828125</LongitudeDegrees>
            </Position>
            <AltitudeMeters>1720.5999755859375</AltitudeMeters>
            <DistanceMeters>NAN</DistanceMeters>
          </Trackpoint>
          <Trackpoint>
            <Time>2018-12-30T13:17:48.000Z</Time>
            <Position>
              <LatitudeDegrees>40.75526601634919643402099609375</LatitudeDegrees>
              <LongitudeDegrees>-4.09088666550815105438232421875</LongitudeDegrees>
            </Position>
            <AltitudeMeters>1720.5999755859375</AltitudeMeters>
            <DistanceMeters>NAN</DistanceMeters>
          </Trackpoint>
          <Trackpoint>
            <Time>2018-12-30T13:17:49.000Z</Time>
            <Position>
              <LatitudeDegrees>40.755256377160549163818359375</LatitudeDegrees>
              <LongitudeDegrees>-4.0908983163535594940185546875</LongitudeDegrees>
            </Position>
            <AltitudeMeters>1720.4000244140625</AltitudeMeters>
            <DistanceMeters>NAN</DistanceMeters>
          </Trackpoint>
          <Trackpoint>
            <Time>2018-12-30T13:17:50.000Z</Time>
            <Position>
              <LatitudeDegrees>40.75525042600929737091064453125</LatitudeDegrees>
              <LongitudeDegrees>-4.09091390669345855712890625</LongitudeDegrees>
            </Position>
            <AltitudeMeters>1720.4000244140625</AltitudeMeters>
            <DistanceMeters>NAN</DistanceMeters>
          </Trackpoint>
          <Trackpoint>
            <Time>2018-12-30T13:17:51.000Z</Time>
            <Position>
              <LatitudeDegrees>40.75524254702031612396240234375</LatitudeDegrees>
              <LongitudeDegrees>-4.0909308381378650665283203125</LongitudeDegrees>
            </Position>
            <AltitudeMeters>1720.4000244140625</AltitudeMeters>
            <DistanceMeters>NAN</DistanceMeters>
          </Trackpoint>
          <Trackpoint>
            <Time>2018-12-30T13:17:52.000Z</Time>
            <Position>
              <LatitudeDegrees>40.75523148290812969207763671875</LatitudeDegrees>
              <LongitudeDegrees>-4.09094885922968387603759765625</LongitudeDegrees>
            </Position>
            <AltitudeMeters>1720.199951171875</AltitudeMeters>
            <DistanceMeters>NAN</DistanceMeters>
          </Trackpoint>
          <Trackpoint>
            <Time>2018-12-30T13:17:53.000Z</Time>
            <Position>
              <LatitudeDegrees>40.7552196644246578216552734375</LatitudeDegrees>
              <LongitudeDegrees>-4.090962521731853485107421875</LongitudeDegrees>
            </Position>
            <AltitudeMeters>1720.199951171875</AltitudeMeters>
            <DistanceMeters>NAN</DistanceMeters>
          </Trackpoint>
          <Trackpoint>
            <Time>2018-12-30T13:17:54.000Z</Time>
            <Position>
              <LatitudeDegrees>40.75520616956055164337158203125</LatitudeDegrees>
              <LongitudeDegrees>-4.09097559750080108642578125</LongitudeDegrees>
            </Position>
            <AltitudeMeters>1720</AltitudeMeters>
            <DistanceMeters>NAN</DistanceMeters>
          </Trackpoint>
          <Trackpoint>
            <Time>2018-12-30T13:17:55.000Z</Time>
            <Position>
              <LatitudeDegrees>40.75519292615354061126708984375</LatitudeDegrees>
              <LongitudeDegrees>-4.0909869968891143798828125</LongitudeDegrees>
            </Position>
            <AltitudeMeters>1719.800048828125</AltitudeMeters>
            <DistanceMeters>NAN</DistanceMeters>
          </Trackpoint>
          <Trackpoint>
            <Time>2018-12-30T13:17:56.000Z</Time>
            <Position>
              <LatitudeDegrees>40.7551858015358448028564453125</LatitudeDegrees>
              <LongitudeDegrees>-4.09100166521966457366943359375</LongitudeDegrees>
            </Position>
            <AltitudeMeters>1719.5999755859375</AltitudeMeters>
            <DistanceMeters>NAN</DistanceMeters>
          </Trackpoint>
          <Trackpoint>
            <Time>2018-12-30T13:17:57.000Z</Time>
            <Position>
              <LatitudeDegrees>40.75517867691814899444580078125</LatitudeDegrees>
              <LongitudeDegrees>-4.091015495359897613525390625</LongitudeDegrees>
            </Position>
            <AltitudeMeters>1719.5999755859375</AltitudeMeters>
            <DistanceMeters>NAN</DistanceMeters>
          </Trackpoint>
          <Trackpoint>
            <Time>2018-12-30T13:17:58.000Z</Time>
            <Position>
              <LatitudeDegrees>40.75516861863434314727783203125</LatitudeDegrees>
              <LongitudeDegrees>-4.09103066660463809967041015625</LongitudeDegrees>
            </Position>
            <AltitudeMeters>1719.199951171875</AltitudeMeters>
            <DistanceMeters>NAN</DistanceMeters>
          </Trackpoint>
          <Trackpoint>
            <Time>2018-12-30T13:17:59.000Z</Time>
            <Position>
              <LatitudeDegrees>40.75516191311180591583251953125</LatitudeDegrees>
              <LongitudeDegrees>-4.0910431556403636932373046875</LongitudeDegrees>
            </Position>
            <AltitudeMeters>1719.199951171875</AltitudeMeters>
            <DistanceMeters>NAN</DistanceMeters>
          </Trackpoint>
          <Trackpoint>
            <Time>2018-12-30T13:18:00.000Z</Time>
            <Position>
              <LatitudeDegrees>40.7551526091992855072021484375</LatitudeDegrees>
              <LongitudeDegrees>-4.09105874598026275634765625</LongitudeDegrees>
            </Position>
            <AltitudeMeters>1719.199951171875</AltitudeMeters>
            <DistanceMeters>NAN</DistanceMeters>
          </Trackpoint>
          <Trackpoint>
            <Time>2018-12-30T13:18:01.000Z</Time>
            <Position>
              <LatitudeDegrees>40.755144394934177398681640625</LatitudeDegrees>
              <LongitudeDegrees>-4.0910728275775909423828125</LongitudeDegrees>
            </Position>
            <AltitudeMeters>1719.199951171875</AltitudeMeters>
            <DistanceMeters>NAN</DistanceMeters>
          </Trackpoint>
          <Trackpoint>
            <Time>2018-12-30T13:18:02.000Z</Time>
            <Position>
              <LatitudeDegrees>40.75513676740229129791259765625</LatitudeDegrees>
              <LongitudeDegrees>-4.09108783118426799774169921875</LongitudeDegrees>
            </Position>
            <AltitudeMeters>1719</AltitudeMeters>
            <DistanceMeters>NAN</DistanceMeters>
          </Trackpoint>
          <Trackpoint>
            <Time>2018-12-30T13:18:03.000Z</Time>
            <Position>
              <LatitudeDegrees>40.755135677754878997802734375</LatitudeDegrees>
              <LongitudeDegrees>-4.0911031700670719146728515625</LongitudeDegrees>
            </Position>
            <AltitudeMeters>1719</AltitudeMeters>
            <DistanceMeters>NAN</DistanceMeters>
          </Trackpoint>
          <Trackpoint>
            <Time>2018-12-30T13:18:04.000Z</Time>
            <Position>
              <LatitudeDegrees>40.7551291398704051971435546875</LatitudeDegrees>
              <LongitudeDegrees>-4.0911199338734149932861328125</LongitudeDegrees>
            </Position>
            <AltitudeMeters>1718.5999755859375</AltitudeMeters>
            <DistanceMeters>NAN</DistanceMeters>
          </Trackpoint>
          <Trackpoint>
            <Time>2018-12-30T13:18:05.000Z</Time>
            <Position>
              <LatitudeDegrees>40.75512017123401165008544921875</LatitudeDegrees>
              <LongitudeDegrees>-4.0911346860229969024658203125</LongitudeDegrees>
            </Position>
            <AltitudeMeters>1718.4000244140625</AltitudeMeters>
            <DistanceMeters>NAN</DistanceMeters>
          </Trackpoint>
          <Trackpoint>
            <Time>2018-12-30T13:18:06.000Z</Time>
            <Position>
              <LatitudeDegrees>40.75511195696890354156494140625</LatitudeDegrees>
              <LongitudeDegrees>-4.0911504440009593963623046875</LongitudeDegrees>
            </Position>
            <AltitudeMeters>1718</AltitudeMeters>
            <DistanceMeters>NAN</DistanceMeters>
          </Trackpoint>
          <Trackpoint>
            <Time>2018-12-30T13:18:07.000Z</Time>
            <Position>
              <LatitudeDegrees>40.75510089285671710968017578125</LatitudeDegrees>
              <LongitudeDegrees>-4.09116159193217754364013671875</LongitudeDegrees>
            </Position>
            <AltitudeMeters>1718</AltitudeMeters>
            <DistanceMeters>NAN</DistanceMeters>
          </Trackpoint>
          <Trackpoint>
            <Time>2018-12-30T13:18:08.000Z</Time>
            <Position>
              <LatitudeDegrees>40.7550917565822601318359375</LatitudeDegrees>
              <LongitudeDegrees>-4.09117483533918857574462890625</LongitudeDegrees>
            </Position>
            <AltitudeMeters>1718</AltitudeMeters>
            <DistanceMeters>NAN</DistanceMeters>
          </Trackpoint>
          <Trackpoint>
            <Time>2018-12-30T13:18:09.000Z</Time>
            <Position>
              <LatitudeDegrees>40.7550838775932788848876953125</LatitudeDegrees>
              <LongitudeDegrees>-4.09118992276489734649658203125</LongitudeDegrees>
            </Position>
            <AltitudeMeters>1718</AltitudeMeters>
            <DistanceMeters>NAN</DistanceMeters>
          </Trackpoint>
          <Trackpoint>
            <Time>2018-12-30T13:18:10.000Z</Time>
            <Position>
              <LatitudeDegrees>40.75507356785237789154052734375</LatitudeDegrees>
              <LongitudeDegrees>-4.09120417200028896331787109375</LongitudeDegrees>
            </Position>
            <AltitudeMeters>1718</AltitudeMeters>
            <DistanceMeters>NAN</DistanceMeters>
          </Trackpoint>
          <Trackpoint>
            <Time>2018-12-30T13:18:11.000Z</Time>
            <Position>
              <LatitudeDegrees>40.7550614140927791595458984375</LatitudeDegrees>
              <LongitudeDegrees>-4.091215990483760833740234375</LongitudeDegrees>
            </Position>
            <AltitudeMeters>1717.800048828125</AltitudeMeters>
            <DistanceMeters>NAN</DistanceMeters>
          </Trackpoint>
          <Trackpoint>
            <Time>2018-12-30T13:18:12.000Z</Time>
            <Position>
              <LatitudeDegrees>40.7550513558089733123779296875</LatitudeDegrees>
              <LongitudeDegrees>-4.09122579731047153472900390625</LongitudeDegrees>
            </Position>
            <AltitudeMeters>1717.800048828125</AltitudeMeters>
            <DistanceMeters>NAN</DistanceMeters>
          </Trackpoint>
          <Trackpoint>
            <Time>2018-12-30T13:18:13.000Z</Time>
            <Position>
              <LatitudeDegrees>40.75504104606807231903076171875</LatitudeDegrees>
              <LongitudeDegrees>-4.09123837016522884368896484375</LongitudeDegrees>
            </Position>
            <AltitudeMeters>1717.800048828125</AltitudeMeters>
            <DistanceMeters>NAN</DistanceMeters>
          </Trackpoint>
          <Trackpoint>
            <Time>2018-12-30T13:18:14.000Z</Time>
            <Position>
              <LatitudeDegrees>40.755031742155551910400390625</LatitudeDegrees>
              <LongitudeDegrees>-4.09125328995287418365478515625</LongitudeDegrees>
            </Position>
            <AltitudeMeters>1717.800048828125</AltitudeMeters>
            <DistanceMeters>NAN</DistanceMeters>
          </Trackpoint>
          <Trackpoint>
            <Time>2018-12-30T13:18:15.000Z</Time>
            <Position>
              <LatitudeDegrees>40.75502545572817325592041015625</LatitudeDegrees>
              <LongitudeDegrees>-4.0912718139588832855224609375</LongitudeDegrees>
            </Position>
            <AltitudeMeters>1717.800048828125</AltitudeMeters>
            <DistanceMeters>NAN</DistanceMeters>
          </Trackpoint>
          <Trackpoint>
            <Time>2018-12-30T13:18:16.000Z</Time>
            <Position>
              <LatitudeDegrees>40.75501657091081142425537109375</LatitudeDegrees>
              <LongitudeDegrees>-4.091285727918148040771484375</LongitudeDegrees>
            </Position>
            <AltitudeMeters>1717.800048828125</AltitudeMeters>
            <DistanceMeters>NAN</DistanceMeters>
          </Trackpoint>
          <Trackpoint>
            <Time>2018-12-30T13:18:17.000Z</Time>
            <Position>
              <LatitudeDegrees>40.7549987174570560455322265625</LatitudeDegrees>
              <LongitudeDegrees>-4.0912914276123046875</LongitudeDegrees>
            </Position>
            <AltitudeMeters>1717.800048828125</AltitudeMeters>
            <DistanceMeters>NAN</DistanceMeters>
          </Trackpoint>
          <Trackpoint>
            <Time>2018-12-30T13:18:18.000Z</Time>
            <Position>
              <LatitudeDegrees>40.75498455204069614410400390625</LatitudeDegrees>
              <LongitudeDegrees>-4.09130282700061798095703125</LongitudeDegrees>
            </Position>
            <AltitudeMeters>1717.5999755859375</AltitudeMeters>
            <DistanceMeters>NAN</DistanceMeters>
          </Trackpoint>
          <Trackpoint>
            <Time>2018-12-30T13:18:19.000Z</Time>
            <Position>
              <LatitudeDegrees>40.75497348792850971221923828125</LatitudeDegrees>
              <LongitudeDegrees>-4.0913164056837558746337890625</LongitudeDegrees>
            </Position>
            <AltitudeMeters>1717.5999755859375</AltitudeMeters>
            <DistanceMeters>NAN</DistanceMeters>
          </Trackpoint>
          <Trackpoint>
            <Time>2018-12-30T13:18:20.000Z</Time>
            <Position>
              <LatitudeDegrees>40.75496007688343524932861328125</LatitudeDegrees>
              <LongitudeDegrees>-4.0913244523108005523681640625</LongitudeDegrees>
            </Position>
            <AltitudeMeters>1717.199951171875</AltitudeMeters>
            <DistanceMeters>NAN</DistanceMeters>
          </Trackpoint>
          <Trackpoint>
            <Time>2018-12-30T13:18:21.000Z</Time>
            <Position>
              <LatitudeDegrees>40.75494968332350254058837890625</LatitudeDegrees>
              <LongitudeDegrees>-4.091337025165557861328125</LongitudeDegrees>
            </Position>
            <AltitudeMeters>1717.199951171875</AltitudeMeters>
            <DistanceMeters>NAN</DistanceMeters>
          </Trackpoint>
          <Trackpoint>
            <Time>2018-12-30T13:18:22.000Z</Time>
            <Position>
              <LatitudeDegrees>40.7549410499632358551025390625</LatitudeDegrees>
              <LongitudeDegrees>-4.091352112591266632080078125</LongitudeDegrees>
            </Position>
            <AltitudeMeters>1717</AltitudeMeters>
            <DistanceMeters>NAN</DistanceMeters>
          </Trackpoint>
          <Trackpoint>
            <Time>2018-12-30T13:18:23.000Z</Time>
            <Position>
              <LatitudeDegrees>40.75493149459362030029296875</LatitudeDegrees>
              <LongitudeDegrees>-4.0913643501698970794677734375</LongitudeDegrees>
            </Position>
            <AltitudeMeters>1717</AltitudeMeters>
            <DistanceMeters>NAN</DistanceMeters>
          </Trackpoint>
          <Trackpoint>
            <Time>2018-12-30T13:18:24.000Z</Time>
            <Position>
              <LatitudeDegrees>40.754919759929180145263671875</LatitudeDegrees>
              <LongitudeDegrees>-4.09137482754886150360107421875</LongitudeDegrees>
            </Position>
            <AltitudeMeters>1717</AltitudeMeters>
            <DistanceMeters>NAN</DistanceMeters>
          </Trackpoint>
          <Trackpoint>
            <Time>2018-12-30T13:18:25.000Z</Time>
            <Position>
              <LatitudeDegrees>40.75490743853151798248291015625</LatitudeDegrees>
              <LongitudeDegrees>-4.09138488583266735076904296875</LongitudeDegrees>
            </Position>
            <AltitudeMeters>1716.800048828125</AltitudeMeters>
            <DistanceMeters>NAN</DistanceMeters>
          </Trackpoint>
          <Trackpoint>
            <Time>2018-12-30T13:18:26.000Z</Time>
            <Position>
              <LatitudeDegrees>40.7549021579325199127197265625</LatitudeDegrees>
              <LongitudeDegrees>-4.091399721801280975341796875</LongitudeDegrees>
            </Position>
            <AltitudeMeters>1716.800048828125</AltitudeMeters>
            <DistanceMeters>NAN</DistanceMeters>
          </Trackpoint>
          <Trackpoint>
            <Time>2018-12-30T13:18:27.000Z</Time>
            <Position>
              <LatitudeDegrees>40.75489821843802928924560546875</LatitudeDegrees>
              <LongitudeDegrees>-4.09141740761697292327880859375</LongitudeDegrees>
            </Position>
            <AltitudeMeters>1716.5999755859375</AltitudeMeters>
            <DistanceMeters>NAN</DistanceMeters>
          </Trackpoint>
          <Trackpoint>
            <Time>2018-12-30T13:18:28.000Z</Time>
            <Position>
              <LatitudeDegrees>40.75489201582968235015869140625</LatitudeDegrees>
              <LongitudeDegrees>-4.0914340876042842864990234375</LongitudeDegrees>
            </Position>
            <AltitudeMeters>1716.5999755859375</AltitudeMeters>
            <DistanceMeters>NAN</DistanceMeters>
          </Trackpoint>
          <Trackpoint>
            <Time>2018-12-30T13:18:29.000Z</Time>
            <Position>
              <LatitudeDegrees>40.75488329865038394927978515625</LatitudeDegrees>
              <LongitudeDegrees>-4.0914474986493587493896484375</LongitudeDegrees>
            </Position>
            <AltitudeMeters>1716.5999755859375</AltitudeMeters>
            <DistanceMeters>NAN</DistanceMeters>
          </Trackpoint>
          <Trackpoint>
            <Time>2018-12-30T13:18:30.000Z</Time>
            <Position>
              <LatitudeDegrees>40.75487516820430755615234375</LatitudeDegrees>
              <LongitudeDegrees>-4.091458059847354888916015625</LongitudeDegrees>
            </Position>
            <AltitudeMeters>1716.5999755859375</AltitudeMeters>
            <DistanceMeters>NAN</DistanceMeters>
          </Trackpoint>
          <Trackpoint>
            <Time>2018-12-30T13:18:31.000Z</Time>
            <Position>
              <LatitudeDegrees>40.7548693008720874786376953125</LatitudeDegrees>
              <LongitudeDegrees>-4.09147054888308048248291015625</LongitudeDegrees>
            </Position>
            <AltitudeMeters>1716.5999755859375</AltitudeMeters>
            <DistanceMeters>NAN</DistanceMeters>
          </Trackpoint>
          <Trackpoint>
            <Time>2018-12-30T13:18:32.000Z</Time>
            <Position>
              <LatitudeDegrees>40.75485949404537677764892578125</LatitudeDegrees>
              <LongitudeDegrees>-4.09148295409977436065673828125</LongitudeDegrees>
            </Position>
            <AltitudeMeters>1716.4000244140625</AltitudeMeters>
            <DistanceMeters>NAN</DistanceMeters>
          </Trackpoint>
          <Trackpoint>
            <Time>2018-12-30T13:18:33.000Z</Time>
            <Position>
              <LatitudeDegrees>40.7548505254089832305908203125</LatitudeDegrees>
              <LongitudeDegrees>-4.09149619750678539276123046875</LongitudeDegrees>
            </Position>
            <AltitudeMeters>1716.4000244140625</AltitudeMeters>
            <DistanceMeters>NAN</DistanceMeters>
          </Trackpoint>
          <Trackpoint>
            <Time>2018-12-30T13:18:34.000Z</Time>
            <Position>
              <LatitudeDegrees>40.75483895838260650634765625</LatitudeDegrees>
              <LongitudeDegrees>-4.0915065072476863861083984375</LongitudeDegrees>
            </Position>
            <AltitudeMeters>1716.199951171875</AltitudeMeters>
            <DistanceMeters>NAN</DistanceMeters>
          </Trackpoint>
          <Trackpoint>
            <Time>2018-12-30T13:18:35.000Z</Time>
            <Position>
              <LatitudeDegrees>40.75482982210814952850341796875</LatitudeDegrees>
              <LongitudeDegrees>-4.091517068445682525634765625</LongitudeDegrees>
            </Position>
            <AltitudeMeters>1716</AltitudeMeters>
            <DistanceMeters>NAN</DistanceMeters>
          </Trackpoint>
          <Trackpoint>
            <Time>2018-12-30T13:18:36.000Z</Time>
            <Position>
              <LatitudeDegrees>40.75481724925339221954345703125</LatitudeDegrees>
              <LongitudeDegrees>-4.09152335487306118011474609375</LongitudeDegrees>
            </Position>
            <AltitudeMeters>1716</AltitudeMeters>
            <DistanceMeters>NAN</DistanceMeters>
          </Trackpoint>
          <Trackpoint>
            <Time>2018-12-30T13:18:37.000Z</Time>
            <Position>
              <LatitudeDegrees>40.75480668805539608001708984375</LatitudeDegrees>
              <LongitudeDegrees>-4.09153156913816928863525390625</LongitudeDegrees>
            </Position>
            <AltitudeMeters>1715.800048828125</AltitudeMeters>
            <DistanceMeters>NAN</DistanceMeters>
          </Trackpoint>
          <Trackpoint>
            <Time>2018-12-30T13:18:38.000Z</Time>
            <Position>
              <LatitudeDegrees>40.7547962106764316558837890625</LatitudeDegrees>
              <LongitudeDegrees>-4.09153827466070652008056640625</LongitudeDegrees>
            </Position>
            <AltitudeMeters>1715.5999755859375</AltitudeMeters>
            <DistanceMeters>NAN</DistanceMeters>
          </Trackpoint>
          <Trackpoint>
            <Time>2018-12-30T13:18:39.000Z</Time>
            <Position>
              <LatitudeDegrees>40.75478556565940380096435546875</LatitudeDegrees>
              <LongitudeDegrees>-4.091548584401607513427734375</LongitudeDegrees>
            </Position>
            <AltitudeMeters>1715.4000244140625</AltitudeMeters>
            <DistanceMeters>NAN</DistanceMeters>
          </Trackpoint>
          <Trackpoint>
            <Time>2018-12-30T13:18:40.000Z</Time>
            <Position>
              <LatitudeDegrees>40.7547777704894542694091796875</LatitudeDegrees>
              <LongitudeDegrees>-4.09156166017055511474609375</LongitudeDegrees>
            </Position>
            <AltitudeMeters>1715.4000244140625</AltitudeMeters>
            <DistanceMeters>NAN</DistanceMeters>
          </Trackpoint>
          <Trackpoint>
            <Time>2018-12-30T13:18:41.000Z</Time>
            <Position>
              <LatitudeDegrees>40.75477332808077335357666015625</LatitudeDegrees>
              <LongitudeDegrees>-4.09157733432948589324951171875</LongitudeDegrees>
            </Position>
            <AltitudeMeters>1715.199951171875</AltitudeMeters>
            <DistanceMeters>NAN</DistanceMeters>
          </Trackpoint>
          <Trackpoint>
            <Time>2018-12-30T13:18:42.000Z</Time>
            <Position>
              <LatitudeDegrees>40.7547720707952976226806640625</LatitudeDegrees>
              <LongitudeDegrees>-4.091594517230987548828125</LongitudeDegrees>
            </Position>
            <AltitudeMeters>1715.199951171875</AltitudeMeters>
            <DistanceMeters>NAN</DistanceMeters>
          </Trackpoint>
          <Trackpoint>
            <Time>2018-12-30T13:18:43.000Z</Time>
            <Position>
              <LatitudeDegrees>40.754766203463077545166015625</LatitudeDegrees>
              <LongitudeDegrees>-4.0916146337985992431640625</LongitudeDegrees>
            </Position>
            <AltitudeMeters>1715.199951171875</AltitudeMeters>
            <DistanceMeters>NAN</DistanceMeters>
          </Trackpoint>
          <Trackpoint>
            <Time>2018-12-30T13:18:44.000Z</Time>
            <Position>
              <LatitudeDegrees>40.75475941412150859832763671875</LatitudeDegrees>
              <LongitudeDegrees>-4.09162871539592742919921875</LongitudeDegrees>
            </Position>
            <AltitudeMeters>1715.199951171875</AltitudeMeters>
            <DistanceMeters>NAN</DistanceMeters>
          </Trackpoint>
          <Trackpoint>
            <Time>2018-12-30T13:18:45.000Z</Time>
            <Position>
              <LatitudeDegrees>40.7547499425709247589111328125</LatitudeDegrees>
              <LongitudeDegrees>-4.09164237789809703826904296875</LongitudeDegrees>
            </Position>
            <AltitudeMeters>1715.199951171875</AltitudeMeters>
            <DistanceMeters>NAN</DistanceMeters>
          </Trackpoint>
          <Trackpoint>
            <Time>2018-12-30T13:18:46.000Z</Time>
            <Position>
              <LatitudeDegrees>40.7547388784587383270263671875</LatitudeDegrees>
              <LongitudeDegrees>-4.091654531657695770263671875</LongitudeDegrees>
            </Position>
            <AltitudeMeters>1715</AltitudeMeters>
            <DistanceMeters>NAN</DistanceMeters>
          </Trackpoint>
          <Trackpoint>
            <Time>2018-12-30T13:18:47.000Z</Time>
            <Position>
              <LatitudeDegrees>40.75473208911716938018798828125</LatitudeDegrees>
              <LongitudeDegrees>-4.09166199155151844024658203125</LongitudeDegrees>
            </Position>
            <AltitudeMeters>1715</AltitudeMeters>
            <DistanceMeters>NAN</DistanceMeters>
          </Trackpoint>
          <Trackpoint>
            <Time>2018-12-30T13:18:48.000Z</Time>
            <Position>
              <LatitudeDegrees>40.75472471304237842559814453125</LatitudeDegrees>
              <LongitudeDegrees>-4.09167297184467315673828125</LongitudeDegrees>
            </Position>
            <AltitudeMeters>1714.800048828125</AltitudeMeters>
            <DistanceMeters>NAN</DistanceMeters>
          </Trackpoint>
          <Trackpoint>
            <Time>2018-12-30T13:18:49.000Z</Time>
            <Position>
              <LatitudeDegrees>40.75471884571015834808349609375</LatitudeDegrees>
              <LongitudeDegrees>-4.0916852094233036041259765625</LongitudeDegrees>
            </Position>
            <AltitudeMeters>1714.800048828125</AltitudeMeters>
            <DistanceMeters>NAN</DistanceMeters>
          </Trackpoint>
          <Trackpoint>
            <Time>2018-12-30T13:18:50.000Z</Time>
            <Position>
              <LatitudeDegrees>40.75470794923603534698486328125</LatitudeDegrees>
              <LongitudeDegrees>-4.09170004539191722869873046875</LongitudeDegrees>
            </Position>
            <AltitudeMeters>1714.5999755859375</AltitudeMeters>
            <DistanceMeters>NAN</DistanceMeters>
          </Trackpoint>
          <Trackpoint>
            <Time>2018-12-30T13:18:51.000Z</Time>
            <Position>
              <LatitudeDegrees>40.75469839386641979217529296875</LatitudeDegrees>
              <LongitudeDegrees>-4.0917130373418331146240234375</LongitudeDegrees>
            </Position>
            <AltitudeMeters>1714.5999755859375</AltitudeMeters>
            <DistanceMeters>NAN</DistanceMeters>
          </Trackpoint>
          <Trackpoint>
            <Time>2018-12-30T13:18:52.000Z</Time>
            <Position>
              <LatitudeDegrees>40.7546879164874553680419921875</LatitudeDegrees>
              <LongitudeDegrees>-4.09172418527305126190185546875</LongitudeDegrees>
            </Position>
            <AltitudeMeters>1714.4000244140625</AltitudeMeters>
            <DistanceMeters>NAN</DistanceMeters>
          </Trackpoint>
          <Trackpoint>
            <Time>2018-12-30T13:18:53.000Z</Time>
            <Position>
              <LatitudeDegrees>40.75467525981366634368896484375</LatitudeDegrees>
              <LongitudeDegrees>-4.09173407591879367828369140625</LongitudeDegrees>
            </Position>
            <AltitudeMeters>1714.4000244140625</AltitudeMeters>
            <DistanceMeters>NAN</DistanceMeters>
          </Trackpoint>
          <Trackpoint>
            <Time>2018-12-30T13:18:54.000Z</Time>
            <Position>
              <LatitudeDegrees>40.7546644471585750579833984375</LatitudeDegrees>
              <LongitudeDegrees>-4.09174648113548755645751953125</LongitudeDegrees>
            </Position>
            <AltitudeMeters>1714.199951171875</AltitudeMeters>
            <DistanceMeters>NAN</DistanceMeters>
          </Trackpoint>
          <Trackpoint>
            <Time>2018-12-30T13:18:55.000Z</Time>
            <Position>
              <LatitudeDegrees>40.7546545565128326416015625</LatitudeDegrees>
              <LongitudeDegrees>-4.09175821579992771148681640625</LongitudeDegrees>
            </Position>
            <AltitudeMeters>1714</AltitudeMeters>
            <DistanceMeters>NAN</DistanceMeters>
          </Trackpoint>
          <Trackpoint>
            <Time>2018-12-30T13:18:56.000Z</Time>
            <Position>
              <LatitudeDegrees>40.7546436600387096405029296875</LatitudeDegrees>
              <LongitudeDegrees>-4.09176844172179698944091796875</LongitudeDegrees>
            </Position>
            <AltitudeMeters>1713.800048828125</AltitudeMeters>
            <DistanceMeters>NAN</DistanceMeters>
          </Trackpoint>
          <Trackpoint>
            <Time>2018-12-30T13:18:57.000Z</Time>
            <Position>
              <LatitudeDegrees>40.754632093012332916259765625</LatitudeDegrees>
              <LongitudeDegrees>-4.09177782945334911346435546875</LongitudeDegrees>
            </Position>
            <AltitudeMeters>1713.800048828125</AltitudeMeters>
            <DistanceMeters>NAN</DistanceMeters>
          </Trackpoint>
          <Trackpoint>
            <Time>2018-12-30T13:18:58.000Z</Time>
            <Position>
              <LatitudeDegrees>40.75462111271917819976806640625</LatitudeDegrees>
              <LongitudeDegrees>-4.091790653765201568603515625</LongitudeDegrees>
            </Position>
            <AltitudeMeters>1713.5999755859375</AltitudeMeters>
            <DistanceMeters>NAN</DistanceMeters>
          </Trackpoint>
          <Trackpoint>
            <Time>2018-12-30T13:18:59.000Z</Time>
            <Position>
              <LatitudeDegrees>40.7546116411685943603515625</LatitudeDegrees>
              <LongitudeDegrees>-4.09180129878222942352294921875</LongitudeDegrees>
            </Position>
            <AltitudeMeters>1713.5999755859375</AltitudeMeters>
            <DistanceMeters>NAN</DistanceMeters>
          </Trackpoint>
          <Trackpoint>
            <Time>2018-12-30T13:19:00.000Z</Time>
            <Position>
              <LatitudeDegrees>40.7546009123325347900390625</LatitudeDegrees>
              <LongitudeDegrees>-4.0918166376650333404541015625</LongitudeDegrees>
            </Position>
            <AltitudeMeters>1713.5999755859375</AltitudeMeters>
            <DistanceMeters>NAN</DistanceMeters>
          </Trackpoint>
          <Trackpoint>
            <Time>2018-12-30T13:19:01.000Z</Time>
            <Position>
              <LatitudeDegrees>40.75458792038261890411376953125</LatitudeDegrees>
              <LongitudeDegrees>-4.09182912670075893402099609375</LongitudeDegrees>
            </Position>
            <AltitudeMeters>1713.4000244140625</AltitudeMeters>
            <DistanceMeters>NAN</DistanceMeters>
          </Trackpoint>
          <Trackpoint>
            <Time>2018-12-30T13:19:02.000Z</Time>
            <Position>
              <LatitudeDegrees>40.75457400642335414886474609375</LatitudeDegrees>
              <LongitudeDegrees>-4.09184538759291172027587890625</LongitudeDegrees>
            </Position>
            <AltitudeMeters>1713.4000244140625</AltitudeMeters>
            <DistanceMeters>NAN</DistanceMeters>
          </Trackpoint>
          <Trackpoint>
            <Time>2018-12-30T13:19:03.000Z</Time>
            <Position>
              <LatitudeDegrees>40.75456093065440654754638671875</LatitudeDegrees>
              <LongitudeDegrees>-4.0918568708002567291259765625</LongitudeDegrees>
            </Position>
            <AltitudeMeters>1713.4000244140625</AltitudeMeters>
            <DistanceMeters>NAN</DistanceMeters>
          </Trackpoint>
          <Trackpoint>
            <Time>2018-12-30T13:19:04.000Z</Time>
            <Position>
              <LatitudeDegrees>40.7545484416186809539794921875</LatitudeDegrees>
              <LongitudeDegrees>-4.09187170676887035369873046875</LongitudeDegrees>
            </Position>
            <AltitudeMeters>1713.4000244140625</AltitudeMeters>
            <DistanceMeters>NAN</DistanceMeters>
          </Trackpoint>
          <Trackpoint>
            <Time>2018-12-30T13:19:05.000Z</Time>
            <Position>
              <LatitudeDegrees>40.75453712604939937591552734375</LatitudeDegrees>
              <LongitudeDegrees>-4.091889895498752593994140625</LongitudeDegrees>
            </Position>
            <AltitudeMeters>1713.4000244140625</AltitudeMeters>
            <DistanceMeters>NAN</DistanceMeters>
          </Trackpoint>
          <Trackpoint>
            <Time>2018-12-30T13:19:06.000Z</Time>
            <Position>
              <LatitudeDegrees>40.754525475203990936279296875</LatitudeDegrees>
              <LongitudeDegrees>-4.09190389327704906463623046875</LongitudeDegrees>
            </Position>
            <AltitudeMeters>1713.199951171875</AltitudeMeters>
            <DistanceMeters>NAN</DistanceMeters>
          </Trackpoint>
          <Trackpoint>
            <Time>2018-12-30T13:19:07.000Z</Time>
            <Position>
              <LatitudeDegrees>40.75451684184372425079345703125</LatitudeDegrees>
              <LongitudeDegrees>-4.091916717588901519775390625</LongitudeDegrees>
            </Position>
            <AltitudeMeters>1713.199951171875</AltitudeMeters>
            <DistanceMeters>NAN</DistanceMeters>
          </Trackpoint>
          <Trackpoint>
            <Time>2018-12-30T13:19:08.000Z</Time>
            <Position>
              <LatitudeDegrees>40.754512064158916473388671875</LatitudeDegrees>
              <LongitudeDegrees>-4.0919262729585170745849609375</LongitudeDegrees>
            </Position>
            <AltitudeMeters>1713.199951171875</AltitudeMeters>
            <DistanceMeters>NAN</DistanceMeters>
          </Trackpoint>
          <Trackpoint>
            <Time>2018-12-30T13:19:09.000Z</Time>
            <Position>
              <LatitudeDegrees>40.754510052502155303955078125</LatitudeDegrees>
              <LongitudeDegrees>-4.091943539679050445556640625</LongitudeDegrees>
            </Position>
            <AltitudeMeters>1713.199951171875</AltitudeMeters>
            <DistanceMeters>NAN</DistanceMeters>
          </Trackpoint>
          <Trackpoint>
            <Time>2018-12-30T13:19:10.000Z</Time>
            <Position>
              <LatitudeDegrees>40.754508040845394134521484375</LatitudeDegrees>
              <LongitudeDegrees>-4.0919638238847255706787109375</LongitudeDegrees>
            </Position>
            <AltitudeMeters>1713</AltitudeMeters>
            <DistanceMeters>NAN</DistanceMeters>
          </Trackpoint>
          <Trackpoint>
            <Time>2018-12-30T13:19:11.000Z</Time>
            <Position>
              <LatitudeDegrees>40.75450812466442584991455078125</LatitudeDegrees>
              <LongitudeDegrees>-4.09198033623397350311279296875</LongitudeDegrees>
            </Position>
            <AltitudeMeters>1712.800048828125</AltitudeMeters>
            <DistanceMeters>NAN</DistanceMeters>
          </Trackpoint>
          <Trackpoint>
            <Time>2018-12-30T13:19:12.000Z</Time>
            <Position>
              <LatitudeDegrees>40.75450963340699672698974609375</LatitudeDegrees>
              <LongitudeDegrees>-4.09199374727904796600341796875</LongitudeDegrees>
            </Position>
            <AltitudeMeters>1712.5999755859375</AltitudeMeters>
            <DistanceMeters>NAN</DistanceMeters>
          </Trackpoint>
          <Trackpoint>
            <Time>2018-12-30T13:19:13.000Z</Time>
            <Position>
              <LatitudeDegrees>40.75450829230248928070068359375</LatitudeDegrees>
              <LongitudeDegrees>-4.09200296737253665924072265625</LongitudeDegrees>
            </Position>
            <AltitudeMeters>1712.5999755859375</AltitudeMeters>
            <DistanceMeters>NAN</DistanceMeters>
          </Trackpoint>
          <Trackpoint>
            <Time>2018-12-30T13:19:14.000Z</Time>
            <Position>
              <LatitudeDegrees>40.75450502336025238037109375</LatitudeDegrees>
              <LongitudeDegrees>-4.0920062363147735595703125</LongitudeDegrees>
            </Position>
            <AltitudeMeters>1712.4000244140625</AltitudeMeters>
            <DistanceMeters>NAN</DistanceMeters>
          </Trackpoint>
          <Trackpoint>
            <Time>2018-12-30T13:19:15.000Z</Time>
            <Position>
              <LatitudeDegrees>40.7545004971325397491455078125</LatitudeDegrees>
              <LongitudeDegrees>-4.0920062363147735595703125</LongitudeDegrees>
            </Position>
            <AltitudeMeters>1712.4000244140625</AltitudeMeters>
            <DistanceMeters>NAN</DistanceMeters>
          </Trackpoint>
          <Trackpoint>
            <Time>2018-12-30T13:19:16.000Z</Time>
            <Position>
              <LatitudeDegrees>40.7544994913041591644287109375</LatitudeDegrees>
              <LongitudeDegrees>-4.0920050628483295440673828125</LongitudeDegrees>
            </Position>
            <AltitudeMeters>1712.199951171875</AltitudeMeters>
            <DistanceMeters>NAN</DistanceMeters>
          </Trackpoint>
          <Trackpoint>
            <Time>2018-12-30T13:19:17.000Z</Time>
            <Position>
              <LatitudeDegrees>40.7544947974383831024169921875</LatitudeDegrees>
              <LongitudeDegrees>-4.09200112335383892059326171875</LongitudeDegrees>
            </Position>
            <AltitudeMeters>1712.199951171875</AltitudeMeters>
            <DistanceMeters>NAN</DistanceMeters>
          </Trackpoint>
          <Trackpoint>
            <Time>2018-12-30T13:19:18.000Z</Time>
            <Position>
              <LatitudeDegrees>40.7544931210577487945556640625</LatitudeDegrees>
              <LongitudeDegrees>-4.091999530792236328125</LongitudeDegrees>
            </Position>
            <AltitudeMeters>1712.199951171875</AltitudeMeters>
            <DistanceMeters>NAN</DistanceMeters>
          </Trackpoint>
          <Trackpoint>
            <Time>2018-12-30T13:19:19.000Z</Time>
            <Position>
              <LatitudeDegrees>40.7545008324086666107177734375</LatitudeDegrees>
              <LongitudeDegrees>-4.0920007042586803436279296875</LongitudeDegrees>
            </Position>
            <AltitudeMeters>1712</AltitudeMeters>
            <DistanceMeters>NAN</DistanceMeters>
          </Trackpoint>
          <Trackpoint>
            <Time>2018-12-30T13:19:20.000Z</Time>
            <Position>
              <LatitudeDegrees>40.75449823401868343353271484375</LatitudeDegrees>
              <LongitudeDegrees>-4.09200145862996578216552734375</LongitudeDegrees>
            </Position>
            <AltitudeMeters>1712</AltitudeMeters>
            <DistanceMeters>NAN</DistanceMeters>
          </Trackpoint>
          <Trackpoint>
            <Time>2018-12-30T13:19:21.000Z</Time>
            <Position>
              <LatitudeDegrees>40.75449404306709766387939453125</LatitudeDegrees>
              <LongitudeDegrees>-4.0920020453631877899169921875</LongitudeDegrees>
            </Position>
            <AltitudeMeters>1712</AltitudeMeters>
            <DistanceMeters>NAN</DistanceMeters>
          </Trackpoint>
          <Trackpoint>
            <Time>2018-12-30T13:19:22.000Z</Time>
            <Position>
              <LatitudeDegrees>40.7544917799532413482666015625</LatitudeDegrees>
              <LongitudeDegrees>-4.0920030511915683746337890625</LongitudeDegrees>
            </Position>
            <AltitudeMeters>1712</AltitudeMeters>
            <DistanceMeters>NAN</DistanceMeters>
          </Trackpoint>
          <Trackpoint>
            <Time>2018-12-30T13:19:23.000Z</Time>
            <Position>
              <LatitudeDegrees>40.7544890977442264556884765625</LatitudeDegrees>
              <LongitudeDegrees>-4.09200464375317096710205078125</LongitudeDegrees>
            </Position>
            <AltitudeMeters>1712</AltitudeMeters>
            <DistanceMeters>NAN</DistanceMeters>
          </Trackpoint>
          <Trackpoint>
            <Time>2018-12-30T13:19:24.000Z</Time>
            <Position>
              <LatitudeDegrees>40.754487924277782440185546875</LatitudeDegrees>
              <LongitudeDegrees>-4.09200548194348812103271484375</LongitudeDegrees>
            </Position>
            <AltitudeMeters>1712</AltitudeMeters>
            <DistanceMeters>NAN</DistanceMeters>
          </Trackpoint>
          <Trackpoint>
            <Time>2018-12-30T13:19:25.000Z</Time>
            <Position>
              <LatitudeDegrees>40.75448381714522838592529296875</LatitudeDegrees>
              <LongitudeDegrees>-4.09200715832412242889404296875</LongitudeDegrees>
            </Position>
            <AltitudeMeters>1712</AltitudeMeters>
            <DistanceMeters>NAN</DistanceMeters>
          </Trackpoint>
          <Trackpoint>
            <Time>2018-12-30T13:19:26.000Z</Time>
            <Position>
              <LatitudeDegrees>40.7544797100126743316650390625</LatitudeDegrees>
              <LongitudeDegrees>-4.09200816415250301361083984375</LongitudeDegrees>
            </Position>
            <AltitudeMeters>1712</AltitudeMeters>
            <DistanceMeters>NAN</DistanceMeters>
          </Trackpoint>
          <Trackpoint>
            <Time>2018-12-30T13:19:27.000Z</Time>
            <Position>
              <LatitudeDegrees>40.754477865993976593017578125</LatitudeDegrees>
              <LongitudeDegrees>-4.092011265456676483154296875</LongitudeDegrees>
            </Position>
            <AltitudeMeters>1712</AltitudeMeters>
            <DistanceMeters>NAN</DistanceMeters>
          </Trackpoint>
          <Trackpoint>
            <Time>2018-12-30T13:19:28.000Z</Time>
            <Position>
              <LatitudeDegrees>40.7544890977442264556884765625</LatitudeDegrees>
              <LongitudeDegrees>-4.092012606561183929443359375</LongitudeDegrees>
            </Position>
            <AltitudeMeters>1712</AltitudeMeters>
            <DistanceMeters>NAN</DistanceMeters>
          </Trackpoint>
          <Trackpoint>
            <Time>2018-12-30T13:19:29.000Z</Time>
            <Position>
              <LatitudeDegrees>40.7544931210577487945556640625</LatitudeDegrees>
              <LongitudeDegrees>-4.09201654605567455291748046875</LongitudeDegrees>
            </Position>
            <AltitudeMeters>1712</AltitudeMeters>
            <DistanceMeters>NAN</DistanceMeters>
          </Trackpoint>
          <Trackpoint>
            <Time>2018-12-30T13:19:30.000Z</Time>
            <Position>
              <LatitudeDegrees>40.754492618143558502197265625</LatitudeDegrees>
              <LongitudeDegrees>-4.09201671369373798370361328125</LongitudeDegrees>
            </Position>
            <AltitudeMeters>1712</AltitudeMeters>
            <DistanceMeters>NAN</DistanceMeters>
          </Trackpoint>
          <Trackpoint>
            <Time>2018-12-30T13:19:31.000Z</Time>
            <Position>
              <LatitudeDegrees>40.7544810511171817779541015625</LatitudeDegrees>
              <LongitudeDegrees>-4.0920174680650234222412109375</LongitudeDegrees>
            </Position>
            <AltitudeMeters>1712.199951171875</AltitudeMeters>
            <DistanceMeters>NAN</DistanceMeters>
          </Trackpoint>
          <Trackpoint>
            <Time>2018-12-30T13:19:32.000Z</Time>
            <Position>
              <LatitudeDegrees>40.75446772389113903045654296875</LatitudeDegrees>
              <LongitudeDegrees>-4.09201855771243572235107421875</LongitudeDegrees>
            </Position>
            <AltitudeMeters>1712.199951171875</AltitudeMeters>
            <DistanceMeters>NAN</DistanceMeters>
          </Trackpoint>
          <Trackpoint>
            <Time>2018-12-30T13:19:33.000Z</Time>
            <Position>
              <LatitudeDegrees>40.7544572465121746063232421875</LatitudeDegrees>
              <LongitudeDegrees>-4.092023670673370361328125</LongitudeDegrees>
            </Position>
            <AltitudeMeters>1712.199951171875</AltitudeMeters>
            <DistanceMeters>NAN</DistanceMeters>
          </Trackpoint>
          <Trackpoint>
            <Time>2018-12-30T13:19:34.000Z</Time>
            <Position>
              <LatitudeDegrees>40.7544505409896373748779296875</LatitudeDegrees>
              <LongitudeDegrees>-4.09202308394014835357666015625</LongitudeDegrees>
            </Position>
            <AltitudeMeters>1712.5999755859375</AltitudeMeters>
            <DistanceMeters>NAN</DistanceMeters>
          </Trackpoint>
          <Trackpoint>
            <Time>2018-12-30T13:19:35.000Z</Time>
            <Position>
              <LatitudeDegrees>40.75444391928613185882568359375</LatitudeDegrees>
              <LongitudeDegrees>-4.092020653188228607177734375</LongitudeDegrees>
            </Position>
            <AltitudeMeters>1712.5999755859375</AltitudeMeters>
            <DistanceMeters>NAN</DistanceMeters>
          </Trackpoint>
          <Trackpoint>
            <Time>2018-12-30T13:19:36.000Z</Time>
            <Position>
              <LatitudeDegrees>40.7544438354671001434326171875</LatitudeDegrees>
              <LongitudeDegrees>-4.092018306255340576171875</LongitudeDegrees>
            </Position>
            <AltitudeMeters>1712.800048828125</AltitudeMeters>
            <DistanceMeters>NAN</DistanceMeters>
          </Trackpoint>
          <Trackpoint>
            <Time>2018-12-30T13:19:37.000Z</Time>
            <Position>
              <LatitudeDegrees>40.7544488646090030670166015625</LatitudeDegrees>
              <LongitudeDegrees>-4.092018306255340576171875</LongitudeDegrees>
            </Position>
            <AltitudeMeters>1712.5999755859375</AltitudeMeters>
            <DistanceMeters>NAN</DistanceMeters>
          </Trackpoint>
          <Trackpoint>
            <Time>2018-12-30T13:19:38.000Z</Time>
            <Position>
              <LatitudeDegrees>40.7544555701315402984619140625</LatitudeDegrees>
              <LongitudeDegrees>-4.09201897680759429931640625</LongitudeDegrees>
            </Position>
            <AltitudeMeters>1712.5999755859375</AltitudeMeters>
            <DistanceMeters>NAN</DistanceMeters>
          </Trackpoint>
          <Trackpoint>
            <Time>2018-12-30T13:19:39.000Z</Time>
            <Position>
              <LatitudeDegrees>40.7544582523405551910400390625</LatitudeDegrees>
              <LongitudeDegrees>-4.09201453439891338348388671875</LongitudeDegrees>
            </Position>
            <AltitudeMeters>1712.5999755859375</AltitudeMeters>
            <DistanceMeters>NAN</DistanceMeters>
          </Trackpoint>
          <Trackpoint>
            <Time>2018-12-30T13:19:40.000Z</Time>
            <Position>
              <LatitudeDegrees>40.75445540249347686767578125</LatitudeDegrees>
              <LongitudeDegrees>-4.0920124389231204986572265625</LongitudeDegrees>
            </Position>
            <AltitudeMeters>1712.5999755859375</AltitudeMeters>
            <DistanceMeters>NAN</DistanceMeters>
          </Trackpoint>
          <Trackpoint>
            <Time>2018-12-30T13:19:41.000Z</Time>
            <Position>
              <LatitudeDegrees>40.75446479022502899169921875</LatitudeDegrees>
              <LongitudeDegrees>-4.09201269038021564483642578125</LongitudeDegrees>
            </Position>
            <AltitudeMeters>1712.5999755859375</AltitudeMeters>
            <DistanceMeters>NAN</DistanceMeters>
          </Trackpoint>
          <Trackpoint>
            <Time>2018-12-30T13:19:42.000Z</Time>
            <Position>
              <LatitudeDegrees>40.75446940027177333831787109375</LatitudeDegrees>
              <LongitudeDegrees>-4.0920124389231204986572265625</LongitudeDegrees>
            </Position>
            <AltitudeMeters>1712.800048828125</AltitudeMeters>
            <DistanceMeters>NAN</DistanceMeters>
          </Trackpoint>
          <Trackpoint>
            <Time>2018-12-30T13:19:43.000Z</Time>
            <Position>
              <LatitudeDegrees>40.75447191484272480010986328125</LatitudeDegrees>
              <LongitudeDegrees>-4.092012606561183929443359375</LongitudeDegrees>
            </Position>
            <AltitudeMeters>1713.199951171875</AltitudeMeters>
            <DistanceMeters>NAN</DistanceMeters>
          </Trackpoint>
          <Trackpoint>
            <Time>2018-12-30T13:19:44.000Z</Time>
            <Position>
              <LatitudeDegrees>40.7544730044901371002197265625</LatitudeDegrees>
              <LongitudeDegrees>-4.0920124389231204986572265625</LongitudeDegrees>
            </Position>
            <AltitudeMeters>1713.5999755859375</AltitudeMeters>
            <DistanceMeters>NAN</DistanceMeters>
          </Trackpoint>
          <Trackpoint>
            <Time>2018-12-30T13:19:45.000Z</Time>
            <Position>
              <LatitudeDegrees>40.75447325594723224639892578125</LatitudeDegrees>
              <LongitudeDegrees>-4.09201227128505706787109375</LongitudeDegrees>
            </Position>
            <AltitudeMeters>1713.800048828125</AltitudeMeters>
            <DistanceMeters>NAN</DistanceMeters>
          </Trackpoint>
          <Trackpoint>
            <Time>2018-12-30T13:19:46.000Z</Time>
            <Position>
              <LatitudeDegrees>40.75447275303304195404052734375</LatitudeDegrees>
              <LongitudeDegrees>-4.09201201982796192169189453125</LongitudeDegrees>
            </Position>
            <AltitudeMeters>1713.800048828125</AltitudeMeters>
            <DistanceMeters>NAN</DistanceMeters>
          </Trackpoint>
          <Trackpoint>
            <Time>2018-12-30T13:19:47.000Z</Time>
            <Position>
              <LatitudeDegrees>40.75447149574756622314453125</LatitudeDegrees>
              <LongitudeDegrees>-4.0920127741992473602294921875</LongitudeDegrees>
            </Position>
            <AltitudeMeters>1714</AltitudeMeters>
            <DistanceMeters>NAN</DistanceMeters>
          </Trackpoint>
          <Trackpoint>
            <Time>2018-12-30T13:19:48.000Z</Time>
            <Position>
              <LatitudeDegrees>40.754470489919185638427734375</LatitudeDegrees>
              <LongitudeDegrees>-4.09201361238956451416015625</LongitudeDegrees>
            </Position>
            <AltitudeMeters>1713.800048828125</AltitudeMeters>
            <DistanceMeters>NAN</DistanceMeters>
          </Trackpoint>
          <Trackpoint>
            <Time>2018-12-30T13:19:49.000Z</Time>
            <Position>
              <LatitudeDegrees>40.75446940027177333831787109375</LatitudeDegrees>
              <LongitudeDegrees>-4.092013947665691375732421875</LongitudeDegrees>
            </Position>
            <AltitudeMeters>1713.800048828125</AltitudeMeters>
            <DistanceMeters>NAN</DistanceMeters>
          </Trackpoint>
          <Trackpoint>
            <Time>2018-12-30T13:19:50.000Z</Time>
            <Position>
              <LatitudeDegrees>40.75446772389113903045654296875</LatitudeDegrees>
              <LongitudeDegrees>-4.09201436676084995269775390625</LongitudeDegrees>
            </Position>
            <AltitudeMeters>1713.800048828125</AltitudeMeters>
            <DistanceMeters>NAN</DistanceMeters>
          </Trackpoint>
          <Trackpoint>
            <Time>2018-12-30T13:19:51.000Z</Time>
            <Position>
              <LatitudeDegrees>40.75446655042469501495361328125</LatitudeDegrees>
              <LongitudeDegrees>-4.0920144505798816680908203125</LongitudeDegrees>
            </Position>
            <AltitudeMeters>1713.5999755859375</AltitudeMeters>
            <DistanceMeters>NAN</DistanceMeters>
          </Trackpoint>
          <Trackpoint>
            <Time>2018-12-30T13:19:52.000Z</Time>
            <Position>
              <LatitudeDegrees>40.75446479022502899169921875</LatitudeDegrees>
              <LongitudeDegrees>-4.09201369620859622955322265625</LongitudeDegrees>
            </Position>
            <AltitudeMeters>1713.4000244140625</AltitudeMeters>
            <DistanceMeters>NAN</DistanceMeters>
          </Trackpoint>
          <Trackpoint>
            <Time>2018-12-30T13:19:53.000Z</Time>
            <Position>
              <LatitudeDegrees>40.7544642873108386993408203125</LatitudeDegrees>
              <LongitudeDegrees>-4.092013277113437652587890625</LongitudeDegrees>
            </Position>
            <AltitudeMeters>1713.4000244140625</AltitudeMeters>
            <DistanceMeters>NAN</DistanceMeters>
          </Trackpoint>
          <Trackpoint>
            <Time>2018-12-30T13:19:54.000Z</Time>
            <Position>
              <LatitudeDegrees>40.75446437112987041473388671875</LatitudeDegrees>
              <LongitudeDegrees>-4.09201302565634250640869140625</LongitudeDegrees>
            </Position>
            <AltitudeMeters>1713.4000244140625</AltitudeMeters>
            <DistanceMeters>NAN</DistanceMeters>
          </Trackpoint>
          <Trackpoint>
            <Time>2018-12-30T13:19:55.000Z</Time>
            <Position>
              <LatitudeDegrees>40.7544646225869655609130859375</LatitudeDegrees>
              <LongitudeDegrees>-4.09201185218989849090576171875</LongitudeDegrees>
            </Position>
            <AltitudeMeters>1713.4000244140625</AltitudeMeters>
            <DistanceMeters>NAN</DistanceMeters>
          </Trackpoint>
          <Trackpoint>
            <Time>2018-12-30T13:19:56.000Z</Time>
            <Position>
              <LatitudeDegrees>40.754465125501155853271484375</LatitudeDegrees>
              <LongitudeDegrees>-4.0920097567141056060791015625</LongitudeDegrees>
            </Position>
            <AltitudeMeters>1713.4000244140625</AltitudeMeters>
            <DistanceMeters>NAN</DistanceMeters>
          </Trackpoint>
          <Trackpoint>
            <Time>2018-12-30T13:19:57.000Z</Time>
            <Position>
              <LatitudeDegrees>40.75446537695825099945068359375</LatitudeDegrees>
              <LongitudeDegrees>-4.0920077450573444366455078125</LongitudeDegrees>
            </Position>
            <AltitudeMeters>1713.4000244140625</AltitudeMeters>
            <DistanceMeters>NAN</DistanceMeters>
          </Trackpoint>
          <Trackpoint>
            <Time>2018-12-30T13:19:58.000Z</Time>
            <Position>
              <LatitudeDegrees>40.75446344912052154541015625</LatitudeDegrees>
              <LongitudeDegrees>-4.09200665540993213653564453125</LongitudeDegrees>
            </Position>
            <AltitudeMeters>1713.4000244140625</AltitudeMeters>
            <DistanceMeters>NAN</DistanceMeters>
          </Trackpoint>
          <Trackpoint>
            <Time>2018-12-30T13:19:59.000Z</Time>
            <Position>
              <LatitudeDegrees>40.7544614374637603759765625</LatitudeDegrees>
              <LongitudeDegrees>-4.0920074097812175750732421875</LongitudeDegrees>
            </Position>
            <AltitudeMeters>1713.4000244140625</AltitudeMeters>
            <DistanceMeters>NAN</DistanceMeters>
          </Trackpoint>
          <Trackpoint>
            <Time>2018-12-30T13:20:00.000Z</Time>
            <Position>
              <LatitudeDegrees>40.75446118600666522979736328125</LatitudeDegrees>
              <LongitudeDegrees>-4.092006571590900421142578125</LongitudeDegrees>
            </Position>
            <AltitudeMeters>1713.4000244140625</AltitudeMeters>
            <DistanceMeters>NAN</DistanceMeters>
          </Trackpoint>
          <Trackpoint>
            <Time>2018-12-30T13:20:01.000Z</Time>
            <Position>
              <LatitudeDegrees>40.7544614374637603759765625</LatitudeDegrees>
              <LongitudeDegrees>-4.092005901038646697998046875</LongitudeDegrees>
            </Position>
            <AltitudeMeters>1713.4000244140625</AltitudeMeters>
            <DistanceMeters>NAN</DistanceMeters>
          </Trackpoint>
          <Trackpoint>
            <Time>2018-12-30T13:20:02.000Z</Time>
            <Position>
              <LatitudeDegrees>40.75446202419698238372802734375</LatitudeDegrees>
              <LongitudeDegrees>-4.09200514666736125946044921875</LongitudeDegrees>
            </Position>
            <AltitudeMeters>1713.4000244140625</AltitudeMeters>
            <DistanceMeters>NAN</DistanceMeters>
          </Trackpoint>
          <Trackpoint>
            <Time>2018-12-30T13:20:03.000Z</Time>
            <Position>
              <LatitudeDegrees>40.75446353293955326080322265625</LatitudeDegrees>
              <LongitudeDegrees>-4.09200179390609264373779296875</LongitudeDegrees>
            </Position>
            <AltitudeMeters>1713.4000244140625</AltitudeMeters>
            <DistanceMeters>NAN</DistanceMeters>
          </Trackpoint>
          <Trackpoint>
            <Time>2018-12-30T13:20:04.000Z</Time>
            <Position>
              <LatitudeDegrees>40.754465796053409576416015625</LatitudeDegrees>
              <LongitudeDegrees>-4.09199810586869716644287109375</LongitudeDegrees>
            </Position>
            <AltitudeMeters>1713.4000244140625</AltitudeMeters>
            <DistanceMeters>NAN</DistanceMeters>
          </Trackpoint>
          <Trackpoint>
            <Time>2018-12-30T13:20:05.000Z</Time>
            <Position>
              <LatitudeDegrees>40.75446168892085552215576171875</LatitudeDegrees>
              <LongitudeDegrees>-4.091996848583221435546875</LongitudeDegrees>
            </Position>
            <AltitudeMeters>1713.4000244140625</AltitudeMeters>
            <DistanceMeters>NAN</DistanceMeters>
          </Trackpoint>
          <Trackpoint>
            <Time>2018-12-30T13:20:06.000Z</Time>
            <Position>
              <LatitudeDegrees>40.7544575817883014678955078125</LatitudeDegrees>
              <LongitudeDegrees>-4.09199659712612628936767578125</LongitudeDegrees>
            </Position>
            <AltitudeMeters>1713.4000244140625</AltitudeMeters>
            <DistanceMeters>NAN</DistanceMeters>
          </Trackpoint>
          <Trackpoint>
            <Time>2018-12-30T13:20:07.000Z</Time>
            <Position>
              <LatitudeDegrees>40.75445548631250858306884765625</LatitudeDegrees>
              <LongitudeDegrees>-4.09199710004031658172607421875</LongitudeDegrees>
            </Position>
            <AltitudeMeters>1713.4000244140625</AltitudeMeters>
            <DistanceMeters>NAN</DistanceMeters>
          </Trackpoint>
          <Trackpoint>
            <Time>2018-12-30T13:20:08.000Z</Time>
            <Position>
              <LatitudeDegrees>40.75446504168212413787841796875</LatitudeDegrees>
              <LongitudeDegrees>-4.09200112335383892059326171875</LongitudeDegrees>
            </Position>
            <AltitudeMeters>1713.4000244140625</AltitudeMeters>
            <DistanceMeters>NAN</DistanceMeters>
          </Trackpoint>
          <Trackpoint>
            <Time>2018-12-30T13:20:09.000Z</Time>
            <Position>
              <LatitudeDegrees>40.75446470640599727630615234375</LatitudeDegrees>
              <LongitudeDegrees>-4.09200011752545833587646484375</LongitudeDegrees>
            </Position>
            <AltitudeMeters>1713.199951171875</AltitudeMeters>
            <DistanceMeters>NAN</DistanceMeters>
          </Trackpoint>
          <Trackpoint>
            <Time>2018-12-30T13:20:10.000Z</Time>
            <Position>
              <LatitudeDegrees>40.7544559054076671600341796875</LatitudeDegrees>
              <LongitudeDegrees>-4.09200564958155155181884765625</LongitudeDegrees>
            </Position>
            <AltitudeMeters>1713.199951171875</AltitudeMeters>
            <DistanceMeters>NAN</DistanceMeters>
          </Trackpoint>
          <Trackpoint>
            <Time>2018-12-30T13:20:11.000Z</Time>
            <Position>
              <LatitudeDegrees>40.75449052266776561737060546875</LatitudeDegrees>
              <LongitudeDegrees>-4.0920181386172771453857421875</LongitudeDegrees>
            </Position>
            <AltitudeMeters>1713.199951171875</AltitudeMeters>
            <DistanceMeters>NAN</DistanceMeters>
          </Trackpoint>
          <Trackpoint>
            <Time>2018-12-30T13:20:12.000Z</Time>
            <Position>
              <LatitudeDegrees>40.75449890457093715667724609375</LatitudeDegrees>
              <LongitudeDegrees>-4.09202300012111663818359375</LongitudeDegrees>
            </Position>
            <AltitudeMeters>1713.199951171875</AltitudeMeters>
            <DistanceMeters>NAN</DistanceMeters>
          </Trackpoint>
          <Trackpoint>
            <Time>2018-12-30T13:20:13.000Z</Time>
            <Position>
              <LatitudeDegrees>40.754503346979618072509765625</LatitudeDegrees>
              <LongitudeDegrees>-4.09202610142529010772705078125</LongitudeDegrees>
            </Position>
            <AltitudeMeters>1713.199951171875</AltitudeMeters>
            <DistanceMeters>NAN</DistanceMeters>
          </Trackpoint>
          <Trackpoint>
            <Time>2018-12-30T13:20:14.000Z</Time>
            <Position>
              <LatitudeDegrees>40.7545179314911365509033203125</LatitudeDegrees>
              <LongitudeDegrees>-4.09202811308205127716064453125</LongitudeDegrees>
            </Position>
            <AltitudeMeters>1713.199951171875</AltitudeMeters>
            <DistanceMeters>NAN</DistanceMeters>
          </Trackpoint>
          <Trackpoint>
            <Time>2018-12-30T13:20:15.000Z</Time>
            <Position>
              <LatitudeDegrees>40.7545186020433902740478515625</LatitudeDegrees>
              <LongitudeDegrees>-4.0920255146920680999755859375</LongitudeDegrees>
            </Position>
            <AltitudeMeters>1713.199951171875</AltitudeMeters>
            <DistanceMeters>NAN</DistanceMeters>
          </Trackpoint>
          <Trackpoint>
            <Time>2018-12-30T13:20:16.000Z</Time>
            <Position>
              <LatitudeDegrees>40.75452438555657863616943359375</LatitudeDegrees>
              <LongitudeDegrees>-4.092020653188228607177734375</LongitudeDegrees>
            </Position>
            <AltitudeMeters>1713.199951171875</AltitudeMeters>
            <DistanceMeters>NAN</DistanceMeters>
          </Trackpoint>
          <Trackpoint>
            <Time>2018-12-30T13:20:17.000Z</Time>
            <Position>
              <LatitudeDegrees>40.75452857650816440582275390625</LatitudeDegrees>
              <LongitudeDegrees>-4.0920157916843891143798828125</LongitudeDegrees>
            </Position>
            <AltitudeMeters>1713</AltitudeMeters>
            <DistanceMeters>NAN</DistanceMeters>
          </Trackpoint>
          <Trackpoint>
            <Time>2018-12-30T13:20:18.000Z</Time>
            <Position>
              <LatitudeDegrees>40.75453310273587703704833984375</LatitudeDegrees>
              <LongitudeDegrees>-4.0920107625424861907958984375</LongitudeDegrees>
            </Position>
            <AltitudeMeters>1713</AltitudeMeters>
            <DistanceMeters>NAN</DistanceMeters>
          </Trackpoint>
          <Trackpoint>
            <Time>2018-12-30T13:20:19.000Z</Time>
            <Position>
              <LatitudeDegrees>40.7545377127826213836669921875</LatitudeDegrees>
              <LongitudeDegrees>-4.09200782887637615203857421875</LongitudeDegrees>
            </Position>
            <AltitudeMeters>1713</AltitudeMeters>
            <DistanceMeters>NAN</DistanceMeters>
          </Trackpoint>
          <Trackpoint>
            <Time>2018-12-30T13:20:20.000Z</Time>
            <Position>
              <LatitudeDegrees>40.75453226454555988311767578125</LatitudeDegrees>
              <LongitudeDegrees>-4.092012941837310791015625</LongitudeDegrees>
            </Position>
            <AltitudeMeters>1713.199951171875</AltitudeMeters>
            <DistanceMeters>NAN</DistanceMeters>
          </Trackpoint>
          <Trackpoint>
            <Time>2018-12-30T13:20:21.000Z</Time>
            <Position>
              <LatitudeDegrees>40.75452907942235469818115234375</LatitudeDegrees>
              <LongitudeDegrees>-4.0920194797217845916748046875</LongitudeDegrees>
            </Position>
            <AltitudeMeters>1713.199951171875</AltitudeMeters>
            <DistanceMeters>NAN</DistanceMeters>
          </Trackpoint>
          <Trackpoint>
            <Time>2018-12-30T13:20:22.000Z</Time>
            <Position>
              <LatitudeDegrees>40.754527486860752105712890625</LatitudeDegrees>
              <LongitudeDegrees>-4.09201989881694316864013671875</LongitudeDegrees>
            </Position>
            <AltitudeMeters>1713.4000244140625</AltitudeMeters>
            <DistanceMeters>NAN</DistanceMeters>
          </Trackpoint>
          <Trackpoint>
            <Time>2018-12-30T13:20:23.000Z</Time>
            <Position>
              <LatitudeDegrees>40.75452639721333980560302734375</LatitudeDegrees>
              <LongitudeDegrees>-4.09201721660792827606201171875</LongitudeDegrees>
            </Position>
            <AltitudeMeters>1713.4000244140625</AltitudeMeters>
            <DistanceMeters>NAN</DistanceMeters>
          </Trackpoint>
          <Trackpoint>
            <Time>2018-12-30T13:20:24.000Z</Time>
            <Position>
              <LatitudeDegrees>40.754527486860752105712890625</LatitudeDegrees>
              <LongitudeDegrees>-4.09201151691377162933349609375</LongitudeDegrees>
            </Position>
            <AltitudeMeters>1713.4000244140625</AltitudeMeters>
            <DistanceMeters>NAN</DistanceMeters>
          </Trackpoint>
          <Trackpoint>
            <Time>2018-12-30T13:20:25.000Z</Time>
            <Position>
              <LatitudeDegrees>40.7545243017375469207763671875</LatitudeDegrees>
              <LongitudeDegrees>-4.09201361238956451416015625</LongitudeDegrees>
            </Position>
            <AltitudeMeters>1713.5999755859375</AltitudeMeters>
            <DistanceMeters>NAN</DistanceMeters>
          </Trackpoint>
          <Trackpoint>
            <Time>2018-12-30T13:20:26.000Z</Time>
            <Position>
              <LatitudeDegrees>40.75451918877661228179931640625</LatitudeDegrees>
              <LongitudeDegrees>-4.09201453439891338348388671875</LongitudeDegrees>
            </Position>
            <AltitudeMeters>1713.5999755859375</AltitudeMeters>
            <DistanceMeters>NAN</DistanceMeters>
          </Trackpoint>
          <Trackpoint>
            <Time>2018-12-30T13:20:27.000Z</Time>
            <Position>
              <LatitudeDegrees>40.75451734475791454315185546875</LatitudeDegrees>
              <LongitudeDegrees>-4.0920131094753742218017578125</LongitudeDegrees>
            </Position>
            <AltitudeMeters>1713.5999755859375</AltitudeMeters>
            <DistanceMeters>NAN</DistanceMeters>
          </Trackpoint>
          <Trackpoint>
            <Time>2018-12-30T13:20:28.000Z</Time>
            <Position>
              <LatitudeDegrees>40.7545142434537410736083984375</LatitudeDegrees>
              <LongitudeDegrees>-4.09201218746602535247802734375</LongitudeDegrees>
            </Position>
            <AltitudeMeters>1713.199951171875</AltitudeMeters>
            <DistanceMeters>NAN</DistanceMeters>
          </Trackpoint>
          <Trackpoint>
            <Time>2018-12-30T13:20:29.000Z</Time>
            <Position>
              <LatitudeDegrees>40.7545068673789501190185546875</LatitudeDegrees>
              <LongitudeDegrees>-4.09201453439891338348388671875</LongitudeDegrees>
            </Position>
            <AltitudeMeters>1713</AltitudeMeters>
            <DistanceMeters>NAN</DistanceMeters>
          </Trackpoint>
          <Trackpoint>
            <Time>2018-12-30T13:20:30.000Z</Time>
            <Position>
              <LatitudeDegrees>40.75449840165674686431884765625</LatitudeDegrees>
              <LongitudeDegrees>-4.09202023409307003021240234375</LongitudeDegrees>
            </Position>
            <AltitudeMeters>1712.5999755859375</AltitudeMeters>
            <DistanceMeters>NAN</DistanceMeters>
          </Trackpoint>
          <Trackpoint>
            <Time>2018-12-30T13:20:31.000Z</Time>
            <Position>
              <LatitudeDegrees>40.75448750518262386322021484375</LatitudeDegrees>
              <LongitudeDegrees>-4.09202895127236843109130859375</LongitudeDegrees>
            </Position>
            <AltitudeMeters>1712.4000244140625</AltitudeMeters>
            <DistanceMeters>NAN</DistanceMeters>
          </Trackpoint>
          <Trackpoint>
            <Time>2018-12-30T13:20:32.000Z</Time>
            <Position>
              <LatitudeDegrees>40.75448079966008663177490234375</LatitudeDegrees>
              <LongitudeDegrees>-4.092036746442317962646484375</LongitudeDegrees>
            </Position>
            <AltitudeMeters>1712.199951171875</AltitudeMeters>
            <DistanceMeters>NAN</DistanceMeters>
          </Trackpoint>
          <Trackpoint>
            <Time>2018-12-30T13:20:33.000Z</Time>
            <Position>
              <LatitudeDegrees>40.75447417795658111572265625</LatitudeDegrees>
              <LongitudeDegrees>-4.09204068593680858612060546875</LongitudeDegrees>
            </Position>
            <AltitudeMeters>1712.199951171875</AltitudeMeters>
            <DistanceMeters>NAN</DistanceMeters>
          </Trackpoint>
          <Trackpoint>
            <Time>2018-12-30T13:20:34.000Z</Time>
            <Position>
              <LatitudeDegrees>40.75447577051818370819091796875</LatitudeDegrees>
              <LongitudeDegrees>-4.0920392610132694244384765625</LongitudeDegrees>
            </Position>
            <AltitudeMeters>1712</AltitudeMeters>
            <DistanceMeters>NAN</DistanceMeters>
          </Trackpoint>
          <Trackpoint>
            <Time>2018-12-30T13:20:35.000Z</Time>
            <Position>
              <LatitudeDegrees>40.75446671806275844573974609375</LatitudeDegrees>
              <LongitudeDegrees>-4.0920338965952396392822265625</LongitudeDegrees>
            </Position>
            <AltitudeMeters>1712</AltitudeMeters>
            <DistanceMeters>NAN</DistanceMeters>
          </Trackpoint>
          <Trackpoint>
            <Time>2018-12-30T13:20:36.000Z</Time>
            <Position>
              <LatitudeDegrees>40.75445515103638172149658203125</LatitudeDegrees>
              <LongitudeDegrees>-4.09203548915684223175048828125</LongitudeDegrees>
            </Position>
            <AltitudeMeters>1712</AltitudeMeters>
            <DistanceMeters>NAN</DistanceMeters>
          </Trackpoint>
          <Trackpoint>
            <Time>2018-12-30T13:20:37.000Z</Time>
            <Position>
              <LatitudeDegrees>40.7544545643031597137451171875</LatitudeDegrees>
              <LongitudeDegrees>-4.09203641116619110107421875</LongitudeDegrees>
            </Position>
            <AltitudeMeters>1712</AltitudeMeters>
            <DistanceMeters>NAN</DistanceMeters>
          </Trackpoint>
          <Trackpoint>
            <Time>2018-12-30T13:20:38.000Z</Time>
            <Position>
              <LatitudeDegrees>40.75445615686476230621337890625</LatitudeDegrees>
              <LongitudeDegrees>-4.09203515388071537017822265625</LongitudeDegrees>
            </Position>
            <AltitudeMeters>1712</AltitudeMeters>
            <DistanceMeters>NAN</DistanceMeters>
          </Trackpoint>
          <Trackpoint>
            <Time>2018-12-30T13:20:39.000Z</Time>
            <Position>
              <LatitudeDegrees>40.7544565759599208831787109375</LatitudeDegrees>
              <LongitudeDegrees>-4.09203699789941310882568359375</LongitudeDegrees>
            </Position>
            <AltitudeMeters>1712</AltitudeMeters>
            <DistanceMeters>NAN</DistanceMeters>
          </Trackpoint>
          <Trackpoint>
            <Time>2018-12-30T13:20:40.000Z</Time>
            <Position>
              <LatitudeDegrees>40.75445699505507946014404296875</LatitudeDegrees>
              <LongitudeDegrees>-4.09204202704131603240966796875</LongitudeDegrees>
            </Position>
            <AltitudeMeters>1712</AltitudeMeters>
            <DistanceMeters>NAN</DistanceMeters>
          </Trackpoint>
          <Trackpoint>
            <Time>2018-12-30T13:20:41.000Z</Time>
            <Position>
              <LatitudeDegrees>40.7544572465121746063232421875</LatitudeDegrees>
              <LongitudeDegrees>-4.092046804726123809814453125</LongitudeDegrees>
            </Position>
            <AltitudeMeters>1712.199951171875</AltitudeMeters>
            <DistanceMeters>NAN</DistanceMeters>
          </Trackpoint>
          <Trackpoint>
            <Time>2018-12-30T13:20:42.000Z</Time>
            <Position>
              <LatitudeDegrees>40.75445950962603092193603515625</LatitudeDegrees>
              <LongitudeDegrees>-4.0920499898493289947509765625</LongitudeDegrees>
            </Position>
            <AltitudeMeters>1712.4000244140625</AltitudeMeters>
            <DistanceMeters>NAN</DistanceMeters>
          </Trackpoint>
          <Trackpoint>
            <Time>2018-12-30T13:20:43.000Z</Time>
            <Position>
              <LatitudeDegrees>40.7544622756540775299072265625</LatitudeDegrees>
              <LongitudeDegrees>-4.09205359406769275665283203125</LongitudeDegrees>
            </Position>
            <AltitudeMeters>1712.5999755859375</AltitudeMeters>
            <DistanceMeters>NAN</DistanceMeters>
          </Trackpoint>
          <Trackpoint>
            <Time>2018-12-30T13:20:44.000Z</Time>
            <Position>
              <LatitudeDegrees>40.7544652931392192840576171875</LatitudeDegrees>
              <LongitudeDegrees>-4.0920570306479930877685546875</LongitudeDegrees>
            </Position>
            <AltitudeMeters>1712.800048828125</AltitudeMeters>
            <DistanceMeters>NAN</DistanceMeters>
          </Trackpoint>
          <Trackpoint>
            <Time>2018-12-30T13:20:45.000Z</Time>
            <Position>
              <LatitudeDegrees>40.754467807710170745849609375</LatitudeDegrees>
              <LongitudeDegrees>-4.0920623950660228729248046875</LongitudeDegrees>
            </Position>
            <AltitudeMeters>1713.199951171875</AltitudeMeters>
            <DistanceMeters>NAN</DistanceMeters>
          </Trackpoint>
          <Trackpoint>
            <Time>2018-12-30T13:20:46.000Z</Time>
            <Position>
              <LatitudeDegrees>40.75446437112987041473388671875</LatitudeDegrees>
              <LongitudeDegrees>-4.09207320772111415863037109375</LongitudeDegrees>
            </Position>
            <AltitudeMeters>1713.4000244140625</AltitudeMeters>
            <DistanceMeters>NAN</DistanceMeters>
          </Trackpoint>
          <Trackpoint>
            <Time>2018-12-30T13:20:47.000Z</Time>
            <Position>
              <LatitudeDegrees>40.75445984490215778350830078125</LatitudeDegrees>
              <LongitudeDegrees>-4.09208360128104686737060546875</LongitudeDegrees>
            </Position>
            <AltitudeMeters>1713.5999755859375</AltitudeMeters>
            <DistanceMeters>NAN</DistanceMeters>
          </Trackpoint>
          <Trackpoint>
            <Time>2018-12-30T13:20:48.000Z</Time>
            <Position>
              <LatitudeDegrees>40.75445565395057201385498046875</LatitudeDegrees>
              <LongitudeDegrees>-4.09208628349006175994873046875</LongitudeDegrees>
            </Position>
            <AltitudeMeters>1714</AltitudeMeters>
            <DistanceMeters>NAN</DistanceMeters>
          </Trackpoint>
          <Trackpoint>
            <Time>2018-12-30T13:20:49.000Z</Time>
            <Position>
              <LatitudeDegrees>40.754447020590305328369140625</LatitudeDegrees>
              <LongitudeDegrees>-4.09208779223263263702392578125</LongitudeDegrees>
            </Position>
            <AltitudeMeters>1714.199951171875</AltitudeMeters>
            <DistanceMeters>NAN</DistanceMeters>
          </Trackpoint>
          <Trackpoint>
            <Time>2018-12-30T13:20:50.000Z</Time>
            <Position>
              <LatitudeDegrees>40.7544438354671001434326171875</LatitudeDegrees>
              <LongitudeDegrees>-4.092087708413600921630859375</LongitudeDegrees>
            </Position>
            <AltitudeMeters>1714.4000244140625</AltitudeMeters>
            <DistanceMeters>NAN</DistanceMeters>
          </Trackpoint>
          <Trackpoint>
            <Time>2018-12-30T13:20:51.000Z</Time>
            <Position>
              <LatitudeDegrees>40.75444324873387813568115234375</LatitudeDegrees>
              <LongitudeDegrees>-4.0920892171561717987060546875</LongitudeDegrees>
            </Position>
            <AltitudeMeters>1714.5999755859375</AltitudeMeters>
            <DistanceMeters>NAN</DistanceMeters>
          </Trackpoint>
          <Trackpoint>
            <Time>2018-12-30T13:20:52.000Z</Time>
            <Position>
              <LatitudeDegrees>40.7544438354671001434326171875</LatitudeDegrees>
              <LongitudeDegrees>-4.09209097735583782196044921875</LongitudeDegrees>
            </Position>
            <AltitudeMeters>1714.5999755859375</AltitudeMeters>
            <DistanceMeters>NAN</DistanceMeters>
          </Trackpoint>
          <Trackpoint>
            <Time>2018-12-30T13:20:53.000Z</Time>
            <Position>
              <LatitudeDegrees>40.7544426620006561279296875</LatitudeDegrees>
              <LongitudeDegrees>-4.09209416247904300689697265625</LongitudeDegrees>
            </Position>
            <AltitudeMeters>1714.800048828125</AltitudeMeters>
            <DistanceMeters>NAN</DistanceMeters>
          </Trackpoint>
          <Trackpoint>
            <Time>2018-12-30T13:20:54.000Z</Time>
            <Position>
              <LatitudeDegrees>40.754442326724529266357421875</LatitudeDegrees>
              <LongitudeDegrees>-4.09209751524031162261962890625</LongitudeDegrees>
            </Position>
            <AltitudeMeters>1714.800048828125</AltitudeMeters>
            <DistanceMeters>NAN</DistanceMeters>
          </Trackpoint>
          <Trackpoint>
            <Time>2018-12-30T13:20:55.000Z</Time>
            <Position>
              <LatitudeDegrees>40.7544481940567493438720703125</LatitudeDegrees>
              <LongitudeDegrees>-4.09209567122161388397216796875</LongitudeDegrees>
            </Position>
            <AltitudeMeters>1714.800048828125</AltitudeMeters>
            <DistanceMeters>NAN</DistanceMeters>
          </Trackpoint>
          <Trackpoint>
            <Time>2018-12-30T13:20:56.000Z</Time>
            <Position>
              <LatitudeDegrees>40.75444928370416164398193359375</LatitudeDegrees>
              <LongitudeDegrees>-4.092089720070362091064453125</LongitudeDegrees>
            </Position>
            <AltitudeMeters>1714.800048828125</AltitudeMeters>
            <DistanceMeters>NAN</DistanceMeters>
          </Trackpoint>
          <Trackpoint>
            <Time>2018-12-30T13:20:57.000Z</Time>
            <Position>
              <LatitudeDegrees>40.75445003807544708251953125</LatitudeDegrees>
              <LongitudeDegrees>-4.092085026204586029052734375</LongitudeDegrees>
            </Position>
            <AltitudeMeters>1714.800048828125</AltitudeMeters>
            <DistanceMeters>NAN</DistanceMeters>
          </Trackpoint>
          <Trackpoint>
            <Time>2018-12-30T13:20:58.000Z</Time>
            <Position>
              <LatitudeDegrees>40.754451043903827667236328125</LatitudeDegrees>
              <LongitudeDegrees>-4.09207873977720737457275390625</LongitudeDegrees>
            </Position>
            <AltitudeMeters>1714.800048828125</AltitudeMeters>
            <DistanceMeters>NAN</DistanceMeters>
          </Trackpoint>
          <Trackpoint>
            <Time>2018-12-30T13:20:59.000Z</Time>
            <Position>
              <LatitudeDegrees>40.75444257818162441253662109375</LatitudeDegrees>
              <LongitudeDegrees>-4.09207773394882678985595703125</LongitudeDegrees>
            </Position>
            <AltitudeMeters>1714.800048828125</AltitudeMeters>
            <DistanceMeters>NAN</DistanceMeters>
          </Trackpoint>
          <Trackpoint>
            <Time>2018-12-30T13:21:00.000Z</Time>
            <Position>
              <LatitudeDegrees>40.75443520210683345794677734375</LatitudeDegrees>
              <LongitudeDegrees>-4.0920845232903957366943359375</LongitudeDegrees>
            </Position>
            <AltitudeMeters>1714.5999755859375</AltitudeMeters>
            <DistanceMeters>NAN</DistanceMeters>
          </Trackpoint>
          <Trackpoint>
            <Time>2018-12-30T13:21:01.000Z</Time>
            <Position>
              <LatitudeDegrees>40.754426904022693634033203125</LatitudeDegrees>
              <LongitudeDegrees>-4.09209483303129673004150390625</LongitudeDegrees>
            </Position>
            <AltitudeMeters>1714.5999755859375</AltitudeMeters>
            <DistanceMeters>NAN</DistanceMeters>
          </Trackpoint>
          <Trackpoint>
            <Time>2018-12-30T13:21:02.000Z</Time>
            <Position>
              <LatitudeDegrees>40.75441382825374603271484375</LatitudeDegrees>
              <LongitudeDegrees>-4.0920972637832164764404296875</LongitudeDegrees>
            </Position>
            <AltitudeMeters>1714.4000244140625</AltitudeMeters>
            <DistanceMeters>NAN</DistanceMeters>
          </Trackpoint>
          <Trackpoint>
            <Time>2018-12-30T13:21:03.000Z</Time>
            <Position>
              <LatitudeDegrees>40.7544049434363842010498046875</LatitudeDegrees>
              <LongitudeDegrees>-4.0921032987534999847412109375</LongitudeDegrees>
            </Position>
            <AltitudeMeters>1714.5999755859375</AltitudeMeters>
            <DistanceMeters>NAN</DistanceMeters>
          </Trackpoint>
          <Trackpoint>
            <Time>2018-12-30T13:21:04.000Z</Time>
            <Position>
              <LatitudeDegrees>40.7544005848467350006103515625</LatitudeDegrees>
              <LongitudeDegrees>-4.09210505895316600799560546875</LongitudeDegrees>
            </Position>
            <AltitudeMeters>1714.4000244140625</AltitudeMeters>
            <DistanceMeters>NAN</DistanceMeters>
          </Trackpoint>
          <Trackpoint>
            <Time>2018-12-30T13:21:05.000Z</Time>
            <Position>
              <LatitudeDegrees>40.75439094565808773040771484375</LatitudeDegrees>
              <LongitudeDegrees>-4.0921100042760372161865234375</LongitudeDegrees>
            </Position>
            <AltitudeMeters>1714.5999755859375</AltitudeMeters>
            <DistanceMeters>NAN</DistanceMeters>
          </Trackpoint>
          <Trackpoint>
            <Time>2018-12-30T13:21:06.000Z</Time>
            <Position>
              <LatitudeDegrees>40.7543861679732799530029296875</LatitudeDegrees>
              <LongitudeDegrees>-4.0921143628656864166259765625</LongitudeDegrees>
            </Position>
            <AltitudeMeters>1714.5999755859375</AltitudeMeters>
            <DistanceMeters>NAN</DistanceMeters>
          </Trackpoint>
          <Trackpoint>
            <Time>2018-12-30T13:21:07.000Z</Time>
            <Position>
              <LatitudeDegrees>40.75438055209815502166748046875</LatitudeDegrees>
              <LongitudeDegrees>-4.0921193920075893402099609375</LongitudeDegrees>
            </Position>
            <AltitudeMeters>1714.5999755859375</AltitudeMeters>
            <DistanceMeters>NAN</DistanceMeters>
          </Trackpoint>
          <Trackpoint>
            <Time>2018-12-30T13:21:08.000Z</Time>
            <Position>
              <LatitudeDegrees>40.75437963008880615234375</LatitudeDegrees>
              <LongitudeDegrees>-4.0921183861792087554931640625</LongitudeDegrees>
            </Position>
            <AltitudeMeters>1714.5999755859375</AltitudeMeters>
            <DistanceMeters>NAN</DistanceMeters>
          </Trackpoint>
          <Trackpoint>
            <Time>2018-12-30T13:21:09.000Z</Time>
            <Position>
              <LatitudeDegrees>40.75438222847878932952880859375</LatitudeDegrees>
              <LongitudeDegrees>-4.09211821854114532470703125</LongitudeDegrees>
            </Position>
            <AltitudeMeters>1714.5999755859375</AltitudeMeters>
            <DistanceMeters>NAN</DistanceMeters>
          </Trackpoint>
          <Trackpoint>
            <Time>2018-12-30T13:21:10.000Z</Time>
            <Position>
              <LatitudeDegrees>40.75437895953655242919921875</LatitudeDegrees>
              <LongitudeDegrees>-4.09212064929306507110595703125</LongitudeDegrees>
            </Position>
            <AltitudeMeters>1714.5999755859375</AltitudeMeters>
            <DistanceMeters>NAN</DistanceMeters>
          </Trackpoint>
          <Trackpoint>
            <Time>2018-12-30T13:21:11.000Z</Time>
            <Position>
              <LatitudeDegrees>40.75437937863171100616455078125</LatitudeDegrees>
              <LongitudeDegrees>-4.09212064929306507110595703125</LongitudeDegrees>
            </Position>
            <AltitudeMeters>1714.800048828125</AltitudeMeters>
            <DistanceMeters>NAN</DistanceMeters>
          </Trackpoint>
          <Trackpoint>
            <Time>2018-12-30T13:21:12.000Z</Time>
            <Position>
              <LatitudeDegrees>40.75437904335558414459228515625</LatitudeDegrees>
              <LongitudeDegrees>-4.09212416969239711761474609375</LongitudeDegrees>
            </Position>
            <AltitudeMeters>1714.800048828125</AltitudeMeters>
            <DistanceMeters>NAN</DistanceMeters>
          </Trackpoint>
          <Trackpoint>
            <Time>2018-12-30T13:21:13.000Z</Time>
            <Position>
              <LatitudeDegrees>40.75438105501234531402587890625</LatitudeDegrees>
              <LongitudeDegrees>-4.09212584607303142547607421875</LongitudeDegrees>
            </Position>
            <AltitudeMeters>1714.800048828125</AltitudeMeters>
            <DistanceMeters>NAN</DistanceMeters>
          </Trackpoint>
          <Trackpoint>
            <Time>2018-12-30T13:21:14.000Z</Time>
            <Position>
              <LatitudeDegrees>40.754375942051410675048828125</LatitudeDegrees>
              <LongitudeDegrees>-4.09213028848171234130859375</LongitudeDegrees>
            </Position>
            <AltitudeMeters>1714.800048828125</AltitudeMeters>
            <DistanceMeters>NAN</DistanceMeters>
          </Trackpoint>
          <Trackpoint>
            <Time>2018-12-30T13:21:15.000Z</Time>
            <Position>
              <LatitudeDegrees>40.75437166728079319000244140625</LatitudeDegrees>
              <LongitudeDegrees>-4.0921361558139324188232421875</LongitudeDegrees>
            </Position>
            <AltitudeMeters>1714.800048828125</AltitudeMeters>
            <DistanceMeters>NAN</DistanceMeters>
          </Trackpoint>
          <Trackpoint>
            <Time>2018-12-30T13:21:16.000Z</Time>
            <Position>
              <LatitudeDegrees>40.75437217019498348236083984375</LatitudeDegrees>
              <LongitudeDegrees>-4.0921381674706935882568359375</LongitudeDegrees>
            </Position>
            <AltitudeMeters>1714.800048828125</AltitudeMeters>
            <DistanceMeters>NAN</DistanceMeters>
          </Trackpoint>
          <Trackpoint>
            <Time>2018-12-30T13:21:17.000Z</Time>
            <Position>
              <LatitudeDegrees>40.754371918737888336181640625</LatitudeDegrees>
              <LongitudeDegrees>-4.09214093349874019622802734375</LongitudeDegrees>
            </Position>
            <AltitudeMeters>1714.800048828125</AltitudeMeters>
            <DistanceMeters>NAN</DistanceMeters>
          </Trackpoint>
          <Trackpoint>
            <Time>2018-12-30T13:21:18.000Z</Time>
            <Position>
              <LatitudeDegrees>40.7543556578457355499267578125</LatitudeDegrees>
              <LongitudeDegrees>-4.09215367399156093597412109375</LongitudeDegrees>
            </Position>
            <AltitudeMeters>1714.800048828125</AltitudeMeters>
            <DistanceMeters>NAN</DistanceMeters>
          </Trackpoint>
          <Trackpoint>
            <Time>2018-12-30T13:21:19.000Z</Time>
            <Position>
              <LatitudeDegrees>40.7543435879051685333251953125</LatitudeDegrees>
              <LongitudeDegrees>-4.09216381609439849853515625</LongitudeDegrees>
            </Position>
            <AltitudeMeters>1715</AltitudeMeters>
            <DistanceMeters>NAN</DistanceMeters>
          </Trackpoint>
          <Trackpoint>
            <Time>2018-12-30T13:21:20.000Z</Time>
            <Position>
              <LatitudeDegrees>40.75433311052620410919189453125</LatitudeDegrees>
              <LongitudeDegrees>-4.0921713598072528839111328125</LongitudeDegrees>
            </Position>
            <AltitudeMeters>1715</AltitudeMeters>
            <DistanceMeters>NAN</DistanceMeters>
          </Trackpoint>
          <Trackpoint>
            <Time>2018-12-30T13:21:21.000Z</Time>
            <Position>
              <LatitudeDegrees>40.7543321885168552398681640625</LatitudeDegrees>
              <LongitudeDegrees>-4.0921713598072528839111328125</LongitudeDegrees>
            </Position>
            <AltitudeMeters>1714.800048828125</AltitudeMeters>
            <DistanceMeters>NAN</DistanceMeters>
          </Trackpoint>
          <Trackpoint>
            <Time>2018-12-30T13:21:22.000Z</Time>
            <Position>
              <LatitudeDegrees>40.7543331943452358245849609375</LatitudeDegrees>
              <LongitudeDegrees>-4.092173539102077484130859375</LongitudeDegrees>
            </Position>
            <AltitudeMeters>1715</AltitudeMeters>
            <DistanceMeters>NAN</DistanceMeters>
          </Trackpoint>
          <Trackpoint>
            <Time>2018-12-30T13:21:23.000Z</Time>
            <Position>
              <LatitudeDegrees>40.75433311052620410919189453125</LatitudeDegrees>
              <LongitudeDegrees>-4.09217563457787036895751953125</LongitudeDegrees>
            </Position>
            <AltitudeMeters>1715</AltitudeMeters>
            <DistanceMeters>NAN</DistanceMeters>
          </Trackpoint>
          <Trackpoint>
            <Time>2018-12-30T13:21:24.000Z</Time>
            <Position>
              <LatitudeDegrees>40.754327662289142608642578125</LatitudeDegrees>
              <LongitudeDegrees>-4.0921800769865512847900390625</LongitudeDegrees>
            </Position>
            <AltitudeMeters>1715</AltitudeMeters>
            <DistanceMeters>NAN</DistanceMeters>
          </Trackpoint>
          <Trackpoint>
            <Time>2018-12-30T13:21:25.000Z</Time>
            <Position>
              <LatitudeDegrees>40.7543147541582584381103515625</LatitudeDegrees>
              <LongitudeDegrees>-4.09219264984130859375</LongitudeDegrees>
            </Position>
            <AltitudeMeters>1714.800048828125</AltitudeMeters>
            <DistanceMeters>NAN</DistanceMeters>
          </Trackpoint>
          <Trackpoint>
            <Time>2018-12-30T13:21:26.000Z</Time>
            <Position>
              <LatitudeDegrees>40.7542892731726169586181640625</LatitudeDegrees>
              <LongitudeDegrees>-4.092212431132793426513671875</LongitudeDegrees>
            </Position>
            <AltitudeMeters>1714.800048828125</AltitudeMeters>
            <DistanceMeters>NAN</DistanceMeters>
          </Trackpoint>
          <Trackpoint>
            <Time>2018-12-30T13:21:27.000Z</Time>
            <Position>
              <LatitudeDegrees>40.754241161048412322998046875</LatitudeDegrees>
              <LongitudeDegrees>-4.0922521613538265228271484375</LongitudeDegrees>
            </Position>
            <AltitudeMeters>1714.800048828125</AltitudeMeters>
            <DistanceMeters>NAN</DistanceMeters>
          </Trackpoint>
          <Trackpoint>
            <Time>2018-12-30T13:21:28.000Z</Time>
            <Position>
              <LatitudeDegrees>40.75421140529215335845947265625</LatitudeDegrees>
              <LongitudeDegrees>-4.0922830067574977874755859375</LongitudeDegrees>
            </Position>
            <AltitudeMeters>1714.800048828125</AltitudeMeters>
            <DistanceMeters>NAN</DistanceMeters>
          </Trackpoint>
          <Trackpoint>
            <Time>2018-12-30T13:21:29.000Z</Time>
            <Position>
              <LatitudeDegrees>40.7541873492300510406494140625</LatitudeDegrees>
              <LongitudeDegrees>-4.09231343306601047515869140625</LongitudeDegrees>
            </Position>
            <AltitudeMeters>1714.800048828125</AltitudeMeters>
            <DistanceMeters>NAN</DistanceMeters>
          </Trackpoint>
          <Trackpoint>
            <Time>2018-12-30T13:21:30.000Z</Time>
            <Position>
              <LatitudeDegrees>40.75417242944240570068359375</LatitudeDegrees>
              <LongitudeDegrees>-4.09233656711876392364501953125</LongitudeDegrees>
            </Position>
            <AltitudeMeters>1714.800048828125</AltitudeMeters>
            <DistanceMeters>NAN</DistanceMeters>
          </Trackpoint>
          <Trackpoint>
            <Time>2018-12-30T13:21:31.000Z</Time>
            <Position>
              <LatitudeDegrees>40.75416480191051959991455078125</LatitudeDegrees>
              <LongitudeDegrees>-4.09235634841024875640869140625</LongitudeDegrees>
            </Position>
            <AltitudeMeters>1714.800048828125</AltitudeMeters>
            <DistanceMeters>NAN</DistanceMeters>
          </Trackpoint>
          <Trackpoint>
            <Time>2018-12-30T13:21:32.000Z</Time>
            <Position>
              <LatitudeDegrees>40.7541873492300510406494140625</LatitudeDegrees>
              <LongitudeDegrees>-4.092383086681365966796875</LongitudeDegrees>
            </Position>
            <AltitudeMeters>1715</AltitudeMeters>
            <DistanceMeters>NAN</DistanceMeters>
          </Trackpoint>
          <Trackpoint>
            <Time>2018-12-30T13:21:33.000Z</Time>
            <Position>
              <LatitudeDegrees>40.7542285881936550140380859375</LatitudeDegrees>
              <LongitudeDegrees>-4.09238350577652454376220703125</LongitudeDegrees>
            </Position>
            <AltitudeMeters>1715.199951171875</AltitudeMeters>
            <DistanceMeters>NAN</DistanceMeters>
          </Trackpoint>
          <Trackpoint>
            <Time>2018-12-30T13:21:34.000Z</Time>
            <Position>
              <LatitudeDegrees>40.754239149391651153564453125</LatitudeDegrees>
              <LongitudeDegrees>-4.09240789711475372314453125</LongitudeDegrees>
            </Position>
            <AltitudeMeters>1715.199951171875</AltitudeMeters>
            <DistanceMeters>NAN</DistanceMeters>
          </Trackpoint>
          <Trackpoint>
            <Time>2018-12-30T13:21:35.000Z</Time>
            <Position>
              <LatitudeDegrees>40.75425163842737674713134765625</LatitudeDegrees>
              <LongitudeDegrees>-4.0924219787120819091796875</LongitudeDegrees>
            </Position>
            <AltitudeMeters>1715</AltitudeMeters>
            <DistanceMeters>NAN</DistanceMeters>
          </Trackpoint>
          <Trackpoint>
            <Time>2018-12-30T13:21:36.000Z</Time>
            <Position>
              <LatitudeDegrees>40.75425985269248485565185546875</LatitudeDegrees>
              <LongitudeDegrees>-4.09243765287101268768310546875</LongitudeDegrees>
            </Position>
            <AltitudeMeters>1715.199951171875</AltitudeMeters>
            <DistanceMeters>NAN</DistanceMeters>
          </Trackpoint>
          <Trackpoint>
            <Time>2018-12-30T13:21:37.000Z</Time>
            <Position>
              <LatitudeDegrees>40.75426789931952953338623046875</LatitudeDegrees>
              <LongitudeDegrees>-4.09244771115481853485107421875</LongitudeDegrees>
            </Position>
            <AltitudeMeters>1715.199951171875</AltitudeMeters>
            <DistanceMeters>NAN</DistanceMeters>
          </Trackpoint>
          <Trackpoint>
            <Time>2018-12-30T13:21:38.000Z</Time>
            <Position>
              <LatitudeDegrees>40.75427041389048099517822265625</LatitudeDegrees>
              <LongitudeDegrees>-4.0924608707427978515625</LongitudeDegrees>
            </Position>
            <AltitudeMeters>1715.199951171875</AltitudeMeters>
            <DistanceMeters>NAN</DistanceMeters>
          </Trackpoint>
          <Trackpoint>
            <Time>2018-12-30T13:21:39.000Z</Time>
            <Position>
              <LatitudeDegrees>40.7543006725609302520751953125</LatitudeDegrees>
              <LongitudeDegrees>-4.0924184583127498626708984375</LongitudeDegrees>
            </Position>
            <AltitudeMeters>1715</AltitudeMeters>
            <DistanceMeters>NAN</DistanceMeters>
          </Trackpoint>
          <Trackpoint>
            <Time>2018-12-30T13:21:40.000Z</Time>
            <Position>
              <LatitudeDegrees>40.75430109165608882904052734375</LatitudeDegrees>
              <LongitudeDegrees>-4.0924348868429660797119140625</LongitudeDegrees>
            </Position>
            <AltitudeMeters>1715</AltitudeMeters>
            <DistanceMeters>NAN</DistanceMeters>
          </Trackpoint>
          <Trackpoint>
            <Time>2018-12-30T13:21:41.000Z</Time>
            <Position>
              <LatitudeDegrees>40.7542889378964900970458984375</LatitudeDegrees>
              <LongitudeDegrees>-4.09245206974446773529052734375</LongitudeDegrees>
            </Position>
            <AltitudeMeters>1715</AltitudeMeters>
            <DistanceMeters>NAN</DistanceMeters>
          </Trackpoint>
          <Trackpoint>
            <Time>2018-12-30T13:21:42.000Z</Time>
            <Position>
              <LatitudeDegrees>40.7542869262397289276123046875</LatitudeDegrees>
              <LongitudeDegrees>-4.09244687296450138092041015625</LongitudeDegrees>
            </Position>
            <AltitudeMeters>1715.199951171875</AltitudeMeters>
            <DistanceMeters>NAN</DistanceMeters>
          </Trackpoint>
          <Trackpoint>
            <Time>2018-12-30T13:21:43.000Z</Time>
            <Position>
              <LatitudeDegrees>40.75429639779031276702880859375</LatitudeDegrees>
              <LongitudeDegrees>-4.0924251638352870941162109375</LongitudeDegrees>
            </Position>
            <AltitudeMeters>1715.199951171875</AltitudeMeters>
            <DistanceMeters>NAN</DistanceMeters>
          </Trackpoint>
          <Trackpoint>
            <Time>2018-12-30T13:21:44.000Z</Time>
            <Position>
              <LatitudeDegrees>40.7543040253221988677978515625</LatitudeDegrees>
              <LongitudeDegrees>-4.0924080647528171539306640625</LongitudeDegrees>
            </Position>
            <AltitudeMeters>1715</AltitudeMeters>
            <DistanceMeters>NAN</DistanceMeters>
          </Trackpoint>
          <Trackpoint>
            <Time>2018-12-30T13:21:45.000Z</Time>
            <Position>
              <LatitudeDegrees>40.75431785546243190765380859375</LatitudeDegrees>
              <LongitudeDegrees>-4.09237931482493877410888671875</LongitudeDegrees>
            </Position>
            <AltitudeMeters>1715</AltitudeMeters>
            <DistanceMeters>NAN</DistanceMeters>
          </Trackpoint>
          <Trackpoint>
            <Time>2018-12-30T13:21:46.000Z</Time>
            <Position>
              <LatitudeDegrees>40.754329003393650054931640625</LatitudeDegrees>
              <LongitudeDegrees>-4.09234176389873027801513671875</LongitudeDegrees>
            </Position>
            <AltitudeMeters>1715</AltitudeMeters>
            <DistanceMeters>NAN</DistanceMeters>
          </Trackpoint>
          <Trackpoint>
            <Time>2018-12-30T13:21:47.000Z</Time>
            <Position>
              <LatitudeDegrees>40.75433881022036075592041015625</LatitudeDegrees>
              <LongitudeDegrees>-4.0923239104449748992919921875</LongitudeDegrees>
            </Position>
            <AltitudeMeters>1715</AltitudeMeters>
            <DistanceMeters>NAN</DistanceMeters>
          </Trackpoint>
          <Trackpoint>
            <Time>2018-12-30T13:21:48.000Z</Time>
            <Position>
              <LatitudeDegrees>40.75434953905642032623291015625</LatitudeDegrees>
              <LongitudeDegrees>-4.09229767508804798126220703125</LongitudeDegrees>
            </Position>
            <AltitudeMeters>1715</AltitudeMeters>
            <DistanceMeters>NAN</DistanceMeters>
          </Trackpoint>
          <Trackpoint>
            <Time>2018-12-30T13:21:49.000Z</Time>
            <Position>
              <LatitudeDegrees>40.75435708276927471160888671875</LatitudeDegrees>
              <LongitudeDegrees>-4.0922803245484828948974609375</LongitudeDegrees>
            </Position>
            <AltitudeMeters>1715</AltitudeMeters>
            <DistanceMeters>NAN</DistanceMeters>
          </Trackpoint>
          <Trackpoint>
            <Time>2018-12-30T13:21:50.000Z</Time>
            <Position>
              <LatitudeDegrees>40.75436420738697052001953125</LatitudeDegrees>
              <LongitudeDegrees>-4.0922628901898860931396484375</LongitudeDegrees>
            </Position>
            <AltitudeMeters>1715</AltitudeMeters>
            <DistanceMeters>NAN</DistanceMeters>
          </Trackpoint>
          <Trackpoint>
            <Time>2018-12-30T13:21:51.000Z</Time>
            <Position>
              <LatitudeDegrees>40.7543700747191905975341796875</LatitudeDegrees>
              <LongitudeDegrees>-4.0922449529170989990234375</LongitudeDegrees>
            </Position>
            <AltitudeMeters>1715</AltitudeMeters>
            <DistanceMeters>NAN</DistanceMeters>
          </Trackpoint>
          <Trackpoint>
            <Time>2018-12-30T13:21:52.000Z</Time>
            <Position>
              <LatitudeDegrees>40.7543740980327129364013671875</LatitudeDegrees>
              <LongitudeDegrees>-4.0922347269952297210693359375</LongitudeDegrees>
            </Position>
            <AltitudeMeters>1715</AltitudeMeters>
            <DistanceMeters>NAN</DistanceMeters>
          </Trackpoint>
          <Trackpoint>
            <Time>2018-12-30T13:21:53.000Z</Time>
            <Position>
              <LatitudeDegrees>40.75437619350850582122802734375</LatitudeDegrees>
              <LongitudeDegrees>-4.09220916219055652618408203125</LongitudeDegrees>
            </Position>
            <AltitudeMeters>1715</AltitudeMeters>
            <DistanceMeters>NAN</DistanceMeters>
          </Trackpoint>
          <Trackpoint>
            <Time>2018-12-30T13:21:54.000Z</Time>
            <Position>
              <LatitudeDegrees>40.75437895953655242919921875</LatitudeDegrees>
              <LongitudeDegrees>-4.09217965789139270782470703125</LongitudeDegrees>
            </Position>
            <AltitudeMeters>1715</AltitudeMeters>
            <DistanceMeters>NAN</DistanceMeters>
          </Trackpoint>
          <Trackpoint>
            <Time>2018-12-30T13:21:55.000Z</Time>
            <Position>
              <LatitudeDegrees>40.75438021682202816009521484375</LatitudeDegrees>
              <LongitudeDegrees>-4.09216381609439849853515625</LongitudeDegrees>
            </Position>
            <AltitudeMeters>1714.800048828125</AltitudeMeters>
            <DistanceMeters>NAN</DistanceMeters>
          </Trackpoint>
          <Trackpoint>
            <Time>2018-12-30T13:21:56.000Z</Time>
            <Position>
              <LatitudeDegrees>40.7543811388313770294189453125</LatitudeDegrees>
              <LongitudeDegrees>-4.09215250052511692047119140625</LongitudeDegrees>
            </Position>
            <AltitudeMeters>1714.4000244140625</AltitudeMeters>
            <DistanceMeters>NAN</DistanceMeters>
          </Trackpoint>
          <Trackpoint>
            <Time>2018-12-30T13:21:57.000Z</Time>
            <Position>
              <LatitudeDegrees>40.75437770225107669830322265625</LatitudeDegrees>
              <LongitudeDegrees>-4.0921411849558353424072265625</LongitudeDegrees>
            </Position>
            <AltitudeMeters>1714.199951171875</AltitudeMeters>
            <DistanceMeters>NAN</DistanceMeters>
          </Trackpoint>
          <Trackpoint>
            <Time>2018-12-30T13:21:58.000Z</Time>
            <Position>
              <LatitudeDegrees>40.75439530424773693084716796875</LatitudeDegrees>
              <LongitudeDegrees>-4.09213104285299777984619140625</LongitudeDegrees>
            </Position>
            <AltitudeMeters>1713.800048828125</AltitudeMeters>
            <DistanceMeters>NAN</DistanceMeters>
          </Trackpoint>
          <Trackpoint>
            <Time>2018-12-30T13:21:59.000Z</Time>
            <Position>
              <LatitudeDegrees>40.7543774507939815521240234375</LatitudeDegrees>
              <LongitudeDegrees>-4.09211017191410064697265625</LongitudeDegrees>
            </Position>
            <AltitudeMeters>1713.4000244140625</AltitudeMeters>
            <DistanceMeters>NAN</DistanceMeters>
          </Trackpoint>
          <Trackpoint>
            <Time>2018-12-30T13:22:00.000Z</Time>
            <Position>
              <LatitudeDegrees>40.7543677277863025665283203125</LatitudeDegrees>
              <LongitudeDegrees>-4.09209282137453556060791015625</LongitudeDegrees>
            </Position>
            <AltitudeMeters>1713.199951171875</AltitudeMeters>
            <DistanceMeters>NAN</DistanceMeters>
          </Trackpoint>
          <Trackpoint>
            <Time>2018-12-30T13:22:01.000Z</Time>
            <Position>
              <LatitudeDegrees>40.754356496036052703857421875</LatitudeDegrees>
              <LongitudeDegrees>-4.09207672812044620513916015625</LongitudeDegrees>
            </Position>
            <AltitudeMeters>1713</AltitudeMeters>
            <DistanceMeters>NAN</DistanceMeters>
          </Trackpoint>
          <Trackpoint>
            <Time>2018-12-30T13:22:02.000Z</Time>
            <Position>
              <LatitudeDegrees>40.75434534810483455657958984375</LatitudeDegrees>
              <LongitudeDegrees>-4.09206197597086429595947265625</LongitudeDegrees>
            </Position>
            <AltitudeMeters>1712.800048828125</AltitudeMeters>
            <DistanceMeters>NAN</DistanceMeters>
          </Trackpoint>
          <Trackpoint>
            <Time>2018-12-30T13:22:03.000Z</Time>
            <Position>
              <LatitudeDegrees>40.75433311052620410919189453125</LatitudeDegrees>
              <LongitudeDegrees>-4.092054851353168487548828125</LongitudeDegrees>
            </Position>
            <AltitudeMeters>1712.4000244140625</AltitudeMeters>
            <DistanceMeters>NAN</DistanceMeters>
          </Trackpoint>
          <Trackpoint>
            <Time>2018-12-30T13:22:04.000Z</Time>
            <Position>
              <LatitudeDegrees>40.7543271593749523162841796875</LatitudeDegrees>
              <LongitudeDegrees>-4.0920463018119335174560546875</LongitudeDegrees>
            </Position>
            <AltitudeMeters>1712.4000244140625</AltitudeMeters>
            <DistanceMeters>NAN</DistanceMeters>
          </Trackpoint>
          <Trackpoint>
            <Time>2018-12-30T13:22:05.000Z</Time>
            <Position>
              <LatitudeDegrees>40.75431852601468563079833984375</LatitudeDegrees>
              <LongitudeDegrees>-4.092043451964855194091796875</LongitudeDegrees>
            </Position>
            <AltitudeMeters>1712.4000244140625</AltitudeMeters>
            <DistanceMeters>NAN</DistanceMeters>
          </Trackpoint>
          <Trackpoint>
            <Time>2018-12-30T13:22:06.000Z</Time>
            <Position>
              <LatitudeDegrees>40.754306875169277191162109375</LatitudeDegrees>
              <LongitudeDegrees>-4.092041440308094024658203125</LongitudeDegrees>
            </Position>
            <AltitudeMeters>1712.199951171875</AltitudeMeters>
            <DistanceMeters>NAN</DistanceMeters>
          </Trackpoint>
          <Trackpoint>
            <Time>2018-12-30T13:22:07.000Z</Time>
            <Position>
              <LatitudeDegrees>40.7542993314564228057861328125</LatitudeDegrees>
              <LongitudeDegrees>-4.0920399315655231475830078125</LongitudeDegrees>
            </Position>
            <AltitudeMeters>1712.199951171875</AltitudeMeters>
            <DistanceMeters>NAN</DistanceMeters>
          </Trackpoint>
          <Trackpoint>
            <Time>2018-12-30T13:22:08.000Z</Time>
            <Position>
              <LatitudeDegrees>40.7542963139712810516357421875</LatitudeDegrees>
              <LongitudeDegrees>-4.0920357406139373779296875</LongitudeDegrees>
            </Position>
            <AltitudeMeters>1712.199951171875</AltitudeMeters>
            <DistanceMeters>NAN</DistanceMeters>
          </Trackpoint>
          <Trackpoint>
            <Time>2018-12-30T13:22:09.000Z</Time>
            <Position>
              <LatitudeDegrees>40.7542849145829677581787109375</LatitudeDegrees>
              <LongitudeDegrees>-4.09203196875751018524169921875</LongitudeDegrees>
            </Position>
            <AltitudeMeters>1712.199951171875</AltitudeMeters>
            <DistanceMeters>NAN</DistanceMeters>
          </Trackpoint>
          <Trackpoint>
            <Time>2018-12-30T13:22:10.000Z</Time>
            <Position>
              <LatitudeDegrees>40.75427561067044734954833984375</LatitudeDegrees>
              <LongitudeDegrees>-4.09202442504465579986572265625</LongitudeDegrees>
            </Position>
            <AltitudeMeters>1712.199951171875</AltitudeMeters>
            <DistanceMeters>NAN</DistanceMeters>
          </Trackpoint>
          <Trackpoint>
            <Time>2018-12-30T13:22:11.000Z</Time>
            <Position>
              <LatitudeDegrees>40.75425599701702594757080078125</LatitudeDegrees>
              <LongitudeDegrees>-4.09200690686702728271484375</LongitudeDegrees>
            </Position>
            <AltitudeMeters>1712.4000244140625</AltitudeMeters>
            <DistanceMeters>NAN</DistanceMeters>
          </Trackpoint>
          <Trackpoint>
            <Time>2018-12-30T13:22:12.000Z</Time>
            <Position>
              <LatitudeDegrees>40.7542453519999980926513671875</LatitudeDegrees>
              <LongitudeDegrees>-4.09200246445834636688232421875</LongitudeDegrees>
            </Position>
            <AltitudeMeters>1712.4000244140625</AltitudeMeters>
            <DistanceMeters>NAN</DistanceMeters>
          </Trackpoint>
          <Trackpoint>
            <Time>2018-12-30T13:22:13.000Z</Time>
            <Position>
              <LatitudeDegrees>40.75423755683004856109619140625</LatitudeDegrees>
              <LongitudeDegrees>-4.09200112335383892059326171875</LongitudeDegrees>
            </Position>
            <AltitudeMeters>1712.5999755859375</AltitudeMeters>
            <DistanceMeters>NAN</DistanceMeters>
          </Trackpoint>
          <Trackpoint>
            <Time>2018-12-30T13:22:14.000Z</Time>
            <Position>
              <LatitudeDegrees>40.7542302645742893218994140625</LatitudeDegrees>
              <LongitudeDegrees>-4.09199994988739490509033203125</LongitudeDegrees>
            </Position>
            <AltitudeMeters>1712.4000244140625</AltitudeMeters>
            <DistanceMeters>NAN</DistanceMeters>
          </Trackpoint>
          <Trackpoint>
            <Time>2018-12-30T13:22:15.000Z</Time>
            <Position>
              <LatitudeDegrees>40.75422464869916439056396484375</LatitudeDegrees>
              <LongitudeDegrees>-4.09200179390609264373779296875</LongitudeDegrees>
            </Position>
            <AltitudeMeters>1712.4000244140625</AltitudeMeters>
            <DistanceMeters>NAN</DistanceMeters>
          </Trackpoint>
          <Trackpoint>
            <Time>2018-12-30T13:22:16.000Z</Time>
            <Position>
              <LatitudeDegrees>40.75422347523272037506103515625</LatitudeDegrees>
              <LongitudeDegrees>-4.09200179390609264373779296875</LongitudeDegrees>
            </Position>
            <AltitudeMeters>1712.199951171875</AltitudeMeters>
            <DistanceMeters>NAN</DistanceMeters>
          </Trackpoint>
          <Trackpoint>
            <Time>2018-12-30T13:22:17.000Z</Time>
            <Position>
              <LatitudeDegrees>40.7542171888053417205810546875</LatitudeDegrees>
              <LongitudeDegrees>-4.091996848583221435546875</LongitudeDegrees>
            </Position>
            <AltitudeMeters>1712.199951171875</AltitudeMeters>
            <DistanceMeters>NAN</DistanceMeters>
          </Trackpoint>
          <Trackpoint>
            <Time>2018-12-30T13:22:18.000Z</Time>
            <Position>
              <LatitudeDegrees>40.7541985809803009033203125</LatitudeDegrees>
              <LongitudeDegrees>-4.091996848583221435546875</LongitudeDegrees>
            </Position>
            <AltitudeMeters>1712.199951171875</AltitudeMeters>
            <DistanceMeters>NAN</DistanceMeters>
          </Trackpoint>
          <Trackpoint>
            <Time>2018-12-30T13:22:19.000Z</Time>
            <Position>
              <LatitudeDegrees>40.7541957311332225799560546875</LatitudeDegrees>
              <LongitudeDegrees>-4.0919960103929042816162109375</LongitudeDegrees>
            </Position>
            <AltitudeMeters>1712.199951171875</AltitudeMeters>
            <DistanceMeters>NAN</DistanceMeters>
          </Trackpoint>
          <Trackpoint>
            <Time>2018-12-30T13:22:20.000Z</Time>
            <Position>
              <LatitudeDegrees>40.7541937194764614105224609375</LatitudeDegrees>
              <LongitudeDegrees>-4.09200866706669330596923828125</LongitudeDegrees>
            </Position>
            <AltitudeMeters>1712.199951171875</AltitudeMeters>
            <DistanceMeters>NAN</DistanceMeters>
          </Trackpoint>
          <Trackpoint>
            <Time>2018-12-30T13:22:21.000Z</Time>
            <Position>
              <LatitudeDegrees>40.7542010955512523651123046875</LatitudeDegrees>
              <LongitudeDegrees>-4.092023335397243499755859375</LongitudeDegrees>
            </Position>
            <AltitudeMeters>1712.199951171875</AltitudeMeters>
            <DistanceMeters>NAN</DistanceMeters>
          </Trackpoint>
          <Trackpoint>
            <Time>2018-12-30T13:22:22.000Z</Time>
            <Position>
              <LatitudeDegrees>40.75419723987579345703125</LatitudeDegrees>
              <LongitudeDegrees>-4.092032052576541900634765625</LongitudeDegrees>
            </Position>
            <AltitudeMeters>1712.199951171875</AltitudeMeters>
            <DistanceMeters>NAN</DistanceMeters>
          </Trackpoint>
          <Trackpoint>
            <Time>2018-12-30T13:22:23.000Z</Time>
            <Position>
              <LatitudeDegrees>40.7541933842003345489501953125</LatitudeDegrees>
              <LongitudeDegrees>-4.0920375846326351165771484375</LongitudeDegrees>
            </Position>
            <AltitudeMeters>1712</AltitudeMeters>
            <DistanceMeters>NAN</DistanceMeters>
          </Trackpoint>
          <Trackpoint>
            <Time>2018-12-30T13:22:24.000Z</Time>
            <Position>
              <LatitudeDegrees>40.75419346801936626434326171875</LatitudeDegrees>
              <LongitudeDegrees>-4.09204487688839435577392578125</LongitudeDegrees>
            </Position>
            <AltitudeMeters>1712</AltitudeMeters>
            <DistanceMeters>NAN</DistanceMeters>
          </Trackpoint>
          <Trackpoint>
            <Time>2018-12-30T13:22:25.000Z</Time>
            <Position>
              <LatitudeDegrees>40.7541873492300510406494140625</LatitudeDegrees>
              <LongitudeDegrees>-4.09204822964966297149658203125</LongitudeDegrees>
            </Position>
            <AltitudeMeters>1712</AltitudeMeters>
            <DistanceMeters>NAN</DistanceMeters>
          </Trackpoint>
          <Trackpoint>
            <Time>2018-12-30T13:22:26.000Z</Time>
            <Position>
              <LatitudeDegrees>40.75420604087412357330322265625</LatitudeDegrees>
              <LongitudeDegrees>-4.09206918440759181976318359375</LongitudeDegrees>
            </Position>
            <AltitudeMeters>1712</AltitudeMeters>
            <DistanceMeters>NAN</DistanceMeters>
          </Trackpoint>
          <Trackpoint>
            <Time>2018-12-30T13:22:27.000Z</Time>
            <Position>
              <LatitudeDegrees>40.75420335866510868072509765625</LatitudeDegrees>
              <LongitudeDegrees>-4.09208200871944427490234375</LongitudeDegrees>
            </Position>
            <AltitudeMeters>1712</AltitudeMeters>
            <DistanceMeters>NAN</DistanceMeters>
          </Trackpoint>
          <Trackpoint>
            <Time>2018-12-30T13:22:28.000Z</Time>
            <Position>
              <LatitudeDegrees>40.7542054541409015655517578125</LatitudeDegrees>
              <LongitudeDegrees>-4.0920908935368061065673828125</LongitudeDegrees>
            </Position>
            <AltitudeMeters>1712.199951171875</AltitudeMeters>
            <DistanceMeters>NAN</DistanceMeters>
          </Trackpoint>
          <Trackpoint>
            <Time>2018-12-30T13:22:29.000Z</Time>
            <Position>
              <LatitudeDegrees>40.754206292331218719482421875</LatitudeDegrees>
              <LongitudeDegrees>-4.0920969285070896148681640625</LongitudeDegrees>
            </Position>
            <AltitudeMeters>1712.4000244140625</AltitudeMeters>
            <DistanceMeters>NAN</DistanceMeters>
          </Trackpoint>
          <Trackpoint>
            <Time>2018-12-30T13:22:30.000Z</Time>
            <Position>
              <LatitudeDegrees>40.7542054541409015655517578125</LatitudeDegrees>
              <LongitudeDegrees>-4.0921026282012462615966796875</LongitudeDegrees>
            </Position>
            <AltitudeMeters>1712.4000244140625</AltitudeMeters>
            <DistanceMeters>NAN</DistanceMeters>
          </Trackpoint>
          <Trackpoint>
            <Time>2018-12-30T13:22:31.000Z</Time>
            <Position>
              <LatitudeDegrees>40.75420352630317211151123046875</LatitudeDegrees>
              <LongitudeDegrees>-4.09210346639156341552734375</LongitudeDegrees>
            </Position>
            <AltitudeMeters>1712.5999755859375</AltitudeMeters>
            <DistanceMeters>NAN</DistanceMeters>
          </Trackpoint>
          <Trackpoint>
            <Time>2018-12-30T13:22:32.000Z</Time>
            <Position>
              <LatitudeDegrees>40.7541990838944911956787109375</LatitudeDegrees>
              <LongitudeDegrees>-4.09210656769573688507080078125</LongitudeDegrees>
            </Position>
            <AltitudeMeters>1712.5999755859375</AltitudeMeters>
            <DistanceMeters>NAN</DistanceMeters>
          </Trackpoint>
          <Trackpoint>
            <Time>2018-12-30T13:22:33.000Z</Time>
            <Position>
              <LatitudeDegrees>40.75419615022838115692138671875</LatitudeDegrees>
              <LongitudeDegrees>-4.09210958518087863922119140625</LongitudeDegrees>
            </Position>
            <AltitudeMeters>1712.5999755859375</AltitudeMeters>
            <DistanceMeters>NAN</DistanceMeters>
          </Trackpoint>
          <Trackpoint>
            <Time>2018-12-30T13:22:34.000Z</Time>
            <Position>
              <LatitudeDegrees>40.7541950605809688568115234375</LatitudeDegrees>
              <LongitudeDegrees>-4.09211830236017704010009765625</LongitudeDegrees>
            </Position>
            <AltitudeMeters>1712.5999755859375</AltitudeMeters>
            <DistanceMeters>NAN</DistanceMeters>
          </Trackpoint>
          <Trackpoint>
            <Time>2018-12-30T13:22:35.000Z</Time>
            <Position>
              <LatitudeDegrees>40.75418718159198760986328125</LatitudeDegrees>
              <LongitudeDegrees>-4.092125594615936279296875</LongitudeDegrees>
            </Position>
            <AltitudeMeters>1712.5999755859375</AltitudeMeters>
            <DistanceMeters>NAN</DistanceMeters>
          </Trackpoint>
          <Trackpoint>
            <Time>2018-12-30T13:22:36.000Z</Time>
            <Position>
              <LatitudeDegrees>40.75417645275592803955078125</LatitudeDegrees>
              <LongitudeDegrees>-4.0921314619481563568115234375</LongitudeDegrees>
            </Position>
            <AltitudeMeters>1712.5999755859375</AltitudeMeters>
            <DistanceMeters>NAN</DistanceMeters>
          </Trackpoint>
          <Trackpoint>
            <Time>2018-12-30T13:22:37.000Z</Time>
            <Position>
              <LatitudeDegrees>40.75416304171085357666015625</LatitudeDegrees>
              <LongitudeDegrees>-4.0921428613364696502685546875</LongitudeDegrees>
            </Position>
            <AltitudeMeters>1712.4000244140625</AltitudeMeters>
            <DistanceMeters>NAN</DistanceMeters>
          </Trackpoint>
          <Trackpoint>
            <Time>2018-12-30T13:22:38.000Z</Time>
            <Position>
              <LatitudeDegrees>40.75415491126477718353271484375</LatitudeDegrees>
              <LongitudeDegrees>-4.09214596264064311981201171875</LongitudeDegrees>
            </Position>
            <AltitudeMeters>1712.4000244140625</AltitudeMeters>
            <DistanceMeters>NAN</DistanceMeters>
          </Trackpoint>
          <Trackpoint>
            <Time>2018-12-30T13:22:39.000Z</Time>
            <Position>
              <LatitudeDegrees>40.754143260419368743896484375</LatitudeDegrees>
              <LongitudeDegrees>-4.09215333871543407440185546875</LongitudeDegrees>
            </Position>
            <AltitudeMeters>1712.4000244140625</AltitudeMeters>
            <DistanceMeters>NAN</DistanceMeters>
          </Trackpoint>
          <Trackpoint>
            <Time>2018-12-30T13:22:40.000Z</Time>
            <Position>
              <LatitudeDegrees>40.7541343756020069122314453125</LatitudeDegrees>
              <LongitudeDegrees>-4.09216809086501598358154296875</LongitudeDegrees>
            </Position>
            <AltitudeMeters>1712.199951171875</AltitudeMeters>
            <DistanceMeters>NAN</DistanceMeters>
          </Trackpoint>
          <Trackpoint>
            <Time>2018-12-30T13:22:41.000Z</Time>
            <Position>
              <LatitudeDegrees>40.7541269995272159576416015625</LatitudeDegrees>
              <LongitudeDegrees>-4.09217429347336292266845703125</LongitudeDegrees>
            </Position>
            <AltitudeMeters>1711.800048828125</AltitudeMeters>
            <DistanceMeters>NAN</DistanceMeters>
          </Trackpoint>
          <Trackpoint>
            <Time>2018-12-30T13:22:42.000Z</Time>
            <Position>
              <LatitudeDegrees>40.75411903671920299530029296875</LatitudeDegrees>
              <LongitudeDegrees>-4.09218066371977329254150390625</LongitudeDegrees>
            </Position>
            <AltitudeMeters>1711.4000244140625</AltitudeMeters>
            <DistanceMeters>NAN</DistanceMeters>
          </Trackpoint>
          <Trackpoint>
            <Time>2018-12-30T13:22:43.000Z</Time>
            <Position>
              <LatitudeDegrees>40.75410864315927028656005859375</LatitudeDegrees>
              <LongitudeDegrees>-4.09219063818454742431640625</LongitudeDegrees>
            </Position>
            <AltitudeMeters>1711.199951171875</AltitudeMeters>
            <DistanceMeters>NAN</DistanceMeters>
          </Trackpoint>
          <Trackpoint>
            <Time>2018-12-30T13:22:44.000Z</Time>
            <Position>
              <LatitudeDegrees>40.7540985010564327239990234375</LatitudeDegrees>
              <LongitudeDegrees>-4.09219826571643352508544921875</LongitudeDegrees>
            </Position>
            <AltitudeMeters>1711</AltitudeMeters>
            <DistanceMeters>NAN</DistanceMeters>
          </Trackpoint>
          <Trackpoint>
            <Time>2018-12-30T13:22:45.000Z</Time>
            <Position>
              <LatitudeDegrees>40.7540807314217090606689453125</LatitudeDegrees>
              <LongitudeDegrees>-4.092213101685047149658203125</LongitudeDegrees>
            </Position>
            <AltitudeMeters>1710.800048828125</AltitudeMeters>
            <DistanceMeters>NAN</DistanceMeters>
          </Trackpoint>
          <Trackpoint>
            <Time>2018-12-30T13:22:46.000Z</Time>
            <Position>
              <LatitudeDegrees>40.75406421907246112823486328125</LatitudeDegrees>
              <LongitudeDegrees>-4.09222777001559734344482421875</LongitudeDegrees>
            </Position>
            <AltitudeMeters>1710.800048828125</AltitudeMeters>
            <DistanceMeters>NAN</DistanceMeters>
          </Trackpoint>
          <Trackpoint>
            <Time>2018-12-30T13:22:47.000Z</Time>
            <Position>
              <LatitudeDegrees>40.7540542446076869964599609375</LatitudeDegrees>
              <LongitudeDegrees>-4.09223397262394428253173828125</LongitudeDegrees>
            </Position>
            <AltitudeMeters>1710.800048828125</AltitudeMeters>
            <DistanceMeters>NAN</DistanceMeters>
          </Trackpoint>
          <Trackpoint>
            <Time>2018-12-30T13:22:48.000Z</Time>
            <Position>
              <LatitudeDegrees>40.75404829345643520355224609375</LatitudeDegrees>
              <LongitudeDegrees>-4.09224428236484527587890625</LongitudeDegrees>
            </Position>
            <AltitudeMeters>1710.5999755859375</AltitudeMeters>
            <DistanceMeters>NAN</DistanceMeters>
          </Trackpoint>
          <Trackpoint>
            <Time>2018-12-30T13:22:49.000Z</Time>
            <Position>
              <LatitudeDegrees>40.7540388219058513641357421875</LatitudeDegrees>
              <LongitudeDegrees>-4.09225023351609706878662109375</LongitudeDegrees>
            </Position>
            <AltitudeMeters>1710.4000244140625</AltitudeMeters>
            <DistanceMeters>NAN</DistanceMeters>
          </Trackpoint>
          <Trackpoint>
            <Time>2018-12-30T13:22:50.000Z</Time>
            <Position>
              <LatitudeDegrees>40.754013173282146453857421875</LatitudeDegrees>
              <LongitudeDegrees>-4.0922719426453113555908203125</LongitudeDegrees>
            </Position>
            <AltitudeMeters>1710.4000244140625</AltitudeMeters>
            <DistanceMeters>NAN</DistanceMeters>
          </Trackpoint>
          <Trackpoint>
            <Time>2018-12-30T13:22:51.000Z</Time>
            <Position>
              <LatitudeDegrees>40.75400135479867458343505859375</LatitudeDegrees>
              <LongitudeDegrees>-4.09228007309138774871826171875</LongitudeDegrees>
            </Position>
            <AltitudeMeters>1710.4000244140625</AltitudeMeters>
            <DistanceMeters>NAN</DistanceMeters>
          </Trackpoint>
          <Trackpoint>
            <Time>2018-12-30T13:22:52.000Z</Time>
            <Position>
              <LatitudeDegrees>40.75398643501102924346923828125</LatitudeDegrees>
              <LongitudeDegrees>-4.09228929318487644195556640625</LongitudeDegrees>
            </Position>
            <AltitudeMeters>1710.199951171875</AltitudeMeters>
            <DistanceMeters>NAN</DistanceMeters>
          </Trackpoint>
          <Trackpoint>
            <Time>2018-12-30T13:22:53.000Z</Time>
            <Position>
              <LatitudeDegrees>40.75397662818431854248046875</LatitudeDegrees>
              <LongitudeDegrees>-4.09229130484163761138916015625</LongitudeDegrees>
            </Position>
            <AltitudeMeters>1710.199951171875</AltitudeMeters>
            <DistanceMeters>NAN</DistanceMeters>
          </Trackpoint>
          <Trackpoint>
            <Time>2018-12-30T13:22:54.000Z</Time>
            <Position>
              <LatitudeDegrees>40.7539705932140350341796875</LatitudeDegrees>
              <LongitudeDegrees>-4.09229658544063568115234375</LongitudeDegrees>
            </Position>
            <AltitudeMeters>1710.199951171875</AltitudeMeters>
            <DistanceMeters>NAN</DistanceMeters>
          </Trackpoint>
          <Trackpoint>
            <Time>2018-12-30T13:22:55.000Z</Time>
            <Position>
              <LatitudeDegrees>40.75396900065243244171142578125</LatitudeDegrees>
              <LongitudeDegrees>-4.092296250164508819580078125</LongitudeDegrees>
            </Position>
            <AltitudeMeters>1710</AltitudeMeters>
            <DistanceMeters>NAN</DistanceMeters>
          </Trackpoint>
          <Trackpoint>
            <Time>2018-12-30T13:22:56.000Z</Time>
            <Position>
              <LatitudeDegrees>40.75396724045276641845703125</LatitudeDegrees>
              <LongitudeDegrees>-4.0922932326793670654296875</LongitudeDegrees>
            </Position>
            <AltitudeMeters>1710</AltitudeMeters>
            <DistanceMeters>NAN</DistanceMeters>
          </Trackpoint>
          <Trackpoint>
            <Time>2018-12-30T13:22:57.000Z</Time>
            <Position>
              <LatitudeDegrees>40.7539643906056880950927734375</LatitudeDegrees>
              <LongitudeDegrees>-4.09229365177452564239501953125</LongitudeDegrees>
            </Position>
            <AltitudeMeters>1709.800048828125</AltitudeMeters>
            <DistanceMeters>NAN</DistanceMeters>
          </Trackpoint>
          <Trackpoint>
            <Time>2018-12-30T13:22:58.000Z</Time>
            <Position>
              <LatitudeDegrees>40.75394184328615665435791015625</LatitudeDegrees>
              <LongitudeDegrees>-4.092308990657329559326171875</LongitudeDegrees>
            </Position>
            <AltitudeMeters>1709.800048828125</AltitudeMeters>
            <DistanceMeters>NAN</DistanceMeters>
          </Trackpoint>
          <Trackpoint>
            <Time>2018-12-30T13:22:59.000Z</Time>
            <Position>
              <LatitudeDegrees>40.75392901897430419921875</LatitudeDegrees>
              <LongitudeDegrees>-4.09231804311275482177734375</LongitudeDegrees>
            </Position>
            <AltitudeMeters>1709.800048828125</AltitudeMeters>
            <DistanceMeters>NAN</DistanceMeters>
          </Trackpoint>
          <Trackpoint>
            <Time>2018-12-30T13:23:00.000Z</Time>
            <Position>
              <LatitudeDegrees>40.75392055325210094451904296875</LatitudeDegrees>
              <LongitudeDegrees>-4.09232382662594318389892578125</LongitudeDegrees>
            </Position>
            <AltitudeMeters>1709.800048828125</AltitudeMeters>
            <DistanceMeters>NAN</DistanceMeters>
          </Trackpoint>
          <Trackpoint>
            <Time>2018-12-30T13:23:01.000Z</Time>
            <Position>
              <LatitudeDegrees>40.75391359627246856689453125</LatitudeDegrees>
              <LongitudeDegrees>-4.09232164733111858367919921875</LongitudeDegrees>
            </Position>
            <AltitudeMeters>1709.5999755859375</AltitudeMeters>
            <DistanceMeters>NAN</DistanceMeters>
          </Trackpoint>
          <Trackpoint>
            <Time>2018-12-30T13:23:02.000Z</Time>
            <Position>
              <LatitudeDegrees>40.75391359627246856689453125</LatitudeDegrees>
              <LongitudeDegrees>-4.09233304671943187713623046875</LongitudeDegrees>
            </Position>
            <AltitudeMeters>1709.5999755859375</AltitudeMeters>
            <DistanceMeters>NAN</DistanceMeters>
          </Trackpoint>
          <Trackpoint>
            <Time>2018-12-30T13:23:03.000Z</Time>
            <Position>
              <LatitudeDegrees>40.75388769619166851043701171875</LatitudeDegrees>
              <LongitudeDegrees>-4.09234897233545780181884765625</LongitudeDegrees>
            </Position>
            <AltitudeMeters>1709.5999755859375</AltitudeMeters>
            <DistanceMeters>NAN</DistanceMeters>
          </Trackpoint>
          <Trackpoint>
            <Time>2018-12-30T13:23:04.000Z</Time>
            <Position>
              <LatitudeDegrees>40.75387537479400634765625</LatitudeDegrees>
              <LongitudeDegrees>-4.092356264591217041015625</LongitudeDegrees>
            </Position>
            <AltitudeMeters>1709.199951171875</AltitudeMeters>
            <DistanceMeters>NAN</DistanceMeters>
          </Trackpoint>
          <Trackpoint>
            <Time>2018-12-30T13:23:05.000Z</Time>
            <Position>
              <LatitudeDegrees>40.753858275711536407470703125</LatitudeDegrees>
              <LongitudeDegrees>-4.09236632287502288818359375</LongitudeDegrees>
            </Position>
            <AltitudeMeters>1709</AltitudeMeters>
            <DistanceMeters>NAN</DistanceMeters>
          </Trackpoint>
          <Trackpoint>
            <Time>2018-12-30T13:23:06.000Z</Time>
            <Position>
              <LatitudeDegrees>40.753843523561954498291015625</LatitudeDegrees>
              <LongitudeDegrees>-4.09237378276884555816650390625</LongitudeDegrees>
            </Position>
            <AltitudeMeters>1708.800048828125</AltitudeMeters>
            <DistanceMeters>NAN</DistanceMeters>
          </Trackpoint>
          <Trackpoint>
            <Time>2018-12-30T13:23:07.000Z</Time>
            <Position>
              <LatitudeDegrees>40.75382600538432598114013671875</LatitudeDegrees>
              <LongitudeDegrees>-4.09238317050039768218994140625</LongitudeDegrees>
            </Position>
            <AltitudeMeters>1708.5999755859375</AltitudeMeters>
            <DistanceMeters>NAN</DistanceMeters>
          </Trackpoint>
          <Trackpoint>
            <Time>2018-12-30T13:23:08.000Z</Time>
            <Position>
              <LatitudeDegrees>40.7538068108260631561279296875</LatitudeDegrees>
              <LongitudeDegrees>-4.0923845954239368438720703125</LongitudeDegrees>
            </Position>
            <AltitudeMeters>1708.5999755859375</AltitudeMeters>
            <DistanceMeters>NAN</DistanceMeters>
          </Trackpoint>
          <Trackpoint>
            <Time>2018-12-30T13:23:09.000Z</Time>
            <Position>
              <LatitudeDegrees>40.75381125323474407196044921875</LatitudeDegrees>
              <LongitudeDegrees>-4.0923916362226009368896484375</LongitudeDegrees>
            </Position>
            <AltitudeMeters>1708.4000244140625</AltitudeMeters>
            <DistanceMeters>NAN</DistanceMeters>
          </Trackpoint>
          <Trackpoint>
            <Time>2018-12-30T13:23:10.000Z</Time>
            <Position>
              <LatitudeDegrees>40.7537977583706378936767578125</LatitudeDegrees>
              <LongitudeDegrees>-4.09238434396684169769287109375</LongitudeDegrees>
            </Position>
            <AltitudeMeters>1708.4000244140625</AltitudeMeters>
            <DistanceMeters>NAN</DistanceMeters>
          </Trackpoint>
          <Trackpoint>
            <Time>2018-12-30T13:23:11.000Z</Time>
            <Position>
              <LatitudeDegrees>40.75378845445811748504638671875</LatitudeDegrees>
              <LongitudeDegrees>-4.09238107502460479736328125</LongitudeDegrees>
            </Position>
            <AltitudeMeters>1708.4000244140625</AltitudeMeters>
            <DistanceMeters>NAN</DistanceMeters>
          </Trackpoint>
          <Trackpoint>
            <Time>2018-12-30T13:23:12.000Z</Time>
            <Position>
              <LatitudeDegrees>40.75378174893558025360107421875</LatitudeDegrees>
              <LongitudeDegrees>-4.09237881191074848175048828125</LongitudeDegrees>
            </Position>
            <AltitudeMeters>1708.4000244140625</AltitudeMeters>
            <DistanceMeters>NAN</DistanceMeters>
          </Trackpoint>
          <Trackpoint>
            <Time>2018-12-30T13:23:13.000Z</Time>
            <Position>
              <LatitudeDegrees>40.75377554632723331451416015625</LatitudeDegrees>
              <LongitudeDegrees>-4.09238384105265140533447265625</LongitudeDegrees>
            </Position>
            <AltitudeMeters>1708.4000244140625</AltitudeMeters>
            <DistanceMeters>NAN</DistanceMeters>
          </Trackpoint>
          <Trackpoint>
            <Time>2018-12-30T13:23:14.000Z</Time>
            <Position>
              <LatitudeDegrees>40.75377169065177440643310546875</LatitudeDegrees>
              <LongitudeDegrees>-4.09238040447235107421875</LongitudeDegrees>
            </Position>
            <AltitudeMeters>1708.4000244140625</AltitudeMeters>
            <DistanceMeters>NAN</DistanceMeters>
          </Trackpoint>
          <Trackpoint>
            <Time>2018-12-30T13:23:15.000Z</Time>
            <Position>
              <LatitudeDegrees>40.75376766733825206756591796875</LatitudeDegrees>
              <LongitudeDegrees>-4.09238333813846111297607421875</LongitudeDegrees>
            </Position>
            <AltitudeMeters>1708.199951171875</AltitudeMeters>
            <DistanceMeters>NAN</DistanceMeters>
          </Trackpoint>
          <Trackpoint>
            <Time>2018-12-30T13:23:16.000Z</Time>
            <Position>
              <LatitudeDegrees>40.75376532040536403656005859375</LatitudeDegrees>
              <LongitudeDegrees>-4.0923738665878772735595703125</LongitudeDegrees>
            </Position>
            <AltitudeMeters>1708.199951171875</AltitudeMeters>
            <DistanceMeters>NAN</DistanceMeters>
          </Trackpoint>
          <Trackpoint>
            <Time>2018-12-30T13:23:17.000Z</Time>
            <Position>
              <LatitudeDegrees>40.7537638954818248748779296875</LatitudeDegrees>
              <LongitudeDegrees>-4.0923886187374591827392578125</LongitudeDegrees>
            </Position>
            <AltitudeMeters>1708</AltitudeMeters>
            <DistanceMeters>NAN</DistanceMeters>
          </Trackpoint>
          <Trackpoint>
            <Time>2018-12-30T13:23:18.000Z</Time>
            <Position>
              <LatitudeDegrees>40.75375341810286045074462890625</LatitudeDegrees>
              <LongitudeDegrees>-4.09239850938320159912109375</LongitudeDegrees>
            </Position>
            <AltitudeMeters>1707.800048828125</AltitudeMeters>
            <DistanceMeters>NAN</DistanceMeters>
          </Trackpoint>
          <Trackpoint>
            <Time>2018-12-30T13:23:19.000Z</Time>
            <Position>
              <LatitudeDegrees>40.753736905753612518310546875</LatitudeDegrees>
              <LongitudeDegrees>-4.09240395762026309967041015625</LongitudeDegrees>
            </Position>
            <AltitudeMeters>1707.5999755859375</AltitudeMeters>
            <DistanceMeters>NAN</DistanceMeters>
          </Trackpoint>
          <Trackpoint>
            <Time>2018-12-30T13:23:20.000Z</Time>
            <Position>
              <LatitudeDegrees>40.7537182979285717010498046875</LatitudeDegrees>
              <LongitudeDegrees>-4.09240261651575565338134765625</LongitudeDegrees>
            </Position>
            <AltitudeMeters>1707.800048828125</AltitudeMeters>
            <DistanceMeters>NAN</DistanceMeters>
          </Trackpoint>
          <Trackpoint>
            <Time>2018-12-30T13:23:21.000Z</Time>
            <Position>
              <LatitudeDegrees>40.753691308200359344482421875</LatitudeDegrees>
              <LongitudeDegrees>-4.092409573495388031005859375</LongitudeDegrees>
            </Position>
            <AltitudeMeters>1707.800048828125</AltitudeMeters>
            <DistanceMeters>NAN</DistanceMeters>
          </Trackpoint>
          <Trackpoint>
            <Time>2018-12-30T13:23:22.000Z</Time>
            <Position>
              <LatitudeDegrees>40.753675214946269989013671875</LatitudeDegrees>
              <LongitudeDegrees>-4.09241351298987865447998046875</LongitudeDegrees>
            </Position>
            <AltitudeMeters>1707.800048828125</AltitudeMeters>
            <DistanceMeters>NAN</DistanceMeters>
          </Trackpoint>
          <Trackpoint>
            <Time>2018-12-30T13:23:23.000Z</Time>
            <Position>
              <LatitudeDegrees>40.75366674922406673431396484375</LatitudeDegrees>
              <LongitudeDegrees>-4.092400856316089630126953125</LongitudeDegrees>
            </Position>
            <AltitudeMeters>1707.800048828125</AltitudeMeters>
            <DistanceMeters>NAN</DistanceMeters>
          </Trackpoint>
          <Trackpoint>
            <Time>2018-12-30T13:23:24.000Z</Time>
            <Position>
              <LatitudeDegrees>40.75367353856563568115234375</LatitudeDegrees>
              <LongitudeDegrees>-4.092396162450313568115234375</LongitudeDegrees>
            </Position>
            <AltitudeMeters>1707.800048828125</AltitudeMeters>
            <DistanceMeters>NAN</DistanceMeters>
          </Trackpoint>
          <Trackpoint>
            <Time>2018-12-30T13:23:25.000Z</Time>
            <Position>
              <LatitudeDegrees>40.753683932125568389892578125</LatitudeDegrees>
              <LongitudeDegrees>-4.0923939831554889678955078125</LongitudeDegrees>
            </Position>
            <AltitudeMeters>1707.800048828125</AltitudeMeters>
            <DistanceMeters>NAN</DistanceMeters>
          </Trackpoint>
          <Trackpoint>
            <Time>2018-12-30T13:23:26.000Z</Time>
            <Position>
              <LatitudeDegrees>40.75365744531154632568359375</LatitudeDegrees>
              <LongitudeDegrees>-4.0924211405217647552490234375</LongitudeDegrees>
            </Position>
            <AltitudeMeters>1707.5999755859375</AltitudeMeters>
            <DistanceMeters>NAN</DistanceMeters>
          </Trackpoint>
          <Trackpoint>
            <Time>2018-12-30T13:23:27.000Z</Time>
            <Position>
              <LatitudeDegrees>40.7536438666284084320068359375</LatitudeDegrees>
              <LongitudeDegrees>-4.09243446774780750274658203125</LongitudeDegrees>
            </Position>
            <AltitudeMeters>1707.4000244140625</AltitudeMeters>
            <DistanceMeters>NAN</DistanceMeters>
          </Trackpoint>
          <Trackpoint>
            <Time>2018-12-30T13:23:28.000Z</Time>
            <Position>
              <LatitudeDegrees>40.75360924936830997467041015625</LatitudeDegrees>
              <LongitudeDegrees>-4.09246564842760562896728515625</LongitudeDegrees>
            </Position>
            <AltitudeMeters>1707.4000244140625</AltitudeMeters>
            <DistanceMeters>NAN</DistanceMeters>
          </Trackpoint>
          <Trackpoint>
            <Time>2018-12-30T13:23:29.000Z</Time>
            <Position>
              <LatitudeDegrees>40.753584690392017364501953125</LatitudeDegrees>
              <LongitudeDegrees>-4.09248425625264644622802734375</LongitudeDegrees>
            </Position>
            <AltitudeMeters>1707.199951171875</AltitudeMeters>
            <DistanceMeters>NAN</DistanceMeters>
          </Trackpoint>
          <Trackpoint>
            <Time>2018-12-30T13:23:30.000Z</Time>
            <Position>
              <LatitudeDegrees>40.7535821758210659027099609375</LatitudeDegrees>
              <LongitudeDegrees>-4.092484004795551300048828125</LongitudeDegrees>
            </Position>
            <AltitudeMeters>1707.199951171875</AltitudeMeters>
            <DistanceMeters>NAN</DistanceMeters>
          </Trackpoint>
          <Trackpoint>
            <Time>2018-12-30T13:23:31.000Z</Time>
            <Position>
              <LatitudeDegrees>40.75357002206146717071533203125</LatitudeDegrees>
              <LongitudeDegrees>-4.09249397926032543182373046875</LongitudeDegrees>
            </Position>
            <AltitudeMeters>1707</AltitudeMeters>
            <DistanceMeters>NAN</DistanceMeters>
          </Trackpoint>
          <Trackpoint>
            <Time>2018-12-30T13:23:32.000Z</Time>
            <Position>
              <LatitudeDegrees>40.75357991270720958709716796875</LatitudeDegrees>
              <LongitudeDegrees>-4.09249599091708660125732421875</LongitudeDegrees>
            </Position>
            <AltitudeMeters>1707.199951171875</AltitudeMeters>
            <DistanceMeters>NAN</DistanceMeters>
          </Trackpoint>
          <Trackpoint>
            <Time>2018-12-30T13:23:33.000Z</Time>
            <Position>
              <LatitudeDegrees>40.7535771466791629791259765625</LatitudeDegrees>
              <LongitudeDegrees>-4.0924945659935474395751953125</LongitudeDegrees>
            </Position>
            <AltitudeMeters>1707.4000244140625</AltitudeMeters>
            <DistanceMeters>NAN</DistanceMeters>
          </Trackpoint>
          <Trackpoint>
            <Time>2018-12-30T13:23:34.000Z</Time>
            <Position>
              <LatitudeDegrees>40.7535496540367603302001953125</LatitudeDegrees>
              <LongitudeDegrees>-4.092518873512744903564453125</LongitudeDegrees>
            </Position>
            <AltitudeMeters>1707.5999755859375</AltitudeMeters>
            <DistanceMeters>NAN</DistanceMeters>
          </Trackpoint>
          <Trackpoint>
            <Time>2018-12-30T13:23:35.000Z</Time>
            <Position>
              <LatitudeDegrees>40.75355677865445613861083984375</LatitudeDegrees>
              <LongitudeDegrees>-4.09251250326633453369140625</LongitudeDegrees>
            </Position>
            <AltitudeMeters>1707.800048828125</AltitudeMeters>
            <DistanceMeters>NAN</DistanceMeters>
          </Trackpoint>
          <Trackpoint>
            <Time>2018-12-30T13:23:36.000Z</Time>
            <Position>
              <LatitudeDegrees>40.75355594046413898468017578125</LatitudeDegrees>
              <LongitudeDegrees>-4.0925120003521442413330078125</LongitudeDegrees>
            </Position>
            <AltitudeMeters>1708</AltitudeMeters>
            <DistanceMeters>NAN</DistanceMeters>
          </Trackpoint>
          <Trackpoint>
            <Time>2018-12-30T13:23:37.000Z</Time>
            <Position>
              <LatitudeDegrees>40.75355208478868007659912109375</LatitudeDegrees>
              <LongitudeDegrees>-4.09251074306666851043701171875</LongitudeDegrees>
            </Position>
            <AltitudeMeters>1708.199951171875</AltitudeMeters>
            <DistanceMeters>NAN</DistanceMeters>
          </Trackpoint>
          <Trackpoint>
            <Time>2018-12-30T13:23:38.000Z</Time>
            <Position>
              <LatitudeDegrees>40.7535402663052082061767578125</LatitudeDegrees>
              <LongitudeDegrees>-4.092514179646968841552734375</LongitudeDegrees>
            </Position>
            <AltitudeMeters>1708.199951171875</AltitudeMeters>
            <DistanceMeters>NAN</DistanceMeters>
          </Trackpoint>
          <Trackpoint>
            <Time>2018-12-30T13:23:39.000Z</Time>
            <Position>
              <LatitudeDegrees>40.7535280287265777587890625</LatitudeDegrees>
              <LongitudeDegrees>-4.09250420518219470977783203125</LongitudeDegrees>
            </Position>
            <AltitudeMeters>1708.199951171875</AltitudeMeters>
            <DistanceMeters>NAN</DistanceMeters>
          </Trackpoint>
          <Trackpoint>
            <Time>2018-12-30T13:23:40.000Z</Time>
            <Position>
              <LatitudeDegrees>40.75351528823375701904296875</LatitudeDegrees>
              <LongitudeDegrees>-4.0925036184489727020263671875</LongitudeDegrees>
            </Position>
            <AltitudeMeters>1708.4000244140625</AltitudeMeters>
            <DistanceMeters>NAN</DistanceMeters>
          </Trackpoint>
          <Trackpoint>
            <Time>2018-12-30T13:23:41.000Z</Time>
            <Position>
              <LatitudeDegrees>40.75350799597799777984619140625</LatitudeDegrees>
              <LongitudeDegrees>-4.092508815228939056396484375</LongitudeDegrees>
            </Position>
            <AltitudeMeters>1708.199951171875</AltitudeMeters>
            <DistanceMeters>NAN</DistanceMeters>
          </Trackpoint>
          <Trackpoint>
            <Time>2018-12-30T13:23:42.000Z</Time>
            <Position>
              <LatitudeDegrees>40.75350715778768062591552734375</LatitudeDegrees>
              <LongitudeDegrees>-4.09250353462994098663330078125</LongitudeDegrees>
            </Position>
            <AltitudeMeters>1708.199951171875</AltitudeMeters>
            <DistanceMeters>NAN</DistanceMeters>
          </Trackpoint>
          <Trackpoint>
            <Time>2018-12-30T13:23:43.000Z</Time>
            <Position>
              <LatitudeDegrees>40.75350112281739711761474609375</LatitudeDegrees>
              <LongitudeDegrees>-4.09249917604029178619384765625</LongitudeDegrees>
            </Position>
            <AltitudeMeters>1708.199951171875</AltitudeMeters>
            <DistanceMeters>NAN</DistanceMeters>
          </Trackpoint>
          <Trackpoint>
            <Time>2018-12-30T13:23:44.000Z</Time>
            <Position>
              <LatitudeDegrees>40.75350112281739711761474609375</LatitudeDegrees>
              <LongitudeDegrees>-4.09249506890773773193359375</LongitudeDegrees>
            </Position>
            <AltitudeMeters>1708.199951171875</AltitudeMeters>
            <DistanceMeters>NAN</DistanceMeters>
          </Trackpoint>
          <Trackpoint>
            <Time>2018-12-30T13:23:45.000Z</Time>
            <Position>
              <LatitudeDegrees>40.7535335607826709747314453125</LatitudeDegrees>
              <LongitudeDegrees>-4.092493392527103424072265625</LongitudeDegrees>
            </Position>
            <AltitudeMeters>1708</AltitudeMeters>
            <DistanceMeters>NAN</DistanceMeters>
          </Trackpoint>
          <Trackpoint>
            <Time>2018-12-30T13:23:46.000Z</Time>
            <Position>
              <LatitudeDegrees>40.753558538854122161865234375</LatitudeDegrees>
              <LongitudeDegrees>-4.092488028109073638916015625</LongitudeDegrees>
            </Position>
            <AltitudeMeters>1707.800048828125</AltitudeMeters>
            <DistanceMeters>NAN</DistanceMeters>
          </Trackpoint>
          <Trackpoint>
            <Time>2018-12-30T13:23:47.000Z</Time>
            <Position>
              <LatitudeDegrees>40.7535526715219020843505859375</LatitudeDegrees>
              <LongitudeDegrees>-4.09247218631207942962646484375</LongitudeDegrees>
            </Position>
            <AltitudeMeters>1707.800048828125</AltitudeMeters>
            <DistanceMeters>NAN</DistanceMeters>
          </Trackpoint>
          <Trackpoint>
            <Time>2018-12-30T13:23:48.000Z</Time>
            <Position>
              <LatitudeDegrees>40.753550827503204345703125</LatitudeDegrees>
              <LongitudeDegrees>-4.09246464259922504425048828125</LongitudeDegrees>
            </Position>
            <AltitudeMeters>1707.800048828125</AltitudeMeters>
            <DistanceMeters>NAN</DistanceMeters>
          </Trackpoint>
          <Trackpoint>
            <Time>2018-12-30T13:23:49.000Z</Time>
            <Position>
              <LatitudeDegrees>40.75355040840804576873779296875</LatitudeDegrees>
              <LongitudeDegrees>-4.0924466215074062347412109375</LongitudeDegrees>
            </Position>
            <AltitudeMeters>1707.800048828125</AltitudeMeters>
            <DistanceMeters>NAN</DistanceMeters>
          </Trackpoint>
          <Trackpoint>
            <Time>2018-12-30T13:23:50.000Z</Time>
            <Position>
              <LatitudeDegrees>40.75355258770287036895751953125</LatitudeDegrees>
              <LongitudeDegrees>-4.0924273431301116943359375</LongitudeDegrees>
            </Position>
            <AltitudeMeters>1707.5999755859375</AltitudeMeters>
            <DistanceMeters>NAN</DistanceMeters>
          </Trackpoint>
          <Trackpoint>
            <Time>2018-12-30T13:23:51.000Z</Time>
            <Position>
              <LatitudeDegrees>40.75355350971221923828125</LatitudeDegrees>
              <LongitudeDegrees>-4.0924191288650035858154296875</LongitudeDegrees>
            </Position>
            <AltitudeMeters>1707.5999755859375</AltitudeMeters>
            <DistanceMeters>NAN</DistanceMeters>
          </Trackpoint>
          <Trackpoint>
            <Time>2018-12-30T13:23:52.000Z</Time>
            <Position>
              <LatitudeDegrees>40.75355946086347103118896484375</LatitudeDegrees>
              <LongitudeDegrees>-4.0924147702753543853759765625</LongitudeDegrees>
            </Position>
            <AltitudeMeters>1707.4000244140625</AltitudeMeters>
            <DistanceMeters>NAN</DistanceMeters>
          </Trackpoint>
          <Trackpoint>
            <Time>2018-12-30T13:23:53.000Z</Time>
            <Position>
              <LatitudeDegrees>40.75355610810220241546630859375</LatitudeDegrees>
              <LongitudeDegrees>-4.09240429289638996124267578125</LongitudeDegrees>
            </Position>
            <AltitudeMeters>1707.4000244140625</AltitudeMeters>
            <DistanceMeters>NAN</DistanceMeters>
          </Trackpoint>
          <Trackpoint>
            <Time>2018-12-30T13:23:54.000Z</Time>
            <Position>
              <LatitudeDegrees>40.75355074368417263031005859375</LatitudeDegrees>
              <LongitudeDegrees>-4.09239473752677440643310546875</LongitudeDegrees>
            </Position>
            <AltitudeMeters>1707</AltitudeMeters>
            <DistanceMeters>NAN</DistanceMeters>
          </Trackpoint>
          <Trackpoint>
            <Time>2018-12-30T13:23:55.000Z</Time>
            <Position>
              <LatitudeDegrees>40.75353817082941532135009765625</LatitudeDegrees>
              <LongitudeDegrees>-4.0923876129090785980224609375</LongitudeDegrees>
            </Position>
            <AltitudeMeters>1706.800048828125</AltitudeMeters>
            <DistanceMeters>NAN</DistanceMeters>
          </Trackpoint>
          <Trackpoint>
            <Time>2018-12-30T13:23:56.000Z</Time>
            <Position>
              <LatitudeDegrees>40.75352408923208713531494140625</LatitudeDegrees>
              <LongitudeDegrees>-4.092380069196224212646484375</LongitudeDegrees>
            </Position>
            <AltitudeMeters>1706.4000244140625</AltitudeMeters>
            <DistanceMeters>NAN</DistanceMeters>
          </Trackpoint>
          <Trackpoint>
            <Time>2018-12-30T13:23:57.000Z</Time>
            <Position>
              <LatitudeDegrees>40.75350900180637836456298828125</LatitudeDegrees>
              <LongitudeDegrees>-4.09237571060657501220703125</LongitudeDegrees>
            </Position>
            <AltitudeMeters>1706</AltitudeMeters>
            <DistanceMeters>NAN</DistanceMeters>
          </Trackpoint>
          <Trackpoint>
            <Time>2018-12-30T13:23:58.000Z</Time>
            <Position>
              <LatitudeDegrees>40.7534956745803356170654296875</LatitudeDegrees>
              <LongitudeDegrees>-4.0923742018640041351318359375</LongitudeDegrees>
            </Position>
            <AltitudeMeters>1705.4000244140625</AltitudeMeters>
            <DistanceMeters>NAN</DistanceMeters>
          </Trackpoint>
          <Trackpoint>
            <Time>2018-12-30T13:23:59.000Z</Time>
            <Position>
              <LatitudeDegrees>40.75348536483943462371826171875</LatitudeDegrees>
              <LongitudeDegrees>-4.09236967563629150390625</LongitudeDegrees>
            </Position>
            <AltitudeMeters>1705.199951171875</AltitudeMeters>
            <DistanceMeters>NAN</DistanceMeters>
          </Trackpoint>
          <Trackpoint>
            <Time>2018-12-30T13:24:00.000Z</Time>
            <Position>
              <LatitudeDegrees>40.75347983278334140777587890625</LatitudeDegrees>
              <LongitudeDegrees>-4.09236338920891284942626953125</LongitudeDegrees>
            </Position>
            <AltitudeMeters>1705</AltitudeMeters>
            <DistanceMeters>NAN</DistanceMeters>
          </Trackpoint>
          <Trackpoint>
            <Time>2018-12-30T13:24:01.000Z</Time>
            <Position>
              <LatitudeDegrees>40.75347916223108768463134765625</LatitudeDegrees>
              <LongitudeDegrees>-4.09235551021993160247802734375</LongitudeDegrees>
            </Position>
            <AltitudeMeters>1704.5999755859375</AltitudeMeters>
            <DistanceMeters>NAN</DistanceMeters>
          </Trackpoint>
          <Trackpoint>
            <Time>2018-12-30T13:24:02.000Z</Time>
            <Position>
              <LatitudeDegrees>40.75347312726080417633056640625</LatitudeDegrees>
              <LongitudeDegrees>-4.09234913997352123260498046875</LongitudeDegrees>
            </Position>
            <AltitudeMeters>1704.4000244140625</AltitudeMeters>
            <DistanceMeters>NAN</DistanceMeters>
          </Trackpoint>
          <Trackpoint>
            <Time>2018-12-30T13:24:03.000Z</Time>
            <Position>
              <LatitudeDegrees>40.7534648291766643524169921875</LatitudeDegrees>
              <LongitudeDegrees>-4.0923446975648403167724609375</LongitudeDegrees>
            </Position>
            <AltitudeMeters>1704.199951171875</AltitudeMeters>
            <DistanceMeters>NAN</DistanceMeters>
          </Trackpoint>
          <Trackpoint>
            <Time>2018-12-30T13:24:04.000Z</Time>
            <Position>
              <LatitudeDegrees>40.75345317833125591278076171875</LatitudeDegrees>
              <LongitudeDegrees>-4.0923416800796985626220703125</LongitudeDegrees>
            </Position>
            <AltitudeMeters>1703.800048828125</AltitudeMeters>
            <DistanceMeters>NAN</DistanceMeters>
          </Trackpoint>
          <Trackpoint>
            <Time>2018-12-30T13:24:05.000Z</Time>
            <Position>
              <LatitudeDegrees>40.753432810306549072265625</LatitudeDegrees>
              <LongitudeDegrees>-4.092344529926776885986328125</LongitudeDegrees>
            </Position>
            <AltitudeMeters>1703.5999755859375</AltitudeMeters>
            <DistanceMeters>NAN</DistanceMeters>
          </Trackpoint>
          <Trackpoint>
            <Time>2018-12-30T13:24:06.000Z</Time>
            <Position>
              <LatitudeDegrees>40.75343155302107334136962890625</LatitudeDegrees>
              <LongitudeDegrees>-4.09234310500323772430419921875</LongitudeDegrees>
            </Position>
            <AltitudeMeters>1703.4000244140625</AltitudeMeters>
            <DistanceMeters>NAN</DistanceMeters>
          </Trackpoint>
          <Trackpoint>
            <Time>2018-12-30T13:24:07.000Z</Time>
            <Position>
              <LatitudeDegrees>40.7534269429743289947509765625</LatitudeDegrees>
              <LongitudeDegrees>-4.0923376567661762237548828125</LongitudeDegrees>
            </Position>
            <AltitudeMeters>1703</AltitudeMeters>
            <DistanceMeters>NAN</DistanceMeters>
          </Trackpoint>
          <Trackpoint>
            <Time>2018-12-30T13:24:08.000Z</Time>
            <Position>
              <LatitudeDegrees>40.753416381776332855224609375</LatitudeDegrees>
              <LongitudeDegrees>-4.09233589656651020050048828125</LongitudeDegrees>
            </Position>
            <AltitudeMeters>1702.800048828125</AltitudeMeters>
            <DistanceMeters>NAN</DistanceMeters>
          </Trackpoint>
          <Trackpoint>
            <Time>2018-12-30T13:24:09.000Z</Time>
            <Position>
              <LatitudeDegrees>40.75340925715863704681396484375</LatitudeDegrees>
              <LongitudeDegrees>-4.092329777777194976806640625</LongitudeDegrees>
            </Position>
            <AltitudeMeters>1702.4000244140625</AltitudeMeters>
            <DistanceMeters>NAN</DistanceMeters>
          </Trackpoint>
          <Trackpoint>
            <Time>2018-12-30T13:24:10.000Z</Time>
            <Position>
              <LatitudeDegrees>40.75339056551456451416015625</LatitudeDegrees>
              <LongitudeDegrees>-4.09232533536851406097412109375</LongitudeDegrees>
            </Position>
            <AltitudeMeters>1702.199951171875</AltitudeMeters>
            <DistanceMeters>NAN</DistanceMeters>
          </Trackpoint>
          <Trackpoint>
            <Time>2018-12-30T13:24:11.000Z</Time>
            <Position>
              <LatitudeDegrees>40.75337019748985767364501953125</LatitudeDegrees>
              <LongitudeDegrees>-4.09232952632009983062744140625</LongitudeDegrees>
            </Position>
            <AltitudeMeters>1702</AltitudeMeters>
            <DistanceMeters>NAN</DistanceMeters>
          </Trackpoint>
          <Trackpoint>
            <Time>2018-12-30T13:24:12.000Z</Time>
            <Position>
              <LatitudeDegrees>40.7533483207225799560546875</LatitudeDegrees>
              <LongitudeDegrees>-4.09232986159622669219970703125</LongitudeDegrees>
            </Position>
            <AltitudeMeters>1701.800048828125</AltitudeMeters>
            <DistanceMeters>NAN</DistanceMeters>
          </Trackpoint>
          <Trackpoint>
            <Time>2018-12-30T13:24:13.000Z</Time>
            <Position>
              <LatitudeDegrees>40.7533364184200763702392578125</LatitudeDegrees>
              <LongitudeDegrees>-4.09232265315949916839599609375</LongitudeDegrees>
            </Position>
            <AltitudeMeters>1701.5999755859375</AltitudeMeters>
            <DistanceMeters>NAN</DistanceMeters>
          </Trackpoint>
          <Trackpoint>
            <Time>2018-12-30T13:24:14.000Z</Time>
            <Position>
              <LatitudeDegrees>40.7533193193376064300537109375</LatitudeDegrees>
              <LongitudeDegrees>-4.09232474863529205322265625</LongitudeDegrees>
            </Position>
            <AltitudeMeters>1701.199951171875</AltitudeMeters>
            <DistanceMeters>NAN</DistanceMeters>
          </Trackpoint>
          <Trackpoint>
            <Time>2018-12-30T13:24:15.000Z</Time>
            <Position>
              <LatitudeDegrees>40.7533126138150691986083984375</LatitudeDegrees>
              <LongitudeDegrees>-4.092317037284374237060546875</LongitudeDegrees>
            </Position>
            <AltitudeMeters>1701</AltitudeMeters>
            <DistanceMeters>NAN</DistanceMeters>
          </Trackpoint>
          <Trackpoint>
            <Time>2018-12-30T13:24:16.000Z</Time>
            <Position>
              <LatitudeDegrees>40.7532918266952037811279296875</LatitudeDegrees>
              <LongitudeDegrees>-4.092315025627613067626953125</LongitudeDegrees>
            </Position>
            <AltitudeMeters>1700.5999755859375</AltitudeMeters>
            <DistanceMeters>NAN</DistanceMeters>
          </Trackpoint>
          <Trackpoint>
            <Time>2018-12-30T13:24:17.000Z</Time>
            <Position>
              <LatitudeDegrees>40.75327866710722446441650390625</LatitudeDegrees>
              <LongitudeDegrees>-4.09231008030474185943603515625</LongitudeDegrees>
            </Position>
            <AltitudeMeters>1700.4000244140625</AltitudeMeters>
            <DistanceMeters>NAN</DistanceMeters>
          </Trackpoint>
          <Trackpoint>
            <Time>2018-12-30T13:24:18.000Z</Time>
            <Position>
              <LatitudeDegrees>40.75325754471123218536376953125</LatitudeDegrees>
              <LongitudeDegrees>-4.0923118405044078826904296875</LongitudeDegrees>
            </Position>
            <AltitudeMeters>1700</AltitudeMeters>
            <DistanceMeters>NAN</DistanceMeters>
          </Trackpoint>
          <Trackpoint>
            <Time>2018-12-30T13:24:19.000Z</Time>
            <Position>
              <LatitudeDegrees>40.7532463967800140380859375</LatitudeDegrees>
              <LongitudeDegrees>-4.0923071466386318206787109375</LongitudeDegrees>
            </Position>
            <AltitudeMeters>1699.4000244140625</AltitudeMeters>
            <DistanceMeters>NAN</DistanceMeters>
          </Trackpoint>
          <Trackpoint>
            <Time>2018-12-30T13:24:20.000Z</Time>
            <Position>
              <LatitudeDegrees>40.75323776341974735260009765625</LatitudeDegrees>
              <LongitudeDegrees>-4.09229767508804798126220703125</LongitudeDegrees>
            </Position>
            <AltitudeMeters>1699</AltitudeMeters>
            <DistanceMeters>NAN</DistanceMeters>
          </Trackpoint>
          <Trackpoint>
            <Time>2018-12-30T13:24:21.000Z</Time>
            <Position>
              <LatitudeDegrees>40.7532344944775104522705078125</LatitudeDegrees>
              <LongitudeDegrees>-4.0922799892723560333251953125</LongitudeDegrees>
            </Position>
            <AltitudeMeters>1698.800048828125</AltitudeMeters>
            <DistanceMeters>NAN</DistanceMeters>
          </Trackpoint>
          <Trackpoint>
            <Time>2018-12-30T13:24:22.000Z</Time>
            <Position>
              <LatitudeDegrees>40.753226615488529205322265625</LatitudeDegrees>
              <LongitudeDegrees>-4.0922692604362964630126953125</LongitudeDegrees>
            </Position>
            <AltitudeMeters>1698.4000244140625</AltitudeMeters>
            <DistanceMeters>NAN</DistanceMeters>
          </Trackpoint>
          <Trackpoint>
            <Time>2018-12-30T13:24:23.000Z</Time>
            <Position>
              <LatitudeDegrees>40.75321697629988193511962890625</LatitudeDegrees>
              <LongitudeDegrees>-4.092257358133792877197265625</LongitudeDegrees>
            </Position>
            <AltitudeMeters>1698.199951171875</AltitudeMeters>
            <DistanceMeters>NAN</DistanceMeters>
          </Trackpoint>
          <Trackpoint>
            <Time>2018-12-30T13:24:24.000Z</Time>
            <Position>
              <LatitudeDegrees>40.75320951640605926513671875</LatitudeDegrees>
              <LongitudeDegrees>-4.09224688075482845306396484375</LongitudeDegrees>
            </Position>
            <AltitudeMeters>1698.199951171875</AltitudeMeters>
            <DistanceMeters>NAN</DistanceMeters>
          </Trackpoint>
          <Trackpoint>
            <Time>2018-12-30T13:24:25.000Z</Time>
            <Position>
              <LatitudeDegrees>40.75320373289287090301513671875</LatitudeDegrees>
              <LongitudeDegrees>-4.09224218688905239105224609375</LongitudeDegrees>
            </Position>
            <AltitudeMeters>1698.199951171875</AltitudeMeters>
            <DistanceMeters>NAN</DistanceMeters>
          </Trackpoint>
          <Trackpoint>
            <Time>2018-12-30T13:24:26.000Z</Time>
            <Position>
              <LatitudeDegrees>40.75319945812225341796875</LatitudeDegrees>
              <LongitudeDegrees>-4.09223933704197406768798828125</LongitudeDegrees>
            </Position>
            <AltitudeMeters>1698.199951171875</AltitudeMeters>
            <DistanceMeters>NAN</DistanceMeters>
          </Trackpoint>
          <Trackpoint>
            <Time>2018-12-30T13:24:27.000Z</Time>
            <Position>
              <LatitudeDegrees>40.75318445451557636260986328125</LatitudeDegrees>
              <LongitudeDegrees>-4.09224788658320903778076171875</LongitudeDegrees>
            </Position>
            <AltitudeMeters>1698.199951171875</AltitudeMeters>
            <DistanceMeters>NAN</DistanceMeters>
          </Trackpoint>
          <Trackpoint>
            <Time>2018-12-30T13:24:28.000Z</Time>
            <Position>
              <LatitudeDegrees>40.75317556969821453094482421875</LatitudeDegrees>
              <LongitudeDegrees>-4.09224403090775012969970703125</LongitudeDegrees>
            </Position>
            <AltitudeMeters>1698</AltitudeMeters>
            <DistanceMeters>NAN</DistanceMeters>
          </Trackpoint>
          <Trackpoint>
            <Time>2018-12-30T13:24:29.000Z</Time>
            <Position>
              <LatitudeDegrees>40.75317054055631160736083984375</LatitudeDegrees>
              <LongitudeDegrees>-4.09224017523229122161865234375</LongitudeDegrees>
            </Position>
            <AltitudeMeters>1698</AltitudeMeters>
            <DistanceMeters>NAN</DistanceMeters>
          </Trackpoint>
          <Trackpoint>
            <Time>2018-12-30T13:24:30.000Z</Time>
            <Position>
              <LatitudeDegrees>40.7531624101102352142333984375</LatitudeDegrees>
              <LongitudeDegrees>-4.092235565185546875</LongitudeDegrees>
            </Position>
            <AltitudeMeters>1698</AltitudeMeters>
            <DistanceMeters>NAN</DistanceMeters>
          </Trackpoint>
          <Trackpoint>
            <Time>2018-12-30T13:24:31.000Z</Time>
            <Position>
              <LatitudeDegrees>40.7531511783599853515625</LatitudeDegrees>
              <LongitudeDegrees>-4.0922367386519908905029296875</LongitudeDegrees>
            </Position>
            <AltitudeMeters>1698</AltitudeMeters>
            <DistanceMeters>NAN</DistanceMeters>
          </Trackpoint>
          <Trackpoint>
            <Time>2018-12-30T13:24:32.000Z</Time>
            <Position>
              <LatitudeDegrees>40.75313919223845005035400390625</LatitudeDegrees>
              <LongitudeDegrees>-4.0922404266893863677978515625</LongitudeDegrees>
            </Position>
            <AltitudeMeters>1698</AltitudeMeters>
            <DistanceMeters>NAN</DistanceMeters>
          </Trackpoint>
          <Trackpoint>
            <Time>2018-12-30T13:24:33.000Z</Time>
            <Position>
              <LatitudeDegrees>40.7531278766691684722900390625</LatitudeDegrees>
              <LongitudeDegrees>-4.09224419854581356048583984375</LongitudeDegrees>
            </Position>
            <AltitudeMeters>1697.800048828125</AltitudeMeters>
            <DistanceMeters>NAN</DistanceMeters>
          </Trackpoint>
          <Trackpoint>
            <Time>2018-12-30T13:24:34.000Z</Time>
            <Position>
              <LatitudeDegrees>40.75311941094696521759033203125</LatitudeDegrees>
              <LongitudeDegrees>-4.09224520437419414520263671875</LongitudeDegrees>
            </Position>
            <AltitudeMeters>1697.800048828125</AltitudeMeters>
            <DistanceMeters>NAN</DistanceMeters>
          </Trackpoint>
          <Trackpoint>
            <Time>2018-12-30T13:24:35.000Z</Time>
            <Position>
              <LatitudeDegrees>40.75310734100639820098876953125</LatitudeDegrees>
              <LongitudeDegrees>-4.09224855713546276092529296875</LongitudeDegrees>
            </Position>
            <AltitudeMeters>1697.800048828125</AltitudeMeters>
            <DistanceMeters>NAN</DistanceMeters>
          </Trackpoint>
          <Trackpoint>
            <Time>2018-12-30T13:24:36.000Z</Time>
            <Position>
              <LatitudeDegrees>40.75309275649487972259521484375</LatitudeDegrees>
              <LongitudeDegrees>-4.09225492738187313079833984375</LongitudeDegrees>
            </Position>
            <AltitudeMeters>1697.5999755859375</AltitudeMeters>
            <DistanceMeters>NAN</DistanceMeters>
          </Trackpoint>
          <Trackpoint>
            <Time>2018-12-30T13:24:37.000Z</Time>
            <Position>
              <LatitudeDegrees>40.75307565741240978240966796875</LatitudeDegrees>
              <LongitudeDegrees>-4.092262051999568939208984375</LongitudeDegrees>
            </Position>
            <AltitudeMeters>1697.5999755859375</AltitudeMeters>
            <DistanceMeters>NAN</DistanceMeters>
          </Trackpoint>
          <Trackpoint>
            <Time>2018-12-30T13:24:38.000Z</Time>
            <Position>
              <LatitudeDegrees>40.75307548977434635162353515625</LatitudeDegrees>
              <LongitudeDegrees>-4.09225610084831714630126953125</LongitudeDegrees>
            </Position>
            <AltitudeMeters>1697.4000244140625</AltitudeMeters>
            <DistanceMeters>NAN</DistanceMeters>
          </Trackpoint>
          <Trackpoint>
            <Time>2018-12-30T13:24:39.000Z</Time>
            <Position>
              <LatitudeDegrees>40.75306777842342853546142578125</LatitudeDegrees>
              <LongitudeDegrees>-4.0922583639621734619140625</LongitudeDegrees>
            </Position>
            <AltitudeMeters>1697.4000244140625</AltitudeMeters>
            <DistanceMeters>NAN</DistanceMeters>
          </Trackpoint>
          <Trackpoint>
            <Time>2018-12-30T13:24:40.000Z</Time>
            <Position>
              <LatitudeDegrees>40.7530640065670013427734375</LatitudeDegrees>
              <LongitudeDegrees>-4.092257358133792877197265625</LongitudeDegrees>
            </Position>
            <AltitudeMeters>1697.199951171875</AltitudeMeters>
            <DistanceMeters>NAN</DistanceMeters>
          </Trackpoint>
          <Trackpoint>
            <Time>2018-12-30T13:24:41.000Z</Time>
            <Position>
              <LatitudeDegrees>40.75306945480406284332275390625</LatitudeDegrees>
              <LongitudeDegrees>-4.0922561846673488616943359375</LongitudeDegrees>
            </Position>
            <AltitudeMeters>1697</AltitudeMeters>
            <DistanceMeters>NAN</DistanceMeters>
          </Trackpoint>
          <Trackpoint>
            <Time>2018-12-30T13:24:42.000Z</Time>
            <Position>
              <LatitudeDegrees>40.75306643731892108917236328125</LatitudeDegrees>
              <LongitudeDegrees>-4.09224922768771648406982421875</LongitudeDegrees>
            </Position>
            <AltitudeMeters>1696.800048828125</AltitudeMeters>
            <DistanceMeters>NAN</DistanceMeters>
          </Trackpoint>
          <Trackpoint>
            <Time>2018-12-30T13:24:43.000Z</Time>
            <Position>
              <LatitudeDegrees>40.75305671431124210357666015625</LatitudeDegrees>
              <LongitudeDegrees>-4.09224134869873523712158203125</LongitudeDegrees>
            </Position>
            <AltitudeMeters>1696.800048828125</AltitudeMeters>
            <DistanceMeters>NAN</DistanceMeters>
          </Trackpoint>
          <Trackpoint>
            <Time>2018-12-30T13:24:44.000Z</Time>
            <Position>
              <LatitudeDegrees>40.75304028578102588653564453125</LatitudeDegrees>
              <LongitudeDegrees>-4.0922394208610057830810546875</LongitudeDegrees>
            </Position>
            <AltitudeMeters>1696.5999755859375</AltitudeMeters>
            <DistanceMeters>NAN</DistanceMeters>
          </Trackpoint>
          <Trackpoint>
            <Time>2018-12-30T13:24:45.000Z</Time>
            <Position>
              <LatitudeDegrees>40.75302368961274623870849609375</LatitudeDegrees>
              <LongitudeDegrees>-4.09224185161292552947998046875</LongitudeDegrees>
            </Position>
            <AltitudeMeters>1696.5999755859375</AltitudeMeters>
            <DistanceMeters>NAN</DistanceMeters>
          </Trackpoint>
          <Trackpoint>
            <Time>2018-12-30T13:24:46.000Z</Time>
            <Position>
              <LatitudeDegrees>40.753014050424098968505859375</LatitudeDegrees>
              <LongitudeDegrees>-4.0922347269952297210693359375</LongitudeDegrees>
            </Position>
            <AltitudeMeters>1696.4000244140625</AltitudeMeters>
            <DistanceMeters>NAN</DistanceMeters>
          </Trackpoint>
          <Trackpoint>
            <Time>2018-12-30T13:24:47.000Z</Time>
            <Position>
              <LatitudeDegrees>40.7530008070170879364013671875</LatitudeDegrees>
              <LongitudeDegrees>-4.092233218252658843994140625</LongitudeDegrees>
            </Position>
            <AltitudeMeters>1696.4000244140625</AltitudeMeters>
            <DistanceMeters>NAN</DistanceMeters>
          </Trackpoint>
          <Trackpoint>
            <Time>2018-12-30T13:24:48.000Z</Time>
            <Position>
              <LatitudeDegrees>40.7529850490391254425048828125</LatitudeDegrees>
              <LongitudeDegrees>-4.092232547700405120849609375</LongitudeDegrees>
            </Position>
            <AltitudeMeters>1696.199951171875</AltitudeMeters>
            <DistanceMeters>NAN</DistanceMeters>
          </Trackpoint>
          <Trackpoint>
            <Time>2018-12-30T13:24:49.000Z</Time>
            <Position>
              <LatitudeDegrees>40.7529753260314464569091796875</LatitudeDegrees>
              <LongitudeDegrees>-4.0922313742339611053466796875</LongitudeDegrees>
            </Position>
            <AltitudeMeters>1696</AltitudeMeters>
            <DistanceMeters>NAN</DistanceMeters>
          </Trackpoint>
          <Trackpoint>
            <Time>2018-12-30T13:24:50.000Z</Time>
            <Position>
              <LatitudeDegrees>40.7529615797102451324462890625</LatitudeDegrees>
              <LongitudeDegrees>-4.09223489463329315185546875</LongitudeDegrees>
            </Position>
            <AltitudeMeters>1695.5999755859375</AltitudeMeters>
            <DistanceMeters>NAN</DistanceMeters>
          </Trackpoint>
          <Trackpoint>
            <Time>2018-12-30T13:24:51.000Z</Time>
            <Position>
              <LatitudeDegrees>40.75295210815966129302978515625</LatitudeDegrees>
              <LongitudeDegrees>-4.09223397262394428253173828125</LongitudeDegrees>
            </Position>
            <AltitudeMeters>1695.4000244140625</AltitudeMeters>
            <DistanceMeters>NAN</DistanceMeters>
          </Trackpoint>
          <Trackpoint>
            <Time>2018-12-30T13:24:52.000Z</Time>
            <Position>
              <LatitudeDegrees>40.75294322334229946136474609375</LatitudeDegrees>
              <LongitudeDegrees>-4.0922310389578342437744140625</LongitudeDegrees>
            </Position>
            <AltitudeMeters>1695.199951171875</AltitudeMeters>
            <DistanceMeters>NAN</DistanceMeters>
          </Trackpoint>
          <Trackpoint>
            <Time>2018-12-30T13:24:53.000Z</Time>
            <Position>
              <LatitudeDegrees>40.7529371045529842376708984375</LatitudeDegrees>
              <LongitudeDegrees>-4.092224501073360443115234375</LongitudeDegrees>
            </Position>
            <AltitudeMeters>1695</AltitudeMeters>
            <DistanceMeters>NAN</DistanceMeters>
          </Trackpoint>
          <Trackpoint>
            <Time>2018-12-30T13:24:54.000Z</Time>
            <Position>
              <LatitudeDegrees>40.75293484143912792205810546875</LatitudeDegrees>
              <LongitudeDegrees>-4.09222207032144069671630859375</LongitudeDegrees>
            </Position>
            <AltitudeMeters>1695</AltitudeMeters>
            <DistanceMeters>NAN</DistanceMeters>
          </Trackpoint>
          <Trackpoint>
            <Time>2018-12-30T13:24:55.000Z</Time>
            <Position>
              <LatitudeDegrees>40.7529293932020664215087890625</LatitudeDegrees>
              <LongitudeDegrees>-4.09221335314214229583740234375</LongitudeDegrees>
            </Position>
            <AltitudeMeters>1694.800048828125</AltitudeMeters>
            <DistanceMeters>NAN</DistanceMeters>
          </Trackpoint>
          <Trackpoint>
            <Time>2018-12-30T13:24:56.000Z</Time>
            <Position>
              <LatitudeDegrees>40.75292780064046382904052734375</LatitudeDegrees>
              <LongitudeDegrees>-4.09220228902995586395263671875</LongitudeDegrees>
            </Position>
            <AltitudeMeters>1694.800048828125</AltitudeMeters>
            <DistanceMeters>NAN</DistanceMeters>
          </Trackpoint>
          <Trackpoint>
            <Time>2018-12-30T13:24:57.000Z</Time>
            <Position>
              <LatitudeDegrees>40.75292461551725864410400390625</LatitudeDegrees>
              <LongitudeDegrees>-4.09219600260257720947265625</LongitudeDegrees>
            </Position>
            <AltitudeMeters>1694.4000244140625</AltitudeMeters>
            <DistanceMeters>NAN</DistanceMeters>
          </Trackpoint>
          <Trackpoint>
            <Time>2018-12-30T13:24:58.000Z</Time>
            <Position>
              <LatitudeDegrees>40.7529153116047382354736328125</LatitudeDegrees>
              <LongitudeDegrees>-4.09219960682094097137451171875</LongitudeDegrees>
            </Position>
            <AltitudeMeters>1694.199951171875</AltitudeMeters>
            <DistanceMeters>NAN</DistanceMeters>
          </Trackpoint>
          <Trackpoint>
            <Time>2018-12-30T13:24:59.000Z</Time>
            <Position>
              <LatitudeDegrees>40.75290986336767673492431640625</LatitudeDegrees>
              <LongitudeDegrees>-4.09219759516417980194091796875</LongitudeDegrees>
            </Position>
            <AltitudeMeters>1694</AltitudeMeters>
            <DistanceMeters>NAN</DistanceMeters>
          </Trackpoint>
          <Trackpoint>
            <Time>2018-12-30T13:25:00.000Z</Time>
            <Position>
              <LatitudeDegrees>40.7528995536267757415771484375</LatitudeDegrees>
              <LongitudeDegrees>-4.09219256602227687835693359375</LongitudeDegrees>
            </Position>
            <AltitudeMeters>1693.800048828125</AltitudeMeters>
            <DistanceMeters>NAN</DistanceMeters>
          </Trackpoint>
          <Trackpoint>
            <Time>2018-12-30T13:25:01.000Z</Time>
            <Position>
              <LatitudeDegrees>40.752877257764339447021484375</LatitudeDegrees>
              <LongitudeDegrees>-4.0921934880316257476806640625</LongitudeDegrees>
            </Position>
            <AltitudeMeters>1693.5999755859375</AltitudeMeters>
            <DistanceMeters>NAN</DistanceMeters>
          </Trackpoint>
          <Trackpoint>
            <Time>2018-12-30T13:25:02.000Z</Time>
            <Position>
              <LatitudeDegrees>40.75286225415766239166259765625</LatitudeDegrees>
              <LongitudeDegrees>-4.092186950147151947021484375</LongitudeDegrees>
            </Position>
            <AltitudeMeters>1693.5999755859375</AltitudeMeters>
            <DistanceMeters>NAN</DistanceMeters>
          </Trackpoint>
          <Trackpoint>
            <Time>2018-12-30T13:25:03.000Z</Time>
            <Position>
              <LatitudeDegrees>40.75284180231392383575439453125</LatitudeDegrees>
              <LongitudeDegrees>-4.09218753688037395477294921875</LongitudeDegrees>
            </Position>
            <AltitudeMeters>1693.4000244140625</AltitudeMeters>
            <DistanceMeters>NAN</DistanceMeters>
          </Trackpoint>
          <Trackpoint>
            <Time>2018-12-30T13:25:04.000Z</Time>
            <Position>
              <LatitudeDegrees>40.75282688252627849578857421875</LatitudeDegrees>
              <LongitudeDegrees>-4.09219088964164257049560546875</LongitudeDegrees>
            </Position>
            <AltitudeMeters>1693.4000244140625</AltitudeMeters>
            <DistanceMeters>NAN</DistanceMeters>
          </Trackpoint>
          <Trackpoint>
            <Time>2018-12-30T13:25:05.000Z</Time>
            <Position>
              <LatitudeDegrees>40.752812214195728302001953125</LatitudeDegrees>
              <LongitudeDegrees>-4.09219206310808658599853515625</LongitudeDegrees>
            </Position>
            <AltitudeMeters>1693.199951171875</AltitudeMeters>
            <DistanceMeters>NAN</DistanceMeters>
          </Trackpoint>
          <Trackpoint>
            <Time>2018-12-30T13:25:06.000Z</Time>
            <Position>
              <LatitudeDegrees>40.75281045399606227874755859375</LatitudeDegrees>
              <LongitudeDegrees>-4.09219759516417980194091796875</LongitudeDegrees>
            </Position>
            <AltitudeMeters>1693.199951171875</AltitudeMeters>
            <DistanceMeters>NAN</DistanceMeters>
          </Trackpoint>
          <Trackpoint>
            <Time>2018-12-30T13:25:07.000Z</Time>
            <Position>
              <LatitudeDegrees>40.75280425138771533966064453125</LatitudeDegrees>
              <LongitudeDegrees>-4.0921998582780361175537109375</LongitudeDegrees>
            </Position>
            <AltitudeMeters>1693</AltitudeMeters>
            <DistanceMeters>NAN</DistanceMeters>
          </Trackpoint>
          <Trackpoint>
            <Time>2018-12-30T13:25:08.000Z</Time>
            <Position>
              <LatitudeDegrees>40.752778686583042144775390625</LatitudeDegrees>
              <LongitudeDegrees>-4.09222123213112354278564453125</LongitudeDegrees>
            </Position>
            <AltitudeMeters>1693</AltitudeMeters>
            <DistanceMeters>NAN</DistanceMeters>
          </Trackpoint>
          <Trackpoint>
            <Time>2018-12-30T13:25:09.000Z</Time>
            <Position>
              <LatitudeDegrees>40.75277072377502918243408203125</LatitudeDegrees>
              <LongitudeDegrees>-4.09222684800624847412109375</LongitudeDegrees>
            </Position>
            <AltitudeMeters>1692.800048828125</AltitudeMeters>
            <DistanceMeters>NAN</DistanceMeters>
          </Trackpoint>
          <Trackpoint>
            <Time>2018-12-30T13:25:10.000Z</Time>
            <Position>
              <LatitudeDegrees>40.7527662813663482666015625</LatitudeDegrees>
              <LongitudeDegrees>-4.09223078750073909759521484375</LongitudeDegrees>
            </Position>
            <AltitudeMeters>1692.5999755859375</AltitudeMeters>
            <DistanceMeters>NAN</DistanceMeters>
          </Trackpoint>
          <Trackpoint>
            <Time>2018-12-30T13:25:11.000Z</Time>
            <Position>
              <LatitudeDegrees>40.75276183895766735076904296875</LatitudeDegrees>
              <LongitudeDegrees>-4.09223481081426143646240234375</LongitudeDegrees>
            </Position>
            <AltitudeMeters>1692.5999755859375</AltitudeMeters>
            <DistanceMeters>NAN</DistanceMeters>
          </Trackpoint>
          <Trackpoint>
            <Time>2018-12-30T13:25:12.000Z</Time>
            <Position>
              <LatitudeDegrees>40.75274758972227573394775390625</LatitudeDegrees>
              <LongitudeDegrees>-4.09224185161292552947998046875</LongitudeDegrees>
            </Position>
            <AltitudeMeters>1692.4000244140625</AltitudeMeters>
            <DistanceMeters>NAN</DistanceMeters>
          </Trackpoint>
          <Trackpoint>
            <Time>2018-12-30T13:25:13.000Z</Time>
            <Position>
              <LatitudeDegrees>40.7527394592761993408203125</LatitudeDegrees>
              <LongitudeDegrees>-4.0922461263835430145263671875</LongitudeDegrees>
            </Position>
            <AltitudeMeters>1692.199951171875</AltitudeMeters>
            <DistanceMeters>NAN</DistanceMeters>
          </Trackpoint>
          <Trackpoint>
            <Time>2018-12-30T13:25:14.000Z</Time>
            <Position>
              <LatitudeDegrees>40.752737112343311309814453125</LatitudeDegrees>
              <LongitudeDegrees>-4.0922504849731922149658203125</LongitudeDegrees>
            </Position>
            <AltitudeMeters>1692.4000244140625</AltitudeMeters>
            <DistanceMeters>NAN</DistanceMeters>
          </Trackpoint>
          <Trackpoint>
            <Time>2018-12-30T13:25:15.000Z</Time>
            <Position>
              <LatitudeDegrees>40.75273619033396244049072265625</LatitudeDegrees>
              <LongitudeDegrees>-4.0922610461711883544921875</LongitudeDegrees>
            </Position>
            <AltitudeMeters>1692.4000244140625</AltitudeMeters>
            <DistanceMeters>NAN</DistanceMeters>
          </Trackpoint>
          <Trackpoint>
            <Time>2018-12-30T13:25:16.000Z</Time>
            <Position>
              <LatitudeDegrees>40.75273317284882068634033203125</LatitudeDegrees>
              <LongitudeDegrees>-4.09226850606501102447509765625</LongitudeDegrees>
            </Position>
            <AltitudeMeters>1692.4000244140625</AltitudeMeters>
            <DistanceMeters>NAN</DistanceMeters>
          </Trackpoint>
          <Trackpoint>
            <Time>2018-12-30T13:25:17.000Z</Time>
            <Position>
              <LatitudeDegrees>40.75272931717336177825927734375</LatitudeDegrees>
              <LongitudeDegrees>-4.092272780835628509521484375</LongitudeDegrees>
            </Position>
            <AltitudeMeters>1692.4000244140625</AltitudeMeters>
            <DistanceMeters>NAN</DistanceMeters>
          </Trackpoint>
          <Trackpoint>
            <Time>2018-12-30T13:25:18.000Z</Time>
            <Position>
              <LatitudeDegrees>40.75272160582244396209716796875</LatitudeDegrees>
              <LongitudeDegrees>-4.0922622196376323699951171875</LongitudeDegrees>
            </Position>
            <AltitudeMeters>1692.4000244140625</AltitudeMeters>
            <DistanceMeters>NAN</DistanceMeters>
          </Trackpoint>
          <Trackpoint>
            <Time>2018-12-30T13:25:19.000Z</Time>
            <Position>
              <LatitudeDegrees>40.7527064345777034759521484375</LatitudeDegrees>
              <LongitudeDegrees>-4.09224470146000385284423828125</LongitudeDegrees>
            </Position>
            <AltitudeMeters>1692.5999755859375</AltitudeMeters>
            <DistanceMeters>NAN</DistanceMeters>
          </Trackpoint>
          <Trackpoint>
            <Time>2018-12-30T13:25:20.000Z</Time>
            <Position>
              <LatitudeDegrees>40.75270014815032482147216796875</LatitudeDegrees>
              <LongitudeDegrees>-4.0922342240810394287109375</LongitudeDegrees>
            </Position>
            <AltitudeMeters>1692.5999755859375</AltitudeMeters>
            <DistanceMeters>NAN</DistanceMeters>
          </Trackpoint>
          <Trackpoint>
            <Time>2018-12-30T13:25:21.000Z</Time>
            <Position>
              <LatitudeDegrees>40.75269880704581737518310546875</LatitudeDegrees>
              <LongitudeDegrees>-4.09222525544464588165283203125</LongitudeDegrees>
            </Position>
            <AltitudeMeters>1692.5999755859375</AltitudeMeters>
            <DistanceMeters>NAN</DistanceMeters>
          </Trackpoint>
          <Trackpoint>
            <Time>2018-12-30T13:25:22.000Z</Time>
            <Position>
              <LatitudeDegrees>40.75269796885550022125244140625</LatitudeDegrees>
              <LongitudeDegrees>-4.09222592599689960479736328125</LongitudeDegrees>
            </Position>
            <AltitudeMeters>1692.5999755859375</AltitudeMeters>
            <DistanceMeters>NAN</DistanceMeters>
          </Trackpoint>
          <Trackpoint>
            <Time>2018-12-30T13:25:23.000Z</Time>
            <Position>
              <LatitudeDegrees>40.7527099549770355224609375</LatitudeDegrees>
              <LongitudeDegrees>-4.09221704117953777313232421875</LongitudeDegrees>
            </Position>
            <AltitudeMeters>1692.800048828125</AltitudeMeters>
            <DistanceMeters>NAN</DistanceMeters>
          </Trackpoint>
          <Trackpoint>
            <Time>2018-12-30T13:25:24.000Z</Time>
            <Position>
              <LatitudeDegrees>40.75271104462444782257080078125</LatitudeDegrees>
              <LongitudeDegrees>-4.09221419133245944976806640625</LongitudeDegrees>
            </Position>
            <AltitudeMeters>1693</AltitudeMeters>
            <DistanceMeters>NAN</DistanceMeters>
          </Trackpoint>
          <Trackpoint>
            <Time>2018-12-30T13:25:25.000Z</Time>
            <Position>
              <LatitudeDegrees>40.75270568020641803741455078125</LatitudeDegrees>
              <LongitudeDegrees>-4.09219876863062381744384765625</LongitudeDegrees>
            </Position>
            <AltitudeMeters>1693.199951171875</AltitudeMeters>
            <DistanceMeters>NAN</DistanceMeters>
          </Trackpoint>
          <Trackpoint>
            <Time>2018-12-30T13:25:26.000Z</Time>
            <Position>
              <LatitudeDegrees>40.75270215980708599090576171875</LatitudeDegrees>
              <LongitudeDegrees>-4.0921914763748645782470703125</LongitudeDegrees>
            </Position>
            <AltitudeMeters>1693.199951171875</AltitudeMeters>
            <DistanceMeters>NAN</DistanceMeters>
          </Trackpoint>
          <Trackpoint>
            <Time>2018-12-30T13:25:27.000Z</Time>
            <Position>
              <LatitudeDegrees>40.752700231969356536865234375</LatitudeDegrees>
              <LongitudeDegrees>-4.092193655669689178466796875</LongitudeDegrees>
            </Position>
            <AltitudeMeters>1693.199951171875</AltitudeMeters>
            <DistanceMeters>NAN</DistanceMeters>
          </Trackpoint>
          <Trackpoint>
            <Time>2018-12-30T13:25:28.000Z</Time>
            <Position>
              <LatitudeDegrees>40.7527034170925617218017578125</LatitudeDegrees>
              <LongitudeDegrees>-4.09219876863062381744384765625</LongitudeDegrees>
            </Position>
            <AltitudeMeters>1693.199951171875</AltitudeMeters>
            <DistanceMeters>NAN</DistanceMeters>
          </Trackpoint>
          <Trackpoint>
            <Time>2018-12-30T13:25:29.000Z</Time>
            <Position>
              <LatitudeDegrees>40.7527057640254497528076171875</LatitudeDegrees>
              <LongitudeDegrees>-4.09220564179122447967529296875</LongitudeDegrees>
            </Position>
            <AltitudeMeters>1693</AltitudeMeters>
            <DistanceMeters>NAN</DistanceMeters>
          </Trackpoint>
          <Trackpoint>
            <Time>2018-12-30T13:25:30.000Z</Time>
            <Position>
              <LatitudeDegrees>40.75270920060575008392333984375</LatitudeDegrees>
              <LongitudeDegrees>-4.092209078371524810791015625</LongitudeDegrees>
            </Position>
            <AltitudeMeters>1693</AltitudeMeters>
            <DistanceMeters>NAN</DistanceMeters>
          </Trackpoint>
          <Trackpoint>
            <Time>2018-12-30T13:25:31.000Z</Time>
            <Position>
              <LatitudeDegrees>40.75271137990057468414306640625</LatitudeDegrees>
              <LongitudeDegrees>-4.09221217967569828033447265625</LongitudeDegrees>
            </Position>
            <AltitudeMeters>1692.800048828125</AltitudeMeters>
            <DistanceMeters>NAN</DistanceMeters>
          </Trackpoint>
          <Trackpoint>
            <Time>2018-12-30T13:25:32.000Z</Time>
            <Position>
              <LatitudeDegrees>40.75271020643413066864013671875</LatitudeDegrees>
              <LongitudeDegrees>-4.0922074019908905029296875</LongitudeDegrees>
            </Position>
            <AltitudeMeters>1692.800048828125</AltitudeMeters>
            <DistanceMeters>NAN</DistanceMeters>
          </Trackpoint>
          <Trackpoint>
            <Time>2018-12-30T13:25:33.000Z</Time>
            <Position>
              <LatitudeDegrees>40.75270802713930606842041015625</LatitudeDegrees>
              <LongitudeDegrees>-4.092199020087718963623046875</LongitudeDegrees>
            </Position>
            <AltitudeMeters>1692.800048828125</AltitudeMeters>
            <DistanceMeters>NAN</DistanceMeters>
          </Trackpoint>
          <Trackpoint>
            <Time>2018-12-30T13:25:34.000Z</Time>
            <Position>
              <LatitudeDegrees>40.7527005672454833984375</LatitudeDegrees>
              <LongitudeDegrees>-4.09219524823129177093505859375</LongitudeDegrees>
            </Position>
            <AltitudeMeters>1692.5999755859375</AltitudeMeters>
            <DistanceMeters>NAN</DistanceMeters>
          </Trackpoint>
          <Trackpoint>
            <Time>2018-12-30T13:25:35.000Z</Time>
            <Position>
              <LatitudeDegrees>40.7526906765997409820556640625</LatitudeDegrees>
              <LongitudeDegrees>-4.09218669869005680084228515625</LongitudeDegrees>
            </Position>
            <AltitudeMeters>1692.5999755859375</AltitudeMeters>
            <DistanceMeters>NAN</DistanceMeters>
          </Trackpoint>
          <Trackpoint>
            <Time>2018-12-30T13:25:36.000Z</Time>
            <Position>
              <LatitudeDegrees>40.75268137268722057342529296875</LatitudeDegrees>
              <LongitudeDegrees>-4.092180244624614715576171875</LongitudeDegrees>
            </Position>
            <AltitudeMeters>1692.5999755859375</AltitudeMeters>
            <DistanceMeters>NAN</DistanceMeters>
          </Trackpoint>
          <Trackpoint>
            <Time>2018-12-30T13:25:37.000Z</Time>
            <Position>
              <LatitudeDegrees>40.7526735775172710418701171875</LatitudeDegrees>
              <LongitudeDegrees>-4.0921794064342975616455078125</LongitudeDegrees>
            </Position>
            <AltitudeMeters>1692.4000244140625</AltitudeMeters>
            <DistanceMeters>NAN</DistanceMeters>
          </Trackpoint>
          <Trackpoint>
            <Time>2018-12-30T13:25:38.000Z</Time>
            <Position>
              <LatitudeDegrees>40.75266863219439983367919921875</LatitudeDegrees>
              <LongitudeDegrees>-4.09218728542327880859375</LongitudeDegrees>
            </Position>
            <AltitudeMeters>1692.4000244140625</AltitudeMeters>
            <DistanceMeters>NAN</DistanceMeters>
          </Trackpoint>
          <Trackpoint>
            <Time>2018-12-30T13:25:39.000Z</Time>
            <Position>
              <LatitudeDegrees>40.752662681043148040771484375</LatitudeDegrees>
              <LongitudeDegrees>-4.0921948291361331939697265625</LongitudeDegrees>
            </Position>
            <AltitudeMeters>1692.4000244140625</AltitudeMeters>
            <DistanceMeters>NAN</DistanceMeters>
          </Trackpoint>
          <Trackpoint>
            <Time>2018-12-30T13:25:40.000Z</Time>
            <Position>
              <LatitudeDegrees>40.75265832245349884033203125</LatitudeDegrees>
              <LongitudeDegrees>-4.09219658933579921722412109375</LongitudeDegrees>
            </Position>
            <AltitudeMeters>1692.4000244140625</AltitudeMeters>
            <DistanceMeters>NAN</DistanceMeters>
          </Trackpoint>
          <Trackpoint>
            <Time>2018-12-30T13:25:41.000Z</Time>
            <Position>
              <LatitudeDegrees>40.75265706516802310943603515625</LatitudeDegrees>
              <LongitudeDegrees>-4.0921948291361331939697265625</LongitudeDegrees>
            </Position>
            <AltitudeMeters>1692.5999755859375</AltitudeMeters>
            <DistanceMeters>NAN</DistanceMeters>
          </Trackpoint>
          <Trackpoint>
            <Time>2018-12-30T13:25:42.000Z</Time>
            <Position>
              <LatitudeDegrees>40.75264935381710529327392578125</LatitudeDegrees>
              <LongitudeDegrees>-4.09219927154481410980224609375</LongitudeDegrees>
            </Position>
            <AltitudeMeters>1692.800048828125</AltitudeMeters>
            <DistanceMeters>NAN</DistanceMeters>
          </Trackpoint>
          <Trackpoint>
            <Time>2018-12-30T13:25:43.000Z</Time>
            <Position>
              <LatitudeDegrees>40.75263745151460170745849609375</LatitudeDegrees>
              <LongitudeDegrees>-4.09220111556351184844970703125</LongitudeDegrees>
            </Position>
            <AltitudeMeters>1693.199951171875</AltitudeMeters>
            <DistanceMeters>NAN</DistanceMeters>
          </Trackpoint>
          <Trackpoint>
            <Time>2018-12-30T13:25:44.000Z</Time>
            <Position>
              <LatitudeDegrees>40.7526348531246185302734375</LatitudeDegrees>
              <LongitudeDegrees>-4.0921966731548309326171875</LongitudeDegrees>
            </Position>
            <AltitudeMeters>1693.4000244140625</AltitudeMeters>
            <DistanceMeters>NAN</DistanceMeters>
          </Trackpoint>
          <Trackpoint>
            <Time>2018-12-30T13:25:45.000Z</Time>
            <Position>
              <LatitudeDegrees>40.7526214420795440673828125</LatitudeDegrees>
              <LongitudeDegrees>-4.09219709224998950958251953125</LongitudeDegrees>
            </Position>
            <AltitudeMeters>1693.4000244140625</AltitudeMeters>
            <DistanceMeters>NAN</DistanceMeters>
          </Trackpoint>
          <Trackpoint>
            <Time>2018-12-30T13:25:46.000Z</Time>
            <Position>
              <LatitudeDegrees>40.75261004269123077392578125</LatitudeDegrees>
              <LongitudeDegrees>-4.0921939909458160400390625</LongitudeDegrees>
            </Position>
            <AltitudeMeters>1693.4000244140625</AltitudeMeters>
            <DistanceMeters>NAN</DistanceMeters>
          </Trackpoint>
          <Trackpoint>
            <Time>2018-12-30T13:25:47.000Z</Time>
            <Position>
              <LatitudeDegrees>40.75259839184582233428955078125</LatitudeDegrees>
              <LongitudeDegrees>-4.09218368120491504669189453125</LongitudeDegrees>
            </Position>
            <AltitudeMeters>1693.4000244140625</AltitudeMeters>
            <DistanceMeters>NAN</DistanceMeters>
          </Trackpoint>
          <Trackpoint>
            <Time>2018-12-30T13:25:48.000Z</Time>
            <Position>
              <LatitudeDegrees>40.75258213095366954803466796875</LatitudeDegrees>
              <LongitudeDegrees>-4.0921752154827117919921875</LongitudeDegrees>
            </Position>
            <AltitudeMeters>1693</AltitudeMeters>
            <DistanceMeters>NAN</DistanceMeters>
          </Trackpoint>
          <Trackpoint>
            <Time>2018-12-30T13:25:49.000Z</Time>
            <Position>
              <LatitudeDegrees>40.7525669597089290618896484375</LatitudeDegrees>
              <LongitudeDegrees>-4.0921659953892230987548828125</LongitudeDegrees>
            </Position>
            <AltitudeMeters>1692.800048828125</AltitudeMeters>
            <DistanceMeters>NAN</DistanceMeters>
          </Trackpoint>
          <Trackpoint>
            <Time>2018-12-30T13:25:50.000Z</Time>
            <Position>
              <LatitudeDegrees>40.75255145318806171417236328125</LatitudeDegrees>
              <LongitudeDegrees>-4.0921639837324619293212890625</LongitudeDegrees>
            </Position>
            <AltitudeMeters>1692.5999755859375</AltitudeMeters>
            <DistanceMeters>NAN</DistanceMeters>
          </Trackpoint>
          <Trackpoint>
            <Time>2018-12-30T13:25:51.000Z</Time>
            <Position>
              <LatitudeDegrees>40.75254592113196849822998046875</LatitudeDegrees>
              <LongitudeDegrees>-4.09216255880892276763916015625</LongitudeDegrees>
            </Position>
            <AltitudeMeters>1692.4000244140625</AltitudeMeters>
            <DistanceMeters>NAN</DistanceMeters>
          </Trackpoint>
          <Trackpoint>
            <Time>2018-12-30T13:25:52.000Z</Time>
            <Position>
              <LatitudeDegrees>40.752536952495574951171875</LatitudeDegrees>
              <LongitudeDegrees>-4.0921629779040813446044921875</LongitudeDegrees>
            </Position>
            <AltitudeMeters>1692</AltitudeMeters>
            <DistanceMeters>NAN</DistanceMeters>
          </Trackpoint>
          <Trackpoint>
            <Time>2018-12-30T13:25:53.000Z</Time>
            <Position>
              <LatitudeDegrees>40.752531252801418304443359375</LatitudeDegrees>
              <LongitudeDegrees>-4.0921592898666858673095703125</LongitudeDegrees>
            </Position>
            <AltitudeMeters>1691.4000244140625</AltitudeMeters>
            <DistanceMeters>NAN</DistanceMeters>
          </Trackpoint>
          <Trackpoint>
            <Time>2018-12-30T13:25:54.000Z</Time>
            <Position>
              <LatitudeDegrees>40.75251155532896518707275390625</LatitudeDegrees>
              <LongitudeDegrees>-4.0921696834266185760498046875</LongitudeDegrees>
            </Position>
            <AltitudeMeters>1691</AltitudeMeters>
            <DistanceMeters>NAN</DistanceMeters>
          </Trackpoint>
          <Trackpoint>
            <Time>2018-12-30T13:25:55.000Z</Time>
            <Position>
              <LatitudeDegrees>40.75249428860843181610107421875</LatitudeDegrees>
              <LongitudeDegrees>-4.09217177890241146087646484375</LongitudeDegrees>
            </Position>
            <AltitudeMeters>1690.5999755859375</AltitudeMeters>
            <DistanceMeters>NAN</DistanceMeters>
          </Trackpoint>
          <Trackpoint>
            <Time>2018-12-30T13:25:56.000Z</Time>
            <Position>
              <LatitudeDegrees>40.7524710707366466522216796875</LatitudeDegrees>
              <LongitudeDegrees>-4.09217932261526584625244140625</LongitudeDegrees>
            </Position>
            <AltitudeMeters>1690.4000244140625</AltitudeMeters>
            <DistanceMeters>NAN</DistanceMeters>
          </Trackpoint>
          <Trackpoint>
            <Time>2018-12-30T13:25:57.000Z</Time>
            <Position>
              <LatitudeDegrees>40.75246118009090423583984375</LatitudeDegrees>
              <LongitudeDegrees>-4.09217094071209430694580078125</LongitudeDegrees>
            </Position>
            <AltitudeMeters>1690.199951171875</AltitudeMeters>
            <DistanceMeters>NAN</DistanceMeters>
          </Trackpoint>
          <Trackpoint>
            <Time>2018-12-30T13:25:58.000Z</Time>
            <Position>
              <LatitudeDegrees>40.752451457083225250244140625</LatitudeDegrees>
              <LongitudeDegrees>-4.0921602956950664520263671875</LongitudeDegrees>
            </Position>
            <AltitudeMeters>1690</AltitudeMeters>
            <DistanceMeters>NAN</DistanceMeters>
          </Trackpoint>
          <Trackpoint>
            <Time>2018-12-30T13:25:59.000Z</Time>
            <Position>
              <LatitudeDegrees>40.75243628583848476409912109375</LatitudeDegrees>
              <LongitudeDegrees>-4.0921562723815441131591796875</LongitudeDegrees>
            </Position>
            <AltitudeMeters>1689.5999755859375</AltitudeMeters>
            <DistanceMeters>NAN</DistanceMeters>
          </Trackpoint>
          <Trackpoint>
            <Time>2018-12-30T13:26:00.000Z</Time>
            <Position>
              <LatitudeDegrees>40.75242857448756694793701171875</LatitudeDegrees>
              <LongitudeDegrees>-4.09214730374515056610107421875</LongitudeDegrees>
            </Position>
            <AltitudeMeters>1689.199951171875</AltitudeMeters>
            <DistanceMeters>NAN</DistanceMeters>
          </Trackpoint>
          <Trackpoint>
            <Time>2018-12-30T13:26:01.000Z</Time>
            <Position>
              <LatitudeDegrees>40.7524174265563488006591796875</LatitudeDegrees>
              <LongitudeDegrees>-4.09214445389807224273681640625</LongitudeDegrees>
            </Position>
            <AltitudeMeters>1689</AltitudeMeters>
            <DistanceMeters>NAN</DistanceMeters>
          </Trackpoint>
          <Trackpoint>
            <Time>2018-12-30T13:26:02.000Z</Time>
            <Position>
              <LatitudeDegrees>40.75240946374833583831787109375</LatitudeDegrees>
              <LongitudeDegrees>-4.09213967621326446533203125</LongitudeDegrees>
            </Position>
            <AltitudeMeters>1688.800048828125</AltitudeMeters>
            <DistanceMeters>NAN</DistanceMeters>
          </Trackpoint>
          <Trackpoint>
            <Time>2018-12-30T13:26:03.000Z</Time>
            <Position>
              <LatitudeDegrees>40.75239479541778564453125</LatitudeDegrees>
              <LongitudeDegrees>-4.0921378321945667266845703125</LongitudeDegrees>
            </Position>
            <AltitudeMeters>1688.800048828125</AltitudeMeters>
            <DistanceMeters>NAN</DistanceMeters>
          </Trackpoint>
          <Trackpoint>
            <Time>2018-12-30T13:26:04.000Z</Time>
            <Position>
              <LatitudeDegrees>40.7523738406598567962646484375</LatitudeDegrees>
              <LongitudeDegrees>-4.09214965067803859710693359375</LongitudeDegrees>
            </Position>
            <AltitudeMeters>1688.5999755859375</AltitudeMeters>
            <DistanceMeters>NAN</DistanceMeters>
          </Trackpoint>
          <Trackpoint>
            <Time>2018-12-30T13:26:05.000Z</Time>
            <Position>
              <LatitudeDegrees>40.75235783122479915618896484375</LatitudeDegrees>
              <LongitudeDegrees>-4.09215551801025867462158203125</LongitudeDegrees>
            </Position>
            <AltitudeMeters>1688.5999755859375</AltitudeMeters>
            <DistanceMeters>NAN</DistanceMeters>
          </Trackpoint>
          <Trackpoint>
            <Time>2018-12-30T13:26:06.000Z</Time>
            <Position>
              <LatitudeDegrees>40.7523450069129467010498046875</LatitudeDegrees>
              <LongitudeDegrees>-4.09215350635349750518798828125</LongitudeDegrees>
            </Position>
            <AltitudeMeters>1688.199951171875</AltitudeMeters>
            <DistanceMeters>NAN</DistanceMeters>
          </Trackpoint>
          <Trackpoint>
            <Time>2018-12-30T13:26:07.000Z</Time>
            <Position>
              <LatitudeDegrees>40.75233955867588520050048828125</LatitudeDegrees>
              <LongitudeDegrees>-4.092146717011928558349609375</LongitudeDegrees>
            </Position>
            <AltitudeMeters>1688</AltitudeMeters>
            <DistanceMeters>NAN</DistanceMeters>
          </Trackpoint>
          <Trackpoint>
            <Time>2018-12-30T13:26:08.000Z</Time>
            <Position>
              <LatitudeDegrees>40.75233511626720428466796875</LatitudeDegrees>
              <LongitudeDegrees>-4.0921435318887233734130859375</LongitudeDegrees>
            </Position>
            <AltitudeMeters>1687.800048828125</AltitudeMeters>
            <DistanceMeters>NAN</DistanceMeters>
          </Trackpoint>
          <Trackpoint>
            <Time>2018-12-30T13:26:09.000Z</Time>
            <Position>
              <LatitudeDegrees>40.7523205317556858062744140625</LatitudeDegrees>
              <LongitudeDegrees>-4.09214369952678680419921875</LongitudeDegrees>
            </Position>
            <AltitudeMeters>1687.5999755859375</AltitudeMeters>
            <DistanceMeters>NAN</DistanceMeters>
          </Trackpoint>
          <Trackpoint>
            <Time>2018-12-30T13:26:10.000Z</Time>
            <Position>
              <LatitudeDegrees>40.75230653397738933563232421875</LatitudeDegrees>
              <LongitudeDegrees>-4.0921378321945667266845703125</LongitudeDegrees>
            </Position>
            <AltitudeMeters>1687.4000244140625</AltitudeMeters>
            <DistanceMeters>NAN</DistanceMeters>
          </Trackpoint>
          <Trackpoint>
            <Time>2018-12-30T13:26:11.000Z</Time>
            <Position>
              <LatitudeDegrees>40.7522923685610294342041015625</LatitudeDegrees>
              <LongitudeDegrees>-4.0921277739107608795166015625</LongitudeDegrees>
            </Position>
            <AltitudeMeters>1687.199951171875</AltitudeMeters>
            <DistanceMeters>NAN</DistanceMeters>
          </Trackpoint>
          <Trackpoint>
            <Time>2018-12-30T13:26:12.000Z</Time>
            <Position>
              <LatitudeDegrees>40.7522786222398281097412109375</LatitudeDegrees>
              <LongitudeDegrees>-4.0921210683882236480712890625</LongitudeDegrees>
            </Position>
            <AltitudeMeters>1687</AltitudeMeters>
            <DistanceMeters>NAN</DistanceMeters>
          </Trackpoint>
          <Trackpoint>
            <Time>2018-12-30T13:26:13.000Z</Time>
            <Position>
              <LatitudeDegrees>40.75227300636470317840576171875</LatitudeDegrees>
              <LongitudeDegrees>-4.092109836637973785400390625</LongitudeDegrees>
            </Position>
            <AltitudeMeters>1687</AltitudeMeters>
            <DistanceMeters>NAN</DistanceMeters>
          </Trackpoint>
          <Trackpoint>
            <Time>2018-12-30T13:26:14.000Z</Time>
            <Position>
              <LatitudeDegrees>40.75226412154734134674072265625</LatitudeDegrees>
              <LongitudeDegrees>-4.092100448906421661376953125</LongitudeDegrees>
            </Position>
            <AltitudeMeters>1687</AltitudeMeters>
            <DistanceMeters>NAN</DistanceMeters>
          </Trackpoint>
          <Trackpoint>
            <Time>2018-12-30T13:26:15.000Z</Time>
            <Position>
              <LatitudeDegrees>40.75225641019642353057861328125</LatitudeDegrees>
              <LongitudeDegrees>-4.0920925699174404144287109375</LongitudeDegrees>
            </Position>
            <AltitudeMeters>1686.800048828125</AltitudeMeters>
            <DistanceMeters>NAN</DistanceMeters>
          </Trackpoint>
          <Trackpoint>
            <Time>2018-12-30T13:26:16.000Z</Time>
            <Position>
              <LatitudeDegrees>40.7522457651793956756591796875</LatitudeDegrees>
              <LongitudeDegrees>-4.09208443947136402130126953125</LongitudeDegrees>
            </Position>
            <AltitudeMeters>1686.800048828125</AltitudeMeters>
            <DistanceMeters>NAN</DistanceMeters>
          </Trackpoint>
          <Trackpoint>
            <Time>2018-12-30T13:26:17.000Z</Time>
            <Position>
              <LatitudeDegrees>40.752236545085906982421875</LatitudeDegrees>
              <LongitudeDegrees>-4.092072285711765289306640625</LongitudeDegrees>
            </Position>
            <AltitudeMeters>1686.4000244140625</AltitudeMeters>
            <DistanceMeters>NAN</DistanceMeters>
          </Trackpoint>
          <Trackpoint>
            <Time>2018-12-30T13:26:18.000Z</Time>
            <Position>
              <LatitudeDegrees>40.75222925283014774322509765625</LatitudeDegrees>
              <LongitudeDegrees>-4.0920613892376422882080078125</LongitudeDegrees>
            </Position>
            <AltitudeMeters>1686.199951171875</AltitudeMeters>
            <DistanceMeters>NAN</DistanceMeters>
          </Trackpoint>
          <Trackpoint>
            <Time>2018-12-30T13:26:19.000Z</Time>
            <Position>
              <LatitudeDegrees>40.7522186078131198883056640625</LatitudeDegrees>
              <LongitudeDegrees>-4.0920536778867244720458984375</LongitudeDegrees>
            </Position>
            <AltitudeMeters>1686</AltitudeMeters>
            <DistanceMeters>NAN</DistanceMeters>
          </Trackpoint>
          <Trackpoint>
            <Time>2018-12-30T13:26:20.000Z</Time>
            <Position>
              <LatitudeDegrees>40.7522056996822357177734375</LatitudeDegrees>
              <LongitudeDegrees>-4.0920530073344707489013671875</LongitudeDegrees>
            </Position>
            <AltitudeMeters>1686</AltitudeMeters>
            <DistanceMeters>NAN</DistanceMeters>
          </Trackpoint>
          <Trackpoint>
            <Time>2018-12-30T13:26:21.000Z</Time>
            <Position>
              <LatitudeDegrees>40.7521976530551910400390625</LatitudeDegrees>
              <LongitudeDegrees>-4.09205191768705844879150390625</LongitudeDegrees>
            </Position>
            <AltitudeMeters>1685.5999755859375</AltitudeMeters>
            <DistanceMeters>NAN</DistanceMeters>
          </Trackpoint>
          <Trackpoint>
            <Time>2018-12-30T13:26:22.000Z</Time>
            <Position>
              <LatitudeDegrees>40.75218734331429004669189453125</LatitudeDegrees>
              <LongitudeDegrees>-4.0920540131628513336181640625</LongitudeDegrees>
            </Position>
            <AltitudeMeters>1685.4000244140625</AltitudeMeters>
            <DistanceMeters>NAN</DistanceMeters>
          </Trackpoint>
          <Trackpoint>
            <Time>2018-12-30T13:26:23.000Z</Time>
            <Position>
              <LatitudeDegrees>40.7521777041256427764892578125</LatitudeDegrees>
              <LongitudeDegrees>-4.092052839696407318115234375</LongitudeDegrees>
            </Position>
            <AltitudeMeters>1685</AltitudeMeters>
            <DistanceMeters>NAN</DistanceMeters>
          </Trackpoint>
          <Trackpoint>
            <Time>2018-12-30T13:26:24.000Z</Time>
            <Position>
              <LatitudeDegrees>40.75216303579509258270263671875</LatitudeDegrees>
              <LongitudeDegrees>-4.09205384552478790283203125</LongitudeDegrees>
            </Position>
            <AltitudeMeters>1684.800048828125</AltitudeMeters>
            <DistanceMeters>NAN</DistanceMeters>
          </Trackpoint>
          <Trackpoint>
            <Time>2018-12-30T13:26:25.000Z</Time>
            <Position>
              <LatitudeDegrees>40.7521455176174640655517578125</LatitudeDegrees>
              <LongitudeDegrees>-4.0920560248196125030517578125</LongitudeDegrees>
            </Position>
            <AltitudeMeters>1684.5999755859375</AltitudeMeters>
            <DistanceMeters>NAN</DistanceMeters>
          </Trackpoint>
          <Trackpoint>
            <Time>2018-12-30T13:26:26.000Z</Time>
            <Position>
              <LatitudeDegrees>40.7521384768187999725341796875</LatitudeDegrees>
              <LongitudeDegrees>-4.0920553542673587799072265625</LongitudeDegrees>
            </Position>
            <AltitudeMeters>1684.5999755859375</AltitudeMeters>
            <DistanceMeters>NAN</DistanceMeters>
          </Trackpoint>
          <Trackpoint>
            <Time>2018-12-30T13:26:27.000Z</Time>
            <Position>
              <LatitudeDegrees>40.75213219039142131805419921875</LatitudeDegrees>
              <LongitudeDegrees>-4.0920520015060901641845703125</LongitudeDegrees>
            </Position>
            <AltitudeMeters>1684.5999755859375</AltitudeMeters>
            <DistanceMeters>NAN</DistanceMeters>
          </Trackpoint>
          <Trackpoint>
            <Time>2018-12-30T13:26:28.000Z</Time>
            <Position>
              <LatitudeDegrees>40.7521186955273151397705078125</LatitudeDegrees>
              <LongitudeDegrees>-4.0920545160770416259765625</LongitudeDegrees>
            </Position>
            <AltitudeMeters>1684.4000244140625</AltitudeMeters>
            <DistanceMeters>NAN</DistanceMeters>
          </Trackpoint>
          <Trackpoint>
            <Time>2018-12-30T13:26:29.000Z</Time>
            <Position>
              <LatitudeDegrees>40.752089023590087890625</LatitudeDegrees>
              <LongitudeDegrees>-4.09206465817987918853759765625</LongitudeDegrees>
            </Position>
            <AltitudeMeters>1684.5999755859375</AltitudeMeters>
            <DistanceMeters>NAN</DistanceMeters>
          </Trackpoint>
          <Trackpoint>
            <Time>2018-12-30T13:26:30.000Z</Time>
            <Position>
              <LatitudeDegrees>40.75207033194601535797119140625</LatitudeDegrees>
              <LongitudeDegrees>-4.09205962903797626495361328125</LongitudeDegrees>
            </Position>
            <AltitudeMeters>1684.5999755859375</AltitudeMeters>
            <DistanceMeters>NAN</DistanceMeters>
          </Trackpoint>
          <Trackpoint>
            <Time>2018-12-30T13:26:31.000Z</Time>
            <Position>
              <LatitudeDegrees>40.75205708853900432586669921875</LatitudeDegrees>
              <LongitudeDegrees>-4.0920577012002468109130859375</LongitudeDegrees>
            </Position>
            <AltitudeMeters>1684.4000244140625</AltitudeMeters>
            <DistanceMeters>NAN</DistanceMeters>
          </Trackpoint>
          <Trackpoint>
            <Time>2018-12-30T13:26:32.000Z</Time>
            <Position>
              <LatitudeDegrees>40.75204350985586643218994140625</LatitudeDegrees>
              <LongitudeDegrees>-4.09205242060124874114990234375</LongitudeDegrees>
            </Position>
            <AltitudeMeters>1684.199951171875</AltitudeMeters>
            <DistanceMeters>NAN</DistanceMeters>
          </Trackpoint>
          <Trackpoint>
            <Time>2018-12-30T13:26:33.000Z</Time>
            <Position>
              <LatitudeDegrees>40.75203479267656803131103515625</LatitudeDegrees>
              <LongitudeDegrees>-4.09204185940325260162353515625</LongitudeDegrees>
            </Position>
            <AltitudeMeters>1684</AltitudeMeters>
            <DistanceMeters>NAN</DistanceMeters>
          </Trackpoint>
          <Trackpoint>
            <Time>2018-12-30T13:26:34.000Z</Time>
            <Position>
              <LatitudeDegrees>40.7520281709730625152587890625</LatitudeDegrees>
              <LongitudeDegrees>-4.09203372895717620849609375</LongitudeDegrees>
            </Position>
            <AltitudeMeters>1683.800048828125</AltitudeMeters>
            <DistanceMeters>NAN</DistanceMeters>
          </Trackpoint>
          <Trackpoint>
            <Time>2018-12-30T13:26:35.000Z</Time>
            <Position>
              <LatitudeDegrees>40.75201719067990779876708984375</LatitudeDegrees>
              <LongitudeDegrees>-4.09202693961560726165771484375</LongitudeDegrees>
            </Position>
            <AltitudeMeters>1683.5999755859375</AltitudeMeters>
            <DistanceMeters>NAN</DistanceMeters>
          </Trackpoint>
          <Trackpoint>
            <Time>2018-12-30T13:26:36.000Z</Time>
            <Position>
              <LatitudeDegrees>40.75200713239610195159912109375</LatitudeDegrees>
              <LongitudeDegrees>-4.092030040919780731201171875</LongitudeDegrees>
            </Position>
            <AltitudeMeters>1683.4000244140625</AltitudeMeters>
            <DistanceMeters>NAN</DistanceMeters>
          </Trackpoint>
          <Trackpoint>
            <Time>2018-12-30T13:26:37.000Z</Time>
            <Position>
              <LatitudeDegrees>40.75200143270194530487060546875</LatitudeDegrees>
              <LongitudeDegrees>-4.0920235030353069305419921875</LongitudeDegrees>
            </Position>
            <AltitudeMeters>1683</AltitudeMeters>
            <DistanceMeters>NAN</DistanceMeters>
          </Trackpoint>
          <Trackpoint>
            <Time>2018-12-30T13:26:38.000Z</Time>
            <Position>
              <LatitudeDegrees>40.75199313461780548095703125</LatitudeDegrees>
              <LongitudeDegrees>-4.092021323740482330322265625</LongitudeDegrees>
            </Position>
            <AltitudeMeters>1683</AltitudeMeters>
            <DistanceMeters>NAN</DistanceMeters>
          </Trackpoint>
          <Trackpoint>
            <Time>2018-12-30T13:26:39.000Z</Time>
            <Position>
              <LatitudeDegrees>40.75197578407824039459228515625</LatitudeDegrees>
              <LongitudeDegrees>-4.09202325157821178436279296875</LongitudeDegrees>
            </Position>
            <AltitudeMeters>1682.800048828125</AltitudeMeters>
            <DistanceMeters>NAN</DistanceMeters>
          </Trackpoint>
          <Trackpoint>
            <Time>2018-12-30T13:26:40.000Z</Time>
            <Position>
              <LatitudeDegrees>40.751958601176738739013671875</LatitudeDegrees>
              <LongitudeDegrees>-4.092021994292736053466796875</LongitudeDegrees>
            </Position>
            <AltitudeMeters>1682.4000244140625</AltitudeMeters>
            <DistanceMeters>NAN</DistanceMeters>
          </Trackpoint>
          <Trackpoint>
            <Time>2018-12-30T13:26:41.000Z</Time>
            <Position>
              <LatitudeDegrees>40.75194393284618854522705078125</LatitudeDegrees>
              <LongitudeDegrees>-4.092002548277378082275390625</LongitudeDegrees>
            </Position>
            <AltitudeMeters>1682.199951171875</AltitudeMeters>
            <DistanceMeters>NAN</DistanceMeters>
          </Trackpoint>
          <Trackpoint>
            <Time>2018-12-30T13:26:42.000Z</Time>
            <Position>
              <LatitudeDegrees>40.7519249059259891510009765625</LatitudeDegrees>
              <LongitudeDegrees>-4.09199123270809650421142578125</LongitudeDegrees>
            </Position>
            <AltitudeMeters>1682</AltitudeMeters>
            <DistanceMeters>NAN</DistanceMeters>
          </Trackpoint>
          <Trackpoint>
            <Time>2018-12-30T13:26:43.000Z</Time>
            <Position>
              <LatitudeDegrees>40.75192415155470371246337890625</LatitudeDegrees>
              <LongitudeDegrees>-4.0919812582433223724365234375</LongitudeDegrees>
            </Position>
            <AltitudeMeters>1681.800048828125</AltitudeMeters>
            <DistanceMeters>NAN</DistanceMeters>
          </Trackpoint>
          <Trackpoint>
            <Time>2018-12-30T13:26:44.000Z</Time>
            <Position>
              <LatitudeDegrees>40.7519195415079593658447265625</LatitudeDegrees>
              <LongitudeDegrees>-4.0919678471982479095458984375</LongitudeDegrees>
            </Position>
            <AltitudeMeters>1681.800048828125</AltitudeMeters>
            <DistanceMeters>NAN</DistanceMeters>
          </Trackpoint>
          <Trackpoint>
            <Time>2018-12-30T13:26:45.000Z</Time>
            <Position>
              <LatitudeDegrees>40.75191744603216648101806640625</LatitudeDegrees>
              <LongitudeDegrees>-4.0919534303247928619384765625</LongitudeDegrees>
            </Position>
            <AltitudeMeters>1681.5999755859375</AltitudeMeters>
            <DistanceMeters>NAN</DistanceMeters>
          </Trackpoint>
          <Trackpoint>
            <Time>2018-12-30T13:26:46.000Z</Time>
            <Position>
              <LatitudeDegrees>40.75190596282482147216796875</LatitudeDegrees>
              <LongitudeDegrees>-4.09194496460258960723876953125</LongitudeDegrees>
            </Position>
            <AltitudeMeters>1681.4000244140625</AltitudeMeters>
            <DistanceMeters>NAN</DistanceMeters>
          </Trackpoint>
          <Trackpoint>
            <Time>2018-12-30T13:26:47.000Z</Time>
            <Position>
              <LatitudeDegrees>40.7518891990184783935546875</LatitudeDegrees>
              <LongitudeDegrees>-4.0919443778693675994873046875</LongitudeDegrees>
            </Position>
            <AltitudeMeters>1681</AltitudeMeters>
            <DistanceMeters>NAN</DistanceMeters>
          </Trackpoint>
          <Trackpoint>
            <Time>2018-12-30T13:26:48.000Z</Time>
            <Position>
              <LatitudeDegrees>40.75187872163951396942138671875</LatitudeDegrees>
              <LongitudeDegrees>-4.09193792380392551422119140625</LongitudeDegrees>
            </Position>
            <AltitudeMeters>1680.800048828125</AltitudeMeters>
            <DistanceMeters>NAN</DistanceMeters>
          </Trackpoint>
          <Trackpoint>
            <Time>2018-12-30T13:26:49.000Z</Time>
            <Position>
              <LatitudeDegrees>40.7518756203353404998779296875</LatitudeDegrees>
              <LongitudeDegrees>-4.09193155355751514434814453125</LongitudeDegrees>
            </Position>
            <AltitudeMeters>1680.5999755859375</AltitudeMeters>
            <DistanceMeters>NAN</DistanceMeters>
          </Trackpoint>
          <Trackpoint>
            <Time>2018-12-30T13:26:50.000Z</Time>
            <Position>
              <LatitudeDegrees>40.7518732734024524688720703125</LatitudeDegrees>
              <LongitudeDegrees>-4.09192400984466075897216796875</LongitudeDegrees>
            </Position>
            <AltitudeMeters>1680.4000244140625</AltitudeMeters>
            <DistanceMeters>NAN</DistanceMeters>
          </Trackpoint>
          <Trackpoint>
            <Time>2018-12-30T13:26:51.000Z</Time>
            <Position>
              <LatitudeDegrees>40.75186765752732753753662109375</LatitudeDegrees>
              <LongitudeDegrees>-4.09191914834082126617431640625</LongitudeDegrees>
            </Position>
            <AltitudeMeters>1680.199951171875</AltitudeMeters>
            <DistanceMeters>NAN</DistanceMeters>
          </Trackpoint>
          <Trackpoint>
            <Time>2018-12-30T13:26:52.000Z</Time>
            <Position>
              <LatitudeDegrees>40.75187050737440586090087890625</LatitudeDegrees>
              <LongitudeDegrees>-4.091908670961856842041015625</LongitudeDegrees>
            </Position>
            <AltitudeMeters>1680.199951171875</AltitudeMeters>
            <DistanceMeters>NAN</DistanceMeters>
          </Trackpoint>
          <Trackpoint>
            <Time>2018-12-30T13:26:53.000Z</Time>
            <Position>
              <LatitudeDegrees>40.75186631642282009124755859375</LatitudeDegrees>
              <LongitudeDegrees>-4.0918893925845623016357421875</LongitudeDegrees>
            </Position>
            <AltitudeMeters>1680</AltitudeMeters>
            <DistanceMeters>NAN</DistanceMeters>
          </Trackpoint>
          <Trackpoint>
            <Time>2018-12-30T13:26:54.000Z</Time>
            <Position>
              <LatitudeDegrees>40.75185944326221942901611328125</LatitudeDegrees>
              <LongitudeDegrees>-4.0918810106813907623291015625</LongitudeDegrees>
            </Position>
            <AltitudeMeters>1679.800048828125</AltitudeMeters>
            <DistanceMeters>NAN</DistanceMeters>
          </Trackpoint>
          <Trackpoint>
            <Time>2018-12-30T13:26:55.000Z</Time>
            <Position>
              <LatitudeDegrees>40.75184301473200321197509765625</LatitudeDegrees>
              <LongitudeDegrees>-4.09187941811978816986083984375</LongitudeDegrees>
            </Position>
            <AltitudeMeters>1679.5999755859375</AltitudeMeters>
            <DistanceMeters>NAN</DistanceMeters>
          </Trackpoint>
          <Trackpoint>
            <Time>2018-12-30T13:26:56.000Z</Time>
            <Position>
              <LatitudeDegrees>40.75183622539043426513671875</LatitudeDegrees>
              <LongitudeDegrees>-4.09186919219791889190673828125</LongitudeDegrees>
            </Position>
            <AltitudeMeters>1679.4000244140625</AltitudeMeters>
            <DistanceMeters>NAN</DistanceMeters>
          </Trackpoint>
          <Trackpoint>
            <Time>2018-12-30T13:26:57.000Z</Time>
            <Position>
              <LatitudeDegrees>40.75183220207691192626953125</LatitudeDegrees>
              <LongitudeDegrees>-4.09186583943665027618408203125</LongitudeDegrees>
            </Position>
            <AltitudeMeters>1679</AltitudeMeters>
            <DistanceMeters>NAN</DistanceMeters>
          </Trackpoint>
          <Trackpoint>
            <Time>2018-12-30T13:26:58.000Z</Time>
            <Position>
              <LatitudeDegrees>40.75180764310061931610107421875</LatitudeDegrees>
              <LongitudeDegrees>-4.09186013974249362945556640625</LongitudeDegrees>
            </Position>
            <AltitudeMeters>1678.800048828125</AltitudeMeters>
            <DistanceMeters>NAN</DistanceMeters>
          </Trackpoint>
          <Trackpoint>
            <Time>2018-12-30T13:26:59.000Z</Time>
            <Position>
              <LatitudeDegrees>40.75179733335971832275390625</LatitudeDegrees>
              <LongitudeDegrees>-4.09186382777988910675048828125</LongitudeDegrees>
            </Position>
            <AltitudeMeters>1678.5999755859375</AltitudeMeters>
            <DistanceMeters>NAN</DistanceMeters>
          </Trackpoint>
          <Trackpoint>
            <Time>2018-12-30T13:27:00.000Z</Time>
            <Position>
              <LatitudeDegrees>40.7517907954752445220947265625</LatitudeDegrees>
              <LongitudeDegrees>-4.09185293130576610565185546875</LongitudeDegrees>
            </Position>
            <AltitudeMeters>1678.4000244140625</AltitudeMeters>
            <DistanceMeters>NAN</DistanceMeters>
          </Trackpoint>
          <Trackpoint>
            <Time>2018-12-30T13:27:01.000Z</Time>
            <Position>
              <LatitudeDegrees>40.75178652070462703704833984375</LatitudeDegrees>
              <LongitudeDegrees>-4.0918414480984210968017578125</LongitudeDegrees>
            </Position>
            <AltitudeMeters>1678.199951171875</AltitudeMeters>
            <DistanceMeters>NAN</DistanceMeters>
          </Trackpoint>
          <Trackpoint>
            <Time>2018-12-30T13:27:02.000Z</Time>
            <Position>
              <LatitudeDegrees>40.7517753727734088897705078125</LatitudeDegrees>
              <LongitudeDegrees>-4.0918176434934139251708984375</LongitudeDegrees>
            </Position>
            <AltitudeMeters>1678</AltitudeMeters>
            <DistanceMeters>NAN</DistanceMeters>
          </Trackpoint>
          <Trackpoint>
            <Time>2018-12-30T13:27:03.000Z</Time>
            <Position>
              <LatitudeDegrees>40.75177009217441082000732421875</LatitudeDegrees>
              <LongitudeDegrees>-4.09179677255451679229736328125</LongitudeDegrees>
            </Position>
            <AltitudeMeters>1678</AltitudeMeters>
            <DistanceMeters>NAN</DistanceMeters>
          </Trackpoint>
          <Trackpoint>
            <Time>2018-12-30T13:27:04.000Z</Time>
            <Position>
              <LatitudeDegrees>40.7517445273697376251220703125</LatitudeDegrees>
              <LongitudeDegrees>-4.09180565737187862396240234375</LongitudeDegrees>
            </Position>
            <AltitudeMeters>1677.800048828125</AltitudeMeters>
            <DistanceMeters>NAN</DistanceMeters>
          </Trackpoint>
          <Trackpoint>
            <Time>2018-12-30T13:27:05.000Z</Time>
            <Position>
              <LatitudeDegrees>40.7517361454665660858154296875</LatitudeDegrees>
              <LongitudeDegrees>-4.09180448390543460845947265625</LongitudeDegrees>
            </Position>
            <AltitudeMeters>1677.5999755859375</AltitudeMeters>
            <DistanceMeters>NAN</DistanceMeters>
          </Trackpoint>
          <Trackpoint>
            <Time>2018-12-30T13:27:06.000Z</Time>
            <Position>
              <LatitudeDegrees>40.75172902084887027740478515625</LatitudeDegrees>
              <LongitudeDegrees>-4.0918106026947498321533203125</LongitudeDegrees>
            </Position>
            <AltitudeMeters>1677.5999755859375</AltitudeMeters>
            <DistanceMeters>NAN</DistanceMeters>
          </Trackpoint>
          <Trackpoint>
            <Time>2018-12-30T13:27:07.000Z</Time>
            <Position>
              <LatitudeDegrees>40.75172348879277706146240234375</LatitudeDegrees>
              <LongitudeDegrees>-4.09181554801762104034423828125</LongitudeDegrees>
            </Position>
            <AltitudeMeters>1677.4000244140625</AltitudeMeters>
            <DistanceMeters>NAN</DistanceMeters>
          </Trackpoint>
          <Trackpoint>
            <Time>2018-12-30T13:27:08.000Z</Time>
            <Position>
              <LatitudeDegrees>40.75171862728893756866455078125</LatitudeDegrees>
              <LongitudeDegrees>-4.09182024188339710235595703125</LongitudeDegrees>
            </Position>
            <AltitudeMeters>1677.4000244140625</AltitudeMeters>
            <DistanceMeters>NAN</DistanceMeters>
          </Trackpoint>
          <Trackpoint>
            <Time>2018-12-30T13:27:09.000Z</Time>
            <Position>
              <LatitudeDegrees>40.75171108357608318328857421875</LatitudeDegrees>
              <LongitudeDegrees>-4.0918263606727123260498046875</LongitudeDegrees>
            </Position>
            <AltitudeMeters>1677.4000244140625</AltitudeMeters>
            <DistanceMeters>NAN</DistanceMeters>
          </Trackpoint>
          <Trackpoint>
            <Time>2018-12-30T13:27:10.000Z</Time>
            <Position>
              <LatitudeDegrees>40.75170773081481456756591796875</LatitudeDegrees>
              <LongitudeDegrees>-4.09183097071945667266845703125</LongitudeDegrees>
            </Position>
            <AltitudeMeters>1677.4000244140625</AltitudeMeters>
            <DistanceMeters>NAN</DistanceMeters>
          </Trackpoint>
          <Trackpoint>
            <Time>2018-12-30T13:27:11.000Z</Time>
            <Position>
              <LatitudeDegrees>40.7517032884061336517333984375</LatitudeDegrees>
              <LongitudeDegrees>-4.09183382056653499603271484375</LongitudeDegrees>
            </Position>
            <AltitudeMeters>1677.5999755859375</AltitudeMeters>
            <DistanceMeters>NAN</DistanceMeters>
          </Trackpoint>
          <Trackpoint>
            <Time>2018-12-30T13:27:12.000Z</Time>
            <Position>
              <LatitudeDegrees>40.75169264338910579681396484375</LatitudeDegrees>
              <LongitudeDegrees>-4.0918397717177867889404296875</LongitudeDegrees>
            </Position>
            <AltitudeMeters>1677.5999755859375</AltitudeMeters>
            <DistanceMeters>NAN</DistanceMeters>
          </Trackpoint>
          <Trackpoint>
            <Time>2018-12-30T13:27:13.000Z</Time>
            <Position>
              <LatitudeDegrees>40.75168468058109283447265625</LatitudeDegrees>
              <LongitudeDegrees>-4.091838262975215911865234375</LongitudeDegrees>
            </Position>
            <AltitudeMeters>1677.5999755859375</AltitudeMeters>
            <DistanceMeters>NAN</DistanceMeters>
          </Trackpoint>
          <Trackpoint>
            <Time>2018-12-30T13:27:14.000Z</Time>
            <Position>
              <LatitudeDegrees>40.7516754604876041412353515625</LatitudeDegrees>
              <LongitudeDegrees>-4.09183147363364696502685546875</LongitudeDegrees>
            </Position>
            <AltitudeMeters>1677.5999755859375</AltitudeMeters>
            <DistanceMeters>NAN</DistanceMeters>
          </Trackpoint>
          <Trackpoint>
            <Time>2018-12-30T13:27:15.000Z</Time>
            <Position>
              <LatitudeDegrees>40.75166297145187854766845703125</LatitudeDegrees>
              <LongitudeDegrees>-4.09183097071945667266845703125</LongitudeDegrees>
            </Position>
            <AltitudeMeters>1677.5999755859375</AltitudeMeters>
            <DistanceMeters>NAN</DistanceMeters>
          </Trackpoint>
          <Trackpoint>
            <Time>2018-12-30T13:27:16.000Z</Time>
            <Position>
              <LatitudeDegrees>40.75165442191064357757568359375</LatitudeDegrees>
              <LongitudeDegrees>-4.09183180890977382659912109375</LongitudeDegrees>
            </Position>
            <AltitudeMeters>1677.4000244140625</AltitudeMeters>
            <DistanceMeters>NAN</DistanceMeters>
          </Trackpoint>
          <Trackpoint>
            <Time>2018-12-30T13:27:17.000Z</Time>
            <Position>
              <LatitudeDegrees>40.75164067558944225311279296875</LatitudeDegrees>
              <LongitudeDegrees>-4.0918327309191226959228515625</LongitudeDegrees>
            </Position>
            <AltitudeMeters>1677.199951171875</AltitudeMeters>
            <DistanceMeters>NAN</DistanceMeters>
          </Trackpoint>
          <Trackpoint>
            <Time>2018-12-30T13:27:18.000Z</Time>
            <Position>
              <LatitudeDegrees>40.751628689467906951904296875</LatitudeDegrees>
              <LongitudeDegrees>-4.09182091243565082550048828125</LongitudeDegrees>
            </Position>
            <AltitudeMeters>1677</AltitudeMeters>
            <DistanceMeters>NAN</DistanceMeters>
          </Trackpoint>
          <Trackpoint>
            <Time>2018-12-30T13:27:19.000Z</Time>
            <Position>
              <LatitudeDegrees>40.7516174577176570892333984375</LatitudeDegrees>
              <LongitudeDegrees>-4.09180574119091033935546875</LongitudeDegrees>
            </Position>
            <AltitudeMeters>1676.5999755859375</AltitudeMeters>
            <DistanceMeters>NAN</DistanceMeters>
          </Trackpoint>
          <Trackpoint>
            <Time>2018-12-30T13:27:20.000Z</Time>
            <Position>
              <LatitudeDegrees>40.75160915963351726531982421875</LatitudeDegrees>
              <LongitudeDegrees>-4.09180230461061000823974609375</LongitudeDegrees>
            </Position>
            <AltitudeMeters>1676.199951171875</AltitudeMeters>
            <DistanceMeters>NAN</DistanceMeters>
          </Trackpoint>
          <Trackpoint>
            <Time>2018-12-30T13:27:21.000Z</Time>
            <Position>
              <LatitudeDegrees>40.75159616768360137939453125</LatitudeDegrees>
              <LongitudeDegrees>-4.09179124049842357635498046875</LongitudeDegrees>
            </Position>
            <AltitudeMeters>1675.5999755859375</AltitudeMeters>
            <DistanceMeters>NAN</DistanceMeters>
          </Trackpoint>
          <Trackpoint>
            <Time>2018-12-30T13:27:22.000Z</Time>
            <Position>
              <LatitudeDegrees>40.75158703140914440155029296875</LatitudeDegrees>
              <LongitudeDegrees>-4.0917821042239665985107421875</LongitudeDegrees>
            </Position>
            <AltitudeMeters>1675.199951171875</AltitudeMeters>
            <DistanceMeters>NAN</DistanceMeters>
          </Trackpoint>
          <Trackpoint>
            <Time>2018-12-30T13:27:23.000Z</Time>
            <Position>
              <LatitudeDegrees>40.751573704183101654052734375</LatitudeDegrees>
              <LongitudeDegrees>-4.0917777456343173980712890625</LongitudeDegrees>
            </Position>
            <AltitudeMeters>1675</AltitudeMeters>
            <DistanceMeters>NAN</DistanceMeters>
          </Trackpoint>
          <Trackpoint>
            <Time>2018-12-30T13:27:24.000Z</Time>
            <Position>
              <LatitudeDegrees>40.75156532227993011474609375</LatitudeDegrees>
              <LongitudeDegrees>-4.0917737223207950592041015625</LongitudeDegrees>
            </Position>
            <AltitudeMeters>1675</AltitudeMeters>
            <DistanceMeters>NAN</DistanceMeters>
          </Trackpoint>
          <Trackpoint>
            <Time>2018-12-30T13:27:25.000Z</Time>
            <Position>
              <LatitudeDegrees>40.75154998339712619781494140625</LatitudeDegrees>
              <LongitudeDegrees>-4.091772548854351043701171875</LongitudeDegrees>
            </Position>
            <AltitudeMeters>1674.800048828125</AltitudeMeters>
            <DistanceMeters>NAN</DistanceMeters>
          </Trackpoint>
          <Trackpoint>
            <Time>2018-12-30T13:27:26.000Z</Time>
            <Position>
              <LatitudeDegrees>40.751546882092952728271484375</LatitudeDegrees>
              <LongitudeDegrees>-4.09177749417722225189208984375</LongitudeDegrees>
            </Position>
            <AltitudeMeters>1674.800048828125</AltitudeMeters>
            <DistanceMeters>NAN</DistanceMeters>
          </Trackpoint>
          <Trackpoint>
            <Time>2018-12-30T13:27:27.000Z</Time>
            <Position>
              <LatitudeDegrees>40.751536153256893157958984375</LatitudeDegrees>
              <LongitudeDegrees>-4.09178319387137889862060546875</LongitudeDegrees>
            </Position>
            <AltitudeMeters>1674.5999755859375</AltitudeMeters>
            <DistanceMeters>NAN</DistanceMeters>
          </Trackpoint>
          <Trackpoint>
            <Time>2018-12-30T13:27:28.000Z</Time>
            <Position>
              <LatitudeDegrees>40.75152416713535785675048828125</LatitudeDegrees>
              <LongitudeDegrees>-4.0917836129665374755859375</LongitudeDegrees>
            </Position>
            <AltitudeMeters>1674.5999755859375</AltitudeMeters>
            <DistanceMeters>NAN</DistanceMeters>
          </Trackpoint>
          <Trackpoint>
            <Time>2018-12-30T13:27:29.000Z</Time>
            <Position>
              <LatitudeDegrees>40.75150991789996623992919921875</LatitudeDegrees>
              <LongitudeDegrees>-4.09178839065134525299072265625</LongitudeDegrees>
            </Position>
            <AltitudeMeters>1674.4000244140625</AltitudeMeters>
            <DistanceMeters>NAN</DistanceMeters>
          </Trackpoint>
          <Trackpoint>
            <Time>2018-12-30T13:27:30.000Z</Time>
            <Position>
              <LatitudeDegrees>40.7515034638345241546630859375</LatitudeDegrees>
              <LongitudeDegrees>-4.09179459325969219207763671875</LongitudeDegrees>
            </Position>
            <AltitudeMeters>1674</AltitudeMeters>
            <DistanceMeters>NAN</DistanceMeters>
          </Trackpoint>
          <Trackpoint>
            <Time>2018-12-30T13:27:31.000Z</Time>
            <Position>
              <LatitudeDegrees>40.75149717740714550018310546875</LatitudeDegrees>
              <LongitudeDegrees>-4.09179911948740482330322265625</LongitudeDegrees>
            </Position>
            <AltitudeMeters>1673.800048828125</AltitudeMeters>
            <DistanceMeters>NAN</DistanceMeters>
          </Trackpoint>
          <Trackpoint>
            <Time>2018-12-30T13:27:32.000Z</Time>
            <Position>
              <LatitudeDegrees>40.7514920644462108612060546875</LatitudeDegrees>
              <LongitudeDegrees>-4.091804064810276031494140625</LongitudeDegrees>
            </Position>
            <AltitudeMeters>1673.5999755859375</AltitudeMeters>
            <DistanceMeters>NAN</DistanceMeters>
          </Trackpoint>
          <Trackpoint>
            <Time>2018-12-30T13:27:33.000Z</Time>
            <Position>
              <LatitudeDegrees>40.7514853589236736297607421875</LatitudeDegrees>
              <LongitudeDegrees>-4.09180649556219577789306640625</LongitudeDegrees>
            </Position>
            <AltitudeMeters>1673.4000244140625</AltitudeMeters>
            <DistanceMeters>NAN</DistanceMeters>
          </Trackpoint>
          <Trackpoint>
            <Time>2018-12-30T13:27:34.000Z</Time>
            <Position>
              <LatitudeDegrees>40.7514753006398677825927734375</LatitudeDegrees>
              <LongitudeDegrees>-4.09181454218924045562744140625</LongitudeDegrees>
            </Position>
            <AltitudeMeters>1673.4000244140625</AltitudeMeters>
            <DistanceMeters>NAN</DistanceMeters>
          </Trackpoint>
          <Trackpoint>
            <Time>2018-12-30T13:27:35.000Z</Time>
            <Position>
              <LatitudeDegrees>40.751464068889617919921875</LatitudeDegrees>
              <LongitudeDegrees>-4.091820158064365386962890625</LongitudeDegrees>
            </Position>
            <AltitudeMeters>1673.199951171875</AltitudeMeters>
            <DistanceMeters>NAN</DistanceMeters>
          </Trackpoint>
          <Trackpoint>
            <Time>2018-12-30T13:27:36.000Z</Time>
            <Position>
              <LatitudeDegrees>40.7514531724154949188232421875</LatitudeDegrees>
              <LongitudeDegrees>-4.09182946197688579559326171875</LongitudeDegrees>
            </Position>
            <AltitudeMeters>1673.199951171875</AltitudeMeters>
            <DistanceMeters>NAN</DistanceMeters>
          </Trackpoint>
          <Trackpoint>
            <Time>2018-12-30T13:27:37.000Z</Time>
            <Position>
              <LatitudeDegrees>40.75144051574170589447021484375</LatitudeDegrees>
              <LongitudeDegrees>-4.09183164127171039581298828125</LongitudeDegrees>
            </Position>
            <AltitudeMeters>1673.199951171875</AltitudeMeters>
            <DistanceMeters>NAN</DistanceMeters>
          </Trackpoint>
          <Trackpoint>
            <Time>2018-12-30T13:27:38.000Z</Time>
            <Position>
              <LatitudeDegrees>40.7514300383627414703369140625</LatitudeDegrees>
              <LongitudeDegrees>-4.09183516167104244232177734375</LongitudeDegrees>
            </Position>
            <AltitudeMeters>1673.199951171875</AltitudeMeters>
            <DistanceMeters>NAN</DistanceMeters>
          </Trackpoint>
          <Trackpoint>
            <Time>2018-12-30T13:27:39.000Z</Time>
            <Position>
              <LatitudeDegrees>40.751416794955730438232421875</LatitudeDegrees>
              <LongitudeDegrees>-4.09183792769908905029296875</LongitudeDegrees>
            </Position>
            <AltitudeMeters>1673.199951171875</AltitudeMeters>
            <DistanceMeters>NAN</DistanceMeters>
          </Trackpoint>
          <Trackpoint>
            <Time>2018-12-30T13:27:40.000Z</Time>
            <Position>
              <LatitudeDegrees>40.75140598230063915252685546875</LatitudeDegrees>
              <LongitudeDegrees>-4.09183935262262821197509765625</LongitudeDegrees>
            </Position>
            <AltitudeMeters>1673.199951171875</AltitudeMeters>
            <DistanceMeters>NAN</DistanceMeters>
          </Trackpoint>
          <Trackpoint>
            <Time>2018-12-30T13:27:41.000Z</Time>
            <Position>
              <LatitudeDegrees>40.75139609165489673614501953125</LatitudeDegrees>
              <LongitudeDegrees>-4.091841615736484527587890625</LongitudeDegrees>
            </Position>
            <AltitudeMeters>1673.199951171875</AltitudeMeters>
            <DistanceMeters>NAN</DistanceMeters>
          </Trackpoint>
          <Trackpoint>
            <Time>2018-12-30T13:27:42.000Z</Time>
            <Position>
              <LatitudeDegrees>40.751389302313327789306640625</LatitudeDegrees>
              <LongitudeDegrees>-4.09184723161160945892333984375</LongitudeDegrees>
            </Position>
            <AltitudeMeters>1673.199951171875</AltitudeMeters>
            <DistanceMeters>NAN</DistanceMeters>
          </Trackpoint>
          <Trackpoint>
            <Time>2018-12-30T13:27:43.000Z</Time>
            <Position>
              <LatitudeDegrees>40.751373209059238433837890625</LatitudeDegrees>
              <LongitudeDegrees>-4.0918545238673686981201171875</LongitudeDegrees>
            </Position>
            <AltitudeMeters>1673</AltitudeMeters>
            <DistanceMeters>NAN</DistanceMeters>
          </Trackpoint>
          <Trackpoint>
            <Time>2018-12-30T13:27:44.000Z</Time>
            <Position>
              <LatitudeDegrees>40.75136323459446430206298828125</LatitudeDegrees>
              <LongitudeDegrees>-4.09186474978923797607421875</LongitudeDegrees>
            </Position>
            <AltitudeMeters>1672.800048828125</AltitudeMeters>
            <DistanceMeters>NAN</DistanceMeters>
          </Trackpoint>
          <Trackpoint>
            <Time>2018-12-30T13:27:45.000Z</Time>
            <Position>
              <LatitudeDegrees>40.7513525895774364471435546875</LatitudeDegrees>
              <LongitudeDegrees>-4.091875143349170684814453125</LongitudeDegrees>
            </Position>
            <AltitudeMeters>1672.5999755859375</AltitudeMeters>
            <DistanceMeters>NAN</DistanceMeters>
          </Trackpoint>
          <Trackpoint>
            <Time>2018-12-30T13:27:46.000Z</Time>
            <Position>
              <LatitudeDegrees>40.75134764425456523895263671875</LatitudeDegrees>
              <LongitudeDegrees>-4.09188495017588138580322265625</LongitudeDegrees>
            </Position>
            <AltitudeMeters>1672.5999755859375</AltitudeMeters>
            <DistanceMeters>NAN</DistanceMeters>
          </Trackpoint>
          <Trackpoint>
            <Time>2018-12-30T13:27:47.000Z</Time>
            <Position>
              <LatitudeDegrees>40.7513415254652500152587890625</LatitudeDegrees>
              <LongitudeDegrees>-4.091899953782558441162109375</LongitudeDegrees>
            </Position>
            <AltitudeMeters>1672.5999755859375</AltitudeMeters>
            <DistanceMeters>NAN</DistanceMeters>
          </Trackpoint>
          <Trackpoint>
            <Time>2018-12-30T13:27:48.000Z</Time>
            <Position>
              <LatitudeDegrees>40.75134244747459888458251953125</LatitudeDegrees>
              <LongitudeDegrees>-4.09191277809441089630126953125</LongitudeDegrees>
            </Position>
            <AltitudeMeters>1672.4000244140625</AltitudeMeters>
            <DistanceMeters>NAN</DistanceMeters>
          </Trackpoint>
          <Trackpoint>
            <Time>2018-12-30T13:27:49.000Z</Time>
            <Position>
              <LatitudeDegrees>40.75133792124688625335693359375</LatitudeDegrees>
              <LongitudeDegrees>-4.0919215790927410125732421875</LongitudeDegrees>
            </Position>
            <AltitudeMeters>1672.4000244140625</AltitudeMeters>
            <DistanceMeters>NAN</DistanceMeters>
          </Trackpoint>
          <Trackpoint>
            <Time>2018-12-30T13:27:50.000Z</Time>
            <Position>
              <LatitudeDegrees>40.75132928788661956787109375</LatitudeDegrees>
              <LongitudeDegrees>-4.091926775872707366943359375</LongitudeDegrees>
            </Position>
            <AltitudeMeters>1672.4000244140625</AltitudeMeters>
            <DistanceMeters>NAN</DistanceMeters>
          </Trackpoint>
          <Trackpoint>
            <Time>2018-12-30T13:27:51.000Z</Time>
            <Position>
              <LatitudeDegrees>40.75131914578378200531005859375</LatitudeDegrees>
              <LongitudeDegrees>-4.09193993546068668365478515625</LongitudeDegrees>
            </Position>
            <AltitudeMeters>1672.199951171875</AltitudeMeters>
            <DistanceMeters>NAN</DistanceMeters>
          </Trackpoint>
          <Trackpoint>
            <Time>2018-12-30T13:27:52.000Z</Time>
            <Position>
              <LatitudeDegrees>40.751308836042881011962890625</LatitudeDegrees>
              <LongitudeDegrees>-4.0919473953545093536376953125</LongitudeDegrees>
            </Position>
            <AltitudeMeters>1672</AltitudeMeters>
            <DistanceMeters>NAN</DistanceMeters>
          </Trackpoint>
          <Trackpoint>
            <Time>2018-12-30T13:27:53.000Z</Time>
            <Position>
              <LatitudeDegrees>40.751297436654567718505859375</LatitudeDegrees>
              <LongitudeDegrees>-4.09195460379123687744140625</LongitudeDegrees>
            </Position>
            <AltitudeMeters>1672</AltitudeMeters>
            <DistanceMeters>NAN</DistanceMeters>
          </Trackpoint>
          <Trackpoint>
            <Time>2018-12-30T13:27:54.000Z</Time>
            <Position>
              <LatitudeDegrees>40.75128360651433467864990234375</LatitudeDegrees>
              <LongitudeDegrees>-4.091956615447998046875</LongitudeDegrees>
            </Position>
            <AltitudeMeters>1671.5999755859375</AltitudeMeters>
            <DistanceMeters>NAN</DistanceMeters>
          </Trackpoint>
          <Trackpoint>
            <Time>2018-12-30T13:27:55.000Z</Time>
            <Position>
              <LatitudeDegrees>40.751283355057239532470703125</LatitudeDegrees>
              <LongitudeDegrees>-4.091959632933139801025390625</LongitudeDegrees>
            </Position>
            <AltitudeMeters>1671.5999755859375</AltitudeMeters>
            <DistanceMeters>NAN</DistanceMeters>
          </Trackpoint>
          <Trackpoint>
            <Time>2018-12-30T13:27:56.000Z</Time>
            <Position>
              <LatitudeDegrees>40.75127773918211460113525390625</LatitudeDegrees>
              <LongitudeDegrees>-4.09195787273347377777099609375</LongitudeDegrees>
            </Position>
            <AltitudeMeters>1671.4000244140625</AltitudeMeters>
            <DistanceMeters>NAN</DistanceMeters>
          </Trackpoint>
          <Trackpoint>
            <Time>2018-12-30T13:27:57.000Z</Time>
            <Position>
              <LatitudeDegrees>40.75127371586859226226806640625</LatitudeDegrees>
              <LongitudeDegrees>-4.0919564478099346160888671875</LongitudeDegrees>
            </Position>
            <AltitudeMeters>1671.199951171875</AltitudeMeters>
            <DistanceMeters>NAN</DistanceMeters>
          </Trackpoint>
          <Trackpoint>
            <Time>2018-12-30T13:27:58.000Z</Time>
            <Position>
              <LatitudeDegrees>40.75126089155673980712890625</LatitudeDegrees>
              <LongitudeDegrees>-4.09196625463664531707763671875</LongitudeDegrees>
            </Position>
            <AltitudeMeters>1671</AltitudeMeters>
            <DistanceMeters>NAN</DistanceMeters>
          </Trackpoint>
          <Trackpoint>
            <Time>2018-12-30T13:27:59.000Z</Time>
            <Position>
              <LatitudeDegrees>40.75124907307326793670654296875</LatitudeDegrees>
              <LongitudeDegrees>-4.09198100678622722625732421875</LongitudeDegrees>
            </Position>
            <AltitudeMeters>1671</AltitudeMeters>
            <DistanceMeters>NAN</DistanceMeters>
          </Trackpoint>
          <Trackpoint>
            <Time>2018-12-30T13:28:00.000Z</Time>
            <Position>
              <LatitudeDegrees>40.7512345723807811737060546875</LatitudeDegrees>
              <LongitudeDegrees>-4.0919933281838893890380859375</LongitudeDegrees>
            </Position>
            <AltitudeMeters>1670.800048828125</AltitudeMeters>
            <DistanceMeters>NAN</DistanceMeters>
          </Trackpoint>
          <Trackpoint>
            <Time>2018-12-30T13:28:01.000Z</Time>
            <Position>
              <LatitudeDegrees>40.75122199952602386474609375</LatitudeDegrees>
              <LongitudeDegrees>-4.09199760295450687408447265625</LongitudeDegrees>
            </Position>
            <AltitudeMeters>1670.4000244140625</AltitudeMeters>
            <DistanceMeters>NAN</DistanceMeters>
          </Trackpoint>
          <Trackpoint>
            <Time>2018-12-30T13:28:02.000Z</Time>
            <Position>
              <LatitudeDegrees>40.75120448134839534759521484375</LatitudeDegrees>
              <LongitudeDegrees>-4.0920060686767101287841796875</LongitudeDegrees>
            </Position>
            <AltitudeMeters>1670.4000244140625</AltitudeMeters>
            <DistanceMeters>NAN</DistanceMeters>
          </Trackpoint>
          <Trackpoint>
            <Time>2018-12-30T13:28:03.000Z</Time>
            <Position>
              <LatitudeDegrees>40.7511971890926361083984375</LatitudeDegrees>
              <LongitudeDegrees>-4.0920124389231204986572265625</LongitudeDegrees>
            </Position>
            <AltitudeMeters>1670.199951171875</AltitudeMeters>
            <DistanceMeters>NAN</DistanceMeters>
          </Trackpoint>
          <Trackpoint>
            <Time>2018-12-30T13:28:04.000Z</Time>
            <Position>
              <LatitudeDegrees>40.751195512712001800537109375</LatitudeDegrees>
              <LongitudeDegrees>-4.092009253799915313720703125</LongitudeDegrees>
            </Position>
            <AltitudeMeters>1670.199951171875</AltitudeMeters>
            <DistanceMeters>NAN</DistanceMeters>
          </Trackpoint>
          <Trackpoint>
            <Time>2018-12-30T13:28:05.000Z</Time>
            <Position>
              <LatitudeDegrees>40.75119785964488983154296875</LatitudeDegrees>
              <LongitudeDegrees>-4.09200690686702728271484375</LongitudeDegrees>
            </Position>
            <AltitudeMeters>1670</AltitudeMeters>
            <DistanceMeters>NAN</DistanceMeters>
          </Trackpoint>
          <Trackpoint>
            <Time>2018-12-30T13:28:06.000Z</Time>
            <Position>
              <LatitudeDegrees>40.7511946745216846466064453125</LatitudeDegrees>
              <LongitudeDegrees>-4.09200548194348812103271484375</LongitudeDegrees>
            </Position>
            <AltitudeMeters>1669.800048828125</AltitudeMeters>
            <DistanceMeters>NAN</DistanceMeters>
          </Trackpoint>
          <Trackpoint>
            <Time>2018-12-30T13:28:07.000Z</Time>
            <Position>
              <LatitudeDegrees>40.75119123794138431549072265625</LatitudeDegrees>
              <LongitudeDegrees>-4.092003218829631805419921875</LongitudeDegrees>
            </Position>
            <AltitudeMeters>1669.5999755859375</AltitudeMeters>
            <DistanceMeters>NAN</DistanceMeters>
          </Trackpoint>
          <Trackpoint>
            <Time>2018-12-30T13:28:08.000Z</Time>
            <Position>
              <LatitudeDegrees>40.75118604116141796112060546875</LatitudeDegrees>
              <LongitudeDegrees>-4.0920084156095981597900390625</LongitudeDegrees>
            </Position>
            <AltitudeMeters>1669.4000244140625</AltitudeMeters>
            <DistanceMeters>NAN</DistanceMeters>
          </Trackpoint>
          <Trackpoint>
            <Time>2018-12-30T13:28:09.000Z</Time>
            <Position>
              <LatitudeDegrees>40.7511859573423862457275390625</LatitudeDegrees>
              <LongitudeDegrees>-4.09200682304799556732177734375</LongitudeDegrees>
            </Position>
            <AltitudeMeters>1669.4000244140625</AltitudeMeters>
            <DistanceMeters>NAN</DistanceMeters>
          </Trackpoint>
          <Trackpoint>
            <Time>2018-12-30T13:28:10.000Z</Time>
            <Position>
              <LatitudeDegrees>40.75118847191333770751953125</LatitudeDegrees>
              <LongitudeDegrees>-4.09200313501060009002685546875</LongitudeDegrees>
            </Position>
            <AltitudeMeters>1669.199951171875</AltitudeMeters>
            <DistanceMeters>NAN</DistanceMeters>
          </Trackpoint>
          <Trackpoint>
            <Time>2018-12-30T13:28:11.000Z</Time>
            <Position>
              <LatitudeDegrees>40.75119676999747753143310546875</LatitudeDegrees>
              <LongitudeDegrees>-4.091999530792236328125</LongitudeDegrees>
            </Position>
            <AltitudeMeters>1669.199951171875</AltitudeMeters>
            <DistanceMeters>NAN</DistanceMeters>
          </Trackpoint>
          <Trackpoint>
            <Time>2018-12-30T13:28:12.000Z</Time>
            <Position>
              <LatitudeDegrees>40.75119911693036556243896484375</LatitudeDegrees>
              <LongitudeDegrees>-4.0919936634600162506103515625</LongitudeDegrees>
            </Position>
            <AltitudeMeters>1669.199951171875</AltitudeMeters>
            <DistanceMeters>NAN</DistanceMeters>
          </Trackpoint>
          <Trackpoint>
            <Time>2018-12-30T13:28:13.000Z</Time>
            <Position>
              <LatitudeDegrees>40.7511889748275279998779296875</LatitudeDegrees>
              <LongitudeDegrees>-4.0919779054820537567138671875</LongitudeDegrees>
            </Position>
            <AltitudeMeters>1669</AltitudeMeters>
            <DistanceMeters>NAN</DistanceMeters>
          </Trackpoint>
          <Trackpoint>
            <Time>2018-12-30T13:28:14.000Z</Time>
            <Position>
              <LatitudeDegrees>40.75117615051567554473876953125</LatitudeDegrees>
              <LongitudeDegrees>-4.091964997351169586181640625</LongitudeDegrees>
            </Position>
            <AltitudeMeters>1668.800048828125</AltitudeMeters>
            <DistanceMeters>NAN</DistanceMeters>
          </Trackpoint>
          <Trackpoint>
            <Time>2018-12-30T13:28:15.000Z</Time>
            <Position>
              <LatitudeDegrees>40.751161985099315643310546875</LatitudeDegrees>
              <LongitudeDegrees>-4.09196055494248867034912109375</LongitudeDegrees>
            </Position>
            <AltitudeMeters>1668.800048828125</AltitudeMeters>
            <DistanceMeters>NAN</DistanceMeters>
          </Trackpoint>
          <Trackpoint>
            <Time>2018-12-30T13:28:16.000Z</Time>
            <Position>
              <LatitudeDegrees>40.7511477358639240264892578125</LatitudeDegrees>
              <LongitudeDegrees>-4.091958291828632354736328125</LongitudeDegrees>
            </Position>
            <AltitudeMeters>1668.800048828125</AltitudeMeters>
            <DistanceMeters>NAN</DistanceMeters>
          </Trackpoint>
          <Trackpoint>
            <Time>2018-12-30T13:28:17.000Z</Time>
            <Position>
              <LatitudeDegrees>40.75113407336175441741943359375</LatitudeDegrees>
              <LongitudeDegrees>-4.09195485524833202362060546875</LongitudeDegrees>
            </Position>
            <AltitudeMeters>1668.800048828125</AltitudeMeters>
            <DistanceMeters>NAN</DistanceMeters>
          </Trackpoint>
          <Trackpoint>
            <Time>2018-12-30T13:28:18.000Z</Time>
            <Position>
              <LatitudeDegrees>40.75111613608896732330322265625</LatitudeDegrees>
              <LongitudeDegrees>-4.09194898791611194610595703125</LongitudeDegrees>
            </Position>
            <AltitudeMeters>1668.800048828125</AltitudeMeters>
            <DistanceMeters>NAN</DistanceMeters>
          </Trackpoint>
          <Trackpoint>
            <Time>2018-12-30T13:28:19.000Z</Time>
            <Position>
              <LatitudeDegrees>40.75110188685357570648193359375</LatitudeDegrees>
              <LongitudeDegrees>-4.09194345586001873016357421875</LongitudeDegrees>
            </Position>
            <AltitudeMeters>1669</AltitudeMeters>
            <DistanceMeters>NAN</DistanceMeters>
          </Trackpoint>
          <Trackpoint>
            <Time>2018-12-30T13:28:20.000Z</Time>
            <Position>
              <LatitudeDegrees>40.7510847039520740509033203125</LatitudeDegrees>
              <LongitudeDegrees>-4.0919430367648601531982421875</LongitudeDegrees>
            </Position>
            <AltitudeMeters>1669.199951171875</AltitudeMeters>
            <DistanceMeters>NAN</DistanceMeters>
          </Trackpoint>
          <Trackpoint>
            <Time>2018-12-30T13:28:21.000Z</Time>
            <Position>
              <LatitudeDegrees>40.75107271783053874969482421875</LatitudeDegrees>
              <LongitudeDegrees>-4.09193708561360836029052734375</LongitudeDegrees>
            </Position>
            <AltitudeMeters>1669.4000244140625</AltitudeMeters>
            <DistanceMeters>NAN</DistanceMeters>
          </Trackpoint>
          <Trackpoint>
            <Time>2018-12-30T13:28:22.000Z</Time>
            <Position>
              <LatitudeDegrees>40.75106333009898662567138671875</LatitudeDegrees>
              <LongitudeDegrees>-4.09193105064332485198974609375</LongitudeDegrees>
            </Position>
            <AltitudeMeters>1669.4000244140625</AltitudeMeters>
            <DistanceMeters>NAN</DistanceMeters>
          </Trackpoint>
          <Trackpoint>
            <Time>2018-12-30T13:28:23.000Z</Time>
            <Position>
              <LatitudeDegrees>40.7510531879961490631103515625</LatitudeDegrees>
              <LongitudeDegrees>-4.0919262729585170745849609375</LongitudeDegrees>
            </Position>
            <AltitudeMeters>1669.4000244140625</AltitudeMeters>
            <DistanceMeters>NAN</DistanceMeters>
          </Trackpoint>
          <Trackpoint>
            <Time>2018-12-30T13:28:24.000Z</Time>
            <Position>
              <LatitudeDegrees>40.75104505755007266998291015625</LatitudeDegrees>
              <LongitudeDegrees>-4.091920070350170135498046875</LongitudeDegrees>
            </Position>
            <AltitudeMeters>1669</AltitudeMeters>
            <DistanceMeters>NAN</DistanceMeters>
          </Trackpoint>
          <Trackpoint>
            <Time>2018-12-30T13:28:25.000Z</Time>
            <Position>
              <LatitudeDegrees>40.7510335743427276611328125</LatitudeDegrees>
              <LongitudeDegrees>-4.09191864542663097381591796875</LongitudeDegrees>
            </Position>
            <AltitudeMeters>1668.5999755859375</AltitudeMeters>
            <DistanceMeters>NAN</DistanceMeters>
          </Trackpoint>
          <Trackpoint>
            <Time>2018-12-30T13:28:26.000Z</Time>
            <Position>
              <LatitudeDegrees>40.75102225877344608306884765625</LatitudeDegrees>
              <LongitudeDegrees>-4.0919101797044277191162109375</LongitudeDegrees>
            </Position>
            <AltitudeMeters>1668.199951171875</AltitudeMeters>
            <DistanceMeters>NAN</DistanceMeters>
          </Trackpoint>
          <Trackpoint>
            <Time>2018-12-30T13:28:27.000Z</Time>
            <Position>
              <LatitudeDegrees>40.7510094344615936279296875</LatitudeDegrees>
              <LongitudeDegrees>-4.09190607257187366485595703125</LongitudeDegrees>
            </Position>
            <AltitudeMeters>1668</AltitudeMeters>
            <DistanceMeters>NAN</DistanceMeters>
          </Trackpoint>
          <Trackpoint>
            <Time>2018-12-30T13:28:28.000Z</Time>
            <Position>
              <LatitudeDegrees>40.75100013054907321929931640625</LatitudeDegrees>
              <LongitudeDegrees>-4.09190607257187366485595703125</LongitudeDegrees>
            </Position>
            <AltitudeMeters>1667.4000244140625</AltitudeMeters>
            <DistanceMeters>NAN</DistanceMeters>
          </Trackpoint>
          <Trackpoint>
            <Time>2018-12-30T13:28:29.000Z</Time>
            <Position>
              <LatitudeDegrees>40.7509904913604259490966796875</LatitudeDegrees>
              <LongitudeDegrees>-4.09190422855317592620849609375</LongitudeDegrees>
            </Position>
            <AltitudeMeters>1667</AltitudeMeters>
            <DistanceMeters>NAN</DistanceMeters>
          </Trackpoint>
          <Trackpoint>
            <Time>2018-12-30T13:28:30.000Z</Time>
            <Position>
              <LatitudeDegrees>40.75098789297044277191162109375</LatitudeDegrees>
              <LongitudeDegrees>-4.091892577707767486572265625</LongitudeDegrees>
            </Position>
            <AltitudeMeters>1666.4000244140625</AltitudeMeters>
            <DistanceMeters>NAN</DistanceMeters>
          </Trackpoint>
          <Trackpoint>
            <Time>2018-12-30T13:28:31.000Z</Time>
            <Position>
              <LatitudeDegrees>40.75098437257111072540283203125</LatitudeDegrees>
              <LongitudeDegrees>-4.09188142977654933929443359375</LongitudeDegrees>
            </Position>
            <AltitudeMeters>1666</AltitudeMeters>
            <DistanceMeters>NAN</DistanceMeters>
          </Trackpoint>
          <Trackpoint>
            <Time>2018-12-30T13:28:32.000Z</Time>
            <Position>
              <LatitudeDegrees>40.7509826123714447021484375</LatitudeDegrees>
              <LongitudeDegrees>-4.09187237732112407684326171875</LongitudeDegrees>
            </Position>
            <AltitudeMeters>1665.800048828125</AltitudeMeters>
            <DistanceMeters>NAN</DistanceMeters>
          </Trackpoint>
          <Trackpoint>
            <Time>2018-12-30T13:28:33.000Z</Time>
            <Position>
              <LatitudeDegrees>40.75098135508596897125244140625</LatitudeDegrees>
              <LongitudeDegrees>-4.091865085065364837646484375</LongitudeDegrees>
            </Position>
            <AltitudeMeters>1665.5999755859375</AltitudeMeters>
            <DistanceMeters>NAN</DistanceMeters>
          </Trackpoint>
          <Trackpoint>
            <Time>2018-12-30T13:28:34.000Z</Time>
            <Position>
              <LatitudeDegrees>40.7509723864495754241943359375</LatitudeDegrees>
              <LongitudeDegrees>-4.0918618999421596527099609375</LongitudeDegrees>
            </Position>
            <AltitudeMeters>1665.4000244140625</AltitudeMeters>
            <DistanceMeters>NAN</DistanceMeters>
          </Trackpoint>
          <Trackpoint>
            <Time>2018-12-30T13:28:35.000Z</Time>
            <Position>
              <LatitudeDegrees>40.75095721520483493804931640625</LatitudeDegrees>
              <LongitudeDegrees>-4.09186340868473052978515625</LongitudeDegrees>
            </Position>
            <AltitudeMeters>1665</AltitudeMeters>
            <DistanceMeters>NAN</DistanceMeters>
          </Trackpoint>
          <Trackpoint>
            <Time>2018-12-30T13:28:36.000Z</Time>
            <Position>
              <LatitudeDegrees>40.75094975531101226806640625</LatitudeDegrees>
              <LongitudeDegrees>-4.09185745753347873687744140625</LongitudeDegrees>
            </Position>
            <AltitudeMeters>1665</AltitudeMeters>
            <DistanceMeters>NAN</DistanceMeters>
          </Trackpoint>
          <Trackpoint>
            <Time>2018-12-30T13:28:37.000Z</Time>
            <Position>
              <LatitudeDegrees>40.75094036757946014404296875</LatitudeDegrees>
              <LongitudeDegrees>-4.09185108728706836700439453125</LongitudeDegrees>
            </Position>
            <AltitudeMeters>1664.800048828125</AltitudeMeters>
            <DistanceMeters>NAN</DistanceMeters>
          </Trackpoint>
          <Trackpoint>
            <Time>2018-12-30T13:28:38.000Z</Time>
            <Position>
              <LatitudeDegrees>40.75091865845024585723876953125</LatitudeDegrees>
              <LongitudeDegrees>-4.09185578115284442901611328125</LongitudeDegrees>
            </Position>
            <AltitudeMeters>1664.5999755859375</AltitudeMeters>
            <DistanceMeters>NAN</DistanceMeters>
          </Trackpoint>
          <Trackpoint>
            <Time>2018-12-30T13:28:39.000Z</Time>
            <Position>
              <LatitudeDegrees>40.7509113661944866180419921875</LatitudeDegrees>
              <LongitudeDegrees>-4.091846309602260589599609375</LongitudeDegrees>
            </Position>
            <AltitudeMeters>1664.4000244140625</AltitudeMeters>
            <DistanceMeters>NAN</DistanceMeters>
          </Trackpoint>
          <Trackpoint>
            <Time>2018-12-30T13:28:40.000Z</Time>
            <Position>
              <LatitudeDegrees>40.75090222992002964019775390625</LatitudeDegrees>
              <LongitudeDegrees>-4.09183784388005733489990234375</LongitudeDegrees>
            </Position>
            <AltitudeMeters>1664.199951171875</AltitudeMeters>
            <DistanceMeters>NAN</DistanceMeters>
          </Trackpoint>
          <Trackpoint>
            <Time>2018-12-30T13:28:41.000Z</Time>
            <Position>
              <LatitudeDegrees>40.75089183636009693145751953125</LatitudeDegrees>
              <LongitudeDegrees>-4.09182853996753692626953125</LongitudeDegrees>
            </Position>
            <AltitudeMeters>1663.800048828125</AltitudeMeters>
            <DistanceMeters>NAN</DistanceMeters>
          </Trackpoint>
          <Trackpoint>
            <Time>2018-12-30T13:28:42.000Z</Time>
            <Position>
              <LatitudeDegrees>40.7508771680295467376708984375</LatitudeDegrees>
              <LongitudeDegrees>-4.09182208590209484100341796875</LongitudeDegrees>
            </Position>
            <AltitudeMeters>1663.4000244140625</AltitudeMeters>
            <DistanceMeters>NAN</DistanceMeters>
          </Trackpoint>
          <Trackpoint>
            <Time>2018-12-30T13:28:43.000Z</Time>
            <Position>
              <LatitudeDegrees>40.75086836703121662139892578125</LatitudeDegrees>
              <LongitudeDegrees>-4.09181521274149417877197265625</LongitudeDegrees>
            </Position>
            <AltitudeMeters>1663.199951171875</AltitudeMeters>
            <DistanceMeters>NAN</DistanceMeters>
          </Trackpoint>
          <Trackpoint>
            <Time>2018-12-30T13:28:44.000Z</Time>
            <Position>
              <LatitudeDegrees>40.750858224928379058837890625</LatitudeDegrees>
              <LongitudeDegrees>-4.09181185998022556304931640625</LongitudeDegrees>
            </Position>
            <AltitudeMeters>1663</AltitudeMeters>
            <DistanceMeters>NAN</DistanceMeters>
          </Trackpoint>
          <Trackpoint>
            <Time>2018-12-30T13:28:45.000Z</Time>
            <Position>
              <LatitudeDegrees>40.75083886273205280303955078125</LatitudeDegrees>
              <LongitudeDegrees>-4.0918149612843990325927734375</LongitudeDegrees>
            </Position>
            <AltitudeMeters>1662.5999755859375</AltitudeMeters>
            <DistanceMeters>NAN</DistanceMeters>
          </Trackpoint>
          <Trackpoint>
            <Time>2018-12-30T13:28:46.000Z</Time>
            <Position>
              <LatitudeDegrees>40.75082394294440746307373046875</LatitudeDegrees>
              <LongitudeDegrees>-4.09181001596152782440185546875</LongitudeDegrees>
            </Position>
            <AltitudeMeters>1662.4000244140625</AltitudeMeters>
            <DistanceMeters>NAN</DistanceMeters>
          </Trackpoint>
          <Trackpoint>
            <Time>2018-12-30T13:28:47.000Z</Time>
            <Position>
              <LatitudeDegrees>40.7508181594312191009521484375</LatitudeDegrees>
              <LongitudeDegrees>-4.09179777838289737701416015625</LongitudeDegrees>
            </Position>
            <AltitudeMeters>1662.4000244140625</AltitudeMeters>
            <DistanceMeters>NAN</DistanceMeters>
          </Trackpoint>
          <Trackpoint>
            <Time>2018-12-30T13:28:48.000Z</Time>
            <Position>
              <LatitudeDegrees>40.7508168183267116546630859375</LatitudeDegrees>
              <LongitudeDegrees>-4.091779924929141998291015625</LongitudeDegrees>
            </Position>
            <AltitudeMeters>1662.199951171875</AltitudeMeters>
            <DistanceMeters>NAN</DistanceMeters>
          </Trackpoint>
          <Trackpoint>
            <Time>2018-12-30T13:28:49.000Z</Time>
            <Position>
              <LatitudeDegrees>40.75080751441419124603271484375</LatitudeDegrees>
              <LongitudeDegrees>-4.09177682362496852874755859375</LongitudeDegrees>
            </Position>
            <AltitudeMeters>1662.199951171875</AltitudeMeters>
            <DistanceMeters>NAN</DistanceMeters>
          </Trackpoint>
          <Trackpoint>
            <Time>2018-12-30T13:28:50.000Z</Time>
            <Position>
              <LatitudeDegrees>40.750801227986812591552734375</LatitudeDegrees>
              <LongitudeDegrees>-4.09176525659859180450439453125</LongitudeDegrees>
            </Position>
            <AltitudeMeters>1662</AltitudeMeters>
            <DistanceMeters>NAN</DistanceMeters>
          </Trackpoint>
          <Trackpoint>
            <Time>2018-12-30T13:28:51.000Z</Time>
            <Position>
              <LatitudeDegrees>40.75080416165292263031005859375</LatitudeDegrees>
              <LongitudeDegrees>-4.0917599759995937347412109375</LongitudeDegrees>
            </Position>
            <AltitudeMeters>1661.800048828125</AltitudeMeters>
            <DistanceMeters>NAN</DistanceMeters>
          </Trackpoint>
          <Trackpoint>
            <Time>2018-12-30T13:28:52.000Z</Time>
            <Position>
              <LatitudeDegrees>40.75078773312270641326904296875</LatitudeDegrees>
              <LongitudeDegrees>-4.09177623689174652099609375</LongitudeDegrees>
            </Position>
            <AltitudeMeters>1661.5999755859375</AltitudeMeters>
            <DistanceMeters>NAN</DistanceMeters>
          </Trackpoint>
          <Trackpoint>
            <Time>2018-12-30T13:28:53.000Z</Time>
            <Position>
              <LatitudeDegrees>40.7507826201617717742919921875</LatitudeDegrees>
              <LongitudeDegrees>-4.09177816472947597503662109375</LongitudeDegrees>
            </Position>
            <AltitudeMeters>1661.5999755859375</AltitudeMeters>
            <DistanceMeters>NAN</DistanceMeters>
          </Trackpoint>
          <Trackpoint>
            <Time>2018-12-30T13:28:54.000Z</Time>
            <Position>
              <LatitudeDegrees>40.75077465735375881195068359375</LatitudeDegrees>
              <LongitudeDegrees>-4.09178252331912517547607421875</LongitudeDegrees>
            </Position>
            <AltitudeMeters>1661.4000244140625</AltitudeMeters>
            <DistanceMeters>NAN</DistanceMeters>
          </Trackpoint>
          <Trackpoint>
            <Time>2018-12-30T13:28:55.000Z</Time>
            <Position>
              <LatitudeDegrees>40.7507759146392345428466796875</LatitudeDegrees>
              <LongitudeDegrees>-4.0917831100523471832275390625</LongitudeDegrees>
            </Position>
            <AltitudeMeters>1661.4000244140625</AltitudeMeters>
            <DistanceMeters>NAN</DistanceMeters>
          </Trackpoint>
          <Trackpoint>
            <Time>2018-12-30T13:28:56.000Z</Time>
            <Position>
              <LatitudeDegrees>40.750771053135395050048828125</LatitudeDegrees>
              <LongitudeDegrees>-4.09177799709141254425048828125</LongitudeDegrees>
            </Position>
            <AltitudeMeters>1661.199951171875</AltitudeMeters>
            <DistanceMeters>NAN</DistanceMeters>
          </Trackpoint>
          <Trackpoint>
            <Time>2018-12-30T13:28:57.000Z</Time>
            <Position>
              <LatitudeDegrees>40.7507653534412384033203125</LatitudeDegrees>
              <LongitudeDegrees>-4.09177430905401706695556640625</LongitudeDegrees>
            </Position>
            <AltitudeMeters>1661</AltitudeMeters>
            <DistanceMeters>NAN</DistanceMeters>
          </Trackpoint>
          <Trackpoint>
            <Time>2018-12-30T13:28:58.000Z</Time>
            <Position>
              <LatitudeDegrees>40.7507574744522571563720703125</LatitudeDegrees>
              <LongitudeDegrees>-4.0917755663394927978515625</LongitudeDegrees>
            </Position>
            <AltitudeMeters>1660.5999755859375</AltitudeMeters>
            <DistanceMeters>NAN</DistanceMeters>
          </Trackpoint>
          <Trackpoint>
            <Time>2018-12-30T13:28:59.000Z</Time>
            <Position>
              <LatitudeDegrees>40.750746913254261016845703125</LatitudeDegrees>
              <LongitudeDegrees>-4.091775901615619659423828125</LongitudeDegrees>
            </Position>
            <AltitudeMeters>1660.4000244140625</AltitudeMeters>
            <DistanceMeters>NAN</DistanceMeters>
          </Trackpoint>
          <Trackpoint>
            <Time>2018-12-30T13:29:00.000Z</Time>
            <Position>
              <LatitudeDegrees>40.75073023326694965362548828125</LatitudeDegrees>
              <LongitudeDegrees>-4.09177958965301513671875</LongitudeDegrees>
            </Position>
            <AltitudeMeters>1660.199951171875</AltitudeMeters>
            <DistanceMeters>NAN</DistanceMeters>
          </Trackpoint>
          <Trackpoint>
            <Time>2018-12-30T13:29:01.000Z</Time>
            <Position>
              <LatitudeDegrees>40.75072285719215869903564453125</LatitudeDegrees>
              <LongitudeDegrees>-4.09177397377789020538330078125</LongitudeDegrees>
            </Position>
            <AltitudeMeters>1660</AltitudeMeters>
            <DistanceMeters>NAN</DistanceMeters>
          </Trackpoint>
          <Trackpoint>
            <Time>2018-12-30T13:29:02.000Z</Time>
            <Position>
              <LatitudeDegrees>40.75070969760417938232421875</LatitudeDegrees>
              <LongitudeDegrees>-4.09177145920693874359130859375</LongitudeDegrees>
            </Position>
            <AltitudeMeters>1659.800048828125</AltitudeMeters>
            <DistanceMeters>NAN</DistanceMeters>
          </Trackpoint>
          <Trackpoint>
            <Time>2018-12-30T13:29:03.000Z</Time>
            <Position>
              <LatitudeDegrees>40.7507036626338958740234375</LatitudeDegrees>
              <LongitudeDegrees>-4.091775901615619659423828125</LongitudeDegrees>
            </Position>
            <AltitudeMeters>1659.5999755859375</AltitudeMeters>
            <DistanceMeters>NAN</DistanceMeters>
          </Trackpoint>
          <Trackpoint>
            <Time>2018-12-30T13:29:04.000Z</Time>
            <Position>
              <LatitudeDegrees>40.75071145780384540557861328125</LatitudeDegrees>
              <LongitudeDegrees>-4.09176777116954326629638671875</LongitudeDegrees>
            </Position>
            <AltitudeMeters>1659.4000244140625</AltitudeMeters>
            <DistanceMeters>NAN</DistanceMeters>
          </Trackpoint>
          <Trackpoint>
            <Time>2018-12-30T13:29:05.000Z</Time>
            <Position>
              <LatitudeDegrees>40.75071212835609912872314453125</LatitudeDegrees>
              <LongitudeDegrees>-4.0917609818279743194580078125</LongitudeDegrees>
            </Position>
            <AltitudeMeters>1659.4000244140625</AltitudeMeters>
            <DistanceMeters>NAN</DistanceMeters>
          </Trackpoint>
          <Trackpoint>
            <Time>2018-12-30T13:29:06.000Z</Time>
            <Position>
              <LatitudeDegrees>40.7507021538913249969482421875</LatitudeDegrees>
              <LongitudeDegrees>-4.091771207749843597412109375</LongitudeDegrees>
            </Position>
            <AltitudeMeters>1659.5999755859375</AltitudeMeters>
            <DistanceMeters>NAN</DistanceMeters>
          </Trackpoint>
          <Trackpoint>
            <Time>2018-12-30T13:29:07.000Z</Time>
            <Position>
              <LatitudeDegrees>40.75069586746394634246826171875</LatitudeDegrees>
              <LongitudeDegrees>-4.0917613171041011810302734375</LongitudeDegrees>
            </Position>
            <AltitudeMeters>1659.5999755859375</AltitudeMeters>
            <DistanceMeters>NAN</DistanceMeters>
          </Trackpoint>
          <Trackpoint>
            <Time>2018-12-30T13:29:08.000Z</Time>
            <Position>
              <LatitudeDegrees>40.75069771148264408111572265625</LatitudeDegrees>
              <LongitudeDegrees>-4.09174547530710697174072265625</LongitudeDegrees>
            </Position>
            <AltitudeMeters>1659.800048828125</AltitudeMeters>
            <DistanceMeters>NAN</DistanceMeters>
          </Trackpoint>
          <Trackpoint>
            <Time>2018-12-30T13:29:09.000Z</Time>
            <Position>
              <LatitudeDegrees>40.75069628655910491943359375</LatitudeDegrees>
              <LongitudeDegrees>-4.09173608757555484771728515625</LongitudeDegrees>
            </Position>
            <AltitudeMeters>1660</AltitudeMeters>
            <DistanceMeters>NAN</DistanceMeters>
          </Trackpoint>
          <Trackpoint>
            <Time>2018-12-30T13:29:10.000Z</Time>
            <Position>
              <LatitudeDegrees>40.75071749277412891387939453125</LatitudeDegrees>
              <LongitudeDegrees>-4.09169753082096576690673828125</LongitudeDegrees>
            </Position>
            <AltitudeMeters>1660</AltitudeMeters>
            <DistanceMeters>NAN</DistanceMeters>
          </Trackpoint>
          <Trackpoint>
            <Time>2018-12-30T13:29:11.000Z</Time>
            <Position>
              <LatitudeDegrees>40.75072486884891986846923828125</LatitudeDegrees>
              <LongitudeDegrees>-4.09167590551078319549560546875</LongitudeDegrees>
            </Position>
            <AltitudeMeters>1660.199951171875</AltitudeMeters>
            <DistanceMeters>NAN</DistanceMeters>
          </Trackpoint>
          <Trackpoint>
            <Time>2018-12-30T13:29:12.000Z</Time>
            <Position>
              <LatitudeDegrees>40.75072939507663249969482421875</LatitudeDegrees>
              <LongitudeDegrees>-4.09166567958891391754150390625</LongitudeDegrees>
            </Position>
            <AltitudeMeters>1660</AltitudeMeters>
            <DistanceMeters>NAN</DistanceMeters>
          </Trackpoint>
          <Trackpoint>
            <Time>2018-12-30T13:29:13.000Z</Time>
            <Position>
              <LatitudeDegrees>40.75073023326694965362548828125</LatitudeDegrees>
              <LongitudeDegrees>-4.0916697867214679718017578125</LongitudeDegrees>
            </Position>
            <AltitudeMeters>1660</AltitudeMeters>
            <DistanceMeters>NAN</DistanceMeters>
          </Trackpoint>
          <Trackpoint>
            <Time>2018-12-30T13:29:14.000Z</Time>
            <Position>
              <LatitudeDegrees>40.7507376931607723236083984375</LatitudeDegrees>
              <LongitudeDegrees>-4.09166433848440647125244140625</LongitudeDegrees>
            </Position>
            <AltitudeMeters>1659.5999755859375</AltitudeMeters>
            <DistanceMeters>NAN</DistanceMeters>
          </Trackpoint>
          <Trackpoint>
            <Time>2018-12-30T13:29:15.000Z</Time>
            <Position>
              <LatitudeDegrees>40.75074347667396068572998046875</LatitudeDegrees>
              <LongitudeDegrees>-4.091658554971218109130859375</LongitudeDegrees>
            </Position>
            <AltitudeMeters>1659</AltitudeMeters>
            <DistanceMeters>NAN</DistanceMeters>
          </Trackpoint>
          <Trackpoint>
            <Time>2018-12-30T13:29:16.000Z</Time>
            <Position>
              <LatitudeDegrees>40.7507547922432422637939453125</LatitudeDegrees>
              <LongitudeDegrees>-4.09165679477155208587646484375</LongitudeDegrees>
            </Position>
            <AltitudeMeters>1658.4000244140625</AltitudeMeters>
            <DistanceMeters>NAN</DistanceMeters>
          </Trackpoint>
          <Trackpoint>
            <Time>2018-12-30T13:29:17.000Z</Time>
            <Position>
              <LatitudeDegrees>40.7507638446986675262451171875</LatitudeDegrees>
              <LongitudeDegrees>-4.0916557051241397857666015625</LongitudeDegrees>
            </Position>
            <AltitudeMeters>1658</AltitudeMeters>
            <DistanceMeters>NAN</DistanceMeters>
          </Trackpoint>
          <Trackpoint>
            <Time>2018-12-30T13:29:18.000Z</Time>
            <Position>
              <LatitudeDegrees>40.75077817775309085845947265625</LatitudeDegrees>
              <LongitudeDegrees>-4.09165151417255401611328125</LongitudeDegrees>
            </Position>
            <AltitudeMeters>1657.800048828125</AltitudeMeters>
            <DistanceMeters>NAN</DistanceMeters>
          </Trackpoint>
          <Trackpoint>
            <Time>2018-12-30T13:29:19.000Z</Time>
            <Position>
              <LatitudeDegrees>40.7507910020649433135986328125</LatitudeDegrees>
              <LongitudeDegrees>-4.0916530229151248931884765625</LongitudeDegrees>
            </Position>
            <AltitudeMeters>1657.5999755859375</AltitudeMeters>
            <DistanceMeters>NAN</DistanceMeters>
          </Trackpoint>
          <Trackpoint>
            <Time>2018-12-30T13:29:20.000Z</Time>
            <Position>
              <LatitudeDegrees>40.75080332346260547637939453125</LatitudeDegrees>
              <LongitudeDegrees>-4.0916583873331546783447265625</LongitudeDegrees>
            </Position>
            <AltitudeMeters>1657.5999755859375</AltitudeMeters>
            <DistanceMeters>NAN</DistanceMeters>
          </Trackpoint>
          <Trackpoint>
            <Time>2018-12-30T13:29:21.000Z</Time>
            <Position>
              <LatitudeDegrees>40.75081338174641132354736328125</LatitudeDegrees>
              <LongitudeDegrees>-4.0916567109525203704833984375</LongitudeDegrees>
            </Position>
            <AltitudeMeters>1657.5999755859375</AltitudeMeters>
            <DistanceMeters>NAN</DistanceMeters>
          </Trackpoint>
          <Trackpoint>
            <Time>2018-12-30T13:29:22.000Z</Time>
            <Position>
              <LatitudeDegrees>40.75082503259181976318359375</LatitudeDegrees>
              <LongitudeDegrees>-4.091648496687412261962890625</LongitudeDegrees>
            </Position>
            <AltitudeMeters>1657.5999755859375</AltitudeMeters>
            <DistanceMeters>NAN</DistanceMeters>
          </Trackpoint>
          <Trackpoint>
            <Time>2018-12-30T13:29:23.000Z</Time>
            <Position>
              <LatitudeDegrees>40.750838108360767364501953125</LatitudeDegrees>
              <LongitudeDegrees>-4.09164304845035076141357421875</LongitudeDegrees>
            </Position>
            <AltitudeMeters>1657.5999755859375</AltitudeMeters>
            <DistanceMeters>NAN</DistanceMeters>
          </Trackpoint>
          <Trackpoint>
            <Time>2018-12-30T13:29:24.000Z</Time>
            <Position>
              <LatitudeDegrees>40.75084473006427288055419921875</LatitudeDegrees>
              <LongitudeDegrees>-4.09164078533649444580078125</LongitudeDegrees>
            </Position>
            <AltitudeMeters>1657.4000244140625</AltitudeMeters>
            <DistanceMeters>NAN</DistanceMeters>
          </Trackpoint>
          <Trackpoint>
            <Time>2018-12-30T13:29:25.000Z</Time>
            <Position>
              <LatitudeDegrees>40.750846825540065765380859375</LatitudeDegrees>
              <LongitudeDegrees>-4.09163366071879863739013671875</LongitudeDegrees>
            </Position>
            <AltitudeMeters>1657.4000244140625</AltitudeMeters>
            <DistanceMeters>NAN</DistanceMeters>
          </Trackpoint>
          <Trackpoint>
            <Time>2018-12-30T13:29:26.000Z</Time>
            <Position>
              <LatitudeDegrees>40.7508463226258754730224609375</LatitudeDegrees>
              <LongitudeDegrees>-4.0916347503662109375</LongitudeDegrees>
            </Position>
            <AltitudeMeters>1657.199951171875</AltitudeMeters>
            <DistanceMeters>NAN</DistanceMeters>
          </Trackpoint>
          <Trackpoint>
            <Time>2018-12-30T13:29:27.000Z</Time>
            <Position>
              <LatitudeDegrees>40.75084674172103404998779296875</LatitudeDegrees>
              <LongitudeDegrees>-4.091637432575225830078125</LongitudeDegrees>
            </Position>
            <AltitudeMeters>1656.800048828125</AltitudeMeters>
            <DistanceMeters>NAN</DistanceMeters>
          </Trackpoint>
          <Trackpoint>
            <Time>2018-12-30T13:29:28.000Z</Time>
            <Position>
              <LatitudeDegrees>40.750846825540065765380859375</LatitudeDegrees>
              <LongitudeDegrees>-4.09163676202297210693359375</LongitudeDegrees>
            </Position>
            <AltitudeMeters>1656.4000244140625</AltitudeMeters>
            <DistanceMeters>NAN</DistanceMeters>
          </Trackpoint>
          <Trackpoint>
            <Time>2018-12-30T13:29:29.000Z</Time>
            <Position>
              <LatitudeDegrees>40.75085227377712726593017578125</LatitudeDegrees>
              <LongitudeDegrees>-4.09162871539592742919921875</LongitudeDegrees>
            </Position>
            <AltitudeMeters>1656</AltitudeMeters>
            <DistanceMeters>NAN</DistanceMeters>
          </Trackpoint>
          <Trackpoint>
            <Time>2018-12-30T13:29:30.000Z</Time>
            <Position>
              <LatitudeDegrees>40.7508597336709499359130859375</LatitudeDegrees>
              <LongitudeDegrees>-4.091633073985576629638671875</LongitudeDegrees>
            </Position>
            <AltitudeMeters>1655.800048828125</AltitudeMeters>
            <DistanceMeters>NAN</DistanceMeters>
          </Trackpoint>
          <Trackpoint>
            <Time>2018-12-30T13:29:31.000Z</Time>
            <Position>
              <LatitudeDegrees>40.75086987577378749847412109375</LatitudeDegrees>
              <LongitudeDegrees>-4.091626703739166259765625</LongitudeDegrees>
            </Position>
            <AltitudeMeters>1655.4000244140625</AltitudeMeters>
            <DistanceMeters>NAN</DistanceMeters>
          </Trackpoint>
          <Trackpoint>
            <Time>2018-12-30T13:29:32.000Z</Time>
            <Position>
              <LatitudeDegrees>40.7508832029998302459716796875</LatitudeDegrees>
              <LongitudeDegrees>-4.091625027358531951904296875</LongitudeDegrees>
            </Position>
            <AltitudeMeters>1655.199951171875</AltitudeMeters>
            <DistanceMeters>NAN</DistanceMeters>
          </Trackpoint>
          <Trackpoint>
            <Time>2018-12-30T13:29:33.000Z</Time>
            <Position>
              <LatitudeDegrees>40.75089166872203350067138671875</LatitudeDegrees>
              <LongitudeDegrees>-4.091623686254024505615234375</LongitudeDegrees>
            </Position>
            <AltitudeMeters>1655</AltitudeMeters>
            <DistanceMeters>NAN</DistanceMeters>
          </Trackpoint>
          <Trackpoint>
            <Time>2018-12-30T13:29:34.000Z</Time>
            <Position>
              <LatitudeDegrees>40.7509009726345539093017578125</LatitudeDegrees>
              <LongitudeDegrees>-4.09162041731178760528564453125</LongitudeDegrees>
            </Position>
            <AltitudeMeters>1654.5999755859375</AltitudeMeters>
            <DistanceMeters>NAN</DistanceMeters>
          </Trackpoint>
          <Trackpoint>
            <Time>2018-12-30T13:29:35.000Z</Time>
            <Position>
              <LatitudeDegrees>40.75091622769832611083984375</LatitudeDegrees>
              <LongitudeDegrees>-4.09159921109676361083984375</LongitudeDegrees>
            </Position>
            <AltitudeMeters>1654.4000244140625</AltitudeMeters>
            <DistanceMeters>NAN</DistanceMeters>
          </Trackpoint>
          <Trackpoint>
            <Time>2018-12-30T13:29:36.000Z</Time>
            <Position>
              <LatitudeDegrees>40.75093072839081287384033203125</LatitudeDegrees>
              <LongitudeDegrees>-4.09159116446971893310546875</LongitudeDegrees>
            </Position>
            <AltitudeMeters>1654</AltitudeMeters>
            <DistanceMeters>NAN</DistanceMeters>
          </Trackpoint>
          <Trackpoint>
            <Time>2018-12-30T13:29:37.000Z</Time>
            <Position>
              <LatitudeDegrees>40.7509415410459041595458984375</LatitudeDegrees>
              <LongitudeDegrees>-4.0915904939174652099609375</LongitudeDegrees>
            </Position>
            <AltitudeMeters>1653.800048828125</AltitudeMeters>
            <DistanceMeters>NAN</DistanceMeters>
          </Trackpoint>
          <Trackpoint>
            <Time>2018-12-30T13:29:38.000Z</Time>
            <Position>
              <LatitudeDegrees>40.75095067732036113739013671875</LatitudeDegrees>
              <LongitudeDegrees>-4.09159208647906780242919921875</LongitudeDegrees>
            </Position>
            <AltitudeMeters>1653.5999755859375</AltitudeMeters>
            <DistanceMeters>NAN</DistanceMeters>
          </Trackpoint>
          <Trackpoint>
            <Time>2018-12-30T13:29:39.000Z</Time>
            <Position>
              <LatitudeDegrees>40.7509596459567546844482421875</LatitudeDegrees>
              <LongitudeDegrees>-4.091589152812957763671875</LongitudeDegrees>
            </Position>
            <AltitudeMeters>1653.5999755859375</AltitudeMeters>
            <DistanceMeters>NAN</DistanceMeters>
          </Trackpoint>
          <Trackpoint>
            <Time>2018-12-30T13:29:40.000Z</Time>
            <Position>
              <LatitudeDegrees>40.7509700395166873931884765625</LatitudeDegrees>
              <LongitudeDegrees>-4.09157968126237392425537109375</LongitudeDegrees>
            </Position>
            <AltitudeMeters>1653.4000244140625</AltitudeMeters>
            <DistanceMeters>NAN</DistanceMeters>
          </Trackpoint>
          <Trackpoint>
            <Time>2018-12-30T13:29:41.000Z</Time>
            <Position>
              <LatitudeDegrees>40.75097934342920780181884765625</LatitudeDegrees>
              <LongitudeDegrees>-4.091564677655696868896484375</LongitudeDegrees>
            </Position>
            <AltitudeMeters>1653.4000244140625</AltitudeMeters>
            <DistanceMeters>NAN</DistanceMeters>
          </Trackpoint>
          <Trackpoint>
            <Time>2018-12-30T13:29:42.000Z</Time>
            <Position>
              <LatitudeDegrees>40.7509864680469036102294921875</LatitudeDegrees>
              <LongitudeDegrees>-4.091552607715129852294921875</LongitudeDegrees>
            </Position>
            <AltitudeMeters>1653.199951171875</AltitudeMeters>
            <DistanceMeters>NAN</DistanceMeters>
          </Trackpoint>
          <Trackpoint>
            <Time>2018-12-30T13:29:43.000Z</Time>
            <Position>
              <LatitudeDegrees>40.750993676483631134033203125</LatitudeDegrees>
              <LongitudeDegrees>-4.09154783003032207489013671875</LongitudeDegrees>
            </Position>
            <AltitudeMeters>1653.199951171875</AltitudeMeters>
            <DistanceMeters>NAN</DistanceMeters>
          </Trackpoint>
          <Trackpoint>
            <Time>2018-12-30T13:29:44.000Z</Time>
            <Position>
              <LatitudeDegrees>40.75099107809364795684814453125</LatitudeDegrees>
              <LongitudeDegrees>-4.09152167849242687225341796875</LongitudeDegrees>
            </Position>
            <AltitudeMeters>1653.199951171875</AltitudeMeters>
            <DistanceMeters>NAN</DistanceMeters>
          </Trackpoint>
          <Trackpoint>
            <Time>2018-12-30T13:29:45.000Z</Time>
            <Position>
              <LatitudeDegrees>40.750986970961093902587890625</LatitudeDegrees>
              <LongitudeDegrees>-4.091517738997936248779296875</LongitudeDegrees>
            </Position>
            <AltitudeMeters>1653</AltitudeMeters>
            <DistanceMeters>NAN</DistanceMeters>
          </Trackpoint>
          <Trackpoint>
            <Time>2018-12-30T13:29:46.000Z</Time>
            <Position>
              <LatitudeDegrees>40.750974230468273162841796875</LatitudeDegrees>
              <LongitudeDegrees>-4.091520421206951141357421875</LongitudeDegrees>
            </Position>
            <AltitudeMeters>1652.5999755859375</AltitudeMeters>
            <DistanceMeters>NAN</DistanceMeters>
          </Trackpoint>
          <Trackpoint>
            <Time>2018-12-30T13:29:47.000Z</Time>
            <Position>
              <LatitudeDegrees>40.7509660162031650543212890625</LatitudeDegrees>
              <LongitudeDegrees>-4.0915205888450145721435546875</LongitudeDegrees>
            </Position>
            <AltitudeMeters>1652.4000244140625</AltitudeMeters>
            <DistanceMeters>NAN</DistanceMeters>
          </Trackpoint>
          <Trackpoint>
            <Time>2018-12-30T13:29:48.000Z</Time>
            <Position>
              <LatitudeDegrees>40.7509589754045009613037109375</LatitudeDegrees>
              <LongitudeDegrees>-4.09151740372180938720703125</LongitudeDegrees>
            </Position>
            <AltitudeMeters>1652</AltitudeMeters>
            <DistanceMeters>NAN</DistanceMeters>
          </Trackpoint>
          <Trackpoint>
            <Time>2018-12-30T13:29:49.000Z</Time>
            <Position>
              <LatitudeDegrees>40.75095520354807376861572265625</LatitudeDegrees>
              <LongitudeDegrees>-4.09151078201830387115478515625</LongitudeDegrees>
            </Position>
            <AltitudeMeters>1651.800048828125</AltitudeMeters>
            <DistanceMeters>NAN</DistanceMeters>
          </Trackpoint>
          <Trackpoint>
            <Time>2018-12-30T13:29:50.000Z</Time>
            <Position>
              <LatitudeDegrees>40.7509358413517475128173828125</LatitudeDegrees>
              <LongitudeDegrees>-4.09152603708207607269287109375</LongitudeDegrees>
            </Position>
            <AltitudeMeters>1651.5999755859375</AltitudeMeters>
            <DistanceMeters>NAN</DistanceMeters>
          </Trackpoint>
          <Trackpoint>
            <Time>2018-12-30T13:29:51.000Z</Time>
            <Position>
              <LatitudeDegrees>40.7509301416575908660888671875</LatitudeDegrees>
              <LongitudeDegrees>-4.091521762311458587646484375</LongitudeDegrees>
            </Position>
            <AltitudeMeters>1651.5999755859375</AltitudeMeters>
            <DistanceMeters>NAN</DistanceMeters>
          </Trackpoint>
          <Trackpoint>
            <Time>2018-12-30T13:29:52.000Z</Time>
            <Position>
              <LatitudeDegrees>40.75092804618179798126220703125</LatitudeDegrees>
              <LongitudeDegrees>-4.09152033738791942596435546875</LongitudeDegrees>
            </Position>
            <AltitudeMeters>1651.4000244140625</AltitudeMeters>
            <DistanceMeters>NAN</DistanceMeters>
          </Trackpoint>
          <Trackpoint>
            <Time>2018-12-30T13:29:53.000Z</Time>
            <Position>
              <LatitudeDegrees>40.75092033483088016510009765625</LatitudeDegrees>
              <LongitudeDegrees>-4.09151514060795307159423828125</LongitudeDegrees>
            </Position>
            <AltitudeMeters>1651</AltitudeMeters>
            <DistanceMeters>NAN</DistanceMeters>
          </Trackpoint>
          <Trackpoint>
            <Time>2018-12-30T13:29:54.000Z</Time>
            <Position>
              <LatitudeDegrees>40.75091362930834293365478515625</LatitudeDegrees>
              <LongitudeDegrees>-4.0915112011134624481201171875</LongitudeDegrees>
            </Position>
            <AltitudeMeters>1650.800048828125</AltitudeMeters>
            <DistanceMeters>NAN</DistanceMeters>
          </Trackpoint>
          <Trackpoint>
            <Time>2018-12-30T13:29:55.000Z</Time>
            <Position>
              <LatitudeDegrees>40.75090977363288402557373046875</LatitudeDegrees>
              <LongitudeDegrees>-4.091510362923145294189453125</LongitudeDegrees>
            </Position>
            <AltitudeMeters>1650.5999755859375</AltitudeMeters>
            <DistanceMeters>NAN</DistanceMeters>
          </Trackpoint>
          <Trackpoint>
            <Time>2018-12-30T13:29:56.000Z</Time>
            <Position>
              <LatitudeDegrees>40.75090021826326847076416015625</LatitudeDegrees>
              <LongitudeDegrees>-4.09150592051446437835693359375</LongitudeDegrees>
            </Position>
            <AltitudeMeters>1650.199951171875</AltitudeMeters>
            <DistanceMeters>NAN</DistanceMeters>
          </Trackpoint>
          <Trackpoint>
            <Time>2018-12-30T13:29:57.000Z</Time>
            <Position>
              <LatitudeDegrees>40.75088965706527233123779296875</LatitudeDegrees>
              <LongitudeDegrees>-4.09150022082030773162841796875</LongitudeDegrees>
            </Position>
            <AltitudeMeters>1650</AltitudeMeters>
            <DistanceMeters>NAN</DistanceMeters>
          </Trackpoint>
          <Trackpoint>
            <Time>2018-12-30T13:29:58.000Z</Time>
            <Position>
              <LatitudeDegrees>40.75090206228196620941162109375</LatitudeDegrees>
              <LongitudeDegrees>-4.09150005318224430084228515625</LongitudeDegrees>
            </Position>
            <AltitudeMeters>1650</AltitudeMeters>
            <DistanceMeters>NAN</DistanceMeters>
          </Trackpoint>
          <Trackpoint>
            <Time>2018-12-30T13:29:59.000Z</Time>
            <Position>
              <LatitudeDegrees>40.7508939318358898162841796875</LatitudeDegrees>
              <LongitudeDegrees>-4.0915046632289886474609375</LongitudeDegrees>
            </Position>
            <AltitudeMeters>1650</AltitudeMeters>
            <DistanceMeters>NAN</DistanceMeters>
          </Trackpoint>
          <Trackpoint>
            <Time>2018-12-30T13:30:00.000Z</Time>
            <Position>
              <LatitudeDegrees>40.7508815266191959381103515625</LatitudeDegrees>
              <LongitudeDegrees>-4.09150399267673492431640625</LongitudeDegrees>
            </Position>
            <AltitudeMeters>1649.800048828125</AltitudeMeters>
            <DistanceMeters>NAN</DistanceMeters>
          </Trackpoint>
          <Trackpoint>
            <Time>2018-12-30T13:30:01.000Z</Time>
            <Position>
              <LatitudeDegrees>40.75086920522153377532958984375</LatitudeDegrees>
              <LongitudeDegrees>-4.0915038250386714935302734375</LongitudeDegrees>
            </Position>
            <AltitudeMeters>1649.800048828125</AltitudeMeters>
            <DistanceMeters>NAN</DistanceMeters>
          </Trackpoint>
          <Trackpoint>
            <Time>2018-12-30T13:30:02.000Z</Time>
            <Position>
              <LatitudeDegrees>40.75085453689098358154296875</LatitudeDegrees>
              <LongitudeDegrees>-4.09150055609643459320068359375</LongitudeDegrees>
            </Position>
            <AltitudeMeters>1649.800048828125</AltitudeMeters>
            <DistanceMeters>NAN</DistanceMeters>
          </Trackpoint>
          <Trackpoint>
            <Time>2018-12-30T13:30:03.000Z</Time>
            <Position>
              <LatitudeDegrees>40.7508377730846405029296875</LatitudeDegrees>
              <LongitudeDegrees>-4.0915008075535297393798828125</LongitudeDegrees>
            </Position>
            <AltitudeMeters>1649.800048828125</AltitudeMeters>
            <DistanceMeters>NAN</DistanceMeters>
          </Trackpoint>
          <Trackpoint>
            <Time>2018-12-30T13:30:04.000Z</Time>
            <Position>
              <LatitudeDegrees>40.75082209892570972442626953125</LatitudeDegrees>
              <LongitudeDegrees>-4.09149988554418087005615234375</LongitudeDegrees>
            </Position>
            <AltitudeMeters>1649.5999755859375</AltitudeMeters>
            <DistanceMeters>NAN</DistanceMeters>
          </Trackpoint>
          <Trackpoint>
            <Time>2018-12-30T13:30:05.000Z</Time>
            <Position>
              <LatitudeDegrees>40.75080349110066890716552734375</LatitudeDegrees>
              <LongitudeDegrees>-4.0914961136877536773681640625</LongitudeDegrees>
            </Position>
            <AltitudeMeters>1649.199951171875</AltitudeMeters>
            <DistanceMeters>NAN</DistanceMeters>
          </Trackpoint>
          <Trackpoint>
            <Time>2018-12-30T13:30:06.000Z</Time>
            <Position>
              <LatitudeDegrees>40.7507920078933238983154296875</LatitudeDegrees>
              <LongitudeDegrees>-4.0914805233478546142578125</LongitudeDegrees>
            </Position>
            <AltitudeMeters>1649</AltitudeMeters>
            <DistanceMeters>NAN</DistanceMeters>
          </Trackpoint>
          <Trackpoint>
            <Time>2018-12-30T13:30:07.000Z</Time>
            <Position>
              <LatitudeDegrees>40.7507822848856449127197265625</LatitudeDegrees>
              <LongitudeDegrees>-4.0914776735007762908935546875</LongitudeDegrees>
            </Position>
            <AltitudeMeters>1648.800048828125</AltitudeMeters>
            <DistanceMeters>NAN</DistanceMeters>
          </Trackpoint>
          <Trackpoint>
            <Time>2018-12-30T13:30:08.000Z</Time>
            <Position>
              <LatitudeDegrees>40.7507886551320552825927734375</LatitudeDegrees>
              <LongitudeDegrees>-4.09146401099860668182373046875</LongitudeDegrees>
            </Position>
            <AltitudeMeters>1648.5999755859375</AltitudeMeters>
            <DistanceMeters>NAN</DistanceMeters>
          </Trackpoint>
          <Trackpoint>
            <Time>2018-12-30T13:30:09.000Z</Time>
            <Position>
              <LatitudeDegrees>40.7507948577404022216796875</LatitudeDegrees>
              <LongitudeDegrees>-4.0914563834667205810546875</LongitudeDegrees>
            </Position>
            <AltitudeMeters>1648.5999755859375</AltitudeMeters>
            <DistanceMeters>NAN</DistanceMeters>
          </Trackpoint>
          <Trackpoint>
            <Time>2018-12-30T13:30:10.000Z</Time>
            <Position>
              <LatitudeDegrees>40.75080223381519317626953125</LatitudeDegrees>
              <LongitudeDegrees>-4.09144942648708820343017578125</LongitudeDegrees>
            </Position>
            <AltitudeMeters>1648.4000244140625</AltitudeMeters>
            <DistanceMeters>NAN</DistanceMeters>
          </Trackpoint>
          <Trackpoint>
            <Time>2018-12-30T13:30:11.000Z</Time>
            <Position>
              <LatitudeDegrees>40.750803239643573760986328125</LatitudeDegrees>
              <LongitudeDegrees>-4.09144171513617038726806640625</LongitudeDegrees>
            </Position>
            <AltitudeMeters>1648.4000244140625</AltitudeMeters>
            <DistanceMeters>NAN</DistanceMeters>
          </Trackpoint>
          <Trackpoint>
            <Time>2018-12-30T13:30:12.000Z</Time>
            <Position>
              <LatitudeDegrees>40.75080315582454204559326171875</LatitudeDegrees>
              <LongitudeDegrees>-4.0914394520223140716552734375</LongitudeDegrees>
            </Position>
            <AltitudeMeters>1648.4000244140625</AltitudeMeters>
            <DistanceMeters>NAN</DistanceMeters>
          </Trackpoint>
          <Trackpoint>
            <Time>2018-12-30T13:30:13.000Z</Time>
            <Position>
              <LatitudeDegrees>40.7508097775280475616455078125</LatitudeDegrees>
              <LongitudeDegrees>-4.091441966593265533447265625</LongitudeDegrees>
            </Position>
            <AltitudeMeters>1648.5999755859375</AltitudeMeters>
            <DistanceMeters>NAN</DistanceMeters>
          </Trackpoint>
          <Trackpoint>
            <Time>2018-12-30T13:30:14.000Z</Time>
            <Position>
              <LatitudeDegrees>40.75081430375576019287109375</LatitudeDegrees>
              <LongitudeDegrees>-4.09144657664000988006591796875</LongitudeDegrees>
            </Position>
            <AltitudeMeters>1648.5999755859375</AltitudeMeters>
            <DistanceMeters>NAN</DistanceMeters>
          </Trackpoint>
          <Trackpoint>
            <Time>2018-12-30T13:30:15.000Z</Time>
            <Position>
              <LatitudeDegrees>40.75081706978380680084228515625</LatitudeDegrees>
              <LongitudeDegrees>-4.09145168960094451904296875</LongitudeDegrees>
            </Position>
            <AltitudeMeters>1648.800048828125</AltitudeMeters>
            <DistanceMeters>NAN</DistanceMeters>
          </Trackpoint>
          <Trackpoint>
            <Time>2018-12-30T13:30:16.000Z</Time>
            <Position>
              <LatitudeDegrees>40.75082235038280487060546875</LatitudeDegrees>
              <LongitudeDegrees>-4.0914548747241497039794921875</LongitudeDegrees>
            </Position>
            <AltitudeMeters>1649</AltitudeMeters>
            <DistanceMeters>NAN</DistanceMeters>
          </Trackpoint>
          <Trackpoint>
            <Time>2018-12-30T13:30:17.000Z</Time>
            <Position>
              <LatitudeDegrees>40.75082729570567607879638671875</LatitudeDegrees>
              <LongitudeDegrees>-4.09145831130445003509521484375</LongitudeDegrees>
            </Position>
            <AltitudeMeters>1649</AltitudeMeters>
            <DistanceMeters>NAN</DistanceMeters>
          </Trackpoint>
          <Trackpoint>
            <Time>2018-12-30T13:30:18.000Z</Time>
            <Position>
              <LatitudeDegrees>40.75082369148731231689453125</LatitudeDegrees>
              <LongitudeDegrees>-4.091458059847354888916015625</LongitudeDegrees>
            </Position>
            <AltitudeMeters>1649</AltitudeMeters>
            <DistanceMeters>NAN</DistanceMeters>
          </Trackpoint>
          <Trackpoint>
            <Time>2018-12-30T13:30:19.000Z</Time>
            <Position>
              <LatitudeDegrees>40.7508211769163608551025390625</LatitudeDegrees>
              <LongitudeDegrees>-4.0914523601531982421875</LongitudeDegrees>
            </Position>
            <AltitudeMeters>1648.800048828125</AltitudeMeters>
            <DistanceMeters>NAN</DistanceMeters>
          </Trackpoint>
          <Trackpoint>
            <Time>2018-12-30T13:30:20.000Z</Time>
            <Position>
              <LatitudeDegrees>40.75081698596477508544921875</LatitudeDegrees>
              <LongitudeDegrees>-4.0914454869925975799560546875</LongitudeDegrees>
            </Position>
            <AltitudeMeters>1648.5999755859375</AltitudeMeters>
            <DistanceMeters>NAN</DistanceMeters>
          </Trackpoint>
          <Trackpoint>
            <Time>2018-12-30T13:30:21.000Z</Time>
            <Position>
              <LatitudeDegrees>40.7508087716996669769287109375</LatitudeDegrees>
              <LongitudeDegrees>-4.09143953584134578704833984375</LongitudeDegrees>
            </Position>
            <AltitudeMeters>1648.4000244140625</AltitudeMeters>
            <DistanceMeters>NAN</DistanceMeters>
          </Trackpoint>
          <Trackpoint>
            <Time>2018-12-30T13:30:22.000Z</Time>
            <Position>
              <LatitudeDegrees>40.7508047483861446380615234375</LatitudeDegrees>
              <LongitudeDegrees>-4.09143735654652118682861328125</LongitudeDegrees>
            </Position>
            <AltitudeMeters>1648.199951171875</AltitudeMeters>
            <DistanceMeters>NAN</DistanceMeters>
          </Trackpoint>
          <Trackpoint>
            <Time>2018-12-30T13:30:23.000Z</Time>
            <Position>
              <LatitudeDegrees>40.7508037425577640533447265625</LatitudeDegrees>
              <LongitudeDegrees>-4.09143299795687198638916015625</LongitudeDegrees>
            </Position>
            <AltitudeMeters>1648</AltitudeMeters>
            <DistanceMeters>NAN</DistanceMeters>
          </Trackpoint>
          <Trackpoint>
            <Time>2018-12-30T13:30:24.000Z</Time>
            <Position>
              <LatitudeDegrees>40.75079427100718021392822265625</LatitudeDegrees>
              <LongitudeDegrees>-4.09143450669944286346435546875</LongitudeDegrees>
            </Position>
            <AltitudeMeters>1648</AltitudeMeters>
            <DistanceMeters>NAN</DistanceMeters>
          </Trackpoint>
          <Trackpoint>
            <Time>2018-12-30T13:30:25.000Z</Time>
            <Position>
              <LatitudeDegrees>40.7507889904081821441650390625</LatitudeDegrees>
              <LongitudeDegrees>-4.0914317406713962554931640625</LongitudeDegrees>
            </Position>
            <AltitudeMeters>1647.800048828125</AltitudeMeters>
            <DistanceMeters>NAN</DistanceMeters>
          </Trackpoint>
          <Trackpoint>
            <Time>2018-12-30T13:30:26.000Z</Time>
            <Position>
              <LatitudeDegrees>40.7507822848856449127197265625</LatitudeDegrees>
              <LongitudeDegrees>-4.09143366850912570953369140625</LongitudeDegrees>
            </Position>
            <AltitudeMeters>1647.800048828125</AltitudeMeters>
            <DistanceMeters>NAN</DistanceMeters>
          </Trackpoint>
          <Trackpoint>
            <Time>2018-12-30T13:30:27.000Z</Time>
            <Position>
              <LatitudeDegrees>40.75077951885759830474853515625</LatitudeDegrees>
              <LongitudeDegrees>-4.091433249413967132568359375</LongitudeDegrees>
            </Position>
            <AltitudeMeters>1647.5999755859375</AltitudeMeters>
            <DistanceMeters>NAN</DistanceMeters>
          </Trackpoint>
          <Trackpoint>
            <Time>2018-12-30T13:30:28.000Z</Time>
            <Position>
              <LatitudeDegrees>40.7507678680121898651123046875</LatitudeDegrees>
              <LongitudeDegrees>-4.09143551252782344818115234375</LongitudeDegrees>
            </Position>
            <AltitudeMeters>1647.4000244140625</AltitudeMeters>
            <DistanceMeters>NAN</DistanceMeters>
          </Trackpoint>
          <Trackpoint>
            <Time>2018-12-30T13:30:29.000Z</Time>
            <Position>
              <LatitudeDegrees>40.750762335956096649169921875</LatitudeDegrees>
              <LongitudeDegrees>-4.0914277173578739166259765625</LongitudeDegrees>
            </Position>
            <AltitudeMeters>1647</AltitudeMeters>
            <DistanceMeters>NAN</DistanceMeters>
          </Trackpoint>
          <Trackpoint>
            <Time>2018-12-30T13:30:30.000Z</Time>
            <Position>
              <LatitudeDegrees>40.75075219385325908660888671875</LatitudeDegrees>
              <LongitudeDegrees>-4.09142545424401760101318359375</LongitudeDegrees>
            </Position>
            <AltitudeMeters>1647</AltitudeMeters>
            <DistanceMeters>NAN</DistanceMeters>
          </Trackpoint>
          <Trackpoint>
            <Time>2018-12-30T13:30:31.000Z</Time>
            <Position>
              <LatitudeDegrees>40.7507393695414066314697265625</LatitudeDegrees>
              <LongitudeDegrees>-4.0914161503314971923828125</LongitudeDegrees>
            </Position>
            <AltitudeMeters>1646.800048828125</AltitudeMeters>
            <DistanceMeters>NAN</DistanceMeters>
          </Trackpoint>
          <Trackpoint>
            <Time>2018-12-30T13:30:32.000Z</Time>
            <Position>
              <LatitudeDegrees>40.7507252879440784454345703125</LatitudeDegrees>
              <LongitudeDegrees>-4.0914109535515308380126953125</LongitudeDegrees>
            </Position>
            <AltitudeMeters>1646.5999755859375</AltitudeMeters>
            <DistanceMeters>NAN</DistanceMeters>
          </Trackpoint>
          <Trackpoint>
            <Time>2018-12-30T13:30:33.000Z</Time>
            <Position>
              <LatitudeDegrees>40.75071698985993862152099609375</LatitudeDegrees>
              <LongitudeDegrees>-4.09140969626605510711669921875</LongitudeDegrees>
            </Position>
            <AltitudeMeters>1646.199951171875</AltitudeMeters>
            <DistanceMeters>NAN</DistanceMeters>
          </Trackpoint>
          <Trackpoint>
            <Time>2018-12-30T13:30:34.000Z</Time>
            <Position>
              <LatitudeDegrees>40.7507018186151981353759765625</LatitudeDegrees>
              <LongitudeDegrees>-4.0914161503314971923828125</LongitudeDegrees>
            </Position>
            <AltitudeMeters>1645.800048828125</AltitudeMeters>
            <DistanceMeters>NAN</DistanceMeters>
          </Trackpoint>
          <Trackpoint>
            <Time>2018-12-30T13:30:35.000Z</Time>
            <Position>
              <LatitudeDegrees>40.75068689882755279541015625</LatitudeDegrees>
              <LongitudeDegrees>-4.09141950309276580810546875</LongitudeDegrees>
            </Position>
            <AltitudeMeters>1645.5999755859375</AltitudeMeters>
            <DistanceMeters>NAN</DistanceMeters>
          </Trackpoint>
          <Trackpoint>
            <Time>2018-12-30T13:30:36.000Z</Time>
            <Position>
              <LatitudeDegrees>40.75067440979182720184326171875</LatitudeDegrees>
              <LongitudeDegrees>-4.091422855854034423828125</LongitudeDegrees>
            </Position>
            <AltitudeMeters>1645.4000244140625</AltitudeMeters>
            <DistanceMeters>NAN</DistanceMeters>
          </Trackpoint>
          <Trackpoint>
            <Time>2018-12-30T13:30:37.000Z</Time>
            <Position>
              <LatitudeDegrees>40.7506552152335643768310546875</LatitudeDegrees>
              <LongitudeDegrees>-4.09143953584134578704833984375</LongitudeDegrees>
            </Position>
            <AltitudeMeters>1645.199951171875</AltitudeMeters>
            <DistanceMeters>NAN</DistanceMeters>
          </Trackpoint>
          <Trackpoint>
            <Time>2018-12-30T13:30:38.000Z</Time>
            <Position>
              <LatitudeDegrees>40.75064440257847309112548828125</LatitudeDegrees>
              <LongitudeDegrees>-4.0914414636790752410888671875</LongitudeDegrees>
            </Position>
            <AltitudeMeters>1645</AltitudeMeters>
            <DistanceMeters>NAN</DistanceMeters>
          </Trackpoint>
          <Trackpoint>
            <Time>2018-12-30T13:30:39.000Z</Time>
            <Position>
              <LatitudeDegrees>40.750641636550426483154296875</LatitudeDegrees>
              <LongitudeDegrees>-4.09144632518291473388671875</LongitudeDegrees>
            </Position>
            <AltitudeMeters>1645</AltitudeMeters>
            <DistanceMeters>NAN</DistanceMeters>
          </Trackpoint>
          <Trackpoint>
            <Time>2018-12-30T13:30:40.000Z</Time>
            <Position>
              <LatitudeDegrees>40.75063669122755527496337890625</LatitudeDegrees>
              <LongitudeDegrees>-4.09145210869610309600830078125</LongitudeDegrees>
            </Position>
            <AltitudeMeters>1644.800048828125</AltitudeMeters>
            <DistanceMeters>NAN</DistanceMeters>
          </Trackpoint>
          <Trackpoint>
            <Time>2018-12-30T13:30:41.000Z</Time>
            <Position>
              <LatitudeDegrees>40.750626884400844573974609375</LatitudeDegrees>
              <LongitudeDegrees>-4.091448001563549041748046875</LongitudeDegrees>
            </Position>
            <AltitudeMeters>1644.800048828125</AltitudeMeters>
            <DistanceMeters>NAN</DistanceMeters>
          </Trackpoint>
          <Trackpoint>
            <Time>2018-12-30T13:30:42.000Z</Time>
            <Position>
              <LatitudeDegrees>40.75061875395476818084716796875</LatitudeDegrees>
              <LongitudeDegrees>-4.09144741483032703399658203125</LongitudeDegrees>
            </Position>
            <AltitudeMeters>1644.5999755859375</AltitudeMeters>
            <DistanceMeters>NAN</DistanceMeters>
          </Trackpoint>
          <Trackpoint>
            <Time>2018-12-30T13:30:43.000Z</Time>
            <Position>
              <LatitudeDegrees>40.7506153173744678497314453125</LatitudeDegrees>
              <LongitudeDegrees>-4.09144657664000988006591796875</LongitudeDegrees>
            </Position>
            <AltitudeMeters>1644.199951171875</AltitudeMeters>
            <DistanceMeters>NAN</DistanceMeters>
          </Trackpoint>
          <Trackpoint>
            <Time>2018-12-30T13:30:44.000Z</Time>
            <Position>
              <LatitudeDegrees>40.750614814460277557373046875</LatitudeDegrees>
              <LongitudeDegrees>-4.0914431400597095489501953125</LongitudeDegrees>
            </Position>
            <AltitudeMeters>1643.800048828125</AltitudeMeters>
            <DistanceMeters>NAN</DistanceMeters>
          </Trackpoint>
          <Trackpoint>
            <Time>2018-12-30T13:30:45.000Z</Time>
            <Position>
              <LatitudeDegrees>40.750612802803516387939453125</LatitudeDegrees>
              <LongitudeDegrees>-4.0914402902126312255859375</LongitudeDegrees>
            </Position>
            <AltitudeMeters>1643.5999755859375</AltitudeMeters>
            <DistanceMeters>NAN</DistanceMeters>
          </Trackpoint>
          <Trackpoint>
            <Time>2018-12-30T13:30:46.000Z</Time>
            <Position>
              <LatitudeDegrees>40.7506179995834827423095703125</LatitudeDegrees>
              <LongitudeDegrees>-4.09144573844969272613525390625</LongitudeDegrees>
            </Position>
            <AltitudeMeters>1643.4000244140625</AltitudeMeters>
            <DistanceMeters>NAN</DistanceMeters>
          </Trackpoint>
          <Trackpoint>
            <Time>2018-12-30T13:30:47.000Z</Time>
            <Position>
              <LatitudeDegrees>40.75061406008899211883544921875</LatitudeDegrees>
              <LongitudeDegrees>-4.0914421342313289642333984375</LongitudeDegrees>
            </Position>
            <AltitudeMeters>1643.199951171875</AltitudeMeters>
            <DistanceMeters>NAN</DistanceMeters>
          </Trackpoint>
          <Trackpoint>
            <Time>2018-12-30T13:30:48.000Z</Time>
            <Position>
              <LatitudeDegrees>40.75060735456645488739013671875</LatitudeDegrees>
              <LongitudeDegrees>-4.09144037403166294097900390625</LongitudeDegrees>
            </Position>
            <AltitudeMeters>1643.199951171875</AltitudeMeters>
            <DistanceMeters>NAN</DistanceMeters>
          </Trackpoint>
          <Trackpoint>
            <Time>2018-12-30T13:30:49.000Z</Time>
            <Position>
              <LatitudeDegrees>40.75060249306261539459228515625</LatitudeDegrees>
              <LongitudeDegrees>-4.09143769182264804840087890625</LongitudeDegrees>
            </Position>
            <AltitudeMeters>1643</AltitudeMeters>
            <DistanceMeters>NAN</DistanceMeters>
          </Trackpoint>
          <Trackpoint>
            <Time>2018-12-30T13:30:50.000Z</Time>
            <Position>
              <LatitudeDegrees>40.750596038997173309326171875</LatitudeDegrees>
              <LongitudeDegrees>-4.0914324112236499786376953125</LongitudeDegrees>
            </Position>
            <AltitudeMeters>1642.5999755859375</AltitudeMeters>
            <DistanceMeters>NAN</DistanceMeters>
          </Trackpoint>
          <Trackpoint>
            <Time>2018-12-30T13:30:51.000Z</Time>
            <Position>
              <LatitudeDegrees>40.7505925185978412628173828125</LatitudeDegrees>
              <LongitudeDegrees>-4.09142780117690563201904296875</LongitudeDegrees>
            </Position>
            <AltitudeMeters>1642.4000244140625</AltitudeMeters>
            <DistanceMeters>NAN</DistanceMeters>
          </Trackpoint>
          <Trackpoint>
            <Time>2018-12-30T13:30:52.000Z</Time>
            <Position>
              <LatitudeDegrees>40.750585310161113739013671875</LatitudeDegrees>
              <LongitudeDegrees>-4.091425202786922454833984375</LongitudeDegrees>
            </Position>
            <AltitudeMeters>1642</AltitudeMeters>
            <DistanceMeters>NAN</DistanceMeters>
          </Trackpoint>
          <Trackpoint>
            <Time>2018-12-30T13:30:53.000Z</Time>
            <Position>
              <LatitudeDegrees>40.75057550333440303802490234375</LatitudeDegrees>
              <LongitudeDegrees>-4.0914240293204784393310546875</LongitudeDegrees>
            </Position>
            <AltitudeMeters>1642</AltitudeMeters>
            <DistanceMeters>NAN</DistanceMeters>
          </Trackpoint>
          <Trackpoint>
            <Time>2018-12-30T13:30:54.000Z</Time>
            <Position>
              <LatitudeDegrees>40.75056745670735836029052734375</LatitudeDegrees>
              <LongitudeDegrees>-4.091421179473400115966796875</LongitudeDegrees>
            </Position>
            <AltitudeMeters>1641.800048828125</AltitudeMeters>
            <DistanceMeters>NAN</DistanceMeters>
          </Trackpoint>
          <Trackpoint>
            <Time>2018-12-30T13:30:55.000Z</Time>
            <Position>
              <LatitudeDegrees>40.7505606673657894134521484375</LatitudeDegrees>
              <LongitudeDegrees>-4.09140399657189846038818359375</LongitudeDegrees>
            </Position>
            <AltitudeMeters>1641.4000244140625</AltitudeMeters>
            <DistanceMeters>NAN</DistanceMeters>
          </Trackpoint>
          <Trackpoint>
            <Time>2018-12-30T13:30:56.000Z</Time>
            <Position>
              <LatitudeDegrees>40.75055278837680816650390625</LatitudeDegrees>
              <LongitudeDegrees>-4.0913935191929340362548828125</LongitudeDegrees>
            </Position>
            <AltitudeMeters>1641.199951171875</AltitudeMeters>
            <DistanceMeters>NAN</DistanceMeters>
          </Trackpoint>
          <Trackpoint>
            <Time>2018-12-30T13:30:57.000Z</Time>
            <Position>
              <LatitudeDegrees>40.7505400478839874267578125</LatitudeDegrees>
              <LongitudeDegrees>-4.09138555638492107391357421875</LongitudeDegrees>
            </Position>
            <AltitudeMeters>1641</AltitudeMeters>
            <DistanceMeters>NAN</DistanceMeters>
          </Trackpoint>
          <Trackpoint>
            <Time>2018-12-30T13:30:58.000Z</Time>
            <Position>
              <LatitudeDegrees>40.750535018742084503173828125</LatitudeDegrees>
              <LongitudeDegrees>-4.09137281589210033416748046875</LongitudeDegrees>
            </Position>
            <AltitudeMeters>1640.800048828125</AltitudeMeters>
            <DistanceMeters>NAN</DistanceMeters>
          </Trackpoint>
          <Trackpoint>
            <Time>2018-12-30T13:30:59.000Z</Time>
            <Position>
              <LatitudeDegrees>40.7505239546298980712890625</LatitudeDegrees>
              <LongitudeDegrees>-4.09136854112148284912109375</LongitudeDegrees>
            </Position>
            <AltitudeMeters>1640.5999755859375</AltitudeMeters>
            <DistanceMeters>NAN</DistanceMeters>
          </Trackpoint>
          <Trackpoint>
            <Time>2018-12-30T13:31:00.000Z</Time>
            <Position>
              <LatitudeDegrees>40.750524960458278656005859375</LatitudeDegrees>
              <LongitudeDegrees>-4.09136493690311908721923828125</LongitudeDegrees>
            </Position>
            <AltitudeMeters>1640.5999755859375</AltitudeMeters>
            <DistanceMeters>NAN</DistanceMeters>
          </Trackpoint>
          <Trackpoint>
            <Time>2018-12-30T13:31:01.000Z</Time>
            <Position>
              <LatitudeDegrees>40.75052605010569095611572265625</LatitudeDegrees>
              <LongitudeDegrees>-4.09135806374251842498779296875</LongitudeDegrees>
            </Position>
            <AltitudeMeters>1640.5999755859375</AltitudeMeters>
            <DistanceMeters>NAN</DistanceMeters>
          </Trackpoint>
          <Trackpoint>
            <Time>2018-12-30T13:31:02.000Z</Time>
            <Position>
              <LatitudeDegrees>40.75052839703857898712158203125</LatitudeDegrees>
              <LongitudeDegrees>-4.09134951420128345489501953125</LongitudeDegrees>
            </Position>
            <AltitudeMeters>1640.5999755859375</AltitudeMeters>
            <DistanceMeters>NAN</DistanceMeters>
          </Trackpoint>
          <Trackpoint>
            <Time>2018-12-30T13:31:03.000Z</Time>
            <Position>
              <LatitudeDegrees>40.75053040869534015655517578125</LatitudeDegrees>
              <LongitudeDegrees>-4.0913492627441883087158203125</LongitudeDegrees>
            </Position>
            <AltitudeMeters>1640.5999755859375</AltitudeMeters>
            <DistanceMeters>NAN</DistanceMeters>
          </Trackpoint>
          <Trackpoint>
            <Time>2018-12-30T13:31:04.000Z</Time>
            <Position>
              <LatitudeDegrees>40.75053275562822818756103515625</LatitudeDegrees>
              <LongitudeDegrees>-4.09135554917156696319580078125</LongitudeDegrees>
            </Position>
            <AltitudeMeters>1640.5999755859375</AltitudeMeters>
            <DistanceMeters>NAN</DistanceMeters>
          </Trackpoint>
          <Trackpoint>
            <Time>2018-12-30T13:31:05.000Z</Time>
            <Position>
              <LatitudeDegrees>40.75054214335978031158447265625</LatitudeDegrees>
              <LongitudeDegrees>-4.091352112591266632080078125</LongitudeDegrees>
            </Position>
            <AltitudeMeters>1640.5999755859375</AltitudeMeters>
            <DistanceMeters>NAN</DistanceMeters>
          </Trackpoint>
          <Trackpoint>
            <Time>2018-12-30T13:31:06.000Z</Time>
            <Position>
              <LatitudeDegrees>40.750544406473636627197265625</LatitudeDegrees>
              <LongitudeDegrees>-4.09134800545871257781982421875</LongitudeDegrees>
            </Position>
            <AltitudeMeters>1640.5999755859375</AltitudeMeters>
            <DistanceMeters>NAN</DistanceMeters>
          </Trackpoint>
          <Trackpoint>
            <Time>2018-12-30T13:31:07.000Z</Time>
            <Position>
              <LatitudeDegrees>40.7505556382238864898681640625</LatitudeDegrees>
              <LongitudeDegrees>-4.0913442336022853851318359375</LongitudeDegrees>
            </Position>
            <AltitudeMeters>1640.5999755859375</AltitudeMeters>
            <DistanceMeters>NAN</DistanceMeters>
          </Trackpoint>
          <Trackpoint>
            <Time>2018-12-30T13:31:08.000Z</Time>
            <Position>
              <LatitudeDegrees>40.750570558011531829833984375</LatitudeDegrees>
              <LongitudeDegrees>-4.0913271345198154449462890625</LongitudeDegrees>
            </Position>
            <AltitudeMeters>1640.5999755859375</AltitudeMeters>
            <DistanceMeters>NAN</DistanceMeters>
          </Trackpoint>
          <Trackpoint>
            <Time>2018-12-30T13:31:09.000Z</Time>
            <Position>
              <LatitudeDegrees>40.75058187358081340789794921875</LatitudeDegrees>
              <LongitudeDegrees>-4.09130995161831378936767578125</LongitudeDegrees>
            </Position>
            <AltitudeMeters>1640.5999755859375</AltitudeMeters>
            <DistanceMeters>NAN</DistanceMeters>
          </Trackpoint>
          <Trackpoint>
            <Time>2018-12-30T13:31:10.000Z</Time>
            <Position>
              <LatitudeDegrees>40.75059109367430210113525390625</LatitudeDegrees>
              <LongitudeDegrees>-4.091295115649700164794921875</LongitudeDegrees>
            </Position>
            <AltitudeMeters>1640.5999755859375</AltitudeMeters>
            <DistanceMeters>NAN</DistanceMeters>
          </Trackpoint>
          <Trackpoint>
            <Time>2018-12-30T13:31:11.000Z</Time>
            <Position>
              <LatitudeDegrees>40.7505978830158710479736328125</LatitudeDegrees>
              <LongitudeDegrees>-4.091295786201953887939453125</LongitudeDegrees>
            </Position>
            <AltitudeMeters>1640.5999755859375</AltitudeMeters>
            <DistanceMeters>NAN</DistanceMeters>
          </Trackpoint>
          <Trackpoint>
            <Time>2018-12-30T13:31:12.000Z</Time>
            <Position>
              <LatitudeDegrees>40.75060349889099597930908203125</LatitudeDegrees>
              <LongitudeDegrees>-4.09129117615520954132080078125</LongitudeDegrees>
            </Position>
            <AltitudeMeters>1640.5999755859375</AltitudeMeters>
            <DistanceMeters>NAN</DistanceMeters>
          </Trackpoint>
          <Trackpoint>
            <Time>2018-12-30T13:31:13.000Z</Time>
            <Position>
              <LatitudeDegrees>40.750611126422882080078125</LatitudeDegrees>
              <LongitudeDegrees>-4.0912852250039577484130859375</LongitudeDegrees>
            </Position>
            <AltitudeMeters>1640.5999755859375</AltitudeMeters>
            <DistanceMeters>NAN</DistanceMeters>
          </Trackpoint>
          <Trackpoint>
            <Time>2018-12-30T13:31:14.000Z</Time>
            <Position>
              <LatitudeDegrees>40.750620849430561065673828125</LatitudeDegrees>
              <LongitudeDegrees>-4.09128673374652862548828125</LongitudeDegrees>
            </Position>
            <AltitudeMeters>1640.4000244140625</AltitudeMeters>
            <DistanceMeters>NAN</DistanceMeters>
          </Trackpoint>
          <Trackpoint>
            <Time>2018-12-30T13:31:15.000Z</Time>
            <Position>
              <LatitudeDegrees>40.75062428601086139678955078125</LatitudeDegrees>
              <LongitudeDegrees>-4.09128296189010143280029296875</LongitudeDegrees>
            </Position>
            <AltitudeMeters>1640.4000244140625</AltitudeMeters>
            <DistanceMeters>NAN</DistanceMeters>
          </Trackpoint>
          <Trackpoint>
            <Time>2018-12-30T13:31:16.000Z</Time>
            <Position>
              <LatitudeDegrees>40.7506258785724639892578125</LatitudeDegrees>
              <LongitudeDegrees>-4.09126418642699718475341796875</LongitudeDegrees>
            </Position>
            <AltitudeMeters>1640.4000244140625</AltitudeMeters>
            <DistanceMeters>NAN</DistanceMeters>
          </Trackpoint>
          <Trackpoint>
            <Time>2018-12-30T13:31:17.000Z</Time>
            <Position>
              <LatitudeDegrees>40.750620849430561065673828125</LatitudeDegrees>
              <LongitudeDegrees>-4.09124490804970264434814453125</LongitudeDegrees>
            </Position>
            <AltitudeMeters>1640.4000244140625</AltitudeMeters>
            <DistanceMeters>NAN</DistanceMeters>
          </Trackpoint>
          <Trackpoint>
            <Time>2018-12-30T13:31:18.000Z</Time>
            <Position>
              <LatitudeDegrees>40.75061640702188014984130859375</LatitudeDegrees>
              <LongitudeDegrees>-4.09121875651180744171142578125</LongitudeDegrees>
            </Position>
            <AltitudeMeters>1640.4000244140625</AltitudeMeters>
            <DistanceMeters>NAN</DistanceMeters>
          </Trackpoint>
          <Trackpoint>
            <Time>2018-12-30T13:31:19.000Z</Time>
            <Position>
              <LatitudeDegrees>40.75061523355543613433837890625</LatitudeDegrees>
              <LongitudeDegrees>-4.09120148979127407073974609375</LongitudeDegrees>
            </Position>
            <AltitudeMeters>1640.5999755859375</AltitudeMeters>
            <DistanceMeters>NAN</DistanceMeters>
          </Trackpoint>
          <Trackpoint>
            <Time>2018-12-30T13:31:20.000Z</Time>
            <Position>
              <LatitudeDegrees>40.7506055943667888641357421875</LatitudeDegrees>
              <LongitudeDegrees>-4.09118883311748504638671875</LongitudeDegrees>
            </Position>
            <AltitudeMeters>1640.5999755859375</AltitudeMeters>
            <DistanceMeters>NAN</DistanceMeters>
          </Trackpoint>
          <Trackpoint>
            <Time>2018-12-30T13:31:21.000Z</Time>
            <Position>
              <LatitudeDegrees>40.7506049238145351409912109375</LatitudeDegrees>
              <LongitudeDegrees>-4.091191180050373077392578125</LongitudeDegrees>
            </Position>
            <AltitudeMeters>1640.5999755859375</AltitudeMeters>
            <DistanceMeters>NAN</DistanceMeters>
          </Trackpoint>
          <Trackpoint>
            <Time>2018-12-30T13:31:22.000Z</Time>
            <Position>
              <LatitudeDegrees>40.7505990564823150634765625</LatitudeDegrees>
              <LongitudeDegrees>-4.09119059331715106964111328125</LongitudeDegrees>
            </Position>
            <AltitudeMeters>1640.800048828125</AltitudeMeters>
            <DistanceMeters>NAN</DistanceMeters>
          </Trackpoint>
          <Trackpoint>
            <Time>2018-12-30T13:31:23.000Z</Time>
            <Position>
              <LatitudeDegrees>40.7505931891500949859619140625</LatitudeDegrees>
              <LongitudeDegrees>-4.09118740819394588470458984375</LongitudeDegrees>
            </Position>
            <AltitudeMeters>1640.800048828125</AltitudeMeters>
            <DistanceMeters>NAN</DistanceMeters>
          </Trackpoint>
          <Trackpoint>
            <Time>2018-12-30T13:31:24.000Z</Time>
            <Position>
              <LatitudeDegrees>40.75058841146528720855712890625</LatitudeDegrees>
              <LongitudeDegrees>-4.09118606708943843841552734375</LongitudeDegrees>
            </Position>
            <AltitudeMeters>1640.5999755859375</AltitudeMeters>
            <DistanceMeters>NAN</DistanceMeters>
          </Trackpoint>
          <Trackpoint>
            <Time>2018-12-30T13:31:25.000Z</Time>
            <Position>
              <LatitudeDegrees>40.75057701207697391510009765625</LatitudeDegrees>
              <LongitudeDegrees>-4.09118087030947208404541015625</LongitudeDegrees>
            </Position>
            <AltitudeMeters>1640.4000244140625</AltitudeMeters>
            <DistanceMeters>NAN</DistanceMeters>
          </Trackpoint>
          <Trackpoint>
            <Time>2018-12-30T13:31:26.000Z</Time>
            <Position>
              <LatitudeDegrees>40.75056024827063083648681640625</LatitudeDegrees>
              <LongitudeDegrees>-4.09117986448109149932861328125</LongitudeDegrees>
            </Position>
            <AltitudeMeters>1640.4000244140625</AltitudeMeters>
            <DistanceMeters>NAN</DistanceMeters>
          </Trackpoint>
          <Trackpoint>
            <Time>2018-12-30T13:31:27.000Z</Time>
            <Position>
              <LatitudeDegrees>40.75055354274809360504150390625</LatitudeDegrees>
              <LongitudeDegrees>-4.09117936156690120697021484375</LongitudeDegrees>
            </Position>
            <AltitudeMeters>1640.4000244140625</AltitudeMeters>
            <DistanceMeters>NAN</DistanceMeters>
          </Trackpoint>
          <Trackpoint>
            <Time>2018-12-30T13:31:28.000Z</Time>
            <Position>
              <LatitudeDegrees>40.75054449029266834259033203125</LatitudeDegrees>
              <LongitudeDegrees>-4.0911776013672351837158203125</LongitudeDegrees>
            </Position>
            <AltitudeMeters>1640.4000244140625</AltitudeMeters>
            <DistanceMeters>NAN</DistanceMeters>
          </Trackpoint>
          <Trackpoint>
            <Time>2018-12-30T13:31:29.000Z</Time>
            <Position>
              <LatitudeDegrees>40.75052739121019840240478515625</LatitudeDegrees>
              <LongitudeDegrees>-4.0911765955388545989990234375</LongitudeDegrees>
            </Position>
            <AltitudeMeters>1640.199951171875</AltitudeMeters>
            <DistanceMeters>NAN</DistanceMeters>
          </Trackpoint>
          <Trackpoint>
            <Time>2018-12-30T13:31:30.000Z</Time>
            <Position>
              <LatitudeDegrees>40.7505133934319019317626953125</LatitudeDegrees>
              <LongitudeDegrees>-4.0911715663969516754150390625</LongitudeDegrees>
            </Position>
            <AltitudeMeters>1640.199951171875</AltitudeMeters>
            <DistanceMeters>NAN</DistanceMeters>
          </Trackpoint>
          <Trackpoint>
            <Time>2018-12-30T13:31:31.000Z</Time>
            <Position>
              <LatitudeDegrees>40.75050425715744495391845703125</LatitudeDegrees>
              <LongitudeDegrees>-4.0911698900163173675537109375</LongitudeDegrees>
            </Position>
            <AltitudeMeters>1640.4000244140625</AltitudeMeters>
            <DistanceMeters>NAN</DistanceMeters>
          </Trackpoint>
          <Trackpoint>
            <Time>2018-12-30T13:31:32.000Z</Time>
            <Position>
              <LatitudeDegrees>40.750493109226226806640625</LatitudeDegrees>
              <LongitudeDegrees>-4.09116678871214389801025390625</LongitudeDegrees>
            </Position>
            <AltitudeMeters>1640.4000244140625</AltitudeMeters>
            <DistanceMeters>NAN</DistanceMeters>
          </Trackpoint>
          <Trackpoint>
            <Time>2018-12-30T13:31:33.000Z</Time>
            <Position>
              <LatitudeDegrees>40.75048950500786304473876953125</LatitudeDegrees>
              <LongitudeDegrees>-4.09116335213184356689453125</LongitudeDegrees>
            </Position>
            <AltitudeMeters>1640.199951171875</AltitudeMeters>
            <DistanceMeters>NAN</DistanceMeters>
          </Trackpoint>
          <Trackpoint>
            <Time>2018-12-30T13:31:34.000Z</Time>
            <Position>
              <LatitudeDegrees>40.7504902593791484832763671875</LatitudeDegrees>
              <LongitudeDegrees>-4.0911578200757503509521484375</LongitudeDegrees>
            </Position>
            <AltitudeMeters>1640.199951171875</AltitudeMeters>
            <DistanceMeters>NAN</DistanceMeters>
          </Trackpoint>
          <Trackpoint>
            <Time>2018-12-30T13:31:35.000Z</Time>
            <Position>
              <LatitudeDegrees>40.75047810561954975128173828125</LatitudeDegrees>
              <LongitudeDegrees>-4.09115656279027462005615234375</LongitudeDegrees>
            </Position>
            <AltitudeMeters>1640</AltitudeMeters>
            <DistanceMeters>NAN</DistanceMeters>
          </Trackpoint>
          <Trackpoint>
            <Time>2018-12-30T13:31:36.000Z</Time>
            <Position>
              <LatitudeDegrees>40.7504755072295665740966796875</LatitudeDegrees>
              <LongitudeDegrees>-4.091150946915149688720703125</LongitudeDegrees>
            </Position>
            <AltitudeMeters>1640</AltitudeMeters>
            <DistanceMeters>NAN</DistanceMeters>
          </Trackpoint>
          <Trackpoint>
            <Time>2018-12-30T13:31:37.000Z</Time>
            <Position>
              <LatitudeDegrees>40.7504756748676300048828125</LatitudeDegrees>
              <LongitudeDegrees>-4.09114197827875614166259765625</LongitudeDegrees>
            </Position>
            <AltitudeMeters>1639.5999755859375</AltitudeMeters>
            <DistanceMeters>NAN</DistanceMeters>
          </Trackpoint>
          <Trackpoint>
            <Time>2018-12-30T13:31:38.000Z</Time>
            <Position>
              <LatitudeDegrees>40.7504738308489322662353515625</LatitudeDegrees>
              <LongitudeDegrees>-4.091133512556552886962890625</LongitudeDegrees>
            </Position>
            <AltitudeMeters>1639.199951171875</AltitudeMeters>
            <DistanceMeters>NAN</DistanceMeters>
          </Trackpoint>
          <Trackpoint>
            <Time>2018-12-30T13:31:39.000Z</Time>
            <Position>
              <LatitudeDegrees>40.75047307647764682769775390625</LatitudeDegrees>
              <LongitudeDegrees>-4.09111641347408294677734375</LongitudeDegrees>
            </Position>
            <AltitudeMeters>1639.199951171875</AltitudeMeters>
            <DistanceMeters>NAN</DistanceMeters>
          </Trackpoint>
          <Trackpoint>
            <Time>2018-12-30T13:31:40.000Z</Time>
            <Position>
              <LatitudeDegrees>40.7504667900502681732177734375</LatitudeDegrees>
              <LongitudeDegrees>-4.09110191278159618377685546875</LongitudeDegrees>
            </Position>
            <AltitudeMeters>1639</AltitudeMeters>
            <DistanceMeters>NAN</DistanceMeters>
          </Trackpoint>
          <Trackpoint>
            <Time>2018-12-30T13:31:41.000Z</Time>
            <Position>
              <LatitudeDegrees>40.75046201236546039581298828125</LatitudeDegrees>
              <LongitudeDegrees>-4.0910907648503780364990234375</LongitudeDegrees>
            </Position>
            <AltitudeMeters>1639</AltitudeMeters>
            <DistanceMeters>NAN</DistanceMeters>
          </Trackpoint>
          <Trackpoint>
            <Time>2018-12-30T13:31:42.000Z</Time>
            <Position>
              <LatitudeDegrees>40.75045916251838207244873046875</LatitudeDegrees>
              <LongitudeDegrees>-4.09108749590814113616943359375</LongitudeDegrees>
            </Position>
            <AltitudeMeters>1638.800048828125</AltitudeMeters>
            <DistanceMeters>NAN</DistanceMeters>
          </Trackpoint>
          <Trackpoint>
            <Time>2018-12-30T13:31:43.000Z</Time>
            <Position>
              <LatitudeDegrees>40.75046083889901638031005859375</LatitudeDegrees>
              <LongitudeDegrees>-4.091083221137523651123046875</LongitudeDegrees>
            </Position>
            <AltitudeMeters>1638.5999755859375</AltitudeMeters>
            <DistanceMeters>NAN</DistanceMeters>
          </Trackpoint>
          <Trackpoint>
            <Time>2018-12-30T13:31:44.000Z</Time>
            <Position>
              <LatitudeDegrees>40.7504647783935070037841796875</LatitudeDegrees>
              <LongitudeDegrees>-4.0910743363201618194580078125</LongitudeDegrees>
            </Position>
            <AltitudeMeters>1638.4000244140625</AltitudeMeters>
            <DistanceMeters>NAN</DistanceMeters>
          </Trackpoint>
          <Trackpoint>
            <Time>2018-12-30T13:31:45.000Z</Time>
            <Position>
              <LatitudeDegrees>40.750475339591503143310546875</LatitudeDegrees>
              <LongitudeDegrees>-4.09108028747141361236572265625</LongitudeDegrees>
            </Position>
            <AltitudeMeters>1638</AltitudeMeters>
            <DistanceMeters>NAN</DistanceMeters>
          </Trackpoint>
          <Trackpoint>
            <Time>2018-12-30T13:31:46.000Z</Time>
            <Position>
              <LatitudeDegrees>40.75048246420919895172119140625</LatitudeDegrees>
              <LongitudeDegrees>-4.09108020365238189697265625</LongitudeDegrees>
            </Position>
            <AltitudeMeters>1637.800048828125</AltitudeMeters>
            <DistanceMeters>NAN</DistanceMeters>
          </Trackpoint>
          <Trackpoint>
            <Time>2018-12-30T13:31:47.000Z</Time>
            <Position>
              <LatitudeDegrees>40.750488750636577606201171875</LatitudeDegrees>
              <LongitudeDegrees>-4.09108154475688934326171875</LongitudeDegrees>
            </Position>
            <AltitudeMeters>1637.5999755859375</AltitudeMeters>
            <DistanceMeters>NAN</DistanceMeters>
          </Trackpoint>
          <Trackpoint>
            <Time>2018-12-30T13:31:48.000Z</Time>
            <Position>
              <LatitudeDegrees>40.75049319304525852203369140625</LatitudeDegrees>
              <LongitudeDegrees>-4.0910753421485424041748046875</LongitudeDegrees>
            </Position>
            <AltitudeMeters>1637.4000244140625</AltitudeMeters>
            <DistanceMeters>NAN</DistanceMeters>
          </Trackpoint>
          <Trackpoint>
            <Time>2018-12-30T13:31:49.000Z</Time>
            <Position>
              <LatitudeDegrees>40.750489421188831329345703125</LatitudeDegrees>
              <LongitudeDegrees>-4.09107374958693981170654296875</LongitudeDegrees>
            </Position>
            <AltitudeMeters>1637</AltitudeMeters>
            <DistanceMeters>NAN</DistanceMeters>
          </Trackpoint>
          <Trackpoint>
            <Time>2018-12-30T13:31:50.000Z</Time>
            <Position>
              <LatitudeDegrees>40.750488080084323883056640625</LatitudeDegrees>
              <LongitudeDegrees>-4.09106151200830936431884765625</LongitudeDegrees>
            </Position>
            <AltitudeMeters>1636.800048828125</AltitudeMeters>
            <DistanceMeters>NAN</DistanceMeters>
          </Trackpoint>
          <Trackpoint>
            <Time>2018-12-30T13:31:51.000Z</Time>
            <Position>
              <LatitudeDegrees>40.750482715666294097900390625</LatitudeDegrees>
              <LongitudeDegrees>-4.091053046286106109619140625</LongitudeDegrees>
            </Position>
            <AltitudeMeters>1636.5999755859375</AltitudeMeters>
            <DistanceMeters>NAN</DistanceMeters>
          </Trackpoint>
          <Trackpoint>
            <Time>2018-12-30T13:31:52.000Z</Time>
            <Position>
              <LatitudeDegrees>40.750475339591503143310546875</LatitudeDegrees>
              <LongitudeDegrees>-4.09104776568710803985595703125</LongitudeDegrees>
            </Position>
            <AltitudeMeters>1636.4000244140625</AltitudeMeters>
            <DistanceMeters>NAN</DistanceMeters>
          </Trackpoint>
          <Trackpoint>
            <Time>2018-12-30T13:31:53.000Z</Time>
            <Position>
              <LatitudeDegrees>40.75046787969768047332763671875</LatitudeDegrees>
              <LongitudeDegrees>-4.09104424528777599334716796875</LongitudeDegrees>
            </Position>
            <AltitudeMeters>1636.199951171875</AltitudeMeters>
            <DistanceMeters>NAN</DistanceMeters>
          </Trackpoint>
          <Trackpoint>
            <Time>2018-12-30T13:31:54.000Z</Time>
            <Position>
              <LatitudeDegrees>40.75046553276479244232177734375</LatitudeDegrees>
              <LongitudeDegrees>-4.09103871323168277740478515625</LongitudeDegrees>
            </Position>
            <AltitudeMeters>1635.800048828125</AltitudeMeters>
            <DistanceMeters>NAN</DistanceMeters>
          </Trackpoint>
          <Trackpoint>
            <Time>2018-12-30T13:31:55.000Z</Time>
            <Position>
              <LatitudeDegrees>40.75044952332973480224609375</LatitudeDegrees>
              <LongitudeDegrees>-4.09103770740330219268798828125</LongitudeDegrees>
            </Position>
            <AltitudeMeters>1635.4000244140625</AltitudeMeters>
            <DistanceMeters>NAN</DistanceMeters>
          </Trackpoint>
          <Trackpoint>
            <Time>2018-12-30T13:31:56.000Z</Time>
            <Position>
              <LatitudeDegrees>40.75045212171971797943115234375</LatitudeDegrees>
              <LongitudeDegrees>-4.09103100188076496124267578125</LongitudeDegrees>
            </Position>
            <AltitudeMeters>1635.199951171875</AltitudeMeters>
            <DistanceMeters>NAN</DistanceMeters>
          </Trackpoint>
          <Trackpoint>
            <Time>2018-12-30T13:31:57.000Z</Time>
            <Position>
              <LatitudeDegrees>40.75045086443424224853515625</LatitudeDegrees>
              <LongitudeDegrees>-4.091033600270748138427734375</LongitudeDegrees>
            </Position>
            <AltitudeMeters>1635.199951171875</AltitudeMeters>
            <DistanceMeters>NAN</DistanceMeters>
          </Trackpoint>
          <Trackpoint>
            <Time>2018-12-30T13:31:58.000Z</Time>
            <Position>
              <LatitudeDegrees>40.75044960714876651763916015625</LatitudeDegrees>
              <LongitudeDegrees>-4.091033600270748138427734375</LongitudeDegrees>
            </Position>
            <AltitudeMeters>1635</AltitudeMeters>
            <DistanceMeters>NAN</DistanceMeters>
          </Trackpoint>
          <Trackpoint>
            <Time>2018-12-30T13:31:59.000Z</Time>
            <Position>
              <LatitudeDegrees>40.750447176396846771240234375</LatitudeDegrees>
              <LongitudeDegrees>-4.09103435464203357696533203125</LongitudeDegrees>
            </Position>
            <AltitudeMeters>1634.800048828125</AltitudeMeters>
            <DistanceMeters>NAN</DistanceMeters>
          </Trackpoint>
          <Trackpoint>
            <Time>2018-12-30T13:32:00.000Z</Time>
            <Position>
              <LatitudeDegrees>40.7504443265497684478759765625</LatitudeDegrees>
              <LongitudeDegrees>-4.0910387970507144927978515625</LongitudeDegrees>
            </Position>
            <AltitudeMeters>1634.800048828125</AltitudeMeters>
            <DistanceMeters>NAN</DistanceMeters>
          </Trackpoint>
          <Trackpoint>
            <Time>2018-12-30T13:32:01.000Z</Time>
            <Position>
              <LatitudeDegrees>40.750451199710369110107421875</LatitudeDegrees>
              <LongitudeDegrees>-4.0910491906106472015380859375</LongitudeDegrees>
            </Position>
            <AltitudeMeters>1634.800048828125</AltitudeMeters>
            <DistanceMeters>NAN</DistanceMeters>
          </Trackpoint>
          <Trackpoint>
            <Time>2018-12-30T13:32:02.000Z</Time>
            <Position>
              <LatitudeDegrees>40.75045648030936717987060546875</LatitudeDegrees>
              <LongitudeDegrees>-4.09106117673218250274658203125</LongitudeDegrees>
            </Position>
            <AltitudeMeters>1634.5999755859375</AltitudeMeters>
            <DistanceMeters>NAN</DistanceMeters>
          </Trackpoint>
          <Trackpoint>
            <Time>2018-12-30T13:32:03.000Z</Time>
            <Position>
              <LatitudeDegrees>40.75046469457447528839111328125</LatitudeDegrees>
              <LongitudeDegrees>-4.09106955863535404205322265625</LongitudeDegrees>
            </Position>
            <AltitudeMeters>1634.5999755859375</AltitudeMeters>
            <DistanceMeters>NAN</DistanceMeters>
          </Trackpoint>
          <Trackpoint>
            <Time>2018-12-30T13:32:04.000Z</Time>
            <Position>
              <LatitudeDegrees>40.75047106482088565826416015625</LatitudeDegrees>
              <LongitudeDegrees>-4.0910713188350200653076171875</LongitudeDegrees>
            </Position>
            <AltitudeMeters>1634.4000244140625</AltitudeMeters>
            <DistanceMeters>NAN</DistanceMeters>
          </Trackpoint>
          <Trackpoint>
            <Time>2018-12-30T13:32:05.000Z</Time>
            <Position>
              <LatitudeDegrees>40.75047793798148632049560546875</LatitudeDegrees>
              <LongitudeDegrees>-4.0910709835588932037353515625</LongitudeDegrees>
            </Position>
            <AltitudeMeters>1634.4000244140625</AltitudeMeters>
            <DistanceMeters>NAN</DistanceMeters>
          </Trackpoint>
          <Trackpoint>
            <Time>2018-12-30T13:32:06.000Z</Time>
            <Position>
              <LatitudeDegrees>40.75048263184726238250732421875</LatitudeDegrees>
              <LongitudeDegrees>-4.09107844345271587371826171875</LongitudeDegrees>
            </Position>
            <AltitudeMeters>1634.199951171875</AltitudeMeters>
            <DistanceMeters>NAN</DistanceMeters>
          </Trackpoint>
          <Trackpoint>
            <Time>2018-12-30T13:32:07.000Z</Time>
            <Position>
              <LatitudeDegrees>40.75047844089567661285400390625</LatitudeDegrees>
              <LongitudeDegrees>-4.09105078317224979400634765625</LongitudeDegrees>
            </Position>
            <AltitudeMeters>1634.199951171875</AltitudeMeters>
            <DistanceMeters>NAN</DistanceMeters>
          </Trackpoint>
          <Trackpoint>
            <Time>2018-12-30T13:32:08.000Z</Time>
            <Position>
              <LatitudeDegrees>40.75048011727631092071533203125</LatitudeDegrees>
              <LongitudeDegrees>-4.09104240126907825469970703125</LongitudeDegrees>
            </Position>
            <AltitudeMeters>1634.199951171875</AltitudeMeters>
            <DistanceMeters>NAN</DistanceMeters>
          </Trackpoint>
          <Trackpoint>
            <Time>2018-12-30T13:32:09.000Z</Time>
            <Position>
              <LatitudeDegrees>40.7504875771701335906982421875</LatitudeDegrees>
              <LongitudeDegrees>-4.09102798439562320709228515625</LongitudeDegrees>
            </Position>
            <AltitudeMeters>1634.199951171875</AltitudeMeters>
            <DistanceMeters>NAN</DistanceMeters>
          </Trackpoint>
          <Trackpoint>
            <Time>2018-12-30T13:32:10.000Z</Time>
            <Position>
              <LatitudeDegrees>40.7504983060061931610107421875</LatitudeDegrees>
              <LongitudeDegrees>-4.09102857112884521484375</LongitudeDegrees>
            </Position>
            <AltitudeMeters>1634.199951171875</AltitudeMeters>
            <DistanceMeters>NAN</DistanceMeters>
          </Trackpoint>
          <Trackpoint>
            <Time>2018-12-30T13:32:11.000Z</Time>
            <Position>
              <LatitudeDegrees>40.7505060173571109771728515625</LatitudeDegrees>
              <LongitudeDegrees>-4.09101792611181735992431640625</LongitudeDegrees>
            </Position>
            <AltitudeMeters>1634</AltitudeMeters>
            <DistanceMeters>NAN</DistanceMeters>
          </Trackpoint>
          <Trackpoint>
            <Time>2018-12-30T13:32:12.000Z</Time>
            <Position>
              <LatitudeDegrees>40.7505154050886631011962890625</LatitudeDegrees>
              <LongitudeDegrees>-4.091015495359897613525390625</LongitudeDegrees>
            </Position>
            <AltitudeMeters>1633.5999755859375</AltitudeMeters>
            <DistanceMeters>NAN</DistanceMeters>
          </Trackpoint>
          <Trackpoint>
            <Time>2018-12-30T13:32:13.000Z</Time>
            <Position>
              <LatitudeDegrees>40.75052286498248577117919921875</LatitudeDegrees>
              <LongitudeDegrees>-4.0910119749605655670166015625</LongitudeDegrees>
            </Position>
            <AltitudeMeters>1633.4000244140625</AltitudeMeters>
            <DistanceMeters>NAN</DistanceMeters>
          </Trackpoint>
          <Trackpoint>
            <Time>2018-12-30T13:32:14.000Z</Time>
            <Position>
              <LatitudeDegrees>40.75052973814308643341064453125</LatitudeDegrees>
              <LongitudeDegrees>-4.091003425419330596923828125</LongitudeDegrees>
            </Position>
            <AltitudeMeters>1633.199951171875</AltitudeMeters>
            <DistanceMeters>NAN</DistanceMeters>
          </Trackpoint>
          <Trackpoint>
            <Time>2018-12-30T13:32:15.000Z</Time>
            <Position>
              <LatitudeDegrees>40.7505351863801479339599609375</LatitudeDegrees>
              <LongitudeDegrees>-4.0909895114600658416748046875</LongitudeDegrees>
            </Position>
            <AltitudeMeters>1632.800048828125</AltitudeMeters>
            <DistanceMeters>NAN</DistanceMeters>
          </Trackpoint>
          <Trackpoint>
            <Time>2018-12-30T13:32:16.000Z</Time>
            <Position>
              <LatitudeDegrees>40.75053803622722625732421875</LatitudeDegrees>
              <LongitudeDegrees>-4.090979285538196563720703125</LongitudeDegrees>
            </Position>
            <AltitudeMeters>1632.800048828125</AltitudeMeters>
            <DistanceMeters>NAN</DistanceMeters>
          </Trackpoint>
          <Trackpoint>
            <Time>2018-12-30T13:32:17.000Z</Time>
            <Position>
              <LatitudeDegrees>40.7505405507981777191162109375</LatitudeDegrees>
              <LongitudeDegrees>-4.090964533388614654541015625</LongitudeDegrees>
            </Position>
            <AltitudeMeters>1632.800048828125</AltitudeMeters>
            <DistanceMeters>NAN</DistanceMeters>
          </Trackpoint>
          <Trackpoint>
            <Time>2018-12-30T13:32:18.000Z</Time>
            <Position>
              <LatitudeDegrees>40.7505462504923343658447265625</LatitudeDegrees>
              <LongitudeDegrees>-4.090957827866077423095703125</LongitudeDegrees>
            </Position>
            <AltitudeMeters>1632.800048828125</AltitudeMeters>
            <DistanceMeters>NAN</DistanceMeters>
          </Trackpoint>
          <Trackpoint>
            <Time>2018-12-30T13:32:19.000Z</Time>
            <Position>
              <LatitudeDegrees>40.7505479268729686737060546875</LatitudeDegrees>
              <LongitudeDegrees>-4.0909506194293498992919921875</LongitudeDegrees>
            </Position>
            <AltitudeMeters>1632.5999755859375</AltitudeMeters>
            <DistanceMeters>NAN</DistanceMeters>
          </Trackpoint>
          <Trackpoint>
            <Time>2018-12-30T13:32:20.000Z</Time>
            <Position>
              <LatitudeDegrees>40.7505519501864910125732421875</LatitudeDegrees>
              <LongitudeDegrees>-4.0909387171268463134765625</LongitudeDegrees>
            </Position>
            <AltitudeMeters>1632.5999755859375</AltitudeMeters>
            <DistanceMeters>NAN</DistanceMeters>
          </Trackpoint>
          <Trackpoint>
            <Time>2018-12-30T13:32:21.000Z</Time>
            <Position>
              <LatitudeDegrees>40.75055639259517192840576171875</LatitudeDegrees>
              <LongitudeDegrees>-4.090916253626346588134765625</LongitudeDegrees>
            </Position>
            <AltitudeMeters>1632.4000244140625</AltitudeMeters>
            <DistanceMeters>NAN</DistanceMeters>
          </Trackpoint>
          <Trackpoint>
            <Time>2018-12-30T13:32:22.000Z</Time>
            <Position>
              <LatitudeDegrees>40.750561170279979705810546875</LatitudeDegrees>
              <LongitudeDegrees>-4.09090225584805011749267578125</LongitudeDegrees>
            </Position>
            <AltitudeMeters>1632.199951171875</AltitudeMeters>
            <DistanceMeters>NAN</DistanceMeters>
          </Trackpoint>
          <Trackpoint>
            <Time>2018-12-30T13:32:23.000Z</Time>
            <Position>
              <LatitudeDegrees>40.75056494213640689849853515625</LatitudeDegrees>
              <LongitudeDegrees>-4.0908926166594028472900390625</LongitudeDegrees>
            </Position>
            <AltitudeMeters>1632</AltitudeMeters>
            <DistanceMeters>NAN</DistanceMeters>
          </Trackpoint>
          <Trackpoint>
            <Time>2018-12-30T13:32:24.000Z</Time>
            <Position>
              <LatitudeDegrees>40.750560499727725982666015625</LatitudeDegrees>
              <LongitudeDegrees>-4.0908751823008060455322265625</LongitudeDegrees>
            </Position>
            <AltitudeMeters>1631.800048828125</AltitudeMeters>
            <DistanceMeters>NAN</DistanceMeters>
          </Trackpoint>
          <Trackpoint>
            <Time>2018-12-30T13:32:25.000Z</Time>
            <Position>
              <LatitudeDegrees>40.750555135309696197509765625</LatitudeDegrees>
              <LongitudeDegrees>-4.09085934050381183624267578125</LongitudeDegrees>
            </Position>
            <AltitudeMeters>1631.5999755859375</AltitudeMeters>
            <DistanceMeters>NAN</DistanceMeters>
          </Trackpoint>
          <Trackpoint>
            <Time>2018-12-30T13:32:26.000Z</Time>
            <Position>
              <LatitudeDegrees>40.750548429787158966064453125</LatitudeDegrees>
              <LongitudeDegrees>-4.09085347317159175872802734375</LongitudeDegrees>
            </Position>
            <AltitudeMeters>1631.4000244140625</AltitudeMeters>
            <DistanceMeters>NAN</DistanceMeters>
          </Trackpoint>
          <Trackpoint>
            <Time>2018-12-30T13:32:27.000Z</Time>
            <Position>
              <LatitudeDegrees>40.75054080225527286529541015625</LatitudeDegrees>
              <LongitudeDegrees>-4.09085364080965518951416015625</LongitudeDegrees>
            </Position>
            <AltitudeMeters>1631.4000244140625</AltitudeMeters>
            <DistanceMeters>NAN</DistanceMeters>
          </Trackpoint>
          <Trackpoint>
            <Time>2018-12-30T13:32:28.000Z</Time>
            <Position>
              <LatitudeDegrees>40.75052739121019840240478515625</LatitudeDegrees>
              <LongitudeDegrees>-4.09086219035089015960693359375</LongitudeDegrees>
            </Position>
            <AltitudeMeters>1631.4000244140625</AltitudeMeters>
            <DistanceMeters>NAN</DistanceMeters>
          </Trackpoint>
          <Trackpoint>
            <Time>2018-12-30T13:32:29.000Z</Time>
            <Position>
              <LatitudeDegrees>40.75052060186862945556640625</LatitudeDegrees>
              <LongitudeDegrees>-4.09086621366441249847412109375</LongitudeDegrees>
            </Position>
            <AltitudeMeters>1631.4000244140625</AltitudeMeters>
            <DistanceMeters>NAN</DistanceMeters>
          </Trackpoint>
          <Trackpoint>
            <Time>2018-12-30T13:32:30.000Z</Time>
            <Position>
              <LatitudeDegrees>40.75051657855510711669921875</LatitudeDegrees>
              <LongitudeDegrees>-4.09087291918694972991943359375</LongitudeDegrees>
            </Position>
            <AltitudeMeters>1631.199951171875</AltitudeMeters>
            <DistanceMeters>NAN</DistanceMeters>
          </Trackpoint>
          <Trackpoint>
            <Time>2018-12-30T13:32:31.000Z</Time>
            <Position>
              <LatitudeDegrees>40.75051917694509029388427734375</LatitudeDegrees>
              <LongitudeDegrees>-4.09087560139596462249755859375</LongitudeDegrees>
            </Position>
            <AltitudeMeters>1631</AltitudeMeters>
            <DistanceMeters>NAN</DistanceMeters>
          </Trackpoint>
          <Trackpoint>
            <Time>2018-12-30T13:32:32.000Z</Time>
            <Position>
              <LatitudeDegrees>40.7505113817751407623291015625</LatitudeDegrees>
              <LongitudeDegrees>-4.09088565967977046966552734375</LongitudeDegrees>
            </Position>
            <AltitudeMeters>1630.800048828125</AltitudeMeters>
            <DistanceMeters>NAN</DistanceMeters>
          </Trackpoint>
          <Trackpoint>
            <Time>2018-12-30T13:32:33.000Z</Time>
            <Position>
              <LatitudeDegrees>40.7505105435848236083984375</LatitudeDegrees>
              <LongitudeDegrees>-4.0908862464129924774169921875</LongitudeDegrees>
            </Position>
            <AltitudeMeters>1630.5999755859375</AltitudeMeters>
            <DistanceMeters>NAN</DistanceMeters>
          </Trackpoint>
          <Trackpoint>
            <Time>2018-12-30T13:32:34.000Z</Time>
            <Position>
              <LatitudeDegrees>40.75050895102322101593017578125</LatitudeDegrees>
              <LongitudeDegrees>-4.09088574349880218505859375</LongitudeDegrees>
            </Position>
            <AltitudeMeters>1630.199951171875</AltitudeMeters>
            <DistanceMeters>NAN</DistanceMeters>
          </Trackpoint>
          <Trackpoint>
            <Time>2018-12-30T13:32:35.000Z</Time>
            <Position>
              <LatitudeDegrees>40.75051045976579189300537109375</LatitudeDegrees>
              <LongitudeDegrees>-4.09089504741132259368896484375</LongitudeDegrees>
            </Position>
            <AltitudeMeters>1630</AltitudeMeters>
            <DistanceMeters>NAN</DistanceMeters>
          </Trackpoint>
          <Trackpoint>
            <Time>2018-12-30T13:32:36.000Z</Time>
            <Position>
              <LatitudeDegrees>40.7505170814692974090576171875</LatitudeDegrees>
              <LongitudeDegrees>-4.09089982509613037109375</LongitudeDegrees>
            </Position>
            <AltitudeMeters>1630</AltitudeMeters>
            <DistanceMeters>NAN</DistanceMeters>
          </Trackpoint>
          <Trackpoint>
            <Time>2018-12-30T13:32:37.000Z</Time>
            <Position>
              <LatitudeDegrees>40.7505190931260585784912109375</LatitudeDegrees>
              <LongitudeDegrees>-4.0909013338387012481689453125</LongitudeDegrees>
            </Position>
            <AltitudeMeters>1630</AltitudeMeters>
            <DistanceMeters>NAN</DistanceMeters>
          </Trackpoint>
          <Trackpoint>
            <Time>2018-12-30T13:32:38.000Z</Time>
            <Position>
              <LatitudeDegrees>40.7505212724208831787109375</LatitudeDegrees>
              <LongitudeDegrees>-4.09090292640030384063720703125</LongitudeDegrees>
            </Position>
            <AltitudeMeters>1630</AltitudeMeters>
            <DistanceMeters>NAN</DistanceMeters>
          </Trackpoint>
          <Trackpoint>
            <Time>2018-12-30T13:32:39.000Z</Time>
            <Position>
              <LatitudeDegrees>40.75052454136312007904052734375</LatitudeDegrees>
              <LongitudeDegrees>-4.09090175293385982513427734375</LongitudeDegrees>
            </Position>
            <AltitudeMeters>1630</AltitudeMeters>
            <DistanceMeters>NAN</DistanceMeters>
          </Trackpoint>
          <Trackpoint>
            <Time>2018-12-30T13:32:40.000Z</Time>
            <Position>
              <LatitudeDegrees>40.75052940286695957183837890625</LatitudeDegrees>
              <LongitudeDegrees>-4.09090091474354267120361328125</LongitudeDegrees>
            </Position>
            <AltitudeMeters>1630</AltitudeMeters>
            <DistanceMeters>NAN</DistanceMeters>
          </Trackpoint>
          <Trackpoint>
            <Time>2018-12-30T13:32:41.000Z</Time>
            <Position>
              <LatitudeDegrees>40.75054130516946315765380859375</LatitudeDegrees>
              <LongitudeDegrees>-4.09090309403836727142333984375</LongitudeDegrees>
            </Position>
            <AltitudeMeters>1630</AltitudeMeters>
            <DistanceMeters>NAN</DistanceMeters>
          </Trackpoint>
          <Trackpoint>
            <Time>2018-12-30T13:32:42.000Z</Time>
            <Position>
              <LatitudeDegrees>40.750541724264621734619140625</LatitudeDegrees>
              <LongitudeDegrees>-4.0908999927341938018798828125</LongitudeDegrees>
            </Position>
            <AltitudeMeters>1630</AltitudeMeters>
            <DistanceMeters>NAN</DistanceMeters>
          </Trackpoint>
          <Trackpoint>
            <Time>2018-12-30T13:32:43.000Z</Time>
            <Position>
              <LatitudeDegrees>40.750537030398845672607421875</LatitudeDegrees>
              <LongitudeDegrees>-4.090890102088451385498046875</LongitudeDegrees>
            </Position>
            <AltitudeMeters>1629.5999755859375</AltitudeMeters>
            <DistanceMeters>NAN</DistanceMeters>
          </Trackpoint>
          <Trackpoint>
            <Time>2018-12-30T13:32:44.000Z</Time>
            <Position>
              <LatitudeDegrees>40.7505291514098644256591796875</LatitudeDegrees>
              <LongitudeDegrees>-4.090884737670421600341796875</LongitudeDegrees>
            </Position>
            <AltitudeMeters>1629.199951171875</AltitudeMeters>
            <DistanceMeters>NAN</DistanceMeters>
          </Trackpoint>
          <Trackpoint>
            <Time>2018-12-30T13:32:45.000Z</Time>
            <Position>
              <LatitudeDegrees>40.750523619353771209716796875</LatitudeDegrees>
              <LongitudeDegrees>-4.0908785350620746612548828125</LongitudeDegrees>
            </Position>
            <AltitudeMeters>1628.800048828125</AltitudeMeters>
            <DistanceMeters>NAN</DistanceMeters>
          </Trackpoint>
          <Trackpoint>
            <Time>2018-12-30T13:32:46.000Z</Time>
            <Position>
              <LatitudeDegrees>40.7505185902118682861328125</LatitudeDegrees>
              <LongitudeDegrees>-4.09087174572050571441650390625</LongitudeDegrees>
            </Position>
            <AltitudeMeters>1628.4000244140625</AltitudeMeters>
            <DistanceMeters>NAN</DistanceMeters>
          </Trackpoint>
          <Trackpoint>
            <Time>2018-12-30T13:32:47.000Z</Time>
            <Position>
              <LatitudeDegrees>40.75051364488899707794189453125</LatitudeDegrees>
              <LongitudeDegrees>-4.09086252562701702117919921875</LongitudeDegrees>
            </Position>
            <AltitudeMeters>1628.199951171875</AltitudeMeters>
            <DistanceMeters>NAN</DistanceMeters>
          </Trackpoint>
          <Trackpoint>
            <Time>2018-12-30T13:32:48.000Z</Time>
            <Position>
              <LatitudeDegrees>40.75050492770969867706298828125</LatitudeDegrees>
              <LongitudeDegrees>-4.09085682593286037445068359375</LongitudeDegrees>
            </Position>
            <AltitudeMeters>1628</AltitudeMeters>
            <DistanceMeters>NAN</DistanceMeters>
          </Trackpoint>
          <Trackpoint>
            <Time>2018-12-30T13:32:49.000Z</Time>
            <Position>
              <LatitudeDegrees>40.75049419887363910675048828125</LatitudeDegrees>
              <LongitudeDegrees>-4.09085347317159175872802734375</LongitudeDegrees>
            </Position>
            <AltitudeMeters>1627.800048828125</AltitudeMeters>
            <DistanceMeters>NAN</DistanceMeters>
          </Trackpoint>
          <Trackpoint>
            <Time>2018-12-30T13:32:50.000Z</Time>
            <Position>
              <LatitudeDegrees>40.750488750636577606201171875</LatitudeDegrees>
              <LongitudeDegrees>-4.090847186744213104248046875</LongitudeDegrees>
            </Position>
            <AltitudeMeters>1627.5999755859375</AltitudeMeters>
            <DistanceMeters>NAN</DistanceMeters>
          </Trackpoint>
          <Trackpoint>
            <Time>2018-12-30T13:32:51.000Z</Time>
            <Position>
              <LatitudeDegrees>40.75048782862722873687744140625</LatitudeDegrees>
              <LongitudeDegrees>-4.09083704464137554168701171875</LongitudeDegrees>
            </Position>
            <AltitudeMeters>1627.4000244140625</AltitudeMeters>
            <DistanceMeters>NAN</DistanceMeters>
          </Trackpoint>
          <Trackpoint>
            <Time>2018-12-30T13:32:52.000Z</Time>
            <Position>
              <LatitudeDegrees>40.7504805363714694976806640625</LatitudeDegrees>
              <LongitudeDegrees>-4.09082681871950626373291015625</LongitudeDegrees>
            </Position>
            <AltitudeMeters>1627.199951171875</AltitudeMeters>
            <DistanceMeters>NAN</DistanceMeters>
          </Trackpoint>
          <Trackpoint>
            <Time>2018-12-30T13:32:53.000Z</Time>
            <Position>
              <LatitudeDegrees>40.75047768652439117431640625</LatitudeDegrees>
              <LongitudeDegrees>-4.0908141620457172393798828125</LongitudeDegrees>
            </Position>
            <AltitudeMeters>1627</AltitudeMeters>
            <DistanceMeters>NAN</DistanceMeters>
          </Trackpoint>
          <Trackpoint>
            <Time>2018-12-30T13:32:54.000Z</Time>
            <Position>
              <LatitudeDegrees>40.7504756748676300048828125</LatitudeDegrees>
              <LongitudeDegrees>-4.0907967276871204376220703125</LongitudeDegrees>
            </Position>
            <AltitudeMeters>1626.800048828125</AltitudeMeters>
            <DistanceMeters>NAN</DistanceMeters>
          </Trackpoint>
          <Trackpoint>
            <Time>2018-12-30T13:32:55.000Z</Time>
            <Position>
              <LatitudeDegrees>40.75047274120151996612548828125</LatitudeDegrees>
              <LongitudeDegrees>-4.0907813049852848052978515625</LongitudeDegrees>
            </Position>
            <AltitudeMeters>1626.5999755859375</AltitudeMeters>
            <DistanceMeters>NAN</DistanceMeters>
          </Trackpoint>
          <Trackpoint>
            <Time>2018-12-30T13:32:56.000Z</Time>
            <Position>
              <LatitudeDegrees>40.75046620331704616546630859375</LatitudeDegrees>
              <LongitudeDegrees>-4.0907658822834491729736328125</LongitudeDegrees>
            </Position>
            <AltitudeMeters>1626.5999755859375</AltitudeMeters>
            <DistanceMeters>NAN</DistanceMeters>
          </Trackpoint>
          <Trackpoint>
            <Time>2018-12-30T13:32:57.000Z</Time>
            <Position>
              <LatitudeDegrees>40.75046268291771411895751953125</LatitudeDegrees>
              <LongitudeDegrees>-4.09075138159096240997314453125</LongitudeDegrees>
            </Position>
            <AltitudeMeters>1626.199951171875</AltitudeMeters>
            <DistanceMeters>NAN</DistanceMeters>
          </Trackpoint>
          <Trackpoint>
            <Time>2018-12-30T13:32:58.000Z</Time>
            <Position>
              <LatitudeDegrees>40.75045966543257236480712890625</LatitudeDegrees>
              <LongitudeDegrees>-4.0907407365739345550537109375</LongitudeDegrees>
            </Position>
            <AltitudeMeters>1626</AltitudeMeters>
            <DistanceMeters>NAN</DistanceMeters>
          </Trackpoint>
          <Trackpoint>
            <Time>2018-12-30T13:32:59.000Z</Time>
            <Position>
              <LatitudeDegrees>40.75046100653707981109619140625</LatitudeDegrees>
              <LongitudeDegrees>-4.09073931165039539337158203125</LongitudeDegrees>
            </Position>
            <AltitudeMeters>1625.800048828125</AltitudeMeters>
            <DistanceMeters>NAN</DistanceMeters>
          </Trackpoint>
          <Trackpoint>
            <Time>2018-12-30T13:33:00.000Z</Time>
            <Position>
              <LatitudeDegrees>40.75046117417514324188232421875</LatitudeDegrees>
              <LongitudeDegrees>-4.0907321870326995849609375</LongitudeDegrees>
            </Position>
            <AltitudeMeters>1625.5999755859375</AltitudeMeters>
            <DistanceMeters>NAN</DistanceMeters>
          </Trackpoint>
          <Trackpoint>
            <Time>2018-12-30T13:33:01.000Z</Time>
            <Position>
              <LatitudeDegrees>40.75045832432806491851806640625</LatitudeDegrees>
              <LongitudeDegrees>-4.090730510652065277099609375</LongitudeDegrees>
            </Position>
            <AltitudeMeters>1625.199951171875</AltitudeMeters>
            <DistanceMeters>NAN</DistanceMeters>
          </Trackpoint>
          <Trackpoint>
            <Time>2018-12-30T13:33:02.000Z</Time>
            <Position>
              <LatitudeDegrees>40.75045513920485973358154296875</LatitudeDegrees>
              <LongitudeDegrees>-4.0907306782901287078857421875</LongitudeDegrees>
            </Position>
            <AltitudeMeters>1625</AltitudeMeters>
            <DistanceMeters>NAN</DistanceMeters>
          </Trackpoint>
          <Trackpoint>
            <Time>2018-12-30T13:33:03.000Z</Time>
            <Position>
              <LatitudeDegrees>40.7504537142813205718994140625</LatitudeDegrees>
              <LongitudeDegrees>-4.0907363779842853546142578125</LongitudeDegrees>
            </Position>
            <AltitudeMeters>1624.800048828125</AltitudeMeters>
            <DistanceMeters>NAN</DistanceMeters>
          </Trackpoint>
          <Trackpoint>
            <Time>2018-12-30T13:33:04.000Z</Time>
            <Position>
              <LatitudeDegrees>40.75043921358883380889892578125</LatitudeDegrees>
              <LongitudeDegrees>-4.0907507948577404022216796875</LongitudeDegrees>
            </Position>
            <AltitudeMeters>1624.800048828125</AltitudeMeters>
            <DistanceMeters>NAN</DistanceMeters>
          </Trackpoint>
          <Trackpoint>
            <Time>2018-12-30T13:33:05.000Z</Time>
            <Position>
              <LatitudeDegrees>40.75042680837213993072509765625</LatitudeDegrees>
              <LongitudeDegrees>-4.0907616913318634033203125</LongitudeDegrees>
            </Position>
            <AltitudeMeters>1624.800048828125</AltitudeMeters>
            <DistanceMeters>NAN</DistanceMeters>
          </Trackpoint>
          <Trackpoint>
            <Time>2018-12-30T13:33:06.000Z</Time>
            <Position>
              <LatitudeDegrees>40.7504139840602874755859375</LatitudeDegrees>
              <LongitudeDegrees>-4.090774096548557281494140625</LongitudeDegrees>
            </Position>
            <AltitudeMeters>1624.800048828125</AltitudeMeters>
            <DistanceMeters>NAN</DistanceMeters>
          </Trackpoint>
          <Trackpoint>
            <Time>2018-12-30T13:33:07.000Z</Time>
            <Position>
              <LatitudeDegrees>40.7504107989370822906494140625</LatitudeDegrees>
              <LongitudeDegrees>-4.09077099524438381195068359375</LongitudeDegrees>
            </Position>
            <AltitudeMeters>1624.5999755859375</AltitudeMeters>
            <DistanceMeters>NAN</DistanceMeters>
          </Trackpoint>
          <Trackpoint>
            <Time>2018-12-30T13:33:08.000Z</Time>
            <Position>
              <LatitudeDegrees>40.75040929019451141357421875</LatitudeDegrees>
              <LongitudeDegrees>-4.090771414339542388916015625</LongitudeDegrees>
            </Position>
            <AltitudeMeters>1624.5999755859375</AltitudeMeters>
            <DistanceMeters>NAN</DistanceMeters>
          </Trackpoint>
          <Trackpoint>
            <Time>2018-12-30T13:33:09.000Z</Time>
            <Position>
              <LatitudeDegrees>40.75038942508399486541748046875</LatitudeDegrees>
              <LongitudeDegrees>-4.0907910279929637908935546875</LongitudeDegrees>
            </Position>
            <AltitudeMeters>1624.5999755859375</AltitudeMeters>
            <DistanceMeters>NAN</DistanceMeters>
          </Trackpoint>
          <Trackpoint>
            <Time>2018-12-30T13:33:10.000Z</Time>
            <Position>
              <LatitudeDegrees>40.75038992799818515777587890625</LatitudeDegrees>
              <LongitudeDegrees>-4.0907849930226802825927734375</LongitudeDegrees>
            </Position>
            <AltitudeMeters>1624.5999755859375</AltitudeMeters>
            <DistanceMeters>NAN</DistanceMeters>
          </Trackpoint>
          <Trackpoint>
            <Time>2018-12-30T13:33:11.000Z</Time>
            <Position>
              <LatitudeDegrees>40.7503869943320751190185546875</LatitudeDegrees>
              <LongitudeDegrees>-4.0907819755375385284423828125</LongitudeDegrees>
            </Position>
            <AltitudeMeters>1624.5999755859375</AltitudeMeters>
            <DistanceMeters>NAN</DistanceMeters>
          </Trackpoint>
          <Trackpoint>
            <Time>2018-12-30T13:33:12.000Z</Time>
            <Position>
              <LatitudeDegrees>40.750384815037250518798828125</LatitudeDegrees>
              <LongitudeDegrees>-4.0907745994627475738525390625</LongitudeDegrees>
            </Position>
            <AltitudeMeters>1624.5999755859375</AltitudeMeters>
            <DistanceMeters>NAN</DistanceMeters>
          </Trackpoint>
          <Trackpoint>
            <Time>2018-12-30T13:33:13.000Z</Time>
            <Position>
              <LatitudeDegrees>40.75038389302790164947509765625</LatitudeDegrees>
              <LongitudeDegrees>-4.09077652730047702789306640625</LongitudeDegrees>
            </Position>
            <AltitudeMeters>1624.5999755859375</AltitudeMeters>
            <DistanceMeters>NAN</DistanceMeters>
          </Trackpoint>
          <Trackpoint>
            <Time>2018-12-30T13:33:14.000Z</Time>
            <Position>
              <LatitudeDegrees>40.7503833062946796417236328125</LatitudeDegrees>
              <LongitudeDegrees>-4.0907779522240161895751953125</LongitudeDegrees>
            </Position>
            <AltitudeMeters>1624.5999755859375</AltitudeMeters>
            <DistanceMeters>NAN</DistanceMeters>
          </Trackpoint>
          <Trackpoint>
            <Time>2018-12-30T13:33:15.000Z</Time>
            <Position>
              <LatitudeDegrees>40.7503823004662990570068359375</LatitudeDegrees>
              <LongitudeDegrees>-4.09078021533787250518798828125</LongitudeDegrees>
            </Position>
            <AltitudeMeters>1624.5999755859375</AltitudeMeters>
            <DistanceMeters>NAN</DistanceMeters>
          </Trackpoint>
          <Trackpoint>
            <Time>2018-12-30T13:33:16.000Z</Time>
            <Position>
              <LatitudeDegrees>40.7503816299140453338623046875</LatitudeDegrees>
              <LongitudeDegrees>-4.09078474156558513641357421875</LongitudeDegrees>
            </Position>
            <AltitudeMeters>1624.5999755859375</AltitudeMeters>
            <DistanceMeters>NAN</DistanceMeters>
          </Trackpoint>
          <Trackpoint>
            <Time>2018-12-30T13:33:17.000Z</Time>
            <Position>
              <LatitudeDegrees>40.75037978589534759521484375</LatitudeDegrees>
              <LongitudeDegrees>-4.090789519250392913818359375</LongitudeDegrees>
            </Position>
            <AltitudeMeters>1624.5999755859375</AltitudeMeters>
            <DistanceMeters>NAN</DistanceMeters>
          </Trackpoint>
          <Trackpoint>
            <Time>2018-12-30T13:33:18.000Z</Time>
            <Position>
              <LatitudeDegrees>40.75037266127765178680419921875</LatitudeDegrees>
              <LongitudeDegrees>-4.0907920338213443756103515625</LongitudeDegrees>
            </Position>
            <AltitudeMeters>1624.5999755859375</AltitudeMeters>
            <DistanceMeters>NAN</DistanceMeters>
          </Trackpoint>
          <Trackpoint>
            <Time>2018-12-30T13:33:19.000Z</Time>
            <Position>
              <LatitudeDegrees>40.75036771595478057861328125</LatitudeDegrees>
              <LongitudeDegrees>-4.0907896868884563446044921875</LongitudeDegrees>
            </Position>
            <AltitudeMeters>1624.4000244140625</AltitudeMeters>
            <DistanceMeters>NAN</DistanceMeters>
          </Trackpoint>
          <Trackpoint>
            <Time>2018-12-30T13:33:20.000Z</Time>
            <Position>
              <LatitudeDegrees>40.75036427937448024749755859375</LatitudeDegrees>
              <LongitudeDegrees>-4.09078222699463367462158203125</LongitudeDegrees>
            </Position>
            <AltitudeMeters>1624.4000244140625</AltitudeMeters>
            <DistanceMeters>NAN</DistanceMeters>
          </Trackpoint>
          <Trackpoint>
            <Time>2018-12-30T13:33:21.000Z</Time>
            <Position>
              <LatitudeDegrees>40.7503507845103740692138671875</LatitudeDegrees>
              <LongitudeDegrees>-4.09076931886374950408935546875</LongitudeDegrees>
            </Position>
            <AltitudeMeters>1624.199951171875</AltitudeMeters>
            <DistanceMeters>NAN</DistanceMeters>
          </Trackpoint>
          <Trackpoint>
            <Time>2018-12-30T13:33:22.000Z</Time>
            <Position>
              <LatitudeDegrees>40.75032907538115978240966796875</LatitudeDegrees>
              <LongitudeDegrees>-4.09075205214321613311767578125</LongitudeDegrees>
            </Position>
            <AltitudeMeters>1624.199951171875</AltitudeMeters>
            <DistanceMeters>NAN</DistanceMeters>
          </Trackpoint>
          <Trackpoint>
            <Time>2018-12-30T13:33:23.000Z</Time>
            <Position>
              <LatitudeDegrees>40.750332176685333251953125</LatitudeDegrees>
              <LongitudeDegrees>-4.090737886726856231689453125</LongitudeDegrees>
            </Position>
            <AltitudeMeters>1624.199951171875</AltitudeMeters>
            <DistanceMeters>NAN</DistanceMeters>
          </Trackpoint>
          <Trackpoint>
            <Time>2018-12-30T13:33:24.000Z</Time>
            <Position>
              <LatitudeDegrees>40.750333853065967559814453125</LatitudeDegrees>
              <LongitudeDegrees>-4.090728498995304107666015625</LongitudeDegrees>
            </Position>
            <AltitudeMeters>1624</AltitudeMeters>
            <DistanceMeters>NAN</DistanceMeters>
          </Trackpoint>
          <Trackpoint>
            <Time>2018-12-30T13:33:25.000Z</Time>
            <Position>
              <LatitudeDegrees>40.75033376924693584442138671875</LatitudeDegrees>
              <LongitudeDegrees>-4.09071785397827625274658203125</LongitudeDegrees>
            </Position>
            <AltitudeMeters>1624</AltitudeMeters>
            <DistanceMeters>NAN</DistanceMeters>
          </Trackpoint>
          <Trackpoint>
            <Time>2018-12-30T13:33:26.000Z</Time>
            <Position>
              <LatitudeDegrees>40.7503350265324115753173828125</LatitudeDegrees>
              <LongitudeDegrees>-4.09070394001901149749755859375</LongitudeDegrees>
            </Position>
            <AltitudeMeters>1623.800048828125</AltitudeMeters>
            <DistanceMeters>NAN</DistanceMeters>
          </Trackpoint>
          <Trackpoint>
            <Time>2018-12-30T13:33:27.000Z</Time>
            <Position>
              <LatitudeDegrees>40.75033016502857208251953125</LatitudeDegrees>
              <LongitudeDegrees>-4.09068851731717586517333984375</LongitudeDegrees>
            </Position>
            <AltitudeMeters>1623.5999755859375</AltitudeMeters>
            <DistanceMeters>NAN</DistanceMeters>
          </Trackpoint>
          <Trackpoint>
            <Time>2018-12-30T13:33:28.000Z</Time>
            <Position>
              <LatitudeDegrees>40.750329159200191497802734375</LatitudeDegrees>
              <LongitudeDegrees>-4.090672172605991363525390625</LongitudeDegrees>
            </Position>
            <AltitudeMeters>1623.4000244140625</AltitudeMeters>
            <DistanceMeters>NAN</DistanceMeters>
          </Trackpoint>
          <Trackpoint>
            <Time>2018-12-30T13:33:29.000Z</Time>
            <Position>
              <LatitudeDegrees>40.7503256388008594512939453125</LatitudeDegrees>
              <LongitudeDegrees>-4.0906492061913013458251953125</LongitudeDegrees>
            </Position>
            <AltitudeMeters>1623.4000244140625</AltitudeMeters>
            <DistanceMeters>NAN</DistanceMeters>
          </Trackpoint>
          <Trackpoint>
            <Time>2018-12-30T13:33:30.000Z</Time>
            <Position>
              <LatitudeDegrees>40.750322453677654266357421875</LatitudeDegrees>
              <LongitudeDegrees>-4.09063135273754596710205078125</LongitudeDegrees>
            </Position>
            <AltitudeMeters>1623.199951171875</AltitudeMeters>
            <DistanceMeters>NAN</DistanceMeters>
          </Trackpoint>
          <Trackpoint>
            <Time>2018-12-30T13:33:31.000Z</Time>
            <Position>
              <LatitudeDegrees>40.75031734071671962738037109375</LatitudeDegrees>
              <LongitudeDegrees>-4.09062288701534271240234375</LongitudeDegrees>
            </Position>
            <AltitudeMeters>1623</AltitudeMeters>
            <DistanceMeters>NAN</DistanceMeters>
          </Trackpoint>
          <Trackpoint>
            <Time>2018-12-30T13:33:32.000Z</Time>
            <Position>
              <LatitudeDegrees>40.750315077602863311767578125</LatitudeDegrees>
              <LongitudeDegrees>-4.09061291255056858062744140625</LongitudeDegrees>
            </Position>
            <AltitudeMeters>1622.800048828125</AltitudeMeters>
            <DistanceMeters>NAN</DistanceMeters>
          </Trackpoint>
          <Trackpoint>
            <Time>2018-12-30T13:33:33.000Z</Time>
            <Position>
              <LatitudeDegrees>40.7503165863454341888427734375</LatitudeDegrees>
              <LongitudeDegrees>-4.09060545265674591064453125</LongitudeDegrees>
            </Position>
            <AltitudeMeters>1622.5999755859375</AltitudeMeters>
            <DistanceMeters>NAN</DistanceMeters>
          </Trackpoint>
          <Trackpoint>
            <Time>2018-12-30T13:33:34.000Z</Time>
            <Position>
              <LatitudeDegrees>40.75031750835478305816650390625</LatitudeDegrees>
              <LongitudeDegrees>-4.0905975736677646636962890625</LongitudeDegrees>
            </Position>
            <AltitudeMeters>1622.4000244140625</AltitudeMeters>
            <DistanceMeters>NAN</DistanceMeters>
          </Trackpoint>
          <Trackpoint>
            <Time>2018-12-30T13:33:35.000Z</Time>
            <Position>
              <LatitudeDegrees>40.75031675398349761962890625</LatitudeDegrees>
              <LongitudeDegrees>-4.09059162251651287078857421875</LongitudeDegrees>
            </Position>
            <AltitudeMeters>1622.199951171875</AltitudeMeters>
            <DistanceMeters>NAN</DistanceMeters>
          </Trackpoint>
          <Trackpoint>
            <Time>2018-12-30T13:33:36.000Z</Time>
            <Position>
              <LatitudeDegrees>40.75031784363090991973876953125</LatitudeDegrees>
              <LongitudeDegrees>-4.09059111960232257843017578125</LongitudeDegrees>
            </Position>
            <AltitudeMeters>1622</AltitudeMeters>
            <DistanceMeters>NAN</DistanceMeters>
          </Trackpoint>
          <Trackpoint>
            <Time>2018-12-30T13:33:37.000Z</Time>
            <Position>
              <LatitudeDegrees>40.75031675398349761962890625</LatitudeDegrees>
              <LongitudeDegrees>-4.0905881859362125396728515625</LongitudeDegrees>
            </Position>
            <AltitudeMeters>1622</AltitudeMeters>
            <DistanceMeters>NAN</DistanceMeters>
          </Trackpoint>
          <Trackpoint>
            <Time>2018-12-30T13:33:38.000Z</Time>
            <Position>
              <LatitudeDegrees>40.75031541287899017333984375</LatitudeDegrees>
              <LongitudeDegrees>-4.09057720564305782318115234375</LongitudeDegrees>
            </Position>
            <AltitudeMeters>1621.800048828125</AltitudeMeters>
            <DistanceMeters>NAN</DistanceMeters>
          </Trackpoint>
          <Trackpoint>
            <Time>2018-12-30T13:33:39.000Z</Time>
            <Position>
              <LatitudeDegrees>40.75030828826129436492919921875</LatitudeDegrees>
              <LongitudeDegrees>-4.090564548969268798828125</LongitudeDegrees>
            </Position>
            <AltitudeMeters>1621.5999755859375</AltitudeMeters>
            <DistanceMeters>NAN</DistanceMeters>
          </Trackpoint>
          <Trackpoint>
            <Time>2018-12-30T13:33:40.000Z</Time>
            <Position>
              <LatitudeDegrees>40.75030325911939144134521484375</LatitudeDegrees>
              <LongitudeDegrees>-4.090553484857082366943359375</LongitudeDegrees>
            </Position>
            <AltitudeMeters>1621.4000244140625</AltitudeMeters>
            <DistanceMeters>NAN</DistanceMeters>
          </Trackpoint>
          <Trackpoint>
            <Time>2018-12-30T13:33:41.000Z</Time>
            <Position>
              <LatitudeDegrees>40.75029705651104450225830078125</LatitudeDegrees>
              <LongitudeDegrees>-4.09054351039230823516845703125</LongitudeDegrees>
            </Position>
            <AltitudeMeters>1621.199951171875</AltitudeMeters>
            <DistanceMeters>NAN</DistanceMeters>
          </Trackpoint>
          <Trackpoint>
            <Time>2018-12-30T13:33:42.000Z</Time>
            <Position>
              <LatitudeDegrees>40.750288255512714385986328125</LatitudeDegrees>
              <LongitudeDegrees>-4.090535379946231842041015625</LongitudeDegrees>
            </Position>
            <AltitudeMeters>1621</AltitudeMeters>
            <DistanceMeters>NAN</DistanceMeters>
          </Trackpoint>
          <Trackpoint>
            <Time>2018-12-30T13:33:43.000Z</Time>
            <Position>
              <LatitudeDegrees>40.750278197228908538818359375</LatitudeDegrees>
              <LongitudeDegrees>-4.09052741713821887969970703125</LongitudeDegrees>
            </Position>
            <AltitudeMeters>1621</AltitudeMeters>
            <DistanceMeters>NAN</DistanceMeters>
          </Trackpoint>
          <Trackpoint>
            <Time>2018-12-30T13:33:44.000Z</Time>
            <Position>
              <LatitudeDegrees>40.750264115631580352783203125</LatitudeDegrees>
              <LongitudeDegrees>-4.0905256569385528564453125</LongitudeDegrees>
            </Position>
            <AltitudeMeters>1620.800048828125</AltitudeMeters>
            <DistanceMeters>NAN</DistanceMeters>
          </Trackpoint>
          <Trackpoint>
            <Time>2018-12-30T13:33:45.000Z</Time>
            <Position>
              <LatitudeDegrees>40.75026051141321659088134765625</LatitudeDegrees>
              <LongitudeDegrees>-4.0905177779495716094970703125</LongitudeDegrees>
            </Position>
            <AltitudeMeters>1620.5999755859375</AltitudeMeters>
            <DistanceMeters>NAN</DistanceMeters>
          </Trackpoint>
          <Trackpoint>
            <Time>2018-12-30T13:33:46.000Z</Time>
            <Position>
              <LatitudeDegrees>40.75025011785328388214111328125</LatitudeDegrees>
              <LongitudeDegrees>-4.09051157534122467041015625</LongitudeDegrees>
            </Position>
            <AltitudeMeters>1620.4000244140625</AltitudeMeters>
            <DistanceMeters>NAN</DistanceMeters>
          </Trackpoint>
          <Trackpoint>
            <Time>2018-12-30T13:33:47.000Z</Time>
            <Position>
              <LatitudeDegrees>40.75023670680820941925048828125</LatitudeDegrees>
              <LongitudeDegrees>-4.0905080549418926239013671875</LongitudeDegrees>
            </Position>
            <AltitudeMeters>1620.4000244140625</AltitudeMeters>
            <DistanceMeters>NAN</DistanceMeters>
          </Trackpoint>
          <Trackpoint>
            <Time>2018-12-30T13:33:48.000Z</Time>
            <Position>
              <LatitudeDegrees>40.7502280734479427337646484375</LatitudeDegrees>
              <LongitudeDegrees>-4.090496487915515899658203125</LongitudeDegrees>
            </Position>
            <AltitudeMeters>1620.199951171875</AltitudeMeters>
            <DistanceMeters>NAN</DistanceMeters>
          </Trackpoint>
          <Trackpoint>
            <Time>2018-12-30T13:33:49.000Z</Time>
            <Position>
              <LatitudeDegrees>40.7502240501344203948974609375</LatitudeDegrees>
              <LongitudeDegrees>-4.0904854238033294677734375</LongitudeDegrees>
            </Position>
            <AltitudeMeters>1620</AltitudeMeters>
            <DistanceMeters>NAN</DistanceMeters>
          </Trackpoint>
          <Trackpoint>
            <Time>2018-12-30T13:33:50.000Z</Time>
            <Position>
              <LatitudeDegrees>40.750224553048610687255859375</LatitudeDegrees>
              <LongitudeDegrees>-4.090475030243396759033203125</LongitudeDegrees>
            </Position>
            <AltitudeMeters>1619.5999755859375</AltitudeMeters>
            <DistanceMeters>NAN</DistanceMeters>
          </Trackpoint>
          <Trackpoint>
            <Time>2018-12-30T13:33:51.000Z</Time>
            <Position>
              <LatitudeDegrees>40.75022958219051361083984375</LatitudeDegrees>
              <LongitudeDegrees>-4.0904720127582550048828125</LongitudeDegrees>
            </Position>
            <AltitudeMeters>1619.5999755859375</AltitudeMeters>
            <DistanceMeters>NAN</DistanceMeters>
          </Trackpoint>
          <Trackpoint>
            <Time>2018-12-30T13:33:52.000Z</Time>
            <Position>
              <LatitudeDegrees>40.7502324320375919342041015625</LatitudeDegrees>
              <LongitudeDegrees>-4.090464971959590911865234375</LongitudeDegrees>
            </Position>
            <AltitudeMeters>1619.4000244140625</AltitudeMeters>
            <DistanceMeters>NAN</DistanceMeters>
          </Trackpoint>
          <Trackpoint>
            <Time>2018-12-30T13:33:53.000Z</Time>
            <Position>
              <LatitudeDegrees>40.75022933073341846466064453125</LatitudeDegrees>
              <LongitudeDegrees>-4.0904544107615947723388671875</LongitudeDegrees>
            </Position>
            <AltitudeMeters>1619.199951171875</AltitudeMeters>
            <DistanceMeters>NAN</DistanceMeters>
          </Trackpoint>
          <Trackpoint>
            <Time>2018-12-30T13:33:54.000Z</Time>
            <Position>
              <LatitudeDegrees>40.75022731907665729522705078125</LatitudeDegrees>
              <LongitudeDegrees>-4.09044242464005947113037109375</LongitudeDegrees>
            </Position>
            <AltitudeMeters>1619</AltitudeMeters>
            <DistanceMeters>NAN</DistanceMeters>
          </Trackpoint>
          <Trackpoint>
            <Time>2018-12-30T13:33:55.000Z</Time>
            <Position>
              <LatitudeDegrees>40.7502206973731517791748046875</LatitudeDegrees>
              <LongitudeDegrees>-4.09043303690850734710693359375</LongitudeDegrees>
            </Position>
            <AltitudeMeters>1618.800048828125</AltitudeMeters>
            <DistanceMeters>NAN</DistanceMeters>
          </Trackpoint>
          <Trackpoint>
            <Time>2018-12-30T13:33:56.000Z</Time>
            <Position>
              <LatitudeDegrees>40.7502166740596294403076171875</LatitudeDegrees>
              <LongitudeDegrees>-4.0904272533953189849853515625</LongitudeDegrees>
            </Position>
            <AltitudeMeters>1618.4000244140625</AltitudeMeters>
            <DistanceMeters>NAN</DistanceMeters>
          </Trackpoint>
          <Trackpoint>
            <Time>2018-12-30T13:33:57.000Z</Time>
            <Position>
              <LatitudeDegrees>40.7502126507461071014404296875</LatitudeDegrees>
              <LongitudeDegrees>-4.09042800776660442352294921875</LongitudeDegrees>
            </Position>
            <AltitudeMeters>1618.199951171875</AltitudeMeters>
            <DistanceMeters>NAN</DistanceMeters>
          </Trackpoint>
          <Trackpoint>
            <Time>2018-12-30T13:33:58.000Z</Time>
            <Position>
              <LatitudeDegrees>40.75021089054644107818603515625</LatitudeDegrees>
              <LongitudeDegrees>-4.09042867831885814666748046875</LongitudeDegrees>
            </Position>
            <AltitudeMeters>1618.199951171875</AltitudeMeters>
            <DistanceMeters>NAN</DistanceMeters>
          </Trackpoint>
          <Trackpoint>
            <Time>2018-12-30T13:33:59.000Z</Time>
            <Position>
              <LatitudeDegrees>40.75020837597548961639404296875</LatitudeDegrees>
              <LongitudeDegrees>-4.09042163752019405364990234375</LongitudeDegrees>
            </Position>
            <AltitudeMeters>1618</AltitudeMeters>
            <DistanceMeters>NAN</DistanceMeters>
          </Trackpoint>
          <Trackpoint>
            <Time>2018-12-30T13:34:00.000Z</Time>
            <Position>
              <LatitudeDegrees>40.7501968927681446075439453125</LatitudeDegrees>
              <LongitudeDegrees>-4.09041426144540309906005859375</LongitudeDegrees>
            </Position>
            <AltitudeMeters>1617.5999755859375</AltitudeMeters>
            <DistanceMeters>NAN</DistanceMeters>
          </Trackpoint>
          <Trackpoint>
            <Time>2018-12-30T13:34:01.000Z</Time>
            <Position>
              <LatitudeDegrees>40.75018398463726043701171875</LatitudeDegrees>
              <LongitudeDegrees>-4.09040856175124645233154296875</LongitudeDegrees>
            </Position>
            <AltitudeMeters>1617.4000244140625</AltitudeMeters>
            <DistanceMeters>NAN</DistanceMeters>
          </Trackpoint>
          <Trackpoint>
            <Time>2018-12-30T13:34:02.000Z</Time>
            <Position>
              <LatitudeDegrees>40.75017727911472320556640625</LatitudeDegrees>
              <LongitudeDegrees>-4.090399257838726043701171875</LongitudeDegrees>
            </Position>
            <AltitudeMeters>1617.199951171875</AltitudeMeters>
            <DistanceMeters>NAN</DistanceMeters>
          </Trackpoint>
          <Trackpoint>
            <Time>2018-12-30T13:34:03.000Z</Time>
            <Position>
              <LatitudeDegrees>40.75016948394477367401123046875</LatitudeDegrees>
              <LongitudeDegrees>-4.0903910435736179351806640625</LongitudeDegrees>
            </Position>
            <AltitudeMeters>1616.800048828125</AltitudeMeters>
            <DistanceMeters>NAN</DistanceMeters>
          </Trackpoint>
          <Trackpoint>
            <Time>2018-12-30T13:34:04.000Z</Time>
            <Position>
              <LatitudeDegrees>40.7501583360135555267333984375</LatitudeDegrees>
              <LongitudeDegrees>-4.090381823480129241943359375</LongitudeDegrees>
            </Position>
            <AltitudeMeters>1616.5999755859375</AltitudeMeters>
            <DistanceMeters>NAN</DistanceMeters>
          </Trackpoint>
          <Trackpoint>
            <Time>2018-12-30T13:34:05.000Z</Time>
            <Position>
              <LatitudeDegrees>40.7501459307968616485595703125</LatitudeDegrees>
              <LongitudeDegrees>-4.0903742797672748565673828125</LongitudeDegrees>
            </Position>
            <AltitudeMeters>1616.5999755859375</AltitudeMeters>
            <DistanceMeters>NAN</DistanceMeters>
          </Trackpoint>
          <Trackpoint>
            <Time>2018-12-30T13:34:06.000Z</Time>
            <Position>
              <LatitudeDegrees>40.75013612397015094757080078125</LatitudeDegrees>
              <LongitudeDegrees>-4.09036514349281787872314453125</LongitudeDegrees>
            </Position>
            <AltitudeMeters>1616.4000244140625</AltitudeMeters>
            <DistanceMeters>NAN</DistanceMeters>
          </Trackpoint>
          <Trackpoint>
            <Time>2018-12-30T13:34:07.000Z</Time>
            <Position>
              <LatitudeDegrees>40.75012925080955028533935546875</LatitudeDegrees>
              <LongitudeDegrees>-4.0903585217893123626708984375</LongitudeDegrees>
            </Position>
            <AltitudeMeters>1616.199951171875</AltitudeMeters>
            <DistanceMeters>NAN</DistanceMeters>
          </Trackpoint>
          <Trackpoint>
            <Time>2018-12-30T13:34:08.000Z</Time>
            <Position>
              <LatitudeDegrees>40.7501241378486156463623046875</LatitudeDegrees>
              <LongitudeDegrees>-4.09035198390483856201171875</LongitudeDegrees>
            </Position>
            <AltitudeMeters>1616.199951171875</AltitudeMeters>
            <DistanceMeters>NAN</DistanceMeters>
          </Trackpoint>
          <Trackpoint>
            <Time>2018-12-30T13:34:09.000Z</Time>
            <Position>
              <LatitudeDegrees>40.75011651031672954559326171875</LatitudeDegrees>
              <LongitudeDegrees>-4.0903432667255401611328125</LongitudeDegrees>
            </Position>
            <AltitudeMeters>1616</AltitudeMeters>
            <DistanceMeters>NAN</DistanceMeters>
          </Trackpoint>
          <Trackpoint>
            <Time>2018-12-30T13:34:10.000Z</Time>
            <Position>
              <LatitudeDegrees>40.750111900269985198974609375</LatitudeDegrees>
              <LongitudeDegrees>-4.090330861508846282958984375</LongitudeDegrees>
            </Position>
            <AltitudeMeters>1615.800048828125</AltitudeMeters>
            <DistanceMeters>NAN</DistanceMeters>
          </Trackpoint>
          <Trackpoint>
            <Time>2018-12-30T13:34:11.000Z</Time>
            <Position>
              <LatitudeDegrees>40.75010620057582855224609375</LatitudeDegrees>
              <LongitudeDegrees>-4.0903186239302158355712890625</LongitudeDegrees>
            </Position>
            <AltitudeMeters>1615.5999755859375</AltitudeMeters>
            <DistanceMeters>NAN</DistanceMeters>
          </Trackpoint>
          <Trackpoint>
            <Time>2018-12-30T13:34:12.000Z</Time>
            <Position>
              <LatitudeDegrees>40.7500986568629741668701171875</LatitudeDegrees>
              <LongitudeDegrees>-4.09030613489449024200439453125</LongitudeDegrees>
            </Position>
            <AltitudeMeters>1615.4000244140625</AltitudeMeters>
            <DistanceMeters>NAN</DistanceMeters>
          </Trackpoint>
          <Trackpoint>
            <Time>2018-12-30T13:34:13.000Z</Time>
            <Position>
              <LatitudeDegrees>40.7500946335494518280029296875</LatitudeDegrees>
              <LongitudeDegrees>-4.09029389731585979461669921875</LongitudeDegrees>
            </Position>
            <AltitudeMeters>1615</AltitudeMeters>
            <DistanceMeters>NAN</DistanceMeters>
          </Trackpoint>
          <Trackpoint>
            <Time>2018-12-30T13:34:14.000Z</Time>
            <Position>
              <LatitudeDegrees>40.75008750893175601959228515625</LatitudeDegrees>
              <LongitudeDegrees>-4.09027696587145328521728515625</LongitudeDegrees>
            </Position>
            <AltitudeMeters>1615</AltitudeMeters>
            <DistanceMeters>NAN</DistanceMeters>
          </Trackpoint>
          <Trackpoint>
            <Time>2018-12-30T13:34:15.000Z</Time>
            <Position>
              <LatitudeDegrees>40.750083737075328826904296875</LatitudeDegrees>
              <LongitudeDegrees>-4.0902596153318881988525390625</LongitudeDegrees>
            </Position>
            <AltitudeMeters>1614.800048828125</AltitudeMeters>
            <DistanceMeters>NAN</DistanceMeters>
          </Trackpoint>
          <Trackpoint>
            <Time>2018-12-30T13:34:16.000Z</Time>
            <Position>
              <LatitudeDegrees>40.7500765286386013031005859375</LatitudeDegrees>
              <LongitudeDegrees>-4.09024377353489398956298828125</LongitudeDegrees>
            </Position>
            <AltitudeMeters>1614.800048828125</AltitudeMeters>
            <DistanceMeters>NAN</DistanceMeters>
          </Trackpoint>
          <Trackpoint>
            <Time>2018-12-30T13:34:17.000Z</Time>
            <Position>
              <LatitudeDegrees>40.75007476843893527984619140625</LatitudeDegrees>
              <LongitudeDegrees>-4.09023103304207324981689453125</LongitudeDegrees>
            </Position>
            <AltitudeMeters>1614.5999755859375</AltitudeMeters>
            <DistanceMeters>NAN</DistanceMeters>
          </Trackpoint>
          <Trackpoint>
            <Time>2018-12-30T13:34:18.000Z</Time>
            <Position>
              <LatitudeDegrees>40.75006789527833461761474609375</LatitudeDegrees>
              <LongitudeDegrees>-4.0902170352637767791748046875</LongitudeDegrees>
            </Position>
            <AltitudeMeters>1614.4000244140625</AltitudeMeters>
            <DistanceMeters>NAN</DistanceMeters>
          </Trackpoint>
          <Trackpoint>
            <Time>2018-12-30T13:34:19.000Z</Time>
            <Position>
              <LatitudeDegrees>40.75006051920354366302490234375</LatitudeDegrees>
              <LongitudeDegrees>-4.09019934944808483123779296875</LongitudeDegrees>
            </Position>
            <AltitudeMeters>1614.199951171875</AltitudeMeters>
            <DistanceMeters>NAN</DistanceMeters>
          </Trackpoint>
          <Trackpoint>
            <Time>2018-12-30T13:34:20.000Z</Time>
            <Position>
              <LatitudeDegrees>40.75005766935646533966064453125</LatitudeDegrees>
              <LongitudeDegrees>-4.09017940051853656768798828125</LongitudeDegrees>
            </Position>
            <AltitudeMeters>1614</AltitudeMeters>
            <DistanceMeters>NAN</DistanceMeters>
          </Trackpoint>
          <Trackpoint>
            <Time>2018-12-30T13:34:21.000Z</Time>
            <Position>
              <LatitudeDegrees>40.75005850754678249359130859375</LatitudeDegrees>
              <LongitudeDegrees>-4.0901543386280536651611328125</LongitudeDegrees>
            </Position>
            <AltitudeMeters>1613.800048828125</AltitudeMeters>
            <DistanceMeters>NAN</DistanceMeters>
          </Trackpoint>
          <Trackpoint>
            <Time>2018-12-30T13:34:22.000Z</Time>
            <Position>
              <LatitudeDegrees>40.750060267746448516845703125</LatitudeDegrees>
              <LongitudeDegrees>-4.0901318751275539398193359375</LongitudeDegrees>
            </Position>
            <AltitudeMeters>1613.5999755859375</AltitudeMeters>
            <DistanceMeters>NAN</DistanceMeters>
          </Trackpoint>
          <Trackpoint>
            <Time>2018-12-30T13:34:23.000Z</Time>
            <Position>
              <LatitudeDegrees>40.750056244432926177978515625</LatitudeDegrees>
              <LongitudeDegrees>-4.0901233255863189697265625</LongitudeDegrees>
            </Position>
            <AltitudeMeters>1613.4000244140625</AltitudeMeters>
            <DistanceMeters>NAN</DistanceMeters>
          </Trackpoint>
          <Trackpoint>
            <Time>2018-12-30T13:34:24.000Z</Time>
            <Position>
              <LatitudeDegrees>40.75005096383392810821533203125</LatitudeDegrees>
              <LongitudeDegrees>-4.09010446630418300628662109375</LongitudeDegrees>
            </Position>
            <AltitudeMeters>1613.4000244140625</AltitudeMeters>
            <DistanceMeters>NAN</DistanceMeters>
          </Trackpoint>
          <Trackpoint>
            <Time>2018-12-30T13:34:25.000Z</Time>
            <Position>
              <LatitudeDegrees>40.75005029328167438507080078125</LatitudeDegrees>
              <LongitudeDegrees>-4.09007848240435123443603515625</LongitudeDegrees>
            </Position>
            <AltitudeMeters>1613.4000244140625</AltitudeMeters>
            <DistanceMeters>NAN</DistanceMeters>
          </Trackpoint>
          <Trackpoint>
            <Time>2018-12-30T13:34:26.000Z</Time>
            <Position>
              <LatitudeDegrees>40.7500487007200717926025390625</LatitudeDegrees>
              <LongitudeDegrees>-4.0900616347789764404296875</LongitudeDegrees>
            </Position>
            <AltitudeMeters>1613.4000244140625</AltitudeMeters>
            <DistanceMeters>NAN</DistanceMeters>
          </Trackpoint>
          <Trackpoint>
            <Time>2018-12-30T13:34:27.000Z</Time>
            <Position>
              <LatitudeDegrees>40.75004987418651580810546875</LatitudeDegrees>
              <LongitudeDegrees>-4.09004713408648967742919921875</LongitudeDegrees>
            </Position>
            <AltitudeMeters>1613.199951171875</AltitudeMeters>
            <DistanceMeters>NAN</DistanceMeters>
          </Trackpoint>
          <Trackpoint>
            <Time>2018-12-30T13:34:28.000Z</Time>
            <Position>
              <LatitudeDegrees>40.75005666352808475494384765625</LatitudeDegrees>
              <LongitudeDegrees>-4.09002467058598995208740234375</LongitudeDegrees>
            </Position>
            <AltitudeMeters>1613</AltitudeMeters>
            <DistanceMeters>NAN</DistanceMeters>
          </Trackpoint>
          <Trackpoint>
            <Time>2018-12-30T13:34:29.000Z</Time>
            <Position>
              <LatitudeDegrees>40.75005716644227504730224609375</LatitudeDegrees>
              <LongitudeDegrees>-4.090015031397342681884765625</LongitudeDegrees>
            </Position>
            <AltitudeMeters>1612.800048828125</AltitudeMeters>
            <DistanceMeters>NAN</DistanceMeters>
          </Trackpoint>
          <Trackpoint>
            <Time>2018-12-30T13:34:30.000Z</Time>
            <Position>
              <LatitudeDegrees>40.7500637881457805633544921875</LatitudeDegrees>
              <LongitudeDegrees>-4.09000304527580738067626953125</LongitudeDegrees>
            </Position>
            <AltitudeMeters>1612.5999755859375</AltitudeMeters>
            <DistanceMeters>NAN</DistanceMeters>
          </Trackpoint>
          <Trackpoint>
            <Time>2018-12-30T13:34:31.000Z</Time>
            <Position>
              <LatitudeDegrees>40.7500614412128925323486328125</LatitudeDegrees>
              <LongitudeDegrees>-4.089998938143253326416015625</LongitudeDegrees>
            </Position>
            <AltitudeMeters>1612.4000244140625</AltitudeMeters>
            <DistanceMeters>NAN</DistanceMeters>
          </Trackpoint>
          <Trackpoint>
            <Time>2018-12-30T13:34:32.000Z</Time>
            <Position>
              <LatitudeDegrees>40.75006688944995403289794921875</LatitudeDegrees>
              <LongitudeDegrees>-4.08998720347881317138671875</LongitudeDegrees>
            </Position>
            <AltitudeMeters>1612.4000244140625</AltitudeMeters>
            <DistanceMeters>NAN</DistanceMeters>
          </Trackpoint>
          <Trackpoint>
            <Time>2018-12-30T13:34:33.000Z</Time>
            <Position>
              <LatitudeDegrees>40.75006864964962005615234375</LatitudeDegrees>
              <LongitudeDegrees>-4.08997823484241962432861328125</LongitudeDegrees>
            </Position>
            <AltitudeMeters>1612.4000244140625</AltitudeMeters>
            <DistanceMeters>NAN</DistanceMeters>
          </Trackpoint>
          <Trackpoint>
            <Time>2018-12-30T13:34:34.000Z</Time>
            <Position>
              <LatitudeDegrees>40.7500787079334259033203125</LatitudeDegrees>
              <LongitudeDegrees>-4.0899548493325710296630859375</LongitudeDegrees>
            </Position>
            <AltitudeMeters>1612.199951171875</AltitudeMeters>
            <DistanceMeters>NAN</DistanceMeters>
          </Trackpoint>
          <Trackpoint>
            <Time>2018-12-30T13:34:35.000Z</Time>
            <Position>
              <LatitudeDegrees>40.750087089836597442626953125</LatitudeDegrees>
              <LongitudeDegrees>-4.08993833698332309722900390625</LongitudeDegrees>
            </Position>
            <AltitudeMeters>1612</AltitudeMeters>
            <DistanceMeters>NAN</DistanceMeters>
          </Trackpoint>
          <Trackpoint>
            <Time>2018-12-30T13:34:36.000Z</Time>
            <Position>
              <LatitudeDegrees>40.75009035877883434295654296875</LatitudeDegrees>
              <LongitudeDegrees>-4.08992140553891658782958984375</LongitudeDegrees>
            </Position>
            <AltitudeMeters>1611.800048828125</AltitudeMeters>
            <DistanceMeters>NAN</DistanceMeters>
          </Trackpoint>
          <Trackpoint>
            <Time>2018-12-30T13:34:37.000Z</Time>
            <Position>
              <LatitudeDegrees>40.75009522028267383575439453125</LatitudeDegrees>
              <LongitudeDegrees>-4.089899696409702301025390625</LongitudeDegrees>
            </Position>
            <AltitudeMeters>1611.5999755859375</AltitudeMeters>
            <DistanceMeters>NAN</DistanceMeters>
          </Trackpoint>
          <Trackpoint>
            <Time>2018-12-30T13:34:38.000Z</Time>
            <Position>
              <LatitudeDegrees>40.7501003332436084747314453125</LatitudeDegrees>
              <LongitudeDegrees>-4.089888297021389007568359375</LongitudeDegrees>
            </Position>
            <AltitudeMeters>1611.199951171875</AltitudeMeters>
            <DistanceMeters>NAN</DistanceMeters>
          </Trackpoint>
          <Trackpoint>
            <Time>2018-12-30T13:34:39.000Z</Time>
            <Position>
              <LatitudeDegrees>40.75010343454778194427490234375</LatitudeDegrees>
              <LongitudeDegrees>-4.08987329341471195220947265625</LongitudeDegrees>
            </Position>
            <AltitudeMeters>1611</AltitudeMeters>
            <DistanceMeters>NAN</DistanceMeters>
          </Trackpoint>
          <Trackpoint>
            <Time>2018-12-30T13:34:40.000Z</Time>
            <Position>
              <LatitudeDegrees>40.75010293163359165191650390625</LatitudeDegrees>
              <LongitudeDegrees>-4.08986424095928668975830078125</LongitudeDegrees>
            </Position>
            <AltitudeMeters>1610.4000244140625</AltitudeMeters>
            <DistanceMeters>NAN</DistanceMeters>
          </Trackpoint>
          <Trackpoint>
            <Time>2018-12-30T13:34:41.000Z</Time>
            <Position>
              <LatitudeDegrees>40.75010351836681365966796875</LatitudeDegrees>
              <LongitudeDegrees>-4.08985300920903682708740234375</LongitudeDegrees>
            </Position>
            <AltitudeMeters>1609.800048828125</AltitudeMeters>
            <DistanceMeters>NAN</DistanceMeters>
          </Trackpoint>
          <Trackpoint>
            <Time>2018-12-30T13:34:42.000Z</Time>
            <Position>
              <LatitudeDegrees>40.75010360218584537506103515625</LatitudeDegrees>
              <LongitudeDegrees>-4.08984563313424587249755859375</LongitudeDegrees>
            </Position>
            <AltitudeMeters>1609.5999755859375</AltitudeMeters>
            <DistanceMeters>NAN</DistanceMeters>
          </Trackpoint>
          <Trackpoint>
            <Time>2018-12-30T13:34:43.000Z</Time>
            <Position>
              <LatitudeDegrees>40.75010393746197223663330078125</LatitudeDegrees>
              <LongitudeDegrees>-4.08983699977397918701171875</LongitudeDegrees>
            </Position>
            <AltitudeMeters>1609.4000244140625</AltitudeMeters>
            <DistanceMeters>NAN</DistanceMeters>
          </Trackpoint>
          <Trackpoint>
            <Time>2018-12-30T13:34:44.000Z</Time>
            <Position>
              <LatitudeDegrees>40.750103183090686798095703125</LatitudeDegrees>
              <LongitudeDegrees>-4.0898309648036956787109375</LongitudeDegrees>
            </Position>
            <AltitudeMeters>1609.4000244140625</AltitudeMeters>
            <DistanceMeters>NAN</DistanceMeters>
          </Trackpoint>
          <Trackpoint>
            <Time>2018-12-30T13:34:45.000Z</Time>
            <Position>
              <LatitudeDegrees>40.7501043565571308135986328125</LatitudeDegrees>
              <LongitudeDegrees>-4.08982685767114162445068359375</LongitudeDegrees>
            </Position>
            <AltitudeMeters>1609.4000244140625</AltitudeMeters>
            <DistanceMeters>NAN</DistanceMeters>
          </Trackpoint>
          <Trackpoint>
            <Time>2018-12-30T13:34:46.000Z</Time>
            <Position>
              <LatitudeDegrees>40.750107206404209136962890625</LatitudeDegrees>
              <LongitudeDegrees>-4.089818559587001800537109375</LongitudeDegrees>
            </Position>
            <AltitudeMeters>1609.4000244140625</AltitudeMeters>
            <DistanceMeters>NAN</DistanceMeters>
          </Trackpoint>
          <Trackpoint>
            <Time>2018-12-30T13:34:47.000Z</Time>
            <Position>
              <LatitudeDegrees>40.750120617449283599853515625</LatitudeDegrees>
              <LongitudeDegrees>-4.08980925567448139190673828125</LongitudeDegrees>
            </Position>
            <AltitudeMeters>1609.4000244140625</AltitudeMeters>
            <DistanceMeters>NAN</DistanceMeters>
          </Trackpoint>
          <Trackpoint>
            <Time>2018-12-30T13:34:48.000Z</Time>
            <Position>
              <LatitudeDegrees>40.75012288056313991546630859375</LatitudeDegrees>
              <LongitudeDegrees>-4.08980187959969043731689453125</LongitudeDegrees>
            </Position>
            <AltitudeMeters>1609.4000244140625</AltitudeMeters>
            <DistanceMeters>NAN</DistanceMeters>
          </Trackpoint>
          <Trackpoint>
            <Time>2018-12-30T13:34:49.000Z</Time>
            <Position>
              <LatitudeDegrees>40.7501321844756603240966796875</LatitudeDegrees>
              <LongitudeDegrees>-4.08978964202105998992919921875</LongitudeDegrees>
            </Position>
            <AltitudeMeters>1609.4000244140625</AltitudeMeters>
            <DistanceMeters>NAN</DistanceMeters>
          </Trackpoint>
          <Trackpoint>
            <Time>2018-12-30T13:34:50.000Z</Time>
            <Position>
              <LatitudeDegrees>40.75014199130237102508544921875</LatitudeDegrees>
              <LongitudeDegrees>-4.0897774882614612579345703125</LongitudeDegrees>
            </Position>
            <AltitudeMeters>1609.199951171875</AltitudeMeters>
            <DistanceMeters>NAN</DistanceMeters>
          </Trackpoint>
          <Trackpoint>
            <Time>2018-12-30T13:34:51.000Z</Time>
            <Position>
              <LatitudeDegrees>40.750139057636260986328125</LatitudeDegrees>
              <LongitudeDegrees>-4.08977706916630268096923828125</LongitudeDegrees>
            </Position>
            <AltitudeMeters>1609</AltitudeMeters>
            <DistanceMeters>NAN</DistanceMeters>
          </Trackpoint>
          <Trackpoint>
            <Time>2018-12-30T13:34:52.000Z</Time>
            <Position>
              <LatitudeDegrees>40.7501398958265781402587890625</LatitudeDegrees>
              <LongitudeDegrees>-4.0897838585078716278076171875</LongitudeDegrees>
            </Position>
            <AltitudeMeters>1609</AltitudeMeters>
            <DistanceMeters>NAN</DistanceMeters>
          </Trackpoint>
          <Trackpoint>
            <Time>2018-12-30T13:34:53.000Z</Time>
            <Position>
              <LatitudeDegrees>40.75014769099652767181396484375</LatitudeDegrees>
              <LongitudeDegrees>-4.0897801704704761505126953125</LongitudeDegrees>
            </Position>
            <AltitudeMeters>1608.800048828125</AltitudeMeters>
            <DistanceMeters>NAN</DistanceMeters>
          </Trackpoint>
          <Trackpoint>
            <Time>2018-12-30T13:34:54.000Z</Time>
            <Position>
              <LatitudeDegrees>40.75015942566096782684326171875</LatitudeDegrees>
              <LongitudeDegrees>-4.08977539278566837310791015625</LongitudeDegrees>
            </Position>
            <AltitudeMeters>1608.5999755859375</AltitudeMeters>
            <DistanceMeters>NAN</DistanceMeters>
          </Trackpoint>
          <Trackpoint>
            <Time>2018-12-30T13:34:55.000Z</Time>
            <Position>
              <LatitudeDegrees>40.75016277842223644256591796875</LatitudeDegrees>
              <LongitudeDegrees>-4.0897727943956851959228515625</LongitudeDegrees>
            </Position>
            <AltitudeMeters>1608.199951171875</AltitudeMeters>
            <DistanceMeters>NAN</DistanceMeters>
          </Trackpoint>
          <Trackpoint>
            <Time>2018-12-30T13:34:56.000Z</Time>
            <Position>
              <LatitudeDegrees>40.75015976093709468841552734375</LatitudeDegrees>
              <LongitudeDegrees>-4.0897707827389240264892578125</LongitudeDegrees>
            </Position>
            <AltitudeMeters>1607.800048828125</AltitudeMeters>
            <DistanceMeters>NAN</DistanceMeters>
          </Trackpoint>
          <Trackpoint>
            <Time>2018-12-30T13:34:57.000Z</Time>
            <Position>
              <LatitudeDegrees>40.75015984475612640380859375</LatitudeDegrees>
              <LongitudeDegrees>-4.0897647477686405181884765625</LongitudeDegrees>
            </Position>
            <AltitudeMeters>1607.5999755859375</AltitudeMeters>
            <DistanceMeters>NAN</DistanceMeters>
          </Trackpoint>
          <Trackpoint>
            <Time>2018-12-30T13:34:58.000Z</Time>
            <Position>
              <LatitudeDegrees>40.75016026385128498077392578125</LatitudeDegrees>
              <LongitudeDegrees>-4.0897627361118793487548828125</LongitudeDegrees>
            </Position>
            <AltitudeMeters>1607.5999755859375</AltitudeMeters>
            <DistanceMeters>NAN</DistanceMeters>
          </Trackpoint>
          <Trackpoint>
            <Time>2018-12-30T13:34:59.000Z</Time>
            <Position>
              <LatitudeDegrees>40.7501653768122196197509765625</LatitudeDegrees>
              <LongitudeDegrees>-4.089760892093181610107421875</LongitudeDegrees>
            </Position>
            <AltitudeMeters>1607.199951171875</AltitudeMeters>
            <DistanceMeters>NAN</DistanceMeters>
          </Trackpoint>
          <Trackpoint>
            <Time>2018-12-30T13:35:00.000Z</Time>
            <Position>
              <LatitudeDegrees>40.750168897211551666259765625</LatitudeDegrees>
              <LongitudeDegrees>-4.0897590480744838714599609375</LongitudeDegrees>
            </Position>
            <AltitudeMeters>1607.4000244140625</AltitudeMeters>
            <DistanceMeters>NAN</DistanceMeters>
          </Trackpoint>
          <Trackpoint>
            <Time>2018-12-30T13:35:01.000Z</Time>
            <Position>
              <LatitudeDegrees>40.7501841522753238677978515625</LatitudeDegrees>
              <LongitudeDegrees>-4.089756868779659271240234375</LongitudeDegrees>
            </Position>
            <AltitudeMeters>1607.4000244140625</AltitudeMeters>
            <DistanceMeters>NAN</DistanceMeters>
          </Trackpoint>
          <Trackpoint>
            <Time>2018-12-30T13:35:02.000Z</Time>
            <Position>
              <LatitudeDegrees>40.75019739568233489990234375</LatitudeDegrees>
              <LongitudeDegrees>-4.08975879661738872528076171875</LongitudeDegrees>
            </Position>
            <AltitudeMeters>1607.4000244140625</AltitudeMeters>
            <DistanceMeters>NAN</DistanceMeters>
          </Trackpoint>
          <Trackpoint>
            <Time>2018-12-30T13:35:03.000Z</Time>
            <Position>
              <LatitudeDegrees>40.75020820833742618560791015625</LatitudeDegrees>
              <LongitudeDegrees>-4.08975921571254730224609375</LongitudeDegrees>
            </Position>
            <AltitudeMeters>1607</AltitudeMeters>
            <DistanceMeters>NAN</DistanceMeters>
          </Trackpoint>
          <Trackpoint>
            <Time>2018-12-30T13:35:04.000Z</Time>
            <Position>
              <LatitudeDegrees>40.75021591968834400177001953125</LatitudeDegrees>
              <LongitudeDegrees>-4.08975695259869098663330078125</LongitudeDegrees>
            </Position>
            <AltitudeMeters>1606.800048828125</AltitudeMeters>
            <DistanceMeters>NAN</DistanceMeters>
          </Trackpoint>
          <Trackpoint>
            <Time>2018-12-30T13:35:05.000Z</Time>
            <Position>
              <LatitudeDegrees>40.75022145174443721771240234375</LatitudeDegrees>
              <LongitudeDegrees>-4.0897590480744838714599609375</LongitudeDegrees>
            </Position>
            <AltitudeMeters>1606.5999755859375</AltitudeMeters>
            <DistanceMeters>NAN</DistanceMeters>
          </Trackpoint>
          <Trackpoint>
            <Time>2018-12-30T13:35:06.000Z</Time>
            <Position>
              <LatitudeDegrees>40.75022564269602298736572265625</LatitudeDegrees>
              <LongitudeDegrees>-4.08976332284510135650634765625</LongitudeDegrees>
            </Position>
            <AltitudeMeters>1606.5999755859375</AltitudeMeters>
            <DistanceMeters>NAN</DistanceMeters>
          </Trackpoint>
          <Trackpoint>
            <Time>2018-12-30T13:35:07.000Z</Time>
            <Position>
              <LatitudeDegrees>40.75022958219051361083984375</LatitudeDegrees>
              <LongitudeDegrees>-4.0897684358060359954833984375</LongitudeDegrees>
            </Position>
            <AltitudeMeters>1606.4000244140625</AltitudeMeters>
            <DistanceMeters>NAN</DistanceMeters>
          </Trackpoint>
          <Trackpoint>
            <Time>2018-12-30T13:35:08.000Z</Time>
            <Position>
              <LatitudeDegrees>40.7502367906272411346435546875</LatitudeDegrees>
              <LongitudeDegrees>-4.08977589569985866546630859375</LongitudeDegrees>
            </Position>
            <AltitudeMeters>1606.199951171875</AltitudeMeters>
            <DistanceMeters>NAN</DistanceMeters>
          </Trackpoint>
          <Trackpoint>
            <Time>2018-12-30T13:35:09.000Z</Time>
            <Position>
              <LatitudeDegrees>40.75024307705461978912353515625</LatitudeDegrees>
              <LongitudeDegrees>-4.08977841027081012725830078125</LongitudeDegrees>
            </Position>
            <AltitudeMeters>1606</AltitudeMeters>
            <DistanceMeters>NAN</DistanceMeters>
          </Trackpoint>
          <Trackpoint>
            <Time>2018-12-30T13:35:10.000Z</Time>
            <Position>
              <LatitudeDegrees>40.75026939623057842254638671875</LatitudeDegrees>
              <LongitudeDegrees>-4.0897808410227298736572265625</LongitudeDegrees>
            </Position>
            <AltitudeMeters>1605.5999755859375</AltitudeMeters>
            <DistanceMeters>NAN</DistanceMeters>
          </Trackpoint>
          <Trackpoint>
            <Time>2018-12-30T13:35:11.000Z</Time>
            <Position>
              <LatitudeDegrees>40.750283561646938323974609375</LatitudeDegrees>
              <LongitudeDegrees>-4.089774303138256072998046875</LongitudeDegrees>
            </Position>
            <AltitudeMeters>1605.4000244140625</AltitudeMeters>
            <DistanceMeters>NAN</DistanceMeters>
          </Trackpoint>
          <Trackpoint>
            <Time>2018-12-30T13:35:12.000Z</Time>
            <Position>
              <LatitudeDegrees>40.75029286555945873260498046875</LatitudeDegrees>
              <LongitudeDegrees>-4.08977304585278034210205078125</LongitudeDegrees>
            </Position>
            <AltitudeMeters>1605.199951171875</AltitudeMeters>
            <DistanceMeters>NAN</DistanceMeters>
          </Trackpoint>
          <Trackpoint>
            <Time>2018-12-30T13:35:13.000Z</Time>
            <Position>
              <LatitudeDegrees>40.7502973079681396484375</LatitudeDegrees>
              <LongitudeDegrees>-4.0897677652537822723388671875</LongitudeDegrees>
            </Position>
            <AltitudeMeters>1605</AltitudeMeters>
            <DistanceMeters>NAN</DistanceMeters>
          </Trackpoint>
          <Trackpoint>
            <Time>2018-12-30T13:35:14.000Z</Time>
            <Position>
              <LatitudeDegrees>40.7503038458526134490966796875</LatitudeDegrees>
              <LongitudeDegrees>-4.08975929953157901763916015625</LongitudeDegrees>
            </Position>
            <AltitudeMeters>1605</AltitudeMeters>
            <DistanceMeters>NAN</DistanceMeters>
          </Trackpoint>
          <Trackpoint>
            <Time>2018-12-30T13:35:15.000Z</Time>
            <Position>
              <LatitudeDegrees>40.75030275620520114898681640625</LatitudeDegrees>
              <LongitudeDegrees>-4.0897580422461032867431640625</LongitudeDegrees>
            </Position>
            <AltitudeMeters>1604.800048828125</AltitudeMeters>
            <DistanceMeters>NAN</DistanceMeters>
          </Trackpoint>
          <Trackpoint>
            <Time>2018-12-30T13:35:16.000Z</Time>
            <Position>
              <LatitudeDegrees>40.75030124746263027191162109375</LatitudeDegrees>
              <LongitudeDegrees>-4.08975343219935894012451171875</LongitudeDegrees>
            </Position>
            <AltitudeMeters>1604.5999755859375</AltitudeMeters>
            <DistanceMeters>NAN</DistanceMeters>
          </Trackpoint>
          <Trackpoint>
            <Time>2018-12-30T13:35:17.000Z</Time>
            <Position>
              <LatitudeDegrees>40.750299654901027679443359375</LatitudeDegrees>
              <LongitudeDegrees>-4.089752845466136932373046875</LongitudeDegrees>
            </Position>
            <AltitudeMeters>1604.5999755859375</AltitudeMeters>
            <DistanceMeters>NAN</DistanceMeters>
          </Trackpoint>
          <Trackpoint>
            <Time>2018-12-30T13:35:18.000Z</Time>
            <Position>
              <LatitudeDegrees>40.7502968050539493560791015625</LatitudeDegrees>
              <LongitudeDegrees>-4.089756198227405548095703125</LongitudeDegrees>
            </Position>
            <AltitudeMeters>1604.5999755859375</AltitudeMeters>
            <DistanceMeters>NAN</DistanceMeters>
          </Trackpoint>
          <Trackpoint>
            <Time>2018-12-30T13:35:19.000Z</Time>
            <Position>
              <LatitudeDegrees>40.7502984814345836639404296875</LatitudeDegrees>
              <LongitudeDegrees>-4.08975795842707157135009765625</LongitudeDegrees>
            </Position>
            <AltitudeMeters>1604.5999755859375</AltitudeMeters>
            <DistanceMeters>NAN</DistanceMeters>
          </Trackpoint>
          <Trackpoint>
            <Time>2018-12-30T13:35:20.000Z</Time>
            <Position>
              <LatitudeDegrees>40.7502988167107105255126953125</LatitudeDegrees>
              <LongitudeDegrees>-4.0897640772163867950439453125</LongitudeDegrees>
            </Position>
            <AltitudeMeters>1604.5999755859375</AltitudeMeters>
            <DistanceMeters>NAN</DistanceMeters>
          </Trackpoint>
          <Trackpoint>
            <Time>2018-12-30T13:35:21.000Z</Time>
            <Position>
              <LatitudeDegrees>40.7502974756062030792236328125</LatitudeDegrees>
              <LongitudeDegrees>-4.08977069891989231109619140625</LongitudeDegrees>
            </Position>
            <AltitudeMeters>1604.800048828125</AltitudeMeters>
            <DistanceMeters>NAN</DistanceMeters>
          </Trackpoint>
          <Trackpoint>
            <Time>2018-12-30T13:35:22.000Z</Time>
            <Position>
              <LatitudeDegrees>40.750299654901027679443359375</LatitudeDegrees>
              <LongitudeDegrees>-4.0897657535970211029052734375</LongitudeDegrees>
            </Position>
            <AltitudeMeters>1604.800048828125</AltitudeMeters>
            <DistanceMeters>NAN</DistanceMeters>
          </Trackpoint>
          <Trackpoint>
            <Time>2018-12-30T13:35:23.000Z</Time>
            <Position>
              <LatitudeDegrees>40.750296302139759063720703125</LatitudeDegrees>
              <LongitudeDegrees>-4.0897587127983570098876953125</LongitudeDegrees>
            </Position>
            <AltitudeMeters>1605</AltitudeMeters>
            <DistanceMeters>NAN</DistanceMeters>
          </Trackpoint>
          <Trackpoint>
            <Time>2018-12-30T13:35:24.000Z</Time>
            <Position>
              <LatitudeDegrees>40.7502964697778224945068359375</LatitudeDegrees>
              <LongitudeDegrees>-4.08973834477365016937255859375</LongitudeDegrees>
            </Position>
            <AltitudeMeters>1604.800048828125</AltitudeMeters>
            <DistanceMeters>NAN</DistanceMeters>
          </Trackpoint>
          <Trackpoint>
            <Time>2018-12-30T13:35:25.000Z</Time>
            <Position>
              <LatitudeDegrees>40.75029353611171245574951171875</LatitudeDegrees>
              <LongitudeDegrees>-4.0897209942340850830078125</LongitudeDegrees>
            </Position>
            <AltitudeMeters>1604.800048828125</AltitudeMeters>
            <DistanceMeters>NAN</DistanceMeters>
          </Trackpoint>
          <Trackpoint>
            <Time>2018-12-30T13:35:26.000Z</Time>
            <Position>
              <LatitudeDegrees>40.750282891094684600830078125</LatitudeDegrees>
              <LongitudeDegrees>-4.08971185795962810516357421875</LongitudeDegrees>
            </Position>
            <AltitudeMeters>1604.5999755859375</AltitudeMeters>
            <DistanceMeters>NAN</DistanceMeters>
          </Trackpoint>
          <Trackpoint>
            <Time>2018-12-30T13:35:27.000Z</Time>
            <Position>
              <LatitudeDegrees>40.75027878396213054656982421875</LatitudeDegrees>
              <LongitudeDegrees>-4.08969861455261707305908203125</LongitudeDegrees>
            </Position>
            <AltitudeMeters>1604.4000244140625</AltitudeMeters>
            <DistanceMeters>NAN</DistanceMeters>
          </Trackpoint>
          <Trackpoint>
            <Time>2018-12-30T13:35:28.000Z</Time>
            <Position>
              <LatitudeDegrees>40.75027677230536937713623046875</LatitudeDegrees>
              <LongitudeDegrees>-4.08968143165111541748046875</LongitudeDegrees>
            </Position>
            <AltitudeMeters>1604</AltitudeMeters>
            <DistanceMeters>NAN</DistanceMeters>
          </Trackpoint>
          <Trackpoint>
            <Time>2018-12-30T13:35:29.000Z</Time>
            <Position>
              <LatitudeDegrees>40.75027459301054477691650390625</LatitudeDegrees>
              <LongitudeDegrees>-4.08967070281505584716796875</LongitudeDegrees>
            </Position>
            <AltitudeMeters>1603.800048828125</AltitudeMeters>
            <DistanceMeters>NAN</DistanceMeters>
          </Trackpoint>
          <Trackpoint>
            <Time>2018-12-30T13:35:30.000Z</Time>
            <Position>
              <LatitudeDegrees>40.75027442537248134613037109375</LatitudeDegrees>
              <LongitudeDegrees>-4.0896577946841716766357421875</LongitudeDegrees>
            </Position>
            <AltitudeMeters>1603.5999755859375</AltitudeMeters>
            <DistanceMeters>NAN</DistanceMeters>
          </Trackpoint>
          <Trackpoint>
            <Time>2018-12-30T13:35:31.000Z</Time>
            <Position>
              <LatitudeDegrees>40.75026939623057842254638671875</LatitudeDegrees>
              <LongitudeDegrees>-4.08964614383876323699951171875</LongitudeDegrees>
            </Position>
            <AltitudeMeters>1603.4000244140625</AltitudeMeters>
            <DistanceMeters>NAN</DistanceMeters>
          </Trackpoint>
          <Trackpoint>
            <Time>2018-12-30T13:35:32.000Z</Time>
            <Position>
              <LatitudeDegrees>40.75026445090770721435546875</LatitudeDegrees>
              <LongitudeDegrees>-4.08963809721171855926513671875</LongitudeDegrees>
            </Position>
            <AltitudeMeters>1603.199951171875</AltitudeMeters>
            <DistanceMeters>NAN</DistanceMeters>
          </Trackpoint>
          <Trackpoint>
            <Time>2018-12-30T13:35:33.000Z</Time>
            <Position>
              <LatitudeDegrees>40.75023972429335117340087890625</LatitudeDegrees>
              <LongitudeDegrees>-4.08963893540203571319580078125</LongitudeDegrees>
            </Position>
            <AltitudeMeters>1603.199951171875</AltitudeMeters>
            <DistanceMeters>NAN</DistanceMeters>
          </Trackpoint>
          <Trackpoint>
            <Time>2018-12-30T13:35:34.000Z</Time>
            <Position>
              <LatitudeDegrees>40.7502267323434352874755859375</LatitudeDegrees>
              <LongitudeDegrees>-4.08963608555495738983154296875</LongitudeDegrees>
            </Position>
            <AltitudeMeters>1603</AltitudeMeters>
            <DistanceMeters>NAN</DistanceMeters>
          </Trackpoint>
          <Trackpoint>
            <Time>2018-12-30T13:35:35.000Z</Time>
            <Position>
              <LatitudeDegrees>40.75022245757281780242919921875</LatitudeDegrees>
              <LongitudeDegrees>-4.089628793299198150634765625</LongitudeDegrees>
            </Position>
            <AltitudeMeters>1602.5999755859375</AltitudeMeters>
            <DistanceMeters>NAN</DistanceMeters>
          </Trackpoint>
          <Trackpoint>
            <Time>2018-12-30T13:35:36.000Z</Time>
            <Position>
              <LatitudeDegrees>40.7502208650112152099609375</LatitudeDegrees>
              <LongitudeDegrees>-4.08962284214794635772705078125</LongitudeDegrees>
            </Position>
            <AltitudeMeters>1602.4000244140625</AltitudeMeters>
            <DistanceMeters>NAN</DistanceMeters>
          </Trackpoint>
          <Trackpoint>
            <Time>2018-12-30T13:35:37.000Z</Time>
            <Position>
              <LatitudeDegrees>40.7502227090299129486083984375</LatitudeDegrees>
              <LongitudeDegrees>-4.08961311914026737213134765625</LongitudeDegrees>
            </Position>
            <AltitudeMeters>1602</AltitudeMeters>
            <DistanceMeters>NAN</DistanceMeters>
          </Trackpoint>
          <Trackpoint>
            <Time>2018-12-30T13:35:38.000Z</Time>
            <Position>
              <LatitudeDegrees>40.75022195465862751007080078125</LatitudeDegrees>
              <LongitudeDegrees>-4.08960104919970035552978515625</LongitudeDegrees>
            </Position>
            <AltitudeMeters>1601.5999755859375</AltitudeMeters>
            <DistanceMeters>NAN</DistanceMeters>
          </Trackpoint>
          <Trackpoint>
            <Time>2018-12-30T13:35:39.000Z</Time>
            <Position>
              <LatitudeDegrees>40.7502200268208980560302734375</LatitudeDegrees>
              <LongitudeDegrees>-4.08959266729652881622314453125</LongitudeDegrees>
            </Position>
            <AltitudeMeters>1601.4000244140625</AltitudeMeters>
            <DistanceMeters>NAN</DistanceMeters>
          </Trackpoint>
          <Trackpoint>
            <Time>2018-12-30T13:35:40.000Z</Time>
            <Position>
              <LatitudeDegrees>40.750217847526073455810546875</LatitudeDegrees>
              <LongitudeDegrees>-4.08957875333726406097412109375</LongitudeDegrees>
            </Position>
            <AltitudeMeters>1601.199951171875</AltitudeMeters>
            <DistanceMeters>NAN</DistanceMeters>
          </Trackpoint>
          <Trackpoint>
            <Time>2018-12-30T13:35:41.000Z</Time>
            <Position>
              <LatitudeDegrees>40.75021776370704174041748046875</LatitudeDegrees>
              <LongitudeDegrees>-4.089562408626079559326171875</LongitudeDegrees>
            </Position>
            <AltitudeMeters>1601</AltitudeMeters>
            <DistanceMeters>NAN</DistanceMeters>
          </Trackpoint>
          <Trackpoint>
            <Time>2018-12-30T13:35:42.000Z</Time>
            <Position>
              <LatitudeDegrees>40.7502103038132190704345703125</LatitudeDegrees>
              <LongitudeDegrees>-4.0895511768758296966552734375</LongitudeDegrees>
            </Position>
            <AltitudeMeters>1601</AltitudeMeters>
            <DistanceMeters>NAN</DistanceMeters>
          </Trackpoint>
          <Trackpoint>
            <Time>2018-12-30T13:35:43.000Z</Time>
            <Position>
              <LatitudeDegrees>40.7502047717571258544921875</LatitudeDegrees>
              <LongitudeDegrees>-4.08954505808651447296142578125</LongitudeDegrees>
            </Position>
            <AltitudeMeters>1601</AltitudeMeters>
            <DistanceMeters>NAN</DistanceMeters>
          </Trackpoint>
          <Trackpoint>
            <Time>2018-12-30T13:35:44.000Z</Time>
            <Position>
              <LatitudeDegrees>40.75020141899585723876953125</LatitudeDegrees>
              <LongitudeDegrees>-4.08953659236431121826171875</LongitudeDegrees>
            </Position>
            <AltitudeMeters>1601</AltitudeMeters>
            <DistanceMeters>NAN</DistanceMeters>
          </Trackpoint>
          <Trackpoint>
            <Time>2018-12-30T13:35:45.000Z</Time>
            <Position>
              <LatitudeDegrees>40.7501972280442714691162109375</LatitudeDegrees>
              <LongitudeDegrees>-4.08953214995563030242919921875</LongitudeDegrees>
            </Position>
            <AltitudeMeters>1601</AltitudeMeters>
            <DistanceMeters>NAN</DistanceMeters>
          </Trackpoint>
          <Trackpoint>
            <Time>2018-12-30T13:35:46.000Z</Time>
            <Position>
              <LatitudeDegrees>40.75019865296781063079833984375</LatitudeDegrees>
              <LongitudeDegrees>-4.089514128863811492919921875</LongitudeDegrees>
            </Position>
            <AltitudeMeters>1600.800048828125</AltitudeMeters>
            <DistanceMeters>NAN</DistanceMeters>
          </Trackpoint>
          <Trackpoint>
            <Time>2018-12-30T13:35:47.000Z</Time>
            <Position>
              <LatitudeDegrees>40.75020636431872844696044921875</LatitudeDegrees>
              <LongitudeDegrees>-4.08950599841773509979248046875</LongitudeDegrees>
            </Position>
            <AltitudeMeters>1600.5999755859375</AltitudeMeters>
            <DistanceMeters>NAN</DistanceMeters>
          </Trackpoint>
          <Trackpoint>
            <Time>2018-12-30T13:35:48.000Z</Time>
            <Position>
              <LatitudeDegrees>40.75021374039351940155029296875</LatitudeDegrees>
              <LongitudeDegrees>-4.0895010530948638916015625</LongitudeDegrees>
            </Position>
            <AltitudeMeters>1600.4000244140625</AltitudeMeters>
            <DistanceMeters>NAN</DistanceMeters>
          </Trackpoint>
          <Trackpoint>
            <Time>2018-12-30T13:35:49.000Z</Time>
            <Position>
              <LatitudeDegrees>40.75021742843091487884521484375</LatitudeDegrees>
              <LongitudeDegrees>-4.08949543721973896026611328125</LongitudeDegrees>
            </Position>
            <AltitudeMeters>1600.4000244140625</AltitudeMeters>
            <DistanceMeters>NAN</DistanceMeters>
          </Trackpoint>
          <Trackpoint>
            <Time>2018-12-30T13:35:50.000Z</Time>
            <Position>
              <LatitudeDegrees>40.7502181828022003173828125</LatitudeDegrees>
              <LongitudeDegrees>-4.08948563039302825927734375</LongitudeDegrees>
            </Position>
            <AltitudeMeters>1600.199951171875</AltitudeMeters>
            <DistanceMeters>NAN</DistanceMeters>
          </Trackpoint>
          <Trackpoint>
            <Time>2018-12-30T13:35:51.000Z</Time>
            <Position>
              <LatitudeDegrees>40.75021625496447086334228515625</LatitudeDegrees>
              <LongitudeDegrees>-4.0894707106053829193115234375</LongitudeDegrees>
            </Position>
            <AltitudeMeters>1600</AltitudeMeters>
            <DistanceMeters>NAN</DistanceMeters>
          </Trackpoint>
          <Trackpoint>
            <Time>2018-12-30T13:35:52.000Z</Time>
            <Position>
              <LatitudeDegrees>40.75021776370704174041748046875</LatitudeDegrees>
              <LongitudeDegrees>-4.0894650109112262725830078125</LongitudeDegrees>
            </Position>
            <AltitudeMeters>1599.5999755859375</AltitudeMeters>
            <DistanceMeters>NAN</DistanceMeters>
          </Trackpoint>
          <Trackpoint>
            <Time>2018-12-30T13:35:53.000Z</Time>
            <Position>
              <LatitudeDegrees>40.7502136565744876861572265625</LatitudeDegrees>
              <LongitudeDegrees>-4.0894515998661518096923828125</LongitudeDegrees>
            </Position>
            <AltitudeMeters>1599.4000244140625</AltitudeMeters>
            <DistanceMeters>NAN</DistanceMeters>
          </Trackpoint>
          <Trackpoint>
            <Time>2018-12-30T13:35:54.000Z</Time>
            <Position>
              <LatitudeDegrees>40.750215165317058563232421875</LatitudeDegrees>
              <LongitudeDegrees>-4.08943626098334789276123046875</LongitudeDegrees>
            </Position>
            <AltitudeMeters>1599</AltitudeMeters>
            <DistanceMeters>NAN</DistanceMeters>
          </Trackpoint>
          <Trackpoint>
            <Time>2018-12-30T13:35:55.000Z</Time>
            <Position>
              <LatitudeDegrees>40.7502113096415996551513671875</LatitudeDegrees>
              <LongitudeDegrees>-4.089422263205051422119140625</LongitudeDegrees>
            </Position>
            <AltitudeMeters>1598.800048828125</AltitudeMeters>
            <DistanceMeters>NAN</DistanceMeters>
          </Trackpoint>
          <Trackpoint>
            <Time>2018-12-30T13:35:56.000Z</Time>
            <Position>
              <LatitudeDegrees>40.75020753778517246246337890625</LatitudeDegrees>
              <LongitudeDegrees>-4.089406840503215789794921875</LongitudeDegrees>
            </Position>
            <AltitudeMeters>1598.4000244140625</AltitudeMeters>
            <DistanceMeters>NAN</DistanceMeters>
          </Trackpoint>
          <Trackpoint>
            <Time>2018-12-30T13:35:57.000Z</Time>
            <Position>
              <LatitudeDegrees>40.75021189637482166290283203125</LatitudeDegrees>
              <LongitudeDegrees>-4.089388735592365264892578125</LongitudeDegrees>
            </Position>
            <AltitudeMeters>1598.199951171875</AltitudeMeters>
            <DistanceMeters>NAN</DistanceMeters>
          </Trackpoint>
          <Trackpoint>
            <Time>2018-12-30T13:35:58.000Z</Time>
            <Position>
              <LatitudeDegrees>40.7502129860222339630126953125</LatitudeDegrees>
              <LongitudeDegrees>-4.08937255851924419403076171875</LongitudeDegrees>
            </Position>
            <AltitudeMeters>1598</AltitudeMeters>
            <DistanceMeters>NAN</DistanceMeters>
          </Trackpoint>
          <Trackpoint>
            <Time>2018-12-30T13:35:59.000Z</Time>
            <Position>
              <LatitudeDegrees>40.75021751224994659423828125</LatitudeDegrees>
              <LongitudeDegrees>-4.089343808591365814208984375</LongitudeDegrees>
            </Position>
            <AltitudeMeters>1597.800048828125</AltitudeMeters>
            <DistanceMeters>NAN</DistanceMeters>
          </Trackpoint>
          <Trackpoint>
            <Time>2018-12-30T13:36:00.000Z</Time>
            <Position>
              <LatitudeDegrees>40.750219859182834625244140625</LatitudeDegrees>
              <LongitudeDegrees>-4.08933810889720916748046875</LongitudeDegrees>
            </Position>
            <AltitudeMeters>1597.800048828125</AltitudeMeters>
            <DistanceMeters>NAN</DistanceMeters>
          </Trackpoint>
          <Trackpoint>
            <Time>2018-12-30T13:36:01.000Z</Time>
            <Position>
              <LatitudeDegrees>40.7502223737537860870361328125</LatitudeDegrees>
              <LongitudeDegrees>-4.08933768980205059051513671875</LongitudeDegrees>
            </Position>
            <AltitudeMeters>1597.800048828125</AltitudeMeters>
            <DistanceMeters>NAN</DistanceMeters>
          </Trackpoint>
          <Trackpoint>
            <Time>2018-12-30T13:36:02.000Z</Time>
            <Position>
              <LatitudeDegrees>40.7502235472202301025390625</LatitudeDegrees>
              <LongitudeDegrees>-4.089339114725589752197265625</LongitudeDegrees>
            </Position>
            <AltitudeMeters>1597.800048828125</AltitudeMeters>
            <DistanceMeters>NAN</DistanceMeters>
          </Trackpoint>
          <Trackpoint>
            <Time>2018-12-30T13:36:03.000Z</Time>
            <Position>
              <LatitudeDegrees>40.7502260617911815643310546875</LatitudeDegrees>
              <LongitudeDegrees>-4.08934439532458782196044921875</LongitudeDegrees>
            </Position>
            <AltitudeMeters>1597.5999755859375</AltitudeMeters>
            <DistanceMeters>NAN</DistanceMeters>
          </Trackpoint>
          <Trackpoint>
            <Time>2018-12-30T13:36:04.000Z</Time>
            <Position>
              <LatitudeDegrees>40.75022346340119838714599609375</LatitudeDegrees>
              <LongitudeDegrees>-4.08934858627617359161376953125</LongitudeDegrees>
            </Position>
            <AltitudeMeters>1597.5999755859375</AltitudeMeters>
            <DistanceMeters>NAN</DistanceMeters>
          </Trackpoint>
          <Trackpoint>
            <Time>2018-12-30T13:36:05.000Z</Time>
            <Position>
              <LatitudeDegrees>40.75022178702056407928466796875</LatitudeDegrees>
              <LongitudeDegrees>-4.08934590406715869903564453125</LongitudeDegrees>
            </Position>
            <AltitudeMeters>1597.5999755859375</AltitudeMeters>
            <DistanceMeters>NAN</DistanceMeters>
          </Trackpoint>
          <Trackpoint>
            <Time>2018-12-30T13:36:06.000Z</Time>
            <Position>
              <LatitudeDegrees>40.75022715143859386444091796875</LatitudeDegrees>
              <LongitudeDegrees>-4.08933852799236774444580078125</LongitudeDegrees>
            </Position>
            <AltitudeMeters>1597.4000244140625</AltitudeMeters>
            <DistanceMeters>NAN</DistanceMeters>
          </Trackpoint>
          <Trackpoint>
            <Time>2018-12-30T13:36:07.000Z</Time>
            <Position>
              <LatitudeDegrees>40.750235952436923980712890625</LatitudeDegrees>
              <LongitudeDegrees>-4.0893280506134033203125</LongitudeDegrees>
            </Position>
            <AltitudeMeters>1597.4000244140625</AltitudeMeters>
            <DistanceMeters>NAN</DistanceMeters>
          </Trackpoint>
          <Trackpoint>
            <Time>2018-12-30T13:36:08.000Z</Time>
            <Position>
              <LatitudeDegrees>40.75024240650236606597900390625</LatitudeDegrees>
              <LongitudeDegrees>-4.08931933343410491943359375</LongitudeDegrees>
            </Position>
            <AltitudeMeters>1597.199951171875</AltitudeMeters>
            <DistanceMeters>NAN</DistanceMeters>
          </Trackpoint>
          <Trackpoint>
            <Time>2018-12-30T13:36:09.000Z</Time>
            <Position>
              <LatitudeDegrees>40.75025238096714019775390625</LatitudeDegrees>
              <LongitudeDegrees>-4.0893070958554744720458984375</LongitudeDegrees>
            </Position>
            <AltitudeMeters>1597</AltitudeMeters>
            <DistanceMeters>NAN</DistanceMeters>
          </Trackpoint>
          <Trackpoint>
            <Time>2018-12-30T13:36:10.000Z</Time>
            <Position>
              <LatitudeDegrees>40.75026688165962696075439453125</LatitudeDegrees>
              <LongitudeDegrees>-4.089292846620082855224609375</LongitudeDegrees>
            </Position>
            <AltitudeMeters>1597</AltitudeMeters>
            <DistanceMeters>NAN</DistanceMeters>
          </Trackpoint>
          <Trackpoint>
            <Time>2018-12-30T13:36:11.000Z</Time>
            <Position>
              <LatitudeDegrees>40.75027828104794025421142578125</LatitudeDegrees>
              <LongitudeDegrees>-4.08928069286048412322998046875</LongitudeDegrees>
            </Position>
            <AltitudeMeters>1596.800048828125</AltitudeMeters>
            <DistanceMeters>NAN</DistanceMeters>
          </Trackpoint>
          <Trackpoint>
            <Time>2018-12-30T13:36:12.000Z</Time>
            <Position>
              <LatitudeDegrees>40.7502890937030315399169921875</LatitudeDegrees>
              <LongitudeDegrees>-4.089270047843456268310546875</LongitudeDegrees>
            </Position>
            <AltitudeMeters>1596.5999755859375</AltitudeMeters>
            <DistanceMeters>NAN</DistanceMeters>
          </Trackpoint>
          <Trackpoint>
            <Time>2018-12-30T13:36:13.000Z</Time>
            <Position>
              <LatitudeDegrees>40.75029605068266391754150390625</LatitudeDegrees>
              <LongitudeDegrees>-4.08925990574061870574951171875</LongitudeDegrees>
            </Position>
            <AltitudeMeters>1596.5999755859375</AltitudeMeters>
            <DistanceMeters>NAN</DistanceMeters>
          </Trackpoint>
          <Trackpoint>
            <Time>2018-12-30T13:36:14.000Z</Time>
            <Position>
              <LatitudeDegrees>40.750298984348773956298828125</LatitudeDegrees>
              <LongitudeDegrees>-4.08924381248652935028076171875</LongitudeDegrees>
            </Position>
            <AltitudeMeters>1596.199951171875</AltitudeMeters>
            <DistanceMeters>NAN</DistanceMeters>
          </Trackpoint>
          <Trackpoint>
            <Time>2018-12-30T13:36:15.000Z</Time>
            <Position>
              <LatitudeDegrees>40.7503025047481060028076171875</LatitudeDegrees>
              <LongitudeDegrees>-4.08922989852726459503173828125</LongitudeDegrees>
            </Position>
            <AltitudeMeters>1595.800048828125</AltitudeMeters>
            <DistanceMeters>NAN</DistanceMeters>
          </Trackpoint>
          <Trackpoint>
            <Time>2018-12-30T13:36:16.000Z</Time>
            <Position>
              <LatitudeDegrees>40.75030476786196231842041015625</LatitudeDegrees>
              <LongitudeDegrees>-4.08921338617801666259765625</LongitudeDegrees>
            </Position>
            <AltitudeMeters>1595.5999755859375</AltitudeMeters>
            <DistanceMeters>NAN</DistanceMeters>
          </Trackpoint>
          <Trackpoint>
            <Time>2018-12-30T13:36:17.000Z</Time>
            <Position>
              <LatitudeDegrees>40.75031130574643611907958984375</LatitudeDegrees>
              <LongitudeDegrees>-4.08920357935130596160888671875</LongitudeDegrees>
            </Position>
            <AltitudeMeters>1595.199951171875</AltitudeMeters>
            <DistanceMeters>NAN</DistanceMeters>
          </Trackpoint>
          <Trackpoint>
            <Time>2018-12-30T13:36:18.000Z</Time>
            <Position>
              <LatitudeDegrees>40.7503159157931804656982421875</LatitudeDegrees>
              <LongitudeDegrees>-4.08919536508619785308837890625</LongitudeDegrees>
            </Position>
            <AltitudeMeters>1595</AltitudeMeters>
            <DistanceMeters>NAN</DistanceMeters>
          </Trackpoint>
          <Trackpoint>
            <Time>2018-12-30T13:36:19.000Z</Time>
            <Position>
              <LatitudeDegrees>40.75031918473541736602783203125</LatitudeDegrees>
              <LongitudeDegrees>-4.089185893535614013671875</LongitudeDegrees>
            </Position>
            <AltitudeMeters>1594.800048828125</AltitudeMeters>
            <DistanceMeters>NAN</DistanceMeters>
          </Trackpoint>
          <Trackpoint>
            <Time>2018-12-30T13:36:20.000Z</Time>
            <Position>
              <LatitudeDegrees>40.7503201067447662353515625</LatitudeDegrees>
              <LongitudeDegrees>-4.08917273394763469696044921875</LongitudeDegrees>
            </Position>
            <AltitudeMeters>1594.5999755859375</AltitudeMeters>
            <DistanceMeters>NAN</DistanceMeters>
          </Trackpoint>
          <Trackpoint>
            <Time>2018-12-30T13:36:21.000Z</Time>
            <Position>
              <LatitudeDegrees>40.7503239624202251434326171875</LatitudeDegrees>
              <LongitudeDegrees>-4.089154712855815887451171875</LongitudeDegrees>
            </Position>
            <AltitudeMeters>1594.199951171875</AltitudeMeters>
            <DistanceMeters>NAN</DistanceMeters>
          </Trackpoint>
          <Trackpoint>
            <Time>2018-12-30T13:36:22.000Z</Time>
            <Position>
              <LatitudeDegrees>40.75032773427665233612060546875</LatitudeDegrees>
              <LongitudeDegrees>-4.08914121799170970916748046875</LongitudeDegrees>
            </Position>
            <AltitudeMeters>1593.800048828125</AltitudeMeters>
            <DistanceMeters>NAN</DistanceMeters>
          </Trackpoint>
          <Trackpoint>
            <Time>2018-12-30T13:36:23.000Z</Time>
            <Position>
              <LatitudeDegrees>40.7503313384950160980224609375</LatitudeDegrees>
              <LongitudeDegrees>-4.08913132734596729278564453125</LongitudeDegrees>
            </Position>
            <AltitudeMeters>1593.4000244140625</AltitudeMeters>
            <DistanceMeters>NAN</DistanceMeters>
          </Trackpoint>
          <Trackpoint>
            <Time>2018-12-30T13:36:24.000Z</Time>
            <Position>
              <LatitudeDegrees>40.750330500304698944091796875</LatitudeDegrees>
              <LongitudeDegrees>-4.08911489881575107574462890625</LongitudeDegrees>
            </Position>
            <AltitudeMeters>1593.199951171875</AltitudeMeters>
            <DistanceMeters>NAN</DistanceMeters>
          </Trackpoint>
          <Trackpoint>
            <Time>2018-12-30T13:36:25.000Z</Time>
            <Position>
              <LatitudeDegrees>40.75032639317214488983154296875</LatitudeDegrees>
              <LongitudeDegrees>-4.08910215832293033599853515625</LongitudeDegrees>
            </Position>
            <AltitudeMeters>1593</AltitudeMeters>
            <DistanceMeters>NAN</DistanceMeters>
          </Trackpoint>
          <Trackpoint>
            <Time>2018-12-30T13:36:26.000Z</Time>
            <Position>
              <LatitudeDegrees>40.75032077729701995849609375</LatitudeDegrees>
              <LongitudeDegrees>-4.0890891663730144500732421875</LongitudeDegrees>
            </Position>
            <AltitudeMeters>1592.800048828125</AltitudeMeters>
            <DistanceMeters>NAN</DistanceMeters>
          </Trackpoint>
          <Trackpoint>
            <Time>2018-12-30T13:36:27.000Z</Time>
            <Position>
              <LatitudeDegrees>40.7503145746886730194091796875</LatitudeDegrees>
              <LongitudeDegrees>-4.0890804491937160491943359375</LongitudeDegrees>
            </Position>
            <AltitudeMeters>1592.800048828125</AltitudeMeters>
            <DistanceMeters>NAN</DistanceMeters>
          </Trackpoint>
          <Trackpoint>
            <Time>2018-12-30T13:36:28.000Z</Time>
            <Position>
              <LatitudeDegrees>40.75031281448900699615478515625</LatitudeDegrees>
              <LongitudeDegrees>-4.08907097764313220977783203125</LongitudeDegrees>
            </Position>
            <AltitudeMeters>1592.5999755859375</AltitudeMeters>
            <DistanceMeters>NAN</DistanceMeters>
          </Trackpoint>
          <Trackpoint>
            <Time>2018-12-30T13:36:29.000Z</Time>
            <Position>
              <LatitudeDegrees>40.75031549669802188873291015625</LatitudeDegrees>
              <LongitudeDegrees>-4.0890583209693431854248046875</LongitudeDegrees>
            </Position>
            <AltitudeMeters>1592.5999755859375</AltitudeMeters>
            <DistanceMeters>NAN</DistanceMeters>
          </Trackpoint>
          <Trackpoint>
            <Time>2018-12-30T13:36:30.000Z</Time>
            <Position>
              <LatitudeDegrees>40.75031968764960765838623046875</LatitudeDegrees>
              <LongitudeDegrees>-4.0890428982675075531005859375</LongitudeDegrees>
            </Position>
            <AltitudeMeters>1592.4000244140625</AltitudeMeters>
            <DistanceMeters>NAN</DistanceMeters>
          </Trackpoint>
          <Trackpoint>
            <Time>2018-12-30T13:36:31.000Z</Time>
            <Position>
              <LatitudeDegrees>40.7503283210098743438720703125</LatitudeDegrees>
              <LongitudeDegrees>-4.0890294872224330902099609375</LongitudeDegrees>
            </Position>
            <AltitudeMeters>1592</AltitudeMeters>
            <DistanceMeters>NAN</DistanceMeters>
          </Trackpoint>
          <Trackpoint>
            <Time>2018-12-30T13:36:32.000Z</Time>
            <Position>
              <LatitudeDegrees>40.7503361999988555908203125</LatitudeDegrees>
              <LongitudeDegrees>-4.08901666291058063507080078125</LongitudeDegrees>
            </Position>
            <AltitudeMeters>1591.5999755859375</AltitudeMeters>
            <DistanceMeters>NAN</DistanceMeters>
          </Trackpoint>
          <Trackpoint>
            <Time>2018-12-30T13:36:33.000Z</Time>
            <Position>
              <LatitudeDegrees>40.750344581902027130126953125</LatitudeDegrees>
              <LongitudeDegrees>-4.089007191359996795654296875</LongitudeDegrees>
            </Position>
            <AltitudeMeters>1591.4000244140625</AltitudeMeters>
            <DistanceMeters>NAN</DistanceMeters>
          </Trackpoint>
          <Trackpoint>
            <Time>2018-12-30T13:36:34.000Z</Time>
            <Position>
              <LatitudeDegrees>40.7503504492342472076416015625</LatitudeDegrees>
              <LongitudeDegrees>-4.0890003181993961334228515625</LongitudeDegrees>
            </Position>
            <AltitudeMeters>1591.199951171875</AltitudeMeters>
            <DistanceMeters>NAN</DistanceMeters>
          </Trackpoint>
          <Trackpoint>
            <Time>2018-12-30T13:36:35.000Z</Time>
            <Position>
              <LatitudeDegrees>40.7503564842045307159423828125</LatitudeDegrees>
              <LongitudeDegrees>-4.088992774486541748046875</LongitudeDegrees>
            </Position>
            <AltitudeMeters>1590.800048828125</AltitudeMeters>
            <DistanceMeters>NAN</DistanceMeters>
          </Trackpoint>
          <Trackpoint>
            <Time>2018-12-30T13:36:36.000Z</Time>
            <Position>
              <LatitudeDegrees>40.7503657042980194091796875</LatitudeDegrees>
              <LongitudeDegrees>-4.088987745344638824462890625</LongitudeDegrees>
            </Position>
            <AltitudeMeters>1590.5999755859375</AltitudeMeters>
            <DistanceMeters>NAN</DistanceMeters>
          </Trackpoint>
          <Trackpoint>
            <Time>2018-12-30T13:36:37.000Z</Time>
            <Position>
              <LatitudeDegrees>40.75037584640085697174072265625</LatitudeDegrees>
              <LongitudeDegrees>-4.08898581750690937042236328125</LongitudeDegrees>
            </Position>
            <AltitudeMeters>1590.199951171875</AltitudeMeters>
            <DistanceMeters>NAN</DistanceMeters>
          </Trackpoint>
          <Trackpoint>
            <Time>2018-12-30T13:36:38.000Z</Time>
            <Position>
              <LatitudeDegrees>40.75038540177047252655029296875</LatitudeDegrees>
              <LongitudeDegrees>-4.08898246474564075469970703125</LongitudeDegrees>
            </Position>
            <AltitudeMeters>1589.800048828125</AltitudeMeters>
            <DistanceMeters>NAN</DistanceMeters>
          </Trackpoint>
          <Trackpoint>
            <Time>2018-12-30T13:36:39.000Z</Time>
            <Position>
              <LatitudeDegrees>40.750392191112041473388671875</LatitudeDegrees>
              <LongitudeDegrees>-4.08897466957569122314453125</LongitudeDegrees>
            </Position>
            <AltitudeMeters>1589.4000244140625</AltitudeMeters>
            <DistanceMeters>NAN</DistanceMeters>
          </Trackpoint>
          <Trackpoint>
            <Time>2018-12-30T13:36:40.000Z</Time>
            <Position>
              <LatitudeDegrees>40.75039143674075603485107421875</LatitudeDegrees>
              <LongitudeDegrees>-4.08896687440574169158935546875</LongitudeDegrees>
            </Position>
            <AltitudeMeters>1589.199951171875</AltitudeMeters>
            <DistanceMeters>NAN</DistanceMeters>
          </Trackpoint>
          <Trackpoint>
            <Time>2018-12-30T13:36:41.000Z</Time>
            <Position>
              <LatitudeDegrees>40.7503880001604557037353515625</LatitudeDegrees>
              <LongitudeDegrees>-4.08896452747285366058349609375</LongitudeDegrees>
            </Position>
            <AltitudeMeters>1588.800048828125</AltitudeMeters>
            <DistanceMeters>NAN</DistanceMeters>
          </Trackpoint>
          <Trackpoint>
            <Time>2018-12-30T13:36:42.000Z</Time>
            <Position>
              <LatitudeDegrees>40.7503839768469333648681640625</LatitudeDegrees>
              <LongitudeDegrees>-4.0889565646648406982421875</LongitudeDegrees>
            </Position>
            <AltitudeMeters>1588.800048828125</AltitudeMeters>
            <DistanceMeters>NAN</DistanceMeters>
          </Trackpoint>
          <Trackpoint>
            <Time>2018-12-30T13:36:43.000Z</Time>
            <Position>
              <LatitudeDegrees>40.7503782771527767181396484375</LatitudeDegrees>
              <LongitudeDegrees>-4.08895815722644329071044921875</LongitudeDegrees>
            </Position>
            <AltitudeMeters>1588.800048828125</AltitudeMeters>
            <DistanceMeters>NAN</DistanceMeters>
          </Trackpoint>
          <Trackpoint>
            <Time>2018-12-30T13:36:44.000Z</Time>
            <Position>
              <LatitudeDegrees>40.75036746449768543243408203125</LatitudeDegrees>
              <LongitudeDegrees>-4.08895983360707759857177734375</LongitudeDegrees>
            </Position>
            <AltitudeMeters>1588.5999755859375</AltitudeMeters>
            <DistanceMeters>NAN</DistanceMeters>
          </Trackpoint>
          <Trackpoint>
            <Time>2018-12-30T13:36:45.000Z</Time>
            <Position>
              <LatitudeDegrees>40.75036226771771907806396484375</LatitudeDegrees>
              <LongitudeDegrees>-4.088956899940967559814453125</LongitudeDegrees>
            </Position>
            <AltitudeMeters>1588.5999755859375</AltitudeMeters>
            <DistanceMeters>NAN</DistanceMeters>
          </Trackpoint>
          <Trackpoint>
            <Time>2018-12-30T13:36:46.000Z</Time>
            <Position>
              <LatitudeDegrees>40.75035656802356243133544921875</LatitudeDegrees>
              <LongitudeDegrees>-4.08895715139806270599365234375</LongitudeDegrees>
            </Position>
            <AltitudeMeters>1588.5999755859375</AltitudeMeters>
            <DistanceMeters>NAN</DistanceMeters>
          </Trackpoint>
          <Trackpoint>
            <Time>2018-12-30T13:36:47.000Z</Time>
            <Position>
              <LatitudeDegrees>40.75035036541521549224853515625</LatitudeDegrees>
              <LongitudeDegrees>-4.08895161934196949005126953125</LongitudeDegrees>
            </Position>
            <AltitudeMeters>1588.800048828125</AltitudeMeters>
            <DistanceMeters>NAN</DistanceMeters>
          </Trackpoint>
          <Trackpoint>
            <Time>2018-12-30T13:36:48.000Z</Time>
            <Position>
              <LatitudeDegrees>40.750353299081325531005859375</LatitudeDegrees>
              <LongitudeDegrees>-4.08893183805048465728759765625</LongitudeDegrees>
            </Position>
            <AltitudeMeters>1588.800048828125</AltitudeMeters>
            <DistanceMeters>NAN</DistanceMeters>
          </Trackpoint>
          <Trackpoint>
            <Time>2018-12-30T13:36:49.000Z</Time>
            <Position>
              <LatitudeDegrees>40.75035271234810352325439453125</LatitudeDegrees>
              <LongitudeDegrees>-4.08892345614731311798095703125</LongitudeDegrees>
            </Position>
            <AltitudeMeters>1588.800048828125</AltitudeMeters>
            <DistanceMeters>NAN</DistanceMeters>
          </Trackpoint>
          <Trackpoint>
            <Time>2018-12-30T13:36:50.000Z</Time>
            <Position>
              <LatitudeDegrees>40.750345923006534576416015625</LatitudeDegrees>
              <LongitudeDegrees>-4.08891574479639530181884765625</LongitudeDegrees>
            </Position>
            <AltitudeMeters>1588.800048828125</AltitudeMeters>
            <DistanceMeters>NAN</DistanceMeters>
          </Trackpoint>
          <Trackpoint>
            <Time>2018-12-30T13:36:51.000Z</Time>
            <Position>
              <LatitudeDegrees>40.75034483335912227630615234375</LatitudeDegrees>
              <LongitudeDegrees>-4.08891105093061923980712890625</LongitudeDegrees>
            </Position>
            <AltitudeMeters>1588.800048828125</AltitudeMeters>
            <DistanceMeters>NAN</DistanceMeters>
          </Trackpoint>
          <Trackpoint>
            <Time>2018-12-30T13:36:52.000Z</Time>
            <Position>
              <LatitudeDegrees>40.75033821165561676025390625</LatitudeDegrees>
              <LongitudeDegrees>-4.08890493214130401611328125</LongitudeDegrees>
            </Position>
            <AltitudeMeters>1588.800048828125</AltitudeMeters>
            <DistanceMeters>NAN</DistanceMeters>
          </Trackpoint>
          <Trackpoint>
            <Time>2018-12-30T13:36:53.000Z</Time>
            <Position>
              <LatitudeDegrees>40.75033024884760379791259765625</LatitudeDegrees>
              <LongitudeDegrees>-4.08889956772327423095703125</LongitudeDegrees>
            </Position>
            <AltitudeMeters>1588.5999755859375</AltitudeMeters>
            <DistanceMeters>NAN</DistanceMeters>
          </Trackpoint>
          <Trackpoint>
            <Time>2018-12-30T13:36:54.000Z</Time>
            <Position>
              <LatitudeDegrees>40.75032614171504974365234375</LatitudeDegrees>
              <LongitudeDegrees>-4.08889126963913440704345703125</LongitudeDegrees>
            </Position>
            <AltitudeMeters>1588.4000244140625</AltitudeMeters>
            <DistanceMeters>NAN</DistanceMeters>
          </Trackpoint>
          <Trackpoint>
            <Time>2018-12-30T13:36:55.000Z</Time>
            <Position>
              <LatitudeDegrees>40.75032957829535007476806640625</LatitudeDegrees>
              <LongitudeDegrees>-4.08888347446918487548828125</LongitudeDegrees>
            </Position>
            <AltitudeMeters>1588.199951171875</AltitudeMeters>
            <DistanceMeters>NAN</DistanceMeters>
          </Trackpoint>
          <Trackpoint>
            <Time>2018-12-30T13:36:56.000Z</Time>
            <Position>
              <LatitudeDegrees>40.750337876379489898681640625</LatitudeDegrees>
              <LongitudeDegrees>-4.08887668512761592864990234375</LongitudeDegrees>
            </Position>
            <AltitudeMeters>1588</AltitudeMeters>
            <DistanceMeters>NAN</DistanceMeters>
          </Trackpoint>
          <Trackpoint>
            <Time>2018-12-30T13:36:57.000Z</Time>
            <Position>
              <LatitudeDegrees>40.7503420673310756683349609375</LatitudeDegrees>
              <LongitudeDegrees>-4.088863693177700042724609375</LongitudeDegrees>
            </Position>
            <AltitudeMeters>1587.800048828125</AltitudeMeters>
            <DistanceMeters>NAN</DistanceMeters>
          </Trackpoint>
          <Trackpoint>
            <Time>2018-12-30T13:36:58.000Z</Time>
            <Position>
              <LatitudeDegrees>40.75033896602690219879150390625</LatitudeDegrees>
              <LongitudeDegrees>-4.08885254524648189544677734375</LongitudeDegrees>
            </Position>
            <AltitudeMeters>1587.5999755859375</AltitudeMeters>
            <DistanceMeters>NAN</DistanceMeters>
          </Trackpoint>
          <Trackpoint>
            <Time>2018-12-30T13:36:59.000Z</Time>
            <Position>
              <LatitudeDegrees>40.75034231878817081451416015625</LatitudeDegrees>
              <LongitudeDegrees>-4.08883896656334400177001953125</LongitudeDegrees>
            </Position>
            <AltitudeMeters>1587.199951171875</AltitudeMeters>
            <DistanceMeters>NAN</DistanceMeters>
          </Trackpoint>
          <Trackpoint>
            <Time>2018-12-30T13:37:00.000Z</Time>
            <Position>
              <LatitudeDegrees>40.75034818612039089202880859375</LatitudeDegrees>
              <LongitudeDegrees>-4.08882044255733489990234375</LongitudeDegrees>
            </Position>
            <AltitudeMeters>1587</AltitudeMeters>
            <DistanceMeters>NAN</DistanceMeters>
          </Trackpoint>
          <Trackpoint>
            <Time>2018-12-30T13:37:01.000Z</Time>
            <Position>
              <LatitudeDegrees>40.75035371817648410797119140625</LatitudeDegrees>
              <LongitudeDegrees>-4.0888102166354656219482421875</LongitudeDegrees>
            </Position>
            <AltitudeMeters>1586.800048828125</AltitudeMeters>
            <DistanceMeters>NAN</DistanceMeters>
          </Trackpoint>
          <Trackpoint>
            <Time>2018-12-30T13:37:02.000Z</Time>
            <Position>
              <LatitudeDegrees>40.75036243535578250885009765625</LatitudeDegrees>
              <LongitudeDegrees>-4.08879755996167659759521484375</LongitudeDegrees>
            </Position>
            <AltitudeMeters>1586.5999755859375</AltitudeMeters>
            <DistanceMeters>NAN</DistanceMeters>
          </Trackpoint>
          <Trackpoint>
            <Time>2018-12-30T13:37:03.000Z</Time>
            <Position>
              <LatitudeDegrees>40.7503752596676349639892578125</LatitudeDegrees>
              <LongitudeDegrees>-4.0887823887169361114501953125</LongitudeDegrees>
            </Position>
            <AltitudeMeters>1586.4000244140625</AltitudeMeters>
            <DistanceMeters>NAN</DistanceMeters>
          </Trackpoint>
          <Trackpoint>
            <Time>2018-12-30T13:37:04.000Z</Time>
            <Position>
              <LatitudeDegrees>40.75038246810436248779296875</LatitudeDegrees>
              <LongitudeDegrees>-4.08877023495733737945556640625</LongitudeDegrees>
            </Position>
            <AltitudeMeters>1586.4000244140625</AltitudeMeters>
            <DistanceMeters>NAN</DistanceMeters>
          </Trackpoint>
          <Trackpoint>
            <Time>2018-12-30T13:37:05.000Z</Time>
            <Position>
              <LatitudeDegrees>40.75038774870336055755615234375</LatitudeDegrees>
              <LongitudeDegrees>-4.08875942230224609375</LongitudeDegrees>
            </Position>
            <AltitudeMeters>1586.199951171875</AltitudeMeters>
            <DistanceMeters>NAN</DistanceMeters>
          </Trackpoint>
          <Trackpoint>
            <Time>2018-12-30T13:37:06.000Z</Time>
            <Position>
              <LatitudeDegrees>40.75039244256913661956787109375</LatitudeDegrees>
              <LongitudeDegrees>-4.08875011838972568511962890625</LongitudeDegrees>
            </Position>
            <AltitudeMeters>1586.199951171875</AltitudeMeters>
            <DistanceMeters>NAN</DistanceMeters>
          </Trackpoint>
          <Trackpoint>
            <Time>2018-12-30T13:37:07.000Z</Time>
            <Position>
              <LatitudeDegrees>40.7504037581384181976318359375</LatitudeDegrees>
              <LongitudeDegrees>-4.0887384675443172454833984375</LongitudeDegrees>
            </Position>
            <AltitudeMeters>1586</AltitudeMeters>
            <DistanceMeters>NAN</DistanceMeters>
          </Trackpoint>
          <Trackpoint>
            <Time>2018-12-30T13:37:08.000Z</Time>
            <Position>
              <LatitudeDegrees>40.75040996074676513671875</LatitudeDegrees>
              <LongitudeDegrees>-4.08872698433697223663330078125</LongitudeDegrees>
            </Position>
            <AltitudeMeters>1585.800048828125</AltitudeMeters>
            <DistanceMeters>NAN</DistanceMeters>
          </Trackpoint>
          <Trackpoint>
            <Time>2018-12-30T13:37:09.000Z</Time>
            <Position>
              <LatitudeDegrees>40.7504131458699703216552734375</LatitudeDegrees>
              <LongitudeDegrees>-4.08871156163513660430908203125</LongitudeDegrees>
            </Position>
            <AltitudeMeters>1585.5999755859375</AltitudeMeters>
            <DistanceMeters>NAN</DistanceMeters>
          </Trackpoint>
          <Trackpoint>
            <Time>2018-12-30T13:37:10.000Z</Time>
            <Position>
              <LatitudeDegrees>40.75041691772639751434326171875</LatitudeDegrees>
              <LongitudeDegrees>-4.08869915641844272613525390625</LongitudeDegrees>
            </Position>
            <AltitudeMeters>1585.4000244140625</AltitudeMeters>
            <DistanceMeters>NAN</DistanceMeters>
          </Trackpoint>
          <Trackpoint>
            <Time>2018-12-30T13:37:11.000Z</Time>
            <Position>
              <LatitudeDegrees>40.75041733682155609130859375</LatitudeDegrees>
              <LongitudeDegrees>-4.08868541009724140167236328125</LongitudeDegrees>
            </Position>
            <AltitudeMeters>1585.199951171875</AltitudeMeters>
            <DistanceMeters>NAN</DistanceMeters>
          </Trackpoint>
          <Trackpoint>
            <Time>2018-12-30T13:37:12.000Z</Time>
            <Position>
              <LatitudeDegrees>40.75041742064058780670166015625</LatitudeDegrees>
              <LongitudeDegrees>-4.08866596408188343048095703125</LongitudeDegrees>
            </Position>
            <AltitudeMeters>1585</AltitudeMeters>
            <DistanceMeters>NAN</DistanceMeters>
          </Trackpoint>
          <Trackpoint>
            <Time>2018-12-30T13:37:13.000Z</Time>
            <Position>
              <LatitudeDegrees>40.750421024858951568603515625</LatitudeDegrees>
              <LongitudeDegrees>-4.088623635470867156982421875</LongitudeDegrees>
            </Position>
            <AltitudeMeters>1585</AltitudeMeters>
            <DistanceMeters>NAN</DistanceMeters>
          </Trackpoint>
          <Trackpoint>
            <Time>2018-12-30T13:37:14.000Z</Time>
            <Position>
              <LatitudeDegrees>40.75042429380118846893310546875</LatitudeDegrees>
              <LongitudeDegrees>-4.08859538845717906951904296875</LongitudeDegrees>
            </Position>
            <AltitudeMeters>1584.800048828125</AltitudeMeters>
            <DistanceMeters>NAN</DistanceMeters>
          </Trackpoint>
          <Trackpoint>
            <Time>2018-12-30T13:37:15.000Z</Time>
            <Position>
              <LatitudeDegrees>40.75041959993541240692138671875</LatitudeDegrees>
              <LongitudeDegrees>-4.0885835699737071990966796875</LongitudeDegrees>
            </Position>
            <AltitudeMeters>1584.5999755859375</AltitudeMeters>
            <DistanceMeters>NAN</DistanceMeters>
          </Trackpoint>
          <Trackpoint>
            <Time>2018-12-30T13:37:16.000Z</Time>
            <Position>
              <LatitudeDegrees>40.75040585361421108245849609375</LatitudeDegrees>
              <LongitudeDegrees>-4.0885765291750431060791015625</LongitudeDegrees>
            </Position>
            <AltitudeMeters>1584.4000244140625</AltitudeMeters>
            <DistanceMeters>NAN</DistanceMeters>
          </Trackpoint>
          <Trackpoint>
            <Time>2018-12-30T13:37:17.000Z</Time>
            <Position>
              <LatitudeDegrees>40.75039529241621494293212890625</LatitudeDegrees>
              <LongitudeDegrees>-4.0885671414434909820556640625</LongitudeDegrees>
            </Position>
            <AltitudeMeters>1584.199951171875</AltitudeMeters>
            <DistanceMeters>NAN</DistanceMeters>
          </Trackpoint>
          <Trackpoint>
            <Time>2018-12-30T13:37:18.000Z</Time>
            <Position>
              <LatitudeDegrees>40.7503833062946796417236328125</LatitudeDegrees>
              <LongitudeDegrees>-4.088556580245494842529296875</LongitudeDegrees>
            </Position>
            <AltitudeMeters>1584.199951171875</AltitudeMeters>
            <DistanceMeters>NAN</DistanceMeters>
          </Trackpoint>
          <Trackpoint>
            <Time>2018-12-30T13:37:19.000Z</Time>
            <Position>
              <LatitudeDegrees>40.7503715716302394866943359375</LatitudeDegrees>
              <LongitudeDegrees>-4.08854979090392589569091796875</LongitudeDegrees>
            </Position>
            <AltitudeMeters>1584</AltitudeMeters>
            <DistanceMeters>NAN</DistanceMeters>
          </Trackpoint>
          <Trackpoint>
            <Time>2018-12-30T13:37:20.000Z</Time>
            <Position>
              <LatitudeDegrees>40.750361345708370208740234375</LatitudeDegrees>
              <LongitudeDegrees>-4.08854492940008640289306640625</LongitudeDegrees>
            </Position>
            <AltitudeMeters>1583.800048828125</AltitudeMeters>
            <DistanceMeters>NAN</DistanceMeters>
          </Trackpoint>
          <Trackpoint>
            <Time>2018-12-30T13:37:21.000Z</Time>
            <Position>
              <LatitudeDegrees>40.75035807676613330841064453125</LatitudeDegrees>
              <LongitudeDegrees>-4.088538475334644317626953125</LongitudeDegrees>
            </Position>
            <AltitudeMeters>1583.800048828125</AltitudeMeters>
            <DistanceMeters>NAN</DistanceMeters>
          </Trackpoint>
          <Trackpoint>
            <Time>2018-12-30T13:37:22.000Z</Time>
            <Position>
              <LatitudeDegrees>40.75036075897514820098876953125</LatitudeDegrees>
              <LongitudeDegrees>-4.08852783031761646270751953125</LongitudeDegrees>
            </Position>
            <AltitudeMeters>1583.800048828125</AltitudeMeters>
            <DistanceMeters>NAN</DistanceMeters>
          </Trackpoint>
          <Trackpoint>
            <Time>2018-12-30T13:37:23.000Z</Time>
            <Position>
              <LatitudeDegrees>40.75035958550870418548583984375</LatitudeDegrees>
              <LongitudeDegrees>-4.088515006005764007568359375</LongitudeDegrees>
            </Position>
            <AltitudeMeters>1584</AltitudeMeters>
            <DistanceMeters>NAN</DistanceMeters>
          </Trackpoint>
          <Trackpoint>
            <Time>2018-12-30T13:37:24.000Z</Time>
            <Position>
              <LatitudeDegrees>40.75035690329968929290771484375</LatitudeDegrees>
              <LongitudeDegrees>-4.0885010920464992523193359375</LongitudeDegrees>
            </Position>
            <AltitudeMeters>1584.199951171875</AltitudeMeters>
            <DistanceMeters>NAN</DistanceMeters>
          </Trackpoint>
          <Trackpoint>
            <Time>2018-12-30T13:37:25.000Z</Time>
            <Position>
              <LatitudeDegrees>40.750355310738086700439453125</LatitudeDegrees>
              <LongitudeDegrees>-4.08848810009658336639404296875</LongitudeDegrees>
            </Position>
            <AltitudeMeters>1584.4000244140625</AltitudeMeters>
            <DistanceMeters>NAN</DistanceMeters>
          </Trackpoint>
          <Trackpoint>
            <Time>2018-12-30T13:37:26.000Z</Time>
            <Position>
              <LatitudeDegrees>40.7503531314432621002197265625</LatitudeDegrees>
              <LongitudeDegrees>-4.08847938291728496551513671875</LongitudeDegrees>
            </Position>
            <AltitudeMeters>1584.5999755859375</AltitudeMeters>
            <DistanceMeters>NAN</DistanceMeters>
          </Trackpoint>
          <Trackpoint>
            <Time>2018-12-30T13:37:27.000Z</Time>
            <Position>
              <LatitudeDegrees>40.7503521256148815155029296875</LatitudeDegrees>
              <LongitudeDegrees>-4.08846764825284481048583984375</LongitudeDegrees>
            </Position>
            <AltitudeMeters>1584.800048828125</AltitudeMeters>
            <DistanceMeters>NAN</DistanceMeters>
          </Trackpoint>
          <Trackpoint>
            <Time>2018-12-30T13:37:28.000Z</Time>
            <Position>
              <LatitudeDegrees>40.75034567154943943023681640625</LatitudeDegrees>
              <LongitudeDegrees>-4.088458679616451263427734375</LongitudeDegrees>
            </Position>
            <AltitudeMeters>1585</AltitudeMeters>
            <DistanceMeters>NAN</DistanceMeters>
          </Trackpoint>
          <Trackpoint>
            <Time>2018-12-30T13:37:29.000Z</Time>
            <Position>
              <LatitudeDegrees>40.7503387145698070526123046875</LatitudeDegrees>
              <LongitudeDegrees>-4.08844987861812114715576171875</LongitudeDegrees>
            </Position>
            <AltitudeMeters>1585</AltitudeMeters>
            <DistanceMeters>NAN</DistanceMeters>
          </Trackpoint>
          <Trackpoint>
            <Time>2018-12-30T13:37:30.000Z</Time>
            <Position>
              <LatitudeDegrees>40.7503343559801578521728515625</LatitudeDegrees>
              <LongitudeDegrees>-4.088441915810108184814453125</LongitudeDegrees>
            </Position>
            <AltitudeMeters>1585.199951171875</AltitudeMeters>
            <DistanceMeters>NAN</DistanceMeters>
          </Trackpoint>
          <Trackpoint>
            <Time>2018-12-30T13:37:31.000Z</Time>
            <Position>
              <LatitudeDegrees>40.75033544562757015228271484375</LatitudeDegrees>
              <LongitudeDegrees>-4.08842640928924083709716796875</LongitudeDegrees>
            </Position>
            <AltitudeMeters>1585.199951171875</AltitudeMeters>
            <DistanceMeters>NAN</DistanceMeters>
          </Trackpoint>
          <Trackpoint>
            <Time>2018-12-30T13:37:32.000Z</Time>
            <Position>
              <LatitudeDegrees>40.7503407262265682220458984375</LatitudeDegrees>
              <LongitudeDegrees>-4.08840528689324855804443359375</LongitudeDegrees>
            </Position>
            <AltitudeMeters>1585.199951171875</AltitudeMeters>
            <DistanceMeters>NAN</DistanceMeters>
          </Trackpoint>
          <Trackpoint>
            <Time>2018-12-30T13:37:33.000Z</Time>
            <Position>
              <LatitudeDegrees>40.75034097768366336822509765625</LatitudeDegrees>
              <LongitudeDegrees>-4.08838684670627117156982421875</LongitudeDegrees>
            </Position>
            <AltitudeMeters>1585</AltitudeMeters>
            <DistanceMeters>NAN</DistanceMeters>
          </Trackpoint>
          <Trackpoint>
            <Time>2018-12-30T13:37:34.000Z</Time>
            <Position>
              <LatitudeDegrees>40.750343911349773406982421875</LatitudeDegrees>
              <LongitudeDegrees>-4.0883703343570232391357421875</LongitudeDegrees>
            </Position>
            <AltitudeMeters>1585</AltitudeMeters>
            <DistanceMeters>NAN</DistanceMeters>
          </Trackpoint>
          <Trackpoint>
            <Time>2018-12-30T13:37:35.000Z</Time>
            <Position>
              <LatitudeDegrees>40.75034215115010738372802734375</LatitudeDegrees>
              <LongitudeDegrees>-4.088357426226139068603515625</LongitudeDegrees>
            </Position>
            <AltitudeMeters>1585</AltitudeMeters>
            <DistanceMeters>NAN</DistanceMeters>
          </Trackpoint>
          <Trackpoint>
            <Time>2018-12-30T13:37:36.000Z</Time>
            <Position>
              <LatitudeDegrees>40.75033687055110931396484375</LatitudeDegrees>
              <LongitudeDegrees>-4.0883477032184600830078125</LongitudeDegrees>
            </Position>
            <AltitudeMeters>1584.800048828125</AltitudeMeters>
            <DistanceMeters>NAN</DistanceMeters>
          </Trackpoint>
          <Trackpoint>
            <Time>2018-12-30T13:37:37.000Z</Time>
            <Position>
              <LatitudeDegrees>40.75033678673207759857177734375</LatitudeDegrees>
              <LongitudeDegrees>-4.0883316099643707275390625</LongitudeDegrees>
            </Position>
            <AltitudeMeters>1584.800048828125</AltitudeMeters>
            <DistanceMeters>NAN</DistanceMeters>
          </Trackpoint>
          <Trackpoint>
            <Time>2018-12-30T13:37:38.000Z</Time>
            <Position>
              <LatitudeDegrees>40.7503403909504413604736328125</LatitudeDegrees>
              <LongitudeDegrees>-4.08831618726253509521484375</LongitudeDegrees>
            </Position>
            <AltitudeMeters>1584.800048828125</AltitudeMeters>
            <DistanceMeters>NAN</DistanceMeters>
          </Trackpoint>
          <Trackpoint>
            <Time>2018-12-30T13:37:39.000Z</Time>
            <Position>
              <LatitudeDegrees>40.75034625828266143798828125</LatitudeDegrees>
              <LongitudeDegrees>-4.08829933963716030120849609375</LongitudeDegrees>
            </Position>
            <AltitudeMeters>1584.800048828125</AltitudeMeters>
            <DistanceMeters>NAN</DistanceMeters>
          </Trackpoint>
          <Trackpoint>
            <Time>2018-12-30T13:37:40.000Z</Time>
            <Position>
              <LatitudeDegrees>40.75035153888165950775146484375</LatitudeDegrees>
              <LongitudeDegrees>-4.08827587030827999114990234375</LongitudeDegrees>
            </Position>
            <AltitudeMeters>1584.800048828125</AltitudeMeters>
            <DistanceMeters>NAN</DistanceMeters>
          </Trackpoint>
          <Trackpoint>
            <Time>2018-12-30T13:37:41.000Z</Time>
            <Position>
              <LatitudeDegrees>40.7503524608910083770751953125</LatitudeDegrees>
              <LongitudeDegrees>-4.08826312981545925140380859375</LongitudeDegrees>
            </Position>
            <AltitudeMeters>1584.5999755859375</AltitudeMeters>
            <DistanceMeters>NAN</DistanceMeters>
          </Trackpoint>
          <Trackpoint>
            <Time>2018-12-30T13:37:42.000Z</Time>
            <Position>
              <LatitudeDegrees>40.7503460906445980072021484375</LatitudeDegrees>
              <LongitudeDegrees>-4.08824670128524303436279296875</LongitudeDegrees>
            </Position>
            <AltitudeMeters>1584.5999755859375</AltitudeMeters>
            <DistanceMeters>NAN</DistanceMeters>
          </Trackpoint>
          <Trackpoint>
            <Time>2018-12-30T13:37:43.000Z</Time>
            <Position>
              <LatitudeDegrees>40.7503380440175533294677734375</LatitudeDegrees>
              <LongitudeDegrees>-4.0882402472198009490966796875</LongitudeDegrees>
            </Position>
            <AltitudeMeters>1584.5999755859375</AltitudeMeters>
            <DistanceMeters>NAN</DistanceMeters>
          </Trackpoint>
          <Trackpoint>
            <Time>2018-12-30T13:37:44.000Z</Time>
            <Position>
              <LatitudeDegrees>40.75033494271337985992431640625</LatitudeDegrees>
              <LongitudeDegrees>-4.0882325358688831329345703125</LongitudeDegrees>
            </Position>
            <AltitudeMeters>1584.4000244140625</AltitudeMeters>
            <DistanceMeters>NAN</DistanceMeters>
          </Trackpoint>
          <Trackpoint>
            <Time>2018-12-30T13:37:45.000Z</Time>
            <Position>
              <LatitudeDegrees>40.7503340207040309906005859375</LatitudeDegrees>
              <LongitudeDegrees>-4.0882177837193012237548828125</LongitudeDegrees>
            </Position>
            <AltitudeMeters>1584.4000244140625</AltitudeMeters>
            <DistanceMeters>NAN</DistanceMeters>
          </Trackpoint>
          <Trackpoint>
            <Time>2018-12-30T13:37:46.000Z</Time>
            <Position>
              <LatitudeDegrees>40.75033477507531642913818359375</LatitudeDegrees>
              <LongitudeDegrees>-4.08820261247456073760986328125</LongitudeDegrees>
            </Position>
            <AltitudeMeters>1584.199951171875</AltitudeMeters>
            <DistanceMeters>NAN</DistanceMeters>
          </Trackpoint>
          <Trackpoint>
            <Time>2018-12-30T13:37:47.000Z</Time>
            <Position>
              <LatitudeDegrees>40.75033645145595073699951171875</LatitudeDegrees>
              <LongitudeDegrees>-4.0881879441440105438232421875</LongitudeDegrees>
            </Position>
            <AltitudeMeters>1584.199951171875</AltitudeMeters>
            <DistanceMeters>NAN</DistanceMeters>
          </Trackpoint>
          <Trackpoint>
            <Time>2018-12-30T13:37:48.000Z</Time>
            <Position>
              <LatitudeDegrees>40.75033628381788730621337890625</LatitudeDegrees>
              <LongitudeDegrees>-4.08817226998507976531982421875</LongitudeDegrees>
            </Position>
            <AltitudeMeters>1584</AltitudeMeters>
            <DistanceMeters>NAN</DistanceMeters>
          </Trackpoint>
          <Trackpoint>
            <Time>2018-12-30T13:37:49.000Z</Time>
            <Position>
              <LatitudeDegrees>40.750335864722728729248046875</LatitudeDegrees>
              <LongitudeDegrees>-4.08815248869359493255615234375</LongitudeDegrees>
            </Position>
            <AltitudeMeters>1584</AltitudeMeters>
            <DistanceMeters>NAN</DistanceMeters>
          </Trackpoint>
          <Trackpoint>
            <Time>2018-12-30T13:37:50.000Z</Time>
            <Position>
              <LatitudeDegrees>40.7503350265324115753173828125</LatitudeDegrees>
              <LongitudeDegrees>-4.088133461773395538330078125</LongitudeDegrees>
            </Position>
            <AltitudeMeters>1583.800048828125</AltitudeMeters>
            <DistanceMeters>NAN</DistanceMeters>
          </Trackpoint>
          <Trackpoint>
            <Time>2018-12-30T13:37:51.000Z</Time>
            <Position>
              <LatitudeDegrees>40.7503340207040309906005859375</LatitudeDegrees>
              <LongitudeDegrees>-4.08811795525252819061279296875</LongitudeDegrees>
            </Position>
            <AltitudeMeters>1583.5999755859375</AltitudeMeters>
            <DistanceMeters>NAN</DistanceMeters>
          </Trackpoint>
          <Trackpoint>
            <Time>2018-12-30T13:37:52.000Z</Time>
            <Position>
              <LatitudeDegrees>40.75033552944660186767578125</LatitudeDegrees>
              <LongitudeDegrees>-4.08810320310294628143310546875</LongitudeDegrees>
            </Position>
            <AltitudeMeters>1583.199951171875</AltitudeMeters>
            <DistanceMeters>NAN</DistanceMeters>
          </Trackpoint>
          <Trackpoint>
            <Time>2018-12-30T13:37:53.000Z</Time>
            <Position>
              <LatitudeDegrees>40.75033326633274555206298828125</LatitudeDegrees>
              <LongitudeDegrees>-4.08808912150561809539794921875</LongitudeDegrees>
            </Position>
            <AltitudeMeters>1582.800048828125</AltitudeMeters>
            <DistanceMeters>NAN</DistanceMeters>
          </Trackpoint>
          <Trackpoint>
            <Time>2018-12-30T13:37:54.000Z</Time>
            <Position>
              <LatitudeDegrees>40.7503356970846652984619140625</LatitudeDegrees>
              <LongitudeDegrees>-4.0880635567009449005126953125</LongitudeDegrees>
            </Position>
            <AltitudeMeters>1582.5999755859375</AltitudeMeters>
            <DistanceMeters>NAN</DistanceMeters>
          </Trackpoint>
          <Trackpoint>
            <Time>2018-12-30T13:37:55.000Z</Time>
            <Position>
              <LatitudeDegrees>40.7503367029130458831787109375</LatitudeDegrees>
              <LongitudeDegrees>-4.0880477987229824066162109375</LongitudeDegrees>
            </Position>
            <AltitudeMeters>1582.5999755859375</AltitudeMeters>
            <DistanceMeters>NAN</DistanceMeters>
          </Trackpoint>
          <Trackpoint>
            <Time>2018-12-30T13:37:56.000Z</Time>
            <Position>
              <LatitudeDegrees>40.75033226050436496734619140625</LatitudeDegrees>
              <LongitudeDegrees>-4.0880363993346691131591796875</LongitudeDegrees>
            </Position>
            <AltitudeMeters>1582.4000244140625</AltitudeMeters>
            <DistanceMeters>NAN</DistanceMeters>
          </Trackpoint>
          <Trackpoint>
            <Time>2018-12-30T13:37:57.000Z</Time>
            <Position>
              <LatitudeDegrees>40.75032857246696949005126953125</LatitudeDegrees>
              <LongitudeDegrees>-4.08802290447056293487548828125</LongitudeDegrees>
            </Position>
            <AltitudeMeters>1582.4000244140625</AltitudeMeters>
            <DistanceMeters>NAN</DistanceMeters>
          </Trackpoint>
          <Trackpoint>
            <Time>2018-12-30T13:37:58.000Z</Time>
            <Position>
              <LatitudeDegrees>40.750330500304698944091796875</LatitudeDegrees>
              <LongitudeDegrees>-4.0880028717219829559326171875</LongitudeDegrees>
            </Position>
            <AltitudeMeters>1582.4000244140625</AltitudeMeters>
            <DistanceMeters>NAN</DistanceMeters>
          </Trackpoint>
          <Trackpoint>
            <Time>2018-12-30T13:37:59.000Z</Time>
            <Position>
              <LatitudeDegrees>40.7503320090472698211669921875</LatitudeDegrees>
              <LongitudeDegrees>-4.08798686228692531585693359375</LongitudeDegrees>
            </Position>
            <AltitudeMeters>1582.4000244140625</AltitudeMeters>
            <DistanceMeters>NAN</DistanceMeters>
          </Trackpoint>
          <Trackpoint>
            <Time>2018-12-30T13:38:00.000Z</Time>
            <Position>
              <LatitudeDegrees>40.7503266446292400360107421875</LatitudeDegrees>
              <LongitudeDegrees>-4.0879750438034534454345703125</LongitudeDegrees>
            </Position>
            <AltitudeMeters>1582.4000244140625</AltitudeMeters>
            <DistanceMeters>NAN</DistanceMeters>
          </Trackpoint>
          <Trackpoint>
            <Time>2018-12-30T13:38:01.000Z</Time>
            <Position>
              <LatitudeDegrees>40.7503219507634639739990234375</LatitudeDegrees>
              <LongitudeDegrees>-4.08797143958508968353271484375</LongitudeDegrees>
            </Position>
            <AltitudeMeters>1582.4000244140625</AltitudeMeters>
            <DistanceMeters>NAN</DistanceMeters>
          </Trackpoint>
          <Trackpoint>
            <Time>2018-12-30T13:38:02.000Z</Time>
            <Position>
              <LatitudeDegrees>40.7503155805170536041259765625</LatitudeDegrees>
              <LongitudeDegrees>-4.08796825446188449859619140625</LongitudeDegrees>
            </Position>
            <AltitudeMeters>1582.199951171875</AltitudeMeters>
            <DistanceMeters>NAN</DistanceMeters>
          </Trackpoint>
          <Trackpoint>
            <Time>2018-12-30T13:38:03.000Z</Time>
            <Position>
              <LatitudeDegrees>40.75031499378383159637451171875</LatitudeDegrees>
              <LongitudeDegrees>-4.08796071074903011322021484375</LongitudeDegrees>
            </Position>
            <AltitudeMeters>1582.199951171875</AltitudeMeters>
            <DistanceMeters>NAN</DistanceMeters>
          </Trackpoint>
          <Trackpoint>
            <Time>2018-12-30T13:38:04.000Z</Time>
            <Position>
              <LatitudeDegrees>40.7503112219274044036865234375</LatitudeDegrees>
              <LongitudeDegrees>-4.08795182593166828155517578125</LongitudeDegrees>
            </Position>
            <AltitudeMeters>1582</AltitudeMeters>
            <DistanceMeters>NAN</DistanceMeters>
          </Trackpoint>
          <Trackpoint>
            <Time>2018-12-30T13:38:05.000Z</Time>
            <Position>
              <LatitudeDegrees>40.7503051869571208953857421875</LatitudeDegrees>
              <LongitudeDegrees>-4.0879418514668941497802734375</LongitudeDegrees>
            </Position>
            <AltitudeMeters>1582</AltitudeMeters>
            <DistanceMeters>NAN</DistanceMeters>
          </Trackpoint>
          <Trackpoint>
            <Time>2018-12-30T13:38:06.000Z</Time>
            <Position>
              <LatitudeDegrees>40.7503008283674716949462890625</LatitudeDegrees>
              <LongitudeDegrees>-4.08792953006923198699951171875</LongitudeDegrees>
            </Position>
            <AltitudeMeters>1582</AltitudeMeters>
            <DistanceMeters>NAN</DistanceMeters>
          </Trackpoint>
          <Trackpoint>
            <Time>2018-12-30T13:38:07.000Z</Time>
            <Position>
              <LatitudeDegrees>40.75029185973107814788818359375</LatitudeDegrees>
              <LongitudeDegrees>-4.08791963942348957061767578125</LongitudeDegrees>
            </Position>
            <AltitudeMeters>1582</AltitudeMeters>
            <DistanceMeters>NAN</DistanceMeters>
          </Trackpoint>
          <Trackpoint>
            <Time>2018-12-30T13:38:08.000Z</Time>
            <Position>
              <LatitudeDegrees>40.75028724968433380126953125</LatitudeDegrees>
              <LongitudeDegrees>-4.0879053063690662384033203125</LongitudeDegrees>
            </Position>
            <AltitudeMeters>1581.800048828125</AltitudeMeters>
            <DistanceMeters>NAN</DistanceMeters>
          </Trackpoint>
          <Trackpoint>
            <Time>2018-12-30T13:38:09.000Z</Time>
            <Position>
              <LatitudeDegrees>40.75028263963758945465087890625</LatitudeDegrees>
              <LongitudeDegrees>-4.087890721857547760009765625</LongitudeDegrees>
            </Position>
            <AltitudeMeters>1581.800048828125</AltitudeMeters>
            <DistanceMeters>NAN</DistanceMeters>
          </Trackpoint>
          <Trackpoint>
            <Time>2018-12-30T13:38:10.000Z</Time>
            <Position>
              <LatitudeDegrees>40.750273168087005615234375</LatitudeDegrees>
              <LongitudeDegrees>-4.087877310812473297119140625</LongitudeDegrees>
            </Position>
            <AltitudeMeters>1582</AltitudeMeters>
            <DistanceMeters>NAN</DistanceMeters>
          </Trackpoint>
          <Trackpoint>
            <Time>2018-12-30T13:38:11.000Z</Time>
            <Position>
              <LatitudeDegrees>40.75026906095445156097412109375</LatitudeDegrees>
              <LongitudeDegrees>-4.0878674201667308807373046875</LongitudeDegrees>
            </Position>
            <AltitudeMeters>1582</AltitudeMeters>
            <DistanceMeters>NAN</DistanceMeters>
          </Trackpoint>
          <Trackpoint>
            <Time>2018-12-30T13:38:12.000Z</Time>
            <Position>
              <LatitudeDegrees>40.75026302598416805267333984375</LatitudeDegrees>
              <LongitudeDegrees>-4.0878566913306713104248046875</LongitudeDegrees>
            </Position>
            <AltitudeMeters>1581.800048828125</AltitudeMeters>
            <DistanceMeters>NAN</DistanceMeters>
          </Trackpoint>
          <Trackpoint>
            <Time>2018-12-30T13:38:13.000Z</Time>
            <Position>
              <LatitudeDegrees>40.7502548955380916595458984375</LatitudeDegrees>
              <LongitudeDegrees>-4.087840430438518524169921875</LongitudeDegrees>
            </Position>
            <AltitudeMeters>1581.800048828125</AltitudeMeters>
            <DistanceMeters>NAN</DistanceMeters>
          </Trackpoint>
          <Trackpoint>
            <Time>2018-12-30T13:38:14.000Z</Time>
            <Position>
              <LatitudeDegrees>40.75024860911071300506591796875</LatitudeDegrees>
              <LongitudeDegrees>-4.08781595528125762939453125</LongitudeDegrees>
            </Position>
            <AltitudeMeters>1581.800048828125</AltitudeMeters>
            <DistanceMeters>NAN</DistanceMeters>
          </Trackpoint>
          <Trackpoint>
            <Time>2018-12-30T13:38:15.000Z</Time>
            <Position>
              <LatitudeDegrees>40.75023385696113109588623046875</LatitudeDegrees>
              <LongitudeDegrees>-4.0877986885607242584228515625</LongitudeDegrees>
            </Position>
            <AltitudeMeters>1581.5999755859375</AltitudeMeters>
            <DistanceMeters>NAN</DistanceMeters>
          </Trackpoint>
          <Trackpoint>
            <Time>2018-12-30T13:38:16.000Z</Time>
            <Position>
              <LatitudeDegrees>40.75021860189735889434814453125</LatitudeDegrees>
              <LongitudeDegrees>-4.08778720535337924957275390625</LongitudeDegrees>
            </Position>
            <AltitudeMeters>1581.5999755859375</AltitudeMeters>
            <DistanceMeters>NAN</DistanceMeters>
          </Trackpoint>
          <Trackpoint>
            <Time>2018-12-30T13:38:17.000Z</Time>
            <Position>
              <LatitudeDegrees>40.75020586140453815460205078125</LatitudeDegrees>
              <LongitudeDegrees>-4.0877763926982879638671875</LongitudeDegrees>
            </Position>
            <AltitudeMeters>1581.5999755859375</AltitudeMeters>
            <DistanceMeters>NAN</DistanceMeters>
          </Trackpoint>
          <Trackpoint>
            <Time>2018-12-30T13:38:18.000Z</Time>
            <Position>
              <LatitudeDegrees>40.75019261799752712249755859375</LatitudeDegrees>
              <LongitudeDegrees>-4.0877638198435306549072265625</LongitudeDegrees>
            </Position>
            <AltitudeMeters>1581.5999755859375</AltitudeMeters>
            <DistanceMeters>NAN</DistanceMeters>
          </Trackpoint>
          <Trackpoint>
            <Time>2018-12-30T13:38:19.000Z</Time>
            <Position>
              <LatitudeDegrees>40.75017862021923065185546875</LatitudeDegrees>
              <LongitudeDegrees>-4.08775166608393192291259765625</LongitudeDegrees>
            </Position>
            <AltitudeMeters>1581.4000244140625</AltitudeMeters>
            <DistanceMeters>NAN</DistanceMeters>
          </Trackpoint>
          <Trackpoint>
            <Time>2018-12-30T13:38:20.000Z</Time>
            <Position>
              <LatitudeDegrees>40.75016210786998271942138671875</LatitudeDegrees>
              <LongitudeDegrees>-4.0877281129360198974609375</LongitudeDegrees>
            </Position>
            <AltitudeMeters>1581.4000244140625</AltitudeMeters>
            <DistanceMeters>NAN</DistanceMeters>
          </Trackpoint>
          <Trackpoint>
            <Time>2018-12-30T13:38:21.000Z</Time>
            <Position>
              <LatitudeDegrees>40.75015707872807979583740234375</LatitudeDegrees>
              <LongitudeDegrees>-4.08770707435905933380126953125</LongitudeDegrees>
            </Position>
            <AltitudeMeters>1581.199951171875</AltitudeMeters>
            <DistanceMeters>NAN</DistanceMeters>
          </Trackpoint>
          <Trackpoint>
            <Time>2018-12-30T13:38:22.000Z</Time>
            <Position>
              <LatitudeDegrees>40.7501496188342571258544921875</LatitudeDegrees>
              <LongitudeDegrees>-4.0876873768866062164306640625</LongitudeDegrees>
            </Position>
            <AltitudeMeters>1581.199951171875</AltitudeMeters>
            <DistanceMeters>NAN</DistanceMeters>
          </Trackpoint>
          <Trackpoint>
            <Time>2018-12-30T13:38:23.000Z</Time>
            <Position>
              <LatitudeDegrees>40.75014148838818073272705078125</LatitudeDegrees>
              <LongitudeDegrees>-4.08767539076507091522216796875</LongitudeDegrees>
            </Position>
            <AltitudeMeters>1581.199951171875</AltitudeMeters>
            <DistanceMeters>NAN</DistanceMeters>
          </Trackpoint>
          <Trackpoint>
            <Time>2018-12-30T13:38:24.000Z</Time>
            <Position>
              <LatitudeDegrees>40.7501365430653095245361328125</LatitudeDegrees>
              <LongitudeDegrees>-4.08765971660614013671875</LongitudeDegrees>
            </Position>
            <AltitudeMeters>1581</AltitudeMeters>
            <DistanceMeters>NAN</DistanceMeters>
          </Trackpoint>
          <Trackpoint>
            <Time>2018-12-30T13:38:25.000Z</Time>
            <Position>
              <LatitudeDegrees>40.75013243593275547027587890625</LatitudeDegrees>
              <LongitudeDegrees>-4.08764588646590709686279296875</LongitudeDegrees>
            </Position>
            <AltitudeMeters>1580.800048828125</AltitudeMeters>
            <DistanceMeters>NAN</DistanceMeters>
          </Trackpoint>
          <Trackpoint>
            <Time>2018-12-30T13:38:26.000Z</Time>
            <Position>
              <LatitudeDegrees>40.75012707151472568511962890625</LatitudeDegrees>
              <LongitudeDegrees>-4.08763113431632518768310546875</LongitudeDegrees>
            </Position>
            <AltitudeMeters>1580.800048828125</AltitudeMeters>
            <DistanceMeters>NAN</DistanceMeters>
          </Trackpoint>
          <Trackpoint>
            <Time>2018-12-30T13:38:27.000Z</Time>
            <Position>
              <LatitudeDegrees>40.7501244731247425079345703125</LatitudeDegrees>
              <LongitudeDegrees>-4.087616465985774993896484375</LongitudeDegrees>
            </Position>
            <AltitudeMeters>1580.5999755859375</AltitudeMeters>
            <DistanceMeters>NAN</DistanceMeters>
          </Trackpoint>
          <Trackpoint>
            <Time>2018-12-30T13:38:28.000Z</Time>
            <Position>
              <LatitudeDegrees>40.7501204498112201690673828125</LatitudeDegrees>
              <LongitudeDegrees>-4.0876042284071445465087890625</LongitudeDegrees>
            </Position>
            <AltitudeMeters>1580.4000244140625</AltitudeMeters>
            <DistanceMeters>NAN</DistanceMeters>
          </Trackpoint>
          <Trackpoint>
            <Time>2018-12-30T13:38:29.000Z</Time>
            <Position>
              <LatitudeDegrees>40.75011600740253925323486328125</LatitudeDegrees>
              <LongitudeDegrees>-4.08758855424821376800537109375</LongitudeDegrees>
            </Position>
            <AltitudeMeters>1580.4000244140625</AltitudeMeters>
            <DistanceMeters>NAN</DistanceMeters>
          </Trackpoint>
          <Trackpoint>
            <Time>2018-12-30T13:38:30.000Z</Time>
            <Position>
              <LatitudeDegrees>40.7501110620796680450439453125</LatitudeDegrees>
              <LongitudeDegrees>-4.0875757299363613128662109375</LongitudeDegrees>
            </Position>
            <AltitudeMeters>1580.199951171875</AltitudeMeters>
            <DistanceMeters>NAN</DistanceMeters>
          </Trackpoint>
          <Trackpoint>
            <Time>2018-12-30T13:38:31.000Z</Time>
            <Position>
              <LatitudeDegrees>40.75010888278484344482421875</LatitudeDegrees>
              <LongitudeDegrees>-4.08755787648260593414306640625</LongitudeDegrees>
            </Position>
            <AltitudeMeters>1580</AltitudeMeters>
            <DistanceMeters>NAN</DistanceMeters>
          </Trackpoint>
          <Trackpoint>
            <Time>2018-12-30T13:38:32.000Z</Time>
            <Position>
              <LatitudeDegrees>40.7501093856990337371826171875</LatitudeDegrees>
              <LongitudeDegrees>-4.08754211850464344024658203125</LongitudeDegrees>
            </Position>
            <AltitudeMeters>1579.800048828125</AltitudeMeters>
            <DistanceMeters>NAN</DistanceMeters>
          </Trackpoint>
          <Trackpoint>
            <Time>2018-12-30T13:38:33.000Z</Time>
            <Position>
              <LatitudeDegrees>40.75010863132774829864501953125</LatitudeDegrees>
              <LongitudeDegrees>-4.087526611983776092529296875</LongitudeDegrees>
            </Position>
            <AltitudeMeters>1579.5999755859375</AltitudeMeters>
            <DistanceMeters>NAN</DistanceMeters>
          </Trackpoint>
          <Trackpoint>
            <Time>2018-12-30T13:38:34.000Z</Time>
            <Position>
              <LatitudeDegrees>40.75010611675679683685302734375</LatitudeDegrees>
              <LongitudeDegrees>-4.08751110546290874481201171875</LongitudeDegrees>
            </Position>
            <AltitudeMeters>1579.4000244140625</AltitudeMeters>
            <DistanceMeters>NAN</DistanceMeters>
          </Trackpoint>
          <Trackpoint>
            <Time>2018-12-30T13:38:35.000Z</Time>
            <Position>
              <LatitudeDegrees>40.75011198408901691436767578125</LatitudeDegrees>
              <LongitudeDegrees>-4.0874932520091533660888671875</LongitudeDegrees>
            </Position>
            <AltitudeMeters>1579.4000244140625</AltitudeMeters>
            <DistanceMeters>NAN</DistanceMeters>
          </Trackpoint>
          <Trackpoint>
            <Time>2018-12-30T13:38:36.000Z</Time>
            <Position>
              <LatitudeDegrees>40.75011567212641239166259765625</LatitudeDegrees>
              <LongitudeDegrees>-4.08748026005923748016357421875</LongitudeDegrees>
            </Position>
            <AltitudeMeters>1579.4000244140625</AltitudeMeters>
            <DistanceMeters>NAN</DistanceMeters>
          </Trackpoint>
          <Trackpoint>
            <Time>2018-12-30T13:38:37.000Z</Time>
            <Position>
              <LatitudeDegrees>40.75011449865996837615966796875</LatitudeDegrees>
              <LongitudeDegrees>-4.0874706208705902099609375</LongitudeDegrees>
            </Position>
            <AltitudeMeters>1579.4000244140625</AltitudeMeters>
            <DistanceMeters>NAN</DistanceMeters>
          </Trackpoint>
          <Trackpoint>
            <Time>2018-12-30T13:38:38.000Z</Time>
            <Position>
              <LatitudeDegrees>40.750108547508716583251953125</LatitudeDegrees>
              <LongitudeDegrees>-4.08745922148227691650390625</LongitudeDegrees>
            </Position>
            <AltitudeMeters>1579.4000244140625</AltitudeMeters>
            <DistanceMeters>NAN</DistanceMeters>
          </Trackpoint>
          <Trackpoint>
            <Time>2018-12-30T13:38:39.000Z</Time>
            <Position>
              <LatitudeDegrees>40.75010075233876705169677734375</LatitudeDegrees>
              <LongitudeDegrees>-4.08744312822818756103515625</LongitudeDegrees>
            </Position>
            <AltitudeMeters>1579.4000244140625</AltitudeMeters>
            <DistanceMeters>NAN</DistanceMeters>
          </Trackpoint>
          <Trackpoint>
            <Time>2018-12-30T13:38:40.000Z</Time>
            <Position>
              <LatitudeDegrees>40.75010083615779876708984375</LatitudeDegrees>
              <LongitudeDegrees>-4.08743105828762054443359375</LongitudeDegrees>
            </Position>
            <AltitudeMeters>1579.4000244140625</AltitudeMeters>
            <DistanceMeters>NAN</DistanceMeters>
          </Trackpoint>
          <Trackpoint>
            <Time>2018-12-30T13:38:41.000Z</Time>
            <Position>
              <LatitudeDegrees>40.75009035877883434295654296875</LatitudeDegrees>
              <LongitudeDegrees>-4.0874141268432140350341796875</LongitudeDegrees>
            </Position>
            <AltitudeMeters>1579.199951171875</AltitudeMeters>
            <DistanceMeters>NAN</DistanceMeters>
          </Trackpoint>
          <Trackpoint>
            <Time>2018-12-30T13:38:42.000Z</Time>
            <Position>
              <LatitudeDegrees>40.75007845647633075714111328125</LatitudeDegrees>
              <LongitudeDegrees>-4.08740817569196224212646484375</LongitudeDegrees>
            </Position>
            <AltitudeMeters>1579</AltitudeMeters>
            <DistanceMeters>NAN</DistanceMeters>
          </Trackpoint>
          <Trackpoint>
            <Time>2018-12-30T13:38:43.000Z</Time>
            <Position>
              <LatitudeDegrees>40.750071667134761810302734375</LatitudeDegrees>
              <LongitudeDegrees>-4.08739778213202953338623046875</LongitudeDegrees>
            </Position>
            <AltitudeMeters>1578.800048828125</AltitudeMeters>
            <DistanceMeters>NAN</DistanceMeters>
          </Trackpoint>
          <Trackpoint>
            <Time>2018-12-30T13:38:44.000Z</Time>
            <Position>
              <LatitudeDegrees>40.7500701583921909332275390625</LatitudeDegrees>
              <LongitudeDegrees>-4.08738655038177967071533203125</LongitudeDegrees>
            </Position>
            <AltitudeMeters>1578.5999755859375</AltitudeMeters>
            <DistanceMeters>NAN</DistanceMeters>
          </Trackpoint>
          <Trackpoint>
            <Time>2018-12-30T13:38:45.000Z</Time>
            <Position>
              <LatitudeDegrees>40.75006328523159027099609375</LatitudeDegrees>
              <LongitudeDegrees>-4.0873740613460540771484375</LongitudeDegrees>
            </Position>
            <AltitudeMeters>1578.4000244140625</AltitudeMeters>
            <DistanceMeters>NAN</DistanceMeters>
          </Trackpoint>
          <Trackpoint>
            <Time>2018-12-30T13:38:46.000Z</Time>
            <Position>
              <LatitudeDegrees>40.75006303377449512481689453125</LatitudeDegrees>
              <LongitudeDegrees>-4.08735905773937702178955078125</LongitudeDegrees>
            </Position>
            <AltitudeMeters>1578.4000244140625</AltitudeMeters>
            <DistanceMeters>NAN</DistanceMeters>
          </Trackpoint>
          <Trackpoint>
            <Time>2018-12-30T13:38:47.000Z</Time>
            <Position>
              <LatitudeDegrees>40.750063955783843994140625</LatitudeDegrees>
              <LongitudeDegrees>-4.0873445570468902587890625</LongitudeDegrees>
            </Position>
            <AltitudeMeters>1578.199951171875</AltitudeMeters>
            <DistanceMeters>NAN</DistanceMeters>
          </Trackpoint>
          <Trackpoint>
            <Time>2018-12-30T13:38:48.000Z</Time>
            <Position>
              <LatitudeDegrees>40.75005582533776760101318359375</LatitudeDegrees>
              <LongitudeDegrees>-4.087334163486957550048828125</LongitudeDegrees>
            </Position>
            <AltitudeMeters>1578</AltitudeMeters>
            <DistanceMeters>NAN</DistanceMeters>
          </Trackpoint>
          <Trackpoint>
            <Time>2018-12-30T13:38:49.000Z</Time>
            <Position>
              <LatitudeDegrees>40.75005431659519672393798828125</LatitudeDegrees>
              <LongitudeDegrees>-4.08732536248862743377685546875</LongitudeDegrees>
            </Position>
            <AltitudeMeters>1577.800048828125</AltitudeMeters>
            <DistanceMeters>NAN</DistanceMeters>
          </Trackpoint>
          <Trackpoint>
            <Time>2018-12-30T13:38:50.000Z</Time>
            <Position>
              <LatitudeDegrees>40.75005984865128993988037109375</LatitudeDegrees>
              <LongitudeDegrees>-4.0873165614902973175048828125</LongitudeDegrees>
            </Position>
            <AltitudeMeters>1577.5999755859375</AltitudeMeters>
            <DistanceMeters>NAN</DistanceMeters>
          </Trackpoint>
          <Trackpoint>
            <Time>2018-12-30T13:38:51.000Z</Time>
            <Position>
              <LatitudeDegrees>40.75006269849836826324462890625</LatitudeDegrees>
              <LongitudeDegrees>-4.087299965322017669677734375</LongitudeDegrees>
            </Position>
            <AltitudeMeters>1577.199951171875</AltitudeMeters>
            <DistanceMeters>NAN</DistanceMeters>
          </Trackpoint>
          <Trackpoint>
            <Time>2018-12-30T13:38:52.000Z</Time>
            <Position>
              <LatitudeDegrees>40.75006663799285888671875</LatitudeDegrees>
              <LongitudeDegrees>-4.08728999085724353790283203125</LongitudeDegrees>
            </Position>
            <AltitudeMeters>1577</AltitudeMeters>
            <DistanceMeters>NAN</DistanceMeters>
          </Trackpoint>
          <Trackpoint>
            <Time>2018-12-30T13:38:53.000Z</Time>
            <Position>
              <LatitudeDegrees>40.75006571598351001739501953125</LatitudeDegrees>
              <LongitudeDegrees>-4.0872826986014842987060546875</LongitudeDegrees>
            </Position>
            <AltitudeMeters>1576.800048828125</AltitudeMeters>
            <DistanceMeters>NAN</DistanceMeters>
          </Trackpoint>
          <Trackpoint>
            <Time>2018-12-30T13:38:54.000Z</Time>
            <Position>
              <LatitudeDegrees>40.750065632164478302001953125</LatitudeDegrees>
              <LongitudeDegrees>-4.08727523870766162872314453125</LongitudeDegrees>
            </Position>
            <AltitudeMeters>1576.800048828125</AltitudeMeters>
            <DistanceMeters>NAN</DistanceMeters>
          </Trackpoint>
          <Trackpoint>
            <Time>2018-12-30T13:38:55.000Z</Time>
            <Position>
              <LatitudeDegrees>40.750060938298702239990234375</LatitudeDegrees>
              <LongitudeDegrees>-4.0872662700712680816650390625</LongitudeDegrees>
            </Position>
            <AltitudeMeters>1576.800048828125</AltitudeMeters>
            <DistanceMeters>NAN</DistanceMeters>
          </Trackpoint>
          <Trackpoint>
            <Time>2018-12-30T13:38:56.000Z</Time>
            <Position>
              <LatitudeDegrees>40.75005699880421161651611328125</LatitudeDegrees>
              <LongitudeDegrees>-4.08725763671100139617919921875</LongitudeDegrees>
            </Position>
            <AltitudeMeters>1576.5999755859375</AltitudeMeters>
            <DistanceMeters>NAN</DistanceMeters>
          </Trackpoint>
          <Trackpoint>
            <Time>2018-12-30T13:38:57.000Z</Time>
            <Position>
              <LatitudeDegrees>40.75005549006164073944091796875</LatitudeDegrees>
              <LongitudeDegrees>-4.0872479975223541259765625</LongitudeDegrees>
            </Position>
            <AltitudeMeters>1576.5999755859375</AltitudeMeters>
            <DistanceMeters>NAN</DistanceMeters>
          </Trackpoint>
          <Trackpoint>
            <Time>2018-12-30T13:38:58.000Z</Time>
            <Position>
              <LatitudeDegrees>40.750047862529754638671875</LatitudeDegrees>
              <LongitudeDegrees>-4.08723433502018451690673828125</LongitudeDegrees>
            </Position>
            <AltitudeMeters>1576.5999755859375</AltitudeMeters>
            <DistanceMeters>NAN</DistanceMeters>
          </Trackpoint>
          <Trackpoint>
            <Time>2018-12-30T13:38:59.000Z</Time>
            <Position>
              <LatitudeDegrees>40.750047862529754638671875</LatitudeDegrees>
              <LongitudeDegrees>-4.08722377382218837738037109375</LongitudeDegrees>
            </Position>
            <AltitudeMeters>1576.5999755859375</AltitudeMeters>
            <DistanceMeters>NAN</DistanceMeters>
          </Trackpoint>
          <Trackpoint>
            <Time>2018-12-30T13:39:00.000Z</Time>
            <Position>
              <LatitudeDegrees>40.7500379718840122222900390625</LatitudeDegrees>
              <LongitudeDegrees>-4.087211787700653076171875</LongitudeDegrees>
            </Position>
            <AltitudeMeters>1576.4000244140625</AltitudeMeters>
            <DistanceMeters>NAN</DistanceMeters>
          </Trackpoint>
          <Trackpoint>
            <Time>2018-12-30T13:39:01.000Z</Time>
            <Position>
              <LatitudeDegrees>40.75003470294177532196044921875</LatitudeDegrees>
              <LongitudeDegrees>-4.08719778992235660552978515625</LongitudeDegrees>
            </Position>
            <AltitudeMeters>1576.199951171875</AltitudeMeters>
            <DistanceMeters>NAN</DistanceMeters>
          </Trackpoint>
          <Trackpoint>
            <Time>2018-12-30T13:39:02.000Z</Time>
            <Position>
              <LatitudeDegrees>40.7500319369137287139892578125</LatitudeDegrees>
              <LongitudeDegrees>-4.0871864743530750274658203125</LongitudeDegrees>
            </Position>
            <AltitudeMeters>1575.800048828125</AltitudeMeters>
            <DistanceMeters>NAN</DistanceMeters>
          </Trackpoint>
          <Trackpoint>
            <Time>2018-12-30T13:39:03.000Z</Time>
            <Position>
              <LatitudeDegrees>40.7500269077718257904052734375</LatitudeDegrees>
              <LongitudeDegrees>-4.0871727280318737030029296875</LongitudeDegrees>
            </Position>
            <AltitudeMeters>1575.4000244140625</AltitudeMeters>
            <DistanceMeters>NAN</DistanceMeters>
          </Trackpoint>
          <Trackpoint>
            <Time>2018-12-30T13:39:04.000Z</Time>
            <Position>
              <LatitudeDegrees>40.75002347119152545928955078125</LatitudeDegrees>
              <LongitudeDegrees>-4.08716057427227497100830078125</LongitudeDegrees>
            </Position>
            <AltitudeMeters>1575.4000244140625</AltitudeMeters>
            <DistanceMeters>NAN</DistanceMeters>
          </Trackpoint>
          <Trackpoint>
            <Time>2018-12-30T13:39:05.000Z</Time>
            <Position>
              <LatitudeDegrees>40.75002514757215976715087890625</LatitudeDegrees>
              <LongitudeDegrees>-4.08714816905558109283447265625</LongitudeDegrees>
            </Position>
            <AltitudeMeters>1575.199951171875</AltitudeMeters>
            <DistanceMeters>NAN</DistanceMeters>
          </Trackpoint>
          <Trackpoint>
            <Time>2018-12-30T13:39:06.000Z</Time>
            <Position>
              <LatitudeDegrees>40.7500181905925273895263671875</LatitudeDegrees>
              <LongitudeDegrees>-4.08713928423821926116943359375</LongitudeDegrees>
            </Position>
            <AltitudeMeters>1575.199951171875</AltitudeMeters>
            <DistanceMeters>NAN</DistanceMeters>
          </Trackpoint>
          <Trackpoint>
            <Time>2018-12-30T13:39:07.000Z</Time>
            <Position>
              <LatitudeDegrees>40.75001089833676815032958984375</LatitudeDegrees>
              <LongitudeDegrees>-4.08712671138346195220947265625</LongitudeDegrees>
            </Position>
            <AltitudeMeters>1575.199951171875</AltitudeMeters>
            <DistanceMeters>NAN</DistanceMeters>
          </Trackpoint>
          <Trackpoint>
            <Time>2018-12-30T13:39:08.000Z</Time>
            <Position>
              <LatitudeDegrees>40.7500061206519603729248046875</LatitudeDegrees>
              <LongitudeDegrees>-4.08711078576743602752685546875</LongitudeDegrees>
            </Position>
            <AltitudeMeters>1575.199951171875</AltitudeMeters>
            <DistanceMeters>NAN</DistanceMeters>
          </Trackpoint>
          <Trackpoint>
            <Time>2018-12-30T13:39:09.000Z</Time>
            <Position>
              <LatitudeDegrees>40.7499937154352664947509765625</LatitudeDegrees>
              <LongitudeDegrees>-4.08709905110299587249755859375</LongitudeDegrees>
            </Position>
            <AltitudeMeters>1575.199951171875</AltitudeMeters>
            <DistanceMeters>NAN</DistanceMeters>
          </Trackpoint>
          <Trackpoint>
            <Time>2018-12-30T13:39:10.000Z</Time>
            <Position>
              <LatitudeDegrees>40.74998256750404834747314453125</LatitudeDegrees>
              <LongitudeDegrees>-4.08708295784890651702880859375</LongitudeDegrees>
            </Position>
            <AltitudeMeters>1575.199951171875</AltitudeMeters>
            <DistanceMeters>NAN</DistanceMeters>
          </Trackpoint>
          <Trackpoint>
            <Time>2018-12-30T13:39:11.000Z</Time>
            <Position>
              <LatitudeDegrees>40.7499541528522968292236328125</LatitudeDegrees>
              <LongitudeDegrees>-4.08707021735608577728271484375</LongitudeDegrees>
            </Position>
            <AltitudeMeters>1575.199951171875</AltitudeMeters>
            <DistanceMeters>NAN</DistanceMeters>
          </Trackpoint>
          <Trackpoint>
            <Time>2018-12-30T13:39:12.000Z</Time>
            <Position>
              <LatitudeDegrees>40.74994183145463466644287109375</LatitudeDegrees>
              <LongitudeDegrees>-4.0870560519397258758544921875</LongitudeDegrees>
            </Position>
            <AltitudeMeters>1575.199951171875</AltitudeMeters>
            <DistanceMeters>NAN</DistanceMeters>
          </Trackpoint>
          <Trackpoint>
            <Time>2018-12-30T13:39:13.000Z</Time>
            <Position>
              <LatitudeDegrees>40.749928839504718780517578125</LatitudeDegrees>
              <LongitudeDegrees>-4.08704842440783977508544921875</LongitudeDegrees>
            </Position>
            <AltitudeMeters>1575</AltitudeMeters>
            <DistanceMeters>NAN</DistanceMeters>
          </Trackpoint>
          <Trackpoint>
            <Time>2018-12-30T13:39:14.000Z</Time>
            <Position>
              <LatitudeDegrees>40.74992523528635501861572265625</LatitudeDegrees>
              <LongitudeDegrees>-4.0870419703423976898193359375</LongitudeDegrees>
            </Position>
            <AltitudeMeters>1574.800048828125</AltitudeMeters>
            <DistanceMeters>NAN</DistanceMeters>
          </Trackpoint>
          <Trackpoint>
            <Time>2018-12-30T13:39:15.000Z</Time>
            <Position>
              <LatitudeDegrees>40.749930180609226226806640625</LatitudeDegrees>
              <LongitudeDegrees>-4.08703803084790706634521484375</LongitudeDegrees>
            </Position>
            <AltitudeMeters>1574.5999755859375</AltitudeMeters>
            <DistanceMeters>NAN</DistanceMeters>
          </Trackpoint>
          <Trackpoint>
            <Time>2018-12-30T13:39:16.000Z</Time>
            <Position>
              <LatitudeDegrees>40.74993445537984371185302734375</LatitudeDegrees>
              <LongitudeDegrees>-4.08702964894473552703857421875</LongitudeDegrees>
            </Position>
            <AltitudeMeters>1574</AltitudeMeters>
            <DistanceMeters>NAN</DistanceMeters>
          </Trackpoint>
          <Trackpoint>
            <Time>2018-12-30T13:39:17.000Z</Time>
            <Position>
              <LatitudeDegrees>40.749938897788524627685546875</LatitudeDegrees>
              <LongitudeDegrees>-4.08702260814607143402099609375</LongitudeDegrees>
            </Position>
            <AltitudeMeters>1573.5999755859375</AltitudeMeters>
            <DistanceMeters>NAN</DistanceMeters>
          </Trackpoint>
          <Trackpoint>
            <Time>2018-12-30T13:39:18.000Z</Time>
            <Position>
              <LatitudeDegrees>40.74993613176047801971435546875</LatitudeDegrees>
              <LongitudeDegrees>-4.08701053820550441741943359375</LongitudeDegrees>
            </Position>
            <AltitudeMeters>1573.4000244140625</AltitudeMeters>
            <DistanceMeters>NAN</DistanceMeters>
          </Trackpoint>
          <Trackpoint>
            <Time>2018-12-30T13:39:19.000Z</Time>
            <Position>
              <LatitudeDegrees>40.74993428774178028106689453125</LatitudeDegrees>
              <LongitudeDegrees>-4.0870027430355548858642578125</LongitudeDegrees>
            </Position>
            <AltitudeMeters>1573.199951171875</AltitudeMeters>
            <DistanceMeters>NAN</DistanceMeters>
          </Trackpoint>
          <Trackpoint>
            <Time>2018-12-30T13:39:20.000Z</Time>
            <Position>
              <LatitudeDegrees>40.74992858804762363433837890625</LatitudeDegrees>
              <LongitudeDegrees>-4.086996205151081085205078125</LongitudeDegrees>
            </Position>
            <AltitudeMeters>1573</AltitudeMeters>
            <DistanceMeters>NAN</DistanceMeters>
          </Trackpoint>
          <Trackpoint>
            <Time>2018-12-30T13:39:21.000Z</Time>
            <Position>
              <LatitudeDegrees>40.74992288835346698760986328125</LatitudeDegrees>
              <LongitudeDegrees>-4.08699578605592250823974609375</LongitudeDegrees>
            </Position>
            <AltitudeMeters>1573</AltitudeMeters>
            <DistanceMeters>NAN</DistanceMeters>
          </Trackpoint>
          <Trackpoint>
            <Time>2018-12-30T13:39:22.000Z</Time>
            <Position>
              <LatitudeDegrees>40.74991651810705661773681640625</LatitudeDegrees>
              <LongitudeDegrees>-4.08699427731335163116455078125</LongitudeDegrees>
            </Position>
            <AltitudeMeters>1573</AltitudeMeters>
            <DistanceMeters>NAN</DistanceMeters>
          </Trackpoint>
          <Trackpoint>
            <Time>2018-12-30T13:39:23.000Z</Time>
            <Position>
              <LatitudeDegrees>40.749908722937107086181640625</LatitudeDegrees>
              <LongitudeDegrees>-4.08699125982820987701416015625</LongitudeDegrees>
            </Position>
            <AltitudeMeters>1573</AltitudeMeters>
            <DistanceMeters>NAN</DistanceMeters>
          </Trackpoint>
          <Trackpoint>
            <Time>2018-12-30T13:39:24.000Z</Time>
            <Position>
              <LatitudeDegrees>40.749897994101047515869140625</LatitudeDegrees>
              <LongitudeDegrees>-4.08698086626827716827392578125</LongitudeDegrees>
            </Position>
            <AltitudeMeters>1572.800048828125</AltitudeMeters>
            <DistanceMeters>NAN</DistanceMeters>
          </Trackpoint>
          <Trackpoint>
            <Time>2018-12-30T13:39:25.000Z</Time>
            <Position>
              <LatitudeDegrees>40.74988936074078083038330078125</LatitudeDegrees>
              <LongitudeDegrees>-4.08696812577545642852783203125</LongitudeDegrees>
            </Position>
            <AltitudeMeters>1572.5999755859375</AltitudeMeters>
            <DistanceMeters>NAN</DistanceMeters>
          </Trackpoint>
          <Trackpoint>
            <Time>2018-12-30T13:39:26.000Z</Time>
            <Position>
              <LatitudeDegrees>40.74987955391407012939453125</LatitudeDegrees>
              <LongitudeDegrees>-4.08695588819682598114013671875</LongitudeDegrees>
            </Position>
            <AltitudeMeters>1572.5999755859375</AltitudeMeters>
            <DistanceMeters>NAN</DistanceMeters>
          </Trackpoint>
          <Trackpoint>
            <Time>2018-12-30T13:39:27.000Z</Time>
            <Position>
              <LatitudeDegrees>40.74987645260989665985107421875</LatitudeDegrees>
              <LongitudeDegrees>-4.08694398589432239532470703125</LongitudeDegrees>
            </Position>
            <AltitudeMeters>1572.4000244140625</AltitudeMeters>
            <DistanceMeters>NAN</DistanceMeters>
          </Trackpoint>
          <Trackpoint>
            <Time>2018-12-30T13:39:28.000Z</Time>
            <Position>
              <LatitudeDegrees>40.7498730160295963287353515625</LatitudeDegrees>
              <LongitudeDegrees>-4.086935184895992279052734375</LongitudeDegrees>
            </Position>
            <AltitudeMeters>1572.4000244140625</AltitudeMeters>
            <DistanceMeters>NAN</DistanceMeters>
          </Trackpoint>
          <Trackpoint>
            <Time>2018-12-30T13:39:29.000Z</Time>
            <Position>
              <LatitudeDegrees>40.7498666457831859588623046875</LatitudeDegrees>
              <LongitudeDegrees>-4.08692621625959873199462890625</LongitudeDegrees>
            </Position>
            <AltitudeMeters>1572.199951171875</AltitudeMeters>
            <DistanceMeters>NAN</DistanceMeters>
          </Trackpoint>
          <Trackpoint>
            <Time>2018-12-30T13:39:30.000Z</Time>
            <Position>
              <LatitudeDegrees>40.74986035935580730438232421875</LatitudeDegrees>
              <LongitudeDegrees>-4.08692085184156894683837890625</LongitudeDegrees>
            </Position>
            <AltitudeMeters>1572.199951171875</AltitudeMeters>
            <DistanceMeters>NAN</DistanceMeters>
          </Trackpoint>
          <Trackpoint>
            <Time>2018-12-30T13:39:31.000Z</Time>
            <Position>
              <LatitudeDegrees>40.74985901825129985809326171875</LatitudeDegrees>
              <LongitudeDegrees>-4.08691196702420711517333984375</LongitudeDegrees>
            </Position>
            <AltitudeMeters>1572</AltitudeMeters>
            <DistanceMeters>NAN</DistanceMeters>
          </Trackpoint>
          <Trackpoint>
            <Time>2018-12-30T13:39:32.000Z</Time>
            <Position>
              <LatitudeDegrees>40.749871842563152313232421875</LatitudeDegrees>
              <LongitudeDegrees>-4.0868991427123546600341796875</LongitudeDegrees>
            </Position>
            <AltitudeMeters>1572</AltitudeMeters>
            <DistanceMeters>NAN</DistanceMeters>
          </Trackpoint>
          <Trackpoint>
            <Time>2018-12-30T13:39:33.000Z</Time>
            <Position>
              <LatitudeDegrees>40.7498810626566410064697265625</LatitudeDegrees>
              <LongitudeDegrees>-4.086894951760768890380859375</LongitudeDegrees>
            </Position>
            <AltitudeMeters>1572</AltitudeMeters>
            <DistanceMeters>NAN</DistanceMeters>
          </Trackpoint>
          <Trackpoint>
            <Time>2018-12-30T13:39:34.000Z</Time>
            <Position>
              <LatitudeDegrees>40.74988483451306819915771484375</LatitudeDegrees>
              <LongitudeDegrees>-4.08689570613205432891845703125</LongitudeDegrees>
            </Position>
            <AltitudeMeters>1572</AltitudeMeters>
            <DistanceMeters>NAN</DistanceMeters>
          </Trackpoint>
          <Trackpoint>
            <Time>2018-12-30T13:39:35.000Z</Time>
            <Position>
              <LatitudeDegrees>40.74988625943660736083984375</LatitudeDegrees>
              <LongitudeDegrees>-4.08690140582621097564697265625</LongitudeDegrees>
            </Position>
            <AltitudeMeters>1572</AltitudeMeters>
            <DistanceMeters>NAN</DistanceMeters>
          </Trackpoint>
          <Trackpoint>
            <Time>2018-12-30T13:39:36.000Z</Time>
            <Position>
              <LatitudeDegrees>40.74989288114011287689208984375</LatitudeDegrees>
              <LongitudeDegrees>-4.08690677024424076080322265625</LongitudeDegrees>
            </Position>
            <AltitudeMeters>1572</AltitudeMeters>
            <DistanceMeters>NAN</DistanceMeters>
          </Trackpoint>
          <Trackpoint>
            <Time>2018-12-30T13:39:37.000Z</Time>
            <Position>
              <LatitudeDegrees>40.74989992193877696990966796875</LatitudeDegrees>
              <LongitudeDegrees>-4.086912386119365692138671875</LongitudeDegrees>
            </Position>
            <AltitudeMeters>1572.199951171875</AltitudeMeters>
            <DistanceMeters>NAN</DistanceMeters>
          </Trackpoint>
          <Trackpoint>
            <Time>2018-12-30T13:39:38.000Z</Time>
            <Position>
              <LatitudeDegrees>40.749893970787525177001953125</LatitudeDegrees>
              <LongitudeDegrees>-4.08692303113639354705810546875</LongitudeDegrees>
            </Position>
            <AltitudeMeters>1572.199951171875</AltitudeMeters>
            <DistanceMeters>NAN</DistanceMeters>
          </Trackpoint>
          <Trackpoint>
            <Time>2018-12-30T13:39:39.000Z</Time>
            <Position>
              <LatitudeDegrees>40.74990495108067989349365234375</LatitudeDegrees>
              <LongitudeDegrees>-4.0869259648025035858154296875</LongitudeDegrees>
            </Position>
            <AltitudeMeters>1572.199951171875</AltitudeMeters>
            <DistanceMeters>NAN</DistanceMeters>
          </Trackpoint>
          <Trackpoint>
            <Time>2018-12-30T13:39:40.000Z</Time>
            <Position>
              <LatitudeDegrees>40.749913416802883148193359375</LatitudeDegrees>
              <LongitudeDegrees>-4.0869169123470783233642578125</LongitudeDegrees>
            </Position>
            <AltitudeMeters>1572.199951171875</AltitudeMeters>
            <DistanceMeters>NAN</DistanceMeters>
          </Trackpoint>
          <Trackpoint>
            <Time>2018-12-30T13:39:41.000Z</Time>
            <Position>
              <LatitudeDegrees>40.7499112375080585479736328125</LatitudeDegrees>
              <LongitudeDegrees>-4.08690559677779674530029296875</LongitudeDegrees>
            </Position>
            <AltitudeMeters>1572.199951171875</AltitudeMeters>
            <DistanceMeters>NAN</DistanceMeters>
          </Trackpoint>
          <Trackpoint>
            <Time>2018-12-30T13:39:42.000Z</Time>
            <Position>
              <LatitudeDegrees>40.74990830384194850921630859375</LatitudeDegrees>
              <LongitudeDegrees>-4.08689470030367374420166015625</LongitudeDegrees>
            </Position>
            <AltitudeMeters>1572.199951171875</AltitudeMeters>
            <DistanceMeters>NAN</DistanceMeters>
          </Trackpoint>
          <Trackpoint>
            <Time>2018-12-30T13:39:43.000Z</Time>
            <Position>
              <LatitudeDegrees>40.74990780092775821685791015625</LatitudeDegrees>
              <LongitudeDegrees>-4.08688715659081935882568359375</LongitudeDegrees>
            </Position>
            <AltitudeMeters>1572.199951171875</AltitudeMeters>
            <DistanceMeters>NAN</DistanceMeters>
          </Trackpoint>
          <Trackpoint>
            <Time>2018-12-30T13:39:44.000Z</Time>
            <Position>
              <LatitudeDegrees>40.7499097287654876708984375</LatitudeDegrees>
              <LongitudeDegrees>-4.0868786908686161041259765625</LongitudeDegrees>
            </Position>
            <AltitudeMeters>1572</AltitudeMeters>
            <DistanceMeters>NAN</DistanceMeters>
          </Trackpoint>
          <Trackpoint>
            <Time>2018-12-30T13:39:45.000Z</Time>
            <Position>
              <LatitudeDegrees>40.7499124109745025634765625</LatitudeDegrees>
              <LongitudeDegrees>-4.08686838112771511077880859375</LongitudeDegrees>
            </Position>
            <AltitudeMeters>1572</AltitudeMeters>
            <DistanceMeters>NAN</DistanceMeters>
          </Trackpoint>
          <Trackpoint>
            <Time>2018-12-30T13:39:46.000Z</Time>
            <Position>
              <LatitudeDegrees>40.74990696273744106292724609375</LatitudeDegrees>
              <LongitudeDegrees>-4.08686251379549503326416015625</LongitudeDegrees>
            </Position>
            <AltitudeMeters>1572</AltitudeMeters>
            <DistanceMeters>NAN</DistanceMeters>
          </Trackpoint>
          <Trackpoint>
            <Time>2018-12-30T13:39:47.000Z</Time>
            <Position>
              <LatitudeDegrees>40.74990310706198215484619140625</LatitudeDegrees>
              <LongitudeDegrees>-4.08685706555843353271484375</LongitudeDegrees>
            </Position>
            <AltitudeMeters>1572</AltitudeMeters>
            <DistanceMeters>NAN</DistanceMeters>
          </Trackpoint>
          <Trackpoint>
            <Time>2018-12-30T13:39:48.000Z</Time>
            <Position>
              <LatitudeDegrees>40.749898664653301239013671875</LatitudeDegrees>
              <LongitudeDegrees>-4.08684792928397655487060546875</LongitudeDegrees>
            </Position>
            <AltitudeMeters>1571.800048828125</AltitudeMeters>
            <DistanceMeters>NAN</DistanceMeters>
          </Trackpoint>
          <Trackpoint>
            <Time>2018-12-30T13:39:49.000Z</Time>
            <Position>
              <LatitudeDegrees>40.7498914562165737152099609375</LatitudeDegrees>
              <LongitudeDegrees>-4.08684097230434417724609375</LongitudeDegrees>
            </Position>
            <AltitudeMeters>1571.800048828125</AltitudeMeters>
            <DistanceMeters>NAN</DistanceMeters>
          </Trackpoint>
          <Trackpoint>
            <Time>2018-12-30T13:39:50.000Z</Time>
            <Position>
              <LatitudeDegrees>40.74988449923694133758544921875</LatitudeDegrees>
              <LongitudeDegrees>-4.0868349373340606689453125</LongitudeDegrees>
            </Position>
            <AltitudeMeters>1571.800048828125</AltitudeMeters>
            <DistanceMeters>NAN</DistanceMeters>
          </Trackpoint>
          <Trackpoint>
            <Time>2018-12-30T13:39:51.000Z</Time>
            <Position>
              <LatitudeDegrees>40.7498721778392791748046875</LatitudeDegrees>
              <LongitudeDegrees>-4.0868283994495868682861328125</LongitudeDegrees>
            </Position>
            <AltitudeMeters>1571.800048828125</AltitudeMeters>
            <DistanceMeters>NAN</DistanceMeters>
          </Trackpoint>
          <Trackpoint>
            <Time>2018-12-30T13:39:52.000Z</Time>
            <Position>
              <LatitudeDegrees>40.74986002407968044281005859375</LatitudeDegrees>
              <LongitudeDegrees>-4.08681691624224185943603515625</LongitudeDegrees>
            </Position>
            <AltitudeMeters>1571.800048828125</AltitudeMeters>
            <DistanceMeters>NAN</DistanceMeters>
          </Trackpoint>
          <Trackpoint>
            <Time>2018-12-30T13:39:53.000Z</Time>
            <Position>
              <LatitudeDegrees>40.7498388178646564483642578125</LatitudeDegrees>
              <LongitudeDegrees>-4.08680836670100688934326171875</LongitudeDegrees>
            </Position>
            <AltitudeMeters>1571.800048828125</AltitudeMeters>
            <DistanceMeters>NAN</DistanceMeters>
          </Trackpoint>
          <Trackpoint>
            <Time>2018-12-30T13:39:54.000Z</Time>
            <Position>
              <LatitudeDegrees>40.74982096441090106964111328125</LatitudeDegrees>
              <LongitudeDegrees>-4.08679478801786899566650390625</LongitudeDegrees>
            </Position>
            <AltitudeMeters>1571.800048828125</AltitudeMeters>
            <DistanceMeters>NAN</DistanceMeters>
          </Trackpoint>
          <Trackpoint>
            <Time>2018-12-30T13:39:55.000Z</Time>
            <Position>
              <LatitudeDegrees>40.74979850091040134429931640625</LatitudeDegrees>
              <LongitudeDegrees>-4.08678841777145862579345703125</LongitudeDegrees>
            </Position>
            <AltitudeMeters>1571.800048828125</AltitudeMeters>
            <DistanceMeters>NAN</DistanceMeters>
          </Trackpoint>
          <Trackpoint>
            <Time>2018-12-30T13:39:56.000Z</Time>
            <Position>
              <LatitudeDegrees>40.74978961609303951263427734375</LatitudeDegrees>
              <LongitudeDegrees>-4.08676997758448123931884765625</LongitudeDegrees>
            </Position>
            <AltitudeMeters>1571.800048828125</AltitudeMeters>
            <DistanceMeters>NAN</DistanceMeters>
          </Trackpoint>
          <Trackpoint>
            <Time>2018-12-30T13:39:57.000Z</Time>
            <Position>
              <LatitudeDegrees>40.749772600829601287841796875</LatitudeDegrees>
              <LongitudeDegrees>-4.0867593325674533843994140625</LongitudeDegrees>
            </Position>
            <AltitudeMeters>1571.800048828125</AltitudeMeters>
            <DistanceMeters>NAN</DistanceMeters>
          </Trackpoint>
          <Trackpoint>
            <Time>2018-12-30T13:39:58.000Z</Time>
            <Position>
              <LatitudeDegrees>40.74975860305130481719970703125</LatitudeDegrees>
              <LongitudeDegrees>-4.086749441921710968017578125</LongitudeDegrees>
            </Position>
            <AltitudeMeters>1571.800048828125</AltitudeMeters>
            <DistanceMeters>NAN</DistanceMeters>
          </Trackpoint>
          <Trackpoint>
            <Time>2018-12-30T13:39:59.000Z</Time>
            <Position>
              <LatitudeDegrees>40.74975038878619670867919921875</LatitudeDegrees>
              <LongitudeDegrees>-4.0867304988205432891845703125</LongitudeDegrees>
            </Position>
            <AltitudeMeters>1571.5999755859375</AltitudeMeters>
            <DistanceMeters>NAN</DistanceMeters>
          </Trackpoint>
          <Trackpoint>
            <Time>2018-12-30T13:40:00.000Z</Time>
            <Position>
              <LatitudeDegrees>40.74974284507334232330322265625</LatitudeDegrees>
              <LongitudeDegrees>-4.08671515993773937225341796875</LongitudeDegrees>
            </Position>
            <AltitudeMeters>1571.5999755859375</AltitudeMeters>
            <DistanceMeters>NAN</DistanceMeters>
          </Trackpoint>
          <Trackpoint>
            <Time>2018-12-30T13:40:01.000Z</Time>
            <Position>
              <LatitudeDegrees>40.749737061560153961181640625</LatitudeDegrees>
              <LongitudeDegrees>-4.086699821054935455322265625</LongitudeDegrees>
            </Position>
            <AltitudeMeters>1571.4000244140625</AltitudeMeters>
            <DistanceMeters>NAN</DistanceMeters>
          </Trackpoint>
          <Trackpoint>
            <Time>2018-12-30T13:40:02.000Z</Time>
            <Position>
              <LatitudeDegrees>40.7497231476008892059326171875</LatitudeDegrees>
              <LongitudeDegrees>-4.08668615855276584625244140625</LongitudeDegrees>
            </Position>
            <AltitudeMeters>1571.4000244140625</AltitudeMeters>
            <DistanceMeters>NAN</DistanceMeters>
          </Trackpoint>
          <Trackpoint>
            <Time>2018-12-30T13:40:03.000Z</Time>
            <Position>
              <LatitudeDegrees>40.74971887283027172088623046875</LatitudeDegrees>
              <LongitudeDegrees>-4.08666838891804218292236328125</LongitudeDegrees>
            </Position>
            <AltitudeMeters>1571.4000244140625</AltitudeMeters>
            <DistanceMeters>NAN</DistanceMeters>
          </Trackpoint>
          <Trackpoint>
            <Time>2018-12-30T13:40:04.000Z</Time>
            <Position>
              <LatitudeDegrees>40.7497073896229267120361328125</LatitudeDegrees>
              <LongitudeDegrees>-4.08665179274976253509521484375</LongitudeDegrees>
            </Position>
            <AltitudeMeters>1571.199951171875</AltitudeMeters>
            <DistanceMeters>NAN</DistanceMeters>
          </Trackpoint>
          <Trackpoint>
            <Time>2018-12-30T13:40:05.000Z</Time>
            <Position>
              <LatitudeDegrees>40.7496959902346134185791015625</LatitudeDegrees>
              <LongitudeDegrees>-4.08663251437246799468994140625</LongitudeDegrees>
            </Position>
            <AltitudeMeters>1571.199951171875</AltitudeMeters>
            <DistanceMeters>NAN</DistanceMeters>
          </Trackpoint>
          <Trackpoint>
            <Time>2018-12-30T13:40:06.000Z</Time>
            <Position>
              <LatitudeDegrees>40.74969054199755191802978515625</LatitudeDegrees>
              <LongitudeDegrees>-4.08661625348031520843505859375</LongitudeDegrees>
            </Position>
            <AltitudeMeters>1571.4000244140625</AltitudeMeters>
            <DistanceMeters>NAN</DistanceMeters>
          </Trackpoint>
          <Trackpoint>
            <Time>2018-12-30T13:40:07.000Z</Time>
            <Position>
              <LatitudeDegrees>40.74969624169170856475830078125</LatitudeDegrees>
              <LongitudeDegrees>-4.0866004116833209991455078125</LongitudeDegrees>
            </Position>
            <AltitudeMeters>1571.4000244140625</AltitudeMeters>
            <DistanceMeters>NAN</DistanceMeters>
          </Trackpoint>
          <Trackpoint>
            <Time>2018-12-30T13:40:08.000Z</Time>
            <Position>
              <LatitudeDegrees>40.74969406239688396453857421875</LatitudeDegrees>
              <LongitudeDegrees>-4.086585156619548797607421875</LongitudeDegrees>
            </Position>
            <AltitudeMeters>1571.4000244140625</AltitudeMeters>
            <DistanceMeters>NAN</DistanceMeters>
          </Trackpoint>
          <Trackpoint>
            <Time>2018-12-30T13:40:09.000Z</Time>
            <Position>
              <LatitudeDegrees>40.749686770141124725341796875</LatitudeDegrees>
              <LongitudeDegrees>-4.0865756012499332427978515625</LongitudeDegrees>
            </Position>
            <AltitudeMeters>1571.199951171875</AltitudeMeters>
            <DistanceMeters>NAN</DistanceMeters>
          </Trackpoint>
          <Trackpoint>
            <Time>2018-12-30T13:40:10.000Z</Time>
            <Position>
              <LatitudeDegrees>40.7496844232082366943359375</LatitudeDegrees>
              <LongitudeDegrees>-4.08656177110970020294189453125</LongitudeDegrees>
            </Position>
            <AltitudeMeters>1571.199951171875</AltitudeMeters>
            <DistanceMeters>NAN</DistanceMeters>
          </Trackpoint>
          <Trackpoint>
            <Time>2018-12-30T13:40:11.000Z</Time>
            <Position>
              <LatitudeDegrees>40.74968165718019008636474609375</LatitudeDegrees>
              <LongitudeDegrees>-4.086542911827564239501953125</LongitudeDegrees>
            </Position>
            <AltitudeMeters>1571.199951171875</AltitudeMeters>
            <DistanceMeters>NAN</DistanceMeters>
          </Trackpoint>
          <Trackpoint>
            <Time>2018-12-30T13:40:12.000Z</Time>
            <Position>
              <LatitudeDegrees>40.749678052961826324462890625</LatitudeDegrees>
              <LongitudeDegrees>-4.0865283273160457611083984375</LongitudeDegrees>
            </Position>
            <AltitudeMeters>1571</AltitudeMeters>
            <DistanceMeters>NAN</DistanceMeters>
          </Trackpoint>
          <Trackpoint>
            <Time>2018-12-30T13:40:13.000Z</Time>
            <Position>
              <LatitudeDegrees>40.7496762089431285858154296875</LatitudeDegrees>
              <LongitudeDegrees>-4.0865145809948444366455078125</LongitudeDegrees>
            </Position>
            <AltitudeMeters>1571</AltitudeMeters>
            <DistanceMeters>NAN</DistanceMeters>
          </Trackpoint>
          <Trackpoint>
            <Time>2018-12-30T13:40:14.000Z</Time>
            <Position>
              <LatitudeDegrees>40.74966489337384700775146484375</LatitudeDegrees>
              <LongitudeDegrees>-4.0864969789981842041015625</LongitudeDegrees>
            </Position>
            <AltitudeMeters>1571</AltitudeMeters>
            <DistanceMeters>NAN</DistanceMeters>
          </Trackpoint>
          <Trackpoint>
            <Time>2018-12-30T13:40:15.000Z</Time>
            <Position>
              <LatitudeDegrees>40.749643854796886444091796875</LatitudeDegrees>
              <LongitudeDegrees>-4.086487926542758941650390625</LongitudeDegrees>
            </Position>
            <AltitudeMeters>1570.800048828125</AltitudeMeters>
            <DistanceMeters>NAN</DistanceMeters>
          </Trackpoint>
          <Trackpoint>
            <Time>2018-12-30T13:40:16.000Z</Time>
            <Position>
              <LatitudeDegrees>40.74963052757084369659423828125</LatitudeDegrees>
              <LongitudeDegrees>-4.08647543750703334808349609375</LongitudeDegrees>
            </Position>
            <AltitudeMeters>1570.800048828125</AltitudeMeters>
            <DistanceMeters>NAN</DistanceMeters>
          </Trackpoint>
          <Trackpoint>
            <Time>2018-12-30T13:40:17.000Z</Time>
            <Position>
              <LatitudeDegrees>40.74961401522159576416015625</LatitudeDegrees>
              <LongitudeDegrees>-4.08646470867097377777099609375</LongitudeDegrees>
            </Position>
            <AltitudeMeters>1570.5999755859375</AltitudeMeters>
            <DistanceMeters>NAN</DistanceMeters>
          </Trackpoint>
          <Trackpoint>
            <Time>2018-12-30T13:40:18.000Z</Time>
            <Position>
              <LatitudeDegrees>40.74960219673812389373779296875</LatitudeDegrees>
              <LongitudeDegrees>-4.08645381219685077667236328125</LongitudeDegrees>
            </Position>
            <AltitudeMeters>1570.800048828125</AltitudeMeters>
            <DistanceMeters>NAN</DistanceMeters>
          </Trackpoint>
          <Trackpoint>
            <Time>2018-12-30T13:40:19.000Z</Time>
            <Position>
              <LatitudeDegrees>40.74959658086299896240234375</LatitudeDegrees>
              <LongitudeDegrees>-4.08644090406596660614013671875</LongitudeDegrees>
            </Position>
            <AltitudeMeters>1571</AltitudeMeters>
            <DistanceMeters>NAN</DistanceMeters>
          </Trackpoint>
          <Trackpoint>
            <Time>2018-12-30T13:40:20.000Z</Time>
            <Position>
              <LatitudeDegrees>40.74958425946533679962158203125</LatitudeDegrees>
              <LongitudeDegrees>-4.0864351205527782440185546875</LongitudeDegrees>
            </Position>
            <AltitudeMeters>1571</AltitudeMeters>
            <DistanceMeters>NAN</DistanceMeters>
          </Trackpoint>
          <Trackpoint>
            <Time>2018-12-30T13:40:21.000Z</Time>
            <Position>
              <LatitudeDegrees>40.74958048760890960693359375</LatitudeDegrees>
              <LongitudeDegrees>-4.08641693182289600372314453125</LongitudeDegrees>
            </Position>
            <AltitudeMeters>1571.199951171875</AltitudeMeters>
            <DistanceMeters>NAN</DistanceMeters>
          </Trackpoint>
          <Trackpoint>
            <Time>2018-12-30T13:40:22.000Z</Time>
            <Position>
              <LatitudeDegrees>40.74956984259188175201416015625</LatitudeDegrees>
              <LongitudeDegrees>-4.0864057838916778564453125</LongitudeDegrees>
            </Position>
            <AltitudeMeters>1571.199951171875</AltitudeMeters>
            <DistanceMeters>NAN</DistanceMeters>
          </Trackpoint>
          <Trackpoint>
            <Time>2018-12-30T13:40:23.000Z</Time>
            <Position>
              <LatitudeDegrees>40.74955844320356845855712890625</LatitudeDegrees>
              <LongitudeDegrees>-4.0863982401788234710693359375</LongitudeDegrees>
            </Position>
            <AltitudeMeters>1571.199951171875</AltitudeMeters>
            <DistanceMeters>NAN</DistanceMeters>
          </Trackpoint>
          <Trackpoint>
            <Time>2018-12-30T13:40:24.000Z</Time>
            <Position>
              <LatitudeDegrees>40.74954419396817684173583984375</LatitudeDegrees>
              <LongitudeDegrees>-4.08638776279985904693603515625</LongitudeDegrees>
            </Position>
            <AltitudeMeters>1571.4000244140625</AltitudeMeters>
            <DistanceMeters>NAN</DistanceMeters>
          </Trackpoint>
          <Trackpoint>
            <Time>2018-12-30T13:40:25.000Z</Time>
            <Position>
              <LatitudeDegrees>40.74952592141926288604736328125</LatitudeDegrees>
              <LongitudeDegrees>-4.08637988381087779998779296875</LongitudeDegrees>
            </Position>
            <AltitudeMeters>1571.5999755859375</AltitudeMeters>
            <DistanceMeters>NAN</DistanceMeters>
          </Trackpoint>
          <Trackpoint>
            <Time>2018-12-30T13:40:26.000Z</Time>
            <Position>
              <LatitudeDegrees>40.74951066635549068450927734375</LatitudeDegrees>
              <LongitudeDegrees>-4.08636890351772308349609375</LongitudeDegrees>
            </Position>
            <AltitudeMeters>1571.5999755859375</AltitudeMeters>
            <DistanceMeters>NAN</DistanceMeters>
          </Trackpoint>
          <Trackpoint>
            <Time>2018-12-30T13:40:27.000Z</Time>
            <Position>
              <LatitudeDegrees>40.7495015300810337066650390625</LatitudeDegrees>
              <LongitudeDegrees>-4.086359180510044097900390625</LongitudeDegrees>
            </Position>
            <AltitudeMeters>1571.5999755859375</AltitudeMeters>
            <DistanceMeters>NAN</DistanceMeters>
          </Trackpoint>
          <Trackpoint>
            <Time>2018-12-30T13:40:28.000Z</Time>
            <Position>
              <LatitudeDegrees>40.749493651092052459716796875</LatitudeDegrees>
              <LongitudeDegrees>-4.0863506309688091278076171875</LongitudeDegrees>
            </Position>
            <AltitudeMeters>1571.5999755859375</AltitudeMeters>
            <DistanceMeters>NAN</DistanceMeters>
          </Trackpoint>
          <Trackpoint>
            <Time>2018-12-30T13:40:29.000Z</Time>
            <Position>
              <LatitudeDegrees>40.7494819164276123046875</LatitudeDegrees>
              <LongitudeDegrees>-4.0863449312746524810791015625</LongitudeDegrees>
            </Position>
            <AltitudeMeters>1571.5999755859375</AltitudeMeters>
            <DistanceMeters>NAN</DistanceMeters>
          </Trackpoint>
          <Trackpoint>
            <Time>2018-12-30T13:40:30.000Z</Time>
            <Position>
              <LatitudeDegrees>40.7494696788489818572998046875</LatitudeDegrees>
              <LongitudeDegrees>-4.0863365493714809417724609375</LongitudeDegrees>
            </Position>
            <AltitudeMeters>1571.5999755859375</AltitudeMeters>
            <DistanceMeters>NAN</DistanceMeters>
          </Trackpoint>
          <Trackpoint>
            <Time>2018-12-30T13:40:31.000Z</Time>
            <Position>
              <LatitudeDegrees>40.74946674518287181854248046875</LatitudeDegrees>
              <LongitudeDegrees>-4.086325652897357940673828125</LongitudeDegrees>
            </Position>
            <AltitudeMeters>1571.5999755859375</AltitudeMeters>
            <DistanceMeters>NAN</DistanceMeters>
          </Trackpoint>
          <Trackpoint>
            <Time>2018-12-30T13:40:32.000Z</Time>
            <Position>
              <LatitudeDegrees>40.7494582794606685638427734375</LatitudeDegrees>
              <LongitudeDegrees>-4.08631517551839351654052734375</LongitudeDegrees>
            </Position>
            <AltitudeMeters>1571.4000244140625</AltitudeMeters>
            <DistanceMeters>NAN</DistanceMeters>
          </Trackpoint>
          <Trackpoint>
            <Time>2018-12-30T13:40:33.000Z</Time>
            <Position>
              <LatitudeDegrees>40.74944897554814815521240234375</LatitudeDegrees>
              <LongitudeDegrees>-4.0863065421581268310546875</LongitudeDegrees>
            </Position>
            <AltitudeMeters>1571.4000244140625</AltitudeMeters>
            <DistanceMeters>NAN</DistanceMeters>
          </Trackpoint>
          <Trackpoint>
            <Time>2018-12-30T13:40:34.000Z</Time>
            <Position>
              <LatitudeDegrees>40.74943522922694683074951171875</LatitudeDegrees>
              <LongitudeDegrees>-4.08629874698817729949951171875</LongitudeDegrees>
            </Position>
            <AltitudeMeters>1571.199951171875</AltitudeMeters>
            <DistanceMeters>NAN</DistanceMeters>
          </Trackpoint>
          <Trackpoint>
            <Time>2018-12-30T13:40:35.000Z</Time>
            <Position>
              <LatitudeDegrees>40.74942483566701412200927734375</LatitudeDegrees>
              <LongitudeDegrees>-4.08628516830503940582275390625</LongitudeDegrees>
            </Position>
            <AltitudeMeters>1571.199951171875</AltitudeMeters>
            <DistanceMeters>NAN</DistanceMeters>
          </Trackpoint>
          <Trackpoint>
            <Time>2018-12-30T13:40:36.000Z</Time>
            <Position>
              <LatitudeDegrees>40.74941729195415973663330078125</LatitudeDegrees>
              <LongitudeDegrees>-4.08627309836447238922119140625</LongitudeDegrees>
            </Position>
            <AltitudeMeters>1571.4000244140625</AltitudeMeters>
            <DistanceMeters>NAN</DistanceMeters>
          </Trackpoint>
          <Trackpoint>
            <Time>2018-12-30T13:40:37.000Z</Time>
            <Position>
              <LatitudeDegrees>40.74940958060324192047119140625</LatitudeDegrees>
              <LongitudeDegrees>-4.086262285709381103515625</LongitudeDegrees>
            </Position>
            <AltitudeMeters>1571.4000244140625</AltitudeMeters>
            <DistanceMeters>NAN</DistanceMeters>
          </Trackpoint>
          <Trackpoint>
            <Time>2018-12-30T13:40:38.000Z</Time>
            <Position>
              <LatitudeDegrees>40.7493942417204380035400390625</LatitudeDegrees>
              <LongitudeDegrees>-4.08625566400587558746337890625</LongitudeDegrees>
            </Position>
            <AltitudeMeters>1571.5999755859375</AltitudeMeters>
            <DistanceMeters>NAN</DistanceMeters>
          </Trackpoint>
          <Trackpoint>
            <Time>2018-12-30T13:40:39.000Z</Time>
            <Position>
              <LatitudeDegrees>40.74938795529305934906005859375</LatitudeDegrees>
              <LongitudeDegrees>-4.0862466953694820404052734375</LongitudeDegrees>
            </Position>
            <AltitudeMeters>1571.5999755859375</AltitudeMeters>
            <DistanceMeters>NAN</DistanceMeters>
          </Trackpoint>
          <Trackpoint>
            <Time>2018-12-30T13:40:40.000Z</Time>
            <Position>
              <LatitudeDegrees>40.7493865303695201873779296875</LatitudeDegrees>
              <LongitudeDegrees>-4.0862403251230716705322265625</LongitudeDegrees>
            </Position>
            <AltitudeMeters>1571.800048828125</AltitudeMeters>
            <DistanceMeters>NAN</DistanceMeters>
          </Trackpoint>
          <Trackpoint>
            <Time>2018-12-30T13:40:41.000Z</Time>
            <Position>
              <LatitudeDegrees>40.7493798248469829559326171875</LatitudeDegrees>
              <LongitudeDegrees>-4.08623755909502506256103515625</LongitudeDegrees>
            </Position>
            <AltitudeMeters>1571.800048828125</AltitudeMeters>
            <DistanceMeters>NAN</DistanceMeters>
          </Trackpoint>
          <Trackpoint>
            <Time>2018-12-30T13:40:42.000Z</Time>
            <Position>
              <LatitudeDegrees>40.749371610581874847412109375</LatitudeDegrees>
              <LongitudeDegrees>-4.08623185940086841583251953125</LongitudeDegrees>
            </Position>
            <AltitudeMeters>1571.800048828125</AltitudeMeters>
            <DistanceMeters>NAN</DistanceMeters>
          </Trackpoint>
          <Trackpoint>
            <Time>2018-12-30T13:40:43.000Z</Time>
            <Position>
              <LatitudeDegrees>40.74936188757419586181640625</LatitudeDegrees>
              <LongitudeDegrees>-4.086221046745777130126953125</LongitudeDegrees>
            </Position>
            <AltitudeMeters>1571.800048828125</AltitudeMeters>
            <DistanceMeters>NAN</DistanceMeters>
          </Trackpoint>
          <Trackpoint>
            <Time>2018-12-30T13:40:44.000Z</Time>
            <Position>
              <LatitudeDegrees>40.74935040436685085296630859375</LatitudeDegrees>
              <LongitudeDegrees>-4.08621358685195446014404296875</LongitudeDegrees>
            </Position>
            <AltitudeMeters>1571.800048828125</AltitudeMeters>
            <DistanceMeters>NAN</DistanceMeters>
          </Trackpoint>
          <Trackpoint>
            <Time>2018-12-30T13:40:45.000Z</Time>
            <Position>
              <LatitudeDegrees>40.74934042990207672119140625</LatitudeDegrees>
              <LongitudeDegrees>-4.08620637841522693634033203125</LongitudeDegrees>
            </Position>
            <AltitudeMeters>1571.800048828125</AltitudeMeters>
            <DistanceMeters>NAN</DistanceMeters>
          </Trackpoint>
          <Trackpoint>
            <Time>2018-12-30T13:40:46.000Z</Time>
            <Position>
              <LatitudeDegrees>40.74933104217052459716796875</LatitudeDegrees>
              <LongitudeDegrees>-4.08618978224694728851318359375</LongitudeDegrees>
            </Position>
            <AltitudeMeters>1571.800048828125</AltitudeMeters>
            <DistanceMeters>NAN</DistanceMeters>
          </Trackpoint>
          <Trackpoint>
            <Time>2018-12-30T13:40:47.000Z</Time>
            <Position>
              <LatitudeDegrees>40.7493255101144313812255859375</LatitudeDegrees>
              <LongitudeDegrees>-4.08617570064961910247802734375</LongitudeDegrees>
            </Position>
            <AltitudeMeters>1571.5999755859375</AltitudeMeters>
            <DistanceMeters>NAN</DistanceMeters>
          </Trackpoint>
          <Trackpoint>
            <Time>2018-12-30T13:40:48.000Z</Time>
            <Position>
              <LatitudeDegrees>40.74930530972778797149658203125</LatitudeDegrees>
              <LongitudeDegrees>-4.086152650415897369384765625</LongitudeDegrees>
            </Position>
            <AltitudeMeters>1571.4000244140625</AltitudeMeters>
            <DistanceMeters>NAN</DistanceMeters>
          </Trackpoint>
          <Trackpoint>
            <Time>2018-12-30T13:40:49.000Z</Time>
            <Position>
              <LatitudeDegrees>40.74929038994014263153076171875</LatitudeDegrees>
              <LongitudeDegrees>-4.08613462932407855987548828125</LongitudeDegrees>
            </Position>
            <AltitudeMeters>1571.199951171875</AltitudeMeters>
            <DistanceMeters>NAN</DistanceMeters>
          </Trackpoint>
          <Trackpoint>
            <Time>2018-12-30T13:40:50.000Z</Time>
            <Position>
              <LatitudeDegrees>40.7492779009044170379638671875</LatitudeDegrees>
              <LongitudeDegrees>-4.0861182846128940582275390625</LongitudeDegrees>
            </Position>
            <AltitudeMeters>1571.199951171875</AltitudeMeters>
            <DistanceMeters>NAN</DistanceMeters>
          </Trackpoint>
          <Trackpoint>
            <Time>2018-12-30T13:40:51.000Z</Time>
            <Position>
              <LatitudeDegrees>40.74926742352545261383056640625</LatitudeDegrees>
              <LongitudeDegrees>-4.0861035324633121490478515625</LongitudeDegrees>
            </Position>
            <AltitudeMeters>1571</AltitudeMeters>
            <DistanceMeters>NAN</DistanceMeters>
          </Trackpoint>
          <Trackpoint>
            <Time>2018-12-30T13:40:52.000Z</Time>
            <Position>
              <LatitudeDegrees>40.74926423840224742889404296875</LatitudeDegrees>
              <LongitudeDegrees>-4.086090624332427978515625</LongitudeDegrees>
            </Position>
            <AltitudeMeters>1571</AltitudeMeters>
            <DistanceMeters>NAN</DistanceMeters>
          </Trackpoint>
          <Trackpoint>
            <Time>2018-12-30T13:40:53.000Z</Time>
            <Position>
              <LatitudeDegrees>40.74925987981259822845458984375</LatitudeDegrees>
              <LongitudeDegrees>-4.0860753692686557769775390625</LongitudeDegrees>
            </Position>
            <AltitudeMeters>1570.800048828125</AltitudeMeters>
            <DistanceMeters>NAN</DistanceMeters>
          </Trackpoint>
          <Trackpoint>
            <Time>2018-12-30T13:40:54.000Z</Time>
            <Position>
              <LatitudeDegrees>40.7492611370980739593505859375</LatitudeDegrees>
              <LongitudeDegrees>-4.0860492177307605743408203125</LongitudeDegrees>
            </Position>
            <AltitudeMeters>1570.800048828125</AltitudeMeters>
            <DistanceMeters>NAN</DistanceMeters>
          </Trackpoint>
          <Trackpoint>
            <Time>2018-12-30T13:40:55.000Z</Time>
            <Position>
              <LatitudeDegrees>40.7492490671575069427490234375</LatitudeDegrees>
              <LongitudeDegrees>-4.08602935262024402618408203125</LongitudeDegrees>
            </Position>
            <AltitudeMeters>1570.5999755859375</AltitudeMeters>
            <DistanceMeters>NAN</DistanceMeters>
          </Trackpoint>
          <Trackpoint>
            <Time>2018-12-30T13:40:56.000Z</Time>
            <Position>
              <LatitudeDegrees>40.74924412183463573455810546875</LatitudeDegrees>
              <LongitudeDegrees>-4.08600823022425174713134765625</LongitudeDegrees>
            </Position>
            <AltitudeMeters>1570.5999755859375</AltitudeMeters>
            <DistanceMeters>NAN</DistanceMeters>
          </Trackpoint>
          <Trackpoint>
            <Time>2018-12-30T13:40:57.000Z</Time>
            <Position>
              <LatitudeDegrees>40.74922987259924411773681640625</LatitudeDegrees>
              <LongitudeDegrees>-4.08599230460822582244873046875</LongitudeDegrees>
            </Position>
            <AltitudeMeters>1570.5999755859375</AltitudeMeters>
            <DistanceMeters>NAN</DistanceMeters>
          </Trackpoint>
          <Trackpoint>
            <Time>2018-12-30T13:40:58.000Z</Time>
            <Position>
              <LatitudeDegrees>40.74921947903931140899658203125</LatitudeDegrees>
              <LongitudeDegrees>-4.085978306829929351806640625</LongitudeDegrees>
            </Position>
            <AltitudeMeters>1570.5999755859375</AltitudeMeters>
            <DistanceMeters>NAN</DistanceMeters>
          </Trackpoint>
          <Trackpoint>
            <Time>2018-12-30T13:40:59.000Z</Time>
            <Position>
              <LatitudeDegrees>40.74920992366969585418701171875</LatitudeDegrees>
              <LongitudeDegrees>-4.08596229739487171173095703125</LongitudeDegrees>
            </Position>
            <AltitudeMeters>1570.800048828125</AltitudeMeters>
            <DistanceMeters>NAN</DistanceMeters>
          </Trackpoint>
          <Trackpoint>
            <Time>2018-12-30T13:41:00.000Z</Time>
            <Position>
              <LatitudeDegrees>40.74920506216585636138916015625</LatitudeDegrees>
              <LongitudeDegrees>-4.0859469585120677947998046875</LongitudeDegrees>
            </Position>
            <AltitudeMeters>1570.800048828125</AltitudeMeters>
            <DistanceMeters>NAN</DistanceMeters>
          </Trackpoint>
          <Trackpoint>
            <Time>2018-12-30T13:41:01.000Z</Time>
            <Position>
              <LatitudeDegrees>40.74920103885233402252197265625</LatitudeDegrees>
              <LongitudeDegrees>-4.08593044616281986236572265625</LongitudeDegrees>
            </Position>
            <AltitudeMeters>1571</AltitudeMeters>
            <DistanceMeters>NAN</DistanceMeters>
          </Trackpoint>
          <Trackpoint>
            <Time>2018-12-30T13:41:02.000Z</Time>
            <Position>
              <LatitudeDegrees>40.74918444268405437469482421875</LatitudeDegrees>
              <LongitudeDegrees>-4.0859149396419525146484375</LongitudeDegrees>
            </Position>
            <AltitudeMeters>1571</AltitudeMeters>
            <DistanceMeters>NAN</DistanceMeters>
          </Trackpoint>
          <Trackpoint>
            <Time>2018-12-30T13:41:03.000Z</Time>
            <Position>
              <LatitudeDegrees>40.749174468219280242919921875</LatitudeDegrees>
              <LongitudeDegrees>-4.08589943312108516693115234375</LongitudeDegrees>
            </Position>
            <AltitudeMeters>1571</AltitudeMeters>
            <DistanceMeters>NAN</DistanceMeters>
          </Trackpoint>
          <Trackpoint>
            <Time>2018-12-30T13:41:04.000Z</Time>
            <Position>
              <LatitudeDegrees>40.74916030280292034149169921875</LatitudeDegrees>
              <LongitudeDegrees>-4.0858839266002178192138671875</LongitudeDegrees>
            </Position>
            <AltitudeMeters>1571</AltitudeMeters>
            <DistanceMeters>NAN</DistanceMeters>
          </Trackpoint>
          <Trackpoint>
            <Time>2018-12-30T13:41:05.000Z</Time>
            <Position>
              <LatitudeDegrees>40.7491498254239559173583984375</LatitudeDegrees>
              <LongitudeDegrees>-4.08587143756449222564697265625</LongitudeDegrees>
            </Position>
            <AltitudeMeters>1571.199951171875</AltitudeMeters>
            <DistanceMeters>NAN</DistanceMeters>
          </Trackpoint>
          <Trackpoint>
            <Time>2018-12-30T13:41:06.000Z</Time>
            <Position>
              <LatitudeDegrees>40.749141275882720947265625</LatitudeDegrees>
              <LongitudeDegrees>-4.0858594514429569244384765625</LongitudeDegrees>
            </Position>
            <AltitudeMeters>1571.199951171875</AltitudeMeters>
            <DistanceMeters>NAN</DistanceMeters>
          </Trackpoint>
          <Trackpoint>
            <Time>2018-12-30T13:41:07.000Z</Time>
            <Position>
              <LatitudeDegrees>40.74913750402629375457763671875</LatitudeDegrees>
              <LongitudeDegrees>-4.08584763295948505401611328125</LongitudeDegrees>
            </Position>
            <AltitudeMeters>1571.199951171875</AltitudeMeters>
            <DistanceMeters>NAN</DistanceMeters>
          </Trackpoint>
          <Trackpoint>
            <Time>2018-12-30T13:41:08.000Z</Time>
            <Position>
              <LatitudeDegrees>40.7491297088563442230224609375</LatitudeDegrees>
              <LongitudeDegrees>-4.0858356468379497528076171875</LongitudeDegrees>
            </Position>
            <AltitudeMeters>1571.199951171875</AltitudeMeters>
            <DistanceMeters>NAN</DistanceMeters>
          </Trackpoint>
          <Trackpoint>
            <Time>2018-12-30T13:41:09.000Z</Time>
            <Position>
              <LatitudeDegrees>40.7491250149905681610107421875</LatitudeDegrees>
              <LongitudeDegrees>-4.08582332544028759002685546875</LongitudeDegrees>
            </Position>
            <AltitudeMeters>1571.199951171875</AltitudeMeters>
            <DistanceMeters>NAN</DistanceMeters>
          </Trackpoint>
          <Trackpoint>
            <Time>2018-12-30T13:41:10.000Z</Time>
            <Position>
              <LatitudeDegrees>40.74911721982061862945556640625</LatitudeDegrees>
              <LongitudeDegrees>-4.08581159077584743499755859375</LongitudeDegrees>
            </Position>
            <AltitudeMeters>1571.4000244140625</AltitudeMeters>
            <DistanceMeters>NAN</DistanceMeters>
          </Trackpoint>
          <Trackpoint>
            <Time>2018-12-30T13:41:11.000Z</Time>
            <Position>
              <LatitudeDegrees>40.74910514988005161285400390625</LatitudeDegrees>
              <LongitudeDegrees>-4.08580438233911991119384765625</LongitudeDegrees>
            </Position>
            <AltitudeMeters>1571.4000244140625</AltitudeMeters>
            <DistanceMeters>NAN</DistanceMeters>
          </Trackpoint>
          <Trackpoint>
            <Time>2018-12-30T13:41:12.000Z</Time>
            <Position>
              <LatitudeDegrees>40.749095343053340911865234375</LatitudeDegrees>
              <LongitudeDegrees>-4.0857950784265995025634765625</LongitudeDegrees>
            </Position>
            <AltitudeMeters>1571.4000244140625</AltitudeMeters>
            <DistanceMeters>NAN</DistanceMeters>
          </Trackpoint>
          <Trackpoint>
            <Time>2018-12-30T13:41:13.000Z</Time>
            <Position>
              <LatitudeDegrees>40.74908553622663021087646484375</LatitudeDegrees>
              <LongitudeDegrees>-4.08578493632376194000244140625</LongitudeDegrees>
            </Position>
            <AltitudeMeters>1571.5999755859375</AltitudeMeters>
            <DistanceMeters>NAN</DistanceMeters>
          </Trackpoint>
          <Trackpoint>
            <Time>2018-12-30T13:41:14.000Z</Time>
            <Position>
              <LatitudeDegrees>40.74906994588673114776611328125</LatitudeDegrees>
              <LongitudeDegrees>-4.08577789552509784698486328125</LongitudeDegrees>
            </Position>
            <AltitudeMeters>1571.800048828125</AltitudeMeters>
            <DistanceMeters>NAN</DistanceMeters>
          </Trackpoint>
          <Trackpoint>
            <Time>2018-12-30T13:41:15.000Z</Time>
            <Position>
              <LatitudeDegrees>40.74905569665133953094482421875</LatitudeDegrees>
              <LongitudeDegrees>-4.08577035181224346160888671875</LongitudeDegrees>
            </Position>
            <AltitudeMeters>1571.800048828125</AltitudeMeters>
            <DistanceMeters>NAN</DistanceMeters>
          </Trackpoint>
          <Trackpoint>
            <Time>2018-12-30T13:41:16.000Z</Time>
            <Position>
              <LatitudeDegrees>40.74904111213982105255126953125</LatitudeDegrees>
              <LongitudeDegrees>-4.08576565794646739959716796875</LongitudeDegrees>
            </Position>
            <AltitudeMeters>1571.800048828125</AltitudeMeters>
            <DistanceMeters>NAN</DistanceMeters>
          </Trackpoint>
          <Trackpoint>
            <Time>2018-12-30T13:41:17.000Z</Time>
            <Position>
              <LatitudeDegrees>40.74902870692312717437744140625</LatitudeDegrees>
              <LongitudeDegrees>-4.085760377347469329833984375</LongitudeDegrees>
            </Position>
            <AltitudeMeters>1571.800048828125</AltitudeMeters>
            <DistanceMeters>NAN</DistanceMeters>
          </Trackpoint>
          <Trackpoint>
            <Time>2018-12-30T13:41:18.000Z</Time>
            <Position>
              <LatitudeDegrees>40.7490237616002559661865234375</LatitudeDegrees>
              <LongitudeDegrees>-4.0857551805675029754638671875</LongitudeDegrees>
            </Position>
            <AltitudeMeters>1571.5999755859375</AltitudeMeters>
            <DistanceMeters>NAN</DistanceMeters>
          </Trackpoint>
          <Trackpoint>
            <Time>2018-12-30T13:41:19.000Z</Time>
            <Position>
              <LatitudeDegrees>40.7490137033164501190185546875</LatitudeDegrees>
              <LongitudeDegrees>-4.0857478044927120208740234375</LongitudeDegrees>
            </Position>
            <AltitudeMeters>1571.4000244140625</AltitudeMeters>
            <DistanceMeters>NAN</DistanceMeters>
          </Trackpoint>
          <Trackpoint>
            <Time>2018-12-30T13:41:20.000Z</Time>
            <Position>
              <LatitudeDegrees>40.74900188483297824859619140625</LatitudeDegrees>
              <LongitudeDegrees>-4.08574051223695278167724609375</LongitudeDegrees>
            </Position>
            <AltitudeMeters>1571.199951171875</AltitudeMeters>
            <DistanceMeters>NAN</DistanceMeters>
          </Trackpoint>
          <Trackpoint>
            <Time>2018-12-30T13:41:21.000Z</Time>
            <Position>
              <LatitudeDegrees>40.7489855401217937469482421875</LatitudeDegrees>
              <LongitudeDegrees>-4.08573456108570098876953125</LongitudeDegrees>
            </Position>
            <AltitudeMeters>1571</AltitudeMeters>
            <DistanceMeters>NAN</DistanceMeters>
          </Trackpoint>
          <Trackpoint>
            <Time>2018-12-30T13:41:22.000Z</Time>
            <Position>
              <LatitudeDegrees>40.7489736378192901611328125</LatitudeDegrees>
              <LongitudeDegrees>-4.08572307787835597991943359375</LongitudeDegrees>
            </Position>
            <AltitudeMeters>1570.5999755859375</AltitudeMeters>
            <DistanceMeters>NAN</DistanceMeters>
          </Trackpoint>
          <Trackpoint>
            <Time>2018-12-30T13:41:23.000Z</Time>
            <Position>
              <LatitudeDegrees>40.7489629089832305908203125</LatitudeDegrees>
              <LongitudeDegrees>-4.0857132710516452789306640625</LongitudeDegrees>
            </Position>
            <AltitudeMeters>1570.4000244140625</AltitudeMeters>
            <DistanceMeters>NAN</DistanceMeters>
          </Trackpoint>
          <Trackpoint>
            <Time>2018-12-30T13:41:24.000Z</Time>
            <Position>
              <LatitudeDegrees>40.7489489950239658355712890625</LatitudeDegrees>
              <LongitudeDegrees>-4.0857012011110782623291015625</LongitudeDegrees>
            </Position>
            <AltitudeMeters>1570.199951171875</AltitudeMeters>
            <DistanceMeters>NAN</DistanceMeters>
          </Trackpoint>
          <Trackpoint>
            <Time>2018-12-30T13:41:25.000Z</Time>
            <Position>
              <LatitudeDegrees>40.748941116034984588623046875</LatitudeDegrees>
              <LongitudeDegrees>-4.08568887971341609954833984375</LongitudeDegrees>
            </Position>
            <AltitudeMeters>1569.800048828125</AltitudeMeters>
            <DistanceMeters>NAN</DistanceMeters>
          </Trackpoint>
          <Trackpoint>
            <Time>2018-12-30T13:41:26.000Z</Time>
            <Position>
              <LatitudeDegrees>40.74893273413181304931640625</LatitudeDegrees>
              <LongitudeDegrees>-4.0856767259538173675537109375</LongitudeDegrees>
            </Position>
            <AltitudeMeters>1569.5999755859375</AltitudeMeters>
            <DistanceMeters>NAN</DistanceMeters>
          </Trackpoint>
          <Trackpoint>
            <Time>2018-12-30T13:41:27.000Z</Time>
            <Position>
              <LatitudeDegrees>40.74892896227538585662841796875</LatitudeDegrees>
              <LongitudeDegrees>-4.08566440455615520477294921875</LongitudeDegrees>
            </Position>
            <AltitudeMeters>1569.199951171875</AltitudeMeters>
            <DistanceMeters>NAN</DistanceMeters>
          </Trackpoint>
          <Trackpoint>
            <Time>2018-12-30T13:41:28.000Z</Time>
            <Position>
              <LatitudeDegrees>40.7489231787621974945068359375</LatitudeDegrees>
              <LongitudeDegrees>-4.08564764074981212615966796875</LongitudeDegrees>
            </Position>
            <AltitudeMeters>1569.199951171875</AltitudeMeters>
            <DistanceMeters>NAN</DistanceMeters>
          </Trackpoint>
          <Trackpoint>
            <Time>2018-12-30T13:41:29.000Z</Time>
            <Position>
              <LatitudeDegrees>40.7489188201725482940673828125</LatitudeDegrees>
              <LongitudeDegrees>-4.08563322387635707855224609375</LongitudeDegrees>
            </Position>
            <AltitudeMeters>1568.800048828125</AltitudeMeters>
            <DistanceMeters>NAN</DistanceMeters>
          </Trackpoint>
          <Trackpoint>
            <Time>2018-12-30T13:41:30.000Z</Time>
            <Position>
              <LatitudeDegrees>40.74891605414450168609619140625</LatitudeDegrees>
              <LongitudeDegrees>-4.0856190584599971771240234375</LongitudeDegrees>
            </Position>
            <AltitudeMeters>1568.4000244140625</AltitudeMeters>
            <DistanceMeters>NAN</DistanceMeters>
          </Trackpoint>
          <Trackpoint>
            <Time>2018-12-30T13:41:31.000Z</Time>
            <Position>
              <LatitudeDegrees>40.74890783987939357757568359375</LatitudeDegrees>
              <LongitudeDegrees>-4.08560824580490589141845703125</LongitudeDegrees>
            </Position>
            <AltitudeMeters>1568.199951171875</AltitudeMeters>
            <DistanceMeters>NAN</DistanceMeters>
          </Trackpoint>
          <Trackpoint>
            <Time>2018-12-30T13:41:32.000Z</Time>
            <Position>
              <LatitudeDegrees>40.7489023916423320770263671875</LatitudeDegrees>
              <LongitudeDegrees>-4.08559642732143402099609375</LongitudeDegrees>
            </Position>
            <AltitudeMeters>1568</AltitudeMeters>
            <DistanceMeters>NAN</DistanceMeters>
          </Trackpoint>
          <Trackpoint>
            <Time>2018-12-30T13:41:33.000Z</Time>
            <Position>
              <LatitudeDegrees>40.74889845214784145355224609375</LatitudeDegrees>
              <LongitudeDegrees>-4.08558226190507411956787109375</LongitudeDegrees>
            </Position>
            <AltitudeMeters>1567.800048828125</AltitudeMeters>
            <DistanceMeters>NAN</DistanceMeters>
          </Trackpoint>
          <Trackpoint>
            <Time>2018-12-30T13:41:34.000Z</Time>
            <Position>
              <LatitudeDegrees>40.7488958537578582763671875</LatitudeDegrees>
              <LongitudeDegrees>-4.08556650392711162567138671875</LongitudeDegrees>
            </Position>
            <AltitudeMeters>1567.5999755859375</AltitudeMeters>
            <DistanceMeters>NAN</DistanceMeters>
          </Trackpoint>
          <Trackpoint>
            <Time>2018-12-30T13:41:35.000Z</Time>
            <Position>
              <LatitudeDegrees>40.7488913275301456451416015625</LatitudeDegrees>
              <LongitudeDegrees>-4.0855553559958934783935546875</LongitudeDegrees>
            </Position>
            <AltitudeMeters>1567.4000244140625</AltitudeMeters>
            <DistanceMeters>NAN</DistanceMeters>
          </Trackpoint>
          <Trackpoint>
            <Time>2018-12-30T13:41:36.000Z</Time>
            <Position>
              <LatitudeDegrees>40.7488824427127838134765625</LatitudeDegrees>
              <LongitudeDegrees>-4.08554387278854846954345703125</LongitudeDegrees>
            </Position>
            <AltitudeMeters>1567.199951171875</AltitudeMeters>
            <DistanceMeters>NAN</DistanceMeters>
          </Trackpoint>
          <Trackpoint>
            <Time>2018-12-30T13:41:37.000Z</Time>
            <Position>
              <LatitudeDegrees>40.7488725520670413970947265625</LatitudeDegrees>
              <LongitudeDegrees>-4.0855372510850429534912109375</LongitudeDegrees>
            </Position>
            <AltitudeMeters>1567</AltitudeMeters>
            <DistanceMeters>NAN</DistanceMeters>
          </Trackpoint>
          <Trackpoint>
            <Time>2018-12-30T13:41:38.000Z</Time>
            <Position>
              <LatitudeDegrees>40.74887104332447052001953125</LatitudeDegrees>
              <LongitudeDegrees>-4.08552140928804874420166015625</LongitudeDegrees>
            </Position>
            <AltitudeMeters>1567</AltitudeMeters>
            <DistanceMeters>NAN</DistanceMeters>
          </Trackpoint>
          <Trackpoint>
            <Time>2018-12-30T13:41:39.000Z</Time>
            <Position>
              <LatitudeDegrees>40.74885503388941287994384765625</LatitudeDegrees>
              <LongitudeDegrees>-4.08551470376551151275634765625</LongitudeDegrees>
            </Position>
            <AltitudeMeters>1567</AltitudeMeters>
            <DistanceMeters>NAN</DistanceMeters>
          </Trackpoint>
          <Trackpoint>
            <Time>2018-12-30T13:41:40.000Z</Time>
            <Position>
              <LatitudeDegrees>40.748837850987911224365234375</LatitudeDegrees>
              <LongitudeDegrees>-4.08551185391843318939208984375</LongitudeDegrees>
            </Position>
            <AltitudeMeters>1567</AltitudeMeters>
            <DistanceMeters>NAN</DistanceMeters>
          </Trackpoint>
          <Trackpoint>
            <Time>2018-12-30T13:41:41.000Z</Time>
            <Position>
              <LatitudeDegrees>40.74882787652313709259033203125</LatitudeDegrees>
              <LongitudeDegrees>-4.08550933934748172760009765625</LongitudeDegrees>
            </Position>
            <AltitudeMeters>1566.800048828125</AltitudeMeters>
            <DistanceMeters>NAN</DistanceMeters>
          </Trackpoint>
          <Trackpoint>
            <Time>2018-12-30T13:41:42.000Z</Time>
            <Position>
              <LatitudeDegrees>40.74882301501929759979248046875</LatitudeDegrees>
              <LongitudeDegrees>-4.08550447784364223480224609375</LongitudeDegrees>
            </Position>
            <AltitudeMeters>1566.800048828125</AltitudeMeters>
            <DistanceMeters>NAN</DistanceMeters>
          </Trackpoint>
          <Trackpoint>
            <Time>2018-12-30T13:41:43.000Z</Time>
            <Position>
              <LatitudeDegrees>40.74882234446704387664794921875</LatitudeDegrees>
              <LongitudeDegrees>-4.08549944870173931121826171875</LongitudeDegrees>
            </Position>
            <AltitudeMeters>1566.800048828125</AltitudeMeters>
            <DistanceMeters>NAN</DistanceMeters>
          </Trackpoint>
          <Trackpoint>
            <Time>2018-12-30T13:41:44.000Z</Time>
            <Position>
              <LatitudeDegrees>40.7488108612596988677978515625</LatitudeDegrees>
              <LongitudeDegrees>-4.08549911342561244964599609375</LongitudeDegrees>
            </Position>
            <AltitudeMeters>1566.800048828125</AltitudeMeters>
            <DistanceMeters>NAN</DistanceMeters>
          </Trackpoint>
          <Trackpoint>
            <Time>2018-12-30T13:41:45.000Z</Time>
            <Position>
              <LatitudeDegrees>40.74879116378724575042724609375</LatitudeDegrees>
              <LongitudeDegrees>-4.08549894578754901885986328125</LongitudeDegrees>
            </Position>
            <AltitudeMeters>1566.5999755859375</AltitudeMeters>
            <DistanceMeters>NAN</DistanceMeters>
          </Trackpoint>
          <Trackpoint>
            <Time>2018-12-30T13:41:46.000Z</Time>
            <Position>
              <LatitudeDegrees>40.74877724982798099517822265625</LatitudeDegrees>
              <LongitudeDegrees>-4.08548989333212375640869140625</LongitudeDegrees>
            </Position>
            <AltitudeMeters>1566.5999755859375</AltitudeMeters>
            <DistanceMeters>NAN</DistanceMeters>
          </Trackpoint>
          <Trackpoint>
            <Time>2018-12-30T13:41:47.000Z</Time>
            <Position>
              <LatitudeDegrees>40.7487622462213039398193359375</LatitudeDegrees>
              <LongitudeDegrees>-4.08547195605933666229248046875</LongitudeDegrees>
            </Position>
            <AltitudeMeters>1566.4000244140625</AltitudeMeters>
            <DistanceMeters>NAN</DistanceMeters>
          </Trackpoint>
          <Trackpoint>
            <Time>2018-12-30T13:41:48.000Z</Time>
            <Position>
              <LatitudeDegrees>40.74875378049910068511962890625</LatitudeDegrees>
              <LongitudeDegrees>-4.0854557789862155914306640625</LongitudeDegrees>
            </Position>
            <AltitudeMeters>1566.199951171875</AltitudeMeters>
            <DistanceMeters>NAN</DistanceMeters>
          </Trackpoint>
          <Trackpoint>
            <Time>2018-12-30T13:41:49.000Z</Time>
            <Position>
              <LatitudeDegrees>40.74873961508274078369140625</LatitudeDegrees>
              <LongitudeDegrees>-4.085446894168853759765625</LongitudeDegrees>
            </Position>
            <AltitudeMeters>1566</AltitudeMeters>
            <DistanceMeters>NAN</DistanceMeters>
          </Trackpoint>
          <Trackpoint>
            <Time>2018-12-30T13:41:50.000Z</Time>
            <Position>
              <LatitudeDegrees>40.7487233541905879974365234375</LatitudeDegrees>
              <LongitudeDegrees>-4.08543675206601619720458984375</LongitudeDegrees>
            </Position>
            <AltitudeMeters>1565.800048828125</AltitudeMeters>
            <DistanceMeters>NAN</DistanceMeters>
          </Trackpoint>
          <Trackpoint>
            <Time>2018-12-30T13:41:51.000Z</Time>
            <Position>
              <LatitudeDegrees>40.74870114214718341827392578125</LatitudeDegrees>
              <LongitudeDegrees>-4.08543691970407962799072265625</LongitudeDegrees>
            </Position>
            <AltitudeMeters>1565.800048828125</AltitudeMeters>
            <DistanceMeters>NAN</DistanceMeters>
          </Trackpoint>
          <Trackpoint>
            <Time>2018-12-30T13:41:52.000Z</Time>
            <Position>
              <LatitudeDegrees>40.74869913049042224884033203125</LatitudeDegrees>
              <LongitudeDegrees>-4.08542434684932231903076171875</LongitudeDegrees>
            </Position>
            <AltitudeMeters>1565.5999755859375</AltitudeMeters>
            <DistanceMeters>NAN</DistanceMeters>
          </Trackpoint>
          <Trackpoint>
            <Time>2018-12-30T13:41:53.000Z</Time>
            <Position>
              <LatitudeDegrees>40.74869192205369472503662109375</LatitudeDegrees>
              <LongitudeDegrees>-4.08541512675583362579345703125</LongitudeDegrees>
            </Position>
            <AltitudeMeters>1565.5999755859375</AltitudeMeters>
            <DistanceMeters>NAN</DistanceMeters>
          </Trackpoint>
          <Trackpoint>
            <Time>2018-12-30T13:41:54.000Z</Time>
            <Position>
              <LatitudeDegrees>40.74867792427539825439453125</LatitudeDegrees>
              <LongitudeDegrees>-4.08541680313646793365478515625</LongitudeDegrees>
            </Position>
            <AltitudeMeters>1565.4000244140625</AltitudeMeters>
            <DistanceMeters>NAN</DistanceMeters>
          </Trackpoint>
          <Trackpoint>
            <Time>2018-12-30T13:41:55.000Z</Time>
            <Position>
              <LatitudeDegrees>40.748666860163211822509765625</LatitudeDegrees>
              <LongitudeDegrees>-4.08541562967002391815185546875</LongitudeDegrees>
            </Position>
            <AltitudeMeters>1564.800048828125</AltitudeMeters>
            <DistanceMeters>NAN</DistanceMeters>
          </Trackpoint>
          <Trackpoint>
            <Time>2018-12-30T13:41:56.000Z</Time>
            <Position>
              <LatitudeDegrees>40.74865520931780338287353515625</LatitudeDegrees>
              <LongitudeDegrees>-4.08541328273713588714599609375</LongitudeDegrees>
            </Position>
            <AltitudeMeters>1564.4000244140625</AltitudeMeters>
            <DistanceMeters>NAN</DistanceMeters>
          </Trackpoint>
          <Trackpoint>
            <Time>2018-12-30T13:41:57.000Z</Time>
            <Position>
              <LatitudeDegrees>40.748643390834331512451171875</LatitudeDegrees>
              <LongitudeDegrees>-4.08540959469974040985107421875</LongitudeDegrees>
            </Position>
            <AltitudeMeters>1564.199951171875</AltitudeMeters>
            <DistanceMeters>NAN</DistanceMeters>
          </Trackpoint>
          <Trackpoint>
            <Time>2018-12-30T13:41:58.000Z</Time>
            <Position>
              <LatitudeDegrees>40.7486358471214771270751953125</LatitudeDegrees>
              <LongitudeDegrees>-4.08539970405399799346923828125</LongitudeDegrees>
            </Position>
            <AltitudeMeters>1563.800048828125</AltitudeMeters>
            <DistanceMeters>NAN</DistanceMeters>
          </Trackpoint>
          <Trackpoint>
            <Time>2018-12-30T13:41:59.000Z</Time>
            <Position>
              <LatitudeDegrees>40.7486251182854175567626953125</LatitudeDegrees>
              <LongitudeDegrees>-4.08539316616952419281005859375</LongitudeDegrees>
            </Position>
            <AltitudeMeters>1563.4000244140625</AltitudeMeters>
            <DistanceMeters>NAN</DistanceMeters>
          </Trackpoint>
          <Trackpoint>
            <Time>2018-12-30T13:42:00.000Z</Time>
            <Position>
              <LatitudeDegrees>40.74860977940261363983154296875</LatitudeDegrees>
              <LongitudeDegrees>-4.08538813702762126922607421875</LongitudeDegrees>
            </Position>
            <AltitudeMeters>1563.199951171875</AltitudeMeters>
            <DistanceMeters>NAN</DistanceMeters>
          </Trackpoint>
          <Trackpoint>
            <Time>2018-12-30T13:42:01.000Z</Time>
            <Position>
              <LatitudeDegrees>40.748605839908123016357421875</LatitudeDegrees>
              <LongitudeDegrees>-4.0853766538202762603759765625</LongitudeDegrees>
            </Position>
            <AltitudeMeters>1563</AltitudeMeters>
            <DistanceMeters>NAN</DistanceMeters>
          </Trackpoint>
          <Trackpoint>
            <Time>2018-12-30T13:42:02.000Z</Time>
            <Position>
              <LatitudeDegrees>40.7486034929752349853515625</LatitudeDegrees>
              <LongitudeDegrees>-4.08536600880324840545654296875</LongitudeDegrees>
            </Position>
            <AltitudeMeters>1562.5999755859375</AltitudeMeters>
            <DistanceMeters>NAN</DistanceMeters>
          </Trackpoint>
          <Trackpoint>
            <Time>2018-12-30T13:42:03.000Z</Time>
            <Position>
              <LatitudeDegrees>40.7485989667475223541259765625</LatitudeDegrees>
              <LongitudeDegrees>-4.08535595051944255828857421875</LongitudeDegrees>
            </Position>
            <AltitudeMeters>1562.4000244140625</AltitudeMeters>
            <DistanceMeters>NAN</DistanceMeters>
          </Trackpoint>
          <Trackpoint>
            <Time>2018-12-30T13:42:04.000Z</Time>
            <Position>
              <LatitudeDegrees>40.74859150685369968414306640625</LatitudeDegrees>
              <LongitudeDegrees>-4.08534874208271503448486328125</LongitudeDegrees>
            </Position>
            <AltitudeMeters>1562.199951171875</AltitudeMeters>
            <DistanceMeters>NAN</DistanceMeters>
          </Trackpoint>
          <Trackpoint>
            <Time>2018-12-30T13:42:05.000Z</Time>
            <Position>
              <LatitudeDegrees>40.74858530424535274505615234375</LatitudeDegrees>
              <LongitudeDegrees>-4.08533968962728977203369140625</LongitudeDegrees>
            </Position>
            <AltitudeMeters>1562</AltitudeMeters>
            <DistanceMeters>NAN</DistanceMeters>
          </Trackpoint>
          <Trackpoint>
            <Time>2018-12-30T13:42:06.000Z</Time>
            <Position>
              <LatitudeDegrees>40.74858111329376697540283203125</LatitudeDegrees>
              <LongitudeDegrees>-4.085331894457340240478515625</LongitudeDegrees>
            </Position>
            <AltitudeMeters>1562</AltitudeMeters>
            <DistanceMeters>NAN</DistanceMeters>
          </Trackpoint>
          <Trackpoint>
            <Time>2018-12-30T13:42:07.000Z</Time>
            <Position>
              <LatitudeDegrees>40.74857532978057861328125</LatitudeDegrees>
              <LongitudeDegrees>-4.0853263624012470245361328125</LongitudeDegrees>
            </Position>
            <AltitudeMeters>1561.800048828125</AltitudeMeters>
            <DistanceMeters>NAN</DistanceMeters>
          </Trackpoint>
          <Trackpoint>
            <Time>2018-12-30T13:42:08.000Z</Time>
            <Position>
              <LatitudeDegrees>40.74856954626739025115966796875</LatitudeDegrees>
              <LongitudeDegrees>-4.08532686531543731689453125</LongitudeDegrees>
            </Position>
            <AltitudeMeters>1561.4000244140625</AltitudeMeters>
            <DistanceMeters>NAN</DistanceMeters>
          </Trackpoint>
          <Trackpoint>
            <Time>2018-12-30T13:42:09.000Z</Time>
            <Position>
              <LatitudeDegrees>40.74856351129710674285888671875</LatitudeDegrees>
              <LongitudeDegrees>-4.08532627858221530914306640625</LongitudeDegrees>
            </Position>
            <AltitudeMeters>1561.199951171875</AltitudeMeters>
            <DistanceMeters>NAN</DistanceMeters>
          </Trackpoint>
          <Trackpoint>
            <Time>2018-12-30T13:42:10.000Z</Time>
            <Position>
              <LatitudeDegrees>40.7485540397465229034423828125</LatitudeDegrees>
              <LongitudeDegrees>-4.08532309345901012420654296875</LongitudeDegrees>
            </Position>
            <AltitudeMeters>1560.800048828125</AltitudeMeters>
            <DistanceMeters>NAN</DistanceMeters>
          </Trackpoint>
          <Trackpoint>
            <Time>2018-12-30T13:42:11.000Z</Time>
            <Position>
              <LatitudeDegrees>40.7485409639775753021240234375</LatitudeDegrees>
              <LongitudeDegrees>-4.08531839959323406219482421875</LongitudeDegrees>
            </Position>
            <AltitudeMeters>1560.5999755859375</AltitudeMeters>
            <DistanceMeters>NAN</DistanceMeters>
          </Trackpoint>
          <Trackpoint>
            <Time>2018-12-30T13:42:12.000Z</Time>
            <Position>
              <LatitudeDegrees>40.74853668920695781707763671875</LatitudeDegrees>
              <LongitudeDegrees>-4.085308425128459930419921875</LongitudeDegrees>
            </Position>
            <AltitudeMeters>1560.4000244140625</AltitudeMeters>
            <DistanceMeters>NAN</DistanceMeters>
          </Trackpoint>
          <Trackpoint>
            <Time>2018-12-30T13:42:13.000Z</Time>
            <Position>
              <LatitudeDegrees>40.748532079160213470458984375</LatitudeDegrees>
              <LongitudeDegrees>-4.085298366844654083251953125</LongitudeDegrees>
            </Position>
            <AltitudeMeters>1560.199951171875</AltitudeMeters>
            <DistanceMeters>NAN</DistanceMeters>
          </Trackpoint>
          <Trackpoint>
            <Time>2018-12-30T13:42:14.000Z</Time>
            <Position>
              <LatitudeDegrees>40.7485278882086277008056640625</LatitudeDegrees>
              <LongitudeDegrees>-4.08529073931276798248291015625</LongitudeDegrees>
            </Position>
            <AltitudeMeters>1560.199951171875</AltitudeMeters>
            <DistanceMeters>NAN</DistanceMeters>
          </Trackpoint>
          <Trackpoint>
            <Time>2018-12-30T13:42:15.000Z</Time>
            <Position>
              <LatitudeDegrees>40.74851858429610729217529296875</LatitudeDegrees>
              <LongitudeDegrees>-4.08527933992445468902587890625</LongitudeDegrees>
            </Position>
            <AltitudeMeters>1559.800048828125</AltitudeMeters>
            <DistanceMeters>NAN</DistanceMeters>
          </Trackpoint>
          <Trackpoint>
            <Time>2018-12-30T13:42:16.000Z</Time>
            <Position>
              <LatitudeDegrees>40.748503915965557098388671875</LatitudeDegrees>
              <LongitudeDegrees>-4.0852640010416507720947265625</LongitudeDegrees>
            </Position>
            <AltitudeMeters>1559.5999755859375</AltitudeMeters>
            <DistanceMeters>NAN</DistanceMeters>
          </Trackpoint>
          <Trackpoint>
            <Time>2018-12-30T13:42:17.000Z</Time>
            <Position>
              <LatitudeDegrees>40.74849327094852924346923828125</LatitudeDegrees>
              <LongitudeDegrees>-4.08524564467370510101318359375</LongitudeDegrees>
            </Position>
            <AltitudeMeters>1559.4000244140625</AltitudeMeters>
            <DistanceMeters>NAN</DistanceMeters>
          </Trackpoint>
          <Trackpoint>
            <Time>2018-12-30T13:42:18.000Z</Time>
            <Position>
              <LatitudeDegrees>40.7484869845211505889892578125</LatitudeDegrees>
              <LongitudeDegrees>-4.085238017141819000244140625</LongitudeDegrees>
            </Position>
            <AltitudeMeters>1559.4000244140625</AltitudeMeters>
            <DistanceMeters>NAN</DistanceMeters>
          </Trackpoint>
          <Trackpoint>
            <Time>2018-12-30T13:42:19.000Z</Time>
            <Position>
              <LatitudeDegrees>40.74848975054919719696044921875</LatitudeDegrees>
              <LongitudeDegrees>-4.08523290418088436126708984375</LongitudeDegrees>
            </Position>
            <AltitudeMeters>1559.199951171875</AltitudeMeters>
            <DistanceMeters>NAN</DistanceMeters>
          </Trackpoint>
          <Trackpoint>
            <Time>2018-12-30T13:42:20.000Z</Time>
            <Position>
              <LatitudeDegrees>40.74848874472081661224365234375</LatitudeDegrees>
              <LongitudeDegrees>-4.08523307181894779205322265625</LongitudeDegrees>
            </Position>
            <AltitudeMeters>1559</AltitudeMeters>
            <DistanceMeters>NAN</DistanceMeters>
          </Trackpoint>
          <Trackpoint>
            <Time>2018-12-30T13:42:21.000Z</Time>
            <Position>
              <LatitudeDegrees>40.74848287738859653472900390625</LatitudeDegrees>
              <LongitudeDegrees>-4.08523223362863063812255859375</LongitudeDegrees>
            </Position>
            <AltitudeMeters>1559</AltitudeMeters>
            <DistanceMeters>NAN</DistanceMeters>
          </Trackpoint>
          <Trackpoint>
            <Time>2018-12-30T13:42:22.000Z</Time>
            <Position>
              <LatitudeDegrees>40.748473070561885833740234375</LatitudeDegrees>
              <LongitudeDegrees>-4.08523189835250377655029296875</LongitudeDegrees>
            </Position>
            <AltitudeMeters>1558.800048828125</AltitudeMeters>
            <DistanceMeters>NAN</DistanceMeters>
          </Trackpoint>
          <Trackpoint>
            <Time>2018-12-30T13:42:23.000Z</Time>
            <Position>
              <LatitudeDegrees>40.74846376664936542510986328125</LatitudeDegrees>
              <LongitudeDegrees>-4.0852314792573451995849609375</LongitudeDegrees>
            </Position>
            <AltitudeMeters>1558.800048828125</AltitudeMeters>
            <DistanceMeters>NAN</DistanceMeters>
          </Trackpoint>
          <Trackpoint>
            <Time>2018-12-30T13:42:24.000Z</Time>
            <Position>
              <LatitudeDegrees>40.74845219962298870086669921875</LatitudeDegrees>
              <LongitudeDegrees>-4.0852309763431549072265625</LongitudeDegrees>
            </Position>
            <AltitudeMeters>1558.5999755859375</AltitudeMeters>
            <DistanceMeters>NAN</DistanceMeters>
          </Trackpoint>
          <Trackpoint>
            <Time>2018-12-30T13:42:25.000Z</Time>
            <Position>
              <LatitudeDegrees>40.74845219962298870086669921875</LatitudeDegrees>
              <LongitudeDegrees>-4.08522938378155231475830078125</LongitudeDegrees>
            </Position>
            <AltitudeMeters>1558.5999755859375</AltitudeMeters>
            <DistanceMeters>NAN</DistanceMeters>
          </Trackpoint>
          <Trackpoint>
            <Time>2018-12-30T13:42:26.000Z</Time>
            <Position>
              <LatitudeDegrees>40.7484425604343414306640625</LatitudeDegrees>
              <LongitudeDegrees>-4.08523290418088436126708984375</LongitudeDegrees>
            </Position>
            <AltitudeMeters>1558.4000244140625</AltitudeMeters>
            <DistanceMeters>NAN</DistanceMeters>
          </Trackpoint>
          <Trackpoint>
            <Time>2018-12-30T13:42:27.000Z</Time>
            <Position>
              <LatitudeDegrees>40.74844029732048511505126953125</LatitudeDegrees>
              <LongitudeDegrees>-4.0852247737348079681396484375</LongitudeDegrees>
            </Position>
            <AltitudeMeters>1558</AltitudeMeters>
            <DistanceMeters>NAN</DistanceMeters>
          </Trackpoint>
          <Trackpoint>
            <Time>2018-12-30T13:42:28.000Z</Time>
            <Position>
              <LatitudeDegrees>40.748427808284759521484375</LatitudeDegrees>
              <LongitudeDegrees>-4.0852207504212856292724609375</LongitudeDegrees>
            </Position>
            <AltitudeMeters>1557.800048828125</AltitudeMeters>
            <DistanceMeters>NAN</DistanceMeters>
          </Trackpoint>
          <Trackpoint>
            <Time>2018-12-30T13:42:29.000Z</Time>
            <Position>
              <LatitudeDegrees>40.7484128884971141815185546875</LatitudeDegrees>
              <LongitudeDegrees>-4.08522502519190311431884765625</LongitudeDegrees>
            </Position>
            <AltitudeMeters>1557.5999755859375</AltitudeMeters>
            <DistanceMeters>NAN</DistanceMeters>
          </Trackpoint>
          <Trackpoint>
            <Time>2018-12-30T13:42:30.000Z</Time>
            <Position>
              <LatitudeDegrees>40.74839956127107143402099609375</LatitudeDegrees>
              <LongitudeDegrees>-4.0852257795631885528564453125</LongitudeDegrees>
            </Position>
            <AltitudeMeters>1557.4000244140625</AltitudeMeters>
            <DistanceMeters>NAN</DistanceMeters>
          </Trackpoint>
          <Trackpoint>
            <Time>2018-12-30T13:42:31.000Z</Time>
            <Position>
              <LatitudeDegrees>40.7483874075114727020263671875</LatitudeDegrees>
              <LongitudeDegrees>-4.08522988669574260711669921875</LongitudeDegrees>
            </Position>
            <AltitudeMeters>1557</AltitudeMeters>
            <DistanceMeters>NAN</DistanceMeters>
          </Trackpoint>
          <Trackpoint>
            <Time>2018-12-30T13:42:32.000Z</Time>
            <Position>
              <LatitudeDegrees>40.74837843887507915496826171875</LatitudeDegrees>
              <LongitudeDegrees>-4.08523223362863063812255859375</LongitudeDegrees>
            </Position>
            <AltitudeMeters>1556.5999755859375</AltitudeMeters>
            <DistanceMeters>NAN</DistanceMeters>
          </Trackpoint>
          <Trackpoint>
            <Time>2018-12-30T13:42:33.000Z</Time>
            <Position>
              <LatitudeDegrees>40.7483750022947788238525390625</LatitudeDegrees>
              <LongitudeDegrees>-4.08523759804666042327880859375</LongitudeDegrees>
            </Position>
            <AltitudeMeters>1556.199951171875</AltitudeMeters>
            <DistanceMeters>NAN</DistanceMeters>
          </Trackpoint>
          <Trackpoint>
            <Time>2018-12-30T13:42:34.000Z</Time>
            <Position>
              <LatitudeDegrees>40.74837240390479564666748046875</LatitudeDegrees>
              <LongitudeDegrees>-4.085238017141819000244140625</LongitudeDegrees>
            </Position>
            <AltitudeMeters>1556</AltitudeMeters>
            <DistanceMeters>NAN</DistanceMeters>
          </Trackpoint>
          <Trackpoint>
            <Time>2018-12-30T13:42:35.000Z</Time>
            <Position>
              <LatitudeDegrees>40.7483625970780849456787109375</LatitudeDegrees>
              <LongitudeDegrees>-4.08523432910442352294921875</LongitudeDegrees>
            </Position>
            <AltitudeMeters>1555.800048828125</AltitudeMeters>
            <DistanceMeters>NAN</DistanceMeters>
          </Trackpoint>
          <Trackpoint>
            <Time>2018-12-30T13:42:36.000Z</Time>
            <Position>
              <LatitudeDegrees>40.74835295788943767547607421875</LatitudeDegrees>
              <LongitudeDegrees>-4.08524313010275363922119140625</LongitudeDegrees>
            </Position>
            <AltitudeMeters>1555.800048828125</AltitudeMeters>
            <DistanceMeters>NAN</DistanceMeters>
          </Trackpoint>
          <Trackpoint>
            <Time>2018-12-30T13:42:37.000Z</Time>
            <Position>
              <LatitudeDegrees>40.74833384715020656585693359375</LatitudeDegrees>
              <LongitudeDegrees>-4.085251428186893463134765625</LongitudeDegrees>
            </Position>
            <AltitudeMeters>1555.800048828125</AltitudeMeters>
            <DistanceMeters>NAN</DistanceMeters>
          </Trackpoint>
          <Trackpoint>
            <Time>2018-12-30T13:42:38.000Z</Time>
            <Position>
              <LatitudeDegrees>40.7483260519802570343017578125</LatitudeDegrees>
              <LongitudeDegrees>-4.0852551162242889404296875</LongitudeDegrees>
            </Position>
            <AltitudeMeters>1555.5999755859375</AltitudeMeters>
            <DistanceMeters>NAN</DistanceMeters>
          </Trackpoint>
          <Trackpoint>
            <Time>2018-12-30T13:42:39.000Z</Time>
            <Position>
              <LatitudeDegrees>40.74832119047641754150390625</LatitudeDegrees>
              <LongitudeDegrees>-4.0852510929107666015625</LongitudeDegrees>
            </Position>
            <AltitudeMeters>1555.4000244140625</AltitudeMeters>
            <DistanceMeters>NAN</DistanceMeters>
          </Trackpoint>
          <Trackpoint>
            <Time>2018-12-30T13:42:40.000Z</Time>
            <Position>
              <LatitudeDegrees>40.748318843543529510498046875</LatitudeDegrees>
              <LongitudeDegrees>-4.085245393216609954833984375</LongitudeDegrees>
            </Position>
            <AltitudeMeters>1554.800048828125</AltitudeMeters>
            <DistanceMeters>NAN</DistanceMeters>
          </Trackpoint>
          <Trackpoint>
            <Time>2018-12-30T13:42:41.000Z</Time>
            <Position>
              <LatitudeDegrees>40.74831523932516574859619140625</LatitudeDegrees>
              <LongitudeDegrees>-4.085235334932804107666015625</LongitudeDegrees>
            </Position>
            <AltitudeMeters>1554.4000244140625</AltitudeMeters>
            <DistanceMeters>NAN</DistanceMeters>
          </Trackpoint>
          <Trackpoint>
            <Time>2018-12-30T13:42:42.000Z</Time>
            <Position>
              <LatitudeDegrees>40.74830970726907253265380859375</LatitudeDegrees>
              <LongitudeDegrees>-4.0852261148393154144287109375</LongitudeDegrees>
            </Position>
            <AltitudeMeters>1554.199951171875</AltitudeMeters>
            <DistanceMeters>NAN</DistanceMeters>
          </Trackpoint>
          <Trackpoint>
            <Time>2018-12-30T13:42:43.000Z</Time>
            <Position>
              <LatitudeDegrees>40.7483106292784214019775390625</LatitudeDegrees>
              <LongitudeDegrees>-4.0852110274136066436767578125</LongitudeDegrees>
            </Position>
            <AltitudeMeters>1554</AltitudeMeters>
            <DistanceMeters>NAN</DistanceMeters>
          </Trackpoint>
          <Trackpoint>
            <Time>2018-12-30T13:42:44.000Z</Time>
            <Position>
              <LatitudeDegrees>40.74830417521297931671142578125</LatitudeDegrees>
              <LongitudeDegrees>-4.0851848758757114410400390625</LongitudeDegrees>
            </Position>
            <AltitudeMeters>1554</AltitudeMeters>
            <DistanceMeters>NAN</DistanceMeters>
          </Trackpoint>
          <Trackpoint>
            <Time>2018-12-30T13:42:45.000Z</Time>
            <Position>
              <LatitudeDegrees>40.74829713441431522369384765625</LatitudeDegrees>
              <LongitudeDegrees>-4.08517523668706417083740234375</LongitudeDegrees>
            </Position>
            <AltitudeMeters>1553.800048828125</AltitudeMeters>
            <DistanceMeters>NAN</DistanceMeters>
          </Trackpoint>
          <Trackpoint>
            <Time>2018-12-30T13:42:46.000Z</Time>
            <Position>
              <LatitudeDegrees>40.7482874952256679534912109375</LatitudeDegrees>
              <LongitudeDegrees>-4.0851724706590175628662109375</LongitudeDegrees>
            </Position>
            <AltitudeMeters>1553.800048828125</AltitudeMeters>
            <DistanceMeters>NAN</DistanceMeters>
          </Trackpoint>
          <Trackpoint>
            <Time>2018-12-30T13:42:47.000Z</Time>
            <Position>
              <LatitudeDegrees>40.74828271754086017608642578125</LatitudeDegrees>
              <LongitudeDegrees>-4.085164256393909454345703125</LongitudeDegrees>
            </Position>
            <AltitudeMeters>1553.5999755859375</AltitudeMeters>
            <DistanceMeters>NAN</DistanceMeters>
          </Trackpoint>
          <Trackpoint>
            <Time>2018-12-30T13:42:48.000Z</Time>
            <Position>
              <LatitudeDegrees>40.74827198870480060577392578125</LatitudeDegrees>
              <LongitudeDegrees>-4.0851580537855625152587890625</LongitudeDegrees>
            </Position>
            <AltitudeMeters>1553.4000244140625</AltitudeMeters>
            <DistanceMeters>NAN</DistanceMeters>
          </Trackpoint>
          <Trackpoint>
            <Time>2018-12-30T13:42:49.000Z</Time>
            <Position>
              <LatitudeDegrees>40.7482603378593921661376953125</LatitudeDegrees>
              <LongitudeDegrees>-4.0851516835391521453857421875</LongitudeDegrees>
            </Position>
            <AltitudeMeters>1553.199951171875</AltitudeMeters>
            <DistanceMeters>NAN</DistanceMeters>
          </Trackpoint>
          <Trackpoint>
            <Time>2018-12-30T13:42:50.000Z</Time>
            <Position>
              <LatitudeDegrees>40.74825103394687175750732421875</LatitudeDegrees>
              <LongitudeDegrees>-4.0851490013301372528076171875</LongitudeDegrees>
            </Position>
            <AltitudeMeters>1553</AltitudeMeters>
            <DistanceMeters>NAN</DistanceMeters>
          </Trackpoint>
          <Trackpoint>
            <Time>2018-12-30T13:42:51.000Z</Time>
            <Position>
              <LatitudeDegrees>40.74823795817792415618896484375</LatitudeDegrees>
              <LongitudeDegrees>-4.0851483307778835296630859375</LongitudeDegrees>
            </Position>
            <AltitudeMeters>1552.800048828125</AltitudeMeters>
            <DistanceMeters>NAN</DistanceMeters>
          </Trackpoint>
          <Trackpoint>
            <Time>2018-12-30T13:42:52.000Z</Time>
            <Position>
              <LatitudeDegrees>40.748227648437023162841796875</LatitudeDegrees>
              <LongitudeDegrees>-4.085144810378551483154296875</LongitudeDegrees>
            </Position>
            <AltitudeMeters>1552.5999755859375</AltitudeMeters>
            <DistanceMeters>NAN</DistanceMeters>
          </Trackpoint>
          <Trackpoint>
            <Time>2018-12-30T13:42:53.000Z</Time>
            <Position>
              <LatitudeDegrees>40.74820962734520435333251953125</LatitudeDegrees>
              <LongitudeDegrees>-4.0851412899792194366455078125</LongitudeDegrees>
            </Position>
            <AltitudeMeters>1552.199951171875</AltitudeMeters>
            <DistanceMeters>NAN</DistanceMeters>
          </Trackpoint>
          <Trackpoint>
            <Time>2018-12-30T13:42:54.000Z</Time>
            <Position>
              <LatitudeDegrees>40.74819738976657390594482421875</LatitudeDegrees>
              <LongitudeDegrees>-4.0851345844566822052001953125</LongitudeDegrees>
            </Position>
            <AltitudeMeters>1552</AltitudeMeters>
            <DistanceMeters>NAN</DistanceMeters>
          </Trackpoint>
          <Trackpoint>
            <Time>2018-12-30T13:42:55.000Z</Time>
            <Position>
              <LatitudeDegrees>40.74818666093051433563232421875</LatitudeDegrees>
              <LongitudeDegrees>-4.08511337824165821075439453125</LongitudeDegrees>
            </Position>
            <AltitudeMeters>1551.5999755859375</AltitudeMeters>
            <DistanceMeters>NAN</DistanceMeters>
          </Trackpoint>
          <Trackpoint>
            <Time>2018-12-30T13:42:56.000Z</Time>
            <Position>
              <LatitudeDegrees>40.748185403645038604736328125</LatitudeDegrees>
              <LongitudeDegrees>-4.08510533161461353302001953125</LongitudeDegrees>
            </Position>
            <AltitudeMeters>1551.4000244140625</AltitudeMeters>
            <DistanceMeters>NAN</DistanceMeters>
          </Trackpoint>
          <Trackpoint>
            <Time>2018-12-30T13:42:57.000Z</Time>
            <Position>
              <LatitudeDegrees>40.74818347580730915069580078125</LatitudeDegrees>
              <LongitudeDegrees>-4.0850980393588542938232421875</LongitudeDegrees>
            </Position>
            <AltitudeMeters>1551.199951171875</AltitudeMeters>
            <DistanceMeters>NAN</DistanceMeters>
          </Trackpoint>
          <Trackpoint>
            <Time>2018-12-30T13:42:58.000Z</Time>
            <Position>
              <LatitudeDegrees>40.7481889240443706512451171875</LatitudeDegrees>
              <LongitudeDegrees>-4.08509259112179279327392578125</LongitudeDegrees>
            </Position>
            <AltitudeMeters>1551</AltitudeMeters>
            <DistanceMeters>NAN</DistanceMeters>
          </Trackpoint>
          <Trackpoint>
            <Time>2018-12-30T13:42:59.000Z</Time>
            <Position>
              <LatitudeDegrees>40.74818733148276805877685546875</LatitudeDegrees>
              <LongitudeDegrees>-4.08508990891277790069580078125</LongitudeDegrees>
            </Position>
            <AltitudeMeters>1550.800048828125</AltitudeMeters>
            <DistanceMeters>NAN</DistanceMeters>
          </Trackpoint>
          <Trackpoint>
            <Time>2018-12-30T13:43:00.000Z</Time>
            <Position>
              <LatitudeDegrees>40.74818431399762630462646484375</LatitudeDegrees>
              <LongitudeDegrees>-4.08507029525935649871826171875</LongitudeDegrees>
            </Position>
            <AltitudeMeters>1550.5999755859375</AltitudeMeters>
            <DistanceMeters>NAN</DistanceMeters>
          </Trackpoint>
          <Trackpoint>
            <Time>2018-12-30T13:43:01.000Z</Time>
            <Position>
              <LatitudeDegrees>40.7481751777231693267822265625</LatitudeDegrees>
              <LongitudeDegrees>-4.0850608237087726593017578125</LongitudeDegrees>
            </Position>
            <AltitudeMeters>1550.5999755859375</AltitudeMeters>
            <DistanceMeters>NAN</DistanceMeters>
          </Trackpoint>
          <Trackpoint>
            <Time>2018-12-30T13:43:02.000Z</Time>
            <Position>
              <LatitudeDegrees>40.74816335923969745635986328125</LatitudeDegrees>
              <LongitudeDegrees>-4.0850566327571868896484375</LongitudeDegrees>
            </Position>
            <AltitudeMeters>1550.4000244140625</AltitudeMeters>
            <DistanceMeters>NAN</DistanceMeters>
          </Trackpoint>
          <Trackpoint>
            <Time>2018-12-30T13:43:03.000Z</Time>
            <Position>
              <LatitudeDegrees>40.74815648607909679412841796875</LatitudeDegrees>
              <LongitudeDegrees>-4.08505034632980823516845703125</LongitudeDegrees>
            </Position>
            <AltitudeMeters>1550</AltitudeMeters>
            <DistanceMeters>NAN</DistanceMeters>
          </Trackpoint>
          <Trackpoint>
            <Time>2018-12-30T13:43:04.000Z</Time>
            <Position>
              <LatitudeDegrees>40.7481429912149906158447265625</LatitudeDegrees>
              <LongitudeDegrees>-4.08503525890409946441650390625</LongitudeDegrees>
            </Position>
            <AltitudeMeters>1549.5999755859375</AltitudeMeters>
            <DistanceMeters>NAN</DistanceMeters>
          </Trackpoint>
          <Trackpoint>
            <Time>2018-12-30T13:43:05.000Z</Time>
            <Position>
              <LatitudeDegrees>40.74813988991081714630126953125</LatitudeDegrees>
              <LongitudeDegrees>-4.085028469562530517578125</LongitudeDegrees>
            </Position>
            <AltitudeMeters>1549.4000244140625</AltitudeMeters>
            <DistanceMeters>NAN</DistanceMeters>
          </Trackpoint>
          <Trackpoint>
            <Time>2018-12-30T13:43:06.000Z</Time>
            <Position>
              <LatitudeDegrees>40.74812916107475757598876953125</LatitudeDegrees>
              <LongitudeDegrees>-4.085024781525135040283203125</LongitudeDegrees>
            </Position>
            <AltitudeMeters>1549</AltitudeMeters>
            <DistanceMeters>NAN</DistanceMeters>
          </Trackpoint>
          <Trackpoint>
            <Time>2018-12-30T13:43:07.000Z</Time>
            <Position>
              <LatitudeDegrees>40.7481121458113193511962890625</LatitudeDegrees>
              <LongitudeDegrees>-4.085021428763866424560546875</LongitudeDegrees>
            </Position>
            <AltitudeMeters>1548.800048828125</AltitudeMeters>
            <DistanceMeters>NAN</DistanceMeters>
          </Trackpoint>
          <Trackpoint>
            <Time>2018-12-30T13:43:08.000Z</Time>
            <Position>
              <LatitudeDegrees>40.7481014169752597808837890625</LatitudeDegrees>
              <LongitudeDegrees>-4.08501380123198032379150390625</LongitudeDegrees>
            </Position>
            <AltitudeMeters>1548.5999755859375</AltitudeMeters>
            <DistanceMeters>NAN</DistanceMeters>
          </Trackpoint>
          <Trackpoint>
            <Time>2018-12-30T13:43:09.000Z</Time>
            <Position>
              <LatitudeDegrees>40.74809445999562740325927734375</LatitudeDegrees>
              <LongitudeDegrees>-4.0850071795284748077392578125</LongitudeDegrees>
            </Position>
            <AltitudeMeters>1548.5999755859375</AltitudeMeters>
            <DistanceMeters>NAN</DistanceMeters>
          </Trackpoint>
          <Trackpoint>
            <Time>2018-12-30T13:43:10.000Z</Time>
            <Position>
              <LatitudeDegrees>40.74808741919696331024169921875</LatitudeDegrees>
              <LongitudeDegrees>-4.08500189892947673797607421875</LongitudeDegrees>
            </Position>
            <AltitudeMeters>1548.199951171875</AltitudeMeters>
            <DistanceMeters>NAN</DistanceMeters>
          </Trackpoint>
          <Trackpoint>
            <Time>2018-12-30T13:43:11.000Z</Time>
            <Position>
              <LatitudeDegrees>40.74806998483836650848388671875</LatitudeDegrees>
              <LongitudeDegrees>-4.08499971963465213775634765625</LongitudeDegrees>
            </Position>
            <AltitudeMeters>1548</AltitudeMeters>
            <DistanceMeters>NAN</DistanceMeters>
          </Trackpoint>
          <Trackpoint>
            <Time>2018-12-30T13:43:12.000Z</Time>
            <Position>
              <LatitudeDegrees>40.74805296957492828369140625</LatitudeDegrees>
              <LongitudeDegrees>-4.0849967859685420989990234375</LongitudeDegrees>
            </Position>
            <AltitudeMeters>1547.800048828125</AltitudeMeters>
            <DistanceMeters>NAN</DistanceMeters>
          </Trackpoint>
          <Trackpoint>
            <Time>2018-12-30T13:43:13.000Z</Time>
            <Position>
              <LatitudeDegrees>40.7480437494814395904541015625</LatitudeDegrees>
              <LongitudeDegrees>-4.08500022254884243011474609375</LongitudeDegrees>
            </Position>
            <AltitudeMeters>1547.5999755859375</AltitudeMeters>
            <DistanceMeters>NAN</DistanceMeters>
          </Trackpoint>
          <Trackpoint>
            <Time>2018-12-30T13:43:14.000Z</Time>
            <Position>
              <LatitudeDegrees>40.7480373792350292205810546875</LatitudeDegrees>
              <LongitudeDegrees>-4.08499804325401782989501953125</LongitudeDegrees>
            </Position>
            <AltitudeMeters>1547.5999755859375</AltitudeMeters>
            <DistanceMeters>NAN</DistanceMeters>
          </Trackpoint>
          <Trackpoint>
            <Time>2018-12-30T13:43:15.000Z</Time>
            <Position>
              <LatitudeDegrees>40.74803042225539684295654296875</LatitudeDegrees>
              <LongitudeDegrees>-4.08499301411211490631103515625</LongitudeDegrees>
            </Position>
            <AltitudeMeters>1547.4000244140625</AltitudeMeters>
            <DistanceMeters>NAN</DistanceMeters>
          </Trackpoint>
          <Trackpoint>
            <Time>2018-12-30T13:43:16.000Z</Time>
            <Position>
              <LatitudeDegrees>40.7480256445705890655517578125</LatitudeDegrees>
              <LongitudeDegrees>-4.08497842960059642791748046875</LongitudeDegrees>
            </Position>
            <AltitudeMeters>1547.199951171875</AltitudeMeters>
            <DistanceMeters>NAN</DistanceMeters>
          </Trackpoint>
          <Trackpoint>
            <Time>2018-12-30T13:43:17.000Z</Time>
            <Position>
              <LatitudeDegrees>40.7480346970260143280029296875</LatitudeDegrees>
              <LongitudeDegrees>-4.08495672047138214111328125</LongitudeDegrees>
            </Position>
            <AltitudeMeters>1547</AltitudeMeters>
            <DistanceMeters>NAN</DistanceMeters>
          </Trackpoint>
          <Trackpoint>
            <Time>2018-12-30T13:43:18.000Z</Time>
            <Position>
              <LatitudeDegrees>40.7480346970260143280029296875</LatitudeDegrees>
              <LongitudeDegrees>-4.08492914400994777679443359375</LongitudeDegrees>
            </Position>
            <AltitudeMeters>1547</AltitudeMeters>
            <DistanceMeters>NAN</DistanceMeters>
          </Trackpoint>
          <Trackpoint>
            <Time>2018-12-30T13:43:19.000Z</Time>
            <Position>
              <LatitudeDegrees>40.7480335235595703125</LatitudeDegrees>
              <LongitudeDegrees>-4.084902070462703704833984375</LongitudeDegrees>
            </Position>
            <AltitudeMeters>1547</AltitudeMeters>
            <DistanceMeters>NAN</DistanceMeters>
          </Trackpoint>
          <Trackpoint>
            <Time>2018-12-30T13:43:20.000Z</Time>
            <Position>
              <LatitudeDegrees>40.748032517731189727783203125</LatitudeDegrees>
              <LongitudeDegrees>-4.08488438464701175689697265625</LongitudeDegrees>
            </Position>
            <AltitudeMeters>1546.800048828125</AltitudeMeters>
            <DistanceMeters>NAN</DistanceMeters>
          </Trackpoint>
          <Trackpoint>
            <Time>2018-12-30T13:43:21.000Z</Time>
            <Position>
              <LatitudeDegrees>40.74803394265472888946533203125</LatitudeDegrees>
              <LongitudeDegrees>-4.08487231470644474029541015625</LongitudeDegrees>
            </Position>
            <AltitudeMeters>1546.800048828125</AltitudeMeters>
            <DistanceMeters>NAN</DistanceMeters>
          </Trackpoint>
          <Trackpoint>
            <Time>2018-12-30T13:43:22.000Z</Time>
            <Position>
              <LatitudeDegrees>40.7480383850634098052978515625</LatitudeDegrees>
              <LongitudeDegrees>-4.08486024476587772369384765625</LongitudeDegrees>
            </Position>
            <AltitudeMeters>1546.5999755859375</AltitudeMeters>
            <DistanceMeters>NAN</DistanceMeters>
          </Trackpoint>
          <Trackpoint>
            <Time>2018-12-30T13:43:23.000Z</Time>
            <Position>
              <LatitudeDegrees>40.7480511255562305450439453125</LatitudeDegrees>
              <LongitudeDegrees>-4.08483912236988544464111328125</LongitudeDegrees>
            </Position>
            <AltitudeMeters>1546.5999755859375</AltitudeMeters>
            <DistanceMeters>NAN</DistanceMeters>
          </Trackpoint>
          <Trackpoint>
            <Time>2018-12-30T13:43:24.000Z</Time>
            <Position>
              <LatitudeDegrees>40.74805791489779949188232421875</LatitudeDegrees>
              <LongitudeDegrees>-4.08482336439192295074462890625</LongitudeDegrees>
            </Position>
            <AltitudeMeters>1546.4000244140625</AltitudeMeters>
            <DistanceMeters>NAN</DistanceMeters>
          </Trackpoint>
          <Trackpoint>
            <Time>2018-12-30T13:43:25.000Z</Time>
            <Position>
              <LatitudeDegrees>40.74806562624871730804443359375</LatitudeDegrees>
              <LongitudeDegrees>-4.0848137252032756805419921875</LongitudeDegrees>
            </Position>
            <AltitudeMeters>1546.199951171875</AltitudeMeters>
            <DistanceMeters>NAN</DistanceMeters>
          </Trackpoint>
          <Trackpoint>
            <Time>2018-12-30T13:43:26.000Z</Time>
            <Position>
              <LatitudeDegrees>40.7480806298553943634033203125</LatitudeDegrees>
              <LongitudeDegrees>-4.08480056561529636383056640625</LongitudeDegrees>
            </Position>
            <AltitudeMeters>1546</AltitudeMeters>
            <DistanceMeters>NAN</DistanceMeters>
          </Trackpoint>
          <Trackpoint>
            <Time>2018-12-30T13:43:27.000Z</Time>
            <Position>
              <LatitudeDegrees>40.74808574281632900238037109375</LatitudeDegrees>
              <LongitudeDegrees>-4.08479302190244197845458984375</LongitudeDegrees>
            </Position>
            <AltitudeMeters>1546</AltitudeMeters>
            <DistanceMeters>NAN</DistanceMeters>
          </Trackpoint>
          <Trackpoint>
            <Time>2018-12-30T13:43:28.000Z</Time>
            <Position>
              <LatitudeDegrees>40.748090855777263641357421875</LatitudeDegrees>
              <LongitudeDegrees>-4.084770642220973968505859375</LongitudeDegrees>
            </Position>
            <AltitudeMeters>1545.800048828125</AltitudeMeters>
            <DistanceMeters>NAN</DistanceMeters>
          </Trackpoint>
          <Trackpoint>
            <Time>2018-12-30T13:43:29.000Z</Time>
            <Position>
              <LatitudeDegrees>40.7481040991842746734619140625</LatitudeDegrees>
              <LongitudeDegrees>-4.08475295640528202056884765625</LongitudeDegrees>
            </Position>
            <AltitudeMeters>1545.5999755859375</AltitudeMeters>
            <DistanceMeters>NAN</DistanceMeters>
          </Trackpoint>
          <Trackpoint>
            <Time>2018-12-30T13:43:30.000Z</Time>
            <Position>
              <LatitudeDegrees>40.7481111399829387664794921875</LatitudeDegrees>
              <LongitudeDegrees>-4.08473351038992404937744140625</LongitudeDegrees>
            </Position>
            <AltitudeMeters>1545.4000244140625</AltitudeMeters>
            <DistanceMeters>NAN</DistanceMeters>
          </Trackpoint>
          <Trackpoint>
            <Time>2018-12-30T13:43:31.000Z</Time>
            <Position>
              <LatitudeDegrees>40.74812161736190319061279296875</LatitudeDegrees>
              <LongitudeDegrees>-4.0847118012607097625732421875</LongitudeDegrees>
            </Position>
            <AltitudeMeters>1545.199951171875</AltitudeMeters>
            <DistanceMeters>NAN</DistanceMeters>
          </Trackpoint>
          <Trackpoint>
            <Time>2018-12-30T13:43:32.000Z</Time>
            <Position>
              <LatitudeDegrees>40.74813209474086761474609375</LatitudeDegrees>
              <LongitudeDegrees>-4.08468707464635372161865234375</LongitudeDegrees>
            </Position>
            <AltitudeMeters>1545</AltitudeMeters>
            <DistanceMeters>NAN</DistanceMeters>
          </Trackpoint>
          <Trackpoint>
            <Time>2018-12-30T13:43:33.000Z</Time>
            <Position>
              <LatitudeDegrees>40.74813611805438995361328125</LatitudeDegrees>
              <LongitudeDegrees>-4.08467098139226436614990234375</LongitudeDegrees>
            </Position>
            <AltitudeMeters>1544.800048828125</AltitudeMeters>
            <DistanceMeters>NAN</DistanceMeters>
          </Trackpoint>
          <Trackpoint>
            <Time>2018-12-30T13:43:34.000Z</Time>
            <Position>
              <LatitudeDegrees>40.7481386326253414154052734375</LatitudeDegrees>
              <LongitudeDegrees>-4.08465572632849216461181640625</LongitudeDegrees>
            </Position>
            <AltitudeMeters>1544.800048828125</AltitudeMeters>
            <DistanceMeters>NAN</DistanceMeters>
          </Trackpoint>
          <Trackpoint>
            <Time>2018-12-30T13:43:35.000Z</Time>
            <Position>
              <LatitudeDegrees>40.748145841062068939208984375</LatitudeDegrees>
              <LongitudeDegrees>-4.08464290201663970947265625</LongitudeDegrees>
            </Position>
            <AltitudeMeters>1544.5999755859375</AltitudeMeters>
            <DistanceMeters>NAN</DistanceMeters>
          </Trackpoint>
          <Trackpoint>
            <Time>2018-12-30T13:43:36.000Z</Time>
            <Position>
              <LatitudeDegrees>40.74815195985138416290283203125</LatitudeDegrees>
              <LongitudeDegrees>-4.0846320055425167083740234375</LongitudeDegrees>
            </Position>
            <AltitudeMeters>1544.5999755859375</AltitudeMeters>
            <DistanceMeters>NAN</DistanceMeters>
          </Trackpoint>
          <Trackpoint>
            <Time>2018-12-30T13:43:37.000Z</Time>
            <Position>
              <LatitudeDegrees>40.74815757572650909423828125</LatitudeDegrees>
              <LongitudeDegrees>-4.0846246294677257537841796875</LongitudeDegrees>
            </Position>
            <AltitudeMeters>1544.4000244140625</AltitudeMeters>
            <DistanceMeters>NAN</DistanceMeters>
          </Trackpoint>
          <Trackpoint>
            <Time>2018-12-30T13:43:38.000Z</Time>
            <Position>
              <LatitudeDegrees>40.74815564788877964019775390625</LatitudeDegrees>
              <LongitudeDegrees>-4.0846105478703975677490234375</LongitudeDegrees>
            </Position>
            <AltitudeMeters>1544.4000244140625</AltitudeMeters>
            <DistanceMeters>NAN</DistanceMeters>
          </Trackpoint>
          <Trackpoint>
            <Time>2018-12-30T13:43:39.000Z</Time>
            <Position>
              <LatitudeDegrees>40.7481543906033039093017578125</LatitudeDegrees>
              <LongitudeDegrees>-4.08459956757724285125732421875</LongitudeDegrees>
            </Position>
            <AltitudeMeters>1544.199951171875</AltitudeMeters>
            <DistanceMeters>NAN</DistanceMeters>
          </Trackpoint>
          <Trackpoint>
            <Time>2018-12-30T13:43:40.000Z</Time>
            <Position>
              <LatitudeDegrees>40.7481540553271770477294921875</LatitudeDegrees>
              <LongitudeDegrees>-4.084590263664722442626953125</LongitudeDegrees>
            </Position>
            <AltitudeMeters>1544.199951171875</AltitudeMeters>
            <DistanceMeters>NAN</DistanceMeters>
          </Trackpoint>
          <Trackpoint>
            <Time>2018-12-30T13:43:41.000Z</Time>
            <Position>
              <LatitudeDegrees>40.74815489351749420166015625</LatitudeDegrees>
              <LongitudeDegrees>-4.08458397723734378814697265625</LongitudeDegrees>
            </Position>
            <AltitudeMeters>1544</AltitudeMeters>
            <DistanceMeters>NAN</DistanceMeters>
          </Trackpoint>
          <Trackpoint>
            <Time>2018-12-30T13:43:42.000Z</Time>
            <Position>
              <LatitudeDegrees>40.74815833009779453277587890625</LatitudeDegrees>
              <LongitudeDegrees>-4.08457492478191852569580078125</LongitudeDegrees>
            </Position>
            <AltitudeMeters>1544</AltitudeMeters>
            <DistanceMeters>NAN</DistanceMeters>
          </Trackpoint>
          <Trackpoint>
            <Time>2018-12-30T13:43:43.000Z</Time>
            <Position>
              <LatitudeDegrees>40.74816285632550716400146484375</LatitudeDegrees>
              <LongitudeDegrees>-4.08456922508776187896728515625</LongitudeDegrees>
            </Position>
            <AltitudeMeters>1544</AltitudeMeters>
            <DistanceMeters>NAN</DistanceMeters>
          </Trackpoint>
          <Trackpoint>
            <Time>2018-12-30T13:43:44.000Z</Time>
            <Position>
              <LatitudeDegrees>40.74816889129579067230224609375</LatitudeDegrees>
              <LongitudeDegrees>-4.08456067554652690887451171875</LongitudeDegrees>
            </Position>
            <AltitudeMeters>1543.800048828125</AltitudeMeters>
            <DistanceMeters>NAN</DistanceMeters>
          </Trackpoint>
          <Trackpoint>
            <Time>2018-12-30T13:43:45.000Z</Time>
            <Position>
              <LatitudeDegrees>40.7481728307902812957763671875</LatitudeDegrees>
              <LongitudeDegrees>-4.08455095253884792327880859375</LongitudeDegrees>
            </Position>
            <AltitudeMeters>1543.800048828125</AltitudeMeters>
            <DistanceMeters>NAN</DistanceMeters>
          </Trackpoint>
          <Trackpoint>
            <Time>2018-12-30T13:43:46.000Z</Time>
            <Position>
              <LatitudeDegrees>40.74817995540797710418701171875</LatitudeDegrees>
              <LongitudeDegrees>-4.0845429897308349609375</LongitudeDegrees>
            </Position>
            <AltitudeMeters>1543.800048828125</AltitudeMeters>
            <DistanceMeters>NAN</DistanceMeters>
          </Trackpoint>
          <Trackpoint>
            <Time>2018-12-30T13:43:47.000Z</Time>
            <Position>
              <LatitudeDegrees>40.74818439781665802001953125</LatitudeDegrees>
              <LongitudeDegrees>-4.08452630974352359771728515625</LongitudeDegrees>
            </Position>
            <AltitudeMeters>1543.800048828125</AltitudeMeters>
            <DistanceMeters>NAN</DistanceMeters>
          </Trackpoint>
          <Trackpoint>
            <Time>2018-12-30T13:43:48.000Z</Time>
            <Position>
              <LatitudeDegrees>40.74819169007241725921630859375</LatitudeDegrees>
              <LongitudeDegrees>-4.0845139883458614349365234375</LongitudeDegrees>
            </Position>
            <AltitudeMeters>1543.5999755859375</AltitudeMeters>
            <DistanceMeters>NAN</DistanceMeters>
          </Trackpoint>
          <Trackpoint>
            <Time>2018-12-30T13:43:49.000Z</Time>
            <Position>
              <LatitudeDegrees>40.74820208363234996795654296875</LatitudeDegrees>
              <LongitudeDegrees>-4.084501080214977264404296875</LongitudeDegrees>
            </Position>
            <AltitudeMeters>1543.5999755859375</AltitudeMeters>
            <DistanceMeters>NAN</DistanceMeters>
          </Trackpoint>
          <Trackpoint>
            <Time>2018-12-30T13:43:50.000Z</Time>
            <Position>
              <LatitudeDegrees>40.74821566231548786163330078125</LatitudeDegrees>
              <LongitudeDegrees>-4.08448825590312480926513671875</LongitudeDegrees>
            </Position>
            <AltitudeMeters>1543.4000244140625</AltitudeMeters>
            <DistanceMeters>NAN</DistanceMeters>
          </Trackpoint>
          <Trackpoint>
            <Time>2018-12-30T13:43:51.000Z</Time>
            <Position>
              <LatitudeDegrees>40.7482177577912807464599609375</LatitudeDegrees>
              <LongitudeDegrees>-4.0844761021435260772705078125</LongitudeDegrees>
            </Position>
            <AltitudeMeters>1543.4000244140625</AltitudeMeters>
            <DistanceMeters>NAN</DistanceMeters>
          </Trackpoint>
          <Trackpoint>
            <Time>2018-12-30T13:43:52.000Z</Time>
            <Position>
              <LatitudeDegrees>40.74822060763835906982421875</LatitudeDegrees>
              <LongitudeDegrees>-4.08446763642132282257080078125</LongitudeDegrees>
            </Position>
            <AltitudeMeters>1543.199951171875</AltitudeMeters>
            <DistanceMeters>NAN</DistanceMeters>
          </Trackpoint>
          <Trackpoint>
            <Time>2018-12-30T13:43:53.000Z</Time>
            <Position>
              <LatitudeDegrees>40.74821817688643932342529296875</LatitudeDegrees>
              <LongitudeDegrees>-4.08445439301431179046630859375</LongitudeDegrees>
            </Position>
            <AltitudeMeters>1543</AltitudeMeters>
            <DistanceMeters>NAN</DistanceMeters>
          </Trackpoint>
          <Trackpoint>
            <Time>2018-12-30T13:43:54.000Z</Time>
            <Position>
              <LatitudeDegrees>40.74820778332650661468505859375</LatitudeDegrees>
              <LongitudeDegrees>-4.084446094930171966552734375</LongitudeDegrees>
            </Position>
            <AltitudeMeters>1542.800048828125</AltitudeMeters>
            <DistanceMeters>NAN</DistanceMeters>
          </Trackpoint>
          <Trackpoint>
            <Time>2018-12-30T13:43:55.000Z</Time>
            <Position>
              <LatitudeDegrees>40.74820761568844318389892578125</LatitudeDegrees>
              <LongitudeDegrees>-4.08443679101765155792236328125</LongitudeDegrees>
            </Position>
            <AltitudeMeters>1542.800048828125</AltitudeMeters>
            <DistanceMeters>NAN</DistanceMeters>
          </Trackpoint>
          <Trackpoint>
            <Time>2018-12-30T13:43:56.000Z</Time>
            <Position>
              <LatitudeDegrees>40.74821147136390209197998046875</LatitudeDegrees>
              <LongitudeDegrees>-4.08442027866840362548828125</LongitudeDegrees>
            </Position>
            <AltitudeMeters>1542.5999755859375</AltitudeMeters>
            <DistanceMeters>NAN</DistanceMeters>
          </Trackpoint>
          <Trackpoint>
            <Time>2018-12-30T13:43:57.000Z</Time>
            <Position>
              <LatitudeDegrees>40.74822069145739078521728515625</LatitudeDegrees>
              <LongitudeDegrees>-4.08440208993852138519287109375</LongitudeDegrees>
            </Position>
            <AltitudeMeters>1542.4000244140625</AltitudeMeters>
            <DistanceMeters>NAN</DistanceMeters>
          </Trackpoint>
          <Trackpoint>
            <Time>2018-12-30T13:43:58.000Z</Time>
            <Position>
              <LatitudeDegrees>40.7482318393886089324951171875</LatitudeDegrees>
              <LongitudeDegrees>-4.084391109645366668701171875</LongitudeDegrees>
            </Position>
            <AltitudeMeters>1542.199951171875</AltitudeMeters>
            <DistanceMeters>NAN</DistanceMeters>
          </Trackpoint>
          <Trackpoint>
            <Time>2018-12-30T13:43:59.000Z</Time>
            <Position>
              <LatitudeDegrees>40.74824181385338306427001953125</LatitudeDegrees>
              <LongitudeDegrees>-4.0843828953802585601806640625</LongitudeDegrees>
            </Position>
            <AltitudeMeters>1542</AltitudeMeters>
            <DistanceMeters>NAN</DistanceMeters>
          </Trackpoint>
          <Trackpoint>
            <Time>2018-12-30T13:44:00.000Z</Time>
            <Position>
              <LatitudeDegrees>40.7482601702213287353515625</LatitudeDegrees>
              <LongitudeDegrees>-4.08436403609812259674072265625</LongitudeDegrees>
            </Position>
            <AltitudeMeters>1541.800048828125</AltitudeMeters>
            <DistanceMeters>NAN</DistanceMeters>
          </Trackpoint>
          <Trackpoint>
            <Time>2018-12-30T13:44:01.000Z</Time>
            <Position>
              <LatitudeDegrees>40.74827617965638637542724609375</LatitudeDegrees>
              <LongitudeDegrees>-4.0843460150063037872314453125</LongitudeDegrees>
            </Position>
            <AltitudeMeters>1541.800048828125</AltitudeMeters>
            <DistanceMeters>NAN</DistanceMeters>
          </Trackpoint>
          <Trackpoint>
            <Time>2018-12-30T13:44:02.000Z</Time>
            <Position>
              <LatitudeDegrees>40.74828439392149448394775390625</LatitudeDegrees>
              <LongitudeDegrees>-4.0843352861702442169189453125</LongitudeDegrees>
            </Position>
            <AltitudeMeters>1541.5999755859375</AltitudeMeters>
            <DistanceMeters>NAN</DistanceMeters>
          </Trackpoint>
          <Trackpoint>
            <Time>2018-12-30T13:44:03.000Z</Time>
            <Position>
              <LatitudeDegrees>40.748293362557888031005859375</LatitudeDegrees>
              <LongitudeDegrees>-4.0843262337148189544677734375</LongitudeDegrees>
            </Position>
            <AltitudeMeters>1541.5999755859375</AltitudeMeters>
            <DistanceMeters>NAN</DistanceMeters>
          </Trackpoint>
          <Trackpoint>
            <Time>2018-12-30T13:44:04.000Z</Time>
            <Position>
              <LatitudeDegrees>40.7483022473752498626708984375</LatitudeDegrees>
              <LongitudeDegrees>-4.08432212658226490020751953125</LongitudeDegrees>
            </Position>
            <AltitudeMeters>1541.5999755859375</AltitudeMeters>
            <DistanceMeters>NAN</DistanceMeters>
          </Trackpoint>
          <Trackpoint>
            <Time>2018-12-30T13:44:05.000Z</Time>
            <Position>
              <LatitudeDegrees>40.748304091393947601318359375</LatitudeDegrees>
              <LongitudeDegrees>-4.08431567251682281494140625</LongitudeDegrees>
            </Position>
            <AltitudeMeters>1541.4000244140625</AltitudeMeters>
            <DistanceMeters>NAN</DistanceMeters>
          </Trackpoint>
          <Trackpoint>
            <Time>2018-12-30T13:44:06.000Z</Time>
            <Position>
              <LatitudeDegrees>40.74830912053585052490234375</LatitudeDegrees>
              <LongitudeDegrees>-4.08431072719395160675048828125</LongitudeDegrees>
            </Position>
            <AltitudeMeters>1541</AltitudeMeters>
            <DistanceMeters>NAN</DistanceMeters>
          </Trackpoint>
          <Trackpoint>
            <Time>2018-12-30T13:44:07.000Z</Time>
            <Position>
              <LatitudeDegrees>40.74831071309745311737060546875</LatitudeDegrees>
              <LongitudeDegrees>-4.08430972136557102203369140625</LongitudeDegrees>
            </Position>
            <AltitudeMeters>1540.800048828125</AltitudeMeters>
            <DistanceMeters>NAN</DistanceMeters>
          </Trackpoint>
          <Trackpoint>
            <Time>2018-12-30T13:44:08.000Z</Time>
            <Position>
              <LatitudeDegrees>40.74831423349678516387939453125</LatitudeDegrees>
              <LongitudeDegrees>-4.08430226147174835205078125</LongitudeDegrees>
            </Position>
            <AltitudeMeters>1540.5999755859375</AltitudeMeters>
            <DistanceMeters>NAN</DistanceMeters>
          </Trackpoint>
          <Trackpoint>
            <Time>2018-12-30T13:44:09.000Z</Time>
            <Position>
              <LatitudeDegrees>40.74832119047641754150390625</LatitudeDegrees>
              <LongitudeDegrees>-4.0842973999679088592529296875</LongitudeDegrees>
            </Position>
            <AltitudeMeters>1540.199951171875</AltitudeMeters>
            <DistanceMeters>NAN</DistanceMeters>
          </Trackpoint>
          <Trackpoint>
            <Time>2018-12-30T13:44:10.000Z</Time>
            <Position>
              <LatitudeDegrees>40.7483294047415256500244140625</LatitudeDegrees>
              <LongitudeDegrees>-4.08429580740630626678466796875</LongitudeDegrees>
            </Position>
            <AltitudeMeters>1540</AltitudeMeters>
            <DistanceMeters>NAN</DistanceMeters>
          </Trackpoint>
          <Trackpoint>
            <Time>2018-12-30T13:44:11.000Z</Time>
            <Position>
              <LatitudeDegrees>40.74833133257925510406494140625</LatitudeDegrees>
              <LongitudeDegrees>-4.08429086208343505859375</LongitudeDegrees>
            </Position>
            <AltitudeMeters>1539.800048828125</AltitudeMeters>
            <DistanceMeters>NAN</DistanceMeters>
          </Trackpoint>
          <Trackpoint>
            <Time>2018-12-30T13:44:12.000Z</Time>
            <Position>
              <LatitudeDegrees>40.74832781217992305755615234375</LatitudeDegrees>
              <LongitudeDegrees>-4.08428750932216644287109375</LongitudeDegrees>
            </Position>
            <AltitudeMeters>1539.4000244140625</AltitudeMeters>
            <DistanceMeters>NAN</DistanceMeters>
          </Trackpoint>
          <Trackpoint>
            <Time>2018-12-30T13:44:13.000Z</Time>
            <Position>
              <LatitudeDegrees>40.74832923710346221923828125</LatitudeDegrees>
              <LongitudeDegrees>-4.084281809628009796142578125</LongitudeDegrees>
            </Position>
            <AltitudeMeters>1539</AltitudeMeters>
            <DistanceMeters>NAN</DistanceMeters>
          </Trackpoint>
          <Trackpoint>
            <Time>2018-12-30T13:44:14.000Z</Time>
            <Position>
              <LatitudeDegrees>40.74833451770246028900146484375</LatitudeDegrees>
              <LongitudeDegrees>-4.08427753485739231109619140625</LongitudeDegrees>
            </Position>
            <AltitudeMeters>1538.800048828125</AltitudeMeters>
            <DistanceMeters>NAN</DistanceMeters>
          </Trackpoint>
          <Trackpoint>
            <Time>2018-12-30T13:44:15.000Z</Time>
            <Position>
              <LatitudeDegrees>40.74834206141531467437744140625</LatitudeDegrees>
              <LongitudeDegrees>-4.08426714129745960235595703125</LongitudeDegrees>
            </Position>
            <AltitudeMeters>1538.800048828125</AltitudeMeters>
            <DistanceMeters>NAN</DistanceMeters>
          </Trackpoint>
          <Trackpoint>
            <Time>2018-12-30T13:44:16.000Z</Time>
            <Position>
              <LatitudeDegrees>40.74834474362432956695556640625</LatitudeDegrees>
              <LongitudeDegrees>-4.08425842411816120147705078125</LongitudeDegrees>
            </Position>
            <AltitudeMeters>1538.5999755859375</AltitudeMeters>
            <DistanceMeters>NAN</DistanceMeters>
          </Trackpoint>
          <Trackpoint>
            <Time>2018-12-30T13:44:17.000Z</Time>
            <Position>
              <LatitudeDegrees>40.74835161678493022918701171875</LatitudeDegrees>
              <LongitudeDegrees>-4.08424350433051586151123046875</LongitudeDegrees>
            </Position>
            <AltitudeMeters>1538.5999755859375</AltitudeMeters>
            <DistanceMeters>NAN</DistanceMeters>
          </Trackpoint>
          <Trackpoint>
            <Time>2018-12-30T13:44:18.000Z</Time>
            <Position>
              <LatitudeDegrees>40.74836385436356067657470703125</LatitudeDegrees>
              <LongitudeDegrees>-4.08423042856156826019287109375</LongitudeDegrees>
            </Position>
            <AltitudeMeters>1538.4000244140625</AltitudeMeters>
            <DistanceMeters>NAN</DistanceMeters>
          </Trackpoint>
          <Trackpoint>
            <Time>2018-12-30T13:44:19.000Z</Time>
            <Position>
              <LatitudeDegrees>40.74837575666606426239013671875</LatitudeDegrees>
              <LongitudeDegrees>-4.08421785570681095123291015625</LongitudeDegrees>
            </Position>
            <AltitudeMeters>1538.4000244140625</AltitudeMeters>
            <DistanceMeters>NAN</DistanceMeters>
          </Trackpoint>
          <Trackpoint>
            <Time>2018-12-30T13:44:20.000Z</Time>
            <Position>
              <LatitudeDegrees>40.748383216559886932373046875</LatitudeDegrees>
              <LongitudeDegrees>-4.0842028521001338958740234375</LongitudeDegrees>
            </Position>
            <AltitudeMeters>1538.199951171875</AltitudeMeters>
            <DistanceMeters>NAN</DistanceMeters>
          </Trackpoint>
          <Trackpoint>
            <Time>2018-12-30T13:44:21.000Z</Time>
            <Position>
              <LatitudeDegrees>40.74839000590145587921142578125</LatitudeDegrees>
              <LongitudeDegrees>-4.0841914527118206024169921875</LongitudeDegrees>
            </Position>
            <AltitudeMeters>1538.199951171875</AltitudeMeters>
            <DistanceMeters>NAN</DistanceMeters>
          </Trackpoint>
          <Trackpoint>
            <Time>2018-12-30T13:44:22.000Z</Time>
            <Position>
              <LatitudeDegrees>40.7483910955488681793212890625</LatitudeDegrees>
              <LongitudeDegrees>-4.0841795504093170166015625</LongitudeDegrees>
            </Position>
            <AltitudeMeters>1538.199951171875</AltitudeMeters>
            <DistanceMeters>NAN</DistanceMeters>
          </Trackpoint>
          <Trackpoint>
            <Time>2018-12-30T13:44:23.000Z</Time>
            <Position>
              <LatitudeDegrees>40.74839226901531219482421875</LatitudeDegrees>
              <LongitudeDegrees>-4.08416890539228916168212890625</LongitudeDegrees>
            </Position>
            <AltitudeMeters>1538</AltitudeMeters>
            <DistanceMeters>NAN</DistanceMeters>
          </Trackpoint>
          <Trackpoint>
            <Time>2018-12-30T13:44:24.000Z</Time>
            <Position>
              <LatitudeDegrees>40.74839604087173938751220703125</LatitudeDegrees>
              <LongitudeDegrees>-4.0841585956513881683349609375</LongitudeDegrees>
            </Position>
            <AltitudeMeters>1537.800048828125</AltitudeMeters>
            <DistanceMeters>NAN</DistanceMeters>
          </Trackpoint>
          <Trackpoint>
            <Time>2018-12-30T13:44:25.000Z</Time>
            <Position>
              <LatitudeDegrees>40.74840165674686431884765625</LatitudeDegrees>
              <LongitudeDegrees>-4.08414803445339202880859375</LongitudeDegrees>
            </Position>
            <AltitudeMeters>1537.4000244140625</AltitudeMeters>
            <DistanceMeters>NAN</DistanceMeters>
          </Trackpoint>
          <Trackpoint>
            <Time>2018-12-30T13:44:26.000Z</Time>
            <Position>
              <LatitudeDegrees>40.74840324930846691131591796875</LatitudeDegrees>
              <LongitudeDegrees>-4.0841347910463809967041015625</LongitudeDegrees>
            </Position>
            <AltitudeMeters>1537.199951171875</AltitudeMeters>
            <DistanceMeters>NAN</DistanceMeters>
          </Trackpoint>
          <Trackpoint>
            <Time>2018-12-30T13:44:27.000Z</Time>
            <Position>
              <LatitudeDegrees>40.74840702116489410400390625</LatitudeDegrees>
              <LongitudeDegrees>-4.08412649296224117279052734375</LongitudeDegrees>
            </Position>
            <AltitudeMeters>1536.800048828125</AltitudeMeters>
            <DistanceMeters>NAN</DistanceMeters>
          </Trackpoint>
          <Trackpoint>
            <Time>2018-12-30T13:44:28.000Z</Time>
            <Position>
              <LatitudeDegrees>40.7484122179448604583740234375</LatitudeDegrees>
              <LongitudeDegrees>-4.084116853773593902587890625</LongitudeDegrees>
            </Position>
            <AltitudeMeters>1536.4000244140625</AltitudeMeters>
            <DistanceMeters>NAN</DistanceMeters>
          </Trackpoint>
          <Trackpoint>
            <Time>2018-12-30T13:44:29.000Z</Time>
            <Position>
              <LatitudeDegrees>40.74841640889644622802734375</LatitudeDegrees>
              <LongitudeDegrees>-4.0841066278517246246337890625</LongitudeDegrees>
            </Position>
            <AltitudeMeters>1536</AltitudeMeters>
            <DistanceMeters>NAN</DistanceMeters>
          </Trackpoint>
          <Trackpoint>
            <Time>2018-12-30T13:44:30.000Z</Time>
            <Position>
              <LatitudeDegrees>40.74842034839093685150146484375</LatitudeDegrees>
              <LongitudeDegrees>-4.0840982459485530853271484375</LongitudeDegrees>
            </Position>
            <AltitudeMeters>1535.800048828125</AltitudeMeters>
            <DistanceMeters>NAN</DistanceMeters>
          </Trackpoint>
          <Trackpoint>
            <Time>2018-12-30T13:44:31.000Z</Time>
            <Position>
              <LatitudeDegrees>40.74842319823801517486572265625</LatitudeDegrees>
              <LongitudeDegrees>-4.0840928815305233001708984375</LongitudeDegrees>
            </Position>
            <AltitudeMeters>1535.5999755859375</AltitudeMeters>
            <DistanceMeters>NAN</DistanceMeters>
          </Trackpoint>
          <Trackpoint>
            <Time>2018-12-30T13:44:32.000Z</Time>
            <Position>
              <LatitudeDegrees>40.74842101894319057464599609375</LatitudeDegrees>
              <LongitudeDegrees>-4.084086678922176361083984375</LongitudeDegrees>
            </Position>
            <AltitudeMeters>1535.4000244140625</AltitudeMeters>
            <DistanceMeters>NAN</DistanceMeters>
          </Trackpoint>
          <Trackpoint>
            <Time>2018-12-30T13:44:33.000Z</Time>
            <Position>
              <LatitudeDegrees>40.74842906557023525238037109375</LatitudeDegrees>
              <LongitudeDegrees>-4.08407695591449737548828125</LongitudeDegrees>
            </Position>
            <AltitudeMeters>1535.199951171875</AltitudeMeters>
            <DistanceMeters>NAN</DistanceMeters>
          </Trackpoint>
          <Trackpoint>
            <Time>2018-12-30T13:44:34.000Z</Time>
            <Position>
              <LatitudeDegrees>40.74843979440629482269287109375</LatitudeDegrees>
              <LongitudeDegrees>-4.08407033421099185943603515625</LongitudeDegrees>
            </Position>
            <AltitudeMeters>1535.199951171875</AltitudeMeters>
            <DistanceMeters>NAN</DistanceMeters>
          </Trackpoint>
          <Trackpoint>
            <Time>2018-12-30T13:44:35.000Z</Time>
            <Position>
              <LatitudeDegrees>40.74844096787273883819580078125</LatitudeDegrees>
              <LongitudeDegrees>-4.0840687416493892669677734375</LongitudeDegrees>
            </Position>
            <AltitudeMeters>1535.199951171875</AltitudeMeters>
            <DistanceMeters>NAN</DistanceMeters>
          </Trackpoint>
          <Trackpoint>
            <Time>2018-12-30T13:44:36.000Z</Time>
            <Position>
              <LatitudeDegrees>40.74844314716756343841552734375</LatitudeDegrees>
              <LongitudeDegrees>-4.0840627066791057586669921875</LongitudeDegrees>
            </Position>
            <AltitudeMeters>1535.199951171875</AltitudeMeters>
            <DistanceMeters>NAN</DistanceMeters>
          </Trackpoint>
          <Trackpoint>
            <Time>2018-12-30T13:44:37.000Z</Time>
            <Position>
              <LatitudeDegrees>40.74844398535788059234619140625</LatitudeDegrees>
              <LongitudeDegrees>-4.08405306749045848846435546875</LongitudeDegrees>
            </Position>
            <AltitudeMeters>1535</AltitudeMeters>
            <DistanceMeters>NAN</DistanceMeters>
          </Trackpoint>
          <Trackpoint>
            <Time>2018-12-30T13:44:38.000Z</Time>
            <Position>
              <LatitudeDegrees>40.74844465591013431549072265625</LatitudeDegrees>
              <LongitudeDegrees>-4.0840452723205089569091796875</LongitudeDegrees>
            </Position>
            <AltitudeMeters>1535</AltitudeMeters>
            <DistanceMeters>NAN</DistanceMeters>
          </Trackpoint>
          <Trackpoint>
            <Time>2018-12-30T13:44:39.000Z</Time>
            <Position>
              <LatitudeDegrees>40.7484487630426883697509765625</LatitudeDegrees>
              <LongitudeDegrees>-4.0840462781488895416259765625</LongitudeDegrees>
            </Position>
            <AltitudeMeters>1535</AltitudeMeters>
            <DistanceMeters>NAN</DistanceMeters>
          </Trackpoint>
          <Trackpoint>
            <Time>2018-12-30T13:44:40.000Z</Time>
            <Position>
              <LatitudeDegrees>40.74845454655587673187255859375</LatitudeDegrees>
              <LongitudeDegrees>-4.0840415842831134796142578125</LongitudeDegrees>
            </Position>
            <AltitudeMeters>1534.800048828125</AltitudeMeters>
            <DistanceMeters>NAN</DistanceMeters>
          </Trackpoint>
          <Trackpoint>
            <Time>2018-12-30T13:44:41.000Z</Time>
            <Position>
              <LatitudeDegrees>40.748454965651035308837890625</LatitudeDegrees>
              <LongitudeDegrees>-4.08403898589313030242919921875</LongitudeDegrees>
            </Position>
            <AltitudeMeters>1534.5999755859375</AltitudeMeters>
            <DistanceMeters>NAN</DistanceMeters>
          </Trackpoint>
          <Trackpoint>
            <Time>2018-12-30T13:44:42.000Z</Time>
            <Position>
              <LatitudeDegrees>40.7484568096697330474853515625</LatitudeDegrees>
              <LongitudeDegrees>-4.08402054570615291595458984375</LongitudeDegrees>
            </Position>
            <AltitudeMeters>1534.4000244140625</AltitudeMeters>
            <DistanceMeters>NAN</DistanceMeters>
          </Trackpoint>
          <Trackpoint>
            <Time>2018-12-30T13:44:43.000Z</Time>
            <Position>
              <LatitudeDegrees>40.74845664203166961669921875</LatitudeDegrees>
              <LongitudeDegrees>-4.08399808220565319061279296875</LongitudeDegrees>
            </Position>
            <AltitudeMeters>1534.4000244140625</AltitudeMeters>
            <DistanceMeters>NAN</DistanceMeters>
          </Trackpoint>
          <Trackpoint>
            <Time>2018-12-30T13:44:44.000Z</Time>
            <Position>
              <LatitudeDegrees>40.74845035560429096221923828125</LatitudeDegrees>
              <LongitudeDegrees>-4.08398986794054508209228515625</LongitudeDegrees>
            </Position>
            <AltitudeMeters>1534.199951171875</AltitudeMeters>
            <DistanceMeters>NAN</DistanceMeters>
          </Trackpoint>
          <Trackpoint>
            <Time>2018-12-30T13:44:45.000Z</Time>
            <Position>
              <LatitudeDegrees>40.748448930680751800537109375</LatitudeDegrees>
              <LongitudeDegrees>-4.08399020321667194366455078125</LongitudeDegrees>
            </Position>
            <AltitudeMeters>1533.800048828125</AltitudeMeters>
            <DistanceMeters>NAN</DistanceMeters>
          </Trackpoint>
          <Trackpoint>
            <Time>2018-12-30T13:44:46.000Z</Time>
            <Position>
              <LatitudeDegrees>40.748434178531169891357421875</LatitudeDegrees>
              <LongitudeDegrees>-4.08399154432117938995361328125</LongitudeDegrees>
            </Position>
            <AltitudeMeters>1533.800048828125</AltitudeMeters>
            <DistanceMeters>NAN</DistanceMeters>
          </Trackpoint>
          <Trackpoint>
            <Time>2018-12-30T13:44:47.000Z</Time>
            <Position>
              <LatitudeDegrees>40.7484262995421886444091796875</LatitudeDegrees>
              <LongitudeDegrees>-4.0839899517595767974853515625</LongitudeDegrees>
            </Position>
            <AltitudeMeters>1533.5999755859375</AltitudeMeters>
            <DistanceMeters>NAN</DistanceMeters>
          </Trackpoint>
          <Trackpoint>
            <Time>2018-12-30T13:44:48.000Z</Time>
            <Position>
              <LatitudeDegrees>40.748424790799617767333984375</LatitudeDegrees>
              <LongitudeDegrees>-4.08397545106709003448486328125</LongitudeDegrees>
            </Position>
            <AltitudeMeters>1533.4000244140625</AltitudeMeters>
            <DistanceMeters>NAN</DistanceMeters>
          </Trackpoint>
          <Trackpoint>
            <Time>2018-12-30T13:44:49.000Z</Time>
            <Position>
              <LatitudeDegrees>40.74842722155153751373291015625</LatitudeDegrees>
              <LongitudeDegrees>-4.08396841026842594146728515625</LongitudeDegrees>
            </Position>
            <AltitudeMeters>1533</AltitudeMeters>
            <DistanceMeters>NAN</DistanceMeters>
          </Trackpoint>
          <Trackpoint>
            <Time>2018-12-30T13:44:50.000Z</Time>
            <Position>
              <LatitudeDegrees>40.74843040667474269866943359375</LatitudeDegrees>
              <LongitudeDegrees>-4.083956591784954071044921875</LongitudeDegrees>
            </Position>
            <AltitudeMeters>1532.800048828125</AltitudeMeters>
            <DistanceMeters>NAN</DistanceMeters>
          </Trackpoint>
          <Trackpoint>
            <Time>2018-12-30T13:44:51.000Z</Time>
            <Position>
              <LatitudeDegrees>40.748432837426662445068359375</LatitudeDegrees>
              <LongitudeDegrees>-4.083940498530864715576171875</LongitudeDegrees>
            </Position>
            <AltitudeMeters>1532.5999755859375</AltitudeMeters>
            <DistanceMeters>NAN</DistanceMeters>
          </Trackpoint>
          <Trackpoint>
            <Time>2018-12-30T13:44:52.000Z</Time>
            <Position>
              <LatitudeDegrees>40.7484343461692333221435546875</LatitudeDegrees>
              <LongitudeDegrees>-4.08392616547644138336181640625</LongitudeDegrees>
            </Position>
            <AltitudeMeters>1532.5999755859375</AltitudeMeters>
            <DistanceMeters>NAN</DistanceMeters>
          </Trackpoint>
          <Trackpoint>
            <Time>2018-12-30T13:44:53.000Z</Time>
            <Position>
              <LatitudeDegrees>40.74843610636889934539794921875</LatitudeDegrees>
              <LongitudeDegrees>-4.083911664783954620361328125</LongitudeDegrees>
            </Position>
            <AltitudeMeters>1532.4000244140625</AltitudeMeters>
            <DistanceMeters>NAN</DistanceMeters>
          </Trackpoint>
          <Trackpoint>
            <Time>2018-12-30T13:44:54.000Z</Time>
            <Position>
              <LatitudeDegrees>40.74844297952950000762939453125</LatitudeDegrees>
              <LongitudeDegrees>-4.08389800228178501129150390625</LongitudeDegrees>
            </Position>
            <AltitudeMeters>1532.199951171875</AltitudeMeters>
            <DistanceMeters>NAN</DistanceMeters>
          </Trackpoint>
          <Trackpoint>
            <Time>2018-12-30T13:44:55.000Z</Time>
            <Position>
              <LatitudeDegrees>40.74845069088041782379150390625</LatitudeDegrees>
              <LongitudeDegrees>-4.08388542942702770233154296875</LongitudeDegrees>
            </Position>
            <AltitudeMeters>1532</AltitudeMeters>
            <DistanceMeters>NAN</DistanceMeters>
          </Trackpoint>
          <Trackpoint>
            <Time>2018-12-30T13:44:56.000Z</Time>
            <Position>
              <LatitudeDegrees>40.7484554685652256011962890625</LatitudeDegrees>
              <LongitudeDegrees>-4.08387570641934871673583984375</LongitudeDegrees>
            </Position>
            <AltitudeMeters>1531.800048828125</AltitudeMeters>
            <DistanceMeters>NAN</DistanceMeters>
          </Trackpoint>
          <Trackpoint>
            <Time>2018-12-30T13:44:57.000Z</Time>
            <Position>
              <LatitudeDegrees>40.74846309609711170196533203125</LatitudeDegrees>
              <LongitudeDegrees>-4.0838655643165111541748046875</LongitudeDegrees>
            </Position>
            <AltitudeMeters>1531.5999755859375</AltitudeMeters>
            <DistanceMeters>NAN</DistanceMeters>
          </Trackpoint>
          <Trackpoint>
            <Time>2018-12-30T13:44:58.000Z</Time>
            <Position>
              <LatitudeDegrees>40.74846745468676090240478515625</LatitudeDegrees>
              <LongitudeDegrees>-4.083858020603656768798828125</LongitudeDegrees>
            </Position>
            <AltitudeMeters>1531.4000244140625</AltitudeMeters>
            <DistanceMeters>NAN</DistanceMeters>
          </Trackpoint>
          <Trackpoint>
            <Time>2018-12-30T13:44:59.000Z</Time>
            <Position>
              <LatitudeDegrees>40.748465694487094879150390625</LatitudeDegrees>
              <LongitudeDegrees>-4.08384821377694606781005859375</LongitudeDegrees>
            </Position>
            <AltitudeMeters>1531</AltitudeMeters>
            <DistanceMeters>NAN</DistanceMeters>
          </Trackpoint>
          <Trackpoint>
            <Time>2018-12-30T13:45:00.000Z</Time>
            <Position>
              <LatitudeDegrees>40.74847273528575897216796875</LatitudeDegrees>
              <LongitudeDegrees>-4.0838132612407207489013671875</LongitudeDegrees>
            </Position>
            <AltitudeMeters>1530.5999755859375</AltitudeMeters>
            <DistanceMeters>NAN</DistanceMeters>
          </Trackpoint>
          <Trackpoint>
            <Time>2018-12-30T13:45:01.000Z</Time>
            <Position>
              <LatitudeDegrees>40.7484749145805835723876953125</LatitudeDegrees>
              <LongitudeDegrees>-4.08380739390850067138671875</LongitudeDegrees>
            </Position>
            <AltitudeMeters>1530.4000244140625</AltitudeMeters>
            <DistanceMeters>NAN</DistanceMeters>
          </Trackpoint>
          <Trackpoint>
            <Time>2018-12-30T13:45:02.000Z</Time>
            <Position>
              <LatitudeDegrees>40.7484712265431880950927734375</LatitudeDegrees>
              <LongitudeDegrees>-4.0838001854717731475830078125</LongitudeDegrees>
            </Position>
            <AltitudeMeters>1530</AltitudeMeters>
            <DistanceMeters>NAN</DistanceMeters>
          </Trackpoint>
          <Trackpoint>
            <Time>2018-12-30T13:45:03.000Z</Time>
            <Position>
              <LatitudeDegrees>40.74845756404101848602294921875</LatitudeDegrees>
              <LongitudeDegrees>-4.08379088155925273895263671875</LongitudeDegrees>
            </Position>
            <AltitudeMeters>1529.800048828125</AltitudeMeters>
            <DistanceMeters>NAN</DistanceMeters>
          </Trackpoint>
          <Trackpoint>
            <Time>2018-12-30T13:45:04.000Z</Time>
            <Position>
              <LatitudeDegrees>40.74844457209110260009765625</LatitudeDegrees>
              <LongitudeDegrees>-4.08378459513187408447265625</LongitudeDegrees>
            </Position>
            <AltitudeMeters>1529.5999755859375</AltitudeMeters>
            <DistanceMeters>NAN</DistanceMeters>
          </Trackpoint>
          <Trackpoint>
            <Time>2018-12-30T13:45:05.000Z</Time>
            <Position>
              <LatitudeDegrees>40.74843518435955047607421875</LatitudeDegrees>
              <LongitudeDegrees>-4.0837852656841278076171875</LongitudeDegrees>
            </Position>
            <AltitudeMeters>1529.4000244140625</AltitudeMeters>
            <DistanceMeters>NAN</DistanceMeters>
          </Trackpoint>
          <Trackpoint>
            <Time>2018-12-30T13:45:06.000Z</Time>
            <Position>
              <LatitudeDegrees>40.74841850437223911285400390625</LatitudeDegrees>
              <LongitudeDegrees>-4.08379373140633106231689453125</LongitudeDegrees>
            </Position>
            <AltitudeMeters>1529.199951171875</AltitudeMeters>
            <DistanceMeters>NAN</DistanceMeters>
          </Trackpoint>
          <Trackpoint>
            <Time>2018-12-30T13:45:07.000Z</Time>
            <Position>
              <LatitudeDegrees>40.74841297231614589691162109375</LatitudeDegrees>
              <LongitudeDegrees>-4.0837986767292022705078125</LongitudeDegrees>
            </Position>
            <AltitudeMeters>1529.199951171875</AltitudeMeters>
            <DistanceMeters>NAN</DistanceMeters>
          </Trackpoint>
          <Trackpoint>
            <Time>2018-12-30T13:45:08.000Z</Time>
            <Position>
              <LatitudeDegrees>40.7484061829745769500732421875</LatitudeDegrees>
              <LongitudeDegrees>-4.083803035318851470947265625</LongitudeDegrees>
            </Position>
            <AltitudeMeters>1529</AltitudeMeters>
            <DistanceMeters>NAN</DistanceMeters>
          </Trackpoint>
          <Trackpoint>
            <Time>2018-12-30T13:45:09.000Z</Time>
            <Position>
              <LatitudeDegrees>40.7483971305191516876220703125</LatitudeDegrees>
              <LongitudeDegrees>-4.08381133340299129486083984375</LongitudeDegrees>
            </Position>
            <AltitudeMeters>1529</AltitudeMeters>
            <DistanceMeters>NAN</DistanceMeters>
          </Trackpoint>
          <Trackpoint>
            <Time>2018-12-30T13:45:10.000Z</Time>
            <Position>
              <LatitudeDegrees>40.74839604087173938751220703125</LatitudeDegrees>
              <LongitudeDegrees>-4.0838149376213550567626953125</LongitudeDegrees>
            </Position>
            <AltitudeMeters>1529</AltitudeMeters>
            <DistanceMeters>NAN</DistanceMeters>
          </Trackpoint>
          <Trackpoint>
            <Time>2018-12-30T13:45:11.000Z</Time>
            <Position>
              <LatitudeDegrees>40.74839754961431026458740234375</LatitudeDegrees>
              <LongitudeDegrees>-4.08381669782102108001708984375</LongitudeDegrees>
            </Position>
            <AltitudeMeters>1528.800048828125</AltitudeMeters>
            <DistanceMeters>NAN</DistanceMeters>
          </Trackpoint>
          <Trackpoint>
            <Time>2018-12-30T13:45:12.000Z</Time>
            <Position>
              <LatitudeDegrees>40.74839553795754909515380859375</LatitudeDegrees>
              <LongitudeDegrees>-4.08381686545908451080322265625</LongitudeDegrees>
            </Position>
            <AltitudeMeters>1528.5999755859375</AltitudeMeters>
            <DistanceMeters>NAN</DistanceMeters>
          </Trackpoint>
          <Trackpoint>
            <Time>2018-12-30T13:45:13.000Z</Time>
            <Position>
              <LatitudeDegrees>40.74839319102466106414794921875</LatitudeDegrees>
              <LongitudeDegrees>-4.08381812274456024169921875</LongitudeDegrees>
            </Position>
            <AltitudeMeters>1528.199951171875</AltitudeMeters>
            <DistanceMeters>NAN</DistanceMeters>
          </Trackpoint>
          <Trackpoint>
            <Time>2018-12-30T13:45:14.000Z</Time>
            <Position>
              <LatitudeDegrees>40.74839453212916851043701171875</LatitudeDegrees>
              <LongitudeDegrees>-4.08381954766809940338134765625</LongitudeDegrees>
            </Position>
            <AltitudeMeters>1528</AltitudeMeters>
            <DistanceMeters>NAN</DistanceMeters>
          </Trackpoint>
          <Trackpoint>
            <Time>2018-12-30T13:45:15.000Z</Time>
            <Position>
              <LatitudeDegrees>40.74839805252850055694580078125</LatitudeDegrees>
              <LongitudeDegrees>-4.08382323570549488067626953125</LongitudeDegrees>
            </Position>
            <AltitudeMeters>1527.800048828125</AltitudeMeters>
            <DistanceMeters>NAN</DistanceMeters>
          </Trackpoint>
          <Trackpoint>
            <Time>2018-12-30T13:45:16.000Z</Time>
            <Position>
              <LatitudeDegrees>40.748400986194610595703125</LatitudeDegrees>
              <LongitudeDegrees>-4.083826504647731781005859375</LongitudeDegrees>
            </Position>
            <AltitudeMeters>1527.5999755859375</AltitudeMeters>
            <DistanceMeters>NAN</DistanceMeters>
          </Trackpoint>
          <Trackpoint>
            <Time>2018-12-30T13:45:17.000Z</Time>
            <Position>
              <LatitudeDegrees>40.748399309813976287841796875</LatitudeDegrees>
              <LongitudeDegrees>-4.0838256664574146270751953125</LongitudeDegrees>
            </Position>
            <AltitudeMeters>1527.5999755859375</AltitudeMeters>
            <DistanceMeters>NAN</DistanceMeters>
          </Trackpoint>
          <Trackpoint>
            <Time>2018-12-30T13:45:18.000Z</Time>
            <Position>
              <LatitudeDegrees>40.74839293956756591796875</LatitudeDegrees>
              <LongitudeDegrees>-4.083825834095478057861328125</LongitudeDegrees>
            </Position>
            <AltitudeMeters>1527.5999755859375</AltitudeMeters>
            <DistanceMeters>NAN</DistanceMeters>
          </Trackpoint>
          <Trackpoint>
            <Time>2018-12-30T13:45:19.000Z</Time>
            <Position>
              <LatitudeDegrees>40.74838765896856784820556640625</LatitudeDegrees>
              <LongitudeDegrees>-4.08382910303771495819091796875</LongitudeDegrees>
            </Position>
            <AltitudeMeters>1527.4000244140625</AltitudeMeters>
            <DistanceMeters>NAN</DistanceMeters>
          </Trackpoint>
          <Trackpoint>
            <Time>2018-12-30T13:45:20.000Z</Time>
            <Position>
              <LatitudeDegrees>40.7483907602727413177490234375</LatitudeDegrees>
              <LongitudeDegrees>-4.08382809720933437347412109375</LongitudeDegrees>
            </Position>
            <AltitudeMeters>1527.4000244140625</AltitudeMeters>
            <DistanceMeters>NAN</DistanceMeters>
          </Trackpoint>
          <Trackpoint>
            <Time>2018-12-30T13:45:21.000Z</Time>
            <Position>
              <LatitudeDegrees>40.74838598258793354034423828125</LatitudeDegrees>
              <LongitudeDegrees>-4.0838266722857952117919921875</LongitudeDegrees>
            </Position>
            <AltitudeMeters>1527.199951171875</AltitudeMeters>
            <DistanceMeters>NAN</DistanceMeters>
          </Trackpoint>
          <Trackpoint>
            <Time>2018-12-30T13:45:22.000Z</Time>
            <Position>
              <LatitudeDegrees>40.74839168228209018707275390625</LatitudeDegrees>
              <LongitudeDegrees>-4.0838300250470638275146484375</LongitudeDegrees>
            </Position>
            <AltitudeMeters>1527</AltitudeMeters>
            <DistanceMeters>NAN</DistanceMeters>
          </Trackpoint>
          <Trackpoint>
            <Time>2018-12-30T13:45:23.000Z</Time>
            <Position>
              <LatitudeDegrees>40.74840090237557888031005859375</LatitudeDegrees>
              <LongitudeDegrees>-4.08383396454155445098876953125</LongitudeDegrees>
            </Position>
            <AltitudeMeters>1527</AltitudeMeters>
            <DistanceMeters>NAN</DistanceMeters>
          </Trackpoint>
          <Trackpoint>
            <Time>2018-12-30T13:45:24.000Z</Time>
            <Position>
              <LatitudeDegrees>40.74840140528976917266845703125</LatitudeDegrees>
              <LongitudeDegrees>-4.08383530564606189727783203125</LongitudeDegrees>
            </Position>
            <AltitudeMeters>1526.800048828125</AltitudeMeters>
            <DistanceMeters>NAN</DistanceMeters>
          </Trackpoint>
          <Trackpoint>
            <Time>2018-12-30T13:45:25.000Z</Time>
            <Position>
              <LatitudeDegrees>40.74839805252850055694580078125</LatitudeDegrees>
              <LongitudeDegrees>-4.083838574588298797607421875</LongitudeDegrees>
            </Position>
            <AltitudeMeters>1526.800048828125</AltitudeMeters>
            <DistanceMeters>NAN</DistanceMeters>
          </Trackpoint>
          <Trackpoint>
            <Time>2018-12-30T13:45:26.000Z</Time>
            <Position>
              <LatitudeDegrees>40.7483808696269989013671875</LatitudeDegrees>
              <LongitudeDegrees>-4.0838387422263622283935546875</LongitudeDegrees>
            </Position>
            <AltitudeMeters>1526.5999755859375</AltitudeMeters>
            <DistanceMeters>NAN</DistanceMeters>
          </Trackpoint>
          <Trackpoint>
            <Time>2018-12-30T13:45:27.000Z</Time>
            <Position>
              <LatitudeDegrees>40.7483699731528759002685546875</LatitudeDegrees>
              <LongitudeDegrees>-4.08383111469447612762451171875</LongitudeDegrees>
            </Position>
            <AltitudeMeters>1526.5999755859375</AltitudeMeters>
            <DistanceMeters>NAN</DistanceMeters>
          </Trackpoint>
          <Trackpoint>
            <Time>2018-12-30T13:45:28.000Z</Time>
            <Position>
              <LatitudeDegrees>40.74836737476289272308349609375</LatitudeDegrees>
              <LongitudeDegrees>-4.08381418325006961822509765625</LongitudeDegrees>
            </Position>
            <AltitudeMeters>1526.4000244140625</AltitudeMeters>
            <DistanceMeters>NAN</DistanceMeters>
          </Trackpoint>
          <Trackpoint>
            <Time>2018-12-30T13:45:29.000Z</Time>
            <Position>
              <LatitudeDegrees>40.748364441096782684326171875</LatitudeDegrees>
              <LongitudeDegrees>-4.083805046975612640380859375</LongitudeDegrees>
            </Position>
            <AltitudeMeters>1526.4000244140625</AltitudeMeters>
            <DistanceMeters>NAN</DistanceMeters>
          </Trackpoint>
          <Trackpoint>
            <Time>2018-12-30T13:45:30.000Z</Time>
            <Position>
              <LatitudeDegrees>40.74836351908743381500244140625</LatitudeDegrees>
              <LongitudeDegrees>-4.08379456959664821624755859375</LongitudeDegrees>
            </Position>
            <AltitudeMeters>1526.199951171875</AltitudeMeters>
            <DistanceMeters>NAN</DistanceMeters>
          </Trackpoint>
          <Trackpoint>
            <Time>2018-12-30T13:45:31.000Z</Time>
            <Position>
              <LatitudeDegrees>40.7483625970780849456787109375</LatitudeDegrees>
              <LongitudeDegrees>-4.08378467895090579986572265625</LongitudeDegrees>
            </Position>
            <AltitudeMeters>1526</AltitudeMeters>
            <DistanceMeters>NAN</DistanceMeters>
          </Trackpoint>
          <Trackpoint>
            <Time>2018-12-30T13:45:32.000Z</Time>
            <Position>
              <LatitudeDegrees>40.74836142361164093017578125</LatitudeDegrees>
              <LongitudeDegrees>-4.0837718546390533447265625</LongitudeDegrees>
            </Position>
            <AltitudeMeters>1525.800048828125</AltitudeMeters>
            <DistanceMeters>NAN</DistanceMeters>
          </Trackpoint>
          <Trackpoint>
            <Time>2018-12-30T13:45:33.000Z</Time>
            <Position>
              <LatitudeDegrees>40.74835865758359432220458984375</LatitudeDegrees>
              <LongitudeDegrees>-4.08376355655491352081298828125</LongitudeDegrees>
            </Position>
            <AltitudeMeters>1525.800048828125</AltitudeMeters>
            <DistanceMeters>NAN</DistanceMeters>
          </Trackpoint>
          <Trackpoint>
            <Time>2018-12-30T13:45:34.000Z</Time>
            <Position>
              <LatitudeDegrees>40.74836008250713348388671875</LatitudeDegrees>
              <LongitudeDegrees>-4.08375634811818599700927734375</LongitudeDegrees>
            </Position>
            <AltitudeMeters>1525.5999755859375</AltitudeMeters>
            <DistanceMeters>NAN</DistanceMeters>
          </Trackpoint>
          <Trackpoint>
            <Time>2018-12-30T13:45:35.000Z</Time>
            <Position>
              <LatitudeDegrees>40.74836268089711666107177734375</LatitudeDegrees>
              <LongitudeDegrees>-4.08375031314790248870849609375</LongitudeDegrees>
            </Position>
            <AltitudeMeters>1525.4000244140625</AltitudeMeters>
            <DistanceMeters>NAN</DistanceMeters>
          </Trackpoint>
          <Trackpoint>
            <Time>2018-12-30T13:45:36.000Z</Time>
            <Position>
              <LatitudeDegrees>40.7483535446226596832275390625</LatitudeDegrees>
              <LongitudeDegrees>-4.0837423503398895263671875</LongitudeDegrees>
            </Position>
            <AltitudeMeters>1525.4000244140625</AltitudeMeters>
            <DistanceMeters>NAN</DistanceMeters>
          </Trackpoint>
          <Trackpoint>
            <Time>2018-12-30T13:45:37.000Z</Time>
            <Position>
              <LatitudeDegrees>40.74835346080362796783447265625</LatitudeDegrees>
              <LongitudeDegrees>-4.0837415121495723724365234375</LongitudeDegrees>
            </Position>
            <AltitudeMeters>1525.4000244140625</AltitudeMeters>
            <DistanceMeters>NAN</DistanceMeters>
          </Trackpoint>
          <Trackpoint>
            <Time>2018-12-30T13:45:38.000Z</Time>
            <Position>
              <LatitudeDegrees>40.74835765175521373748779296875</LatitudeDegrees>
              <LongitudeDegrees>-4.08374033868312835693359375</LongitudeDegrees>
            </Position>
            <AltitudeMeters>1525.199951171875</AltitudeMeters>
            <DistanceMeters>NAN</DistanceMeters>
          </Trackpoint>
          <Trackpoint>
            <Time>2018-12-30T13:45:39.000Z</Time>
            <Position>
              <LatitudeDegrees>40.74835748411715030670166015625</LatitudeDegrees>
              <LongitudeDegrees>-4.0837381593883037567138671875</LongitudeDegrees>
            </Position>
            <AltitudeMeters>1525</AltitudeMeters>
            <DistanceMeters>NAN</DistanceMeters>
          </Trackpoint>
          <Trackpoint>
            <Time>2018-12-30T13:45:40.000Z</Time>
            <Position>
              <LatitudeDegrees>40.748354382812976837158203125</LatitudeDegrees>
              <LongitudeDegrees>-4.08373774029314517974853515625</LongitudeDegrees>
            </Position>
            <AltitudeMeters>1524.5999755859375</AltitudeMeters>
            <DistanceMeters>NAN</DistanceMeters>
          </Trackpoint>
          <Trackpoint>
            <Time>2018-12-30T13:45:41.000Z</Time>
            <Position>
              <LatitudeDegrees>40.748340971767902374267578125</LatitudeDegrees>
              <LongitudeDegrees>-4.08373522572219371795654296875</LongitudeDegrees>
            </Position>
            <AltitudeMeters>1524.199951171875</AltitudeMeters>
            <DistanceMeters>NAN</DistanceMeters>
          </Trackpoint>
          <Trackpoint>
            <Time>2018-12-30T13:45:42.000Z</Time>
            <Position>
              <LatitudeDegrees>40.74834072031080722808837890625</LatitudeDegrees>
              <LongitudeDegrees>-4.08372617326676845550537109375</LongitudeDegrees>
            </Position>
            <AltitudeMeters>1523.800048828125</AltitudeMeters>
            <DistanceMeters>NAN</DistanceMeters>
          </Trackpoint>
          <Trackpoint>
            <Time>2018-12-30T13:45:43.000Z</Time>
            <Position>
              <LatitudeDegrees>40.74833988212049007415771484375</LatitudeDegrees>
              <LongitudeDegrees>-4.08371376805007457733154296875</LongitudeDegrees>
            </Position>
            <AltitudeMeters>1523.5999755859375</AltitudeMeters>
            <DistanceMeters>NAN</DistanceMeters>
          </Trackpoint>
          <Trackpoint>
            <Time>2018-12-30T13:45:44.000Z</Time>
            <Position>
              <LatitudeDegrees>40.7483411394059658050537109375</LatitudeDegrees>
              <LongitudeDegrees>-4.08370102755725383758544921875</LongitudeDegrees>
            </Position>
            <AltitudeMeters>1523.4000244140625</AltitudeMeters>
            <DistanceMeters>NAN</DistanceMeters>
          </Trackpoint>
          <Trackpoint>
            <Time>2018-12-30T13:45:45.000Z</Time>
            <Position>
              <LatitudeDegrees>40.74834105558693408966064453125</LatitudeDegrees>
              <LongitudeDegrees>-4.083683677017688751220703125</LongitudeDegrees>
            </Position>
            <AltitudeMeters>1523.199951171875</AltitudeMeters>
            <DistanceMeters>NAN</DistanceMeters>
          </Trackpoint>
          <Trackpoint>
            <Time>2018-12-30T13:45:46.000Z</Time>
            <Position>
              <LatitudeDegrees>40.748350359499454498291015625</LatitudeDegrees>
              <LongitudeDegrees>-4.0836645662784576416015625</LongitudeDegrees>
            </Position>
            <AltitudeMeters>1523.199951171875</AltitudeMeters>
            <DistanceMeters>NAN</DistanceMeters>
          </Trackpoint>
          <Trackpoint>
            <Time>2018-12-30T13:45:47.000Z</Time>
            <Position>
              <LatitudeDegrees>40.74835480190813541412353515625</LatitudeDegrees>
              <LongitudeDegrees>-4.0836456231772899627685546875</LongitudeDegrees>
            </Position>
            <AltitudeMeters>1523</AltitudeMeters>
            <DistanceMeters>NAN</DistanceMeters>
          </Trackpoint>
          <Trackpoint>
            <Time>2018-12-30T13:45:48.000Z</Time>
            <Position>
              <LatitudeDegrees>40.74835882522165775299072265625</LatitudeDegrees>
              <LongitudeDegrees>-4.08363036811351776123046875</LongitudeDegrees>
            </Position>
            <AltitudeMeters>1523</AltitudeMeters>
            <DistanceMeters>NAN</DistanceMeters>
          </Trackpoint>
          <Trackpoint>
            <Time>2018-12-30T13:45:49.000Z</Time>
            <Position>
              <LatitudeDegrees>40.74835631065070629119873046875</LatitudeDegrees>
              <LongitudeDegrees>-4.0836027078330516815185546875</LongitudeDegrees>
            </Position>
            <AltitudeMeters>1523</AltitudeMeters>
            <DistanceMeters>NAN</DistanceMeters>
          </Trackpoint>
          <Trackpoint>
            <Time>2018-12-30T13:45:50.000Z</Time>
            <Position>
              <LatitudeDegrees>40.74835865758359432220458984375</LatitudeDegrees>
              <LongitudeDegrees>-4.0835782326757907867431640625</LongitudeDegrees>
            </Position>
            <AltitudeMeters>1523</AltitudeMeters>
            <DistanceMeters>NAN</DistanceMeters>
          </Trackpoint>
          <Trackpoint>
            <Time>2018-12-30T13:45:51.000Z</Time>
            <Position>
              <LatitudeDegrees>40.74835614301264286041259765625</LatitudeDegrees>
              <LongitudeDegrees>-4.08357546664774417877197265625</LongitudeDegrees>
            </Position>
            <AltitudeMeters>1523</AltitudeMeters>
            <DistanceMeters>NAN</DistanceMeters>
          </Trackpoint>
          <Trackpoint>
            <Time>2018-12-30T13:45:52.000Z</Time>
            <Position>
              <LatitudeDegrees>40.7483478449285030364990234375</LatitudeDegrees>
              <LongitudeDegrees>-4.08357580192387104034423828125</LongitudeDegrees>
            </Position>
            <AltitudeMeters>1522.800048828125</AltitudeMeters>
            <DistanceMeters>NAN</DistanceMeters>
          </Trackpoint>
          <Trackpoint>
            <Time>2018-12-30T13:45:53.000Z</Time>
            <Position>
              <LatitudeDegrees>40.7483431510627269744873046875</LatitudeDegrees>
              <LongitudeDegrees>-4.083573706448078155517578125</LongitudeDegrees>
            </Position>
            <AltitudeMeters>1522.5999755859375</AltitudeMeters>
            <DistanceMeters>NAN</DistanceMeters>
          </Trackpoint>
          <Trackpoint>
            <Time>2018-12-30T13:45:54.000Z</Time>
            <Position>
              <LatitudeDegrees>40.74834021739661693572998046875</LatitudeDegrees>
              <LongitudeDegrees>-4.0835758857429027557373046875</LongitudeDegrees>
            </Position>
            <AltitudeMeters>1522.4000244140625</AltitudeMeters>
            <DistanceMeters>NAN</DistanceMeters>
          </Trackpoint>
          <Trackpoint>
            <Time>2018-12-30T13:45:55.000Z</Time>
            <Position>
              <LatitudeDegrees>40.7483377866446971893310546875</LatitudeDegrees>
              <LongitudeDegrees>-4.08357647247612476348876953125</LongitudeDegrees>
            </Position>
            <AltitudeMeters>1522.199951171875</AltitudeMeters>
            <DistanceMeters>NAN</DistanceMeters>
          </Trackpoint>
          <Trackpoint>
            <Time>2018-12-30T13:45:56.000Z</Time>
            <Position>
              <LatitudeDegrees>40.74833451770246028900146484375</LatitudeDegrees>
              <LongitudeDegrees>-4.0835772268474102020263671875</LongitudeDegrees>
            </Position>
            <AltitudeMeters>1522</AltitudeMeters>
            <DistanceMeters>NAN</DistanceMeters>
          </Trackpoint>
          <Trackpoint>
            <Time>2018-12-30T13:45:57.000Z</Time>
            <Position>
              <LatitudeDegrees>40.74833535589277744293212890625</LatitudeDegrees>
              <LongitudeDegrees>-4.0835785679519176483154296875</LongitudeDegrees>
            </Position>
            <AltitudeMeters>1521.800048828125</AltitudeMeters>
            <DistanceMeters>NAN</DistanceMeters>
          </Trackpoint>
          <Trackpoint>
            <Time>2018-12-30T13:45:58.000Z</Time>
            <Position>
              <LatitudeDegrees>40.74833736754953861236572265625</LatitudeDegrees>
              <LongitudeDegrees>-4.08357731066644191741943359375</LongitudeDegrees>
            </Position>
            <AltitudeMeters>1521.5999755859375</AltitudeMeters>
            <DistanceMeters>NAN</DistanceMeters>
          </Trackpoint>
          <Trackpoint>
            <Time>2018-12-30T13:45:59.000Z</Time>
            <Position>
              <LatitudeDegrees>40.74832630343735218048095703125</LatitudeDegrees>
              <LongitudeDegrees>-4.0835789032280445098876953125</LongitudeDegrees>
            </Position>
            <AltitudeMeters>1521.4000244140625</AltitudeMeters>
            <DistanceMeters>NAN</DistanceMeters>
          </Trackpoint>
          <Trackpoint>
            <Time>2018-12-30T13:46:00.000Z</Time>
            <Position>
              <LatitudeDegrees>40.7483186759054660797119140625</LatitudeDegrees>
              <LongitudeDegrees>-4.083580076694488525390625</LongitudeDegrees>
            </Position>
            <AltitudeMeters>1521</AltitudeMeters>
            <DistanceMeters>NAN</DistanceMeters>
          </Trackpoint>
          <Trackpoint>
            <Time>2018-12-30T13:46:01.000Z</Time>
            <Position>
              <LatitudeDegrees>40.74830685742199420928955078125</LatitudeDegrees>
              <LongitudeDegrees>-4.08358837477862834930419921875</LongitudeDegrees>
            </Position>
            <AltitudeMeters>1520.800048828125</AltitudeMeters>
            <DistanceMeters>NAN</DistanceMeters>
          </Trackpoint>
          <Trackpoint>
            <Time>2018-12-30T13:46:02.000Z</Time>
            <Position>
              <LatitudeDegrees>40.7483059354126453399658203125</LatitudeDegrees>
              <LongitudeDegrees>-4.0836037136614322662353515625</LongitudeDegrees>
            </Position>
            <AltitudeMeters>1520.5999755859375</AltitudeMeters>
            <DistanceMeters>NAN</DistanceMeters>
          </Trackpoint>
          <Trackpoint>
            <Time>2018-12-30T13:46:03.000Z</Time>
            <Position>
              <LatitudeDegrees>40.74829612858593463897705078125</LatitudeDegrees>
              <LongitudeDegrees>-4.0836204774677753448486328125</LongitudeDegrees>
            </Position>
            <AltitudeMeters>1520.199951171875</AltitudeMeters>
            <DistanceMeters>NAN</DistanceMeters>
          </Trackpoint>
          <Trackpoint>
            <Time>2018-12-30T13:46:04.000Z</Time>
            <Position>
              <LatitudeDegrees>40.74829143472015857696533203125</LatitudeDegrees>
              <LongitudeDegrees>-4.08363036811351776123046875</LongitudeDegrees>
            </Position>
            <AltitudeMeters>1520</AltitudeMeters>
            <DistanceMeters>NAN</DistanceMeters>
          </Trackpoint>
          <Trackpoint>
            <Time>2018-12-30T13:46:05.000Z</Time>
            <Position>
              <LatitudeDegrees>40.7482871599495410919189453125</LatitudeDegrees>
              <LongitudeDegrees>-4.08363782800734043121337890625</LongitudeDegrees>
            </Position>
            <AltitudeMeters>1519.800048828125</AltitudeMeters>
            <DistanceMeters>NAN</DistanceMeters>
          </Trackpoint>
          <Trackpoint>
            <Time>2018-12-30T13:46:06.000Z</Time>
            <Position>
              <LatitudeDegrees>40.74828271754086017608642578125</LatitudeDegrees>
              <LongitudeDegrees>-4.0836422704160213470458984375</LongitudeDegrees>
            </Position>
            <AltitudeMeters>1519.800048828125</AltitudeMeters>
            <DistanceMeters>NAN</DistanceMeters>
          </Trackpoint>
          <Trackpoint>
            <Time>2018-12-30T13:46:07.000Z</Time>
            <Position>
              <LatitudeDegrees>40.7482881657779216766357421875</LatitudeDegrees>
              <LongitudeDegrees>-4.08364520408213138580322265625</LongitudeDegrees>
            </Position>
            <AltitudeMeters>1519.5999755859375</AltitudeMeters>
            <DistanceMeters>NAN</DistanceMeters>
          </Trackpoint>
          <Trackpoint>
            <Time>2018-12-30T13:46:08.000Z</Time>
            <Position>
              <LatitudeDegrees>40.74828707613050937652587890625</LatitudeDegrees>
              <LongitudeDegrees>-4.08365258015692234039306640625</LongitudeDegrees>
            </Position>
            <AltitudeMeters>1519.5999755859375</AltitudeMeters>
            <DistanceMeters>NAN</DistanceMeters>
          </Trackpoint>
          <Trackpoint>
            <Time>2018-12-30T13:46:09.000Z</Time>
            <Position>
              <LatitudeDegrees>40.74828137643635272979736328125</LatitudeDegrees>
              <LongitudeDegrees>-4.0836590342223644256591796875</LongitudeDegrees>
            </Position>
            <AltitudeMeters>1519.5999755859375</AltitudeMeters>
            <DistanceMeters>NAN</DistanceMeters>
          </Trackpoint>
          <Trackpoint>
            <Time>2018-12-30T13:46:10.000Z</Time>
            <Position>
              <LatitudeDegrees>40.748277604579925537109375</LatitudeDegrees>
              <LongitudeDegrees>-4.08366682939231395721435546875</LongitudeDegrees>
            </Position>
            <AltitudeMeters>1519.4000244140625</AltitudeMeters>
            <DistanceMeters>NAN</DistanceMeters>
          </Trackpoint>
          <Trackpoint>
            <Time>2018-12-30T13:46:11.000Z</Time>
            <Position>
              <LatitudeDegrees>40.74828087352216243743896484375</LatitudeDegrees>
              <LongitudeDegrees>-4.08367286436259746551513671875</LongitudeDegrees>
            </Position>
            <AltitudeMeters>1519.199951171875</AltitudeMeters>
            <DistanceMeters>NAN</DistanceMeters>
          </Trackpoint>
          <Trackpoint>
            <Time>2018-12-30T13:46:12.000Z</Time>
            <Position>
              <LatitudeDegrees>40.74827265925705432891845703125</LatitudeDegrees>
              <LongitudeDegrees>-4.08367102034389972686767578125</LongitudeDegrees>
            </Position>
            <AltitudeMeters>1518.800048828125</AltitudeMeters>
            <DistanceMeters>NAN</DistanceMeters>
          </Trackpoint>
          <Trackpoint>
            <Time>2018-12-30T13:46:13.000Z</Time>
            <Position>
              <LatitudeDegrees>40.74825790710747241973876953125</LatitudeDegrees>
              <LongitudeDegrees>-4.0836711041629314422607421875</LongitudeDegrees>
            </Position>
            <AltitudeMeters>1518.5999755859375</AltitudeMeters>
            <DistanceMeters>NAN</DistanceMeters>
          </Trackpoint>
          <Trackpoint>
            <Time>2018-12-30T13:46:14.000Z</Time>
            <Position>
              <LatitudeDegrees>40.748254470527172088623046875</LatitudeDegrees>
              <LongitudeDegrees>-4.08367772586643695831298828125</LongitudeDegrees>
            </Position>
            <AltitudeMeters>1518.5999755859375</AltitudeMeters>
            <DistanceMeters>NAN</DistanceMeters>
          </Trackpoint>
          <Trackpoint>
            <Time>2018-12-30T13:46:15.000Z</Time>
            <Position>
              <LatitudeDegrees>40.7482440769672393798828125</LatitudeDegrees>
              <LongitudeDegrees>-4.08368241973221302032470703125</LongitudeDegrees>
            </Position>
            <AltitudeMeters>1518.4000244140625</AltitudeMeters>
            <DistanceMeters>NAN</DistanceMeters>
          </Trackpoint>
          <Trackpoint>
            <Time>2018-12-30T13:46:16.000Z</Time>
            <Position>
              <LatitudeDegrees>40.748234689235687255859375</LatitudeDegrees>
              <LongitudeDegrees>-4.083682000637054443359375</LongitudeDegrees>
            </Position>
            <AltitudeMeters>1518.199951171875</AltitudeMeters>
            <DistanceMeters>NAN</DistanceMeters>
          </Trackpoint>
          <Trackpoint>
            <Time>2018-12-30T13:46:17.000Z</Time>
            <Position>
              <LatitudeDegrees>40.7482311688363552093505859375</LatitudeDegrees>
              <LongitudeDegrees>-4.0836885385215282440185546875</LongitudeDegrees>
            </Position>
            <AltitudeMeters>1518</AltitudeMeters>
            <DistanceMeters>NAN</DistanceMeters>
          </Trackpoint>
          <Trackpoint>
            <Time>2018-12-30T13:46:18.000Z</Time>
            <Position>
              <LatitudeDegrees>40.7482167519629001617431640625</LatitudeDegrees>
              <LongitudeDegrees>-4.0837073139846324920654296875</LongitudeDegrees>
            </Position>
            <AltitudeMeters>1518</AltitudeMeters>
            <DistanceMeters>NAN</DistanceMeters>
          </Trackpoint>
          <Trackpoint>
            <Time>2018-12-30T13:46:19.000Z</Time>
            <Position>
              <LatitudeDegrees>40.74819051660597324371337890625</LatitudeDegrees>
              <LongitudeDegrees>-4.0837230719625949859619140625</LongitudeDegrees>
            </Position>
            <AltitudeMeters>1518</AltitudeMeters>
            <DistanceMeters>NAN</DistanceMeters>
          </Trackpoint>
          <Trackpoint>
            <Time>2018-12-30T13:46:20.000Z</Time>
            <Position>
              <LatitudeDegrees>40.74817894957959651947021484375</LatitudeDegrees>
              <LongitudeDegrees>-4.0837150253355503082275390625</LongitudeDegrees>
            </Position>
            <AltitudeMeters>1518.199951171875</AltitudeMeters>
            <DistanceMeters>NAN</DistanceMeters>
          </Trackpoint>
          <Trackpoint>
            <Time>2018-12-30T13:46:21.000Z</Time>
            <Position>
              <LatitudeDegrees>40.748171992599964141845703125</LatitudeDegrees>
              <LongitudeDegrees>-4.08371427096426486968994140625</LongitudeDegrees>
            </Position>
            <AltitudeMeters>1518.199951171875</AltitudeMeters>
            <DistanceMeters>NAN</DistanceMeters>
          </Trackpoint>
          <Trackpoint>
            <Time>2018-12-30T13:46:22.000Z</Time>
            <Position>
              <LatitudeDegrees>40.7481647841632366180419921875</LatitudeDegrees>
              <LongitudeDegrees>-4.0837069787085056304931640625</LongitudeDegrees>
            </Position>
            <AltitudeMeters>1518.4000244140625</AltitudeMeters>
            <DistanceMeters>NAN</DistanceMeters>
          </Trackpoint>
          <Trackpoint>
            <Time>2018-12-30T13:46:23.000Z</Time>
            <Position>
              <LatitudeDegrees>40.7481475174427032470703125</LatitudeDegrees>
              <LongitudeDegrees>-4.0837059728801250457763671875</LongitudeDegrees>
            </Position>
            <AltitudeMeters>1518.5999755859375</AltitudeMeters>
            <DistanceMeters>NAN</DistanceMeters>
          </Trackpoint>
          <Trackpoint>
            <Time>2018-12-30T13:46:24.000Z</Time>
            <Position>
              <LatitudeDegrees>40.7481319271028041839599609375</LatitudeDegrees>
              <LongitudeDegrees>-4.0837063081562519073486328125</LongitudeDegrees>
            </Position>
            <AltitudeMeters>1518.5999755859375</AltitudeMeters>
            <DistanceMeters>NAN</DistanceMeters>
          </Trackpoint>
          <Trackpoint>
            <Time>2018-12-30T13:46:25.000Z</Time>
            <Position>
              <LatitudeDegrees>40.74811927042901515960693359375</LatitudeDegrees>
              <LongitudeDegrees>-4.083703123033046722412109375</LongitudeDegrees>
            </Position>
            <AltitudeMeters>1518.5999755859375</AltitudeMeters>
            <DistanceMeters>NAN</DistanceMeters>
          </Trackpoint>
          <Trackpoint>
            <Time>2018-12-30T13:46:26.000Z</Time>
            <Position>
              <LatitudeDegrees>40.748109631240367889404296875</LatitudeDegrees>
              <LongitudeDegrees>-4.08370253629982471466064453125</LongitudeDegrees>
            </Position>
            <AltitudeMeters>1518.5999755859375</AltitudeMeters>
            <DistanceMeters>NAN</DistanceMeters>
          </Trackpoint>
          <Trackpoint>
            <Time>2018-12-30T13:46:27.000Z</Time>
            <Position>
              <LatitudeDegrees>40.7480997405946254730224609375</LatitudeDegrees>
              <LongitudeDegrees>-4.08370546996593475341796875</LongitudeDegrees>
            </Position>
            <AltitudeMeters>1518.4000244140625</AltitudeMeters>
            <DistanceMeters>NAN</DistanceMeters>
          </Trackpoint>
          <Trackpoint>
            <Time>2018-12-30T13:46:28.000Z</Time>
            <Position>
              <LatitudeDegrees>40.74809144251048564910888671875</LatitudeDegrees>
              <LongitudeDegrees>-4.08370907418429851531982421875</LongitudeDegrees>
            </Position>
            <AltitudeMeters>1518.4000244140625</AltitudeMeters>
            <DistanceMeters>NAN</DistanceMeters>
          </Trackpoint>
          <Trackpoint>
            <Time>2018-12-30T13:46:29.000Z</Time>
            <Position>
              <LatitudeDegrees>40.74808289296925067901611328125</LatitudeDegrees>
              <LongitudeDegrees>-4.083710499107837677001953125</LongitudeDegrees>
            </Position>
            <AltitudeMeters>1518.199951171875</AltitudeMeters>
            <DistanceMeters>NAN</DistanceMeters>
          </Trackpoint>
          <Trackpoint>
            <Time>2018-12-30T13:46:30.000Z</Time>
            <Position>
              <LatitudeDegrees>40.74806998483836650848388671875</LatitudeDegrees>
              <LongitudeDegrees>-4.0837187133729457855224609375</LongitudeDegrees>
            </Position>
            <AltitudeMeters>1518</AltitudeMeters>
            <DistanceMeters>NAN</DistanceMeters>
          </Trackpoint>
          <Trackpoint>
            <Time>2018-12-30T13:46:31.000Z</Time>
            <Position>
              <LatitudeDegrees>40.74805825017392635345458984375</LatitudeDegrees>
              <LongitudeDegrees>-4.08372290432453155517578125</LongitudeDegrees>
            </Position>
            <AltitudeMeters>1517.800048828125</AltitudeMeters>
            <DistanceMeters>NAN</DistanceMeters>
          </Trackpoint>
          <Trackpoint>
            <Time>2018-12-30T13:46:32.000Z</Time>
            <Position>
              <LatitudeDegrees>40.74804601259529590606689453125</LatitudeDegrees>
              <LongitudeDegrees>-4.08372650854289531707763671875</LongitudeDegrees>
            </Position>
            <AltitudeMeters>1517.4000244140625</AltitudeMeters>
            <DistanceMeters>NAN</DistanceMeters>
          </Trackpoint>
          <Trackpoint>
            <Time>2018-12-30T13:46:33.000Z</Time>
            <Position>
              <LatitudeDegrees>40.74803763069212436676025390625</LatitudeDegrees>
              <LongitudeDegrees>-4.08372885547578334808349609375</LongitudeDegrees>
            </Position>
            <AltitudeMeters>1517.199951171875</AltitudeMeters>
            <DistanceMeters>NAN</DistanceMeters>
          </Trackpoint>
          <Trackpoint>
            <Time>2018-12-30T13:46:34.000Z</Time>
            <Position>
              <LatitudeDegrees>40.74803142808377742767333984375</LatitudeDegrees>
              <LongitudeDegrees>-4.0837316215038299560546875</LongitudeDegrees>
            </Position>
            <AltitudeMeters>1517</AltitudeMeters>
            <DistanceMeters>NAN</DistanceMeters>
          </Trackpoint>
          <Trackpoint>
            <Time>2018-12-30T13:46:35.000Z</Time>
            <Position>
              <LatitudeDegrees>40.748020112514495849609375</LatitudeDegrees>
              <LongitudeDegrees>-4.08374436199665069580078125</LongitudeDegrees>
            </Position>
            <AltitudeMeters>1516.800048828125</AltitudeMeters>
            <DistanceMeters>NAN</DistanceMeters>
          </Trackpoint>
          <Trackpoint>
            <Time>2018-12-30T13:46:36.000Z</Time>
            <Position>
              <LatitudeDegrees>40.7480162568390369415283203125</LatitudeDegrees>
              <LongitudeDegrees>-4.08374645747244358062744140625</LongitudeDegrees>
            </Position>
            <AltitudeMeters>1516.800048828125</AltitudeMeters>
            <DistanceMeters>NAN</DistanceMeters>
          </Trackpoint>
          <Trackpoint>
            <Time>2018-12-30T13:46:37.000Z</Time>
            <Position>
              <LatitudeDegrees>40.74801349081099033355712890625</LatitudeDegrees>
              <LongitudeDegrees>-4.08374142833054065704345703125</LongitudeDegrees>
            </Position>
            <AltitudeMeters>1516.5999755859375</AltitudeMeters>
            <DistanceMeters>NAN</DistanceMeters>
          </Trackpoint>
          <Trackpoint>
            <Time>2018-12-30T13:46:38.000Z</Time>
            <Position>
              <LatitudeDegrees>40.74800946749746799468994140625</LatitudeDegrees>
              <LongitudeDegrees>-4.0837343037128448486328125</LongitudeDegrees>
            </Position>
            <AltitudeMeters>1516.199951171875</AltitudeMeters>
            <DistanceMeters>NAN</DistanceMeters>
          </Trackpoint>
          <Trackpoint>
            <Time>2018-12-30T13:46:39.000Z</Time>
            <Position>
              <LatitudeDegrees>40.74800259433686733245849609375</LatitudeDegrees>
              <LongitudeDegrees>-4.08373137004673480987548828125</LongitudeDegrees>
            </Position>
            <AltitudeMeters>1516</AltitudeMeters>
            <DistanceMeters>NAN</DistanceMeters>
          </Trackpoint>
          <Trackpoint>
            <Time>2018-12-30T13:46:40.000Z</Time>
            <Position>
              <LatitudeDegrees>40.74799320660531520843505859375</LatitudeDegrees>
              <LongitudeDegrees>-4.08371661789715290069580078125</LongitudeDegrees>
            </Position>
            <AltitudeMeters>1516</AltitudeMeters>
            <DistanceMeters>NAN</DistanceMeters>
          </Trackpoint>
          <Trackpoint>
            <Time>2018-12-30T13:46:41.000Z</Time>
            <Position>
              <LatitudeDegrees>40.74799396097660064697265625</LatitudeDegrees>
              <LongitudeDegrees>-4.08369784243404865264892578125</LongitudeDegrees>
            </Position>
            <AltitudeMeters>1515.800048828125</AltitudeMeters>
            <DistanceMeters>NAN</DistanceMeters>
          </Trackpoint>
          <Trackpoint>
            <Time>2018-12-30T13:46:42.000Z</Time>
            <Position>
              <LatitudeDegrees>40.74799572117626667022705078125</LatitudeDegrees>
              <LongitudeDegrees>-4.083683677017688751220703125</LongitudeDegrees>
            </Position>
            <AltitudeMeters>1515.4000244140625</AltitudeMeters>
            <DistanceMeters>NAN</DistanceMeters>
          </Trackpoint>
          <Trackpoint>
            <Time>2018-12-30T13:46:43.000Z</Time>
            <Position>
              <LatitudeDegrees>40.7479894347488880157470703125</LatitudeDegrees>
              <LongitudeDegrees>-4.08366045914590358734130859375</LongitudeDegrees>
            </Position>
            <AltitudeMeters>1515.199951171875</AltitudeMeters>
            <DistanceMeters>NAN</DistanceMeters>
          </Trackpoint>
          <Trackpoint>
            <Time>2018-12-30T13:46:44.000Z</Time>
            <Position>
              <LatitudeDegrees>40.74798499234020709991455078125</LatitudeDegrees>
              <LongitudeDegrees>-4.083638079464435577392578125</LongitudeDegrees>
            </Position>
            <AltitudeMeters>1515.199951171875</AltitudeMeters>
            <DistanceMeters>NAN</DistanceMeters>
          </Trackpoint>
          <Trackpoint>
            <Time>2018-12-30T13:46:45.000Z</Time>
            <Position>
              <LatitudeDegrees>40.7479870878159999847412109375</LatitudeDegrees>
              <LongitudeDegrees>-4.0836211480200290679931640625</LongitudeDegrees>
            </Position>
            <AltitudeMeters>1515</AltitudeMeters>
            <DistanceMeters>NAN</DistanceMeters>
          </Trackpoint>
          <Trackpoint>
            <Time>2018-12-30T13:46:46.000Z</Time>
            <Position>
              <LatitudeDegrees>40.7479864172637462615966796875</LatitudeDegrees>
              <LongitudeDegrees>-4.0836037136614322662353515625</LongitudeDegrees>
            </Position>
            <AltitudeMeters>1514.800048828125</AltitudeMeters>
            <DistanceMeters>NAN</DistanceMeters>
          </Trackpoint>
          <Trackpoint>
            <Time>2018-12-30T13:46:47.000Z</Time>
            <Position>
              <LatitudeDegrees>40.7479837350547313690185546875</LatitudeDegrees>
              <LongitudeDegrees>-4.08359147608280181884765625</LongitudeDegrees>
            </Position>
            <AltitudeMeters>1514.5999755859375</AltitudeMeters>
            <DistanceMeters>NAN</DistanceMeters>
          </Trackpoint>
          <Trackpoint>
            <Time>2018-12-30T13:46:48.000Z</Time>
            <Position>
              <LatitudeDegrees>40.74797560460865497589111328125</LatitudeDegrees>
              <LongitudeDegrees>-4.08357404172420501708984375</LongitudeDegrees>
            </Position>
            <AltitudeMeters>1514.4000244140625</AltitudeMeters>
            <DistanceMeters>NAN</DistanceMeters>
          </Trackpoint>
          <Trackpoint>
            <Time>2018-12-30T13:46:49.000Z</Time>
            <Position>
              <LatitudeDegrees>40.74796889908611774444580078125</LatitudeDegrees>
              <LongitudeDegrees>-4.08355987630784511566162109375</LongitudeDegrees>
            </Position>
            <AltitudeMeters>1514.199951171875</AltitudeMeters>
            <DistanceMeters>NAN</DistanceMeters>
          </Trackpoint>
          <Trackpoint>
            <Time>2018-12-30T13:46:50.000Z</Time>
            <Position>
              <LatitudeDegrees>40.7479606010019779205322265625</LatitudeDegrees>
              <LongitudeDegrees>-4.08355300314724445343017578125</LongitudeDegrees>
            </Position>
            <AltitudeMeters>1514</AltitudeMeters>
            <DistanceMeters>NAN</DistanceMeters>
          </Trackpoint>
          <Trackpoint>
            <Time>2018-12-30T13:46:51.000Z</Time>
            <Position>
              <LatitudeDegrees>40.7479673065245151519775390625</LatitudeDegrees>
              <LongitudeDegrees>-4.0835410170257091522216796875</LongitudeDegrees>
            </Position>
            <AltitudeMeters>1513.800048828125</AltitudeMeters>
            <DistanceMeters>NAN</DistanceMeters>
          </Trackpoint>
          <Trackpoint>
            <Time>2018-12-30T13:46:52.000Z</Time>
            <Position>
              <LatitudeDegrees>40.74797007255256175994873046875</LatitudeDegrees>
              <LongitudeDegrees>-4.08352852798998355865478515625</LongitudeDegrees>
            </Position>
            <AltitudeMeters>1513.4000244140625</AltitudeMeters>
            <DistanceMeters>NAN</DistanceMeters>
          </Trackpoint>
          <Trackpoint>
            <Time>2018-12-30T13:46:53.000Z</Time>
            <Position>
              <LatitudeDegrees>40.7479629479348659515380859375</LatitudeDegrees>
              <LongitudeDegrees>-4.08351612277328968048095703125</LongitudeDegrees>
            </Position>
            <AltitudeMeters>1513</AltitudeMeters>
            <DistanceMeters>NAN</DistanceMeters>
          </Trackpoint>
          <Trackpoint>
            <Time>2018-12-30T13:46:54.000Z</Time>
            <Position>
              <LatitudeDegrees>40.7479612715542316436767578125</LatitudeDegrees>
              <LongitudeDegrees>-4.08348955214023590087890625</LongitudeDegrees>
            </Position>
            <AltitudeMeters>1512.5999755859375</AltitudeMeters>
            <DistanceMeters>NAN</DistanceMeters>
          </Trackpoint>
          <Trackpoint>
            <Time>2018-12-30T13:46:55.000Z</Time>
            <Position>
              <LatitudeDegrees>40.7479538954794406890869140625</LatitudeDegrees>
              <LongitudeDegrees>-4.083481170237064361572265625</LongitudeDegrees>
            </Position>
            <AltitudeMeters>1511.800048828125</AltitudeMeters>
            <DistanceMeters>NAN</DistanceMeters>
          </Trackpoint>
          <Trackpoint>
            <Time>2018-12-30T13:46:56.000Z</Time>
            <Position>
              <LatitudeDegrees>40.747955739498138427734375</LatitudeDegrees>
              <LongitudeDegrees>-4.0834719501435756683349609375</LongitudeDegrees>
            </Position>
            <AltitudeMeters>1511.4000244140625</AltitudeMeters>
            <DistanceMeters>NAN</DistanceMeters>
          </Trackpoint>
          <Trackpoint>
            <Time>2018-12-30T13:46:57.000Z</Time>
            <Position>
              <LatitudeDegrees>40.7479639537632465362548828125</LatitudeDegrees>
              <LongitudeDegrees>-4.08345024101436138153076171875</LongitudeDegrees>
            </Position>
            <AltitudeMeters>1511</AltitudeMeters>
            <DistanceMeters>NAN</DistanceMeters>
          </Trackpoint>
          <Trackpoint>
            <Time>2018-12-30T13:46:58.000Z</Time>
            <Position>
              <LatitudeDegrees>40.74797443114221096038818359375</LatitudeDegrees>
              <LongitudeDegrees>-4.08344437368214130401611328125</LongitudeDegrees>
            </Position>
            <AltitudeMeters>1510.800048828125</AltitudeMeters>
            <DistanceMeters>NAN</DistanceMeters>
          </Trackpoint>
          <Trackpoint>
            <Time>2018-12-30T13:46:59.000Z</Time>
            <Position>
              <LatitudeDegrees>40.7479839026927947998046875</LatitudeDegrees>
              <LongitudeDegrees>-4.08342995680868625640869140625</LongitudeDegrees>
            </Position>
            <AltitudeMeters>1510.5999755859375</AltitudeMeters>
            <DistanceMeters>NAN</DistanceMeters>
          </Trackpoint>
          <Trackpoint>
            <Time>2018-12-30T13:47:00.000Z</Time>
            <Position>
              <LatitudeDegrees>40.747994296252727508544921875</LatitudeDegrees>
              <LongitudeDegrees>-4.08340497873723506927490234375</LongitudeDegrees>
            </Position>
            <AltitudeMeters>1510.5999755859375</AltitudeMeters>
            <DistanceMeters>NAN</DistanceMeters>
          </Trackpoint>
          <Trackpoint>
            <Time>2018-12-30T13:47:01.000Z</Time>
            <Position>
              <LatitudeDegrees>40.7479971460998058319091796875</LatitudeDegrees>
              <LongitudeDegrees>-4.0833787433803081512451171875</LongitudeDegrees>
            </Position>
            <AltitudeMeters>1510.5999755859375</AltitudeMeters>
            <DistanceMeters>NAN</DistanceMeters>
          </Trackpoint>
          <Trackpoint>
            <Time>2018-12-30T13:47:02.000Z</Time>
            <Position>
              <LatitudeDegrees>40.74799689464271068572998046875</LatitudeDegrees>
              <LongitudeDegrees>-4.08336759544909000396728515625</LongitudeDegrees>
            </Position>
            <AltitudeMeters>1510.5999755859375</AltitudeMeters>
            <DistanceMeters>NAN</DistanceMeters>
          </Trackpoint>
          <Trackpoint>
            <Time>2018-12-30T13:47:03.000Z</Time>
            <Position>
              <LatitudeDegrees>40.74799773283302783966064453125</LatitudeDegrees>
              <LongitudeDegrees>-4.08335384912788867950439453125</LongitudeDegrees>
            </Position>
            <AltitudeMeters>1510.4000244140625</AltitudeMeters>
            <DistanceMeters>NAN</DistanceMeters>
          </Trackpoint>
          <Trackpoint>
            <Time>2018-12-30T13:47:04.000Z</Time>
            <Position>
              <LatitudeDegrees>40.7480026781558990478515625</LatitudeDegrees>
              <LongitudeDegrees>-4.08334479667246341705322265625</LongitudeDegrees>
            </Position>
            <AltitudeMeters>1510.199951171875</AltitudeMeters>
            <DistanceMeters>NAN</DistanceMeters>
          </Trackpoint>
          <Trackpoint>
            <Time>2018-12-30T13:47:05.000Z</Time>
            <Position>
              <LatitudeDegrees>40.74800829403102397918701171875</LatitudeDegrees>
              <LongitudeDegrees>-4.083332978188991546630859375</LongitudeDegrees>
            </Position>
            <AltitudeMeters>1510.199951171875</AltitudeMeters>
            <DistanceMeters>NAN</DistanceMeters>
          </Trackpoint>
          <Trackpoint>
            <Time>2018-12-30T13:47:06.000Z</Time>
            <Position>
              <LatitudeDegrees>40.74801273643970489501953125</LatitudeDegrees>
              <LongitudeDegrees>-4.08331613056361675262451171875</LongitudeDegrees>
            </Position>
            <AltitudeMeters>1509.800048828125</AltitudeMeters>
            <DistanceMeters>NAN</DistanceMeters>
          </Trackpoint>
          <Trackpoint>
            <Time>2018-12-30T13:47:07.000Z</Time>
            <Position>
              <LatitudeDegrees>40.748020447790622711181640625</LatitudeDegrees>
              <LongitudeDegrees>-4.083315543830394744873046875</LongitudeDegrees>
            </Position>
            <AltitudeMeters>1509.4000244140625</AltitudeMeters>
            <DistanceMeters>NAN</DistanceMeters>
          </Trackpoint>
          <Trackpoint>
            <Time>2018-12-30T13:47:08.000Z</Time>
            <Position>
              <LatitudeDegrees>40.74802941642701625823974609375</LatitudeDegrees>
              <LongitudeDegrees>-4.0833103470504283905029296875</LongitudeDegrees>
            </Position>
            <AltitudeMeters>1509.199951171875</AltitudeMeters>
            <DistanceMeters>NAN</DistanceMeters>
          </Trackpoint>
          <Trackpoint>
            <Time>2018-12-30T13:47:09.000Z</Time>
            <Position>
              <LatitudeDegrees>40.74803276918828487396240234375</LatitudeDegrees>
              <LongitudeDegrees>-4.08331411890685558319091796875</LongitudeDegrees>
            </Position>
            <AltitudeMeters>1509</AltitudeMeters>
            <DistanceMeters>NAN</DistanceMeters>
          </Trackpoint>
          <Trackpoint>
            <Time>2018-12-30T13:47:10.000Z</Time>
            <Position>
              <LatitudeDegrees>40.74803444556891918182373046875</LatitudeDegrees>
              <LongitudeDegrees>-4.08331881277263164520263671875</LongitudeDegrees>
            </Position>
            <AltitudeMeters>1509</AltitudeMeters>
            <DistanceMeters>NAN</DistanceMeters>
          </Trackpoint>
          <Trackpoint>
            <Time>2018-12-30T13:47:11.000Z</Time>
            <Position>
              <LatitudeDegrees>40.74803142808377742767333984375</LatitudeDegrees>
              <LongitudeDegrees>-4.0833220817148685455322265625</LongitudeDegrees>
            </Position>
            <AltitudeMeters>1508.800048828125</AltitudeMeters>
            <DistanceMeters>NAN</DistanceMeters>
          </Trackpoint>
          <Trackpoint>
            <Time>2018-12-30T13:47:12.000Z</Time>
            <Position>
              <LatitudeDegrees>40.748029835522174835205078125</LatitudeDegrees>
              <LongitudeDegrees>-4.08332618884742259979248046875</LongitudeDegrees>
            </Position>
            <AltitudeMeters>1508.800048828125</AltitudeMeters>
            <DistanceMeters>NAN</DistanceMeters>
          </Trackpoint>
          <Trackpoint>
            <Time>2018-12-30T13:47:13.000Z</Time>
            <Position>
              <LatitudeDegrees>40.7480310089886188507080078125</LatitudeDegrees>
              <LongitudeDegrees>-4.08332702703773975372314453125</LongitudeDegrees>
            </Position>
            <AltitudeMeters>1508.4000244140625</AltitudeMeters>
            <DistanceMeters>NAN</DistanceMeters>
          </Trackpoint>
          <Trackpoint>
            <Time>2018-12-30T13:47:14.000Z</Time>
            <Position>
              <LatitudeDegrees>40.74803176335990428924560546875</LatitudeDegrees>
              <LongitudeDegrees>-4.08332618884742259979248046875</LongitudeDegrees>
            </Position>
            <AltitudeMeters>1508.199951171875</AltitudeMeters>
            <DistanceMeters>NAN</DistanceMeters>
          </Trackpoint>
          <Trackpoint>
            <Time>2018-12-30T13:47:15.000Z</Time>
            <Position>
              <LatitudeDegrees>40.748034529387950897216796875</LatitudeDegrees>
              <LongitudeDegrees>-4.083322584629058837890625</LongitudeDegrees>
            </Position>
            <AltitudeMeters>1508</AltitudeMeters>
            <DistanceMeters>NAN</DistanceMeters>
          </Trackpoint>
          <Trackpoint>
            <Time>2018-12-30T13:47:16.000Z</Time>
            <Position>
              <LatitudeDegrees>40.748024471104145050048828125</LatitudeDegrees>
              <LongitudeDegrees>-4.08332987688481807708740234375</LongitudeDegrees>
            </Position>
            <AltitudeMeters>1507.800048828125</AltitudeMeters>
            <DistanceMeters>NAN</DistanceMeters>
          </Trackpoint>
          <Trackpoint>
            <Time>2018-12-30T13:47:17.000Z</Time>
            <Position>
              <LatitudeDegrees>40.74802069924771785736083984375</LatitudeDegrees>
              <LongitudeDegrees>-4.08333473838865756988525390625</LongitudeDegrees>
            </Position>
            <AltitudeMeters>1507.800048828125</AltitudeMeters>
            <DistanceMeters>NAN</DistanceMeters>
          </Trackpoint>
          <Trackpoint>
            <Time>2018-12-30T13:47:18.000Z</Time>
            <Position>
              <LatitudeDegrees>40.74801600538194179534912109375</LatitudeDegrees>
              <LongitudeDegrees>-4.08333742059767246246337890625</LongitudeDegrees>
            </Position>
            <AltitudeMeters>1507.5999755859375</AltitudeMeters>
            <DistanceMeters>NAN</DistanceMeters>
          </Trackpoint>
          <Trackpoint>
            <Time>2018-12-30T13:47:19.000Z</Time>
            <Position>
              <LatitudeDegrees>40.7479991577565670013427734375</LatitudeDegrees>
              <LongitudeDegrees>-4.0833478979766368865966796875</LongitudeDegrees>
            </Position>
            <AltitudeMeters>1507.5999755859375</AltitudeMeters>
            <DistanceMeters>NAN</DistanceMeters>
          </Trackpoint>
          <Trackpoint>
            <Time>2018-12-30T13:47:20.000Z</Time>
            <Position>
              <LatitudeDegrees>40.7479892671108245849609375</LatitudeDegrees>
              <LongitudeDegrees>-4.083349071443080902099609375</LongitudeDegrees>
            </Position>
            <AltitudeMeters>1507.4000244140625</AltitudeMeters>
            <DistanceMeters>NAN</DistanceMeters>
          </Trackpoint>
          <Trackpoint>
            <Time>2018-12-30T13:47:21.000Z</Time>
            <Position>
              <LatitudeDegrees>40.74798281304538249969482421875</LatitudeDegrees>
              <LongitudeDegrees>-4.083349071443080902099609375</LongitudeDegrees>
            </Position>
            <AltitudeMeters>1507.4000244140625</AltitudeMeters>
            <DistanceMeters>NAN</DistanceMeters>
          </Trackpoint>
          <Trackpoint>
            <Time>2018-12-30T13:47:22.000Z</Time>
            <Position>
              <LatitudeDegrees>40.7479797117412090301513671875</LatitudeDegrees>
              <LongitudeDegrees>-4.083346389234066009521484375</LongitudeDegrees>
            </Position>
            <AltitudeMeters>1507.4000244140625</AltitudeMeters>
            <DistanceMeters>NAN</DistanceMeters>
          </Trackpoint>
          <Trackpoint>
            <Time>2018-12-30T13:47:23.000Z</Time>
            <Position>
              <LatitudeDegrees>40.7479787059128284454345703125</LatitudeDegrees>
              <LongitudeDegrees>-4.0833421982824802398681640625</LongitudeDegrees>
            </Position>
            <AltitudeMeters>1507.199951171875</AltitudeMeters>
            <DistanceMeters>NAN</DistanceMeters>
          </Trackpoint>
          <Trackpoint>
            <Time>2018-12-30T13:47:24.000Z</Time>
            <Position>
              <LatitudeDegrees>40.7479790411889553070068359375</LatitudeDegrees>
              <LongitudeDegrees>-4.08334144391119480133056640625</LongitudeDegrees>
            </Position>
            <AltitudeMeters>1507</AltitudeMeters>
            <DistanceMeters>NAN</DistanceMeters>
          </Trackpoint>
          <Trackpoint>
            <Time>2018-12-30T13:47:25.000Z</Time>
            <Position>
              <LatitudeDegrees>40.74797007255256175994873046875</LatitudeDegrees>
              <LongitudeDegrees>-4.08333775587379932403564453125</LongitudeDegrees>
            </Position>
            <AltitudeMeters>1506.800048828125</AltitudeMeters>
            <DistanceMeters>NAN</DistanceMeters>
          </Trackpoint>
          <Trackpoint>
            <Time>2018-12-30T13:47:26.000Z</Time>
            <Position>
              <LatitudeDegrees>40.74796521104872226715087890625</LatitudeDegrees>
              <LongitudeDegrees>-4.08332593739032745361328125</LongitudeDegrees>
            </Position>
            <AltitudeMeters>1506.5999755859375</AltitudeMeters>
            <DistanceMeters>NAN</DistanceMeters>
          </Trackpoint>
          <Trackpoint>
            <Time>2018-12-30T13:47:27.000Z</Time>
            <Position>
              <LatitudeDegrees>40.747951380908489227294921875</LatitudeDegrees>
              <LongitudeDegrees>-4.08331713639199733734130859375</LongitudeDegrees>
            </Position>
            <AltitudeMeters>1506.4000244140625</AltitudeMeters>
            <DistanceMeters>NAN</DistanceMeters>
          </Trackpoint>
          <Trackpoint>
            <Time>2018-12-30T13:47:28.000Z</Time>
            <Position>
              <LatitudeDegrees>40.74794408865272998809814453125</LatitudeDegrees>
              <LongitudeDegrees>-4.0833026356995105743408203125</LongitudeDegrees>
            </Position>
            <AltitudeMeters>1506.199951171875</AltitudeMeters>
            <DistanceMeters>NAN</DistanceMeters>
          </Trackpoint>
          <Trackpoint>
            <Time>2018-12-30T13:47:29.000Z</Time>
            <Position>
              <LatitudeDegrees>40.74794224463403224945068359375</LatitudeDegrees>
              <LongitudeDegrees>-4.08328981138765811920166015625</LongitudeDegrees>
            </Position>
            <AltitudeMeters>1505.800048828125</AltitudeMeters>
            <DistanceMeters>NAN</DistanceMeters>
          </Trackpoint>
          <Trackpoint>
            <Time>2018-12-30T13:47:30.000Z</Time>
            <Position>
              <LatitudeDegrees>40.74794945307075977325439453125</LatitudeDegrees>
              <LongitudeDegrees>-4.08327925018966197967529296875</LongitudeDegrees>
            </Position>
            <AltitudeMeters>1505.800048828125</AltitudeMeters>
            <DistanceMeters>NAN</DistanceMeters>
          </Trackpoint>
          <Trackpoint>
            <Time>2018-12-30T13:47:31.000Z</Time>
            <Position>
              <LatitudeDegrees>40.74795817025005817413330078125</LatitudeDegrees>
              <LongitudeDegrees>-4.0832694433629512786865234375</LongitudeDegrees>
            </Position>
            <AltitudeMeters>1505.5999755859375</AltitudeMeters>
            <DistanceMeters>NAN</DistanceMeters>
          </Trackpoint>
          <Trackpoint>
            <Time>2018-12-30T13:47:32.000Z</Time>
            <Position>
              <LatitudeDegrees>40.74796252883970737457275390625</LatitudeDegrees>
              <LongitudeDegrees>-4.0832556970417499542236328125</LongitudeDegrees>
            </Position>
            <AltitudeMeters>1505.4000244140625</AltitudeMeters>
            <DistanceMeters>NAN</DistanceMeters>
          </Trackpoint>
          <Trackpoint>
            <Time>2018-12-30T13:47:33.000Z</Time>
            <Position>
              <LatitudeDegrees>40.74796185828745365142822265625</LatitudeDegrees>
              <LongitudeDegrees>-4.0832416154444217681884765625</LongitudeDegrees>
            </Position>
            <AltitudeMeters>1505.199951171875</AltitudeMeters>
            <DistanceMeters>NAN</DistanceMeters>
          </Trackpoint>
          <Trackpoint>
            <Time>2018-12-30T13:47:34.000Z</Time>
            <Position>
              <LatitudeDegrees>40.7479606010019779205322265625</LatitudeDegrees>
              <LongitudeDegrees>-4.08323214389383792877197265625</LongitudeDegrees>
            </Position>
            <AltitudeMeters>1505</AltitudeMeters>
            <DistanceMeters>NAN</DistanceMeters>
          </Trackpoint>
          <Trackpoint>
            <Time>2018-12-30T13:47:35.000Z</Time>
            <Position>
              <LatitudeDegrees>40.74795582331717014312744140625</LatitudeDegrees>
              <LongitudeDegrees>-4.0832151286303997039794921875</LongitudeDegrees>
            </Position>
            <AltitudeMeters>1505</AltitudeMeters>
            <DistanceMeters>NAN</DistanceMeters>
          </Trackpoint>
          <Trackpoint>
            <Time>2018-12-30T13:47:36.000Z</Time>
            <Position>
              <LatitudeDegrees>40.74795464985072612762451171875</LatitudeDegrees>
              <LongitudeDegrees>-4.08319987356662750244140625</LongitudeDegrees>
            </Position>
            <AltitudeMeters>1505</AltitudeMeters>
            <DistanceMeters>NAN</DistanceMeters>
          </Trackpoint>
          <Trackpoint>
            <Time>2018-12-30T13:47:37.000Z</Time>
            <Position>
              <LatitudeDegrees>40.747953392565250396728515625</LatitudeDegrees>
              <LongitudeDegrees>-4.08319425769150257110595703125</LongitudeDegrees>
            </Position>
            <AltitudeMeters>1504.800048828125</AltitudeMeters>
            <DistanceMeters>NAN</DistanceMeters>
          </Trackpoint>
          <Trackpoint>
            <Time>2018-12-30T13:47:38.000Z</Time>
            <Position>
              <LatitudeDegrees>40.74794895015656948089599609375</LatitudeDegrees>
              <LongitudeDegrees>-4.08318486995995044708251953125</LongitudeDegrees>
            </Position>
            <AltitudeMeters>1504.5999755859375</AltitudeMeters>
            <DistanceMeters>NAN</DistanceMeters>
          </Trackpoint>
          <Trackpoint>
            <Time>2018-12-30T13:47:39.000Z</Time>
            <Position>
              <LatitudeDegrees>40.74794107116758823394775390625</LatitudeDegrees>
              <LongitudeDegrees>-4.08316559158265590667724609375</LongitudeDegrees>
            </Position>
            <AltitudeMeters>1504.5999755859375</AltitudeMeters>
            <DistanceMeters>NAN</DistanceMeters>
          </Trackpoint>
          <Trackpoint>
            <Time>2018-12-30T13:47:40.000Z</Time>
            <Position>
              <LatitudeDegrees>40.7479357905685901641845703125</LatitudeDegrees>
              <LongitudeDegrees>-4.0831628255546092987060546875</LongitudeDegrees>
            </Position>
            <AltitudeMeters>1504.199951171875</AltitudeMeters>
            <DistanceMeters>NAN</DistanceMeters>
          </Trackpoint>
          <Trackpoint>
            <Time>2018-12-30T13:47:41.000Z</Time>
            <Position>
              <LatitudeDegrees>40.74792883358895778656005859375</LatitudeDegrees>
              <LongitudeDegrees>-4.08316190354526042938232421875</LongitudeDegrees>
            </Position>
            <AltitudeMeters>1504</AltitudeMeters>
            <DistanceMeters>NAN</DistanceMeters>
          </Trackpoint>
          <Trackpoint>
            <Time>2018-12-30T13:47:42.000Z</Time>
            <Position>
              <LatitudeDegrees>40.747918523848056793212890625</LatitudeDegrees>
              <LongitudeDegrees>-4.08316257409751415252685546875</LongitudeDegrees>
            </Position>
            <AltitudeMeters>1503.5999755859375</AltitudeMeters>
            <DistanceMeters>NAN</DistanceMeters>
          </Trackpoint>
          <Trackpoint>
            <Time>2018-12-30T13:47:43.000Z</Time>
            <Position>
              <LatitudeDegrees>40.74791408143937587738037109375</LatitudeDegrees>
              <LongitudeDegrees>-4.08316240645945072174072265625</LongitudeDegrees>
            </Position>
            <AltitudeMeters>1503.4000244140625</AltitudeMeters>
            <DistanceMeters>NAN</DistanceMeters>
          </Trackpoint>
          <Trackpoint>
            <Time>2018-12-30T13:47:44.000Z</Time>
            <Position>
              <LatitudeDegrees>40.74791290797293186187744140625</LatitudeDegrees>
              <LongitudeDegrees>-4.0831685252487659454345703125</LongitudeDegrees>
            </Position>
            <AltitudeMeters>1503.199951171875</AltitudeMeters>
            <DistanceMeters>NAN</DistanceMeters>
          </Trackpoint>
          <Trackpoint>
            <Time>2018-12-30T13:47:45.000Z</Time>
            <Position>
              <LatitudeDegrees>40.74790955521166324615478515625</LatitudeDegrees>
              <LongitudeDegrees>-4.083182103931903839111328125</LongitudeDegrees>
            </Position>
            <AltitudeMeters>1503</AltitudeMeters>
            <DistanceMeters>NAN</DistanceMeters>
          </Trackpoint>
          <Trackpoint>
            <Time>2018-12-30T13:47:46.000Z</Time>
            <Position>
              <LatitudeDegrees>40.7479086332023143768310546875</LatitudeDegrees>
              <LongitudeDegrees>-4.08318721689283847808837890625</LongitudeDegrees>
            </Position>
            <AltitudeMeters>1503</AltitudeMeters>
            <DistanceMeters>NAN</DistanceMeters>
          </Trackpoint>
          <Trackpoint>
            <Time>2018-12-30T13:47:47.000Z</Time>
            <Position>
              <LatitudeDegrees>40.74790637008845806121826171875</LatitudeDegrees>
              <LongitudeDegrees>-4.08319844864308834075927734375</LongitudeDegrees>
            </Position>
            <AltitudeMeters>1503</AltitudeMeters>
            <DistanceMeters>NAN</DistanceMeters>
          </Trackpoint>
          <Trackpoint>
            <Time>2018-12-30T13:47:48.000Z</Time>
            <Position>
              <LatitudeDegrees>40.74790687300264835357666015625</LatitudeDegrees>
              <LongitudeDegrees>-4.08321772702038288116455078125</LongitudeDegrees>
            </Position>
            <AltitudeMeters>1502.800048828125</AltitudeMeters>
            <DistanceMeters>NAN</DistanceMeters>
          </Trackpoint>
          <Trackpoint>
            <Time>2018-12-30T13:47:49.000Z</Time>
            <Position>
              <LatitudeDegrees>40.7478965632617473602294921875</LatitudeDegrees>
              <LongitudeDegrees>-4.0832288749516010284423828125</LongitudeDegrees>
            </Position>
            <AltitudeMeters>1502.800048828125</AltitudeMeters>
            <DistanceMeters>NAN</DistanceMeters>
          </Trackpoint>
          <Trackpoint>
            <Time>2018-12-30T13:47:50.000Z</Time>
            <Position>
              <LatitudeDegrees>40.74789262376725673675537109375</LatitudeDegrees>
              <LongitudeDegrees>-4.0832375921308994293212890625</LongitudeDegrees>
            </Position>
            <AltitudeMeters>1502.5999755859375</AltitudeMeters>
            <DistanceMeters>NAN</DistanceMeters>
          </Trackpoint>
          <Trackpoint>
            <Time>2018-12-30T13:47:51.000Z</Time>
            <Position>
              <LatitudeDegrees>40.747889690101146697998046875</LatitudeDegrees>
              <LongitudeDegrees>-4.083239771425724029541015625</LongitudeDegrees>
            </Position>
            <AltitudeMeters>1502.4000244140625</AltitudeMeters>
            <DistanceMeters>NAN</DistanceMeters>
          </Trackpoint>
          <Trackpoint>
            <Time>2018-12-30T13:47:52.000Z</Time>
            <Position>
              <LatitudeDegrees>40.74788943864405155181884765625</LatitudeDegrees>
              <LongitudeDegrees>-4.083244800567626953125</LongitudeDegrees>
            </Position>
            <AltitudeMeters>1502</AltitudeMeters>
            <DistanceMeters>NAN</DistanceMeters>
          </Trackpoint>
          <Trackpoint>
            <Time>2018-12-30T13:47:53.000Z</Time>
            <Position>
              <LatitudeDegrees>40.747887007892131805419921875</LatitudeDegrees>
              <LongitudeDegrees>-4.083247147500514984130859375</LongitudeDegrees>
            </Position>
            <AltitudeMeters>1501.800048828125</AltitudeMeters>
            <DistanceMeters>NAN</DistanceMeters>
          </Trackpoint>
          <Trackpoint>
            <Time>2018-12-30T13:47:54.000Z</Time>
            <Position>
              <LatitudeDegrees>40.7478821463882923126220703125</LatitudeDegrees>
              <LongitudeDegrees>-4.08325343392789363861083984375</LongitudeDegrees>
            </Position>
            <AltitudeMeters>1501.5999755859375</AltitudeMeters>
            <DistanceMeters>NAN</DistanceMeters>
          </Trackpoint>
          <Trackpoint>
            <Time>2018-12-30T13:47:55.000Z</Time>
            <Position>
              <LatitudeDegrees>40.74787803925573825836181640625</LatitudeDegrees>
              <LongitudeDegrees>-4.08325728960335254669189453125</LongitudeDegrees>
            </Position>
            <AltitudeMeters>1501.5999755859375</AltitudeMeters>
            <DistanceMeters>NAN</DistanceMeters>
          </Trackpoint>
          <Trackpoint>
            <Time>2018-12-30T13:47:56.000Z</Time>
            <Position>
              <LatitudeDegrees>40.7478730939328670501708984375</LatitudeDegrees>
              <LongitudeDegrees>-4.08326625823974609375</LongitudeDegrees>
            </Position>
            <AltitudeMeters>1501.4000244140625</AltitudeMeters>
            <DistanceMeters>NAN</DistanceMeters>
          </Trackpoint>
          <Trackpoint>
            <Time>2018-12-30T13:47:57.000Z</Time>
            <Position>
              <LatitudeDegrees>40.7478700764477252960205078125</LatitudeDegrees>
              <LongitudeDegrees>-4.0832667611539363861083984375</LongitudeDegrees>
            </Position>
            <AltitudeMeters>1501.4000244140625</AltitudeMeters>
            <DistanceMeters>NAN</DistanceMeters>
          </Trackpoint>
          <Trackpoint>
            <Time>2018-12-30T13:47:58.000Z</Time>
            <Position>
              <LatitudeDegrees>40.7478610239923000335693359375</LatitudeDegrees>
              <LongitudeDegrees>-4.08326349221169948577880859375</LongitudeDegrees>
            </Position>
            <AltitudeMeters>1501.199951171875</AltitudeMeters>
            <DistanceMeters>NAN</DistanceMeters>
          </Trackpoint>
          <Trackpoint>
            <Time>2018-12-30T13:47:59.000Z</Time>
            <Position>
              <LatitudeDegrees>40.7478509657084941864013671875</LatitudeDegrees>
              <LongitudeDegrees>-4.08326022326946258544921875</LongitudeDegrees>
            </Position>
            <AltitudeMeters>1501</AltitudeMeters>
            <DistanceMeters>NAN</DistanceMeters>
          </Trackpoint>
          <Trackpoint>
            <Time>2018-12-30T13:48:00.000Z</Time>
            <Position>
              <LatitudeDegrees>40.747841410338878631591796875</LatitudeDegrees>
              <LongitudeDegrees>-4.08325896598398685455322265625</LongitudeDegrees>
            </Position>
            <AltitudeMeters>1500.800048828125</AltitudeMeters>
            <DistanceMeters>NAN</DistanceMeters>
          </Trackpoint>
          <Trackpoint>
            <Time>2018-12-30T13:48:01.000Z</Time>
            <Position>
              <LatitudeDegrees>40.74783168733119964599609375</LatitudeDegrees>
              <LongitudeDegrees>-4.08325242809951305389404296875</LongitudeDegrees>
            </Position>
            <AltitudeMeters>1500.800048828125</AltitudeMeters>
            <DistanceMeters>NAN</DistanceMeters>
          </Trackpoint>
          <Trackpoint>
            <Time>2018-12-30T13:48:02.000Z</Time>
            <Position>
              <LatitudeDegrees>40.74783034622669219970703125</LatitudeDegrees>
              <LongitudeDegrees>-4.083249159157276153564453125</LongitudeDegrees>
            </Position>
            <AltitudeMeters>1500.5999755859375</AltitudeMeters>
            <DistanceMeters>NAN</DistanceMeters>
          </Trackpoint>
          <Trackpoint>
            <Time>2018-12-30T13:48:03.000Z</Time>
            <Position>
              <LatitudeDegrees>40.74782431125640869140625</LatitudeDegrees>
              <LongitudeDegrees>-4.08324974589049816131591796875</LongitudeDegrees>
            </Position>
            <AltitudeMeters>1500.5999755859375</AltitudeMeters>
            <DistanceMeters>NAN</DistanceMeters>
          </Trackpoint>
          <Trackpoint>
            <Time>2018-12-30T13:48:04.000Z</Time>
            <Position>
              <LatitudeDegrees>40.74782724492251873016357421875</LatitudeDegrees>
              <LongitudeDegrees>-4.08325058408081531524658203125</LongitudeDegrees>
            </Position>
            <AltitudeMeters>1500.199951171875</AltitudeMeters>
            <DistanceMeters>NAN</DistanceMeters>
          </Trackpoint>
          <Trackpoint>
            <Time>2018-12-30T13:48:05.000Z</Time>
            <Position>
              <LatitudeDegrees>40.74782473035156726837158203125</LatitudeDegrees>
              <LongitudeDegrees>-4.083252847194671630859375</LongitudeDegrees>
            </Position>
            <AltitudeMeters>1500</AltitudeMeters>
            <DistanceMeters>NAN</DistanceMeters>
          </Trackpoint>
          <Trackpoint>
            <Time>2018-12-30T13:48:06.000Z</Time>
            <Position>
              <LatitudeDegrees>40.7478201203048229217529296875</LatitudeDegrees>
              <LongitudeDegrees>-4.08325896598398685455322265625</LongitudeDegrees>
            </Position>
            <AltitudeMeters>1499.800048828125</AltitudeMeters>
            <DistanceMeters>NAN</DistanceMeters>
          </Trackpoint>
          <Trackpoint>
            <Time>2018-12-30T13:48:07.000Z</Time>
            <Position>
              <LatitudeDegrees>40.74781701900064945220947265625</LatitudeDegrees>
              <LongitudeDegrees>-4.08326416276395320892333984375</LongitudeDegrees>
            </Position>
            <AltitudeMeters>1499.5999755859375</AltitudeMeters>
            <DistanceMeters>NAN</DistanceMeters>
          </Trackpoint>
          <Trackpoint>
            <Time>2018-12-30T13:48:08.000Z</Time>
            <Position>
              <LatitudeDegrees>40.7478117384016513824462890625</LatitudeDegrees>
              <LongitudeDegrees>-4.08325980417430400848388671875</LongitudeDegrees>
            </Position>
            <AltitudeMeters>1499.4000244140625</AltitudeMeters>
            <DistanceMeters>NAN</DistanceMeters>
          </Trackpoint>
          <Trackpoint>
            <Time>2018-12-30T13:48:09.000Z</Time>
            <Position>
              <LatitudeDegrees>40.74779874645173549652099609375</LatitudeDegrees>
              <LongitudeDegrees>-4.083260558545589447021484375</LongitudeDegrees>
            </Position>
            <AltitudeMeters>1499.199951171875</AltitudeMeters>
            <DistanceMeters>NAN</DistanceMeters>
          </Trackpoint>
          <Trackpoint>
            <Time>2018-12-30T13:48:10.000Z</Time>
            <Position>
              <LatitudeDegrees>40.74778784997761249542236328125</LatitudeDegrees>
              <LongitudeDegrees>-4.08325896598398685455322265625</LongitudeDegrees>
            </Position>
            <AltitudeMeters>1498.800048828125</AltitudeMeters>
            <DistanceMeters>NAN</DistanceMeters>
          </Trackpoint>
          <Trackpoint>
            <Time>2018-12-30T13:48:11.000Z</Time>
            <Position>
              <LatitudeDegrees>40.7477773725986480712890625</LatitudeDegrees>
              <LongitudeDegrees>-4.0832595527172088623046875</LongitudeDegrees>
            </Position>
            <AltitudeMeters>1498.4000244140625</AltitudeMeters>
            <DistanceMeters>NAN</DistanceMeters>
          </Trackpoint>
          <Trackpoint>
            <Time>2018-12-30T13:48:12.000Z</Time>
            <Position>
              <LatitudeDegrees>40.7477658055722713470458984375</LatitudeDegrees>
              <LongitudeDegrees>-4.08326156437397003173828125</LongitudeDegrees>
            </Position>
            <AltitudeMeters>1498</AltitudeMeters>
            <DistanceMeters>NAN</DistanceMeters>
          </Trackpoint>
          <Trackpoint>
            <Time>2018-12-30T13:48:13.000Z</Time>
            <Position>
              <LatitudeDegrees>40.747758261859416961669921875</LatitudeDegrees>
              <LongitudeDegrees>-4.08326231874525547027587890625</LongitudeDegrees>
            </Position>
            <AltitudeMeters>1497.5999755859375</AltitudeMeters>
            <DistanceMeters>NAN</DistanceMeters>
          </Trackpoint>
          <Trackpoint>
            <Time>2018-12-30T13:48:14.000Z</Time>
            <Position>
              <LatitudeDegrees>40.7477389834821224212646484375</LatitudeDegrees>
              <LongitudeDegrees>-4.08327673561871051788330078125</LongitudeDegrees>
            </Position>
            <AltitudeMeters>1497.199951171875</AltitudeMeters>
            <DistanceMeters>NAN</DistanceMeters>
          </Trackpoint>
          <Trackpoint>
            <Time>2018-12-30T13:48:15.000Z</Time>
            <Position>
              <LatitudeDegrees>40.74773185886442661285400390625</LatitudeDegrees>
              <LongitudeDegrees>-4.08328704535961151123046875</LongitudeDegrees>
            </Position>
            <AltitudeMeters>1497</AltitudeMeters>
            <DistanceMeters>NAN</DistanceMeters>
          </Trackpoint>
          <Trackpoint>
            <Time>2018-12-30T13:48:16.000Z</Time>
            <Position>
              <LatitudeDegrees>40.74772163294255733489990234375</LatitudeDegrees>
              <LongitudeDegrees>-4.08330372534692287445068359375</LongitudeDegrees>
            </Position>
            <AltitudeMeters>1496.800048828125</AltitudeMeters>
            <DistanceMeters>NAN</DistanceMeters>
          </Trackpoint>
          <Trackpoint>
            <Time>2018-12-30T13:48:17.000Z</Time>
            <Position>
              <LatitudeDegrees>40.74772113002836704254150390625</LatitudeDegrees>
              <LongitudeDegrees>-4.0833136998116970062255859375</LongitudeDegrees>
            </Position>
            <AltitudeMeters>1496.800048828125</AltitudeMeters>
            <DistanceMeters>NAN</DistanceMeters>
          </Trackpoint>
          <Trackpoint>
            <Time>2018-12-30T13:48:18.000Z</Time>
            <Position>
              <LatitudeDegrees>40.7477188669145107269287109375</LatitudeDegrees>
              <LongitudeDegrees>-4.08332325518131256103515625</LongitudeDegrees>
            </Position>
            <AltitudeMeters>1496.800048828125</AltitudeMeters>
            <DistanceMeters>NAN</DistanceMeters>
          </Trackpoint>
          <Trackpoint>
            <Time>2018-12-30T13:48:19.000Z</Time>
            <Position>
              <LatitudeDegrees>40.747718699276447296142578125</LatitudeDegrees>
              <LongitudeDegrees>-4.083330966532230377197265625</LongitudeDegrees>
            </Position>
            <AltitudeMeters>1496.800048828125</AltitudeMeters>
            <DistanceMeters>NAN</DistanceMeters>
          </Trackpoint>
          <Trackpoint>
            <Time>2018-12-30T13:48:20.000Z</Time>
            <Position>
              <LatitudeDegrees>40.747720040380954742431640625</LatitudeDegrees>
              <LongitudeDegrees>-4.0833318047225475311279296875</LongitudeDegrees>
            </Position>
            <AltitudeMeters>1496.800048828125</AltitudeMeters>
            <DistanceMeters>NAN</DistanceMeters>
          </Trackpoint>
          <Trackpoint>
            <Time>2018-12-30T13:48:21.000Z</Time>
            <Position>
              <LatitudeDegrees>40.74772146530449390411376953125</LatitudeDegrees>
              <LongitudeDegrees>-4.0833331458270549774169921875</LongitudeDegrees>
            </Position>
            <AltitudeMeters>1497</AltitudeMeters>
            <DistanceMeters>NAN</DistanceMeters>
          </Trackpoint>
          <Trackpoint>
            <Time>2018-12-30T13:48:22.000Z</Time>
            <Position>
              <LatitudeDegrees>40.74771593324840068817138671875</LatitudeDegrees>
              <LongitudeDegrees>-4.08333239145576953887939453125</LongitudeDegrees>
            </Position>
            <AltitudeMeters>1497</AltitudeMeters>
            <DistanceMeters>NAN</DistanceMeters>
          </Trackpoint>
          <Trackpoint>
            <Time>2018-12-30T13:48:23.000Z</Time>
            <Position>
              <LatitudeDegrees>40.74771090410649776458740234375</LatitudeDegrees>
              <LongitudeDegrees>-4.08333155326545238494873046875</LongitudeDegrees>
            </Position>
            <AltitudeMeters>1497</AltitudeMeters>
            <DistanceMeters>NAN</DistanceMeters>
          </Trackpoint>
          <Trackpoint>
            <Time>2018-12-30T13:48:24.000Z</Time>
            <Position>
              <LatitudeDegrees>40.7477076351642608642578125</LatitudeDegrees>
              <LongitudeDegrees>-4.08332903869450092315673828125</LongitudeDegrees>
            </Position>
            <AltitudeMeters>1497</AltitudeMeters>
            <DistanceMeters>NAN</DistanceMeters>
          </Trackpoint>
          <Trackpoint>
            <Time>2018-12-30T13:48:25.000Z</Time>
            <Position>
              <LatitudeDegrees>40.74770000763237476348876953125</LatitudeDegrees>
              <LongitudeDegrees>-4.08332568593323230743408203125</LongitudeDegrees>
            </Position>
            <AltitudeMeters>1496.800048828125</AltitudeMeters>
            <DistanceMeters>NAN</DistanceMeters>
          </Trackpoint>
          <Trackpoint>
            <Time>2018-12-30T13:48:26.000Z</Time>
            <Position>
              <LatitudeDegrees>40.747694559395313262939453125</LatitudeDegrees>
              <LongitudeDegrees>-4.08331914804875850677490234375</LongitudeDegrees>
            </Position>
            <AltitudeMeters>1496.5999755859375</AltitudeMeters>
            <DistanceMeters>NAN</DistanceMeters>
          </Trackpoint>
          <Trackpoint>
            <Time>2018-12-30T13:48:27.000Z</Time>
            <Position>
              <LatitudeDegrees>40.74768894352018833160400390625</LatitudeDegrees>
              <LongitudeDegrees>-4.08331814222037792205810546875</LongitudeDegrees>
            </Position>
            <AltitudeMeters>1496.4000244140625</AltitudeMeters>
            <DistanceMeters>NAN</DistanceMeters>
          </Trackpoint>
          <Trackpoint>
            <Time>2018-12-30T13:48:28.000Z</Time>
            <Position>
              <LatitudeDegrees>40.74768492020666599273681640625</LatitudeDegrees>
              <LongitudeDegrees>-4.08331696875393390655517578125</LongitudeDegrees>
            </Position>
            <AltitudeMeters>1496.199951171875</AltitudeMeters>
            <DistanceMeters>NAN</DistanceMeters>
          </Trackpoint>
          <Trackpoint>
            <Time>2018-12-30T13:48:29.000Z</Time>
            <Position>
              <LatitudeDegrees>40.7476836629211902618408203125</LatitudeDegrees>
              <LongitudeDegrees>-4.083311520516872406005859375</LongitudeDegrees>
            </Position>
            <AltitudeMeters>1496</AltitudeMeters>
            <DistanceMeters>NAN</DistanceMeters>
          </Trackpoint>
          <Trackpoint>
            <Time>2018-12-30T13:48:30.000Z</Time>
            <Position>
              <LatitudeDegrees>40.74767905287444591522216796875</LatitudeDegrees>
              <LongitudeDegrees>-4.08331244252622127532958984375</LongitudeDegrees>
            </Position>
            <AltitudeMeters>1495.800048828125</AltitudeMeters>
            <DistanceMeters>NAN</DistanceMeters>
          </Trackpoint>
          <Trackpoint>
            <Time>2018-12-30T13:48:31.000Z</Time>
            <Position>
              <LatitudeDegrees>40.74767385609447956085205078125</LatitudeDegrees>
              <LongitudeDegrees>-4.0833106823265552520751953125</LongitudeDegrees>
            </Position>
            <AltitudeMeters>1495.4000244140625</AltitudeMeters>
            <DistanceMeters>NAN</DistanceMeters>
          </Trackpoint>
          <Trackpoint>
            <Time>2018-12-30T13:48:32.000Z</Time>
            <Position>
              <LatitudeDegrees>40.74766363017261028289794921875</LatitudeDegrees>
              <LongitudeDegrees>-4.08331160433590412139892578125</LongitudeDegrees>
            </Position>
            <AltitudeMeters>1495</AltitudeMeters>
            <DistanceMeters>NAN</DistanceMeters>
          </Trackpoint>
          <Trackpoint>
            <Time>2018-12-30T13:48:33.000Z</Time>
            <Position>
              <LatitudeDegrees>40.74765725992619991302490234375</LatitudeDegrees>
              <LongitudeDegrees>-4.083316214382648468017578125</LongitudeDegrees>
            </Position>
            <AltitudeMeters>1494.4000244140625</AltitudeMeters>
            <DistanceMeters>NAN</DistanceMeters>
          </Trackpoint>
          <Trackpoint>
            <Time>2018-12-30T13:48:34.000Z</Time>
            <Position>
              <LatitudeDegrees>40.74765105731785297393798828125</LatitudeDegrees>
              <LongitudeDegrees>-4.08331579528748989105224609375</LongitudeDegrees>
            </Position>
            <AltitudeMeters>1494</AltitudeMeters>
            <DistanceMeters>NAN</DistanceMeters>
          </Trackpoint>
          <Trackpoint>
            <Time>2018-12-30T13:48:35.000Z</Time>
            <Position>
              <LatitudeDegrees>40.74764351360499858856201171875</LatitudeDegrees>
              <LongitudeDegrees>-4.0833158791065216064453125</LongitudeDegrees>
            </Position>
            <AltitudeMeters>1493.800048828125</AltitudeMeters>
            <DistanceMeters>NAN</DistanceMeters>
          </Trackpoint>
          <Trackpoint>
            <Time>2018-12-30T13:48:36.000Z</Time>
            <Position>
              <LatitudeDegrees>40.74763479642570018768310546875</LatitudeDegrees>
              <LongitudeDegrees>-4.0833150409162044525146484375</LongitudeDegrees>
            </Position>
            <AltitudeMeters>1493.5999755859375</AltitudeMeters>
            <DistanceMeters>NAN</DistanceMeters>
          </Trackpoint>
          <Trackpoint>
            <Time>2018-12-30T13:48:37.000Z</Time>
            <Position>
              <LatitudeDegrees>40.747625492513179779052734375</LatitudeDegrees>
              <LongitudeDegrees>-4.0833133645355701446533203125</LongitudeDegrees>
            </Position>
            <AltitudeMeters>1493.199951171875</AltitudeMeters>
            <DistanceMeters>NAN</DistanceMeters>
          </Trackpoint>
          <Trackpoint>
            <Time>2018-12-30T13:48:38.000Z</Time>
            <Position>
              <LatitudeDegrees>40.747612752020359039306640625</LatitudeDegrees>
              <LongitudeDegrees>-4.08331965096294879913330078125</LongitudeDegrees>
            </Position>
            <AltitudeMeters>1493</AltitudeMeters>
            <DistanceMeters>NAN</DistanceMeters>
          </Trackpoint>
          <Trackpoint>
            <Time>2018-12-30T13:48:39.000Z</Time>
            <Position>
              <LatitudeDegrees>40.7476099021732807159423828125</LatitudeDegrees>
              <LongitudeDegrees>-4.08331898041069507598876953125</LongitudeDegrees>
            </Position>
            <AltitudeMeters>1492.800048828125</AltitudeMeters>
            <DistanceMeters>NAN</DistanceMeters>
          </Trackpoint>
          <Trackpoint>
            <Time>2018-12-30T13:48:40.000Z</Time>
            <Position>
              <LatitudeDegrees>40.7476078905165195465087890625</LatitudeDegrees>
              <LongitudeDegrees>-4.0833183936774730682373046875</LongitudeDegrees>
            </Position>
            <AltitudeMeters>1492.4000244140625</AltitudeMeters>
            <DistanceMeters>NAN</DistanceMeters>
          </Trackpoint>
          <Trackpoint>
            <Time>2018-12-30T13:48:41.000Z</Time>
            <Position>
              <LatitudeDegrees>40.74759858660399913787841796875</LatitudeDegrees>
              <LongitudeDegrees>-4.08332300372421741485595703125</LongitudeDegrees>
            </Position>
            <AltitudeMeters>1492.199951171875</AltitudeMeters>
            <DistanceMeters>NAN</DistanceMeters>
          </Trackpoint>
          <Trackpoint>
            <Time>2018-12-30T13:48:42.000Z</Time>
            <Position>
              <LatitudeDegrees>40.74759255163371562957763671875</LatitudeDegrees>
              <LongitudeDegrees>-4.083320908248424530029296875</LongitudeDegrees>
            </Position>
            <AltitudeMeters>1492</AltitudeMeters>
            <DistanceMeters>NAN</DistanceMeters>
          </Trackpoint>
          <Trackpoint>
            <Time>2018-12-30T13:48:43.000Z</Time>
            <Position>
              <LatitudeDegrees>40.7475864328444004058837890625</LatitudeDegrees>
              <LongitudeDegrees>-4.0833199024200439453125</LongitudeDegrees>
            </Position>
            <AltitudeMeters>1491.800048828125</AltitudeMeters>
            <DistanceMeters>NAN</DistanceMeters>
          </Trackpoint>
          <Trackpoint>
            <Time>2018-12-30T13:48:44.000Z</Time>
            <Position>
              <LatitudeDegrees>40.74757981114089488983154296875</LatitudeDegrees>
              <LongitudeDegrees>-4.08330707810819149017333984375</LongitudeDegrees>
            </Position>
            <AltitudeMeters>1491.5999755859375</AltitudeMeters>
            <DistanceMeters>NAN</DistanceMeters>
          </Trackpoint>
          <Trackpoint>
            <Time>2018-12-30T13:48:45.000Z</Time>
            <Position>
              <LatitudeDegrees>40.74756480753421783447265625</LatitudeDegrees>
              <LongitudeDegrees>-4.0833066590130329132080078125</LongitudeDegrees>
            </Position>
            <AltitudeMeters>1491.5999755859375</AltitudeMeters>
            <DistanceMeters>NAN</DistanceMeters>
          </Trackpoint>
          <Trackpoint>
            <Time>2018-12-30T13:48:46.000Z</Time>
            <Position>
              <LatitudeDegrees>40.7475559227168560028076171875</LatitudeDegrees>
              <LongitudeDegrees>-4.08330271951854228973388671875</LongitudeDegrees>
            </Position>
            <AltitudeMeters>1491.4000244140625</AltitudeMeters>
            <DistanceMeters>NAN</DistanceMeters>
          </Trackpoint>
          <Trackpoint>
            <Time>2018-12-30T13:48:47.000Z</Time>
            <Position>
              <LatitudeDegrees>40.74755650945007801055908203125</LatitudeDegrees>
              <LongitudeDegrees>-4.0832986123859882354736328125</LongitudeDegrees>
            </Position>
            <AltitudeMeters>1491.199951171875</AltitudeMeters>
            <DistanceMeters>NAN</DistanceMeters>
          </Trackpoint>
          <Trackpoint>
            <Time>2018-12-30T13:48:48.000Z</Time>
            <Position>
              <LatitudeDegrees>40.74755919165909290313720703125</LatitudeDegrees>
              <LongitudeDegrees>-4.0832949243485927581787109375</LongitudeDegrees>
            </Position>
            <AltitudeMeters>1491.199951171875</AltitudeMeters>
            <DistanceMeters>NAN</DistanceMeters>
          </Trackpoint>
          <Trackpoint>
            <Time>2018-12-30T13:48:49.000Z</Time>
            <Position>
              <LatitudeDegrees>40.74756036512553691864013671875</LatitudeDegrees>
              <LongitudeDegrees>-4.08329308032989501953125</LongitudeDegrees>
            </Position>
            <AltitudeMeters>1491</AltitudeMeters>
            <DistanceMeters>NAN</DistanceMeters>
          </Trackpoint>
          <Trackpoint>
            <Time>2018-12-30T13:48:50.000Z</Time>
            <Position>
              <LatitudeDegrees>40.74756019748747348785400390625</LatitudeDegrees>
              <LongitudeDegrees>-4.08329081721603870391845703125</LongitudeDegrees>
            </Position>
            <AltitudeMeters>1490.800048828125</AltitudeMeters>
            <DistanceMeters>NAN</DistanceMeters>
          </Trackpoint>
          <Trackpoint>
            <Time>2018-12-30T13:48:51.000Z</Time>
            <Position>
              <LatitudeDegrees>40.7475589402019977569580078125</LatitudeDegrees>
              <LongitudeDegrees>-4.0832895599305629730224609375</LongitudeDegrees>
            </Position>
            <AltitudeMeters>1490.800048828125</AltitudeMeters>
            <DistanceMeters>NAN</DistanceMeters>
          </Trackpoint>
          <Trackpoint>
            <Time>2018-12-30T13:48:52.000Z</Time>
            <Position>
              <LatitudeDegrees>40.74755600653588771820068359375</LatitudeDegrees>
              <LongitudeDegrees>-4.0832925774157047271728515625</LongitudeDegrees>
            </Position>
            <AltitudeMeters>1490.800048828125</AltitudeMeters>
            <DistanceMeters>NAN</DistanceMeters>
          </Trackpoint>
          <Trackpoint>
            <Time>2018-12-30T13:48:53.000Z</Time>
            <Position>
              <LatitudeDegrees>40.7475445233285427093505859375</LatitudeDegrees>
              <LongitudeDegrees>-4.08329567871987819671630859375</LongitudeDegrees>
            </Position>
            <AltitudeMeters>1490.800048828125</AltitudeMeters>
            <DistanceMeters>NAN</DistanceMeters>
          </Trackpoint>
          <Trackpoint>
            <Time>2018-12-30T13:48:54.000Z</Time>
            <Position>
              <LatitudeDegrees>40.747534967958927154541015625</LatitudeDegrees>
              <LongitudeDegrees>-4.0833043120801448822021484375</LongitudeDegrees>
            </Position>
            <AltitudeMeters>1490.5999755859375</AltitudeMeters>
            <DistanceMeters>NAN</DistanceMeters>
          </Trackpoint>
          <Trackpoint>
            <Time>2018-12-30T13:48:55.000Z</Time>
            <Position>
              <LatitudeDegrees>40.74752683751285076141357421875</LatitudeDegrees>
              <LongitudeDegrees>-4.08331143669784069061279296875</LongitudeDegrees>
            </Position>
            <AltitudeMeters>1490.4000244140625</AltitudeMeters>
            <DistanceMeters>NAN</DistanceMeters>
          </Trackpoint>
          <Trackpoint>
            <Time>2018-12-30T13:48:56.000Z</Time>
            <Position>
              <LatitudeDegrees>40.74752398766577243804931640625</LatitudeDegrees>
              <LongitudeDegrees>-4.08331378363072872161865234375</LongitudeDegrees>
            </Position>
            <AltitudeMeters>1490.199951171875</AltitudeMeters>
            <DistanceMeters>NAN</DistanceMeters>
          </Trackpoint>
          <Trackpoint>
            <Time>2018-12-30T13:48:57.000Z</Time>
            <Position>
              <LatitudeDegrees>40.74751225300133228302001953125</LatitudeDegrees>
              <LongitudeDegrees>-4.0833150409162044525146484375</LongitudeDegrees>
            </Position>
            <AltitudeMeters>1490.199951171875</AltitudeMeters>
            <DistanceMeters>NAN</DistanceMeters>
          </Trackpoint>
          <Trackpoint>
            <Time>2018-12-30T13:48:58.000Z</Time>
            <Position>
              <LatitudeDegrees>40.74750320054590702056884765625</LatitudeDegrees>
              <LongitudeDegrees>-4.0833187289535999298095703125</LongitudeDegrees>
            </Position>
            <AltitudeMeters>1490</AltitudeMeters>
            <DistanceMeters>NAN</DistanceMeters>
          </Trackpoint>
          <Trackpoint>
            <Time>2018-12-30T13:48:59.000Z</Time>
            <Position>
              <LatitudeDegrees>40.74749481864273548126220703125</LatitudeDegrees>
              <LongitudeDegrees>-4.0833227522671222686767578125</LongitudeDegrees>
            </Position>
            <AltitudeMeters>1490</AltitudeMeters>
            <DistanceMeters>NAN</DistanceMeters>
          </Trackpoint>
          <Trackpoint>
            <Time>2018-12-30T13:49:00.000Z</Time>
            <Position>
              <LatitudeDegrees>40.74748660437762737274169921875</LatitudeDegrees>
              <LongitudeDegrees>-4.08332970924675464630126953125</LongitudeDegrees>
            </Position>
            <AltitudeMeters>1489.5999755859375</AltitudeMeters>
            <DistanceMeters>NAN</DistanceMeters>
          </Trackpoint>
          <Trackpoint>
            <Time>2018-12-30T13:49:01.000Z</Time>
            <Position>
              <LatitudeDegrees>40.74747839011251926422119140625</LatitudeDegrees>
              <LongitudeDegrees>-4.083337672054767608642578125</LongitudeDegrees>
            </Position>
            <AltitudeMeters>1489.199951171875</AltitudeMeters>
            <DistanceMeters>NAN</DistanceMeters>
          </Trackpoint>
          <Trackpoint>
            <Time>2018-12-30T13:49:02.000Z</Time>
            <Position>
              <LatitudeDegrees>40.74747118167579174041748046875</LatitudeDegrees>
              <LongitudeDegrees>-4.083348400890827178955078125</LongitudeDegrees>
            </Position>
            <AltitudeMeters>1489</AltitudeMeters>
            <DistanceMeters>NAN</DistanceMeters>
          </Trackpoint>
          <Trackpoint>
            <Time>2018-12-30T13:49:03.000Z</Time>
            <Position>
              <LatitudeDegrees>40.747464559972286224365234375</LatitudeDegrees>
              <LongitudeDegrees>-4.08335049636662006378173828125</LongitudeDegrees>
            </Position>
            <AltitudeMeters>1488.5999755859375</AltitudeMeters>
            <DistanceMeters>NAN</DistanceMeters>
          </Trackpoint>
          <Trackpoint>
            <Time>2018-12-30T13:49:04.000Z</Time>
            <Position>
              <LatitudeDegrees>40.7474590279161930084228515625</LatitudeDegrees>
              <LongitudeDegrees>-4.08334982581436634063720703125</LongitudeDegrees>
            </Position>
            <AltitudeMeters>1488.4000244140625</AltitudeMeters>
            <DistanceMeters>NAN</DistanceMeters>
          </Trackpoint>
          <Trackpoint>
            <Time>2018-12-30T13:49:05.000Z</Time>
            <Position>
              <LatitudeDegrees>40.7474499754607677459716796875</LatitudeDegrees>
              <LongitudeDegrees>-4.083354435861110687255859375</LongitudeDegrees>
            </Position>
            <AltitudeMeters>1488.199951171875</AltitudeMeters>
            <DistanceMeters>NAN</DistanceMeters>
          </Trackpoint>
          <Trackpoint>
            <Time>2018-12-30T13:49:06.000Z</Time>
            <Position>
              <LatitudeDegrees>40.74743798933923244476318359375</LatitudeDegrees>
              <LongitudeDegrees>-4.08335586078464984893798828125</LongitudeDegrees>
            </Position>
            <AltitudeMeters>1488</AltitudeMeters>
            <DistanceMeters>NAN</DistanceMeters>
          </Trackpoint>
          <Trackpoint>
            <Time>2018-12-30T13:49:07.000Z</Time>
            <Position>
              <LatitudeDegrees>40.7474268414080142974853515625</LatitudeDegrees>
              <LongitudeDegrees>-4.08335451968014240264892578125</LongitudeDegrees>
            </Position>
            <AltitudeMeters>1487.800048828125</AltitudeMeters>
            <DistanceMeters>NAN</DistanceMeters>
          </Trackpoint>
          <Trackpoint>
            <Time>2018-12-30T13:49:08.000Z</Time>
            <Position>
              <LatitudeDegrees>40.7474134303629398345947265625</LatitudeDegrees>
              <LongitudeDegrees>-4.0833515860140323638916015625</LongitudeDegrees>
            </Position>
            <AltitudeMeters>1487.5999755859375</AltitudeMeters>
            <DistanceMeters>NAN</DistanceMeters>
          </Trackpoint>
          <Trackpoint>
            <Time>2018-12-30T13:49:09.000Z</Time>
            <Position>
              <LatitudeDegrees>40.747398175299167633056640625</LatitudeDegrees>
              <LongitudeDegrees>-4.08334412612020969390869140625</LongitudeDegrees>
            </Position>
            <AltitudeMeters>1487.5999755859375</AltitudeMeters>
            <DistanceMeters>NAN</DistanceMeters>
          </Trackpoint>
          <Trackpoint>
            <Time>2018-12-30T13:49:10.000Z</Time>
            <Position>
              <LatitudeDegrees>40.74738350696861743927001953125</LatitudeDegrees>
              <LongitudeDegrees>-4.08333809114992618560791015625</LongitudeDegrees>
            </Position>
            <AltitudeMeters>1487.4000244140625</AltitudeMeters>
            <DistanceMeters>NAN</DistanceMeters>
          </Trackpoint>
          <Trackpoint>
            <Time>2018-12-30T13:49:11.000Z</Time>
            <Position>
              <LatitudeDegrees>40.747367329895496368408203125</LatitudeDegrees>
              <LongitudeDegrees>-4.08333599567413330078125</LongitudeDegrees>
            </Position>
            <AltitudeMeters>1487.4000244140625</AltitudeMeters>
            <DistanceMeters>NAN</DistanceMeters>
          </Trackpoint>
          <Trackpoint>
            <Time>2018-12-30T13:49:12.000Z</Time>
            <Position>
              <LatitudeDegrees>40.7473520748317241668701171875</LatitudeDegrees>
              <LongitudeDegrees>-4.0833351574838161468505859375</LongitudeDegrees>
            </Position>
            <AltitudeMeters>1487.4000244140625</AltitudeMeters>
            <DistanceMeters>NAN</DistanceMeters>
          </Trackpoint>
          <Trackpoint>
            <Time>2018-12-30T13:49:13.000Z</Time>
            <Position>
              <LatitudeDegrees>40.74734210036695003509521484375</LatitudeDegrees>
              <LongitudeDegrees>-4.0833292901515960693359375</LongitudeDegrees>
            </Position>
            <AltitudeMeters>1487.4000244140625</AltitudeMeters>
            <DistanceMeters>NAN</DistanceMeters>
          </Trackpoint>
          <Trackpoint>
            <Time>2018-12-30T13:49:14.000Z</Time>
            <Position>
              <LatitudeDegrees>40.7473321259021759033203125</LatitudeDegrees>
              <LongitudeDegrees>-4.08332727849483489990234375</LongitudeDegrees>
            </Position>
            <AltitudeMeters>1487.4000244140625</AltitudeMeters>
            <DistanceMeters>NAN</DistanceMeters>
          </Trackpoint>
          <Trackpoint>
            <Time>2018-12-30T13:49:15.000Z</Time>
            <Position>
              <LatitudeDegrees>40.7473249174654483795166015625</LatitudeDegrees>
              <LongitudeDegrees>-4.0833224169909954071044921875</LongitudeDegrees>
            </Position>
            <AltitudeMeters>1487</AltitudeMeters>
            <DistanceMeters>NAN</DistanceMeters>
          </Trackpoint>
          <Trackpoint>
            <Time>2018-12-30T13:49:16.000Z</Time>
            <Position>
              <LatitudeDegrees>40.74731695465743541717529296875</LatitudeDegrees>
              <LongitudeDegrees>-4.08331780694425106048583984375</LongitudeDegrees>
            </Position>
            <AltitudeMeters>1486.800048828125</AltitudeMeters>
            <DistanceMeters>NAN</DistanceMeters>
          </Trackpoint>
          <Trackpoint>
            <Time>2018-12-30T13:49:17.000Z</Time>
            <Position>
              <LatitudeDegrees>40.7473091594874858856201171875</LatitudeDegrees>
              <LongitudeDegrees>-4.08331613056361675262451171875</LongitudeDegrees>
            </Position>
            <AltitudeMeters>1486.5999755859375</AltitudeMeters>
            <DistanceMeters>NAN</DistanceMeters>
          </Trackpoint>
          <Trackpoint>
            <Time>2018-12-30T13:49:18.000Z</Time>
            <Position>
              <LatitudeDegrees>40.747286863625049591064453125</LatitudeDegrees>
              <LongitudeDegrees>-4.0833204053342342376708984375</LongitudeDegrees>
            </Position>
            <AltitudeMeters>1486.4000244140625</AltitudeMeters>
            <DistanceMeters>NAN</DistanceMeters>
          </Trackpoint>
          <Trackpoint>
            <Time>2018-12-30T13:49:19.000Z</Time>
            <Position>
              <LatitudeDegrees>40.74727839790284633636474609375</LatitudeDegrees>
              <LongitudeDegrees>-4.08331378363072872161865234375</LongitudeDegrees>
            </Position>
            <AltitudeMeters>1486.199951171875</AltitudeMeters>
            <DistanceMeters>NAN</DistanceMeters>
          </Trackpoint>
          <Trackpoint>
            <Time>2018-12-30T13:49:20.000Z</Time>
            <Position>
              <LatitudeDegrees>40.74726984836161136627197265625</LatitudeDegrees>
              <LongitudeDegrees>-4.083303473889827728271484375</LongitudeDegrees>
            </Position>
            <AltitudeMeters>1486.199951171875</AltitudeMeters>
            <DistanceMeters>NAN</DistanceMeters>
          </Trackpoint>
          <Trackpoint>
            <Time>2018-12-30T13:49:21.000Z</Time>
            <Position>
              <LatitudeDegrees>40.747259370982646942138671875</LatitudeDegrees>
              <LongitudeDegrees>-4.083292074501514434814453125</LongitudeDegrees>
            </Position>
            <AltitudeMeters>1486.199951171875</AltitudeMeters>
            <DistanceMeters>NAN</DistanceMeters>
          </Trackpoint>
          <Trackpoint>
            <Time>2018-12-30T13:49:22.000Z</Time>
            <Position>
              <LatitudeDegrees>40.7472478039562702178955078125</LatitudeDegrees>
              <LongitudeDegrees>-4.0832654200494289398193359375</LongitudeDegrees>
            </Position>
            <AltitudeMeters>1486</AltitudeMeters>
            <DistanceMeters>NAN</DistanceMeters>
          </Trackpoint>
          <Trackpoint>
            <Time>2018-12-30T13:49:23.000Z</Time>
            <Position>
              <LatitudeDegrees>40.747240595519542694091796875</LatitudeDegrees>
              <LongitudeDegrees>-4.08325812779366970062255859375</LongitudeDegrees>
            </Position>
            <AltitudeMeters>1485.800048828125</AltitudeMeters>
            <DistanceMeters>NAN</DistanceMeters>
          </Trackpoint>
          <Trackpoint>
            <Time>2018-12-30T13:49:24.000Z</Time>
            <Position>
              <LatitudeDegrees>40.7472364045679569244384765625</LatitudeDegrees>
              <LongitudeDegrees>-4.0832439623773097991943359375</LongitudeDegrees>
            </Position>
            <AltitudeMeters>1485.4000244140625</AltitudeMeters>
            <DistanceMeters>NAN</DistanceMeters>
          </Trackpoint>
          <Trackpoint>
            <Time>2018-12-30T13:49:25.000Z</Time>
            <Position>
              <LatitudeDegrees>40.7472320459783077239990234375</LatitudeDegrees>
              <LongitudeDegrees>-4.08323532901704311370849609375</LongitudeDegrees>
            </Position>
            <AltitudeMeters>1485</AltitudeMeters>
            <DistanceMeters>NAN</DistanceMeters>
          </Trackpoint>
          <Trackpoint>
            <Time>2018-12-30T13:49:26.000Z</Time>
            <Position>
              <LatitudeDegrees>40.747217796742916107177734375</LatitudeDegrees>
              <LongitudeDegrees>-4.08324270509183406829833984375</LongitudeDegrees>
            </Position>
            <AltitudeMeters>1484.5999755859375</AltitudeMeters>
            <DistanceMeters>NAN</DistanceMeters>
          </Trackpoint>
          <Trackpoint>
            <Time>2018-12-30T13:49:27.000Z</Time>
            <Position>
              <LatitudeDegrees>40.74721218086779117584228515625</LatitudeDegrees>
              <LongitudeDegrees>-4.08325075171887874603271484375</LongitudeDegrees>
            </Position>
            <AltitudeMeters>1484</AltitudeMeters>
            <DistanceMeters>NAN</DistanceMeters>
          </Trackpoint>
          <Trackpoint>
            <Time>2018-12-30T13:49:28.000Z</Time>
            <Position>
              <LatitudeDegrees>40.74719575233757495880126953125</LatitudeDegrees>
              <LongitudeDegrees>-4.0832657553255558013916015625</LongitudeDegrees>
            </Position>
            <AltitudeMeters>1483.800048828125</AltitudeMeters>
            <DistanceMeters>NAN</DistanceMeters>
          </Trackpoint>
          <Trackpoint>
            <Time>2018-12-30T13:49:29.000Z</Time>
            <Position>
              <LatitudeDegrees>40.74718485586345195770263671875</LatitudeDegrees>
              <LongitudeDegrees>-4.0832801721990108489990234375</LongitudeDegrees>
            </Position>
            <AltitudeMeters>1483.5999755859375</AltitudeMeters>
            <DistanceMeters>NAN</DistanceMeters>
          </Trackpoint>
          <Trackpoint>
            <Time>2018-12-30T13:49:30.000Z</Time>
            <Position>
              <LatitudeDegrees>40.74717613868415355682373046875</LatitudeDegrees>
              <LongitudeDegrees>-4.0832756459712982177734375</LongitudeDegrees>
            </Position>
            <AltitudeMeters>1483.4000244140625</AltitudeMeters>
            <DistanceMeters>NAN</DistanceMeters>
          </Trackpoint>
          <Trackpoint>
            <Time>2018-12-30T13:49:31.000Z</Time>
            <Position>
              <LatitudeDegrees>40.747171528637409210205078125</LatitudeDegrees>
              <LongitudeDegrees>-4.083270616829395294189453125</LongitudeDegrees>
            </Position>
            <AltitudeMeters>1483.4000244140625</AltitudeMeters>
            <DistanceMeters>NAN</DistanceMeters>
          </Trackpoint>
          <Trackpoint>
            <Time>2018-12-30T13:49:32.000Z</Time>
            <Position>
              <LatitudeDegrees>40.74716859497129917144775390625</LatitudeDegrees>
              <LongitudeDegrees>-4.083266593515872955322265625</LongitudeDegrees>
            </Position>
            <AltitudeMeters>1483.4000244140625</AltitudeMeters>
            <DistanceMeters>NAN</DistanceMeters>
          </Trackpoint>
          <Trackpoint>
            <Time>2018-12-30T13:49:33.000Z</Time>
            <Position>
              <LatitudeDegrees>40.7471586205065250396728515625</LatitudeDegrees>
              <LongitudeDegrees>-4.08327723853290081024169921875</LongitudeDegrees>
            </Position>
            <AltitudeMeters>1483.199951171875</AltitudeMeters>
            <DistanceMeters>NAN</DistanceMeters>
          </Trackpoint>
          <Trackpoint>
            <Time>2018-12-30T13:49:34.000Z</Time>
            <Position>
              <LatitudeDegrees>40.74715283699333667755126953125</LatitudeDegrees>
              <LongitudeDegrees>-4.08328880555927753448486328125</LongitudeDegrees>
            </Position>
            <AltitudeMeters>1483</AltitudeMeters>
            <DistanceMeters>NAN</DistanceMeters>
          </Trackpoint>
          <Trackpoint>
            <Time>2018-12-30T13:49:35.000Z</Time>
            <Position>
              <LatitudeDegrees>40.74714512564241886138916015625</LatitudeDegrees>
              <LongitudeDegrees>-4.08328712917864322662353515625</LongitudeDegrees>
            </Position>
            <AltitudeMeters>1482.800048828125</AltitudeMeters>
            <DistanceMeters>NAN</DistanceMeters>
          </Trackpoint>
          <Trackpoint>
            <Time>2018-12-30T13:49:36.000Z</Time>
            <Position>
              <LatitudeDegrees>40.747142024338245391845703125</LatitudeDegrees>
              <LongitudeDegrees>-4.0832872129976749420166015625</LongitudeDegrees>
            </Position>
            <AltitudeMeters>1482.5999755859375</AltitudeMeters>
            <DistanceMeters>NAN</DistanceMeters>
          </Trackpoint>
          <Trackpoint>
            <Time>2018-12-30T13:49:37.000Z</Time>
            <Position>
              <LatitudeDegrees>40.74714059941470623016357421875</LatitudeDegrees>
              <LongitudeDegrees>-4.083282686769962310791015625</LongitudeDegrees>
            </Position>
            <AltitudeMeters>1482.4000244140625</AltitudeMeters>
            <DistanceMeters>NAN</DistanceMeters>
          </Trackpoint>
          <Trackpoint>
            <Time>2018-12-30T13:49:38.000Z</Time>
            <Position>
              <LatitudeDegrees>40.74713137932121753692626953125</LatitudeDegrees>
              <LongitudeDegrees>-4.08328075893223285675048828125</LongitudeDegrees>
            </Position>
            <AltitudeMeters>1482</AltitudeMeters>
            <DistanceMeters>NAN</DistanceMeters>
          </Trackpoint>
          <Trackpoint>
            <Time>2018-12-30T13:49:39.000Z</Time>
            <Position>
              <LatitudeDegrees>40.74712249450385570526123046875</LatitudeDegrees>
              <LongitudeDegrees>-4.0832764841616153717041015625</LongitudeDegrees>
            </Position>
            <AltitudeMeters>1481.5999755859375</AltitudeMeters>
            <DistanceMeters>NAN</DistanceMeters>
          </Trackpoint>
          <Trackpoint>
            <Time>2018-12-30T13:49:40.000Z</Time>
            <Position>
              <LatitudeDegrees>40.7471103407442569732666015625</LatitudeDegrees>
              <LongitudeDegrees>-4.08327304758131504058837890625</LongitudeDegrees>
            </Position>
            <AltitudeMeters>1481.4000244140625</AltitudeMeters>
            <DistanceMeters>NAN</DistanceMeters>
          </Trackpoint>
          <Trackpoint>
            <Time>2018-12-30T13:49:41.000Z</Time>
            <Position>
              <LatitudeDegrees>40.747107155621051788330078125</LatitudeDegrees>
              <LongitudeDegrees>-4.0832540206611156463623046875</LongitudeDegrees>
            </Position>
            <AltitudeMeters>1481.4000244140625</AltitudeMeters>
            <DistanceMeters>NAN</DistanceMeters>
          </Trackpoint>
          <Trackpoint>
            <Time>2018-12-30T13:49:42.000Z</Time>
            <Position>
              <LatitudeDegrees>40.7470925711095333099365234375</LatitudeDegrees>
              <LongitudeDegrees>-4.08324907533824443817138671875</LongitudeDegrees>
            </Position>
            <AltitudeMeters>1481.199951171875</AltitudeMeters>
            <DistanceMeters>NAN</DistanceMeters>
          </Trackpoint>
          <Trackpoint>
            <Time>2018-12-30T13:49:43.000Z</Time>
            <Position>
              <LatitudeDegrees>40.74707941152155399322509765625</LatitudeDegrees>
              <LongitudeDegrees>-4.0832412801682949066162109375</LongitudeDegrees>
            </Position>
            <AltitudeMeters>1481.199951171875</AltitudeMeters>
            <DistanceMeters>NAN</DistanceMeters>
          </Trackpoint>
          <Trackpoint>
            <Time>2018-12-30T13:49:44.000Z</Time>
            <Position>
              <LatitudeDegrees>40.74706918559968471527099609375</LatitudeDegrees>
              <LongitudeDegrees>-4.0832392685115337371826171875</LongitudeDegrees>
            </Position>
            <AltitudeMeters>1481</AltitudeMeters>
            <DistanceMeters>NAN</DistanceMeters>
          </Trackpoint>
          <Trackpoint>
            <Time>2018-12-30T13:49:45.000Z</Time>
            <Position>
              <LatitudeDegrees>40.7470667548477649688720703125</LatitudeDegrees>
              <LongitudeDegrees>-4.08323742449283599853515625</LongitudeDegrees>
            </Position>
            <AltitudeMeters>1480.800048828125</AltitudeMeters>
            <DistanceMeters>NAN</DistanceMeters>
          </Trackpoint>
          <Trackpoint>
            <Time>2018-12-30T13:49:46.000Z</Time>
            <Position>
              <LatitudeDegrees>40.74706248007714748382568359375</LatitudeDegrees>
              <LongitudeDegrees>-4.0832389332354068756103515625</LongitudeDegrees>
            </Position>
            <AltitudeMeters>1480.4000244140625</AltitudeMeters>
            <DistanceMeters>NAN</DistanceMeters>
          </Trackpoint>
          <Trackpoint>
            <Time>2018-12-30T13:49:47.000Z</Time>
            <Position>
              <LatitudeDegrees>40.7470486499369144439697265625</LatitudeDegrees>
              <LongitudeDegrees>-4.08323415555059909820556640625</LongitudeDegrees>
            </Position>
            <AltitudeMeters>1480.199951171875</AltitudeMeters>
            <DistanceMeters>NAN</DistanceMeters>
          </Trackpoint>
          <Trackpoint>
            <Time>2018-12-30T13:49:48.000Z</Time>
            <Position>
              <LatitudeDegrees>40.74704035185277462005615234375</LatitudeDegrees>
              <LongitudeDegrees>-4.08322711475193500518798828125</LongitudeDegrees>
            </Position>
            <AltitudeMeters>1480</AltitudeMeters>
            <DistanceMeters>NAN</DistanceMeters>
          </Trackpoint>
          <Trackpoint>
            <Time>2018-12-30T13:49:49.000Z</Time>
            <Position>
              <LatitudeDegrees>40.74703373014926910400390625</LatitudeDegrees>
              <LongitudeDegrees>-4.08322594128549098968505859375</LongitudeDegrees>
            </Position>
            <AltitudeMeters>1479.800048828125</AltitudeMeters>
            <DistanceMeters>NAN</DistanceMeters>
          </Trackpoint>
          <Trackpoint>
            <Time>2018-12-30T13:49:50.000Z</Time>
            <Position>
              <LatitudeDegrees>40.7470275275409221649169921875</LatitudeDegrees>
              <LongitudeDegrees>-4.08322208561003208160400390625</LongitudeDegrees>
            </Position>
            <AltitudeMeters>1479.4000244140625</AltitudeMeters>
            <DistanceMeters>NAN</DistanceMeters>
          </Trackpoint>
          <Trackpoint>
            <Time>2018-12-30T13:49:51.000Z</Time>
            <Position>
              <LatitudeDegrees>40.7470191456377506256103515625</LatitudeDegrees>
              <LongitudeDegrees>-4.08322309143841266632080078125</LongitudeDegrees>
            </Position>
            <AltitudeMeters>1479.4000244140625</AltitudeMeters>
            <DistanceMeters>NAN</DistanceMeters>
          </Trackpoint>
          <Trackpoint>
            <Time>2018-12-30T13:49:52.000Z</Time>
            <Position>
              <LatitudeDegrees>40.74700682424008846282958984375</LatitudeDegrees>
              <LongitudeDegrees>-4.08321194350719451904296875</LongitudeDegrees>
            </Position>
            <AltitudeMeters>1479.199951171875</AltitudeMeters>
            <DistanceMeters>NAN</DistanceMeters>
          </Trackpoint>
          <Trackpoint>
            <Time>2018-12-30T13:49:53.000Z</Time>
            <Position>
              <LatitudeDegrees>40.74699944816529750823974609375</LatitudeDegrees>
              <LongitudeDegrees>-4.08320766873657703399658203125</LongitudeDegrees>
            </Position>
            <AltitudeMeters>1479</AltitudeMeters>
            <DistanceMeters>NAN</DistanceMeters>
          </Trackpoint>
          <Trackpoint>
            <Time>2018-12-30T13:49:54.000Z</Time>
            <Position>
              <LatitudeDegrees>40.7469943352043628692626953125</LatitudeDegrees>
              <LongitudeDegrees>-4.08320481888949871063232421875</LongitudeDegrees>
            </Position>
            <AltitudeMeters>1479</AltitudeMeters>
            <DistanceMeters>NAN</DistanceMeters>
          </Trackpoint>
          <Trackpoint>
            <Time>2018-12-30T13:49:55.000Z</Time>
            <Position>
              <LatitudeDegrees>40.74698603712022304534912109375</LatitudeDegrees>
              <LongitudeDegrees>-4.08319945447146892547607421875</LongitudeDegrees>
            </Position>
            <AltitudeMeters>1479</AltitudeMeters>
            <DistanceMeters>NAN</DistanceMeters>
          </Trackpoint>
          <Trackpoint>
            <Time>2018-12-30T13:49:56.000Z</Time>
            <Position>
              <LatitudeDegrees>40.74697748757898807525634765625</LatitudeDegrees>
              <LongitudeDegrees>-4.083186127245426177978515625</LongitudeDegrees>
            </Position>
            <AltitudeMeters>1479</AltitudeMeters>
            <DistanceMeters>NAN</DistanceMeters>
          </Trackpoint>
          <Trackpoint>
            <Time>2018-12-30T13:49:57.000Z</Time>
            <Position>
              <LatitudeDegrees>40.7469700276851654052734375</LatitudeDegrees>
              <LongitudeDegrees>-4.08318202011287212371826171875</LongitudeDegrees>
            </Position>
            <AltitudeMeters>1479.199951171875</AltitudeMeters>
            <DistanceMeters>NAN</DistanceMeters>
          </Trackpoint>
          <Trackpoint>
            <Time>2018-12-30T13:49:58.000Z</Time>
            <Position>
              <LatitudeDegrees>40.74696642346680164337158203125</LatitudeDegrees>
              <LongitudeDegrees>-4.0831769071519374847412109375</LongitudeDegrees>
            </Position>
            <AltitudeMeters>1479.199951171875</AltitudeMeters>
            <DistanceMeters>NAN</DistanceMeters>
          </Trackpoint>
          <Trackpoint>
            <Time>2018-12-30T13:49:59.000Z</Time>
            <Position>
              <LatitudeDegrees>40.74695401825010776519775390625</LatitudeDegrees>
              <LongitudeDegrees>-4.0831710398197174072265625</LongitudeDegrees>
            </Position>
            <AltitudeMeters>1479.199951171875</AltitudeMeters>
            <DistanceMeters>NAN</DistanceMeters>
          </Trackpoint>
          <Trackpoint>
            <Time>2018-12-30T13:50:00.000Z</Time>
            <Position>
              <LatitudeDegrees>40.74694630689918994903564453125</LatitudeDegrees>
              <LongitudeDegrees>-4.0831695310771465301513671875</LongitudeDegrees>
            </Position>
            <AltitudeMeters>1479.199951171875</AltitudeMeters>
            <DistanceMeters>NAN</DistanceMeters>
          </Trackpoint>
          <Trackpoint>
            <Time>2018-12-30T13:50:01.000Z</Time>
            <Position>
              <LatitudeDegrees>40.74693943373858928680419921875</LatitudeDegrees>
              <LongitudeDegrees>-4.08315838314592838287353515625</LongitudeDegrees>
            </Position>
            <AltitudeMeters>1479</AltitudeMeters>
            <DistanceMeters>NAN</DistanceMeters>
          </Trackpoint>
          <Trackpoint>
            <Time>2018-12-30T13:50:02.000Z</Time>
            <Position>
              <LatitudeDegrees>40.74692820198833942413330078125</LatitudeDegrees>
              <LongitudeDegrees>-4.08314899541437625885009765625</LongitudeDegrees>
            </Position>
            <AltitudeMeters>1478.800048828125</AltitudeMeters>
            <DistanceMeters>NAN</DistanceMeters>
          </Trackpoint>
          <Trackpoint>
            <Time>2018-12-30T13:50:03.000Z</Time>
            <Position>
              <LatitudeDegrees>40.7469131983816623687744140625</LatitudeDegrees>
              <LongitudeDegrees>-4.083143211901187896728515625</LongitudeDegrees>
            </Position>
            <AltitudeMeters>1478.5999755859375</AltitudeMeters>
            <DistanceMeters>NAN</DistanceMeters>
          </Trackpoint>
          <Trackpoint>
            <Time>2018-12-30T13:50:04.000Z</Time>
            <Position>
              <LatitudeDegrees>40.74689987115561962127685546875</LatitudeDegrees>
              <LongitudeDegrees>-4.083139859139919281005859375</LongitudeDegrees>
            </Position>
            <AltitudeMeters>1478.4000244140625</AltitudeMeters>
            <DistanceMeters>NAN</DistanceMeters>
          </Trackpoint>
          <Trackpoint>
            <Time>2018-12-30T13:50:05.000Z</Time>
            <Position>
              <LatitudeDegrees>40.746887885034084320068359375</LatitudeDegrees>
              <LongitudeDegrees>-4.0831522643566131591796875</LongitudeDegrees>
            </Position>
            <AltitudeMeters>1478.199951171875</AltitudeMeters>
            <DistanceMeters>NAN</DistanceMeters>
          </Trackpoint>
          <Trackpoint>
            <Time>2018-12-30T13:50:06.000Z</Time>
            <Position>
              <LatitudeDegrees>40.7468779943883419036865234375</LatitudeDegrees>
              <LongitudeDegrees>-4.083156622946262359619140625</LongitudeDegrees>
            </Position>
            <AltitudeMeters>1478.199951171875</AltitudeMeters>
            <DistanceMeters>NAN</DistanceMeters>
          </Trackpoint>
          <Trackpoint>
            <Time>2018-12-30T13:50:07.000Z</Time>
            <Position>
              <LatitudeDegrees>40.7468645833432674407958984375</LatitudeDegrees>
              <LongitudeDegrees>-4.08314497210085391998291015625</LongitudeDegrees>
            </Position>
            <AltitudeMeters>1478</AltitudeMeters>
            <DistanceMeters>NAN</DistanceMeters>
          </Trackpoint>
          <Trackpoint>
            <Time>2018-12-30T13:50:08.000Z</Time>
            <Position>
              <LatitudeDegrees>40.7468548603355884552001953125</LatitudeDegrees>
              <LongitudeDegrees>-4.08313608728349208831787109375</LongitudeDegrees>
            </Position>
            <AltitudeMeters>1477.800048828125</AltitudeMeters>
            <DistanceMeters>NAN</DistanceMeters>
          </Trackpoint>
          <Trackpoint>
            <Time>2018-12-30T13:50:09.000Z</Time>
            <Position>
              <LatitudeDegrees>40.7468501664698123931884765625</LatitudeDegrees>
              <LongitudeDegrees>-4.08311404287815093994140625</LongitudeDegrees>
            </Position>
            <AltitudeMeters>1477.5999755859375</AltitudeMeters>
            <DistanceMeters>NAN</DistanceMeters>
          </Trackpoint>
          <Trackpoint>
            <Time>2018-12-30T13:50:10.000Z</Time>
            <Position>
              <LatitudeDegrees>40.7468464784324169158935546875</LatitudeDegrees>
              <LongitudeDegrees>-4.0830905735492706298828125</LongitudeDegrees>
            </Position>
            <AltitudeMeters>1477.4000244140625</AltitudeMeters>
            <DistanceMeters>NAN</DistanceMeters>
          </Trackpoint>
          <Trackpoint>
            <Time>2018-12-30T13:50:11.000Z</Time>
            <Position>
              <LatitudeDegrees>40.74683331884443759918212890625</LatitudeDegrees>
              <LongitudeDegrees>-4.0830719657242298126220703125</LongitudeDegrees>
            </Position>
            <AltitudeMeters>1477.199951171875</AltitudeMeters>
            <DistanceMeters>NAN</DistanceMeters>
          </Trackpoint>
          <Trackpoint>
            <Time>2018-12-30T13:50:12.000Z</Time>
            <Position>
              <LatitudeDegrees>40.746829211711883544921875</LatitudeDegrees>
              <LongitudeDegrees>-4.08305830322206020355224609375</LongitudeDegrees>
            </Position>
            <AltitudeMeters>1477.199951171875</AltitudeMeters>
            <DistanceMeters>NAN</DistanceMeters>
          </Trackpoint>
          <Trackpoint>
            <Time>2018-12-30T13:50:13.000Z</Time>
            <Position>
              <LatitudeDegrees>40.74682560749351978302001953125</LatitudeDegrees>
              <LongitudeDegrees>-4.0830427967011928558349609375</LongitudeDegrees>
            </Position>
            <AltitudeMeters>1477</AltitudeMeters>
            <DistanceMeters>NAN</DistanceMeters>
          </Trackpoint>
          <Trackpoint>
            <Time>2018-12-30T13:50:14.000Z</Time>
            <Position>
              <LatitudeDegrees>40.74683214537799358367919921875</LatitudeDegrees>
              <LongitudeDegrees>-4.08303231932222843170166015625</LongitudeDegrees>
            </Position>
            <AltitudeMeters>1477</AltitudeMeters>
            <DistanceMeters>NAN</DistanceMeters>
          </Trackpoint>
          <Trackpoint>
            <Time>2018-12-30T13:50:15.000Z</Time>
            <Position>
              <LatitudeDegrees>40.7468307204544544219970703125</LatitudeDegrees>
              <LongitudeDegrees>-4.0830220095813274383544921875</LongitudeDegrees>
            </Position>
            <AltitudeMeters>1477</AltitudeMeters>
            <DistanceMeters>NAN</DistanceMeters>
          </Trackpoint>
          <Trackpoint>
            <Time>2018-12-30T13:50:16.000Z</Time>
            <Position>
              <LatitudeDegrees>40.7468290440738201141357421875</LatitudeDegrees>
              <LongitudeDegrees>-4.08301723189651966094970703125</LongitudeDegrees>
            </Position>
            <AltitudeMeters>1476.800048828125</AltitudeMeters>
            <DistanceMeters>NAN</DistanceMeters>
          </Trackpoint>
          <Trackpoint>
            <Time>2018-12-30T13:50:17.000Z</Time>
            <Position>
              <LatitudeDegrees>40.74683147482573986053466796875</LatitudeDegrees>
              <LongitudeDegrees>-4.08301253803074359893798828125</LongitudeDegrees>
            </Position>
            <AltitudeMeters>1476.800048828125</AltitudeMeters>
            <DistanceMeters>NAN</DistanceMeters>
          </Trackpoint>
          <Trackpoint>
            <Time>2018-12-30T13:50:18.000Z</Time>
            <Position>
              <LatitudeDegrees>40.7468330673873424530029296875</LatitudeDegrees>
              <LongitudeDegrees>-4.08300834707915782928466796875</LongitudeDegrees>
            </Position>
            <AltitudeMeters>1476.5999755859375</AltitudeMeters>
            <DistanceMeters>NAN</DistanceMeters>
          </Trackpoint>
          <Trackpoint>
            <Time>2018-12-30T13:50:19.000Z</Time>
            <Position>
              <LatitudeDegrees>40.7468360848724842071533203125</LatitudeDegrees>
              <LongitudeDegrees>-4.08301304094493389129638671875</LongitudeDegrees>
            </Position>
            <AltitudeMeters>1476.4000244140625</AltitudeMeters>
            <DistanceMeters>NAN</DistanceMeters>
          </Trackpoint>
          <Trackpoint>
            <Time>2018-12-30T13:50:20.000Z</Time>
            <Position>
              <LatitudeDegrees>40.74683767743408679962158203125</LatitudeDegrees>
              <LongitudeDegrees>-4.0830052457749843597412109375</LongitudeDegrees>
            </Position>
            <AltitudeMeters>1476</AltitudeMeters>
            <DistanceMeters>NAN</DistanceMeters>
          </Trackpoint>
          <Trackpoint>
            <Time>2018-12-30T13:50:21.000Z</Time>
            <Position>
              <LatitudeDegrees>40.74683549813926219940185546875</LatitudeDegrees>
              <LongitudeDegrees>-4.08300247974693775177001953125</LongitudeDegrees>
            </Position>
            <AltitudeMeters>1475.800048828125</AltitudeMeters>
            <DistanceMeters>NAN</DistanceMeters>
          </Trackpoint>
          <Trackpoint>
            <Time>2018-12-30T13:50:22.000Z</Time>
            <Position>
              <LatitudeDegrees>40.74683348648250102996826171875</LatitudeDegrees>
              <LongitudeDegrees>-4.08298932015895843505859375</LongitudeDegrees>
            </Position>
            <AltitudeMeters>1475.4000244140625</AltitudeMeters>
            <DistanceMeters>NAN</DistanceMeters>
          </Trackpoint>
          <Trackpoint>
            <Time>2018-12-30T13:50:23.000Z</Time>
            <Position>
              <LatitudeDegrees>40.7468323968350887298583984375</LatitudeDegrees>
              <LongitudeDegrees>-4.082970209419727325439453125</LongitudeDegrees>
            </Position>
            <AltitudeMeters>1475.199951171875</AltitudeMeters>
            <DistanceMeters>NAN</DistanceMeters>
          </Trackpoint>
          <Trackpoint>
            <Time>2018-12-30T13:50:24.000Z</Time>
            <Position>
              <LatitudeDegrees>40.74682812206447124481201171875</LatitudeDegrees>
              <LongitudeDegrees>-4.08294397406280040740966796875</LongitudeDegrees>
            </Position>
            <AltitudeMeters>1474.800048828125</AltitudeMeters>
            <DistanceMeters>NAN</DistanceMeters>
          </Trackpoint>
          <Trackpoint>
            <Time>2018-12-30T13:50:25.000Z</Time>
            <Position>
              <LatitudeDegrees>40.74682694859802722930908203125</LatitudeDegrees>
              <LongitudeDegrees>-4.0829197503626346588134765625</LongitudeDegrees>
            </Position>
            <AltitudeMeters>1474.5999755859375</AltitudeMeters>
            <DistanceMeters>NAN</DistanceMeters>
          </Trackpoint>
          <Trackpoint>
            <Time>2018-12-30T13:50:26.000Z</Time>
            <Position>
              <LatitudeDegrees>40.7468290440738201141357421875</LatitudeDegrees>
              <LongitudeDegrees>-4.08290223218500614166259765625</LongitudeDegrees>
            </Position>
            <AltitudeMeters>1474.4000244140625</AltitudeMeters>
            <DistanceMeters>NAN</DistanceMeters>
          </Trackpoint>
          <Trackpoint>
            <Time>2018-12-30T13:50:27.000Z</Time>
            <Position>
              <LatitudeDegrees>40.7468337379395961761474609375</LatitudeDegrees>
              <LongitudeDegrees>-4.0828832052648067474365234375</LongitudeDegrees>
            </Position>
            <AltitudeMeters>1474.199951171875</AltitudeMeters>
            <DistanceMeters>NAN</DistanceMeters>
          </Trackpoint>
          <Trackpoint>
            <Time>2018-12-30T13:50:28.000Z</Time>
            <Position>
              <LatitudeDegrees>40.7468359172344207763671875</LatitudeDegrees>
              <LongitudeDegrees>-4.08286166377365589141845703125</LongitudeDegrees>
            </Position>
            <AltitudeMeters>1474</AltitudeMeters>
            <DistanceMeters>NAN</DistanceMeters>
          </Trackpoint>
          <Trackpoint>
            <Time>2018-12-30T13:50:29.000Z</Time>
            <Position>
              <LatitudeDegrees>40.7468374259769916534423828125</LatitudeDegrees>
              <LongitudeDegrees>-4.082841463387012481689453125</LongitudeDegrees>
            </Position>
            <AltitudeMeters>1473.5999755859375</AltitudeMeters>
            <DistanceMeters>NAN</DistanceMeters>
          </Trackpoint>
          <Trackpoint>
            <Time>2018-12-30T13:50:30.000Z</Time>
            <Position>
              <LatitudeDegrees>40.7468367554247379302978515625</LatitudeDegrees>
              <LongitudeDegrees>-4.08282436430454254150390625</LongitudeDegrees>
            </Position>
            <AltitudeMeters>1473.4000244140625</AltitudeMeters>
            <DistanceMeters>NAN</DistanceMeters>
          </Trackpoint>
          <Trackpoint>
            <Time>2018-12-30T13:50:31.000Z</Time>
            <Position>
              <LatitudeDegrees>40.74683767743408679962158203125</LatitudeDegrees>
              <LongitudeDegrees>-4.0828131325542926788330078125</LongitudeDegrees>
            </Position>
            <AltitudeMeters>1473.4000244140625</AltitudeMeters>
            <DistanceMeters>NAN</DistanceMeters>
          </Trackpoint>
          <Trackpoint>
            <Time>2018-12-30T13:50:32.000Z</Time>
            <Position>
              <LatitudeDegrees>40.74682292528450489044189453125</LatitudeDegrees>
              <LongitudeDegrees>-4.0828117914497852325439453125</LongitudeDegrees>
            </Position>
            <AltitudeMeters>1473.199951171875</AltitudeMeters>
            <DistanceMeters>NAN</DistanceMeters>
          </Trackpoint>
          <Trackpoint>
            <Time>2018-12-30T13:50:33.000Z</Time>
            <Position>
              <LatitudeDegrees>40.7468163035809993743896484375</LatitudeDegrees>
              <LongitudeDegrees>-4.08282076008617877960205078125</LongitudeDegrees>
            </Position>
            <AltitudeMeters>1473.199951171875</AltitudeMeters>
            <DistanceMeters>NAN</DistanceMeters>
          </Trackpoint>
          <Trackpoint>
            <Time>2018-12-30T13:50:34.000Z</Time>
            <Position>
              <LatitudeDegrees>40.7468136213719844818115234375</LatitudeDegrees>
              <LongitudeDegrees>-4.08283106982707977294921875</LongitudeDegrees>
            </Position>
            <AltitudeMeters>1472.800048828125</AltitudeMeters>
            <DistanceMeters>NAN</DistanceMeters>
          </Trackpoint>
          <Trackpoint>
            <Time>2018-12-30T13:50:35.000Z</Time>
            <Position>
              <LatitudeDegrees>40.746811442077159881591796875</LatitudeDegrees>
              <LongitudeDegrees>-4.0828446485102176666259765625</LongitudeDegrees>
            </Position>
            <AltitudeMeters>1472.5999755859375</AltitudeMeters>
            <DistanceMeters>NAN</DistanceMeters>
          </Trackpoint>
          <Trackpoint>
            <Time>2018-12-30T13:50:36.000Z</Time>
            <Position>
              <LatitudeDegrees>40.746814794838428497314453125</LatitudeDegrees>
              <LongitudeDegrees>-4.08284087665379047393798828125</LongitudeDegrees>
            </Position>
            <AltitudeMeters>1472.4000244140625</AltitudeMeters>
            <DistanceMeters>NAN</DistanceMeters>
          </Trackpoint>
          <Trackpoint>
            <Time>2018-12-30T13:50:37.000Z</Time>
            <Position>
              <LatitudeDegrees>40.7468149624764919281005859375</LatitudeDegrees>
              <LongitudeDegrees>-4.082843475043773651123046875</LongitudeDegrees>
            </Position>
            <AltitudeMeters>1472.4000244140625</AltitudeMeters>
            <DistanceMeters>NAN</DistanceMeters>
          </Trackpoint>
          <Trackpoint>
            <Time>2018-12-30T13:50:38.000Z</Time>
            <Position>
              <LatitudeDegrees>40.746814794838428497314453125</LatitudeDegrees>
              <LongitudeDegrees>-4.08284506760537624359130859375</LongitudeDegrees>
            </Position>
            <AltitudeMeters>1472.199951171875</AltitudeMeters>
            <DistanceMeters>NAN</DistanceMeters>
          </Trackpoint>
          <Trackpoint>
            <Time>2018-12-30T13:50:39.000Z</Time>
            <Position>
              <LatitudeDegrees>40.74682057835161685943603515625</LatitudeDegrees>
              <LongitudeDegrees>-4.0828483365476131439208984375</LongitudeDegrees>
            </Position>
            <AltitudeMeters>1472.199951171875</AltitudeMeters>
            <DistanceMeters>NAN</DistanceMeters>
          </Trackpoint>
          <Trackpoint>
            <Time>2018-12-30T13:50:40.000Z</Time>
            <Position>
              <LatitudeDegrees>40.74682426638901233673095703125</LatitudeDegrees>
              <LongitudeDegrees>-4.08285277895629405975341796875</LongitudeDegrees>
            </Position>
            <AltitudeMeters>1472.199951171875</AltitudeMeters>
            <DistanceMeters>NAN</DistanceMeters>
          </Trackpoint>
          <Trackpoint>
            <Time>2018-12-30T13:50:41.000Z</Time>
            <Position>
              <LatitudeDegrees>40.7468246854841709136962890625</LatitudeDegrees>
              <LongitudeDegrees>-4.08285747282207012176513671875</LongitudeDegrees>
            </Position>
            <AltitudeMeters>1472</AltitudeMeters>
            <DistanceMeters>NAN</DistanceMeters>
          </Trackpoint>
          <Trackpoint>
            <Time>2018-12-30T13:50:42.000Z</Time>
            <Position>
              <LatitudeDegrees>40.74682778678834438323974609375</LatitudeDegrees>
              <LongitudeDegrees>-4.0828547067940235137939453125</LongitudeDegrees>
            </Position>
            <AltitudeMeters>1472</AltitudeMeters>
            <DistanceMeters>NAN</DistanceMeters>
          </Trackpoint>
          <Trackpoint>
            <Time>2018-12-30T13:50:43.000Z</Time>
            <Position>
              <LatitudeDegrees>40.74683717451989650726318359375</LatitudeDegrees>
              <LongitudeDegrees>-4.08285277895629405975341796875</LongitudeDegrees>
            </Position>
            <AltitudeMeters>1471.800048828125</AltitudeMeters>
            <DistanceMeters>NAN</DistanceMeters>
          </Trackpoint>
          <Trackpoint>
            <Time>2018-12-30T13:50:44.000Z</Time>
            <Position>
              <LatitudeDegrees>40.74684153310954570770263671875</LatitudeDegrees>
              <LongitudeDegrees>-4.0828573890030384063720703125</LongitudeDegrees>
            </Position>
            <AltitudeMeters>1471.5999755859375</AltitudeMeters>
            <DistanceMeters>NAN</DistanceMeters>
          </Trackpoint>
          <Trackpoint>
            <Time>2018-12-30T13:50:45.000Z</Time>
            <Position>
              <LatitudeDegrees>40.74685175903141498565673828125</LatitudeDegrees>
              <LongitudeDegrees>-4.08284305594861507415771484375</LongitudeDegrees>
            </Position>
            <AltitudeMeters>1471.5999755859375</AltitudeMeters>
            <DistanceMeters>NAN</DistanceMeters>
          </Trackpoint>
          <Trackpoint>
            <Time>2018-12-30T13:50:46.000Z</Time>
            <Position>
              <LatitudeDegrees>40.746867097914218902587890625</LatitudeDegrees>
              <LongitudeDegrees>-4.08283266238868236541748046875</LongitudeDegrees>
            </Position>
            <AltitudeMeters>1471.4000244140625</AltitudeMeters>
            <DistanceMeters>NAN</DistanceMeters>
          </Trackpoint>
          <Trackpoint>
            <Time>2018-12-30T13:50:47.000Z</Time>
            <Position>
              <LatitudeDegrees>40.74688143096864223480224609375</LatitudeDegrees>
              <LongitudeDegrees>-4.08281623385846614837646484375</LongitudeDegrees>
            </Position>
            <AltitudeMeters>1471.4000244140625</AltitudeMeters>
            <DistanceMeters>NAN</DistanceMeters>
          </Trackpoint>
          <Trackpoint>
            <Time>2018-12-30T13:50:48.000Z</Time>
            <Position>
              <LatitudeDegrees>40.7468890585005283355712890625</LatitudeDegrees>
              <LongitudeDegrees>-4.0828062593936920166015625</LongitudeDegrees>
            </Position>
            <AltitudeMeters>1471.199951171875</AltitudeMeters>
            <DistanceMeters>NAN</DistanceMeters>
          </Trackpoint>
          <Trackpoint>
            <Time>2018-12-30T13:50:49.000Z</Time>
            <Position>
              <LatitudeDegrees>40.7468917407095432281494140625</LatitudeDegrees>
              <LongitudeDegrees>-4.0827982127666473388671875</LongitudeDegrees>
            </Position>
            <AltitudeMeters>1471</AltitudeMeters>
            <DistanceMeters>NAN</DistanceMeters>
          </Trackpoint>
          <Trackpoint>
            <Time>2018-12-30T13:50:50.000Z</Time>
            <Position>
              <LatitudeDegrees>40.7468994520604610443115234375</LatitudeDegrees>
              <LongitudeDegrees>-4.08278622664511203765869140625</LongitudeDegrees>
            </Position>
            <AltitudeMeters>1470.800048828125</AltitudeMeters>
            <DistanceMeters>NAN</DistanceMeters>
          </Trackpoint>
          <Trackpoint>
            <Time>2018-12-30T13:50:51.000Z</Time>
            <Position>
              <LatitudeDegrees>40.74690724723041057586669921875</LatitudeDegrees>
              <LongitudeDegrees>-4.082777760922908782958984375</LongitudeDegrees>
            </Position>
            <AltitudeMeters>1470.5999755859375</AltitudeMeters>
            <DistanceMeters>NAN</DistanceMeters>
          </Trackpoint>
          <Trackpoint>
            <Time>2018-12-30T13:50:52.000Z</Time>
            <Position>
              <LatitudeDegrees>40.74691261164844036102294921875</LatitudeDegrees>
              <LongitudeDegrees>-4.0827633440494537353515625</LongitudeDegrees>
            </Position>
            <AltitudeMeters>1470.4000244140625</AltitudeMeters>
            <DistanceMeters>NAN</DistanceMeters>
          </Trackpoint>
          <Trackpoint>
            <Time>2018-12-30T13:50:53.000Z</Time>
            <Position>
              <LatitudeDegrees>40.74692149646580219268798828125</LatitudeDegrees>
              <LongitudeDegrees>-4.082752950489521026611328125</LongitudeDegrees>
            </Position>
            <AltitudeMeters>1470.199951171875</AltitudeMeters>
            <DistanceMeters>NAN</DistanceMeters>
          </Trackpoint>
          <Trackpoint>
            <Time>2018-12-30T13:50:54.000Z</Time>
            <Position>
              <LatitudeDegrees>40.74692375957965850830078125</LatitudeDegrees>
              <LongitudeDegrees>-4.08273375593125820159912109375</LongitudeDegrees>
            </Position>
            <AltitudeMeters>1469.800048828125</AltitudeMeters>
            <DistanceMeters>NAN</DistanceMeters>
          </Trackpoint>
          <Trackpoint>
            <Time>2018-12-30T13:50:55.000Z</Time>
            <Position>
              <LatitudeDegrees>40.746930129826068878173828125</LatitudeDegrees>
              <LongitudeDegrees>-4.08270223997533321380615234375</LongitudeDegrees>
            </Position>
            <AltitudeMeters>1469.5999755859375</AltitudeMeters>
            <DistanceMeters>NAN</DistanceMeters>
          </Trackpoint>
          <Trackpoint>
            <Time>2018-12-30T13:50:56.000Z</Time>
            <Position>
              <LatitudeDegrees>40.74693180620670318603515625</LatitudeDegrees>
              <LongitudeDegrees>-4.082673154771327972412109375</LongitudeDegrees>
            </Position>
            <AltitudeMeters>1469.4000244140625</AltitudeMeters>
            <DistanceMeters>NAN</DistanceMeters>
          </Trackpoint>
          <Trackpoint>
            <Time>2018-12-30T13:50:57.000Z</Time>
            <Position>
              <LatitudeDegrees>40.74692568741738796234130859375</LatitudeDegrees>
              <LongitudeDegrees>-4.082665778696537017822265625</LongitudeDegrees>
            </Position>
            <AltitudeMeters>1469.4000244140625</AltitudeMeters>
            <DistanceMeters>NAN</DistanceMeters>
          </Trackpoint>
          <Trackpoint>
            <Time>2018-12-30T13:50:58.000Z</Time>
            <Position>
              <LatitudeDegrees>40.7469188980758190155029296875</LatitudeDegrees>
              <LongitudeDegrees>-4.08264725469052791595458984375</LongitudeDegrees>
            </Position>
            <AltitudeMeters>1469</AltitudeMeters>
            <DistanceMeters>NAN</DistanceMeters>
          </Trackpoint>
          <Trackpoint>
            <Time>2018-12-30T13:50:59.000Z</Time>
            <Position>
              <LatitudeDegrees>40.74691210873425006866455078125</LatitudeDegrees>
              <LongitudeDegrees>-4.08264993689954280853271484375</LongitudeDegrees>
            </Position>
            <AltitudeMeters>1468.800048828125</AltitudeMeters>
            <DistanceMeters>NAN</DistanceMeters>
          </Trackpoint>
          <Trackpoint>
            <Time>2018-12-30T13:51:00.000Z</Time>
            <Position>
              <LatitudeDegrees>40.74690942652523517608642578125</LatitudeDegrees>
              <LongitudeDegrees>-4.0826525352895259857177734375</LongitudeDegrees>
            </Position>
            <AltitudeMeters>1468.5999755859375</AltitudeMeters>
            <DistanceMeters>NAN</DistanceMeters>
          </Trackpoint>
          <Trackpoint>
            <Time>2018-12-30T13:51:01.000Z</Time>
            <Position>
              <LatitudeDegrees>40.74690372683107852935791015625</LatitudeDegrees>
              <LongitudeDegrees>-4.0826656110584735870361328125</LongitudeDegrees>
            </Position>
            <AltitudeMeters>1468.4000244140625</AltitudeMeters>
            <DistanceMeters>NAN</DistanceMeters>
          </Trackpoint>
          <Trackpoint>
            <Time>2018-12-30T13:51:02.000Z</Time>
            <Position>
              <LatitudeDegrees>40.74689785949885845184326171875</LatitudeDegrees>
              <LongitudeDegrees>-4.082667790353298187255859375</LongitudeDegrees>
            </Position>
            <AltitudeMeters>1468</AltitudeMeters>
            <DistanceMeters>NAN</DistanceMeters>
          </Trackpoint>
          <Trackpoint>
            <Time>2018-12-30T13:51:03.000Z</Time>
            <Position>
              <LatitudeDegrees>40.74688780121505260467529296875</LatitudeDegrees>
              <LongitudeDegrees>-4.082665778696537017822265625</LongitudeDegrees>
            </Position>
            <AltitudeMeters>1467.800048828125</AltitudeMeters>
            <DistanceMeters>NAN</DistanceMeters>
          </Trackpoint>
          <Trackpoint>
            <Time>2018-12-30T13:51:04.000Z</Time>
            <Position>
              <LatitudeDegrees>40.7468788325786590576171875</LatitudeDegrees>
              <LongitudeDegrees>-4.0826615877449512481689453125</LongitudeDegrees>
            </Position>
            <AltitudeMeters>1467.5999755859375</AltitudeMeters>
            <DistanceMeters>NAN</DistanceMeters>
          </Trackpoint>
          <Trackpoint>
            <Time>2018-12-30T13:51:05.000Z</Time>
            <Position>
              <LatitudeDegrees>40.74688008986413478851318359375</LatitudeDegrees>
              <LongitudeDegrees>-4.08266468904912471771240234375</LongitudeDegrees>
            </Position>
            <AltitudeMeters>1467.4000244140625</AltitudeMeters>
            <DistanceMeters>NAN</DistanceMeters>
          </Trackpoint>
          <Trackpoint>
            <Time>2018-12-30T13:51:06.000Z</Time>
            <Position>
              <LatitudeDegrees>40.74687170796096324920654296875</LatitudeDegrees>
              <LongitudeDegrees>-4.082664437592029571533203125</LongitudeDegrees>
            </Position>
            <AltitudeMeters>1467.199951171875</AltitudeMeters>
            <DistanceMeters>NAN</DistanceMeters>
          </Trackpoint>
          <Trackpoint>
            <Time>2018-12-30T13:51:07.000Z</Time>
            <Position>
              <LatitudeDegrees>40.74686567299067974090576171875</LatitudeDegrees>
              <LongitudeDegrees>-4.08265949226915836334228515625</LongitudeDegrees>
            </Position>
            <AltitudeMeters>1467.199951171875</AltitudeMeters>
            <DistanceMeters>NAN</DistanceMeters>
          </Trackpoint>
          <Trackpoint>
            <Time>2018-12-30T13:51:08.000Z</Time>
            <Position>
              <LatitudeDegrees>40.74685980565845966339111328125</LatitudeDegrees>
              <LongitudeDegrees>-4.0826478414237499237060546875</LongitudeDegrees>
            </Position>
            <AltitudeMeters>1467</AltitudeMeters>
            <DistanceMeters>NAN</DistanceMeters>
          </Trackpoint>
          <Trackpoint>
            <Time>2018-12-30T13:51:09.000Z</Time>
            <Position>
              <LatitudeDegrees>40.74685578234493732452392578125</LatitudeDegrees>
              <LongitudeDegrees>-4.082638956606388092041015625</LongitudeDegrees>
            </Position>
            <AltitudeMeters>1466.800048828125</AltitudeMeters>
            <DistanceMeters>NAN</DistanceMeters>
          </Trackpoint>
          <Trackpoint>
            <Time>2018-12-30T13:51:10.000Z</Time>
            <Position>
              <LatitudeDegrees>40.7468546926975250244140625</LatitudeDegrees>
              <LongitudeDegrees>-4.0826320834457874298095703125</LongitudeDegrees>
            </Position>
            <AltitudeMeters>1466.800048828125</AltitudeMeters>
            <DistanceMeters>NAN</DistanceMeters>
          </Trackpoint>
          <Trackpoint>
            <Time>2018-12-30T13:51:11.000Z</Time>
            <Position>
              <LatitudeDegrees>40.7468665950000286102294921875</LatitudeDegrees>
              <LongitudeDegrees>-4.08263552002608776092529296875</LongitudeDegrees>
            </Position>
            <AltitudeMeters>1466.5999755859375</AltitudeMeters>
            <DistanceMeters>NAN</DistanceMeters>
          </Trackpoint>
          <Trackpoint>
            <Time>2018-12-30T13:51:12.000Z</Time>
            <Position>
              <LatitudeDegrees>40.7468608953058719635009765625</LatitudeDegrees>
              <LongitudeDegrees>-4.0826367773115634918212890625</LongitudeDegrees>
            </Position>
            <AltitudeMeters>1466.4000244140625</AltitudeMeters>
            <DistanceMeters>NAN</DistanceMeters>
          </Trackpoint>
          <Trackpoint>
            <Time>2018-12-30T13:51:13.000Z</Time>
            <Position>
              <LatitudeDegrees>40.74685159139335155487060546875</LatitudeDegrees>
              <LongitudeDegrees>-4.0826340951025485992431640625</LongitudeDegrees>
            </Position>
            <AltitudeMeters>1466</AltitudeMeters>
            <DistanceMeters>NAN</DistanceMeters>
          </Trackpoint>
          <Trackpoint>
            <Time>2018-12-30T13:51:14.000Z</Time>
            <Position>
              <LatitudeDegrees>40.74684924446046352386474609375</LatitudeDegrees>
              <LongitudeDegrees>-4.0826371125876903533935546875</LongitudeDegrees>
            </Position>
            <AltitudeMeters>1465.5999755859375</AltitudeMeters>
            <DistanceMeters>NAN</DistanceMeters>
          </Trackpoint>
          <Trackpoint>
            <Time>2018-12-30T13:51:15.000Z</Time>
            <Position>
              <LatitudeDegrees>40.746836252510547637939453125</LatitudeDegrees>
              <LongitudeDegrees>-4.08264105208218097686767578125</LongitudeDegrees>
            </Position>
            <AltitudeMeters>1465.199951171875</AltitudeMeters>
            <DistanceMeters>NAN</DistanceMeters>
          </Trackpoint>
          <Trackpoint>
            <Time>2018-12-30T13:51:16.000Z</Time>
            <Position>
              <LatitudeDegrees>40.74682074598968029022216796875</LatitudeDegrees>
              <LongitudeDegrees>-4.08264976926147937774658203125</LongitudeDegrees>
            </Position>
            <AltitudeMeters>1465</AltitudeMeters>
            <DistanceMeters>NAN</DistanceMeters>
          </Trackpoint>
          <Trackpoint>
            <Time>2018-12-30T13:51:17.000Z</Time>
            <Position>
              <LatitudeDegrees>40.746804736554622650146484375</LatitudeDegrees>
              <LongitudeDegrees>-4.0826528705656528472900390625</LongitudeDegrees>
            </Position>
            <AltitudeMeters>1465</AltitudeMeters>
            <DistanceMeters>NAN</DistanceMeters>
          </Trackpoint>
          <Trackpoint>
            <Time>2018-12-30T13:51:18.000Z</Time>
            <Position>
              <LatitudeDegrees>40.74680113233625888824462890625</LatitudeDegrees>
              <LongitudeDegrees>-4.082657732069492340087890625</LongitudeDegrees>
            </Position>
            <AltitudeMeters>1464.800048828125</AltitudeMeters>
            <DistanceMeters>NAN</DistanceMeters>
          </Trackpoint>
          <Trackpoint>
            <Time>2018-12-30T13:51:19.000Z</Time>
            <Position>
              <LatitudeDegrees>40.7467938400804996490478515625</LatitudeDegrees>
              <LongitudeDegrees>-4.08265940845012664794921875</LongitudeDegrees>
            </Position>
            <AltitudeMeters>1464.5999755859375</AltitudeMeters>
            <DistanceMeters>NAN</DistanceMeters>
          </Trackpoint>
          <Trackpoint>
            <Time>2018-12-30T13:51:20.000Z</Time>
            <Position>
              <LatitudeDegrees>40.74678805656731128692626953125</LatitudeDegrees>
              <LongitudeDegrees>-4.08265479840338230133056640625</LongitudeDegrees>
            </Position>
            <AltitudeMeters>1464.5999755859375</AltitudeMeters>
            <DistanceMeters>NAN</DistanceMeters>
          </Trackpoint>
          <Trackpoint>
            <Time>2018-12-30T13:51:21.000Z</Time>
            <Position>
              <LatitudeDegrees>40.74678353033959865570068359375</LatitudeDegrees>
              <LongitudeDegrees>-4.0826491825282573699951171875</LongitudeDegrees>
            </Position>
            <AltitudeMeters>1464.4000244140625</AltitudeMeters>
            <DistanceMeters>NAN</DistanceMeters>
          </Trackpoint>
          <Trackpoint>
            <Time>2018-12-30T13:51:22.000Z</Time>
            <Position>
              <LatitudeDegrees>40.74677950702607631683349609375</LatitudeDegrees>
              <LongitudeDegrees>-4.08265211619436740875244140625</LongitudeDegrees>
            </Position>
            <AltitudeMeters>1464.199951171875</AltitudeMeters>
            <DistanceMeters>NAN</DistanceMeters>
          </Trackpoint>
          <Trackpoint>
            <Time>2018-12-30T13:51:23.000Z</Time>
            <Position>
              <LatitudeDegrees>40.746777914464473724365234375</LatitudeDegrees>
              <LongitudeDegrees>-4.0826461650431156158447265625</LongitudeDegrees>
            </Position>
            <AltitudeMeters>1464</AltitudeMeters>
            <DistanceMeters>NAN</DistanceMeters>
          </Trackpoint>
          <Trackpoint>
            <Time>2018-12-30T13:51:24.000Z</Time>
            <Position>
              <LatitudeDegrees>40.74677699245512485504150390625</LatitudeDegrees>
              <LongitudeDegrees>-4.0826408006250858306884765625</LongitudeDegrees>
            </Position>
            <AltitudeMeters>1463.800048828125</AltitudeMeters>
            <DistanceMeters>NAN</DistanceMeters>
          </Trackpoint>
          <Trackpoint>
            <Time>2018-12-30T13:51:25.000Z</Time>
            <Position>
              <LatitudeDegrees>40.74677615426480770111083984375</LatitudeDegrees>
              <LongitudeDegrees>-4.0826381184160709381103515625</LongitudeDegrees>
            </Position>
            <AltitudeMeters>1463.5999755859375</AltitudeMeters>
            <DistanceMeters>NAN</DistanceMeters>
          </Trackpoint>
          <Trackpoint>
            <Time>2018-12-30T13:51:26.000Z</Time>
            <Position>
              <LatitudeDegrees>40.74676961638033390045166015625</LatitudeDegrees>
              <LongitudeDegrees>-4.08262898214161396026611328125</LongitudeDegrees>
            </Position>
            <AltitudeMeters>1463.5999755859375</AltitudeMeters>
            <DistanceMeters>NAN</DistanceMeters>
          </Trackpoint>
          <Trackpoint>
            <Time>2018-12-30T13:51:27.000Z</Time>
            <Position>
              <LatitudeDegrees>40.7467653416097164154052734375</LatitudeDegrees>
              <LongitudeDegrees>-4.08262110315263271331787109375</LongitudeDegrees>
            </Position>
            <AltitudeMeters>1463.4000244140625</AltitudeMeters>
            <DistanceMeters>NAN</DistanceMeters>
          </Trackpoint>
          <Trackpoint>
            <Time>2018-12-30T13:51:28.000Z</Time>
            <Position>
              <LatitudeDegrees>40.7467562891542911529541015625</LatitudeDegrees>
              <LongitudeDegrees>-4.082610122859477996826171875</LongitudeDegrees>
            </Position>
            <AltitudeMeters>1463.199951171875</AltitudeMeters>
            <DistanceMeters>NAN</DistanceMeters>
          </Trackpoint>
          <Trackpoint>
            <Time>2018-12-30T13:51:29.000Z</Time>
            <Position>
              <LatitudeDegrees>40.74674514122307300567626953125</LatitudeDegrees>
              <LongitudeDegrees>-4.0826092846691608428955078125</LongitudeDegrees>
            </Position>
            <AltitudeMeters>1463.199951171875</AltitudeMeters>
            <DistanceMeters>NAN</DistanceMeters>
          </Trackpoint>
          <Trackpoint>
            <Time>2018-12-30T13:51:30.000Z</Time>
            <Position>
              <LatitudeDegrees>40.74673407711088657379150390625</LatitudeDegrees>
              <LongitudeDegrees>-4.08260836265981197357177734375</LongitudeDegrees>
            </Position>
            <AltitudeMeters>1463</AltitudeMeters>
            <DistanceMeters>NAN</DistanceMeters>
          </Trackpoint>
          <Trackpoint>
            <Time>2018-12-30T13:51:31.000Z</Time>
            <Position>
              <LatitudeDegrees>40.74672234244644641876220703125</LatitudeDegrees>
              <LongitudeDegrees>-4.08260886557400226593017578125</LongitudeDegrees>
            </Position>
            <AltitudeMeters>1462.800048828125</AltitudeMeters>
            <DistanceMeters>NAN</DistanceMeters>
          </Trackpoint>
          <Trackpoint>
            <Time>2018-12-30T13:51:32.000Z</Time>
            <Position>
              <LatitudeDegrees>40.74671010486781597137451171875</LatitudeDegrees>
              <LongitudeDegrees>-4.0826062671840190887451171875</LongitudeDegrees>
            </Position>
            <AltitudeMeters>1462.4000244140625</AltitudeMeters>
            <DistanceMeters>NAN</DistanceMeters>
          </Trackpoint>
          <Trackpoint>
            <Time>2018-12-30T13:51:33.000Z</Time>
            <Position>
              <LatitudeDegrees>40.746692083775997161865234375</LatitudeDegrees>
              <LongitudeDegrees>-4.0826039202511310577392578125</LongitudeDegrees>
            </Position>
            <AltitudeMeters>1462.199951171875</AltitudeMeters>
            <DistanceMeters>NAN</DistanceMeters>
          </Trackpoint>
          <Trackpoint>
            <Time>2018-12-30T13:51:34.000Z</Time>
            <Position>
              <LatitudeDegrees>40.74668504297733306884765625</LatitudeDegrees>
              <LongitudeDegrees>-4.0825948677957057952880859375</LongitudeDegrees>
            </Position>
            <AltitudeMeters>1462</AltitudeMeters>
            <DistanceMeters>NAN</DistanceMeters>
          </Trackpoint>
          <Trackpoint>
            <Time>2018-12-30T13:51:35.000Z</Time>
            <Position>
              <LatitudeDegrees>40.7466761581599712371826171875</LatitudeDegrees>
              <LongitudeDegrees>-4.0825807861983776092529296875</LongitudeDegrees>
            </Position>
            <AltitudeMeters>1461.800048828125</AltitudeMeters>
            <DistanceMeters>NAN</DistanceMeters>
          </Trackpoint>
          <Trackpoint>
            <Time>2018-12-30T13:51:36.000Z</Time>
            <Position>
              <LatitudeDegrees>40.746669284999370574951171875</LatitudeDegrees>
              <LongitudeDegrees>-4.0825646929442882537841796875</LongitudeDegrees>
            </Position>
            <AltitudeMeters>1461.5999755859375</AltitudeMeters>
            <DistanceMeters>NAN</DistanceMeters>
          </Trackpoint>
          <Trackpoint>
            <Time>2018-12-30T13:51:37.000Z</Time>
            <Position>
              <LatitudeDegrees>40.74666350148618221282958984375</LatitudeDegrees>
              <LongitudeDegrees>-4.08255488611757755279541015625</LongitudeDegrees>
            </Position>
            <AltitudeMeters>1461.4000244140625</AltitudeMeters>
            <DistanceMeters>NAN</DistanceMeters>
          </Trackpoint>
          <Trackpoint>
            <Time>2018-12-30T13:51:38.000Z</Time>
            <Position>
              <LatitudeDegrees>40.74665696360170841217041015625</LatitudeDegrees>
              <LongitudeDegrees>-4.0825485996901988983154296875</LongitudeDegrees>
            </Position>
            <AltitudeMeters>1461.4000244140625</AltitudeMeters>
            <DistanceMeters>NAN</DistanceMeters>
          </Trackpoint>
          <Trackpoint>
            <Time>2018-12-30T13:51:39.000Z</Time>
            <Position>
              <LatitudeDegrees>40.74664053507149219512939453125</LatitudeDegrees>
              <LongitudeDegrees>-4.0825378708541393280029296875</LongitudeDegrees>
            </Position>
            <AltitudeMeters>1461.199951171875</AltitudeMeters>
            <DistanceMeters>NAN</DistanceMeters>
          </Trackpoint>
          <Trackpoint>
            <Time>2018-12-30T13:51:40.000Z</Time>
            <Position>
              <LatitudeDegrees>40.74663802050054073333740234375</LatitudeDegrees>
              <LongitudeDegrees>-4.0825328417122364044189453125</LongitudeDegrees>
            </Position>
            <AltitudeMeters>1460.800048828125</AltitudeMeters>
            <DistanceMeters>NAN</DistanceMeters>
          </Trackpoint>
          <Trackpoint>
            <Time>2018-12-30T13:51:41.000Z</Time>
            <Position>
              <LatitudeDegrees>40.74663047678768634796142578125</LatitudeDegrees>
              <LongitudeDegrees>-4.0825247950851917266845703125</LongitudeDegrees>
            </Position>
            <AltitudeMeters>1460.5999755859375</AltitudeMeters>
            <DistanceMeters>NAN</DistanceMeters>
          </Trackpoint>
          <Trackpoint>
            <Time>2018-12-30T13:51:42.000Z</Time>
            <Position>
              <LatitudeDegrees>40.74662041850388050079345703125</LatitudeDegrees>
              <LongitudeDegrees>-4.08251767046749591827392578125</LongitudeDegrees>
            </Position>
            <AltitudeMeters>1460.4000244140625</AltitudeMeters>
            <DistanceMeters>NAN</DistanceMeters>
          </Trackpoint>
          <Trackpoint>
            <Time>2018-12-30T13:51:43.000Z</Time>
            <Position>
              <LatitudeDegrees>40.74660851620137691497802734375</LatitudeDegrees>
              <LongitudeDegrees>-4.08251532353460788726806640625</LongitudeDegrees>
            </Position>
            <AltitudeMeters>1460.4000244140625</AltitudeMeters>
            <DistanceMeters>NAN</DistanceMeters>
          </Trackpoint>
          <Trackpoint>
            <Time>2018-12-30T13:51:44.000Z</Time>
            <Position>
              <LatitudeDegrees>40.74660122394561767578125</LatitudeDegrees>
              <LongitudeDegrees>-4.08250694163143634796142578125</LongitudeDegrees>
            </Position>
            <AltitudeMeters>1460.199951171875</AltitudeMeters>
            <DistanceMeters>NAN</DistanceMeters>
          </Trackpoint>
          <Trackpoint>
            <Time>2018-12-30T13:51:45.000Z</Time>
            <Position>
              <LatitudeDegrees>40.74660231359302997589111328125</LatitudeDegrees>
              <LongitudeDegrees>-4.08249772153794765472412109375</LongitudeDegrees>
            </Position>
            <AltitudeMeters>1460.199951171875</AltitudeMeters>
            <DistanceMeters>NAN</DistanceMeters>
          </Trackpoint>
          <Trackpoint>
            <Time>2018-12-30T13:51:46.000Z</Time>
            <Position>
              <LatitudeDegrees>40.7466007210314273834228515625</LatitudeDegrees>
              <LongitudeDegrees>-4.082488082349300384521484375</LongitudeDegrees>
            </Position>
            <AltitudeMeters>1460.199951171875</AltitudeMeters>
            <DistanceMeters>NAN</DistanceMeters>
          </Trackpoint>
          <Trackpoint>
            <Time>2018-12-30T13:51:47.000Z</Time>
            <Position>
              <LatitudeDegrees>40.74660616926848888397216796875</LatitudeDegrees>
              <LongitudeDegrees>-4.08247475512325763702392578125</LongitudeDegrees>
            </Position>
            <AltitudeMeters>1460.199951171875</AltitudeMeters>
            <DistanceMeters>NAN</DistanceMeters>
          </Trackpoint>
          <Trackpoint>
            <Time>2018-12-30T13:51:48.000Z</Time>
            <Position>
              <LatitudeDegrees>40.74661388061940670013427734375</LatitudeDegrees>
              <LongitudeDegrees>-4.082456566393375396728515625</LongitudeDegrees>
            </Position>
            <AltitudeMeters>1460</AltitudeMeters>
            <DistanceMeters>NAN</DistanceMeters>
          </Trackpoint>
          <Trackpoint>
            <Time>2018-12-30T13:51:49.000Z</Time>
            <Position>
              <LatitudeDegrees>40.74661740101873874664306640625</LatitudeDegrees>
              <LongitudeDegrees>-4.0824423171579837799072265625</LongitudeDegrees>
            </Position>
            <AltitudeMeters>1459.800048828125</AltitudeMeters>
            <DistanceMeters>NAN</DistanceMeters>
          </Trackpoint>
          <Trackpoint>
            <Time>2018-12-30T13:51:50.000Z</Time>
            <Position>
              <LatitudeDegrees>40.7466235198080539703369140625</LatitudeDegrees>
              <LongitudeDegrees>-4.08242312259972095489501953125</LongitudeDegrees>
            </Position>
            <AltitudeMeters>1459.4000244140625</AltitudeMeters>
            <DistanceMeters>NAN</DistanceMeters>
          </Trackpoint>
          <Trackpoint>
            <Time>2018-12-30T13:51:51.000Z</Time>
            <Position>
              <LatitudeDegrees>40.74663005769252777099609375</LatitudeDegrees>
              <LongitudeDegrees>-4.08240434713661670684814453125</LongitudeDegrees>
            </Position>
            <AltitudeMeters>1459</AltitudeMeters>
            <DistanceMeters>NAN</DistanceMeters>
          </Trackpoint>
          <Trackpoint>
            <Time>2018-12-30T13:51:52.000Z</Time>
            <Position>
              <LatitudeDegrees>40.7466392777860164642333984375</LatitudeDegrees>
              <LongitudeDegrees>-4.08239361830055713653564453125</LongitudeDegrees>
            </Position>
            <AltitudeMeters>1458.5999755859375</AltitudeMeters>
            <DistanceMeters>NAN</DistanceMeters>
          </Trackpoint>
          <Trackpoint>
            <Time>2018-12-30T13:51:53.000Z</Time>
            <Position>
              <LatitudeDegrees>40.7466526888310909271240234375</LatitudeDegrees>
              <LongitudeDegrees>-4.08239043317735195159912109375</LongitudeDegrees>
            </Position>
            <AltitudeMeters>1458.4000244140625</AltitudeMeters>
            <DistanceMeters>NAN</DistanceMeters>
          </Trackpoint>
          <Trackpoint>
            <Time>2018-12-30T13:51:54.000Z</Time>
            <Position>
              <LatitudeDegrees>40.746664591133594512939453125</LatitudeDegrees>
              <LongitudeDegrees>-4.08238557167351245880126953125</LongitudeDegrees>
            </Position>
            <AltitudeMeters>1458.199951171875</AltitudeMeters>
            <DistanceMeters>NAN</DistanceMeters>
          </Trackpoint>
          <Trackpoint>
            <Time>2018-12-30T13:51:55.000Z</Time>
            <Position>
              <LatitudeDegrees>40.74668445624411106109619140625</LatitudeDegrees>
              <LongitudeDegrees>-4.0823715738952159881591796875</LongitudeDegrees>
            </Position>
            <AltitudeMeters>1458.199951171875</AltitudeMeters>
            <DistanceMeters>NAN</DistanceMeters>
          </Trackpoint>
          <Trackpoint>
            <Time>2018-12-30T13:51:56.000Z</Time>
            <Position>
              <LatitudeDegrees>40.74669518508017063140869140625</LatitudeDegrees>
              <LongitudeDegrees>-4.08236394636332988739013671875</LongitudeDegrees>
            </Position>
            <AltitudeMeters>1458</AltitudeMeters>
            <DistanceMeters>NAN</DistanceMeters>
          </Trackpoint>
          <Trackpoint>
            <Time>2018-12-30T13:51:57.000Z</Time>
            <Position>
              <LatitudeDegrees>40.7467070035636425018310546875</LatitudeDegrees>
              <LongitudeDegrees>-4.0823544748127460479736328125</LongitudeDegrees>
            </Position>
            <AltitudeMeters>1458</AltitudeMeters>
            <DistanceMeters>NAN</DistanceMeters>
          </Trackpoint>
          <Trackpoint>
            <Time>2018-12-30T13:51:58.000Z</Time>
            <Position>
              <LatitudeDegrees>40.7467177323997020721435546875</LatitudeDegrees>
              <LongitudeDegrees>-4.08233913592994213104248046875</LongitudeDegrees>
            </Position>
            <AltitudeMeters>1457.5999755859375</AltitudeMeters>
            <DistanceMeters>NAN</DistanceMeters>
          </Trackpoint>
          <Trackpoint>
            <Time>2018-12-30T13:51:59.000Z</Time>
            <Position>
              <LatitudeDegrees>40.74672854505479335784912109375</LatitudeDegrees>
              <LongitudeDegrees>-4.082326479256153106689453125</LongitudeDegrees>
            </Position>
            <AltitudeMeters>1457.4000244140625</AltitudeMeters>
            <DistanceMeters>NAN</DistanceMeters>
          </Trackpoint>
          <Trackpoint>
            <Time>2018-12-30T13:52:00.000Z</Time>
            <Position>
              <LatitudeDegrees>40.7467385195195674896240234375</LatitudeDegrees>
              <LongitudeDegrees>-4.082315079867839813232421875</LongitudeDegrees>
            </Position>
            <AltitudeMeters>1457.4000244140625</AltitudeMeters>
            <DistanceMeters>NAN</DistanceMeters>
          </Trackpoint>
          <Trackpoint>
            <Time>2018-12-30T13:52:01.000Z</Time>
            <Position>
              <LatitudeDegrees>40.74674941599369049072265625</LatitudeDegrees>
              <LongitudeDegrees>-4.082306362688541412353515625</LongitudeDegrees>
            </Position>
            <AltitudeMeters>1457.199951171875</AltitudeMeters>
            <DistanceMeters>NAN</DistanceMeters>
          </Trackpoint>
          <Trackpoint>
            <Time>2018-12-30T13:52:02.000Z</Time>
            <Position>
              <LatitudeDegrees>40.74676475487649440765380859375</LatitudeDegrees>
              <LongitudeDegrees>-4.08229253254830837249755859375</LongitudeDegrees>
            </Position>
            <AltitudeMeters>1457.199951171875</AltitudeMeters>
            <DistanceMeters>NAN</DistanceMeters>
          </Trackpoint>
          <Trackpoint>
            <Time>2018-12-30T13:52:03.000Z</Time>
            <Position>
              <LatitudeDegrees>40.746775902807712554931640625</LatitudeDegrees>
              <LongitudeDegrees>-4.08228465355932712554931640625</LongitudeDegrees>
            </Position>
            <AltitudeMeters>1457</AltitudeMeters>
            <DistanceMeters>NAN</DistanceMeters>
          </Trackpoint>
          <Trackpoint>
            <Time>2018-12-30T13:52:04.000Z</Time>
            <Position>
              <LatitudeDegrees>40.7467871345579624176025390625</LatitudeDegrees>
              <LongitudeDegrees>-4.0822760201990604400634765625</LongitudeDegrees>
            </Position>
            <AltitudeMeters>1457</AltitudeMeters>
            <DistanceMeters>NAN</DistanceMeters>
          </Trackpoint>
          <Trackpoint>
            <Time>2018-12-30T13:52:05.000Z</Time>
            <Position>
              <LatitudeDegrees>40.7467983663082122802734375</LatitudeDegrees>
              <LongitudeDegrees>-4.082265794277191162109375</LongitudeDegrees>
            </Position>
            <AltitudeMeters>1456.800048828125</AltitudeMeters>
            <DistanceMeters>NAN</DistanceMeters>
          </Trackpoint>
          <Trackpoint>
            <Time>2018-12-30T13:52:06.000Z</Time>
            <Position>
              <LatitudeDegrees>40.74680381454527378082275390625</LatitudeDegrees>
              <LongitudeDegrees>-4.0822562389075756072998046875</LongitudeDegrees>
            </Position>
            <AltitudeMeters>1456.5999755859375</AltitudeMeters>
            <DistanceMeters>NAN</DistanceMeters>
          </Trackpoint>
          <Trackpoint>
            <Time>2018-12-30T13:52:07.000Z</Time>
            <Position>
              <LatitudeDegrees>40.7468089275062084197998046875</LatitudeDegrees>
              <LongitudeDegrees>-4.0822481922805309295654296875</LongitudeDegrees>
            </Position>
            <AltitudeMeters>1456.199951171875</AltitudeMeters>
            <DistanceMeters>NAN</DistanceMeters>
          </Trackpoint>
          <Trackpoint>
            <Time>2018-12-30T13:52:08.000Z</Time>
            <Position>
              <LatitudeDegrees>40.74681269936263561248779296875</LatitudeDegrees>
              <LongitudeDegrees>-4.082238636910915374755859375</LongitudeDegrees>
            </Position>
            <AltitudeMeters>1455.800048828125</AltitudeMeters>
            <DistanceMeters>NAN</DistanceMeters>
          </Trackpoint>
          <Trackpoint>
            <Time>2018-12-30T13:52:09.000Z</Time>
            <Position>
              <LatitudeDegrees>40.74681756086647510528564453125</LatitudeDegrees>
              <LongitudeDegrees>-4.08223670907318592071533203125</LongitudeDegrees>
            </Position>
            <AltitudeMeters>1455.5999755859375</AltitudeMeters>
            <DistanceMeters>NAN</DistanceMeters>
          </Trackpoint>
          <Trackpoint>
            <Time>2018-12-30T13:52:10.000Z</Time>
            <Position>
              <LatitudeDegrees>40.74681722559034824371337890625</LatitudeDegrees>
              <LongitudeDegrees>-4.0822274051606655120849609375</LongitudeDegrees>
            </Position>
            <AltitudeMeters>1455.4000244140625</AltitudeMeters>
            <DistanceMeters>NAN</DistanceMeters>
          </Trackpoint>
          <Trackpoint>
            <Time>2018-12-30T13:52:11.000Z</Time>
            <Position>
              <LatitudeDegrees>40.74681823141872882843017578125</LatitudeDegrees>
              <LongitudeDegrees>-4.08221860416233539581298828125</LongitudeDegrees>
            </Position>
            <AltitudeMeters>1455</AltitudeMeters>
            <DistanceMeters>NAN</DistanceMeters>
          </Trackpoint>
          <Trackpoint>
            <Time>2018-12-30T13:52:12.000Z</Time>
            <Position>
              <LatitudeDegrees>40.746818482875823974609375</LatitudeDegrees>
              <LongitudeDegrees>-4.0822180174291133880615234375</LongitudeDegrees>
            </Position>
            <AltitudeMeters>1455</AltitudeMeters>
            <DistanceMeters>NAN</DistanceMeters>
          </Trackpoint>
          <Trackpoint>
            <Time>2018-12-30T13:52:13.000Z</Time>
            <Position>
              <LatitudeDegrees>40.7468246854841709136962890625</LatitudeDegrees>
              <LongitudeDegrees>-4.08221927471458911895751953125</LongitudeDegrees>
            </Position>
            <AltitudeMeters>1454.800048828125</AltitudeMeters>
            <DistanceMeters>NAN</DistanceMeters>
          </Trackpoint>
          <Trackpoint>
            <Time>2018-12-30T13:52:14.000Z</Time>
            <Position>
              <LatitudeDegrees>40.7468270324170589447021484375</LatitudeDegrees>
              <LongitudeDegrees>-4.082224555313587188720703125</LongitudeDegrees>
            </Position>
            <AltitudeMeters>1454.800048828125</AltitudeMeters>
            <DistanceMeters>NAN</DistanceMeters>
          </Trackpoint>
          <Trackpoint>
            <Time>2018-12-30T13:52:15.000Z</Time>
            <Position>
              <LatitudeDegrees>40.74682812206447124481201171875</LatitudeDegrees>
              <LongitudeDegrees>-4.08222883008420467376708984375</LongitudeDegrees>
            </Position>
            <AltitudeMeters>1454.800048828125</AltitudeMeters>
            <DistanceMeters>NAN</DistanceMeters>
          </Trackpoint>
          <Trackpoint>
            <Time>2018-12-30T13:52:16.000Z</Time>
            <Position>
              <LatitudeDegrees>40.7468313910067081451416015625</LatitudeDegrees>
              <LongitudeDegrees>-4.08223235048353672027587890625</LongitudeDegrees>
            </Position>
            <AltitudeMeters>1454.800048828125</AltitudeMeters>
            <DistanceMeters>NAN</DistanceMeters>
          </Trackpoint>
          <Trackpoint>
            <Time>2018-12-30T13:52:17.000Z</Time>
            <Position>
              <LatitudeDegrees>40.7468692772090435028076171875</LatitudeDegrees>
              <LongitudeDegrees>-4.08224525861442089080810546875</LongitudeDegrees>
            </Position>
            <AltitudeMeters>1454.5999755859375</AltitudeMeters>
            <DistanceMeters>NAN</DistanceMeters>
          </Trackpoint>
          <Trackpoint>
            <Time>2018-12-30T13:52:18.000Z</Time>
            <Position>
              <LatitudeDegrees>40.74688092805445194244384765625</LatitudeDegrees>
              <LongitudeDegrees>-4.08225045539438724517822265625</LongitudeDegrees>
            </Position>
            <AltitudeMeters>1454.5999755859375</AltitudeMeters>
            <DistanceMeters>NAN</DistanceMeters>
          </Trackpoint>
          <Trackpoint>
            <Time>2018-12-30T13:52:19.000Z</Time>
            <Position>
              <LatitudeDegrees>40.74688796885311603546142578125</LatitudeDegrees>
              <LongitudeDegrees>-4.0822579152882099151611328125</LongitudeDegrees>
            </Position>
            <AltitudeMeters>1454.4000244140625</AltitudeMeters>
            <DistanceMeters>NAN</DistanceMeters>
          </Trackpoint>
          <Trackpoint>
            <Time>2018-12-30T13:52:20.000Z</Time>
            <Position>
              <LatitudeDegrees>40.74689333327114582061767578125</LatitudeDegrees>
              <LongitudeDegrees>-4.0822659619152545928955078125</LongitudeDegrees>
            </Position>
            <AltitudeMeters>1454.4000244140625</AltitudeMeters>
            <DistanceMeters>NAN</DistanceMeters>
          </Trackpoint>
          <Trackpoint>
            <Time>2018-12-30T13:52:21.000Z</Time>
            <Position>
              <LatitudeDegrees>40.7468924112617969512939453125</LatitudeDegrees>
              <LongitudeDegrees>-4.08227182924747467041015625</LongitudeDegrees>
            </Position>
            <AltitudeMeters>1454.4000244140625</AltitudeMeters>
            <DistanceMeters>NAN</DistanceMeters>
          </Trackpoint>
          <Trackpoint>
            <Time>2018-12-30T13:52:22.000Z</Time>
            <Position>
              <LatitudeDegrees>40.74689283035695552825927734375</LatitudeDegrees>
              <LongitudeDegrees>-4.0822780318558216094970703125</LongitudeDegrees>
            </Position>
            <AltitudeMeters>1454.5999755859375</AltitudeMeters>
            <DistanceMeters>NAN</DistanceMeters>
          </Trackpoint>
          <Trackpoint>
            <Time>2018-12-30T13:52:23.000Z</Time>
            <Position>
              <LatitudeDegrees>40.74689551256597042083740234375</LatitudeDegrees>
              <LongitudeDegrees>-4.08227761276066303253173828125</LongitudeDegrees>
            </Position>
            <AltitudeMeters>1454.5999755859375</AltitudeMeters>
            <DistanceMeters>NAN</DistanceMeters>
          </Trackpoint>
          <Trackpoint>
            <Time>2018-12-30T13:52:24.000Z</Time>
            <Position>
              <LatitudeDegrees>40.74689903296530246734619140625</LatitudeDegrees>
              <LongitudeDegrees>-4.08227023668587207794189453125</LongitudeDegrees>
            </Position>
            <AltitudeMeters>1454.800048828125</AltitudeMeters>
            <DistanceMeters>NAN</DistanceMeters>
          </Trackpoint>
          <Trackpoint>
            <Time>2018-12-30T13:52:25.000Z</Time>
            <Position>
              <LatitudeDegrees>40.746901296079158782958984375</LatitudeDegrees>
              <LongitudeDegrees>-4.0822673030197620391845703125</LongitudeDegrees>
            </Position>
            <AltitudeMeters>1454.5999755859375</AltitudeMeters>
            <DistanceMeters>NAN</DistanceMeters>
          </Trackpoint>
          <Trackpoint>
            <Time>2018-12-30T13:52:26.000Z</Time>
            <Position>
              <LatitudeDegrees>40.74690758250653743743896484375</LatitudeDegrees>
              <LongitudeDegrees>-4.08226420171558856964111328125</LongitudeDegrees>
            </Position>
            <AltitudeMeters>1454.800048828125</AltitudeMeters>
            <DistanceMeters>NAN</DistanceMeters>
          </Trackpoint>
          <Trackpoint>
            <Time>2018-12-30T13:52:27.000Z</Time>
            <Position>
              <LatitudeDegrees>40.74691646732389926910400390625</LatitudeDegrees>
              <LongitudeDegrees>-4.08226436935365200042724609375</LongitudeDegrees>
            </Position>
            <AltitudeMeters>1454.800048828125</AltitudeMeters>
            <DistanceMeters>NAN</DistanceMeters>
          </Trackpoint>
          <Trackpoint>
            <Time>2018-12-30T13:52:28.000Z</Time>
            <Position>
              <LatitudeDegrees>40.74692032299935817718505859375</LatitudeDegrees>
              <LongitudeDegrees>-4.08226219005882740020751953125</LongitudeDegrees>
            </Position>
            <AltitudeMeters>1454.800048828125</AltitudeMeters>
            <DistanceMeters>NAN</DistanceMeters>
          </Trackpoint>
          <Trackpoint>
            <Time>2018-12-30T13:52:29.000Z</Time>
            <Position>
              <LatitudeDegrees>40.74692082591354846954345703125</LatitudeDegrees>
              <LongitudeDegrees>-4.08226168714463710784912109375</LongitudeDegrees>
            </Position>
            <AltitudeMeters>1454.800048828125</AltitudeMeters>
            <DistanceMeters>NAN</DistanceMeters>
          </Trackpoint>
          <Trackpoint>
            <Time>2018-12-30T13:52:30.000Z</Time>
            <Position>
              <LatitudeDegrees>40.74692107737064361572265625</LatitudeDegrees>
              <LongitudeDegrees>-4.08226001076400279998779296875</LongitudeDegrees>
            </Position>
            <AltitudeMeters>1454.800048828125</AltitudeMeters>
            <DistanceMeters>NAN</DistanceMeters>
          </Trackpoint>
          <Trackpoint>
            <Time>2018-12-30T13:52:31.000Z</Time>
            <Position>
              <LatitudeDegrees>40.74692116118967533111572265625</LatitudeDegrees>
              <LongitudeDegrees>-4.0822585858404636383056640625</LongitudeDegrees>
            </Position>
            <AltitudeMeters>1454.800048828125</AltitudeMeters>
            <DistanceMeters>NAN</DistanceMeters>
          </Trackpoint>
          <Trackpoint>
            <Time>2018-12-30T13:52:32.000Z</Time>
            <Position>
              <LatitudeDegrees>40.74692032299935817718505859375</LatitudeDegrees>
              <LongitudeDegrees>-4.0822538919746875762939453125</LongitudeDegrees>
            </Position>
            <AltitudeMeters>1454.800048828125</AltitudeMeters>
            <DistanceMeters>NAN</DistanceMeters>
          </Trackpoint>
          <Trackpoint>
            <Time>2018-12-30T13:52:33.000Z</Time>
            <Position>
              <LatitudeDegrees>40.74691948480904102325439453125</LatitudeDegrees>
              <LongitudeDegrees>-4.082250706851482391357421875</LongitudeDegrees>
            </Position>
            <AltitudeMeters>1454.800048828125</AltitudeMeters>
            <DistanceMeters>NAN</DistanceMeters>
          </Trackpoint>
          <Trackpoint>
            <Time>2018-12-30T13:52:34.000Z</Time>
            <Position>
              <LatitudeDegrees>40.74692116118967533111572265625</LatitudeDegrees>
              <LongitudeDegrees>-4.082254730165004730224609375</LongitudeDegrees>
            </Position>
            <AltitudeMeters>1454.800048828125</AltitudeMeters>
            <DistanceMeters>NAN</DistanceMeters>
          </Trackpoint>
          <Trackpoint>
            <Time>2018-12-30T13:52:35.000Z</Time>
            <Position>
              <LatitudeDegrees>40.7469333149492740631103515625</LatitudeDegrees>
              <LongitudeDegrees>-4.08225665800273418426513671875</LongitudeDegrees>
            </Position>
            <AltitudeMeters>1455</AltitudeMeters>
            <DistanceMeters>NAN</DistanceMeters>
          </Trackpoint>
          <Trackpoint>
            <Time>2018-12-30T13:52:36.000Z</Time>
            <Position>
              <LatitudeDegrees>40.74693675152957439422607421875</LatitudeDegrees>
              <LongitudeDegrees>-4.08225573599338531494140625</LongitudeDegrees>
            </Position>
            <AltitudeMeters>1455.199951171875</AltitudeMeters>
            <DistanceMeters>NAN</DistanceMeters>
          </Trackpoint>
          <Trackpoint>
            <Time>2018-12-30T13:52:37.000Z</Time>
            <Position>
              <LatitudeDegrees>40.7469405233860015869140625</LatitudeDegrees>
              <LongitudeDegrees>-4.0822572447359561920166015625</LongitudeDegrees>
            </Position>
            <AltitudeMeters>1455.4000244140625</AltitudeMeters>
            <DistanceMeters>NAN</DistanceMeters>
          </Trackpoint>
          <Trackpoint>
            <Time>2018-12-30T13:52:38.000Z</Time>
            <Position>
              <LatitudeDegrees>40.7469524256885051727294921875</LatitudeDegrees>
              <LongitudeDegrees>-4.0822740085422992706298828125</LongitudeDegrees>
            </Position>
            <AltitudeMeters>1455.5999755859375</AltitudeMeters>
            <DistanceMeters>NAN</DistanceMeters>
          </Trackpoint>
          <Trackpoint>
            <Time>2018-12-30T13:52:39.000Z</Time>
            <Position>
              <LatitudeDegrees>40.7469584606587886810302734375</LatitudeDegrees>
              <LongitudeDegrees>-4.08228465355932712554931640625</LongitudeDegrees>
            </Position>
            <AltitudeMeters>1455.800048828125</AltitudeMeters>
            <DistanceMeters>NAN</DistanceMeters>
          </Trackpoint>
          <Trackpoint>
            <Time>2018-12-30T13:52:40.000Z</Time>
            <Position>
              <LatitudeDegrees>40.74695217423141002655029296875</LatitudeDegrees>
              <LongitudeDegrees>-4.08229538239538669586181640625</LongitudeDegrees>
            </Position>
            <AltitudeMeters>1455.800048828125</AltitudeMeters>
            <DistanceMeters>NAN</DistanceMeters>
          </Trackpoint>
          <Trackpoint>
            <Time>2018-12-30T13:52:41.000Z</Time>
            <Position>
              <LatitudeDegrees>40.7469473965466022491455078125</LatitudeDegrees>
              <LongitudeDegrees>-4.0822991542518138885498046875</LongitudeDegrees>
            </Position>
            <AltitudeMeters>1455.800048828125</AltitudeMeters>
            <DistanceMeters>NAN</DistanceMeters>
          </Trackpoint>
          <Trackpoint>
            <Time>2018-12-30T13:52:42.000Z</Time>
            <Position>
              <LatitudeDegrees>40.74693926610052585601806640625</LatitudeDegrees>
              <LongitudeDegrees>-4.08229974098503589630126953125</LongitudeDegrees>
            </Position>
            <AltitudeMeters>1455.800048828125</AltitudeMeters>
            <DistanceMeters>NAN</DistanceMeters>
          </Trackpoint>
          <Trackpoint>
            <Time>2018-12-30T13:52:43.000Z</Time>
            <Position>
              <LatitudeDegrees>40.74693180620670318603515625</LatitudeDegrees>
              <LongitudeDegrees>-4.08230192027986049652099609375</LongitudeDegrees>
            </Position>
            <AltitudeMeters>1455.800048828125</AltitudeMeters>
            <DistanceMeters>NAN</DistanceMeters>
          </Trackpoint>
          <Trackpoint>
            <Time>2018-12-30T13:52:44.000Z</Time>
            <Position>
              <LatitudeDegrees>40.746928788721561431884765625</LatitudeDegrees>
              <LongitudeDegrees>-4.08230401575565338134765625</LongitudeDegrees>
            </Position>
            <AltitudeMeters>1455.800048828125</AltitudeMeters>
            <DistanceMeters>NAN</DistanceMeters>
          </Trackpoint>
          <Trackpoint>
            <Time>2018-12-30T13:52:45.000Z</Time>
            <Position>
              <LatitudeDegrees>40.746914036571979522705078125</LatitudeDegrees>
              <LongitudeDegrees>-4.0823122300207614898681640625</LongitudeDegrees>
            </Position>
            <AltitudeMeters>1455.800048828125</AltitudeMeters>
            <DistanceMeters>NAN</DistanceMeters>
          </Trackpoint>
          <Trackpoint>
            <Time>2018-12-30T13:52:46.000Z</Time>
            <Position>
              <LatitudeDegrees>40.74690640904009342193603515625</LatitudeDegrees>
              <LongitudeDegrees>-4.08231147564947605133056640625</LongitudeDegrees>
            </Position>
            <AltitudeMeters>1455.800048828125</AltitudeMeters>
            <DistanceMeters>NAN</DistanceMeters>
          </Trackpoint>
          <Trackpoint>
            <Time>2018-12-30T13:52:47.000Z</Time>
            <Position>
              <LatitudeDegrees>40.74690238572657108306884765625</LatitudeDegrees>
              <LongitudeDegrees>-4.0823112241923809051513671875</LongitudeDegrees>
            </Position>
            <AltitudeMeters>1455.5999755859375</AltitudeMeters>
            <DistanceMeters>NAN</DistanceMeters>
          </Trackpoint>
          <Trackpoint>
            <Time>2018-12-30T13:52:48.000Z</Time>
            <Position>
              <LatitudeDegrees>40.74690188281238079071044921875</LatitudeDegrees>
              <LongitudeDegrees>-4.08230845816433429718017578125</LongitudeDegrees>
            </Position>
            <AltitudeMeters>1455.5999755859375</AltitudeMeters>
            <DistanceMeters>NAN</DistanceMeters>
          </Trackpoint>
          <Trackpoint>
            <Time>2018-12-30T13:52:49.000Z</Time>
            <Position>
              <LatitudeDegrees>40.74689752422273159027099609375</LatitudeDegrees>
              <LongitudeDegrees>-4.082306362688541412353515625</LongitudeDegrees>
            </Position>
            <AltitudeMeters>1455.4000244140625</AltitudeMeters>
            <DistanceMeters>NAN</DistanceMeters>
          </Trackpoint>
          <Trackpoint>
            <Time>2018-12-30T13:52:50.000Z</Time>
            <Position>
              <LatitudeDegrees>40.74689199216663837432861328125</LatitudeDegrees>
              <LongitudeDegrees>-4.08230493776500225067138671875</LongitudeDegrees>
            </Position>
            <AltitudeMeters>1455</AltitudeMeters>
            <DistanceMeters>NAN</DistanceMeters>
          </Trackpoint>
          <Trackpoint>
            <Time>2018-12-30T13:52:51.000Z</Time>
            <Position>
              <LatitudeDegrees>40.7468850351870059967041015625</LatitudeDegrees>
              <LongitudeDegrees>-4.08230510540306568145751953125</LongitudeDegrees>
            </Position>
            <AltitudeMeters>1454.800048828125</AltitudeMeters>
            <DistanceMeters>NAN</DistanceMeters>
          </Trackpoint>
          <Trackpoint>
            <Time>2018-12-30T13:52:52.000Z</Time>
            <Position>
              <LatitudeDegrees>40.74687673710286617279052734375</LatitudeDegrees>
              <LongitudeDegrees>-4.0822984836995601654052734375</LongitudeDegrees>
            </Position>
            <AltitudeMeters>1454.5999755859375</AltitudeMeters>
            <DistanceMeters>NAN</DistanceMeters>
          </Trackpoint>
          <Trackpoint>
            <Time>2018-12-30T13:52:53.000Z</Time>
            <Position>
              <LatitudeDegrees>40.7468578778207302093505859375</LatitudeDegrees>
              <LongitudeDegrees>-4.082300998270511627197265625</LongitudeDegrees>
            </Position>
            <AltitudeMeters>1454.199951171875</AltitudeMeters>
            <DistanceMeters>NAN</DistanceMeters>
          </Trackpoint>
          <Trackpoint>
            <Time>2018-12-30T13:52:54.000Z</Time>
            <Position>
              <LatitudeDegrees>40.746844299137592315673828125</LatitudeDegrees>
              <LongitudeDegrees>-4.082298986613750457763671875</LongitudeDegrees>
            </Position>
            <AltitudeMeters>1454</AltitudeMeters>
            <DistanceMeters>NAN</DistanceMeters>
          </Trackpoint>
          <Trackpoint>
            <Time>2018-12-30T13:52:55.000Z</Time>
            <Position>
              <LatitudeDegrees>40.74683331884443759918212890625</LatitudeDegrees>
              <LongitudeDegrees>-4.08229772932827472686767578125</LongitudeDegrees>
            </Position>
            <AltitudeMeters>1453.800048828125</AltitudeMeters>
            <DistanceMeters>NAN</DistanceMeters>
          </Trackpoint>
          <Trackpoint>
            <Time>2018-12-30T13:52:56.000Z</Time>
            <Position>
              <LatitudeDegrees>40.7468223385512828826904296875</LatitudeDegrees>
              <LongitudeDegrees>-4.08229320310056209564208984375</LongitudeDegrees>
            </Position>
            <AltitudeMeters>1453.800048828125</AltitudeMeters>
            <DistanceMeters>NAN</DistanceMeters>
          </Trackpoint>
          <Trackpoint>
            <Time>2018-12-30T13:52:57.000Z</Time>
            <Position>
              <LatitudeDegrees>40.746812783181667327880859375</LatitudeDegrees>
              <LongitudeDegrees>-4.08228767104446887969970703125</LongitudeDegrees>
            </Position>
            <AltitudeMeters>1453.4000244140625</AltitudeMeters>
            <DistanceMeters>NAN</DistanceMeters>
          </Trackpoint>
          <Trackpoint>
            <Time>2018-12-30T13:52:58.000Z</Time>
            <Position>
              <LatitudeDegrees>40.746806748211383819580078125</LatitudeDegrees>
              <LongitudeDegrees>-4.08228431828320026397705078125</LongitudeDegrees>
            </Position>
            <AltitudeMeters>1453.199951171875</AltitudeMeters>
            <DistanceMeters>NAN</DistanceMeters>
          </Trackpoint>
          <Trackpoint>
            <Time>2018-12-30T13:52:59.000Z</Time>
            <Position>
              <LatitudeDegrees>40.746803395450115203857421875</LatitudeDegrees>
              <LongitudeDegrees>-4.08227987587451934814453125</LongitudeDegrees>
            </Position>
            <AltitudeMeters>1453</AltitudeMeters>
            <DistanceMeters>NAN</DistanceMeters>
          </Trackpoint>
          <Trackpoint>
            <Time>2018-12-30T13:53:00.000Z</Time>
            <Position>
              <LatitudeDegrees>40.74680146761238574981689453125</LatitudeDegrees>
              <LongitudeDegrees>-4.0822780318558216094970703125</LongitudeDegrees>
            </Position>
            <AltitudeMeters>1453</AltitudeMeters>
            <DistanceMeters>NAN</DistanceMeters>
          </Trackpoint>
          <Trackpoint>
            <Time>2018-12-30T13:53:01.000Z</Time>
            <Position>
              <LatitudeDegrees>40.74679526500403881072998046875</LatitudeDegrees>
              <LongitudeDegrees>-4.0822740085422992706298828125</LongitudeDegrees>
            </Position>
            <AltitudeMeters>1452.800048828125</AltitudeMeters>
            <DistanceMeters>NAN</DistanceMeters>
          </Trackpoint>
          <Trackpoint>
            <Time>2018-12-30T13:53:02.000Z</Time>
            <Position>
              <LatitudeDegrees>40.7467854581773281097412109375</LatitudeDegrees>
              <LongitudeDegrees>-4.08226805739104747772216796875</LongitudeDegrees>
            </Position>
            <AltitudeMeters>1452.5999755859375</AltitudeMeters>
            <DistanceMeters>NAN</DistanceMeters>
          </Trackpoint>
          <Trackpoint>
            <Time>2018-12-30T13:53:03.000Z</Time>
            <Position>
              <LatitudeDegrees>40.74677581898868083953857421875</LatitudeDegrees>
              <LongitudeDegrees>-4.0822646208107471466064453125</LongitudeDegrees>
            </Position>
            <AltitudeMeters>1452.4000244140625</AltitudeMeters>
            <DistanceMeters>NAN</DistanceMeters>
          </Trackpoint>
          <Trackpoint>
            <Time>2018-12-30T13:53:04.000Z</Time>
            <Position>
              <LatitudeDegrees>40.74676810763776302337646484375</LatitudeDegrees>
              <LongitudeDegrees>-4.0822582505643367767333984375</LongitudeDegrees>
            </Position>
            <AltitudeMeters>1452.199951171875</AltitudeMeters>
            <DistanceMeters>NAN</DistanceMeters>
          </Trackpoint>
          <Trackpoint>
            <Time>2018-12-30T13:53:05.000Z</Time>
            <Position>
              <LatitudeDegrees>40.746760480105876922607421875</LatitudeDegrees>
              <LongitudeDegrees>-4.0822535566985607147216796875</LongitudeDegrees>
            </Position>
            <AltitudeMeters>1451.800048828125</AltitudeMeters>
            <DistanceMeters>NAN</DistanceMeters>
          </Trackpoint>
          <Trackpoint>
            <Time>2018-12-30T13:53:06.000Z</Time>
            <Position>
              <LatitudeDegrees>40.74674782343208789825439453125</LatitudeDegrees>
              <LongitudeDegrees>-4.08225380815565586090087890625</LongitudeDegrees>
            </Position>
            <AltitudeMeters>1451.4000244140625</AltitudeMeters>
            <DistanceMeters>NAN</DistanceMeters>
          </Trackpoint>
          <Trackpoint>
            <Time>2018-12-30T13:53:07.000Z</Time>
            <Position>
              <LatitudeDegrees>40.74672653339803218841552734375</LatitudeDegrees>
              <LongitudeDegrees>-4.08226512372493743896484375</LongitudeDegrees>
            </Position>
            <AltitudeMeters>1451.199951171875</AltitudeMeters>
            <DistanceMeters>NAN</DistanceMeters>
          </Trackpoint>
          <Trackpoint>
            <Time>2018-12-30T13:53:08.000Z</Time>
            <Position>
              <LatitudeDegrees>40.74670893140137195587158203125</LatitudeDegrees>
              <LongitudeDegrees>-4.08225632272660732269287109375</LongitudeDegrees>
            </Position>
            <AltitudeMeters>1451</AltitudeMeters>
            <DistanceMeters>NAN</DistanceMeters>
          </Trackpoint>
          <Trackpoint>
            <Time>2018-12-30T13:53:09.000Z</Time>
            <Position>
              <LatitudeDegrees>40.74669602327048778533935546875</LatitudeDegrees>
              <LongitudeDegrees>-4.08225716091692447662353515625</LongitudeDegrees>
            </Position>
            <AltitudeMeters>1450.800048828125</AltitudeMeters>
            <DistanceMeters>NAN</DistanceMeters>
          </Trackpoint>
          <Trackpoint>
            <Time>2018-12-30T13:53:10.000Z</Time>
            <Position>
              <LatitudeDegrees>40.74668663553893566131591796875</LatitudeDegrees>
              <LongitudeDegrees>-4.08225439488887786865234375</LongitudeDegrees>
            </Position>
            <AltitudeMeters>1450.5999755859375</AltitudeMeters>
            <DistanceMeters>NAN</DistanceMeters>
          </Trackpoint>
          <Trackpoint>
            <Time>2018-12-30T13:53:11.000Z</Time>
            <Position>
              <LatitudeDegrees>40.7466798461973667144775390625</LatitudeDegrees>
              <LongitudeDegrees>-4.08225380815565586090087890625</LongitudeDegrees>
            </Position>
            <AltitudeMeters>1450.4000244140625</AltitudeMeters>
            <DistanceMeters>NAN</DistanceMeters>
          </Trackpoint>
          <Trackpoint>
            <Time>2018-12-30T13:53:12.000Z</Time>
            <Position>
              <LatitudeDegrees>40.7466691173613071441650390625</LatitudeDegrees>
              <LongitudeDegrees>-4.08225196413695812225341796875</LongitudeDegrees>
            </Position>
            <AltitudeMeters>1450.199951171875</AltitudeMeters>
            <DistanceMeters>NAN</DistanceMeters>
          </Trackpoint>
          <Trackpoint>
            <Time>2018-12-30T13:53:13.000Z</Time>
            <Position>
              <LatitudeDegrees>40.74666048400104045867919921875</LatitudeDegrees>
              <LongitudeDegrees>-4.08224509097635746002197265625</LongitudeDegrees>
            </Position>
            <AltitudeMeters>1450.199951171875</AltitudeMeters>
            <DistanceMeters>NAN</DistanceMeters>
          </Trackpoint>
          <Trackpoint>
            <Time>2018-12-30T13:53:14.000Z</Time>
            <Position>
              <LatitudeDegrees>40.74665285646915435791015625</LatitudeDegrees>
              <LongitudeDegrees>-4.0822394751012325286865234375</LongitudeDegrees>
            </Position>
            <AltitudeMeters>1450.199951171875</AltitudeMeters>
            <DistanceMeters>NAN</DistanceMeters>
          </Trackpoint>
          <Trackpoint>
            <Time>2018-12-30T13:53:15.000Z</Time>
            <Position>
              <LatitudeDegrees>40.74664338491857051849365234375</LatitudeDegrees>
              <LongitudeDegrees>-4.08223696053028106689453125</LongitudeDegrees>
            </Position>
            <AltitudeMeters>1450</AltitudeMeters>
            <DistanceMeters>NAN</DistanceMeters>
          </Trackpoint>
          <Trackpoint>
            <Time>2018-12-30T13:53:16.000Z</Time>
            <Position>
              <LatitudeDegrees>40.7466362603008747100830078125</LatitudeDegrees>
              <LongitudeDegrees>-4.08223302103579044342041015625</LongitudeDegrees>
            </Position>
            <AltitudeMeters>1450</AltitudeMeters>
            <DistanceMeters>NAN</DistanceMeters>
          </Trackpoint>
          <Trackpoint>
            <Time>2018-12-30T13:53:17.000Z</Time>
            <Position>
              <LatitudeDegrees>40.74663005769252777099609375</LatitudeDegrees>
              <LongitudeDegrees>-4.0822297520935535430908203125</LongitudeDegrees>
            </Position>
            <AltitudeMeters>1449.800048828125</AltitudeMeters>
            <DistanceMeters>NAN</DistanceMeters>
          </Trackpoint>
          <Trackpoint>
            <Time>2018-12-30T13:53:18.000Z</Time>
            <Position>
              <LatitudeDegrees>40.74662695638835430145263671875</LatitudeDegrees>
              <LongitudeDegrees>-4.08222581259906291961669921875</LongitudeDegrees>
            </Position>
            <AltitudeMeters>1449.4000244140625</AltitudeMeters>
            <DistanceMeters>NAN</DistanceMeters>
          </Trackpoint>
          <Trackpoint>
            <Time>2018-12-30T13:53:19.000Z</Time>
            <Position>
              <LatitudeDegrees>40.74662410654127597808837890625</LatitudeDegrees>
              <LongitudeDegrees>-4.082220532000064849853515625</LongitudeDegrees>
            </Position>
            <AltitudeMeters>1449</AltitudeMeters>
            <DistanceMeters>NAN</DistanceMeters>
          </Trackpoint>
          <Trackpoint>
            <Time>2018-12-30T13:53:20.000Z</Time>
            <Position>
              <LatitudeDegrees>40.74660717509686946868896484375</LatitudeDegrees>
              <LongitudeDegrees>-4.0822000801563262939453125</LongitudeDegrees>
            </Position>
            <AltitudeMeters>1448.800048828125</AltitudeMeters>
            <DistanceMeters>NAN</DistanceMeters>
          </Trackpoint>
          <Trackpoint>
            <Time>2018-12-30T13:53:21.000Z</Time>
            <Position>
              <LatitudeDegrees>40.74660164304077625274658203125</LatitudeDegrees>
              <LongitudeDegrees>-4.082182981073856353759765625</LongitudeDegrees>
            </Position>
            <AltitudeMeters>1448.5999755859375</AltitudeMeters>
            <DistanceMeters>NAN</DistanceMeters>
          </Trackpoint>
          <Trackpoint>
            <Time>2018-12-30T13:53:22.000Z</Time>
            <Position>
              <LatitudeDegrees>40.746587812900543212890625</LatitudeDegrees>
              <LongitudeDegrees>-4.0821811370551586151123046875</LongitudeDegrees>
            </Position>
            <AltitudeMeters>1448.4000244140625</AltitudeMeters>
            <DistanceMeters>NAN</DistanceMeters>
          </Trackpoint>
          <Trackpoint>
            <Time>2018-12-30T13:53:23.000Z</Time>
            <Position>
              <LatitudeDegrees>40.74657800607383251190185546875</LatitudeDegrees>
              <LongitudeDegrees>-4.08215381205081939697265625</LongitudeDegrees>
            </Position>
            <AltitudeMeters>1448.4000244140625</AltitudeMeters>
            <DistanceMeters>NAN</DistanceMeters>
          </Trackpoint>
          <Trackpoint>
            <Time>2018-12-30T13:53:24.000Z</Time>
            <Position>
              <LatitudeDegrees>40.74657515622675418853759765625</LatitudeDegrees>
              <LongitudeDegrees>-4.0821392275393009185791015625</LongitudeDegrees>
            </Position>
            <AltitudeMeters>1448</AltitudeMeters>
            <DistanceMeters>NAN</DistanceMeters>
          </Trackpoint>
          <Trackpoint>
            <Time>2018-12-30T13:53:25.000Z</Time>
            <Position>
              <LatitudeDegrees>40.7465745694935321807861328125</LatitudeDegrees>
              <LongitudeDegrees>-4.08212154172360897064208984375</LongitudeDegrees>
            </Position>
            <AltitudeMeters>1448</AltitudeMeters>
            <DistanceMeters>NAN</DistanceMeters>
          </Trackpoint>
          <Trackpoint>
            <Time>2018-12-30T13:53:26.000Z</Time>
            <Position>
              <LatitudeDegrees>40.7465859688818454742431640625</LatitudeDegrees>
              <LongitudeDegrees>-4.0821046940982341766357421875</LongitudeDegrees>
            </Position>
            <AltitudeMeters>1447.800048828125</AltitudeMeters>
            <DistanceMeters>NAN</DistanceMeters>
          </Trackpoint>
          <Trackpoint>
            <Time>2018-12-30T13:53:27.000Z</Time>
            <Position>
              <LatitudeDegrees>40.74658756144344806671142578125</LatitudeDegrees>
              <LongitudeDegrees>-4.08209304325282573699951171875</LongitudeDegrees>
            </Position>
            <AltitudeMeters>1447.5999755859375</AltitudeMeters>
            <DistanceMeters>NAN</DistanceMeters>
          </Trackpoint>
          <Trackpoint>
            <Time>2018-12-30T13:53:28.000Z</Time>
            <Position>
              <LatitudeDegrees>40.7465889863669872283935546875</LatitudeDegrees>
              <LongitudeDegrees>-4.08207342959940433502197265625</LongitudeDegrees>
            </Position>
            <AltitudeMeters>1447.4000244140625</AltitudeMeters>
            <DistanceMeters>NAN</DistanceMeters>
          </Trackpoint>
          <Trackpoint>
            <Time>2018-12-30T13:53:29.000Z</Time>
            <Position>
              <LatitudeDegrees>40.74659476988017559051513671875</LatitudeDegrees>
              <LongitudeDegrees>-4.08206102438271045684814453125</LongitudeDegrees>
            </Position>
            <AltitudeMeters>1447.4000244140625</AltitudeMeters>
            <DistanceMeters>NAN</DistanceMeters>
          </Trackpoint>
          <Trackpoint>
            <Time>2018-12-30T13:53:30.000Z</Time>
            <Position>
              <LatitudeDegrees>40.74660499580204486846923828125</LatitudeDegrees>
              <LongitudeDegrees>-4.08204124309122562408447265625</LongitudeDegrees>
            </Position>
            <AltitudeMeters>1447.199951171875</AltitudeMeters>
            <DistanceMeters>NAN</DistanceMeters>
          </Trackpoint>
          <Trackpoint>
            <Time>2018-12-30T13:53:31.000Z</Time>
            <Position>
              <LatitudeDegrees>40.74660868383944034576416015625</LatitudeDegrees>
              <LongitudeDegrees>-4.08201928250491619110107421875</LongitudeDegrees>
            </Position>
            <AltitudeMeters>1447.199951171875</AltitudeMeters>
            <DistanceMeters>NAN</DistanceMeters>
          </Trackpoint>
          <Trackpoint>
            <Time>2018-12-30T13:53:32.000Z</Time>
            <Position>
              <LatitudeDegrees>40.74661664664745330810546875</LatitudeDegrees>
              <LongitudeDegrees>-4.08200235106050968170166015625</LongitudeDegrees>
            </Position>
            <AltitudeMeters>1446.800048828125</AltitudeMeters>
            <DistanceMeters>NAN</DistanceMeters>
          </Trackpoint>
          <Trackpoint>
            <Time>2018-12-30T13:53:33.000Z</Time>
            <Position>
              <LatitudeDegrees>40.7466208375990390777587890625</LatitudeDegrees>
              <LongitudeDegrees>-4.08198860473930835723876953125</LongitudeDegrees>
            </Position>
            <AltitudeMeters>1446.5999755859375</AltitudeMeters>
            <DistanceMeters>NAN</DistanceMeters>
          </Trackpoint>
          <Trackpoint>
            <Time>2018-12-30T13:53:34.000Z</Time>
            <Position>
              <LatitudeDegrees>40.74662444181740283966064453125</LatitudeDegrees>
              <LongitudeDegrees>-4.08198072575032711029052734375</LongitudeDegrees>
            </Position>
            <AltitudeMeters>1446.199951171875</AltitudeMeters>
            <DistanceMeters>NAN</DistanceMeters>
          </Trackpoint>
          <Trackpoint>
            <Time>2018-12-30T13:53:35.000Z</Time>
            <Position>
              <LatitudeDegrees>40.7466228492558002471923828125</LatitudeDegrees>
              <LongitudeDegrees>-4.0819685719907283782958984375</LongitudeDegrees>
            </Position>
            <AltitudeMeters>1446</AltitudeMeters>
            <DistanceMeters>NAN</DistanceMeters>
          </Trackpoint>
          <Trackpoint>
            <Time>2018-12-30T13:53:36.000Z</Time>
            <Position>
              <LatitudeDegrees>40.7466267049312591552734375</LatitudeDegrees>
              <LongitudeDegrees>-4.08194904215633869171142578125</LongitudeDegrees>
            </Position>
            <AltitudeMeters>1445.800048828125</AltitudeMeters>
            <DistanceMeters>NAN</DistanceMeters>
          </Trackpoint>
          <Trackpoint>
            <Time>2018-12-30T13:53:37.000Z</Time>
            <Position>
              <LatitudeDegrees>40.7466295547783374786376953125</LatitudeDegrees>
              <LongitudeDegrees>-4.081934206187725067138671875</LongitudeDegrees>
            </Position>
            <AltitudeMeters>1445.5999755859375</AltitudeMeters>
            <DistanceMeters>NAN</DistanceMeters>
          </Trackpoint>
          <Trackpoint>
            <Time>2018-12-30T13:53:38.000Z</Time>
            <Position>
              <LatitudeDegrees>40.74663450010120868682861328125</LatitudeDegrees>
              <LongitudeDegrees>-4.0819291770458221435546875</LongitudeDegrees>
            </Position>
            <AltitudeMeters>1445.199951171875</AltitudeMeters>
            <DistanceMeters>NAN</DistanceMeters>
          </Trackpoint>
          <Trackpoint>
            <Time>2018-12-30T13:53:39.000Z</Time>
            <Position>
              <LatitudeDegrees>40.74664036743342876434326171875</LatitudeDegrees>
              <LongitudeDegrees>-4.08192255534231662750244140625</LongitudeDegrees>
            </Position>
            <AltitudeMeters>1445.199951171875</AltitudeMeters>
            <DistanceMeters>NAN</DistanceMeters>
          </Trackpoint>
          <Trackpoint>
            <Time>2018-12-30T13:53:40.000Z</Time>
            <Position>
              <LatitudeDegrees>40.7466454803943634033203125</LatitudeDegrees>
              <LongitudeDegrees>-4.081923477351665496826171875</LongitudeDegrees>
            </Position>
            <AltitudeMeters>1444.800048828125</AltitudeMeters>
            <DistanceMeters>NAN</DistanceMeters>
          </Trackpoint>
          <Trackpoint>
            <Time>2018-12-30T13:53:41.000Z</Time>
            <Position>
              <LatitudeDegrees>40.74665092863142490386962890625</LatitudeDegrees>
              <LongitudeDegrees>-4.0819139219820499420166015625</LongitudeDegrees>
            </Position>
            <AltitudeMeters>1444.5999755859375</AltitudeMeters>
            <DistanceMeters>NAN</DistanceMeters>
          </Trackpoint>
          <Trackpoint>
            <Time>2018-12-30T13:53:42.000Z</Time>
            <Position>
              <LatitudeDegrees>40.74665059335529804229736328125</LatitudeDegrees>
              <LongitudeDegrees>-4.08190143294632434844970703125</LongitudeDegrees>
            </Position>
            <AltitudeMeters>1444.199951171875</AltitudeMeters>
            <DistanceMeters>NAN</DistanceMeters>
          </Trackpoint>
          <Trackpoint>
            <Time>2018-12-30T13:53:43.000Z</Time>
            <Position>
              <LatitudeDegrees>40.7466476596891880035400390625</LatitudeDegrees>
              <LongitudeDegrees>-4.08189087174832820892333984375</LongitudeDegrees>
            </Position>
            <AltitudeMeters>1444</AltitudeMeters>
            <DistanceMeters>NAN</DistanceMeters>
          </Trackpoint>
          <Trackpoint>
            <Time>2018-12-30T13:53:44.000Z</Time>
            <Position>
              <LatitudeDegrees>40.74664187617599964141845703125</LatitudeDegrees>
              <LongitudeDegrees>-4.0818808972835540771484375</LongitudeDegrees>
            </Position>
            <AltitudeMeters>1443.5999755859375</AltitudeMeters>
            <DistanceMeters>NAN</DistanceMeters>
          </Trackpoint>
          <Trackpoint>
            <Time>2018-12-30T13:53:45.000Z</Time>
            <Position>
              <LatitudeDegrees>40.7466426305472850799560546875</LatitudeDegrees>
              <LongitudeDegrees>-4.0818770416080951690673828125</LongitudeDegrees>
            </Position>
            <AltitudeMeters>1443.5999755859375</AltitudeMeters>
            <DistanceMeters>NAN</DistanceMeters>
          </Trackpoint>
          <Trackpoint>
            <Time>2018-12-30T13:53:46.000Z</Time>
            <Position>
              <LatitudeDegrees>40.74664372019469738006591796875</LatitudeDegrees>
              <LongitudeDegrees>-4.08187729306519031524658203125</LongitudeDegrees>
            </Position>
            <AltitudeMeters>1443.5999755859375</AltitudeMeters>
            <DistanceMeters>NAN</DistanceMeters>
          </Trackpoint>
          <Trackpoint>
            <Time>2018-12-30T13:53:47.000Z</Time>
            <Position>
              <LatitudeDegrees>40.74663869105279445648193359375</LatitudeDegrees>
              <LongitudeDegrees>-4.0818820707499980926513671875</LongitudeDegrees>
            </Position>
            <AltitudeMeters>1443.5999755859375</AltitudeMeters>
            <DistanceMeters>NAN</DistanceMeters>
          </Trackpoint>
          <Trackpoint>
            <Time>2018-12-30T13:53:48.000Z</Time>
            <Position>
              <LatitudeDegrees>40.74664254672825336456298828125</LatitudeDegrees>
              <LongitudeDegrees>-4.0818974934518337249755859375</LongitudeDegrees>
            </Position>
            <AltitudeMeters>1443.800048828125</AltitudeMeters>
            <DistanceMeters>NAN</DistanceMeters>
          </Trackpoint>
          <Trackpoint>
            <Time>2018-12-30T13:53:49.000Z</Time>
            <Position>
              <LatitudeDegrees>40.7466409541666507720947265625</LatitudeDegrees>
              <LongitudeDegrees>-4.0818968228995800018310546875</LongitudeDegrees>
            </Position>
            <AltitudeMeters>1444</AltitudeMeters>
            <DistanceMeters>NAN</DistanceMeters>
          </Trackpoint>
          <Trackpoint>
            <Time>2018-12-30T13:53:50.000Z</Time>
            <Position>
              <LatitudeDegrees>40.74663986451923847198486328125</LatitudeDegrees>
              <LongitudeDegrees>-4.08189824782311916351318359375</LongitudeDegrees>
            </Position>
            <AltitudeMeters>1444.199951171875</AltitudeMeters>
            <DistanceMeters>NAN</DistanceMeters>
          </Trackpoint>
          <Trackpoint>
            <Time>2018-12-30T13:53:51.000Z</Time>
            <Position>
              <LatitudeDegrees>40.7466399483382701873779296875</LatitudeDegrees>
              <LongitudeDegrees>-4.0818974934518337249755859375</LongitudeDegrees>
            </Position>
            <AltitudeMeters>1444.199951171875</AltitudeMeters>
            <DistanceMeters>NAN</DistanceMeters>
          </Trackpoint>
          <Trackpoint>
            <Time>2018-12-30T13:53:52.000Z</Time>
            <Position>
              <LatitudeDegrees>40.7466374337673187255859375</LatitudeDegrees>
              <LongitudeDegrees>-4.08189221285283565521240234375</LongitudeDegrees>
            </Position>
            <AltitudeMeters>1444.4000244140625</AltitudeMeters>
            <DistanceMeters>NAN</DistanceMeters>
          </Trackpoint>
          <Trackpoint>
            <Time>2018-12-30T13:53:53.000Z</Time>
            <Position>
              <LatitudeDegrees>40.74664615094661712646484375</LatitudeDegrees>
              <LongitudeDegrees>-4.08188047818839550018310546875</LongitudeDegrees>
            </Position>
            <AltitudeMeters>1444.4000244140625</AltitudeMeters>
            <DistanceMeters>NAN</DistanceMeters>
          </Trackpoint>
          <Trackpoint>
            <Time>2018-12-30T13:53:54.000Z</Time>
            <Position>
              <LatitudeDegrees>40.74664372019469738006591796875</LatitudeDegrees>
              <LongitudeDegrees>-4.0818696655333042144775390625</LongitudeDegrees>
            </Position>
            <AltitudeMeters>1444.199951171875</AltitudeMeters>
            <DistanceMeters>NAN</DistanceMeters>
          </Trackpoint>
          <Trackpoint>
            <Time>2018-12-30T13:53:55.000Z</Time>
            <Position>
              <LatitudeDegrees>40.74664757587015628814697265625</LatitudeDegrees>
              <LongitudeDegrees>-4.08186036162078380584716796875</LongitudeDegrees>
            </Position>
            <AltitudeMeters>1443.800048828125</AltitudeMeters>
            <DistanceMeters>NAN</DistanceMeters>
          </Trackpoint>
          <Trackpoint>
            <Time>2018-12-30T13:53:56.000Z</Time>
            <Position>
              <LatitudeDegrees>40.74664707295596599578857421875</LatitudeDegrees>
              <LongitudeDegrees>-4.08185047097504138946533203125</LongitudeDegrees>
            </Position>
            <AltitudeMeters>1443.5999755859375</AltitudeMeters>
            <DistanceMeters>NAN</DistanceMeters>
          </Trackpoint>
          <Trackpoint>
            <Time>2018-12-30T13:53:57.000Z</Time>
            <Position>
              <LatitudeDegrees>40.74664774350821971893310546875</LatitudeDegrees>
              <LongitudeDegrees>-4.08184175379574298858642578125</LongitudeDegrees>
            </Position>
            <AltitudeMeters>1443.199951171875</AltitudeMeters>
            <DistanceMeters>NAN</DistanceMeters>
          </Trackpoint>
          <Trackpoint>
            <Time>2018-12-30T13:53:58.000Z</Time>
            <Position>
              <LatitudeDegrees>40.74664070270955562591552734375</LatitudeDegrees>
              <LongitudeDegrees>-4.0818257443606853485107421875</LongitudeDegrees>
            </Position>
            <AltitudeMeters>1443</AltitudeMeters>
            <DistanceMeters>NAN</DistanceMeters>
          </Trackpoint>
          <Trackpoint>
            <Time>2018-12-30T13:53:59.000Z</Time>
            <Position>
              <LatitudeDegrees>40.746647156774997711181640625</LatitudeDegrees>
              <LongitudeDegrees>-4.0818203799426555633544921875</LongitudeDegrees>
            </Position>
            <AltitudeMeters>1442.800048828125</AltitudeMeters>
            <DistanceMeters>NAN</DistanceMeters>
          </Trackpoint>
          <Trackpoint>
            <Time>2018-12-30T13:54:00.000Z</Time>
            <Position>
              <LatitudeDegrees>40.74664640240371227264404296875</LatitudeDegrees>
              <LongitudeDegrees>-4.0818270854651927947998046875</LongitudeDegrees>
            </Position>
            <AltitudeMeters>1442.5999755859375</AltitudeMeters>
            <DistanceMeters>NAN</DistanceMeters>
          </Trackpoint>
          <Trackpoint>
            <Time>2018-12-30T13:54:01.000Z</Time>
            <Position>
              <LatitudeDegrees>40.74664891697466373443603515625</LatitudeDegrees>
              <LongitudeDegrees>-4.08183169551193714141845703125</LongitudeDegrees>
            </Position>
            <AltitudeMeters>1442.4000244140625</AltitudeMeters>
            <DistanceMeters>NAN</DistanceMeters>
          </Trackpoint>
          <Trackpoint>
            <Time>2018-12-30T13:54:02.000Z</Time>
            <Position>
              <LatitudeDegrees>40.7466422952711582183837890625</LatitudeDegrees>
              <LongitudeDegrees>-4.08181593753397464752197265625</LongitudeDegrees>
            </Position>
            <AltitudeMeters>1442</AltitudeMeters>
            <DistanceMeters>NAN</DistanceMeters>
          </Trackpoint>
          <Trackpoint>
            <Time>2018-12-30T13:54:03.000Z</Time>
            <Position>
              <LatitudeDegrees>40.746638439595699310302734375</LatitudeDegrees>
              <LongitudeDegrees>-4.08180512487888336181640625</LongitudeDegrees>
            </Position>
            <AltitudeMeters>1441.800048828125</AltitudeMeters>
            <DistanceMeters>NAN</DistanceMeters>
          </Trackpoint>
          <Trackpoint>
            <Time>2018-12-30T13:54:04.000Z</Time>
            <Position>
              <LatitudeDegrees>40.74663181789219379425048828125</LatitudeDegrees>
              <LongitudeDegrees>-4.08180252648890018463134765625</LongitudeDegrees>
            </Position>
            <AltitudeMeters>1441.4000244140625</AltitudeMeters>
            <DistanceMeters>NAN</DistanceMeters>
          </Trackpoint>
          <Trackpoint>
            <Time>2018-12-30T13:54:05.000Z</Time>
            <Position>
              <LatitudeDegrees>40.746625028550624847412109375</LatitudeDegrees>
              <LongitudeDegrees>-4.08180621452629566192626953125</LongitudeDegrees>
            </Position>
            <AltitudeMeters>1441.199951171875</AltitudeMeters>
            <DistanceMeters>NAN</DistanceMeters>
          </Trackpoint>
          <Trackpoint>
            <Time>2018-12-30T13:54:06.000Z</Time>
            <Position>
              <LatitudeDegrees>40.74661773629486560821533203125</LatitudeDegrees>
              <LongitudeDegrees>-4.0818170271813869476318359375</LongitudeDegrees>
            </Position>
            <AltitudeMeters>1441.199951171875</AltitudeMeters>
            <DistanceMeters>NAN</DistanceMeters>
          </Trackpoint>
          <Trackpoint>
            <Time>2018-12-30T13:54:07.000Z</Time>
            <Position>
              <LatitudeDegrees>40.74661471880972385406494140625</LatitudeDegrees>
              <LongitudeDegrees>-4.0818250738084316253662109375</LongitudeDegrees>
            </Position>
            <AltitudeMeters>1441</AltitudeMeters>
            <DistanceMeters>NAN</DistanceMeters>
          </Trackpoint>
          <Trackpoint>
            <Time>2018-12-30T13:54:08.000Z</Time>
            <Position>
              <LatitudeDegrees>40.74660901911556720733642578125</LatitudeDegrees>
              <LongitudeDegrees>-4.0818379819393157958984375</LongitudeDegrees>
            </Position>
            <AltitudeMeters>1440.800048828125</AltitudeMeters>
            <DistanceMeters>NAN</DistanceMeters>
          </Trackpoint>
          <Trackpoint>
            <Time>2018-12-30T13:54:09.000Z</Time>
            <Position>
              <LatitudeDegrees>40.74660583399236202239990234375</LatitudeDegrees>
              <LongitudeDegrees>-4.0818431787192821502685546875</LongitudeDegrees>
            </Position>
            <AltitudeMeters>1440.5999755859375</AltitudeMeters>
            <DistanceMeters>NAN</DistanceMeters>
          </Trackpoint>
          <Trackpoint>
            <Time>2018-12-30T13:54:10.000Z</Time>
            <Position>
              <LatitudeDegrees>40.7465998828411102294921875</LatitudeDegrees>
              <LongitudeDegrees>-4.08184711821377277374267578125</LongitudeDegrees>
            </Position>
            <AltitudeMeters>1440.4000244140625</AltitudeMeters>
            <DistanceMeters>NAN</DistanceMeters>
          </Trackpoint>
          <Trackpoint>
            <Time>2018-12-30T13:54:11.000Z</Time>
            <Position>
              <LatitudeDegrees>40.74659879319369792938232421875</LatitudeDegrees>
              <LongitudeDegrees>-4.08184426836669445037841796875</LongitudeDegrees>
            </Position>
            <AltitudeMeters>1440.4000244140625</AltitudeMeters>
            <DistanceMeters>NAN</DistanceMeters>
          </Trackpoint>
          <Trackpoint>
            <Time>2018-12-30T13:54:12.000Z</Time>
            <Position>
              <LatitudeDegrees>40.746590159833431243896484375</LatitudeDegrees>
              <LongitudeDegrees>-4.0818458609282970428466796875</LongitudeDegrees>
            </Position>
            <AltitudeMeters>1440.199951171875</AltitudeMeters>
            <DistanceMeters>NAN</DistanceMeters>
          </Trackpoint>
          <Trackpoint>
            <Time>2018-12-30T13:54:13.000Z</Time>
            <Position>
              <LatitudeDegrees>40.74657683260738849639892578125</LatitudeDegrees>
              <LongitudeDegrees>-4.08186807297170162200927734375</LongitudeDegrees>
            </Position>
            <AltitudeMeters>1440.4000244140625</AltitudeMeters>
            <DistanceMeters>NAN</DistanceMeters>
          </Trackpoint>
          <Trackpoint>
            <Time>2018-12-30T13:54:14.000Z</Time>
            <Position>
              <LatitudeDegrees>40.7465775869786739349365234375</LatitudeDegrees>
              <LongitudeDegrees>-4.0818689949810504913330078125</LongitudeDegrees>
            </Position>
            <AltitudeMeters>1440.4000244140625</AltitudeMeters>
            <DistanceMeters>NAN</DistanceMeters>
          </Trackpoint>
          <Trackpoint>
            <Time>2018-12-30T13:54:15.000Z</Time>
            <Position>
              <LatitudeDegrees>40.7465812750160694122314453125</LatitudeDegrees>
              <LongitudeDegrees>-4.08186874352395534515380859375</LongitudeDegrees>
            </Position>
            <AltitudeMeters>1440.199951171875</AltitudeMeters>
            <DistanceMeters>NAN</DistanceMeters>
          </Trackpoint>
          <Trackpoint>
            <Time>2018-12-30T13:54:16.000Z</Time>
            <Position>
              <LatitudeDegrees>40.7465851306915283203125</LatitudeDegrees>
              <LongitudeDegrees>-4.08186924643814563751220703125</LongitudeDegrees>
            </Position>
            <AltitudeMeters>1440.199951171875</AltitudeMeters>
            <DistanceMeters>NAN</DistanceMeters>
          </Trackpoint>
          <Trackpoint>
            <Time>2018-12-30T13:54:17.000Z</Time>
            <Position>
              <LatitudeDegrees>40.74658806435763835906982421875</LatitudeDegrees>
              <LongitudeDegrees>-4.0818713419139385223388671875</LongitudeDegrees>
            </Position>
            <AltitudeMeters>1440.199951171875</AltitudeMeters>
            <DistanceMeters>NAN</DistanceMeters>
          </Trackpoint>
          <Trackpoint>
            <Time>2018-12-30T13:54:18.000Z</Time>
            <Position>
              <LatitudeDegrees>40.746584795415401458740234375</LatitudeDegrees>
              <LongitudeDegrees>-4.08187008462846279144287109375</LongitudeDegrees>
            </Position>
            <AltitudeMeters>1440.199951171875</AltitudeMeters>
            <DistanceMeters>NAN</DistanceMeters>
          </Trackpoint>
          <Trackpoint>
            <Time>2018-12-30T13:54:19.000Z</Time>
            <Position>
              <LatitudeDegrees>40.74657775461673736572265625</LatitudeDegrees>
              <LongitudeDegrees>-4.08187075518071651458740234375</LongitudeDegrees>
            </Position>
            <AltitudeMeters>1440.199951171875</AltitudeMeters>
            <DistanceMeters>NAN</DistanceMeters>
          </Trackpoint>
          <Trackpoint>
            <Time>2018-12-30T13:54:20.000Z</Time>
            <Position>
              <LatitudeDegrees>40.74656610377132892608642578125</LatitudeDegrees>
              <LongitudeDegrees>-4.0818713419139385223388671875</LongitudeDegrees>
            </Position>
            <AltitudeMeters>1440</AltitudeMeters>
            <DistanceMeters>NAN</DistanceMeters>
          </Trackpoint>
          <Trackpoint>
            <Time>2018-12-30T13:54:21.000Z</Time>
            <Position>
              <LatitudeDegrees>40.74655403383076190948486328125</LatitudeDegrees>
              <LongitudeDegrees>-4.08187192864716053009033203125</LongitudeDegrees>
            </Position>
            <AltitudeMeters>1439.800048828125</AltitudeMeters>
            <DistanceMeters>NAN</DistanceMeters>
          </Trackpoint>
          <Trackpoint>
            <Time>2018-12-30T13:54:22.000Z</Time>
            <Position>
              <LatitudeDegrees>40.7465403713285923004150390625</LatitudeDegrees>
              <LongitudeDegrees>-4.0818736888468265533447265625</LongitudeDegrees>
            </Position>
            <AltitudeMeters>1439.5999755859375</AltitudeMeters>
            <DistanceMeters>NAN</DistanceMeters>
          </Trackpoint>
          <Trackpoint>
            <Time>2018-12-30T13:54:23.000Z</Time>
            <Position>
              <LatitudeDegrees>40.74652452953159809112548828125</LatitudeDegrees>
              <LongitudeDegrees>-4.08186907880008220672607421875</LongitudeDegrees>
            </Position>
            <AltitudeMeters>1439.199951171875</AltitudeMeters>
            <DistanceMeters>NAN</DistanceMeters>
          </Trackpoint>
          <Trackpoint>
            <Time>2018-12-30T13:54:24.000Z</Time>
            <Position>
              <LatitudeDegrees>40.74650910682976245880126953125</LatitudeDegrees>
              <LongitudeDegrees>-4.0818666480481624603271484375</LongitudeDegrees>
            </Position>
            <AltitudeMeters>1438.5999755859375</AltitudeMeters>
            <DistanceMeters>NAN</DistanceMeters>
          </Trackpoint>
          <Trackpoint>
            <Time>2018-12-30T13:54:25.000Z</Time>
            <Position>
              <LatitudeDegrees>40.74649686925113201141357421875</LatitudeDegrees>
              <LongitudeDegrees>-4.081865139305591583251953125</LongitudeDegrees>
            </Position>
            <AltitudeMeters>1438.199951171875</AltitudeMeters>
            <DistanceMeters>NAN</DistanceMeters>
          </Trackpoint>
          <Trackpoint>
            <Time>2018-12-30T13:54:26.000Z</Time>
            <Position>
              <LatitudeDegrees>40.74648479931056499481201171875</LatitudeDegrees>
              <LongitudeDegrees>-4.08186103217303752899169921875</LongitudeDegrees>
            </Position>
            <AltitudeMeters>1438</AltitudeMeters>
            <DistanceMeters>NAN</DistanceMeters>
          </Trackpoint>
          <Trackpoint>
            <Time>2018-12-30T13:54:27.000Z</Time>
            <Position>
              <LatitudeDegrees>40.7464753277599811553955078125</LatitudeDegrees>
              <LongitudeDegrees>-4.081855081021785736083984375</LongitudeDegrees>
            </Position>
            <AltitudeMeters>1437.800048828125</AltitudeMeters>
            <DistanceMeters>NAN</DistanceMeters>
          </Trackpoint>
          <Trackpoint>
            <Time>2018-12-30T13:54:28.000Z</Time>
            <Position>
              <LatitudeDegrees>40.74646082706749439239501953125</LatitudeDegrees>
              <LongitudeDegrees>-4.08186807297170162200927734375</LongitudeDegrees>
            </Position>
            <AltitudeMeters>1437.5999755859375</AltitudeMeters>
            <DistanceMeters>NAN</DistanceMeters>
          </Trackpoint>
          <Trackpoint>
            <Time>2018-12-30T13:54:29.000Z</Time>
            <Position>
              <LatitudeDegrees>40.74645495973527431488037109375</LatitudeDegrees>
              <LongitudeDegrees>-4.0818589366972446441650390625</LongitudeDegrees>
            </Position>
            <AltitudeMeters>1437.5999755859375</AltitudeMeters>
            <DistanceMeters>NAN</DistanceMeters>
          </Trackpoint>
          <Trackpoint>
            <Time>2018-12-30T13:54:30.000Z</Time>
            <Position>
              <LatitudeDegrees>40.74644791893661022186279296875</LatitudeDegrees>
              <LongitudeDegrees>-4.081856422126293182373046875</LongitudeDegrees>
            </Position>
            <AltitudeMeters>1437.5999755859375</AltitudeMeters>
            <DistanceMeters>NAN</DistanceMeters>
          </Trackpoint>
          <Trackpoint>
            <Time>2018-12-30T13:54:31.000Z</Time>
            <Position>
              <LatitudeDegrees>40.74643886648118495941162109375</LatitudeDegrees>
              <LongitudeDegrees>-4.08185617066919803619384765625</LongitudeDegrees>
            </Position>
            <AltitudeMeters>1437.5999755859375</AltitudeMeters>
            <DistanceMeters>NAN</DistanceMeters>
          </Trackpoint>
          <Trackpoint>
            <Time>2018-12-30T13:54:32.000Z</Time>
            <Position>
              <LatitudeDegrees>40.74643853120505809783935546875</LatitudeDegrees>
              <LongitudeDegrees>-4.08184628002345561981201171875</LongitudeDegrees>
            </Position>
            <AltitudeMeters>1437.5999755859375</AltitudeMeters>
            <DistanceMeters>NAN</DistanceMeters>
          </Trackpoint>
          <Trackpoint>
            <Time>2018-12-30T13:54:33.000Z</Time>
            <Position>
              <LatitudeDegrees>40.74643366970121860504150390625</LatitudeDegrees>
              <LongitudeDegrees>-4.08185365609824657440185546875</LongitudeDegrees>
            </Position>
            <AltitudeMeters>1437.4000244140625</AltitudeMeters>
            <DistanceMeters>NAN</DistanceMeters>
          </Trackpoint>
          <Trackpoint>
            <Time>2018-12-30T13:54:34.000Z</Time>
            <Position>
              <LatitudeDegrees>40.74642947874963283538818359375</LatitudeDegrees>
              <LongitudeDegrees>-4.081854410469532012939453125</LongitudeDegrees>
            </Position>
            <AltitudeMeters>1437.199951171875</AltitudeMeters>
            <DistanceMeters>NAN</DistanceMeters>
          </Trackpoint>
          <Trackpoint>
            <Time>2018-12-30T13:54:35.000Z</Time>
            <Position>
              <LatitudeDegrees>40.7464230246841907501220703125</LatitudeDegrees>
              <LongitudeDegrees>-4.081857092678546905517578125</LongitudeDegrees>
            </Position>
            <AltitudeMeters>1437.199951171875</AltitudeMeters>
            <DistanceMeters>NAN</DistanceMeters>
          </Trackpoint>
          <Trackpoint>
            <Time>2018-12-30T13:54:36.000Z</Time>
            <Position>
              <LatitudeDegrees>40.74641548097133636474609375</LatitudeDegrees>
              <LongitudeDegrees>-4.081859774887561798095703125</LongitudeDegrees>
            </Position>
            <AltitudeMeters>1437</AltitudeMeters>
            <DistanceMeters>NAN</DistanceMeters>
          </Trackpoint>
          <Trackpoint>
            <Time>2018-12-30T13:54:37.000Z</Time>
            <Position>
              <LatitudeDegrees>40.74640877544879913330078125</LatitudeDegrees>
              <LongitudeDegrees>-4.08186103217303752899169921875</LongitudeDegrees>
            </Position>
            <AltitudeMeters>1437</AltitudeMeters>
            <DistanceMeters>NAN</DistanceMeters>
          </Trackpoint>
          <Trackpoint>
            <Time>2018-12-30T13:54:38.000Z</Time>
            <Position>
              <LatitudeDegrees>40.74640148319303989410400390625</LatitudeDegrees>
              <LongitudeDegrees>-4.08186002634465694427490234375</LongitudeDegrees>
            </Position>
            <AltitudeMeters>1436.800048828125</AltitudeMeters>
            <DistanceMeters>NAN</DistanceMeters>
          </Trackpoint>
          <Trackpoint>
            <Time>2018-12-30T13:54:39.000Z</Time>
            <Position>
              <LatitudeDegrees>40.746395029127597808837890625</LatitudeDegrees>
              <LongitudeDegrees>-4.0818539075553417205810546875</LongitudeDegrees>
            </Position>
            <AltitudeMeters>1436.5999755859375</AltitudeMeters>
            <DistanceMeters>NAN</DistanceMeters>
          </Trackpoint>
          <Trackpoint>
            <Time>2018-12-30T13:54:40.000Z</Time>
            <Position>
              <LatitudeDegrees>40.74638505466282367706298828125</LatitudeDegrees>
              <LongitudeDegrees>-4.08184879459440708160400390625</LongitudeDegrees>
            </Position>
            <AltitudeMeters>1436.5999755859375</AltitudeMeters>
            <DistanceMeters>NAN</DistanceMeters>
          </Trackpoint>
          <Trackpoint>
            <Time>2018-12-30T13:54:41.000Z</Time>
            <Position>
              <LatitudeDegrees>40.746374242007732391357421875</LatitudeDegrees>
              <LongitudeDegrees>-4.08183856867253780364990234375</LongitudeDegrees>
            </Position>
            <AltitudeMeters>1436.4000244140625</AltitudeMeters>
            <DistanceMeters>NAN</DistanceMeters>
          </Trackpoint>
          <Trackpoint>
            <Time>2018-12-30T13:54:42.000Z</Time>
            <Position>
              <LatitudeDegrees>40.74634901247918605804443359375</LatitudeDegrees>
              <LongitudeDegrees>-4.08182532526552677154541015625</LongitudeDegrees>
            </Position>
            <AltitudeMeters>1436.4000244140625</AltitudeMeters>
            <DistanceMeters>NAN</DistanceMeters>
          </Trackpoint>
          <Trackpoint>
            <Time>2018-12-30T13:54:43.000Z</Time>
            <Position>
              <LatitudeDegrees>40.74633727781474590301513671875</LatitudeDegrees>
              <LongitudeDegrees>-4.0818160213530063629150390625</LongitudeDegrees>
            </Position>
            <AltitudeMeters>1436.4000244140625</AltitudeMeters>
            <DistanceMeters>NAN</DistanceMeters>
          </Trackpoint>
          <Trackpoint>
            <Time>2018-12-30T13:54:44.000Z</Time>
            <Position>
              <LatitudeDegrees>40.7463247887790203094482421875</LatitudeDegrees>
              <LongitudeDegrees>-4.08179649151861667633056640625</LongitudeDegrees>
            </Position>
            <AltitudeMeters>1436.199951171875</AltitudeMeters>
            <DistanceMeters>NAN</DistanceMeters>
          </Trackpoint>
          <Trackpoint>
            <Time>2018-12-30T13:54:45.000Z</Time>
            <Position>
              <LatitudeDegrees>40.746309198439121246337890625</LatitudeDegrees>
              <LongitudeDegrees>-4.08178911544382572174072265625</LongitudeDegrees>
            </Position>
            <AltitudeMeters>1435.800048828125</AltitudeMeters>
            <DistanceMeters>NAN</DistanceMeters>
          </Trackpoint>
          <Trackpoint>
            <Time>2018-12-30T13:54:46.000Z</Time>
            <Position>
              <LatitudeDegrees>40.74629704467952251434326171875</LatitudeDegrees>
              <LongitudeDegrees>-4.08178098499774932861328125</LongitudeDegrees>
            </Position>
            <AltitudeMeters>1435.5999755859375</AltitudeMeters>
            <DistanceMeters>NAN</DistanceMeters>
          </Trackpoint>
          <Trackpoint>
            <Time>2018-12-30T13:54:47.000Z</Time>
            <Position>
              <LatitudeDegrees>40.74628648348152637481689453125</LatitudeDegrees>
              <LongitudeDegrees>-4.08177771605551242828369140625</LongitudeDegrees>
            </Position>
            <AltitudeMeters>1435.4000244140625</AltitudeMeters>
            <DistanceMeters>NAN</DistanceMeters>
          </Trackpoint>
          <Trackpoint>
            <Time>2018-12-30T13:54:48.000Z</Time>
            <Position>
              <LatitudeDegrees>40.74627877213060855865478515625</LatitudeDegrees>
              <LongitudeDegrees>-4.08177318982779979705810546875</LongitudeDegrees>
            </Position>
            <AltitudeMeters>1435</AltitudeMeters>
            <DistanceMeters>NAN</DistanceMeters>
          </Trackpoint>
          <Trackpoint>
            <Time>2018-12-30T13:54:49.000Z</Time>
            <Position>
              <LatitudeDegrees>40.74627776630222797393798828125</LatitudeDegrees>
              <LongitudeDegrees>-4.08176447264850139617919921875</LongitudeDegrees>
            </Position>
            <AltitudeMeters>1434.800048828125</AltitudeMeters>
            <DistanceMeters>NAN</DistanceMeters>
          </Trackpoint>
          <Trackpoint>
            <Time>2018-12-30T13:54:50.000Z</Time>
            <Position>
              <LatitudeDegrees>40.74626536108553409576416015625</LatitudeDegrees>
              <LongitudeDegrees>-4.081763885915279388427734375</LongitudeDegrees>
            </Position>
            <AltitudeMeters>1434.5999755859375</AltitudeMeters>
            <DistanceMeters>NAN</DistanceMeters>
          </Trackpoint>
          <Trackpoint>
            <Time>2018-12-30T13:54:51.000Z</Time>
            <Position>
              <LatitudeDegrees>40.74625991284847259521484375</LatitudeDegrees>
              <LongitudeDegrees>-4.0817603655159473419189453125</LongitudeDegrees>
            </Position>
            <AltitudeMeters>1434.4000244140625</AltitudeMeters>
            <DistanceMeters>NAN</DistanceMeters>
          </Trackpoint>
          <Trackpoint>
            <Time>2018-12-30T13:54:52.000Z</Time>
            <Position>
              <LatitudeDegrees>40.746260918676853179931640625</LatitudeDegrees>
              <LongitudeDegrees>-4.08175726421177387237548828125</LongitudeDegrees>
            </Position>
            <AltitudeMeters>1434.199951171875</AltitudeMeters>
            <DistanceMeters>NAN</DistanceMeters>
          </Trackpoint>
          <Trackpoint>
            <Time>2018-12-30T13:54:53.000Z</Time>
            <Position>
              <LatitudeDegrees>40.74625630863010883331298828125</LatitudeDegrees>
              <LongitudeDegrees>-4.08175609074532985687255859375</LongitudeDegrees>
            </Position>
            <AltitudeMeters>1434.199951171875</AltitudeMeters>
            <DistanceMeters>NAN</DistanceMeters>
          </Trackpoint>
          <Trackpoint>
            <Time>2018-12-30T13:54:54.000Z</Time>
            <Position>
              <LatitudeDegrees>40.74625588953495025634765625</LatitudeDegrees>
              <LongitudeDegrees>-4.081749804317951202392578125</LongitudeDegrees>
            </Position>
            <AltitudeMeters>1434</AltitudeMeters>
            <DistanceMeters>NAN</DistanceMeters>
          </Trackpoint>
          <Trackpoint>
            <Time>2018-12-30T13:54:55.000Z</Time>
            <Position>
              <LatitudeDegrees>40.7462513633072376251220703125</LatitudeDegrees>
              <LongitudeDegrees>-4.08174737356603145599365234375</LongitudeDegrees>
            </Position>
            <AltitudeMeters>1433.800048828125</AltitudeMeters>
            <DistanceMeters>NAN</DistanceMeters>
          </Trackpoint>
          <Trackpoint>
            <Time>2018-12-30T13:54:56.000Z</Time>
            <Position>
              <LatitudeDegrees>40.7462490163743495941162109375</LatitudeDegrees>
              <LongitudeDegrees>-4.0817441046237945556640625</LongitudeDegrees>
            </Position>
            <AltitudeMeters>1433.5999755859375</AltitudeMeters>
            <DistanceMeters>NAN</DistanceMeters>
          </Trackpoint>
          <Trackpoint>
            <Time>2018-12-30T13:54:57.000Z</Time>
            <Position>
              <LatitudeDegrees>40.7462402991950511932373046875</LatitudeDegrees>
              <LongitudeDegrees>-4.0817409195005893707275390625</LongitudeDegrees>
            </Position>
            <AltitudeMeters>1433.4000244140625</AltitudeMeters>
            <DistanceMeters>NAN</DistanceMeters>
          </Trackpoint>
          <Trackpoint>
            <Time>2018-12-30T13:54:58.000Z</Time>
            <Position>
              <LatitudeDegrees>40.74623870663344860076904296875</LatitudeDegrees>
              <LongitudeDegrees>-4.0817285142838954925537109375</LongitudeDegrees>
            </Position>
            <AltitudeMeters>1433.199951171875</AltitudeMeters>
            <DistanceMeters>NAN</DistanceMeters>
          </Trackpoint>
          <Trackpoint>
            <Time>2018-12-30T13:54:59.000Z</Time>
            <Position>
              <LatitudeDegrees>40.74623803608119487762451171875</LatitudeDegrees>
              <LongitudeDegrees>-4.0817187912762165069580078125</LongitudeDegrees>
            </Position>
            <AltitudeMeters>1433</AltitudeMeters>
            <DistanceMeters>NAN</DistanceMeters>
          </Trackpoint>
          <Trackpoint>
            <Time>2018-12-30T13:55:00.000Z</Time>
            <Position>
              <LatitudeDegrees>40.74623040854930877685546875</LatitudeDegrees>
              <LongitudeDegrees>-4.081702195107936859130859375</LongitudeDegrees>
            </Position>
            <AltitudeMeters>1432.800048828125</AltitudeMeters>
            <DistanceMeters>NAN</DistanceMeters>
          </Trackpoint>
          <Trackpoint>
            <Time>2018-12-30T13:55:01.000Z</Time>
            <Position>
              <LatitudeDegrees>40.74622638523578643798828125</LatitudeDegrees>
              <LongitudeDegrees>-4.08169389702379703521728515625</LongitudeDegrees>
            </Position>
            <AltitudeMeters>1432.4000244140625</AltitudeMeters>
            <DistanceMeters>NAN</DistanceMeters>
          </Trackpoint>
          <Trackpoint>
            <Time>2018-12-30T13:55:02.000Z</Time>
            <Position>
              <LatitudeDegrees>40.7462014071643352508544921875</LatitudeDegrees>
              <LongitudeDegrees>-4.0816839225590229034423828125</LongitudeDegrees>
            </Position>
            <AltitudeMeters>1432.199951171875</AltitudeMeters>
            <DistanceMeters>NAN</DistanceMeters>
          </Trackpoint>
          <Trackpoint>
            <Time>2018-12-30T13:55:03.000Z</Time>
            <Position>
              <LatitudeDegrees>40.7461987249553203582763671875</LatitudeDegrees>
              <LongitudeDegrees>-4.0816758759319782257080078125</LongitudeDegrees>
            </Position>
            <AltitudeMeters>1431.800048828125</AltitudeMeters>
            <DistanceMeters>NAN</DistanceMeters>
          </Trackpoint>
          <Trackpoint>
            <Time>2018-12-30T13:55:04.000Z</Time>
            <Position>
              <LatitudeDegrees>40.74619143269956111907958984375</LatitudeDegrees>
              <LongitudeDegrees>-4.08165869303047657012939453125</LongitudeDegrees>
            </Position>
            <AltitudeMeters>1431.4000244140625</AltitudeMeters>
            <DistanceMeters>NAN</DistanceMeters>
          </Trackpoint>
          <Trackpoint>
            <Time>2018-12-30T13:55:05.000Z</Time>
            <Position>
              <LatitudeDegrees>40.746175087988376617431640625</LatitudeDegrees>
              <LongitudeDegrees>-4.08164444379508495330810546875</LongitudeDegrees>
            </Position>
            <AltitudeMeters>1431</AltitudeMeters>
            <DistanceMeters>NAN</DistanceMeters>
          </Trackpoint>
          <Trackpoint>
            <Time>2018-12-30T13:55:06.000Z</Time>
            <Position>
              <LatitudeDegrees>40.7461380399763584136962890625</LatitudeDegrees>
              <LongitudeDegrees>-4.08163438551127910614013671875</LongitudeDegrees>
            </Position>
            <AltitudeMeters>1430.800048828125</AltitudeMeters>
            <DistanceMeters>NAN</DistanceMeters>
          </Trackpoint>
          <Trackpoint>
            <Time>2018-12-30T13:55:07.000Z</Time>
            <Position>
              <LatitudeDegrees>40.74613745324313640594482421875</LatitudeDegrees>
              <LongitudeDegrees>-4.08161829225718975067138671875</LongitudeDegrees>
            </Position>
            <AltitudeMeters>1430.5999755859375</AltitudeMeters>
            <DistanceMeters>NAN</DistanceMeters>
          </Trackpoint>
          <Trackpoint>
            <Time>2018-12-30T13:55:08.000Z</Time>
            <Position>
              <LatitudeDegrees>40.74614591896533966064453125</LatitudeDegrees>
              <LongitudeDegrees>-4.0816099941730499267578125</LongitudeDegrees>
            </Position>
            <AltitudeMeters>1430.4000244140625</AltitudeMeters>
            <DistanceMeters>NAN</DistanceMeters>
          </Trackpoint>
          <Trackpoint>
            <Time>2018-12-30T13:55:09.000Z</Time>
            <Position>
              <LatitudeDegrees>40.7461356930434703826904296875</LatitudeDegrees>
              <LongitudeDegrees>-4.081610329449176788330078125</LongitudeDegrees>
            </Position>
            <AltitudeMeters>1430.199951171875</AltitudeMeters>
            <DistanceMeters>NAN</DistanceMeters>
          </Trackpoint>
          <Trackpoint>
            <Time>2018-12-30T13:55:10.000Z</Time>
            <Position>
              <LatitudeDegrees>40.7461212761700153350830078125</LatitudeDegrees>
              <LongitudeDegrees>-4.08160722814500331878662109375</LongitudeDegrees>
            </Position>
            <AltitudeMeters>1430</AltitudeMeters>
            <DistanceMeters>NAN</DistanceMeters>
          </Trackpoint>
          <Trackpoint>
            <Time>2018-12-30T13:55:11.000Z</Time>
            <Position>
              <LatitudeDegrees>40.74611281044781208038330078125</LatitudeDegrees>
              <LongitudeDegrees>-4.08160538412630558013916015625</LongitudeDegrees>
            </Position>
            <AltitudeMeters>1429.800048828125</AltitudeMeters>
            <DistanceMeters>NAN</DistanceMeters>
          </Trackpoint>
          <Trackpoint>
            <Time>2018-12-30T13:55:12.000Z</Time>
            <Position>
              <LatitudeDegrees>40.74610694311559200286865234375</LatitudeDegrees>
              <LongitudeDegrees>-4.0815923921763896942138671875</LongitudeDegrees>
            </Position>
            <AltitudeMeters>1429.5999755859375</AltitudeMeters>
            <DistanceMeters>NAN</DistanceMeters>
          </Trackpoint>
          <Trackpoint>
            <Time>2018-12-30T13:55:13.000Z</Time>
            <Position>
              <LatitudeDegrees>40.7461028359830379486083984375</LatitudeDegrees>
              <LongitudeDegrees>-4.08158384263515472412109375</LongitudeDegrees>
            </Position>
            <AltitudeMeters>1429.4000244140625</AltitudeMeters>
            <DistanceMeters>NAN</DistanceMeters>
          </Trackpoint>
          <Trackpoint>
            <Time>2018-12-30T13:55:14.000Z</Time>
            <Position>
              <LatitudeDegrees>40.7461031712591648101806640625</LatitudeDegrees>
              <LongitudeDegrees>-4.08157504163682460784912109375</LongitudeDegrees>
            </Position>
            <AltitudeMeters>1429.199951171875</AltitudeMeters>
            <DistanceMeters>NAN</DistanceMeters>
          </Trackpoint>
          <Trackpoint>
            <Time>2018-12-30T13:55:15.000Z</Time>
            <Position>
              <LatitudeDegrees>40.746102668344974517822265625</LatitudeDegrees>
              <LongitudeDegrees>-4.08156649209558963775634765625</LongitudeDegrees>
            </Position>
            <AltitudeMeters>1428.800048828125</AltitudeMeters>
            <DistanceMeters>NAN</DistanceMeters>
          </Trackpoint>
          <Trackpoint>
            <Time>2018-12-30T13:55:16.000Z</Time>
            <Position>
              <LatitudeDegrees>40.74610342271625995635986328125</LatitudeDegrees>
              <LongitudeDegrees>-4.08155391924083232879638671875</LongitudeDegrees>
            </Position>
            <AltitudeMeters>1428.5999755859375</AltitudeMeters>
            <DistanceMeters>NAN</DistanceMeters>
          </Trackpoint>
          <Trackpoint>
            <Time>2018-12-30T13:55:17.000Z</Time>
            <Position>
              <LatitudeDegrees>40.74609923176467418670654296875</LatitudeDegrees>
              <LongitudeDegrees>-4.08154386095702648162841796875</LongitudeDegrees>
            </Position>
            <AltitudeMeters>1428.5999755859375</AltitudeMeters>
            <DistanceMeters>NAN</DistanceMeters>
          </Trackpoint>
          <Trackpoint>
            <Time>2018-12-30T13:55:18.000Z</Time>
            <Position>
              <LatitudeDegrees>40.74609185568988323211669921875</LatitudeDegrees>
              <LongitudeDegrees>-4.08153422176837921142578125</LongitudeDegrees>
            </Position>
            <AltitudeMeters>1428.4000244140625</AltitudeMeters>
            <DistanceMeters>NAN</DistanceMeters>
          </Trackpoint>
          <Trackpoint>
            <Time>2018-12-30T13:55:19.000Z</Time>
            <Position>
              <LatitudeDegrees>40.74605606496334075927734375</LatitudeDegrees>
              <LongitudeDegrees>-4.08154319040477275848388671875</LongitudeDegrees>
            </Position>
            <AltitudeMeters>1428.199951171875</AltitudeMeters>
            <DistanceMeters>NAN</DistanceMeters>
          </Trackpoint>
          <Trackpoint>
            <Time>2018-12-30T13:55:20.000Z</Time>
            <Position>
              <LatitudeDegrees>40.74604265391826629638671875</LatitudeDegrees>
              <LongitudeDegrees>-4.08153849653899669647216796875</LongitudeDegrees>
            </Position>
            <AltitudeMeters>1428</AltitudeMeters>
            <DistanceMeters>NAN</DistanceMeters>
          </Trackpoint>
          <Trackpoint>
            <Time>2018-12-30T13:55:21.000Z</Time>
            <Position>
              <LatitudeDegrees>40.7460398040711879730224609375</LatitudeDegrees>
              <LongitudeDegrees>-4.0815239958465099334716796875</LongitudeDegrees>
            </Position>
            <AltitudeMeters>1427.800048828125</AltitudeMeters>
            <DistanceMeters>NAN</DistanceMeters>
          </Trackpoint>
          <Trackpoint>
            <Time>2018-12-30T13:55:22.000Z</Time>
            <Position>
              <LatitudeDegrees>40.7460339367389678955078125</LatitudeDegrees>
              <LongitudeDegrees>-4.081508405506610870361328125</LongitudeDegrees>
            </Position>
            <AltitudeMeters>1427.800048828125</AltitudeMeters>
            <DistanceMeters>NAN</DistanceMeters>
          </Trackpoint>
          <Trackpoint>
            <Time>2018-12-30T13:55:23.000Z</Time>
            <Position>
              <LatitudeDegrees>40.7460273988544940948486328125</LatitudeDegrees>
              <LongitudeDegrees>-4.08149641938507556915283203125</LongitudeDegrees>
            </Position>
            <AltitudeMeters>1428</AltitudeMeters>
            <DistanceMeters>NAN</DistanceMeters>
          </Trackpoint>
          <Trackpoint>
            <Time>2018-12-30T13:55:24.000Z</Time>
            <Position>
              <LatitudeDegrees>40.74602832086384296417236328125</LatitudeDegrees>
              <LongitudeDegrees>-4.08148485235869884490966796875</LongitudeDegrees>
            </Position>
            <AltitudeMeters>1428</AltitudeMeters>
            <DistanceMeters>NAN</DistanceMeters>
          </Trackpoint>
          <Trackpoint>
            <Time>2018-12-30T13:55:25.000Z</Time>
            <Position>
              <LatitudeDegrees>40.74602882377803325653076171875</LatitudeDegrees>
              <LongitudeDegrees>-4.0814800746738910675048828125</LongitudeDegrees>
            </Position>
            <AltitudeMeters>1428</AltitudeMeters>
            <DistanceMeters>NAN</DistanceMeters>
          </Trackpoint>
          <Trackpoint>
            <Time>2018-12-30T13:55:26.000Z</Time>
            <Position>
              <LatitudeDegrees>40.74603703804314136505126953125</LatitudeDegrees>
              <LongitudeDegrees>-4.0814612992107868194580078125</LongitudeDegrees>
            </Position>
            <AltitudeMeters>1428</AltitudeMeters>
            <DistanceMeters>NAN</DistanceMeters>
          </Trackpoint>
          <Trackpoint>
            <Time>2018-12-30T13:55:27.000Z</Time>
            <Position>
              <LatitudeDegrees>40.74604801833629608154296875</LatitudeDegrees>
              <LongitudeDegrees>-4.08145316876471042633056640625</LongitudeDegrees>
            </Position>
            <AltitudeMeters>1428</AltitudeMeters>
            <DistanceMeters>NAN</DistanceMeters>
          </Trackpoint>
          <Trackpoint>
            <Time>2018-12-30T13:55:28.000Z</Time>
            <Position>
              <LatitudeDegrees>40.7460512034595012664794921875</LatitudeDegrees>
              <LongitudeDegrees>-4.08145166002213954925537109375</LongitudeDegrees>
            </Position>
            <AltitudeMeters>1428</AltitudeMeters>
            <DistanceMeters>NAN</DistanceMeters>
          </Trackpoint>
          <Trackpoint>
            <Time>2018-12-30T13:55:29.000Z</Time>
            <Position>
              <LatitudeDegrees>40.7460525445640087127685546875</LatitudeDegrees>
              <LongitudeDegrees>-4.08144528977572917938232421875</LongitudeDegrees>
            </Position>
            <AltitudeMeters>1428</AltitudeMeters>
            <DistanceMeters>NAN</DistanceMeters>
          </Trackpoint>
          <Trackpoint>
            <Time>2018-12-30T13:55:30.000Z</Time>
            <Position>
              <LatitudeDegrees>40.74605413712561130523681640625</LatitudeDegrees>
              <LongitudeDegrees>-4.0814421884715557098388671875</LongitudeDegrees>
            </Position>
            <AltitudeMeters>1428</AltitudeMeters>
            <DistanceMeters>NAN</DistanceMeters>
          </Trackpoint>
          <Trackpoint>
            <Time>2018-12-30T13:55:31.000Z</Time>
            <Position>
              <LatitudeDegrees>40.74605950154364109039306640625</LatitudeDegrees>
              <LongitudeDegrees>-4.0814462117850780487060546875</LongitudeDegrees>
            </Position>
            <AltitudeMeters>1428</AltitudeMeters>
            <DistanceMeters>NAN</DistanceMeters>
          </Trackpoint>
          <Trackpoint>
            <Time>2018-12-30T13:55:32.000Z</Time>
            <Position>
              <LatitudeDegrees>40.74606277048587799072265625</LatitudeDegrees>
              <LongitudeDegrees>-4.0814475528895854949951171875</LongitudeDegrees>
            </Position>
            <AltitudeMeters>1428</AltitudeMeters>
            <DistanceMeters>NAN</DistanceMeters>
          </Trackpoint>
          <Trackpoint>
            <Time>2018-12-30T13:55:33.000Z</Time>
            <Position>
              <LatitudeDegrees>40.7460642792284488677978515625</LatitudeDegrees>
              <LongitudeDegrees>-4.08144612796604633331298828125</LongitudeDegrees>
            </Position>
            <AltitudeMeters>1428</AltitudeMeters>
            <DistanceMeters>NAN</DistanceMeters>
          </Trackpoint>
          <Trackpoint>
            <Time>2018-12-30T13:55:34.000Z</Time>
            <Position>
              <LatitudeDegrees>40.7460817135870456695556640625</LatitudeDegrees>
              <LongitudeDegrees>-4.08144704997539520263671875</LongitudeDegrees>
            </Position>
            <AltitudeMeters>1428</AltitudeMeters>
            <DistanceMeters>NAN</DistanceMeters>
          </Trackpoint>
          <Trackpoint>
            <Time>2018-12-30T13:55:35.000Z</Time>
            <Position>
              <LatitudeDegrees>40.7460797019302845001220703125</LatitudeDegrees>
              <LongitudeDegrees>-4.08144545741379261016845703125</LongitudeDegrees>
            </Position>
            <AltitudeMeters>1428</AltitudeMeters>
            <DistanceMeters>NAN</DistanceMeters>
          </Trackpoint>
          <Trackpoint>
            <Time>2018-12-30T13:55:36.000Z</Time>
            <Position>
              <LatitudeDegrees>40.74608565308153629302978515625</LatitudeDegrees>
              <LongitudeDegrees>-4.08144512213766574859619140625</LongitudeDegrees>
            </Position>
            <AltitudeMeters>1428</AltitudeMeters>
            <DistanceMeters>NAN</DistanceMeters>
          </Trackpoint>
          <Trackpoint>
            <Time>2018-12-30T13:55:37.000Z</Time>
            <Position>
              <LatitudeDegrees>40.746080875396728515625</LatitudeDegrees>
              <LongitudeDegrees>-4.08144311048090457916259765625</LongitudeDegrees>
            </Position>
            <AltitudeMeters>1428.199951171875</AltitudeMeters>
            <DistanceMeters>NAN</DistanceMeters>
          </Trackpoint>
          <Trackpoint>
            <Time>2018-12-30T13:55:38.000Z</Time>
            <Position>
              <LatitudeDegrees>40.74607341550290584564208984375</LatitudeDegrees>
              <LongitudeDegrees>-4.08144394867122173309326171875</LongitudeDegrees>
            </Position>
            <AltitudeMeters>1428.4000244140625</AltitudeMeters>
            <DistanceMeters>NAN</DistanceMeters>
          </Trackpoint>
          <Trackpoint>
            <Time>2018-12-30T13:55:39.000Z</Time>
            <Position>
              <LatitudeDegrees>40.74607039801776409149169921875</LatitudeDegrees>
              <LongitudeDegrees>-4.081443361937999725341796875</LongitudeDegrees>
            </Position>
            <AltitudeMeters>1428.5999755859375</AltitudeMeters>
            <DistanceMeters>NAN</DistanceMeters>
          </Trackpoint>
          <Trackpoint>
            <Time>2018-12-30T13:55:40.000Z</Time>
            <Position>
              <LatitudeDegrees>40.74606251902878284454345703125</LatitudeDegrees>
              <LongitudeDegrees>-4.08145233057439327239990234375</LongitudeDegrees>
            </Position>
            <AltitudeMeters>1428.800048828125</AltitudeMeters>
            <DistanceMeters>NAN</DistanceMeters>
          </Trackpoint>
          <Trackpoint>
            <Time>2018-12-30T13:55:41.000Z</Time>
            <Position>
              <LatitudeDegrees>40.74606369249522686004638671875</LatitudeDegrees>
              <LongitudeDegrees>-4.0814646519720554351806640625</LongitudeDegrees>
            </Position>
            <AltitudeMeters>1428.800048828125</AltitudeMeters>
            <DistanceMeters>NAN</DistanceMeters>
          </Trackpoint>
          <Trackpoint>
            <Time>2018-12-30T13:55:42.000Z</Time>
            <Position>
              <LatitudeDegrees>40.74606000445783138275146484375</LatitudeDegrees>
              <LongitudeDegrees>-4.08146892674267292022705078125</LongitudeDegrees>
            </Position>
            <AltitudeMeters>1428.800048828125</AltitudeMeters>
            <DistanceMeters>NAN</DistanceMeters>
          </Trackpoint>
          <Trackpoint>
            <Time>2018-12-30T13:55:43.000Z</Time>
            <Position>
              <LatitudeDegrees>40.74605740606784820556640625</LatitudeDegrees>
              <LongitudeDegrees>-4.081471860408782958984375</LongitudeDegrees>
            </Position>
            <AltitudeMeters>1428.5999755859375</AltitudeMeters>
            <DistanceMeters>NAN</DistanceMeters>
          </Trackpoint>
          <Trackpoint>
            <Time>2018-12-30T13:55:44.000Z</Time>
            <Position>
              <LatitudeDegrees>40.746049024164676666259765625</LatitudeDegrees>
              <LongitudeDegrees>-4.08147512935101985931396484375</LongitudeDegrees>
            </Position>
            <AltitudeMeters>1428.5999755859375</AltitudeMeters>
            <DistanceMeters>NAN</DistanceMeters>
          </Trackpoint>
          <Trackpoint>
            <Time>2018-12-30T13:55:45.000Z</Time>
            <Position>
              <LatitudeDegrees>40.74604039080440998077392578125</LatitudeDegrees>
              <LongitudeDegrees>-4.0814839303493499755859375</LongitudeDegrees>
            </Position>
            <AltitudeMeters>1428.4000244140625</AltitudeMeters>
            <DistanceMeters>NAN</DistanceMeters>
          </Trackpoint>
          <Trackpoint>
            <Time>2018-12-30T13:55:46.000Z</Time>
            <Position>
              <LatitudeDegrees>40.74603335000574588775634765625</LatitudeDegrees>
              <LongitudeDegrees>-4.08148351125419139862060546875</LongitudeDegrees>
            </Position>
            <AltitudeMeters>1428.199951171875</AltitudeMeters>
            <DistanceMeters>NAN</DistanceMeters>
          </Trackpoint>
          <Trackpoint>
            <Time>2018-12-30T13:55:47.000Z</Time>
            <Position>
              <LatitudeDegrees>40.746025554835796356201171875</LatitudeDegrees>
              <LongitudeDegrees>-4.08148233778774738311767578125</LongitudeDegrees>
            </Position>
            <AltitudeMeters>1428</AltitudeMeters>
            <DistanceMeters>NAN</DistanceMeters>
          </Trackpoint>
          <Trackpoint>
            <Time>2018-12-30T13:55:48.000Z</Time>
            <Position>
              <LatitudeDegrees>40.7460173405706882476806640625</LatitudeDegrees>
              <LongitudeDegrees>-4.0814867801964282989501953125</LongitudeDegrees>
            </Position>
            <AltitudeMeters>1427.5999755859375</AltitudeMeters>
            <DistanceMeters>NAN</DistanceMeters>
          </Trackpoint>
          <Trackpoint>
            <Time>2018-12-30T13:55:49.000Z</Time>
            <Position>
              <LatitudeDegrees>40.7460089586675167083740234375</LatitudeDegrees>
              <LongitudeDegrees>-4.0814897976815700531005859375</LongitudeDegrees>
            </Position>
            <AltitudeMeters>1427</AltitudeMeters>
            <DistanceMeters>NAN</DistanceMeters>
          </Trackpoint>
          <Trackpoint>
            <Time>2018-12-30T13:55:50.000Z</Time>
            <Position>
              <LatitudeDegrees>40.74600116349756717681884765625</LatitudeDegrees>
              <LongitudeDegrees>-4.08149574883282184600830078125</LongitudeDegrees>
            </Position>
            <AltitudeMeters>1426.5999755859375</AltitudeMeters>
            <DistanceMeters>NAN</DistanceMeters>
          </Trackpoint>
          <Trackpoint>
            <Time>2018-12-30T13:55:51.000Z</Time>
            <Position>
              <LatitudeDegrees>40.74600082822144031524658203125</LatitudeDegrees>
              <LongitudeDegrees>-4.08150429837405681610107421875</LongitudeDegrees>
            </Position>
            <AltitudeMeters>1426.199951171875</AltitudeMeters>
            <DistanceMeters>NAN</DistanceMeters>
          </Trackpoint>
          <Trackpoint>
            <Time>2018-12-30T13:55:52.000Z</Time>
            <Position>
              <LatitudeDegrees>40.7459982298314571380615234375</LatitudeDegrees>
              <LongitudeDegrees>-4.0815055556595325469970703125</LongitudeDegrees>
            </Position>
            <AltitudeMeters>1426</AltitudeMeters>
            <DistanceMeters>NAN</DistanceMeters>
          </Trackpoint>
          <Trackpoint>
            <Time>2018-12-30T13:55:53.000Z</Time>
            <Position>
              <LatitudeDegrees>40.7459911890327930450439453125</LatitudeDegrees>
              <LongitudeDegrees>-4.08150061033666133880615234375</LongitudeDegrees>
            </Position>
            <AltitudeMeters>1425.800048828125</AltitudeMeters>
            <DistanceMeters>NAN</DistanceMeters>
          </Trackpoint>
          <Trackpoint>
            <Time>2018-12-30T13:55:54.000Z</Time>
            <Position>
              <LatitudeDegrees>40.74598557315766811370849609375</LatitudeDegrees>
              <LongitudeDegrees>-4.0814928151667118072509765625</LongitudeDegrees>
            </Position>
            <AltitudeMeters>1425.800048828125</AltitudeMeters>
            <DistanceMeters>NAN</DistanceMeters>
          </Trackpoint>
          <Trackpoint>
            <Time>2018-12-30T13:55:55.000Z</Time>
            <Position>
              <LatitudeDegrees>40.745981968939304351806640625</LatitudeDegrees>
              <LongitudeDegrees>-4.08148434944450855255126953125</LongitudeDegrees>
            </Position>
            <AltitudeMeters>1425.800048828125</AltitudeMeters>
            <DistanceMeters>NAN</DistanceMeters>
          </Trackpoint>
          <Trackpoint>
            <Time>2018-12-30T13:55:56.000Z</Time>
            <Position>
              <LatitudeDegrees>40.74597568251192569732666015625</LatitudeDegrees>
              <LongitudeDegrees>-4.08147982321679592132568359375</LongitudeDegrees>
            </Position>
            <AltitudeMeters>1425.800048828125</AltitudeMeters>
            <DistanceMeters>NAN</DistanceMeters>
          </Trackpoint>
          <Trackpoint>
            <Time>2018-12-30T13:55:57.000Z</Time>
            <Position>
              <LatitudeDegrees>40.745964534580707550048828125</LatitudeDegrees>
              <LongitudeDegrees>-4.08148200251162052154541015625</LongitudeDegrees>
            </Position>
            <AltitudeMeters>1425.800048828125</AltitudeMeters>
            <DistanceMeters>NAN</DistanceMeters>
          </Trackpoint>
          <Trackpoint>
            <Time>2018-12-30T13:55:58.000Z</Time>
            <Position>
              <LatitudeDegrees>40.7459569908678531646728515625</LatitudeDegrees>
              <LongitudeDegrees>-4.08147990703582763671875</LongitudeDegrees>
            </Position>
            <AltitudeMeters>1425.5999755859375</AltitudeMeters>
            <DistanceMeters>NAN</DistanceMeters>
          </Trackpoint>
          <Trackpoint>
            <Time>2018-12-30T13:55:59.000Z</Time>
            <Position>
              <LatitudeDegrees>40.7459469325840473175048828125</LatitudeDegrees>
              <LongitudeDegrees>-4.08148116432130336761474609375</LongitudeDegrees>
            </Position>
            <AltitudeMeters>1425.5999755859375</AltitudeMeters>
            <DistanceMeters>NAN</DistanceMeters>
          </Trackpoint>
          <Trackpoint>
            <Time>2018-12-30T13:56:00.000Z</Time>
            <Position>
              <LatitudeDegrees>40.74593511410057544708251953125</LatitudeDegrees>
              <LongitudeDegrees>-4.08147781156003475189208984375</LongitudeDegrees>
            </Position>
            <AltitudeMeters>1425.4000244140625</AltitudeMeters>
            <DistanceMeters>NAN</DistanceMeters>
          </Trackpoint>
          <Trackpoint>
            <Time>2018-12-30T13:56:01.000Z</Time>
            <Position>
              <LatitudeDegrees>40.7459244690835475921630859375</LatitudeDegrees>
              <LongitudeDegrees>-4.08147781156003475189208984375</LongitudeDegrees>
            </Position>
            <AltitudeMeters>1425.199951171875</AltitudeMeters>
            <DistanceMeters>NAN</DistanceMeters>
          </Trackpoint>
          <Trackpoint>
            <Time>2018-12-30T13:56:02.000Z</Time>
            <Position>
              <LatitudeDegrees>40.74591868557035923004150390625</LatitudeDegrees>
              <LongitudeDegrees>-4.08147630281746387481689453125</LongitudeDegrees>
            </Position>
            <AltitudeMeters>1425</AltitudeMeters>
            <DistanceMeters>NAN</DistanceMeters>
          </Trackpoint>
          <Trackpoint>
            <Time>2018-12-30T13:56:03.000Z</Time>
            <Position>
              <LatitudeDegrees>40.745904855430126190185546875</LatitudeDegrees>
              <LongitudeDegrees>-4.08147789537906646728515625</LongitudeDegrees>
            </Position>
            <AltitudeMeters>1424.800048828125</AltitudeMeters>
            <DistanceMeters>NAN</DistanceMeters>
          </Trackpoint>
          <Trackpoint>
            <Time>2018-12-30T13:56:04.000Z</Time>
            <Position>
              <LatitudeDegrees>40.745888091623783111572265625</LatitudeDegrees>
              <LongitudeDegrees>-4.081480242311954498291015625</LongitudeDegrees>
            </Position>
            <AltitudeMeters>1424.5999755859375</AltitudeMeters>
            <DistanceMeters>NAN</DistanceMeters>
          </Trackpoint>
          <Trackpoint>
            <Time>2018-12-30T13:56:05.000Z</Time>
            <Position>
              <LatitudeDegrees>40.74587308801710605621337890625</LatitudeDegrees>
              <LongitudeDegrees>-4.08148686401546001434326171875</LongitudeDegrees>
            </Position>
            <AltitudeMeters>1424.5999755859375</AltitudeMeters>
            <DistanceMeters>NAN</DistanceMeters>
          </Trackpoint>
          <Trackpoint>
            <Time>2018-12-30T13:56:06.000Z</Time>
            <Position>
              <LatitudeDegrees>40.7458607666194438934326171875</LatitudeDegrees>
              <LongitudeDegrees>-4.0814861096441745758056640625</LongitudeDegrees>
            </Position>
            <AltitudeMeters>1424.199951171875</AltitudeMeters>
            <DistanceMeters>NAN</DistanceMeters>
          </Trackpoint>
          <Trackpoint>
            <Time>2018-12-30T13:56:07.000Z</Time>
            <Position>
              <LatitudeDegrees>40.7458507083356380462646484375</LatitudeDegrees>
              <LongitudeDegrees>-4.08148384653031826019287109375</LongitudeDegrees>
            </Position>
            <AltitudeMeters>1424</AltitudeMeters>
            <DistanceMeters>NAN</DistanceMeters>
          </Trackpoint>
          <Trackpoint>
            <Time>2018-12-30T13:56:08.000Z</Time>
            <Position>
              <LatitudeDegrees>40.74583687819540500640869140625</LatitudeDegrees>
              <LongitudeDegrees>-4.0814857743680477142333984375</LongitudeDegrees>
            </Position>
            <AltitudeMeters>1423.800048828125</AltitudeMeters>
            <DistanceMeters>NAN</DistanceMeters>
          </Trackpoint>
          <Trackpoint>
            <Time>2018-12-30T13:56:09.000Z</Time>
            <Position>
              <LatitudeDegrees>40.7458265684545040130615234375</LatitudeDegrees>
              <LongitudeDegrees>-4.08148317597806453704833984375</LongitudeDegrees>
            </Position>
            <AltitudeMeters>1423.5999755859375</AltitudeMeters>
            <DistanceMeters>NAN</DistanceMeters>
          </Trackpoint>
          <Trackpoint>
            <Time>2018-12-30T13:56:10.000Z</Time>
            <Position>
              <LatitudeDegrees>40.74581474997103214263916015625</LatitudeDegrees>
              <LongitudeDegrees>-4.08147789537906646728515625</LongitudeDegrees>
            </Position>
            <AltitudeMeters>1423.4000244140625</AltitudeMeters>
            <DistanceMeters>NAN</DistanceMeters>
          </Trackpoint>
          <Trackpoint>
            <Time>2018-12-30T13:56:11.000Z</Time>
            <Position>
              <LatitudeDegrees>40.7458051107823848724365234375</LatitudeDegrees>
              <LongitudeDegrees>-4.0814723633229732513427734375</LongitudeDegrees>
            </Position>
            <AltitudeMeters>1423.4000244140625</AltitudeMeters>
            <DistanceMeters>NAN</DistanceMeters>
          </Trackpoint>
          <Trackpoint>
            <Time>2018-12-30T13:56:12.000Z</Time>
            <Position>
              <LatitudeDegrees>40.745793879032135009765625</LatitudeDegrees>
              <LongitudeDegrees>-4.0814693458378314971923828125</LongitudeDegrees>
            </Position>
            <AltitudeMeters>1423.199951171875</AltitudeMeters>
            <DistanceMeters>NAN</DistanceMeters>
          </Trackpoint>
          <Trackpoint>
            <Time>2018-12-30T13:56:13.000Z</Time>
            <Position>
              <LatitudeDegrees>40.7457856647670269012451171875</LatitudeDegrees>
              <LongitudeDegrees>-4.08146582543849945068359375</LongitudeDegrees>
            </Position>
            <AltitudeMeters>1423.199951171875</AltitudeMeters>
            <DistanceMeters>NAN</DistanceMeters>
          </Trackpoint>
          <Trackpoint>
            <Time>2018-12-30T13:56:14.000Z</Time>
            <Position>
              <LatitudeDegrees>40.74577510356903076171875</LatitudeDegrees>
              <LongitudeDegrees>-4.08146188594400882720947265625</LongitudeDegrees>
            </Position>
            <AltitudeMeters>1423</AltitudeMeters>
            <DistanceMeters>NAN</DistanceMeters>
          </Trackpoint>
          <Trackpoint>
            <Time>2018-12-30T13:56:15.000Z</Time>
            <Position>
              <LatitudeDegrees>40.74576613493263721466064453125</LatitudeDegrees>
              <LongitudeDegrees>-4.08145786263048648834228515625</LongitudeDegrees>
            </Position>
            <AltitudeMeters>1422.800048828125</AltitudeMeters>
            <DistanceMeters>NAN</DistanceMeters>
          </Trackpoint>
          <Trackpoint>
            <Time>2018-12-30T13:56:16.000Z</Time>
            <Position>
              <LatitudeDegrees>40.74575431644916534423828125</LatitudeDegrees>
              <LongitudeDegrees>-4.08145107328891754150390625</LongitudeDegrees>
            </Position>
            <AltitudeMeters>1422.5999755859375</AltitudeMeters>
            <DistanceMeters>NAN</DistanceMeters>
          </Trackpoint>
          <Trackpoint>
            <Time>2018-12-30T13:56:17.000Z</Time>
            <Position>
              <LatitudeDegrees>40.74574434198439121246337890625</LatitudeDegrees>
              <LongitudeDegrees>-4.0814435295760631561279296875</LongitudeDegrees>
            </Position>
            <AltitudeMeters>1422.5999755859375</AltitudeMeters>
            <DistanceMeters>NAN</DistanceMeters>
          </Trackpoint>
          <Trackpoint>
            <Time>2018-12-30T13:56:18.000Z</Time>
            <Position>
              <LatitudeDegrees>40.74573277495801448822021484375</LatitudeDegrees>
              <LongitudeDegrees>-4.08143539912998676300048828125</LongitudeDegrees>
            </Position>
            <AltitudeMeters>1422.4000244140625</AltitudeMeters>
            <DistanceMeters>NAN</DistanceMeters>
          </Trackpoint>
          <Trackpoint>
            <Time>2018-12-30T13:56:19.000Z</Time>
            <Position>
              <LatitudeDegrees>40.7457239739596843719482421875</LatitudeDegrees>
              <LongitudeDegrees>-4.0814254246652126312255859375</LongitudeDegrees>
            </Position>
            <AltitudeMeters>1422.199951171875</AltitudeMeters>
            <DistanceMeters>NAN</DistanceMeters>
          </Trackpoint>
          <Trackpoint>
            <Time>2018-12-30T13:56:20.000Z</Time>
            <Position>
              <LatitudeDegrees>40.74571274220943450927734375</LatitudeDegrees>
              <LongitudeDegrees>-4.081422574818134307861328125</LongitudeDegrees>
            </Position>
            <AltitudeMeters>1422.199951171875</AltitudeMeters>
            <DistanceMeters>NAN</DistanceMeters>
          </Trackpoint>
          <Trackpoint>
            <Time>2018-12-30T13:56:21.000Z</Time>
            <Position>
              <LatitudeDegrees>40.74570327065885066986083984375</LatitudeDegrees>
              <LongitudeDegrees>-4.081415198743343353271484375</LongitudeDegrees>
            </Position>
            <AltitudeMeters>1422.199951171875</AltitudeMeters>
            <DistanceMeters>NAN</DistanceMeters>
          </Trackpoint>
          <Trackpoint>
            <Time>2018-12-30T13:56:22.000Z</Time>
            <Position>
              <LatitudeDegrees>40.74569371528923511505126953125</LatitudeDegrees>
              <LongitudeDegrees>-4.081407822668552398681640625</LongitudeDegrees>
            </Position>
            <AltitudeMeters>1422</AltitudeMeters>
            <DistanceMeters>NAN</DistanceMeters>
          </Trackpoint>
          <Trackpoint>
            <Time>2018-12-30T13:56:23.000Z</Time>
            <Position>
              <LatitudeDegrees>40.74568147771060466766357421875</LatitudeDegrees>
              <LongitudeDegrees>-4.0814046375453472137451171875</LongitudeDegrees>
            </Position>
            <AltitudeMeters>1422</AltitudeMeters>
            <DistanceMeters>NAN</DistanceMeters>
          </Trackpoint>
          <Trackpoint>
            <Time>2018-12-30T13:56:24.000Z</Time>
            <Position>
              <LatitudeDegrees>40.74567125178873538970947265625</LatitudeDegrees>
              <LongitudeDegrees>-4.0814002789556980133056640625</LongitudeDegrees>
            </Position>
            <AltitudeMeters>1422</AltitudeMeters>
            <DistanceMeters>NAN</DistanceMeters>
          </Trackpoint>
          <Trackpoint>
            <Time>2018-12-30T13:56:25.000Z</Time>
            <Position>
              <LatitudeDegrees>40.74566312134265899658203125</LatitudeDegrees>
              <LongitudeDegrees>-4.0813954174518585205078125</LongitudeDegrees>
            </Position>
            <AltitudeMeters>1421.800048828125</AltitudeMeters>
            <DistanceMeters>NAN</DistanceMeters>
          </Trackpoint>
          <Trackpoint>
            <Time>2018-12-30T13:56:26.000Z</Time>
            <Position>
              <LatitudeDegrees>40.74564912356436252593994140625</LatitudeDegrees>
              <LongitudeDegrees>-4.08139885403215885162353515625</LongitudeDegrees>
            </Position>
            <AltitudeMeters>1421.800048828125</AltitudeMeters>
            <DistanceMeters>NAN</DistanceMeters>
          </Trackpoint>
          <Trackpoint>
            <Time>2018-12-30T13:56:27.000Z</Time>
            <Position>
              <LatitudeDegrees>40.74563336558640003204345703125</LatitudeDegrees>
              <LongitudeDegrees>-4.08140405081212520599365234375</LongitudeDegrees>
            </Position>
            <AltitudeMeters>1421.800048828125</AltitudeMeters>
            <DistanceMeters>NAN</DistanceMeters>
          </Trackpoint>
          <Trackpoint>
            <Time>2018-12-30T13:56:28.000Z</Time>
            <Position>
              <LatitudeDegrees>40.74561593122780323028564453125</LatitudeDegrees>
              <LongitudeDegrees>-4.0814089961349964141845703125</LongitudeDegrees>
            </Position>
            <AltitudeMeters>1421.800048828125</AltitudeMeters>
            <DistanceMeters>NAN</DistanceMeters>
          </Trackpoint>
          <Trackpoint>
            <Time>2018-12-30T13:56:29.000Z</Time>
            <Position>
              <LatitudeDegrees>40.74560335837304592132568359375</LatitudeDegrees>
              <LongitudeDegrees>-4.08141159452497959136962890625</LongitudeDegrees>
            </Position>
            <AltitudeMeters>1421.800048828125</AltitudeMeters>
            <DistanceMeters>NAN</DistanceMeters>
          </Trackpoint>
          <Trackpoint>
            <Time>2018-12-30T13:56:30.000Z</Time>
            <Position>
              <LatitudeDegrees>40.745594389736652374267578125</LatitudeDegrees>
              <LongitudeDegrees>-4.081412851810455322265625</LongitudeDegrees>
            </Position>
            <AltitudeMeters>1421.800048828125</AltitudeMeters>
            <DistanceMeters>NAN</DistanceMeters>
          </Trackpoint>
          <Trackpoint>
            <Time>2018-12-30T13:56:31.000Z</Time>
            <Position>
              <LatitudeDegrees>40.74558860622346401214599609375</LatitudeDegrees>
              <LongitudeDegrees>-4.08141394145786762237548828125</LongitudeDegrees>
            </Position>
            <AltitudeMeters>1421.5999755859375</AltitudeMeters>
            <DistanceMeters>NAN</DistanceMeters>
          </Trackpoint>
          <Trackpoint>
            <Time>2018-12-30T13:56:32.000Z</Time>
            <Position>
              <LatitudeDegrees>40.74558525346219539642333984375</LatitudeDegrees>
              <LongitudeDegrees>-4.0814101696014404296875</LongitudeDegrees>
            </Position>
            <AltitudeMeters>1421.4000244140625</AltitudeMeters>
            <DistanceMeters>NAN</DistanceMeters>
          </Trackpoint>
          <Trackpoint>
            <Time>2018-12-30T13:56:33.000Z</Time>
            <Position>
              <LatitudeDegrees>40.7455781288444995880126953125</LatitudeDegrees>
              <LongitudeDegrees>-4.081411175429821014404296875</LongitudeDegrees>
            </Position>
            <AltitudeMeters>1421.4000244140625</AltitudeMeters>
            <DistanceMeters>NAN</DistanceMeters>
          </Trackpoint>
          <Trackpoint>
            <Time>2018-12-30T13:56:34.000Z</Time>
            <Position>
              <LatitudeDegrees>40.7455779612064361572265625</LatitudeDegrees>
              <LongitudeDegrees>-4.08140673302114009857177734375</LongitudeDegrees>
            </Position>
            <AltitudeMeters>1421.199951171875</AltitudeMeters>
            <DistanceMeters>NAN</DistanceMeters>
          </Trackpoint>
          <Trackpoint>
            <Time>2018-12-30T13:56:35.000Z</Time>
            <Position>
              <LatitudeDegrees>40.7455645501613616943359375</LatitudeDegrees>
              <LongitudeDegrees>-4.0814046375453472137451171875</LongitudeDegrees>
            </Position>
            <AltitudeMeters>1421</AltitudeMeters>
            <DistanceMeters>NAN</DistanceMeters>
          </Trackpoint>
          <Trackpoint>
            <Time>2018-12-30T13:56:36.000Z</Time>
            <Position>
              <LatitudeDegrees>40.74555373750627040863037109375</LatitudeDegrees>
              <LongitudeDegrees>-4.0814036317169666290283203125</LongitudeDegrees>
            </Position>
            <AltitudeMeters>1421</AltitudeMeters>
            <DistanceMeters>NAN</DistanceMeters>
          </Trackpoint>
          <Trackpoint>
            <Time>2018-12-30T13:56:37.000Z</Time>
            <Position>
              <LatitudeDegrees>40.745548121631145477294921875</LatitudeDegrees>
              <LongitudeDegrees>-4.081403799355030059814453125</LongitudeDegrees>
            </Position>
            <AltitudeMeters>1420.800048828125</AltitudeMeters>
            <DistanceMeters>NAN</DistanceMeters>
          </Trackpoint>
          <Trackpoint>
            <Time>2018-12-30T13:56:38.000Z</Time>
            <Position>
              <LatitudeDegrees>40.74554485268890857696533203125</LatitudeDegrees>
              <LongitudeDegrees>-4.08140472136437892913818359375</LongitudeDegrees>
            </Position>
            <AltitudeMeters>1420.800048828125</AltitudeMeters>
            <DistanceMeters>NAN</DistanceMeters>
          </Trackpoint>
          <Trackpoint>
            <Time>2018-12-30T13:56:39.000Z</Time>
            <Position>
              <LatitudeDegrees>40.7455375604331493377685546875</LatitudeDegrees>
              <LongitudeDegrees>-4.08140949904918670654296875</LongitudeDegrees>
            </Position>
            <AltitudeMeters>1420.800048828125</AltitudeMeters>
            <DistanceMeters>NAN</DistanceMeters>
          </Trackpoint>
          <Trackpoint>
            <Time>2018-12-30T13:56:40.000Z</Time>
            <Position>
              <LatitudeDegrees>40.745525658130645751953125</LatitudeDegrees>
              <LongitudeDegrees>-4.0814059786498546600341796875</LongitudeDegrees>
            </Position>
            <AltitudeMeters>1420.5999755859375</AltitudeMeters>
            <DistanceMeters>NAN</DistanceMeters>
          </Trackpoint>
          <Trackpoint>
            <Time>2018-12-30T13:56:41.000Z</Time>
            <Position>
              <LatitudeDegrees>40.74551962316036224365234375</LatitudeDegrees>
              <LongitudeDegrees>-4.08139935694634914398193359375</LongitudeDegrees>
            </Position>
            <AltitudeMeters>1420.5999755859375</AltitudeMeters>
            <DistanceMeters>NAN</DistanceMeters>
          </Trackpoint>
          <Trackpoint>
            <Time>2018-12-30T13:56:42.000Z</Time>
            <Position>
              <LatitudeDegrees>40.74551233090460300445556640625</LatitudeDegrees>
              <LongitudeDegrees>-4.081399776041507720947265625</LongitudeDegrees>
            </Position>
            <AltitudeMeters>1420.4000244140625</AltitudeMeters>
            <DistanceMeters>NAN</DistanceMeters>
          </Trackpoint>
          <Trackpoint>
            <Time>2018-12-30T13:56:43.000Z</Time>
            <Position>
              <LatitudeDegrees>40.745501853525638580322265625</LatitudeDegrees>
              <LongitudeDegrees>-4.0813979320228099822998046875</LongitudeDegrees>
            </Position>
            <AltitudeMeters>1420.199951171875</AltitudeMeters>
            <DistanceMeters>NAN</DistanceMeters>
          </Trackpoint>
          <Trackpoint>
            <Time>2018-12-30T13:56:44.000Z</Time>
            <Position>
              <LatitudeDegrees>40.74548969976603984832763671875</LatitudeDegrees>
              <LongitudeDegrees>-4.08140153624117374420166015625</LongitudeDegrees>
            </Position>
            <AltitudeMeters>1420.199951171875</AltitudeMeters>
            <DistanceMeters>NAN</DistanceMeters>
          </Trackpoint>
          <Trackpoint>
            <Time>2018-12-30T13:56:45.000Z</Time>
            <Position>
              <LatitudeDegrees>40.7454706728458404541015625</LatitudeDegrees>
              <LongitudeDegrees>-4.081398434937000274658203125</LongitudeDegrees>
            </Position>
            <AltitudeMeters>1420</AltitudeMeters>
            <DistanceMeters>NAN</DistanceMeters>
          </Trackpoint>
          <Trackpoint>
            <Time>2018-12-30T13:56:46.000Z</Time>
            <Position>
              <LatitudeDegrees>40.7454604469239711761474609375</LatitudeDegrees>
              <LongitudeDegrees>-4.0813979320228099822998046875</LongitudeDegrees>
            </Position>
            <AltitudeMeters>1420</AltitudeMeters>
            <DistanceMeters>NAN</DistanceMeters>
          </Trackpoint>
          <Trackpoint>
            <Time>2018-12-30T13:56:47.000Z</Time>
            <Position>
              <LatitudeDegrees>40.74544829316437244415283203125</LatitudeDegrees>
              <LongitudeDegrees>-4.0813925676047801971435546875</LongitudeDegrees>
            </Position>
            <AltitudeMeters>1419.800048828125</AltitudeMeters>
            <DistanceMeters>NAN</DistanceMeters>
          </Trackpoint>
          <Trackpoint>
            <Time>2018-12-30T13:56:48.000Z</Time>
            <Position>
              <LatitudeDegrees>40.74543421156704425811767578125</LatitudeDegrees>
              <LongitudeDegrees>-4.08138963393867015838623046875</LongitudeDegrees>
            </Position>
            <AltitudeMeters>1419.800048828125</AltitudeMeters>
            <DistanceMeters>NAN</DistanceMeters>
          </Trackpoint>
          <Trackpoint>
            <Time>2018-12-30T13:56:49.000Z</Time>
            <Position>
              <LatitudeDegrees>40.74541543610394001007080078125</LatitudeDegrees>
              <LongitudeDegrees>-4.08138913102447986602783203125</LongitudeDegrees>
            </Position>
            <AltitudeMeters>1419.5999755859375</AltitudeMeters>
            <DistanceMeters>NAN</DistanceMeters>
          </Trackpoint>
          <Trackpoint>
            <Time>2018-12-30T13:56:50.000Z</Time>
            <Position>
              <LatitudeDegrees>40.745407640933990478515625</LatitudeDegrees>
              <LongitudeDegrees>-4.08138091675937175750732421875</LongitudeDegrees>
            </Position>
            <AltitudeMeters>1419.5999755859375</AltitudeMeters>
            <DistanceMeters>NAN</DistanceMeters>
          </Trackpoint>
          <Trackpoint>
            <Time>2018-12-30T13:56:51.000Z</Time>
            <Position>
              <LatitudeDegrees>40.74539900757372379302978515625</LatitudeDegrees>
              <LongitudeDegrees>-4.0813801623880863189697265625</LongitudeDegrees>
            </Position>
            <AltitudeMeters>1419.4000244140625</AltitudeMeters>
            <DistanceMeters>NAN</DistanceMeters>
          </Trackpoint>
          <Trackpoint>
            <Time>2018-12-30T13:56:52.000Z</Time>
            <Position>
              <LatitudeDegrees>40.74539548717439174652099609375</LatitudeDegrees>
              <LongitudeDegrees>-4.081396423280239105224609375</LongitudeDegrees>
            </Position>
            <AltitudeMeters>1419.4000244140625</AltitudeMeters>
            <DistanceMeters>NAN</DistanceMeters>
          </Trackpoint>
          <Trackpoint>
            <Time>2018-12-30T13:56:53.000Z</Time>
            <Position>
              <LatitudeDegrees>40.745390541851520538330078125</LatitudeDegrees>
              <LongitudeDegrees>-4.081400446593761444091796875</LongitudeDegrees>
            </Position>
            <AltitudeMeters>1419.4000244140625</AltitudeMeters>
            <DistanceMeters>NAN</DistanceMeters>
          </Trackpoint>
          <Trackpoint>
            <Time>2018-12-30T13:56:54.000Z</Time>
            <Position>
              <LatitudeDegrees>40.74539330787956714630126953125</LatitudeDegrees>
              <LongitudeDegrees>-4.08139801584184169769287109375</LongitudeDegrees>
            </Position>
            <AltitudeMeters>1419.199951171875</AltitudeMeters>
            <DistanceMeters>NAN</DistanceMeters>
          </Trackpoint>
          <Trackpoint>
            <Time>2018-12-30T13:56:55.000Z</Time>
            <Position>
              <LatitudeDegrees>40.745394565165042877197265625</LatitudeDegrees>
              <LongitudeDegrees>-4.08139877021312713623046875</LongitudeDegrees>
            </Position>
            <AltitudeMeters>1419</AltitudeMeters>
            <DistanceMeters>NAN</DistanceMeters>
          </Trackpoint>
          <Trackpoint>
            <Time>2018-12-30T13:56:56.000Z</Time>
            <Position>
              <LatitudeDegrees>40.74540185742080211639404296875</LatitudeDegrees>
              <LongitudeDegrees>-4.08140790648758411407470703125</LongitudeDegrees>
            </Position>
            <AltitudeMeters>1418.800048828125</AltitudeMeters>
            <DistanceMeters>NAN</DistanceMeters>
          </Trackpoint>
          <Trackpoint>
            <Time>2018-12-30T13:56:57.000Z</Time>
            <Position>
              <LatitudeDegrees>40.74538827873766422271728515625</LatitudeDegrees>
              <LongitudeDegrees>-4.08140740357339382171630859375</LongitudeDegrees>
            </Position>
            <AltitudeMeters>1418.800048828125</AltitudeMeters>
            <DistanceMeters>NAN</DistanceMeters>
          </Trackpoint>
          <Trackpoint>
            <Time>2018-12-30T13:56:58.000Z</Time>
            <Position>
              <LatitudeDegrees>40.7453783042728900909423828125</LatitudeDegrees>
              <LongitudeDegrees>-4.08140857703983783721923828125</LongitudeDegrees>
            </Position>
            <AltitudeMeters>1418.800048828125</AltitudeMeters>
            <DistanceMeters>NAN</DistanceMeters>
          </Trackpoint>
          <Trackpoint>
            <Time>2018-12-30T13:56:59.000Z</Time>
            <Position>
              <LatitudeDegrees>40.74538039974868297576904296875</LatitudeDegrees>
              <LongitudeDegrees>-4.0814103372395038604736328125</LongitudeDegrees>
            </Position>
            <AltitudeMeters>1418.5999755859375</AltitudeMeters>
            <DistanceMeters>NAN</DistanceMeters>
          </Trackpoint>
          <Trackpoint>
            <Time>2018-12-30T13:57:00.000Z</Time>
            <Position>
              <LatitudeDegrees>40.7453756220638751983642578125</LatitudeDegrees>
              <LongitudeDegrees>-4.08141410909593105316162109375</LongitudeDegrees>
            </Position>
            <AltitudeMeters>1418.5999755859375</AltitudeMeters>
            <DistanceMeters>NAN</DistanceMeters>
          </Trackpoint>
          <Trackpoint>
            <Time>2018-12-30T13:57:01.000Z</Time>
            <Position>
              <LatitudeDegrees>40.74537335895001888275146484375</LatitudeDegrees>
              <LongitudeDegrees>-4.08141528256237506866455078125</LongitudeDegrees>
            </Position>
            <AltitudeMeters>1418.5999755859375</AltitudeMeters>
            <DistanceMeters>NAN</DistanceMeters>
          </Trackpoint>
          <Trackpoint>
            <Time>2018-12-30T13:57:02.000Z</Time>
            <Position>
              <LatitudeDegrees>40.7453741133213043212890625</LatitudeDegrees>
              <LongitudeDegrees>-4.081416539847850799560546875</LongitudeDegrees>
            </Position>
            <AltitudeMeters>1418.800048828125</AltitudeMeters>
            <DistanceMeters>NAN</DistanceMeters>
          </Trackpoint>
          <Trackpoint>
            <Time>2018-12-30T13:57:03.000Z</Time>
            <Position>
              <LatitudeDegrees>40.74536866508424282073974609375</LatitudeDegrees>
              <LongitudeDegrees>-4.0814168751239776611328125</LongitudeDegrees>
            </Position>
            <AltitudeMeters>1418.800048828125</AltitudeMeters>
            <DistanceMeters>NAN</DistanceMeters>
          </Trackpoint>
          <Trackpoint>
            <Time>2018-12-30T13:57:04.000Z</Time>
            <Position>
              <LatitudeDegrees>40.7453565113246440887451171875</LatitudeDegrees>
              <LongitudeDegrees>-4.0814083255827426910400390625</LongitudeDegrees>
            </Position>
            <AltitudeMeters>1418.5999755859375</AltitudeMeters>
            <DistanceMeters>NAN</DistanceMeters>
          </Trackpoint>
          <Trackpoint>
            <Time>2018-12-30T13:57:05.000Z</Time>
            <Position>
              <LatitudeDegrees>40.74533765204250812530517578125</LatitudeDegrees>
              <LongitudeDegrees>-4.08137890510261058807373046875</LongitudeDegrees>
            </Position>
            <AltitudeMeters>1418.5999755859375</AltitudeMeters>
            <DistanceMeters>NAN</DistanceMeters>
          </Trackpoint>
          <Trackpoint>
            <Time>2018-12-30T13:57:06.000Z</Time>
            <Position>
              <LatitudeDegrees>40.74532642029225826263427734375</LatitudeDegrees>
              <LongitudeDegrees>-4.08136448822915554046630859375</LongitudeDegrees>
            </Position>
            <AltitudeMeters>1418.4000244140625</AltitudeMeters>
            <DistanceMeters>NAN</DistanceMeters>
          </Trackpoint>
          <Trackpoint>
            <Time>2018-12-30T13:57:07.000Z</Time>
            <Position>
              <LatitudeDegrees>40.745304711163043975830078125</LatitudeDegrees>
              <LongitudeDegrees>-4.08135074190795421600341796875</LongitudeDegrees>
            </Position>
            <AltitudeMeters>1418.4000244140625</AltitudeMeters>
            <DistanceMeters>NAN</DistanceMeters>
          </Trackpoint>
          <Trackpoint>
            <Time>2018-12-30T13:57:08.000Z</Time>
            <Position>
              <LatitudeDegrees>40.745275206863880157470703125</LatitudeDegrees>
              <LongitudeDegrees>-4.0813382528722286224365234375</LongitudeDegrees>
            </Position>
            <AltitudeMeters>1418.4000244140625</AltitudeMeters>
            <DistanceMeters>NAN</DistanceMeters>
          </Trackpoint>
          <Trackpoint>
            <Time>2018-12-30T13:57:09.000Z</Time>
            <Position>
              <LatitudeDegrees>40.7452381588518619537353515625</LatitudeDegrees>
              <LongitudeDegrees>-4.081326015293598175048828125</LongitudeDegrees>
            </Position>
            <AltitudeMeters>1418.4000244140625</AltitudeMeters>
            <DistanceMeters>NAN</DistanceMeters>
          </Trackpoint>
          <Trackpoint>
            <Time>2018-12-30T13:57:10.000Z</Time>
            <Position>
              <LatitudeDegrees>40.74518107809126377105712890625</LatitudeDegrees>
              <LongitudeDegrees>-4.08132358454167842864990234375</LongitudeDegrees>
            </Position>
            <AltitudeMeters>1418.4000244140625</AltitudeMeters>
            <DistanceMeters>NAN</DistanceMeters>
          </Trackpoint>
          <Trackpoint>
            <Time>2018-12-30T13:57:11.000Z</Time>
            <Position>
              <LatitudeDegrees>40.7451461255550384521484375</LatitudeDegrees>
              <LongitudeDegrees>-4.0813245065510272979736328125</LongitudeDegrees>
            </Position>
            <AltitudeMeters>1418.4000244140625</AltitudeMeters>
            <DistanceMeters>NAN</DistanceMeters>
          </Trackpoint>
          <Trackpoint>
            <Time>2018-12-30T13:57:12.000Z</Time>
            <Position>
              <LatitudeDegrees>40.74514537118375301361083984375</LatitudeDegrees>
              <LongitudeDegrees>-4.0813292004168033599853515625</LongitudeDegrees>
            </Position>
            <AltitudeMeters>1418.4000244140625</AltitudeMeters>
            <DistanceMeters>NAN</DistanceMeters>
          </Trackpoint>
          <Trackpoint>
            <Time>2018-12-30T13:57:13.000Z</Time>
            <Position>
              <LatitudeDegrees>40.7451466284692287445068359375</LatitudeDegrees>
              <LongitudeDegrees>-4.081328026950359344482421875</LongitudeDegrees>
            </Position>
            <AltitudeMeters>1418.4000244140625</AltitudeMeters>
            <DistanceMeters>NAN</DistanceMeters>
          </Trackpoint>
          <Trackpoint>
            <Time>2018-12-30T13:57:14.000Z</Time>
            <Position>
              <LatitudeDegrees>40.7451234944164752960205078125</LatitudeDegrees>
              <LongitudeDegrees>-4.08133598975837230682373046875</LongitudeDegrees>
            </Position>
            <AltitudeMeters>1418.4000244140625</AltitudeMeters>
            <DistanceMeters>NAN</DistanceMeters>
          </Trackpoint>
          <Trackpoint>
            <Time>2018-12-30T13:57:15.000Z</Time>
            <Position>
              <LatitudeDegrees>40.74511486105620861053466796875</LatitudeDegrees>
              <LongitudeDegrees>-4.08134152181446552276611328125</LongitudeDegrees>
            </Position>
            <AltitudeMeters>1418.4000244140625</AltitudeMeters>
            <DistanceMeters>NAN</DistanceMeters>
          </Trackpoint>
          <Trackpoint>
            <Time>2018-12-30T13:57:16.000Z</Time>
            <Position>
              <LatitudeDegrees>40.74511201120913028717041015625</LatitudeDegrees>
              <LongitudeDegrees>-4.0813429467380046844482421875</LongitudeDegrees>
            </Position>
            <AltitudeMeters>1418.4000244140625</AltitudeMeters>
            <DistanceMeters>NAN</DistanceMeters>
          </Trackpoint>
          <Trackpoint>
            <Time>2018-12-30T13:57:17.000Z</Time>
            <Position>
              <LatitudeDegrees>40.74511335231363773345947265625</LatitudeDegrees>
              <LongitudeDegrees>-4.0813469700515270233154296875</LongitudeDegrees>
            </Position>
            <AltitudeMeters>1418.4000244140625</AltitudeMeters>
            <DistanceMeters>NAN</DistanceMeters>
          </Trackpoint>
          <Trackpoint>
            <Time>2018-12-30T13:57:18.000Z</Time>
            <Position>
              <LatitudeDegrees>40.74511486105620861053466796875</LatitudeDegrees>
              <LongitudeDegrees>-4.0813459642231464385986328125</LongitudeDegrees>
            </Position>
            <AltitudeMeters>1418.4000244140625</AltitudeMeters>
            <DistanceMeters>NAN</DistanceMeters>
          </Trackpoint>
          <Trackpoint>
            <Time>2018-12-30T13:57:19.000Z</Time>
            <Position>
              <LatitudeDegrees>40.7451154477894306182861328125</LatitudeDegrees>
              <LongitudeDegrees>-4.08135057426989078521728515625</LongitudeDegrees>
            </Position>
            <AltitudeMeters>1418.5999755859375</AltitudeMeters>
            <DistanceMeters>NAN</DistanceMeters>
          </Trackpoint>
          <Trackpoint>
            <Time>2018-12-30T13:57:20.000Z</Time>
            <Position>
              <LatitudeDegrees>40.74511385522782802581787109375</LatitudeDegrees>
              <LongitudeDegrees>-4.08134839497506618499755859375</LongitudeDegrees>
            </Position>
            <AltitudeMeters>1418.800048828125</AltitudeMeters>
            <DistanceMeters>NAN</DistanceMeters>
          </Trackpoint>
          <Trackpoint>
            <Time>2018-12-30T13:57:21.000Z</Time>
            <Position>
              <LatitudeDegrees>40.74511720798909664154052734375</LatitudeDegrees>
              <LongitudeDegrees>-4.08134956844151020050048828125</LongitudeDegrees>
            </Position>
            <AltitudeMeters>1419</AltitudeMeters>
            <DistanceMeters>NAN</DistanceMeters>
          </Trackpoint>
          <Trackpoint>
            <Time>2018-12-30T13:57:22.000Z</Time>
            <Position>
              <LatitudeDegrees>40.74513933621346950531005859375</LatitudeDegrees>
              <LongitudeDegrees>-4.081366918981075286865234375</LongitudeDegrees>
            </Position>
            <AltitudeMeters>1419.199951171875</AltitudeMeters>
            <DistanceMeters>NAN</DistanceMeters>
          </Trackpoint>
          <Trackpoint>
            <Time>2018-12-30T13:57:23.000Z</Time>
            <Position>
              <LatitudeDegrees>40.74516649357974529266357421875</LatitudeDegrees>
              <LongitudeDegrees>-4.0813793241977691650390625</LongitudeDegrees>
            </Position>
            <AltitudeMeters>1419.199951171875</AltitudeMeters>
            <DistanceMeters>NAN</DistanceMeters>
          </Trackpoint>
          <Trackpoint>
            <Time>2018-12-30T13:57:24.000Z</Time>
            <Position>
              <LatitudeDegrees>40.74518560431897640228271484375</LatitudeDegrees>
              <LongitudeDegrees>-4.08139265142381191253662109375</LongitudeDegrees>
            </Position>
            <AltitudeMeters>1419.4000244140625</AltitudeMeters>
            <DistanceMeters>NAN</DistanceMeters>
          </Trackpoint>
          <Trackpoint>
            <Time>2018-12-30T13:57:25.000Z</Time>
            <Position>
              <LatitudeDegrees>40.74520085938274860382080078125</LatitudeDegrees>
              <LongitudeDegrees>-4.081405811011791229248046875</LongitudeDegrees>
            </Position>
            <AltitudeMeters>1419.4000244140625</AltitudeMeters>
            <DistanceMeters>NAN</DistanceMeters>
          </Trackpoint>
          <Trackpoint>
            <Time>2018-12-30T13:57:26.000Z</Time>
            <Position>
              <LatitudeDegrees>40.74520974420011043548583984375</LatitudeDegrees>
              <LongitudeDegrees>-4.08141553401947021484375</LongitudeDegrees>
            </Position>
            <AltitudeMeters>1419.4000244140625</AltitudeMeters>
            <DistanceMeters>NAN</DistanceMeters>
          </Trackpoint>
          <Trackpoint>
            <Time>2018-12-30T13:57:27.000Z</Time>
            <Position>
              <LatitudeDegrees>40.745221562683582305908203125</LatitudeDegrees>
              <LongitudeDegrees>-4.0814264304935932159423828125</LongitudeDegrees>
            </Position>
            <AltitudeMeters>1419.4000244140625</AltitudeMeters>
            <DistanceMeters>NAN</DistanceMeters>
          </Trackpoint>
          <Trackpoint>
            <Time>2018-12-30T13:57:28.000Z</Time>
            <Position>
              <LatitudeDegrees>40.74522265233099460601806640625</LatitudeDegrees>
              <LongitudeDegrees>-4.08142249099910259246826171875</LongitudeDegrees>
            </Position>
            <AltitudeMeters>1419.4000244140625</AltitudeMeters>
            <DistanceMeters>NAN</DistanceMeters>
          </Trackpoint>
          <Trackpoint>
            <Time>2018-12-30T13:57:29.000Z</Time>
            <Position>
              <LatitudeDegrees>40.74522935785353183746337890625</LatitudeDegrees>
              <LongitudeDegrees>-4.08142450265586376190185546875</LongitudeDegrees>
            </Position>
            <AltitudeMeters>1419.4000244140625</AltitudeMeters>
            <DistanceMeters>NAN</DistanceMeters>
          </Trackpoint>
          <Trackpoint>
            <Time>2018-12-30T13:57:30.000Z</Time>
            <Position>
              <LatitudeDegrees>40.74523891322314739227294921875</LatitudeDegrees>
              <LongitudeDegrees>-4.0814284421503543853759765625</LongitudeDegrees>
            </Position>
            <AltitudeMeters>1419.4000244140625</AltitudeMeters>
            <DistanceMeters>NAN</DistanceMeters>
          </Trackpoint>
          <Trackpoint>
            <Time>2018-12-30T13:57:31.000Z</Time>
            <Position>
              <LatitudeDegrees>40.74524201452732086181640625</LatitudeDegrees>
              <LongitudeDegrees>-4.08142919652163982391357421875</LongitudeDegrees>
            </Position>
            <AltitudeMeters>1419.4000244140625</AltitudeMeters>
            <DistanceMeters>NAN</DistanceMeters>
          </Trackpoint>
          <Trackpoint>
            <Time>2018-12-30T13:57:32.000Z</Time>
            <Position>
              <LatitudeDegrees>40.745247043669223785400390625</LatitudeDegrees>
              <LongitudeDegrees>-4.081429280340671539306640625</LongitudeDegrees>
            </Position>
            <AltitudeMeters>1419.4000244140625</AltitudeMeters>
            <DistanceMeters>NAN</DistanceMeters>
          </Trackpoint>
          <Trackpoint>
            <Time>2018-12-30T13:57:33.000Z</Time>
            <Position>
              <LatitudeDegrees>40.7452498935163021087646484375</LatitudeDegrees>
              <LongitudeDegrees>-4.08142827451229095458984375</LongitudeDegrees>
            </Position>
            <AltitudeMeters>1419.5999755859375</AltitudeMeters>
            <DistanceMeters>NAN</DistanceMeters>
          </Trackpoint>
          <Trackpoint>
            <Time>2018-12-30T13:57:34.000Z</Time>
            <Position>
              <LatitudeDegrees>40.74525140225887298583984375</LatitudeDegrees>
              <LongitudeDegrees>-4.0814237482845783233642578125</LongitudeDegrees>
            </Position>
            <AltitudeMeters>1419.800048828125</AltitudeMeters>
            <DistanceMeters>NAN</DistanceMeters>
          </Trackpoint>
          <Trackpoint>
            <Time>2018-12-30T13:57:35.000Z</Time>
            <Position>
              <LatitudeDegrees>40.745254419744014739990234375</LatitudeDegrees>
              <LongitudeDegrees>-4.08142131753265857696533203125</LongitudeDegrees>
            </Position>
            <AltitudeMeters>1419.800048828125</AltitudeMeters>
            <DistanceMeters>NAN</DistanceMeters>
          </Trackpoint>
          <Trackpoint>
            <Time>2018-12-30T13:57:36.000Z</Time>
            <Position>
              <LatitudeDegrees>40.74525735341012477874755859375</LatitudeDegrees>
              <LongitudeDegrees>-4.0814210660755634307861328125</LongitudeDegrees>
            </Position>
            <AltitudeMeters>1419.800048828125</AltitudeMeters>
            <DistanceMeters>NAN</DistanceMeters>
          </Trackpoint>
          <Trackpoint>
            <Time>2018-12-30T13:57:37.000Z</Time>
            <Position>
              <LatitudeDegrees>40.745256431400775909423828125</LatitudeDegrees>
              <LongitudeDegrees>-4.08142886124551296234130859375</LongitudeDegrees>
            </Position>
            <AltitudeMeters>1419.800048828125</AltitudeMeters>
            <DistanceMeters>NAN</DistanceMeters>
          </Trackpoint>
          <Trackpoint>
            <Time>2018-12-30T13:57:38.000Z</Time>
            <Position>
              <LatitudeDegrees>40.745278894901275634765625</LatitudeDegrees>
              <LongitudeDegrees>-4.08145886845886707305908203125</LongitudeDegrees>
            </Position>
            <AltitudeMeters>1419.5999755859375</AltitudeMeters>
            <DistanceMeters>NAN</DistanceMeters>
          </Trackpoint>
          <Trackpoint>
            <Time>2018-12-30T13:57:39.000Z</Time>
            <Position>
              <LatitudeDegrees>40.745275877416133880615234375</LatitudeDegrees>
              <LongitudeDegrees>-4.08146825619041919708251953125</LongitudeDegrees>
            </Position>
            <AltitudeMeters>1419.5999755859375</AltitudeMeters>
            <DistanceMeters>NAN</DistanceMeters>
          </Trackpoint>
          <Trackpoint>
            <Time>2018-12-30T13:57:40.000Z</Time>
            <Position>
              <LatitudeDegrees>40.7452690042555332183837890625</LatitudeDegrees>
              <LongitudeDegrees>-4.08144746907055377960205078125</LongitudeDegrees>
            </Position>
            <AltitudeMeters>1419.5999755859375</AltitudeMeters>
            <DistanceMeters>NAN</DistanceMeters>
          </Trackpoint>
          <Trackpoint>
            <Time>2018-12-30T13:57:41.000Z</Time>
            <Position>
              <LatitudeDegrees>40.7452775537967681884765625</LatitudeDegrees>
              <LongitudeDegrees>-4.08144948072731494903564453125</LongitudeDegrees>
            </Position>
            <AltitudeMeters>1419.4000244140625</AltitudeMeters>
            <DistanceMeters>NAN</DistanceMeters>
          </Trackpoint>
          <Trackpoint>
            <Time>2018-12-30T13:57:42.000Z</Time>
            <Position>
              <LatitudeDegrees>40.74527562595903873443603515625</LatitudeDegrees>
              <LongitudeDegrees>-4.0814383327960968017578125</LongitudeDegrees>
            </Position>
            <AltitudeMeters>1419.4000244140625</AltitudeMeters>
            <DistanceMeters>NAN</DistanceMeters>
          </Trackpoint>
          <Trackpoint>
            <Time>2018-12-30T13:57:43.000Z</Time>
            <Position>
              <LatitudeDegrees>40.74528518132865428924560546875</LatitudeDegrees>
              <LongitudeDegrees>-4.08143992535769939422607421875</LongitudeDegrees>
            </Position>
            <AltitudeMeters>1419.4000244140625</AltitudeMeters>
            <DistanceMeters>NAN</DistanceMeters>
          </Trackpoint>
          <Trackpoint>
            <Time>2018-12-30T13:57:44.000Z</Time>
            <Position>
              <LatitudeDegrees>40.74529029428958892822265625</LatitudeDegrees>
              <LongitudeDegrees>-4.08143355511128902435302734375</LongitudeDegrees>
            </Position>
            <AltitudeMeters>1419.199951171875</AltitudeMeters>
            <DistanceMeters>NAN</DistanceMeters>
          </Trackpoint>
          <Trackpoint>
            <Time>2018-12-30T13:57:45.000Z</Time>
            <Position>
              <LatitudeDegrees>40.74529658071696758270263671875</LatitudeDegrees>
              <LongitudeDegrees>-4.081419892609119415283203125</LongitudeDegrees>
            </Position>
            <AltitudeMeters>1419.199951171875</AltitudeMeters>
            <DistanceMeters>NAN</DistanceMeters>
          </Trackpoint>
          <Trackpoint>
            <Time>2018-12-30T13:57:46.000Z</Time>
            <Position>
              <LatitudeDegrees>40.74529565870761871337890625</LatitudeDegrees>
              <LongitudeDegrees>-4.08140681684017181396484375</LongitudeDegrees>
            </Position>
            <AltitudeMeters>1419.199951171875</AltitudeMeters>
            <DistanceMeters>NAN</DistanceMeters>
          </Trackpoint>
          <Trackpoint>
            <Time>2018-12-30T13:57:47.000Z</Time>
            <Position>
              <LatitudeDegrees>40.7453001849353313446044921875</LatitudeDegrees>
              <LongitudeDegrees>-4.081411845982074737548828125</LongitudeDegrees>
            </Position>
            <AltitudeMeters>1419</AltitudeMeters>
            <DistanceMeters>NAN</DistanceMeters>
          </Trackpoint>
          <Trackpoint>
            <Time>2018-12-30T13:57:48.000Z</Time>
            <Position>
              <LatitudeDegrees>40.74528970755636692047119140625</LatitudeDegrees>
              <LongitudeDegrees>-4.0813989378511905670166015625</LongitudeDegrees>
            </Position>
            <AltitudeMeters>1419</AltitudeMeters>
            <DistanceMeters>NAN</DistanceMeters>
          </Trackpoint>
          <Trackpoint>
            <Time>2018-12-30T13:57:49.000Z</Time>
            <Position>
              <LatitudeDegrees>40.7452951557934284210205078125</LatitudeDegrees>
              <LongitudeDegrees>-4.0813942439854145050048828125</LongitudeDegrees>
            </Position>
            <AltitudeMeters>1418.800048828125</AltitudeMeters>
            <DistanceMeters>NAN</DistanceMeters>
          </Trackpoint>
          <Trackpoint>
            <Time>2018-12-30T13:57:50.000Z</Time>
            <Position>
              <LatitudeDegrees>40.7452954910695552825927734375</LatitudeDegrees>
              <LongitudeDegrees>-4.0813793241977691650390625</LongitudeDegrees>
            </Position>
            <AltitudeMeters>1418.800048828125</AltitudeMeters>
            <DistanceMeters>NAN</DistanceMeters>
          </Trackpoint>
          <Trackpoint>
            <Time>2018-12-30T13:57:51.000Z</Time>
            <Position>
              <LatitudeDegrees>40.74528316967189311981201171875</LatitudeDegrees>
              <LongitudeDegrees>-4.08137991093099117279052734375</LongitudeDegrees>
            </Position>
            <AltitudeMeters>1418.800048828125</AltitudeMeters>
            <DistanceMeters>NAN</DistanceMeters>
          </Trackpoint>
          <Trackpoint>
            <Time>2018-12-30T13:57:52.000Z</Time>
            <Position>
              <LatitudeDegrees>40.7452844269573688507080078125</LatitudeDegrees>
              <LongitudeDegrees>-4.08138108439743518829345703125</LongitudeDegrees>
            </Position>
            <AltitudeMeters>1418.800048828125</AltitudeMeters>
            <DistanceMeters>NAN</DistanceMeters>
          </Trackpoint>
          <Trackpoint>
            <Time>2018-12-30T13:57:53.000Z</Time>
            <Position>
              <LatitudeDegrees>40.74528300203382968902587890625</LatitudeDegrees>
              <LongitudeDegrees>-4.08138007856905460357666015625</LongitudeDegrees>
            </Position>
            <AltitudeMeters>1418.800048828125</AltitudeMeters>
            <DistanceMeters>NAN</DistanceMeters>
          </Trackpoint>
          <Trackpoint>
            <Time>2018-12-30T13:57:54.000Z</Time>
            <Position>
              <LatitudeDegrees>40.7452807389199733734130859375</LatitudeDegrees>
              <LongitudeDegrees>-4.08137823455035686492919921875</LongitudeDegrees>
            </Position>
            <AltitudeMeters>1418.800048828125</AltitudeMeters>
            <DistanceMeters>NAN</DistanceMeters>
          </Trackpoint>
          <Trackpoint>
            <Time>2018-12-30T13:57:55.000Z</Time>
            <Position>
              <LatitudeDegrees>40.7452720217406749725341796875</LatitudeDegrees>
              <LongitudeDegrees>-4.0813848562538623809814453125</LongitudeDegrees>
            </Position>
            <AltitudeMeters>1418.800048828125</AltitudeMeters>
            <DistanceMeters>NAN</DistanceMeters>
          </Trackpoint>
          <Trackpoint>
            <Time>2018-12-30T13:57:56.000Z</Time>
            <Position>
              <LatitudeDegrees>40.74526925571262836456298828125</LatitudeDegrees>
              <LongitudeDegrees>-4.08138343133032321929931640625</LongitudeDegrees>
            </Position>
            <AltitudeMeters>1418.800048828125</AltitudeMeters>
            <DistanceMeters>NAN</DistanceMeters>
          </Trackpoint>
          <Trackpoint>
            <Time>2018-12-30T13:57:57.000Z</Time>
            <Position>
              <LatitudeDegrees>40.74525550939142704010009765625</LatitudeDegrees>
              <LongitudeDegrees>-4.0813846886157989501953125</LongitudeDegrees>
            </Position>
            <AltitudeMeters>1418.5999755859375</AltitudeMeters>
            <DistanceMeters>NAN</DistanceMeters>
          </Trackpoint>
          <Trackpoint>
            <Time>2018-12-30T13:57:58.000Z</Time>
            <Position>
              <LatitudeDegrees>40.74524159543216228485107421875</LatitudeDegrees>
              <LongitudeDegrees>-4.081388376653194427490234375</LongitudeDegrees>
            </Position>
            <AltitudeMeters>1418.5999755859375</AltitudeMeters>
            <DistanceMeters>NAN</DistanceMeters>
          </Trackpoint>
          <Trackpoint>
            <Time>2018-12-30T13:57:59.000Z</Time>
            <Position>
              <LatitudeDegrees>40.74524335563182830810546875</LatitudeDegrees>
              <LongitudeDegrees>-4.081385023891925811767578125</LongitudeDegrees>
            </Position>
            <AltitudeMeters>1418.5999755859375</AltitudeMeters>
            <DistanceMeters>NAN</DistanceMeters>
          </Trackpoint>
          <Trackpoint>
            <Time>2018-12-30T13:58:00.000Z</Time>
            <Position>
              <LatitudeDegrees>40.74524528346955776214599609375</LatitudeDegrees>
              <LongitudeDegrees>-4.08137957565486431121826171875</LongitudeDegrees>
            </Position>
            <AltitudeMeters>1418.4000244140625</AltitudeMeters>
            <DistanceMeters>NAN</DistanceMeters>
          </Trackpoint>
          <Trackpoint>
            <Time>2018-12-30T13:58:01.000Z</Time>
            <Position>
              <LatitudeDegrees>40.74524595402181148529052734375</LatitudeDegrees>
              <LongitudeDegrees>-4.0813771449029445648193359375</LongitudeDegrees>
            </Position>
            <AltitudeMeters>1418.4000244140625</AltitudeMeters>
            <DistanceMeters>NAN</DistanceMeters>
          </Trackpoint>
          <Trackpoint>
            <Time>2018-12-30T13:58:02.000Z</Time>
            <Position>
              <LatitudeDegrees>40.74524427764117717742919921875</LatitudeDegrees>
              <LongitudeDegrees>-4.081372953951358795166015625</LongitudeDegrees>
            </Position>
            <AltitudeMeters>1418.4000244140625</AltitudeMeters>
            <DistanceMeters>NAN</DistanceMeters>
          </Trackpoint>
          <Trackpoint>
            <Time>2018-12-30T13:58:03.000Z</Time>
            <Position>
              <LatitudeDegrees>40.7452400028705596923828125</LatitudeDegrees>
              <LongitudeDegrees>-4.0813717804849147796630859375</LongitudeDegrees>
            </Position>
            <AltitudeMeters>1418.199951171875</AltitudeMeters>
            <DistanceMeters>NAN</DistanceMeters>
          </Trackpoint>
          <Trackpoint>
            <Time>2018-12-30T13:58:04.000Z</Time>
            <Position>
              <LatitudeDegrees>40.745234303176403045654296875</LatitudeDegrees>
              <LongitudeDegrees>-4.0813798271119594573974609375</LongitudeDegrees>
            </Position>
            <AltitudeMeters>1418.199951171875</AltitudeMeters>
            <DistanceMeters>NAN</DistanceMeters>
          </Trackpoint>
          <Trackpoint>
            <Time>2018-12-30T13:58:05.000Z</Time>
            <Position>
              <LatitudeDegrees>40.7452361471951007843017578125</LatitudeDegrees>
              <LongitudeDegrees>-4.08138292841613292694091796875</LongitudeDegrees>
            </Position>
            <AltitudeMeters>1418</AltitudeMeters>
            <DistanceMeters>NAN</DistanceMeters>
          </Trackpoint>
          <Trackpoint>
            <Time>2018-12-30T13:58:06.000Z</Time>
            <Position>
              <LatitudeDegrees>40.74523153714835643768310546875</LatitudeDegrees>
              <LongitudeDegrees>-4.0813821740448474884033203125</LongitudeDegrees>
            </Position>
            <AltitudeMeters>1418</AltitudeMeters>
            <DistanceMeters>NAN</DistanceMeters>
          </Trackpoint>
          <Trackpoint>
            <Time>2018-12-30T13:58:07.000Z</Time>
            <Position>
              <LatitudeDegrees>40.74522198177874088287353515625</LatitudeDegrees>
              <LongitudeDegrees>-4.08137924037873744964599609375</LongitudeDegrees>
            </Position>
            <AltitudeMeters>1417.800048828125</AltitudeMeters>
            <DistanceMeters>NAN</DistanceMeters>
          </Trackpoint>
          <Trackpoint>
            <Time>2018-12-30T13:58:08.000Z</Time>
            <Position>
              <LatitudeDegrees>40.74520940892398357391357421875</LatitudeDegrees>
              <LongitudeDegrees>-4.081386029720306396484375</LongitudeDegrees>
            </Position>
            <AltitudeMeters>1417.800048828125</AltitudeMeters>
            <DistanceMeters>NAN</DistanceMeters>
          </Trackpoint>
          <Trackpoint>
            <Time>2018-12-30T13:58:09.000Z</Time>
            <Position>
              <LatitudeDegrees>40.74518971145153045654296875</LatitudeDegrees>
              <LongitudeDegrees>-4.08138812519609928131103515625</LongitudeDegrees>
            </Position>
            <AltitudeMeters>1417.5999755859375</AltitudeMeters>
            <DistanceMeters>NAN</DistanceMeters>
          </Trackpoint>
          <Trackpoint>
            <Time>2018-12-30T13:58:10.000Z</Time>
            <Position>
              <LatitudeDegrees>40.74518359266221523284912109375</LatitudeDegrees>
              <LongitudeDegrees>-4.08139768056571483612060546875</LongitudeDegrees>
            </Position>
            <AltitudeMeters>1417.4000244140625</AltitudeMeters>
            <DistanceMeters>NAN</DistanceMeters>
          </Trackpoint>
          <Trackpoint>
            <Time>2018-12-30T13:58:11.000Z</Time>
            <Position>
              <LatitudeDegrees>40.7451794855296611785888671875</LatitudeDegrees>
              <LongitudeDegrees>-4.08139985986053943634033203125</LongitudeDegrees>
            </Position>
            <AltitudeMeters>1417.4000244140625</AltitudeMeters>
            <DistanceMeters>NAN</DistanceMeters>
          </Trackpoint>
          <Trackpoint>
            <Time>2018-12-30T13:58:12.000Z</Time>
            <Position>
              <LatitudeDegrees>40.7451731152832508087158203125</LatitudeDegrees>
              <LongitudeDegrees>-4.0814019553363323211669921875</LongitudeDegrees>
            </Position>
            <AltitudeMeters>1417.4000244140625</AltitudeMeters>
            <DistanceMeters>NAN</DistanceMeters>
          </Trackpoint>
          <Trackpoint>
            <Time>2018-12-30T13:58:13.000Z</Time>
            <Position>
              <LatitudeDegrees>40.7451714389026165008544921875</LatitudeDegrees>
              <LongitudeDegrees>-4.0814036317169666290283203125</LongitudeDegrees>
            </Position>
            <AltitudeMeters>1417.4000244140625</AltitudeMeters>
            <DistanceMeters>NAN</DistanceMeters>
          </Trackpoint>
          <Trackpoint>
            <Time>2018-12-30T13:58:14.000Z</Time>
            <Position>
              <LatitudeDegrees>40.74516297318041324615478515625</LatitudeDegrees>
              <LongitudeDegrees>-4.0814106725156307220458984375</LongitudeDegrees>
            </Position>
            <AltitudeMeters>1417.4000244140625</AltitudeMeters>
            <DistanceMeters>NAN</DistanceMeters>
          </Trackpoint>
          <Trackpoint>
            <Time>2018-12-30T13:58:15.000Z</Time>
            <Position>
              <LatitudeDegrees>40.74517495930194854736328125</LatitudeDegrees>
              <LongitudeDegrees>-4.0814542584121227264404296875</LongitudeDegrees>
            </Position>
            <AltitudeMeters>1417.4000244140625</AltitudeMeters>
            <DistanceMeters>NAN</DistanceMeters>
          </Trackpoint>
          <Trackpoint>
            <Time>2018-12-30T13:58:16.000Z</Time>
            <Position>
              <LatitudeDegrees>40.74517604894936084747314453125</LatitudeDegrees>
              <LongitudeDegrees>-4.08146406523883342742919921875</LongitudeDegrees>
            </Position>
            <AltitudeMeters>1417.4000244140625</AltitudeMeters>
            <DistanceMeters>NAN</DistanceMeters>
          </Trackpoint>
          <Trackpoint>
            <Time>2018-12-30T13:58:17.000Z</Time>
            <Position>
              <LatitudeDegrees>40.74517018161714076995849609375</LatitudeDegrees>
              <LongitudeDegrees>-4.0814733691513538360595703125</LongitudeDegrees>
            </Position>
            <AltitudeMeters>1417.5999755859375</AltitudeMeters>
            <DistanceMeters>NAN</DistanceMeters>
          </Trackpoint>
          <Trackpoint>
            <Time>2018-12-30T13:58:18.000Z</Time>
            <Position>
              <LatitudeDegrees>40.74516749940812587738037109375</LatitudeDegrees>
              <LongitudeDegrees>-4.0814790688455104827880859375</LongitudeDegrees>
            </Position>
            <AltitudeMeters>1417.5999755859375</AltitudeMeters>
            <DistanceMeters>NAN</DistanceMeters>
          </Trackpoint>
          <Trackpoint>
            <Time>2018-12-30T13:58:19.000Z</Time>
            <Position>
              <LatitudeDegrees>40.74516749940812587738037109375</LatitudeDegrees>
              <LongitudeDegrees>-4.0814777277410030364990234375</LongitudeDegrees>
            </Position>
            <AltitudeMeters>1417.5999755859375</AltitudeMeters>
            <DistanceMeters>NAN</DistanceMeters>
          </Trackpoint>
          <Trackpoint>
            <Time>2018-12-30T13:58:20.000Z</Time>
            <Position>
              <LatitudeDegrees>40.74516288936138153076171875</LatitudeDegrees>
              <LongitudeDegrees>-4.08147546462714672088623046875</LongitudeDegrees>
            </Position>
            <AltitudeMeters>1417.4000244140625</AltitudeMeters>
            <DistanceMeters>NAN</DistanceMeters>
          </Trackpoint>
          <Trackpoint>
            <Time>2018-12-30T13:58:21.000Z</Time>
            <Position>
              <LatitudeDegrees>40.74515350162982940673828125</LatitudeDegrees>
              <LongitudeDegrees>-4.08147462643682956695556640625</LongitudeDegrees>
            </Position>
            <AltitudeMeters>1417.4000244140625</AltitudeMeters>
            <DistanceMeters>NAN</DistanceMeters>
          </Trackpoint>
          <Trackpoint>
            <Time>2018-12-30T13:58:22.000Z</Time>
            <Position>
              <LatitudeDegrees>40.74514201842248439788818359375</LatitudeDegrees>
              <LongitudeDegrees>-4.08148217014968395233154296875</LongitudeDegrees>
            </Position>
            <AltitudeMeters>1417.4000244140625</AltitudeMeters>
            <DistanceMeters>NAN</DistanceMeters>
          </Trackpoint>
          <Trackpoint>
            <Time>2018-12-30T13:58:23.000Z</Time>
            <Position>
              <LatitudeDegrees>40.7451442815363407135009765625</LatitudeDegrees>
              <LongitudeDegrees>-4.0814569406211376190185546875</LongitudeDegrees>
            </Position>
            <AltitudeMeters>1417.199951171875</AltitudeMeters>
            <DistanceMeters>NAN</DistanceMeters>
          </Trackpoint>
          <Trackpoint>
            <Time>2018-12-30T13:58:24.000Z</Time>
            <Position>
              <LatitudeDegrees>40.74514252133667469024658203125</LatitudeDegrees>
              <LongitudeDegrees>-4.081452749669551849365234375</LongitudeDegrees>
            </Position>
            <AltitudeMeters>1417.199951171875</AltitudeMeters>
            <DistanceMeters>NAN</DistanceMeters>
          </Trackpoint>
          <Trackpoint>
            <Time>2018-12-30T13:58:25.000Z</Time>
            <Position>
              <LatitudeDegrees>40.7451402582228183746337890625</LatitudeDegrees>
              <LongitudeDegrees>-4.08144881017506122589111328125</LongitudeDegrees>
            </Position>
            <AltitudeMeters>1417.199951171875</AltitudeMeters>
            <DistanceMeters>NAN</DistanceMeters>
          </Trackpoint>
          <Trackpoint>
            <Time>2018-12-30T13:58:26.000Z</Time>
            <Position>
              <LatitudeDegrees>40.7451295293867588043212890625</LatitudeDegrees>
              <LongitudeDegrees>-4.08143657259643077850341796875</LongitudeDegrees>
            </Position>
            <AltitudeMeters>1417.199951171875</AltitudeMeters>
            <DistanceMeters>NAN</DistanceMeters>
          </Trackpoint>
          <Trackpoint>
            <Time>2018-12-30T13:58:27.000Z</Time>
            <Position>
              <LatitudeDegrees>40.745117962360382080078125</LatitudeDegrees>
              <LongitudeDegrees>-4.08143422566354274749755859375</LongitudeDegrees>
            </Position>
            <AltitudeMeters>1417.199951171875</AltitudeMeters>
            <DistanceMeters>NAN</DistanceMeters>
          </Trackpoint>
          <Trackpoint>
            <Time>2018-12-30T13:58:28.000Z</Time>
            <Position>
              <LatitudeDegrees>40.74510480277240276336669921875</LatitudeDegrees>
              <LongitudeDegrees>-4.08143137581646442413330078125</LongitudeDegrees>
            </Position>
            <AltitudeMeters>1417.199951171875</AltitudeMeters>
            <DistanceMeters>NAN</DistanceMeters>
          </Trackpoint>
          <Trackpoint>
            <Time>2018-12-30T13:58:29.000Z</Time>
            <Position>
              <LatitudeDegrees>40.74509583413600921630859375</LatitudeDegrees>
              <LongitudeDegrees>-4.0814338065683841705322265625</LongitudeDegrees>
            </Position>
            <AltitudeMeters>1417</AltitudeMeters>
            <DistanceMeters>NAN</DistanceMeters>
          </Trackpoint>
          <Trackpoint>
            <Time>2018-12-30T13:58:30.000Z</Time>
            <Position>
              <LatitudeDegrees>40.7450866140425205230712890625</LatitudeDegrees>
              <LongitudeDegrees>-4.0814291127026081085205078125</LongitudeDegrees>
            </Position>
            <AltitudeMeters>1417</AltitudeMeters>
            <DistanceMeters>NAN</DistanceMeters>
          </Trackpoint>
          <Trackpoint>
            <Time>2018-12-30T13:58:31.000Z</Time>
            <Position>
              <LatitudeDegrees>40.74508015997707843780517578125</LatitudeDegrees>
              <LongitudeDegrees>-4.0814227424561977386474609375</LongitudeDegrees>
            </Position>
            <AltitudeMeters>1417</AltitudeMeters>
            <DistanceMeters>NAN</DistanceMeters>
          </Trackpoint>
          <Trackpoint>
            <Time>2018-12-30T13:58:32.000Z</Time>
            <Position>
              <LatitudeDegrees>40.745075382292270660400390625</LatitudeDegrees>
              <LongitudeDegrees>-4.081422574818134307861328125</LongitudeDegrees>
            </Position>
            <AltitudeMeters>1417</AltitudeMeters>
            <DistanceMeters>NAN</DistanceMeters>
          </Trackpoint>
          <Trackpoint>
            <Time>2018-12-30T13:58:33.000Z</Time>
            <Position>
              <LatitudeDegrees>40.7450701855123043060302734375</LatitudeDegrees>
              <LongitudeDegrees>-4.08142064698040485382080078125</LongitudeDegrees>
            </Position>
            <AltitudeMeters>1416.800048828125</AltitudeMeters>
            <DistanceMeters>NAN</DistanceMeters>
          </Trackpoint>
          <Trackpoint>
            <Time>2018-12-30T13:58:34.000Z</Time>
            <Position>
              <LatitudeDegrees>40.74505886994302272796630859375</LatitudeDegrees>
              <LongitudeDegrees>-4.08142500557005405426025390625</LongitudeDegrees>
            </Position>
            <AltitudeMeters>1416.5999755859375</AltitudeMeters>
            <DistanceMeters>NAN</DistanceMeters>
          </Trackpoint>
          <Trackpoint>
            <Time>2018-12-30T13:58:35.000Z</Time>
            <Position>
              <LatitudeDegrees>40.7450480572879314422607421875</LatitudeDegrees>
              <LongitudeDegrees>-4.08143020235002040863037109375</LongitudeDegrees>
            </Position>
            <AltitudeMeters>1416.5999755859375</AltitudeMeters>
            <DistanceMeters>NAN</DistanceMeters>
          </Trackpoint>
          <Trackpoint>
            <Time>2018-12-30T13:58:36.000Z</Time>
            <Position>
              <LatitudeDegrees>40.74504093267023563385009765625</LatitudeDegrees>
              <LongitudeDegrees>-4.0814314596354961395263671875</LongitudeDegrees>
            </Position>
            <AltitudeMeters>1416.5999755859375</AltitudeMeters>
            <DistanceMeters>NAN</DistanceMeters>
          </Trackpoint>
          <Trackpoint>
            <Time>2018-12-30T13:58:37.000Z</Time>
            <Position>
              <LatitudeDegrees>40.7450359873473644256591796875</LatitudeDegrees>
              <LongitudeDegrees>-4.08143766224384307861328125</LongitudeDegrees>
            </Position>
            <AltitudeMeters>1416.5999755859375</AltitudeMeters>
            <DistanceMeters>NAN</DistanceMeters>
          </Trackpoint>
          <Trackpoint>
            <Time>2018-12-30T13:58:38.000Z</Time>
            <Position>
              <LatitudeDegrees>40.7450329698622226715087890625</LatitudeDegrees>
              <LongitudeDegrees>-4.081448055803775787353515625</LongitudeDegrees>
            </Position>
            <AltitudeMeters>1416.5999755859375</AltitudeMeters>
            <DistanceMeters>NAN</DistanceMeters>
          </Trackpoint>
          <Trackpoint>
            <Time>2018-12-30T13:58:39.000Z</Time>
            <Position>
              <LatitudeDegrees>40.7450242526829242706298828125</LatitudeDegrees>
              <LongitudeDegrees>-4.08145585097372531890869140625</LongitudeDegrees>
            </Position>
            <AltitudeMeters>1416.800048828125</AltitudeMeters>
            <DistanceMeters>NAN</DistanceMeters>
          </Trackpoint>
          <Trackpoint>
            <Time>2018-12-30T13:58:40.000Z</Time>
            <Position>
              <LatitudeDegrees>40.7450192235410213470458984375</LatitudeDegrees>
              <LongitudeDegrees>-4.08146381378173828125</LongitudeDegrees>
            </Position>
            <AltitudeMeters>1417</AltitudeMeters>
            <DistanceMeters>NAN</DistanceMeters>
          </Trackpoint>
          <Trackpoint>
            <Time>2018-12-30T13:58:41.000Z</Time>
            <Position>
              <LatitudeDegrees>40.745012350380420684814453125</LatitudeDegrees>
              <LongitudeDegrees>-4.0814732015132904052734375</LongitudeDegrees>
            </Position>
            <AltitudeMeters>1417.199951171875</AltitudeMeters>
            <DistanceMeters>NAN</DistanceMeters>
          </Trackpoint>
          <Trackpoint>
            <Time>2018-12-30T13:58:42.000Z</Time>
            <Position>
              <LatitudeDegrees>40.7449977658689022064208984375</LatitudeDegrees>
              <LongitudeDegrees>-4.081478901207447052001953125</LongitudeDegrees>
            </Position>
            <AltitudeMeters>1417.199951171875</AltitudeMeters>
            <DistanceMeters>NAN</DistanceMeters>
          </Trackpoint>
          <Trackpoint>
            <Time>2018-12-30T13:58:43.000Z</Time>
            <Position>
              <LatitudeDegrees>40.74498292990028858184814453125</LatitudeDegrees>
              <LongitudeDegrees>-4.08148870803415775299072265625</LongitudeDegrees>
            </Position>
            <AltitudeMeters>1417.199951171875</AltitudeMeters>
            <DistanceMeters>NAN</DistanceMeters>
          </Trackpoint>
          <Trackpoint>
            <Time>2018-12-30T13:58:44.000Z</Time>
            <Position>
              <LatitudeDegrees>40.74496817775070667266845703125</LatitudeDegrees>
              <LongitudeDegrees>-4.08150010742247104644775390625</LongitudeDegrees>
            </Position>
            <AltitudeMeters>1417.199951171875</AltitudeMeters>
            <DistanceMeters>NAN</DistanceMeters>
          </Trackpoint>
          <Trackpoint>
            <Time>2018-12-30T13:58:45.000Z</Time>
            <Position>
              <LatitudeDegrees>40.74495879001915454864501953125</LatitudeDegrees>
              <LongitudeDegrees>-4.081512428820133209228515625</LongitudeDegrees>
            </Position>
            <AltitudeMeters>1417.199951171875</AltitudeMeters>
            <DistanceMeters>NAN</DistanceMeters>
          </Trackpoint>
          <Trackpoint>
            <Time>2018-12-30T13:58:46.000Z</Time>
            <Position>
              <LatitudeDegrees>40.74495091103017330169677734375</LatitudeDegrees>
              <LongitudeDegrees>-4.08152307383716106414794921875</LongitudeDegrees>
            </Position>
            <AltitudeMeters>1417.199951171875</AltitudeMeters>
            <DistanceMeters>NAN</DistanceMeters>
          </Trackpoint>
          <Trackpoint>
            <Time>2018-12-30T13:58:47.000Z</Time>
            <Position>
              <LatitudeDegrees>40.74494102038443088531494140625</LatitudeDegrees>
              <LongitudeDegrees>-4.081526510417461395263671875</LongitudeDegrees>
            </Position>
            <AltitudeMeters>1417.199951171875</AltitudeMeters>
            <DistanceMeters>NAN</DistanceMeters>
          </Trackpoint>
          <Trackpoint>
            <Time>2018-12-30T13:58:48.000Z</Time>
            <Position>
              <LatitudeDegrees>40.74492953717708587646484375</LatitudeDegrees>
              <LongitudeDegrees>-4.08152760006487369537353515625</LongitudeDegrees>
            </Position>
            <AltitudeMeters>1417.199951171875</AltitudeMeters>
            <DistanceMeters>NAN</DistanceMeters>
          </Trackpoint>
          <Trackpoint>
            <Time>2018-12-30T13:58:49.000Z</Time>
            <Position>
              <LatitudeDegrees>40.7449246756732463836669921875</LatitudeDegrees>
              <LongitudeDegrees>-4.08152625896036624908447265625</LongitudeDegrees>
            </Position>
            <AltitudeMeters>1417</AltitudeMeters>
            <DistanceMeters>NAN</DistanceMeters>
          </Trackpoint>
          <Trackpoint>
            <Time>2018-12-30T13:58:50.000Z</Time>
            <Position>
              <LatitudeDegrees>40.74492576532065868377685546875</LatitudeDegrees>
              <LongitudeDegrees>-4.08153011463582515716552734375</LongitudeDegrees>
            </Position>
            <AltitudeMeters>1416.800048828125</AltitudeMeters>
            <DistanceMeters>NAN</DistanceMeters>
          </Trackpoint>
          <Trackpoint>
            <Time>2018-12-30T13:58:51.000Z</Time>
            <Position>
              <LatitudeDegrees>40.74492073617875576019287109375</LatitudeDegrees>
              <LongitudeDegrees>-4.08152458257973194122314453125</LongitudeDegrees>
            </Position>
            <AltitudeMeters>1416.5999755859375</AltitudeMeters>
            <DistanceMeters>NAN</DistanceMeters>
          </Trackpoint>
          <Trackpoint>
            <Time>2018-12-30T13:58:52.000Z</Time>
            <Position>
              <LatitudeDegrees>40.74491453357040882110595703125</LatitudeDegrees>
              <LongitudeDegrees>-4.08151703886687755584716796875</LongitudeDegrees>
            </Position>
            <AltitudeMeters>1416.4000244140625</AltitudeMeters>
            <DistanceMeters>NAN</DistanceMeters>
          </Trackpoint>
          <Trackpoint>
            <Time>2018-12-30T13:58:53.000Z</Time>
            <Position>
              <LatitudeDegrees>40.74490497820079326629638671875</LatitudeDegrees>
              <LongitudeDegrees>-4.08151234500110149383544921875</LongitudeDegrees>
            </Position>
            <AltitudeMeters>1416.199951171875</AltitudeMeters>
            <DistanceMeters>NAN</DistanceMeters>
          </Trackpoint>
          <Trackpoint>
            <Time>2018-12-30T13:58:54.000Z</Time>
            <Position>
              <LatitudeDegrees>40.74489508755505084991455078125</LatitudeDegrees>
              <LongitudeDegrees>-4.08150781877338886260986328125</LongitudeDegrees>
            </Position>
            <AltitudeMeters>1416.199951171875</AltitudeMeters>
            <DistanceMeters>NAN</DistanceMeters>
          </Trackpoint>
          <Trackpoint>
            <Time>2018-12-30T13:58:55.000Z</Time>
            <Position>
              <LatitudeDegrees>40.74488603509962558746337890625</LatitudeDegrees>
              <LongitudeDegrees>-4.08150128088891506195068359375</LongitudeDegrees>
            </Position>
            <AltitudeMeters>1416.199951171875</AltitudeMeters>
            <DistanceMeters>NAN</DistanceMeters>
          </Trackpoint>
          <Trackpoint>
            <Time>2018-12-30T13:58:56.000Z</Time>
            <Position>
              <LatitudeDegrees>40.7448777370154857635498046875</LatitudeDegrees>
              <LongitudeDegrees>-4.08149524591863155364990234375</LongitudeDegrees>
            </Position>
            <AltitudeMeters>1416.199951171875</AltitudeMeters>
            <DistanceMeters>NAN</DistanceMeters>
          </Trackpoint>
          <Trackpoint>
            <Time>2018-12-30T13:58:57.000Z</Time>
            <Position>
              <LatitudeDegrees>40.7448663376271724700927734375</LatitudeDegrees>
              <LongitudeDegrees>-4.0814897976815700531005859375</LongitudeDegrees>
            </Position>
            <AltitudeMeters>1416.4000244140625</AltitudeMeters>
            <DistanceMeters>NAN</DistanceMeters>
          </Trackpoint>
          <Trackpoint>
            <Time>2018-12-30T13:58:58.000Z</Time>
            <Position>
              <LatitudeDegrees>40.74485284276306629180908203125</LatitudeDegrees>
              <LongitudeDegrees>-4.0814894624054431915283203125</LongitudeDegrees>
            </Position>
            <AltitudeMeters>1416.4000244140625</AltitudeMeters>
            <DistanceMeters>NAN</DistanceMeters>
          </Trackpoint>
          <Trackpoint>
            <Time>2018-12-30T13:58:59.000Z</Time>
            <Position>
              <LatitudeDegrees>40.744839012622833251953125</LatitudeDegrees>
              <LongitudeDegrees>-4.081490971148014068603515625</LongitudeDegrees>
            </Position>
            <AltitudeMeters>1416.4000244140625</AltitudeMeters>
            <DistanceMeters>NAN</DistanceMeters>
          </Trackpoint>
          <Trackpoint>
            <Time>2018-12-30T13:59:00.000Z</Time>
            <Position>
              <LatitudeDegrees>40.74482903815805912017822265625</LatitudeDegrees>
              <LongitudeDegrees>-4.08149239607155323028564453125</LongitudeDegrees>
            </Position>
            <AltitudeMeters>1416.4000244140625</AltitudeMeters>
            <DistanceMeters>NAN</DistanceMeters>
          </Trackpoint>
          <Trackpoint>
            <Time>2018-12-30T13:59:01.000Z</Time>
            <Position>
              <LatitudeDegrees>40.74481680057942867279052734375</LatitudeDegrees>
              <LongitudeDegrees>-4.0814892947673797607421875</LongitudeDegrees>
            </Position>
            <AltitudeMeters>1416.199951171875</AltitudeMeters>
            <DistanceMeters>NAN</DistanceMeters>
          </Trackpoint>
          <Trackpoint>
            <Time>2018-12-30T13:59:02.000Z</Time>
            <Position>
              <LatitudeDegrees>40.74480883777141571044921875</LatitudeDegrees>
              <LongitudeDegrees>-4.08148887567222118377685546875</LongitudeDegrees>
            </Position>
            <AltitudeMeters>1416</AltitudeMeters>
            <DistanceMeters>NAN</DistanceMeters>
          </Trackpoint>
          <Trackpoint>
            <Time>2018-12-30T13:59:03.000Z</Time>
            <Position>
              <LatitudeDegrees>40.74480372481048107147216796875</LatitudeDegrees>
              <LongitudeDegrees>-4.08149038441479206085205078125</LongitudeDegrees>
            </Position>
            <AltitudeMeters>1415.800048828125</AltitudeMeters>
            <DistanceMeters>NAN</DistanceMeters>
          </Trackpoint>
          <Trackpoint>
            <Time>2018-12-30T13:59:04.000Z</Time>
            <Position>
              <LatitudeDegrees>40.744785703718662261962890625</LatitudeDegrees>
              <LongitudeDegrees>-4.081505723297595977783203125</LongitudeDegrees>
            </Position>
            <AltitudeMeters>1415.800048828125</AltitudeMeters>
            <DistanceMeters>NAN</DistanceMeters>
          </Trackpoint>
          <Trackpoint>
            <Time>2018-12-30T13:59:05.000Z</Time>
            <Position>
              <LatitudeDegrees>40.74477371759712696075439453125</LatitudeDegrees>
              <LongitudeDegrees>-4.08150899223983287811279296875</LongitudeDegrees>
            </Position>
            <AltitudeMeters>1415.5999755859375</AltitudeMeters>
            <DistanceMeters>NAN</DistanceMeters>
          </Trackpoint>
          <Trackpoint>
            <Time>2018-12-30T13:59:06.000Z</Time>
            <Position>
              <LatitudeDegrees>40.744760893285274505615234375</LatitudeDegrees>
              <LongitudeDegrees>-4.08152089454233646392822265625</LongitudeDegrees>
            </Position>
            <AltitudeMeters>1415.5999755859375</AltitudeMeters>
            <DistanceMeters>NAN</DistanceMeters>
          </Trackpoint>
          <Trackpoint>
            <Time>2018-12-30T13:59:07.000Z</Time>
            <Position>
              <LatitudeDegrees>40.744754858314990997314453125</LatitudeDegrees>
              <LongitudeDegrees>-4.0815236605703830718994140625</LongitudeDegrees>
            </Position>
            <AltitudeMeters>1415.4000244140625</AltitudeMeters>
            <DistanceMeters>NAN</DistanceMeters>
          </Trackpoint>
          <Trackpoint>
            <Time>2018-12-30T13:59:08.000Z</Time>
            <Position>
              <LatitudeDegrees>40.7447499968111515045166015625</LatitudeDegrees>
              <LongitudeDegrees>-4.08152223564684391021728515625</LongitudeDegrees>
            </Position>
            <AltitudeMeters>1415.4000244140625</AltitudeMeters>
            <DistanceMeters>NAN</DistanceMeters>
          </Trackpoint>
          <Trackpoint>
            <Time>2018-12-30T13:59:09.000Z</Time>
            <Position>
              <LatitudeDegrees>40.74474371038377285003662109375</LatitudeDegrees>
              <LongitudeDegrees>-4.08153028227388858795166015625</LongitudeDegrees>
            </Position>
            <AltitudeMeters>1415.4000244140625</AltitudeMeters>
            <DistanceMeters>NAN</DistanceMeters>
          </Trackpoint>
          <Trackpoint>
            <Time>2018-12-30T13:59:10.000Z</Time>
            <Position>
              <LatitudeDegrees>40.74474044144153594970703125</LatitudeDegrees>
              <LongitudeDegrees>-4.08152860589325428009033203125</LongitudeDegrees>
            </Position>
            <AltitudeMeters>1415.5999755859375</AltitudeMeters>
            <DistanceMeters>NAN</DistanceMeters>
          </Trackpoint>
          <Trackpoint>
            <Time>2018-12-30T13:59:11.000Z</Time>
            <Position>
              <LatitudeDegrees>40.74473516084253787994384765625</LatitudeDegrees>
              <LongitudeDegrees>-4.08152776770293712615966796875</LongitudeDegrees>
            </Position>
            <AltitudeMeters>1415.4000244140625</AltitudeMeters>
            <DistanceMeters>NAN</DistanceMeters>
          </Trackpoint>
          <Trackpoint>
            <Time>2018-12-30T13:59:12.000Z</Time>
            <Position>
              <LatitudeDegrees>40.744731724262237548828125</LatitudeDegrees>
              <LongitudeDegrees>-4.0815253369510173797607421875</LongitudeDegrees>
            </Position>
            <AltitudeMeters>1415.4000244140625</AltitudeMeters>
            <DistanceMeters>NAN</DistanceMeters>
          </Trackpoint>
          <Trackpoint>
            <Time>2018-12-30T13:59:13.000Z</Time>
            <Position>
              <LatitudeDegrees>40.7447223365306854248046875</LatitudeDegrees>
              <LongitudeDegrees>-4.08152324147522449493408203125</LongitudeDegrees>
            </Position>
            <AltitudeMeters>1415.4000244140625</AltitudeMeters>
            <DistanceMeters>NAN</DistanceMeters>
          </Trackpoint>
          <Trackpoint>
            <Time>2018-12-30T13:59:14.000Z</Time>
            <Position>
              <LatitudeDegrees>40.74471454136073589324951171875</LatitudeDegrees>
              <LongitudeDegrees>-4.081518463790416717529296875</LongitudeDegrees>
            </Position>
            <AltitudeMeters>1415.199951171875</AltitudeMeters>
            <DistanceMeters>NAN</DistanceMeters>
          </Trackpoint>
          <Trackpoint>
            <Time>2018-12-30T13:59:15.000Z</Time>
            <Position>
              <LatitudeDegrees>40.74470230378210544586181640625</LatitudeDegrees>
              <LongitudeDegrees>-4.08151536248624324798583984375</LongitudeDegrees>
            </Position>
            <AltitudeMeters>1415</AltitudeMeters>
            <DistanceMeters>NAN</DistanceMeters>
          </Trackpoint>
          <Trackpoint>
            <Time>2018-12-30T13:59:16.000Z</Time>
            <Position>
              <LatitudeDegrees>40.74469291605055332183837890625</LatitudeDegrees>
              <LongitudeDegrees>-4.08150681294500827789306640625</LongitudeDegrees>
            </Position>
            <AltitudeMeters>1414.5999755859375</AltitudeMeters>
            <DistanceMeters>NAN</DistanceMeters>
          </Trackpoint>
          <Trackpoint>
            <Time>2018-12-30T13:59:17.000Z</Time>
            <Position>
              <LatitudeDegrees>40.7446809299290180206298828125</LatitudeDegrees>
              <LongitudeDegrees>-4.08149809576570987701416015625</LongitudeDegrees>
            </Position>
            <AltitudeMeters>1414.4000244140625</AltitudeMeters>
            <DistanceMeters>NAN</DistanceMeters>
          </Trackpoint>
          <Trackpoint>
            <Time>2018-12-30T13:59:18.000Z</Time>
            <Position>
              <LatitudeDegrees>40.744669698178768157958984375</LatitudeDegrees>
              <LongitudeDegrees>-4.0814887918531894683837890625</LongitudeDegrees>
            </Position>
            <AltitudeMeters>1414.199951171875</AltitudeMeters>
            <DistanceMeters>NAN</DistanceMeters>
          </Trackpoint>
          <Trackpoint>
            <Time>2018-12-30T13:59:19.000Z</Time>
            <Position>
              <LatitudeDegrees>40.7446604780852794647216796875</LatitudeDegrees>
              <LongitudeDegrees>-4.08148284070193767547607421875</LongitudeDegrees>
            </Position>
            <AltitudeMeters>1414</AltitudeMeters>
            <DistanceMeters>NAN</DistanceMeters>
          </Trackpoint>
          <Trackpoint>
            <Time>2018-12-30T13:59:20.000Z</Time>
            <Position>
              <LatitudeDegrees>40.7446524314582347869873046875</LatitudeDegrees>
              <LongitudeDegrees>-4.08147697336971759796142578125</LongitudeDegrees>
            </Position>
            <AltitudeMeters>1414</AltitudeMeters>
            <DistanceMeters>NAN</DistanceMeters>
          </Trackpoint>
          <Trackpoint>
            <Time>2018-12-30T13:59:21.000Z</Time>
            <Position>
              <LatitudeDegrees>40.7446450553834438323974609375</LatitudeDegrees>
              <LongitudeDegrees>-4.081470184028148651123046875</LongitudeDegrees>
            </Position>
            <AltitudeMeters>1414</AltitudeMeters>
            <DistanceMeters>NAN</DistanceMeters>
          </Trackpoint>
          <Trackpoint>
            <Time>2018-12-30T13:59:22.000Z</Time>
            <Position>
              <LatitudeDegrees>40.7446376793086528778076171875</LatitudeDegrees>
              <LongitudeDegrees>-4.08146716654300689697265625</LongitudeDegrees>
            </Position>
            <AltitudeMeters>1414</AltitudeMeters>
            <DistanceMeters>NAN</DistanceMeters>
          </Trackpoint>
          <Trackpoint>
            <Time>2018-12-30T13:59:23.000Z</Time>
            <Position>
              <LatitudeDegrees>40.74463239870965480804443359375</LatitudeDegrees>
              <LongitudeDegrees>-4.08146205358207225799560546875</LongitudeDegrees>
            </Position>
            <AltitudeMeters>1413.800048828125</AltitudeMeters>
            <DistanceMeters>NAN</DistanceMeters>
          </Trackpoint>
          <Trackpoint>
            <Time>2018-12-30T13:59:24.000Z</Time>
            <Position>
              <LatitudeDegrees>40.74462317861616611480712890625</LatitudeDegrees>
              <LongitudeDegrees>-4.0814619697630405426025390625</LongitudeDegrees>
            </Position>
            <AltitudeMeters>1413.800048828125</AltitudeMeters>
            <DistanceMeters>NAN</DistanceMeters>
          </Trackpoint>
          <Trackpoint>
            <Time>2018-12-30T13:59:25.000Z</Time>
            <Position>
              <LatitudeDegrees>40.74460809119045734405517578125</LatitudeDegrees>
              <LongitudeDegrees>-4.0814666636288166046142578125</LongitudeDegrees>
            </Position>
            <AltitudeMeters>1413.800048828125</AltitudeMeters>
            <DistanceMeters>NAN</DistanceMeters>
          </Trackpoint>
          <Trackpoint>
            <Time>2018-12-30T13:59:26.000Z</Time>
            <Position>
              <LatitudeDegrees>40.74459769763052463531494140625</LatitudeDegrees>
              <LongitudeDegrees>-4.08146557398140430450439453125</LongitudeDegrees>
            </Position>
            <AltitudeMeters>1413.800048828125</AltitudeMeters>
            <DistanceMeters>NAN</DistanceMeters>
          </Trackpoint>
          <Trackpoint>
            <Time>2018-12-30T13:59:27.000Z</Time>
            <Position>
              <LatitudeDegrees>40.74458277784287929534912109375</LatitudeDegrees>
              <LongitudeDegrees>-4.08146590925753116607666015625</LongitudeDegrees>
            </Position>
            <AltitudeMeters>1413.5999755859375</AltitudeMeters>
            <DistanceMeters>NAN</DistanceMeters>
          </Trackpoint>
          <Trackpoint>
            <Time>2018-12-30T13:59:28.000Z</Time>
            <Position>
              <LatitudeDegrees>40.74457238428294658660888671875</LatitudeDegrees>
              <LongitudeDegrees>-4.0814616344869136810302734375</LongitudeDegrees>
            </Position>
            <AltitudeMeters>1413.4000244140625</AltitudeMeters>
            <DistanceMeters>NAN</DistanceMeters>
          </Trackpoint>
          <Trackpoint>
            <Time>2018-12-30T13:59:29.000Z</Time>
            <Position>
              <LatitudeDegrees>40.7445635832846164703369140625</LatitudeDegrees>
              <LongitudeDegrees>-4.0814576111733913421630859375</LongitudeDegrees>
            </Position>
            <AltitudeMeters>1413.199951171875</AltitudeMeters>
            <DistanceMeters>NAN</DistanceMeters>
          </Trackpoint>
          <Trackpoint>
            <Time>2018-12-30T13:59:30.000Z</Time>
            <Position>
              <LatitudeDegrees>40.744553022086620330810546875</LatitudeDegrees>
              <LongitudeDegrees>-4.08145886845886707305908203125</LongitudeDegrees>
            </Position>
            <AltitudeMeters>1413</AltitudeMeters>
            <DistanceMeters>NAN</DistanceMeters>
          </Trackpoint>
          <Trackpoint>
            <Time>2018-12-30T13:59:31.000Z</Time>
            <Position>
              <LatitudeDegrees>40.74454707093536853790283203125</LatitudeDegrees>
              <LongitudeDegrees>-4.08145082183182239532470703125</LongitudeDegrees>
            </Position>
            <AltitudeMeters>1412.5999755859375</AltitudeMeters>
            <DistanceMeters>NAN</DistanceMeters>
          </Trackpoint>
          <Trackpoint>
            <Time>2018-12-30T13:59:32.000Z</Time>
            <Position>
              <LatitudeDegrees>40.74454086832702159881591796875</LatitudeDegrees>
              <LongitudeDegrees>-4.0814586170017719268798828125</LongitudeDegrees>
            </Position>
            <AltitudeMeters>1412.4000244140625</AltitudeMeters>
            <DistanceMeters>NAN</DistanceMeters>
          </Trackpoint>
          <Trackpoint>
            <Time>2018-12-30T13:59:33.000Z</Time>
            <Position>
              <LatitudeDegrees>40.7445384375751018524169921875</LatitudeDegrees>
              <LongitudeDegrees>-4.08145551569759845733642578125</LongitudeDegrees>
            </Position>
            <AltitudeMeters>1412.199951171875</AltitudeMeters>
            <DistanceMeters>NAN</DistanceMeters>
          </Trackpoint>
          <Trackpoint>
            <Time>2018-12-30T13:59:34.000Z</Time>
            <Position>
              <LatitudeDegrees>40.74453634209930896759033203125</LatitudeDegrees>
              <LongitudeDegrees>-4.08145870082080364227294921875</LongitudeDegrees>
            </Position>
            <AltitudeMeters>1412.199951171875</AltitudeMeters>
            <DistanceMeters>NAN</DistanceMeters>
          </Trackpoint>
          <Trackpoint>
            <Time>2018-12-30T13:59:35.000Z</Time>
            <Position>
              <LatitudeDegrees>40.7445318996906280517578125</LatitudeDegrees>
              <LongitudeDegrees>-4.08145769499242305755615234375</LongitudeDegrees>
            </Position>
            <AltitudeMeters>1412</AltitudeMeters>
            <DistanceMeters>NAN</DistanceMeters>
          </Trackpoint>
          <Trackpoint>
            <Time>2018-12-30T13:59:36.000Z</Time>
            <Position>
              <LatitudeDegrees>40.7445260323584079742431640625</LatitudeDegrees>
              <LongitudeDegrees>-4.0814525820314884185791015625</LongitudeDegrees>
            </Position>
            <AltitudeMeters>1411.5999755859375</AltitudeMeters>
            <DistanceMeters>NAN</DistanceMeters>
          </Trackpoint>
          <Trackpoint>
            <Time>2018-12-30T13:59:37.000Z</Time>
            <Position>
              <LatitudeDegrees>40.7445176504552364349365234375</LatitudeDegrees>
              <LongitudeDegrees>-4.081443361937999725341796875</LongitudeDegrees>
            </Position>
            <AltitudeMeters>1411.4000244140625</AltitudeMeters>
            <DistanceMeters>NAN</DistanceMeters>
          </Trackpoint>
          <Trackpoint>
            <Time>2018-12-30T13:59:38.000Z</Time>
            <Position>
              <LatitudeDegrees>40.74450616724789142608642578125</LatitudeDegrees>
              <LongitudeDegrees>-4.08143095672130584716796875</LongitudeDegrees>
            </Position>
            <AltitudeMeters>1411.199951171875</AltitudeMeters>
            <DistanceMeters>NAN</DistanceMeters>
          </Trackpoint>
          <Trackpoint>
            <Time>2018-12-30T13:59:39.000Z</Time>
            <Position>
              <LatitudeDegrees>40.74450029991567134857177734375</LatitudeDegrees>
              <LongitudeDegrees>-4.081417880952358245849609375</LongitudeDegrees>
            </Position>
            <AltitudeMeters>1410.800048828125</AltitudeMeters>
            <DistanceMeters>NAN</DistanceMeters>
          </Trackpoint>
          <Trackpoint>
            <Time>2018-12-30T13:59:40.000Z</Time>
            <Position>
              <LatitudeDegrees>40.74449610896408557891845703125</LatitudeDegrees>
              <LongitudeDegrees>-4.08140790648758411407470703125</LongitudeDegrees>
            </Position>
            <AltitudeMeters>1410.4000244140625</AltitudeMeters>
            <DistanceMeters>NAN</DistanceMeters>
          </Trackpoint>
          <Trackpoint>
            <Time>2018-12-30T13:59:41.000Z</Time>
            <Position>
              <LatitudeDegrees>40.7444854639470577239990234375</LatitudeDegrees>
              <LongitudeDegrees>-4.0813969261944293975830078125</LongitudeDegrees>
            </Position>
            <AltitudeMeters>1410.199951171875</AltitudeMeters>
            <DistanceMeters>NAN</DistanceMeters>
          </Trackpoint>
          <Trackpoint>
            <Time>2018-12-30T13:59:42.000Z</Time>
            <Position>
              <LatitudeDegrees>40.74447297491133213043212890625</LatitudeDegrees>
              <LongitudeDegrees>-4.0813905559480190277099609375</LongitudeDegrees>
            </Position>
            <AltitudeMeters>1410</AltitudeMeters>
            <DistanceMeters>NAN</DistanceMeters>
          </Trackpoint>
          <Trackpoint>
            <Time>2018-12-30T13:59:43.000Z</Time>
            <Position>
              <LatitudeDegrees>40.74446140788495540618896484375</LatitudeDegrees>
              <LongitudeDegrees>-4.08137102611362934112548828125</LongitudeDegrees>
            </Position>
            <AltitudeMeters>1409.800048828125</AltitudeMeters>
            <DistanceMeters>NAN</DistanceMeters>
          </Trackpoint>
          <Trackpoint>
            <Time>2018-12-30T13:59:44.000Z</Time>
            <Position>
              <LatitudeDegrees>40.74445134960114955902099609375</LatitudeDegrees>
              <LongitudeDegrees>-4.081370271742343902587890625</LongitudeDegrees>
            </Position>
            <AltitudeMeters>1409.5999755859375</AltitudeMeters>
            <DistanceMeters>NAN</DistanceMeters>
          </Trackpoint>
          <Trackpoint>
            <Time>2018-12-30T13:59:45.000Z</Time>
            <Position>
              <LatitudeDegrees>40.74444129131734371185302734375</LatitudeDegrees>
              <LongitudeDegrees>-4.08136817626655101776123046875</LongitudeDegrees>
            </Position>
            <AltitudeMeters>1409.5999755859375</AltitudeMeters>
            <DistanceMeters>NAN</DistanceMeters>
          </Trackpoint>
          <Trackpoint>
            <Time>2018-12-30T13:59:46.000Z</Time>
            <Position>
              <LatitudeDegrees>40.7444281317293643951416015625</LatitudeDegrees>
              <LongitudeDegrees>-4.081368260085582733154296875</LongitudeDegrees>
            </Position>
            <AltitudeMeters>1409.4000244140625</AltitudeMeters>
            <DistanceMeters>NAN</DistanceMeters>
          </Trackpoint>
          <Trackpoint>
            <Time>2018-12-30T13:59:47.000Z</Time>
            <Position>
              <LatitudeDegrees>40.7444133795797824859619140625</LatitudeDegrees>
              <LongitudeDegrees>-4.08137002028524875640869140625</LongitudeDegrees>
            </Position>
            <AltitudeMeters>1409.4000244140625</AltitudeMeters>
            <DistanceMeters>NAN</DistanceMeters>
          </Trackpoint>
          <Trackpoint>
            <Time>2018-12-30T13:59:48.000Z</Time>
            <Position>
              <LatitudeDegrees>40.74440390802919864654541015625</LatitudeDegrees>
              <LongitudeDegrees>-4.08136633224785327911376953125</LongitudeDegrees>
            </Position>
            <AltitudeMeters>1409.4000244140625</AltitudeMeters>
            <DistanceMeters>NAN</DistanceMeters>
          </Trackpoint>
          <Trackpoint>
            <Time>2018-12-30T13:59:49.000Z</Time>
            <Position>
              <LatitudeDegrees>40.7443962804973125457763671875</LatitudeDegrees>
              <LongitudeDegrees>-4.08136934973299503326416015625</LongitudeDegrees>
            </Position>
            <AltitudeMeters>1409.199951171875</AltitudeMeters>
            <DistanceMeters>NAN</DistanceMeters>
          </Trackpoint>
          <Trackpoint>
            <Time>2018-12-30T13:59:50.000Z</Time>
            <Position>
              <LatitudeDegrees>40.7443882338702678680419921875</LatitudeDegrees>
              <LongitudeDegrees>-4.08136817626655101776123046875</LongitudeDegrees>
            </Position>
            <AltitudeMeters>1409.199951171875</AltitudeMeters>
            <DistanceMeters>NAN</DistanceMeters>
          </Trackpoint>
          <Trackpoint>
            <Time>2018-12-30T13:59:51.000Z</Time>
            <Position>
              <LatitudeDegrees>40.7443781755864620208740234375</LatitudeDegrees>
              <LongitudeDegrees>-4.081366248428821563720703125</LongitudeDegrees>
            </Position>
            <AltitudeMeters>1409</AltitudeMeters>
            <DistanceMeters>NAN</DistanceMeters>
          </Trackpoint>
          <Trackpoint>
            <Time>2018-12-30T13:59:52.000Z</Time>
            <Position>
              <LatitudeDegrees>40.74436618946492671966552734375</LatitudeDegrees>
              <LongitudeDegrees>-4.081367589533329010009765625</LongitudeDegrees>
            </Position>
            <AltitudeMeters>1408.800048828125</AltitudeMeters>
            <DistanceMeters>NAN</DistanceMeters>
          </Trackpoint>
          <Trackpoint>
            <Time>2018-12-30T13:59:53.000Z</Time>
            <Position>
              <LatitudeDegrees>40.744352526962757110595703125</LatitudeDegrees>
              <LongitudeDegrees>-4.0813633985817432403564453125</LongitudeDegrees>
            </Position>
            <AltitudeMeters>1408.5999755859375</AltitudeMeters>
            <DistanceMeters>NAN</DistanceMeters>
          </Trackpoint>
          <Trackpoint>
            <Time>2018-12-30T13:59:54.000Z</Time>
            <Position>
              <LatitudeDegrees>40.74434121139347553253173828125</LatitudeDegrees>
              <LongitudeDegrees>-4.08135510049760341644287109375</LongitudeDegrees>
            </Position>
            <AltitudeMeters>1408.4000244140625</AltitudeMeters>
            <DistanceMeters>NAN</DistanceMeters>
          </Trackpoint>
          <Trackpoint>
            <Time>2018-12-30T13:59:55.000Z</Time>
            <Position>
              <LatitudeDegrees>40.7443302311003208160400390625</LatitudeDegrees>
              <LongitudeDegrees>-4.081347472965717315673828125</LongitudeDegrees>
            </Position>
            <AltitudeMeters>1408.199951171875</AltitudeMeters>
            <DistanceMeters>NAN</DistanceMeters>
          </Trackpoint>
          <Trackpoint>
            <Time>2018-12-30T13:59:56.000Z</Time>
            <Position>
              <LatitudeDegrees>40.74432025663554668426513671875</LatitudeDegrees>
              <LongitudeDegrees>-4.081336073577404022216796875</LongitudeDegrees>
            </Position>
            <AltitudeMeters>1408.199951171875</AltitudeMeters>
            <DistanceMeters>NAN</DistanceMeters>
          </Trackpoint>
          <Trackpoint>
            <Time>2018-12-30T13:59:57.000Z</Time>
            <Position>
              <LatitudeDegrees>40.74430466629564762115478515625</LatitudeDegrees>
              <LongitudeDegrees>-4.0813305415213108062744140625</LongitudeDegrees>
            </Position>
            <AltitudeMeters>1408</AltitudeMeters>
            <DistanceMeters>NAN</DistanceMeters>
          </Trackpoint>
          <Trackpoint>
            <Time>2018-12-30T13:59:58.000Z</Time>
            <Position>
              <LatitudeDegrees>40.74429611675441265106201171875</LatitudeDegrees>
              <LongitudeDegrees>-4.0813271887600421905517578125</LongitudeDegrees>
            </Position>
            <AltitudeMeters>1408</AltitudeMeters>
            <DistanceMeters>NAN</DistanceMeters>
          </Trackpoint>
          <Trackpoint>
            <Time>2018-12-30T13:59:59.000Z</Time>
            <Position>
              <LatitudeDegrees>40.7442873157560825347900390625</LatitudeDegrees>
              <LongitudeDegrees>-4.081328697502613067626953125</LongitudeDegrees>
            </Position>
            <AltitudeMeters>1408</AltitudeMeters>
            <DistanceMeters>NAN</DistanceMeters>
          </Trackpoint>
          <Trackpoint>
            <Time>2018-12-30T14:00:00.000Z</Time>
            <Position>
              <LatitudeDegrees>40.7442765869200229644775390625</LatitudeDegrees>
              <LongitudeDegrees>-4.08133448101580142974853515625</LongitudeDegrees>
            </Position>
            <AltitudeMeters>1408</AltitudeMeters>
            <DistanceMeters>NAN</DistanceMeters>
          </Trackpoint>
          <Trackpoint>
            <Time>2018-12-30T14:00:01.000Z</Time>
            <Position>
              <LatitudeDegrees>40.7442717254161834716796875</LatitudeDegrees>
              <LongitudeDegrees>-4.08132500946521759033203125</LongitudeDegrees>
            </Position>
            <AltitudeMeters>1407.800048828125</AltitudeMeters>
            <DistanceMeters>NAN</DistanceMeters>
          </Trackpoint>
          <Trackpoint>
            <Time>2018-12-30T14:00:02.000Z</Time>
            <Position>
              <LatitudeDegrees>40.74426476843655109405517578125</LatitudeDegrees>
              <LongitudeDegrees>-4.081305898725986480712890625</LongitudeDegrees>
            </Position>
            <AltitudeMeters>1407.800048828125</AltitudeMeters>
            <DistanceMeters>NAN</DistanceMeters>
          </Trackpoint>
          <Trackpoint>
            <Time>2018-12-30T14:00:03.000Z</Time>
            <Position>
              <LatitudeDegrees>40.744259655475616455078125</LatitudeDegrees>
              <LongitudeDegrees>-4.081298522651195526123046875</LongitudeDegrees>
            </Position>
            <AltitudeMeters>1407.5999755859375</AltitudeMeters>
            <DistanceMeters>NAN</DistanceMeters>
          </Trackpoint>
          <Trackpoint>
            <Time>2018-12-30T14:00:04.000Z</Time>
            <Position>
              <LatitudeDegrees>40.74425403960049152374267578125</LatitudeDegrees>
              <LongitudeDegrees>-4.0812919847667217254638671875</LongitudeDegrees>
            </Position>
            <AltitudeMeters>1407.4000244140625</AltitudeMeters>
            <DistanceMeters>NAN</DistanceMeters>
          </Trackpoint>
          <Trackpoint>
            <Time>2018-12-30T14:00:05.000Z</Time>
            <Position>
              <LatitudeDegrees>40.74424129910767078399658203125</LatitudeDegrees>
              <LongitudeDegrees>-4.081294499337673187255859375</LongitudeDegrees>
            </Position>
            <AltitudeMeters>1407.4000244140625</AltitudeMeters>
            <DistanceMeters>NAN</DistanceMeters>
          </Trackpoint>
          <Trackpoint>
            <Time>2018-12-30T14:00:06.000Z</Time>
            <Position>
              <LatitudeDegrees>40.744241215288639068603515625</LatitudeDegrees>
              <LongitudeDegrees>-4.08128821291029453277587890625</LongitudeDegrees>
            </Position>
            <AltitudeMeters>1407.199951171875</AltitudeMeters>
            <DistanceMeters>NAN</DistanceMeters>
          </Trackpoint>
          <Trackpoint>
            <Time>2018-12-30T14:00:07.000Z</Time>
            <Position>
              <LatitudeDegrees>40.7442319951951503753662109375</LatitudeDegrees>
              <LongitudeDegrees>-4.08128620125353336334228515625</LongitudeDegrees>
            </Position>
            <AltitudeMeters>1407</AltitudeMeters>
            <DistanceMeters>NAN</DistanceMeters>
          </Trackpoint>
          <Trackpoint>
            <Time>2018-12-30T14:00:08.000Z</Time>
            <Position>
              <LatitudeDegrees>40.7442202605307102203369140625</LatitudeDegrees>
              <LongitudeDegrees>-4.0812856145203113555908203125</LongitudeDegrees>
            </Position>
            <AltitudeMeters>1407</AltitudeMeters>
            <DistanceMeters>NAN</DistanceMeters>
          </Trackpoint>
          <Trackpoint>
            <Time>2018-12-30T14:00:09.000Z</Time>
            <Position>
              <LatitudeDegrees>40.7442088611423969268798828125</LatitudeDegrees>
              <LongitudeDegrees>-4.0812839381396770477294921875</LongitudeDegrees>
            </Position>
            <AltitudeMeters>1406.800048828125</AltitudeMeters>
            <DistanceMeters>NAN</DistanceMeters>
          </Trackpoint>
          <Trackpoint>
            <Time>2018-12-30T14:00:10.000Z</Time>
            <Position>
              <LatitudeDegrees>40.744187571108341217041015625</LatitudeDegrees>
              <LongitudeDegrees>-4.08128502778708934783935546875</LongitudeDegrees>
            </Position>
            <AltitudeMeters>1406.800048828125</AltitudeMeters>
            <DistanceMeters>NAN</DistanceMeters>
          </Trackpoint>
          <Trackpoint>
            <Time>2018-12-30T14:00:11.000Z</Time>
            <Position>
              <LatitudeDegrees>40.74417709372937679290771484375</LatitudeDegrees>
              <LongitudeDegrees>-4.08128636889159679412841796875</LongitudeDegrees>
            </Position>
            <AltitudeMeters>1406.800048828125</AltitudeMeters>
            <DistanceMeters>NAN</DistanceMeters>
          </Trackpoint>
          <Trackpoint>
            <Time>2018-12-30T14:00:12.000Z</Time>
            <Position>
              <LatitudeDegrees>40.7441696338355541229248046875</LatitudeDegrees>
              <LongitudeDegrees>-4.0812893025577068328857421875</LongitudeDegrees>
            </Position>
            <AltitudeMeters>1406.5999755859375</AltitudeMeters>
            <DistanceMeters>NAN</DistanceMeters>
          </Trackpoint>
          <Trackpoint>
            <Time>2018-12-30T14:00:13.000Z</Time>
            <Position>
              <LatitudeDegrees>40.744163095951080322265625</LatitudeDegrees>
              <LongitudeDegrees>-4.08129139803349971771240234375</LongitudeDegrees>
            </Position>
            <AltitudeMeters>1406.5999755859375</AltitudeMeters>
            <DistanceMeters>NAN</DistanceMeters>
          </Trackpoint>
          <Trackpoint>
            <Time>2018-12-30T14:00:14.000Z</Time>
            <Position>
              <LatitudeDegrees>40.7441488467156887054443359375</LatitudeDegrees>
              <LongitudeDegrees>-4.0812859497964382171630859375</LongitudeDegrees>
            </Position>
            <AltitudeMeters>1406.5999755859375</AltitudeMeters>
            <DistanceMeters>NAN</DistanceMeters>
          </Trackpoint>
          <Trackpoint>
            <Time>2018-12-30T14:00:15.000Z</Time>
            <Position>
              <LatitudeDegrees>40.744136609137058258056640625</LatitudeDegrees>
              <LongitudeDegrees>-4.081267677247524261474609375</LongitudeDegrees>
            </Position>
            <AltitudeMeters>1406.5999755859375</AltitudeMeters>
            <DistanceMeters>NAN</DistanceMeters>
          </Trackpoint>
          <Trackpoint>
            <Time>2018-12-30T14:00:16.000Z</Time>
            <Position>
              <LatitudeDegrees>40.74412227608263492584228515625</LatitudeDegrees>
              <LongitudeDegrees>-4.0812613070011138916015625</LongitudeDegrees>
            </Position>
            <AltitudeMeters>1406.4000244140625</AltitudeMeters>
            <DistanceMeters>NAN</DistanceMeters>
          </Trackpoint>
          <Trackpoint>
            <Time>2018-12-30T14:00:17.000Z</Time>
            <Position>
              <LatitudeDegrees>40.74411054141819477081298828125</LatitudeDegrees>
              <LongitudeDegrees>-4.081255607306957244873046875</LongitudeDegrees>
            </Position>
            <AltitudeMeters>1406.4000244140625</AltitudeMeters>
            <DistanceMeters>NAN</DistanceMeters>
          </Trackpoint>
          <Trackpoint>
            <Time>2018-12-30T14:00:18.000Z</Time>
            <Position>
              <LatitudeDegrees>40.7440941967070102691650390625</LatitudeDegrees>
              <LongitudeDegrees>-4.08126038499176502227783203125</LongitudeDegrees>
            </Position>
            <AltitudeMeters>1406.199951171875</AltitudeMeters>
            <DistanceMeters>NAN</DistanceMeters>
          </Trackpoint>
          <Trackpoint>
            <Time>2018-12-30T14:00:19.000Z</Time>
            <Position>
              <LatitudeDegrees>40.744080282747745513916015625</LatitudeDegrees>
              <LongitudeDegrees>-4.08125686459243297576904296875</LongitudeDegrees>
            </Position>
            <AltitudeMeters>1406.199951171875</AltitudeMeters>
            <DistanceMeters>NAN</DistanceMeters>
          </Trackpoint>
          <Trackpoint>
            <Time>2018-12-30T14:00:20.000Z</Time>
            <Position>
              <LatitudeDegrees>40.74407399632036685943603515625</LatitudeDegrees>
              <LongitudeDegrees>-4.081251919269561767578125</LongitudeDegrees>
            </Position>
            <AltitudeMeters>1406.199951171875</AltitudeMeters>
            <DistanceMeters>NAN</DistanceMeters>
          </Trackpoint>
          <Trackpoint>
            <Time>2018-12-30T14:00:21.000Z</Time>
            <Position>
              <LatitudeDegrees>40.7440650276839733123779296875</LatitudeDegrees>
              <LongitudeDegrees>-4.08124965615570545196533203125</LongitudeDegrees>
            </Position>
            <AltitudeMeters>1406</AltitudeMeters>
            <DistanceMeters>NAN</DistanceMeters>
          </Trackpoint>
          <Trackpoint>
            <Time>2018-12-30T14:00:22.000Z</Time>
            <Position>
              <LatitudeDegrees>40.74405706487596035003662109375</LatitudeDegrees>
              <LongitudeDegrees>-4.08124722540378570556640625</LongitudeDegrees>
            </Position>
            <AltitudeMeters>1406</AltitudeMeters>
            <DistanceMeters>NAN</DistanceMeters>
          </Trackpoint>
          <Trackpoint>
            <Time>2018-12-30T14:00:23.000Z</Time>
            <Position>
              <LatitudeDegrees>40.74404030106961727142333984375</LatitudeDegrees>
              <LongitudeDegrees>-4.081248231232166290283203125</LongitudeDegrees>
            </Position>
            <AltitudeMeters>1405.800048828125</AltitudeMeters>
            <DistanceMeters>NAN</DistanceMeters>
          </Trackpoint>
          <Trackpoint>
            <Time>2018-12-30T14:00:24.000Z</Time>
            <Position>
              <LatitudeDegrees>40.74403225444257259368896484375</LatitudeDegrees>
              <LongitudeDegrees>-4.08124663867056369781494140625</LongitudeDegrees>
            </Position>
            <AltitudeMeters>1405.800048828125</AltitudeMeters>
            <DistanceMeters>NAN</DistanceMeters>
          </Trackpoint>
          <Trackpoint>
            <Time>2018-12-30T14:00:25.000Z</Time>
            <Position>
              <LatitudeDegrees>40.7440197654068470001220703125</LatitudeDegrees>
              <LongitudeDegrees>-4.08124697394669055938720703125</LongitudeDegrees>
            </Position>
            <AltitudeMeters>1405.5999755859375</AltitudeMeters>
            <DistanceMeters>NAN</DistanceMeters>
          </Trackpoint>
          <Trackpoint>
            <Time>2018-12-30T14:00:26.000Z</Time>
            <Position>
              <LatitudeDegrees>40.74401247315108776092529296875</LatitudeDegrees>
              <LongitudeDegrees>-4.081230796873569488525390625</LongitudeDegrees>
            </Position>
            <AltitudeMeters>1405.4000244140625</AltitudeMeters>
            <DistanceMeters>NAN</DistanceMeters>
          </Trackpoint>
          <Trackpoint>
            <Time>2018-12-30T14:00:27.000Z</Time>
            <Position>
              <LatitudeDegrees>40.74400073848664760589599609375</LatitudeDegrees>
              <LongitudeDegrees>-4.0812115184962749481201171875</LongitudeDegrees>
            </Position>
            <AltitudeMeters>1405.199951171875</AltitudeMeters>
            <DistanceMeters>NAN</DistanceMeters>
          </Trackpoint>
          <Trackpoint>
            <Time>2018-12-30T14:00:28.000Z</Time>
            <Position>
              <LatitudeDegrees>40.74399403296411037445068359375</LatitudeDegrees>
              <LongitudeDegrees>-4.08120271749794483184814453125</LongitudeDegrees>
            </Position>
            <AltitudeMeters>1405</AltitudeMeters>
            <DistanceMeters>NAN</DistanceMeters>
          </Trackpoint>
          <Trackpoint>
            <Time>2018-12-30T14:00:29.000Z</Time>
            <Position>
              <LatitudeDegrees>40.74398665688931941986083984375</LatitudeDegrees>
              <LongitudeDegrees>-4.0812022984027862548828125</LongitudeDegrees>
            </Position>
            <AltitudeMeters>1404.5999755859375</AltitudeMeters>
            <DistanceMeters>NAN</DistanceMeters>
          </Trackpoint>
          <Trackpoint>
            <Time>2018-12-30T14:00:30.000Z</Time>
            <Position>
              <LatitudeDegrees>40.74397810734808444976806640625</LatitudeDegrees>
              <LongitudeDegrees>-4.08120137639343738555908203125</LongitudeDegrees>
            </Position>
            <AltitudeMeters>1404.4000244140625</AltitudeMeters>
            <DistanceMeters>NAN</DistanceMeters>
          </Trackpoint>
          <Trackpoint>
            <Time>2018-12-30T14:00:31.000Z</Time>
            <Position>
              <LatitudeDegrees>40.743969976902008056640625</LatitudeDegrees>
              <LongitudeDegrees>-4.08120405860245227813720703125</LongitudeDegrees>
            </Position>
            <AltitudeMeters>1404</AltitudeMeters>
            <DistanceMeters>NAN</DistanceMeters>
          </Trackpoint>
          <Trackpoint>
            <Time>2018-12-30T14:00:32.000Z</Time>
            <Position>
              <LatitudeDegrees>40.74395514093339443206787109375</LatitudeDegrees>
              <LongitudeDegrees>-4.0812004543840885162353515625</LongitudeDegrees>
            </Position>
            <AltitudeMeters>1404</AltitudeMeters>
            <DistanceMeters>NAN</DistanceMeters>
          </Trackpoint>
          <Trackpoint>
            <Time>2018-12-30T14:00:33.000Z</Time>
            <Position>
              <LatitudeDegrees>40.7439453341066837310791015625</LatitudeDegrees>
              <LongitudeDegrees>-4.08119970001280307769775390625</LongitudeDegrees>
            </Position>
            <AltitudeMeters>1404</AltitudeMeters>
            <DistanceMeters>NAN</DistanceMeters>
          </Trackpoint>
          <Trackpoint>
            <Time>2018-12-30T14:00:34.000Z</Time>
            <Position>
              <LatitudeDegrees>40.743936784565448760986328125</LatitudeDegrees>
              <LongitudeDegrees>-4.081197269260883331298828125</LongitudeDegrees>
            </Position>
            <AltitudeMeters>1403.800048828125</AltitudeMeters>
            <DistanceMeters>NAN</DistanceMeters>
          </Trackpoint>
          <Trackpoint>
            <Time>2018-12-30T14:00:35.000Z</Time>
            <Position>
              <LatitudeDegrees>40.743930749595165252685546875</LatitudeDegrees>
              <LongitudeDegrees>-4.081189222633838653564453125</LongitudeDegrees>
            </Position>
            <AltitudeMeters>1403.5999755859375</AltitudeMeters>
            <DistanceMeters>NAN</DistanceMeters>
          </Trackpoint>
          <Trackpoint>
            <Time>2018-12-30T14:00:36.000Z</Time>
            <Position>
              <LatitudeDegrees>40.74391641654074192047119140625</LatitudeDegrees>
              <LongitudeDegrees>-4.0811860375106334686279296875</LongitudeDegrees>
            </Position>
            <AltitudeMeters>1403.4000244140625</AltitudeMeters>
            <DistanceMeters>NAN</DistanceMeters>
          </Trackpoint>
          <Trackpoint>
            <Time>2018-12-30T14:00:37.000Z</Time>
            <Position>
              <LatitudeDegrees>40.7439034245908260345458984375</LatitudeDegrees>
              <LongitudeDegrees>-4.08117840997874736785888671875</LongitudeDegrees>
            </Position>
            <AltitudeMeters>1403.4000244140625</AltitudeMeters>
            <DistanceMeters>NAN</DistanceMeters>
          </Trackpoint>
          <Trackpoint>
            <Time>2018-12-30T14:00:38.000Z</Time>
            <Position>
              <LatitudeDegrees>40.74389747343957424163818359375</LatitudeDegrees>
              <LongitudeDegrees>-4.08117924816906452178955078125</LongitudeDegrees>
            </Position>
            <AltitudeMeters>1403.199951171875</AltitudeMeters>
            <DistanceMeters>NAN</DistanceMeters>
          </Trackpoint>
          <Trackpoint>
            <Time>2018-12-30T14:00:39.000Z</Time>
            <Position>
              <LatitudeDegrees>40.743883810937404632568359375</LatitudeDegrees>
              <LongitudeDegrees>-4.08117748796939849853515625</LongitudeDegrees>
            </Position>
            <AltitudeMeters>1403.199951171875</AltitudeMeters>
            <DistanceMeters>NAN</DistanceMeters>
          </Trackpoint>
          <Trackpoint>
            <Time>2018-12-30T14:00:40.000Z</Time>
            <Position>
              <LatitudeDegrees>40.743877105414867401123046875</LatitudeDegrees>
              <LongitudeDegrees>-4.08115804195404052734375</LongitudeDegrees>
            </Position>
            <AltitudeMeters>1403</AltitudeMeters>
            <DistanceMeters>NAN</DistanceMeters>
          </Trackpoint>
          <Trackpoint>
            <Time>2018-12-30T14:00:41.000Z</Time>
            <Position>
              <LatitudeDegrees>40.74387232773005962371826171875</LatitudeDegrees>
              <LongitudeDegrees>-4.08114655874669551849365234375</LongitudeDegrees>
            </Position>
            <AltitudeMeters>1402.800048828125</AltitudeMeters>
            <DistanceMeters>NAN</DistanceMeters>
          </Trackpoint>
          <Trackpoint>
            <Time>2018-12-30T14:00:42.000Z</Time>
            <Position>
              <LatitudeDegrees>40.743862353265285491943359375</LatitudeDegrees>
              <LongitudeDegrees>-4.0811417810618877410888671875</LongitudeDegrees>
            </Position>
            <AltitudeMeters>1402.5999755859375</AltitudeMeters>
            <DistanceMeters>NAN</DistanceMeters>
          </Trackpoint>
          <Trackpoint>
            <Time>2018-12-30T14:00:43.000Z</Time>
            <Position>
              <LatitudeDegrees>40.74384860694408416748046875</LatitudeDegrees>
              <LongitudeDegrees>-4.08114052377641201019287109375</LongitudeDegrees>
            </Position>
            <AltitudeMeters>1402.4000244140625</AltitudeMeters>
            <DistanceMeters>NAN</DistanceMeters>
          </Trackpoint>
          <Trackpoint>
            <Time>2018-12-30T14:00:44.000Z</Time>
            <Position>
              <LatitudeDegrees>40.74383662082254886627197265625</LatitudeDegrees>
              <LongitudeDegrees>-4.0811323933303356170654296875</LongitudeDegrees>
            </Position>
            <AltitudeMeters>1402.199951171875</AltitudeMeters>
            <DistanceMeters>NAN</DistanceMeters>
          </Trackpoint>
          <Trackpoint>
            <Time>2018-12-30T14:00:45.000Z</Time>
            <Position>
              <LatitudeDegrees>40.74382312595844268798828125</LatitudeDegrees>
              <LongitudeDegrees>-4.08112786710262298583984375</LongitudeDegrees>
            </Position>
            <AltitudeMeters>1402.199951171875</AltitudeMeters>
            <DistanceMeters>NAN</DistanceMeters>
          </Trackpoint>
          <Trackpoint>
            <Time>2018-12-30T14:00:46.000Z</Time>
            <Position>
              <LatitudeDegrees>40.7438130676746368408203125</LatitudeDegrees>
              <LongitudeDegrees>-4.08112493343651294708251953125</LongitudeDegrees>
            </Position>
            <AltitudeMeters>1402</AltitudeMeters>
            <DistanceMeters>NAN</DistanceMeters>
          </Trackpoint>
          <Trackpoint>
            <Time>2018-12-30T14:00:47.000Z</Time>
            <Position>
              <LatitudeDegrees>40.74380141682922840118408203125</LatitudeDegrees>
              <LongitudeDegrees>-4.08112040720880031585693359375</LongitudeDegrees>
            </Position>
            <AltitudeMeters>1401.5999755859375</AltitudeMeters>
            <DistanceMeters>NAN</DistanceMeters>
          </Trackpoint>
          <Trackpoint>
            <Time>2018-12-30T14:00:48.000Z</Time>
            <Position>
              <LatitudeDegrees>40.74379571713507175445556640625</LatitudeDegrees>
              <LongitudeDegrees>-4.0811149589717388153076171875</LongitudeDegrees>
            </Position>
            <AltitudeMeters>1401.4000244140625</AltitudeMeters>
            <DistanceMeters>NAN</DistanceMeters>
          </Trackpoint>
          <Trackpoint>
            <Time>2018-12-30T14:00:49.000Z</Time>
            <Position>
              <LatitudeDegrees>40.7437889277935028076171875</LatitudeDegrees>
              <LongitudeDegrees>-4.08111034892499446868896484375</LongitudeDegrees>
            </Position>
            <AltitudeMeters>1401.199951171875</AltitudeMeters>
            <DistanceMeters>NAN</DistanceMeters>
          </Trackpoint>
          <Trackpoint>
            <Time>2018-12-30T14:00:50.000Z</Time>
            <Position>
              <LatitudeDegrees>40.743778534233570098876953125</LatitudeDegrees>
              <LongitudeDegrees>-4.081110768020153045654296875</LongitudeDegrees>
            </Position>
            <AltitudeMeters>1401.199951171875</AltitudeMeters>
            <DistanceMeters>NAN</DistanceMeters>
          </Trackpoint>
          <Trackpoint>
            <Time>2018-12-30T14:00:51.000Z</Time>
            <Position>
              <LatitudeDegrees>40.74376805685460567474365234375</LatitudeDegrees>
              <LongitudeDegrees>-4.08110506832599639892578125</LongitudeDegrees>
            </Position>
            <AltitudeMeters>1401</AltitudeMeters>
            <DistanceMeters>NAN</DistanceMeters>
          </Trackpoint>
          <Trackpoint>
            <Time>2018-12-30T14:00:52.000Z</Time>
            <Position>
              <LatitudeDegrees>40.743755735456943511962890625</LatitudeDegrees>
              <LongitudeDegrees>-4.081102721393108367919921875</LongitudeDegrees>
            </Position>
            <AltitudeMeters>1401</AltitudeMeters>
            <DistanceMeters>NAN</DistanceMeters>
          </Trackpoint>
          <Trackpoint>
            <Time>2018-12-30T14:00:53.000Z</Time>
            <Position>
              <LatitudeDegrees>40.74374157004058361053466796875</LatitudeDegrees>
              <LongitudeDegrees>-4.08110012300312519073486328125</LongitudeDegrees>
            </Position>
            <AltitudeMeters>1401</AltitudeMeters>
            <DistanceMeters>NAN</DistanceMeters>
          </Trackpoint>
          <Trackpoint>
            <Time>2018-12-30T14:00:54.000Z</Time>
            <Position>
              <LatitudeDegrees>40.743730254471302032470703125</LatitudeDegrees>
              <LongitudeDegrees>-4.081098698079586029052734375</LongitudeDegrees>
            </Position>
            <AltitudeMeters>1400.800048828125</AltitudeMeters>
            <DistanceMeters>NAN</DistanceMeters>
          </Trackpoint>
          <Trackpoint>
            <Time>2018-12-30T14:00:55.000Z</Time>
            <Position>
              <LatitudeDegrees>40.74371944181621074676513671875</LatitudeDegrees>
              <LongitudeDegrees>-4.08109861426055431365966796875</LongitudeDegrees>
            </Position>
            <AltitudeMeters>1400.800048828125</AltitudeMeters>
            <DistanceMeters>NAN</DistanceMeters>
          </Trackpoint>
          <Trackpoint>
            <Time>2018-12-30T14:00:56.000Z</Time>
            <Position>
              <LatitudeDegrees>40.74371458031237125396728515625</LatitudeDegrees>
              <LongitudeDegrees>-4.08109308220446109771728515625</LongitudeDegrees>
            </Position>
            <AltitudeMeters>1400.5999755859375</AltitudeMeters>
            <DistanceMeters>NAN</DistanceMeters>
          </Trackpoint>
          <Trackpoint>
            <Time>2018-12-30T14:00:57.000Z</Time>
            <Position>
              <LatitudeDegrees>40.7437109760940074920654296875</LatitudeDegrees>
              <LongitudeDegrees>-4.08108905889093875885009765625</LongitudeDegrees>
            </Position>
            <AltitudeMeters>1400.4000244140625</AltitudeMeters>
            <DistanceMeters>NAN</DistanceMeters>
          </Trackpoint>
          <Trackpoint>
            <Time>2018-12-30T14:00:58.000Z</Time>
            <Position>
              <LatitudeDegrees>40.74370468966662883758544921875</LatitudeDegrees>
              <LongitudeDegrees>-4.08108361065387725830078125</LongitudeDegrees>
            </Position>
            <AltitudeMeters>1400.199951171875</AltitudeMeters>
            <DistanceMeters>NAN</DistanceMeters>
          </Trackpoint>
          <Trackpoint>
            <Time>2018-12-30T14:00:59.000Z</Time>
            <Position>
              <LatitudeDegrees>40.74369463138282299041748046875</LatitudeDegrees>
              <LongitudeDegrees>-4.08107757568359375</LongitudeDegrees>
            </Position>
            <AltitudeMeters>1399.800048828125</AltitudeMeters>
            <DistanceMeters>NAN</DistanceMeters>
          </Trackpoint>
          <Trackpoint>
            <Time>2018-12-30T14:01:00.000Z</Time>
            <Position>
              <LatitudeDegrees>40.74368457309901714324951171875</LatitudeDegrees>
              <LongitudeDegrees>-4.08106994815170764923095703125</LongitudeDegrees>
            </Position>
            <AltitudeMeters>1399.4000244140625</AltitudeMeters>
            <DistanceMeters>NAN</DistanceMeters>
          </Trackpoint>
          <Trackpoint>
            <Time>2018-12-30T14:01:01.000Z</Time>
            <Position>
              <LatitudeDegrees>40.7436791248619556427001953125</LatitudeDegrees>
              <LongitudeDegrees>-4.08106626011431217193603515625</LongitudeDegrees>
            </Position>
            <AltitudeMeters>1399.199951171875</AltitudeMeters>
            <DistanceMeters>NAN</DistanceMeters>
          </Trackpoint>
          <Trackpoint>
            <Time>2018-12-30T14:01:02.000Z</Time>
            <Position>
              <LatitudeDegrees>40.7436680607497692108154296875</LatitudeDegrees>
              <LongitudeDegrees>-4.08105905167758464813232421875</LongitudeDegrees>
            </Position>
            <AltitudeMeters>1399</AltitudeMeters>
            <DistanceMeters>NAN</DistanceMeters>
          </Trackpoint>
          <Trackpoint>
            <Time>2018-12-30T14:01:03.000Z</Time>
            <Position>
              <LatitudeDegrees>40.743655152618885040283203125</LatitudeDegrees>
              <LongitudeDegrees>-4.08105050213634967803955078125</LongitudeDegrees>
            </Position>
            <AltitudeMeters>1399</AltitudeMeters>
            <DistanceMeters>NAN</DistanceMeters>
          </Trackpoint>
          <Trackpoint>
            <Time>2018-12-30T14:01:04.000Z</Time>
            <Position>
              <LatitudeDegrees>40.74364283122122287750244140625</LatitudeDegrees>
              <LongitudeDegrees>-4.08103977330029010772705078125</LongitudeDegrees>
            </Position>
            <AltitudeMeters>1399</AltitudeMeters>
            <DistanceMeters>NAN</DistanceMeters>
          </Trackpoint>
          <Trackpoint>
            <Time>2018-12-30T14:01:05.000Z</Time>
            <Position>
              <LatitudeDegrees>40.7436419092118740081787109375</LatitudeDegrees>
              <LongitudeDegrees>-4.08102921210229396820068359375</LongitudeDegrees>
            </Position>
            <AltitudeMeters>1398.800048828125</AltitudeMeters>
            <DistanceMeters>NAN</DistanceMeters>
          </Trackpoint>
          <Trackpoint>
            <Time>2018-12-30T14:01:06.000Z</Time>
            <Position>
              <LatitudeDegrees>40.74363679625093936920166015625</LatitudeDegrees>
              <LongitudeDegrees>-4.081022255122661590576171875</LongitudeDegrees>
            </Position>
            <AltitudeMeters>1398.800048828125</AltitudeMeters>
            <DistanceMeters>NAN</DistanceMeters>
          </Trackpoint>
          <Trackpoint>
            <Time>2018-12-30T14:01:07.000Z</Time>
            <Position>
              <LatitudeDegrees>40.74362740851938724517822265625</LatitudeDegrees>
              <LongitudeDegrees>-4.081016220152378082275390625</LongitudeDegrees>
            </Position>
            <AltitudeMeters>1398.5999755859375</AltitudeMeters>
            <DistanceMeters>NAN</DistanceMeters>
          </Trackpoint>
          <Trackpoint>
            <Time>2018-12-30T14:01:08.000Z</Time>
            <Position>
              <LatitudeDegrees>40.7436261512339115142822265625</LatitudeDegrees>
              <LongitudeDegrees>-4.081012867391109466552734375</LongitudeDegrees>
            </Position>
            <AltitudeMeters>1398.4000244140625</AltitudeMeters>
            <DistanceMeters>NAN</DistanceMeters>
          </Trackpoint>
          <Trackpoint>
            <Time>2018-12-30T14:01:09.000Z</Time>
            <Position>
              <LatitudeDegrees>40.74361768551170825958251953125</LatitudeDegrees>
              <LongitudeDegrees>-4.08101647160947322845458984375</LongitudeDegrees>
            </Position>
            <AltitudeMeters>1398.199951171875</AltitudeMeters>
            <DistanceMeters>NAN</DistanceMeters>
          </Trackpoint>
          <Trackpoint>
            <Time>2018-12-30T14:01:10.000Z</Time>
            <Position>
              <LatitudeDegrees>40.74360125698149204254150390625</LatitudeDegrees>
              <LongitudeDegrees>-4.0810271166265010833740234375</LongitudeDegrees>
            </Position>
            <AltitudeMeters>1398.199951171875</AltitudeMeters>
            <DistanceMeters>NAN</DistanceMeters>
          </Trackpoint>
          <Trackpoint>
            <Time>2018-12-30T14:01:11.000Z</Time>
            <Position>
              <LatitudeDegrees>40.74359186924993991851806640625</LatitudeDegrees>
              <LongitudeDegrees>-4.08103466033935546875</LongitudeDegrees>
            </Position>
            <AltitudeMeters>1398.199951171875</AltitudeMeters>
            <DistanceMeters>NAN</DistanceMeters>
          </Trackpoint>
          <Trackpoint>
            <Time>2018-12-30T14:01:12.000Z</Time>
            <Position>
              <LatitudeDegrees>40.74358885176479816436767578125</LatitudeDegrees>
              <LongitudeDegrees>-4.081034995615482330322265625</LongitudeDegrees>
            </Position>
            <AltitudeMeters>1398.199951171875</AltitudeMeters>
            <DistanceMeters>NAN</DistanceMeters>
          </Trackpoint>
          <Trackpoint>
            <Time>2018-12-30T14:01:13.000Z</Time>
            <Position>
              <LatitudeDegrees>40.7435818947851657867431640625</LatitudeDegrees>
              <LongitudeDegrees>-4.0810324810445308685302734375</LongitudeDegrees>
            </Position>
            <AltitudeMeters>1398</AltitudeMeters>
            <DistanceMeters>NAN</DistanceMeters>
          </Trackpoint>
          <Trackpoint>
            <Time>2018-12-30T14:01:14.000Z</Time>
            <Position>
              <LatitudeDegrees>40.74356538243591785430908203125</LatitudeDegrees>
              <LongitudeDegrees>-4.0810237638652324676513671875</LongitudeDegrees>
            </Position>
            <AltitudeMeters>1397.800048828125</AltitudeMeters>
            <DistanceMeters>NAN</DistanceMeters>
          </Trackpoint>
          <Trackpoint>
            <Time>2018-12-30T14:01:15.000Z</Time>
            <Position>
              <LatitudeDegrees>40.74355431832373142242431640625</LatitudeDegrees>
              <LongitudeDegrees>-4.0810147114098072052001953125</LongitudeDegrees>
            </Position>
            <AltitudeMeters>1397.5999755859375</AltitudeMeters>
            <DistanceMeters>NAN</DistanceMeters>
          </Trackpoint>
          <Trackpoint>
            <Time>2018-12-30T14:01:16.000Z</Time>
            <Position>
              <LatitudeDegrees>40.74354979209601879119873046875</LatitudeDegrees>
              <LongitudeDegrees>-4.081005156040191650390625</LongitudeDegrees>
            </Position>
            <AltitudeMeters>1397.199951171875</AltitudeMeters>
            <DistanceMeters>NAN</DistanceMeters>
          </Trackpoint>
          <Trackpoint>
            <Time>2018-12-30T14:01:17.000Z</Time>
            <Position>
              <LatitudeDegrees>40.7435413263738155364990234375</LatitudeDegrees>
              <LongitudeDegrees>-4.0809979476034641265869140625</LongitudeDegrees>
            </Position>
            <AltitudeMeters>1396.800048828125</AltitudeMeters>
            <DistanceMeters>NAN</DistanceMeters>
          </Trackpoint>
          <Trackpoint>
            <Time>2018-12-30T14:01:18.000Z</Time>
            <Position>
              <LatitudeDegrees>40.74352883733808994293212890625</LatitudeDegrees>
              <LongitudeDegrees>-4.0809949301183223724365234375</LongitudeDegrees>
            </Position>
            <AltitudeMeters>1396.5999755859375</AltitudeMeters>
            <DistanceMeters>NAN</DistanceMeters>
          </Trackpoint>
          <Trackpoint>
            <Time>2018-12-30T14:01:19.000Z</Time>
            <Position>
              <LatitudeDegrees>40.74352347292006015777587890625</LatitudeDegrees>
              <LongitudeDegrees>-4.0809877216815948486328125</LongitudeDegrees>
            </Position>
            <AltitudeMeters>1396.5999755859375</AltitudeMeters>
            <DistanceMeters>NAN</DistanceMeters>
          </Trackpoint>
          <Trackpoint>
            <Time>2018-12-30T14:01:20.000Z</Time>
            <Position>
              <LatitudeDegrees>40.74351626448333263397216796875</LatitudeDegrees>
              <LongitudeDegrees>-4.080984704196453094482421875</LongitudeDegrees>
            </Position>
            <AltitudeMeters>1396.4000244140625</AltitudeMeters>
            <DistanceMeters>NAN</DistanceMeters>
          </Trackpoint>
          <Trackpoint>
            <Time>2018-12-30T14:01:21.000Z</Time>
            <Position>
              <LatitudeDegrees>40.74351643212139606475830078125</LatitudeDegrees>
              <LongitudeDegrees>-4.08098026178777217864990234375</LongitudeDegrees>
            </Position>
            <AltitudeMeters>1396.4000244140625</AltitudeMeters>
            <DistanceMeters>NAN</DistanceMeters>
          </Trackpoint>
          <Trackpoint>
            <Time>2018-12-30T14:01:22.000Z</Time>
            <Position>
              <LatitudeDegrees>40.7435248978435993194580078125</LatitudeDegrees>
              <LongitudeDegrees>-4.080974645912647247314453125</LongitudeDegrees>
            </Position>
            <AltitudeMeters>1396</AltitudeMeters>
            <DistanceMeters>NAN</DistanceMeters>
          </Trackpoint>
          <Trackpoint>
            <Time>2018-12-30T14:01:23.000Z</Time>
            <Position>
              <LatitudeDegrees>40.74352129362523555755615234375</LatitudeDegrees>
              <LongitudeDegrees>-4.0809677727520465850830078125</LongitudeDegrees>
            </Position>
            <AltitudeMeters>1395.800048828125</AltitudeMeters>
            <DistanceMeters>NAN</DistanceMeters>
          </Trackpoint>
          <Trackpoint>
            <Time>2018-12-30T14:01:24.000Z</Time>
            <Position>
              <LatitudeDegrees>40.74351928196847438812255859375</LatitudeDegrees>
              <LongitudeDegrees>-4.0809580497443675994873046875</LongitudeDegrees>
            </Position>
            <AltitudeMeters>1395.4000244140625</AltitudeMeters>
            <DistanceMeters>NAN</DistanceMeters>
          </Trackpoint>
          <Trackpoint>
            <Time>2018-12-30T14:01:25.000Z</Time>
            <Position>
              <LatitudeDegrees>40.74351643212139606475830078125</LatitudeDegrees>
              <LongitudeDegrees>-4.08094841055572032928466796875</LongitudeDegrees>
            </Position>
            <AltitudeMeters>1395.4000244140625</AltitudeMeters>
            <DistanceMeters>NAN</DistanceMeters>
          </Trackpoint>
          <Trackpoint>
            <Time>2018-12-30T14:01:26.000Z</Time>
            <Position>
              <LatitudeDegrees>40.74351559393107891082763671875</LatitudeDegrees>
              <LongitudeDegrees>-4.0809409506618976593017578125</LongitudeDegrees>
            </Position>
            <AltitudeMeters>1395.199951171875</AltitudeMeters>
            <DistanceMeters>NAN</DistanceMeters>
          </Trackpoint>
          <Trackpoint>
            <Time>2018-12-30T14:01:27.000Z</Time>
            <Position>
              <LatitudeDegrees>40.74351601302623748779296875</LatitudeDegrees>
              <LongitudeDegrees>-4.08093751408159732818603515625</LongitudeDegrees>
            </Position>
            <AltitudeMeters>1395.199951171875</AltitudeMeters>
            <DistanceMeters>NAN</DistanceMeters>
          </Trackpoint>
          <Trackpoint>
            <Time>2018-12-30T14:01:28.000Z</Time>
            <Position>
              <LatitudeDegrees>40.74351408518850803375244140625</LatitudeDegrees>
              <LongitudeDegrees>-4.08092997036874294281005859375</LongitudeDegrees>
            </Position>
            <AltitudeMeters>1395.199951171875</AltitudeMeters>
            <DistanceMeters>NAN</DistanceMeters>
          </Trackpoint>
          <Trackpoint>
            <Time>2018-12-30T14:01:29.000Z</Time>
            <Position>
              <LatitudeDegrees>40.7435047812759876251220703125</LatitudeDegrees>
              <LongitudeDegrees>-4.080930054187774658203125</LongitudeDegrees>
            </Position>
            <AltitudeMeters>1395.199951171875</AltitudeMeters>
            <DistanceMeters>NAN</DistanceMeters>
          </Trackpoint>
          <Trackpoint>
            <Time>2018-12-30T14:01:30.000Z</Time>
            <Position>
              <LatitudeDegrees>40.7434953935444355010986328125</LatitudeDegrees>
              <LongitudeDegrees>-4.08093399368226528167724609375</LongitudeDegrees>
            </Position>
            <AltitudeMeters>1395.199951171875</AltitudeMeters>
            <DistanceMeters>NAN</DistanceMeters>
          </Trackpoint>
          <Trackpoint>
            <Time>2018-12-30T14:01:31.000Z</Time>
            <Position>
              <LatitudeDegrees>40.74349178932607173919677734375</LatitudeDegrees>
              <LongitudeDegrees>-4.080931060016155242919921875</LongitudeDegrees>
            </Position>
            <AltitudeMeters>1395.199951171875</AltitudeMeters>
            <DistanceMeters>NAN</DistanceMeters>
          </Trackpoint>
          <Trackpoint>
            <Time>2018-12-30T14:01:32.000Z</Time>
            <Position>
              <LatitudeDegrees>40.74350184760987758636474609375</LatitudeDegrees>
              <LongitudeDegrees>-4.080933742225170135498046875</LongitudeDegrees>
            </Position>
            <AltitudeMeters>1395.4000244140625</AltitudeMeters>
            <DistanceMeters>NAN</DistanceMeters>
          </Trackpoint>
          <Trackpoint>
            <Time>2018-12-30T14:01:33.000Z</Time>
            <Position>
              <LatitudeDegrees>40.74350302107632160186767578125</LatitudeDegrees>
              <LongitudeDegrees>-4.08094011247158050537109375</LongitudeDegrees>
            </Position>
            <AltitudeMeters>1395.4000244140625</AltitudeMeters>
            <DistanceMeters>NAN</DistanceMeters>
          </Trackpoint>
          <Trackpoint>
            <Time>2018-12-30T14:01:34.000Z</Time>
            <Position>
              <LatitudeDegrees>40.74350385926663875579833984375</LatitudeDegrees>
              <LongitudeDegrees>-4.0809421241283416748046875</LongitudeDegrees>
            </Position>
            <AltitudeMeters>1395.4000244140625</AltitudeMeters>
            <DistanceMeters>NAN</DistanceMeters>
          </Trackpoint>
          <Trackpoint>
            <Time>2018-12-30T14:01:35.000Z</Time>
            <Position>
              <LatitudeDegrees>40.7435017637908458709716796875</LatitudeDegrees>
              <LongitudeDegrees>-4.0809456445276737213134765625</LongitudeDegrees>
            </Position>
            <AltitudeMeters>1395.4000244140625</AltitudeMeters>
            <DistanceMeters>NAN</DistanceMeters>
          </Trackpoint>
          <Trackpoint>
            <Time>2018-12-30T14:01:36.000Z</Time>
            <Position>
              <LatitudeDegrees>40.74350117705762386322021484375</LatitudeDegrees>
              <LongitudeDegrees>-4.0809483267366886138916015625</LongitudeDegrees>
            </Position>
            <AltitudeMeters>1395.4000244140625</AltitudeMeters>
            <DistanceMeters>NAN</DistanceMeters>
          </Trackpoint>
          <Trackpoint>
            <Time>2018-12-30T14:01:37.000Z</Time>
            <Position>
              <LatitudeDegrees>40.7434965670108795166015625</LatitudeDegrees>
              <LongitudeDegrees>-4.08096316270530223846435546875</LongitudeDegrees>
            </Position>
            <AltitudeMeters>1395.4000244140625</AltitudeMeters>
            <DistanceMeters>NAN</DistanceMeters>
          </Trackpoint>
          <Trackpoint>
            <Time>2018-12-30T14:01:38.000Z</Time>
            <Position>
              <LatitudeDegrees>40.7434938848018646240234375</LatitudeDegrees>
              <LongitudeDegrees>-4.08097104169428348541259765625</LongitudeDegrees>
            </Position>
            <AltitudeMeters>1395.199951171875</AltitudeMeters>
            <DistanceMeters>NAN</DistanceMeters>
          </Trackpoint>
          <Trackpoint>
            <Time>2018-12-30T14:01:39.000Z</Time>
            <Position>
              <LatitudeDegrees>40.74348474852740764617919921875</LatitudeDegrees>
              <LongitudeDegrees>-4.08097741194069385528564453125</LongitudeDegrees>
            </Position>
            <AltitudeMeters>1395.199951171875</AltitudeMeters>
            <DistanceMeters>NAN</DistanceMeters>
          </Trackpoint>
          <Trackpoint>
            <Time>2018-12-30T14:01:40.000Z</Time>
            <Position>
              <LatitudeDegrees>40.7434803061187267303466796875</LatitudeDegrees>
              <LongitudeDegrees>-4.08098026178777217864990234375</LongitudeDegrees>
            </Position>
            <AltitudeMeters>1395.199951171875</AltitudeMeters>
            <DistanceMeters>NAN</DistanceMeters>
          </Trackpoint>
          <Trackpoint>
            <Time>2018-12-30T14:01:41.000Z</Time>
            <Position>
              <LatitudeDegrees>40.743477456271648406982421875</LatitudeDegrees>
              <LongitudeDegrees>-4.08098327927291393280029296875</LongitudeDegrees>
            </Position>
            <AltitudeMeters>1395.199951171875</AltitudeMeters>
            <DistanceMeters>NAN</DistanceMeters>
          </Trackpoint>
          <Trackpoint>
            <Time>2018-12-30T14:01:42.000Z</Time>
            <Position>
              <LatitudeDegrees>40.7434786297380924224853515625</LatitudeDegrees>
              <LongitudeDegrees>-4.0809831954538822174072265625</LongitudeDegrees>
            </Position>
            <AltitudeMeters>1395.199951171875</AltitudeMeters>
            <DistanceMeters>NAN</DistanceMeters>
          </Trackpoint>
          <Trackpoint>
            <Time>2018-12-30T14:01:43.000Z</Time>
            <Position>
              <LatitudeDegrees>40.743476115167140960693359375</LatitudeDegrees>
              <LongitudeDegrees>-4.08097556792199611663818359375</LongitudeDegrees>
            </Position>
            <AltitudeMeters>1395.199951171875</AltitudeMeters>
            <DistanceMeters>NAN</DistanceMeters>
          </Trackpoint>
          <Trackpoint>
            <Time>2018-12-30T14:01:44.000Z</Time>
            <Position>
              <LatitudeDegrees>40.7434746064245700836181640625</LatitudeDegrees>
              <LongitudeDegrees>-4.08097003586590290069580078125</LongitudeDegrees>
            </Position>
            <AltitudeMeters>1395.199951171875</AltitudeMeters>
            <DistanceMeters>NAN</DistanceMeters>
          </Trackpoint>
          <Trackpoint>
            <Time>2018-12-30T14:01:45.000Z</Time>
            <Position>
              <LatitudeDegrees>40.74347469024360179901123046875</LatitudeDegrees>
              <LongitudeDegrees>-4.08096081577241420745849609375</LongitudeDegrees>
            </Position>
            <AltitudeMeters>1395.199951171875</AltitudeMeters>
            <DistanceMeters>NAN</DistanceMeters>
          </Trackpoint>
          <Trackpoint>
            <Time>2018-12-30T14:01:46.000Z</Time>
            <Position>
              <LatitudeDegrees>40.74347636662423610687255859375</LatitudeDegrees>
              <LongitudeDegrees>-4.08095360733568668365478515625</LongitudeDegrees>
            </Position>
            <AltitudeMeters>1395</AltitudeMeters>
            <DistanceMeters>NAN</DistanceMeters>
          </Trackpoint>
          <Trackpoint>
            <Time>2018-12-30T14:01:47.000Z</Time>
            <Position>
              <LatitudeDegrees>40.74347938410937786102294921875</LatitudeDegrees>
              <LongitudeDegrees>-4.08094589598476886749267578125</LongitudeDegrees>
            </Position>
            <AltitudeMeters>1395</AltitudeMeters>
            <DistanceMeters>NAN</DistanceMeters>
          </Trackpoint>
          <Trackpoint>
            <Time>2018-12-30T14:01:48.000Z</Time>
            <Position>
              <LatitudeDegrees>40.7434860058128833770751953125</LatitudeDegrees>
              <LongitudeDegrees>-4.08094371668994426727294921875</LongitudeDegrees>
            </Position>
            <AltitudeMeters>1395</AltitudeMeters>
            <DistanceMeters>NAN</DistanceMeters>
          </Trackpoint>
          <Trackpoint>
            <Time>2018-12-30T14:01:49.000Z</Time>
            <Position>
              <LatitudeDegrees>40.74348391033709049224853515625</LatitudeDegrees>
              <LongitudeDegrees>-4.08093315549194812774658203125</LongitudeDegrees>
            </Position>
            <AltitudeMeters>1395</AltitudeMeters>
            <DistanceMeters>NAN</DistanceMeters>
          </Trackpoint>
          <Trackpoint>
            <Time>2018-12-30T14:01:50.000Z</Time>
            <Position>
              <LatitudeDegrees>40.74349095113575458526611328125</LatitudeDegrees>
              <LongitudeDegrees>-4.08092007972300052642822265625</LongitudeDegrees>
            </Position>
            <AltitudeMeters>1395</AltitudeMeters>
            <DistanceMeters>NAN</DistanceMeters>
          </Trackpoint>
          <Trackpoint>
            <Time>2018-12-30T14:01:51.000Z</Time>
            <Position>
              <LatitudeDegrees>40.7434953935444355010986328125</LatitudeDegrees>
              <LongitudeDegrees>-4.08090918324887752532958984375</LongitudeDegrees>
            </Position>
            <AltitudeMeters>1395.199951171875</AltitudeMeters>
            <DistanceMeters>NAN</DistanceMeters>
          </Trackpoint>
          <Trackpoint>
            <Time>2018-12-30T14:01:52.000Z</Time>
            <Position>
              <LatitudeDegrees>40.7435020990669727325439453125</LatitudeDegrees>
              <LongitudeDegrees>-4.08090499229729175567626953125</LongitudeDegrees>
            </Position>
            <AltitudeMeters>1395.199951171875</AltitudeMeters>
            <DistanceMeters>NAN</DistanceMeters>
          </Trackpoint>
          <Trackpoint>
            <Time>2018-12-30T14:01:53.000Z</Time>
            <Position>
              <LatitudeDegrees>40.74350218288600444793701171875</LatitudeDegrees>
              <LongitudeDegrees>-4.08090348355472087860107421875</LongitudeDegrees>
            </Position>
            <AltitudeMeters>1395.199951171875</AltitudeMeters>
            <DistanceMeters>NAN</DistanceMeters>
          </Trackpoint>
          <Trackpoint>
            <Time>2018-12-30T14:01:54.000Z</Time>
            <Position>
              <LatitudeDegrees>40.74350050650537014007568359375</LatitudeDegrees>
              <LongitudeDegrees>-4.08090231008827686309814453125</LongitudeDegrees>
            </Position>
            <AltitudeMeters>1394.800048828125</AltitudeMeters>
            <DistanceMeters>NAN</DistanceMeters>
          </Trackpoint>
          <Trackpoint>
            <Time>2018-12-30T14:01:55.000Z</Time>
            <Position>
              <LatitudeDegrees>40.74349849484860897064208984375</LatitudeDegrees>
              <LongitudeDegrees>-4.0809033997356891632080078125</LongitudeDegrees>
            </Position>
            <AltitudeMeters>1394.5999755859375</AltitudeMeters>
            <DistanceMeters>NAN</DistanceMeters>
          </Trackpoint>
          <Trackpoint>
            <Time>2018-12-30T14:01:56.000Z</Time>
            <Position>
              <LatitudeDegrees>40.7434963993728160858154296875</LatitudeDegrees>
              <LongitudeDegrees>-4.08090348355472087860107421875</LongitudeDegrees>
            </Position>
            <AltitudeMeters>1394.199951171875</AltitudeMeters>
            <DistanceMeters>NAN</DistanceMeters>
          </Trackpoint>
          <Trackpoint>
            <Time>2018-12-30T14:01:57.000Z</Time>
            <Position>
              <LatitudeDegrees>40.74349681846797466278076171875</LatitudeDegrees>
              <LongitudeDegrees>-4.08090348355472087860107421875</LongitudeDegrees>
            </Position>
            <AltitudeMeters>1394</AltitudeMeters>
            <DistanceMeters>NAN</DistanceMeters>
          </Trackpoint>
          <Trackpoint>
            <Time>2018-12-30T14:01:58.000Z</Time>
            <Position>
              <LatitudeDegrees>40.7434957288205623626708984375</LatitudeDegrees>
              <LongitudeDegrees>-4.08090482465922832489013671875</LongitudeDegrees>
            </Position>
            <AltitudeMeters>1393.800048828125</AltitudeMeters>
            <DistanceMeters>NAN</DistanceMeters>
          </Trackpoint>
          <Trackpoint>
            <Time>2018-12-30T14:01:59.000Z</Time>
            <Position>
              <LatitudeDegrees>40.74349078349769115447998046875</LatitudeDegrees>
              <LongitudeDegrees>-4.0809104405343532562255859375</LongitudeDegrees>
            </Position>
            <AltitudeMeters>1393.5999755859375</AltitudeMeters>
            <DistanceMeters>NAN</DistanceMeters>
          </Trackpoint>
          <Trackpoint>
            <Time>2018-12-30T14:02:00.000Z</Time>
            <Position>
              <LatitudeDegrees>40.7434883527457714080810546875</LatitudeDegrees>
              <LongitudeDegrees>-4.08091387711465358734130859375</LongitudeDegrees>
            </Position>
            <AltitudeMeters>1393.4000244140625</AltitudeMeters>
            <DistanceMeters>NAN</DistanceMeters>
          </Trackpoint>
          <Trackpoint>
            <Time>2018-12-30T14:02:01.000Z</Time>
            <Position>
              <LatitudeDegrees>40.74348458088934421539306640625</LatitudeDegrees>
              <LongitudeDegrees>-4.08091153018176555633544921875</LongitudeDegrees>
            </Position>
            <AltitudeMeters>1393</AltitudeMeters>
            <DistanceMeters>NAN</DistanceMeters>
          </Trackpoint>
          <Trackpoint>
            <Time>2018-12-30T14:02:02.000Z</Time>
            <Position>
              <LatitudeDegrees>40.743476450443267822265625</LatitudeDegrees>
              <LongitudeDegrees>-4.08090532757341861724853515625</LongitudeDegrees>
            </Position>
            <AltitudeMeters>1392.800048828125</AltitudeMeters>
            <DistanceMeters>NAN</DistanceMeters>
          </Trackpoint>
          <Trackpoint>
            <Time>2018-12-30T14:02:03.000Z</Time>
            <Position>
              <LatitudeDegrees>40.74346798472106456756591796875</LatitudeDegrees>
              <LongitudeDegrees>-4.0808977000415325164794921875</LongitudeDegrees>
            </Position>
            <AltitudeMeters>1392.5999755859375</AltitudeMeters>
            <DistanceMeters>NAN</DistanceMeters>
          </Trackpoint>
          <Trackpoint>
            <Time>2018-12-30T14:02:04.000Z</Time>
            <Position>
              <LatitudeDegrees>40.74346010573208332061767578125</LatitudeDegrees>
              <LongitudeDegrees>-4.0808899886906147003173828125</LongitudeDegrees>
            </Position>
            <AltitudeMeters>1392.4000244140625</AltitudeMeters>
            <DistanceMeters>NAN</DistanceMeters>
          </Trackpoint>
          <Trackpoint>
            <Time>2018-12-30T14:02:05.000Z</Time>
            <Position>
              <LatitudeDegrees>40.74345205910503864288330078125</LatitudeDegrees>
              <LongitudeDegrees>-4.0808856301009654998779296875</LongitudeDegrees>
            </Position>
            <AltitudeMeters>1392.199951171875</AltitudeMeters>
            <DistanceMeters>NAN</DistanceMeters>
          </Trackpoint>
          <Trackpoint>
            <Time>2018-12-30T14:02:06.000Z</Time>
            <Position>
              <LatitudeDegrees>40.74343177489936351776123046875</LatitudeDegrees>
              <LongitudeDegrees>-4.08088252879679203033447265625</LongitudeDegrees>
            </Position>
            <AltitudeMeters>1392.199951171875</AltitudeMeters>
            <DistanceMeters>NAN</DistanceMeters>
          </Trackpoint>
          <Trackpoint>
            <Time>2018-12-30T14:02:07.000Z</Time>
            <Position>
              <LatitudeDegrees>40.743418447673320770263671875</LatitudeDegrees>
              <LongitudeDegrees>-4.08087649382650852203369140625</LongitudeDegrees>
            </Position>
            <AltitudeMeters>1392.199951171875</AltitudeMeters>
            <DistanceMeters>NAN</DistanceMeters>
          </Trackpoint>
          <Trackpoint>
            <Time>2018-12-30T14:02:08.000Z</Time>
            <Position>
              <LatitudeDegrees>40.7434052042663097381591796875</LatitudeDegrees>
              <LongitudeDegrees>-4.08087247051298618316650390625</LongitudeDegrees>
            </Position>
            <AltitudeMeters>1392.199951171875</AltitudeMeters>
            <DistanceMeters>NAN</DistanceMeters>
          </Trackpoint>
          <Trackpoint>
            <Time>2018-12-30T14:02:09.000Z</Time>
            <Position>
              <LatitudeDegrees>40.7433938048779964447021484375</LatitudeDegrees>
              <LongitudeDegrees>-4.08086861483752727508544921875</LongitudeDegrees>
            </Position>
            <AltitudeMeters>1392.199951171875</AltitudeMeters>
            <DistanceMeters>NAN</DistanceMeters>
          </Trackpoint>
          <Trackpoint>
            <Time>2018-12-30T14:02:10.000Z</Time>
            <Position>
              <LatitudeDegrees>40.74338098056614398956298828125</LatitudeDegrees>
              <LongitudeDegrees>-4.08086526207625865936279296875</LongitudeDegrees>
            </Position>
            <AltitudeMeters>1392</AltitudeMeters>
            <DistanceMeters>NAN</DistanceMeters>
          </Trackpoint>
          <Trackpoint>
            <Time>2018-12-30T14:02:11.000Z</Time>
            <Position>
              <LatitudeDegrees>40.7433679886162281036376953125</LatitudeDegrees>
              <LongitudeDegrees>-4.0808638371527194976806640625</LongitudeDegrees>
            </Position>
            <AltitudeMeters>1391.800048828125</AltitudeMeters>
            <DistanceMeters>NAN</DistanceMeters>
          </Trackpoint>
          <Trackpoint>
            <Time>2018-12-30T14:02:12.000Z</Time>
            <Position>
              <LatitudeDegrees>40.7433549128472805023193359375</LatitudeDegrees>
              <LongitudeDegrees>-4.08086341805756092071533203125</LongitudeDegrees>
            </Position>
            <AltitudeMeters>1391.800048828125</AltitudeMeters>
            <DistanceMeters>NAN</DistanceMeters>
          </Trackpoint>
          <Trackpoint>
            <Time>2018-12-30T14:02:13.000Z</Time>
            <Position>
              <LatitudeDegrees>40.74334342963993549346923828125</LatitudeDegrees>
              <LongitudeDegrees>-4.080864004790782928466796875</LongitudeDegrees>
            </Position>
            <AltitudeMeters>1391.800048828125</AltitudeMeters>
            <DistanceMeters>NAN</DistanceMeters>
          </Trackpoint>
          <Trackpoint>
            <Time>2018-12-30T14:02:14.000Z</Time>
            <Position>
              <LatitudeDegrees>40.74333169497549533843994140625</LatitudeDegrees>
              <LongitudeDegrees>-4.080863334238529205322265625</LongitudeDegrees>
            </Position>
            <AltitudeMeters>1391.800048828125</AltitudeMeters>
            <DistanceMeters>NAN</DistanceMeters>
          </Trackpoint>
          <Trackpoint>
            <Time>2018-12-30T14:02:15.000Z</Time>
            <Position>
              <LatitudeDegrees>40.7433200441300868988037109375</LatitudeDegrees>
              <LongitudeDegrees>-4.0808571316301822662353515625</LongitudeDegrees>
            </Position>
            <AltitudeMeters>1391.800048828125</AltitudeMeters>
            <DistanceMeters>NAN</DistanceMeters>
          </Trackpoint>
          <Trackpoint>
            <Time>2018-12-30T14:02:16.000Z</Time>
            <Position>
              <LatitudeDegrees>40.743315182626247406005859375</LatitudeDegrees>
              <LongitudeDegrees>-4.0808514319360256195068359375</LongitudeDegrees>
            </Position>
            <AltitudeMeters>1391.800048828125</AltitudeMeters>
            <DistanceMeters>NAN</DistanceMeters>
          </Trackpoint>
          <Trackpoint>
            <Time>2018-12-30T14:02:17.000Z</Time>
            <Position>
              <LatitudeDegrees>40.743304789066314697265625</LatitudeDegrees>
              <LongitudeDegrees>-4.0808522701263427734375</LongitudeDegrees>
            </Position>
            <AltitudeMeters>1391.800048828125</AltitudeMeters>
            <DistanceMeters>NAN</DistanceMeters>
          </Trackpoint>
          <Trackpoint>
            <Time>2018-12-30T14:02:18.000Z</Time>
            <Position>
              <LatitudeDegrees>40.74329749681055545806884765625</LatitudeDegrees>
              <LongitudeDegrees>-4.08085084520280361175537109375</LongitudeDegrees>
            </Position>
            <AltitudeMeters>1392</AltitudeMeters>
            <DistanceMeters>NAN</DistanceMeters>
          </Trackpoint>
          <Trackpoint>
            <Time>2018-12-30T14:02:19.000Z</Time>
            <Position>
              <LatitudeDegrees>40.74328877963125705718994140625</LatitudeDegrees>
              <LongitudeDegrees>-4.0808527730405330657958984375</LongitudeDegrees>
            </Position>
            <AltitudeMeters>1391.800048828125</AltitudeMeters>
            <DistanceMeters>NAN</DistanceMeters>
          </Trackpoint>
          <Trackpoint>
            <Time>2018-12-30T14:02:20.000Z</Time>
            <Position>
              <LatitudeDegrees>40.743285007774829864501953125</LatitudeDegrees>
              <LongitudeDegrees>-4.080856628715991973876953125</LongitudeDegrees>
            </Position>
            <AltitudeMeters>1391.800048828125</AltitudeMeters>
            <DistanceMeters>NAN</DistanceMeters>
          </Trackpoint>
          <Trackpoint>
            <Time>2018-12-30T14:02:21.000Z</Time>
            <Position>
              <LatitudeDegrees>40.74328090064227581024169921875</LatitudeDegrees>
              <LongitudeDegrees>-4.080863334238529205322265625</LongitudeDegrees>
            </Position>
            <AltitudeMeters>1391.800048828125</AltitudeMeters>
            <DistanceMeters>NAN</DistanceMeters>
          </Trackpoint>
          <Trackpoint>
            <Time>2018-12-30T14:02:22.000Z</Time>
            <Position>
              <LatitudeDegrees>40.74326849542558193206787109375</LatitudeDegrees>
              <LongitudeDegrees>-4.0808738954365253448486328125</LongitudeDegrees>
            </Position>
            <AltitudeMeters>1391.5999755859375</AltitudeMeters>
            <DistanceMeters>NAN</DistanceMeters>
          </Trackpoint>
          <Trackpoint>
            <Time>2018-12-30T14:02:23.000Z</Time>
            <Position>
              <LatitudeDegrees>40.74325642548501491546630859375</LatitudeDegrees>
              <LongitudeDegrees>-4.0808831155300140380859375</LongitudeDegrees>
            </Position>
            <AltitudeMeters>1391.199951171875</AltitudeMeters>
            <DistanceMeters>NAN</DistanceMeters>
          </Trackpoint>
          <Trackpoint>
            <Time>2018-12-30T14:02:24.000Z</Time>
            <Position>
              <LatitudeDegrees>40.74324955232441425323486328125</LatitudeDegrees>
              <LongitudeDegrees>-4.08088521100580692291259765625</LongitudeDegrees>
            </Position>
            <AltitudeMeters>1390.800048828125</AltitudeMeters>
            <DistanceMeters>NAN</DistanceMeters>
          </Trackpoint>
          <Trackpoint>
            <Time>2018-12-30T14:02:25.000Z</Time>
            <Position>
              <LatitudeDegrees>40.7432409189641475677490234375</LatitudeDegrees>
              <LongitudeDegrees>-4.0808926708996295928955078125</LongitudeDegrees>
            </Position>
            <AltitudeMeters>1390.5999755859375</AltitudeMeters>
            <DistanceMeters>NAN</DistanceMeters>
          </Trackpoint>
          <Trackpoint>
            <Time>2018-12-30T14:02:26.000Z</Time>
            <Position>
              <LatitudeDegrees>40.74323547072708606719970703125</LatitudeDegrees>
              <LongitudeDegrees>-4.08090147189795970916748046875</LongitudeDegrees>
            </Position>
            <AltitudeMeters>1390.4000244140625</AltitudeMeters>
            <DistanceMeters>NAN</DistanceMeters>
          </Trackpoint>
          <Trackpoint>
            <Time>2018-12-30T14:02:27.000Z</Time>
            <Position>
              <LatitudeDegrees>40.74322591535747051239013671875</LatitudeDegrees>
              <LongitudeDegrees>-4.080906920135021209716796875</LongitudeDegrees>
            </Position>
            <AltitudeMeters>1390.4000244140625</AltitudeMeters>
            <DistanceMeters>NAN</DistanceMeters>
          </Trackpoint>
          <Trackpoint>
            <Time>2018-12-30T14:02:28.000Z</Time>
            <Position>
              <LatitudeDegrees>40.7432149350643157958984375</LatitudeDegrees>
              <LongitudeDegrees>-4.08090901561081409454345703125</LongitudeDegrees>
            </Position>
            <AltitudeMeters>1390.199951171875</AltitudeMeters>
            <DistanceMeters>NAN</DistanceMeters>
          </Trackpoint>
          <Trackpoint>
            <Time>2018-12-30T14:02:29.000Z</Time>
            <Position>
              <LatitudeDegrees>40.74320211075246334075927734375</LatitudeDegrees>
              <LongitudeDegrees>-4.080903567373752593994140625</LongitudeDegrees>
            </Position>
            <AltitudeMeters>1390.199951171875</AltitudeMeters>
            <DistanceMeters>NAN</DistanceMeters>
          </Trackpoint>
          <Trackpoint>
            <Time>2018-12-30T14:02:30.000Z</Time>
            <Position>
              <LatitudeDegrees>40.7431876100599765777587890625</LatitudeDegrees>
              <LongitudeDegrees>-4.080896191298961639404296875</LongitudeDegrees>
            </Position>
            <AltitudeMeters>1390</AltitudeMeters>
            <DistanceMeters>NAN</DistanceMeters>
          </Trackpoint>
          <Trackpoint>
            <Time>2018-12-30T14:02:31.000Z</Time>
            <Position>
              <LatitudeDegrees>40.74317797087132930755615234375</LatitudeDegrees>
              <LongitudeDegrees>-4.08089258708059787750244140625</LongitudeDegrees>
            </Position>
            <AltitudeMeters>1390</AltitudeMeters>
            <DistanceMeters>NAN</DistanceMeters>
          </Trackpoint>
          <Trackpoint>
            <Time>2018-12-30T14:02:32.000Z</Time>
            <Position>
              <LatitudeDegrees>40.7431661523878574371337890625</LatitudeDegrees>
              <LongitudeDegrees>-4.0808936767280101776123046875</LongitudeDegrees>
            </Position>
            <AltitudeMeters>1389.800048828125</AltitudeMeters>
            <DistanceMeters>NAN</DistanceMeters>
          </Trackpoint>
          <Trackpoint>
            <Time>2018-12-30T14:02:33.000Z</Time>
            <Position>
              <LatitudeDegrees>40.7431567646563053131103515625</LatitudeDegrees>
              <LongitudeDegrees>-4.080890826880931854248046875</LongitudeDegrees>
            </Position>
            <AltitudeMeters>1389.5999755859375</AltitudeMeters>
            <DistanceMeters>NAN</DistanceMeters>
          </Trackpoint>
          <Trackpoint>
            <Time>2018-12-30T14:02:34.000Z</Time>
            <Position>
              <LatitudeDegrees>40.7431470416486263275146484375</LatitudeDegrees>
              <LongitudeDegrees>-4.080886133015155792236328125</LongitudeDegrees>
            </Position>
            <AltitudeMeters>1389.4000244140625</AltitudeMeters>
            <DistanceMeters>NAN</DistanceMeters>
          </Trackpoint>
          <Trackpoint>
            <Time>2018-12-30T14:02:35.000Z</Time>
            <Position>
              <LatitudeDegrees>40.74313891120254993438720703125</LatitudeDegrees>
              <LongitudeDegrees>-4.0808842889964580535888671875</LongitudeDegrees>
            </Position>
            <AltitudeMeters>1389.4000244140625</AltitudeMeters>
            <DistanceMeters>NAN</DistanceMeters>
          </Trackpoint>
          <Trackpoint>
            <Time>2018-12-30T14:02:36.000Z</Time>
            <Position>
              <LatitudeDegrees>40.7431291043758392333984375</LatitudeDegrees>
              <LongitudeDegrees>-4.08087397925555706024169921875</LongitudeDegrees>
            </Position>
            <AltitudeMeters>1389.199951171875</AltitudeMeters>
            <DistanceMeters>NAN</DistanceMeters>
          </Trackpoint>
          <Trackpoint>
            <Time>2018-12-30T14:02:37.000Z</Time>
            <Position>
              <LatitudeDegrees>40.743118710815906524658203125</LatitudeDegrees>
              <LongitudeDegrees>-4.08086425624787807464599609375</LongitudeDegrees>
            </Position>
            <AltitudeMeters>1389.199951171875</AltitudeMeters>
            <DistanceMeters>NAN</DistanceMeters>
          </Trackpoint>
          <Trackpoint>
            <Time>2018-12-30T14:02:38.000Z</Time>
            <Position>
              <LatitudeDegrees>40.74310890398919582366943359375</LatitudeDegrees>
              <LongitudeDegrees>-4.08085604198276996612548828125</LongitudeDegrees>
            </Position>
            <AltitudeMeters>1389.199951171875</AltitudeMeters>
            <DistanceMeters>NAN</DistanceMeters>
          </Trackpoint>
          <Trackpoint>
            <Time>2018-12-30T14:02:39.000Z</Time>
            <Position>
              <LatitudeDegrees>40.74310169555246829986572265625</LatitudeDegrees>
              <LongitudeDegrees>-4.08084665425121784210205078125</LongitudeDegrees>
            </Position>
            <AltitudeMeters>1389</AltitudeMeters>
            <DistanceMeters>NAN</DistanceMeters>
          </Trackpoint>
          <Trackpoint>
            <Time>2018-12-30T14:02:40.000Z</Time>
            <Position>
              <LatitudeDegrees>40.74308744631707668304443359375</LatitudeDegrees>
              <LongitudeDegrees>-4.08084112219512462615966796875</LongitudeDegrees>
            </Position>
            <AltitudeMeters>1388.5999755859375</AltitudeMeters>
            <DistanceMeters>NAN</DistanceMeters>
          </Trackpoint>
          <Trackpoint>
            <Time>2018-12-30T14:02:41.000Z</Time>
            <Position>
              <LatitudeDegrees>40.74307168833911418914794921875</LatitudeDegrees>
              <LongitudeDegrees>-4.08084145747125148773193359375</LongitudeDegrees>
            </Position>
            <AltitudeMeters>1388.4000244140625</AltitudeMeters>
            <DistanceMeters>NAN</DistanceMeters>
          </Trackpoint>
          <Trackpoint>
            <Time>2018-12-30T14:02:42.000Z</Time>
            <Position>
              <LatitudeDegrees>40.7430620491504669189453125</LatitudeDegrees>
              <LongitudeDegrees>-4.08083223737776279449462890625</LongitudeDegrees>
            </Position>
            <AltitudeMeters>1388.4000244140625</AltitudeMeters>
            <DistanceMeters>NAN</DistanceMeters>
          </Trackpoint>
          <Trackpoint>
            <Time>2018-12-30T14:02:43.000Z</Time>
            <Position>
              <LatitudeDegrees>40.743050314486026763916015625</LatitudeDegrees>
              <LongitudeDegrees>-4.08082536421716213226318359375</LongitudeDegrees>
            </Position>
            <AltitudeMeters>1388.199951171875</AltitudeMeters>
            <DistanceMeters>NAN</DistanceMeters>
          </Trackpoint>
          <Trackpoint>
            <Time>2018-12-30T14:02:44.000Z</Time>
            <Position>
              <LatitudeDegrees>40.74303581379354000091552734375</LatitudeDegrees>
              <LongitudeDegrees>-4.0808192454278469085693359375</LongitudeDegrees>
            </Position>
            <AltitudeMeters>1388.199951171875</AltitudeMeters>
            <DistanceMeters>NAN</DistanceMeters>
          </Trackpoint>
          <Trackpoint>
            <Time>2018-12-30T14:02:45.000Z</Time>
            <Position>
              <LatitudeDegrees>40.74302709661424160003662109375</LatitudeDegrees>
              <LongitudeDegrees>-4.08081765286624431610107421875</LongitudeDegrees>
            </Position>
            <AltitudeMeters>1388.199951171875</AltitudeMeters>
            <DistanceMeters>NAN</DistanceMeters>
          </Trackpoint>
          <Trackpoint>
            <Time>2018-12-30T14:02:46.000Z</Time>
            <Position>
              <LatitudeDegrees>40.74301737360656261444091796875</LatitudeDegrees>
              <LongitudeDegrees>-4.0808162279427051544189453125</LongitudeDegrees>
            </Position>
            <AltitudeMeters>1388.199951171875</AltitudeMeters>
            <DistanceMeters>NAN</DistanceMeters>
          </Trackpoint>
          <Trackpoint>
            <Time>2018-12-30T14:02:47.000Z</Time>
            <Position>
              <LatitudeDegrees>40.74300295673310756683349609375</LatitudeDegrees>
              <LongitudeDegrees>-4.08081949688494205474853515625</LongitudeDegrees>
            </Position>
            <AltitudeMeters>1388.199951171875</AltitudeMeters>
            <DistanceMeters>NAN</DistanceMeters>
          </Trackpoint>
          <Trackpoint>
            <Time>2018-12-30T14:02:48.000Z</Time>
            <Position>
              <LatitudeDegrees>40.74299675412476062774658203125</LatitudeDegrees>
              <LongitudeDegrees>-4.08081647939980030059814453125</LongitudeDegrees>
            </Position>
            <AltitudeMeters>1388.199951171875</AltitudeMeters>
            <DistanceMeters>NAN</DistanceMeters>
          </Trackpoint>
          <Trackpoint>
            <Time>2018-12-30T14:02:49.000Z</Time>
            <Position>
              <LatitudeDegrees>40.74298401363193988800048828125</LatitudeDegrees>
              <LongitudeDegrees>-4.08081765286624431610107421875</LongitudeDegrees>
            </Position>
            <AltitudeMeters>1387.800048828125</AltitudeMeters>
            <DistanceMeters>NAN</DistanceMeters>
          </Trackpoint>
          <Trackpoint>
            <Time>2018-12-30T14:02:50.000Z</Time>
            <Position>
              <LatitudeDegrees>40.742972530424594879150390625</LatitudeDegrees>
              <LongitudeDegrees>-4.08081471920013427734375</LongitudeDegrees>
            </Position>
            <AltitudeMeters>1387.5999755859375</AltitudeMeters>
            <DistanceMeters>NAN</DistanceMeters>
          </Trackpoint>
          <Trackpoint>
            <Time>2018-12-30T14:02:51.000Z</Time>
            <Position>
              <LatitudeDegrees>40.74296305887401103973388671875</LatitudeDegrees>
              <LongitudeDegrees>-4.0808115340769290924072265625</LongitudeDegrees>
            </Position>
            <AltitudeMeters>1387.4000244140625</AltitudeMeters>
            <DistanceMeters>NAN</DistanceMeters>
          </Trackpoint>
          <Trackpoint>
            <Time>2018-12-30T14:02:52.000Z</Time>
            <Position>
              <LatitudeDegrees>40.74295283295214176177978515625</LatitudeDegrees>
              <LongitudeDegrees>-4.080811031162738800048828125</LongitudeDegrees>
            </Position>
            <AltitudeMeters>1387.4000244140625</AltitudeMeters>
            <DistanceMeters>NAN</DistanceMeters>
          </Trackpoint>
          <Trackpoint>
            <Time>2018-12-30T14:02:53.000Z</Time>
            <Position>
              <LatitudeDegrees>40.7429264299571514129638671875</LatitudeDegrees>
              <LongitudeDegrees>-4.08080591820180416107177734375</LongitudeDegrees>
            </Position>
            <AltitudeMeters>1387.199951171875</AltitudeMeters>
            <DistanceMeters>NAN</DistanceMeters>
          </Trackpoint>
          <Trackpoint>
            <Time>2018-12-30T14:02:54.000Z</Time>
            <Position>
              <LatitudeDegrees>40.7429158687591552734375</LatitudeDegrees>
              <LongitudeDegrees>-4.08080466091632843017578125</LongitudeDegrees>
            </Position>
            <AltitudeMeters>1387.4000244140625</AltitudeMeters>
            <DistanceMeters>NAN</DistanceMeters>
          </Trackpoint>
          <Trackpoint>
            <Time>2018-12-30T14:02:55.000Z</Time>
            <Position>
              <LatitudeDegrees>40.7429022900760173797607421875</LatitudeDegrees>
              <LongitudeDegrees>-4.0808068402111530303955078125</LongitudeDegrees>
            </Position>
            <AltitudeMeters>1387.199951171875</AltitudeMeters>
            <DistanceMeters>NAN</DistanceMeters>
          </Trackpoint>
          <Trackpoint>
            <Time>2018-12-30T14:02:56.000Z</Time>
            <Position>
              <LatitudeDegrees>40.74289466254413127899169921875</LatitudeDegrees>
              <LongitudeDegrees>-4.08080809749662876129150390625</LongitudeDegrees>
            </Position>
            <AltitudeMeters>1387.199951171875</AltitudeMeters>
            <DistanceMeters>NAN</DistanceMeters>
          </Trackpoint>
          <Trackpoint>
            <Time>2018-12-30T14:02:57.000Z</Time>
            <Position>
              <LatitudeDegrees>40.742882676422595977783203125</LatitudeDegrees>
              <LongitudeDegrees>-4.0808044932782649993896484375</LongitudeDegrees>
            </Position>
            <AltitudeMeters>1387</AltitudeMeters>
            <DistanceMeters>NAN</DistanceMeters>
          </Trackpoint>
          <Trackpoint>
            <Time>2018-12-30T14:02:58.000Z</Time>
            <Position>
              <LatitudeDegrees>40.7428729534149169921875</LatitudeDegrees>
              <LongitudeDegrees>-4.08080256544053554534912109375</LongitudeDegrees>
            </Position>
            <AltitudeMeters>1387.199951171875</AltitudeMeters>
            <DistanceMeters>NAN</DistanceMeters>
          </Trackpoint>
          <Trackpoint>
            <Time>2018-12-30T14:02:59.000Z</Time>
            <Position>
              <LatitudeDegrees>40.74286415241658687591552734375</LatitudeDegrees>
              <LongitudeDegrees>-4.08079326152801513671875</LongitudeDegrees>
            </Position>
            <AltitudeMeters>1387</AltitudeMeters>
            <DistanceMeters>NAN</DistanceMeters>
          </Trackpoint>
          <Trackpoint>
            <Time>2018-12-30T14:03:00.000Z</Time>
            <Position>
              <LatitudeDegrees>40.74286063201725482940673828125</LatitudeDegrees>
              <LongitudeDegrees>-4.08078328706324100494384765625</LongitudeDegrees>
            </Position>
            <AltitudeMeters>1386.800048828125</AltitudeMeters>
            <DistanceMeters>NAN</DistanceMeters>
          </Trackpoint>
          <Trackpoint>
            <Time>2018-12-30T14:03:01.000Z</Time>
            <Position>
              <LatitudeDegrees>40.7428514957427978515625</LatitudeDegrees>
              <LongitudeDegrees>-4.0807790122926235198974609375</LongitudeDegrees>
            </Position>
            <AltitudeMeters>1386.800048828125</AltitudeMeters>
            <DistanceMeters>NAN</DistanceMeters>
          </Trackpoint>
          <Trackpoint>
            <Time>2018-12-30T14:03:02.000Z</Time>
            <Position>
              <LatitudeDegrees>40.74283766560256481170654296875</LatitudeDegrees>
              <LongitudeDegrees>-4.0807743184268474578857421875</LongitudeDegrees>
            </Position>
            <AltitudeMeters>1386.5999755859375</AltitudeMeters>
            <DistanceMeters>NAN</DistanceMeters>
          </Trackpoint>
          <Trackpoint>
            <Time>2018-12-30T14:03:03.000Z</Time>
            <Position>
              <LatitudeDegrees>40.742818973958492279052734375</LatitudeDegrees>
              <LongitudeDegrees>-4.08077406696975231170654296875</LongitudeDegrees>
            </Position>
            <AltitudeMeters>1386.199951171875</AltitudeMeters>
            <DistanceMeters>NAN</DistanceMeters>
          </Trackpoint>
          <Trackpoint>
            <Time>2018-12-30T14:03:04.000Z</Time>
            <Position>
              <LatitudeDegrees>40.742802880704402923583984375</LatitudeDegrees>
              <LongitudeDegrees>-4.0807704627513885498046875</LongitudeDegrees>
            </Position>
            <AltitudeMeters>1385.800048828125</AltitudeMeters>
            <DistanceMeters>NAN</DistanceMeters>
          </Trackpoint>
          <Trackpoint>
            <Time>2018-12-30T14:03:05.000Z</Time>
            <Position>
              <LatitudeDegrees>40.7427882961928844451904296875</LatitudeDegrees>
              <LongitudeDegrees>-4.0807666070759296417236328125</LongitudeDegrees>
            </Position>
            <AltitudeMeters>1385.5999755859375</AltitudeMeters>
            <DistanceMeters>NAN</DistanceMeters>
          </Trackpoint>
          <Trackpoint>
            <Time>2018-12-30T14:03:06.000Z</Time>
            <Position>
              <LatitudeDegrees>40.7427742145955562591552734375</LatitudeDegrees>
              <LongitudeDegrees>-4.08076602034270763397216796875</LongitudeDegrees>
            </Position>
            <AltitudeMeters>1385.4000244140625</AltitudeMeters>
            <DistanceMeters>NAN</DistanceMeters>
          </Trackpoint>
          <Trackpoint>
            <Time>2018-12-30T14:03:07.000Z</Time>
            <Position>
              <LatitudeDegrees>40.74276231229305267333984375</LatitudeDegrees>
              <LongitudeDegrees>-4.08076233230531215667724609375</LongitudeDegrees>
            </Position>
            <AltitudeMeters>1385.199951171875</AltitudeMeters>
            <DistanceMeters>NAN</DistanceMeters>
          </Trackpoint>
          <Trackpoint>
            <Time>2018-12-30T14:03:08.000Z</Time>
            <Position>
              <LatitudeDegrees>40.742749236524105072021484375</LatitudeDegrees>
              <LongitudeDegrees>-4.0807605721056461334228515625</LongitudeDegrees>
            </Position>
            <AltitudeMeters>1385.199951171875</AltitudeMeters>
            <DistanceMeters>NAN</DistanceMeters>
          </Trackpoint>
          <Trackpoint>
            <Time>2018-12-30T14:03:09.000Z</Time>
            <Position>
              <LatitudeDegrees>40.7427336461842060089111328125</LatitudeDegrees>
              <LongitudeDegrees>-4.08075948245823383331298828125</LongitudeDegrees>
            </Position>
            <AltitudeMeters>1385.199951171875</AltitudeMeters>
            <DistanceMeters>NAN</DistanceMeters>
          </Trackpoint>
          <Trackpoint>
            <Time>2018-12-30T14:03:10.000Z</Time>
            <Position>
              <LatitudeDegrees>40.742721743881702423095703125</LatitudeDegrees>
              <LongitudeDegrees>-4.08076442778110504150390625</LongitudeDegrees>
            </Position>
            <AltitudeMeters>1385.199951171875</AltitudeMeters>
            <DistanceMeters>NAN</DistanceMeters>
          </Trackpoint>
          <Trackpoint>
            <Time>2018-12-30T14:03:11.000Z</Time>
            <Position>
              <LatitudeDegrees>40.74271193705499172210693359375</LatitudeDegrees>
              <LongitudeDegrees>-4.08076903782784938812255859375</LongitudeDegrees>
            </Position>
            <AltitudeMeters>1385.4000244140625</AltitudeMeters>
            <DistanceMeters>NAN</DistanceMeters>
          </Trackpoint>
          <Trackpoint>
            <Time>2018-12-30T14:03:12.000Z</Time>
            <Position>
              <LatitudeDegrees>40.742696933448314666748046875</LatitudeDegrees>
              <LongitudeDegrees>-4.0807679481804370880126953125</LongitudeDegrees>
            </Position>
            <AltitudeMeters>1385.4000244140625</AltitudeMeters>
            <DistanceMeters>NAN</DistanceMeters>
          </Trackpoint>
          <Trackpoint>
            <Time>2018-12-30T14:03:13.000Z</Time>
            <Position>
              <LatitudeDegrees>40.7426857016980648040771484375</LatitudeDegrees>
              <LongitudeDegrees>-4.08076199702918529510498046875</LongitudeDegrees>
            </Position>
            <AltitudeMeters>1385.199951171875</AltitudeMeters>
            <DistanceMeters>NAN</DistanceMeters>
          </Trackpoint>
          <Trackpoint>
            <Time>2018-12-30T14:03:14.000Z</Time>
            <Position>
              <LatitudeDegrees>40.74267673306167125701904296875</LatitudeDegrees>
              <LongitudeDegrees>-4.08076216466724872589111328125</LongitudeDegrees>
            </Position>
            <AltitudeMeters>1385.4000244140625</AltitudeMeters>
            <DistanceMeters>NAN</DistanceMeters>
          </Trackpoint>
          <Trackpoint>
            <Time>2018-12-30T14:03:15.000Z</Time>
            <Position>
              <LatitudeDegrees>40.7426665909588336944580078125</LatitudeDegrees>
              <LongitudeDegrees>-4.0807535313069820404052734375</LongitudeDegrees>
            </Position>
            <AltitudeMeters>1385.4000244140625</AltitudeMeters>
            <DistanceMeters>NAN</DistanceMeters>
          </Trackpoint>
          <Trackpoint>
            <Time>2018-12-30T14:03:16.000Z</Time>
            <Position>
              <LatitudeDegrees>40.7426538504660129547119140625</LatitudeDegrees>
              <LongitudeDegrees>-4.0807521902024745941162109375</LongitudeDegrees>
            </Position>
            <AltitudeMeters>1385.199951171875</AltitudeMeters>
            <DistanceMeters>NAN</DistanceMeters>
          </Trackpoint>
          <Trackpoint>
            <Time>2018-12-30T14:03:17.000Z</Time>
            <Position>
              <LatitudeDegrees>40.742647983133792877197265625</LatitudeDegrees>
              <LongitudeDegrees>-4.08074942417442798614501953125</LongitudeDegrees>
            </Position>
            <AltitudeMeters>1385.199951171875</AltitudeMeters>
            <DistanceMeters>NAN</DistanceMeters>
          </Trackpoint>
          <Trackpoint>
            <Time>2018-12-30T14:03:18.000Z</Time>
            <Position>
              <LatitudeDegrees>40.7426437921822071075439453125</LatitudeDegrees>
              <LongitudeDegrees>-4.08075026236474514007568359375</LongitudeDegrees>
            </Position>
            <AltitudeMeters>1385</AltitudeMeters>
            <DistanceMeters>NAN</DistanceMeters>
          </Trackpoint>
          <Trackpoint>
            <Time>2018-12-30T14:03:19.000Z</Time>
            <Position>
              <LatitudeDegrees>40.7426382601261138916015625</LatitudeDegrees>
              <LongitudeDegrees>-4.0807481668889522552490234375</LongitudeDegrees>
            </Position>
            <AltitudeMeters>1384.800048828125</AltitudeMeters>
            <DistanceMeters>NAN</DistanceMeters>
          </Trackpoint>
          <Trackpoint>
            <Time>2018-12-30T14:03:20.000Z</Time>
            <Position>
              <LatitudeDegrees>40.74263080023229122161865234375</LatitudeDegrees>
              <LongitudeDegrees>-4.08074565231800079345703125</LongitudeDegrees>
            </Position>
            <AltitudeMeters>1384.5999755859375</AltitudeMeters>
            <DistanceMeters>NAN</DistanceMeters>
          </Trackpoint>
          <Trackpoint>
            <Time>2018-12-30T14:03:21.000Z</Time>
            <Position>
              <LatitudeDegrees>40.74262124486267566680908203125</LatitudeDegrees>
              <LongitudeDegrees>-4.08074791543185710906982421875</LongitudeDegrees>
            </Position>
            <AltitudeMeters>1384.4000244140625</AltitudeMeters>
            <DistanceMeters>NAN</DistanceMeters>
          </Trackpoint>
          <Trackpoint>
            <Time>2018-12-30T14:03:22.000Z</Time>
            <Position>
              <LatitudeDegrees>40.74261370114982128143310546875</LatitudeDegrees>
              <LongitudeDegrees>-4.08074699342250823974609375</LongitudeDegrees>
            </Position>
            <AltitudeMeters>1384.199951171875</AltitudeMeters>
            <DistanceMeters>NAN</DistanceMeters>
          </Trackpoint>
          <Trackpoint>
            <Time>2018-12-30T14:03:23.000Z</Time>
            <Position>
              <LatitudeDegrees>40.74260783381760120391845703125</LatitudeDegrees>
              <LongitudeDegrees>-4.0807458199560642242431640625</LongitudeDegrees>
            </Position>
            <AltitudeMeters>1384</AltitudeMeters>
            <DistanceMeters>NAN</DistanceMeters>
          </Trackpoint>
          <Trackpoint>
            <Time>2018-12-30T14:03:24.000Z</Time>
            <Position>
              <LatitudeDegrees>40.742604732513427734375</LatitudeDegrees>
              <LongitudeDegrees>-4.08074925653636455535888671875</LongitudeDegrees>
            </Position>
            <AltitudeMeters>1384</AltitudeMeters>
            <DistanceMeters>NAN</DistanceMeters>
          </Trackpoint>
          <Trackpoint>
            <Time>2018-12-30T14:03:25.000Z</Time>
            <Position>
              <LatitudeDegrees>40.74260112829506397247314453125</LatitudeDegrees>
              <LongitudeDegrees>-4.08074204809963703155517578125</LongitudeDegrees>
            </Position>
            <AltitudeMeters>1383.800048828125</AltitudeMeters>
            <DistanceMeters>NAN</DistanceMeters>
          </Trackpoint>
          <Trackpoint>
            <Time>2018-12-30T14:03:26.000Z</Time>
            <Position>
              <LatitudeDegrees>40.74260079301893711090087890625</LatitudeDegrees>
              <LongitudeDegrees>-4.0807528607547283172607421875</LongitudeDegrees>
            </Position>
            <AltitudeMeters>1383.800048828125</AltitudeMeters>
            <DistanceMeters>NAN</DistanceMeters>
          </Trackpoint>
          <Trackpoint>
            <Time>2018-12-30T14:03:27.000Z</Time>
            <Position>
              <LatitudeDegrees>40.742603056132793426513671875</LatitudeDegrees>
              <LongitudeDegrees>-4.08076400868594646453857421875</LongitudeDegrees>
            </Position>
            <AltitudeMeters>1383.5999755859375</AltitudeMeters>
            <DistanceMeters>NAN</DistanceMeters>
          </Trackpoint>
          <Trackpoint>
            <Time>2018-12-30T14:03:28.000Z</Time>
            <Position>
              <LatitudeDegrees>40.7425955124199390411376953125</LatitudeDegrees>
              <LongitudeDegrees>-4.080764763057231903076171875</LongitudeDegrees>
            </Position>
            <AltitudeMeters>1383.4000244140625</AltitudeMeters>
            <DistanceMeters>NAN</DistanceMeters>
          </Trackpoint>
          <Trackpoint>
            <Time>2018-12-30T14:03:29.000Z</Time>
            <Position>
              <LatitudeDegrees>40.74258168227970600128173828125</LatitudeDegrees>
              <LongitudeDegrees>-4.080763757228851318359375</LongitudeDegrees>
            </Position>
            <AltitudeMeters>1383.199951171875</AltitudeMeters>
            <DistanceMeters>NAN</DistanceMeters>
          </Trackpoint>
          <Trackpoint>
            <Time>2018-12-30T14:03:30.000Z</Time>
            <Position>
              <LatitudeDegrees>40.7425738871097564697265625</LatitudeDegrees>
              <LongitudeDegrees>-4.08076132647693157196044921875</LongitudeDegrees>
            </Position>
            <AltitudeMeters>1383</AltitudeMeters>
            <DistanceMeters>NAN</DistanceMeters>
          </Trackpoint>
          <Trackpoint>
            <Time>2018-12-30T14:03:31.000Z</Time>
            <Position>
              <LatitudeDegrees>40.7425676845014095306396484375</LatitudeDegrees>
              <LongitudeDegrees>-4.08076199702918529510498046875</LongitudeDegrees>
            </Position>
            <AltitudeMeters>1383</AltitudeMeters>
            <DistanceMeters>NAN</DistanceMeters>
          </Trackpoint>
          <Trackpoint>
            <Time>2018-12-30T14:03:32.000Z</Time>
            <Position>
              <LatitudeDegrees>40.74255821295082569122314453125</LatitudeDegrees>
              <LongitudeDegrees>-4.0807582251727581024169921875</LongitudeDegrees>
            </Position>
            <AltitudeMeters>1382.800048828125</AltitudeMeters>
            <DistanceMeters>NAN</DistanceMeters>
          </Trackpoint>
          <Trackpoint>
            <Time>2018-12-30T14:03:33.000Z</Time>
            <Position>
              <LatitudeDegrees>40.7425485737621784210205078125</LatitudeDegrees>
              <LongitudeDegrees>-4.08076099120080471038818359375</LongitudeDegrees>
            </Position>
            <AltitudeMeters>1382.800048828125</AltitudeMeters>
            <DistanceMeters>NAN</DistanceMeters>
          </Trackpoint>
          <Trackpoint>
            <Time>2018-12-30T14:03:34.000Z</Time>
            <Position>
              <LatitudeDegrees>40.7425411976873874664306640625</LatitudeDegrees>
              <LongitudeDegrees>-4.08075277693569660186767578125</LongitudeDegrees>
            </Position>
            <AltitudeMeters>1382.5999755859375</AltitudeMeters>
            <DistanceMeters>NAN</DistanceMeters>
          </Trackpoint>
          <Trackpoint>
            <Time>2018-12-30T14:03:35.000Z</Time>
            <Position>
              <LatitudeDegrees>40.7425321452319622039794921875</LatitudeDegrees>
              <LongitudeDegrees>-4.08074565231800079345703125</LongitudeDegrees>
            </Position>
            <AltitudeMeters>1382.4000244140625</AltitudeMeters>
            <DistanceMeters>NAN</DistanceMeters>
          </Trackpoint>
          <Trackpoint>
            <Time>2018-12-30T14:03:36.000Z</Time>
            <Position>
              <LatitudeDegrees>40.74252468533813953399658203125</LatitudeDegrees>
              <LongitudeDegrees>-4.08073349855840206146240234375</LongitudeDegrees>
            </Position>
            <AltitudeMeters>1382</AltitudeMeters>
            <DistanceMeters>NAN</DistanceMeters>
          </Trackpoint>
          <Trackpoint>
            <Time>2018-12-30T14:03:37.000Z</Time>
            <Position>
              <LatitudeDegrees>40.74252049438655376434326171875</LatitudeDegrees>
              <LongitudeDegrees>-4.08072025515139102935791015625</LongitudeDegrees>
            </Position>
            <AltitudeMeters>1381.800048828125</AltitudeMeters>
            <DistanceMeters>NAN</DistanceMeters>
          </Trackpoint>
          <Trackpoint>
            <Time>2018-12-30T14:03:38.000Z</Time>
            <Position>
              <LatitudeDegrees>40.74251043610274791717529296875</LatitudeDegrees>
              <LongitudeDegrees>-4.08071069978177547454833984375</LongitudeDegrees>
            </Position>
            <AltitudeMeters>1381.5999755859375</AltitudeMeters>
            <DistanceMeters>NAN</DistanceMeters>
          </Trackpoint>
          <Trackpoint>
            <Time>2018-12-30T14:03:39.000Z</Time>
            <Position>
              <LatitudeDegrees>40.74250155128538608551025390625</LatitudeDegrees>
              <LongitudeDegrees>-4.08070365898311138153076171875</LongitudeDegrees>
            </Position>
            <AltitudeMeters>1381.4000244140625</AltitudeMeters>
            <DistanceMeters>NAN</DistanceMeters>
          </Trackpoint>
          <Trackpoint>
            <Time>2018-12-30T14:03:40.000Z</Time>
            <Position>
              <LatitudeDegrees>40.74248914606869220733642578125</LatitudeDegrees>
              <LongitudeDegrees>-4.08070215024054050445556640625</LongitudeDegrees>
            </Position>
            <AltitudeMeters>1381.199951171875</AltitudeMeters>
            <DistanceMeters>NAN</DistanceMeters>
          </Trackpoint>
          <Trackpoint>
            <Time>2018-12-30T14:03:41.000Z</Time>
            <Position>
              <LatitudeDegrees>40.74247824959456920623779296875</LatitudeDegrees>
              <LongitudeDegrees>-4.0806968696415424346923828125</LongitudeDegrees>
            </Position>
            <AltitudeMeters>1380.800048828125</AltitudeMeters>
            <DistanceMeters>NAN</DistanceMeters>
          </Trackpoint>
          <Trackpoint>
            <Time>2018-12-30T14:03:42.000Z</Time>
            <Position>
              <LatitudeDegrees>40.74246584437787532806396484375</LatitudeDegrees>
              <LongitudeDegrees>-4.0806935168802738189697265625</LongitudeDegrees>
            </Position>
            <AltitudeMeters>1380.800048828125</AltitudeMeters>
            <DistanceMeters>NAN</DistanceMeters>
          </Trackpoint>
          <Trackpoint>
            <Time>2018-12-30T14:03:43.000Z</Time>
            <Position>
              <LatitudeDegrees>40.7424550317227840423583984375</LatitudeDegrees>
              <LongitudeDegrees>-4.0806888230144977569580078125</LongitudeDegrees>
            </Position>
            <AltitudeMeters>1380.5999755859375</AltitudeMeters>
            <DistanceMeters>NAN</DistanceMeters>
          </Trackpoint>
          <Trackpoint>
            <Time>2018-12-30T14:03:44.000Z</Time>
            <Position>
              <LatitudeDegrees>40.7424437999725341796875</LatitudeDegrees>
              <LongitudeDegrees>-4.08068069256842136383056640625</LongitudeDegrees>
            </Position>
            <AltitudeMeters>1380.5999755859375</AltitudeMeters>
            <DistanceMeters>NAN</DistanceMeters>
          </Trackpoint>
          <Trackpoint>
            <Time>2018-12-30T14:03:45.000Z</Time>
            <Position>
              <LatitudeDegrees>40.74243416078388690948486328125</LatitudeDegrees>
              <LongitudeDegrees>-4.08067381940782070159912109375</LongitudeDegrees>
            </Position>
            <AltitudeMeters>1380.4000244140625</AltitudeMeters>
            <DistanceMeters>NAN</DistanceMeters>
          </Trackpoint>
          <Trackpoint>
            <Time>2018-12-30T14:03:46.000Z</Time>
            <Position>
              <LatitudeDegrees>40.7424235157668590545654296875</LatitudeDegrees>
              <LongitudeDegrees>-4.08066526986658573150634765625</LongitudeDegrees>
            </Position>
            <AltitudeMeters>1380.199951171875</AltitudeMeters>
            <DistanceMeters>NAN</DistanceMeters>
          </Trackpoint>
          <Trackpoint>
            <Time>2018-12-30T14:03:47.000Z</Time>
            <Position>
              <LatitudeDegrees>40.7424156367778778076171875</LatitudeDegrees>
              <LongitudeDegrees>-4.0806552954018115997314453125</LongitudeDegrees>
            </Position>
            <AltitudeMeters>1379.800048828125</AltitudeMeters>
            <DistanceMeters>NAN</DistanceMeters>
          </Trackpoint>
          <Trackpoint>
            <Time>2018-12-30T14:03:48.000Z</Time>
            <Position>
              <LatitudeDegrees>40.74241186492145061492919921875</LatitudeDegrees>
              <LongitudeDegrees>-4.08064649440348148345947265625</LongitudeDegrees>
            </Position>
            <AltitudeMeters>1379.5999755859375</AltitudeMeters>
            <DistanceMeters>NAN</DistanceMeters>
          </Trackpoint>
          <Trackpoint>
            <Time>2018-12-30T14:03:49.000Z</Time>
            <Position>
              <LatitudeDegrees>40.742404572665691375732421875</LatitudeDegrees>
              <LongitudeDegrees>-4.08064213581383228302001953125</LongitudeDegrees>
            </Position>
            <AltitudeMeters>1379.4000244140625</AltitudeMeters>
            <DistanceMeters>NAN</DistanceMeters>
          </Trackpoint>
          <Trackpoint>
            <Time>2018-12-30T14:03:50.000Z</Time>
            <Position>
              <LatitudeDegrees>40.74239811860024929046630859375</LatitudeDegrees>
              <LongitudeDegrees>-4.08063526265323162078857421875</LongitudeDegrees>
            </Position>
            <AltitudeMeters>1379</AltitudeMeters>
            <DistanceMeters>NAN</DistanceMeters>
          </Trackpoint>
          <Trackpoint>
            <Time>2018-12-30T14:03:51.000Z</Time>
            <Position>
              <LatitudeDegrees>40.74238755740225315093994140625</LatitudeDegrees>
              <LongitudeDegrees>-4.08062721602618694305419921875</LongitudeDegrees>
            </Position>
            <AltitudeMeters>1378.800048828125</AltitudeMeters>
            <DistanceMeters>NAN</DistanceMeters>
          </Trackpoint>
          <Trackpoint>
            <Time>2018-12-30T14:03:52.000Z</Time>
            <Position>
              <LatitudeDegrees>40.742377080023288726806640625</LatitudeDegrees>
              <LongitudeDegrees>-4.08061749301850795745849609375</LongitudeDegrees>
            </Position>
            <AltitudeMeters>1378.800048828125</AltitudeMeters>
            <DistanceMeters>NAN</DistanceMeters>
          </Trackpoint>
          <Trackpoint>
            <Time>2018-12-30T14:03:53.000Z</Time>
            <Position>
              <LatitudeDegrees>40.7423735596239566802978515625</LatitudeDegrees>
              <LongitudeDegrees>-4.0806043334305286407470703125</LongitudeDegrees>
            </Position>
            <AltitudeMeters>1378.5999755859375</AltitudeMeters>
            <DistanceMeters>NAN</DistanceMeters>
          </Trackpoint>
          <Trackpoint>
            <Time>2018-12-30T14:03:54.000Z</Time>
            <Position>
              <LatitudeDegrees>40.74236911721527576446533203125</LatitudeDegrees>
              <LongitudeDegrees>-4.0805915929377079010009765625</LongitudeDegrees>
            </Position>
            <AltitudeMeters>1378.4000244140625</AltitudeMeters>
            <DistanceMeters>NAN</DistanceMeters>
          </Trackpoint>
          <Trackpoint>
            <Time>2018-12-30T14:03:55.000Z</Time>
            <Position>
              <LatitudeDegrees>40.742358304560184478759765625</LatitudeDegrees>
              <LongitudeDegrees>-4.0805818699300289154052734375</LongitudeDegrees>
            </Position>
            <AltitudeMeters>1378.199951171875</AltitudeMeters>
            <DistanceMeters>NAN</DistanceMeters>
          </Trackpoint>
          <Trackpoint>
            <Time>2018-12-30T14:03:56.000Z</Time>
            <Position>
              <LatitudeDegrees>40.74234950356185436248779296875</LatitudeDegrees>
              <LongitudeDegrees>-4.08056921325623989105224609375</LongitudeDegrees>
            </Position>
            <AltitudeMeters>1377.800048828125</AltitudeMeters>
            <DistanceMeters>NAN</DistanceMeters>
          </Trackpoint>
          <Trackpoint>
            <Time>2018-12-30T14:03:57.000Z</Time>
            <Position>
              <LatitudeDegrees>40.74234279803931713104248046875</LatitudeDegrees>
              <LongitudeDegrees>-4.08055798150599002838134765625</LongitudeDegrees>
            </Position>
            <AltitudeMeters>1377.800048828125</AltitudeMeters>
            <DistanceMeters>NAN</DistanceMeters>
          </Trackpoint>
          <Trackpoint>
            <Time>2018-12-30T14:03:58.000Z</Time>
            <Position>
              <LatitudeDegrees>40.7423383556306362152099609375</LatitudeDegrees>
              <LongitudeDegrees>-4.08055110834538936614990234375</LongitudeDegrees>
            </Position>
            <AltitudeMeters>1377.5999755859375</AltitudeMeters>
            <DistanceMeters>NAN</DistanceMeters>
          </Trackpoint>
          <Trackpoint>
            <Time>2018-12-30T14:03:59.000Z</Time>
            <Position>
              <LatitudeDegrees>40.7423390261828899383544921875</LatitudeDegrees>
              <LongitudeDegrees>-4.08053836785256862640380859375</LongitudeDegrees>
            </Position>
            <AltitudeMeters>1377.4000244140625</AltitudeMeters>
            <DistanceMeters>NAN</DistanceMeters>
          </Trackpoint>
          <Trackpoint>
            <Time>2018-12-30T14:04:00.000Z</Time>
            <Position>
              <LatitudeDegrees>40.74234179221093654632568359375</LatitudeDegrees>
              <LongitudeDegrees>-4.08052881248295307159423828125</LongitudeDegrees>
            </Position>
            <AltitudeMeters>1377.4000244140625</AltitudeMeters>
            <DistanceMeters>NAN</DistanceMeters>
          </Trackpoint>
          <Trackpoint>
            <Time>2018-12-30T14:04:01.000Z</Time>
            <Position>
              <LatitudeDegrees>40.74234279803931713104248046875</LatitudeDegrees>
              <LongitudeDegrees>-4.08051774837076663970947265625</LongitudeDegrees>
            </Position>
            <AltitudeMeters>1377.199951171875</AltitudeMeters>
            <DistanceMeters>NAN</DistanceMeters>
          </Trackpoint>
          <Trackpoint>
            <Time>2018-12-30T14:04:02.000Z</Time>
            <Position>
              <LatitudeDegrees>40.742340870201587677001953125</LatitudeDegrees>
              <LongitudeDegrees>-4.080506600439548492431640625</LongitudeDegrees>
            </Position>
            <AltitudeMeters>1377</AltitudeMeters>
            <DistanceMeters>NAN</DistanceMeters>
          </Trackpoint>
          <Trackpoint>
            <Time>2018-12-30T14:04:03.000Z</Time>
            <Position>
              <LatitudeDegrees>40.74234078638255596160888671875</LatitudeDegrees>
              <LongitudeDegrees>-4.08049209974706172943115234375</LongitudeDegrees>
            </Position>
            <AltitudeMeters>1377</AltitudeMeters>
            <DistanceMeters>NAN</DistanceMeters>
          </Trackpoint>
          <Trackpoint>
            <Time>2018-12-30T14:04:04.000Z</Time>
            <Position>
              <LatitudeDegrees>40.74234833009541034698486328125</LatitudeDegrees>
              <LongitudeDegrees>-4.080480448901653289794921875</LongitudeDegrees>
            </Position>
            <AltitudeMeters>1376.800048828125</AltitudeMeters>
            <DistanceMeters>NAN</DistanceMeters>
          </Trackpoint>
          <Trackpoint>
            <Time>2018-12-30T14:04:05.000Z</Time>
            <Position>
              <LatitudeDegrees>40.74235017411410808563232421875</LatitudeDegrees>
              <LongitudeDegrees>-4.08045706339180469512939453125</LongitudeDegrees>
            </Position>
            <AltitudeMeters>1376.5999755859375</AltitudeMeters>
            <DistanceMeters>NAN</DistanceMeters>
          </Trackpoint>
          <Trackpoint>
            <Time>2018-12-30T14:04:06.000Z</Time>
            <Position>
              <LatitudeDegrees>40.74234833009541034698486328125</LatitudeDegrees>
              <LongitudeDegrees>-4.0804373659193515777587890625</LongitudeDegrees>
            </Position>
            <AltitudeMeters>1376.4000244140625</AltitudeMeters>
            <DistanceMeters>NAN</DistanceMeters>
          </Trackpoint>
          <Trackpoint>
            <Time>2018-12-30T14:04:07.000Z</Time>
            <Position>
              <LatitudeDegrees>40.74234531261026859283447265625</LatitudeDegrees>
              <LongitudeDegrees>-4.08041917718946933746337890625</LongitudeDegrees>
            </Position>
            <AltitudeMeters>1376.199951171875</AltitudeMeters>
            <DistanceMeters>NAN</DistanceMeters>
          </Trackpoint>
          <Trackpoint>
            <Time>2018-12-30T14:04:08.000Z</Time>
            <Position>
              <LatitudeDegrees>40.74234263040125370025634765625</LatitudeDegrees>
              <LongitudeDegrees>-4.08040492795407772064208984375</LongitudeDegrees>
            </Position>
            <AltitudeMeters>1376</AltitudeMeters>
            <DistanceMeters>NAN</DistanceMeters>
          </Trackpoint>
          <Trackpoint>
            <Time>2018-12-30T14:04:09.000Z</Time>
            <Position>
              <LatitudeDegrees>40.742336846888065338134765625</LatitudeDegrees>
              <LongitudeDegrees>-4.080383889377117156982421875</LongitudeDegrees>
            </Position>
            <AltitudeMeters>1375.5999755859375</AltitudeMeters>
            <DistanceMeters>NAN</DistanceMeters>
          </Trackpoint>
          <Trackpoint>
            <Time>2018-12-30T14:04:10.000Z</Time>
            <Position>
              <LatitudeDegrees>40.74233542196452617645263671875</LatitudeDegrees>
              <LongitudeDegrees>-4.08036477863788604736328125</LongitudeDegrees>
            </Position>
            <AltitudeMeters>1375.4000244140625</AltitudeMeters>
            <DistanceMeters>NAN</DistanceMeters>
          </Trackpoint>
          <Trackpoint>
            <Time>2018-12-30T14:04:11.000Z</Time>
            <Position>
              <LatitudeDegrees>40.742333494126796722412109375</LatitudeDegrees>
              <LongitudeDegrees>-4.0803493559360504150390625</LongitudeDegrees>
            </Position>
            <AltitudeMeters>1375</AltitudeMeters>
            <DistanceMeters>NAN</DistanceMeters>
          </Trackpoint>
          <Trackpoint>
            <Time>2018-12-30T14:04:12.000Z</Time>
            <Position>
              <LatitudeDegrees>40.7423276267945766448974609375</LatitudeDegrees>
              <LongitudeDegrees>-4.0803372859954833984375</LongitudeDegrees>
            </Position>
            <AltitudeMeters>1374.800048828125</AltitudeMeters>
            <DistanceMeters>NAN</DistanceMeters>
          </Trackpoint>
          <Trackpoint>
            <Time>2018-12-30T14:04:13.000Z</Time>
            <Position>
              <LatitudeDegrees>40.74232720769941806793212890625</LatitudeDegrees>
              <LongitudeDegrees>-4.08032664097845554351806640625</LongitudeDegrees>
            </Position>
            <AltitudeMeters>1374.5999755859375</AltitudeMeters>
            <DistanceMeters>NAN</DistanceMeters>
          </Trackpoint>
          <Trackpoint>
            <Time>2018-12-30T14:04:14.000Z</Time>
            <Position>
              <LatitudeDegrees>40.7423309795558452606201171875</LatitudeDegrees>
              <LongitudeDegrees>-4.080306105315685272216796875</LongitudeDegrees>
            </Position>
            <AltitudeMeters>1374.199951171875</AltitudeMeters>
            <DistanceMeters>NAN</DistanceMeters>
          </Trackpoint>
          <Trackpoint>
            <Time>2018-12-30T14:04:15.000Z</Time>
            <Position>
              <LatitudeDegrees>40.7423366792500019073486328125</LatitudeDegrees>
              <LongitudeDegrees>-4.08028556965291500091552734375</LongitudeDegrees>
            </Position>
            <AltitudeMeters>1374.199951171875</AltitudeMeters>
            <DistanceMeters>NAN</DistanceMeters>
          </Trackpoint>
          <Trackpoint>
            <Time>2018-12-30T14:04:16.000Z</Time>
            <Position>
              <LatitudeDegrees>40.7423413731157779693603515625</LatitudeDegrees>
              <LongitudeDegrees>-4.08026696182787418365478515625</LongitudeDegrees>
            </Position>
            <AltitudeMeters>1374.199951171875</AltitudeMeters>
            <DistanceMeters>NAN</DistanceMeters>
          </Trackpoint>
          <Trackpoint>
            <Time>2018-12-30T14:04:17.000Z</Time>
            <Position>
              <LatitudeDegrees>40.74234229512512683868408203125</LatitudeDegrees>
              <LongitudeDegrees>-4.0802486054599285125732421875</LongitudeDegrees>
            </Position>
            <AltitudeMeters>1374</AltitudeMeters>
            <DistanceMeters>NAN</DistanceMeters>
          </Trackpoint>
          <Trackpoint>
            <Time>2018-12-30T14:04:18.000Z</Time>
            <Position>
              <LatitudeDegrees>40.74234656989574432373046875</LatitudeDegrees>
              <LongitudeDegrees>-4.08023159019649028778076171875</LongitudeDegrees>
            </Position>
            <AltitudeMeters>1373.800048828125</AltitudeMeters>
            <DistanceMeters>NAN</DistanceMeters>
          </Trackpoint>
          <Trackpoint>
            <Time>2018-12-30T14:04:19.000Z</Time>
            <Position>
              <LatitudeDegrees>40.74234480969607830047607421875</LatitudeDegrees>
              <LongitudeDegrees>-4.08022119663655757904052734375</LongitudeDegrees>
            </Position>
            <AltitudeMeters>1373.4000244140625</AltitudeMeters>
            <DistanceMeters>NAN</DistanceMeters>
          </Trackpoint>
          <Trackpoint>
            <Time>2018-12-30T14:04:20.000Z</Time>
            <Position>
              <LatitudeDegrees>40.742342881858348846435546875</LatitudeDegrees>
              <LongitudeDegrees>-4.08020510338246822357177734375</LongitudeDegrees>
            </Position>
            <AltitudeMeters>1373.199951171875</AltitudeMeters>
            <DistanceMeters>NAN</DistanceMeters>
          </Trackpoint>
          <Trackpoint>
            <Time>2018-12-30T14:04:21.000Z</Time>
            <Position>
              <LatitudeDegrees>40.74234698899090290069580078125</LatitudeDegrees>
              <LongitudeDegrees>-4.0801926143467426300048828125</LongitudeDegrees>
            </Position>
            <AltitudeMeters>1373</AltitudeMeters>
            <DistanceMeters>NAN</DistanceMeters>
          </Trackpoint>
          <Trackpoint>
            <Time>2018-12-30T14:04:22.000Z</Time>
            <Position>
              <LatitudeDegrees>40.74234866537153720855712890625</LatitudeDegrees>
              <LongitudeDegrees>-4.0801795385777950286865234375</LongitudeDegrees>
            </Position>
            <AltitudeMeters>1372.800048828125</AltitudeMeters>
            <DistanceMeters>NAN</DistanceMeters>
          </Trackpoint>
          <Trackpoint>
            <Time>2018-12-30T14:04:23.000Z</Time>
            <Position>
              <LatitudeDegrees>40.74234782718122005462646484375</LatitudeDegrees>
              <LongitudeDegrees>-4.08016503788530826568603515625</LongitudeDegrees>
            </Position>
            <AltitudeMeters>1372.800048828125</AltitudeMeters>
            <DistanceMeters>NAN</DistanceMeters>
          </Trackpoint>
          <Trackpoint>
            <Time>2018-12-30T14:04:24.000Z</Time>
            <Position>
              <LatitudeDegrees>40.74234615080058574676513671875</LatitudeDegrees>
              <LongitudeDegrees>-4.08015280030667781829833984375</LongitudeDegrees>
            </Position>
            <AltitudeMeters>1372.800048828125</AltitudeMeters>
            <DistanceMeters>NAN</DistanceMeters>
          </Trackpoint>
          <Trackpoint>
            <Time>2018-12-30T14:04:25.000Z</Time>
            <Position>
              <LatitudeDegrees>40.742342881858348846435546875</LatitudeDegrees>
              <LongitudeDegrees>-4.08014056272804737091064453125</LongitudeDegrees>
            </Position>
            <AltitudeMeters>1372.5999755859375</AltitudeMeters>
            <DistanceMeters>NAN</DistanceMeters>
          </Trackpoint>
          <Trackpoint>
            <Time>2018-12-30T14:04:26.000Z</Time>
            <Position>
              <LatitudeDegrees>40.742336846888065338134765625</LatitudeDegrees>
              <LongitudeDegrees>-4.08011910505592823028564453125</LongitudeDegrees>
            </Position>
            <AltitudeMeters>1372.5999755859375</AltitudeMeters>
            <DistanceMeters>NAN</DistanceMeters>
          </Trackpoint>
          <Trackpoint>
            <Time>2018-12-30T14:04:27.000Z</Time>
            <Position>
              <LatitudeDegrees>40.74233575724065303802490234375</LatitudeDegrees>
              <LongitudeDegrees>-4.08009630627930164337158203125</LongitudeDegrees>
            </Position>
            <AltitudeMeters>1372.4000244140625</AltitudeMeters>
            <DistanceMeters>NAN</DistanceMeters>
          </Trackpoint>
          <Trackpoint>
            <Time>2018-12-30T14:04:28.000Z</Time>
            <Position>
              <LatitudeDegrees>40.74233240447938442230224609375</LatitudeDegrees>
              <LongitudeDegrees>-4.08008272759616374969482421875</LongitudeDegrees>
            </Position>
            <AltitudeMeters>1372.4000244140625</AltitudeMeters>
            <DistanceMeters>NAN</DistanceMeters>
          </Trackpoint>
          <Trackpoint>
            <Time>2018-12-30T14:04:29.000Z</Time>
            <Position>
              <LatitudeDegrees>40.74233106337487697601318359375</LatitudeDegrees>
              <LongitudeDegrees>-4.080070741474628448486328125</LongitudeDegrees>
            </Position>
            <AltitudeMeters>1372.199951171875</AltitudeMeters>
            <DistanceMeters>NAN</DistanceMeters>
          </Trackpoint>
          <Trackpoint>
            <Time>2018-12-30T14:04:30.000Z</Time>
            <Position>
              <LatitudeDegrees>40.7423276267945766448974609375</LatitudeDegrees>
              <LongitudeDegrees>-4.08005909062922000885009765625</LongitudeDegrees>
            </Position>
            <AltitudeMeters>1372</AltitudeMeters>
            <DistanceMeters>NAN</DistanceMeters>
          </Trackpoint>
          <Trackpoint>
            <Time>2018-12-30T14:04:31.000Z</Time>
            <Position>
              <LatitudeDegrees>40.742322094738483428955078125</LatitudeDegrees>
              <LongitudeDegrees>-4.080049283802509307861328125</LongitudeDegrees>
            </Position>
            <AltitudeMeters>1372</AltitudeMeters>
            <DistanceMeters>NAN</DistanceMeters>
          </Trackpoint>
          <Trackpoint>
            <Time>2018-12-30T14:04:32.000Z</Time>
            <Position>
              <LatitudeDegrees>40.74231681413948535919189453125</LatitudeDegrees>
              <LongitudeDegrees>-4.08004157245159149169921875</LongitudeDegrees>
            </Position>
            <AltitudeMeters>1371.800048828125</AltitudeMeters>
            <DistanceMeters>NAN</DistanceMeters>
          </Trackpoint>
          <Trackpoint>
            <Time>2018-12-30T14:04:33.000Z</Time>
            <Position>
              <LatitudeDegrees>40.74231279082596302032470703125</LatitudeDegrees>
              <LongitudeDegrees>-4.08003360964357852935791015625</LongitudeDegrees>
            </Position>
            <AltitudeMeters>1371.5999755859375</AltitudeMeters>
            <DistanceMeters>NAN</DistanceMeters>
          </Trackpoint>
          <Trackpoint>
            <Time>2018-12-30T14:04:34.000Z</Time>
            <Position>
              <LatitudeDegrees>40.742306672036647796630859375</LatitudeDegrees>
              <LongitudeDegrees>-4.08002723939716815948486328125</LongitudeDegrees>
            </Position>
            <AltitudeMeters>1371.4000244140625</AltitudeMeters>
            <DistanceMeters>NAN</DistanceMeters>
          </Trackpoint>
          <Trackpoint>
            <Time>2018-12-30T14:04:35.000Z</Time>
            <Position>
              <LatitudeDegrees>40.74229896068572998046875</LatitudeDegrees>
              <LongitudeDegrees>-4.0800236351788043975830078125</LongitudeDegrees>
            </Position>
            <AltitudeMeters>1371</AltitudeMeters>
            <DistanceMeters>NAN</DistanceMeters>
          </Trackpoint>
          <Trackpoint>
            <Time>2018-12-30T14:04:36.000Z</Time>
            <Position>
              <LatitudeDegrees>40.74228622019290924072265625</LatitudeDegrees>
              <LongitudeDegrees>-4.080021791160106658935546875</LongitudeDegrees>
            </Position>
            <AltitudeMeters>1370.5999755859375</AltitudeMeters>
            <DistanceMeters>NAN</DistanceMeters>
          </Trackpoint>
          <Trackpoint>
            <Time>2018-12-30T14:04:37.000Z</Time>
            <Position>
              <LatitudeDegrees>40.74227473698556423187255859375</LatitudeDegrees>
              <LongitudeDegrees>-4.08002355135977268218994140625</LongitudeDegrees>
            </Position>
            <AltitudeMeters>1370.4000244140625</AltitudeMeters>
            <DistanceMeters>NAN</DistanceMeters>
          </Trackpoint>
          <Trackpoint>
            <Time>2018-12-30T14:04:38.000Z</Time>
            <Position>
              <LatitudeDegrees>40.742269791662693023681640625</LatitudeDegrees>
              <LongitudeDegrees>-4.0800189413130283355712890625</LongitudeDegrees>
            </Position>
            <AltitudeMeters>1370.199951171875</AltitudeMeters>
            <DistanceMeters>NAN</DistanceMeters>
          </Trackpoint>
          <Trackpoint>
            <Time>2018-12-30T14:04:39.000Z</Time>
            <Position>
              <LatitudeDegrees>40.7422625832259654998779296875</LatitudeDegrees>
              <LongitudeDegrees>-4.08001684583723545074462890625</LongitudeDegrees>
            </Position>
            <AltitudeMeters>1370.199951171875</AltitudeMeters>
            <DistanceMeters>NAN</DistanceMeters>
          </Trackpoint>
          <Trackpoint>
            <Time>2018-12-30T14:04:40.000Z</Time>
            <Position>
              <LatitudeDegrees>40.7422518543899059295654296875</LatitudeDegrees>
              <LongitudeDegrees>-4.08001500181853771209716796875</LongitudeDegrees>
            </Position>
            <AltitudeMeters>1370</AltitudeMeters>
            <DistanceMeters>NAN</DistanceMeters>
          </Trackpoint>
          <Trackpoint>
            <Time>2018-12-30T14:04:41.000Z</Time>
            <Position>
              <LatitudeDegrees>40.74223718605935573577880859375</LatitudeDegrees>
              <LongitudeDegrees>-4.08001818694174289703369140625</LongitudeDegrees>
            </Position>
            <AltitudeMeters>1370</AltitudeMeters>
            <DistanceMeters>NAN</DistanceMeters>
          </Trackpoint>
          <Trackpoint>
            <Time>2018-12-30T14:04:42.000Z</Time>
            <Position>
              <LatitudeDegrees>40.74222494848072528839111328125</LatitudeDegrees>
              <LongitudeDegrees>-4.08001751638948917388916015625</LongitudeDegrees>
            </Position>
            <AltitudeMeters>1369.800048828125</AltitudeMeters>
            <DistanceMeters>NAN</DistanceMeters>
          </Trackpoint>
          <Trackpoint>
            <Time>2018-12-30T14:04:43.000Z</Time>
            <Position>
              <LatitudeDegrees>40.742214135825634002685546875</LatitudeDegrees>
              <LongitudeDegrees>-4.08001382835209369659423828125</LongitudeDegrees>
            </Position>
            <AltitudeMeters>1369.800048828125</AltitudeMeters>
            <DistanceMeters>NAN</DistanceMeters>
          </Trackpoint>
          <Trackpoint>
            <Time>2018-12-30T14:04:44.000Z</Time>
            <Position>
              <LatitudeDegrees>40.74220583774149417877197265625</LatitudeDegrees>
              <LongitudeDegrees>-4.08000796101987361907958984375</LongitudeDegrees>
            </Position>
            <AltitudeMeters>1369.800048828125</AltitudeMeters>
            <DistanceMeters>NAN</DistanceMeters>
          </Trackpoint>
          <Trackpoint>
            <Time>2018-12-30T14:04:45.000Z</Time>
            <Position>
              <LatitudeDegrees>40.74219728820025920867919921875</LatitudeDegrees>
              <LongitudeDegrees>-4.0800048597157001495361328125</LongitudeDegrees>
            </Position>
            <AltitudeMeters>1369.800048828125</AltitudeMeters>
            <DistanceMeters>NAN</DistanceMeters>
          </Trackpoint>
          <Trackpoint>
            <Time>2018-12-30T14:04:46.000Z</Time>
            <Position>
              <LatitudeDegrees>40.74218538589775562286376953125</LatitudeDegrees>
              <LongitudeDegrees>-4.08000544644892215728759765625</LongitudeDegrees>
            </Position>
            <AltitudeMeters>1369.5999755859375</AltitudeMeters>
            <DistanceMeters>NAN</DistanceMeters>
          </Trackpoint>
          <Trackpoint>
            <Time>2018-12-30T14:04:47.000Z</Time>
            <Position>
              <LatitudeDegrees>40.74217834509909152984619140625</LatitudeDegrees>
              <LongitudeDegrees>-4.079999662935733795166015625</LongitudeDegrees>
            </Position>
            <AltitudeMeters>1369.4000244140625</AltitudeMeters>
            <DistanceMeters>NAN</DistanceMeters>
          </Trackpoint>
          <Trackpoint>
            <Time>2018-12-30T14:04:48.000Z</Time>
            <Position>
              <LatitudeDegrees>40.74217834509909152984619140625</LatitudeDegrees>
              <LongitudeDegrees>-4.07998968847095966339111328125</LongitudeDegrees>
            </Position>
            <AltitudeMeters>1369.4000244140625</AltitudeMeters>
            <DistanceMeters>NAN</DistanceMeters>
          </Trackpoint>
          <Trackpoint>
            <Time>2018-12-30T14:04:49.000Z</Time>
            <Position>
              <LatitudeDegrees>40.742171891033649444580078125</LatitudeDegrees>
              <LongitudeDegrees>-4.0799837373197078704833984375</LongitudeDegrees>
            </Position>
            <AltitudeMeters>1369.199951171875</AltitudeMeters>
            <DistanceMeters>NAN</DistanceMeters>
          </Trackpoint>
          <Trackpoint>
            <Time>2018-12-30T14:04:50.000Z</Time>
            <Position>
              <LatitudeDegrees>40.7421650178730487823486328125</LatitudeDegrees>
              <LongitudeDegrees>-4.07997560687363147735595703125</LongitudeDegrees>
            </Position>
            <AltitudeMeters>1369.199951171875</AltitudeMeters>
            <DistanceMeters>NAN</DistanceMeters>
          </Trackpoint>
          <Trackpoint>
            <Time>2018-12-30T14:04:51.000Z</Time>
            <Position>
              <LatitudeDegrees>40.7421606592833995819091796875</LatitudeDegrees>
              <LongitudeDegrees>-4.07996789552271366119384765625</LongitudeDegrees>
            </Position>
            <AltitudeMeters>1369</AltitudeMeters>
            <DistanceMeters>NAN</DistanceMeters>
          </Trackpoint>
          <Trackpoint>
            <Time>2018-12-30T14:04:52.000Z</Time>
            <Position>
              <LatitudeDegrees>40.74215076863765716552734375</LatitudeDegrees>
              <LongitudeDegrees>-4.07996152527630329132080078125</LongitudeDegrees>
            </Position>
            <AltitudeMeters>1369</AltitudeMeters>
            <DistanceMeters>NAN</DistanceMeters>
          </Trackpoint>
          <Trackpoint>
            <Time>2018-12-30T14:04:53.000Z</Time>
            <Position>
              <LatitudeDegrees>40.74214196763932704925537109375</LatitudeDegrees>
              <LongitudeDegrees>-4.07995465211570262908935546875</LongitudeDegrees>
            </Position>
            <AltitudeMeters>1368.800048828125</AltitudeMeters>
            <DistanceMeters>NAN</DistanceMeters>
          </Trackpoint>
          <Trackpoint>
            <Time>2018-12-30T14:04:54.000Z</Time>
            <Position>
              <LatitudeDegrees>40.742135010659694671630859375</LatitudeDegrees>
              <LongitudeDegrees>-4.07994945533573627471923828125</LongitudeDegrees>
            </Position>
            <AltitudeMeters>1368.5999755859375</AltitudeMeters>
            <DistanceMeters>NAN</DistanceMeters>
          </Trackpoint>
          <Trackpoint>
            <Time>2018-12-30T14:04:55.000Z</Time>
            <Position>
              <LatitudeDegrees>40.7421328313648700714111328125</LatitudeDegrees>
              <LongitudeDegrees>-4.0799428336322307586669921875</LongitudeDegrees>
            </Position>
            <AltitudeMeters>1368.4000244140625</AltitudeMeters>
            <DistanceMeters>NAN</DistanceMeters>
          </Trackpoint>
          <Trackpoint>
            <Time>2018-12-30T14:04:56.000Z</Time>
            <Position>
              <LatitudeDegrees>40.74213660322129726409912109375</LatitudeDegrees>
              <LongitudeDegrees>-4.07992933876812458038330078125</LongitudeDegrees>
            </Position>
            <AltitudeMeters>1368.199951171875</AltitudeMeters>
            <DistanceMeters>NAN</DistanceMeters>
          </Trackpoint>
          <Trackpoint>
            <Time>2018-12-30T14:04:57.000Z</Time>
            <Position>
              <LatitudeDegrees>40.742137022316455841064453125</LatitudeDegrees>
              <LongitudeDegrees>-4.07991542480885982513427734375</LongitudeDegrees>
            </Position>
            <AltitudeMeters>1368</AltitudeMeters>
            <DistanceMeters>NAN</DistanceMeters>
          </Trackpoint>
          <Trackpoint>
            <Time>2018-12-30T14:04:58.000Z</Time>
            <Position>
              <LatitudeDegrees>40.7421358488500118255615234375</LatitudeDegrees>
              <LongitudeDegrees>-4.07990503124892711639404296875</LongitudeDegrees>
            </Position>
            <AltitudeMeters>1367.800048828125</AltitudeMeters>
            <DistanceMeters>NAN</DistanceMeters>
          </Trackpoint>
          <Trackpoint>
            <Time>2018-12-30T14:04:59.000Z</Time>
            <Position>
              <LatitudeDegrees>40.74213157407939434051513671875</LatitudeDegrees>
              <LongitudeDegrees>-4.0798965655267238616943359375</LongitudeDegrees>
            </Position>
            <AltitudeMeters>1367.800048828125</AltitudeMeters>
            <DistanceMeters>NAN</DistanceMeters>
          </Trackpoint>
          <Trackpoint>
            <Time>2018-12-30T14:05:00.000Z</Time>
            <Position>
              <LatitudeDegrees>40.7421257905662059783935546875</LatitudeDegrees>
              <LongitudeDegrees>-4.07989094965159893035888671875</LongitudeDegrees>
            </Position>
            <AltitudeMeters>1367.800048828125</AltitudeMeters>
            <DistanceMeters>NAN</DistanceMeters>
          </Trackpoint>
          <Trackpoint>
            <Time>2018-12-30T14:05:01.000Z</Time>
            <Position>
              <LatitudeDegrees>40.74211397208273410797119140625</LatitudeDegrees>
              <LongitudeDegrees>-4.07988642342388629913330078125</LongitudeDegrees>
            </Position>
            <AltitudeMeters>1367.800048828125</AltitudeMeters>
            <DistanceMeters>NAN</DistanceMeters>
          </Trackpoint>
          <Trackpoint>
            <Time>2018-12-30T14:05:02.000Z</Time>
            <Position>
              <LatitudeDegrees>40.74210793711245059967041015625</LatitudeDegrees>
              <LongitudeDegrees>-4.07987929880619049072265625</LongitudeDegrees>
            </Position>
            <AltitudeMeters>1367.5999755859375</AltitudeMeters>
            <DistanceMeters>NAN</DistanceMeters>
          </Trackpoint>
          <Trackpoint>
            <Time>2018-12-30T14:05:03.000Z</Time>
            <Position>
              <LatitudeDegrees>40.74209754355251789093017578125</LatitudeDegrees>
              <LongitudeDegrees>-4.0798700787127017974853515625</LongitudeDegrees>
            </Position>
            <AltitudeMeters>1367.5999755859375</AltitudeMeters>
            <DistanceMeters>NAN</DistanceMeters>
          </Trackpoint>
          <Trackpoint>
            <Time>2018-12-30T14:05:04.000Z</Time>
            <Position>
              <LatitudeDegrees>40.74208212085068225860595703125</LatitudeDegrees>
              <LongitudeDegrees>-4.079864881932735443115234375</LongitudeDegrees>
            </Position>
            <AltitudeMeters>1367.4000244140625</AltitudeMeters>
            <DistanceMeters>NAN</DistanceMeters>
          </Trackpoint>
          <Trackpoint>
            <Time>2018-12-30T14:05:05.000Z</Time>
            <Position>
              <LatitudeDegrees>40.74207206256687641143798828125</LatitudeDegrees>
              <LongitudeDegrees>-4.07985909841954708099365234375</LongitudeDegrees>
            </Position>
            <AltitudeMeters>1367.4000244140625</AltitudeMeters>
            <DistanceMeters>NAN</DistanceMeters>
          </Trackpoint>
          <Trackpoint>
            <Time>2018-12-30T14:05:06.000Z</Time>
            <Position>
              <LatitudeDegrees>40.7420610822737216949462890625</LatitudeDegrees>
              <LongitudeDegrees>-4.0798516385257244110107421875</LongitudeDegrees>
            </Position>
            <AltitudeMeters>1367.199951171875</AltitudeMeters>
            <DistanceMeters>NAN</DistanceMeters>
          </Trackpoint>
          <Trackpoint>
            <Time>2018-12-30T14:05:07.000Z</Time>
            <Position>
              <LatitudeDegrees>40.7420493476092815399169921875</LatitudeDegrees>
              <LongitudeDegrees>-4.07984652556478977203369140625</LongitudeDegrees>
            </Position>
            <AltitudeMeters>1367</AltitudeMeters>
            <DistanceMeters>NAN</DistanceMeters>
          </Trackpoint>
          <Trackpoint>
            <Time>2018-12-30T14:05:08.000Z</Time>
            <Position>
              <LatitudeDegrees>40.74204037897288799285888671875</LatitudeDegrees>
              <LongitudeDegrees>-4.07983898185193538665771484375</LongitudeDegrees>
            </Position>
            <AltitudeMeters>1366.800048828125</AltitudeMeters>
            <DistanceMeters>NAN</DistanceMeters>
          </Trackpoint>
          <Trackpoint>
            <Time>2018-12-30T14:05:09.000Z</Time>
            <Position>
              <LatitudeDegrees>40.74203384108841419219970703125</LatitudeDegrees>
              <LongitudeDegrees>-4.07983512617647647857666015625</LongitudeDegrees>
            </Position>
            <AltitudeMeters>1366.5999755859375</AltitudeMeters>
            <DistanceMeters>NAN</DistanceMeters>
          </Trackpoint>
          <Trackpoint>
            <Time>2018-12-30T14:05:10.000Z</Time>
            <Position>
              <LatitudeDegrees>40.74203032068908214569091796875</LatitudeDegrees>
              <LongitudeDegrees>-4.0798129141330718994140625</LongitudeDegrees>
            </Position>
            <AltitudeMeters>1366.4000244140625</AltitudeMeters>
            <DistanceMeters>NAN</DistanceMeters>
          </Trackpoint>
          <Trackpoint>
            <Time>2018-12-30T14:05:11.000Z</Time>
            <Position>
              <LatitudeDegrees>40.74201992712914943695068359375</LatitudeDegrees>
              <LongitudeDegrees>-4.07979883253574371337890625</LongitudeDegrees>
            </Position>
            <AltitudeMeters>1366.199951171875</AltitudeMeters>
            <DistanceMeters>NAN</DistanceMeters>
          </Trackpoint>
          <Trackpoint>
            <Time>2018-12-30T14:05:12.000Z</Time>
            <Position>
              <LatitudeDegrees>40.74201288633048534393310546875</LatitudeDegrees>
              <LongitudeDegrees>-4.079783745110034942626953125</LongitudeDegrees>
            </Position>
            <AltitudeMeters>1366.199951171875</AltitudeMeters>
            <DistanceMeters>NAN</DistanceMeters>
          </Trackpoint>
          <Trackpoint>
            <Time>2018-12-30T14:05:13.000Z</Time>
            <Position>
              <LatitudeDegrees>40.7420027442276477813720703125</LatitudeDegrees>
              <LongitudeDegrees>-4.07977729104459285736083984375</LongitudeDegrees>
            </Position>
            <AltitudeMeters>1366</AltitudeMeters>
            <DistanceMeters>NAN</DistanceMeters>
          </Trackpoint>
          <Trackpoint>
            <Time>2018-12-30T14:05:14.000Z</Time>
            <Position>
              <LatitudeDegrees>40.74199226684868335723876953125</LatitudeDegrees>
              <LongitudeDegrees>-4.07976455055177211761474609375</LongitudeDegrees>
            </Position>
            <AltitudeMeters>1366</AltitudeMeters>
            <DistanceMeters>NAN</DistanceMeters>
          </Trackpoint>
          <Trackpoint>
            <Time>2018-12-30T14:05:15.000Z</Time>
            <Position>
              <LatitudeDegrees>40.74198246002197265625</LatitudeDegrees>
              <LongitudeDegrees>-4.0797580964863300323486328125</LongitudeDegrees>
            </Position>
            <AltitudeMeters>1366</AltitudeMeters>
            <DistanceMeters>NAN</DistanceMeters>
          </Trackpoint>
          <Trackpoint>
            <Time>2018-12-30T14:05:16.000Z</Time>
            <Position>
              <LatitudeDegrees>40.7419752515852451324462890625</LatitudeDegrees>
              <LongitudeDegrees>-4.07975097186863422393798828125</LongitudeDegrees>
            </Position>
            <AltitudeMeters>1366</AltitudeMeters>
            <DistanceMeters>NAN</DistanceMeters>
          </Trackpoint>
          <Trackpoint>
            <Time>2018-12-30T14:05:17.000Z</Time>
            <Position>
              <LatitudeDegrees>40.74196628294885158538818359375</LatitudeDegrees>
              <LongitudeDegrees>-4.079742841422557830810546875</LongitudeDegrees>
            </Position>
            <AltitudeMeters>1366</AltitudeMeters>
            <DistanceMeters>NAN</DistanceMeters>
          </Trackpoint>
          <Trackpoint>
            <Time>2018-12-30T14:05:18.000Z</Time>
            <Position>
              <LatitudeDegrees>40.741956643760204315185546875</LatitudeDegrees>
              <LongitudeDegrees>-4.07973638735711574554443359375</LongitudeDegrees>
            </Position>
            <AltitudeMeters>1366.199951171875</AltitudeMeters>
            <DistanceMeters>NAN</DistanceMeters>
          </Trackpoint>
          <Trackpoint>
            <Time>2018-12-30T14:05:19.000Z</Time>
            <Position>
              <LatitudeDegrees>40.7419477589428424835205078125</LatitudeDegrees>
              <LongitudeDegrees>-4.0797302685678005218505859375</LongitudeDegrees>
            </Position>
            <AltitudeMeters>1366.4000244140625</AltitudeMeters>
            <DistanceMeters>NAN</DistanceMeters>
          </Trackpoint>
          <Trackpoint>
            <Time>2018-12-30T14:05:20.000Z</Time>
            <Position>
              <LatitudeDegrees>40.74193895794451236724853515625</LatitudeDegrees>
              <LongitudeDegrees>-4.07971979118883609771728515625</LongitudeDegrees>
            </Position>
            <AltitudeMeters>1366.4000244140625</AltitudeMeters>
            <DistanceMeters>NAN</DistanceMeters>
          </Trackpoint>
          <Trackpoint>
            <Time>2018-12-30T14:05:21.000Z</Time>
            <Position>
              <LatitudeDegrees>40.74192957021296024322509765625</LatitudeDegrees>
              <LongitudeDegrees>-4.07970353029668331146240234375</LongitudeDegrees>
            </Position>
            <AltitudeMeters>1366.5999755859375</AltitudeMeters>
            <DistanceMeters>NAN</DistanceMeters>
          </Trackpoint>
          <Trackpoint>
            <Time>2018-12-30T14:05:22.000Z</Time>
            <Position>
              <LatitudeDegrees>40.7419162429869174957275390625</LatitudeDegrees>
              <LongitudeDegrees>-4.07968752086162567138671875</LongitudeDegrees>
            </Position>
            <AltitudeMeters>1366.5999755859375</AltitudeMeters>
            <DistanceMeters>NAN</DistanceMeters>
          </Trackpoint>
          <Trackpoint>
            <Time>2018-12-30T14:05:23.000Z</Time>
            <Position>
              <LatitudeDegrees>40.741906352341175079345703125</LatitudeDegrees>
              <LongitudeDegrees>-4.07966748811304569244384765625</LongitudeDegrees>
            </Position>
            <AltitudeMeters>1366.5999755859375</AltitudeMeters>
            <DistanceMeters>NAN</DistanceMeters>
          </Trackpoint>
          <Trackpoint>
            <Time>2018-12-30T14:05:24.000Z</Time>
            <Position>
              <LatitudeDegrees>40.7418967969715595245361328125</LatitudeDegrees>
              <LongitudeDegrees>-4.07965089194476604461669921875</LongitudeDegrees>
            </Position>
            <AltitudeMeters>1366.5999755859375</AltitudeMeters>
            <DistanceMeters>NAN</DistanceMeters>
          </Trackpoint>
          <Trackpoint>
            <Time>2018-12-30T14:05:25.000Z</Time>
            <Position>
              <LatitudeDegrees>40.74189059436321258544921875</LatitudeDegrees>
              <LongitudeDegrees>-4.07963865436613559722900390625</LongitudeDegrees>
            </Position>
            <AltitudeMeters>1366.4000244140625</AltitudeMeters>
            <DistanceMeters>NAN</DistanceMeters>
          </Trackpoint>
          <Trackpoint>
            <Time>2018-12-30T14:05:26.000Z</Time>
            <Position>
              <LatitudeDegrees>40.7418746687471866607666015625</LatitudeDegrees>
              <LongitudeDegrees>-4.07963546924293041229248046875</LongitudeDegrees>
            </Position>
            <AltitudeMeters>1366.199951171875</AltitudeMeters>
            <DistanceMeters>NAN</DistanceMeters>
          </Trackpoint>
          <Trackpoint>
            <Time>2018-12-30T14:05:27.000Z</Time>
            <Position>
              <LatitudeDegrees>40.741867125034332275390625</LatitudeDegrees>
              <LongitudeDegrees>-4.079626165330410003662109375</LongitudeDegrees>
            </Position>
            <AltitudeMeters>1366</AltitudeMeters>
            <DistanceMeters>NAN</DistanceMeters>
          </Trackpoint>
          <Trackpoint>
            <Time>2018-12-30T14:05:28.000Z</Time>
            <Position>
              <LatitudeDegrees>40.7418577373027801513671875</LatitudeDegrees>
              <LongitudeDegrees>-4.07961367629468441009521484375</LongitudeDegrees>
            </Position>
            <AltitudeMeters>1365.800048828125</AltitudeMeters>
            <DistanceMeters>NAN</DistanceMeters>
          </Trackpoint>
          <Trackpoint>
            <Time>2018-12-30T14:05:29.000Z</Time>
            <Position>
              <LatitudeDegrees>40.74184642173349857330322265625</LatitudeDegrees>
              <LongitudeDegrees>-4.07960797660052776336669921875</LongitudeDegrees>
            </Position>
            <AltitudeMeters>1365.800048828125</AltitudeMeters>
            <DistanceMeters>NAN</DistanceMeters>
          </Trackpoint>
          <Trackpoint>
            <Time>2018-12-30T14:05:30.000Z</Time>
            <Position>
              <LatitudeDegrees>40.741837285459041595458984375</LatitudeDegrees>
              <LongitudeDegrees>-4.07960194163024425506591796875</LongitudeDegrees>
            </Position>
            <AltitudeMeters>1365.4000244140625</AltitudeMeters>
            <DistanceMeters>NAN</DistanceMeters>
          </Trackpoint>
          <Trackpoint>
            <Time>2018-12-30T14:05:31.000Z</Time>
            <Position>
              <LatitudeDegrees>40.74182563461363315582275390625</LatitudeDegrees>
              <LongitudeDegrees>-4.0795983374118804931640625</LongitudeDegrees>
            </Position>
            <AltitudeMeters>1365.199951171875</AltitudeMeters>
            <DistanceMeters>NAN</DistanceMeters>
          </Trackpoint>
          <Trackpoint>
            <Time>2018-12-30T14:05:32.000Z</Time>
            <Position>
              <LatitudeDegrees>40.741813145577907562255859375</LatitudeDegrees>
              <LongitudeDegrees>-4.079592637717723846435546875</LongitudeDegrees>
            </Position>
            <AltitudeMeters>1365</AltitudeMeters>
            <DistanceMeters>NAN</DistanceMeters>
          </Trackpoint>
          <Trackpoint>
            <Time>2018-12-30T14:05:33.000Z</Time>
            <Position>
              <LatitudeDegrees>40.74180652387440204620361328125</LatitudeDegrees>
              <LongitudeDegrees>-4.0795864351093769073486328125</LongitudeDegrees>
            </Position>
            <AltitudeMeters>1364.800048828125</AltitudeMeters>
            <DistanceMeters>NAN</DistanceMeters>
          </Trackpoint>
          <Trackpoint>
            <Time>2018-12-30T14:05:34.000Z</Time>
            <Position>
              <LatitudeDegrees>40.7417978905141353607177734375</LatitudeDegrees>
              <LongitudeDegrees>-4.07958182506263256072998046875</LongitudeDegrees>
            </Position>
            <AltitudeMeters>1364.5999755859375</AltitudeMeters>
            <DistanceMeters>NAN</DistanceMeters>
          </Trackpoint>
          <Trackpoint>
            <Time>2018-12-30T14:05:35.000Z</Time>
            <Position>
              <LatitudeDegrees>40.74179260991513729095458984375</LatitudeDegrees>
              <LongitudeDegrees>-4.0795736946165561676025390625</LongitudeDegrees>
            </Position>
            <AltitudeMeters>1364.199951171875</AltitudeMeters>
            <DistanceMeters>NAN</DistanceMeters>
          </Trackpoint>
          <Trackpoint>
            <Time>2018-12-30T14:05:36.000Z</Time>
            <Position>
              <LatitudeDegrees>40.74178221635520458221435546875</LatitudeDegrees>
              <LongitudeDegrees>-4.07956975512206554412841796875</LongitudeDegrees>
            </Position>
            <AltitudeMeters>1363.800048828125</AltitudeMeters>
            <DistanceMeters>NAN</DistanceMeters>
          </Trackpoint>
          <Trackpoint>
            <Time>2018-12-30T14:05:37.000Z</Time>
            <Position>
              <LatitudeDegrees>40.741781294345855712890625</LatitudeDegrees>
              <LongitudeDegrees>-4.07955802045762538909912109375</LongitudeDegrees>
            </Position>
            <AltitudeMeters>1363.5999755859375</AltitudeMeters>
            <DistanceMeters>NAN</DistanceMeters>
          </Trackpoint>
          <Trackpoint>
            <Time>2018-12-30T14:05:38.000Z</Time>
            <Position>
              <LatitudeDegrees>40.74177953414618968963623046875</LatitudeDegrees>
              <LongitudeDegrees>-4.07954393886029720306396484375</LongitudeDegrees>
            </Position>
            <AltitudeMeters>1363.4000244140625</AltitudeMeters>
            <DistanceMeters>NAN</DistanceMeters>
          </Trackpoint>
          <Trackpoint>
            <Time>2018-12-30T14:05:39.000Z</Time>
            <Position>
              <LatitudeDegrees>40.74177802540361881256103515625</LatitudeDegrees>
              <LongitudeDegrees>-4.0795301087200641632080078125</LongitudeDegrees>
            </Position>
            <AltitudeMeters>1363.199951171875</AltitudeMeters>
            <DistanceMeters>NAN</DistanceMeters>
          </Trackpoint>
          <Trackpoint>
            <Time>2018-12-30T14:05:40.000Z</Time>
            <Position>
              <LatitudeDegrees>40.74177182279527187347412109375</LatitudeDegrees>
              <LongitudeDegrees>-4.0795136801898479461669921875</LongitudeDegrees>
            </Position>
            <AltitudeMeters>1363</AltitudeMeters>
            <DistanceMeters>NAN</DistanceMeters>
          </Trackpoint>
          <Trackpoint>
            <Time>2018-12-30T14:05:41.000Z</Time>
            <Position>
              <LatitudeDegrees>40.74176109395921230316162109375</LatitudeDegrees>
              <LongitudeDegrees>-4.079501442611217498779296875</LongitudeDegrees>
            </Position>
            <AltitudeMeters>1362.800048828125</AltitudeMeters>
            <DistanceMeters>NAN</DistanceMeters>
          </Trackpoint>
          <Trackpoint>
            <Time>2018-12-30T14:05:42.000Z</Time>
            <Position>
              <LatitudeDegrees>40.7417506165802478790283203125</LatitudeDegrees>
              <LongitudeDegrees>-4.0794875286519527435302734375</LongitudeDegrees>
            </Position>
            <AltitudeMeters>1362.800048828125</AltitudeMeters>
            <DistanceMeters>NAN</DistanceMeters>
          </Trackpoint>
          <Trackpoint>
            <Time>2018-12-30T14:05:43.000Z</Time>
            <Position>
              <LatitudeDegrees>40.74173578061163425445556640625</LatitudeDegrees>
              <LongitudeDegrees>-4.07947235740721225738525390625</LongitudeDegrees>
            </Position>
            <AltitudeMeters>1362.800048828125</AltitudeMeters>
            <DistanceMeters>NAN</DistanceMeters>
          </Trackpoint>
          <Trackpoint>
            <Time>2018-12-30T14:05:44.000Z</Time>
            <Position>
              <LatitudeDegrees>40.7417167536914348602294921875</LatitudeDegrees>
              <LongitudeDegrees>-4.0794684179127216339111328125</LongitudeDegrees>
            </Position>
            <AltitudeMeters>1362.5999755859375</AltitudeMeters>
            <DistanceMeters>NAN</DistanceMeters>
          </Trackpoint>
          <Trackpoint>
            <Time>2018-12-30T14:05:45.000Z</Time>
            <Position>
              <LatitudeDegrees>40.7417063601315021514892578125</LatitudeDegrees>
              <LongitudeDegrees>-4.07945685088634490966796875</LongitudeDegrees>
            </Position>
            <AltitudeMeters>1362.4000244140625</AltitudeMeters>
            <DistanceMeters>NAN</DistanceMeters>
          </Trackpoint>
          <Trackpoint>
            <Time>2018-12-30T14:05:46.000Z</Time>
            <Position>
              <LatitudeDegrees>40.74170040898025035858154296875</LatitudeDegrees>
              <LongitudeDegrees>-4.07945039682090282440185546875</LongitudeDegrees>
            </Position>
            <AltitudeMeters>1362.199951171875</AltitudeMeters>
            <DistanceMeters>NAN</DistanceMeters>
          </Trackpoint>
          <Trackpoint>
            <Time>2018-12-30T14:05:47.000Z</Time>
            <Position>
              <LatitudeDegrees>40.741697810590267181396484375</LatitudeDegrees>
              <LongitudeDegrees>-4.079438745975494384765625</LongitudeDegrees>
            </Position>
            <AltitudeMeters>1361.800048828125</AltitudeMeters>
            <DistanceMeters>NAN</DistanceMeters>
          </Trackpoint>
          <Trackpoint>
            <Time>2018-12-30T14:05:48.000Z</Time>
            <Position>
              <LatitudeDegrees>40.74169001542031764984130859375</LatitudeDegrees>
              <LongitudeDegrees>-4.07942944206297397613525390625</LongitudeDegrees>
            </Position>
            <AltitudeMeters>1361.5999755859375</AltitudeMeters>
            <DistanceMeters>NAN</DistanceMeters>
          </Trackpoint>
          <Trackpoint>
            <Time>2018-12-30T14:05:49.000Z</Time>
            <Position>
              <LatitudeDegrees>40.7416828908026218414306640625</LatitudeDegrees>
              <LongitudeDegrees>-4.07942692749202251434326171875</LongitudeDegrees>
            </Position>
            <AltitudeMeters>1361.5999755859375</AltitudeMeters>
            <DistanceMeters>NAN</DistanceMeters>
          </Trackpoint>
          <Trackpoint>
            <Time>2018-12-30T14:05:50.000Z</Time>
            <Position>
              <LatitudeDegrees>40.74167660437524318695068359375</LatitudeDegrees>
              <LongitudeDegrees>-4.079419635236263275146484375</LongitudeDegrees>
            </Position>
            <AltitudeMeters>1361.5999755859375</AltitudeMeters>
            <DistanceMeters>NAN</DistanceMeters>
          </Trackpoint>
          <Trackpoint>
            <Time>2018-12-30T14:05:51.000Z</Time>
            <Position>
              <LatitudeDegrees>40.741668306291103363037109375</LatitudeDegrees>
              <LongitudeDegrees>-4.07940924167633056640625</LongitudeDegrees>
            </Position>
            <AltitudeMeters>1361.4000244140625</AltitudeMeters>
            <DistanceMeters>NAN</DistanceMeters>
          </Trackpoint>
          <Trackpoint>
            <Time>2018-12-30T14:05:52.000Z</Time>
            <Position>
              <LatitudeDegrees>40.74166436679661273956298828125</LatitudeDegrees>
              <LongitudeDegrees>-4.07940446399152278900146484375</LongitudeDegrees>
            </Position>
            <AltitudeMeters>1361.4000244140625</AltitudeMeters>
            <DistanceMeters>NAN</DistanceMeters>
          </Trackpoint>
          <Trackpoint>
            <Time>2018-12-30T14:05:53.000Z</Time>
            <Position>
              <LatitudeDegrees>40.74166000820696353912353515625</LatitudeDegrees>
              <LongitudeDegrees>-4.079396836459636688232421875</LongitudeDegrees>
            </Position>
            <AltitudeMeters>1361.4000244140625</AltitudeMeters>
            <DistanceMeters>NAN</DistanceMeters>
          </Trackpoint>
          <Trackpoint>
            <Time>2018-12-30T14:05:54.000Z</Time>
            <Position>
              <LatitudeDegrees>40.7416490279138088226318359375</LatitudeDegrees>
              <LongitudeDegrees>-4.079396836459636688232421875</LongitudeDegrees>
            </Position>
            <AltitudeMeters>1361.4000244140625</AltitudeMeters>
            <DistanceMeters>NAN</DistanceMeters>
          </Trackpoint>
          <Trackpoint>
            <Time>2018-12-30T14:05:55.000Z</Time>
            <Position>
              <LatitudeDegrees>40.74164005927741527557373046875</LatitudeDegrees>
              <LongitudeDegrees>-4.07937864772975444793701171875</LongitudeDegrees>
            </Position>
            <AltitudeMeters>1361.4000244140625</AltitudeMeters>
            <DistanceMeters>NAN</DistanceMeters>
          </Trackpoint>
          <Trackpoint>
            <Time>2018-12-30T14:05:56.000Z</Time>
            <Position>
              <LatitudeDegrees>40.741630755364894866943359375</LatitudeDegrees>
              <LongitudeDegrees>-4.07936959527432918548583984375</LongitudeDegrees>
            </Position>
            <AltitudeMeters>1361.4000244140625</AltitudeMeters>
            <DistanceMeters>NAN</DistanceMeters>
          </Trackpoint>
          <Trackpoint>
            <Time>2018-12-30T14:05:57.000Z</Time>
            <Position>
              <LatitudeDegrees>40.741633437573909759521484375</LatitudeDegrees>
              <LongitudeDegrees>-4.0793550945818424224853515625</LongitudeDegrees>
            </Position>
            <AltitudeMeters>1361.4000244140625</AltitudeMeters>
            <DistanceMeters>NAN</DistanceMeters>
          </Trackpoint>
          <Trackpoint>
            <Time>2018-12-30T14:05:58.000Z</Time>
            <Position>
              <LatitudeDegrees>40.741630084812641143798828125</LatitudeDegrees>
              <LongitudeDegrees>-4.07933975569903850555419921875</LongitudeDegrees>
            </Position>
            <AltitudeMeters>1361.4000244140625</AltitudeMeters>
            <DistanceMeters>NAN</DistanceMeters>
          </Trackpoint>
          <Trackpoint>
            <Time>2018-12-30T14:05:59.000Z</Time>
            <Position>
              <LatitudeDegrees>40.74163704179227352142333984375</LatitudeDegrees>
              <LongitudeDegrees>-4.0793064795434474945068359375</LongitudeDegrees>
            </Position>
            <AltitudeMeters>1361.4000244140625</AltitudeMeters>
            <DistanceMeters>NAN</DistanceMeters>
          </Trackpoint>
          <Trackpoint>
            <Time>2018-12-30T14:06:00.000Z</Time>
            <Position>
              <LatitudeDegrees>40.74163838289678096771240234375</LatitudeDegrees>
              <LongitudeDegrees>-4.07929231412708759307861328125</LongitudeDegrees>
            </Position>
            <AltitudeMeters>1361.4000244140625</AltitudeMeters>
            <DistanceMeters>NAN</DistanceMeters>
          </Trackpoint>
          <Trackpoint>
            <Time>2018-12-30T14:06:01.000Z</Time>
            <Position>
              <LatitudeDegrees>40.7416404783725738525390625</LatitudeDegrees>
              <LongitudeDegrees>-4.07928518950939178466796875</LongitudeDegrees>
            </Position>
            <AltitudeMeters>1361.4000244140625</AltitudeMeters>
            <DistanceMeters>NAN</DistanceMeters>
          </Trackpoint>
          <Trackpoint>
            <Time>2018-12-30T14:06:02.000Z</Time>
            <Position>
              <LatitudeDegrees>40.74165866710245609283447265625</LatitudeDegrees>
              <LongitudeDegrees>-4.07927085645496845245361328125</LongitudeDegrees>
            </Position>
            <AltitudeMeters>1361.4000244140625</AltitudeMeters>
            <DistanceMeters>NAN</DistanceMeters>
          </Trackpoint>
          <Trackpoint>
            <Time>2018-12-30T14:06:03.000Z</Time>
            <Position>
              <LatitudeDegrees>40.74165397323668003082275390625</LatitudeDegrees>
              <LongitudeDegrees>-4.07926775515079498291015625</LongitudeDegrees>
            </Position>
            <AltitudeMeters>1361.4000244140625</AltitudeMeters>
            <DistanceMeters>NAN</DistanceMeters>
          </Trackpoint>
          <Trackpoint>
            <Time>2018-12-30T14:06:04.000Z</Time>
            <Position>
              <LatitudeDegrees>40.74164944700896739959716796875</LatitudeDegrees>
              <LongitudeDegrees>-4.07926716841757297515869140625</LongitudeDegrees>
            </Position>
            <AltitudeMeters>1361.4000244140625</AltitudeMeters>
            <DistanceMeters>NAN</DistanceMeters>
          </Trackpoint>
          <Trackpoint>
            <Time>2018-12-30T14:06:05.000Z</Time>
            <Position>
              <LatitudeDegrees>40.74163469485938549041748046875</LatitudeDegrees>
              <LongitudeDegrees>-4.0792695991694927215576171875</LongitudeDegrees>
            </Position>
            <AltitudeMeters>1361.4000244140625</AltitudeMeters>
            <DistanceMeters>NAN</DistanceMeters>
          </Trackpoint>
          <Trackpoint>
            <Time>2018-12-30T14:06:06.000Z</Time>
            <Position>
              <LatitudeDegrees>40.7416208647191524505615234375</LatitudeDegrees>
              <LongitudeDegrees>-4.07927370630204677581787109375</LongitudeDegrees>
            </Position>
            <AltitudeMeters>1361.5999755859375</AltitudeMeters>
            <DistanceMeters>NAN</DistanceMeters>
          </Trackpoint>
          <Trackpoint>
            <Time>2018-12-30T14:06:07.000Z</Time>
            <Position>
              <LatitudeDegrees>40.74161164462566375732421875</LatitudeDegrees>
              <LongitudeDegrees>-4.079275466501712799072265625</LongitudeDegrees>
            </Position>
            <AltitudeMeters>1361.5999755859375</AltitudeMeters>
            <DistanceMeters>NAN</DistanceMeters>
          </Trackpoint>
          <Trackpoint>
            <Time>2018-12-30T14:06:08.000Z</Time>
            <Position>
              <LatitudeDegrees>40.74161156080663204193115234375</LatitudeDegrees>
              <LongitudeDegrees>-4.07927236519753932952880859375</LongitudeDegrees>
            </Position>
            <AltitudeMeters>1361.5999755859375</AltitudeMeters>
            <DistanceMeters>NAN</DistanceMeters>
          </Trackpoint>
          <Trackpoint>
            <Time>2018-12-30T14:06:09.000Z</Time>
            <Position>
              <LatitudeDegrees>40.74161524884402751922607421875</LatitudeDegrees>
              <LongitudeDegrees>-4.0792711079120635986328125</LongitudeDegrees>
            </Position>
            <AltitudeMeters>1361.5999755859375</AltitudeMeters>
            <DistanceMeters>NAN</DistanceMeters>
          </Trackpoint>
          <Trackpoint>
            <Time>2018-12-30T14:06:10.000Z</Time>
            <Position>
              <LatitudeDegrees>40.74161692522466182708740234375</LatitudeDegrees>
              <LongitudeDegrees>-4.0792692638933658599853515625</LongitudeDegrees>
            </Position>
            <AltitudeMeters>1361.4000244140625</AltitudeMeters>
            <DistanceMeters>NAN</DistanceMeters>
          </Trackpoint>
          <Trackpoint>
            <Time>2018-12-30T14:06:11.000Z</Time>
            <Position>
              <LatitudeDegrees>40.74160552583634853363037109375</LatitudeDegrees>
              <LongitudeDegrees>-4.0792682580649852752685546875</LongitudeDegrees>
            </Position>
            <AltitudeMeters>1361.4000244140625</AltitudeMeters>
            <DistanceMeters>NAN</DistanceMeters>
          </Trackpoint>
          <Trackpoint>
            <Time>2018-12-30T14:06:12.000Z</Time>
            <Position>
              <LatitudeDegrees>40.74159831739962100982666015625</LatitudeDegrees>
              <LongitudeDegrees>-4.079266749322414398193359375</LongitudeDegrees>
            </Position>
            <AltitudeMeters>1361.199951171875</AltitudeMeters>
            <DistanceMeters>NAN</DistanceMeters>
          </Trackpoint>
          <Trackpoint>
            <Time>2018-12-30T14:06:13.000Z</Time>
            <Position>
              <LatitudeDegrees>40.74158524163067340850830078125</LatitudeDegrees>
              <LongitudeDegrees>-4.07926716841757297515869140625</LongitudeDegrees>
            </Position>
            <AltitudeMeters>1361</AltitudeMeters>
            <DistanceMeters>NAN</DistanceMeters>
          </Trackpoint>
          <Trackpoint>
            <Time>2018-12-30T14:06:14.000Z</Time>
            <Position>
              <LatitudeDegrees>40.74158742092549800872802734375</LatitudeDegrees>
              <LongitudeDegrees>-4.07926331274211406707763671875</LongitudeDegrees>
            </Position>
            <AltitudeMeters>1360.5999755859375</AltitudeMeters>
            <DistanceMeters>NAN</DistanceMeters>
          </Trackpoint>
          <Trackpoint>
            <Time>2018-12-30T14:06:15.000Z</Time>
            <Position>
              <LatitudeDegrees>40.74158473871648311614990234375</LatitudeDegrees>
              <LongitudeDegrees>-4.07926498912274837493896484375</LongitudeDegrees>
            </Position>
            <AltitudeMeters>1360.199951171875</AltitudeMeters>
            <DistanceMeters>NAN</DistanceMeters>
          </Trackpoint>
          <Trackpoint>
            <Time>2018-12-30T14:06:16.000Z</Time>
            <Position>
              <LatitudeDegrees>40.741582810878753662109375</LatitudeDegrees>
              <LongitudeDegrees>-4.07926280982792377471923828125</LongitudeDegrees>
            </Position>
            <AltitudeMeters>1359.800048828125</AltitudeMeters>
            <DistanceMeters>NAN</DistanceMeters>
          </Trackpoint>
          <Trackpoint>
            <Time>2018-12-30T14:06:17.000Z</Time>
            <Position>
              <LatitudeDegrees>40.741575770080089569091796875</LatitudeDegrees>
              <LongitudeDegrees>-4.07925702631473541259765625</LongitudeDegrees>
            </Position>
            <AltitudeMeters>1359.5999755859375</AltitudeMeters>
            <DistanceMeters>NAN</DistanceMeters>
          </Trackpoint>
          <Trackpoint>
            <Time>2018-12-30T14:06:18.000Z</Time>
            <Position>
              <LatitudeDegrees>40.74156202375888824462890625</LatitudeDegrees>
              <LongitudeDegrees>-4.07925392501056194305419921875</LongitudeDegrees>
            </Position>
            <AltitudeMeters>1359.4000244140625</AltitudeMeters>
            <DistanceMeters>NAN</DistanceMeters>
          </Trackpoint>
          <Trackpoint>
            <Time>2018-12-30T14:06:19.000Z</Time>
            <Position>
              <LatitudeDegrees>40.7415524683892726898193359375</LatitudeDegrees>
              <LongitudeDegrees>-4.07924956642091274261474609375</LongitudeDegrees>
            </Position>
            <AltitudeMeters>1359.4000244140625</AltitudeMeters>
            <DistanceMeters>NAN</DistanceMeters>
          </Trackpoint>
          <Trackpoint>
            <Time>2018-12-30T14:06:20.000Z</Time>
            <Position>
              <LatitudeDegrees>40.74154417030513286590576171875</LatitudeDegrees>
              <LongitudeDegrees>-4.07924956642091274261474609375</LongitudeDegrees>
            </Position>
            <AltitudeMeters>1359.199951171875</AltitudeMeters>
            <DistanceMeters>NAN</DistanceMeters>
          </Trackpoint>
          <Trackpoint>
            <Time>2018-12-30T14:06:21.000Z</Time>
            <Position>
              <LatitudeDegrees>40.74152774177491664886474609375</LatitudeDegrees>
              <LongitudeDegrees>-4.07925392501056194305419921875</LongitudeDegrees>
            </Position>
            <AltitudeMeters>1359.199951171875</AltitudeMeters>
            <DistanceMeters>NAN</DistanceMeters>
          </Trackpoint>
          <Trackpoint>
            <Time>2018-12-30T14:06:22.000Z</Time>
            <Position>
              <LatitudeDegrees>40.74151064269244670867919921875</LatitudeDegrees>
              <LongitudeDegrees>-4.07925861887633800506591796875</LongitudeDegrees>
            </Position>
            <AltitudeMeters>1359.199951171875</AltitudeMeters>
            <DistanceMeters>NAN</DistanceMeters>
          </Trackpoint>
          <Trackpoint>
            <Time>2018-12-30T14:06:23.000Z</Time>
            <Position>
              <LatitudeDegrees>40.741489268839359283447265625</LatitudeDegrees>
              <LongitudeDegrees>-4.0792628936469554901123046875</LongitudeDegrees>
            </Position>
            <AltitudeMeters>1359.4000244140625</AltitudeMeters>
            <DistanceMeters>NAN</DistanceMeters>
          </Trackpoint>
          <Trackpoint>
            <Time>2018-12-30T14:06:24.000Z</Time>
            <Position>
              <LatitudeDegrees>40.7414770312607288360595703125</LatitudeDegrees>
              <LongitudeDegrees>-4.07926247455179691314697265625</LongitudeDegrees>
            </Position>
            <AltitudeMeters>1359.199951171875</AltitudeMeters>
            <DistanceMeters>NAN</DistanceMeters>
          </Trackpoint>
          <Trackpoint>
            <Time>2018-12-30T14:06:25.000Z</Time>
            <Position>
              <LatitudeDegrees>40.741459429264068603515625</LatitudeDegrees>
              <LongitudeDegrees>-4.07926239073276519775390625</LongitudeDegrees>
            </Position>
            <AltitudeMeters>1359.199951171875</AltitudeMeters>
            <DistanceMeters>NAN</DistanceMeters>
          </Trackpoint>
          <Trackpoint>
            <Time>2018-12-30T14:06:26.000Z</Time>
            <Position>
              <LatitudeDegrees>40.74144710786640644073486328125</LatitudeDegrees>
              <LongitudeDegrees>-4.07925912179052829742431640625</LongitudeDegrees>
            </Position>
            <AltitudeMeters>1359</AltitudeMeters>
            <DistanceMeters>NAN</DistanceMeters>
          </Trackpoint>
          <Trackpoint>
            <Time>2018-12-30T14:06:27.000Z</Time>
            <Position>
              <LatitudeDegrees>40.741424560546875</LatitudeDegrees>
              <LongitudeDegrees>-4.07926373183727264404296875</LongitudeDegrees>
            </Position>
            <AltitudeMeters>1359</AltitudeMeters>
            <DistanceMeters>NAN</DistanceMeters>
          </Trackpoint>
          <Trackpoint>
            <Time>2018-12-30T14:06:28.000Z</Time>
            <Position>
              <LatitudeDegrees>40.741411149501800537109375</LatitudeDegrees>
              <LongitudeDegrees>-4.07926280982792377471923828125</LongitudeDegrees>
            </Position>
            <AltitudeMeters>1359</AltitudeMeters>
            <DistanceMeters>NAN</DistanceMeters>
          </Trackpoint>
          <Trackpoint>
            <Time>2018-12-30T14:06:29.000Z</Time>
            <Position>
              <LatitudeDegrees>40.74139949865639209747314453125</LatitudeDegrees>
              <LongitudeDegrees>-4.07926213927567005157470703125</LongitudeDegrees>
            </Position>
            <AltitudeMeters>1359</AltitudeMeters>
            <DistanceMeters>NAN</DistanceMeters>
          </Trackpoint>
          <Trackpoint>
            <Time>2018-12-30T14:06:30.000Z</Time>
            <Position>
              <LatitudeDegrees>40.7413923740386962890625</LatitudeDegrees>
              <LongitudeDegrees>-4.07926213927567005157470703125</LongitudeDegrees>
            </Position>
            <AltitudeMeters>1359</AltitudeMeters>
            <DistanceMeters>NAN</DistanceMeters>
          </Trackpoint>
          <Trackpoint>
            <Time>2018-12-30T14:06:31.000Z</Time>
            <Position>
              <LatitudeDegrees>40.7413868419826030731201171875</LatitudeDegrees>
              <LongitudeDegrees>-4.079262726008892059326171875</LongitudeDegrees>
            </Position>
            <AltitudeMeters>1359</AltitudeMeters>
            <DistanceMeters>NAN</DistanceMeters>
          </Trackpoint>
          <Trackpoint>
            <Time>2018-12-30T14:06:32.000Z</Time>
            <Position>
              <LatitudeDegrees>40.74137720279395580291748046875</LatitudeDegrees>
              <LongitudeDegrees>-4.07925912179052829742431640625</LongitudeDegrees>
            </Position>
            <AltitudeMeters>1359</AltitudeMeters>
            <DistanceMeters>NAN</DistanceMeters>
          </Trackpoint>
          <Trackpoint>
            <Time>2018-12-30T14:06:33.000Z</Time>
            <Position>
              <LatitudeDegrees>40.7413684017956256866455078125</LatitudeDegrees>
              <LongitudeDegrees>-4.079258702695369720458984375</LongitudeDegrees>
            </Position>
            <AltitudeMeters>1359</AltitudeMeters>
            <DistanceMeters>NAN</DistanceMeters>
          </Trackpoint>
          <Trackpoint>
            <Time>2018-12-30T14:06:34.000Z</Time>
            <Position>
              <LatitudeDegrees>40.7413642108440399169921875</LatitudeDegrees>
              <LongitudeDegrees>-4.07925945706665515899658203125</LongitudeDegrees>
            </Position>
            <AltitudeMeters>1359</AltitudeMeters>
            <DistanceMeters>NAN</DistanceMeters>
          </Trackpoint>
          <Trackpoint>
            <Time>2018-12-30T14:06:35.000Z</Time>
            <Position>
              <LatitudeDegrees>40.74136077426373958587646484375</LatitudeDegrees>
              <LongitudeDegrees>-4.07925845123827457427978515625</LongitudeDegrees>
            </Position>
            <AltitudeMeters>1358.5999755859375</AltitudeMeters>
            <DistanceMeters>NAN</DistanceMeters>
          </Trackpoint>
          <Trackpoint>
            <Time>2018-12-30T14:06:36.000Z</Time>
            <Position>
              <LatitudeDegrees>40.74135440401732921600341796875</LatitudeDegrees>
              <LongitudeDegrees>-4.0792628936469554901123046875</LongitudeDegrees>
            </Position>
            <AltitudeMeters>1358.199951171875</AltitudeMeters>
            <DistanceMeters>NAN</DistanceMeters>
          </Trackpoint>
          <Trackpoint>
            <Time>2018-12-30T14:06:37.000Z</Time>
            <Position>
              <LatitudeDegrees>40.74134149588644504547119140625</LatitudeDegrees>
              <LongitudeDegrees>-4.079270772635936737060546875</LongitudeDegrees>
            </Position>
            <AltitudeMeters>1358</AltitudeMeters>
            <DistanceMeters>NAN</DistanceMeters>
          </Trackpoint>
          <Trackpoint>
            <Time>2018-12-30T14:06:38.000Z</Time>
            <Position>
              <LatitudeDegrees>40.74133864603936672210693359375</LatitudeDegrees>
              <LongitudeDegrees>-4.079270772635936737060546875</LongitudeDegrees>
            </Position>
            <AltitudeMeters>1357.800048828125</AltitudeMeters>
            <DistanceMeters>NAN</DistanceMeters>
          </Trackpoint>
          <Trackpoint>
            <Time>2018-12-30T14:06:39.000Z</Time>
            <Position>
              <LatitudeDegrees>40.7413335330784320831298828125</LatitudeDegrees>
              <LongitudeDegrees>-4.079267084598541259765625</LongitudeDegrees>
            </Position>
            <AltitudeMeters>1357.5999755859375</AltitudeMeters>
            <DistanceMeters>NAN</DistanceMeters>
          </Trackpoint>
          <Trackpoint>
            <Time>2018-12-30T14:06:40.000Z</Time>
            <Position>
              <LatitudeDegrees>40.74132691137492656707763671875</LatitudeDegrees>
              <LongitudeDegrees>-4.0792608819901943206787109375</LongitudeDegrees>
            </Position>
            <AltitudeMeters>1357.5999755859375</AltitudeMeters>
            <DistanceMeters>NAN</DistanceMeters>
          </Trackpoint>
          <Trackpoint>
            <Time>2018-12-30T14:06:41.000Z</Time>
            <Position>
              <LatitudeDegrees>40.741322301328182220458984375</LatitudeDegrees>
              <LongitudeDegrees>-4.0792550146579742431640625</LongitudeDegrees>
            </Position>
            <AltitudeMeters>1357.5999755859375</AltitudeMeters>
            <DistanceMeters>NAN</DistanceMeters>
          </Trackpoint>
          <Trackpoint>
            <Time>2018-12-30T14:06:42.000Z</Time>
            <Position>
              <LatitudeDegrees>40.74131970293819904327392578125</LatitudeDegrees>
              <LongitudeDegrees>-4.07924906350672245025634765625</LongitudeDegrees>
            </Position>
            <AltitudeMeters>1357.5999755859375</AltitudeMeters>
            <DistanceMeters>NAN</DistanceMeters>
          </Trackpoint>
          <Trackpoint>
            <Time>2018-12-30T14:06:43.000Z</Time>
            <Position>
              <LatitudeDegrees>40.7413167692720890045166015625</LatitudeDegrees>
              <LongitudeDegrees>-4.07924084924161434173583984375</LongitudeDegrees>
            </Position>
            <AltitudeMeters>1357.5999755859375</AltitudeMeters>
            <DistanceMeters>NAN</DistanceMeters>
          </Trackpoint>
          <Trackpoint>
            <Time>2018-12-30T14:06:44.000Z</Time>
            <Position>
              <LatitudeDegrees>40.74131098575890064239501953125</LatitudeDegrees>
              <LongitudeDegrees>-4.0792337246239185333251953125</LongitudeDegrees>
            </Position>
            <AltitudeMeters>1357.5999755859375</AltitudeMeters>
            <DistanceMeters>NAN</DistanceMeters>
          </Trackpoint>
          <Trackpoint>
            <Time>2018-12-30T14:06:45.000Z</Time>
            <Position>
              <LatitudeDegrees>40.74130679480731487274169921875</LatitudeDegrees>
              <LongitudeDegrees>-4.07922576181590557098388671875</LongitudeDegrees>
            </Position>
            <AltitudeMeters>1357.4000244140625</AltitudeMeters>
            <DistanceMeters>NAN</DistanceMeters>
          </Trackpoint>
          <Trackpoint>
            <Time>2018-12-30T14:06:46.000Z</Time>
            <Position>
              <LatitudeDegrees>40.7413105666637420654296875</LatitudeDegrees>
              <LongitudeDegrees>-4.07921503297984600067138671875</LongitudeDegrees>
            </Position>
            <AltitudeMeters>1357.4000244140625</AltitudeMeters>
            <DistanceMeters>NAN</DistanceMeters>
          </Trackpoint>
          <Trackpoint>
            <Time>2018-12-30T14:06:47.000Z</Time>
            <Position>
              <LatitudeDegrees>40.7413186132907867431640625</LatitudeDegrees>
              <LongitudeDegrees>-4.07919860444962978363037109375</LongitudeDegrees>
            </Position>
            <AltitudeMeters>1357.4000244140625</AltitudeMeters>
            <DistanceMeters>NAN</DistanceMeters>
          </Trackpoint>
          <Trackpoint>
            <Time>2018-12-30T14:06:48.000Z</Time>
            <Position>
              <LatitudeDegrees>40.74133009649813175201416015625</LatitudeDegrees>
              <LongitudeDegrees>-4.0791887976229190826416015625</LongitudeDegrees>
            </Position>
            <AltitudeMeters>1357.4000244140625</AltitudeMeters>
            <DistanceMeters>NAN</DistanceMeters>
          </Trackpoint>
          <Trackpoint>
            <Time>2018-12-30T14:06:49.000Z</Time>
            <Position>
              <LatitudeDegrees>40.74133814312517642974853515625</LatitudeDegrees>
              <LongitudeDegrees>-4.0791817568242549896240234375</LongitudeDegrees>
            </Position>
            <AltitudeMeters>1357.199951171875</AltitudeMeters>
            <DistanceMeters>NAN</DistanceMeters>
          </Trackpoint>
          <Trackpoint>
            <Time>2018-12-30T14:06:50.000Z</Time>
            <Position>
              <LatitudeDegrees>40.74134333990514278411865234375</LatitudeDegrees>
              <LongitudeDegrees>-4.07917781732976436614990234375</LongitudeDegrees>
            </Position>
            <AltitudeMeters>1357.199951171875</AltitudeMeters>
            <DistanceMeters>NAN</DistanceMeters>
          </Trackpoint>
          <Trackpoint>
            <Time>2018-12-30T14:06:51.000Z</Time>
            <Position>
              <LatitudeDegrees>40.74134853668510913848876953125</LatitudeDegrees>
              <LongitudeDegrees>-4.07917111180722713470458984375</LongitudeDegrees>
            </Position>
            <AltitudeMeters>1357.199951171875</AltitudeMeters>
            <DistanceMeters>NAN</DistanceMeters>
          </Trackpoint>
          <Trackpoint>
            <Time>2018-12-30T14:06:52.000Z</Time>
            <Position>
              <LatitudeDegrees>40.741354487836360931396484375</LatitudeDegrees>
              <LongitudeDegrees>-4.07916490919888019561767578125</LongitudeDegrees>
            </Position>
            <AltitudeMeters>1357.4000244140625</AltitudeMeters>
            <DistanceMeters>NAN</DistanceMeters>
          </Trackpoint>
          <Trackpoint>
            <Time>2018-12-30T14:06:53.000Z</Time>
            <Position>
              <LatitudeDegrees>40.74137485586106777191162109375</LatitudeDegrees>
              <LongitudeDegrees>-4.0791552700102329254150390625</LongitudeDegrees>
            </Position>
            <AltitudeMeters>1357.4000244140625</AltitudeMeters>
            <DistanceMeters>NAN</DistanceMeters>
          </Trackpoint>
          <Trackpoint>
            <Time>2018-12-30T14:06:54.000Z</Time>
            <Position>
              <LatitudeDegrees>40.741408802568912506103515625</LatitudeDegrees>
              <LongitudeDegrees>-4.0791448764503002166748046875</LongitudeDegrees>
            </Position>
            <AltitudeMeters>1357.4000244140625</AltitudeMeters>
            <DistanceMeters>NAN</DistanceMeters>
          </Trackpoint>
          <Trackpoint>
            <Time>2018-12-30T14:06:55.000Z</Time>
            <Position>
              <LatitudeDegrees>40.74141575954854488372802734375</LatitudeDegrees>
              <LongitudeDegrees>-4.07914143986999988555908203125</LongitudeDegrees>
            </Position>
            <AltitudeMeters>1357.5999755859375</AltitudeMeters>
            <DistanceMeters>NAN</DistanceMeters>
          </Trackpoint>
          <Trackpoint>
            <Time>2018-12-30T14:06:56.000Z</Time>
            <Position>
              <LatitudeDegrees>40.741416513919830322265625</LatitudeDegrees>
              <LongitudeDegrees>-4.07913976348936557769775390625</LongitudeDegrees>
            </Position>
            <AltitudeMeters>1357.5999755859375</AltitudeMeters>
            <DistanceMeters>NAN</DistanceMeters>
          </Trackpoint>
          <Trackpoint>
            <Time>2018-12-30T14:06:57.000Z</Time>
            <Position>
              <LatitudeDegrees>40.74141274206340312957763671875</LatitudeDegrees>
              <LongitudeDegrees>-4.0791398473083972930908203125</LongitudeDegrees>
            </Position>
            <AltitudeMeters>1357.5999755859375</AltitudeMeters>
            <DistanceMeters>NAN</DistanceMeters>
          </Trackpoint>
          <Trackpoint>
            <Time>2018-12-30T14:06:58.000Z</Time>
            <Position>
              <LatitudeDegrees>40.74140855111181735992431640625</LatitudeDegrees>
              <LongitudeDegrees>-4.0791356563568115234375</LongitudeDegrees>
            </Position>
            <AltitudeMeters>1357.5999755859375</AltitudeMeters>
            <DistanceMeters>NAN</DistanceMeters>
          </Trackpoint>
          <Trackpoint>
            <Time>2018-12-30T14:06:59.000Z</Time>
            <Position>
              <LatitudeDegrees>40.74140469543635845184326171875</LatitudeDegrees>
              <LongitudeDegrees>-4.0791354887187480926513671875</LongitudeDegrees>
            </Position>
            <AltitudeMeters>1357.5999755859375</AltitudeMeters>
            <DistanceMeters>NAN</DistanceMeters>
          </Trackpoint>
          <Trackpoint>
            <Time>2018-12-30T14:07:00.000Z</Time>
            <Position>
              <LatitudeDegrees>40.741422884166240692138671875</LatitudeDegrees>
              <LongitudeDegrees>-4.0791314654052257537841796875</LongitudeDegrees>
            </Position>
            <AltitudeMeters>1357.5999755859375</AltitudeMeters>
            <DistanceMeters>NAN</DistanceMeters>
          </Trackpoint>
          <Trackpoint>
            <Time>2018-12-30T14:07:01.000Z</Time>
            <Position>
              <LatitudeDegrees>40.7414361275732517242431640625</LatitudeDegrees>
              <LongitudeDegrees>-4.0791297890245914459228515625</LongitudeDegrees>
            </Position>
            <AltitudeMeters>1357.4000244140625</AltitudeMeters>
            <DistanceMeters>NAN</DistanceMeters>
          </Trackpoint>
          <Trackpoint>
            <Time>2018-12-30T14:07:02.000Z</Time>
            <Position>
              <LatitudeDegrees>40.7414418272674083709716796875</LatitudeDegrees>
              <LongitudeDegrees>-4.07912953756749629974365234375</LongitudeDegrees>
            </Position>
            <AltitudeMeters>1357.4000244140625</AltitudeMeters>
            <DistanceMeters>NAN</DistanceMeters>
          </Trackpoint>
          <Trackpoint>
            <Time>2018-12-30T14:07:03.000Z</Time>
            <Position>
              <LatitudeDegrees>40.74147108010947704315185546875</LatitudeDegrees>
              <LongitudeDegrees>-4.0791150368750095367431640625</LongitudeDegrees>
            </Position>
            <AltitudeMeters>1357.4000244140625</AltitudeMeters>
            <DistanceMeters>NAN</DistanceMeters>
          </Trackpoint>
          <Trackpoint>
            <Time>2018-12-30T14:07:04.000Z</Time>
            <Position>
              <LatitudeDegrees>40.74149630963802337646484375</LatitudeDegrees>
              <LongitudeDegrees>-4.07909517176449298858642578125</LongitudeDegrees>
            </Position>
            <AltitudeMeters>1357.4000244140625</AltitudeMeters>
            <DistanceMeters>NAN</DistanceMeters>
          </Trackpoint>
          <Trackpoint>
            <Time>2018-12-30T14:07:05.000Z</Time>
            <Position>
              <LatitudeDegrees>40.74149094521999359130859375</LatitudeDegrees>
              <LongitudeDegrees>-4.07910422421991825103759765625</LongitudeDegrees>
            </Position>
            <AltitudeMeters>1357.5999755859375</AltitudeMeters>
            <DistanceMeters>NAN</DistanceMeters>
          </Trackpoint>
          <Trackpoint>
            <Time>2018-12-30T14:07:06.000Z</Time>
            <Position>
              <LatitudeDegrees>40.74151449836790561676025390625</LatitudeDegrees>
              <LongitudeDegrees>-4.07909114845097064971923828125</LongitudeDegrees>
            </Position>
            <AltitudeMeters>1357.5999755859375</AltitudeMeters>
            <DistanceMeters>NAN</DistanceMeters>
          </Trackpoint>
          <Trackpoint>
            <Time>2018-12-30T14:07:07.000Z</Time>
            <Position>
              <LatitudeDegrees>40.74151583947241306304931640625</LatitudeDegrees>
              <LongitudeDegrees>-4.0790939144790172576904296875</LongitudeDegrees>
            </Position>
            <AltitudeMeters>1357.800048828125</AltitudeMeters>
            <DistanceMeters>NAN</DistanceMeters>
          </Trackpoint>
          <Trackpoint>
            <Time>2018-12-30T14:07:08.000Z</Time>
            <Position>
              <LatitudeDegrees>40.7414971478283405303955078125</LatitudeDegrees>
              <LongitudeDegrees>-4.07910422421991825103759765625</LongitudeDegrees>
            </Position>
            <AltitudeMeters>1357.800048828125</AltitudeMeters>
            <DistanceMeters>NAN</DistanceMeters>
          </Trackpoint>
          <Trackpoint>
            <Time>2018-12-30T14:07:09.000Z</Time>
            <Position>
              <LatitudeDegrees>40.7414634525775909423828125</LatitudeDegrees>
              <LongitudeDegrees>-4.0791120193898677825927734375</LongitudeDegrees>
            </Position>
            <AltitudeMeters>1358</AltitudeMeters>
            <DistanceMeters>NAN</DistanceMeters>
          </Trackpoint>
          <Trackpoint>
            <Time>2018-12-30T14:07:10.000Z</Time>
            <Position>
              <LatitudeDegrees>40.7414455153048038482666015625</LatitudeDegrees>
              <LongitudeDegrees>-4.079106152057647705078125</LongitudeDegrees>
            </Position>
            <AltitudeMeters>1358</AltitudeMeters>
            <DistanceMeters>NAN</DistanceMeters>
          </Trackpoint>
          <Trackpoint>
            <Time>2018-12-30T14:07:11.000Z</Time>
            <Position>
              <LatitudeDegrees>40.74142330326139926910400390625</LatitudeDegrees>
              <LongitudeDegrees>-4.0790965966880321502685546875</LongitudeDegrees>
            </Position>
            <AltitudeMeters>1357.5999755859375</AltitudeMeters>
            <DistanceMeters>NAN</DistanceMeters>
          </Trackpoint>
          <Trackpoint>
            <Time>2018-12-30T14:07:12.000Z</Time>
            <Position>
              <LatitudeDegrees>40.74140385724604129791259765625</LatitudeDegrees>
              <LongitudeDegrees>-4.07909500412642955780029296875</LongitudeDegrees>
            </Position>
            <AltitudeMeters>1357.199951171875</AltitudeMeters>
            <DistanceMeters>NAN</DistanceMeters>
          </Trackpoint>
          <Trackpoint>
            <Time>2018-12-30T14:07:13.000Z</Time>
            <Position>
              <LatitudeDegrees>40.741380639374256134033203125</LatitudeDegrees>
              <LongitudeDegrees>-4.07909265719354152679443359375</LongitudeDegrees>
            </Position>
            <AltitudeMeters>1356.5999755859375</AltitudeMeters>
            <DistanceMeters>NAN</DistanceMeters>
          </Trackpoint>
          <Trackpoint>
            <Time>2018-12-30T14:07:14.000Z</Time>
            <Position>
              <LatitudeDegrees>40.74135482311248779296875</LatitudeDegrees>
              <LongitudeDegrees>-4.07910414040088653564453125</LongitudeDegrees>
            </Position>
            <AltitudeMeters>1356.4000244140625</AltitudeMeters>
            <DistanceMeters>NAN</DistanceMeters>
          </Trackpoint>
          <Trackpoint>
            <Time>2018-12-30T14:07:15.000Z</Time>
            <Position>
              <LatitudeDegrees>40.7413301803171634674072265625</LatitudeDegrees>
              <LongitudeDegrees>-4.07911084592342376708984375</LongitudeDegrees>
            </Position>
            <AltitudeMeters>1356.199951171875</AltitudeMeters>
            <DistanceMeters>NAN</DistanceMeters>
          </Trackpoint>
          <Trackpoint>
            <Time>2018-12-30T14:07:16.000Z</Time>
            <Position>
              <LatitudeDegrees>40.7413065433502197265625</LatitudeDegrees>
              <LongitudeDegrees>-4.07911092974245548248291015625</LongitudeDegrees>
            </Position>
            <AltitudeMeters>1356.199951171875</AltitudeMeters>
            <DistanceMeters>NAN</DistanceMeters>
          </Trackpoint>
          <Trackpoint>
            <Time>2018-12-30T14:07:17.000Z</Time>
            <Position>
              <LatitudeDegrees>40.7412899471819400787353515625</LatitudeDegrees>
              <LongitudeDegrees>-4.07911025919020175933837890625</LongitudeDegrees>
            </Position>
            <AltitudeMeters>1356.199951171875</AltitudeMeters>
            <DistanceMeters>NAN</DistanceMeters>
          </Trackpoint>
          <Trackpoint>
            <Time>2018-12-30T14:07:18.000Z</Time>
            <Position>
              <LatitudeDegrees>40.74127293191850185394287109375</LatitudeDegrees>
              <LongitudeDegrees>-4.07910942099988460540771484375</LongitudeDegrees>
            </Position>
            <AltitudeMeters>1355.800048828125</AltitudeMeters>
            <DistanceMeters>NAN</DistanceMeters>
          </Trackpoint>
          <Trackpoint>
            <Time>2018-12-30T14:07:19.000Z</Time>
            <Position>
              <LatitudeDegrees>40.7412648014724254608154296875</LatitudeDegrees>
              <LongitudeDegrees>-4.07910623587667942047119140625</LongitudeDegrees>
            </Position>
            <AltitudeMeters>1355.5999755859375</AltitudeMeters>
            <DistanceMeters>NAN</DistanceMeters>
          </Trackpoint>
          <Trackpoint>
            <Time>2018-12-30T14:07:20.000Z</Time>
            <Position>
              <LatitudeDegrees>40.7412544079124927520751953125</LatitudeDegrees>
              <LongitudeDegrees>-4.07909986563026905059814453125</LongitudeDegrees>
            </Position>
            <AltitudeMeters>1355.5999755859375</AltitudeMeters>
            <DistanceMeters>NAN</DistanceMeters>
          </Trackpoint>
          <Trackpoint>
            <Time>2018-12-30T14:07:21.000Z</Time>
            <Position>
              <LatitudeDegrees>40.74124242179095745086669921875</LatitudeDegrees>
              <LongitudeDegrees>-4.07909299246966838836669921875</LongitudeDegrees>
            </Position>
            <AltitudeMeters>1355.4000244140625</AltitudeMeters>
            <DistanceMeters>NAN</DistanceMeters>
          </Trackpoint>
          <Trackpoint>
            <Time>2018-12-30T14:07:22.000Z</Time>
            <Position>
              <LatitudeDegrees>40.741230435669422149658203125</LatitudeDegrees>
              <LongitudeDegrees>-4.07908511348068714141845703125</LongitudeDegrees>
            </Position>
            <AltitudeMeters>1355.199951171875</AltitudeMeters>
            <DistanceMeters>NAN</DistanceMeters>
          </Trackpoint>
          <Trackpoint>
            <Time>2018-12-30T14:07:23.000Z</Time>
            <Position>
              <LatitudeDegrees>40.7412151806056499481201171875</LatitudeDegrees>
              <LongitudeDegrees>-4.07908159308135509490966796875</LongitudeDegrees>
            </Position>
            <AltitudeMeters>1355.199951171875</AltitudeMeters>
            <DistanceMeters>NAN</DistanceMeters>
          </Trackpoint>
          <Trackpoint>
            <Time>2018-12-30T14:07:24.000Z</Time>
            <Position>
              <LatitudeDegrees>40.7412004284560680389404296875</LatitudeDegrees>
              <LongitudeDegrees>-4.0790805034339427947998046875</LongitudeDegrees>
            </Position>
            <AltitudeMeters>1355</AltitudeMeters>
            <DistanceMeters>NAN</DistanceMeters>
          </Trackpoint>
          <Trackpoint>
            <Time>2018-12-30T14:07:25.000Z</Time>
            <Position>
              <LatitudeDegrees>40.7411846704781055450439453125</LatitudeDegrees>
              <LongitudeDegrees>-4.0790764801204204559326171875</LongitudeDegrees>
            </Position>
            <AltitudeMeters>1355</AltitudeMeters>
            <DistanceMeters>NAN</DistanceMeters>
          </Trackpoint>
          <Trackpoint>
            <Time>2018-12-30T14:07:26.000Z</Time>
            <Position>
              <LatitudeDegrees>40.74117218144237995147705078125</LatitudeDegrees>
              <LongitudeDegrees>-4.0790788270533084869384765625</LongitudeDegrees>
            </Position>
            <AltitudeMeters>1354.800048828125</AltitudeMeters>
            <DistanceMeters>NAN</DistanceMeters>
          </Trackpoint>
          <Trackpoint>
            <Time>2018-12-30T14:07:27.000Z</Time>
            <Position>
              <LatitudeDegrees>40.7411568425595760345458984375</LatitudeDegrees>
              <LongitudeDegrees>-4.07908360473811626434326171875</LongitudeDegrees>
            </Position>
            <AltitudeMeters>1354.800048828125</AltitudeMeters>
            <DistanceMeters>NAN</DistanceMeters>
          </Trackpoint>
          <Trackpoint>
            <Time>2018-12-30T14:07:28.000Z</Time>
            <Position>
              <LatitudeDegrees>40.74115030467510223388671875</LatitudeDegrees>
              <LongitudeDegrees>-4.079096429049968719482421875</LongitudeDegrees>
            </Position>
            <AltitudeMeters>1354.800048828125</AltitudeMeters>
            <DistanceMeters>NAN</DistanceMeters>
          </Trackpoint>
          <Trackpoint>
            <Time>2018-12-30T14:07:29.000Z</Time>
            <Position>
              <LatitudeDegrees>40.74113429524004459381103515625</LatitudeDegrees>
              <LongitudeDegrees>-4.07910187728703022003173828125</LongitudeDegrees>
            </Position>
            <AltitudeMeters>1354.5999755859375</AltitudeMeters>
            <DistanceMeters>NAN</DistanceMeters>
          </Trackpoint>
          <Trackpoint>
            <Time>2018-12-30T14:07:30.000Z</Time>
            <Position>
              <LatitudeDegrees>40.74112390168011188507080078125</LatitudeDegrees>
              <LongitudeDegrees>-4.0791033022105693817138671875</LongitudeDegrees>
            </Position>
            <AltitudeMeters>1354.4000244140625</AltitudeMeters>
            <DistanceMeters>NAN</DistanceMeters>
          </Trackpoint>
          <Trackpoint>
            <Time>2018-12-30T14:07:31.000Z</Time>
            <Position>
              <LatitudeDegrees>40.7411094009876251220703125</LatitudeDegrees>
              <LongitudeDegrees>-4.07909207046031951904296875</LongitudeDegrees>
            </Position>
            <AltitudeMeters>1354.199951171875</AltitudeMeters>
            <DistanceMeters>NAN</DistanceMeters>
          </Trackpoint>
          <Trackpoint>
            <Time>2018-12-30T14:07:32.000Z</Time>
            <Position>
              <LatitudeDegrees>40.7410941459238529205322265625</LatitudeDegrees>
              <LongitudeDegrees>-4.07908536493778228759765625</LongitudeDegrees>
            </Position>
            <AltitudeMeters>1354</AltitudeMeters>
            <DistanceMeters>NAN</DistanceMeters>
          </Trackpoint>
          <Trackpoint>
            <Time>2018-12-30T14:07:33.000Z</Time>
            <Position>
              <LatitudeDegrees>40.74108132161200046539306640625</LatitudeDegrees>
              <LongitudeDegrees>-4.0790831856429576873779296875</LongitudeDegrees>
            </Position>
            <AltitudeMeters>1353.800048828125</AltitudeMeters>
            <DistanceMeters>NAN</DistanceMeters>
          </Trackpoint>
          <Trackpoint>
            <Time>2018-12-30T14:07:34.000Z</Time>
            <Position>
              <LatitudeDegrees>40.74106941930949687957763671875</LatitudeDegrees>
              <LongitudeDegrees>-4.0790835209190845489501953125</LongitudeDegrees>
            </Position>
            <AltitudeMeters>1353.800048828125</AltitudeMeters>
            <DistanceMeters>NAN</DistanceMeters>
          </Trackpoint>
          <Trackpoint>
            <Time>2018-12-30T14:07:35.000Z</Time>
            <Position>
              <LatitudeDegrees>40.74105684645473957061767578125</LatitudeDegrees>
              <LongitudeDegrees>-4.0790841914713382720947265625</LongitudeDegrees>
            </Position>
            <AltitudeMeters>1353.800048828125</AltitudeMeters>
            <DistanceMeters>NAN</DistanceMeters>
          </Trackpoint>
          <Trackpoint>
            <Time>2018-12-30T14:07:36.000Z</Time>
            <Position>
              <LatitudeDegrees>40.74104913510382175445556640625</LatitudeDegrees>
              <LongitudeDegrees>-4.079081676900386810302734375</LongitudeDegrees>
            </Position>
            <AltitudeMeters>1353.5999755859375</AltitudeMeters>
            <DistanceMeters>NAN</DistanceMeters>
          </Trackpoint>
          <Trackpoint>
            <Time>2018-12-30T14:07:37.000Z</Time>
            <Position>
              <LatitudeDegrees>40.7410408370196819305419921875</LatitudeDegrees>
              <LongitudeDegrees>-4.079079665243625640869140625</LongitudeDegrees>
            </Position>
            <AltitudeMeters>1353.5999755859375</AltitudeMeters>
            <DistanceMeters>NAN</DistanceMeters>
          </Trackpoint>
          <Trackpoint>
            <Time>2018-12-30T14:07:38.000Z</Time>
            <Position>
              <LatitudeDegrees>40.74103052727878093719482421875</LatitudeDegrees>
              <LongitudeDegrees>-4.07907555811107158660888671875</LongitudeDegrees>
            </Position>
            <AltitudeMeters>1353.5999755859375</AltitudeMeters>
            <DistanceMeters>NAN</DistanceMeters>
          </Trackpoint>
          <Trackpoint>
            <Time>2018-12-30T14:07:39.000Z</Time>
            <Position>
              <LatitudeDegrees>40.7410210557281970977783203125</LatitudeDegrees>
              <LongitudeDegrees>-4.07907220534980297088623046875</LongitudeDegrees>
            </Position>
            <AltitudeMeters>1353.5999755859375</AltitudeMeters>
            <DistanceMeters>NAN</DistanceMeters>
          </Trackpoint>
          <Trackpoint>
            <Time>2018-12-30T14:07:40.000Z</Time>
            <Position>
              <LatitudeDegrees>40.74101074598729610443115234375</LatitudeDegrees>
              <LongitudeDegrees>-4.079065583646297454833984375</LongitudeDegrees>
            </Position>
            <AltitudeMeters>1353.5999755859375</AltitudeMeters>
            <DistanceMeters>NAN</DistanceMeters>
          </Trackpoint>
          <Trackpoint>
            <Time>2018-12-30T14:07:41.000Z</Time>
            <Position>
              <LatitudeDegrees>40.741003453731536865234375</LatitudeDegrees>
              <LongitudeDegrees>-4.07906063832342624664306640625</LongitudeDegrees>
            </Position>
            <AltitudeMeters>1353.5999755859375</AltitudeMeters>
            <DistanceMeters>NAN</DistanceMeters>
          </Trackpoint>
          <Trackpoint>
            <Time>2018-12-30T14:07:42.000Z</Time>
            <Position>
              <LatitudeDegrees>40.740993060171604156494140625</LatitudeDegrees>
              <LongitudeDegrees>-4.07905527390539646148681640625</LongitudeDegrees>
            </Position>
            <AltitudeMeters>1353.5999755859375</AltitudeMeters>
            <DistanceMeters>NAN</DistanceMeters>
          </Trackpoint>
          <Trackpoint>
            <Time>2018-12-30T14:07:43.000Z</Time>
            <Position>
              <LatitudeDegrees>40.7409838400781154632568359375</LatitudeDegrees>
              <LongitudeDegrees>-4.079052843153476715087890625</LongitudeDegrees>
            </Position>
            <AltitudeMeters>1353.5999755859375</AltitudeMeters>
            <DistanceMeters>NAN</DistanceMeters>
          </Trackpoint>
          <Trackpoint>
            <Time>2018-12-30T14:07:44.000Z</Time>
            <Position>
              <LatitudeDegrees>40.740976966917514801025390625</LatitudeDegrees>
              <LongitudeDegrees>-4.07905644737184047698974609375</LongitudeDegrees>
            </Position>
            <AltitudeMeters>1353.4000244140625</AltitudeMeters>
            <DistanceMeters>NAN</DistanceMeters>
          </Trackpoint>
          <Trackpoint>
            <Time>2018-12-30T14:07:45.000Z</Time>
            <Position>
              <LatitudeDegrees>40.74096749536693096160888671875</LatitudeDegrees>
              <LongitudeDegrees>-4.0790644101798534393310546875</LongitudeDegrees>
            </Position>
            <AltitudeMeters>1353.199951171875</AltitudeMeters>
            <DistanceMeters>NAN</DistanceMeters>
          </Trackpoint>
          <Trackpoint>
            <Time>2018-12-30T14:07:46.000Z</Time>
            <Position>
              <LatitudeDegrees>40.74095291085541248321533203125</LatitudeDegrees>
              <LongitudeDegrees>-4.07907136715948581695556640625</LongitudeDegrees>
            </Position>
            <AltitudeMeters>1353</AltitudeMeters>
            <DistanceMeters>NAN</DistanceMeters>
          </Trackpoint>
          <Trackpoint>
            <Time>2018-12-30T14:07:47.000Z</Time>
            <Position>
              <LatitudeDegrees>40.74093866162002086639404296875</LatitudeDegrees>
              <LongitudeDegrees>-4.07906415872275829315185546875</LongitudeDegrees>
            </Position>
            <AltitudeMeters>1352.800048828125</AltitudeMeters>
            <DistanceMeters>NAN</DistanceMeters>
          </Trackpoint>
          <Trackpoint>
            <Time>2018-12-30T14:07:48.000Z</Time>
            <Position>
              <LatitudeDegrees>40.74092642404139041900634765625</LatitudeDegrees>
              <LongitudeDegrees>-4.07906013540923595428466796875</LongitudeDegrees>
            </Position>
            <AltitudeMeters>1352.5999755859375</AltitudeMeters>
            <DistanceMeters>NAN</DistanceMeters>
          </Trackpoint>
          <Trackpoint>
            <Time>2018-12-30T14:07:49.000Z</Time>
            <Position>
              <LatitudeDegrees>40.74091401882469654083251953125</LatitudeDegrees>
              <LongitudeDegrees>-4.07905058003962039947509765625</LongitudeDegrees>
            </Position>
            <AltitudeMeters>1352.4000244140625</AltitudeMeters>
            <DistanceMeters>NAN</DistanceMeters>
          </Trackpoint>
          <Trackpoint>
            <Time>2018-12-30T14:07:50.000Z</Time>
            <Position>
              <LatitudeDegrees>40.7409043796360492706298828125</LatitudeDegrees>
              <LongitudeDegrees>-4.0790402702987194061279296875</LongitudeDegrees>
            </Position>
            <AltitudeMeters>1352.199951171875</AltitudeMeters>
            <DistanceMeters>NAN</DistanceMeters>
          </Trackpoint>
          <Trackpoint>
            <Time>2018-12-30T14:07:51.000Z</Time>
            <Position>
              <LatitudeDegrees>40.74089323170483112335205078125</LatitudeDegrees>
              <LongitudeDegrees>-4.07903163693845272064208984375</LongitudeDegrees>
            </Position>
            <AltitudeMeters>1352</AltitudeMeters>
            <DistanceMeters>NAN</DistanceMeters>
          </Trackpoint>
          <Trackpoint>
            <Time>2018-12-30T14:07:52.000Z</Time>
            <Position>
              <LatitudeDegrees>40.74088216759264469146728515625</LatitudeDegrees>
              <LongitudeDegrees>-4.07901956699788570404052734375</LongitudeDegrees>
            </Position>
            <AltitudeMeters>1352</AltitudeMeters>
            <DistanceMeters>NAN</DistanceMeters>
          </Trackpoint>
          <Trackpoint>
            <Time>2018-12-30T14:07:53.000Z</Time>
            <Position>
              <LatitudeDegrees>40.7408738695085048675537109375</LatitudeDegrees>
              <LongitudeDegrees>-4.0790017135441303253173828125</LongitudeDegrees>
            </Position>
            <AltitudeMeters>1351.800048828125</AltitudeMeters>
            <DistanceMeters>NAN</DistanceMeters>
          </Trackpoint>
          <Trackpoint>
            <Time>2018-12-30T14:07:54.000Z</Time>
            <Position>
              <LatitudeDegrees>40.74086389504373073577880859375</LatitudeDegrees>
              <LongitudeDegrees>-4.0789921581745147705078125</LongitudeDegrees>
            </Position>
            <AltitudeMeters>1351.5999755859375</AltitudeMeters>
            <DistanceMeters>NAN</DistanceMeters>
          </Trackpoint>
          <Trackpoint>
            <Time>2018-12-30T14:07:55.000Z</Time>
            <Position>
              <LatitudeDegrees>40.74085316620767116546630859375</LatitudeDegrees>
              <LongitudeDegrees>-4.078981764614582061767578125</LongitudeDegrees>
            </Position>
            <AltitudeMeters>1351.4000244140625</AltitudeMeters>
            <DistanceMeters>NAN</DistanceMeters>
          </Trackpoint>
          <Trackpoint>
            <Time>2018-12-30T14:07:56.000Z</Time>
            <Position>
              <LatitudeDegrees>40.74084210209548473358154296875</LatitudeDegrees>
              <LongitudeDegrees>-4.0789705328643321990966796875</LongitudeDegrees>
            </Position>
            <AltitudeMeters>1351.4000244140625</AltitudeMeters>
            <DistanceMeters>NAN</DistanceMeters>
          </Trackpoint>
          <Trackpoint>
            <Time>2018-12-30T14:07:57.000Z</Time>
            <Position>
              <LatitudeDegrees>40.74083087034523487091064453125</LatitudeDegrees>
              <LongitudeDegrees>-4.07896072603762149810791015625</LongitudeDegrees>
            </Position>
            <AltitudeMeters>1351.199951171875</AltitudeMeters>
            <DistanceMeters>NAN</DistanceMeters>
          </Trackpoint>
          <Trackpoint>
            <Time>2018-12-30T14:07:58.000Z</Time>
            <Position>
              <LatitudeDegrees>40.74082114733755588531494140625</LatitudeDegrees>
              <LongitudeDegrees>-4.0789423696696758270263671875</LongitudeDegrees>
            </Position>
            <AltitudeMeters>1351.199951171875</AltitudeMeters>
            <DistanceMeters>NAN</DistanceMeters>
          </Trackpoint>
          <Trackpoint>
            <Time>2018-12-30T14:07:59.000Z</Time>
            <Position>
              <LatitudeDegrees>40.740813352167606353759765625</LatitudeDegrees>
              <LongitudeDegrees>-4.078930132091045379638671875</LongitudeDegrees>
            </Position>
            <AltitudeMeters>1351.199951171875</AltitudeMeters>
            <DistanceMeters>NAN</DistanceMeters>
          </Trackpoint>
          <Trackpoint>
            <Time>2018-12-30T14:08:00.000Z</Time>
            <Position>
              <LatitudeDegrees>40.7408051379024982452392578125</LatitudeDegrees>
              <LongitudeDegrees>-4.0789152123034000396728515625</LongitudeDegrees>
            </Position>
            <AltitudeMeters>1351.199951171875</AltitudeMeters>
            <DistanceMeters>NAN</DistanceMeters>
          </Trackpoint>
          <Trackpoint>
            <Time>2018-12-30T14:08:01.000Z</Time>
            <Position>
              <LatitudeDegrees>40.74079751037061214447021484375</LatitudeDegrees>
              <LongitudeDegrees>-4.07889149151742458343505859375</LongitudeDegrees>
            </Position>
            <AltitudeMeters>1351.199951171875</AltitudeMeters>
            <DistanceMeters>NAN</DistanceMeters>
          </Trackpoint>
          <Trackpoint>
            <Time>2018-12-30T14:08:02.000Z</Time>
            <Position>
              <LatitudeDegrees>40.74079063721001148223876953125</LatitudeDegrees>
              <LongitudeDegrees>-4.0788687765598297119140625</LongitudeDegrees>
            </Position>
            <AltitudeMeters>1351.199951171875</AltitudeMeters>
            <DistanceMeters>NAN</DistanceMeters>
          </Trackpoint>
          <Trackpoint>
            <Time>2018-12-30T14:08:03.000Z</Time>
            <Position>
              <LatitudeDegrees>40.7407794892787933349609375</LatitudeDegrees>
              <LongitudeDegrees>-4.0788444690406322479248046875</LongitudeDegrees>
            </Position>
            <AltitudeMeters>1351.199951171875</AltitudeMeters>
            <DistanceMeters>NAN</DistanceMeters>
          </Trackpoint>
          <Trackpoint>
            <Time>2018-12-30T14:08:04.000Z</Time>
            <Position>
              <LatitudeDegrees>40.7407712750136852264404296875</LatitudeDegrees>
              <LongitudeDegrees>-4.078820161521434783935546875</LongitudeDegrees>
            </Position>
            <AltitudeMeters>1351.4000244140625</AltitudeMeters>
            <DistanceMeters>NAN</DistanceMeters>
          </Trackpoint>
          <Trackpoint>
            <Time>2018-12-30T14:08:05.000Z</Time>
            <Position>
              <LatitudeDegrees>40.74076498858630657196044921875</LatitudeDegrees>
              <LongitudeDegrees>-4.07879660837352275848388671875</LongitudeDegrees>
            </Position>
            <AltitudeMeters>1351.5999755859375</AltitudeMeters>
            <DistanceMeters>NAN</DistanceMeters>
          </Trackpoint>
          <Trackpoint>
            <Time>2018-12-30T14:08:06.000Z</Time>
            <Position>
              <LatitudeDegrees>40.74076046235859394073486328125</LatitudeDegrees>
              <LongitudeDegrees>-4.07878093421459197998046875</LongitudeDegrees>
            </Position>
            <AltitudeMeters>1351.5999755859375</AltitudeMeters>
            <DistanceMeters>NAN</DistanceMeters>
          </Trackpoint>
          <Trackpoint>
            <Time>2018-12-30T14:08:07.000Z</Time>
            <Position>
              <LatitudeDegrees>40.7407551817595958709716796875</LatitudeDegrees>
              <LongitudeDegrees>-4.07875654287636280059814453125</LongitudeDegrees>
            </Position>
            <AltitudeMeters>1351.5999755859375</AltitudeMeters>
            <DistanceMeters>NAN</DistanceMeters>
          </Trackpoint>
          <Trackpoint>
            <Time>2018-12-30T14:08:08.000Z</Time>
            <Position>
              <LatitudeDegrees>40.74075199663639068603515625</LatitudeDegrees>
              <LongitudeDegrees>-4.0787373483180999755859375</LongitudeDegrees>
            </Position>
            <AltitudeMeters>1351.5999755859375</AltitudeMeters>
            <DistanceMeters>NAN</DistanceMeters>
          </Trackpoint>
          <Trackpoint>
            <Time>2018-12-30T14:08:09.000Z</Time>
            <Position>
              <LatitudeDegrees>40.74075065553188323974609375</LatitudeDegrees>
              <LongitudeDegrees>-4.07872326672077178955078125</LongitudeDegrees>
            </Position>
            <AltitudeMeters>1351.4000244140625</AltitudeMeters>
            <DistanceMeters>NAN</DistanceMeters>
          </Trackpoint>
          <Trackpoint>
            <Time>2018-12-30T14:08:10.000Z</Time>
            <Position>
              <LatitudeDegrees>40.74074654839932918548583984375</LatitudeDegrees>
              <LongitudeDegrees>-4.078706167638301849365234375</LongitudeDegrees>
            </Position>
            <AltitudeMeters>1351.199951171875</AltitudeMeters>
            <DistanceMeters>NAN</DistanceMeters>
          </Trackpoint>
          <Trackpoint>
            <Time>2018-12-30T14:08:11.000Z</Time>
            <Position>
              <LatitudeDegrees>40.7407437823712825775146484375</LatitudeDegrees>
              <LongitudeDegrees>-4.07870155759155750274658203125</LongitudeDegrees>
            </Position>
            <AltitudeMeters>1351</AltitudeMeters>
            <DistanceMeters>NAN</DistanceMeters>
          </Trackpoint>
          <Trackpoint>
            <Time>2018-12-30T14:08:12.000Z</Time>
            <Position>
              <LatitudeDegrees>40.74074017815291881561279296875</LatitudeDegrees>
              <LongitudeDegrees>-4.0786986239254474639892578125</LongitudeDegrees>
            </Position>
            <AltitudeMeters>1350.800048828125</AltitudeMeters>
            <DistanceMeters>NAN</DistanceMeters>
          </Trackpoint>
          <Trackpoint>
            <Time>2018-12-30T14:08:13.000Z</Time>
            <Position>
              <LatitudeDegrees>40.74072861112654209136962890625</LatitudeDegrees>
              <LongitudeDegrees>-4.0786915831267833709716796875</LongitudeDegrees>
            </Position>
            <AltitudeMeters>1350.800048828125</AltitudeMeters>
            <DistanceMeters>NAN</DistanceMeters>
          </Trackpoint>
          <Trackpoint>
            <Time>2018-12-30T14:08:14.000Z</Time>
            <Position>
              <LatitudeDegrees>40.74073188006877899169921875</LatitudeDegrees>
              <LongitudeDegrees>-4.07868864946067333221435546875</LongitudeDegrees>
            </Position>
            <AltitudeMeters>1350.4000244140625</AltitudeMeters>
            <DistanceMeters>NAN</DistanceMeters>
          </Trackpoint>
          <Trackpoint>
            <Time>2018-12-30T14:08:15.000Z</Time>
            <Position>
              <LatitudeDegrees>40.74073498137295246124267578125</LatitudeDegrees>
              <LongitudeDegrees>-4.07868571579456329345703125</LongitudeDegrees>
            </Position>
            <AltitudeMeters>1350.4000244140625</AltitudeMeters>
            <DistanceMeters>NAN</DistanceMeters>
          </Trackpoint>
          <Trackpoint>
            <Time>2018-12-30T14:08:16.000Z</Time>
            <Position>
              <LatitudeDegrees>40.740738250315189361572265625</LatitudeDegrees>
              <LongitudeDegrees>-4.078678674995899200439453125</LongitudeDegrees>
            </Position>
            <AltitudeMeters>1350.4000244140625</AltitudeMeters>
            <DistanceMeters>NAN</DistanceMeters>
          </Trackpoint>
          <Trackpoint>
            <Time>2018-12-30T14:08:17.000Z</Time>
            <Position>
              <LatitudeDegrees>40.740742273628711700439453125</LatitudeDegrees>
              <LongitudeDegrees>-4.07866937108337879180908203125</LongitudeDegrees>
            </Position>
            <AltitudeMeters>1350.199951171875</AltitudeMeters>
            <DistanceMeters>NAN</DistanceMeters>
          </Trackpoint>
          <Trackpoint>
            <Time>2018-12-30T14:08:18.000Z</Time>
            <Position>
              <LatitudeDegrees>40.7407431118190288543701171875</LatitudeDegrees>
              <LongitudeDegrees>-4.07866769470274448394775390625</LongitudeDegrees>
            </Position>
            <AltitudeMeters>1350.199951171875</AltitudeMeters>
            <DistanceMeters>NAN</DistanceMeters>
          </Trackpoint>
          <Trackpoint>
            <Time>2018-12-30T14:08:19.000Z</Time>
            <Position>
              <LatitudeDegrees>40.7407434470951557159423828125</LatitudeDegrees>
              <LongitudeDegrees>-4.07866735942661762237548828125</LongitudeDegrees>
            </Position>
            <AltitudeMeters>1350.199951171875</AltitudeMeters>
            <DistanceMeters>NAN</DistanceMeters>
          </Trackpoint>
          <Trackpoint>
            <Time>2018-12-30T14:08:20.000Z</Time>
            <Position>
              <LatitudeDegrees>40.74074369855225086212158203125</LatitudeDegrees>
              <LongitudeDegrees>-4.07866752706468105316162109375</LongitudeDegrees>
            </Position>
            <AltitudeMeters>1350.199951171875</AltitudeMeters>
            <DistanceMeters>NAN</DistanceMeters>
          </Trackpoint>
          <Trackpoint>
            <Time>2018-12-30T14:08:21.000Z</Time>
            <Position>
              <LatitudeDegrees>40.7407434470951557159423828125</LatitudeDegrees>
              <LongitudeDegrees>-4.078667946159839630126953125</LongitudeDegrees>
            </Position>
            <AltitudeMeters>1350.199951171875</AltitudeMeters>
            <DistanceMeters>NAN</DistanceMeters>
          </Trackpoint>
          <Trackpoint>
            <Time>2018-12-30T14:08:22.000Z</Time>
            <Position>
              <LatitudeDegrees>40.7407431118190288543701171875</LatitudeDegrees>
              <LongitudeDegrees>-4.07866819761693477630615234375</LongitudeDegrees>
            </Position>
            <AltitudeMeters>1350.199951171875</AltitudeMeters>
            <DistanceMeters>NAN</DistanceMeters>
          </Trackpoint>
          <Trackpoint>
            <Time>2018-12-30T14:08:23.000Z</Time>
            <Position>
              <LatitudeDegrees>40.74074269272387027740478515625</LatitudeDegrees>
              <LongitudeDegrees>-4.078668616712093353271484375</LongitudeDegrees>
            </Position>
            <AltitudeMeters>1350.199951171875</AltitudeMeters>
            <DistanceMeters>NAN</DistanceMeters>
          </Trackpoint>
          <Trackpoint>
            <Time>2018-12-30T14:08:24.000Z</Time>
            <Position>
              <LatitudeDegrees>40.74074336327612400054931640625</LatitudeDegrees>
              <LongitudeDegrees>-4.07866895198822021484375</LongitudeDegrees>
            </Position>
            <AltitudeMeters>1350.199951171875</AltitudeMeters>
            <DistanceMeters>NAN</DistanceMeters>
          </Trackpoint>
          <Trackpoint>
            <Time>2018-12-30T14:08:25.000Z</Time>
            <Position>
              <LatitudeDegrees>40.74074688367545604705810546875</LatitudeDegrees>
              <LongitudeDegrees>-4.0786704607307910919189453125</LongitudeDegrees>
            </Position>
            <AltitudeMeters>1350.199951171875</AltitudeMeters>
            <DistanceMeters>NAN</DistanceMeters>
          </Trackpoint>
          <Trackpoint>
            <Time>2018-12-30T14:08:26.000Z</Time>
            <Position>
              <LatitudeDegrees>40.740748308598995208740234375</LatitudeDegrees>
              <LongitudeDegrees>-4.078671298921108245849609375</LongitudeDegrees>
            </Position>
            <AltitudeMeters>1350.199951171875</AltitudeMeters>
            <DistanceMeters>NAN</DistanceMeters>
          </Trackpoint>
          <Trackpoint>
            <Time>2018-12-30T14:08:27.000Z</Time>
            <Position>
              <LatitudeDegrees>40.7407494820654392242431640625</LatitudeDegrees>
              <LongitudeDegrees>-4.078671634197235107421875</LongitudeDegrees>
            </Position>
            <AltitudeMeters>1350.199951171875</AltitudeMeters>
            <DistanceMeters>NAN</DistanceMeters>
          </Trackpoint>
          <Trackpoint>
            <Time>2018-12-30T14:08:28.000Z</Time>
            <Position>
              <LatitudeDegrees>40.74075040407478809356689453125</LatitudeDegrees>
              <LongitudeDegrees>-4.07867054454982280731201171875</LongitudeDegrees>
            </Position>
            <AltitudeMeters>1350</AltitudeMeters>
            <DistanceMeters>NAN</DistanceMeters>
          </Trackpoint>
          <Trackpoint>
            <Time>2018-12-30T14:08:29.000Z</Time>
            <Position>
              <LatitudeDegrees>40.74074939824640750885009765625</LatitudeDegrees>
              <LongitudeDegrees>-4.0786650963127613067626953125</LongitudeDegrees>
            </Position>
            <AltitudeMeters>1350.199951171875</AltitudeMeters>
            <DistanceMeters>NAN</DistanceMeters>
          </Trackpoint>
          <Trackpoint>
            <Time>2018-12-30T14:08:30.000Z</Time>
            <Position>
              <LatitudeDegrees>40.7407446205615997314453125</LatitudeDegrees>
              <LongitudeDegrees>-4.07866023480892181396484375</LongitudeDegrees>
            </Position>
            <AltitudeMeters>1350.199951171875</AltitudeMeters>
            <DistanceMeters>NAN</DistanceMeters>
          </Trackpoint>
          <Trackpoint>
            <Time>2018-12-30T14:08:31.000Z</Time>
            <Position>
              <LatitudeDegrees>40.74073917232453823089599609375</LatitudeDegrees>
              <LongitudeDegrees>-4.0786547027528285980224609375</LongitudeDegrees>
            </Position>
            <AltitudeMeters>1350.4000244140625</AltitudeMeters>
            <DistanceMeters>NAN</DistanceMeters>
          </Trackpoint>
          <Trackpoint>
            <Time>2018-12-30T14:08:32.000Z</Time>
            <Position>
              <LatitudeDegrees>40.74073464609682559967041015625</LatitudeDegrees>
              <LongitudeDegrees>-4.07864523120224475860595703125</LongitudeDegrees>
            </Position>
            <AltitudeMeters>1350.5999755859375</AltitudeMeters>
            <DistanceMeters>NAN</DistanceMeters>
          </Trackpoint>
          <Trackpoint>
            <Time>2018-12-30T14:08:33.000Z</Time>
            <Position>
              <LatitudeDegrees>40.74073011986911296844482421875</LatitudeDegrees>
              <LongitudeDegrees>-4.07863517291843891143798828125</LongitudeDegrees>
            </Position>
            <AltitudeMeters>1350.800048828125</AltitudeMeters>
            <DistanceMeters>NAN</DistanceMeters>
          </Trackpoint>
          <Trackpoint>
            <Time>2018-12-30T14:08:34.000Z</Time>
            <Position>
              <LatitudeDegrees>40.74072442017495632171630859375</LatitudeDegrees>
              <LongitudeDegrees>-4.0786292217671871185302734375</LongitudeDegrees>
            </Position>
            <AltitudeMeters>1351</AltitudeMeters>
            <DistanceMeters>NAN</DistanceMeters>
          </Trackpoint>
          <Trackpoint>
            <Time>2018-12-30T14:08:35.000Z</Time>
            <Position>
              <LatitudeDegrees>40.74072760529816150665283203125</LatitudeDegrees>
              <LongitudeDegrees>-4.07861857675015926361083984375</LongitudeDegrees>
            </Position>
            <AltitudeMeters>1351</AltitudeMeters>
            <DistanceMeters>NAN</DistanceMeters>
          </Trackpoint>
          <Trackpoint>
            <Time>2018-12-30T14:08:36.000Z</Time>
            <Position>
              <LatitudeDegrees>40.74072727002203464508056640625</LatitudeDegrees>
              <LongitudeDegrees>-4.078608267009258270263671875</LongitudeDegrees>
            </Position>
            <AltitudeMeters>1351.199951171875</AltitudeMeters>
            <DistanceMeters>NAN</DistanceMeters>
          </Trackpoint>
          <Trackpoint>
            <Time>2018-12-30T14:08:37.000Z</Time>
            <Position>
              <LatitudeDegrees>40.74072542600333690643310546875</LatitudeDegrees>
              <LongitudeDegrees>-4.0786005556583404541015625</LongitudeDegrees>
            </Position>
            <AltitudeMeters>1351.199951171875</AltitudeMeters>
            <DistanceMeters>NAN</DistanceMeters>
          </Trackpoint>
          <Trackpoint>
            <Time>2018-12-30T14:08:38.000Z</Time>
            <Position>
              <LatitudeDegrees>40.740724839270114898681640625</LatitudeDegrees>
              <LongitudeDegrees>-4.0785946883261203765869140625</LongitudeDegrees>
            </Position>
            <AltitudeMeters>1351.199951171875</AltitudeMeters>
            <DistanceMeters>NAN</DistanceMeters>
          </Trackpoint>
          <Trackpoint>
            <Time>2018-12-30T14:08:39.000Z</Time>
            <Position>
              <LatitudeDegrees>40.74071981012821197509765625</LatitudeDegrees>
              <LongitudeDegrees>-4.07858756370842456817626953125</LongitudeDegrees>
            </Position>
            <AltitudeMeters>1351.4000244140625</AltitudeMeters>
            <DistanceMeters>NAN</DistanceMeters>
          </Trackpoint>
          <Trackpoint>
            <Time>2018-12-30T14:08:40.000Z</Time>
            <Position>
              <LatitudeDegrees>40.74071444571018218994140625</LatitudeDegrees>
              <LongitudeDegrees>-4.07858152873814105987548828125</LongitudeDegrees>
            </Position>
            <AltitudeMeters>1351.4000244140625</AltitudeMeters>
            <DistanceMeters>NAN</DistanceMeters>
          </Trackpoint>
          <Trackpoint>
            <Time>2018-12-30T14:08:41.000Z</Time>
            <Position>
              <LatitudeDegrees>40.74071042239665985107421875</LatitudeDegrees>
              <LongitudeDegrees>-4.0785764157772064208984375</LongitudeDegrees>
            </Position>
            <AltitudeMeters>1351.5999755859375</AltitudeMeters>
            <DistanceMeters>NAN</DistanceMeters>
          </Trackpoint>
          <Trackpoint>
            <Time>2018-12-30T14:08:42.000Z</Time>
            <Position>
              <LatitudeDegrees>40.74070899747312068939208984375</LatitudeDegrees>
              <LongitudeDegrees>-4.0785698778927326202392578125</LongitudeDegrees>
            </Position>
            <AltitudeMeters>1351.5999755859375</AltitudeMeters>
            <DistanceMeters>NAN</DistanceMeters>
          </Trackpoint>
          <Trackpoint>
            <Time>2018-12-30T14:08:43.000Z</Time>
            <Position>
              <LatitudeDegrees>40.74070597998797893524169921875</LatitudeDegrees>
              <LongitudeDegrees>-4.07856107689440250396728515625</LongitudeDegrees>
            </Position>
            <AltitudeMeters>1351.5999755859375</AltitudeMeters>
            <DistanceMeters>NAN</DistanceMeters>
          </Trackpoint>
          <Trackpoint>
            <Time>2018-12-30T14:08:44.000Z</Time>
            <Position>
              <LatitudeDegrees>40.740703381597995758056640625</LatitudeDegrees>
              <LongitudeDegrees>-4.0785504318773746490478515625</LongitudeDegrees>
            </Position>
            <AltitudeMeters>1351.5999755859375</AltitudeMeters>
            <DistanceMeters>NAN</DistanceMeters>
          </Trackpoint>
          <Trackpoint>
            <Time>2018-12-30T14:08:45.000Z</Time>
            <Position>
              <LatitudeDegrees>40.74069960974156856536865234375</LatitudeDegrees>
              <LongitudeDegrees>-4.07853953540325164794921875</LongitudeDegrees>
            </Position>
            <AltitudeMeters>1351.4000244140625</AltitudeMeters>
            <DistanceMeters>NAN</DistanceMeters>
          </Trackpoint>
          <Trackpoint>
            <Time>2018-12-30T14:08:46.000Z</Time>
            <Position>
              <LatitudeDegrees>40.7406978495419025421142578125</LatitudeDegrees>
              <LongitudeDegrees>-4.0785286389291286468505859375</LongitudeDegrees>
            </Position>
            <AltitudeMeters>1351</AltitudeMeters>
            <DistanceMeters>NAN</DistanceMeters>
          </Trackpoint>
          <Trackpoint>
            <Time>2018-12-30T14:08:47.000Z</Time>
            <Position>
              <LatitudeDegrees>40.74069944210350513458251953125</LatitudeDegrees>
              <LongitudeDegrees>-4.07851732335984706878662109375</LongitudeDegrees>
            </Position>
            <AltitudeMeters>1350.800048828125</AltitudeMeters>
            <DistanceMeters>NAN</DistanceMeters>
          </Trackpoint>
          <Trackpoint>
            <Time>2018-12-30T14:08:48.000Z</Time>
            <Position>
              <LatitudeDegrees>40.74070044793188571929931640625</LatitudeDegrees>
              <LongitudeDegrees>-4.078505001962184906005859375</LongitudeDegrees>
            </Position>
            <AltitudeMeters>1350.4000244140625</AltitudeMeters>
            <DistanceMeters>NAN</DistanceMeters>
          </Trackpoint>
          <Trackpoint>
            <Time>2018-12-30T14:08:49.000Z</Time>
            <Position>
              <LatitudeDegrees>40.740703046321868896484375</LatitudeDegrees>
              <LongitudeDegrees>-4.078496284782886505126953125</LongitudeDegrees>
            </Position>
            <AltitudeMeters>1350</AltitudeMeters>
            <DistanceMeters>NAN</DistanceMeters>
          </Trackpoint>
          <Trackpoint>
            <Time>2018-12-30T14:08:50.000Z</Time>
            <Position>
              <LatitudeDegrees>40.740704722702503204345703125</LatitudeDegrees>
              <LongitudeDegrees>-4.07848983071744441986083984375</LongitudeDegrees>
            </Position>
            <AltitudeMeters>1349.800048828125</AltitudeMeters>
            <DistanceMeters>NAN</DistanceMeters>
          </Trackpoint>
          <Trackpoint>
            <Time>2018-12-30T14:08:51.000Z</Time>
            <Position>
              <LatitudeDegrees>40.7407012023031711578369140625</LatitudeDegrees>
              <LongitudeDegrees>-4.0784756653010845184326171875</LongitudeDegrees>
            </Position>
            <AltitudeMeters>1349.5999755859375</AltitudeMeters>
            <DistanceMeters>NAN</DistanceMeters>
          </Trackpoint>
          <Trackpoint>
            <Time>2018-12-30T14:08:52.000Z</Time>
            <Position>
              <LatitudeDegrees>40.740703381597995758056640625</LatitudeDegrees>
              <LongitudeDegrees>-4.0784676186740398406982421875</LongitudeDegrees>
            </Position>
            <AltitudeMeters>1349.5999755859375</AltitudeMeters>
            <DistanceMeters>NAN</DistanceMeters>
          </Trackpoint>
          <Trackpoint>
            <Time>2018-12-30T14:08:53.000Z</Time>
            <Position>
              <LatitudeDegrees>40.7407032139599323272705078125</LatitudeDegrees>
              <LongitudeDegrees>-4.07845797948539257049560546875</LongitudeDegrees>
            </Position>
            <AltitudeMeters>1349.4000244140625</AltitudeMeters>
            <DistanceMeters>NAN</DistanceMeters>
          </Trackpoint>
          <Trackpoint>
            <Time>2018-12-30T14:08:54.000Z</Time>
            <Position>
              <LatitudeDegrees>40.7407058961689472198486328125</LatitudeDegrees>
              <LongitudeDegrees>-4.078447334468364715576171875</LongitudeDegrees>
            </Position>
            <AltitudeMeters>1349.4000244140625</AltitudeMeters>
            <DistanceMeters>NAN</DistanceMeters>
          </Trackpoint>
          <Trackpoint>
            <Time>2018-12-30T14:08:55.000Z</Time>
            <Position>
              <LatitudeDegrees>40.74071151204407215118408203125</LatitudeDegrees>
              <LongitudeDegrees>-4.078433252871036529541015625</LongitudeDegrees>
            </Position>
            <AltitudeMeters>1349.4000244140625</AltitudeMeters>
            <DistanceMeters>NAN</DistanceMeters>
          </Trackpoint>
          <Trackpoint>
            <Time>2018-12-30T14:08:56.000Z</Time>
            <Position>
              <LatitudeDegrees>40.740714780986309051513671875</LatitudeDegrees>
              <LongitudeDegrees>-4.07841841690242290496826171875</LongitudeDegrees>
            </Position>
            <AltitudeMeters>1349.4000244140625</AltitudeMeters>
            <DistanceMeters>NAN</DistanceMeters>
          </Trackpoint>
          <Trackpoint>
            <Time>2018-12-30T14:08:57.000Z</Time>
            <Position>
              <LatitudeDegrees>40.74071955867111682891845703125</LatitudeDegrees>
              <LongitudeDegrees>-4.078405760228633880615234375</LongitudeDegrees>
            </Position>
            <AltitudeMeters>1349.199951171875</AltitudeMeters>
            <DistanceMeters>NAN</DistanceMeters>
          </Trackpoint>
          <Trackpoint>
            <Time>2018-12-30T14:08:58.000Z</Time>
            <Position>
              <LatitudeDegrees>40.7407236658036708831787109375</LatitudeDegrees>
              <LongitudeDegrees>-4.07839897088706493377685546875</LongitudeDegrees>
            </Position>
            <AltitudeMeters>1349.199951171875</AltitudeMeters>
            <DistanceMeters>NAN</DistanceMeters>
          </Trackpoint>
          <Trackpoint>
            <Time>2018-12-30T14:08:59.000Z</Time>
            <Position>
              <LatitudeDegrees>40.74072542600333690643310546875</LatitudeDegrees>
              <LongitudeDegrees>-4.07838958315551280975341796875</LongitudeDegrees>
            </Position>
            <AltitudeMeters>1349</AltitudeMeters>
            <DistanceMeters>NAN</DistanceMeters>
          </Trackpoint>
          <Trackpoint>
            <Time>2018-12-30T14:09:00.000Z</Time>
            <Position>
              <LatitudeDegrees>40.74072341434657573699951171875</LatitudeDegrees>
              <LongitudeDegrees>-4.07837751321494579315185546875</LongitudeDegrees>
            </Position>
            <AltitudeMeters>1348.800048828125</AltitudeMeters>
            <DistanceMeters>NAN</DistanceMeters>
          </Trackpoint>
          <Trackpoint>
            <Time>2018-12-30T14:09:01.000Z</Time>
            <Position>
              <LatitudeDegrees>40.740720145404338836669921875</LatitudeDegrees>
              <LongitudeDegrees>-4.07836519181728363037109375</LongitudeDegrees>
            </Position>
            <AltitudeMeters>1348.5999755859375</AltitudeMeters>
            <DistanceMeters>NAN</DistanceMeters>
          </Trackpoint>
          <Trackpoint>
            <Time>2018-12-30T14:09:02.000Z</Time>
            <Position>
              <LatitudeDegrees>40.74071553535759449005126953125</LatitudeDegrees>
              <LongitudeDegrees>-4.07835035584867000579833984375</LongitudeDegrees>
            </Position>
            <AltitudeMeters>1348.4000244140625</AltitudeMeters>
            <DistanceMeters>NAN</DistanceMeters>
          </Trackpoint>
          <Trackpoint>
            <Time>2018-12-30T14:09:03.000Z</Time>
            <Position>
              <LatitudeDegrees>40.74071201495826244354248046875</LatitudeDegrees>
              <LongitudeDegrees>-4.078340046107769012451171875</LongitudeDegrees>
            </Position>
            <AltitudeMeters>1348.4000244140625</AltitudeMeters>
            <DistanceMeters>NAN</DistanceMeters>
          </Trackpoint>
          <Trackpoint>
            <Time>2018-12-30T14:09:04.000Z</Time>
            <Position>
              <LatitudeDegrees>40.7407035492360591888427734375</LatitudeDegrees>
              <LongitudeDegrees>-4.0783311612904071807861328125</LongitudeDegrees>
            </Position>
            <AltitudeMeters>1348.199951171875</AltitudeMeters>
            <DistanceMeters>NAN</DistanceMeters>
          </Trackpoint>
          <Trackpoint>
            <Time>2018-12-30T14:09:05.000Z</Time>
            <Position>
              <LatitudeDegrees>40.74069290421903133392333984375</LatitudeDegrees>
              <LongitudeDegrees>-4.0783242881298065185546875</LongitudeDegrees>
            </Position>
            <AltitudeMeters>1348.199951171875</AltitudeMeters>
            <DistanceMeters>NAN</DistanceMeters>
          </Trackpoint>
          <Trackpoint>
            <Time>2018-12-30T14:09:06.000Z</Time>
            <Position>
              <LatitudeDegrees>40.7406894676387310028076171875</LatitudeDegrees>
              <LongitudeDegrees>-4.07832202501595020294189453125</LongitudeDegrees>
            </Position>
            <AltitudeMeters>1348.199951171875</AltitudeMeters>
            <DistanceMeters>NAN</DistanceMeters>
          </Trackpoint>
          <Trackpoint>
            <Time>2018-12-30T14:09:07.000Z</Time>
            <Position>
              <LatitudeDegrees>40.740681588649749755859375</LatitudeDegrees>
              <LongitudeDegrees>-4.07832093536853790283203125</LongitudeDegrees>
            </Position>
            <AltitudeMeters>1348.199951171875</AltitudeMeters>
            <DistanceMeters>NAN</DistanceMeters>
          </Trackpoint>
          <Trackpoint>
            <Time>2018-12-30T14:09:08.000Z</Time>
            <Position>
              <LatitudeDegrees>40.7406589575111865997314453125</LatitudeDegrees>
              <LongitudeDegrees>-4.078335352241992950439453125</LongitudeDegrees>
            </Position>
            <AltitudeMeters>1348.199951171875</AltitudeMeters>
            <DistanceMeters>NAN</DistanceMeters>
          </Trackpoint>
          <Trackpoint>
            <Time>2018-12-30T14:09:09.000Z</Time>
            <Position>
              <LatitudeDegrees>40.74064982123672962188720703125</LatitudeDegrees>
              <LongitudeDegrees>-4.0783395431935787200927734375</LongitudeDegrees>
            </Position>
            <AltitudeMeters>1348</AltitudeMeters>
            <DistanceMeters>NAN</DistanceMeters>
          </Trackpoint>
          <Trackpoint>
            <Time>2018-12-30T14:09:10.000Z</Time>
            <Position>
              <LatitudeDegrees>40.74064713902771472930908203125</LatitudeDegrees>
              <LongitudeDegrees>-4.07833895646035671234130859375</LongitudeDegrees>
            </Position>
            <AltitudeMeters>1347.800048828125</AltitudeMeters>
            <DistanceMeters>NAN</DistanceMeters>
          </Trackpoint>
          <Trackpoint>
            <Time>2018-12-30T14:09:11.000Z</Time>
            <Position>
              <LatitudeDegrees>40.74064009822905063629150390625</LatitudeDegrees>
              <LongitudeDegrees>-4.07834867946803569793701171875</LongitudeDegrees>
            </Position>
            <AltitudeMeters>1347.5999755859375</AltitudeMeters>
            <DistanceMeters>NAN</DistanceMeters>
          </Trackpoint>
          <Trackpoint>
            <Time>2018-12-30T14:09:12.000Z</Time>
            <Position>
              <LatitudeDegrees>40.74064529500901699066162109375</LatitudeDegrees>
              <LongitudeDegrees>-4.0783633477985858917236328125</LongitudeDegrees>
            </Position>
            <AltitudeMeters>1347.4000244140625</AltitudeMeters>
            <DistanceMeters>NAN</DistanceMeters>
          </Trackpoint>
          <Trackpoint>
            <Time>2018-12-30T14:09:13.000Z</Time>
            <Position>
              <LatitudeDegrees>40.74064831249415874481201171875</LatitudeDegrees>
              <LongitudeDegrees>-4.07836460508406162261962890625</LongitudeDegrees>
            </Position>
            <AltitudeMeters>1347.4000244140625</AltitudeMeters>
            <DistanceMeters>NAN</DistanceMeters>
          </Trackpoint>
          <Trackpoint>
            <Time>2018-12-30T14:09:14.000Z</Time>
            <Position>
              <LatitudeDegrees>40.740648396313190460205078125</LatitudeDegrees>
              <LongitudeDegrees>-4.07836385071277618408203125</LongitudeDegrees>
            </Position>
            <AltitudeMeters>1347.4000244140625</AltitudeMeters>
            <DistanceMeters>NAN</DistanceMeters>
          </Trackpoint>
          <Trackpoint>
            <Time>2018-12-30T14:09:15.000Z</Time>
            <Position>
              <LatitudeDegrees>40.7406495697796344757080078125</LatitudeDegrees>
              <LongitudeDegrees>-4.0783589892089366912841796875</LongitudeDegrees>
            </Position>
            <AltitudeMeters>1347.5999755859375</AltitudeMeters>
            <DistanceMeters>NAN</DistanceMeters>
          </Trackpoint>
          <Trackpoint>
            <Time>2018-12-30T14:09:16.000Z</Time>
            <Position>
              <LatitudeDegrees>40.7406507432460784912109375</LatitudeDegrees>
              <LongitudeDegrees>-4.0783549658954143524169921875</LongitudeDegrees>
            </Position>
            <AltitudeMeters>1347.5999755859375</AltitudeMeters>
            <DistanceMeters>NAN</DistanceMeters>
          </Trackpoint>
          <Trackpoint>
            <Time>2018-12-30T14:09:17.000Z</Time>
            <Position>
              <LatitudeDegrees>40.740654431283473968505859375</LatitudeDegrees>
              <LongitudeDegrees>-4.078351445496082305908203125</LongitudeDegrees>
            </Position>
            <AltitudeMeters>1348</AltitudeMeters>
            <DistanceMeters>NAN</DistanceMeters>
          </Trackpoint>
          <Trackpoint>
            <Time>2018-12-30T14:09:18.000Z</Time>
            <Position>
              <LatitudeDegrees>40.74065300635993480682373046875</LatitudeDegrees>
              <LongitudeDegrees>-4.07834935002028942108154296875</LongitudeDegrees>
            </Position>
            <AltitudeMeters>1348.4000244140625</AltitudeMeters>
            <DistanceMeters>NAN</DistanceMeters>
          </Trackpoint>
          <Trackpoint>
            <Time>2018-12-30T14:09:19.000Z</Time>
            <Position>
              <LatitudeDegrees>40.74065904133021831512451171875</LatitudeDegrees>
              <LongitudeDegrees>-4.0783452428877353668212890625</LongitudeDegrees>
            </Position>
            <AltitudeMeters>1348.800048828125</AltitudeMeters>
            <DistanceMeters>NAN</DistanceMeters>
          </Trackpoint>
          <Trackpoint>
            <Time>2018-12-30T14:09:20.000Z</Time>
            <Position>
              <LatitudeDegrees>40.7406616397202014923095703125</LatitudeDegrees>
              <LongitudeDegrees>-4.0783422254025936126708984375</LongitudeDegrees>
            </Position>
            <AltitudeMeters>1349</AltitudeMeters>
            <DistanceMeters>NAN</DistanceMeters>
          </Trackpoint>
          <Trackpoint>
            <Time>2018-12-30T14:09:21.000Z</Time>
            <Position>
              <LatitudeDegrees>40.7406693510711193084716796875</LatitudeDegrees>
              <LongitudeDegrees>-4.07832940109074115753173828125</LongitudeDegrees>
            </Position>
            <AltitudeMeters>1349.199951171875</AltitudeMeters>
            <DistanceMeters>NAN</DistanceMeters>
          </Trackpoint>
          <Trackpoint>
            <Time>2018-12-30T14:09:22.000Z</Time>
            <Position>
              <LatitudeDegrees>40.74067194946110248565673828125</LatitudeDegrees>
              <LongitudeDegrees>-4.07831179909408092498779296875</LongitudeDegrees>
            </Position>
            <AltitudeMeters>1349.199951171875</AltitudeMeters>
            <DistanceMeters>NAN</DistanceMeters>
          </Trackpoint>
          <Trackpoint>
            <Time>2018-12-30T14:09:23.000Z</Time>
            <Position>
              <LatitudeDegrees>40.74067295528948307037353515625</LatitudeDegrees>
              <LongitudeDegrees>-4.07829268835484981536865234375</LongitudeDegrees>
            </Position>
            <AltitudeMeters>1349</AltitudeMeters>
            <DistanceMeters>NAN</DistanceMeters>
          </Trackpoint>
          <Trackpoint>
            <Time>2018-12-30T14:09:24.000Z</Time>
            <Position>
              <LatitudeDegrees>40.74067379347980022430419921875</LatitudeDegrees>
              <LongitudeDegrees>-4.07828204333782196044921875</LongitudeDegrees>
            </Position>
            <AltitudeMeters>1348.800048828125</AltitudeMeters>
            <DistanceMeters>NAN</DistanceMeters>
          </Trackpoint>
          <Trackpoint>
            <Time>2018-12-30T14:09:25.000Z</Time>
            <Position>
              <LatitudeDegrees>40.74067479930818080902099609375</LatitudeDegrees>
              <LongitudeDegrees>-4.0782674588263034820556640625</LongitudeDegrees>
            </Position>
            <AltitudeMeters>1348.5999755859375</AltitudeMeters>
            <DistanceMeters>NAN</DistanceMeters>
          </Trackpoint>
          <Trackpoint>
            <Time>2018-12-30T14:09:26.000Z</Time>
            <Position>
              <LatitudeDegrees>40.7406663335859775543212890625</LatitudeDegrees>
              <LongitudeDegrees>-4.07824927009642124176025390625</LongitudeDegrees>
            </Position>
            <AltitudeMeters>1348.5999755859375</AltitudeMeters>
            <DistanceMeters>NAN</DistanceMeters>
          </Trackpoint>
          <Trackpoint>
            <Time>2018-12-30T14:13:34.000Z</Time>
            <Position>
              <LatitudeDegrees>40.73901887051761150360107421875</LatitudeDegrees>
              <LongitudeDegrees>-4.0798075497150421142578125</LongitudeDegrees>
            </Position>
            <AltitudeMeters>1325.4000244140625</AltitudeMeters>
            <DistanceMeters>NAN</DistanceMeters>
          </Trackpoint>
          <Trackpoint>
            <Time>2018-12-30T14:13:35.000Z</Time>
            <Position>
              <LatitudeDegrees>40.73900512419641017913818359375</LatitudeDegrees>
              <LongitudeDegrees>-4.07981467433273792266845703125</LongitudeDegrees>
            </Position>
            <AltitudeMeters>1325.199951171875</AltitudeMeters>
            <DistanceMeters>NAN</DistanceMeters>
          </Trackpoint>
          <Trackpoint>
            <Time>2018-12-30T14:13:36.000Z</Time>
            <Position>
              <LatitudeDegrees>40.73899355717003345489501953125</LatitudeDegrees>
              <LongitudeDegrees>-4.07981735654175281524658203125</LongitudeDegrees>
            </Position>
            <AltitudeMeters>1325</AltitudeMeters>
            <DistanceMeters>NAN</DistanceMeters>
          </Trackpoint>
          <Trackpoint>
            <Time>2018-12-30T14:13:37.000Z</Time>
            <Position>
              <LatitudeDegrees>40.73898165486752986907958984375</LatitudeDegrees>
              <LongitudeDegrees>-4.079821296036243438720703125</LongitudeDegrees>
            </Position>
            <AltitudeMeters>1325</AltitudeMeters>
            <DistanceMeters>NAN</DistanceMeters>
          </Trackpoint>
          <Trackpoint>
            <Time>2018-12-30T14:13:38.000Z</Time>
            <Position>
              <LatitudeDegrees>40.738965980708599090576171875</LatitudeDegrees>
              <LongitudeDegrees>-4.079825989902019500732421875</LongitudeDegrees>
            </Position>
            <AltitudeMeters>1324.800048828125</AltitudeMeters>
            <DistanceMeters>NAN</DistanceMeters>
          </Trackpoint>
          <Trackpoint>
            <Time>2018-12-30T14:13:39.000Z</Time>
            <Position>
              <LatitudeDegrees>40.73894930072128772735595703125</LatitudeDegrees>
              <LongitudeDegrees>-4.0798308514058589935302734375</LongitudeDegrees>
            </Position>
            <AltitudeMeters>1324.800048828125</AltitudeMeters>
            <DistanceMeters>NAN</DistanceMeters>
          </Trackpoint>
          <Trackpoint>
            <Time>2018-12-30T14:13:40.000Z</Time>
            <Position>
              <LatitudeDegrees>40.7389329560101032257080078125</LatitudeDegrees>
              <LongitudeDegrees>-4.07983629964292049407958984375</LongitudeDegrees>
            </Position>
            <AltitudeMeters>1324.800048828125</AltitudeMeters>
            <DistanceMeters>NAN</DistanceMeters>
          </Trackpoint>
          <Trackpoint>
            <Time>2018-12-30T14:13:41.000Z</Time>
            <Position>
              <LatitudeDegrees>40.73891879059374332427978515625</LatitudeDegrees>
              <LongitudeDegrees>-4.07984032295644283294677734375</LongitudeDegrees>
            </Position>
            <AltitudeMeters>1324.800048828125</AltitudeMeters>
            <DistanceMeters>NAN</DistanceMeters>
          </Trackpoint>
          <Trackpoint>
            <Time>2018-12-30T14:13:42.000Z</Time>
            <Position>
              <LatitudeDegrees>40.73890672065317630767822265625</LatitudeDegrees>
              <LongitudeDegrees>-4.07984401099383831024169921875</LongitudeDegrees>
            </Position>
            <AltitudeMeters>1324.5999755859375</AltitudeMeters>
            <DistanceMeters>NAN</DistanceMeters>
          </Trackpoint>
          <Trackpoint>
            <Time>2018-12-30T14:13:43.000Z</Time>
            <Position>
              <LatitudeDegrees>40.73889322578907012939453125</LatitudeDegrees>
              <LongitudeDegrees>-4.07984484918415546417236328125</LongitudeDegrees>
            </Position>
            <AltitudeMeters>1324.5999755859375</AltitudeMeters>
            <DistanceMeters>NAN</DistanceMeters>
          </Trackpoint>
          <Trackpoint>
            <Time>2018-12-30T14:13:44.000Z</Time>
            <Position>
              <LatitudeDegrees>40.7388789765536785125732421875</LatitudeDegrees>
              <LongitudeDegrees>-4.07984384335577487945556640625</LongitudeDegrees>
            </Position>
            <AltitudeMeters>1324.4000244140625</AltitudeMeters>
            <DistanceMeters>NAN</DistanceMeters>
          </Trackpoint>
          <Trackpoint>
            <Time>2018-12-30T14:13:45.000Z</Time>
            <Position>
              <LatitudeDegrees>40.73886363767087459564208984375</LatitudeDegrees>
              <LongitudeDegrees>-4.07984300516545772552490234375</LongitudeDegrees>
            </Position>
            <AltitudeMeters>1324.4000244140625</AltitudeMeters>
            <DistanceMeters>NAN</DistanceMeters>
          </Trackpoint>
          <Trackpoint>
            <Time>2018-12-30T14:13:46.000Z</Time>
            <Position>
              <LatitudeDegrees>40.73884720914065837860107421875</LatitudeDegrees>
              <LongitudeDegrees>-4.0798422507941722869873046875</LongitudeDegrees>
            </Position>
            <AltitudeMeters>1324.199951171875</AltitudeMeters>
            <DistanceMeters>NAN</DistanceMeters>
          </Trackpoint>
          <Trackpoint>
            <Time>2018-12-30T14:13:47.000Z</Time>
            <Position>
              <LatitudeDegrees>40.73883094824850559234619140625</LatitudeDegrees>
              <LongitudeDegrees>-4.07984501682221889495849609375</LongitudeDegrees>
            </Position>
            <AltitudeMeters>1324</AltitudeMeters>
            <DistanceMeters>NAN</DistanceMeters>
          </Trackpoint>
          <Trackpoint>
            <Time>2018-12-30T14:13:48.000Z</Time>
            <Position>
              <LatitudeDegrees>40.73881686665117740631103515625</LatitudeDegrees>
              <LongitudeDegrees>-4.07984753139317035675048828125</LongitudeDegrees>
            </Position>
            <AltitudeMeters>1323.800048828125</AltitudeMeters>
            <DistanceMeters>NAN</DistanceMeters>
          </Trackpoint>
          <Trackpoint>
            <Time>2018-12-30T14:13:49.000Z</Time>
            <Position>
              <LatitudeDegrees>40.7388048805296421051025390625</LatitudeDegrees>
              <LongitudeDegrees>-4.07985054887831211090087890625</LongitudeDegrees>
            </Position>
            <AltitudeMeters>1323.5999755859375</AltitudeMeters>
            <DistanceMeters>NAN</DistanceMeters>
          </Trackpoint>
          <Trackpoint>
            <Time>2018-12-30T14:13:50.000Z</Time>
            <Position>
              <LatitudeDegrees>40.7387918047606945037841796875</LatitudeDegrees>
              <LongitudeDegrees>-4.07985222525894641876220703125</LongitudeDegrees>
            </Position>
            <AltitudeMeters>1323.4000244140625</AltitudeMeters>
            <DistanceMeters>NAN</DistanceMeters>
          </Trackpoint>
          <Trackpoint>
            <Time>2018-12-30T14:13:51.000Z</Time>
            <Position>
              <LatitudeDegrees>40.738780237734317779541015625</LatitudeDegrees>
              <LongitudeDegrees>-4.079851470887660980224609375</LongitudeDegrees>
            </Position>
            <AltitudeMeters>1323</AltitudeMeters>
            <DistanceMeters>NAN</DistanceMeters>
          </Trackpoint>
          <Trackpoint>
            <Time>2018-12-30T14:13:52.000Z</Time>
            <Position>
              <LatitudeDegrees>40.7387669943273067474365234375</LatitudeDegrees>
              <LongitudeDegrees>-4.079850800335407257080078125</LongitudeDegrees>
            </Position>
            <AltitudeMeters>1322.4000244140625</AltitudeMeters>
            <DistanceMeters>NAN</DistanceMeters>
          </Trackpoint>
          <Trackpoint>
            <Time>2018-12-30T14:13:53.000Z</Time>
            <Position>
              <LatitudeDegrees>40.738753415644168853759765625</LatitudeDegrees>
              <LongitudeDegrees>-4.0798499621450901031494140625</LongitudeDegrees>
            </Position>
            <AltitudeMeters>1322</AltitudeMeters>
            <DistanceMeters>NAN</DistanceMeters>
          </Trackpoint>
          <Trackpoint>
            <Time>2018-12-30T14:13:54.000Z</Time>
            <Position>
              <LatitudeDegrees>40.738739669322967529296875</LatitudeDegrees>
              <LongitudeDegrees>-4.0798469446599483489990234375</LongitudeDegrees>
            </Position>
            <AltitudeMeters>1321.5999755859375</AltitudeMeters>
            <DistanceMeters>NAN</DistanceMeters>
          </Trackpoint>
          <Trackpoint>
            <Time>2018-12-30T14:13:55.000Z</Time>
            <Position>
              <LatitudeDegrees>40.7387250848114490509033203125</LatitudeDegrees>
              <LongitudeDegrees>-4.0798459388315677642822265625</LongitudeDegrees>
            </Position>
            <AltitudeMeters>1321.199951171875</AltitudeMeters>
            <DistanceMeters>NAN</DistanceMeters>
          </Trackpoint>
          <Trackpoint>
            <Time>2018-12-30T14:13:56.000Z</Time>
            <Position>
              <LatitudeDegrees>40.73871142230927944183349609375</LatitudeDegrees>
              <LongitudeDegrees>-4.07984300516545772552490234375</LongitudeDegrees>
            </Position>
            <AltitudeMeters>1320.800048828125</AltitudeMeters>
            <DistanceMeters>NAN</DistanceMeters>
          </Trackpoint>
          <Trackpoint>
            <Time>2018-12-30T14:13:57.000Z</Time>
            <Position>
              <LatitudeDegrees>40.738695077598094940185546875</LatitudeDegrees>
              <LongitudeDegrees>-4.07984266988933086395263671875</LongitudeDegrees>
            </Position>
            <AltitudeMeters>1320.800048828125</AltitudeMeters>
            <DistanceMeters>NAN</DistanceMeters>
          </Trackpoint>
          <Trackpoint>
            <Time>2018-12-30T14:13:58.000Z</Time>
            <Position>
              <LatitudeDegrees>40.7386781461536884307861328125</LatitudeDegrees>
              <LongitudeDegrees>-4.0798397362232208251953125</LongitudeDegrees>
            </Position>
            <AltitudeMeters>1320.5999755859375</AltitudeMeters>
            <DistanceMeters>NAN</DistanceMeters>
          </Trackpoint>
          <Trackpoint>
            <Time>2018-12-30T14:13:59.000Z</Time>
            <Position>
              <LatitudeDegrees>40.73866180144250392913818359375</LatitudeDegrees>
              <LongitudeDegrees>-4.0798372216522693634033203125</LongitudeDegrees>
            </Position>
            <AltitudeMeters>1320.5999755859375</AltitudeMeters>
            <DistanceMeters>NAN</DistanceMeters>
          </Trackpoint>
          <Trackpoint>
            <Time>2018-12-30T14:14:00.000Z</Time>
            <Position>
              <LatitudeDegrees>40.73864637874066829681396484375</LatitudeDegrees>
              <LongitudeDegrees>-4.0798301808536052703857421875</LongitudeDegrees>
            </Position>
            <AltitudeMeters>1320.5999755859375</AltitudeMeters>
            <DistanceMeters>NAN</DistanceMeters>
          </Trackpoint>
          <Trackpoint>
            <Time>2018-12-30T14:14:01.000Z</Time>
            <Position>
              <LatitudeDegrees>40.73862961493432521820068359375</LatitudeDegrees>
              <LongitudeDegrees>-4.07982976175844669342041015625</LongitudeDegrees>
            </Position>
            <AltitudeMeters>1320.5999755859375</AltitudeMeters>
            <DistanceMeters>NAN</DistanceMeters>
          </Trackpoint>
          <Trackpoint>
            <Time>2018-12-30T14:14:02.000Z</Time>
            <Position>
              <LatitudeDegrees>40.73861486278474330902099609375</LatitudeDegrees>
              <LongitudeDegrees>-4.079829342663288116455078125</LongitudeDegrees>
            </Position>
            <AltitudeMeters>1320.5999755859375</AltitudeMeters>
            <DistanceMeters>NAN</DistanceMeters>
          </Trackpoint>
          <Trackpoint>
            <Time>2018-12-30T14:14:03.000Z</Time>
            <Position>
              <LatitudeDegrees>40.73859910480678081512451171875</LatitudeDegrees>
              <LongitudeDegrees>-4.0798305161297321319580078125</LongitudeDegrees>
            </Position>
            <AltitudeMeters>1320.5999755859375</AltitudeMeters>
            <DistanceMeters>NAN</DistanceMeters>
          </Trackpoint>
          <Trackpoint>
            <Time>2018-12-30T14:14:04.000Z</Time>
            <Position>
              <LatitudeDegrees>40.73858267627656459808349609375</LatitudeDegrees>
              <LongitudeDegrees>-4.079823307693004608154296875</LongitudeDegrees>
            </Position>
            <AltitudeMeters>1320.4000244140625</AltitudeMeters>
            <DistanceMeters>NAN</DistanceMeters>
          </Trackpoint>
          <Trackpoint>
            <Time>2018-12-30T14:14:05.000Z</Time>
            <Position>
              <LatitudeDegrees>40.73856473900377750396728515625</LatitudeDegrees>
              <LongitudeDegrees>-4.079821966588497161865234375</LongitudeDegrees>
            </Position>
            <AltitudeMeters>1320.199951171875</AltitudeMeters>
            <DistanceMeters>NAN</DistanceMeters>
          </Trackpoint>
          <Trackpoint>
            <Time>2018-12-30T14:14:06.000Z</Time>
            <Position>
              <LatitudeDegrees>40.73854646645486354827880859375</LatitudeDegrees>
              <LongitudeDegrees>-4.07980822026729583740234375</LongitudeDegrees>
            </Position>
            <AltitudeMeters>1320.199951171875</AltitudeMeters>
            <DistanceMeters>NAN</DistanceMeters>
          </Trackpoint>
          <Trackpoint>
            <Time>2018-12-30T14:14:07.000Z</Time>
            <Position>
              <LatitudeDegrees>40.73852936737239360809326171875</LatitudeDegrees>
              <LongitudeDegrees>-4.07979656942188739776611328125</LongitudeDegrees>
            </Position>
            <AltitudeMeters>1320</AltitudeMeters>
            <DistanceMeters>NAN</DistanceMeters>
          </Trackpoint>
          <Trackpoint>
            <Time>2018-12-30T14:14:08.000Z</Time>
            <Position>
              <LatitudeDegrees>40.7385131902992725372314453125</LatitudeDegrees>
              <LongitudeDegrees>-4.07977812923491001129150390625</LongitudeDegrees>
            </Position>
            <AltitudeMeters>1319.800048828125</AltitudeMeters>
            <DistanceMeters>NAN</DistanceMeters>
          </Trackpoint>
          <Trackpoint>
            <Time>2018-12-30T14:14:09.000Z</Time>
            <Position>
              <LatitudeDegrees>40.73849625885486602783203125</LatitudeDegrees>
              <LongitudeDegrees>-4.079763628542423248291015625</LongitudeDegrees>
            </Position>
            <AltitudeMeters>1319.5999755859375</AltitudeMeters>
            <DistanceMeters>NAN</DistanceMeters>
          </Trackpoint>
          <Trackpoint>
            <Time>2018-12-30T14:14:10.000Z</Time>
            <Position>
              <LatitudeDegrees>40.73848276399075984954833984375</LatitudeDegrees>
              <LongitudeDegrees>-4.079743511974811553955078125</LongitudeDegrees>
            </Position>
            <AltitudeMeters>1319.5999755859375</AltitudeMeters>
            <DistanceMeters>NAN</DistanceMeters>
          </Trackpoint>
          <Trackpoint>
            <Time>2018-12-30T14:14:11.000Z</Time>
            <Position>
              <LatitudeDegrees>40.738469101488590240478515625</LatitudeDegrees>
              <LongitudeDegrees>-4.07972062937915325164794921875</LongitudeDegrees>
            </Position>
            <AltitudeMeters>1319.4000244140625</AltitudeMeters>
            <DistanceMeters>NAN</DistanceMeters>
          </Trackpoint>
          <Trackpoint>
            <Time>2018-12-30T14:14:12.000Z</Time>
            <Position>
              <LatitudeDegrees>40.738456360995769500732421875</LatitudeDegrees>
              <LongitudeDegrees>-4.0796990878880023956298828125</LongitudeDegrees>
            </Position>
            <AltitudeMeters>1319.199951171875</AltitudeMeters>
            <DistanceMeters>NAN</DistanceMeters>
          </Trackpoint>
          <Trackpoint>
            <Time>2018-12-30T14:14:13.000Z</Time>
            <Position>
              <LatitudeDegrees>40.73844387196004390716552734375</LatitudeDegrees>
              <LongitudeDegrees>-4.079676456749439239501953125</LongitudeDegrees>
            </Position>
            <AltitudeMeters>1319.199951171875</AltitudeMeters>
            <DistanceMeters>NAN</DistanceMeters>
          </Trackpoint>
          <Trackpoint>
            <Time>2018-12-30T14:14:14.000Z</Time>
            <Position>
              <LatitudeDegrees>40.73842920362949371337890625</LatitudeDegrees>
              <LongitudeDegrees>-4.07965575344860553741455078125</LongitudeDegrees>
            </Position>
            <AltitudeMeters>1319</AltitudeMeters>
            <DistanceMeters>NAN</DistanceMeters>
          </Trackpoint>
          <Trackpoint>
            <Time>2018-12-30T14:14:15.000Z</Time>
            <Position>
              <LatitudeDegrees>40.73841537348926067352294921875</LatitudeDegrees>
              <LongitudeDegrees>-4.0796370618045330047607421875</LongitudeDegrees>
            </Position>
            <AltitudeMeters>1318.800048828125</AltitudeMeters>
            <DistanceMeters>NAN</DistanceMeters>
          </Trackpoint>
          <Trackpoint>
            <Time>2018-12-30T14:14:16.000Z</Time>
            <Position>
              <LatitudeDegrees>40.73840078897774219512939453125</LatitudeDegrees>
              <LongitudeDegrees>-4.079616107046604156494140625</LongitudeDegrees>
            </Position>
            <AltitudeMeters>1318.800048828125</AltitudeMeters>
            <DistanceMeters>NAN</DistanceMeters>
          </Trackpoint>
          <Trackpoint>
            <Time>2018-12-30T14:14:17.000Z</Time>
            <Position>
              <LatitudeDegrees>40.73838117532432079315185546875</LatitudeDegrees>
              <LongitudeDegrees>-4.07958467490971088409423828125</LongitudeDegrees>
            </Position>
            <AltitudeMeters>1318.4000244140625</AltitudeMeters>
            <DistanceMeters>NAN</DistanceMeters>
          </Trackpoint>
          <Trackpoint>
            <Time>2018-12-30T14:14:18.000Z</Time>
            <Position>
              <LatitudeDegrees>40.73837078176438808441162109375</LatitudeDegrees>
              <LongitudeDegrees>-4.07955517061054706573486328125</LongitudeDegrees>
            </Position>
            <AltitudeMeters>1317.5999755859375</AltitudeMeters>
            <DistanceMeters>NAN</DistanceMeters>
          </Trackpoint>
          <Trackpoint>
            <Time>2018-12-30T14:14:19.000Z</Time>
            <Position>
              <LatitudeDegrees>40.73836206458508968353271484375</LatitudeDegrees>
              <LongitudeDegrees>-4.0795312821865081787109375</LongitudeDegrees>
            </Position>
            <AltitudeMeters>1317.5999755859375</AltitudeMeters>
            <DistanceMeters>NAN</DistanceMeters>
          </Trackpoint>
          <Trackpoint>
            <Time>2018-12-30T14:14:20.000Z</Time>
            <Position>
              <LatitudeDegrees>40.7383505813777446746826171875</LatitudeDegrees>
              <LongitudeDegrees>-4.07951275818049907684326171875</LongitudeDegrees>
            </Position>
            <AltitudeMeters>1317.4000244140625</AltitudeMeters>
            <DistanceMeters>NAN</DistanceMeters>
          </Trackpoint>
          <Trackpoint>
            <Time>2018-12-30T14:14:21.000Z</Time>
            <Position>
              <LatitudeDegrees>40.7383421994745731353759765625</LatitudeDegrees>
              <LongitudeDegrees>-4.07949062995612621307373046875</LongitudeDegrees>
            </Position>
            <AltitudeMeters>1317.199951171875</AltitudeMeters>
            <DistanceMeters>NAN</DistanceMeters>
          </Trackpoint>
          <Trackpoint>
            <Time>2018-12-30T14:14:22.000Z</Time>
            <Position>
              <LatitudeDegrees>40.73833725415170192718505859375</LatitudeDegrees>
              <LongitudeDegrees>-4.079469256103038787841796875</LongitudeDegrees>
            </Position>
            <AltitudeMeters>1317</AltitudeMeters>
            <DistanceMeters>NAN</DistanceMeters>
          </Trackpoint>
          <Trackpoint>
            <Time>2018-12-30T14:14:23.000Z</Time>
            <Position>
              <LatitudeDegrees>40.73833105154335498809814453125</LatitudeDegrees>
              <LongitudeDegrees>-4.0794503130018711090087890625</LongitudeDegrees>
            </Position>
            <AltitudeMeters>1316.800048828125</AltitudeMeters>
            <DistanceMeters>NAN</DistanceMeters>
          </Trackpoint>
          <Trackpoint>
            <Time>2018-12-30T14:14:24.000Z</Time>
            <Position>
              <LatitudeDegrees>40.73832401074469089508056640625</LatitudeDegrees>
              <LongitudeDegrees>-4.0794318728148937225341796875</LongitudeDegrees>
            </Position>
            <AltitudeMeters>1316.5999755859375</AltitudeMeters>
            <DistanceMeters>NAN</DistanceMeters>
          </Trackpoint>
          <Trackpoint>
            <Time>2018-12-30T14:14:25.000Z</Time>
            <Position>
              <LatitudeDegrees>40.73831428773701190948486328125</LatitudeDegrees>
              <LongitudeDegrees>-4.07941401936113834381103515625</LongitudeDegrees>
            </Position>
            <AltitudeMeters>1316.199951171875</AltitudeMeters>
            <DistanceMeters>NAN</DistanceMeters>
          </Trackpoint>
          <Trackpoint>
            <Time>2018-12-30T14:14:26.000Z</Time>
            <Position>
              <LatitudeDegrees>40.7383046485483646392822265625</LatitudeDegrees>
              <LongitudeDegrees>-4.07939624972641468048095703125</LongitudeDegrees>
            </Position>
            <AltitudeMeters>1316.199951171875</AltitudeMeters>
            <DistanceMeters>NAN</DistanceMeters>
          </Trackpoint>
          <Trackpoint>
            <Time>2018-12-30T14:14:27.000Z</Time>
            <Position>
              <LatitudeDegrees>40.7382942549884319305419921875</LatitudeDegrees>
              <LongitudeDegrees>-4.0793757140636444091796875</LongitudeDegrees>
            </Position>
            <AltitudeMeters>1316</AltitudeMeters>
            <DistanceMeters>NAN</DistanceMeters>
          </Trackpoint>
          <Trackpoint>
            <Time>2018-12-30T14:14:28.000Z</Time>
            <Position>
              <LatitudeDegrees>40.73828981257975101470947265625</LatitudeDegrees>
              <LongitudeDegrees>-4.07935651950538158416748046875</LongitudeDegrees>
            </Position>
            <AltitudeMeters>1315.800048828125</AltitudeMeters>
            <DistanceMeters>NAN</DistanceMeters>
          </Trackpoint>
          <Trackpoint>
            <Time>2018-12-30T14:14:29.000Z</Time>
            <Position>
              <LatitudeDegrees>40.73829199187457561492919921875</LatitudeDegrees>
              <LongitudeDegrees>-4.079340510070323944091796875</LongitudeDegrees>
            </Position>
            <AltitudeMeters>1315.5999755859375</AltitudeMeters>
            <DistanceMeters>NAN</DistanceMeters>
          </Trackpoint>
          <Trackpoint>
            <Time>2018-12-30T14:14:30.000Z</Time>
            <Position>
              <LatitudeDegrees>40.7382892258465290069580078125</LatitudeDegrees>
              <LongitudeDegrees>-4.079323746263980865478515625</LongitudeDegrees>
            </Position>
            <AltitudeMeters>1315.199951171875</AltitudeMeters>
            <DistanceMeters>NAN</DistanceMeters>
          </Trackpoint>
          <Trackpoint>
            <Time>2018-12-30T14:14:31.000Z</Time>
            <Position>
              <LatitudeDegrees>40.73828143067657947540283203125</LatitudeDegrees>
              <LongitudeDegrees>-4.079303629696369171142578125</LongitudeDegrees>
            </Position>
            <AltitudeMeters>1314.800048828125</AltitudeMeters>
            <DistanceMeters>NAN</DistanceMeters>
          </Trackpoint>
          <Trackpoint>
            <Time>2018-12-30T14:14:32.000Z</Time>
            <Position>
              <LatitudeDegrees>40.7382717914879322052001953125</LatitudeDegrees>
              <LongitudeDegrees>-4.0792890451848506927490234375</LongitudeDegrees>
            </Position>
            <AltitudeMeters>1314.4000244140625</AltitudeMeters>
            <DistanceMeters>NAN</DistanceMeters>
          </Trackpoint>
          <Trackpoint>
            <Time>2018-12-30T14:14:33.000Z</Time>
            <Position>
              <LatitudeDegrees>40.73826231993734836578369140625</LatitudeDegrees>
              <LongitudeDegrees>-4.0792711079120635986328125</LongitudeDegrees>
            </Position>
            <AltitudeMeters>1314</AltitudeMeters>
            <DistanceMeters>NAN</DistanceMeters>
          </Trackpoint>
          <Trackpoint>
            <Time>2018-12-30T14:14:34.000Z</Time>
            <Position>
              <LatitudeDegrees>40.7382510043680667877197265625</LatitudeDegrees>
              <LongitudeDegrees>-4.07925459556281566619873046875</LongitudeDegrees>
            </Position>
            <AltitudeMeters>1313.5999755859375</AltitudeMeters>
            <DistanceMeters>NAN</DistanceMeters>
          </Trackpoint>
          <Trackpoint>
            <Time>2018-12-30T14:14:35.000Z</Time>
            <Position>
              <LatitudeDegrees>40.7382389344274997711181640625</LatitudeDegrees>
              <LongitudeDegrees>-4.07924302853643894195556640625</LongitudeDegrees>
            </Position>
            <AltitudeMeters>1313</AltitudeMeters>
            <DistanceMeters>NAN</DistanceMeters>
          </Trackpoint>
          <Trackpoint>
            <Time>2018-12-30T14:14:36.000Z</Time>
            <Position>
              <LatitudeDegrees>40.7382233440876007080078125</LatitudeDegrees>
              <LongitudeDegrees>-4.079238586127758026123046875</LongitudeDegrees>
            </Position>
            <AltitudeMeters>1312.800048828125</AltitudeMeters>
            <DistanceMeters>NAN</DistanceMeters>
          </Trackpoint>
          <Trackpoint>
            <Time>2018-12-30T14:14:37.000Z</Time>
            <Position>
              <LatitudeDegrees>40.73821253143250942230224609375</LatitudeDegrees>
              <LongitudeDegrees>-4.0792280249297618865966796875</LongitudeDegrees>
            </Position>
            <AltitudeMeters>1312.4000244140625</AltitudeMeters>
            <DistanceMeters>NAN</DistanceMeters>
          </Trackpoint>
          <Trackpoint>
            <Time>2018-12-30T14:14:38.000Z</Time>
            <Position>
              <LatitudeDegrees>40.73820264078676700592041015625</LatitudeDegrees>
              <LongitudeDegrees>-4.0792129375040531158447265625</LongitudeDegrees>
            </Position>
            <AltitudeMeters>1312.199951171875</AltitudeMeters>
            <DistanceMeters>NAN</DistanceMeters>
          </Trackpoint>
          <Trackpoint>
            <Time>2018-12-30T14:14:39.000Z</Time>
            <Position>
              <LatitudeDegrees>40.73819442652165889739990234375</LatitudeDegrees>
              <LongitudeDegrees>-4.07920044846832752227783203125</LongitudeDegrees>
            </Position>
            <AltitudeMeters>1311.800048828125</AltitudeMeters>
            <DistanceMeters>NAN</DistanceMeters>
          </Trackpoint>
          <Trackpoint>
            <Time>2018-12-30T14:14:40.000Z</Time>
            <Position>
              <LatitudeDegrees>40.738192498683929443359375</LatitudeDegrees>
              <LongitudeDegrees>-4.07919508405029773712158203125</LongitudeDegrees>
            </Position>
            <AltitudeMeters>1311.5999755859375</AltitudeMeters>
            <DistanceMeters>NAN</DistanceMeters>
          </Trackpoint>
          <Trackpoint>
            <Time>2018-12-30T14:14:41.000Z</Time>
            <Position>
              <LatitudeDegrees>40.738192498683929443359375</LatitudeDegrees>
              <LongitudeDegrees>-4.0791933238506317138671875</LongitudeDegrees>
            </Position>
            <AltitudeMeters>1311.4000244140625</AltitudeMeters>
            <DistanceMeters>NAN</DistanceMeters>
          </Trackpoint>
          <Trackpoint>
            <Time>2018-12-30T14:14:42.000Z</Time>
            <Position>
              <LatitudeDegrees>40.73819090612232685089111328125</LatitudeDegrees>
              <LongitudeDegrees>-4.0791941620409488677978515625</LongitudeDegrees>
            </Position>
            <AltitudeMeters>1311.4000244140625</AltitudeMeters>
            <DistanceMeters>NAN</DistanceMeters>
          </Trackpoint>
          <Trackpoint>
            <Time>2018-12-30T14:14:43.000Z</Time>
            <Position>
              <LatitudeDegrees>40.73818872682750225067138671875</LatitudeDegrees>
              <LongitudeDegrees>-4.079192988574504852294921875</LongitudeDegrees>
            </Position>
            <AltitudeMeters>1311.199951171875</AltitudeMeters>
            <DistanceMeters>NAN</DistanceMeters>
          </Trackpoint>
          <Trackpoint>
            <Time>2018-12-30T14:14:44.000Z</Time>
            <Position>
              <LatitudeDegrees>40.7381856255233287811279296875</LatitudeDegrees>
              <LongitudeDegrees>-4.0791921503841876983642578125</LongitudeDegrees>
            </Position>
            <AltitudeMeters>1311.199951171875</AltitudeMeters>
            <DistanceMeters>NAN</DistanceMeters>
          </Trackpoint>
          <Trackpoint>
            <Time>2018-12-30T14:14:45.000Z</Time>
            <Position>
              <LatitudeDegrees>40.7381802611052989959716796875</LatitudeDegrees>
              <LongitudeDegrees>-4.07918502576649188995361328125</LongitudeDegrees>
            </Position>
            <AltitudeMeters>1311.199951171875</AltitudeMeters>
            <DistanceMeters>NAN</DistanceMeters>
          </Trackpoint>
          <Trackpoint>
            <Time>2018-12-30T14:14:46.000Z</Time>
            <Position>
              <LatitudeDegrees>40.73817280121147632598876953125</LatitudeDegrees>
              <LongitudeDegrees>-4.0791596285998821258544921875</LongitudeDegrees>
            </Position>
            <AltitudeMeters>1311.199951171875</AltitudeMeters>
            <DistanceMeters>NAN</DistanceMeters>
          </Trackpoint>
          <Trackpoint>
            <Time>2018-12-30T14:14:47.000Z</Time>
            <Position>
              <LatitudeDegrees>40.73815721087157726287841796875</LatitudeDegrees>
              <LongitudeDegrees>-4.079141356050968170166015625</LongitudeDegrees>
            </Position>
            <AltitudeMeters>1311.199951171875</AltitudeMeters>
            <DistanceMeters>NAN</DistanceMeters>
          </Trackpoint>
          <Trackpoint>
            <Time>2018-12-30T14:14:48.000Z</Time>
            <Position>
              <LatitudeDegrees>40.738139860332012176513671875</LatitudeDegrees>
              <LongitudeDegrees>-4.07913221977651119232177734375</LongitudeDegrees>
            </Position>
            <AltitudeMeters>1311</AltitudeMeters>
            <DistanceMeters>NAN</DistanceMeters>
          </Trackpoint>
          <Trackpoint>
            <Time>2018-12-30T14:14:49.000Z</Time>
            <Position>
              <LatitudeDegrees>40.73812921531498432159423828125</LatitudeDegrees>
              <LongitudeDegrees>-4.07911847345530986785888671875</LongitudeDegrees>
            </Position>
            <AltitudeMeters>1310.800048828125</AltitudeMeters>
            <DistanceMeters>NAN</DistanceMeters>
          </Trackpoint>
          <Trackpoint>
            <Time>2018-12-30T14:14:50.000Z</Time>
            <Position>
              <LatitudeDegrees>40.73811672627925872802734375</LatitudeDegrees>
              <LongitudeDegrees>-4.07910087145864963531494140625</LongitudeDegrees>
            </Position>
            <AltitudeMeters>1310.5999755859375</AltitudeMeters>
            <DistanceMeters>NAN</DistanceMeters>
          </Trackpoint>
          <Trackpoint>
            <Time>2018-12-30T14:14:51.000Z</Time>
            <Position>
              <LatitudeDegrees>40.73810423724353313446044921875</LatitudeDegrees>
              <LongitudeDegrees>-4.07908243127167224884033203125</LongitudeDegrees>
            </Position>
            <AltitudeMeters>1310.4000244140625</AltitudeMeters>
            <DistanceMeters>NAN</DistanceMeters>
          </Trackpoint>
          <Trackpoint>
            <Time>2018-12-30T14:14:52.000Z</Time>
            <Position>
              <LatitudeDegrees>40.73809183202683925628662109375</LatitudeDegrees>
              <LongitudeDegrees>-4.0790674276649951934814453125</LongitudeDegrees>
            </Position>
            <AltitudeMeters>1310.199951171875</AltitudeMeters>
            <DistanceMeters>NAN</DistanceMeters>
          </Trackpoint>
          <Trackpoint>
            <Time>2018-12-30T14:14:53.000Z</Time>
            <Position>
              <LatitudeDegrees>40.73807959444820880889892578125</LatitudeDegrees>
              <LongitudeDegrees>-4.0790452994406223297119140625</LongitudeDegrees>
            </Position>
            <AltitudeMeters>1310</AltitudeMeters>
            <DistanceMeters>NAN</DistanceMeters>
          </Trackpoint>
          <Trackpoint>
            <Time>2018-12-30T14:14:54.000Z</Time>
            <Position>
              <LatitudeDegrees>40.73806500993669033050537109375</LatitudeDegrees>
              <LongitudeDegrees>-4.07902694307267665863037109375</LongitudeDegrees>
            </Position>
            <AltitudeMeters>1309.5999755859375</AltitudeMeters>
            <DistanceMeters>NAN</DistanceMeters>
          </Trackpoint>
          <Trackpoint>
            <Time>2018-12-30T14:14:55.000Z</Time>
            <Position>
              <LatitudeDegrees>40.7380528561770915985107421875</LatitudeDegrees>
              <LongitudeDegrees>-4.07901353202760219573974609375</LongitudeDegrees>
            </Position>
            <AltitudeMeters>1309.4000244140625</AltitudeMeters>
            <DistanceMeters>NAN</DistanceMeters>
          </Trackpoint>
          <Trackpoint>
            <Time>2018-12-30T14:14:56.000Z</Time>
            <Position>
              <LatitudeDegrees>40.73804070241749286651611328125</LatitudeDegrees>
              <LongitudeDegrees>-4.07899685204029083251953125</LongitudeDegrees>
            </Position>
            <AltitudeMeters>1309.4000244140625</AltitudeMeters>
            <DistanceMeters>NAN</DistanceMeters>
          </Trackpoint>
          <Trackpoint>
            <Time>2018-12-30T14:14:57.000Z</Time>
            <Position>
              <LatitudeDegrees>40.7380275428295135498046875</LatitudeDegrees>
              <LongitudeDegrees>-4.0789779089391231536865234375</LongitudeDegrees>
            </Position>
            <AltitudeMeters>1309.199951171875</AltitudeMeters>
            <DistanceMeters>NAN</DistanceMeters>
          </Trackpoint>
          <Trackpoint>
            <Time>2018-12-30T14:14:58.000Z</Time>
            <Position>
              <LatitudeDegrees>40.7380189932882785797119140625</LatitudeDegrees>
              <LongitudeDegrees>-4.07896441407501697540283203125</LongitudeDegrees>
            </Position>
            <AltitudeMeters>1309</AltitudeMeters>
            <DistanceMeters>NAN</DistanceMeters>
          </Trackpoint>
          <Trackpoint>
            <Time>2018-12-30T14:14:59.000Z</Time>
            <Position>
              <LatitudeDegrees>40.73800868354737758636474609375</LatitudeDegrees>
              <LongitudeDegrees>-4.07894865609705448150634765625</LongitudeDegrees>
            </Position>
            <AltitudeMeters>1308.5999755859375</AltitudeMeters>
            <DistanceMeters>NAN</DistanceMeters>
          </Trackpoint>
          <Trackpoint>
            <Time>2018-12-30T14:15:00.000Z</Time>
            <Position>
              <LatitudeDegrees>40.73799862526357173919677734375</LatitudeDegrees>
              <LongitudeDegrees>-4.07892317511141300201416015625</LongitudeDegrees>
            </Position>
            <AltitudeMeters>1308.199951171875</AltitudeMeters>
            <DistanceMeters>NAN</DistanceMeters>
          </Trackpoint>
          <Trackpoint>
            <Time>2018-12-30T14:15:01.000Z</Time>
            <Position>
              <LatitudeDegrees>40.737987644970417022705078125</LatitudeDegrees>
              <LongitudeDegrees>-4.07890674658119678497314453125</LongitudeDegrees>
            </Position>
            <AltitudeMeters>1308.199951171875</AltitudeMeters>
            <DistanceMeters>NAN</DistanceMeters>
          </Trackpoint>
          <Trackpoint>
            <Time>2018-12-30T14:15:02.000Z</Time>
            <Position>
              <LatitudeDegrees>40.73797599412500858306884765625</LatitudeDegrees>
              <LongitudeDegrees>-4.07888797111809253692626953125</LongitudeDegrees>
            </Position>
            <AltitudeMeters>1308</AltitudeMeters>
            <DistanceMeters>NAN</DistanceMeters>
          </Trackpoint>
          <Trackpoint>
            <Time>2018-12-30T14:15:03.000Z</Time>
            <Position>
              <LatitudeDegrees>40.7379640080034732818603515625</LatitudeDegrees>
              <LongitudeDegrees>-4.07886299304664134979248046875</LongitudeDegrees>
            </Position>
            <AltitudeMeters>1307.800048828125</AltitudeMeters>
            <DistanceMeters>NAN</DistanceMeters>
          </Trackpoint>
          <Trackpoint>
            <Time>2018-12-30T14:15:04.000Z</Time>
            <Position>
              <LatitudeDegrees>40.737949423491954803466796875</LatitudeDegrees>
              <LongitudeDegrees>-4.07884321175515651702880859375</LongitudeDegrees>
            </Position>
            <AltitudeMeters>1307.199951171875</AltitudeMeters>
            <DistanceMeters>NAN</DistanceMeters>
          </Trackpoint>
          <Trackpoint>
            <Time>2018-12-30T14:15:05.000Z</Time>
            <Position>
              <LatitudeDegrees>40.7379355095326900482177734375</LatitudeDegrees>
              <LongitudeDegrees>-4.07882711850106716156005859375</LongitudeDegrees>
            </Position>
            <AltitudeMeters>1306.800048828125</AltitudeMeters>
            <DistanceMeters>NAN</DistanceMeters>
          </Trackpoint>
          <Trackpoint>
            <Time>2018-12-30T14:15:06.000Z</Time>
            <Position>
              <LatitudeDegrees>40.7379217632114887237548828125</LatitudeDegrees>
              <LongitudeDegrees>-4.07880767248570919036865234375</LongitudeDegrees>
            </Position>
            <AltitudeMeters>1306.5999755859375</AltitudeMeters>
            <DistanceMeters>NAN</DistanceMeters>
          </Trackpoint>
          <Trackpoint>
            <Time>2018-12-30T14:15:07.000Z</Time>
            <Position>
              <LatitudeDegrees>40.7379090227186679840087890625</LatitudeDegrees>
              <LongitudeDegrees>-4.0787683613598346710205078125</LongitudeDegrees>
            </Position>
            <AltitudeMeters>1306.4000244140625</AltitudeMeters>
            <DistanceMeters>NAN</DistanceMeters>
          </Trackpoint>
          <Trackpoint>
            <Time>2018-12-30T14:15:08.000Z</Time>
            <Position>
              <LatitudeDegrees>40.73789435438811779022216796875</LatitudeDegrees>
              <LongitudeDegrees>-4.07874883152544498443603515625</LongitudeDegrees>
            </Position>
            <AltitudeMeters>1306.199951171875</AltitudeMeters>
            <DistanceMeters>NAN</DistanceMeters>
          </Trackpoint>
          <Trackpoint>
            <Time>2018-12-30T14:15:09.000Z</Time>
            <Position>
              <LatitudeDegrees>40.73788094334304332733154296875</LatitudeDegrees>
              <LongitudeDegrees>-4.0787244401872158050537109375</LongitudeDegrees>
            </Position>
            <AltitudeMeters>1306</AltitudeMeters>
            <DistanceMeters>NAN</DistanceMeters>
          </Trackpoint>
          <Trackpoint>
            <Time>2018-12-30T14:15:10.000Z</Time>
            <Position>
              <LatitudeDegrees>40.73786862194538116455078125</LatitudeDegrees>
              <LongitudeDegrees>-4.07870742492377758026123046875</LongitudeDegrees>
            </Position>
            <AltitudeMeters>1306</AltitudeMeters>
            <DistanceMeters>NAN</DistanceMeters>
          </Trackpoint>
          <Trackpoint>
            <Time>2018-12-30T14:15:11.000Z</Time>
            <Position>
              <LatitudeDegrees>40.7378567196428775787353515625</LatitudeDegrees>
              <LongitudeDegrees>-4.078693091869354248046875</LongitudeDegrees>
            </Position>
            <AltitudeMeters>1305.5999755859375</AltitudeMeters>
            <DistanceMeters>NAN</DistanceMeters>
          </Trackpoint>
          <Trackpoint>
            <Time>2018-12-30T14:15:12.000Z</Time>
            <Position>
              <LatitudeDegrees>40.7378456555306911468505859375</LatitudeDegrees>
              <LongitudeDegrees>-4.07866870053112506866455078125</LongitudeDegrees>
            </Position>
            <AltitudeMeters>1305.4000244140625</AltitudeMeters>
            <DistanceMeters>NAN</DistanceMeters>
          </Trackpoint>
          <Trackpoint>
            <Time>2018-12-30T14:15:13.000Z</Time>
            <Position>
              <LatitudeDegrees>40.737833417952060699462890625</LatitudeDegrees>
              <LongitudeDegrees>-4.07865428365767002105712890625</LongitudeDegrees>
            </Position>
            <AltitudeMeters>1305</AltitudeMeters>
            <DistanceMeters>NAN</DistanceMeters>
          </Trackpoint>
          <Trackpoint>
            <Time>2018-12-30T14:15:14.000Z</Time>
            <Position>
              <LatitudeDegrees>40.73781942017376422882080078125</LatitudeDegrees>
              <LongitudeDegrees>-4.07863936387002468109130859375</LongitudeDegrees>
            </Position>
            <AltitudeMeters>1304.5999755859375</AltitudeMeters>
            <DistanceMeters>NAN</DistanceMeters>
          </Trackpoint>
          <Trackpoint>
            <Time>2018-12-30T14:15:15.000Z</Time>
            <Position>
              <LatitudeDegrees>40.73780701495707035064697265625</LatitudeDegrees>
              <LongitudeDegrees>-4.07861455343663692474365234375</LongitudeDegrees>
            </Position>
            <AltitudeMeters>1304.4000244140625</AltitudeMeters>
            <DistanceMeters>NAN</DistanceMeters>
          </Trackpoint>
          <Trackpoint>
            <Time>2018-12-30T14:15:16.000Z</Time>
            <Position>
              <LatitudeDegrees>40.73779284954071044921875</LatitudeDegrees>
              <LongitudeDegrees>-4.0785993821918964385986328125</LongitudeDegrees>
            </Position>
            <AltitudeMeters>1304.199951171875</AltitudeMeters>
            <DistanceMeters>NAN</DistanceMeters>
          </Trackpoint>
          <Trackpoint>
            <Time>2018-12-30T14:15:17.000Z</Time>
            <Position>
              <LatitudeDegrees>40.73777667246758937835693359375</LatitudeDegrees>
              <LongitudeDegrees>-4.07858513295650482177734375</LongitudeDegrees>
            </Position>
            <AltitudeMeters>1303.800048828125</AltitudeMeters>
            <DistanceMeters>NAN</DistanceMeters>
          </Trackpoint>
          <Trackpoint>
            <Time>2018-12-30T14:15:18.000Z</Time>
            <Position>
              <LatitudeDegrees>40.737764351069927215576171875</LatitudeDegrees>
              <LongitudeDegrees>-4.078568033874034881591796875</LongitudeDegrees>
            </Position>
            <AltitudeMeters>1303.5999755859375</AltitudeMeters>
            <DistanceMeters>NAN</DistanceMeters>
          </Trackpoint>
          <Trackpoint>
            <Time>2018-12-30T14:15:19.000Z</Time>
            <Position>
              <LatitudeDegrees>40.7377512753009796142578125</LatitudeDegrees>
              <LongitudeDegrees>-4.0785524435341358184814453125</LongitudeDegrees>
            </Position>
            <AltitudeMeters>1303.199951171875</AltitudeMeters>
            <DistanceMeters>NAN</DistanceMeters>
          </Trackpoint>
          <Trackpoint>
            <Time>2018-12-30T14:15:20.000Z</Time>
            <Position>
              <LatitudeDegrees>40.73773694224655628204345703125</LatitudeDegrees>
              <LongitudeDegrees>-4.07853844575583934783935546875</LongitudeDegrees>
            </Position>
            <AltitudeMeters>1303</AltitudeMeters>
            <DistanceMeters>NAN</DistanceMeters>
          </Trackpoint>
          <Trackpoint>
            <Time>2018-12-30T14:15:21.000Z</Time>
            <Position>
              <LatitudeDegrees>40.73772436939179897308349609375</LatitudeDegrees>
              <LongitudeDegrees>-4.07851547934114933013916015625</LongitudeDegrees>
            </Position>
            <AltitudeMeters>1303</AltitudeMeters>
            <DistanceMeters>NAN</DistanceMeters>
          </Trackpoint>
          <Trackpoint>
            <Time>2018-12-30T14:15:22.000Z</Time>
            <Position>
              <LatitudeDegrees>40.7377112098038196563720703125</LatitudeDegrees>
              <LongitudeDegrees>-4.07849729061126708984375</LongitudeDegrees>
            </Position>
            <AltitudeMeters>1302.800048828125</AltitudeMeters>
            <DistanceMeters>NAN</DistanceMeters>
          </Trackpoint>
          <Trackpoint>
            <Time>2018-12-30T14:15:23.000Z</Time>
            <Position>
              <LatitudeDegrees>40.73769855313003063201904296875</LatitudeDegrees>
              <LongitudeDegrees>-4.07848211936652660369873046875</LongitudeDegrees>
            </Position>
            <AltitudeMeters>1302.800048828125</AltitudeMeters>
            <DistanceMeters>NAN</DistanceMeters>
          </Trackpoint>
          <Trackpoint>
            <Time>2018-12-30T14:15:24.000Z</Time>
            <Position>
              <LatitudeDegrees>40.7376813702285289764404296875</LatitudeDegrees>
              <LongitudeDegrees>-4.0784664452075958251953125</LongitudeDegrees>
            </Position>
            <AltitudeMeters>1302.800048828125</AltitudeMeters>
            <DistanceMeters>NAN</DistanceMeters>
          </Trackpoint>
          <Trackpoint>
            <Time>2018-12-30T14:15:25.000Z</Time>
            <Position>
              <LatitudeDegrees>40.73766209185123443603515625</LatitudeDegrees>
              <LongitudeDegrees>-4.07845102250576019287109375</LongitudeDegrees>
            </Position>
            <AltitudeMeters>1302.4000244140625</AltitudeMeters>
            <DistanceMeters>NAN</DistanceMeters>
          </Trackpoint>
          <Trackpoint>
            <Time>2018-12-30T14:15:26.000Z</Time>
            <Position>
              <LatitudeDegrees>40.73764524422585964202880859375</LatitudeDegrees>
              <LongitudeDegrees>-4.07843752764165401458740234375</LongitudeDegrees>
            </Position>
            <AltitudeMeters>1302.4000244140625</AltitudeMeters>
            <DistanceMeters>NAN</DistanceMeters>
          </Trackpoint>
          <Trackpoint>
            <Time>2018-12-30T14:15:27.000Z</Time>
            <Position>
              <LatitudeDegrees>40.7376273907721042633056640625</LatitudeDegrees>
              <LongitudeDegrees>-4.0784243680536746978759765625</LongitudeDegrees>
            </Position>
            <AltitudeMeters>1302.199951171875</AltitudeMeters>
            <DistanceMeters>NAN</DistanceMeters>
          </Trackpoint>
          <Trackpoint>
            <Time>2018-12-30T14:15:28.000Z</Time>
            <Position>
              <LatitudeDegrees>40.7376072742044925689697265625</LatitudeDegrees>
              <LongitudeDegrees>-4.0784089453518390655517578125</LongitudeDegrees>
            </Position>
            <AltitudeMeters>1301.800048828125</AltitudeMeters>
            <DistanceMeters>NAN</DistanceMeters>
          </Trackpoint>
          <Trackpoint>
            <Time>2018-12-30T14:15:29.000Z</Time>
            <Position>
              <LatitudeDegrees>40.73758673854172229766845703125</LatitudeDegrees>
              <LongitudeDegrees>-4.07839796505868434906005859375</LongitudeDegrees>
            </Position>
            <AltitudeMeters>1301.5999755859375</AltitudeMeters>
            <DistanceMeters>NAN</DistanceMeters>
          </Trackpoint>
          <Trackpoint>
            <Time>2018-12-30T14:15:30.000Z</Time>
            <Position>
              <LatitudeDegrees>40.73756930418312549591064453125</LatitudeDegrees>
              <LongitudeDegrees>-4.078386314213275909423828125</LongitudeDegrees>
            </Position>
            <AltitudeMeters>1301.4000244140625</AltitudeMeters>
            <DistanceMeters>NAN</DistanceMeters>
          </Trackpoint>
          <Trackpoint>
            <Time>2018-12-30T14:15:31.000Z</Time>
            <Position>
              <LatitudeDegrees>40.7375519536435604095458984375</LatitudeDegrees>
              <LongitudeDegrees>-4.07837248407304286956787109375</LongitudeDegrees>
            </Position>
            <AltitudeMeters>1301.199951171875</AltitudeMeters>
            <DistanceMeters>NAN</DistanceMeters>
          </Trackpoint>
          <Trackpoint>
            <Time>2018-12-30T14:15:32.000Z</Time>
            <Position>
              <LatitudeDegrees>40.7375338487327098846435546875</LatitudeDegrees>
              <LongitudeDegrees>-4.07835982739925384521484375</LongitudeDegrees>
            </Position>
            <AltitudeMeters>1301.199951171875</AltitudeMeters>
            <DistanceMeters>NAN</DistanceMeters>
          </Trackpoint>
          <Trackpoint>
            <Time>2018-12-30T14:15:33.000Z</Time>
            <Position>
              <LatitudeDegrees>40.7375160790979862213134765625</LatitudeDegrees>
              <LongitudeDegrees>-4.07834708690643310546875</LongitudeDegrees>
            </Position>
            <AltitudeMeters>1300.800048828125</AltitudeMeters>
            <DistanceMeters>NAN</DistanceMeters>
          </Trackpoint>
          <Trackpoint>
            <Time>2018-12-30T14:15:34.000Z</Time>
            <Position>
              <LatitudeDegrees>40.7374952919781208038330078125</LatitudeDegrees>
              <LongitudeDegrees>-4.07833778299391269683837890625</LongitudeDegrees>
            </Position>
            <AltitudeMeters>1300.800048828125</AltitudeMeters>
            <DistanceMeters>NAN</DistanceMeters>
          </Trackpoint>
          <Trackpoint>
            <Time>2018-12-30T14:15:35.000Z</Time>
            <Position>
              <LatitudeDegrees>40.73747701942920684814453125</LatitudeDegrees>
              <LongitudeDegrees>-4.07833007164299488067626953125</LongitudeDegrees>
            </Position>
            <AltitudeMeters>1300.800048828125</AltitudeMeters>
            <DistanceMeters>NAN</DistanceMeters>
          </Trackpoint>
          <Trackpoint>
            <Time>2018-12-30T14:15:36.000Z</Time>
            <Position>
              <LatitudeDegrees>40.73745715431869029998779296875</LatitudeDegrees>
              <LongitudeDegrees>-4.07832571305334568023681640625</LongitudeDegrees>
            </Position>
            <AltitudeMeters>1300.5999755859375</AltitudeMeters>
            <DistanceMeters>NAN</DistanceMeters>
          </Trackpoint>
          <Trackpoint>
            <Time>2018-12-30T14:15:37.000Z</Time>
            <Position>
              <LatitudeDegrees>40.7374374568462371826171875</LatitudeDegrees>
              <LongitudeDegrees>-4.0783214382827281951904296875</LongitudeDegrees>
            </Position>
            <AltitudeMeters>1300.5999755859375</AltitudeMeters>
            <DistanceMeters>NAN</DistanceMeters>
          </Trackpoint>
          <Trackpoint>
            <Time>2018-12-30T14:15:38.000Z</Time>
            <Position>
              <LatitudeDegrees>40.73741759173572063446044921875</LatitudeDegrees>
              <LongitudeDegrees>-4.07831883989274501800537109375</LongitudeDegrees>
            </Position>
            <AltitudeMeters>1300.5999755859375</AltitudeMeters>
            <DistanceMeters>NAN</DistanceMeters>
          </Trackpoint>
          <Trackpoint>
            <Time>2018-12-30T14:15:39.000Z</Time>
            <Position>
              <LatitudeDegrees>40.737399570643901824951171875</LatitudeDegrees>
              <LongitudeDegrees>-4.0783133916556835174560546875</LongitudeDegrees>
            </Position>
            <AltitudeMeters>1300.199951171875</AltitudeMeters>
            <DistanceMeters>NAN</DistanceMeters>
          </Trackpoint>
          <Trackpoint>
            <Time>2018-12-30T14:15:40.000Z</Time>
            <Position>
              <LatitudeDegrees>40.7373782806098461151123046875</LatitudeDegrees>
              <LongitudeDegrees>-4.0783063508570194244384765625</LongitudeDegrees>
            </Position>
            <AltitudeMeters>1300</AltitudeMeters>
            <DistanceMeters>NAN</DistanceMeters>
          </Trackpoint>
          <Trackpoint>
            <Time>2018-12-30T14:15:41.000Z</Time>
            <Position>
              <LatitudeDegrees>40.7373591698706150054931640625</LatitudeDegrees>
              <LongitudeDegrees>-4.07830174081027507781982421875</LongitudeDegrees>
            </Position>
            <AltitudeMeters>1300</AltitudeMeters>
            <DistanceMeters>NAN</DistanceMeters>
          </Trackpoint>
          <Trackpoint>
            <Time>2018-12-30T14:15:42.000Z</Time>
            <Position>
              <LatitudeDegrees>40.737341232597827911376953125</LatitudeDegrees>
              <LongitudeDegrees>-4.07829553820192813873291015625</LongitudeDegrees>
            </Position>
            <AltitudeMeters>1299.800048828125</AltitudeMeters>
            <DistanceMeters>NAN</DistanceMeters>
          </Trackpoint>
          <Trackpoint>
            <Time>2018-12-30T14:15:43.000Z</Time>
            <Position>
              <LatitudeDegrees>40.73732237331569194793701171875</LatitudeDegrees>
              <LongitudeDegrees>-4.078291095793247222900390625</LongitudeDegrees>
            </Position>
            <AltitudeMeters>1299.5999755859375</AltitudeMeters>
            <DistanceMeters>NAN</DistanceMeters>
          </Trackpoint>
          <Trackpoint>
            <Time>2018-12-30T14:15:44.000Z</Time>
            <Position>
              <LatitudeDegrees>40.737301670014858245849609375</LatitudeDegrees>
              <LongitudeDegrees>-4.0782845579087734222412109375</LongitudeDegrees>
            </Position>
            <AltitudeMeters>1299.5999755859375</AltitudeMeters>
            <DistanceMeters>NAN</DistanceMeters>
          </Trackpoint>
          <Trackpoint>
            <Time>2018-12-30T14:15:45.000Z</Time>
            <Position>
              <LatitudeDegrees>40.73728046379983425140380859375</LatitudeDegrees>
              <LongitudeDegrees>-4.078277684748172760009765625</LongitudeDegrees>
            </Position>
            <AltitudeMeters>1299.4000244140625</AltitudeMeters>
            <DistanceMeters>NAN</DistanceMeters>
          </Trackpoint>
          <Trackpoint>
            <Time>2018-12-30T14:15:46.000Z</Time>
            <Position>
              <LatitudeDegrees>40.7372595928609371185302734375</LatitudeDegrees>
              <LongitudeDegrees>-4.0782775171101093292236328125</LongitudeDegrees>
            </Position>
            <AltitudeMeters>1299.199951171875</AltitudeMeters>
            <DistanceMeters>NAN</DistanceMeters>
          </Trackpoint>
          <Trackpoint>
            <Time>2018-12-30T14:15:47.000Z</Time>
            <Position>
              <LatitudeDegrees>40.737239979207515716552734375</LatitudeDegrees>
              <LongitudeDegrees>-4.07827525399625301361083984375</LongitudeDegrees>
            </Position>
            <AltitudeMeters>1299.199951171875</AltitudeMeters>
            <DistanceMeters>NAN</DistanceMeters>
          </Trackpoint>
          <Trackpoint>
            <Time>2018-12-30T14:15:48.000Z</Time>
            <Position>
              <LatitudeDegrees>40.737221203744411468505859375</LatitudeDegrees>
              <LongitudeDegrees>-4.07826729118824005126953125</LongitudeDegrees>
            </Position>
            <AltitudeMeters>1299.199951171875</AltitudeMeters>
            <DistanceMeters>NAN</DistanceMeters>
          </Trackpoint>
          <Trackpoint>
            <Time>2018-12-30T14:15:49.000Z</Time>
            <Position>
              <LatitudeDegrees>40.737201757729053497314453125</LatitudeDegrees>
              <LongitudeDegrees>-4.07826134003698825836181640625</LongitudeDegrees>
            </Position>
            <AltitudeMeters>1299</AltitudeMeters>
            <DistanceMeters>NAN</DistanceMeters>
          </Trackpoint>
          <Trackpoint>
            <Time>2018-12-30T14:15:50.000Z</Time>
            <Position>
              <LatitudeDegrees>40.7371834851801395416259765625</LatitudeDegrees>
              <LongitudeDegrees>-4.07825899310410022735595703125</LongitudeDegrees>
            </Position>
            <AltitudeMeters>1299.4000244140625</AltitudeMeters>
            <DistanceMeters>NAN</DistanceMeters>
          </Trackpoint>
          <Trackpoint>
            <Time>2018-12-30T14:15:51.000Z</Time>
            <Position>
              <LatitudeDegrees>40.73716445825994014739990234375</LatitudeDegrees>
              <LongitudeDegrees>-4.07826117239892482757568359375</LongitudeDegrees>
            </Position>
            <AltitudeMeters>1299.199951171875</AltitudeMeters>
            <DistanceMeters>NAN</DistanceMeters>
          </Trackpoint>
          <Trackpoint>
            <Time>2018-12-30T14:15:52.000Z</Time>
            <Position>
              <LatitudeDegrees>40.73714484460651874542236328125</LatitudeDegrees>
              <LongitudeDegrees>-4.07825999893248081207275390625</LongitudeDegrees>
            </Position>
            <AltitudeMeters>1299</AltitudeMeters>
            <DistanceMeters>NAN</DistanceMeters>
          </Trackpoint>
          <Trackpoint>
            <Time>2018-12-30T14:15:53.000Z</Time>
            <Position>
              <LatitudeDegrees>40.73712573386728763580322265625</LatitudeDegrees>
              <LongitudeDegrees>-4.07825924456119537353515625</LongitudeDegrees>
            </Position>
            <AltitudeMeters>1299</AltitudeMeters>
            <DistanceMeters>NAN</DistanceMeters>
          </Trackpoint>
          <Trackpoint>
            <Time>2018-12-30T14:15:54.000Z</Time>
            <Position>
              <LatitudeDegrees>40.737104527652263641357421875</LatitudeDegrees>
              <LongitudeDegrees>-4.07825949601829051971435546875</LongitudeDegrees>
            </Position>
            <AltitudeMeters>1299</AltitudeMeters>
            <DistanceMeters>NAN</DistanceMeters>
          </Trackpoint>
          <Trackpoint>
            <Time>2018-12-30T14:15:55.000Z</Time>
            <Position>
              <LatitudeDegrees>40.7370815612375736236572265625</LatitudeDegrees>
              <LongitudeDegrees>-4.07825865782797336578369140625</LongitudeDegrees>
            </Position>
            <AltitudeMeters>1298.800048828125</AltitudeMeters>
            <DistanceMeters>NAN</DistanceMeters>
          </Trackpoint>
          <Trackpoint>
            <Time>2018-12-30T14:15:56.000Z</Time>
            <Position>
              <LatitudeDegrees>40.73706102557480335235595703125</LatitudeDegrees>
              <LongitudeDegrees>-4.0782577358186244964599609375</LongitudeDegrees>
            </Position>
            <AltitudeMeters>1298.5999755859375</AltitudeMeters>
            <DistanceMeters>NAN</DistanceMeters>
          </Trackpoint>
          <Trackpoint>
            <Time>2018-12-30T14:15:57.000Z</Time>
            <Position>
              <LatitudeDegrees>40.737040825188159942626953125</LatitudeDegrees>
              <LongitudeDegrees>-4.07825279049575328826904296875</LongitudeDegrees>
            </Position>
            <AltitudeMeters>1298.5999755859375</AltitudeMeters>
            <DistanceMeters>NAN</DistanceMeters>
          </Trackpoint>
          <Trackpoint>
            <Time>2018-12-30T14:15:58.000Z</Time>
            <Position>
              <LatitudeDegrees>40.7370205409824848175048828125</LatitudeDegrees>
              <LongitudeDegrees>-4.07824574969708919525146484375</LongitudeDegrees>
            </Position>
            <AltitudeMeters>1298.5999755859375</AltitudeMeters>
            <DistanceMeters>NAN</DistanceMeters>
          </Trackpoint>
          <Trackpoint>
            <Time>2018-12-30T14:15:59.000Z</Time>
            <Position>
              <LatitudeDegrees>40.73700201697647571563720703125</LatitudeDegrees>
              <LongitudeDegrees>-4.0782423131167888641357421875</LongitudeDegrees>
            </Position>
            <AltitudeMeters>1298.5999755859375</AltitudeMeters>
            <DistanceMeters>NAN</DistanceMeters>
          </Trackpoint>
          <Trackpoint>
            <Time>2018-12-30T14:16:00.000Z</Time>
            <Position>
              <LatitudeDegrees>40.73698206804692745208740234375</LatitudeDegrees>
              <LongitudeDegrees>-4.07823669724166393280029296875</LongitudeDegrees>
            </Position>
            <AltitudeMeters>1298.5999755859375</AltitudeMeters>
            <DistanceMeters>NAN</DistanceMeters>
          </Trackpoint>
          <Trackpoint>
            <Time>2018-12-30T14:16:01.000Z</Time>
            <Position>
              <LatitudeDegrees>40.736963041126728057861328125</LatitudeDegrees>
              <LongitudeDegrees>-4.07823133282363414764404296875</LongitudeDegrees>
            </Position>
            <AltitudeMeters>1298.5999755859375</AltitudeMeters>
            <DistanceMeters>NAN</DistanceMeters>
          </Trackpoint>
          <Trackpoint>
            <Time>2018-12-30T14:16:02.000Z</Time>
            <Position>
              <LatitudeDegrees>40.7369434274733066558837890625</LatitudeDegrees>
              <LongitudeDegrees>-4.07822798006236553192138671875</LongitudeDegrees>
            </Position>
            <AltitudeMeters>1298.199951171875</AltitudeMeters>
            <DistanceMeters>NAN</DistanceMeters>
          </Trackpoint>
          <Trackpoint>
            <Time>2018-12-30T14:16:03.000Z</Time>
            <Position>
              <LatitudeDegrees>40.7369223050773143768310546875</LatitudeDegrees>
              <LongitudeDegrees>-4.07822311855852603912353515625</LongitudeDegrees>
            </Position>
            <AltitudeMeters>1298.199951171875</AltitudeMeters>
            <DistanceMeters>NAN</DistanceMeters>
          </Trackpoint>
          <Trackpoint>
            <Time>2018-12-30T14:16:04.000Z</Time>
            <Position>
              <LatitudeDegrees>40.7369036972522735595703125</LatitudeDegrees>
              <LongitudeDegrees>-4.07821523956954479217529296875</LongitudeDegrees>
            </Position>
            <AltitudeMeters>1298.199951171875</AltitudeMeters>
            <DistanceMeters>NAN</DistanceMeters>
          </Trackpoint>
          <Trackpoint>
            <Time>2018-12-30T14:16:05.000Z</Time>
            <Position>
              <LatitudeDegrees>40.73688383214175701141357421875</LatitudeDegrees>
              <LongitudeDegrees>-4.0782062709331512451171875</LongitudeDegrees>
            </Position>
            <AltitudeMeters>1298.199951171875</AltitudeMeters>
            <DistanceMeters>NAN</DistanceMeters>
          </Trackpoint>
          <Trackpoint>
            <Time>2018-12-30T14:16:06.000Z</Time>
            <Position>
              <LatitudeDegrees>40.7368629612028598785400390625</LatitudeDegrees>
              <LongitudeDegrees>-4.0781982243061065673828125</LongitudeDegrees>
            </Position>
            <AltitudeMeters>1298</AltitudeMeters>
            <DistanceMeters>NAN</DistanceMeters>
          </Trackpoint>
          <Trackpoint>
            <Time>2018-12-30T14:16:07.000Z</Time>
            <Position>
              <LatitudeDegrees>40.73684376664459705352783203125</LatitudeDegrees>
              <LongitudeDegrees>-4.07819244079291820526123046875</LongitudeDegrees>
            </Position>
            <AltitudeMeters>1297.800048828125</AltitudeMeters>
            <DistanceMeters>NAN</DistanceMeters>
          </Trackpoint>
          <Trackpoint>
            <Time>2018-12-30T14:16:08.000Z</Time>
            <Position>
              <LatitudeDegrees>40.73682297952473163604736328125</LatitudeDegrees>
              <LongitudeDegrees>-4.0781879983842372894287109375</LongitudeDegrees>
            </Position>
            <AltitudeMeters>1297.4000244140625</AltitudeMeters>
            <DistanceMeters>NAN</DistanceMeters>
          </Trackpoint>
          <Trackpoint>
            <Time>2018-12-30T14:16:09.000Z</Time>
            <Position>
              <LatitudeDegrees>40.73680118657648563385009765625</LatitudeDegrees>
              <LongitudeDegrees>-4.07818607054650783538818359375</LongitudeDegrees>
            </Position>
            <AltitudeMeters>1297.4000244140625</AltitudeMeters>
            <DistanceMeters>NAN</DistanceMeters>
          </Trackpoint>
          <Trackpoint>
            <Time>2018-12-30T14:16:10.000Z</Time>
            <Position>
              <LatitudeDegrees>40.73678123764693737030029296875</LatitudeDegrees>
              <LongitudeDegrees>-4.07818355597555637359619140625</LongitudeDegrees>
            </Position>
            <AltitudeMeters>1297.4000244140625</AltitudeMeters>
            <DistanceMeters>NAN</DistanceMeters>
          </Trackpoint>
          <Trackpoint>
            <Time>2018-12-30T14:16:11.000Z</Time>
            <Position>
              <LatitudeDegrees>40.7367607019841670989990234375</LatitudeDegrees>
              <LongitudeDegrees>-4.07817936502397060394287109375</LongitudeDegrees>
            </Position>
            <AltitudeMeters>1297.199951171875</AltitudeMeters>
            <DistanceMeters>NAN</DistanceMeters>
          </Trackpoint>
          <Trackpoint>
            <Time>2018-12-30T14:16:12.000Z</Time>
            <Position>
              <LatitudeDegrees>40.736741088330745697021484375</LatitudeDegrees>
              <LongitudeDegrees>-4.07816779799759387969970703125</LongitudeDegrees>
            </Position>
            <AltitudeMeters>1297.199951171875</AltitudeMeters>
            <DistanceMeters>NAN</DistanceMeters>
          </Trackpoint>
          <Trackpoint>
            <Time>2018-12-30T14:16:13.000Z</Time>
            <Position>
              <LatitudeDegrees>40.7367248274385929107666015625</LatitudeDegrees>
              <LongitudeDegrees>-4.078157655894756317138671875</LongitudeDegrees>
            </Position>
            <AltitudeMeters>1297.199951171875</AltitudeMeters>
            <DistanceMeters>NAN</DistanceMeters>
          </Trackpoint>
          <Trackpoint>
            <Time>2018-12-30T14:16:14.000Z</Time>
            <Position>
              <LatitudeDegrees>40.73670613579452037811279296875</LatitudeDegrees>
              <LongitudeDegrees>-4.078150279819965362548828125</LongitudeDegrees>
            </Position>
            <AltitudeMeters>1297</AltitudeMeters>
            <DistanceMeters>NAN</DistanceMeters>
          </Trackpoint>
          <Trackpoint>
            <Time>2018-12-30T14:16:15.000Z</Time>
            <Position>
              <LatitudeDegrees>40.7366859354078769683837890625</LatitudeDegrees>
              <LongitudeDegrees>-4.07814851962029933929443359375</LongitudeDegrees>
            </Position>
            <AltitudeMeters>1296.800048828125</AltitudeMeters>
            <DistanceMeters>NAN</DistanceMeters>
          </Trackpoint>
          <Trackpoint>
            <Time>2018-12-30T14:16:16.000Z</Time>
            <Position>
              <LatitudeDegrees>40.7366658188402652740478515625</LatitudeDegrees>
              <LongitudeDegrees>-4.07814818434417247772216796875</LongitudeDegrees>
            </Position>
            <AltitudeMeters>1296.5999755859375</AltitudeMeters>
            <DistanceMeters>NAN</DistanceMeters>
          </Trackpoint>
          <Trackpoint>
            <Time>2018-12-30T14:16:17.000Z</Time>
            <Position>
              <LatitudeDegrees>40.73664863593876361846923828125</LatitudeDegrees>
              <LongitudeDegrees>-4.07814701087772846221923828125</LongitudeDegrees>
            </Position>
            <AltitudeMeters>1296.4000244140625</AltitudeMeters>
            <DistanceMeters>NAN</DistanceMeters>
          </Trackpoint>
          <Trackpoint>
            <Time>2018-12-30T14:16:18.000Z</Time>
            <Position>
              <LatitudeDegrees>40.736630447208881378173828125</LatitudeDegrees>
              <LongitudeDegrees>-4.07814650796353816986083984375</LongitudeDegrees>
            </Position>
            <AltitudeMeters>1296.5999755859375</AltitudeMeters>
            <DistanceMeters>NAN</DistanceMeters>
          </Trackpoint>
          <Trackpoint>
            <Time>2018-12-30T14:16:19.000Z</Time>
            <Position>
              <LatitudeDegrees>40.7366118393838405609130859375</LatitudeDegrees>
              <LongitudeDegrees>-4.07814533449709415435791015625</LongitudeDegrees>
            </Position>
            <AltitudeMeters>1296.4000244140625</AltitudeMeters>
            <DistanceMeters>NAN</DistanceMeters>
          </Trackpoint>
          <Trackpoint>
            <Time>2018-12-30T14:16:20.000Z</Time>
            <Position>
              <LatitudeDegrees>40.736591555178165435791015625</LatitudeDegrees>
              <LongitudeDegrees>-4.07814248465001583099365234375</LongitudeDegrees>
            </Position>
            <AltitudeMeters>1296.199951171875</AltitudeMeters>
            <DistanceMeters>NAN</DistanceMeters>
          </Trackpoint>
          <Trackpoint>
            <Time>2018-12-30T14:16:21.000Z</Time>
            <Position>
              <LatitudeDegrees>40.736572109162807464599609375</LatitudeDegrees>
              <LongitudeDegrees>-4.0781393833458423614501953125</LongitudeDegrees>
            </Position>
            <AltitudeMeters>1296.4000244140625</AltitudeMeters>
            <DistanceMeters>NAN</DistanceMeters>
          </Trackpoint>
          <Trackpoint>
            <Time>2018-12-30T14:16:22.000Z</Time>
            <Position>
              <LatitudeDegrees>40.73655224405229091644287109375</LatitudeDegrees>
              <LongitudeDegrees>-4.07813460566103458404541015625</LongitudeDegrees>
            </Position>
            <AltitudeMeters>1296.4000244140625</AltitudeMeters>
            <DistanceMeters>NAN</DistanceMeters>
          </Trackpoint>
          <Trackpoint>
            <Time>2018-12-30T14:16:23.000Z</Time>
            <Position>
              <LatitudeDegrees>40.736531876027584075927734375</LatitudeDegrees>
              <LongitudeDegrees>-4.07812974415719509124755859375</LongitudeDegrees>
            </Position>
            <AltitudeMeters>1296.199951171875</AltitudeMeters>
            <DistanceMeters>NAN</DistanceMeters>
          </Trackpoint>
          <Trackpoint>
            <Time>2018-12-30T14:16:24.000Z</Time>
            <Position>
              <LatitudeDegrees>40.7365119270980358123779296875</LatitudeDegrees>
              <LongitudeDegrees>-4.07812253572046756744384765625</LongitudeDegrees>
            </Position>
            <AltitudeMeters>1296.199951171875</AltitudeMeters>
            <DistanceMeters>NAN</DistanceMeters>
          </Trackpoint>
          <Trackpoint>
            <Time>2018-12-30T14:16:25.000Z</Time>
            <Position>
              <LatitudeDegrees>40.7364918105304241180419921875</LatitudeDegrees>
              <LongitudeDegrees>-4.0781172551214694976806640625</LongitudeDegrees>
            </Position>
            <AltitudeMeters>1296</AltitudeMeters>
            <DistanceMeters>NAN</DistanceMeters>
          </Trackpoint>
          <Trackpoint>
            <Time>2018-12-30T14:16:26.000Z</Time>
            <Position>
              <LatitudeDegrees>40.73646926321089267730712890625</LatitudeDegrees>
              <LongitudeDegrees>-4.07811717130243778228759765625</LongitudeDegrees>
            </Position>
            <AltitudeMeters>1296</AltitudeMeters>
            <DistanceMeters>NAN</DistanceMeters>
          </Trackpoint>
          <Trackpoint>
            <Time>2018-12-30T14:16:27.000Z</Time>
            <Position>
              <LatitudeDegrees>40.7364488951861858367919921875</LatitudeDegrees>
              <LongitudeDegrees>-4.07811733894050121307373046875</LongitudeDegrees>
            </Position>
            <AltitudeMeters>1295.800048828125</AltitudeMeters>
            <DistanceMeters>NAN</DistanceMeters>
          </Trackpoint>
          <Trackpoint>
            <Time>2018-12-30T14:16:28.000Z</Time>
            <Position>
              <LatitudeDegrees>40.73642886243760585784912109375</LatitudeDegrees>
              <LongitudeDegrees>-4.0781128965318202972412109375</LongitudeDegrees>
            </Position>
            <AltitudeMeters>1295.5999755859375</AltitudeMeters>
            <DistanceMeters>NAN</DistanceMeters>
          </Trackpoint>
          <Trackpoint>
            <Time>2018-12-30T14:16:29.000Z</Time>
            <Position>
              <LatitudeDegrees>40.73640690185129642486572265625</LatitudeDegrees>
              <LongitudeDegrees>-4.0781112201511859893798828125</LongitudeDegrees>
            </Position>
            <AltitudeMeters>1295.4000244140625</AltitudeMeters>
            <DistanceMeters>NAN</DistanceMeters>
          </Trackpoint>
          <Trackpoint>
            <Time>2018-12-30T14:16:30.000Z</Time>
            <Position>
              <LatitudeDegrees>40.73638829402625560760498046875</LatitudeDegrees>
              <LongitudeDegrees>-4.0781085379421710968017578125</LongitudeDegrees>
            </Position>
            <AltitudeMeters>1295.199951171875</AltitudeMeters>
            <DistanceMeters>NAN</DistanceMeters>
          </Trackpoint>
          <Trackpoint>
            <Time>2018-12-30T14:16:31.000Z</Time>
            <Position>
              <LatitudeDegrees>40.73637236841022968292236328125</LatitudeDegrees>
              <LongitudeDegrees>-4.07810325734317302703857421875</LongitudeDegrees>
            </Position>
            <AltitudeMeters>1295.199951171875</AltitudeMeters>
            <DistanceMeters>NAN</DistanceMeters>
          </Trackpoint>
          <Trackpoint>
            <Time>2018-12-30T14:16:32.000Z</Time>
            <Position>
              <LatitudeDegrees>40.73635208420455455780029296875</LatitudeDegrees>
              <LongitudeDegrees>-4.078091941773891448974609375</LongitudeDegrees>
            </Position>
            <AltitudeMeters>1295</AltitudeMeters>
            <DistanceMeters>NAN</DistanceMeters>
          </Trackpoint>
          <Trackpoint>
            <Time>2018-12-30T14:16:33.000Z</Time>
            <Position>
              <LatitudeDegrees>40.736332051455974578857421875</LatitudeDegrees>
              <LongitudeDegrees>-4.078081548213958740234375</LongitudeDegrees>
            </Position>
            <AltitudeMeters>1294.800048828125</AltitudeMeters>
            <DistanceMeters>NAN</DistanceMeters>
          </Trackpoint>
          <Trackpoint>
            <Time>2018-12-30T14:16:34.000Z</Time>
            <Position>
              <LatitudeDegrees>40.7363137789070606231689453125</LatitudeDegrees>
              <LongitudeDegrees>-4.07807819545269012451171875</LongitudeDegrees>
            </Position>
            <AltitudeMeters>1294.4000244140625</AltitudeMeters>
            <DistanceMeters>NAN</DistanceMeters>
          </Trackpoint>
          <Trackpoint>
            <Time>2018-12-30T14:16:35.000Z</Time>
            <Position>
              <LatitudeDegrees>40.73629525490105152130126953125</LatitudeDegrees>
              <LongitudeDegrees>-4.0780766867101192474365234375</LongitudeDegrees>
            </Position>
            <AltitudeMeters>1294.199951171875</AltitudeMeters>
            <DistanceMeters>NAN</DistanceMeters>
          </Trackpoint>
          <Trackpoint>
            <Time>2018-12-30T14:16:36.000Z</Time>
            <Position>
              <LatitudeDegrees>40.7362768985331058502197265625</LatitudeDegrees>
              <LongitudeDegrees>-4.078071825206279754638671875</LongitudeDegrees>
            </Position>
            <AltitudeMeters>1293.800048828125</AltitudeMeters>
            <DistanceMeters>NAN</DistanceMeters>
          </Trackpoint>
          <Trackpoint>
            <Time>2018-12-30T14:16:37.000Z</Time>
            <Position>
              <LatitudeDegrees>40.73625669814646244049072265625</LatitudeDegrees>
              <LongitudeDegrees>-4.07806210219860076904296875</LongitudeDegrees>
            </Position>
            <AltitudeMeters>1293.5999755859375</AltitudeMeters>
            <DistanceMeters>NAN</DistanceMeters>
          </Trackpoint>
          <Trackpoint>
            <Time>2018-12-30T14:16:38.000Z</Time>
            <Position>
              <LatitudeDegrees>40.73623607866466045379638671875</LatitudeDegrees>
              <LongitudeDegrees>-4.078051038086414337158203125</LongitudeDegrees>
            </Position>
            <AltitudeMeters>1293.4000244140625</AltitudeMeters>
            <DistanceMeters>NAN</DistanceMeters>
          </Trackpoint>
          <Trackpoint>
            <Time>2018-12-30T14:16:39.000Z</Time>
            <Position>
              <LatitudeDegrees>40.7362170517444610595703125</LatitudeDegrees>
              <LongitudeDegrees>-4.0780399739742279052734375</LongitudeDegrees>
            </Position>
            <AltitudeMeters>1293.199951171875</AltitudeMeters>
            <DistanceMeters>NAN</DistanceMeters>
          </Trackpoint>
          <Trackpoint>
            <Time>2018-12-30T14:16:40.000Z</Time>
            <Position>
              <LatitudeDegrees>40.73619919829070568084716796875</LatitudeDegrees>
              <LongitudeDegrees>-4.07802765257656574249267578125</LongitudeDegrees>
            </Position>
            <AltitudeMeters>1293</AltitudeMeters>
            <DistanceMeters>NAN</DistanceMeters>
          </Trackpoint>
          <Trackpoint>
            <Time>2018-12-30T14:16:41.000Z</Time>
            <Position>
              <LatitudeDegrees>40.7361810095608234405517578125</LatitudeDegrees>
              <LongitudeDegrees>-4.078017510473728179931640625</LongitudeDegrees>
            </Position>
            <AltitudeMeters>1293</AltitudeMeters>
            <DistanceMeters>NAN</DistanceMeters>
          </Trackpoint>
          <Trackpoint>
            <Time>2018-12-30T14:16:42.000Z</Time>
            <Position>
              <LatitudeDegrees>40.73616466484963893890380859375</LatitudeDegrees>
              <LongitudeDegrees>-4.07800300978124141693115234375</LongitudeDegrees>
            </Position>
            <AltitudeMeters>1292.800048828125</AltitudeMeters>
            <DistanceMeters>NAN</DistanceMeters>
          </Trackpoint>
          <Trackpoint>
            <Time>2018-12-30T14:16:43.000Z</Time>
            <Position>
              <LatitudeDegrees>40.7361498288810253143310546875</LatitudeDegrees>
              <LongitudeDegrees>-4.07798306085169315338134765625</LongitudeDegrees>
            </Position>
            <AltitudeMeters>1292.4000244140625</AltitudeMeters>
            <DistanceMeters>NAN</DistanceMeters>
          </Trackpoint>
          <Trackpoint>
            <Time>2018-12-30T14:16:44.000Z</Time>
            <Position>
              <LatitudeDegrees>40.73613465763628482818603515625</LatitudeDegrees>
              <LongitudeDegrees>-4.077963531017303466796875</LongitudeDegrees>
            </Position>
            <AltitudeMeters>1292.199951171875</AltitudeMeters>
            <DistanceMeters>NAN</DistanceMeters>
          </Trackpoint>
          <Trackpoint>
            <Time>2018-12-30T14:16:45.000Z</Time>
            <Position>
              <LatitudeDegrees>40.7361204922199249267578125</LatitudeDegrees>
              <LongitudeDegrees>-4.077943749725818634033203125</LongitudeDegrees>
            </Position>
            <AltitudeMeters>1292</AltitudeMeters>
            <DistanceMeters>NAN</DistanceMeters>
          </Trackpoint>
          <Trackpoint>
            <Time>2018-12-30T14:16:46.000Z</Time>
            <Position>
              <LatitudeDegrees>40.73610716499388217926025390625</LatitudeDegrees>
              <LongitudeDegrees>-4.07792388461530208587646484375</LongitudeDegrees>
            </Position>
            <AltitudeMeters>1291.800048828125</AltitudeMeters>
            <DistanceMeters>NAN</DistanceMeters>
          </Trackpoint>
          <Trackpoint>
            <Time>2018-12-30T14:16:47.000Z</Time>
            <Position>
              <LatitudeDegrees>40.73609358631074428558349609375</LatitudeDegrees>
              <LongitudeDegrees>-4.07790577970445156097412109375</LongitudeDegrees>
            </Position>
            <AltitudeMeters>1291.5999755859375</AltitudeMeters>
            <DistanceMeters>NAN</DistanceMeters>
          </Trackpoint>
          <Trackpoint>
            <Time>2018-12-30T14:16:48.000Z</Time>
            <Position>
              <LatitudeDegrees>40.7360777445137500762939453125</LatitudeDegrees>
              <LongitudeDegrees>-4.07788951881229877471923828125</LongitudeDegrees>
            </Position>
            <AltitudeMeters>1291.4000244140625</AltitudeMeters>
            <DistanceMeters>NAN</DistanceMeters>
          </Trackpoint>
          <Trackpoint>
            <Time>2018-12-30T14:16:49.000Z</Time>
            <Position>
              <LatitudeDegrees>40.7360656745731830596923828125</LatitudeDegrees>
              <LongitudeDegrees>-4.07787174917757511138916015625</LongitudeDegrees>
            </Position>
            <AltitudeMeters>1291</AltitudeMeters>
            <DistanceMeters>NAN</DistanceMeters>
          </Trackpoint>
          <Trackpoint>
            <Time>2018-12-30T14:16:50.000Z</Time>
            <Position>
              <LatitudeDegrees>40.73605678975582122802734375</LatitudeDegrees>
              <LongitudeDegrees>-4.07785297371447086334228515625</LongitudeDegrees>
            </Position>
            <AltitudeMeters>1290.800048828125</AltitudeMeters>
            <DistanceMeters>NAN</DistanceMeters>
          </Trackpoint>
          <Trackpoint>
            <Time>2018-12-30T14:16:51.000Z</Time>
            <Position>
              <LatitudeDegrees>40.73604480363428592681884765625</LatitudeDegrees>
              <LongitudeDegrees>-4.07784174196422100067138671875</LongitudeDegrees>
            </Position>
            <AltitudeMeters>1290.4000244140625</AltitudeMeters>
            <DistanceMeters>NAN</DistanceMeters>
          </Trackpoint>
          <Trackpoint>
            <Time>2018-12-30T14:16:52.000Z</Time>
            <Position>
              <LatitudeDegrees>40.73603424243628978729248046875</LatitudeDegrees>
              <LongitudeDegrees>-4.07782833091914653778076171875</LongitudeDegrees>
            </Position>
            <AltitudeMeters>1290.199951171875</AltitudeMeters>
            <DistanceMeters>NAN</DistanceMeters>
          </Trackpoint>
          <Trackpoint>
            <Time>2018-12-30T14:16:53.000Z</Time>
            <Position>
              <LatitudeDegrees>40.73602166958153247833251953125</LatitudeDegrees>
              <LongitudeDegrees>-4.0778155066072940826416015625</LongitudeDegrees>
            </Position>
            <AltitudeMeters>1289.800048828125</AltitudeMeters>
            <DistanceMeters>NAN</DistanceMeters>
          </Trackpoint>
          <Trackpoint>
            <Time>2018-12-30T14:16:54.000Z</Time>
            <Position>
              <LatitudeDegrees>40.73600842617452144622802734375</LatitudeDegrees>
              <LongitudeDegrees>-4.07780922017991542816162109375</LongitudeDegrees>
            </Position>
            <AltitudeMeters>1289.5999755859375</AltitudeMeters>
            <DistanceMeters>NAN</DistanceMeters>
          </Trackpoint>
          <Trackpoint>
            <Time>2018-12-30T14:16:55.000Z</Time>
            <Position>
              <LatitudeDegrees>40.7359992899000644683837890625</LatitudeDegrees>
              <LongitudeDegrees>-4.0777940489351749420166015625</LongitudeDegrees>
            </Position>
            <AltitudeMeters>1289.199951171875</AltitudeMeters>
            <DistanceMeters>NAN</DistanceMeters>
          </Trackpoint>
          <Trackpoint>
            <Time>2018-12-30T14:16:56.000Z</Time>
            <Position>
              <LatitudeDegrees>40.7359919138252735137939453125</LatitudeDegrees>
              <LongitudeDegrees>-4.0777752734720706939697265625</LongitudeDegrees>
            </Position>
            <AltitudeMeters>1288.800048828125</AltitudeMeters>
            <DistanceMeters>NAN</DistanceMeters>
          </Trackpoint>
          <Trackpoint>
            <Time>2018-12-30T14:16:57.000Z</Time>
            <Position>
              <LatitudeDegrees>40.7359842024743556976318359375</LatitudeDegrees>
              <LongitudeDegrees>-4.07775758765637874603271484375</LongitudeDegrees>
            </Position>
            <AltitudeMeters>1288.4000244140625</AltitudeMeters>
            <DistanceMeters>NAN</DistanceMeters>
          </Trackpoint>
          <Trackpoint>
            <Time>2018-12-30T14:16:58.000Z</Time>
            <Position>
              <LatitudeDegrees>40.735977999866008758544921875</LatitudeDegrees>
              <LongitudeDegrees>-4.07773629762232303619384765625</LongitudeDegrees>
            </Position>
            <AltitudeMeters>1288</AltitudeMeters>
            <DistanceMeters>NAN</DistanceMeters>
          </Trackpoint>
          <Trackpoint>
            <Time>2018-12-30T14:16:59.000Z</Time>
            <Position>
              <LatitudeDegrees>40.73597037233412265777587890625</LatitudeDegrees>
              <LongitudeDegrees>-4.0777222998440265655517578125</LongitudeDegrees>
            </Position>
            <AltitudeMeters>1287.5999755859375</AltitudeMeters>
            <DistanceMeters>NAN</DistanceMeters>
          </Trackpoint>
          <Trackpoint>
            <Time>2018-12-30T14:17:00.000Z</Time>
            <Position>
              <LatitudeDegrees>40.73596534319221973419189453125</LatitudeDegrees>
              <LongitudeDegrees>-4.077707715332508087158203125</LongitudeDegrees>
            </Position>
            <AltitudeMeters>1287.4000244140625</AltitudeMeters>
            <DistanceMeters>NAN</DistanceMeters>
          </Trackpoint>
          <Trackpoint>
            <Time>2018-12-30T14:17:01.000Z</Time>
            <Position>
              <LatitudeDegrees>40.73595796711742877960205078125</LatitudeDegrees>
              <LongitudeDegrees>-4.07769556157290935516357421875</LongitudeDegrees>
            </Position>
            <AltitudeMeters>1287.199951171875</AltitudeMeters>
            <DistanceMeters>NAN</DistanceMeters>
          </Trackpoint>
          <Trackpoint>
            <Time>2018-12-30T14:17:02.000Z</Time>
            <Position>
              <LatitudeDegrees>40.73594606481492519378662109375</LatitudeDegrees>
              <LongitudeDegrees>-4.07768114469945430755615234375</LongitudeDegrees>
            </Position>
            <AltitudeMeters>1287</AltitudeMeters>
            <DistanceMeters>NAN</DistanceMeters>
          </Trackpoint>
          <Trackpoint>
            <Time>2018-12-30T14:17:03.000Z</Time>
            <Position>
              <LatitudeDegrees>40.73593877255916595458984375</LatitudeDegrees>
              <LongitudeDegrees>-4.07766723074018955230712890625</LongitudeDegrees>
            </Position>
            <AltitudeMeters>1287</AltitudeMeters>
            <DistanceMeters>NAN</DistanceMeters>
          </Trackpoint>
          <Trackpoint>
            <Time>2018-12-30T14:17:04.000Z</Time>
            <Position>
              <LatitudeDegrees>40.7359305582940578460693359375</LatitudeDegrees>
              <LongitudeDegrees>-4.077648036181926727294921875</LongitudeDegrees>
            </Position>
            <AltitudeMeters>1286.5999755859375</AltitudeMeters>
            <DistanceMeters>NAN</DistanceMeters>
          </Trackpoint>
          <Trackpoint>
            <Time>2018-12-30T14:17:05.000Z</Time>
            <Position>
              <LatitudeDegrees>40.73592209257185459136962890625</LatitudeDegrees>
              <LongitudeDegrees>-4.07762699760496616363525390625</LongitudeDegrees>
            </Position>
            <AltitudeMeters>1286.199951171875</AltitudeMeters>
            <DistanceMeters>NAN</DistanceMeters>
          </Trackpoint>
          <Trackpoint>
            <Time>2018-12-30T14:17:06.000Z</Time>
            <Position>
              <LatitudeDegrees>40.7359141297638416290283203125</LatitudeDegrees>
              <LongitudeDegrees>-4.077608473598957061767578125</LongitudeDegrees>
            </Position>
            <AltitudeMeters>1286</AltitudeMeters>
            <DistanceMeters>NAN</DistanceMeters>
          </Trackpoint>
          <Trackpoint>
            <Time>2018-12-30T14:17:07.000Z</Time>
            <Position>
              <LatitudeDegrees>40.735905580222606658935546875</LatitudeDegrees>
              <LongitudeDegrees>-4.07758877612650394439697265625</LongitudeDegrees>
            </Position>
            <AltitudeMeters>1285.5999755859375</AltitudeMeters>
            <DistanceMeters>NAN</DistanceMeters>
          </Trackpoint>
          <Trackpoint>
            <Time>2018-12-30T14:17:08.000Z</Time>
            <Position>
              <LatitudeDegrees>40.735894180834293365478515625</LatitudeDegrees>
              <LongitudeDegrees>-4.07756765373051166534423828125</LongitudeDegrees>
            </Position>
            <AltitudeMeters>1285.199951171875</AltitudeMeters>
            <DistanceMeters>NAN</DistanceMeters>
          </Trackpoint>
          <Trackpoint>
            <Time>2018-12-30T14:17:09.000Z</Time>
            <Position>
              <LatitudeDegrees>40.735882110893726348876953125</LatitudeDegrees>
              <LongitudeDegrees>-4.07754519023001194000244140625</LongitudeDegrees>
            </Position>
            <AltitudeMeters>1285</AltitudeMeters>
            <DistanceMeters>NAN</DistanceMeters>
          </Trackpoint>
          <Trackpoint>
            <Time>2018-12-30T14:17:10.000Z</Time>
            <Position>
              <LatitudeDegrees>40.73587180115282535552978515625</LatitudeDegrees>
              <LongitudeDegrees>-4.077522642910480499267578125</LongitudeDegrees>
            </Position>
            <AltitudeMeters>1284.5999755859375</AltitudeMeters>
            <DistanceMeters>NAN</DistanceMeters>
          </Trackpoint>
          <Trackpoint>
            <Time>2018-12-30T14:17:11.000Z</Time>
            <Position>
              <LatitudeDegrees>40.735861323773860931396484375</LatitudeDegrees>
              <LongitudeDegrees>-4.07749808393418788909912109375</LongitudeDegrees>
            </Position>
            <AltitudeMeters>1284.5999755859375</AltitudeMeters>
            <DistanceMeters>NAN</DistanceMeters>
          </Trackpoint>
          <Trackpoint>
            <Time>2018-12-30T14:17:12.000Z</Time>
            <Position>
              <LatitudeDegrees>40.73585134930908679962158203125</LatitudeDegrees>
              <LongitudeDegrees>-4.07748282887041568756103515625</LongitudeDegrees>
            </Position>
            <AltitudeMeters>1284.4000244140625</AltitudeMeters>
            <DistanceMeters>NAN</DistanceMeters>
          </Trackpoint>
          <Trackpoint>
            <Time>2018-12-30T14:17:13.000Z</Time>
            <Position>
              <LatitudeDegrees>40.7358443923294544219970703125</LatitudeDegrees>
              <LongitudeDegrees>-4.07745885662734508514404296875</LongitudeDegrees>
            </Position>
            <AltitudeMeters>1284.199951171875</AltitudeMeters>
            <DistanceMeters>NAN</DistanceMeters>
          </Trackpoint>
          <Trackpoint>
            <Time>2018-12-30T14:17:14.000Z</Time>
            <Position>
              <LatitudeDegrees>40.73582947254180908203125</LatitudeDegrees>
              <LongitudeDegrees>-4.0774356387555599212646484375</LongitudeDegrees>
            </Position>
            <AltitudeMeters>1283.800048828125</AltitudeMeters>
            <DistanceMeters>NAN</DistanceMeters>
          </Trackpoint>
          <Trackpoint>
            <Time>2018-12-30T14:17:15.000Z</Time>
            <Position>
              <LatitudeDegrees>40.73581513948738574981689453125</LatitudeDegrees>
              <LongitudeDegrees>-4.07741845585405826568603515625</LongitudeDegrees>
            </Position>
            <AltitudeMeters>1283.5999755859375</AltitudeMeters>
            <DistanceMeters>NAN</DistanceMeters>
          </Trackpoint>
          <Trackpoint>
            <Time>2018-12-30T14:17:16.000Z</Time>
            <Position>
              <LatitudeDegrees>40.73580089025199413299560546875</LatitudeDegrees>
              <LongitudeDegrees>-4.0774000994861125946044921875</LongitudeDegrees>
            </Position>
            <AltitudeMeters>1283.4000244140625</AltitudeMeters>
            <DistanceMeters>NAN</DistanceMeters>
          </Trackpoint>
          <Trackpoint>
            <Time>2018-12-30T14:17:17.000Z</Time>
            <Position>
              <LatitudeDegrees>40.7357932627201080322265625</LatitudeDegrees>
              <LongitudeDegrees>-4.07738174311816692352294921875</LongitudeDegrees>
            </Position>
            <AltitudeMeters>1283</AltitudeMeters>
            <DistanceMeters>NAN</DistanceMeters>
          </Trackpoint>
          <Trackpoint>
            <Time>2018-12-30T14:17:18.000Z</Time>
            <Position>
              <LatitudeDegrees>40.73578798212110996246337890625</LatitudeDegrees>
              <LongitudeDegrees>-4.07736497931182384490966796875</LongitudeDegrees>
            </Position>
            <AltitudeMeters>1282.5999755859375</AltitudeMeters>
            <DistanceMeters>NAN</DistanceMeters>
          </Trackpoint>
          <Trackpoint>
            <Time>2018-12-30T14:17:19.000Z</Time>
            <Position>
              <LatitudeDegrees>40.7357816956937313079833984375</LatitudeDegrees>
              <LongitudeDegrees>-4.07734192907810211181640625</LongitudeDegrees>
            </Position>
            <AltitudeMeters>1282.4000244140625</AltitudeMeters>
            <DistanceMeters>NAN</DistanceMeters>
          </Trackpoint>
          <Trackpoint>
            <Time>2018-12-30T14:17:20.000Z</Time>
            <Position>
              <LatitudeDegrees>40.735775493085384368896484375</LatitudeDegrees>
              <LongitudeDegrees>-4.07732776366174221038818359375</LongitudeDegrees>
            </Position>
            <AltitudeMeters>1282.199951171875</AltitudeMeters>
            <DistanceMeters>NAN</DistanceMeters>
          </Trackpoint>
          <Trackpoint>
            <Time>2018-12-30T14:17:21.000Z</Time>
            <Position>
              <LatitudeDegrees>40.7357718050479888916015625</LatitudeDegrees>
              <LongitudeDegrees>-4.07731116749346256256103515625</LongitudeDegrees>
            </Position>
            <AltitudeMeters>1282</AltitudeMeters>
            <DistanceMeters>NAN</DistanceMeters>
          </Trackpoint>
          <Trackpoint>
            <Time>2018-12-30T14:17:22.000Z</Time>
            <Position>
              <LatitudeDegrees>40.73576417751610279083251953125</LatitudeDegrees>
              <LongitudeDegrees>-4.07728920690715312957763671875</LongitudeDegrees>
            </Position>
            <AltitudeMeters>1282</AltitudeMeters>
            <DistanceMeters>NAN</DistanceMeters>
          </Trackpoint>
          <Trackpoint>
            <Time>2018-12-30T14:17:23.000Z</Time>
            <Position>
              <LatitudeDegrees>40.7357535324990749359130859375</LatitudeDegrees>
              <LongitudeDegrees>-4.07726548612117767333984375</LongitudeDegrees>
            </Position>
            <AltitudeMeters>1281.800048828125</AltitudeMeters>
            <DistanceMeters>NAN</DistanceMeters>
          </Trackpoint>
          <Trackpoint>
            <Time>2018-12-30T14:17:24.000Z</Time>
            <Position>
              <LatitudeDegrees>40.73574489913880825042724609375</LatitudeDegrees>
              <LongitudeDegrees>-4.07724671065807342529296875</LongitudeDegrees>
            </Position>
            <AltitudeMeters>1281.5999755859375</AltitudeMeters>
            <DistanceMeters>NAN</DistanceMeters>
          </Trackpoint>
          <Trackpoint>
            <Time>2018-12-30T14:17:25.000Z</Time>
            <Position>
              <LatitudeDegrees>40.73573802597820758819580078125</LatitudeDegrees>
              <LongitudeDegrees>-4.07722483389079570770263671875</LongitudeDegrees>
            </Position>
            <AltitudeMeters>1281.4000244140625</AltitudeMeters>
            <DistanceMeters>NAN</DistanceMeters>
          </Trackpoint>
          <Trackpoint>
            <Time>2018-12-30T14:17:26.000Z</Time>
            <Position>
              <LatitudeDegrees>40.7357340864837169647216796875</LatitudeDegrees>
              <LongitudeDegrees>-4.07720589078962802886962890625</LongitudeDegrees>
            </Position>
            <AltitudeMeters>1281.199951171875</AltitudeMeters>
            <DistanceMeters>NAN</DistanceMeters>
          </Trackpoint>
          <Trackpoint>
            <Time>2018-12-30T14:17:27.000Z</Time>
            <Position>
              <LatitudeDegrees>40.7357314042747020721435546875</LatitudeDegrees>
              <LongitudeDegrees>-4.0771838463842868804931640625</LongitudeDegrees>
            </Position>
            <AltitudeMeters>1281</AltitudeMeters>
            <DistanceMeters>NAN</DistanceMeters>
          </Trackpoint>
          <Trackpoint>
            <Time>2018-12-30T14:17:28.000Z</Time>
            <Position>
              <LatitudeDegrees>40.73572528548538684844970703125</LatitudeDegrees>
              <LongitudeDegrees>-4.0771617181599140167236328125</LongitudeDegrees>
            </Position>
            <AltitudeMeters>1280.4000244140625</AltitudeMeters>
            <DistanceMeters>NAN</DistanceMeters>
          </Trackpoint>
          <Trackpoint>
            <Time>2018-12-30T14:17:29.000Z</Time>
            <Position>
              <LatitudeDegrees>40.73571841232478618621826171875</LatitudeDegrees>
              <LongitudeDegrees>-4.07714076340198516845703125</LongitudeDegrees>
            </Position>
            <AltitudeMeters>1280.199951171875</AltitudeMeters>
            <DistanceMeters>NAN</DistanceMeters>
          </Trackpoint>
          <Trackpoint>
            <Time>2018-12-30T14:17:30.000Z</Time>
            <Position>
              <LatitudeDegrees>40.73570785112679004669189453125</LatitudeDegrees>
              <LongitudeDegrees>-4.07711989246308803558349609375</LongitudeDegrees>
            </Position>
            <AltitudeMeters>1279.800048828125</AltitudeMeters>
            <DistanceMeters>NAN</DistanceMeters>
          </Trackpoint>
          <Trackpoint>
            <Time>2018-12-30T14:17:31.000Z</Time>
            <Position>
              <LatitudeDegrees>40.7356951944530010223388671875</LatitudeDegrees>
              <LongitudeDegrees>-4.077098183333873748779296875</LongitudeDegrees>
            </Position>
            <AltitudeMeters>1279.5999755859375</AltitudeMeters>
            <DistanceMeters>NAN</DistanceMeters>
          </Trackpoint>
          <Trackpoint>
            <Time>2018-12-30T14:17:32.000Z</Time>
            <Position>
              <LatitudeDegrees>40.73568656109273433685302734375</LatitudeDegrees>
              <LongitudeDegrees>-4.0770768932998180389404296875</LongitudeDegrees>
            </Position>
            <AltitudeMeters>1279.4000244140625</AltitudeMeters>
            <DistanceMeters>NAN</DistanceMeters>
          </Trackpoint>
          <Trackpoint>
            <Time>2018-12-30T14:17:33.000Z</Time>
            <Position>
              <LatitudeDegrees>40.7356794364750385284423828125</LatitudeDegrees>
              <LongitudeDegrees>-4.07705836929380893707275390625</LongitudeDegrees>
            </Position>
            <AltitudeMeters>1279.199951171875</AltitudeMeters>
            <DistanceMeters>NAN</DistanceMeters>
          </Trackpoint>
          <Trackpoint>
            <Time>2018-12-30T14:17:34.000Z</Time>
            <Position>
              <LatitudeDegrees>40.735671222209930419921875</LatitudeDegrees>
              <LongitudeDegrees>-4.0770299546420574188232421875</LongitudeDegrees>
            </Position>
            <AltitudeMeters>1279</AltitudeMeters>
            <DistanceMeters>NAN</DistanceMeters>
          </Trackpoint>
          <Trackpoint>
            <Time>2018-12-30T14:17:35.000Z</Time>
            <Position>
              <LatitudeDegrees>40.73566560633480548858642578125</LatitudeDegrees>
              <LongitudeDegrees>-4.07700522802770137786865234375</LongitudeDegrees>
            </Position>
            <AltitudeMeters>1278.5999755859375</AltitudeMeters>
            <DistanceMeters>NAN</DistanceMeters>
          </Trackpoint>
          <Trackpoint>
            <Time>2018-12-30T14:17:36.000Z</Time>
            <Position>
              <LatitudeDegrees>40.73565420694649219512939453125</LatitudeDegrees>
              <LongitudeDegrees>-4.0769806690514087677001953125</LongitudeDegrees>
            </Position>
            <AltitudeMeters>1278.4000244140625</AltitudeMeters>
            <DistanceMeters>NAN</DistanceMeters>
          </Trackpoint>
          <Trackpoint>
            <Time>2018-12-30T14:17:37.000Z</Time>
            <Position>
              <LatitudeDegrees>40.73564347811043262481689453125</LatitudeDegrees>
              <LongitudeDegrees>-4.07695812173187732696533203125</LongitudeDegrees>
            </Position>
            <AltitudeMeters>1278.199951171875</AltitudeMeters>
            <DistanceMeters>NAN</DistanceMeters>
          </Trackpoint>
          <Trackpoint>
            <Time>2018-12-30T14:17:38.000Z</Time>
            <Position>
              <LatitudeDegrees>40.73563526384532451629638671875</LatitudeDegrees>
              <LongitudeDegrees>-4.07694186083972454071044921875</LongitudeDegrees>
            </Position>
            <AltitudeMeters>1278</AltitudeMeters>
            <DistanceMeters>NAN</DistanceMeters>
          </Trackpoint>
          <Trackpoint>
            <Time>2018-12-30T14:17:39.000Z</Time>
            <Position>
              <LatitudeDegrees>40.73562570847570896148681640625</LatitudeDegrees>
              <LongitudeDegrees>-4.07692015171051025390625</LongitudeDegrees>
            </Position>
            <AltitudeMeters>1278</AltitudeMeters>
            <DistanceMeters>NAN</DistanceMeters>
          </Trackpoint>
          <Trackpoint>
            <Time>2018-12-30T14:17:40.000Z</Time>
            <Position>
              <LatitudeDegrees>40.73561296798288822174072265625</LatitudeDegrees>
              <LongitudeDegrees>-4.07689265906810760498046875</LongitudeDegrees>
            </Position>
            <AltitudeMeters>1277.5999755859375</AltitudeMeters>
            <DistanceMeters>NAN</DistanceMeters>
          </Trackpoint>
          <Trackpoint>
            <Time>2018-12-30T14:17:41.000Z</Time>
            <Position>
              <LatitudeDegrees>40.73560215532779693603515625</LatitudeDegrees>
              <LongitudeDegrees>-4.0768663398921489715576171875</LongitudeDegrees>
            </Position>
            <AltitudeMeters>1277.199951171875</AltitudeMeters>
            <DistanceMeters>NAN</DistanceMeters>
          </Trackpoint>
          <Trackpoint>
            <Time>2018-12-30T14:17:42.000Z</Time>
            <Position>
              <LatitudeDegrees>40.73559067212045192718505859375</LatitudeDegrees>
              <LongitudeDegrees>-4.07684077508747577667236328125</LongitudeDegrees>
            </Position>
            <AltitudeMeters>1277</AltitudeMeters>
            <DistanceMeters>NAN</DistanceMeters>
          </Trackpoint>
          <Trackpoint>
            <Time>2018-12-30T14:17:43.000Z</Time>
            <Position>
              <LatitudeDegrees>40.73558782227337360382080078125</LatitudeDegrees>
              <LongitudeDegrees>-4.07682560384273529052734375</LongitudeDegrees>
            </Position>
            <AltitudeMeters>1276.5999755859375</AltitudeMeters>
            <DistanceMeters>NAN</DistanceMeters>
          </Trackpoint>
          <Trackpoint>
            <Time>2018-12-30T14:17:44.000Z</Time>
            <Position>
              <LatitudeDegrees>40.73558212257921695709228515625</LatitudeDegrees>
              <LongitudeDegrees>-4.07680372707545757293701171875</LongitudeDegrees>
            </Position>
            <AltitudeMeters>1276.4000244140625</AltitudeMeters>
            <DistanceMeters>NAN</DistanceMeters>
          </Trackpoint>
          <Trackpoint>
            <Time>2018-12-30T14:17:45.000Z</Time>
            <Position>
              <LatitudeDegrees>40.73557801544666290283203125</LatitudeDegrees>
              <LongitudeDegrees>-4.07677992247045040130615234375</LongitudeDegrees>
            </Position>
            <AltitudeMeters>1276</AltitudeMeters>
            <DistanceMeters>NAN</DistanceMeters>
          </Trackpoint>
          <Trackpoint>
            <Time>2018-12-30T14:17:46.000Z</Time>
            <Position>
              <LatitudeDegrees>40.73557591997087001800537109375</LatitudeDegrees>
              <LongitudeDegrees>-4.07676282338798046112060546875</LongitudeDegrees>
            </Position>
            <AltitudeMeters>1275.800048828125</AltitudeMeters>
            <DistanceMeters>NAN</DistanceMeters>
          </Trackpoint>
          <Trackpoint>
            <Time>2018-12-30T14:17:47.000Z</Time>
            <Position>
              <LatitudeDegrees>40.7355791889131069183349609375</LatitudeDegrees>
              <LongitudeDegrees>-4.07674304209649562835693359375</LongitudeDegrees>
            </Position>
            <AltitudeMeters>1275.800048828125</AltitudeMeters>
            <DistanceMeters>NAN</DistanceMeters>
          </Trackpoint>
          <Trackpoint>
            <Time>2018-12-30T14:17:48.000Z</Time>
            <Position>
              <LatitudeDegrees>40.73558514006435871124267578125</LatitudeDegrees>
              <LongitudeDegrees>-4.07672259025275707244873046875</LongitudeDegrees>
            </Position>
            <AltitudeMeters>1275.199951171875</AltitudeMeters>
            <DistanceMeters>NAN</DistanceMeters>
          </Trackpoint>
          <Trackpoint>
            <Time>2018-12-30T14:17:49.000Z</Time>
            <Position>
              <LatitudeDegrees>40.73558564297854900360107421875</LatitudeDegrees>
              <LongitudeDegrees>-4.0766997076570987701416015625</LongitudeDegrees>
            </Position>
            <AltitudeMeters>1275.199951171875</AltitudeMeters>
            <DistanceMeters>NAN</DistanceMeters>
          </Trackpoint>
          <Trackpoint>
            <Time>2018-12-30T14:17:50.000Z</Time>
            <Position>
              <LatitudeDegrees>40.7355812005698680877685546875</LatitudeDegrees>
              <LongitudeDegrees>-4.0766772441565990447998046875</LongitudeDegrees>
            </Position>
            <AltitudeMeters>1275</AltitudeMeters>
            <DistanceMeters>NAN</DistanceMeters>
          </Trackpoint>
          <Trackpoint>
            <Time>2018-12-30T14:17:51.000Z</Time>
            <Position>
              <LatitudeDegrees>40.73557591997087001800537109375</LatitudeDegrees>
              <LongitudeDegrees>-4.0766507573425769805908203125</LongitudeDegrees>
            </Position>
            <AltitudeMeters>1274.5999755859375</AltitudeMeters>
            <DistanceMeters>NAN</DistanceMeters>
          </Trackpoint>
          <Trackpoint>
            <Time>2018-12-30T14:17:52.000Z</Time>
            <Position>
              <LatitudeDegrees>40.735572315752506256103515625</LatitudeDegrees>
              <LongitudeDegrees>-4.0766256116330623626708984375</LongitudeDegrees>
            </Position>
            <AltitudeMeters>1274.4000244140625</AltitudeMeters>
            <DistanceMeters>NAN</DistanceMeters>
          </Trackpoint>
          <Trackpoint>
            <Time>2018-12-30T14:17:53.000Z</Time>
            <Position>
              <LatitudeDegrees>40.735569298267364501953125</LatitudeDegrees>
              <LongitudeDegrees>-4.07660222612321376800537109375</LongitudeDegrees>
            </Position>
            <AltitudeMeters>1274</AltitudeMeters>
            <DistanceMeters>NAN</DistanceMeters>
          </Trackpoint>
          <Trackpoint>
            <Time>2018-12-30T14:17:54.000Z</Time>
            <Position>
              <LatitudeDegrees>40.73556535877287387847900390625</LatitudeDegrees>
              <LongitudeDegrees>-4.0765803493559360504150390625</LongitudeDegrees>
            </Position>
            <AltitudeMeters>1274</AltitudeMeters>
            <DistanceMeters>NAN</DistanceMeters>
          </Trackpoint>
          <Trackpoint>
            <Time>2018-12-30T14:17:55.000Z</Time>
            <Position>
              <LatitudeDegrees>40.73556192219257354736328125</LatitudeDegrees>
              <LongitudeDegrees>-4.07655880786478519439697265625</LongitudeDegrees>
            </Position>
            <AltitudeMeters>1273.4000244140625</AltitudeMeters>
            <DistanceMeters>NAN</DistanceMeters>
          </Trackpoint>
          <Trackpoint>
            <Time>2018-12-30T14:17:56.000Z</Time>
            <Position>
              <LatitudeDegrees>40.7355587370693683624267578125</LatitudeDegrees>
              <LongitudeDegrees>-4.07653232105076313018798828125</LongitudeDegrees>
            </Position>
            <AltitudeMeters>1272.800048828125</AltitudeMeters>
            <DistanceMeters>NAN</DistanceMeters>
          </Trackpoint>
          <Trackpoint>
            <Time>2018-12-30T14:17:57.000Z</Time>
            <Position>
              <LatitudeDegrees>40.73555697686970233917236328125</LatitudeDegrees>
              <LongitudeDegrees>-4.0765057504177093505859375</LongitudeDegrees>
            </Position>
            <AltitudeMeters>1272.5999755859375</AltitudeMeters>
            <DistanceMeters>NAN</DistanceMeters>
          </Trackpoint>
          <Trackpoint>
            <Time>2018-12-30T14:17:58.000Z</Time>
            <Position>
              <LatitudeDegrees>40.735555551946163177490234375</LatitudeDegrees>
              <LongitudeDegrees>-4.0764790959656238555908203125</LongitudeDegrees>
            </Position>
            <AltitudeMeters>1272.4000244140625</AltitudeMeters>
            <DistanceMeters>NAN</DistanceMeters>
          </Trackpoint>
          <Trackpoint>
            <Time>2018-12-30T14:17:59.000Z</Time>
            <Position>
              <LatitudeDegrees>40.73555446229875087738037109375</LatitudeDegrees>
              <LongitudeDegrees>-4.07645604573190212249755859375</LongitudeDegrees>
            </Position>
            <AltitudeMeters>1272.199951171875</AltitudeMeters>
            <DistanceMeters>NAN</DistanceMeters>
          </Trackpoint>
          <Trackpoint>
            <Time>2018-12-30T14:18:00.000Z</Time>
            <Position>
              <LatitudeDegrees>40.73555110953748226165771484375</LatitudeDegrees>
              <LongitudeDegrees>-4.0764308162033557891845703125</LongitudeDegrees>
            </Position>
            <AltitudeMeters>1272</AltitudeMeters>
            <DistanceMeters>NAN</DistanceMeters>
          </Trackpoint>
          <Trackpoint>
            <Time>2018-12-30T14:18:01.000Z</Time>
            <Position>
              <LatitudeDegrees>40.7355530373752117156982421875</LatitudeDegrees>
              <LongitudeDegrees>-4.07640608958899974822998046875</LongitudeDegrees>
            </Position>
            <AltitudeMeters>1272</AltitudeMeters>
            <DistanceMeters>NAN</DistanceMeters>
          </Trackpoint>
          <Trackpoint>
            <Time>2018-12-30T14:18:02.000Z</Time>
            <Position>
              <LatitudeDegrees>40.735560245811939239501953125</LatitudeDegrees>
              <LongitudeDegrees>-4.0763875655829906463623046875</LongitudeDegrees>
            </Position>
            <AltitudeMeters>1271.5999755859375</AltitudeMeters>
            <DistanceMeters>NAN</DistanceMeters>
          </Trackpoint>
          <Trackpoint>
            <Time>2018-12-30T14:18:03.000Z</Time>
            <Position>
              <LatitudeDegrees>40.73556519113481044769287109375</LatitudeDegrees>
              <LongitudeDegrees>-4.07636635936796665191650390625</LongitudeDegrees>
            </Position>
            <AltitudeMeters>1271.4000244140625</AltitudeMeters>
            <DistanceMeters>NAN</DistanceMeters>
          </Trackpoint>
          <Trackpoint>
            <Time>2018-12-30T14:18:04.000Z</Time>
            <Position>
              <LatitudeDegrees>40.73556519113481044769287109375</LatitudeDegrees>
              <LongitudeDegrees>-4.07634138129651546478271484375</LongitudeDegrees>
            </Position>
            <AltitudeMeters>1271</AltitudeMeters>
            <DistanceMeters>NAN</DistanceMeters>
          </Trackpoint>
          <Trackpoint>
            <Time>2018-12-30T14:18:05.000Z</Time>
            <Position>
              <LatitudeDegrees>40.73556016199290752410888671875</LatitudeDegrees>
              <LongitudeDegrees>-4.07631305046379566192626953125</LongitudeDegrees>
            </Position>
            <AltitudeMeters>1270.800048828125</AltitudeMeters>
            <DistanceMeters>NAN</DistanceMeters>
          </Trackpoint>
          <Trackpoint>
            <Time>2018-12-30T14:18:06.000Z</Time>
            <Position>
              <LatitudeDegrees>40.7355674542486667633056640625</LatitudeDegrees>
              <LongitudeDegrees>-4.07628773711621761322021484375</LongitudeDegrees>
            </Position>
            <AltitudeMeters>1270.4000244140625</AltitudeMeters>
            <DistanceMeters>NAN</DistanceMeters>
          </Trackpoint>
          <Trackpoint>
            <Time>2018-12-30T14:18:07.000Z</Time>
            <Position>
              <LatitudeDegrees>40.73558061383664608001708984375</LatitudeDegrees>
              <LongitudeDegrees>-4.076257646083831787109375</LongitudeDegrees>
            </Position>
            <AltitudeMeters>1270.199951171875</AltitudeMeters>
            <DistanceMeters>NAN</DistanceMeters>
          </Trackpoint>
          <Trackpoint>
            <Time>2018-12-30T14:18:08.000Z</Time>
            <Position>
              <LatitudeDegrees>40.73558597825467586517333984375</LatitudeDegrees>
              <LongitudeDegrees>-4.07622747123241424560546875</LongitudeDegrees>
            </Position>
            <AltitudeMeters>1269.800048828125</AltitudeMeters>
            <DistanceMeters>NAN</DistanceMeters>
          </Trackpoint>
          <Trackpoint>
            <Time>2018-12-30T14:18:09.000Z</Time>
            <Position>
              <LatitudeDegrees>40.735588409006595611572265625</LatitudeDegrees>
              <LongitudeDegrees>-4.07619905658066272735595703125</LongitudeDegrees>
            </Position>
            <AltitudeMeters>1269.4000244140625</AltitudeMeters>
            <DistanceMeters>NAN</DistanceMeters>
          </Trackpoint>
          <Trackpoint>
            <Time>2018-12-30T14:18:10.000Z</Time>
            <Position>
              <LatitudeDegrees>40.7355956174433231353759765625</LatitudeDegrees>
              <LongitudeDegrees>-4.07617340795695781707763671875</LongitudeDegrees>
            </Position>
            <AltitudeMeters>1269</AltitudeMeters>
            <DistanceMeters>NAN</DistanceMeters>
          </Trackpoint>
          <Trackpoint>
            <Time>2018-12-30T14:18:11.000Z</Time>
            <Position>
              <LatitudeDegrees>40.73559821583330631256103515625</LatitudeDegrees>
              <LongitudeDegrees>-4.07614792697131633758544921875</LongitudeDegrees>
            </Position>
            <AltitudeMeters>1268.800048828125</AltitudeMeters>
            <DistanceMeters>NAN</DistanceMeters>
          </Trackpoint>
          <Trackpoint>
            <Time>2018-12-30T14:18:12.000Z</Time>
            <Position>
              <LatitudeDegrees>40.7356036640703678131103515625</LatitudeDegrees>
              <LongitudeDegrees>-4.07612596638500690460205078125</LongitudeDegrees>
            </Position>
            <AltitudeMeters>1268.5999755859375</AltitudeMeters>
            <DistanceMeters>NAN</DistanceMeters>
          </Trackpoint>
          <Trackpoint>
            <Time>2018-12-30T14:18:13.000Z</Time>
            <Position>
              <LatitudeDegrees>40.73560643009841442108154296875</LatitudeDegrees>
              <LongitudeDegrees>-4.07610266469419002532958984375</LongitudeDegrees>
            </Position>
            <AltitudeMeters>1268.5999755859375</AltitudeMeters>
            <DistanceMeters>NAN</DistanceMeters>
          </Trackpoint>
          <Trackpoint>
            <Time>2018-12-30T14:18:14.000Z</Time>
            <Position>
              <LatitudeDegrees>40.73561280034482479095458984375</LatitudeDegrees>
              <LongitudeDegrees>-4.07607953064143657684326171875</LongitudeDegrees>
            </Position>
            <AltitudeMeters>1268.4000244140625</AltitudeMeters>
            <DistanceMeters>NAN</DistanceMeters>
          </Trackpoint>
          <Trackpoint>
            <Time>2018-12-30T14:18:15.000Z</Time>
            <Position>
              <LatitudeDegrees>40.7356204278767108917236328125</LatitudeDegrees>
              <LongitudeDegrees>-4.07605773769319057464599609375</LongitudeDegrees>
            </Position>
            <AltitudeMeters>1268.4000244140625</AltitudeMeters>
            <DistanceMeters>NAN</DistanceMeters>
          </Trackpoint>
          <Trackpoint>
            <Time>2018-12-30T14:18:16.000Z</Time>
            <Position>
              <LatitudeDegrees>40.73562554083764553070068359375</LatitudeDegrees>
              <LongitudeDegrees>-4.0760358609259128570556640625</LongitudeDegrees>
            </Position>
            <AltitudeMeters>1268</AltitudeMeters>
            <DistanceMeters>NAN</DistanceMeters>
          </Trackpoint>
          <Trackpoint>
            <Time>2018-12-30T14:18:17.000Z</Time>
            <Position>
              <LatitudeDegrees>40.73562637902796268463134765625</LatitudeDegrees>
              <LongitudeDegrees>-4.0760087035596370697021484375</LongitudeDegrees>
            </Position>
            <AltitudeMeters>1267.800048828125</AltitudeMeters>
            <DistanceMeters>NAN</DistanceMeters>
          </Trackpoint>
          <Trackpoint>
            <Time>2018-12-30T14:18:18.000Z</Time>
            <Position>
              <LatitudeDegrees>40.73562922887504100799560546875</LatitudeDegrees>
              <LongitudeDegrees>-4.0759848989546298980712890625</LongitudeDegrees>
            </Position>
            <AltitudeMeters>1267.4000244140625</AltitudeMeters>
            <DistanceMeters>NAN</DistanceMeters>
          </Trackpoint>
          <Trackpoint>
            <Time>2018-12-30T14:18:19.000Z</Time>
            <Position>
              <LatitudeDegrees>40.7356314919888973236083984375</LatitudeDegrees>
              <LongitudeDegrees>-4.07596335746347904205322265625</LongitudeDegrees>
            </Position>
            <AltitudeMeters>1267.199951171875</AltitudeMeters>
            <DistanceMeters>NAN</DistanceMeters>
          </Trackpoint>
          <Trackpoint>
            <Time>2018-12-30T14:18:20.000Z</Time>
            <Position>
              <LatitudeDegrees>40.73563962243497371673583984375</LatitudeDegrees>
              <LongitudeDegrees>-4.07594240270555019378662109375</LongitudeDegrees>
            </Position>
            <AltitudeMeters>1267</AltitudeMeters>
            <DistanceMeters>NAN</DistanceMeters>
          </Trackpoint>
          <Trackpoint>
            <Time>2018-12-30T14:18:21.000Z</Time>
            <Position>
              <LatitudeDegrees>40.73564632795751094818115234375</LatitudeDegrees>
              <LongitudeDegrees>-4.07592446543276309967041015625</LongitudeDegrees>
            </Position>
            <AltitudeMeters>1266.800048828125</AltitudeMeters>
            <DistanceMeters>NAN</DistanceMeters>
          </Trackpoint>
          <Trackpoint>
            <Time>2018-12-30T14:18:22.000Z</Time>
            <Position>
              <LatitudeDegrees>40.73564582504332065582275390625</LatitudeDegrees>
              <LongitudeDegrees>-4.075895883142948150634765625</LongitudeDegrees>
            </Position>
            <AltitudeMeters>1266.800048828125</AltitudeMeters>
            <DistanceMeters>NAN</DistanceMeters>
          </Trackpoint>
          <Trackpoint>
            <Time>2018-12-30T14:18:23.000Z</Time>
            <Position>
              <LatitudeDegrees>40.73564347811043262481689453125</LatitudeDegrees>
              <LongitudeDegrees>-4.0758692286908626556396484375</LongitudeDegrees>
            </Position>
            <AltitudeMeters>1266.5999755859375</AltitudeMeters>
            <DistanceMeters>NAN</DistanceMeters>
          </Trackpoint>
          <Trackpoint>
            <Time>2018-12-30T14:18:24.000Z</Time>
            <Position>
              <LatitudeDegrees>40.73564297519624233245849609375</LatitudeDegrees>
              <LongitudeDegrees>-4.07583964057266712188720703125</LongitudeDegrees>
            </Position>
            <AltitudeMeters>1266.199951171875</AltitudeMeters>
            <DistanceMeters>NAN</DistanceMeters>
          </Trackpoint>
          <Trackpoint>
            <Time>2018-12-30T14:18:25.000Z</Time>
            <Position>
              <LatitudeDegrees>40.73564817197620868682861328125</LatitudeDegrees>
              <LongitudeDegrees>-4.07581315375864505767822265625</LongitudeDegrees>
            </Position>
            <AltitudeMeters>1266.199951171875</AltitudeMeters>
            <DistanceMeters>NAN</DistanceMeters>
          </Trackpoint>
          <Trackpoint>
            <Time>2018-12-30T14:18:26.000Z</Time>
            <Position>
              <LatitudeDegrees>40.73565856553614139556884765625</LatitudeDegrees>
              <LongitudeDegrees>-4.07579018734395503997802734375</LongitudeDegrees>
            </Position>
            <AltitudeMeters>1266</AltitudeMeters>
            <DistanceMeters>NAN</DistanceMeters>
          </Trackpoint>
          <Trackpoint>
            <Time>2018-12-30T14:18:27.000Z</Time>
            <Position>
              <LatitudeDegrees>40.7356680370867252349853515625</LatitudeDegrees>
              <LongitudeDegrees>-4.07576403580605983734130859375</LongitudeDegrees>
            </Position>
            <AltitudeMeters>1266</AltitudeMeters>
            <DistanceMeters>NAN</DistanceMeters>
          </Trackpoint>
          <Trackpoint>
            <Time>2018-12-30T14:18:28.000Z</Time>
            <Position>
              <LatitudeDegrees>40.73567189276218414306640625</LatitudeDegrees>
              <LongitudeDegrees>-4.07573654316365718841552734375</LongitudeDegrees>
            </Position>
            <AltitudeMeters>1265.800048828125</AltitudeMeters>
            <DistanceMeters>NAN</DistanceMeters>
          </Trackpoint>
          <Trackpoint>
            <Time>2018-12-30T14:18:29.000Z</Time>
            <Position>
              <LatitudeDegrees>40.735677592456340789794921875</LatitudeDegrees>
              <LongitudeDegrees>-4.0757091343402862548828125</LongitudeDegrees>
            </Position>
            <AltitudeMeters>1265.5999755859375</AltitudeMeters>
            <DistanceMeters>NAN</DistanceMeters>
          </Trackpoint>
          <Trackpoint>
            <Time>2018-12-30T14:18:30.000Z</Time>
            <Position>
              <LatitudeDegrees>40.7356832921504974365234375</LatitudeDegrees>
              <LongitudeDegrees>-4.07568189315497875213623046875</LongitudeDegrees>
            </Position>
            <AltitudeMeters>1265.4000244140625</AltitudeMeters>
            <DistanceMeters>NAN</DistanceMeters>
          </Trackpoint>
          <Trackpoint>
            <Time>2018-12-30T14:18:31.000Z</Time>
            <Position>
              <LatitudeDegrees>40.735694356262683868408203125</LatitudeDegrees>
              <LongitudeDegrees>-4.075656495988368988037109375</LongitudeDegrees>
            </Position>
            <AltitudeMeters>1265.199951171875</AltitudeMeters>
            <DistanceMeters>NAN</DistanceMeters>
          </Trackpoint>
          <Trackpoint>
            <Time>2018-12-30T14:18:32.000Z</Time>
            <Position>
              <LatitudeDegrees>40.73570785112679004669189453125</LatitudeDegrees>
              <LongitudeDegrees>-4.0756338648498058319091796875</LongitudeDegrees>
            </Position>
            <AltitudeMeters>1265</AltitudeMeters>
            <DistanceMeters>NAN</DistanceMeters>
          </Trackpoint>
          <Trackpoint>
            <Time>2018-12-30T14:18:33.000Z</Time>
            <Position>
              <LatitudeDegrees>40.73571707122027873992919921875</LatitudeDegrees>
              <LongitudeDegrees>-4.07561601139605045318603515625</LongitudeDegrees>
            </Position>
            <AltitudeMeters>1264.800048828125</AltitudeMeters>
            <DistanceMeters>NAN</DistanceMeters>
          </Trackpoint>
          <Trackpoint>
            <Time>2018-12-30T14:18:34.000Z</Time>
            <Position>
              <LatitudeDegrees>40.7357257045805454254150390625</LatitudeDegrees>
              <LongitudeDegrees>-4.07559907995164394378662109375</LongitudeDegrees>
            </Position>
            <AltitudeMeters>1264.5999755859375</AltitudeMeters>
            <DistanceMeters>NAN</DistanceMeters>
          </Trackpoint>
          <Trackpoint>
            <Time>2018-12-30T14:18:35.000Z</Time>
            <Position>
              <LatitudeDegrees>40.735734589397907257080078125</LatitudeDegrees>
              <LongitudeDegrees>-4.07558097504079341888427734375</LongitudeDegrees>
            </Position>
            <AltitudeMeters>1264.4000244140625</AltitudeMeters>
            <DistanceMeters>NAN</DistanceMeters>
          </Trackpoint>
          <Trackpoint>
            <Time>2018-12-30T14:18:36.000Z</Time>
            <Position>
              <LatitudeDegrees>40.73574707843363285064697265625</LatitudeDegrees>
              <LongitudeDegrees>-4.075564630329608917236328125</LongitudeDegrees>
            </Position>
            <AltitudeMeters>1264.4000244140625</AltitudeMeters>
            <DistanceMeters>NAN</DistanceMeters>
          </Trackpoint>
          <Trackpoint>
            <Time>2018-12-30T14:18:37.000Z</Time>
            <Position>
              <LatitudeDegrees>40.73576183058321475982666015625</LatitudeDegrees>
              <LongitudeDegrees>-4.07554727979004383087158203125</LongitudeDegrees>
            </Position>
            <AltitudeMeters>1264.4000244140625</AltitudeMeters>
            <DistanceMeters>NAN</DistanceMeters>
          </Trackpoint>
          <Trackpoint>
            <Time>2018-12-30T14:18:38.000Z</Time>
            <Position>
              <LatitudeDegrees>40.73577825911343097686767578125</LatitudeDegrees>
              <LongitudeDegrees>-4.07553168945014476776123046875</LongitudeDegrees>
            </Position>
            <AltitudeMeters>1264.199951171875</AltitudeMeters>
            <DistanceMeters>NAN</DistanceMeters>
          </Trackpoint>
          <Trackpoint>
            <Time>2018-12-30T14:18:39.000Z</Time>
            <Position>
              <LatitudeDegrees>40.73579569347202777862548828125</LatitudeDegrees>
              <LongitudeDegrees>-4.07552079297602176666259765625</LongitudeDegrees>
            </Position>
            <AltitudeMeters>1264</AltitudeMeters>
            <DistanceMeters>NAN</DistanceMeters>
          </Trackpoint>
          <Trackpoint>
            <Time>2018-12-30T14:18:40.000Z</Time>
            <Position>
              <LatitudeDegrees>40.73581178672611713409423828125</LatitudeDegrees>
              <LongitudeDegrees>-4.0755079686641693115234375</LongitudeDegrees>
            </Position>
            <AltitudeMeters>1264</AltitudeMeters>
            <DistanceMeters>NAN</DistanceMeters>
          </Trackpoint>
          <Trackpoint>
            <Time>2018-12-30T14:18:41.000Z</Time>
            <Position>
              <LatitudeDegrees>40.73582821525633335113525390625</LatitudeDegrees>
              <LongitudeDegrees>-4.07549413852393627166748046875</LongitudeDegrees>
            </Position>
            <AltitudeMeters>1263.800048828125</AltitudeMeters>
            <DistanceMeters>NAN</DistanceMeters>
          </Trackpoint>
          <Trackpoint>
            <Time>2018-12-30T14:18:42.000Z</Time>
            <Position>
              <LatitudeDegrees>40.7358442246913909912109375</LatitudeDegrees>
              <LongitudeDegrees>-4.07548240385949611663818359375</LongitudeDegrees>
            </Position>
            <AltitudeMeters>1263.4000244140625</AltitudeMeters>
            <DistanceMeters>NAN</DistanceMeters>
          </Trackpoint>
          <Trackpoint>
            <Time>2018-12-30T14:18:43.000Z</Time>
            <Position>
              <LatitudeDegrees>40.7358567975461483001708984375</LatitudeDegrees>
              <LongitudeDegrees>-4.07547100447118282318115234375</LongitudeDegrees>
            </Position>
            <AltitudeMeters>1263</AltitudeMeters>
            <DistanceMeters>NAN</DistanceMeters>
          </Trackpoint>
          <Trackpoint>
            <Time>2018-12-30T14:18:44.000Z</Time>
            <Position>
              <LatitudeDegrees>40.73586635291576385498046875</LatitudeDegrees>
              <LongitudeDegrees>-4.07545809634029865264892578125</LongitudeDegrees>
            </Position>
            <AltitudeMeters>1262.800048828125</AltitudeMeters>
            <DistanceMeters>NAN</DistanceMeters>
          </Trackpoint>
          <Trackpoint>
            <Time>2018-12-30T14:18:45.000Z</Time>
            <Position>
              <LatitudeDegrees>40.73588018305599689483642578125</LatitudeDegrees>
              <LongitudeDegrees>-4.075447283685207366943359375</LongitudeDegrees>
            </Position>
            <AltitudeMeters>1262.5999755859375</AltitudeMeters>
            <DistanceMeters>NAN</DistanceMeters>
          </Trackpoint>
          <Trackpoint>
            <Time>2018-12-30T14:18:46.000Z</Time>
            <Position>
              <LatitudeDegrees>40.7358943484723567962646484375</LatitudeDegrees>
              <LongitudeDegrees>-4.07543580047786235809326171875</LongitudeDegrees>
            </Position>
            <AltitudeMeters>1262.199951171875</AltitudeMeters>
            <DistanceMeters>NAN</DistanceMeters>
          </Trackpoint>
          <Trackpoint>
            <Time>2018-12-30T14:18:47.000Z</Time>
            <Position>
              <LatitudeDegrees>40.735910944640636444091796875</LatitudeDegrees>
              <LongitudeDegrees>-4.0754256583750247955322265625</LongitudeDegrees>
            </Position>
            <AltitudeMeters>1262.199951171875</AltitudeMeters>
            <DistanceMeters>NAN</DistanceMeters>
          </Trackpoint>
          <Trackpoint>
            <Time>2018-12-30T14:18:48.000Z</Time>
            <Position>
              <LatitudeDegrees>40.73592863045632839202880859375</LatitudeDegrees>
              <LongitudeDegrees>-4.0754149295389652252197265625</LongitudeDegrees>
            </Position>
            <AltitudeMeters>1262</AltitudeMeters>
            <DistanceMeters>NAN</DistanceMeters>
          </Trackpoint>
          <Trackpoint>
            <Time>2018-12-30T14:18:49.000Z</Time>
            <Position>
              <LatitudeDegrees>40.73594304732978343963623046875</LatitudeDegrees>
              <LongitudeDegrees>-4.0754033625125885009765625</LongitudeDegrees>
            </Position>
            <AltitudeMeters>1261.5999755859375</AltitudeMeters>
            <DistanceMeters>NAN</DistanceMeters>
          </Trackpoint>
          <Trackpoint>
            <Time>2018-12-30T14:18:50.000Z</Time>
            <Position>
              <LatitudeDegrees>40.7359607331454753875732421875</LatitudeDegrees>
              <LongitudeDegrees>-4.07539171166718006134033203125</LongitudeDegrees>
            </Position>
            <AltitudeMeters>1261.199951171875</AltitudeMeters>
            <DistanceMeters>NAN</DistanceMeters>
          </Trackpoint>
          <Trackpoint>
            <Time>2018-12-30T14:18:51.000Z</Time>
            <Position>
              <LatitudeDegrees>40.7359791733324527740478515625</LatitudeDegrees>
              <LongitudeDegrees>-4.0753810666501522064208984375</LongitudeDegrees>
            </Position>
            <AltitudeMeters>1261</AltitudeMeters>
            <DistanceMeters>NAN</DistanceMeters>
          </Trackpoint>
          <Trackpoint>
            <Time>2018-12-30T14:18:52.000Z</Time>
            <Position>
              <LatitudeDegrees>40.73599400930106639862060546875</LatitudeDegrees>
              <LongitudeDegrees>-4.0753676556050777435302734375</LongitudeDegrees>
            </Position>
            <AltitudeMeters>1260.800048828125</AltitudeMeters>
            <DistanceMeters>NAN</DistanceMeters>
          </Trackpoint>
          <Trackpoint>
            <Time>2018-12-30T14:18:53.000Z</Time>
            <Position>
              <LatitudeDegrees>40.736008845269680023193359375</LatitudeDegrees>
              <LongitudeDegrees>-4.07535784877836704254150390625</LongitudeDegrees>
            </Position>
            <AltitudeMeters>1260.5999755859375</AltitudeMeters>
            <DistanceMeters>NAN</DistanceMeters>
          </Trackpoint>
          <Trackpoint>
            <Time>2018-12-30T14:18:54.000Z</Time>
            <Position>
              <LatitudeDegrees>40.73602116666734218597412109375</LatitudeDegrees>
              <LongitudeDegrees>-4.07534494064748287200927734375</LongitudeDegrees>
            </Position>
            <AltitudeMeters>1260.4000244140625</AltitudeMeters>
            <DistanceMeters>NAN</DistanceMeters>
          </Trackpoint>
          <Trackpoint>
            <Time>2018-12-30T14:18:55.000Z</Time>
            <Position>
              <LatitudeDegrees>40.7360368408262729644775390625</LatitudeDegrees>
              <LongitudeDegrees>-4.07533136196434497833251953125</LongitudeDegrees>
            </Position>
            <AltitudeMeters>1260.4000244140625</AltitudeMeters>
            <DistanceMeters>NAN</DistanceMeters>
          </Trackpoint>
          <Trackpoint>
            <Time>2018-12-30T14:18:56.000Z</Time>
            <Position>
              <LatitudeDegrees>40.73605000041425228118896484375</LatitudeDegrees>
              <LongitudeDegrees>-4.0753176994621753692626953125</LongitudeDegrees>
            </Position>
            <AltitudeMeters>1260.4000244140625</AltitudeMeters>
            <DistanceMeters>NAN</DistanceMeters>
          </Trackpoint>
          <Trackpoint>
            <Time>2018-12-30T14:18:57.000Z</Time>
            <Position>
              <LatitudeDegrees>40.736063830554485321044921875</LatitudeDegrees>
              <LongitudeDegrees>-4.0753039531409740447998046875</LongitudeDegrees>
            </Position>
            <AltitudeMeters>1260.199951171875</AltitudeMeters>
            <DistanceMeters>NAN</DistanceMeters>
          </Trackpoint>
          <Trackpoint>
            <Time>2018-12-30T14:18:58.000Z</Time>
            <Position>
              <LatitudeDegrees>40.73607682250440120697021484375</LatitudeDegrees>
              <LongitudeDegrees>-4.07528710551559925079345703125</LongitudeDegrees>
            </Position>
            <AltitudeMeters>1260</AltitudeMeters>
            <DistanceMeters>NAN</DistanceMeters>
          </Trackpoint>
          <Trackpoint>
            <Time>2018-12-30T14:18:59.000Z</Time>
            <Position>
              <LatitudeDegrees>40.736089646816253662109375</LatitudeDegrees>
              <LongitudeDegrees>-4.0752697549760341644287109375</LongitudeDegrees>
            </Position>
            <AltitudeMeters>1259.5999755859375</AltitudeMeters>
            <DistanceMeters>NAN</DistanceMeters>
          </Trackpoint>
          <Trackpoint>
            <Time>2018-12-30T14:19:00.000Z</Time>
            <Position>
              <LatitudeDegrees>40.73610448278486728668212890625</LatitudeDegrees>
              <LongitudeDegrees>-4.075251482427120208740234375</LongitudeDegrees>
            </Position>
            <AltitudeMeters>1259.4000244140625</AltitudeMeters>
            <DistanceMeters>NAN</DistanceMeters>
          </Trackpoint>
          <Trackpoint>
            <Time>2018-12-30T14:19:01.000Z</Time>
            <Position>
              <LatitudeDegrees>40.73611554689705371856689453125</LatitudeDegrees>
              <LongitudeDegrees>-4.07523161731660366058349609375</LongitudeDegrees>
            </Position>
            <AltitudeMeters>1259.4000244140625</AltitudeMeters>
            <DistanceMeters>NAN</DistanceMeters>
          </Trackpoint>
          <Trackpoint>
            <Time>2018-12-30T14:19:02.000Z</Time>
            <Position>
              <LatitudeDegrees>40.73613080196082592010498046875</LatitudeDegrees>
              <LongitudeDegrees>-4.07522038556635379791259765625</LongitudeDegrees>
            </Position>
            <AltitudeMeters>1259.199951171875</AltitudeMeters>
            <DistanceMeters>NAN</DistanceMeters>
          </Trackpoint>
          <Trackpoint>
            <Time>2018-12-30T14:19:03.000Z</Time>
            <Position>
              <LatitudeDegrees>40.73614538647234439849853515625</LatitudeDegrees>
              <LongitudeDegrees>-4.07520295120775699615478515625</LongitudeDegrees>
            </Position>
            <AltitudeMeters>1258.800048828125</AltitudeMeters>
            <DistanceMeters>NAN</DistanceMeters>
          </Trackpoint>
          <Trackpoint>
            <Time>2018-12-30T14:19:04.000Z</Time>
            <Position>
              <LatitudeDegrees>40.73615997098386287689208984375</LatitudeDegrees>
              <LongitudeDegrees>-4.07518551684916019439697265625</LongitudeDegrees>
            </Position>
            <AltitudeMeters>1258.4000244140625</AltitudeMeters>
            <DistanceMeters>NAN</DistanceMeters>
          </Trackpoint>
          <Trackpoint>
            <Time>2018-12-30T14:19:05.000Z</Time>
            <Position>
              <LatitudeDegrees>40.7361726276576519012451171875</LatitudeDegrees>
              <LongitudeDegrees>-4.0751685015857219696044921875</LongitudeDegrees>
            </Position>
            <AltitudeMeters>1258.199951171875</AltitudeMeters>
            <DistanceMeters>NAN</DistanceMeters>
          </Trackpoint>
          <Trackpoint>
            <Time>2018-12-30T14:19:06.000Z</Time>
            <Position>
              <LatitudeDegrees>40.73618017137050628662109375</LatitudeDegrees>
              <LongitudeDegrees>-4.07515014521777629852294921875</LongitudeDegrees>
            </Position>
            <AltitudeMeters>1258</AltitudeMeters>
            <DistanceMeters>NAN</DistanceMeters>
          </Trackpoint>
          <Trackpoint>
            <Time>2018-12-30T14:19:07.000Z</Time>
            <Position>
              <LatitudeDegrees>40.73618679307401180267333984375</LatitudeDegrees>
              <LongitudeDegrees>-4.07512818463146686553955078125</LongitudeDegrees>
            </Position>
            <AltitudeMeters>1257.800048828125</AltitudeMeters>
            <DistanceMeters>NAN</DistanceMeters>
          </Trackpoint>
          <Trackpoint>
            <Time>2018-12-30T14:19:08.000Z</Time>
            <Position>
              <LatitudeDegrees>40.73618930764496326446533203125</LatitudeDegrees>
              <LongitudeDegrees>-4.07510370947420597076416015625</LongitudeDegrees>
            </Position>
            <AltitudeMeters>1257.800048828125</AltitudeMeters>
            <DistanceMeters>NAN</DistanceMeters>
          </Trackpoint>
          <Trackpoint>
            <Time>2018-12-30T14:19:09.000Z</Time>
            <Position>
              <LatitudeDegrees>40.73618955910205841064453125</LatitudeDegrees>
              <LongitudeDegrees>-4.07508057542145252227783203125</LongitudeDegrees>
            </Position>
            <AltitudeMeters>1257.800048828125</AltitudeMeters>
            <DistanceMeters>NAN</DistanceMeters>
          </Trackpoint>
          <Trackpoint>
            <Time>2018-12-30T14:19:10.000Z</Time>
            <Position>
              <LatitudeDegrees>40.73618126101791858673095703125</LatitudeDegrees>
              <LongitudeDegrees>-4.0750595368444919586181640625</LongitudeDegrees>
            </Position>
            <AltitudeMeters>1257.5999755859375</AltitudeMeters>
            <DistanceMeters>NAN</DistanceMeters>
          </Trackpoint>
          <Trackpoint>
            <Time>2018-12-30T14:19:11.000Z</Time>
            <Position>
              <LatitudeDegrees>40.73617522604763507843017578125</LatitudeDegrees>
              <LongitudeDegrees>-4.07503799535334110260009765625</LongitudeDegrees>
            </Position>
            <AltitudeMeters>1257.4000244140625</AltitudeMeters>
            <DistanceMeters>NAN</DistanceMeters>
          </Trackpoint>
          <Trackpoint>
            <Time>2018-12-30T14:19:12.000Z</Time>
            <Position>
              <LatitudeDegrees>40.73616852052509784698486328125</LatitudeDegrees>
              <LongitudeDegrees>-4.07502357847988605499267578125</LongitudeDegrees>
            </Position>
            <AltitudeMeters>1257.199951171875</AltitudeMeters>
            <DistanceMeters>NAN</DistanceMeters>
          </Trackpoint>
          <Trackpoint>
            <Time>2018-12-30T14:19:13.000Z</Time>
            <Position>
              <LatitudeDegrees>40.73616315610706806182861328125</LatitudeDegrees>
              <LongitudeDegrees>-4.07500832341611385345458984375</LongitudeDegrees>
            </Position>
            <AltitudeMeters>1256.800048828125</AltitudeMeters>
            <DistanceMeters>NAN</DistanceMeters>
          </Trackpoint>
          <Trackpoint>
            <Time>2018-12-30T14:19:14.000Z</Time>
            <Position>
              <LatitudeDegrees>40.73615510948002338409423828125</LatitudeDegrees>
              <LongitudeDegrees>-4.074992649257183074951171875</LongitudeDegrees>
            </Position>
            <AltitudeMeters>1256.199951171875</AltitudeMeters>
            <DistanceMeters>NAN</DistanceMeters>
          </Trackpoint>
          <Trackpoint>
            <Time>2018-12-30T14:19:15.000Z</Time>
            <Position>
              <LatitudeDegrees>40.7361417822539806365966796875</LatitudeDegrees>
              <LongitudeDegrees>-4.07497613690793514251708984375</LongitudeDegrees>
            </Position>
            <AltitudeMeters>1256</AltitudeMeters>
            <DistanceMeters>NAN</DistanceMeters>
          </Trackpoint>
          <Trackpoint>
            <Time>2018-12-30T14:19:16.000Z</Time>
            <Position>
              <LatitudeDegrees>40.736125521361827850341796875</LatitudeDegrees>
              <LongitudeDegrees>-4.07495887018740177154541015625</LongitudeDegrees>
            </Position>
            <AltitudeMeters>1255.5999755859375</AltitudeMeters>
            <DistanceMeters>NAN</DistanceMeters>
          </Trackpoint>
          <Trackpoint>
            <Time>2018-12-30T14:19:17.000Z</Time>
            <Position>
              <LatitudeDegrees>40.7361124455928802490234375</LatitudeDegrees>
              <LongitudeDegrees>-4.07493866980075836181640625</LongitudeDegrees>
            </Position>
            <AltitudeMeters>1255.199951171875</AltitudeMeters>
            <DistanceMeters>NAN</DistanceMeters>
          </Trackpoint>
          <Trackpoint>
            <Time>2018-12-30T14:19:18.000Z</Time>
            <Position>
              <LatitudeDegrees>40.736100375652313232421875</LatitudeDegrees>
              <LongitudeDegrees>-4.07491855323314666748046875</LongitudeDegrees>
            </Position>
            <AltitudeMeters>1254.800048828125</AltitudeMeters>
            <DistanceMeters>NAN</DistanceMeters>
          </Trackpoint>
          <Trackpoint>
            <Time>2018-12-30T14:19:19.000Z</Time>
            <Position>
              <LatitudeDegrees>40.7360857911407947540283203125</LatitudeDegrees>
              <LongitudeDegrees>-4.07489617355167865753173828125</LongitudeDegrees>
            </Position>
            <AltitudeMeters>1254.4000244140625</AltitudeMeters>
            <DistanceMeters>NAN</DistanceMeters>
          </Trackpoint>
          <Trackpoint>
            <Time>2018-12-30T14:19:20.000Z</Time>
            <Position>
              <LatitudeDegrees>40.7360733859241008758544921875</LatitudeDegrees>
              <LongitudeDegrees>-4.074872620403766632080078125</LongitudeDegrees>
            </Position>
            <AltitudeMeters>1254</AltitudeMeters>
            <DistanceMeters>NAN</DistanceMeters>
          </Trackpoint>
          <Trackpoint>
            <Time>2018-12-30T14:19:21.000Z</Time>
            <Position>
              <LatitudeDegrees>40.73606274090707302093505859375</LatitudeDegrees>
              <LongitudeDegrees>-4.074853844940662384033203125</LongitudeDegrees>
            </Position>
            <AltitudeMeters>1254</AltitudeMeters>
            <DistanceMeters>NAN</DistanceMeters>
          </Trackpoint>
          <Trackpoint>
            <Time>2018-12-30T14:19:22.000Z</Time>
            <Position>
              <LatitudeDegrees>40.73605184443295001983642578125</LatitudeDegrees>
              <LongitudeDegrees>-4.074834398925304412841796875</LongitudeDegrees>
            </Position>
            <AltitudeMeters>1253.800048828125</AltitudeMeters>
            <DistanceMeters>NAN</DistanceMeters>
          </Trackpoint>
          <Trackpoint>
            <Time>2018-12-30T14:19:23.000Z</Time>
            <Position>
              <LatitudeDegrees>40.73604027740657329559326171875</LatitudeDegrees>
              <LongitudeDegrees>-4.07481704838573932647705078125</LongitudeDegrees>
            </Position>
            <AltitudeMeters>1253.4000244140625</AltitudeMeters>
            <DistanceMeters>NAN</DistanceMeters>
          </Trackpoint>
          <Trackpoint>
            <Time>2018-12-30T14:19:24.000Z</Time>
            <Position>
              <LatitudeDegrees>40.73602862656116485595703125</LatitudeDegrees>
              <LongitudeDegrees>-4.07479911111295223236083984375</LongitudeDegrees>
            </Position>
            <AltitudeMeters>1253.199951171875</AltitudeMeters>
            <DistanceMeters>NAN</DistanceMeters>
          </Trackpoint>
          <Trackpoint>
            <Time>2018-12-30T14:19:25.000Z</Time>
            <Position>
              <LatitudeDegrees>40.736019574105739593505859375</LatitudeDegrees>
              <LongitudeDegrees>-4.07478452660143375396728515625</LongitudeDegrees>
            </Position>
            <AltitudeMeters>1252.800048828125</AltitudeMeters>
            <DistanceMeters>NAN</DistanceMeters>
          </Trackpoint>
          <Trackpoint>
            <Time>2018-12-30T14:19:26.000Z</Time>
            <Position>
              <LatitudeDegrees>40.736012868583202362060546875</LatitudeDegrees>
              <LongitudeDegrees>-4.0747665055096149444580078125</LongitudeDegrees>
            </Position>
            <AltitudeMeters>1252.5999755859375</AltitudeMeters>
            <DistanceMeters>NAN</DistanceMeters>
          </Trackpoint>
          <Trackpoint>
            <Time>2018-12-30T14:19:27.000Z</Time>
            <Position>
              <LatitudeDegrees>40.736004151403903961181640625</LatitudeDegrees>
              <LongitudeDegrees>-4.0747487358748912811279296875</LongitudeDegrees>
            </Position>
            <AltitudeMeters>1252.4000244140625</AltitudeMeters>
            <DistanceMeters>NAN</DistanceMeters>
          </Trackpoint>
          <Trackpoint>
            <Time>2018-12-30T14:19:28.000Z</Time>
            <Position>
              <LatitudeDegrees>40.7359890639781951904296875</LatitudeDegrees>
              <LongitudeDegrees>-4.074734151363372802734375</LongitudeDegrees>
            </Position>
            <AltitudeMeters>1252.199951171875</AltitudeMeters>
            <DistanceMeters>NAN</DistanceMeters>
          </Trackpoint>
          <Trackpoint>
            <Time>2018-12-30T14:19:29.000Z</Time>
            <Position>
              <LatitudeDegrees>40.7359741441905498504638671875</LatitudeDegrees>
              <LongitudeDegrees>-4.07471713609993457794189453125</LongitudeDegrees>
            </Position>
            <AltitudeMeters>1252</AltitudeMeters>
            <DistanceMeters>NAN</DistanceMeters>
          </Trackpoint>
          <Trackpoint>
            <Time>2018-12-30T14:19:30.000Z</Time>
            <Position>
              <LatitudeDegrees>40.73595964349806308746337890625</LatitudeDegrees>
              <LongitudeDegrees>-4.07470439560711383819580078125</LongitudeDegrees>
            </Position>
            <AltitudeMeters>1251.5999755859375</AltitudeMeters>
            <DistanceMeters>NAN</DistanceMeters>
          </Trackpoint>
          <Trackpoint>
            <Time>2018-12-30T14:19:31.000Z</Time>
            <Position>
              <LatitudeDegrees>40.73594287969172000885009765625</LatitudeDegrees>
              <LongitudeDegrees>-4.074693582952022552490234375</LongitudeDegrees>
            </Position>
            <AltitudeMeters>1251.199951171875</AltitudeMeters>
            <DistanceMeters>NAN</DistanceMeters>
          </Trackpoint>
          <Trackpoint>
            <Time>2018-12-30T14:19:32.000Z</Time>
            <Position>
              <LatitudeDegrees>40.73593349196016788482666015625</LatitudeDegrees>
              <LongitudeDegrees>-4.07468360848724842071533203125</LongitudeDegrees>
            </Position>
            <AltitudeMeters>1250.5999755859375</AltitudeMeters>
            <DistanceMeters>NAN</DistanceMeters>
          </Trackpoint>
          <Trackpoint>
            <Time>2018-12-30T14:19:33.000Z</Time>
            <Position>
              <LatitudeDegrees>40.7359238527715206146240234375</LatitudeDegrees>
              <LongitudeDegrees>-4.074669778347015380859375</LongitudeDegrees>
            </Position>
            <AltitudeMeters>1250.5999755859375</AltitudeMeters>
            <DistanceMeters>NAN</DistanceMeters>
          </Trackpoint>
          <Trackpoint>
            <Time>2018-12-30T14:19:34.000Z</Time>
            <Position>
              <LatitudeDegrees>40.73591153137385845184326171875</LatitudeDegrees>
              <LongitudeDegrees>-4.0746545232832431793212890625</LongitudeDegrees>
            </Position>
            <AltitudeMeters>1250.4000244140625</AltitudeMeters>
            <DistanceMeters>NAN</DistanceMeters>
          </Trackpoint>
          <Trackpoint>
            <Time>2018-12-30T14:19:35.000Z</Time>
            <Position>
              <LatitudeDegrees>40.735900886356830596923828125</LatitudeDegrees>
              <LongitudeDegrees>-4.07463826239109039306640625</LongitudeDegrees>
            </Position>
            <AltitudeMeters>1250.199951171875</AltitudeMeters>
            <DistanceMeters>NAN</DistanceMeters>
          </Trackpoint>
          <Trackpoint>
            <Time>2018-12-30T14:19:36.000Z</Time>
            <Position>
              <LatitudeDegrees>40.735891498625278472900390625</LatitudeDegrees>
              <LongitudeDegrees>-4.0746243484318256378173828125</LongitudeDegrees>
            </Position>
            <AltitudeMeters>1249.800048828125</AltitudeMeters>
            <DistanceMeters>NAN</DistanceMeters>
          </Trackpoint>
          <Trackpoint>
            <Time>2018-12-30T14:19:37.000Z</Time>
            <Position>
              <LatitudeDegrees>40.7358826138079166412353515625</LatitudeDegrees>
              <LongitudeDegrees>-4.07460875809192657470703125</LongitudeDegrees>
            </Position>
            <AltitudeMeters>1249.5999755859375</AltitudeMeters>
            <DistanceMeters>NAN</DistanceMeters>
          </Trackpoint>
          <Trackpoint>
            <Time>2018-12-30T14:19:38.000Z</Time>
            <Position>
              <LatitudeDegrees>40.73587263934314250946044921875</LatitudeDegrees>
              <LongitudeDegrees>-4.07459400594234466552734375</LongitudeDegrees>
            </Position>
            <AltitudeMeters>1249.5999755859375</AltitudeMeters>
            <DistanceMeters>NAN</DistanceMeters>
          </Trackpoint>
          <Trackpoint>
            <Time>2018-12-30T14:19:39.000Z</Time>
            <Position>
              <LatitudeDegrees>40.7358628325164318084716796875</LatitudeDegrees>
              <LongitudeDegrees>-4.07458126544952392578125</LongitudeDegrees>
            </Position>
            <AltitudeMeters>1249.4000244140625</AltitudeMeters>
            <DistanceMeters>NAN</DistanceMeters>
          </Trackpoint>
          <Trackpoint>
            <Time>2018-12-30T14:19:40.000Z</Time>
            <Position>
              <LatitudeDegrees>40.73585336096584796905517578125</LatitudeDegrees>
              <LongitudeDegrees>-4.074568189680576324462890625</LongitudeDegrees>
            </Position>
            <AltitudeMeters>1249</AltitudeMeters>
            <DistanceMeters>NAN</DistanceMeters>
          </Trackpoint>
          <Trackpoint>
            <Time>2018-12-30T14:19:41.000Z</Time>
            <Position>
              <LatitudeDegrees>40.73584623634815216064453125</LatitudeDegrees>
              <LongitudeDegrees>-4.07455167733132839202880859375</LongitudeDegrees>
            </Position>
            <AltitudeMeters>1248.4000244140625</AltitudeMeters>
            <DistanceMeters>NAN</DistanceMeters>
          </Trackpoint>
          <Trackpoint>
            <Time>2018-12-30T14:19:42.000Z</Time>
            <Position>
              <LatitudeDegrees>40.7358393631875514984130859375</LatitudeDegrees>
              <LongitudeDegrees>-4.07453374005854129791259765625</LongitudeDegrees>
            </Position>
            <AltitudeMeters>1248</AltitudeMeters>
            <DistanceMeters>NAN</DistanceMeters>
          </Trackpoint>
          <Trackpoint>
            <Time>2018-12-30T14:19:43.000Z</Time>
            <Position>
              <LatitudeDegrees>40.735835172235965728759765625</LatitudeDegrees>
              <LongitudeDegrees>-4.07451731152832508087158203125</LongitudeDegrees>
            </Position>
            <AltitudeMeters>1247.800048828125</AltitudeMeters>
            <DistanceMeters>NAN</DistanceMeters>
          </Trackpoint>
          <Trackpoint>
            <Time>2018-12-30T14:19:44.000Z</Time>
            <Position>
              <LatitudeDegrees>40.73583408258855342864990234375</LatitudeDegrees>
              <LongitudeDegrees>-4.074497781693935394287109375</LongitudeDegrees>
            </Position>
            <AltitudeMeters>1247.5999755859375</AltitudeMeters>
            <DistanceMeters>NAN</DistanceMeters>
          </Trackpoint>
          <Trackpoint>
            <Time>2018-12-30T14:19:45.000Z</Time>
            <Position>
              <LatitudeDegrees>40.7358326576650142669677734375</LatitudeDegrees>
              <LongitudeDegrees>-4.074483029544353485107421875</LongitudeDegrees>
            </Position>
            <AltitudeMeters>1247.5999755859375</AltitudeMeters>
            <DistanceMeters>NAN</DistanceMeters>
          </Trackpoint>
          <Trackpoint>
            <Time>2018-12-30T14:19:46.000Z</Time>
            <Position>
              <LatitudeDegrees>40.73583542369306087493896484375</LatitudeDegrees>
              <LongitudeDegrees>-4.074455201625823974609375</LongitudeDegrees>
            </Position>
            <AltitudeMeters>1247.4000244140625</AltitudeMeters>
            <DistanceMeters>NAN</DistanceMeters>
          </Trackpoint>
          <Trackpoint>
            <Time>2018-12-30T14:19:47.000Z</Time>
            <Position>
              <LatitudeDegrees>40.7358383573591709136962890625</LatitudeDegrees>
              <LongitudeDegrees>-4.0744312293827533721923828125</LongitudeDegrees>
            </Position>
            <AltitudeMeters>1247.199951171875</AltitudeMeters>
            <DistanceMeters>NAN</DistanceMeters>
          </Trackpoint>
          <Trackpoint>
            <Time>2018-12-30T14:19:48.000Z</Time>
            <Position>
              <LatitudeDegrees>40.7358403690159320831298828125</LatitudeDegrees>
              <LongitudeDegrees>-4.07440801151096820831298828125</LongitudeDegrees>
            </Position>
            <AltitudeMeters>1247.199951171875</AltitudeMeters>
            <DistanceMeters>NAN</DistanceMeters>
          </Trackpoint>
          <Trackpoint>
            <Time>2018-12-30T14:19:49.000Z</Time>
            <Position>
              <LatitudeDegrees>40.73584414087235927581787109375</LatitudeDegrees>
              <LongitudeDegrees>-4.0743846260011196136474609375</LongitudeDegrees>
            </Position>
            <AltitudeMeters>1246.800048828125</AltitudeMeters>
            <DistanceMeters>NAN</DistanceMeters>
          </Trackpoint>
          <Trackpoint>
            <Time>2018-12-30T14:19:50.000Z</Time>
            <Position>
              <LatitudeDegrees>40.735844559967517852783203125</LatitudeDegrees>
              <LongitudeDegrees>-4.07435604371130466461181640625</LongitudeDegrees>
            </Position>
            <AltitudeMeters>1246.199951171875</AltitudeMeters>
            <DistanceMeters>NAN</DistanceMeters>
          </Trackpoint>
          <Trackpoint>
            <Time>2018-12-30T14:19:51.000Z</Time>
            <Position>
              <LatitudeDegrees>40.73584816418588161468505859375</LatitudeDegrees>
              <LongitudeDegrees>-4.0743266232311725616455078125</LongitudeDegrees>
            </Position>
            <AltitudeMeters>1246</AltitudeMeters>
            <DistanceMeters>NAN</DistanceMeters>
          </Trackpoint>
          <Trackpoint>
            <Time>2018-12-30T14:19:52.000Z</Time>
            <Position>
              <LatitudeDegrees>40.73585252277553081512451171875</LatitudeDegrees>
              <LongitudeDegrees>-4.0742987953126430511474609375</LongitudeDegrees>
            </Position>
            <AltitudeMeters>1245.800048828125</AltitudeMeters>
            <DistanceMeters>NAN</DistanceMeters>
          </Trackpoint>
          <Trackpoint>
            <Time>2018-12-30T14:19:53.000Z</Time>
            <Position>
              <LatitudeDegrees>40.735854618251323699951171875</LatitudeDegrees>
              <LongitudeDegrees>-4.07427272759377956390380859375</LongitudeDegrees>
            </Position>
            <AltitudeMeters>1245.4000244140625</AltitudeMeters>
            <DistanceMeters>NAN</DistanceMeters>
          </Trackpoint>
          <Trackpoint>
            <Time>2018-12-30T14:19:54.000Z</Time>
            <Position>
              <LatitudeDegrees>40.73585755191743373870849609375</LatitudeDegrees>
              <LongitudeDegrees>-4.0742441453039646148681640625</LongitudeDegrees>
            </Position>
            <AltitudeMeters>1245.4000244140625</AltitudeMeters>
            <DistanceMeters>NAN</DistanceMeters>
          </Trackpoint>
          <Trackpoint>
            <Time>2018-12-30T14:19:55.000Z</Time>
            <Position>
              <LatitudeDegrees>40.735858976840972900390625</LatitudeDegrees>
              <LongitudeDegrees>-4.07421489246189594268798828125</LongitudeDegrees>
            </Position>
            <AltitudeMeters>1245.199951171875</AltitudeMeters>
            <DistanceMeters>NAN</DistanceMeters>
          </Trackpoint>
          <Trackpoint>
            <Time>2018-12-30T14:19:56.000Z</Time>
            <Position>
              <LatitudeDegrees>40.735862664878368377685546875</LatitudeDegrees>
              <LongitudeDegrees>-4.07418505288660526275634765625</LongitudeDegrees>
            </Position>
            <AltitudeMeters>1245</AltitudeMeters>
            <DistanceMeters>NAN</DistanceMeters>
          </Trackpoint>
          <Trackpoint>
            <Time>2018-12-30T14:19:57.000Z</Time>
            <Position>
              <LatitudeDegrees>40.73586593382060527801513671875</LatitudeDegrees>
              <LongitudeDegrees>-4.07415546476840972900390625</LongitudeDegrees>
            </Position>
            <AltitudeMeters>1244.800048828125</AltitudeMeters>
            <DistanceMeters>NAN</DistanceMeters>
          </Trackpoint>
          <Trackpoint>
            <Time>2018-12-30T14:19:58.000Z</Time>
            <Position>
              <LatitudeDegrees>40.73586895130574703216552734375</LatitudeDegrees>
              <LongitudeDegrees>-4.07412788830697536468505859375</LongitudeDegrees>
            </Position>
            <AltitudeMeters>1244.5999755859375</AltitudeMeters>
            <DistanceMeters>NAN</DistanceMeters>
          </Trackpoint>
          <Trackpoint>
            <Time>2018-12-30T14:19:59.000Z</Time>
            <Position>
              <LatitudeDegrees>40.7358737289905548095703125</LatitudeDegrees>
              <LongitudeDegrees>-4.07410223968327045440673828125</LongitudeDegrees>
            </Position>
            <AltitudeMeters>1244.4000244140625</AltitudeMeters>
            <DistanceMeters>NAN</DistanceMeters>
          </Trackpoint>
          <Trackpoint>
            <Time>2018-12-30T14:20:00.000Z</Time>
            <Position>
              <LatitudeDegrees>40.73587666265666484832763671875</LatitudeDegrees>
              <LongitudeDegrees>-4.07408027909696102142333984375</LongitudeDegrees>
            </Position>
            <AltitudeMeters>1244.4000244140625</AltitudeMeters>
            <DistanceMeters>NAN</DistanceMeters>
          </Trackpoint>
          <Trackpoint>
            <Time>2018-12-30T14:20:01.000Z</Time>
            <Position>
              <LatitudeDegrees>40.73587867431342601776123046875</LatitudeDegrees>
              <LongitudeDegrees>-4.07405429519712924957275390625</LongitudeDegrees>
            </Position>
            <AltitudeMeters>1244.199951171875</AltitudeMeters>
            <DistanceMeters>NAN</DistanceMeters>
          </Trackpoint>
          <Trackpoint>
            <Time>2018-12-30T14:20:02.000Z</Time>
            <Position>
              <LatitudeDegrees>40.73588110506534576416015625</LatitudeDegrees>
              <LongitudeDegrees>-4.0740272216498851776123046875</LongitudeDegrees>
            </Position>
            <AltitudeMeters>1244</AltitudeMeters>
            <DistanceMeters>NAN</DistanceMeters>
          </Trackpoint>
          <Trackpoint>
            <Time>2018-12-30T14:20:03.000Z</Time>
            <Position>
              <LatitudeDegrees>40.7358876429498195648193359375</LatitudeDegrees>
              <LongitudeDegrees>-4.07400048337876796722412109375</LongitudeDegrees>
            </Position>
            <AltitudeMeters>1243.5999755859375</AltitudeMeters>
            <DistanceMeters>NAN</DistanceMeters>
          </Trackpoint>
          <Trackpoint>
            <Time>2018-12-30T14:20:04.000Z</Time>
            <Position>
              <LatitudeDegrees>40.7358923368155956268310546875</LatitudeDegrees>
              <LongitudeDegrees>-4.0739749185740947723388671875</LongitudeDegrees>
            </Position>
            <AltitudeMeters>1243.199951171875</AltitudeMeters>
            <DistanceMeters>NAN</DistanceMeters>
          </Trackpoint>
          <Trackpoint>
            <Time>2018-12-30T14:20:05.000Z</Time>
            <Position>
              <LatitudeDegrees>40.73589451611042022705078125</LatitudeDegrees>
              <LongitudeDegrees>-4.07394633628427982330322265625</LongitudeDegrees>
            </Position>
            <AltitudeMeters>1243</AltitudeMeters>
            <DistanceMeters>NAN</DistanceMeters>
          </Trackpoint>
          <Trackpoint>
            <Time>2018-12-30T14:20:06.000Z</Time>
            <Position>
              <LatitudeDegrees>40.73589853942394256591796875</LatitudeDegrees>
              <LongitudeDegrees>-4.0739209391176700592041015625</LongitudeDegrees>
            </Position>
            <AltitudeMeters>1242.5999755859375</AltitudeMeters>
            <DistanceMeters>NAN</DistanceMeters>
          </Trackpoint>
          <Trackpoint>
            <Time>2018-12-30T14:20:07.000Z</Time>
            <Position>
              <LatitudeDegrees>40.73589812032878398895263671875</LatitudeDegrees>
              <LongitudeDegrees>-4.073890931904315948486328125</LongitudeDegrees>
            </Position>
            <AltitudeMeters>1242.199951171875</AltitudeMeters>
            <DistanceMeters>NAN</DistanceMeters>
          </Trackpoint>
          <Trackpoint>
            <Time>2018-12-30T14:20:08.000Z</Time>
            <Position>
              <LatitudeDegrees>40.73589895851910114288330078125</LatitudeDegrees>
              <LongitudeDegrees>-4.0738649480044841766357421875</LongitudeDegrees>
            </Position>
            <AltitudeMeters>1241.800048828125</AltitudeMeters>
            <DistanceMeters>NAN</DistanceMeters>
          </Trackpoint>
          <Trackpoint>
            <Time>2018-12-30T14:20:09.000Z</Time>
            <Position>
              <LatitudeDegrees>40.73590180836617946624755859375</LatitudeDegrees>
              <LongitudeDegrees>-4.07383837737143039703369140625</LongitudeDegrees>
            </Position>
            <AltitudeMeters>1241.5999755859375</AltitudeMeters>
            <DistanceMeters>NAN</DistanceMeters>
          </Trackpoint>
          <Trackpoint>
            <Time>2018-12-30T14:20:10.000Z</Time>
            <Position>
              <LatitudeDegrees>40.7359034009277820587158203125</LatitudeDegrees>
              <LongitudeDegrees>-4.07380954362452030181884765625</LongitudeDegrees>
            </Position>
            <AltitudeMeters>1241.4000244140625</AltitudeMeters>
            <DistanceMeters>NAN</DistanceMeters>
          </Trackpoint>
          <Trackpoint>
            <Time>2018-12-30T14:20:11.000Z</Time>
            <Position>
              <LatitudeDegrees>40.73590432293713092803955078125</LatitudeDegrees>
              <LongitudeDegrees>-4.07378255389630794525146484375</LongitudeDegrees>
            </Position>
            <AltitudeMeters>1241.199951171875</AltitudeMeters>
            <DistanceMeters>NAN</DistanceMeters>
          </Trackpoint>
          <Trackpoint>
            <Time>2018-12-30T14:20:12.000Z</Time>
            <Position>
              <LatitudeDegrees>40.73590231128036975860595703125</LatitudeDegrees>
              <LongitudeDegrees>-4.0737543068826198577880859375</LongitudeDegrees>
            </Position>
            <AltitudeMeters>1241</AltitudeMeters>
            <DistanceMeters>NAN</DistanceMeters>
          </Trackpoint>
          <Trackpoint>
            <Time>2018-12-30T14:20:13.000Z</Time>
            <Position>
              <LatitudeDegrees>40.73589711450040340423583984375</LatitudeDegrees>
              <LongitudeDegrees>-4.07372572459280490875244140625</LongitudeDegrees>
            </Position>
            <AltitudeMeters>1240.800048828125</AltitudeMeters>
            <DistanceMeters>NAN</DistanceMeters>
          </Trackpoint>
          <Trackpoint>
            <Time>2018-12-30T14:20:14.000Z</Time>
            <Position>
              <LatitudeDegrees>40.73589627631008625030517578125</LatitudeDegrees>
              <LongitudeDegrees>-4.07370175234973430633544921875</LongitudeDegrees>
            </Position>
            <AltitudeMeters>1240.800048828125</AltitudeMeters>
            <DistanceMeters>NAN</DistanceMeters>
          </Trackpoint>
          <Trackpoint>
            <Time>2018-12-30T14:20:15.000Z</Time>
            <Position>
              <LatitudeDegrees>40.73589510284364223480224609375</LatitudeDegrees>
              <LongitudeDegrees>-4.07367342151701450347900390625</LongitudeDegrees>
            </Position>
            <AltitudeMeters>1240.5999755859375</AltitudeMeters>
            <DistanceMeters>NAN</DistanceMeters>
          </Trackpoint>
          <Trackpoint>
            <Time>2018-12-30T14:20:16.000Z</Time>
            <Position>
              <LatitudeDegrees>40.7358893193304538726806640625</LatitudeDegrees>
              <LongitudeDegrees>-4.07364374957978725433349609375</LongitudeDegrees>
            </Position>
            <AltitudeMeters>1240.4000244140625</AltitudeMeters>
            <DistanceMeters>NAN</DistanceMeters>
          </Trackpoint>
          <Trackpoint>
            <Time>2018-12-30T14:20:17.000Z</Time>
            <Position>
              <LatitudeDegrees>40.7358859665691852569580078125</LatitudeDegrees>
              <LongitudeDegrees>-4.07361726276576519012451171875</LongitudeDegrees>
            </Position>
            <AltitudeMeters>1240.199951171875</AltitudeMeters>
            <DistanceMeters>NAN</DistanceMeters>
          </Trackpoint>
          <Trackpoint>
            <Time>2018-12-30T14:20:18.000Z</Time>
            <Position>
              <LatitudeDegrees>40.73588202707469463348388671875</LatitudeDegrees>
              <LongitudeDegrees>-4.07359094358980655670166015625</LongitudeDegrees>
            </Position>
            <AltitudeMeters>1240</AltitudeMeters>
            <DistanceMeters>NAN</DistanceMeters>
          </Trackpoint>
          <Trackpoint>
            <Time>2018-12-30T14:20:19.000Z</Time>
            <Position>
              <LatitudeDegrees>40.735876746475696563720703125</LatitudeDegrees>
              <LongitudeDegrees>-4.07356797717511653900146484375</LongitudeDegrees>
            </Position>
            <AltitudeMeters>1239.800048828125</AltitudeMeters>
            <DistanceMeters>NAN</DistanceMeters>
          </Trackpoint>
          <Trackpoint>
            <Time>2018-12-30T14:20:20.000Z</Time>
            <Position>
              <LatitudeDegrees>40.73587398044764995574951171875</LatitudeDegrees>
              <LongitudeDegrees>-4.0735487826168537139892578125</LongitudeDegrees>
            </Position>
            <AltitudeMeters>1239.4000244140625</AltitudeMeters>
            <DistanceMeters>NAN</DistanceMeters>
          </Trackpoint>
          <Trackpoint>
            <Time>2018-12-30T14:20:21.000Z</Time>
            <Position>
              <LatitudeDegrees>40.7358683645725250244140625</LatitudeDegrees>
              <LongitudeDegrees>-4.0735306777060031890869140625</LongitudeDegrees>
            </Position>
            <AltitudeMeters>1239.199951171875</AltitudeMeters>
            <DistanceMeters>NAN</DistanceMeters>
          </Trackpoint>
          <Trackpoint>
            <Time>2018-12-30T14:20:22.000Z</Time>
            <Position>
              <LatitudeDegrees>40.7358624972403049468994140625</LatitudeDegrees>
              <LongitudeDegrees>-4.0735062025487422943115234375</LongitudeDegrees>
            </Position>
            <AltitudeMeters>1239</AltitudeMeters>
            <DistanceMeters>NAN</DistanceMeters>
          </Trackpoint>
          <Trackpoint>
            <Time>2018-12-30T14:20:23.000Z</Time>
            <Position>
              <LatitudeDegrees>40.73585554026067256927490234375</LatitudeDegrees>
              <LongitudeDegrees>-4.07348181121051311492919921875</LongitudeDegrees>
            </Position>
            <AltitudeMeters>1238.800048828125</AltitudeMeters>
            <DistanceMeters>NAN</DistanceMeters>
          </Trackpoint>
          <Trackpoint>
            <Time>2018-12-30T14:20:24.000Z</Time>
            <Position>
              <LatitudeDegrees>40.73584816418588161468505859375</LatitudeDegrees>
              <LongitudeDegrees>-4.07346077263355255126953125</LongitudeDegrees>
            </Position>
            <AltitudeMeters>1238.5999755859375</AltitudeMeters>
            <DistanceMeters>NAN</DistanceMeters>
          </Trackpoint>
          <Trackpoint>
            <Time>2018-12-30T14:20:25.000Z</Time>
            <Position>
              <LatitudeDegrees>40.73583978228271007537841796875</LatitudeDegrees>
              <LongitudeDegrees>-4.07344392500817775726318359375</LongitudeDegrees>
            </Position>
            <AltitudeMeters>1238.199951171875</AltitudeMeters>
            <DistanceMeters>NAN</DistanceMeters>
          </Trackpoint>
          <Trackpoint>
            <Time>2018-12-30T14:20:26.000Z</Time>
            <Position>
              <LatitudeDegrees>40.7358336634933948516845703125</LatitudeDegrees>
              <LongitudeDegrees>-4.07342246733605861663818359375</LongitudeDegrees>
            </Position>
            <AltitudeMeters>1237.800048828125</AltitudeMeters>
            <DistanceMeters>NAN</DistanceMeters>
          </Trackpoint>
          <Trackpoint>
            <Time>2018-12-30T14:20:27.000Z</Time>
            <Position>
              <LatitudeDegrees>40.735827796161174774169921875</LatitudeDegrees>
              <LongitudeDegrees>-4.07340050674974918365478515625</LongitudeDegrees>
            </Position>
            <AltitudeMeters>1237.4000244140625</AltitudeMeters>
            <DistanceMeters>NAN</DistanceMeters>
          </Trackpoint>
          <Trackpoint>
            <Time>2018-12-30T14:20:28.000Z</Time>
            <Position>
              <LatitudeDegrees>40.73581581003963947296142578125</LatitudeDegrees>
              <LongitudeDegrees>-4.07338374294340610504150390625</LongitudeDegrees>
            </Position>
            <AltitudeMeters>1237</AltitudeMeters>
            <DistanceMeters>NAN</DistanceMeters>
          </Trackpoint>
          <Trackpoint>
            <Time>2018-12-30T14:20:29.000Z</Time>
            <Position>
              <LatitudeDegrees>40.7358044944703578948974609375</LatitudeDegrees>
              <LongitudeDegrees>-4.07336479984223842620849609375</LongitudeDegrees>
            </Position>
            <AltitudeMeters>1236.5999755859375</AltitudeMeters>
            <DistanceMeters>NAN</DistanceMeters>
          </Trackpoint>
          <Trackpoint>
            <Time>2018-12-30T14:20:30.000Z</Time>
            <Position>
              <LatitudeDegrees>40.7357941009104251861572265625</LatitudeDegrees>
              <LongitudeDegrees>-4.07334367744624614715576171875</LongitudeDegrees>
            </Position>
            <AltitudeMeters>1236.199951171875</AltitudeMeters>
            <DistanceMeters>NAN</DistanceMeters>
          </Trackpoint>
          <Trackpoint>
            <Time>2018-12-30T14:20:31.000Z</Time>
            <Position>
              <LatitudeDegrees>40.735783539712429046630859375</LatitudeDegrees>
              <LongitudeDegrees>-4.073323309421539306640625</LongitudeDegrees>
            </Position>
            <AltitudeMeters>1235.800048828125</AltitudeMeters>
            <DistanceMeters>NAN</DistanceMeters>
          </Trackpoint>
          <Trackpoint>
            <Time>2018-12-30T14:20:32.000Z</Time>
            <Position>
              <LatitudeDegrees>40.735773481428623199462890625</LatitudeDegrees>
              <LongitudeDegrees>-4.07330394722521305084228515625</LongitudeDegrees>
            </Position>
            <AltitudeMeters>1235.5999755859375</AltitudeMeters>
            <DistanceMeters>NAN</DistanceMeters>
          </Trackpoint>
          <Trackpoint>
            <Time>2018-12-30T14:20:33.000Z</Time>
            <Position>
              <LatitudeDegrees>40.73576434515416622161865234375</LatitudeDegrees>
              <LongitudeDegrees>-4.073282741010189056396484375</LongitudeDegrees>
            </Position>
            <AltitudeMeters>1235.199951171875</AltitudeMeters>
            <DistanceMeters>NAN</DistanceMeters>
          </Trackpoint>
          <Trackpoint>
            <Time>2018-12-30T14:20:34.000Z</Time>
            <Position>
              <LatitudeDegrees>40.7357558794319629669189453125</LatitudeDegrees>
              <LongitudeDegrees>-4.0732648037374019622802734375</LongitudeDegrees>
            </Position>
            <AltitudeMeters>1235</AltitudeMeters>
            <DistanceMeters>NAN</DistanceMeters>
          </Trackpoint>
          <Trackpoint>
            <Time>2018-12-30T14:20:35.000Z</Time>
            <Position>
              <LatitudeDegrees>40.735748670995235443115234375</LatitudeDegrees>
              <LongitudeDegrees>-4.07324778847396373748779296875</LongitudeDegrees>
            </Position>
            <AltitudeMeters>1234.800048828125</AltitudeMeters>
            <DistanceMeters>NAN</DistanceMeters>
          </Trackpoint>
          <Trackpoint>
            <Time>2018-12-30T14:20:36.000Z</Time>
            <Position>
              <LatitudeDegrees>40.73574364185333251953125</LatitudeDegrees>
              <LongitudeDegrees>-4.073231779038906097412109375</LongitudeDegrees>
            </Position>
            <AltitudeMeters>1234.4000244140625</AltitudeMeters>
            <DistanceMeters>NAN</DistanceMeters>
          </Trackpoint>
          <Trackpoint>
            <Time>2018-12-30T14:20:37.000Z</Time>
            <Position>
              <LatitudeDegrees>40.73573819361627101898193359375</LatitudeDegrees>
              <LongitudeDegrees>-4.0732165239751338958740234375</LongitudeDegrees>
            </Position>
            <AltitudeMeters>1234.199951171875</AltitudeMeters>
            <DistanceMeters>NAN</DistanceMeters>
          </Trackpoint>
          <Trackpoint>
            <Time>2018-12-30T14:20:38.000Z</Time>
            <Position>
              <LatitudeDegrees>40.735734589397907257080078125</LatitudeDegrees>
              <LongitudeDegrees>-4.07319699414074420928955078125</LongitudeDegrees>
            </Position>
            <AltitudeMeters>1234</AltitudeMeters>
            <DistanceMeters>NAN</DistanceMeters>
          </Trackpoint>
          <Trackpoint>
            <Time>2018-12-30T14:20:39.000Z</Time>
            <Position>
              <LatitudeDegrees>40.73573601432144641876220703125</LatitudeDegrees>
              <LongitudeDegrees>-4.07316665165126323699951171875</LongitudeDegrees>
            </Position>
            <AltitudeMeters>1233.800048828125</AltitudeMeters>
            <DistanceMeters>NAN</DistanceMeters>
          </Trackpoint>
          <Trackpoint>
            <Time>2018-12-30T14:20:40.000Z</Time>
            <Position>
              <LatitudeDegrees>40.735737942159175872802734375</LatitudeDegrees>
              <LongitudeDegrees>-4.07314133830368518829345703125</LongitudeDegrees>
            </Position>
            <AltitudeMeters>1233.5999755859375</AltitudeMeters>
            <DistanceMeters>NAN</DistanceMeters>
          </Trackpoint>
          <Trackpoint>
            <Time>2018-12-30T14:20:41.000Z</Time>
            <Position>
              <LatitudeDegrees>40.73573769070208072662353515625</LatitudeDegrees>
              <LongitudeDegrees>-4.07311485148966312408447265625</LongitudeDegrees>
            </Position>
            <AltitudeMeters>1233.199951171875</AltitudeMeters>
            <DistanceMeters>NAN</DistanceMeters>
          </Trackpoint>
          <Trackpoint>
            <Time>2018-12-30T14:20:42.000Z</Time>
            <Position>
              <LatitudeDegrees>40.73573869653046131134033203125</LatitudeDegrees>
              <LongitudeDegrees>-4.07309087924659252166748046875</LongitudeDegrees>
            </Position>
            <AltitudeMeters>1232.800048828125</AltitudeMeters>
            <DistanceMeters>NAN</DistanceMeters>
          </Trackpoint>
          <Trackpoint>
            <Time>2018-12-30T14:20:43.000Z</Time>
            <Position>
              <LatitudeDegrees>40.735740959644317626953125</LatitudeDegrees>
              <LongitudeDegrees>-4.07307093031704425811767578125</LongitudeDegrees>
            </Position>
            <AltitudeMeters>1232.5999755859375</AltitudeMeters>
            <DistanceMeters>NAN</DistanceMeters>
          </Trackpoint>
          <Trackpoint>
            <Time>2018-12-30T14:20:44.000Z</Time>
            <Position>
              <LatitudeDegrees>40.73574389331042766571044921875</LatitudeDegrees>
              <LongitudeDegrees>-4.07305031083524227142333984375</LongitudeDegrees>
            </Position>
            <AltitudeMeters>1232.5999755859375</AltitudeMeters>
            <DistanceMeters>NAN</DistanceMeters>
          </Trackpoint>
          <Trackpoint>
            <Time>2018-12-30T14:20:45.000Z</Time>
            <Position>
              <LatitudeDegrees>40.73574925772845745086669921875</LatitudeDegrees>
              <LongitudeDegrees>-4.07302667386829853057861328125</LongitudeDegrees>
            </Position>
            <AltitudeMeters>1232.199951171875</AltitudeMeters>
            <DistanceMeters>NAN</DistanceMeters>
          </Trackpoint>
          <Trackpoint>
            <Time>2018-12-30T14:20:46.000Z</Time>
            <Position>
              <LatitudeDegrees>40.73575235903263092041015625</LatitudeDegrees>
              <LongitudeDegrees>-4.07300077378749847412109375</LongitudeDegrees>
            </Position>
            <AltitudeMeters>1232</AltitudeMeters>
            <DistanceMeters>NAN</DistanceMeters>
          </Trackpoint>
          <Trackpoint>
            <Time>2018-12-30T14:20:47.000Z</Time>
            <Position>
              <LatitudeDegrees>40.73575797490775585174560546875</LatitudeDegrees>
              <LongitudeDegrees>-4.072974957525730133056640625</LongitudeDegrees>
            </Position>
            <AltitudeMeters>1231.5999755859375</AltitudeMeters>
            <DistanceMeters>NAN</DistanceMeters>
          </Trackpoint>
          <Trackpoint>
            <Time>2018-12-30T14:20:48.000Z</Time>
            <Position>
              <LatitudeDegrees>40.73576451279222965240478515625</LatitudeDegrees>
              <LongitudeDegrees>-4.07294821925461292266845703125</LongitudeDegrees>
            </Position>
            <AltitudeMeters>1231.199951171875</AltitudeMeters>
            <DistanceMeters>NAN</DistanceMeters>
          </Trackpoint>
          <Trackpoint>
            <Time>2018-12-30T14:20:49.000Z</Time>
            <Position>
              <LatitudeDegrees>40.7357692904770374298095703125</LatitudeDegrees>
              <LongitudeDegrees>-4.07292005605995655059814453125</LongitudeDegrees>
            </Position>
            <AltitudeMeters>1231.199951171875</AltitudeMeters>
            <DistanceMeters>NAN</DistanceMeters>
          </Trackpoint>
          <Trackpoint>
            <Time>2018-12-30T14:20:50.000Z</Time>
            <Position>
              <LatitudeDegrees>40.7357800193130970001220703125</LatitudeDegrees>
              <LongitudeDegrees>-4.072893820703029632568359375</LongitudeDegrees>
            </Position>
            <AltitudeMeters>1231</AltitudeMeters>
            <DistanceMeters>NAN</DistanceMeters>
          </Trackpoint>
          <Trackpoint>
            <Time>2018-12-30T14:20:51.000Z</Time>
            <Position>
              <LatitudeDegrees>40.73578597046434879302978515625</LatitudeDegrees>
              <LongitudeDegrees>-4.0728659927845001220703125</LongitudeDegrees>
            </Position>
            <AltitudeMeters>1230.800048828125</AltitudeMeters>
            <DistanceMeters>NAN</DistanceMeters>
          </Trackpoint>
          <Trackpoint>
            <Time>2018-12-30T14:20:52.000Z</Time>
            <Position>
              <LatitudeDegrees>40.735798291862010955810546875</LatitudeDegrees>
              <LongitudeDegrees>-4.07284193672239780426025390625</LongitudeDegrees>
            </Position>
            <AltitudeMeters>1230.5999755859375</AltitudeMeters>
            <DistanceMeters>NAN</DistanceMeters>
          </Trackpoint>
          <Trackpoint>
            <Time>2018-12-30T14:20:53.000Z</Time>
            <Position>
              <LatitudeDegrees>40.73581002652645111083984375</LatitudeDegrees>
              <LongitudeDegrees>-4.0728185512125492095947265625</LongitudeDegrees>
            </Position>
            <AltitudeMeters>1230.4000244140625</AltitudeMeters>
            <DistanceMeters>NAN</DistanceMeters>
          </Trackpoint>
          <Trackpoint>
            <Time>2018-12-30T14:20:54.000Z</Time>
            <Position>
              <LatitudeDegrees>40.73581882752478122711181640625</LatitudeDegrees>
              <LongitudeDegrees>-4.0727927349507808685302734375</LongitudeDegrees>
            </Position>
            <AltitudeMeters>1230.4000244140625</AltitudeMeters>
            <DistanceMeters>NAN</DistanceMeters>
          </Trackpoint>
          <Trackpoint>
            <Time>2018-12-30T14:20:55.000Z</Time>
            <Position>
              <LatitudeDegrees>40.73582947254180908203125</LatitudeDegrees>
              <LongitudeDegrees>-4.07276951707899570465087890625</LongitudeDegrees>
            </Position>
            <AltitudeMeters>1230.199951171875</AltitudeMeters>
            <DistanceMeters>NAN</DistanceMeters>
          </Trackpoint>
          <Trackpoint>
            <Time>2018-12-30T14:20:56.000Z</Time>
            <Position>
              <LatitudeDegrees>40.7358400337398052215576171875</LatitudeDegrees>
              <LongitudeDegrees>-4.07274688594043254852294921875</LongitudeDegrees>
            </Position>
            <AltitudeMeters>1230</AltitudeMeters>
            <DistanceMeters>NAN</DistanceMeters>
          </Trackpoint>
          <Trackpoint>
            <Time>2018-12-30T14:20:57.000Z</Time>
            <Position>
              <LatitudeDegrees>40.73584799654781818389892578125</LatitudeDegrees>
              <LongitudeDegrees>-4.07272408716380596160888671875</LongitudeDegrees>
            </Position>
            <AltitudeMeters>1229.800048828125</AltitudeMeters>
            <DistanceMeters>NAN</DistanceMeters>
          </Trackpoint>
          <Trackpoint>
            <Time>2018-12-30T14:20:58.000Z</Time>
            <Position>
              <LatitudeDegrees>40.735852606594562530517578125</LatitudeDegrees>
              <LongitudeDegrees>-4.07269927673041820526123046875</LongitudeDegrees>
            </Position>
            <AltitudeMeters>1229.5999755859375</AltitudeMeters>
            <DistanceMeters>NAN</DistanceMeters>
          </Trackpoint>
          <Trackpoint>
            <Time>2018-12-30T14:20:59.000Z</Time>
            <Position>
              <LatitudeDegrees>40.735855288803577423095703125</LatitudeDegrees>
              <LongitudeDegrees>-4.07267496921122074127197265625</LongitudeDegrees>
            </Position>
            <AltitudeMeters>1229.4000244140625</AltitudeMeters>
            <DistanceMeters>NAN</DistanceMeters>
          </Trackpoint>
          <Trackpoint>
            <Time>2018-12-30T14:21:00.000Z</Time>
            <Position>
              <LatitudeDegrees>40.73585428297519683837890625</LatitudeDegrees>
              <LongitudeDegrees>-4.072651080787181854248046875</LongitudeDegrees>
            </Position>
            <AltitudeMeters>1229.199951171875</AltitudeMeters>
            <DistanceMeters>NAN</DistanceMeters>
          </Trackpoint>
          <Trackpoint>
            <Time>2018-12-30T14:21:01.000Z</Time>
            <Position>
              <LatitudeDegrees>40.7358500920236110687255859375</LatitudeDegrees>
              <LongitudeDegrees>-4.07262886874377727508544921875</LongitudeDegrees>
            </Position>
            <AltitudeMeters>1228.800048828125</AltitudeMeters>
            <DistanceMeters>NAN</DistanceMeters>
          </Trackpoint>
          <Trackpoint>
            <Time>2018-12-30T14:21:02.000Z</Time>
            <Position>
              <LatitudeDegrees>40.73584145866334438323974609375</LatitudeDegrees>
              <LongitudeDegrees>-4.07260791398584842681884765625</LongitudeDegrees>
            </Position>
            <AltitudeMeters>1228.5999755859375</AltitudeMeters>
            <DistanceMeters>NAN</DistanceMeters>
          </Trackpoint>
          <Trackpoint>
            <Time>2018-12-30T14:21:03.000Z</Time>
            <Position>
              <LatitudeDegrees>40.73582134209573268890380859375</LatitudeDegrees>
              <LongitudeDegrees>-4.0725895576179027557373046875</LongitudeDegrees>
            </Position>
            <AltitudeMeters>1228.4000244140625</AltitudeMeters>
            <DistanceMeters>NAN</DistanceMeters>
          </Trackpoint>
          <Trackpoint>
            <Time>2018-12-30T14:21:04.000Z</Time>
            <Position>
              <LatitudeDegrees>40.7358034886419773101806640625</LatitudeDegrees>
              <LongitudeDegrees>-4.07257497310638427734375</LongitudeDegrees>
            </Position>
            <AltitudeMeters>1228.199951171875</AltitudeMeters>
            <DistanceMeters>NAN</DistanceMeters>
          </Trackpoint>
          <Trackpoint>
            <Time>2018-12-30T14:21:05.000Z</Time>
            <Position>
              <LatitudeDegrees>40.7357877306640148162841796875</LatitudeDegrees>
              <LongitudeDegrees>-4.07256550155580043792724609375</LongitudeDegrees>
            </Position>
            <AltitudeMeters>1228</AltitudeMeters>
            <DistanceMeters>NAN</DistanceMeters>
          </Trackpoint>
          <Trackpoint>
            <Time>2018-12-30T14:21:06.000Z</Time>
            <Position>
              <LatitudeDegrees>40.735772140324115753173828125</LatitudeDegrees>
              <LongitudeDegrees>-4.0725629031658172607421875</LongitudeDegrees>
            </Position>
            <AltitudeMeters>1227.5999755859375</AltitudeMeters>
            <DistanceMeters>NAN</DistanceMeters>
          </Trackpoint>
          <Trackpoint>
            <Time>2018-12-30T14:21:07.000Z</Time>
            <Position>
              <LatitudeDegrees>40.7357555441558361053466796875</LatitudeDegrees>
              <LongitudeDegrees>-4.07255946658551692962646484375</LongitudeDegrees>
            </Position>
            <AltitudeMeters>1227.199951171875</AltitudeMeters>
            <DistanceMeters>NAN</DistanceMeters>
          </Trackpoint>
          <Trackpoint>
            <Time>2018-12-30T14:21:08.000Z</Time>
            <Position>
              <LatitudeDegrees>40.73574020527303218841552734375</LatitudeDegrees>
              <LongitudeDegrees>-4.072554521262645721435546875</LongitudeDegrees>
            </Position>
            <AltitudeMeters>1226.800048828125</AltitudeMeters>
            <DistanceMeters>NAN</DistanceMeters>
          </Trackpoint>
          <Trackpoint>
            <Time>2018-12-30T14:21:09.000Z</Time>
            <Position>
              <LatitudeDegrees>40.7357233576476573944091796875</LatitudeDegrees>
              <LongitudeDegrees>-4.072545133531093597412109375</LongitudeDegrees>
            </Position>
            <AltitudeMeters>1226.4000244140625</AltitudeMeters>
            <DistanceMeters>NAN</DistanceMeters>
          </Trackpoint>
          <Trackpoint>
            <Time>2018-12-30T14:21:10.000Z</Time>
            <Position>
              <LatitudeDegrees>40.7357082702219486236572265625</LatitudeDegrees>
              <LongitudeDegrees>-4.072537086904048919677734375</LongitudeDegrees>
            </Position>
            <AltitudeMeters>1226</AltitudeMeters>
            <DistanceMeters>NAN</DistanceMeters>
          </Trackpoint>
          <Trackpoint>
            <Time>2018-12-30T14:21:11.000Z</Time>
            <Position>
              <LatitudeDegrees>40.73569192551076412200927734375</LatitudeDegrees>
              <LongitudeDegrees>-4.07252744771540164947509765625</LongitudeDegrees>
            </Position>
            <AltitudeMeters>1225.4000244140625</AltitudeMeters>
            <DistanceMeters>NAN</DistanceMeters>
          </Trackpoint>
          <Trackpoint>
            <Time>2018-12-30T14:21:12.000Z</Time>
            <Position>
              <LatitudeDegrees>40.73567667044699192047119140625</LatitudeDegrees>
              <LongitudeDegrees>-4.07251261174678802490234375</LongitudeDegrees>
            </Position>
            <AltitudeMeters>1225.4000244140625</AltitudeMeters>
            <DistanceMeters>NAN</DistanceMeters>
          </Trackpoint>
          <Trackpoint>
            <Time>2018-12-30T14:21:13.000Z</Time>
            <Position>
              <LatitudeDegrees>40.735660828649997711181640625</LatitudeDegrees>
              <LongitudeDegrees>-4.072500206530094146728515625</LongitudeDegrees>
            </Position>
            <AltitudeMeters>1225</AltitudeMeters>
            <DistanceMeters>NAN</DistanceMeters>
          </Trackpoint>
          <Trackpoint>
            <Time>2018-12-30T14:21:14.000Z</Time>
            <Position>
              <LatitudeDegrees>40.73564507067203521728515625</LatitudeDegrees>
              <LongitudeDegrees>-4.07249056734144687652587890625</LongitudeDegrees>
            </Position>
            <AltitudeMeters>1224.800048828125</AltitudeMeters>
            <DistanceMeters>NAN</DistanceMeters>
          </Trackpoint>
          <Trackpoint>
            <Time>2018-12-30T14:21:15.000Z</Time>
            <Position>
              <LatitudeDegrees>40.73562956415116786956787109375</LatitudeDegrees>
              <LongitudeDegrees>-4.0724819339811801910400390625</LongitudeDegrees>
            </Position>
            <AltitudeMeters>1224.4000244140625</AltitudeMeters>
            <DistanceMeters>NAN</DistanceMeters>
          </Trackpoint>
          <Trackpoint>
            <Time>2018-12-30T14:21:16.000Z</Time>
            <Position>
              <LatitudeDegrees>40.73561263270676136016845703125</LatitudeDegrees>
              <LongitudeDegrees>-4.0724748931825160980224609375</LongitudeDegrees>
            </Position>
            <AltitudeMeters>1224.199951171875</AltitudeMeters>
            <DistanceMeters>NAN</DistanceMeters>
          </Trackpoint>
          <Trackpoint>
            <Time>2018-12-30T14:21:17.000Z</Time>
            <Position>
              <LatitudeDegrees>40.7355974614620208740234375</LatitudeDegrees>
              <LongitudeDegrees>-4.0724690258502960205078125</LongitudeDegrees>
            </Position>
            <AltitudeMeters>1224</AltitudeMeters>
            <DistanceMeters>NAN</DistanceMeters>
          </Trackpoint>
          <Trackpoint>
            <Time>2018-12-30T14:21:18.000Z</Time>
            <Position>
              <LatitudeDegrees>40.7355812005698680877685546875</LatitudeDegrees>
              <LongitudeDegrees>-4.0724688582122325897216796875</LongitudeDegrees>
            </Position>
            <AltitudeMeters>1223.800048828125</AltitudeMeters>
            <DistanceMeters>NAN</DistanceMeters>
          </Trackpoint>
          <Trackpoint>
            <Time>2018-12-30T14:21:19.000Z</Time>
            <Position>
              <LatitudeDegrees>40.7355625927448272705078125</LatitudeDegrees>
              <LongitudeDegrees>-4.072472713887691497802734375</LongitudeDegrees>
            </Position>
            <AltitudeMeters>1223.5999755859375</AltitudeMeters>
            <DistanceMeters>NAN</DistanceMeters>
          </Trackpoint>
          <Trackpoint>
            <Time>2018-12-30T14:21:20.000Z</Time>
            <Position>
              <LatitudeDegrees>40.73554985225200653076171875</LatitudeDegrees>
              <LongitudeDegrees>-4.0724681876599788665771484375</LongitudeDegrees>
            </Position>
            <AltitudeMeters>1223.4000244140625</AltitudeMeters>
            <DistanceMeters>NAN</DistanceMeters>
          </Trackpoint>
          <Trackpoint>
            <Time>2018-12-30T14:21:21.000Z</Time>
            <Position>
              <LatitudeDegrees>40.73554289527237415313720703125</LatitudeDegrees>
              <LongitudeDegrees>-4.07245972193777561187744140625</LongitudeDegrees>
            </Position>
            <AltitudeMeters>1223</AltitudeMeters>
            <DistanceMeters>NAN</DistanceMeters>
          </Trackpoint>
          <Trackpoint>
            <Time>2018-12-30T14:21:22.000Z</Time>
            <Position>
              <LatitudeDegrees>40.73553199879825115203857421875</LatitudeDegrees>
              <LongitudeDegrees>-4.07245318405330181121826171875</LongitudeDegrees>
            </Position>
            <AltitudeMeters>1223</AltitudeMeters>
            <DistanceMeters>NAN</DistanceMeters>
          </Trackpoint>
          <Trackpoint>
            <Time>2018-12-30T14:21:23.000Z</Time>
            <Position>
              <LatitudeDegrees>40.7355268858373165130615234375</LatitudeDegrees>
              <LongitudeDegrees>-4.07243507914245128631591796875</LongitudeDegrees>
            </Position>
            <AltitudeMeters>1222.800048828125</AltitudeMeters>
            <DistanceMeters>NAN</DistanceMeters>
          </Trackpoint>
          <Trackpoint>
            <Time>2018-12-30T14:21:24.000Z</Time>
            <Position>
              <LatitudeDegrees>40.73552378453314304351806640625</LatitudeDegrees>
              <LongitudeDegrees>-4.07241697423160076141357421875</LongitudeDegrees>
            </Position>
            <AltitudeMeters>1222.5999755859375</AltitudeMeters>
            <DistanceMeters>NAN</DistanceMeters>
          </Trackpoint>
          <Trackpoint>
            <Time>2018-12-30T14:21:25.000Z</Time>
            <Position>
              <LatitudeDegrees>40.7355215214192867279052734375</LatitudeDegrees>
              <LongitudeDegrees>-4.0723939239978790283203125</LongitudeDegrees>
            </Position>
            <AltitudeMeters>1222.4000244140625</AltitudeMeters>
            <DistanceMeters>NAN</DistanceMeters>
          </Trackpoint>
          <Trackpoint>
            <Time>2018-12-30T14:21:26.000Z</Time>
            <Position>
              <LatitudeDegrees>40.7355215214192867279052734375</LatitudeDegrees>
              <LongitudeDegrees>-4.07237447798252105712890625</LongitudeDegrees>
            </Position>
            <AltitudeMeters>1222.199951171875</AltitudeMeters>
            <DistanceMeters>NAN</DistanceMeters>
          </Trackpoint>
          <Trackpoint>
            <Time>2018-12-30T14:21:27.000Z</Time>
            <Position>
              <LatitudeDegrees>40.7355196774005889892578125</LatitudeDegrees>
              <LongitudeDegrees>-4.07235612161457538604736328125</LongitudeDegrees>
            </Position>
            <AltitudeMeters>1222</AltitudeMeters>
            <DistanceMeters>NAN</DistanceMeters>
          </Trackpoint>
          <Trackpoint>
            <Time>2018-12-30T14:21:28.000Z</Time>
            <Position>
              <LatitudeDegrees>40.73551791720092296600341796875</LatitudeDegrees>
              <LongitudeDegrees>-4.07233424484729766845703125</LongitudeDegrees>
            </Position>
            <AltitudeMeters>1222</AltitudeMeters>
            <DistanceMeters>NAN</DistanceMeters>
          </Trackpoint>
          <Trackpoint>
            <Time>2018-12-30T14:21:29.000Z</Time>
            <Position>
              <LatitudeDegrees>40.7355134747922420501708984375</LatitudeDegrees>
              <LongitudeDegrees>-4.07231035642325878143310546875</LongitudeDegrees>
            </Position>
            <AltitudeMeters>1221.800048828125</AltitudeMeters>
            <DistanceMeters>NAN</DistanceMeters>
          </Trackpoint>
          <Trackpoint>
            <Time>2018-12-30T14:21:30.000Z</Time>
            <Position>
              <LatitudeDegrees>40.73551037348806858062744140625</LatitudeDegrees>
              <LongitudeDegrees>-4.07228403724730014801025390625</LongitudeDegrees>
            </Position>
            <AltitudeMeters>1221.4000244140625</AltitudeMeters>
            <DistanceMeters>NAN</DistanceMeters>
          </Trackpoint>
          <Trackpoint>
            <Time>2018-12-30T14:21:31.000Z</Time>
            <Position>
              <LatitudeDegrees>40.73550760746002197265625</LatitudeDegrees>
              <LongitudeDegrees>-4.07226182520389556884765625</LongitudeDegrees>
            </Position>
            <AltitudeMeters>1221</AltitudeMeters>
            <DistanceMeters>NAN</DistanceMeters>
          </Trackpoint>
          <Trackpoint>
            <Time>2018-12-30T14:21:32.000Z</Time>
            <Position>
              <LatitudeDegrees>40.73550718836486339569091796875</LatitudeDegrees>
              <LongitudeDegrees>-4.072238691151142120361328125</LongitudeDegrees>
            </Position>
            <AltitudeMeters>1220.800048828125</AltitudeMeters>
            <DistanceMeters>NAN</DistanceMeters>
          </Trackpoint>
          <Trackpoint>
            <Time>2018-12-30T14:21:33.000Z</Time>
            <Position>
              <LatitudeDegrees>40.73550752364099025726318359375</LatitudeDegrees>
              <LongitudeDegrees>-4.072213210165500640869140625</LongitudeDegrees>
            </Position>
            <AltitudeMeters>1220.5999755859375</AltitudeMeters>
            <DistanceMeters>NAN</DistanceMeters>
          </Trackpoint>
          <Trackpoint>
            <Time>2018-12-30T14:21:34.000Z</Time>
            <Position>
              <LatitudeDegrees>40.73551230132579803466796875</LatitudeDegrees>
              <LongitudeDegrees>-4.07219351269304752349853515625</LongitudeDegrees>
            </Position>
            <AltitudeMeters>1220.4000244140625</AltitudeMeters>
            <DistanceMeters>NAN</DistanceMeters>
          </Trackpoint>
          <Trackpoint>
            <Time>2018-12-30T14:21:35.000Z</Time>
            <Position>
              <LatitudeDegrees>40.7355151511728763580322265625</LatitudeDegrees>
              <LongitudeDegrees>-4.07217465341091156005859375</LongitudeDegrees>
            </Position>
            <AltitudeMeters>1220.199951171875</AltitudeMeters>
            <DistanceMeters>NAN</DistanceMeters>
          </Trackpoint>
          <Trackpoint>
            <Time>2018-12-30T14:21:36.000Z</Time>
            <Position>
              <LatitudeDegrees>40.73551557026803493499755859375</LatitudeDegrees>
              <LongitudeDegrees>-4.0721590630710124969482421875</LongitudeDegrees>
            </Position>
            <AltitudeMeters>1220.199951171875</AltitudeMeters>
            <DistanceMeters>NAN</DistanceMeters>
          </Trackpoint>
          <Trackpoint>
            <Time>2018-12-30T14:21:37.000Z</Time>
            <Position>
              <LatitudeDegrees>40.73551221750676631927490234375</LatitudeDegrees>
              <LongitudeDegrees>-4.07214649021625518798828125</LongitudeDegrees>
            </Position>
            <AltitudeMeters>1220.199951171875</AltitudeMeters>
            <DistanceMeters>NAN</DistanceMeters>
          </Trackpoint>
          <Trackpoint>
            <Time>2018-12-30T14:21:38.000Z</Time>
            <Position>
              <LatitudeDegrees>40.735506601631641387939453125</LatitudeDegrees>
              <LongitudeDegrees>-4.07213844358921051025390625</LongitudeDegrees>
            </Position>
            <AltitudeMeters>1220.199951171875</AltitudeMeters>
            <DistanceMeters>NAN</DistanceMeters>
          </Trackpoint>
          <Trackpoint>
            <Time>2018-12-30T14:21:39.000Z</Time>
            <Position>
              <LatitudeDegrees>40.7355037517845630645751953125</LatitudeDegrees>
              <LongitudeDegrees>-4.0721369348466396331787109375</LongitudeDegrees>
            </Position>
            <AltitudeMeters>1220</AltitudeMeters>
            <DistanceMeters>NAN</DistanceMeters>
          </Trackpoint>
          <Trackpoint>
            <Time>2018-12-30T14:21:40.000Z</Time>
            <Position>
              <LatitudeDegrees>40.73550350032746791839599609375</LatitudeDegrees>
              <LongitudeDegrees>-4.0721379406750202178955078125</LongitudeDegrees>
            </Position>
            <AltitudeMeters>1220</AltitudeMeters>
            <DistanceMeters>NAN</DistanceMeters>
          </Trackpoint>
          <Trackpoint>
            <Time>2018-12-30T14:21:41.000Z</Time>
            <Position>
              <LatitudeDegrees>40.73549729771912097930908203125</LatitudeDegrees>
              <LongitudeDegrees>-4.07213953323662281036376953125</LongitudeDegrees>
            </Position>
            <AltitudeMeters>1220.199951171875</AltitudeMeters>
            <DistanceMeters>NAN</DistanceMeters>
          </Trackpoint>
          <Trackpoint>
            <Time>2018-12-30T14:21:42.000Z</Time>
            <Position>
              <LatitudeDegrees>40.73549360968172550201416015625</LatitudeDegrees>
              <LongitudeDegrees>-4.07214070670306682586669921875</LongitudeDegrees>
            </Position>
            <AltitudeMeters>1220.199951171875</AltitudeMeters>
            <DistanceMeters>NAN</DistanceMeters>
          </Trackpoint>
          <Trackpoint>
            <Time>2018-12-30T14:21:43.000Z</Time>
            <Position>
              <LatitudeDegrees>40.73548958636820316314697265625</LatitudeDegrees>
              <LongitudeDegrees>-4.07213634811341762542724609375</LongitudeDegrees>
            </Position>
            <AltitudeMeters>1220.4000244140625</AltitudeMeters>
            <DistanceMeters>NAN</DistanceMeters>
          </Trackpoint>
          <Trackpoint>
            <Time>2018-12-30T14:21:44.000Z</Time>
            <Position>
              <LatitudeDegrees>40.73548640124499797821044921875</LatitudeDegrees>
              <LongitudeDegrees>-4.07212226651608943939208984375</LongitudeDegrees>
            </Position>
            <AltitudeMeters>1220.5999755859375</AltitudeMeters>
            <DistanceMeters>NAN</DistanceMeters>
          </Trackpoint>
          <Trackpoint>
            <Time>2018-12-30T14:21:45.000Z</Time>
            <Position>
              <LatitudeDegrees>40.73548547923564910888671875</LatitudeDegrees>
              <LongitudeDegrees>-4.07210852019488811492919921875</LongitudeDegrees>
            </Position>
            <AltitudeMeters>1220.800048828125</AltitudeMeters>
            <DistanceMeters>NAN</DistanceMeters>
          </Trackpoint>
          <Trackpoint>
            <Time>2018-12-30T14:21:46.000Z</Time>
            <Position>
              <LatitudeDegrees>40.7354920171201229095458984375</LatitudeDegrees>
              <LongitudeDegrees>-4.0720896609127521514892578125</LongitudeDegrees>
            </Position>
            <AltitudeMeters>1220.800048828125</AltitudeMeters>
            <DistanceMeters>NAN</DistanceMeters>
          </Trackpoint>
          <Trackpoint>
            <Time>2018-12-30T14:21:47.000Z</Time>
            <Position>
              <LatitudeDegrees>40.735501907765865325927734375</LatitudeDegrees>
              <LongitudeDegrees>-4.07206845469772815704345703125</LongitudeDegrees>
            </Position>
            <AltitudeMeters>1220.5999755859375</AltitudeMeters>
            <DistanceMeters>NAN</DistanceMeters>
          </Trackpoint>
          <Trackpoint>
            <Time>2018-12-30T14:21:48.000Z</Time>
            <Position>
              <LatitudeDegrees>40.73551389388740062713623046875</LatitudeDegrees>
              <LongitudeDegrees>-4.07204800285398960113525390625</LongitudeDegrees>
            </Position>
            <AltitudeMeters>1220.5999755859375</AltitudeMeters>
            <DistanceMeters>NAN</DistanceMeters>
          </Trackpoint>
          <Trackpoint>
            <Time>2018-12-30T14:21:49.000Z</Time>
            <Position>
              <LatitudeDegrees>40.73552344925701618194580078125</LatitudeDegrees>
              <LongitudeDegrees>-4.07202503643929958343505859375</LongitudeDegrees>
            </Position>
            <AltitudeMeters>1220.199951171875</AltitudeMeters>
            <DistanceMeters>NAN</DistanceMeters>
          </Trackpoint>
          <Trackpoint>
            <Time>2018-12-30T14:21:50.000Z</Time>
            <Position>
              <LatitudeDegrees>40.73553032241761684417724609375</LatitudeDegrees>
              <LongitudeDegrees>-4.07200039364397525787353515625</LongitudeDegrees>
            </Position>
            <AltitudeMeters>1219.800048828125</AltitudeMeters>
            <DistanceMeters>NAN</DistanceMeters>
          </Trackpoint>
          <Trackpoint>
            <Time>2018-12-30T14:21:51.000Z</Time>
            <Position>
              <LatitudeDegrees>40.73553484864532947540283203125</LatitudeDegrees>
              <LongitudeDegrees>-4.07198421657085418701171875</LongitudeDegrees>
            </Position>
            <AltitudeMeters>1219.4000244140625</AltitudeMeters>
            <DistanceMeters>NAN</DistanceMeters>
          </Trackpoint>
          <Trackpoint>
            <Time>2018-12-30T14:21:52.000Z</Time>
            <Position>
              <LatitudeDegrees>40.7355392910540103912353515625</LatitudeDegrees>
              <LongitudeDegrees>-4.0719703026115894317626953125</LongitudeDegrees>
            </Position>
            <AltitudeMeters>1219</AltitudeMeters>
            <DistanceMeters>NAN</DistanceMeters>
          </Trackpoint>
          <Trackpoint>
            <Time>2018-12-30T14:21:53.000Z</Time>
            <Position>
              <LatitudeDegrees>40.73553979396820068359375</LatitudeDegrees>
              <LongitudeDegrees>-4.07195446081459522247314453125</LongitudeDegrees>
            </Position>
            <AltitudeMeters>1218.800048828125</AltitudeMeters>
            <DistanceMeters>NAN</DistanceMeters>
          </Trackpoint>
          <Trackpoint>
            <Time>2018-12-30T14:21:54.000Z</Time>
            <Position>
              <LatitudeDegrees>40.7355453260242938995361328125</LatitudeDegrees>
              <LongitudeDegrees>-4.07193635590374469757080078125</LongitudeDegrees>
            </Position>
            <AltitudeMeters>1218.800048828125</AltitudeMeters>
            <DistanceMeters>NAN</DistanceMeters>
          </Trackpoint>
          <Trackpoint>
            <Time>2018-12-30T14:21:55.000Z</Time>
            <Position>
              <LatitudeDegrees>40.73554809205234050750732421875</LatitudeDegrees>
              <LongitudeDegrees>-4.07191255129873752593994140625</LongitudeDegrees>
            </Position>
            <AltitudeMeters>1218.5999755859375</AltitudeMeters>
            <DistanceMeters>NAN</DistanceMeters>
          </Trackpoint>
          <Trackpoint>
            <Time>2018-12-30T14:21:56.000Z</Time>
            <Position>
              <LatitudeDegrees>40.73555295355618000030517578125</LatitudeDegrees>
              <LongitudeDegrees>-4.07189059071242809295654296875</LongitudeDegrees>
            </Position>
            <AltitudeMeters>1218.5999755859375</AltitudeMeters>
            <DistanceMeters>NAN</DistanceMeters>
          </Trackpoint>
          <Trackpoint>
            <Time>2018-12-30T14:21:57.000Z</Time>
            <Position>
              <LatitudeDegrees>40.73555798269808292388916015625</LatitudeDegrees>
              <LongitudeDegrees>-4.0718677081167697906494140625</LongitudeDegrees>
            </Position>
            <AltitudeMeters>1218.5999755859375</AltitudeMeters>
            <DistanceMeters>NAN</DistanceMeters>
          </Trackpoint>
          <Trackpoint>
            <Time>2018-12-30T14:21:58.000Z</Time>
            <Position>
              <LatitudeDegrees>40.73556133545935153961181640625</LatitudeDegrees>
              <LongitudeDegrees>-4.07184063456952571868896484375</LongitudeDegrees>
            </Position>
            <AltitudeMeters>1218.4000244140625</AltitudeMeters>
            <DistanceMeters>NAN</DistanceMeters>
          </Trackpoint>
          <Trackpoint>
            <Time>2018-12-30T14:21:59.000Z</Time>
            <Position>
              <LatitudeDegrees>40.73556552641093730926513671875</LatitudeDegrees>
              <LongitudeDegrees>-4.07181414775550365447998046875</LongitudeDegrees>
            </Position>
            <AltitudeMeters>1218.4000244140625</AltitudeMeters>
            <DistanceMeters>NAN</DistanceMeters>
          </Trackpoint>
          <Trackpoint>
            <Time>2018-12-30T14:22:00.000Z</Time>
            <Position>
              <LatitudeDegrees>40.735574327409267425537109375</LatitudeDegrees>
              <LongitudeDegrees>-4.07178975641727447509765625</LongitudeDegrees>
            </Position>
            <AltitudeMeters>1218.4000244140625</AltitudeMeters>
            <DistanceMeters>NAN</DistanceMeters>
          </Trackpoint>
          <Trackpoint>
            <Time>2018-12-30T14:22:01.000Z</Time>
            <Position>
              <LatitudeDegrees>40.7355822063982486724853515625</LatitudeDegrees>
              <LongitudeDegrees>-4.07176452688872814178466796875</LongitudeDegrees>
            </Position>
            <AltitudeMeters>1218.4000244140625</AltitudeMeters>
            <DistanceMeters>NAN</DistanceMeters>
          </Trackpoint>
          <Trackpoint>
            <Time>2018-12-30T14:22:02.000Z</Time>
            <Position>
              <LatitudeDegrees>40.7355912588536739349365234375</LatitudeDegrees>
              <LongitudeDegrees>-4.07174072228372097015380859375</LongitudeDegrees>
            </Position>
            <AltitudeMeters>1218.4000244140625</AltitudeMeters>
            <DistanceMeters>NAN</DistanceMeters>
          </Trackpoint>
          <Trackpoint>
            <Time>2018-12-30T14:22:03.000Z</Time>
            <Position>
              <LatitudeDegrees>40.735600478947162628173828125</LatitudeDegrees>
              <LongitudeDegrees>-4.07171624712646007537841796875</LongitudeDegrees>
            </Position>
            <AltitudeMeters>1218.199951171875</AltitudeMeters>
            <DistanceMeters>NAN</DistanceMeters>
          </Trackpoint>
          <Trackpoint>
            <Time>2018-12-30T14:22:04.000Z</Time>
            <Position>
              <LatitudeDegrees>40.7356135547161102294921875</LatitudeDegrees>
              <LongitudeDegrees>-4.07169344834983348846435546875</LongitudeDegrees>
            </Position>
            <AltitudeMeters>1218.199951171875</AltitudeMeters>
            <DistanceMeters>NAN</DistanceMeters>
          </Trackpoint>
          <Trackpoint>
            <Time>2018-12-30T14:22:05.000Z</Time>
            <Position>
              <LatitudeDegrees>40.7356237806379795074462890625</LatitudeDegrees>
              <LongitudeDegrees>-4.07166930846869945526123046875</LongitudeDegrees>
            </Position>
            <AltitudeMeters>1218.199951171875</AltitudeMeters>
            <DistanceMeters>NAN</DistanceMeters>
          </Trackpoint>
          <Trackpoint>
            <Time>2018-12-30T14:22:06.000Z</Time>
            <Position>
              <LatitudeDegrees>40.73563660494983196258544921875</LatitudeDegrees>
              <LongitudeDegrees>-4.07164625823497772216796875</LongitudeDegrees>
            </Position>
            <AltitudeMeters>1218</AltitudeMeters>
            <DistanceMeters>NAN</DistanceMeters>
          </Trackpoint>
          <Trackpoint>
            <Time>2018-12-30T14:22:07.000Z</Time>
            <Position>
              <LatitudeDegrees>40.7356452383100986480712890625</LatitudeDegrees>
              <LongitudeDegrees>-4.07162035815417766571044921875</LongitudeDegrees>
            </Position>
            <AltitudeMeters>1217.800048828125</AltitudeMeters>
            <DistanceMeters>NAN</DistanceMeters>
          </Trackpoint>
          <Trackpoint>
            <Time>2018-12-30T14:22:08.000Z</Time>
            <Position>
              <LatitudeDegrees>40.73565554805099964141845703125</LatitudeDegrees>
              <LongitudeDegrees>-4.07159755937755107879638671875</LongitudeDegrees>
            </Position>
            <AltitudeMeters>1217.5999755859375</AltitudeMeters>
            <DistanceMeters>NAN</DistanceMeters>
          </Trackpoint>
          <Trackpoint>
            <Time>2018-12-30T14:22:09.000Z</Time>
            <Position>
              <LatitudeDegrees>40.73566677980124950408935546875</LatitudeDegrees>
              <LongitudeDegrees>-4.0715743415057659149169921875</LongitudeDegrees>
            </Position>
            <AltitudeMeters>1217.4000244140625</AltitudeMeters>
            <DistanceMeters>NAN</DistanceMeters>
          </Trackpoint>
          <Trackpoint>
            <Time>2018-12-30T14:22:10.000Z</Time>
            <Position>
              <LatitudeDegrees>40.7356770895421504974365234375</LatitudeDegrees>
              <LongitudeDegrees>-4.0715517103672027587890625</LongitudeDegrees>
            </Position>
            <AltitudeMeters>1217.4000244140625</AltitudeMeters>
            <DistanceMeters>NAN</DistanceMeters>
          </Trackpoint>
          <Trackpoint>
            <Time>2018-12-30T14:22:11.000Z</Time>
            <Position>
              <LatitudeDegrees>40.7356888242065906524658203125</LatitudeDegrees>
              <LongitudeDegrees>-4.0715297497808933258056640625</LongitudeDegrees>
            </Position>
            <AltitudeMeters>1217.199951171875</AltitudeMeters>
            <DistanceMeters>NAN</DistanceMeters>
          </Trackpoint>
          <Trackpoint>
            <Time>2018-12-30T14:22:12.000Z</Time>
            <Position>
              <LatitudeDegrees>40.73570005595684051513671875</LatitudeDegrees>
              <LongitudeDegrees>-4.07150686718523502349853515625</LongitudeDegrees>
            </Position>
            <AltitudeMeters>1217.199951171875</AltitudeMeters>
            <DistanceMeters>NAN</DistanceMeters>
          </Trackpoint>
          <Trackpoint>
            <Time>2018-12-30T14:22:13.000Z</Time>
            <Position>
              <LatitudeDegrees>40.7357129640877246856689453125</LatitudeDegrees>
              <LongitudeDegrees>-4.0714864991605281829833984375</LongitudeDegrees>
            </Position>
            <AltitudeMeters>1217.199951171875</AltitudeMeters>
            <DistanceMeters>NAN</DistanceMeters>
          </Trackpoint>
          <Trackpoint>
            <Time>2018-12-30T14:22:14.000Z</Time>
            <Position>
              <LatitudeDegrees>40.73572285473346710205078125</LatitudeDegrees>
              <LongitudeDegrees>-4.071467220783233642578125</LongitudeDegrees>
            </Position>
            <AltitudeMeters>1217.199951171875</AltitudeMeters>
            <DistanceMeters>NAN</DistanceMeters>
          </Trackpoint>
          <Trackpoint>
            <Time>2018-12-30T14:22:15.000Z</Time>
            <Position>
              <LatitudeDegrees>40.73573299683630466461181640625</LatitudeDegrees>
              <LongitudeDegrees>-4.07144819386303424835205078125</LongitudeDegrees>
            </Position>
            <AltitudeMeters>1217.199951171875</AltitudeMeters>
            <DistanceMeters>NAN</DistanceMeters>
          </Trackpoint>
          <Trackpoint>
            <Time>2018-12-30T14:22:16.000Z</Time>
            <Position>
              <LatitudeDegrees>40.73574439622461795806884765625</LatitudeDegrees>
              <LongitudeDegrees>-4.07142941839993000030517578125</LongitudeDegrees>
            </Position>
            <AltitudeMeters>1217.199951171875</AltitudeMeters>
            <DistanceMeters>NAN</DistanceMeters>
          </Trackpoint>
          <Trackpoint>
            <Time>2018-12-30T14:22:17.000Z</Time>
            <Position>
              <LatitudeDegrees>40.7357538677752017974853515625</LatitudeDegrees>
              <LongitudeDegrees>-4.071409888565540313720703125</LongitudeDegrees>
            </Position>
            <AltitudeMeters>1217.199951171875</AltitudeMeters>
            <DistanceMeters>NAN</DistanceMeters>
          </Trackpoint>
          <Trackpoint>
            <Time>2018-12-30T14:22:18.000Z</Time>
            <Position>
              <LatitudeDegrees>40.7357625849545001983642578125</LatitudeDegrees>
              <LongitudeDegrees>-4.07138935290277004241943359375</LongitudeDegrees>
            </Position>
            <AltitudeMeters>1217.199951171875</AltitudeMeters>
            <DistanceMeters>NAN</DistanceMeters>
          </Trackpoint>
          <Trackpoint>
            <Time>2018-12-30T14:22:19.000Z</Time>
            <Position>
              <LatitudeDegrees>40.7357743196189403533935546875</LatitudeDegrees>
              <LongitudeDegrees>-4.07136823050677776336669921875</LongitudeDegrees>
            </Position>
            <AltitudeMeters>1217</AltitudeMeters>
            <DistanceMeters>NAN</DistanceMeters>
          </Trackpoint>
          <Trackpoint>
            <Time>2018-12-30T14:22:20.000Z</Time>
            <Position>
              <LatitudeDegrees>40.7357863895595073699951171875</LatitudeDegrees>
              <LongitudeDegrees>-4.07134853303432464599609375</LongitudeDegrees>
            </Position>
            <AltitudeMeters>1217</AltitudeMeters>
            <DistanceMeters>NAN</DistanceMeters>
          </Trackpoint>
          <Trackpoint>
            <Time>2018-12-30T14:22:21.000Z</Time>
            <Position>
              <LatitudeDegrees>40.7357974536716938018798828125</LatitudeDegrees>
              <LongitudeDegrees>-4.0713292546570301055908203125</LongitudeDegrees>
            </Position>
            <AltitudeMeters>1217</AltitudeMeters>
            <DistanceMeters>NAN</DistanceMeters>
          </Trackpoint>
          <Trackpoint>
            <Time>2018-12-30T14:22:22.000Z</Time>
            <Position>
              <LatitudeDegrees>40.7358085177838802337646484375</LatitudeDegrees>
              <LongitudeDegrees>-4.071306288242340087890625</LongitudeDegrees>
            </Position>
            <AltitudeMeters>1217</AltitudeMeters>
            <DistanceMeters>NAN</DistanceMeters>
          </Trackpoint>
          <Trackpoint>
            <Time>2018-12-30T14:22:23.000Z</Time>
            <Position>
              <LatitudeDegrees>40.73581966571509838104248046875</LatitudeDegrees>
              <LongitudeDegrees>-4.0712819807231426239013671875</LongitudeDegrees>
            </Position>
            <AltitudeMeters>1217</AltitudeMeters>
            <DistanceMeters>NAN</DistanceMeters>
          </Trackpoint>
          <Trackpoint>
            <Time>2018-12-30T14:22:24.000Z</Time>
            <Position>
              <LatitudeDegrees>40.73583140037953853607177734375</LatitudeDegrees>
              <LongitudeDegrees>-4.0712601877748966217041015625</LongitudeDegrees>
            </Position>
            <AltitudeMeters>1217</AltitudeMeters>
            <DistanceMeters>NAN</DistanceMeters>
          </Trackpoint>
          <Trackpoint>
            <Time>2018-12-30T14:22:25.000Z</Time>
            <Position>
              <LatitudeDegrees>40.735840536653995513916015625</LatitudeDegrees>
              <LongitudeDegrees>-4.07123579643666744232177734375</LongitudeDegrees>
            </Position>
            <AltitudeMeters>1216.800048828125</AltitudeMeters>
            <DistanceMeters>NAN</DistanceMeters>
          </Trackpoint>
          <Trackpoint>
            <Time>2018-12-30T14:22:26.000Z</Time>
            <Position>
              <LatitudeDegrees>40.7358531095087528228759765625</LatitudeDegrees>
              <LongitudeDegrees>-4.07121283002197742462158203125</LongitudeDegrees>
            </Position>
            <AltitudeMeters>1216.800048828125</AltitudeMeters>
            <DistanceMeters>NAN</DistanceMeters>
          </Trackpoint>
          <Trackpoint>
            <Time>2018-12-30T14:22:27.000Z</Time>
            <Position>
              <LatitudeDegrees>40.7358641736209392547607421875</LatitudeDegrees>
              <LongitudeDegrees>-4.0711901150643825531005859375</LongitudeDegrees>
            </Position>
            <AltitudeMeters>1217</AltitudeMeters>
            <DistanceMeters>NAN</DistanceMeters>
          </Trackpoint>
          <Trackpoint>
            <Time>2018-12-30T14:22:28.000Z</Time>
            <Position>
              <LatitudeDegrees>40.73587733320891857147216796875</LatitudeDegrees>
              <LongitudeDegrees>-4.07117075286805629730224609375</LongitudeDegrees>
            </Position>
            <AltitudeMeters>1216.800048828125</AltitudeMeters>
            <DistanceMeters>NAN</DistanceMeters>
          </Trackpoint>
          <Trackpoint>
            <Time>2018-12-30T14:22:29.000Z</Time>
            <Position>
              <LatitudeDegrees>40.73589208535850048065185546875</LatitudeDegrees>
              <LongitudeDegrees>-4.07115113921463489532470703125</LongitudeDegrees>
            </Position>
            <AltitudeMeters>1217</AltitudeMeters>
            <DistanceMeters>NAN</DistanceMeters>
          </Trackpoint>
          <Trackpoint>
            <Time>2018-12-30T14:22:30.000Z</Time>
            <Position>
              <LatitudeDegrees>40.735902227461338043212890625</LatitudeDegrees>
              <LongitudeDegrees>-4.07112993299961090087890625</LongitudeDegrees>
            </Position>
            <AltitudeMeters>1217.199951171875</AltitudeMeters>
            <DistanceMeters>NAN</DistanceMeters>
          </Trackpoint>
          <Trackpoint>
            <Time>2018-12-30T14:22:31.000Z</Time>
            <Position>
              <LatitudeDegrees>40.73591521941125392913818359375</LatitudeDegrees>
              <LongitudeDegrees>-4.07111023552715778350830078125</LongitudeDegrees>
            </Position>
            <AltitudeMeters>1217.199951171875</AltitudeMeters>
            <DistanceMeters>NAN</DistanceMeters>
          </Trackpoint>
          <Trackpoint>
            <Time>2018-12-30T14:22:32.000Z</Time>
            <Position>
              <LatitudeDegrees>40.7359302230179309844970703125</LatitudeDegrees>
              <LongitudeDegrees>-4.0710905380547046661376953125</LongitudeDegrees>
            </Position>
            <AltitudeMeters>1217.4000244140625</AltitudeMeters>
            <DistanceMeters>NAN</DistanceMeters>
          </Trackpoint>
          <Trackpoint>
            <Time>2018-12-30T14:22:33.000Z</Time>
            <Position>
              <LatitudeDegrees>40.73594455607235431671142578125</LatitudeDegrees>
              <LongitudeDegrees>-4.07107218168675899505615234375</LongitudeDegrees>
            </Position>
            <AltitudeMeters>1217.4000244140625</AltitudeMeters>
            <DistanceMeters>NAN</DistanceMeters>
          </Trackpoint>
          <Trackpoint>
            <Time>2018-12-30T14:22:34.000Z</Time>
            <Position>
              <LatitudeDegrees>40.7359550334513187408447265625</LatitudeDegrees>
              <LongitudeDegrees>-4.07105273567140102386474609375</LongitudeDegrees>
            </Position>
            <AltitudeMeters>1217.4000244140625</AltitudeMeters>
            <DistanceMeters>NAN</DistanceMeters>
          </Trackpoint>
          <Trackpoint>
            <Time>2018-12-30T14:22:35.000Z</Time>
            <Position>
              <LatitudeDegrees>40.7359691150486469268798828125</LatitudeDegrees>
              <LongitudeDegrees>-4.07103873789310455322265625</LongitudeDegrees>
            </Position>
            <AltitudeMeters>1217.4000244140625</AltitudeMeters>
            <DistanceMeters>NAN</DistanceMeters>
          </Trackpoint>
          <Trackpoint>
            <Time>2018-12-30T14:22:36.000Z</Time>
            <Position>
              <LatitudeDegrees>40.73598378337919712066650390625</LatitudeDegrees>
              <LongitudeDegrees>-4.0710241533815860748291015625</LongitudeDegrees>
            </Position>
            <AltitudeMeters>1217.5999755859375</AltitudeMeters>
            <DistanceMeters>NAN</DistanceMeters>
          </Trackpoint>
          <Trackpoint>
            <Time>2018-12-30T14:22:37.000Z</Time>
            <Position>
              <LatitudeDegrees>40.7359949313104152679443359375</LatitudeDegrees>
              <LongitudeDegrees>-4.0710023604333400726318359375</LongitudeDegrees>
            </Position>
            <AltitudeMeters>1217.4000244140625</AltitudeMeters>
            <DistanceMeters>NAN</DistanceMeters>
          </Trackpoint>
          <Trackpoint>
            <Time>2018-12-30T14:22:38.000Z</Time>
            <Position>
              <LatitudeDegrees>40.7360036484897136688232421875</LatitudeDegrees>
              <LongitudeDegrees>-4.07098115421831607818603515625</LongitudeDegrees>
            </Position>
            <AltitudeMeters>1217.5999755859375</AltitudeMeters>
            <DistanceMeters>NAN</DistanceMeters>
          </Trackpoint>
          <Trackpoint>
            <Time>2018-12-30T14:22:39.000Z</Time>
            <Position>
              <LatitudeDegrees>40.73601521551609039306640625</LatitudeDegrees>
              <LongitudeDegrees>-4.0709614567458629608154296875</LongitudeDegrees>
            </Position>
            <AltitudeMeters>1217.800048828125</AltitudeMeters>
            <DistanceMeters>NAN</DistanceMeters>
          </Trackpoint>
          <Trackpoint>
            <Time>2018-12-30T14:22:40.000Z</Time>
            <Position>
              <LatitudeDegrees>40.7360277883708477020263671875</LatitudeDegrees>
              <LongitudeDegrees>-4.07094310037791728973388671875</LongitudeDegrees>
            </Position>
            <AltitudeMeters>1217.800048828125</AltitudeMeters>
            <DistanceMeters>NAN</DistanceMeters>
          </Trackpoint>
          <Trackpoint>
            <Time>2018-12-30T14:22:41.000Z</Time>
            <Position>
              <LatitudeDegrees>40.736041367053985595703125</LatitudeDegrees>
              <LongitudeDegrees>-4.0709212236106395721435546875</LongitudeDegrees>
            </Position>
            <AltitudeMeters>1218</AltitudeMeters>
            <DistanceMeters>NAN</DistanceMeters>
          </Trackpoint>
          <Trackpoint>
            <Time>2018-12-30T14:22:42.000Z</Time>
            <Position>
              <LatitudeDegrees>40.736053101718425750732421875</LatitudeDegrees>
              <LongitudeDegrees>-4.07089901156723499298095703125</LongitudeDegrees>
            </Position>
            <AltitudeMeters>1218.4000244140625</AltitudeMeters>
            <DistanceMeters>NAN</DistanceMeters>
          </Trackpoint>
          <Trackpoint>
            <Time>2018-12-30T14:22:43.000Z</Time>
            <Position>
              <LatitudeDegrees>40.73606441728770732879638671875</LatitudeDegrees>
              <LongitudeDegrees>-4.07087738625705242156982421875</LongitudeDegrees>
            </Position>
            <AltitudeMeters>1218.4000244140625</AltitudeMeters>
            <DistanceMeters>NAN</DistanceMeters>
          </Trackpoint>
          <Trackpoint>
            <Time>2018-12-30T14:22:44.000Z</Time>
            <Position>
              <LatitudeDegrees>40.7360753975808620452880859375</LatitudeDegrees>
              <LongitudeDegrees>-4.07085592858493328094482421875</LongitudeDegrees>
            </Position>
            <AltitudeMeters>1218.5999755859375</AltitudeMeters>
            <DistanceMeters>NAN</DistanceMeters>
          </Trackpoint>
          <Trackpoint>
            <Time>2018-12-30T14:22:45.000Z</Time>
            <Position>
              <LatitudeDegrees>40.73608637787401676177978515625</LatitudeDegrees>
              <LongitudeDegrees>-4.0708363987505435943603515625</LongitudeDegrees>
            </Position>
            <AltitudeMeters>1218.800048828125</AltitudeMeters>
            <DistanceMeters>NAN</DistanceMeters>
          </Trackpoint>
          <Trackpoint>
            <Time>2018-12-30T14:22:46.000Z</Time>
            <Position>
              <LatitudeDegrees>40.73609828017652034759521484375</LatitudeDegrees>
              <LongitudeDegrees>-4.07081904821097850799560546875</LongitudeDegrees>
            </Position>
            <AltitudeMeters>1218.800048828125</AltitudeMeters>
            <DistanceMeters>NAN</DistanceMeters>
          </Trackpoint>
          <Trackpoint>
            <Time>2018-12-30T14:22:47.000Z</Time>
            <Position>
              <LatitudeDegrees>40.736112780869007110595703125</LatitudeDegrees>
              <LongitudeDegrees>-4.070802368223667144775390625</LongitudeDegrees>
            </Position>
            <AltitudeMeters>1218.800048828125</AltitudeMeters>
            <DistanceMeters>NAN</DistanceMeters>
          </Trackpoint>
          <Trackpoint>
            <Time>2018-12-30T14:22:48.000Z</Time>
            <Position>
              <LatitudeDegrees>40.7361277006566524505615234375</LatitudeDegrees>
              <LongitudeDegrees>-4.0707857720553874969482421875</LongitudeDegrees>
            </Position>
            <AltitudeMeters>1218.800048828125</AltitudeMeters>
            <DistanceMeters>NAN</DistanceMeters>
          </Trackpoint>
          <Trackpoint>
            <Time>2018-12-30T14:22:49.000Z</Time>
            <Position>
              <LatitudeDegrees>40.73613993823528289794921875</LatitudeDegrees>
              <LongitudeDegrees>-4.0707653202116489410400390625</LongitudeDegrees>
            </Position>
            <AltitudeMeters>1218.800048828125</AltitudeMeters>
            <DistanceMeters>NAN</DistanceMeters>
          </Trackpoint>
          <Trackpoint>
            <Time>2018-12-30T14:22:50.000Z</Time>
            <Position>
              <LatitudeDegrees>40.73615225963294506072998046875</LatitudeDegrees>
              <LongitudeDegrees>-4.07074428163468837738037109375</LongitudeDegrees>
            </Position>
            <AltitudeMeters>1218.800048828125</AltitudeMeters>
            <DistanceMeters>NAN</DistanceMeters>
          </Trackpoint>
          <Trackpoint>
            <Time>2018-12-30T14:22:51.000Z</Time>
            <Position>
              <LatitudeDegrees>40.736162401735782623291015625</LatitudeDegrees>
              <LongitudeDegrees>-4.07072030939161777496337890625</LongitudeDegrees>
            </Position>
            <AltitudeMeters>1219</AltitudeMeters>
            <DistanceMeters>NAN</DistanceMeters>
          </Trackpoint>
          <Trackpoint>
            <Time>2018-12-30T14:22:52.000Z</Time>
            <Position>
              <LatitudeDegrees>40.7361741364002227783203125</LatitudeDegrees>
              <LongitudeDegrees>-4.07069885171949863433837890625</LongitudeDegrees>
            </Position>
            <AltitudeMeters>1219</AltitudeMeters>
            <DistanceMeters>NAN</DistanceMeters>
          </Trackpoint>
          <Trackpoint>
            <Time>2018-12-30T14:22:53.000Z</Time>
            <Position>
              <LatitudeDegrees>40.73618444614112377166748046875</LatitudeDegrees>
              <LongitudeDegrees>-4.07067672349512577056884765625</LongitudeDegrees>
            </Position>
            <AltitudeMeters>1218.800048828125</AltitudeMeters>
            <DistanceMeters>NAN</DistanceMeters>
          </Trackpoint>
          <Trackpoint>
            <Time>2018-12-30T14:22:54.000Z</Time>
            <Position>
              <LatitudeDegrees>40.73619634844362735748291015625</LatitudeDegrees>
              <LongitudeDegrees>-4.0706560201942920684814453125</LongitudeDegrees>
            </Position>
            <AltitudeMeters>1218.5999755859375</AltitudeMeters>
            <DistanceMeters>NAN</DistanceMeters>
          </Trackpoint>
          <Trackpoint>
            <Time>2018-12-30T14:22:55.000Z</Time>
            <Position>
              <LatitudeDegrees>40.7362105138599872589111328125</LatitudeDegrees>
              <LongitudeDegrees>-4.070636071264743804931640625</LongitudeDegrees>
            </Position>
            <AltitudeMeters>1218.5999755859375</AltitudeMeters>
            <DistanceMeters>NAN</DistanceMeters>
          </Trackpoint>
          <Trackpoint>
            <Time>2018-12-30T14:22:56.000Z</Time>
            <Position>
              <LatitudeDegrees>40.7362209074199199676513671875</LatitudeDegrees>
              <LongitudeDegrees>-4.07061268575489521026611328125</LongitudeDegrees>
            </Position>
            <AltitudeMeters>1218.5999755859375</AltitudeMeters>
            <DistanceMeters>NAN</DistanceMeters>
          </Trackpoint>
          <Trackpoint>
            <Time>2018-12-30T14:22:57.000Z</Time>
            <Position>
              <LatitudeDegrees>40.73623775504529476165771484375</LatitudeDegrees>
              <LongitudeDegrees>-4.07059592194855213165283203125</LongitudeDegrees>
            </Position>
            <AltitudeMeters>1218.5999755859375</AltitudeMeters>
            <DistanceMeters>NAN</DistanceMeters>
          </Trackpoint>
          <Trackpoint>
            <Time>2018-12-30T14:22:58.000Z</Time>
            <Position>
              <LatitudeDegrees>40.7362544350326061248779296875</LatitudeDegrees>
              <LongitudeDegrees>-4.07057882286608219146728515625</LongitudeDegrees>
            </Position>
            <AltitudeMeters>1218.4000244140625</AltitudeMeters>
            <DistanceMeters>NAN</DistanceMeters>
          </Trackpoint>
          <Trackpoint>
            <Time>2018-12-30T14:22:59.000Z</Time>
            <Position>
              <LatitudeDegrees>40.73626725934445858001708984375</LatitudeDegrees>
              <LongitudeDegrees>-4.07055803574621677398681640625</LongitudeDegrees>
            </Position>
            <AltitudeMeters>1218.4000244140625</AltitudeMeters>
            <DistanceMeters>NAN</DistanceMeters>
          </Trackpoint>
          <Trackpoint>
            <Time>2018-12-30T14:23:00.000Z</Time>
            <Position>
              <LatitudeDegrees>40.736279077827930450439453125</LatitudeDegrees>
              <LongitudeDegrees>-4.0705359913408756256103515625</LongitudeDegrees>
            </Position>
            <AltitudeMeters>1218.4000244140625</AltitudeMeters>
            <DistanceMeters>NAN</DistanceMeters>
          </Trackpoint>
          <Trackpoint>
            <Time>2018-12-30T14:23:01.000Z</Time>
            <Position>
              <LatitudeDegrees>40.73628871701657772064208984375</LatitudeDegrees>
              <LongitudeDegrees>-4.0705110132694244384765625</LongitudeDegrees>
            </Position>
            <AltitudeMeters>1218.199951171875</AltitudeMeters>
            <DistanceMeters>NAN</DistanceMeters>
          </Trackpoint>
          <Trackpoint>
            <Time>2018-12-30T14:23:02.000Z</Time>
            <Position>
              <LatitudeDegrees>40.7363002002239227294921875</LatitudeDegrees>
              <LongitudeDegrees>-4.07048578374087810516357421875</LongitudeDegrees>
            </Position>
            <AltitudeMeters>1218.199951171875</AltitudeMeters>
            <DistanceMeters>NAN</DistanceMeters>
          </Trackpoint>
          <Trackpoint>
            <Time>2018-12-30T14:23:03.000Z</Time>
            <Position>
              <LatitudeDegrees>40.73631285689771175384521484375</LatitudeDegrees>
              <LongitudeDegrees>-4.07046549953520298004150390625</LongitudeDegrees>
            </Position>
            <AltitudeMeters>1218.199951171875</AltitudeMeters>
            <DistanceMeters>NAN</DistanceMeters>
          </Trackpoint>
          <Trackpoint>
            <Time>2018-12-30T14:23:04.000Z</Time>
            <Position>
              <LatitudeDegrees>40.7363243401050567626953125</LatitudeDegrees>
              <LongitudeDegrees>-4.070447981357574462890625</LongitudeDegrees>
            </Position>
            <AltitudeMeters>1218.199951171875</AltitudeMeters>
            <DistanceMeters>NAN</DistanceMeters>
          </Trackpoint>
          <Trackpoint>
            <Time>2018-12-30T14:23:05.000Z</Time>
            <Position>
              <LatitudeDegrees>40.73633599095046520233154296875</LatitudeDegrees>
              <LongitudeDegrees>-4.0704276971518993377685546875</LongitudeDegrees>
            </Position>
            <AltitudeMeters>1218</AltitudeMeters>
            <DistanceMeters>NAN</DistanceMeters>
          </Trackpoint>
          <Trackpoint>
            <Time>2018-12-30T14:23:06.000Z</Time>
            <Position>
              <LatitudeDegrees>40.7363484799861907958984375</LatitudeDegrees>
              <LongitudeDegrees>-4.07040984369814395904541015625</LongitudeDegrees>
            </Position>
            <AltitudeMeters>1217.800048828125</AltitudeMeters>
            <DistanceMeters>NAN</DistanceMeters>
          </Trackpoint>
          <Trackpoint>
            <Time>2018-12-30T14:23:07.000Z</Time>
            <Position>
              <LatitudeDegrees>40.7363590411841869354248046875</LatitudeDegrees>
              <LongitudeDegrees>-4.070390649139881134033203125</LongitudeDegrees>
            </Position>
            <AltitudeMeters>1217.800048828125</AltitudeMeters>
            <DistanceMeters>NAN</DistanceMeters>
          </Trackpoint>
          <Trackpoint>
            <Time>2018-12-30T14:23:08.000Z</Time>
            <Position>
              <LatitudeDegrees>40.73636792600154876708984375</LatitudeDegrees>
              <LongitudeDegrees>-4.07036743126809597015380859375</LongitudeDegrees>
            </Position>
            <AltitudeMeters>1218</AltitudeMeters>
            <DistanceMeters>NAN</DistanceMeters>
          </Trackpoint>
          <Trackpoint>
            <Time>2018-12-30T14:23:09.000Z</Time>
            <Position>
              <LatitudeDegrees>40.73637773282825946807861328125</LatitudeDegrees>
              <LongitudeDegrees>-4.07034412957727909088134765625</LongitudeDegrees>
            </Position>
            <AltitudeMeters>1218.199951171875</AltitudeMeters>
            <DistanceMeters>NAN</DistanceMeters>
          </Trackpoint>
          <Trackpoint>
            <Time>2018-12-30T14:23:10.000Z</Time>
            <Position>
              <LatitudeDegrees>40.73638846166431903839111328125</LatitudeDegrees>
              <LongitudeDegrees>-4.0703204087913036346435546875</LongitudeDegrees>
            </Position>
            <AltitudeMeters>1218.199951171875</AltitudeMeters>
            <DistanceMeters>NAN</DistanceMeters>
          </Trackpoint>
          <Trackpoint>
            <Time>2018-12-30T14:23:11.000Z</Time>
            <Position>
              <LatitudeDegrees>40.736395753920078277587890625</LatitudeDegrees>
              <LongitudeDegrees>-4.0702932514250278472900390625</LongitudeDegrees>
            </Position>
            <AltitudeMeters>1218.4000244140625</AltitudeMeters>
            <DistanceMeters>NAN</DistanceMeters>
          </Trackpoint>
          <Trackpoint>
            <Time>2018-12-30T14:23:12.000Z</Time>
            <Position>
              <LatitudeDegrees>40.7364036329090595245361328125</LatitudeDegrees>
              <LongitudeDegrees>-4.0702644176781177520751953125</LongitudeDegrees>
            </Position>
            <AltitudeMeters>1218.4000244140625</AltitudeMeters>
            <DistanceMeters>NAN</DistanceMeters>
          </Trackpoint>
          <Trackpoint>
            <Time>2018-12-30T14:23:13.000Z</Time>
            <Position>
              <LatitudeDegrees>40.736411511898040771484375</LatitudeDegrees>
              <LongitudeDegrees>-4.0702369250357151031494140625</LongitudeDegrees>
            </Position>
            <AltitudeMeters>1218.199951171875</AltitudeMeters>
            <DistanceMeters>NAN</DistanceMeters>
          </Trackpoint>
          <Trackpoint>
            <Time>2018-12-30T14:23:14.000Z</Time>
            <Position>
              <LatitudeDegrees>40.73641763068735599517822265625</LatitudeDegrees>
              <LongitudeDegrees>-4.0702114440500736236572265625</LongitudeDegrees>
            </Position>
            <AltitudeMeters>1218.199951171875</AltitudeMeters>
            <DistanceMeters>NAN</DistanceMeters>
          </Trackpoint>
          <Trackpoint>
            <Time>2018-12-30T14:23:15.000Z</Time>
            <Position>
              <LatitudeDegrees>40.73642215691506862640380859375</LatitudeDegrees>
              <LongitudeDegrees>-4.0701862983405590057373046875</LongitudeDegrees>
            </Position>
            <AltitudeMeters>1218.199951171875</AltitudeMeters>
            <DistanceMeters>NAN</DistanceMeters>
          </Trackpoint>
          <Trackpoint>
            <Time>2018-12-30T14:23:16.000Z</Time>
            <Position>
              <LatitudeDegrees>40.736431293189525604248046875</LatitudeDegrees>
              <LongitudeDegrees>-4.070163331925868988037109375</LongitudeDegrees>
            </Position>
            <AltitudeMeters>1218.199951171875</AltitudeMeters>
            <DistanceMeters>NAN</DistanceMeters>
          </Trackpoint>
          <Trackpoint>
            <Time>2018-12-30T14:23:17.000Z</Time>
            <Position>
              <LatitudeDegrees>40.73644436895847320556640625</LatitudeDegrees>
              <LongitudeDegrees>-4.0701427124440670013427734375</LongitudeDegrees>
            </Position>
            <AltitudeMeters>1218</AltitudeMeters>
            <DistanceMeters>NAN</DistanceMeters>
          </Trackpoint>
          <Trackpoint>
            <Time>2018-12-30T14:23:18.000Z</Time>
            <Position>
              <LatitudeDegrees>40.736456774175167083740234375</LatitudeDegrees>
              <LongitudeDegrees>-4.07012117095291614532470703125</LongitudeDegrees>
            </Position>
            <AltitudeMeters>1217.800048828125</AltitudeMeters>
            <DistanceMeters>NAN</DistanceMeters>
          </Trackpoint>
          <Trackpoint>
            <Time>2018-12-30T14:23:19.000Z</Time>
            <Position>
              <LatitudeDegrees>40.73646373115479946136474609375</LatitudeDegrees>
              <LongitudeDegrees>-4.070094935595989227294921875</LongitudeDegrees>
            </Position>
            <AltitudeMeters>1217.5999755859375</AltitudeMeters>
            <DistanceMeters>NAN</DistanceMeters>
          </Trackpoint>
          <Trackpoint>
            <Time>2018-12-30T14:23:20.000Z</Time>
            <Position>
              <LatitudeDegrees>40.73647462762892246246337890625</LatitudeDegrees>
              <LongitudeDegrees>-4.0700712986290454864501953125</LongitudeDegrees>
            </Position>
            <AltitudeMeters>1217.5999755859375</AltitudeMeters>
            <DistanceMeters>NAN</DistanceMeters>
          </Trackpoint>
          <Trackpoint>
            <Time>2018-12-30T14:23:21.000Z</Time>
            <Position>
              <LatitudeDegrees>40.7364799082279205322265625</LatitudeDegrees>
              <LongitudeDegrees>-4.07004355452954769134521484375</LongitudeDegrees>
            </Position>
            <AltitudeMeters>1217.5999755859375</AltitudeMeters>
            <DistanceMeters>NAN</DistanceMeters>
          </Trackpoint>
          <Trackpoint>
            <Time>2018-12-30T14:23:22.000Z</Time>
            <Position>
              <LatitudeDegrees>40.736488290131092071533203125</LatitudeDegrees>
              <LongitudeDegrees>-4.07001589424908161163330078125</LongitudeDegrees>
            </Position>
            <AltitudeMeters>1217.5999755859375</AltitudeMeters>
            <DistanceMeters>NAN</DistanceMeters>
          </Trackpoint>
          <Trackpoint>
            <Time>2018-12-30T14:23:23.000Z</Time>
            <Position>
              <LatitudeDegrees>40.7364948280155658721923828125</LatitudeDegrees>
              <LongitudeDegrees>-4.069993011653423309326171875</LongitudeDegrees>
            </Position>
            <AltitudeMeters>1217.5999755859375</AltitudeMeters>
            <DistanceMeters>NAN</DistanceMeters>
          </Trackpoint>
          <Trackpoint>
            <Time>2018-12-30T14:23:24.000Z</Time>
            <Position>
              <LatitudeDegrees>40.73650178499519824981689453125</LatitudeDegrees>
              <LongitudeDegrees>-4.06997230835258960723876953125</LongitudeDegrees>
            </Position>
            <AltitudeMeters>1217.5999755859375</AltitudeMeters>
            <DistanceMeters>NAN</DistanceMeters>
          </Trackpoint>
          <Trackpoint>
            <Time>2018-12-30T14:23:25.000Z</Time>
            <Position>
              <LatitudeDegrees>40.73650865815579891204833984375</LatitudeDegrees>
              <LongitudeDegrees>-4.06994640827178955078125</LongitudeDegrees>
            </Position>
            <AltitudeMeters>1217.5999755859375</AltitudeMeters>
            <DistanceMeters>NAN</DistanceMeters>
          </Trackpoint>
          <Trackpoint>
            <Time>2018-12-30T14:23:26.000Z</Time>
            <Position>
              <LatitudeDegrees>40.73651687242090702056884765625</LatitudeDegrees>
              <LongitudeDegrees>-4.06992251984775066375732421875</LongitudeDegrees>
            </Position>
            <AltitudeMeters>1217.4000244140625</AltitudeMeters>
            <DistanceMeters>NAN</DistanceMeters>
          </Trackpoint>
          <Trackpoint>
            <Time>2018-12-30T14:23:27.000Z</Time>
            <Position>
              <LatitudeDegrees>40.7365206442773342132568359375</LatitudeDegrees>
              <LongitudeDegrees>-4.069897122681140899658203125</LongitudeDegrees>
            </Position>
            <AltitudeMeters>1217.5999755859375</AltitudeMeters>
            <DistanceMeters>NAN</DistanceMeters>
          </Trackpoint>
          <Trackpoint>
            <Time>2018-12-30T14:23:28.000Z</Time>
            <Position>
              <LatitudeDegrees>40.73652684688568115234375</LatitudeDegrees>
              <LongitudeDegrees>-4.06987206079065799713134765625</LongitudeDegrees>
            </Position>
            <AltitudeMeters>1217.5999755859375</AltitudeMeters>
            <DistanceMeters>NAN</DistanceMeters>
          </Trackpoint>
          <Trackpoint>
            <Time>2018-12-30T14:23:29.000Z</Time>
            <Position>
              <LatitudeDegrees>40.736532546579837799072265625</LatitudeDegrees>
              <LongitudeDegrees>-4.0698486752808094024658203125</LongitudeDegrees>
            </Position>
            <AltitudeMeters>1217.4000244140625</AltitudeMeters>
            <DistanceMeters>NAN</DistanceMeters>
          </Trackpoint>
          <Trackpoint>
            <Time>2018-12-30T14:23:30.000Z</Time>
            <Position>
              <LatitudeDegrees>40.73653958737850189208984375</LatitudeDegrees>
              <LongitudeDegrees>-4.06982579268515110015869140625</LongitudeDegrees>
            </Position>
            <AltitudeMeters>1217.199951171875</AltitudeMeters>
            <DistanceMeters>NAN</DistanceMeters>
          </Trackpoint>
          <Trackpoint>
            <Time>2018-12-30T14:23:31.000Z</Time>
            <Position>
              <LatitudeDegrees>40.73654721491038799285888671875</LatitudeDegrees>
              <LongitudeDegrees>-4.06980668194591999053955078125</LongitudeDegrees>
            </Position>
            <AltitudeMeters>1217.199951171875</AltitudeMeters>
            <DistanceMeters>NAN</DistanceMeters>
          </Trackpoint>
          <Trackpoint>
            <Time>2018-12-30T14:23:32.000Z</Time>
            <Position>
              <LatitudeDegrees>40.736550986766815185546875</LatitudeDegrees>
              <LongitudeDegrees>-4.06978388316929340362548828125</LongitudeDegrees>
            </Position>
            <AltitudeMeters>1216.800048828125</AltitudeMeters>
            <DistanceMeters>NAN</DistanceMeters>
          </Trackpoint>
          <Trackpoint>
            <Time>2018-12-30T14:23:33.000Z</Time>
            <Position>
              <LatitudeDegrees>40.7365561835467815399169921875</LatitudeDegrees>
              <LongitudeDegrees>-4.0697618387639522552490234375</LongitudeDegrees>
            </Position>
            <AltitudeMeters>1216.800048828125</AltitudeMeters>
            <DistanceMeters>NAN</DistanceMeters>
          </Trackpoint>
          <Trackpoint>
            <Time>2018-12-30T14:23:34.000Z</Time>
            <Position>
              <LatitudeDegrees>40.73656012304127216339111328125</LatitudeDegrees>
              <LongitudeDegrees>-4.0697433985769748687744140625</LongitudeDegrees>
            </Position>
            <AltitudeMeters>1216.199951171875</AltitudeMeters>
            <DistanceMeters>NAN</DistanceMeters>
          </Trackpoint>
          <Trackpoint>
            <Time>2018-12-30T14:23:35.000Z</Time>
            <Position>
              <LatitudeDegrees>40.7365602068603038787841796875</LatitudeDegrees>
              <LongitudeDegrees>-4.06972202472388744354248046875</LongitudeDegrees>
            </Position>
            <AltitudeMeters>1216</AltitudeMeters>
            <DistanceMeters>NAN</DistanceMeters>
          </Trackpoint>
          <Trackpoint>
            <Time>2018-12-30T14:23:36.000Z</Time>
            <Position>
              <LatitudeDegrees>40.73655677028000354766845703125</LatitudeDegrees>
              <LongitudeDegrees>-4.0696937777101993560791015625</LongitudeDegrees>
            </Position>
            <AltitudeMeters>1215.800048828125</AltitudeMeters>
            <DistanceMeters>NAN</DistanceMeters>
          </Trackpoint>
          <Trackpoint>
            <Time>2018-12-30T14:23:37.000Z</Time>
            <Position>
              <LatitudeDegrees>40.7365555129945278167724609375</LatitudeDegrees>
              <LongitudeDegrees>-4.06967273913323879241943359375</LongitudeDegrees>
            </Position>
            <AltitudeMeters>1215.800048828125</AltitudeMeters>
            <DistanceMeters>NAN</DistanceMeters>
          </Trackpoint>
          <Trackpoint>
            <Time>2018-12-30T14:23:38.000Z</Time>
            <Position>
              <LatitudeDegrees>40.736550651490688323974609375</LatitudeDegrees>
              <LongitudeDegrees>-4.0696505270898342132568359375</LongitudeDegrees>
            </Position>
            <AltitudeMeters>1215.5999755859375</AltitudeMeters>
            <DistanceMeters>NAN</DistanceMeters>
          </Trackpoint>
          <Trackpoint>
            <Time>2018-12-30T14:23:39.000Z</Time>
            <Position>
              <LatitudeDegrees>40.73654671199619770050048828125</LatitudeDegrees>
              <LongitudeDegrees>-4.06962663866579532623291015625</LongitudeDegrees>
            </Position>
            <AltitudeMeters>1215.4000244140625</AltitudeMeters>
            <DistanceMeters>NAN</DistanceMeters>
          </Trackpoint>
          <Trackpoint>
            <Time>2018-12-30T14:23:40.000Z</Time>
            <Position>
              <LatitudeDegrees>40.736541934311389923095703125</LatitudeDegrees>
              <LongitudeDegrees>-4.069605767726898193359375</LongitudeDegrees>
            </Position>
            <AltitudeMeters>1215.4000244140625</AltitudeMeters>
            <DistanceMeters>NAN</DistanceMeters>
          </Trackpoint>
          <Trackpoint>
            <Time>2018-12-30T14:23:41.000Z</Time>
            <Position>
              <LatitudeDegrees>40.736540257930755615234375</LatitudeDegrees>
              <LongitudeDegrees>-4.0695821307599544525146484375</LongitudeDegrees>
            </Position>
            <AltitudeMeters>1215</AltitudeMeters>
            <DistanceMeters>NAN</DistanceMeters>
          </Trackpoint>
          <Trackpoint>
            <Time>2018-12-30T14:23:42.000Z</Time>
            <Position>
              <LatitudeDegrees>40.736535228788852691650390625</LatitudeDegrees>
              <LongitudeDegrees>-4.0695519559085369110107421875</LongitudeDegrees>
            </Position>
            <AltitudeMeters>1214.5999755859375</AltitudeMeters>
            <DistanceMeters>NAN</DistanceMeters>
          </Trackpoint>
          <Trackpoint>
            <Time>2018-12-30T14:23:43.000Z</Time>
            <Position>
              <LatitudeDegrees>40.73652894236147403717041015625</LatitudeDegrees>
              <LongitudeDegrees>-4.0695254690945148468017578125</LongitudeDegrees>
            </Position>
            <AltitudeMeters>1214.199951171875</AltitudeMeters>
            <DistanceMeters>NAN</DistanceMeters>
          </Trackpoint>
          <Trackpoint>
            <Time>2018-12-30T14:23:44.000Z</Time>
            <Position>
              <LatitudeDegrees>40.73652743361890316009521484375</LatitudeDegrees>
              <LongitudeDegrees>-4.06950225122272968292236328125</LongitudeDegrees>
            </Position>
            <AltitudeMeters>1213.800048828125</AltitudeMeters>
            <DistanceMeters>NAN</DistanceMeters>
          </Trackpoint>
          <Trackpoint>
            <Time>2018-12-30T14:23:45.000Z</Time>
            <Position>
              <LatitudeDegrees>40.73652659542858600616455078125</LatitudeDegrees>
              <LongitudeDegrees>-4.06947526149451732635498046875</LongitudeDegrees>
            </Position>
            <AltitudeMeters>1213.4000244140625</AltitudeMeters>
            <DistanceMeters>NAN</DistanceMeters>
          </Trackpoint>
          <Trackpoint>
            <Time>2018-12-30T14:23:46.000Z</Time>
            <Position>
              <LatitudeDegrees>40.7365300320088863372802734375</LatitudeDegrees>
              <LongitudeDegrees>-4.0694513730704784393310546875</LongitudeDegrees>
            </Position>
            <AltitudeMeters>1213</AltitudeMeters>
            <DistanceMeters>NAN</DistanceMeters>
          </Trackpoint>
          <Trackpoint>
            <Time>2018-12-30T14:23:47.000Z</Time>
            <Position>
              <LatitudeDegrees>40.73653422296047210693359375</LatitudeDegrees>
              <LongitudeDegrees>-4.0694265626370906829833984375</LongitudeDegrees>
            </Position>
            <AltitudeMeters>1212.5999755859375</AltitudeMeters>
            <DistanceMeters>NAN</DistanceMeters>
          </Trackpoint>
          <Trackpoint>
            <Time>2018-12-30T14:23:48.000Z</Time>
            <Position>
              <LatitudeDegrees>40.73654218576848506927490234375</LatitudeDegrees>
              <LongitudeDegrees>-4.0694027580320835113525390625</LongitudeDegrees>
            </Position>
            <AltitudeMeters>1212.4000244140625</AltitudeMeters>
            <DistanceMeters>NAN</DistanceMeters>
          </Trackpoint>
          <Trackpoint>
            <Time>2018-12-30T14:23:49.000Z</Time>
            <Position>
              <LatitudeDegrees>40.73655023239552974700927734375</LatitudeDegrees>
              <LongitudeDegrees>-4.0693752653896808624267578125</LongitudeDegrees>
            </Position>
            <AltitudeMeters>1212.199951171875</AltitudeMeters>
            <DistanceMeters>NAN</DistanceMeters>
          </Trackpoint>
          <Trackpoint>
            <Time>2018-12-30T14:23:50.000Z</Time>
            <Position>
              <LatitudeDegrees>40.736560709774494171142578125</LatitudeDegrees>
              <LongitudeDegrees>-4.0693487785756587982177734375</LongitudeDegrees>
            </Position>
            <AltitudeMeters>1212</AltitudeMeters>
            <DistanceMeters>NAN</DistanceMeters>
          </Trackpoint>
          <Trackpoint>
            <Time>2018-12-30T14:23:51.000Z</Time>
            <Position>
              <LatitudeDegrees>40.7365716062486171722412109375</LatitudeDegrees>
              <LongitudeDegrees>-4.06932421959936618804931640625</LongitudeDegrees>
            </Position>
            <AltitudeMeters>1211.800048828125</AltitudeMeters>
            <DistanceMeters>NAN</DistanceMeters>
          </Trackpoint>
          <Trackpoint>
            <Time>2018-12-30T14:23:52.000Z</Time>
            <Position>
              <LatitudeDegrees>40.73658241890370845794677734375</LatitudeDegrees>
              <LongitudeDegrees>-4.06930007971823215484619140625</LongitudeDegrees>
            </Position>
            <AltitudeMeters>1211.800048828125</AltitudeMeters>
            <DistanceMeters>NAN</DistanceMeters>
          </Trackpoint>
          <Trackpoint>
            <Time>2018-12-30T14:23:53.000Z</Time>
            <Position>
              <LatitudeDegrees>40.73659247718751430511474609375</LatitudeDegrees>
              <LongitudeDegrees>-4.06927510164678096771240234375</LongitudeDegrees>
            </Position>
            <AltitudeMeters>1211.5999755859375</AltitudeMeters>
            <DistanceMeters>NAN</DistanceMeters>
          </Trackpoint>
          <Trackpoint>
            <Time>2018-12-30T14:23:54.000Z</Time>
            <Position>
              <LatitudeDegrees>40.736599266529083251953125</LatitudeDegrees>
              <LongitudeDegrees>-4.06924861483275890350341796875</LongitudeDegrees>
            </Position>
            <AltitudeMeters>1211.4000244140625</AltitudeMeters>
            <DistanceMeters>NAN</DistanceMeters>
          </Trackpoint>
          <Trackpoint>
            <Time>2018-12-30T14:23:55.000Z</Time>
            <Position>
              <LatitudeDegrees>40.73661158792674541473388671875</LatitudeDegrees>
              <LongitudeDegrees>-4.06922531314194202423095703125</LongitudeDegrees>
            </Position>
            <AltitudeMeters>1211</AltitudeMeters>
            <DistanceMeters>NAN</DistanceMeters>
          </Trackpoint>
          <Trackpoint>
            <Time>2018-12-30T14:23:56.000Z</Time>
            <Position>
              <LatitudeDegrees>40.73662550188601016998291015625</LatitudeDegrees>
              <LongitudeDegrees>-4.06920268200337886810302734375</LongitudeDegrees>
            </Position>
            <AltitudeMeters>1210.4000244140625</AltitudeMeters>
            <DistanceMeters>NAN</DistanceMeters>
          </Trackpoint>
          <Trackpoint>
            <Time>2018-12-30T14:23:57.000Z</Time>
            <Position>
              <LatitudeDegrees>40.7366426847875118255615234375</LatitudeDegrees>
              <LongitudeDegrees>-4.06918424181640148162841796875</LongitudeDegrees>
            </Position>
            <AltitudeMeters>1210.199951171875</AltitudeMeters>
            <DistanceMeters>NAN</DistanceMeters>
          </Trackpoint>
          <Trackpoint>
            <Time>2018-12-30T14:23:58.000Z</Time>
            <Position>
              <LatitudeDegrees>40.7366597838699817657470703125</LatitudeDegrees>
              <LongitudeDegrees>-4.0691663883626461029052734375</LongitudeDegrees>
            </Position>
            <AltitudeMeters>1210</AltitudeMeters>
            <DistanceMeters>NAN</DistanceMeters>
          </Trackpoint>
          <Trackpoint>
            <Time>2018-12-30T14:23:59.000Z</Time>
            <Position>
              <LatitudeDegrees>40.73667445220053195953369140625</LatitudeDegrees>
              <LongitudeDegrees>-4.0691479481756687164306640625</LongitudeDegrees>
            </Position>
            <AltitudeMeters>1210</AltitudeMeters>
            <DistanceMeters>NAN</DistanceMeters>
          </Trackpoint>
          <Trackpoint>
            <Time>2018-12-30T14:24:00.000Z</Time>
            <Position>
              <LatitudeDegrees>40.73669205419719219207763671875</LatitudeDegrees>
              <LongitudeDegrees>-4.06913302838802337646484375</LongitudeDegrees>
            </Position>
            <AltitudeMeters>1209.5999755859375</AltitudeMeters>
            <DistanceMeters>NAN</DistanceMeters>
          </Trackpoint>
          <Trackpoint>
            <Time>2018-12-30T14:24:01.000Z</Time>
            <Position>
              <LatitudeDegrees>40.73671150021255016326904296875</LatitudeDegrees>
              <LongitudeDegrees>-4.06912137754261493682861328125</LongitudeDegrees>
            </Position>
            <AltitudeMeters>1209.4000244140625</AltitudeMeters>
            <DistanceMeters>NAN</DistanceMeters>
          </Trackpoint>
          <Trackpoint>
            <Time>2018-12-30T14:24:02.000Z</Time>
            <Position>
              <LatitudeDegrees>40.73673161678016185760498046875</LatitudeDegrees>
              <LongitudeDegrees>-4.06911148689687252044677734375</LongitudeDegrees>
            </Position>
            <AltitudeMeters>1209.199951171875</AltitudeMeters>
            <DistanceMeters>NAN</DistanceMeters>
          </Trackpoint>
          <Trackpoint>
            <Time>2018-12-30T14:24:03.000Z</Time>
            <Position>
              <LatitudeDegrees>40.73675014078617095947265625</LatitudeDegrees>
              <LongitudeDegrees>-4.0690993331372737884521484375</LongitudeDegrees>
            </Position>
            <AltitudeMeters>1209.199951171875</AltitudeMeters>
            <DistanceMeters>NAN</DistanceMeters>
          </Trackpoint>
          <Trackpoint>
            <Time>2018-12-30T14:24:04.000Z</Time>
            <Position>
              <LatitudeDegrees>40.73676682077348232269287109375</LatitudeDegrees>
              <LongitudeDegrees>-4.069085419178009033203125</LongitudeDegrees>
            </Position>
            <AltitudeMeters>1209.199951171875</AltitudeMeters>
            <DistanceMeters>NAN</DistanceMeters>
          </Trackpoint>
          <Trackpoint>
            <Time>2018-12-30T14:24:05.000Z</Time>
            <Position>
              <LatitudeDegrees>40.73678274638950824737548828125</LatitudeDegrees>
              <LongitudeDegrees>-4.06907091848552227020263671875</LongitudeDegrees>
            </Position>
            <AltitudeMeters>1209</AltitudeMeters>
            <DistanceMeters>NAN</DistanceMeters>
          </Trackpoint>
          <Trackpoint>
            <Time>2018-12-30T14:24:06.000Z</Time>
            <Position>
              <LatitudeDegrees>40.736794732511043548583984375</LatitudeDegrees>
              <LongitudeDegrees>-4.06905298121273517608642578125</LongitudeDegrees>
            </Position>
            <AltitudeMeters>1208.800048828125</AltitudeMeters>
            <DistanceMeters>NAN</DistanceMeters>
          </Trackpoint>
          <Trackpoint>
            <Time>2018-12-30T14:24:07.000Z</Time>
            <Position>
              <LatitudeDegrees>40.73679749853909015655517578125</LatitudeDegrees>
              <LongitudeDegrees>-4.06902750022709369659423828125</LongitudeDegrees>
            </Position>
            <AltitudeMeters>1208.4000244140625</AltitudeMeters>
            <DistanceMeters>NAN</DistanceMeters>
          </Trackpoint>
          <Trackpoint>
            <Time>2018-12-30T14:24:08.000Z</Time>
            <Position>
              <LatitudeDegrees>40.73679163120687007904052734375</LatitudeDegrees>
              <LongitudeDegrees>-4.068999253213405609130859375</LongitudeDegrees>
            </Position>
            <AltitudeMeters>1208</AltitudeMeters>
            <DistanceMeters>NAN</DistanceMeters>
          </Trackpoint>
          <Trackpoint>
            <Time>2018-12-30T14:24:09.000Z</Time>
            <Position>
              <LatitudeDegrees>40.73678157292306423187255859375</LatitudeDegrees>
              <LongitudeDegrees>-4.0689702518284320831298828125</LongitudeDegrees>
            </Position>
            <AltitudeMeters>1207.5999755859375</AltitudeMeters>
            <DistanceMeters>NAN</DistanceMeters>
          </Trackpoint>
          <Trackpoint>
            <Time>2018-12-30T14:24:10.000Z</Time>
            <Position>
              <LatitudeDegrees>40.73677302338182926177978515625</LatitudeDegrees>
              <LongitudeDegrees>-4.0689501352608203887939453125</LongitudeDegrees>
            </Position>
            <AltitudeMeters>1207.4000244140625</AltitudeMeters>
            <DistanceMeters>NAN</DistanceMeters>
          </Trackpoint>
          <Trackpoint>
            <Time>2018-12-30T14:24:11.000Z</Time>
            <Position>
              <LatitudeDegrees>40.7367620430886745452880859375</LatitudeDegrees>
              <LongitudeDegrees>-4.06893295235931873321533203125</LongitudeDegrees>
            </Position>
            <AltitudeMeters>1207</AltitudeMeters>
            <DistanceMeters>NAN</DistanceMeters>
          </Trackpoint>
          <Trackpoint>
            <Time>2018-12-30T14:24:12.000Z</Time>
            <Position>
              <LatitudeDegrees>40.7367482967674732208251953125</LatitudeDegrees>
              <LongitudeDegrees>-4.06891870312392711639404296875</LongitudeDegrees>
            </Position>
            <AltitudeMeters>1206.800048828125</AltitudeMeters>
            <DistanceMeters>NAN</DistanceMeters>
          </Trackpoint>
          <Trackpoint>
            <Time>2018-12-30T14:24:13.000Z</Time>
            <Position>
              <LatitudeDegrees>40.7367322035133838653564453125</LatitudeDegrees>
              <LongitudeDegrees>-4.06891317106783390045166015625</LongitudeDegrees>
            </Position>
            <AltitudeMeters>1206.5999755859375</AltitudeMeters>
            <DistanceMeters>NAN</DistanceMeters>
          </Trackpoint>
          <Trackpoint>
            <Time>2018-12-30T14:24:14.000Z</Time>
            <Position>
              <LatitudeDegrees>40.73671518824994564056396484375</LatitudeDegrees>
              <LongitudeDegrees>-4.06890428625047206878662109375</LongitudeDegrees>
            </Position>
            <AltitudeMeters>1206.199951171875</AltitudeMeters>
            <DistanceMeters>NAN</DistanceMeters>
          </Trackpoint>
          <Trackpoint>
            <Time>2018-12-30T14:24:15.000Z</Time>
            <Position>
              <LatitudeDegrees>40.7366976700723171234130859375</LatitudeDegrees>
              <LongitudeDegrees>-4.06889674253761768341064453125</LongitudeDegrees>
            </Position>
            <AltitudeMeters>1206</AltitudeMeters>
            <DistanceMeters>NAN</DistanceMeters>
          </Trackpoint>
          <Trackpoint>
            <Time>2018-12-30T14:24:16.000Z</Time>
            <Position>
              <LatitudeDegrees>40.73667981661856174468994140625</LatitudeDegrees>
              <LongitudeDegrees>-4.068885259330272674560546875</LongitudeDegrees>
            </Position>
            <AltitudeMeters>1205.800048828125</AltitudeMeters>
            <DistanceMeters>NAN</DistanceMeters>
          </Trackpoint>
          <Trackpoint>
            <Time>2018-12-30T14:24:17.000Z</Time>
            <Position>
              <LatitudeDegrees>40.736660622060298919677734375</LatitudeDegrees>
              <LongitudeDegrees>-4.06888064928352832794189453125</LongitudeDegrees>
            </Position>
            <AltitudeMeters>1205.5999755859375</AltitudeMeters>
            <DistanceMeters>NAN</DistanceMeters>
          </Trackpoint>
          <Trackpoint>
            <Time>2018-12-30T14:24:18.000Z</Time>
            <Position>
              <LatitudeDegrees>40.7366396673023700714111328125</LatitudeDegrees>
              <LongitudeDegrees>-4.06888299621641635894775390625</LongitudeDegrees>
            </Position>
            <AltitudeMeters>1205.4000244140625</AltitudeMeters>
            <DistanceMeters>NAN</DistanceMeters>
          </Trackpoint>
          <Trackpoint>
            <Time>2018-12-30T14:24:19.000Z</Time>
            <Position>
              <LatitudeDegrees>40.7366222329437732696533203125</LatitudeDegrees>
              <LongitudeDegrees>-4.06887478195130825042724609375</LongitudeDegrees>
            </Position>
            <AltitudeMeters>1205</AltitudeMeters>
            <DistanceMeters>NAN</DistanceMeters>
          </Trackpoint>
          <Trackpoint>
            <Time>2018-12-30T14:24:20.000Z</Time>
            <Position>
              <LatitudeDegrees>40.7366058044135570526123046875</LatitudeDegrees>
              <LongitudeDegrees>-4.06886539421975612640380859375</LongitudeDegrees>
            </Position>
            <AltitudeMeters>1204.800048828125</AltitudeMeters>
            <DistanceMeters>NAN</DistanceMeters>
          </Trackpoint>
          <Trackpoint>
            <Time>2018-12-30T14:24:21.000Z</Time>
            <Position>
              <LatitudeDegrees>40.736589543521404266357421875</LatitudeDegrees>
              <LongitudeDegrees>-4.0688559226691722869873046875</LongitudeDegrees>
            </Position>
            <AltitudeMeters>1204.4000244140625</AltitudeMeters>
            <DistanceMeters>NAN</DistanceMeters>
          </Trackpoint>
          <Trackpoint>
            <Time>2018-12-30T14:24:22.000Z</Time>
            <Position>
              <LatitudeDegrees>40.7365729473531246185302734375</LatitudeDegrees>
              <LongitudeDegrees>-4.06884309835731983184814453125</LongitudeDegrees>
            </Position>
            <AltitudeMeters>1204</AltitudeMeters>
            <DistanceMeters>NAN</DistanceMeters>
          </Trackpoint>
          <Trackpoint>
            <Time>2018-12-30T14:24:23.000Z</Time>
            <Position>
              <LatitudeDegrees>40.7365565188229084014892578125</LatitudeDegrees>
              <LongitudeDegrees>-4.0688321180641651153564453125</LongitudeDegrees>
            </Position>
            <AltitudeMeters>1203.5999755859375</AltitudeMeters>
            <DistanceMeters>NAN</DistanceMeters>
          </Trackpoint>
          <Trackpoint>
            <Time>2018-12-30T14:24:24.000Z</Time>
            <Position>
              <LatitudeDegrees>40.73653933592140674591064453125</LatitudeDegrees>
              <LongitudeDegrees>-4.06882247887551784515380859375</LongitudeDegrees>
            </Position>
            <AltitudeMeters>1203.4000244140625</AltitudeMeters>
            <DistanceMeters>NAN</DistanceMeters>
          </Trackpoint>
          <Trackpoint>
            <Time>2018-12-30T14:24:25.000Z</Time>
            <Position>
              <LatitudeDegrees>40.7365213148295879364013671875</LatitudeDegrees>
              <LongitudeDegrees>-4.06880923546850681304931640625</LongitudeDegrees>
            </Position>
            <AltitudeMeters>1203</AltitudeMeters>
            <DistanceMeters>NAN</DistanceMeters>
          </Trackpoint>
          <Trackpoint>
            <Time>2018-12-30T14:24:26.000Z</Time>
            <Position>
              <LatitudeDegrees>40.73650538921356201171875</LatitudeDegrees>
              <LongitudeDegrees>-4.06879632733762264251708984375</LongitudeDegrees>
            </Position>
            <AltitudeMeters>1202.800048828125</AltitudeMeters>
            <DistanceMeters>NAN</DistanceMeters>
          </Trackpoint>
          <Trackpoint>
            <Time>2018-12-30T14:24:27.000Z</Time>
            <Position>
              <LatitudeDegrees>40.73649222962558269500732421875</LatitudeDegrees>
              <LongitudeDegrees>-4.0687794797122478485107421875</LongitudeDegrees>
            </Position>
            <AltitudeMeters>1202.4000244140625</AltitudeMeters>
            <DistanceMeters>NAN</DistanceMeters>
          </Trackpoint>
          <Trackpoint>
            <Time>2018-12-30T14:24:28.000Z</Time>
            <Position>
              <LatitudeDegrees>40.736476890742778778076171875</LatitudeDegrees>
              <LongitudeDegrees>-4.068767242133617401123046875</LongitudeDegrees>
            </Position>
            <AltitudeMeters>1202.4000244140625</AltitudeMeters>
            <DistanceMeters>NAN</DistanceMeters>
          </Trackpoint>
          <Trackpoint>
            <Time>2018-12-30T14:24:29.000Z</Time>
            <Position>
              <LatitudeDegrees>40.73646171949803829193115234375</LatitudeDegrees>
              <LongitudeDegrees>-4.06875793822109699249267578125</LongitudeDegrees>
            </Position>
            <AltitudeMeters>1202</AltitudeMeters>
            <DistanceMeters>NAN</DistanceMeters>
          </Trackpoint>
          <Trackpoint>
            <Time>2018-12-30T14:24:30.000Z</Time>
            <Position>
              <LatitudeDegrees>40.73644814081490039825439453125</LatitudeDegrees>
              <LongitudeDegrees>-4.06874067150056362152099609375</LongitudeDegrees>
            </Position>
            <AltitudeMeters>1201.800048828125</AltitudeMeters>
            <DistanceMeters>NAN</DistanceMeters>
          </Trackpoint>
          <Trackpoint>
            <Time>2018-12-30T14:24:31.000Z</Time>
            <Position>
              <LatitudeDegrees>40.7364334724843502044677734375</LatitudeDegrees>
              <LongitudeDegrees>-4.06872332096099853515625</LongitudeDegrees>
            </Position>
            <AltitudeMeters>1201.5999755859375</AltitudeMeters>
            <DistanceMeters>NAN</DistanceMeters>
          </Trackpoint>
          <Trackpoint>
            <Time>2018-12-30T14:24:32.000Z</Time>
            <Position>
              <LatitudeDegrees>40.7364170439541339874267578125</LatitudeDegrees>
              <LongitudeDegrees>-4.0687090717256069183349609375</LongitudeDegrees>
            </Position>
            <AltitudeMeters>1201.5999755859375</AltitudeMeters>
            <DistanceMeters>NAN</DistanceMeters>
          </Trackpoint>
          <Trackpoint>
            <Time>2018-12-30T14:24:33.000Z</Time>
            <Position>
              <LatitudeDegrees>40.73640271089971065521240234375</LatitudeDegrees>
              <LongitudeDegrees>-4.06868912279605865478515625</LongitudeDegrees>
            </Position>
            <AltitudeMeters>1201.199951171875</AltitudeMeters>
            <DistanceMeters>NAN</DistanceMeters>
          </Trackpoint>
          <Trackpoint>
            <Time>2018-12-30T14:24:34.000Z</Time>
            <Position>
              <LatitudeDegrees>40.73638804256916046142578125</LatitudeDegrees>
              <LongitudeDegrees>-4.06867160461843013763427734375</LongitudeDegrees>
            </Position>
            <AltitudeMeters>1201</AltitudeMeters>
            <DistanceMeters>NAN</DistanceMeters>
          </Trackpoint>
          <Trackpoint>
            <Time>2018-12-30T14:24:35.000Z</Time>
            <Position>
              <LatitudeDegrees>40.73637018911540508270263671875</LatitudeDegrees>
              <LongitudeDegrees>-4.068659283220767974853515625</LongitudeDegrees>
            </Position>
            <AltitudeMeters>1200.5999755859375</AltitudeMeters>
            <DistanceMeters>NAN</DistanceMeters>
          </Trackpoint>
          <Trackpoint>
            <Time>2018-12-30T14:24:36.000Z</Time>
            <Position>
              <LatitudeDegrees>40.73635007254779338836669921875</LatitudeDegrees>
              <LongitudeDegrees>-4.06865031458437442779541015625</LongitudeDegrees>
            </Position>
            <AltitudeMeters>1200.4000244140625</AltitudeMeters>
            <DistanceMeters>NAN</DistanceMeters>
          </Trackpoint>
          <Trackpoint>
            <Time>2018-12-30T14:24:37.000Z</Time>
            <Position>
              <LatitudeDegrees>40.736331045627593994140625</LatitudeDegrees>
              <LongitudeDegrees>-4.06864310614764690399169921875</LongitudeDegrees>
            </Position>
            <AltitudeMeters>1200.4000244140625</AltitudeMeters>
            <DistanceMeters>NAN</DistanceMeters>
          </Trackpoint>
          <Trackpoint>
            <Time>2018-12-30T14:24:38.000Z</Time>
            <Position>
              <LatitudeDegrees>40.7363151200115680694580078125</LatitudeDegrees>
              <LongitudeDegrees>-4.0686316229403018951416015625</LongitudeDegrees>
            </Position>
            <AltitudeMeters>1200.199951171875</AltitudeMeters>
            <DistanceMeters>NAN</DistanceMeters>
          </Trackpoint>
          <Trackpoint>
            <Time>2018-12-30T14:24:39.000Z</Time>
            <Position>
              <LatitudeDegrees>40.7363050617277622222900390625</LatitudeDegrees>
              <LongitudeDegrees>-4.06862676143646240234375</LongitudeDegrees>
            </Position>
            <AltitudeMeters>1200</AltitudeMeters>
            <DistanceMeters>NAN</DistanceMeters>
          </Trackpoint>
          <Trackpoint>
            <Time>2018-12-30T14:24:40.000Z</Time>
            <Position>
              <LatitudeDegrees>40.73630648665130138397216796875</LatitudeDegrees>
              <LongitudeDegrees>-4.06862801872193813323974609375</LongitudeDegrees>
            </Position>
            <AltitudeMeters>1199.5999755859375</AltitudeMeters>
            <DistanceMeters>NAN</DistanceMeters>
          </Trackpoint>
          <Trackpoint>
            <Time>2018-12-30T14:24:41.000Z</Time>
            <Position>
              <LatitudeDegrees>40.73631294071674346923828125</LatitudeDegrees>
              <LongitudeDegrees>-4.06862877309322357177734375</LongitudeDegrees>
            </Position>
            <AltitudeMeters>1199.5999755859375</AltitudeMeters>
            <DistanceMeters>NAN</DistanceMeters>
          </Trackpoint>
          <Trackpoint>
            <Time>2018-12-30T14:24:42.000Z</Time>
            <Position>
              <LatitudeDegrees>40.73632207699120044708251953125</LatitudeDegrees>
              <LongitudeDegrees>-4.068625085055828094482421875</LongitudeDegrees>
            </Position>
            <AltitudeMeters>1199.4000244140625</AltitudeMeters>
            <DistanceMeters>NAN</DistanceMeters>
          </Trackpoint>
          <Trackpoint>
            <Time>2018-12-30T14:24:43.000Z</Time>
            <Position>
              <LatitudeDegrees>40.73633666150271892547607421875</LatitudeDegrees>
              <LongitudeDegrees>-4.0686229057610034942626953125</LongitudeDegrees>
            </Position>
            <AltitudeMeters>1199.199951171875</AltitudeMeters>
            <DistanceMeters>NAN</DistanceMeters>
          </Trackpoint>
          <Trackpoint>
            <Time>2018-12-30T14:24:44.000Z</Time>
            <Position>
              <LatitudeDegrees>40.736350826919078826904296875</LatitudeDegrees>
              <LongitudeDegrees>-4.06861695460975170135498046875</LongitudeDegrees>
            </Position>
            <AltitudeMeters>1199.199951171875</AltitudeMeters>
            <DistanceMeters>NAN</DistanceMeters>
          </Trackpoint>
          <Trackpoint>
            <Time>2018-12-30T14:24:45.000Z</Time>
            <Position>
              <LatitudeDegrees>40.736363567411899566650390625</LatitudeDegrees>
              <LongitudeDegrees>-4.06860421411693096160888671875</LongitudeDegrees>
            </Position>
            <AltitudeMeters>1198.800048828125</AltitudeMeters>
            <DistanceMeters>NAN</DistanceMeters>
          </Trackpoint>
          <Trackpoint>
            <Time>2018-12-30T14:24:46.000Z</Time>
            <Position>
              <LatitudeDegrees>40.73637806810438632965087890625</LatitudeDegrees>
              <LongitudeDegrees>-4.06858862377703189849853515625</LongitudeDegrees>
            </Position>
            <AltitudeMeters>1198.4000244140625</AltitudeMeters>
            <DistanceMeters>NAN</DistanceMeters>
          </Trackpoint>
          <Trackpoint>
            <Time>2018-12-30T14:24:47.000Z</Time>
            <Position>
              <LatitudeDegrees>40.73638795875012874603271484375</LatitudeDegrees>
              <LongitudeDegrees>-4.06857521273195743560791015625</LongitudeDegrees>
            </Position>
            <AltitudeMeters>1197.800048828125</AltitudeMeters>
            <DistanceMeters>NAN</DistanceMeters>
          </Trackpoint>
          <Trackpoint>
            <Time>2018-12-30T14:24:48.000Z</Time>
            <Position>
              <LatitudeDegrees>40.73639164678752422332763671875</LatitudeDegrees>
              <LongitudeDegrees>-4.0685625560581684112548828125</LongitudeDegrees>
            </Position>
            <AltitudeMeters>1197.199951171875</AltitudeMeters>
            <DistanceMeters>NAN</DistanceMeters>
          </Trackpoint>
          <Trackpoint>
            <Time>2018-12-30T14:24:49.000Z</Time>
            <Position>
              <LatitudeDegrees>40.73639483191072940826416015625</LatitudeDegrees>
              <LongitudeDegrees>-4.068564064800739288330078125</LongitudeDegrees>
            </Position>
            <AltitudeMeters>1197.199951171875</AltitudeMeters>
            <DistanceMeters>NAN</DistanceMeters>
          </Trackpoint>
          <Trackpoint>
            <Time>2018-12-30T14:24:50.000Z</Time>
            <Position>
              <LatitudeDegrees>40.73640572838485240936279296875</LatitudeDegrees>
              <LongitudeDegrees>-4.06856515444815158843994140625</LongitudeDegrees>
            </Position>
            <AltitudeMeters>1197</AltitudeMeters>
            <DistanceMeters>NAN</DistanceMeters>
          </Trackpoint>
          <Trackpoint>
            <Time>2018-12-30T14:24:51.000Z</Time>
            <Position>
              <LatitudeDegrees>40.73641109280288219451904296875</LatitudeDegrees>
              <LongitudeDegrees>-4.06857303343713283538818359375</LongitudeDegrees>
            </Position>
            <AltitudeMeters>1197</AltitudeMeters>
            <DistanceMeters>NAN</DistanceMeters>
          </Trackpoint>
          <Trackpoint>
            <Time>2018-12-30T14:24:52.000Z</Time>
            <Position>
              <LatitudeDegrees>40.73641813360154628753662109375</LatitudeDegrees>
              <LongitudeDegrees>-4.06858208589255809783935546875</LongitudeDegrees>
            </Position>
            <AltitudeMeters>1196.800048828125</AltitudeMeters>
            <DistanceMeters>NAN</DistanceMeters>
          </Trackpoint>
          <Trackpoint>
            <Time>2018-12-30T14:24:53.000Z</Time>
            <Position>
              <LatitudeDegrees>40.7364271022379398345947265625</LatitudeDegrees>
              <LongitudeDegrees>-4.068590216338634490966796875</LongitudeDegrees>
            </Position>
            <AltitudeMeters>1196.800048828125</AltitudeMeters>
            <DistanceMeters>NAN</DistanceMeters>
          </Trackpoint>
          <Trackpoint>
            <Time>2018-12-30T14:24:54.000Z</Time>
            <Position>
              <LatitudeDegrees>40.7364358194172382354736328125</LatitudeDegrees>
              <LongitudeDegrees>-4.0685947425663471221923828125</LongitudeDegrees>
            </Position>
            <AltitudeMeters>1196.800048828125</AltitudeMeters>
            <DistanceMeters>NAN</DistanceMeters>
          </Trackpoint>
          <Trackpoint>
            <Time>2018-12-30T14:24:55.000Z</Time>
            <Position>
              <LatitudeDegrees>40.73644462041556835174560546875</LatitudeDegrees>
              <LongitudeDegrees>-4.06859792768955230712890625</LongitudeDegrees>
            </Position>
            <AltitudeMeters>1196.5999755859375</AltitudeMeters>
            <DistanceMeters>NAN</DistanceMeters>
          </Trackpoint>
          <Trackpoint>
            <Time>2018-12-30T14:24:56.000Z</Time>
            <Position>
              <LatitudeDegrees>40.7364557683467864990234375</LatitudeDegrees>
              <LongitudeDegrees>-4.0685984306037425994873046875</LongitudeDegrees>
            </Position>
            <AltitudeMeters>1196.5999755859375</AltitudeMeters>
            <DistanceMeters>NAN</DistanceMeters>
          </Trackpoint>
          <Trackpoint>
            <Time>2018-12-30T14:24:57.000Z</Time>
            <Position>
              <LatitudeDegrees>40.73647278361022472381591796875</LatitudeDegrees>
              <LongitudeDegrees>-4.06859868206083774566650390625</LongitudeDegrees>
            </Position>
            <AltitudeMeters>1196.4000244140625</AltitudeMeters>
            <DistanceMeters>NAN</DistanceMeters>
          </Trackpoint>
          <Trackpoint>
            <Time>2018-12-30T14:24:58.000Z</Time>
            <Position>
              <LatitudeDegrees>40.73649466037750244140625</LatitudeDegrees>
              <LongitudeDegrees>-4.0685994364321231842041015625</LongitudeDegrees>
            </Position>
            <AltitudeMeters>1196</AltitudeMeters>
            <DistanceMeters>NAN</DistanceMeters>
          </Trackpoint>
          <Trackpoint>
            <Time>2018-12-30T14:24:59.000Z</Time>
            <Position>
              <LatitudeDegrees>40.73651720769703388214111328125</LatitudeDegrees>
              <LongitudeDegrees>-4.06859926879405975341796875</LongitudeDegrees>
            </Position>
            <AltitudeMeters>1195.5999755859375</AltitudeMeters>
            <DistanceMeters>NAN</DistanceMeters>
          </Trackpoint>
          <Trackpoint>
            <Time>2018-12-30T14:25:00.000Z</Time>
            <Position>
              <LatitudeDegrees>40.73654252104461193084716796875</LatitudeDegrees>
              <LongitudeDegrees>-4.06859667040407657623291015625</LongitudeDegrees>
            </Position>
            <AltitudeMeters>1195</AltitudeMeters>
            <DistanceMeters>NAN</DistanceMeters>
          </Trackpoint>
          <Trackpoint>
            <Time>2018-12-30T14:25:01.000Z</Time>
            <Position>
              <LatitudeDegrees>40.736562050879001617431640625</LatitudeDegrees>
              <LongitudeDegrees>-4.06859365291893482208251953125</LongitudeDegrees>
            </Position>
            <AltitudeMeters>1194.5999755859375</AltitudeMeters>
            <DistanceMeters>NAN</DistanceMeters>
          </Trackpoint>
          <Trackpoint>
            <Time>2018-12-30T14:25:02.000Z</Time>
            <Position>
              <LatitudeDegrees>40.736577473580837249755859375</LatitudeDegrees>
              <LongitudeDegrees>-4.06858996488153934478759765625</LongitudeDegrees>
            </Position>
            <AltitudeMeters>1194</AltitudeMeters>
            <DistanceMeters>NAN</DistanceMeters>
          </Trackpoint>
          <Trackpoint>
            <Time>2018-12-30T14:25:03.000Z</Time>
            <Position>
              <LatitudeDegrees>40.7365925610065460205078125</LatitudeDegrees>
              <LongitudeDegrees>-4.06858610920608043670654296875</LongitudeDegrees>
            </Position>
            <AltitudeMeters>1193.5999755859375</AltitudeMeters>
            <DistanceMeters>NAN</DistanceMeters>
          </Trackpoint>
          <Trackpoint>
            <Time>2018-12-30T14:25:04.000Z</Time>
            <Position>
              <LatitudeDegrees>40.73660940863192081451416015625</LatitudeDegrees>
              <LongitudeDegrees>-4.06857638619840145111083984375</LongitudeDegrees>
            </Position>
            <AltitudeMeters>1193.4000244140625</AltitudeMeters>
            <DistanceMeters>NAN</DistanceMeters>
          </Trackpoint>
          <Trackpoint>
            <Time>2018-12-30T14:25:05.000Z</Time>
            <Position>
              <LatitudeDegrees>40.7366249151527881622314453125</LatitudeDegrees>
              <LongitudeDegrees>-4.0685622207820415496826171875</LongitudeDegrees>
            </Position>
            <AltitudeMeters>1193</AltitudeMeters>
            <DistanceMeters>NAN</DistanceMeters>
          </Trackpoint>
          <Trackpoint>
            <Time>2018-12-30T14:25:06.000Z</Time>
            <Position>
              <LatitudeDegrees>40.736634470522403717041015625</LatitudeDegrees>
              <LongitudeDegrees>-4.06854654662311077117919921875</LongitudeDegrees>
            </Position>
            <AltitudeMeters>1192.800048828125</AltitudeMeters>
            <DistanceMeters>NAN</DistanceMeters>
          </Trackpoint>
          <Trackpoint>
            <Time>2018-12-30T14:25:07.000Z</Time>
            <Position>
              <LatitudeDegrees>40.736649893224239349365234375</LatitudeDegrees>
              <LongitudeDegrees>-4.06854017637670040130615234375</LongitudeDegrees>
            </Position>
            <AltitudeMeters>1192.5999755859375</AltitudeMeters>
            <DistanceMeters>NAN</DistanceMeters>
          </Trackpoint>
          <Trackpoint>
            <Time>2018-12-30T14:25:08.000Z</Time>
            <Position>
              <LatitudeDegrees>40.73666824959218502044677734375</LatitudeDegrees>
              <LongitudeDegrees>-4.068536572158336639404296875</LongitudeDegrees>
            </Position>
            <AltitudeMeters>1192.199951171875</AltitudeMeters>
            <DistanceMeters>NAN</DistanceMeters>
          </Trackpoint>
          <Trackpoint>
            <Time>2018-12-30T14:25:09.000Z</Time>
            <Position>
              <LatitudeDegrees>40.73668903671205043792724609375</LatitudeDegrees>
              <LongitudeDegrees>-4.068527184426784515380859375</LongitudeDegrees>
            </Position>
            <AltitudeMeters>1192</AltitudeMeters>
            <DistanceMeters>NAN</DistanceMeters>
          </Trackpoint>
          <Trackpoint>
            <Time>2018-12-30T14:25:10.000Z</Time>
            <Position>
              <LatitudeDegrees>40.736708901822566986083984375</LatitudeDegrees>
              <LongitudeDegrees>-4.06851033680140972137451171875</LongitudeDegrees>
            </Position>
            <AltitudeMeters>1191.800048828125</AltitudeMeters>
            <DistanceMeters>NAN</DistanceMeters>
          </Trackpoint>
          <Trackpoint>
            <Time>2018-12-30T14:25:11.000Z</Time>
            <Position>
              <LatitudeDegrees>40.73671468533575534820556640625</LatitudeDegrees>
              <LongitudeDegrees>-4.06849441118538379669189453125</LongitudeDegrees>
            </Position>
            <AltitudeMeters>1191.5999755859375</AltitudeMeters>
            <DistanceMeters>NAN</DistanceMeters>
          </Trackpoint>
          <Trackpoint>
            <Time>2018-12-30T14:25:12.000Z</Time>
            <Position>
              <LatitudeDegrees>40.73670923709869384765625</LatitudeDegrees>
              <LongitudeDegrees>-4.06847513280808925628662109375</LongitudeDegrees>
            </Position>
            <AltitudeMeters>1191.4000244140625</AltitudeMeters>
            <DistanceMeters>NAN</DistanceMeters>
          </Trackpoint>
          <Trackpoint>
            <Time>2018-12-30T14:25:13.000Z</Time>
            <Position>
              <LatitudeDegrees>40.736698172986507415771484375</LatitudeDegrees>
              <LongitudeDegrees>-4.06846390105783939361572265625</LongitudeDegrees>
            </Position>
            <AltitudeMeters>1191</AltitudeMeters>
            <DistanceMeters>NAN</DistanceMeters>
          </Trackpoint>
          <Trackpoint>
            <Time>2018-12-30T14:25:14.000Z</Time>
            <Position>
              <LatitudeDegrees>40.736686773598194122314453125</LatitudeDegrees>
              <LongitudeDegrees>-4.06845283694565296173095703125</LongitudeDegrees>
            </Position>
            <AltitudeMeters>1190.800048828125</AltitudeMeters>
            <DistanceMeters>NAN</DistanceMeters>
          </Trackpoint>
          <Trackpoint>
            <Time>2018-12-30T14:25:15.000Z</Time>
            <Position>
              <LatitudeDegrees>40.73667143471539020538330078125</LatitudeDegrees>
              <LongitudeDegrees>-4.0684472210705280303955078125</LongitudeDegrees>
            </Position>
            <AltitudeMeters>1190.5999755859375</AltitudeMeters>
            <DistanceMeters>NAN</DistanceMeters>
          </Trackpoint>
          <Trackpoint>
            <Time>2018-12-30T14:25:16.000Z</Time>
            <Position>
              <LatitudeDegrees>40.73665467090904712677001953125</LatitudeDegrees>
              <LongitudeDegrees>-4.0684472210705280303955078125</LongitudeDegrees>
            </Position>
            <AltitudeMeters>1190.4000244140625</AltitudeMeters>
            <DistanceMeters>NAN</DistanceMeters>
          </Trackpoint>
          <Trackpoint>
            <Time>2018-12-30T14:25:17.000Z</Time>
            <Position>
              <LatitudeDegrees>40.73664125986397266387939453125</LatitudeDegrees>
              <LongitudeDegrees>-4.06843640841543674468994140625</LongitudeDegrees>
            </Position>
            <AltitudeMeters>1189.800048828125</AltitudeMeters>
            <DistanceMeters>NAN</DistanceMeters>
          </Trackpoint>
          <Trackpoint>
            <Time>2018-12-30T14:25:18.000Z</Time>
            <Position>
              <LatitudeDegrees>40.73662784881889820098876953125</LatitudeDegrees>
              <LongitudeDegrees>-4.06843322329223155975341796875</LongitudeDegrees>
            </Position>
            <AltitudeMeters>1189.199951171875</AltitudeMeters>
            <DistanceMeters>NAN</DistanceMeters>
          </Trackpoint>
          <Trackpoint>
            <Time>2018-12-30T14:25:19.000Z</Time>
            <Position>
              <LatitudeDegrees>40.7366279326379299163818359375</LatitudeDegrees>
              <LongitudeDegrees>-4.06842852942645549774169921875</LongitudeDegrees>
            </Position>
            <AltitudeMeters>1189</AltitudeMeters>
            <DistanceMeters>NAN</DistanceMeters>
          </Trackpoint>
          <Trackpoint>
            <Time>2018-12-30T14:25:20.000Z</Time>
            <Position>
              <LatitudeDegrees>40.7366359792649745941162109375</LatitudeDegrees>
              <LongitudeDegrees>-4.0684240870177745819091796875</LongitudeDegrees>
            </Position>
            <AltitudeMeters>1188.800048828125</AltitudeMeters>
            <DistanceMeters>NAN</DistanceMeters>
          </Trackpoint>
          <Trackpoint>
            <Time>2018-12-30T14:25:21.000Z</Time>
            <Position>
              <LatitudeDegrees>40.736648552119731903076171875</LatitudeDegrees>
              <LongitudeDegrees>-4.06842417083680629730224609375</LongitudeDegrees>
            </Position>
            <AltitudeMeters>1188.5999755859375</AltitudeMeters>
            <DistanceMeters>NAN</DistanceMeters>
          </Trackpoint>
          <Trackpoint>
            <Time>2018-12-30T14:25:22.000Z</Time>
            <Position>
              <LatitudeDegrees>40.7366597838699817657470703125</LatitudeDegrees>
              <LongitudeDegrees>-4.06842802651226520538330078125</LongitudeDegrees>
            </Position>
            <AltitudeMeters>1188.5999755859375</AltitudeMeters>
            <DistanceMeters>NAN</DistanceMeters>
          </Trackpoint>
          <Trackpoint>
            <Time>2018-12-30T14:25:23.000Z</Time>
            <Position>
              <LatitudeDegrees>40.73666741140186786651611328125</LatitudeDegrees>
              <LongitudeDegrees>-4.06843003816902637481689453125</LongitudeDegrees>
            </Position>
            <AltitudeMeters>1188.4000244140625</AltitudeMeters>
            <DistanceMeters>NAN</DistanceMeters>
          </Trackpoint>
          <Trackpoint>
            <Time>2018-12-30T14:25:24.000Z</Time>
            <Position>
              <LatitudeDegrees>40.7366758771240711212158203125</LatitudeDegrees>
              <LongitudeDegrees>-4.06843431293964385986328125</LongitudeDegrees>
            </Position>
            <AltitudeMeters>1188.199951171875</AltitudeMeters>
            <DistanceMeters>NAN</DistanceMeters>
          </Trackpoint>
          <Trackpoint>
            <Time>2018-12-30T14:25:25.000Z</Time>
            <Position>
              <LatitudeDegrees>40.7366902939975261688232421875</LatitudeDegrees>
              <LongitudeDegrees>-4.06843473203480243682861328125</LongitudeDegrees>
            </Position>
            <AltitudeMeters>1188</AltitudeMeters>
            <DistanceMeters>NAN</DistanceMeters>
          </Trackpoint>
          <Trackpoint>
            <Time>2018-12-30T14:25:26.000Z</Time>
            <Position>
              <LatitudeDegrees>40.73670110665261745452880859375</LatitudeDegrees>
              <LongitudeDegrees>-4.068430624902248382568359375</LongitudeDegrees>
            </Position>
            <AltitudeMeters>1187.800048828125</AltitudeMeters>
            <DistanceMeters>NAN</DistanceMeters>
          </Trackpoint>
          <Trackpoint>
            <Time>2018-12-30T14:25:27.000Z</Time>
            <Position>
              <LatitudeDegrees>40.7367164455354213714599609375</LatitudeDegrees>
              <LongitudeDegrees>-4.0684271045029163360595703125</LongitudeDegrees>
            </Position>
            <AltitudeMeters>1187.4000244140625</AltitudeMeters>
            <DistanceMeters>NAN</DistanceMeters>
          </Trackpoint>
          <Trackpoint>
            <Time>2018-12-30T14:25:28.000Z</Time>
            <Position>
              <LatitudeDegrees>40.73673564009368419647216796875</LatitudeDegrees>
              <LongitudeDegrees>-4.068425595760345458984375</LongitudeDegrees>
            </Position>
            <AltitudeMeters>1187.199951171875</AltitudeMeters>
            <DistanceMeters>NAN</DistanceMeters>
          </Trackpoint>
          <Trackpoint>
            <Time>2018-12-30T14:25:29.000Z</Time>
            <Position>
              <LatitudeDegrees>40.7367486320436000823974609375</LatitudeDegrees>
              <LongitudeDegrees>-4.0684224106371402740478515625</LongitudeDegrees>
            </Position>
            <AltitudeMeters>1187</AltitudeMeters>
            <DistanceMeters>NAN</DistanceMeters>
          </Trackpoint>
          <Trackpoint>
            <Time>2018-12-30T14:25:30.000Z</Time>
            <Position>
              <LatitudeDegrees>40.7367593608796596527099609375</LatitudeDegrees>
              <LongitudeDegrees>-4.0684200637042522430419921875</LongitudeDegrees>
            </Position>
            <AltitudeMeters>1186.800048828125</AltitudeMeters>
            <DistanceMeters>NAN</DistanceMeters>
          </Trackpoint>
          <Trackpoint>
            <Time>2018-12-30T14:25:31.000Z</Time>
            <Position>
              <LatitudeDegrees>40.7367684133350849151611328125</LatitudeDegrees>
              <LongitudeDegrees>-4.068417213857173919677734375</LongitudeDegrees>
            </Position>
            <AltitudeMeters>1186.4000244140625</AltitudeMeters>
            <DistanceMeters>NAN</DistanceMeters>
          </Trackpoint>
          <Trackpoint>
            <Time>2018-12-30T14:25:32.000Z</Time>
            <Position>
              <LatitudeDegrees>40.73677771724760532379150390625</LatitudeDegrees>
              <LongitudeDegrees>-4.0684076584875583648681640625</LongitudeDegrees>
            </Position>
            <AltitudeMeters>1186.199951171875</AltitudeMeters>
            <DistanceMeters>NAN</DistanceMeters>
          </Trackpoint>
          <Trackpoint>
            <Time>2018-12-30T14:25:33.000Z</Time>
            <Position>
              <LatitudeDegrees>40.736790038645267486572265625</LatitudeDegrees>
              <LongitudeDegrees>-4.0684089995920658111572265625</LongitudeDegrees>
            </Position>
            <AltitudeMeters>1185.800048828125</AltitudeMeters>
            <DistanceMeters>NAN</DistanceMeters>
          </Trackpoint>
          <Trackpoint>
            <Time>2018-12-30T14:25:34.000Z</Time>
            <Position>
              <LatitudeDegrees>40.736803449690341949462890625</LatitudeDegrees>
              <LongitudeDegrees>-4.068412519991397857666015625</LongitudeDegrees>
            </Position>
            <AltitudeMeters>1185.800048828125</AltitudeMeters>
            <DistanceMeters>NAN</DistanceMeters>
          </Trackpoint>
          <Trackpoint>
            <Time>2018-12-30T14:25:35.000Z</Time>
            <Position>
              <LatitudeDegrees>40.73682524263858795166015625</LatitudeDegrees>
              <LongitudeDegrees>-4.0684081614017486572265625</LongitudeDegrees>
            </Position>
            <AltitudeMeters>1185.5999755859375</AltitudeMeters>
            <DistanceMeters>NAN</DistanceMeters>
          </Trackpoint>
          <Trackpoint>
            <Time>2018-12-30T14:25:36.000Z</Time>
            <Position>
              <LatitudeDegrees>40.73683873750269412994384765625</LatitudeDegrees>
              <LongitudeDegrees>-4.068403132259845733642578125</LongitudeDegrees>
            </Position>
            <AltitudeMeters>1185.199951171875</AltitudeMeters>
            <DistanceMeters>NAN</DistanceMeters>
          </Trackpoint>
          <Trackpoint>
            <Time>2018-12-30T14:25:37.000Z</Time>
            <Position>
              <LatitudeDegrees>40.736846365034580230712890625</LatitudeDegrees>
              <LongitudeDegrees>-4.06840589828789234161376953125</LongitudeDegrees>
            </Position>
            <AltitudeMeters>1184.800048828125</AltitudeMeters>
            <DistanceMeters>NAN</DistanceMeters>
          </Trackpoint>
          <Trackpoint>
            <Time>2018-12-30T14:25:38.000Z</Time>
            <Position>
              <LatitudeDegrees>40.7368579320609569549560546875</LatitudeDegrees>
              <LongitudeDegrees>-4.06841293908655643463134765625</LongitudeDegrees>
            </Position>
            <AltitudeMeters>1184.4000244140625</AltitudeMeters>
            <DistanceMeters>NAN</DistanceMeters>
          </Trackpoint>
          <Trackpoint>
            <Time>2018-12-30T14:25:39.000Z</Time>
            <Position>
              <LatitudeDegrees>40.736868493258953094482421875</LatitudeDegrees>
              <LongitudeDegrees>-4.06842098571360111236572265625</LongitudeDegrees>
            </Position>
            <AltitudeMeters>1184.199951171875</AltitudeMeters>
            <DistanceMeters>NAN</DistanceMeters>
          </Trackpoint>
          <Trackpoint>
            <Time>2018-12-30T14:25:40.000Z</Time>
            <Position>
              <LatitudeDegrees>40.73688953183591365814208984375</LatitudeDegrees>
              <LongitudeDegrees>-4.06842668540775775909423828125</LongitudeDegrees>
            </Position>
            <AltitudeMeters>1183.800048828125</AltitudeMeters>
            <DistanceMeters>NAN</DistanceMeters>
          </Trackpoint>
          <Trackpoint>
            <Time>2018-12-30T14:25:41.000Z</Time>
            <Position>
              <LatitudeDegrees>40.73690847493708133697509765625</LatitudeDegrees>
              <LongitudeDegrees>-4.06843020580708980560302734375</LongitudeDegrees>
            </Position>
            <AltitudeMeters>1183.4000244140625</AltitudeMeters>
            <DistanceMeters>NAN</DistanceMeters>
          </Trackpoint>
          <Trackpoint>
            <Time>2018-12-30T14:25:42.000Z</Time>
            <Position>
              <LatitudeDegrees>40.73693999089300632476806640625</LatitudeDegrees>
              <LongitudeDegrees>-4.0684220753610134124755859375</LongitudeDegrees>
            </Position>
            <AltitudeMeters>1182.800048828125</AltitudeMeters>
            <DistanceMeters>NAN</DistanceMeters>
          </Trackpoint>
          <Trackpoint>
            <Time>2018-12-30T14:25:43.000Z</Time>
            <Position>
              <LatitudeDegrees>40.736967734992504119873046875</LatitudeDegrees>
              <LongitudeDegrees>-4.06840573064982891082763671875</LongitudeDegrees>
            </Position>
            <AltitudeMeters>1182.199951171875</AltitudeMeters>
            <DistanceMeters>NAN</DistanceMeters>
          </Trackpoint>
          <Trackpoint>
            <Time>2018-12-30T14:25:44.000Z</Time>
            <Position>
              <LatitudeDegrees>40.7369695790112018585205078125</LatitudeDegrees>
              <LongitudeDegrees>-4.06838871538639068603515625</LongitudeDegrees>
            </Position>
            <AltitudeMeters>1182</AltitudeMeters>
            <DistanceMeters>NAN</DistanceMeters>
          </Trackpoint>
          <Trackpoint>
            <Time>2018-12-30T14:25:45.000Z</Time>
            <Position>
              <LatitudeDegrees>40.73696061037480831146240234375</LatitudeDegrees>
              <LongitudeDegrees>-4.06837170012295246124267578125</LongitudeDegrees>
            </Position>
            <AltitudeMeters>1181.5999755859375</AltitudeMeters>
            <DistanceMeters>NAN</DistanceMeters>
          </Trackpoint>
          <Trackpoint>
            <Time>2018-12-30T14:25:46.000Z</Time>
            <Position>
              <LatitudeDegrees>40.73695256374776363372802734375</LatitudeDegrees>
              <LongitudeDegrees>-4.06836030073463916778564453125</LongitudeDegrees>
            </Position>
            <AltitudeMeters>1181.4000244140625</AltitudeMeters>
            <DistanceMeters>NAN</DistanceMeters>
          </Trackpoint>
          <Trackpoint>
            <Time>2018-12-30T14:25:47.000Z</Time>
            <Position>
              <LatitudeDegrees>40.73693898506462574005126953125</LatitudeDegrees>
              <LongitudeDegrees>-4.06835921108722686767578125</LongitudeDegrees>
            </Position>
            <AltitudeMeters>1181.4000244140625</AltitudeMeters>
            <DistanceMeters>NAN</DistanceMeters>
          </Trackpoint>
          <Trackpoint>
            <Time>2018-12-30T14:25:48.000Z</Time>
            <Position>
              <LatitudeDegrees>40.736932866275310516357421875</LatitudeDegrees>
              <LongitudeDegrees>-4.06835828907787799835205078125</LongitudeDegrees>
            </Position>
            <AltitudeMeters>1181.199951171875</AltitudeMeters>
            <DistanceMeters>NAN</DistanceMeters>
          </Trackpoint>
          <Trackpoint>
            <Time>2018-12-30T14:25:49.000Z</Time>
            <Position>
              <LatitudeDegrees>40.73692859150469303131103515625</LatitudeDegrees>
              <LongitudeDegrees>-4.0683598816394805908203125</LongitudeDegrees>
            </Position>
            <AltitudeMeters>1181</AltitudeMeters>
            <DistanceMeters>NAN</DistanceMeters>
          </Trackpoint>
          <Trackpoint>
            <Time>2018-12-30T14:25:50.000Z</Time>
            <Position>
              <LatitudeDegrees>40.73692691512405872344970703125</LatitudeDegrees>
              <LongitudeDegrees>-4.0683577023446559906005859375</LongitudeDegrees>
            </Position>
            <AltitudeMeters>1180.5999755859375</AltitudeMeters>
            <DistanceMeters>NAN</DistanceMeters>
          </Trackpoint>
          <Trackpoint>
            <Time>2018-12-30T14:25:51.000Z</Time>
            <Position>
              <LatitudeDegrees>40.7369197905063629150390625</LatitudeDegrees>
              <LongitudeDegrees>-4.0683419443666934967041015625</LongitudeDegrees>
            </Position>
            <AltitudeMeters>1180.4000244140625</AltitudeMeters>
            <DistanceMeters>NAN</DistanceMeters>
          </Trackpoint>
          <Trackpoint>
            <Time>2018-12-30T14:25:52.000Z</Time>
            <Position>
              <LatitudeDegrees>40.7369077205657958984375</LatitudeDegrees>
              <LongitudeDegrees>-4.06832928769290447235107421875</LongitudeDegrees>
            </Position>
            <AltitudeMeters>1180.199951171875</AltitudeMeters>
            <DistanceMeters>NAN</DistanceMeters>
          </Trackpoint>
          <Trackpoint>
            <Time>2018-12-30T14:25:53.000Z</Time>
            <Position>
              <LatitudeDegrees>40.73689875192940235137939453125</LatitudeDegrees>
              <LongitudeDegrees>-4.06831763684749603271484375</LongitudeDegrees>
            </Position>
            <AltitudeMeters>1179.800048828125</AltitudeMeters>
            <DistanceMeters>NAN</DistanceMeters>
          </Trackpoint>
          <Trackpoint>
            <Time>2018-12-30T14:25:54.000Z</Time>
            <Position>
              <LatitudeDegrees>40.73688684962689876556396484375</LatitudeDegrees>
              <LongitudeDegrees>-4.0683121047914028167724609375</LongitudeDegrees>
            </Position>
            <AltitudeMeters>1179.4000244140625</AltitudeMeters>
            <DistanceMeters>NAN</DistanceMeters>
          </Trackpoint>
          <Trackpoint>
            <Time>2018-12-30T14:25:55.000Z</Time>
            <Position>
              <LatitudeDegrees>40.73686857707798480987548828125</LatitudeDegrees>
              <LongitudeDegrees>-4.0682966820895671844482421875</LongitudeDegrees>
            </Position>
            <AltitudeMeters>1179</AltitudeMeters>
            <DistanceMeters>NAN</DistanceMeters>
          </Trackpoint>
          <Trackpoint>
            <Time>2018-12-30T14:25:56.000Z</Time>
            <Position>
              <LatitudeDegrees>40.73685131035745143890380859375</LatitudeDegrees>
              <LongitudeDegrees>-4.06828503124415874481201171875</LongitudeDegrees>
            </Position>
            <AltitudeMeters>1178.800048828125</AltitudeMeters>
            <DistanceMeters>NAN</DistanceMeters>
          </Trackpoint>
          <Trackpoint>
            <Time>2018-12-30T14:25:57.000Z</Time>
            <Position>
              <LatitudeDegrees>40.73683840222656726837158203125</LatitudeDegrees>
              <LongitudeDegrees>-4.06826524995267391204833984375</LongitudeDegrees>
            </Position>
            <AltitudeMeters>1178.4000244140625</AltitudeMeters>
            <DistanceMeters>NAN</DistanceMeters>
          </Trackpoint>
          <Trackpoint>
            <Time>2018-12-30T14:25:58.000Z</Time>
            <Position>
              <LatitudeDegrees>40.73682901449501514434814453125</LatitudeDegrees>
              <LongitudeDegrees>-4.06826022081077098846435546875</LongitudeDegrees>
            </Position>
            <AltitudeMeters>1178.199951171875</AltitudeMeters>
            <DistanceMeters>NAN</DistanceMeters>
          </Trackpoint>
          <Trackpoint>
            <Time>2018-12-30T14:25:59.000Z</Time>
            <Position>
              <LatitudeDegrees>40.73681828565895557403564453125</LatitudeDegrees>
              <LongitudeDegrees>-4.068253599107265472412109375</LongitudeDegrees>
            </Position>
            <AltitudeMeters>1177.800048828125</AltitudeMeters>
            <DistanceMeters>NAN</DistanceMeters>
          </Trackpoint>
          <Trackpoint>
            <Time>2018-12-30T14:26:00.000Z</Time>
            <Position>
              <LatitudeDegrees>40.73680353350937366485595703125</LatitudeDegrees>
              <LongitudeDegrees>-4.0682353265583515167236328125</LongitudeDegrees>
            </Position>
            <AltitudeMeters>1177.5999755859375</AltitudeMeters>
            <DistanceMeters>NAN</DistanceMeters>
          </Trackpoint>
          <Trackpoint>
            <Time>2018-12-30T14:26:01.000Z</Time>
            <Position>
              <LatitudeDegrees>40.73679045774042606353759765625</LatitudeDegrees>
              <LongitudeDegrees>-4.06822015531361103057861328125</LongitudeDegrees>
            </Position>
            <AltitudeMeters>1177.4000244140625</AltitudeMeters>
            <DistanceMeters>NAN</DistanceMeters>
          </Trackpoint>
          <Trackpoint>
            <Time>2018-12-30T14:26:02.000Z</Time>
            <Position>
              <LatitudeDegrees>40.736779309809207916259765625</LatitudeDegrees>
              <LongitudeDegrees>-4.068214707076549530029296875</LongitudeDegrees>
            </Position>
            <AltitudeMeters>1177.199951171875</AltitudeMeters>
            <DistanceMeters>NAN</DistanceMeters>
          </Trackpoint>
          <Trackpoint>
            <Time>2018-12-30T14:26:03.000Z</Time>
            <Position>
              <LatitudeDegrees>40.73676363565027713775634765625</LatitudeDegrees>
              <LongitudeDegrees>-4.06820540316402912139892578125</LongitudeDegrees>
            </Position>
            <AltitudeMeters>1177</AltitudeMeters>
            <DistanceMeters>NAN</DistanceMeters>
          </Trackpoint>
          <Trackpoint>
            <Time>2018-12-30T14:26:04.000Z</Time>
            <Position>
              <LatitudeDegrees>40.73674469254910945892333984375</LatitudeDegrees>
              <LongitudeDegrees>-4.06818159855902194976806640625</LongitudeDegrees>
            </Position>
            <AltitudeMeters>1176.5999755859375</AltitudeMeters>
            <DistanceMeters>NAN</DistanceMeters>
          </Trackpoint>
          <Trackpoint>
            <Time>2018-12-30T14:26:05.000Z</Time>
            <Position>
              <LatitudeDegrees>40.73672859929502010345458984375</LatitudeDegrees>
              <LongitudeDegrees>-4.06816517002880573272705078125</LongitudeDegrees>
            </Position>
            <AltitudeMeters>1176.4000244140625</AltitudeMeters>
            <DistanceMeters>NAN</DistanceMeters>
          </Trackpoint>
          <Trackpoint>
            <Time>2018-12-30T14:26:06.000Z</Time>
            <Position>
              <LatitudeDegrees>40.7367132604122161865234375</LatitudeDegrees>
              <LongitudeDegrees>-4.068153686821460723876953125</LongitudeDegrees>
            </Position>
            <AltitudeMeters>1176</AltitudeMeters>
            <DistanceMeters>NAN</DistanceMeters>
          </Trackpoint>
          <Trackpoint>
            <Time>2018-12-30T14:26:07.000Z</Time>
            <Position>
              <LatitudeDegrees>40.7367013581097126007080078125</LatitudeDegrees>
              <LongitudeDegrees>-4.06814756803214550018310546875</LongitudeDegrees>
            </Position>
            <AltitudeMeters>1175.800048828125</AltitudeMeters>
            <DistanceMeters>NAN</DistanceMeters>
          </Trackpoint>
          <Trackpoint>
            <Time>2018-12-30T14:26:08.000Z</Time>
            <Position>
              <LatitudeDegrees>40.736689455807209014892578125</LatitudeDegrees>
              <LongitudeDegrees>-4.068142287433147430419921875</LongitudeDegrees>
            </Position>
            <AltitudeMeters>1175.5999755859375</AltitudeMeters>
            <DistanceMeters>NAN</DistanceMeters>
          </Trackpoint>
          <Trackpoint>
            <Time>2018-12-30T14:26:09.000Z</Time>
            <Position>
              <LatitudeDegrees>40.73667814023792743682861328125</LatitudeDegrees>
              <LongitudeDegrees>-4.0681399405002593994140625</LongitudeDegrees>
            </Position>
            <AltitudeMeters>1175.5999755859375</AltitudeMeters>
            <DistanceMeters>NAN</DistanceMeters>
          </Trackpoint>
          <Trackpoint>
            <Time>2018-12-30T14:26:10.000Z</Time>
            <Position>
              <LatitudeDegrees>40.73666296899318695068359375</LatitudeDegrees>
              <LongitudeDegrees>-4.068126194179058074951171875</LongitudeDegrees>
            </Position>
            <AltitudeMeters>1175.5999755859375</AltitudeMeters>
            <DistanceMeters>NAN</DistanceMeters>
          </Trackpoint>
          <Trackpoint>
            <Time>2018-12-30T14:26:11.000Z</Time>
            <Position>
              <LatitudeDegrees>40.73665299452841281890869140625</LatitudeDegrees>
              <LongitudeDegrees>-4.06811781227588653564453125</LongitudeDegrees>
            </Position>
            <AltitudeMeters>1175.5999755859375</AltitudeMeters>
            <DistanceMeters>NAN</DistanceMeters>
          </Trackpoint>
          <Trackpoint>
            <Time>2018-12-30T14:26:12.000Z</Time>
            <Position>
              <LatitudeDegrees>40.7366517372429370880126953125</LatitudeDegrees>
              <LongitudeDegrees>-4.06811202876269817352294921875</LongitudeDegrees>
            </Position>
            <AltitudeMeters>1175.5999755859375</AltitudeMeters>
            <DistanceMeters>NAN</DistanceMeters>
          </Trackpoint>
          <Trackpoint>
            <Time>2018-12-30T14:26:13.000Z</Time>
            <Position>
              <LatitudeDegrees>40.736652575433254241943359375</LatitudeDegrees>
              <LongitudeDegrees>-4.06810314394533634185791015625</LongitudeDegrees>
            </Position>
            <AltitudeMeters>1175.5999755859375</AltitudeMeters>
            <DistanceMeters>NAN</DistanceMeters>
          </Trackpoint>
          <Trackpoint>
            <Time>2018-12-30T14:26:14.000Z</Time>
            <Position>
              <LatitudeDegrees>40.73665299452841281890869140625</LatitudeDegrees>
              <LongitudeDegrees>-4.0680904872715473175048828125</LongitudeDegrees>
            </Position>
            <AltitudeMeters>1175.5999755859375</AltitudeMeters>
            <DistanceMeters>NAN</DistanceMeters>
          </Trackpoint>
          <Trackpoint>
            <Time>2018-12-30T14:26:15.000Z</Time>
            <Position>
              <LatitudeDegrees>40.73664846830070018768310546875</LatitudeDegrees>
              <LongitudeDegrees>-4.0680633299052715301513671875</LongitudeDegrees>
            </Position>
            <AltitudeMeters>1175.4000244140625</AltitudeMeters>
            <DistanceMeters>NAN</DistanceMeters>
          </Trackpoint>
          <Trackpoint>
            <Time>2018-12-30T14:26:16.000Z</Time>
            <Position>
              <LatitudeDegrees>40.73665115050971508026123046875</LatitudeDegrees>
              <LongitudeDegrees>-4.06804271042346954345703125</LongitudeDegrees>
            </Position>
            <AltitudeMeters>1175.199951171875</AltitudeMeters>
            <DistanceMeters>NAN</DistanceMeters>
          </Trackpoint>
          <Trackpoint>
            <Time>2018-12-30T14:26:17.000Z</Time>
            <Position>
              <LatitudeDegrees>40.73665701784193515777587890625</LatitudeDegrees>
              <LongitudeDegrees>-4.0680190734565258026123046875</LongitudeDegrees>
            </Position>
            <AltitudeMeters>1175.199951171875</AltitudeMeters>
            <DistanceMeters>NAN</DistanceMeters>
          </Trackpoint>
          <Trackpoint>
            <Time>2018-12-30T14:26:18.000Z</Time>
            <Position>
              <LatitudeDegrees>40.736649222671985626220703125</LatitudeDegrees>
              <LongitudeDegrees>-4.0679751522839069366455078125</LongitudeDegrees>
            </Position>
            <AltitudeMeters>1175</AltitudeMeters>
            <DistanceMeters>NAN</DistanceMeters>
          </Trackpoint>
          <Trackpoint>
            <Time>2018-12-30T14:26:19.000Z</Time>
            <Position>
              <LatitudeDegrees>40.73665265925228595733642578125</LatitudeDegrees>
              <LongitudeDegrees>-4.0679441392421722412109375</LongitudeDegrees>
            </Position>
            <AltitudeMeters>1175</AltitudeMeters>
            <DistanceMeters>NAN</DistanceMeters>
          </Trackpoint>
          <Trackpoint>
            <Time>2018-12-30T14:26:20.000Z</Time>
            <Position>
              <LatitudeDegrees>40.73666204698383808135986328125</LatitudeDegrees>
              <LongitudeDegrees>-4.0679235197603702545166015625</LongitudeDegrees>
            </Position>
            <AltitudeMeters>1174.800048828125</AltitudeMeters>
            <DistanceMeters>NAN</DistanceMeters>
          </Trackpoint>
          <Trackpoint>
            <Time>2018-12-30T14:26:21.000Z</Time>
            <Position>
              <LatitudeDegrees>40.73667093180119991302490234375</LatitudeDegrees>
              <LongitudeDegrees>-4.0679054148495197296142578125</LongitudeDegrees>
            </Position>
            <AltitudeMeters>1174.5999755859375</AltitudeMeters>
            <DistanceMeters>NAN</DistanceMeters>
          </Trackpoint>
          <Trackpoint>
            <Time>2018-12-30T14:26:22.000Z</Time>
            <Position>
              <LatitudeDegrees>40.736678726971149444580078125</LatitudeDegrees>
              <LongitudeDegrees>-4.06788655556738376617431640625</LongitudeDegrees>
            </Position>
            <AltitudeMeters>1174.5999755859375</AltitudeMeters>
            <DistanceMeters>NAN</DistanceMeters>
          </Trackpoint>
          <Trackpoint>
            <Time>2018-12-30T14:26:23.000Z</Time>
            <Position>
              <LatitudeDegrees>40.7366849295794963836669921875</LatitudeDegrees>
              <LongitudeDegrees>-4.06786057166755199432373046875</LongitudeDegrees>
            </Position>
            <AltitudeMeters>1174.4000244140625</AltitudeMeters>
            <DistanceMeters>NAN</DistanceMeters>
          </Trackpoint>
          <Trackpoint>
            <Time>2018-12-30T14:26:24.000Z</Time>
            <Position>
              <LatitudeDegrees>40.736693479120731353759765625</LatitudeDegrees>
              <LongitudeDegrees>-4.0678390301764011383056640625</LongitudeDegrees>
            </Position>
            <AltitudeMeters>1174.199951171875</AltitudeMeters>
            <DistanceMeters>NAN</DistanceMeters>
          </Trackpoint>
          <Trackpoint>
            <Time>2018-12-30T14:26:25.000Z</Time>
            <Position>
              <LatitudeDegrees>40.7367057166993618011474609375</LatitudeDegrees>
              <LongitudeDegrees>-4.06782285310328006744384765625</LongitudeDegrees>
            </Position>
            <AltitudeMeters>1174.199951171875</AltitudeMeters>
            <DistanceMeters>NAN</DistanceMeters>
          </Trackpoint>
          <Trackpoint>
            <Time>2018-12-30T14:26:26.000Z</Time>
            <Position>
              <LatitudeDegrees>40.7367167808115482330322265625</LatitudeDegrees>
              <LongitudeDegrees>-4.06780508346855640411376953125</LongitudeDegrees>
            </Position>
            <AltitudeMeters>1174</AltitudeMeters>
            <DistanceMeters>NAN</DistanceMeters>
          </Trackpoint>
          <Trackpoint>
            <Time>2018-12-30T14:26:27.000Z</Time>
            <Position>
              <LatitudeDegrees>40.73672893457114696502685546875</LatitudeDegrees>
              <LongitudeDegrees>-4.0677887387573719024658203125</LongitudeDegrees>
            </Position>
            <AltitudeMeters>1173.800048828125</AltitudeMeters>
            <DistanceMeters>NAN</DistanceMeters>
          </Trackpoint>
          <Trackpoint>
            <Time>2018-12-30T14:26:28.000Z</Time>
            <Position>
              <LatitudeDegrees>40.7367399148643016815185546875</LatitudeDegrees>
              <LongitudeDegrees>-4.06777038238942623138427734375</LongitudeDegrees>
            </Position>
            <AltitudeMeters>1173.5999755859375</AltitudeMeters>
            <DistanceMeters>NAN</DistanceMeters>
          </Trackpoint>
          <Trackpoint>
            <Time>2018-12-30T14:26:29.000Z</Time>
            <Position>
              <LatitudeDegrees>40.7367476262152194976806640625</LatitudeDegrees>
              <LongitudeDegrees>-4.06774892471730709075927734375</LongitudeDegrees>
            </Position>
            <AltitudeMeters>1173.5999755859375</AltitudeMeters>
            <DistanceMeters>NAN</DistanceMeters>
          </Trackpoint>
          <Trackpoint>
            <Time>2018-12-30T14:26:30.000Z</Time>
            <Position>
              <LatitudeDegrees>40.73675542138516902923583984375</LatitudeDegrees>
              <LongitudeDegrees>-4.06773048453032970428466796875</LongitudeDegrees>
            </Position>
            <AltitudeMeters>1173.5999755859375</AltitudeMeters>
            <DistanceMeters>NAN</DistanceMeters>
          </Trackpoint>
          <Trackpoint>
            <Time>2018-12-30T14:26:31.000Z</Time>
            <Position>
              <LatitudeDegrees>40.73676330037415027618408203125</LatitudeDegrees>
              <LongitudeDegrees>-4.06771120615303516387939453125</LongitudeDegrees>
            </Position>
            <AltitudeMeters>1173.5999755859375</AltitudeMeters>
            <DistanceMeters>NAN</DistanceMeters>
          </Trackpoint>
          <Trackpoint>
            <Time>2018-12-30T14:26:32.000Z</Time>
            <Position>
              <LatitudeDegrees>40.736772604286670684814453125</LatitudeDegrees>
              <LongitudeDegrees>-4.0676941908895969390869140625</LongitudeDegrees>
            </Position>
            <AltitudeMeters>1173.4000244140625</AltitudeMeters>
            <DistanceMeters>NAN</DistanceMeters>
          </Trackpoint>
          <Trackpoint>
            <Time>2018-12-30T14:26:33.000Z</Time>
            <Position>
              <LatitudeDegrees>40.73678308166563510894775390625</LatitudeDegrees>
              <LongitudeDegrees>-4.06767901964485645294189453125</LongitudeDegrees>
            </Position>
            <AltitudeMeters>1173.4000244140625</AltitudeMeters>
            <DistanceMeters>NAN</DistanceMeters>
          </Trackpoint>
          <Trackpoint>
            <Time>2018-12-30T14:26:34.000Z</Time>
            <Position>
              <LatitudeDegrees>40.7367912121117115020751953125</LatitudeDegrees>
              <LongitudeDegrees>-4.0676653571426868438720703125</LongitudeDegrees>
            </Position>
            <AltitudeMeters>1173.5999755859375</AltitudeMeters>
            <DistanceMeters>NAN</DistanceMeters>
          </Trackpoint>
          <Trackpoint>
            <Time>2018-12-30T14:26:35.000Z</Time>
            <Position>
              <LatitudeDegrees>40.73680001311004161834716796875</LatitudeDegrees>
              <LongitudeDegrees>-4.06765253283083438873291015625</LongitudeDegrees>
            </Position>
            <AltitudeMeters>1173.5999755859375</AltitudeMeters>
            <DistanceMeters>NAN</DistanceMeters>
          </Trackpoint>
          <Trackpoint>
            <Time>2018-12-30T14:26:36.000Z</Time>
            <Position>
              <LatitudeDegrees>40.736807473003864288330078125</LatitudeDegrees>
              <LongitudeDegrees>-4.06763677485287189483642578125</LongitudeDegrees>
            </Position>
            <AltitudeMeters>1173.800048828125</AltitudeMeters>
            <DistanceMeters>NAN</DistanceMeters>
          </Trackpoint>
          <Trackpoint>
            <Time>2018-12-30T14:26:37.000Z</Time>
            <Position>
              <LatitudeDegrees>40.73681225068867206573486328125</LatitudeDegrees>
              <LongitudeDegrees>-4.06761917285621166229248046875</LongitudeDegrees>
            </Position>
            <AltitudeMeters>1174</AltitudeMeters>
            <DistanceMeters>NAN</DistanceMeters>
          </Trackpoint>
          <Trackpoint>
            <Time>2018-12-30T14:26:38.000Z</Time>
            <Position>
              <LatitudeDegrees>40.7368187047541141510009765625</LatitudeDegrees>
              <LongitudeDegrees>-4.06760148704051971435546875</LongitudeDegrees>
            </Position>
            <AltitudeMeters>1174</AltitudeMeters>
            <DistanceMeters>NAN</DistanceMeters>
          </Trackpoint>
          <Trackpoint>
            <Time>2018-12-30T14:26:39.000Z</Time>
            <Position>
              <LatitudeDegrees>40.7368267513811588287353515625</LatitudeDegrees>
              <LongitudeDegrees>-4.06758539378643035888671875</LongitudeDegrees>
            </Position>
            <AltitudeMeters>1173.800048828125</AltitudeMeters>
            <DistanceMeters>NAN</DistanceMeters>
          </Trackpoint>
          <Trackpoint>
            <Time>2018-12-30T14:26:40.000Z</Time>
            <Position>
              <LatitudeDegrees>40.7368339598178863525390625</LatitudeDegrees>
              <LongitudeDegrees>-4.06756703741848468780517578125</LongitudeDegrees>
            </Position>
            <AltitudeMeters>1173.5999755859375</AltitudeMeters>
            <DistanceMeters>NAN</DistanceMeters>
          </Trackpoint>
          <Trackpoint>
            <Time>2018-12-30T14:26:41.000Z</Time>
            <Position>
              <LatitudeDegrees>40.7368401624262332916259765625</LatitudeDegrees>
              <LongitudeDegrees>-4.0675471723079681396484375</LongitudeDegrees>
            </Position>
            <AltitudeMeters>1173.4000244140625</AltitudeMeters>
            <DistanceMeters>NAN</DistanceMeters>
          </Trackpoint>
          <Trackpoint>
            <Time>2018-12-30T14:26:42.000Z</Time>
            <Position>
              <LatitudeDegrees>40.7368478737771511077880859375</LatitudeDegrees>
              <LongitudeDegrees>-4.067532084882259368896484375</LongitudeDegrees>
            </Position>
            <AltitudeMeters>1173.199951171875</AltitudeMeters>
            <DistanceMeters>NAN</DistanceMeters>
          </Trackpoint>
          <Trackpoint>
            <Time>2018-12-30T14:26:43.000Z</Time>
            <Position>
              <LatitudeDegrees>40.73685533367097377777099609375</LatitudeDegrees>
              <LongitudeDegrees>-4.06751473434269428253173828125</LongitudeDegrees>
            </Position>
            <AltitudeMeters>1173.199951171875</AltitudeMeters>
            <DistanceMeters>NAN</DistanceMeters>
          </Trackpoint>
          <Trackpoint>
            <Time>2018-12-30T14:26:44.000Z</Time>
            <Position>
              <LatitudeDegrees>40.7368656434118747711181640625</LatitudeDegrees>
              <LongitudeDegrees>-4.06750249676406383514404296875</LongitudeDegrees>
            </Position>
            <AltitudeMeters>1173</AltitudeMeters>
            <DistanceMeters>NAN</DistanceMeters>
          </Trackpoint>
          <Trackpoint>
            <Time>2018-12-30T14:26:45.000Z</Time>
            <Position>
              <LatitudeDegrees>40.7368760369718074798583984375</LatitudeDegrees>
              <LongitudeDegrees>-4.06749495305120944976806640625</LongitudeDegrees>
            </Position>
            <AltitudeMeters>1173.199951171875</AltitudeMeters>
            <DistanceMeters>NAN</DistanceMeters>
          </Trackpoint>
          <Trackpoint>
            <Time>2018-12-30T14:26:46.000Z</Time>
            <Position>
              <LatitudeDegrees>40.73688425123691558837890625</LatitudeDegrees>
              <LongitudeDegrees>-4.0674822963774204254150390625</LongitudeDegrees>
            </Position>
            <AltitudeMeters>1173.199951171875</AltitudeMeters>
            <DistanceMeters>NAN</DistanceMeters>
          </Trackpoint>
          <Trackpoint>
            <Time>2018-12-30T14:26:47.000Z</Time>
            <Position>
              <LatitudeDegrees>40.73689154349267482757568359375</LatitudeDegrees>
              <LongitudeDegrees>-4.06746829859912395477294921875</LongitudeDegrees>
            </Position>
            <AltitudeMeters>1173.4000244140625</AltitudeMeters>
            <DistanceMeters>NAN</DistanceMeters>
          </Trackpoint>
          <Trackpoint>
            <Time>2018-12-30T14:26:48.000Z</Time>
            <Position>
              <LatitudeDegrees>40.7368981651961803436279296875</LatitudeDegrees>
              <LongitudeDegrees>-4.06745354644954204559326171875</LongitudeDegrees>
            </Position>
            <AltitudeMeters>1173.4000244140625</AltitudeMeters>
            <DistanceMeters>NAN</DistanceMeters>
          </Trackpoint>
          <Trackpoint>
            <Time>2018-12-30T14:26:49.000Z</Time>
            <Position>
              <LatitudeDegrees>40.73690394870936870574951171875</LatitudeDegrees>
              <LongitudeDegrees>-4.06743963249027729034423828125</LongitudeDegrees>
            </Position>
            <AltitudeMeters>1173.4000244140625</AltitudeMeters>
            <DistanceMeters>NAN</DistanceMeters>
          </Trackpoint>
          <Trackpoint>
            <Time>2018-12-30T14:26:50.000Z</Time>
            <Position>
              <LatitudeDegrees>40.7369109056890010833740234375</LatitudeDegrees>
              <LongitudeDegrees>-4.0674242936074733734130859375</LongitudeDegrees>
            </Position>
            <AltitudeMeters>1173.4000244140625</AltitudeMeters>
            <DistanceMeters>NAN</DistanceMeters>
          </Trackpoint>
          <Trackpoint>
            <Time>2018-12-30T14:26:51.000Z</Time>
            <Position>
              <LatitudeDegrees>40.73691836558282375335693359375</LatitudeDegrees>
              <LongitudeDegrees>-4.06740727834403514862060546875</LongitudeDegrees>
            </Position>
            <AltitudeMeters>1173.5999755859375</AltitudeMeters>
            <DistanceMeters>NAN</DistanceMeters>
          </Trackpoint>
          <Trackpoint>
            <Time>2018-12-30T14:26:52.000Z</Time>
            <Position>
              <LatitudeDegrees>40.73692942969501018524169921875</LatitudeDegrees>
              <LongitudeDegrees>-4.0673934482038021087646484375</LongitudeDegrees>
            </Position>
            <AltitudeMeters>1173.800048828125</AltitudeMeters>
            <DistanceMeters>NAN</DistanceMeters>
          </Trackpoint>
          <Trackpoint>
            <Time>2018-12-30T14:26:53.000Z</Time>
            <Position>
              <LatitudeDegrees>40.7369417510926723480224609375</LatitudeDegrees>
              <LongitudeDegrees>-4.0673797018826007843017578125</LongitudeDegrees>
            </Position>
            <AltitudeMeters>1173.800048828125</AltitudeMeters>
            <DistanceMeters>NAN</DistanceMeters>
          </Trackpoint>
          <Trackpoint>
            <Time>2018-12-30T14:26:54.000Z</Time>
            <Position>
              <LatitudeDegrees>40.7369497977197170257568359375</LatitudeDegrees>
              <LongitudeDegrees>-4.067363440990447998046875</LongitudeDegrees>
            </Position>
            <AltitudeMeters>1173.800048828125</AltitudeMeters>
            <DistanceMeters>NAN</DistanceMeters>
          </Trackpoint>
          <Trackpoint>
            <Time>2018-12-30T14:26:55.000Z</Time>
            <Position>
              <LatitudeDegrees>40.73695809580385684967041015625</LatitudeDegrees>
              <LongitudeDegrees>-4.06734843738377094268798828125</LongitudeDegrees>
            </Position>
            <AltitudeMeters>1173.5999755859375</AltitudeMeters>
            <DistanceMeters>NAN</DistanceMeters>
          </Trackpoint>
          <Trackpoint>
            <Time>2018-12-30T14:26:56.000Z</Time>
            <Position>
              <LatitudeDegrees>40.73696530424058437347412109375</LatitudeDegrees>
              <LongitudeDegrees>-4.06733670271933078765869140625</LongitudeDegrees>
            </Position>
            <AltitudeMeters>1173.5999755859375</AltitudeMeters>
            <DistanceMeters>NAN</DistanceMeters>
          </Trackpoint>
          <Trackpoint>
            <Time>2018-12-30T14:26:57.000Z</Time>
            <Position>
              <LatitudeDegrees>40.73697184212505817413330078125</LatitudeDegrees>
              <LongitudeDegrees>-4.0673247165977954864501953125</LongitudeDegrees>
            </Position>
            <AltitudeMeters>1173.800048828125</AltitudeMeters>
            <DistanceMeters>NAN</DistanceMeters>
          </Trackpoint>
          <Trackpoint>
            <Time>2018-12-30T14:26:58.000Z</Time>
            <Position>
              <LatitudeDegrees>40.7369786314666271209716796875</LatitudeDegrees>
              <LongitudeDegrees>-4.0673092938959598541259765625</LongitudeDegrees>
            </Position>
            <AltitudeMeters>1173.800048828125</AltitudeMeters>
            <DistanceMeters>NAN</DistanceMeters>
          </Trackpoint>
          <Trackpoint>
            <Time>2018-12-30T14:26:59.000Z</Time>
            <Position>
              <LatitudeDegrees>40.73698558844625949859619140625</LatitudeDegrees>
              <LongitudeDegrees>-4.0672928653657436370849609375</LongitudeDegrees>
            </Position>
            <AltitudeMeters>1173.800048828125</AltitudeMeters>
            <DistanceMeters>NAN</DistanceMeters>
          </Trackpoint>
          <Trackpoint>
            <Time>2018-12-30T14:27:00.000Z</Time>
            <Position>
              <LatitudeDegrees>40.736993886530399322509765625</LatitudeDegrees>
              <LongitudeDegrees>-4.0672797895967960357666015625</LongitudeDegrees>
            </Position>
            <AltitudeMeters>1173.800048828125</AltitudeMeters>
            <DistanceMeters>NAN</DistanceMeters>
          </Trackpoint>
          <Trackpoint>
            <Time>2018-12-30T14:27:01.000Z</Time>
            <Position>
              <LatitudeDegrees>40.7370034419000148773193359375</LatitudeDegrees>
              <LongitudeDegrees>-4.0672683902084827423095703125</LongitudeDegrees>
            </Position>
            <AltitudeMeters>1173.800048828125</AltitudeMeters>
            <DistanceMeters>NAN</DistanceMeters>
          </Trackpoint>
          <Trackpoint>
            <Time>2018-12-30T14:27:02.000Z</Time>
            <Position>
              <LatitudeDegrees>40.7370109856128692626953125</LatitudeDegrees>
              <LongitudeDegrees>-4.06725640408694744110107421875</LongitudeDegrees>
            </Position>
            <AltitudeMeters>1173.800048828125</AltitudeMeters>
            <DistanceMeters>NAN</DistanceMeters>
          </Trackpoint>
          <Trackpoint>
            <Time>2018-12-30T14:27:03.000Z</Time>
            <Position>
              <LatitudeDegrees>40.73701844550669193267822265625</LatitudeDegrees>
              <LongitudeDegrees>-4.06724215485155582427978515625</LongitudeDegrees>
            </Position>
            <AltitudeMeters>1173.800048828125</AltitudeMeters>
            <DistanceMeters>NAN</DistanceMeters>
          </Trackpoint>
          <Trackpoint>
            <Time>2018-12-30T14:27:04.000Z</Time>
            <Position>
              <LatitudeDegrees>40.737028419971466064453125</LatitudeDegrees>
              <LongitudeDegrees>-4.067228324711322784423828125</LongitudeDegrees>
            </Position>
            <AltitudeMeters>1173.800048828125</AltitudeMeters>
            <DistanceMeters>NAN</DistanceMeters>
          </Trackpoint>
          <Trackpoint>
            <Time>2018-12-30T14:27:05.000Z</Time>
            <Position>
              <LatitudeDegrees>40.73703856207430362701416015625</LatitudeDegrees>
              <LongitudeDegrees>-4.06721633858978748321533203125</LongitudeDegrees>
            </Position>
            <AltitudeMeters>1173.800048828125</AltitudeMeters>
            <DistanceMeters>NAN</DistanceMeters>
          </Trackpoint>
          <Trackpoint>
            <Time>2018-12-30T14:27:06.000Z</Time>
            <Position>
              <LatitudeDegrees>40.7370500452816486358642578125</LatitudeDegrees>
              <LongitudeDegrees>-4.06720510683953762054443359375</LongitudeDegrees>
            </Position>
            <AltitudeMeters>1173.800048828125</AltitudeMeters>
            <DistanceMeters>NAN</DistanceMeters>
          </Trackpoint>
          <Trackpoint>
            <Time>2018-12-30T14:27:07.000Z</Time>
            <Position>
              <LatitudeDegrees>40.73706085793673992156982421875</LatitudeDegrees>
              <LongitudeDegrees>-4.067192785441875457763671875</LongitudeDegrees>
            </Position>
            <AltitudeMeters>1173.800048828125</AltitudeMeters>
            <DistanceMeters>NAN</DistanceMeters>
          </Trackpoint>
          <Trackpoint>
            <Time>2018-12-30T14:27:08.000Z</Time>
            <Position>
              <LatitudeDegrees>40.7370704971253871917724609375</LatitudeDegrees>
              <LongitudeDegrees>-4.06718029640614986419677734375</LongitudeDegrees>
            </Position>
            <AltitudeMeters>1174</AltitudeMeters>
            <DistanceMeters>NAN</DistanceMeters>
          </Trackpoint>
          <Trackpoint>
            <Time>2018-12-30T14:27:09.000Z</Time>
            <Position>
              <LatitudeDegrees>40.73707879520952701568603515625</LatitudeDegrees>
              <LongitudeDegrees>-4.06716504134237766265869140625</LongitudeDegrees>
            </Position>
            <AltitudeMeters>1174.199951171875</AltitudeMeters>
            <DistanceMeters>NAN</DistanceMeters>
          </Trackpoint>
          <Trackpoint>
            <Time>2018-12-30T14:27:10.000Z</Time>
            <Position>
              <LatitudeDegrees>40.7370906136929988861083984375</LatitudeDegrees>
              <LongitudeDegrees>-4.06715221703052520751953125</LongitudeDegrees>
            </Position>
            <AltitudeMeters>1174.4000244140625</AltitudeMeters>
            <DistanceMeters>NAN</DistanceMeters>
          </Trackpoint>
          <Trackpoint>
            <Time>2018-12-30T14:27:11.000Z</Time>
            <Position>
              <LatitudeDegrees>40.73709974996745586395263671875</LatitudeDegrees>
              <LongitudeDegrees>-4.06713838689029216766357421875</LongitudeDegrees>
            </Position>
            <AltitudeMeters>1174.4000244140625</AltitudeMeters>
            <DistanceMeters>NAN</DistanceMeters>
          </Trackpoint>
          <Trackpoint>
            <Time>2018-12-30T14:27:12.000Z</Time>
            <Position>
              <LatitudeDegrees>40.7371093891561031341552734375</LatitudeDegrees>
              <LongitudeDegrees>-4.0671252273023128509521484375</LongitudeDegrees>
            </Position>
            <AltitudeMeters>1174.5999755859375</AltitudeMeters>
            <DistanceMeters>NAN</DistanceMeters>
          </Trackpoint>
          <Trackpoint>
            <Time>2018-12-30T14:27:13.000Z</Time>
            <Position>
              <LatitudeDegrees>40.73712020181119441986083984375</LatitudeDegrees>
              <LongitudeDegrees>-4.0671128220856189727783203125</LongitudeDegrees>
            </Position>
            <AltitudeMeters>1174.5999755859375</AltitudeMeters>
            <DistanceMeters>NAN</DistanceMeters>
          </Trackpoint>
          <Trackpoint>
            <Time>2018-12-30T14:27:14.000Z</Time>
            <Position>
              <LatitudeDegrees>40.73712606914341449737548828125</LatitudeDegrees>
              <LongitudeDegrees>-4.067097567021846771240234375</LongitudeDegrees>
            </Position>
            <AltitudeMeters>1174.5999755859375</AltitudeMeters>
            <DistanceMeters>NAN</DistanceMeters>
          </Trackpoint>
          <Trackpoint>
            <Time>2018-12-30T14:27:15.000Z</Time>
            <Position>
              <LatitudeDegrees>40.7371288351714611053466796875</LatitudeDegrees>
              <LongitudeDegrees>-4.06708071939647197723388671875</LongitudeDegrees>
            </Position>
            <AltitudeMeters>1174.5999755859375</AltitudeMeters>
            <DistanceMeters>NAN</DistanceMeters>
          </Trackpoint>
          <Trackpoint>
            <Time>2018-12-30T14:27:16.000Z</Time>
            <Position>
              <LatitudeDegrees>40.7371321879327297210693359375</LatitudeDegrees>
              <LongitudeDegrees>-4.0670642070472240447998046875</LongitudeDegrees>
            </Position>
            <AltitudeMeters>1174.5999755859375</AltitudeMeters>
            <DistanceMeters>NAN</DistanceMeters>
          </Trackpoint>
          <Trackpoint>
            <Time>2018-12-30T14:27:17.000Z</Time>
            <Position>
              <LatitudeDegrees>40.737138725817203521728515625</LatitudeDegrees>
              <LongitudeDegrees>-4.06704568304121494293212890625</LongitudeDegrees>
            </Position>
            <AltitudeMeters>1174.5999755859375</AltitudeMeters>
            <DistanceMeters>NAN</DistanceMeters>
          </Trackpoint>
          <Trackpoint>
            <Time>2018-12-30T14:27:18.000Z</Time>
            <Position>
              <LatitudeDegrees>40.73714953847229480743408203125</LatitudeDegrees>
              <LongitudeDegrees>-4.06702791340649127960205078125</LongitudeDegrees>
            </Position>
            <AltitudeMeters>1174.4000244140625</AltitudeMeters>
            <DistanceMeters>NAN</DistanceMeters>
          </Trackpoint>
          <Trackpoint>
            <Time>2018-12-30T14:27:19.000Z</Time>
            <Position>
              <LatitudeDegrees>40.7371626980602741241455078125</LatitudeDegrees>
              <LongitudeDegrees>-4.067010395228862762451171875</LongitudeDegrees>
            </Position>
            <AltitudeMeters>1174.4000244140625</AltitudeMeters>
            <DistanceMeters>NAN</DistanceMeters>
          </Trackpoint>
          <Trackpoint>
            <Time>2018-12-30T14:27:20.000Z</Time>
            <Position>
              <LatitudeDegrees>40.73717971332371234893798828125</LatitudeDegrees>
              <LongitudeDegrees>-4.0669973194599151611328125</LongitudeDegrees>
            </Position>
            <AltitudeMeters>1174.199951171875</AltitudeMeters>
            <DistanceMeters>NAN</DistanceMeters>
          </Trackpoint>
          <Trackpoint>
            <Time>2018-12-30T14:27:21.000Z</Time>
            <Position>
              <LatitudeDegrees>40.73719664476811885833740234375</LatitudeDegrees>
              <LongitudeDegrees>-4.06698382459580898284912109375</LongitudeDegrees>
            </Position>
            <AltitudeMeters>1174</AltitudeMeters>
            <DistanceMeters>NAN</DistanceMeters>
          </Trackpoint>
          <Trackpoint>
            <Time>2018-12-30T14:27:22.000Z</Time>
            <Position>
              <LatitudeDegrees>40.73720368556678295135498046875</LatitudeDegrees>
              <LongitudeDegrees>-4.066967479884624481201171875</LongitudeDegrees>
            </Position>
            <AltitudeMeters>1173.800048828125</AltitudeMeters>
            <DistanceMeters>NAN</DistanceMeters>
          </Trackpoint>
          <Trackpoint>
            <Time>2018-12-30T14:27:23.000Z</Time>
            <Position>
              <LatitudeDegrees>40.73721055872738361358642578125</LatitudeDegrees>
              <LongitudeDegrees>-4.0669522248208522796630859375</LongitudeDegrees>
            </Position>
            <AltitudeMeters>1173.800048828125</AltitudeMeters>
            <DistanceMeters>NAN</DistanceMeters>
          </Trackpoint>
          <Trackpoint>
            <Time>2018-12-30T14:27:24.000Z</Time>
            <Position>
              <LatitudeDegrees>40.737216509878635406494140625</LatitudeDegrees>
              <LongitudeDegrees>-4.06693671829998493194580078125</LongitudeDegrees>
            </Position>
            <AltitudeMeters>1173.5999755859375</AltitudeMeters>
            <DistanceMeters>NAN</DistanceMeters>
          </Trackpoint>
          <Trackpoint>
            <Time>2018-12-30T14:27:25.000Z</Time>
            <Position>
              <LatitudeDegrees>40.73722028173506259918212890625</LatitudeDegrees>
              <LongitudeDegrees>-4.066921882331371307373046875</LongitudeDegrees>
            </Position>
            <AltitudeMeters>1173.5999755859375</AltitudeMeters>
            <DistanceMeters>NAN</DistanceMeters>
          </Trackpoint>
          <Trackpoint>
            <Time>2018-12-30T14:27:26.000Z</Time>
            <Position>
              <LatitudeDegrees>40.73722564615309238433837890625</LatitudeDegrees>
              <LongitudeDegrees>-4.06690813601016998291015625</LongitudeDegrees>
            </Position>
            <AltitudeMeters>1173.5999755859375</AltitudeMeters>
            <DistanceMeters>NAN</DistanceMeters>
          </Trackpoint>
          <Trackpoint>
            <Time>2018-12-30T14:27:27.000Z</Time>
            <Position>
              <LatitudeDegrees>40.7372331060469150543212890625</LatitudeDegrees>
              <LongitudeDegrees>-4.06689472496509552001953125</LongitudeDegrees>
            </Position>
            <AltitudeMeters>1173.5999755859375</AltitudeMeters>
            <DistanceMeters>NAN</DistanceMeters>
          </Trackpoint>
          <Trackpoint>
            <Time>2018-12-30T14:27:28.000Z</Time>
            <Position>
              <LatitudeDegrees>40.73724039830267429351806640625</LatitudeDegrees>
              <LongitudeDegrees>-4.06688240356743335723876953125</LongitudeDegrees>
            </Position>
            <AltitudeMeters>1173.800048828125</AltitudeMeters>
            <DistanceMeters>NAN</DistanceMeters>
          </Trackpoint>
          <Trackpoint>
            <Time>2018-12-30T14:27:29.000Z</Time>
            <Position>
              <LatitudeDegrees>40.73724861256778240203857421875</LatitudeDegrees>
              <LongitudeDegrees>-4.06687251292169094085693359375</LongitudeDegrees>
            </Position>
            <AltitudeMeters>1173.800048828125</AltitudeMeters>
            <DistanceMeters>NAN</DistanceMeters>
          </Trackpoint>
          <Trackpoint>
            <Time>2018-12-30T14:27:30.000Z</Time>
            <Position>
              <LatitudeDegrees>40.7372569106519222259521484375</LatitudeDegrees>
              <LongitudeDegrees>-4.0668632090091705322265625</LongitudeDegrees>
            </Position>
            <AltitudeMeters>1174</AltitudeMeters>
            <DistanceMeters>NAN</DistanceMeters>
          </Trackpoint>
          <Trackpoint>
            <Time>2018-12-30T14:27:31.000Z</Time>
            <Position>
              <LatitudeDegrees>40.737264454364776611328125</LatitudeDegrees>
              <LongitudeDegrees>-4.066852815449237823486328125</LongitudeDegrees>
            </Position>
            <AltitudeMeters>1174</AltitudeMeters>
            <DistanceMeters>NAN</DistanceMeters>
          </Trackpoint>
          <Trackpoint>
            <Time>2018-12-30T14:27:32.000Z</Time>
            <Position>
              <LatitudeDegrees>40.73727392591536045074462890625</LatitudeDegrees>
              <LongitudeDegrees>-4.0668417513370513916015625</LongitudeDegrees>
            </Position>
            <AltitudeMeters>1174</AltitudeMeters>
            <DistanceMeters>NAN</DistanceMeters>
          </Trackpoint>
          <Trackpoint>
            <Time>2018-12-30T14:27:33.000Z</Time>
            <Position>
              <LatitudeDegrees>40.73727786540985107421875</LatitudeDegrees>
              <LongitudeDegrees>-4.066828005015850067138671875</LongitudeDegrees>
            </Position>
            <AltitudeMeters>1174</AltitudeMeters>
            <DistanceMeters>NAN</DistanceMeters>
          </Trackpoint>
          <Trackpoint>
            <Time>2018-12-30T14:27:34.000Z</Time>
            <Position>
              <LatitudeDegrees>40.7372827269136905670166015625</LatitudeDegrees>
              <LongitudeDegrees>-4.06681417487561702728271484375</LongitudeDegrees>
            </Position>
            <AltitudeMeters>1174</AltitudeMeters>
            <DistanceMeters>NAN</DistanceMeters>
          </Trackpoint>
          <Trackpoint>
            <Time>2018-12-30T14:27:35.000Z</Time>
            <Position>
              <LatitudeDegrees>40.73728817515075206756591796875</LatitudeDegrees>
              <LongitudeDegrees>-4.0667993389070034027099609375</LongitudeDegrees>
            </Position>
            <AltitudeMeters>1174</AltitudeMeters>
            <DistanceMeters>NAN</DistanceMeters>
          </Trackpoint>
          <Trackpoint>
            <Time>2018-12-30T14:27:36.000Z</Time>
            <Position>
              <LatitudeDegrees>40.73729236610233783721923828125</LatitudeDegrees>
              <LongitudeDegrees>-4.06678467057645320892333984375</LongitudeDegrees>
            </Position>
            <AltitudeMeters>1174</AltitudeMeters>
            <DistanceMeters>NAN</DistanceMeters>
          </Trackpoint>
          <Trackpoint>
            <Time>2018-12-30T14:27:37.000Z</Time>
            <Position>
              <LatitudeDegrees>40.73729605413973331451416015625</LatitudeDegrees>
              <LongitudeDegrees>-4.066768996417522430419921875</LongitudeDegrees>
            </Position>
            <AltitudeMeters>1174</AltitudeMeters>
            <DistanceMeters>NAN</DistanceMeters>
          </Trackpoint>
          <Trackpoint>
            <Time>2018-12-30T14:27:38.000Z</Time>
            <Position>
              <LatitudeDegrees>40.73730267584323883056640625</LatitudeDegrees>
              <LongitudeDegrees>-4.0667545795440673828125</LongitudeDegrees>
            </Position>
            <AltitudeMeters>1174.199951171875</AltitudeMeters>
            <DistanceMeters>NAN</DistanceMeters>
          </Trackpoint>
          <Trackpoint>
            <Time>2018-12-30T14:27:39.000Z</Time>
            <Position>
              <LatitudeDegrees>40.7373095490038394927978515625</LatitudeDegrees>
              <LongitudeDegrees>-4.0667399950325489044189453125</LongitudeDegrees>
            </Position>
            <AltitudeMeters>1174.199951171875</AltitudeMeters>
            <DistanceMeters>NAN</DistanceMeters>
          </Trackpoint>
          <Trackpoint>
            <Time>2018-12-30T14:27:40.000Z</Time>
            <Position>
              <LatitudeDegrees>40.7373167574405670166015625</LatitudeDegrees>
              <LongitudeDegrees>-4.0667255781590938568115234375</LongitudeDegrees>
            </Position>
            <AltitudeMeters>1174.199951171875</AltitudeMeters>
            <DistanceMeters>NAN</DistanceMeters>
          </Trackpoint>
          <Trackpoint>
            <Time>2018-12-30T14:27:41.000Z</Time>
            <Position>
              <LatitudeDegrees>40.7373226247727870941162109375</LatitudeDegrees>
              <LongitudeDegrees>-4.06671090982854366302490234375</LongitudeDegrees>
            </Position>
            <AltitudeMeters>1174.199951171875</AltitudeMeters>
            <DistanceMeters>NAN</DistanceMeters>
          </Trackpoint>
          <Trackpoint>
            <Time>2018-12-30T14:27:42.000Z</Time>
            <Position>
              <LatitudeDegrees>40.73732824064791202545166015625</LatitudeDegrees>
              <LongitudeDegrees>-4.06669749878346920013427734375</LongitudeDegrees>
            </Position>
            <AltitudeMeters>1174.4000244140625</AltitudeMeters>
            <DistanceMeters>NAN</DistanceMeters>
          </Trackpoint>
          <Trackpoint>
            <Time>2018-12-30T14:27:43.000Z</Time>
            <Position>
              <LatitudeDegrees>40.73733109049499034881591796875</LatitudeDegrees>
              <LongitudeDegrees>-4.0666833333671092987060546875</LongitudeDegrees>
            </Position>
            <AltitudeMeters>1174.4000244140625</AltitudeMeters>
            <DistanceMeters>NAN</DistanceMeters>
          </Trackpoint>
          <Trackpoint>
            <Time>2018-12-30T14:27:44.000Z</Time>
            <Position>
              <LatitudeDegrees>40.73733494617044925689697265625</LatitudeDegrees>
              <LongitudeDegrees>-4.066677801311016082763671875</LongitudeDegrees>
            </Position>
            <AltitudeMeters>1174.4000244140625</AltitudeMeters>
            <DistanceMeters>NAN</DistanceMeters>
          </Trackpoint>
          <Trackpoint>
            <Time>2018-12-30T14:27:45.000Z</Time>
            <Position>
              <LatitudeDegrees>40.73733863420784473419189453125</LatitudeDegrees>
              <LongitudeDegrees>-4.06667285598814487457275390625</LongitudeDegrees>
            </Position>
            <AltitudeMeters>1174.4000244140625</AltitudeMeters>
            <DistanceMeters>NAN</DistanceMeters>
          </Trackpoint>
          <Trackpoint>
            <Time>2018-12-30T14:27:46.000Z</Time>
            <Position>
              <LatitudeDegrees>40.73734425008296966552734375</LatitudeDegrees>
              <LongitudeDegrees>-4.0666675753891468048095703125</LongitudeDegrees>
            </Position>
            <AltitudeMeters>1174.5999755859375</AltitudeMeters>
            <DistanceMeters>NAN</DistanceMeters>
          </Trackpoint>
          <Trackpoint>
            <Time>2018-12-30T14:27:47.000Z</Time>
            <Position>
              <LatitudeDegrees>40.7373491115868091583251953125</LatitudeDegrees>
              <LongitudeDegrees>-4.0666612051427364349365234375</LongitudeDegrees>
            </Position>
            <AltitudeMeters>1174.4000244140625</AltitudeMeters>
            <DistanceMeters>NAN</DistanceMeters>
          </Trackpoint>
          <Trackpoint>
            <Time>2018-12-30T14:27:48.000Z</Time>
            <Position>
              <LatitudeDegrees>40.73734751902520656585693359375</LatitudeDegrees>
              <LongitudeDegrees>-4.06665408052504062652587890625</LongitudeDegrees>
            </Position>
            <AltitudeMeters>1174.4000244140625</AltitudeMeters>
            <DistanceMeters>NAN</DistanceMeters>
          </Trackpoint>
          <Trackpoint>
            <Time>2018-12-30T14:27:49.000Z</Time>
            <Position>
              <LatitudeDegrees>40.737347938120365142822265625</LatitudeDegrees>
              <LongitudeDegrees>-4.06665139831602573394775390625</LongitudeDegrees>
            </Position>
            <AltitudeMeters>1174.199951171875</AltitudeMeters>
            <DistanceMeters>NAN</DistanceMeters>
          </Trackpoint>
          <Trackpoint>
            <Time>2018-12-30T14:27:50.000Z</Time>
            <Position>
              <LatitudeDegrees>40.73734718374907970428466796875</LatitudeDegrees>
              <LongitudeDegrees>-4.06664988957345485687255859375</LongitudeDegrees>
            </Position>
            <AltitudeMeters>1174.199951171875</AltitudeMeters>
            <DistanceMeters>NAN</DistanceMeters>
          </Trackpoint>
          <Trackpoint>
            <Time>2018-12-30T14:27:51.000Z</Time>
            <Position>
              <LatitudeDegrees>40.73734735138714313507080078125</LatitudeDegrees>
              <LongitudeDegrees>-4.066649638116359710693359375</LongitudeDegrees>
            </Position>
            <AltitudeMeters>1174</AltitudeMeters>
            <DistanceMeters>NAN</DistanceMeters>
          </Trackpoint>
          <Trackpoint>
            <Time>2018-12-30T14:27:52.000Z</Time>
            <Position>
              <LatitudeDegrees>40.73734718374907970428466796875</LatitudeDegrees>
              <LongitudeDegrees>-4.06664586625993251800537109375</LongitudeDegrees>
            </Position>
            <AltitudeMeters>1174</AltitudeMeters>
            <DistanceMeters>NAN</DistanceMeters>
          </Trackpoint>
          <Trackpoint>
            <Time>2018-12-30T14:27:53.000Z</Time>
            <Position>
              <LatitudeDegrees>40.7373484410345554351806640625</LatitudeDegrees>
              <LongitudeDegrees>-4.06664100475609302520751953125</LongitudeDegrees>
            </Position>
            <AltitudeMeters>1174</AltitudeMeters>
            <DistanceMeters>NAN</DistanceMeters>
          </Trackpoint>
          <Trackpoint>
            <Time>2018-12-30T14:27:54.000Z</Time>
            <Position>
              <LatitudeDegrees>40.73734919540584087371826171875</LatitudeDegrees>
              <LongitudeDegrees>-4.06663882546126842498779296875</LongitudeDegrees>
            </Position>
            <AltitudeMeters>1174.199951171875</AltitudeMeters>
            <DistanceMeters>NAN</DistanceMeters>
          </Trackpoint>
          <Trackpoint>
            <Time>2018-12-30T14:27:55.000Z</Time>
            <Position>
              <LatitudeDegrees>40.73734735138714313507080078125</LatitudeDegrees>
              <LongitudeDegrees>-4.06663949601352214813232421875</LongitudeDegrees>
            </Position>
            <AltitudeMeters>1174.4000244140625</AltitudeMeters>
            <DistanceMeters>NAN</DistanceMeters>
          </Trackpoint>
          <Trackpoint>
            <Time>2018-12-30T14:27:56.000Z</Time>
            <Position>
              <LatitudeDegrees>40.7373494468629360198974609375</LatitudeDegrees>
              <LongitudeDegrees>-4.0666323713958263397216796875</LongitudeDegrees>
            </Position>
            <AltitudeMeters>1174.4000244140625</AltitudeMeters>
            <DistanceMeters>NAN</DistanceMeters>
          </Trackpoint>
          <Trackpoint>
            <Time>2018-12-30T14:27:57.000Z</Time>
            <Position>
              <LatitudeDegrees>40.7373514585196971893310546875</LatitudeDegrees>
              <LongitudeDegrees>-4.06662826426327228546142578125</LongitudeDegrees>
            </Position>
            <AltitudeMeters>1174.5999755859375</AltitudeMeters>
            <DistanceMeters>NAN</DistanceMeters>
          </Trackpoint>
          <Trackpoint>
            <Time>2018-12-30T14:27:58.000Z</Time>
            <Position>
              <LatitudeDegrees>40.73735657148063182830810546875</LatitudeDegrees>
              <LongitudeDegrees>-4.06662373803555965423583984375</LongitudeDegrees>
            </Position>
            <AltitudeMeters>1174.5999755859375</AltitudeMeters>
            <DistanceMeters>NAN</DistanceMeters>
          </Trackpoint>
          <Trackpoint>
            <Time>2018-12-30T14:27:59.000Z</Time>
            <Position>
              <LatitudeDegrees>40.73736168444156646728515625</LatitudeDegrees>
              <LongitudeDegrees>-4.0666152723133563995361328125</LongitudeDegrees>
            </Position>
            <AltitudeMeters>1174.4000244140625</AltitudeMeters>
            <DistanceMeters>NAN</DistanceMeters>
          </Trackpoint>
          <Trackpoint>
            <Time>2018-12-30T14:28:00.000Z</Time>
            <Position>
              <LatitudeDegrees>40.7373682223260402679443359375</LatitudeDegrees>
              <LongitudeDegrees>-4.06660311855375766754150390625</LongitudeDegrees>
            </Position>
            <AltitudeMeters>1174.4000244140625</AltitudeMeters>
            <DistanceMeters>NAN</DistanceMeters>
          </Trackpoint>
          <Trackpoint>
            <Time>2018-12-30T14:28:01.000Z</Time>
            <Position>
              <LatitudeDegrees>40.7373789511620998382568359375</LatitudeDegrees>
              <LongitudeDegrees>-4.0665918029844760894775390625</LongitudeDegrees>
            </Position>
            <AltitudeMeters>1174.4000244140625</AltitudeMeters>
            <DistanceMeters>NAN</DistanceMeters>
          </Trackpoint>
          <Trackpoint>
            <Time>2018-12-30T14:28:02.000Z</Time>
            <Position>
              <LatitudeDegrees>40.73738439939916133880615234375</LatitudeDegrees>
              <LongitudeDegrees>-4.06657981686294078826904296875</LongitudeDegrees>
            </Position>
            <AltitudeMeters>1174.4000244140625</AltitudeMeters>
            <DistanceMeters>NAN</DistanceMeters>
          </Trackpoint>
          <Trackpoint>
            <Time>2018-12-30T14:28:03.000Z</Time>
            <Position>
              <LatitudeDegrees>40.73738574050366878509521484375</LatitudeDegrees>
              <LongitudeDegrees>-4.06656824983656406402587890625</LongitudeDegrees>
            </Position>
            <AltitudeMeters>1174.4000244140625</AltitudeMeters>
            <DistanceMeters>NAN</DistanceMeters>
          </Trackpoint>
          <Trackpoint>
            <Time>2018-12-30T14:28:04.000Z</Time>
            <Position>
              <LatitudeDegrees>40.73738808743655681610107421875</LatitudeDegrees>
              <LongitudeDegrees>-4.066553749144077301025390625</LongitudeDegrees>
            </Position>
            <AltitudeMeters>1174.4000244140625</AltitudeMeters>
            <DistanceMeters>NAN</DistanceMeters>
          </Trackpoint>
          <Trackpoint>
            <Time>2018-12-30T14:28:05.000Z</Time>
            <Position>
              <LatitudeDegrees>40.7373893447220325469970703125</LatitudeDegrees>
              <LongitudeDegrees>-4.06653338111937046051025390625</LongitudeDegrees>
            </Position>
            <AltitudeMeters>1174.5999755859375</AltitudeMeters>
            <DistanceMeters>NAN</DistanceMeters>
          </Trackpoint>
          <Trackpoint>
            <Time>2018-12-30T14:28:06.000Z</Time>
            <Position>
              <LatitudeDegrees>40.737390853464603424072265625</LatitudeDegrees>
              <LongitudeDegrees>-4.066515527665615081787109375</LongitudeDegrees>
            </Position>
            <AltitudeMeters>1174.5999755859375</AltitudeMeters>
            <DistanceMeters>NAN</DistanceMeters>
          </Trackpoint>
          <Trackpoint>
            <Time>2018-12-30T14:28:07.000Z</Time>
            <Position>
              <LatitudeDegrees>40.7373957149684429168701171875</LatitudeDegrees>
              <LongitudeDegrees>-4.0665002726018428802490234375</LongitudeDegrees>
            </Position>
            <AltitudeMeters>1174.5999755859375</AltitudeMeters>
            <DistanceMeters>NAN</DistanceMeters>
          </Trackpoint>
          <Trackpoint>
            <Time>2018-12-30T14:28:08.000Z</Time>
            <Position>
              <LatitudeDegrees>40.7373997382819652557373046875</LatitudeDegrees>
              <LongitudeDegrees>-4.06648828648030757904052734375</LongitudeDegrees>
            </Position>
            <AltitudeMeters>1174.5999755859375</AltitudeMeters>
            <DistanceMeters>NAN</DistanceMeters>
          </Trackpoint>
          <Trackpoint>
            <Time>2018-12-30T14:28:09.000Z</Time>
            <Position>
              <LatitudeDegrees>40.73740635998547077178955078125</LatitudeDegrees>
              <LongitudeDegrees>-4.0664814971387386322021484375</LongitudeDegrees>
            </Position>
            <AltitudeMeters>1174.5999755859375</AltitudeMeters>
            <DistanceMeters>NAN</DistanceMeters>
          </Trackpoint>
          <Trackpoint>
            <Time>2018-12-30T14:28:10.000Z</Time>
            <Position>
              <LatitudeDegrees>40.73741792701184749603271484375</LatitudeDegrees>
              <LongitudeDegrees>-4.06647319905459880828857421875</LongitudeDegrees>
            </Position>
            <AltitudeMeters>1174.5999755859375</AltitudeMeters>
            <DistanceMeters>NAN</DistanceMeters>
          </Trackpoint>
          <Trackpoint>
            <Time>2018-12-30T14:28:11.000Z</Time>
            <Position>
              <LatitudeDegrees>40.73742949403822422027587890625</LatitudeDegrees>
              <LongitudeDegrees>-4.066461883485317230224609375</LongitudeDegrees>
            </Position>
            <AltitudeMeters>1174.5999755859375</AltitudeMeters>
            <DistanceMeters>NAN</DistanceMeters>
          </Trackpoint>
          <Trackpoint>
            <Time>2018-12-30T14:28:12.000Z</Time>
            <Position>
              <LatitudeDegrees>40.73744122870266437530517578125</LatitudeDegrees>
              <LongitudeDegrees>-4.0664483048021793365478515625</LongitudeDegrees>
            </Position>
            <AltitudeMeters>1174.5999755859375</AltitudeMeters>
            <DistanceMeters>NAN</DistanceMeters>
          </Trackpoint>
          <Trackpoint>
            <Time>2018-12-30T14:28:13.000Z</Time>
            <Position>
              <LatitudeDegrees>40.7374463416635990142822265625</LatitudeDegrees>
              <LongitudeDegrees>-4.06643380410969257354736328125</LongitudeDegrees>
            </Position>
            <AltitudeMeters>1174.5999755859375</AltitudeMeters>
            <DistanceMeters>NAN</DistanceMeters>
          </Trackpoint>
          <Trackpoint>
            <Time>2018-12-30T14:28:14.000Z</Time>
            <Position>
              <LatitudeDegrees>40.737454555928707122802734375</LatitudeDegrees>
              <LongitudeDegrees>-4.0664218179881572723388671875</LongitudeDegrees>
            </Position>
            <AltitudeMeters>1174.4000244140625</AltitudeMeters>
            <DistanceMeters>NAN</DistanceMeters>
          </Trackpoint>
          <Trackpoint>
            <Time>2018-12-30T14:28:15.000Z</Time>
            <Position>
              <LatitudeDegrees>40.737455897033214569091796875</LatitudeDegrees>
              <LongitudeDegrees>-4.0664137713611125946044921875</LongitudeDegrees>
            </Position>
            <AltitudeMeters>1174.199951171875</AltitudeMeters>
            <DistanceMeters>NAN</DistanceMeters>
          </Trackpoint>
          <Trackpoint>
            <Time>2018-12-30T14:28:16.000Z</Time>
            <Position>
              <LatitudeDegrees>40.7374584116041660308837890625</LatitudeDegrees>
              <LongitudeDegrees>-4.0664112567901611328125</LongitudeDegrees>
            </Position>
            <AltitudeMeters>1174</AltitudeMeters>
            <DistanceMeters>NAN</DistanceMeters>
          </Trackpoint>
          <Trackpoint>
            <Time>2018-12-30T14:28:17.000Z</Time>
            <Position>
              <LatitudeDegrees>40.73745883069932460784912109375</LatitudeDegrees>
              <LongitudeDegrees>-4.0664077363908290863037109375</LongitudeDegrees>
            </Position>
            <AltitudeMeters>1174</AltitudeMeters>
            <DistanceMeters>NAN</DistanceMeters>
          </Trackpoint>
          <Trackpoint>
            <Time>2018-12-30T14:28:18.000Z</Time>
            <Position>
              <LatitudeDegrees>40.73746025562286376953125</LatitudeDegrees>
              <LongitudeDegrees>-4.066400863230228424072265625</LongitudeDegrees>
            </Position>
            <AltitudeMeters>1174.199951171875</AltitudeMeters>
            <DistanceMeters>NAN</DistanceMeters>
          </Trackpoint>
          <Trackpoint>
            <Time>2018-12-30T14:28:19.000Z</Time>
            <Position>
              <LatitudeDegrees>40.737455897033214569091796875</LatitudeDegrees>
              <LongitudeDegrees>-4.06638602726161479949951171875</LongitudeDegrees>
            </Position>
            <AltitudeMeters>1174.199951171875</AltitudeMeters>
            <DistanceMeters>NAN</DistanceMeters>
          </Trackpoint>
          <Trackpoint>
            <Time>2018-12-30T14:28:20.000Z</Time>
            <Position>
              <LatitudeDegrees>40.73745313100516796112060546875</LatitudeDegrees>
              <LongitudeDegrees>-4.06638300977647304534912109375</LongitudeDegrees>
            </Position>
            <AltitudeMeters>1174.4000244140625</AltitudeMeters>
            <DistanceMeters>NAN</DistanceMeters>
          </Trackpoint>
          <Trackpoint>
            <Time>2018-12-30T14:28:21.000Z</Time>
            <Position>
              <LatitudeDegrees>40.7374553941190242767333984375</LatitudeDegrees>
              <LongitudeDegrees>-4.066383428871631622314453125</LongitudeDegrees>
            </Position>
            <AltitudeMeters>1174.800048828125</AltitudeMeters>
            <DistanceMeters>NAN</DistanceMeters>
          </Trackpoint>
          <Trackpoint>
            <Time>2018-12-30T14:28:22.000Z</Time>
            <Position>
              <LatitudeDegrees>40.73746503330767154693603515625</LatitudeDegrees>
              <LongitudeDegrees>-4.066382758319377899169921875</LongitudeDegrees>
            </Position>
            <AltitudeMeters>1175.199951171875</AltitudeMeters>
            <DistanceMeters>NAN</DistanceMeters>
          </Trackpoint>
          <Trackpoint>
            <Time>2018-12-30T14:28:23.000Z</Time>
            <Position>
              <LatitudeDegrees>40.73746117763221263885498046875</LatitudeDegrees>
              <LongitudeDegrees>-4.06638921238481998443603515625</LongitudeDegrees>
            </Position>
            <AltitudeMeters>1175.199951171875</AltitudeMeters>
            <DistanceMeters>NAN</DistanceMeters>
          </Trackpoint>
          <Trackpoint>
            <Time>2018-12-30T14:28:24.000Z</Time>
            <Position>
              <LatitudeDegrees>40.73745765723288059234619140625</LatitudeDegrees>
              <LongitudeDegrees>-4.06639021821320056915283203125</LongitudeDegrees>
            </Position>
            <AltitudeMeters>1175.4000244140625</AltitudeMeters>
            <DistanceMeters>NAN</DistanceMeters>
          </Trackpoint>
          <Trackpoint>
            <Time>2018-12-30T14:28:25.000Z</Time>
            <Position>
              <LatitudeDegrees>40.7374530471861362457275390625</LatitudeDegrees>
              <LongitudeDegrees>-4.06639306806027889251708984375</LongitudeDegrees>
            </Position>
            <AltitudeMeters>1175.4000244140625</AltitudeMeters>
            <DistanceMeters>NAN</DistanceMeters>
          </Trackpoint>
          <Trackpoint>
            <Time>2018-12-30T14:28:26.000Z</Time>
            <Position>
              <LatitudeDegrees>40.73745061643421649932861328125</LatitudeDegrees>
              <LongitudeDegrees>-4.06640010885894298553466796875</LongitudeDegrees>
            </Position>
            <AltitudeMeters>1175.4000244140625</AltitudeMeters>
            <DistanceMeters>NAN</DistanceMeters>
          </Trackpoint>
          <Trackpoint>
            <Time>2018-12-30T14:28:27.000Z</Time>
            <Position>
              <LatitudeDegrees>40.7374520413577556610107421875</LatitudeDegrees>
              <LongitudeDegrees>-4.0664043836295604705810546875</LongitudeDegrees>
            </Position>
            <AltitudeMeters>1175.4000244140625</AltitudeMeters>
            <DistanceMeters>NAN</DistanceMeters>
          </Trackpoint>
          <Trackpoint>
            <Time>2018-12-30T14:28:28.000Z</Time>
            <Position>
              <LatitudeDegrees>40.73745463974773883819580078125</LatitudeDegrees>
              <LongitudeDegrees>-4.06641335226595401763916015625</LongitudeDegrees>
            </Position>
            <AltitudeMeters>1175.4000244140625</AltitudeMeters>
            <DistanceMeters>NAN</DistanceMeters>
          </Trackpoint>
          <Trackpoint>
            <Time>2018-12-30T14:28:29.000Z</Time>
            <Position>
              <LatitudeDegrees>40.73745463974773883819580078125</LatitudeDegrees>
              <LongitudeDegrees>-4.06642575748264789581298828125</LongitudeDegrees>
            </Position>
            <AltitudeMeters>1175.199951171875</AltitudeMeters>
            <DistanceMeters>NAN</DistanceMeters>
          </Trackpoint>
          <Trackpoint>
            <Time>2018-12-30T14:28:30.000Z</Time>
            <Position>
              <LatitudeDegrees>40.73745313100516796112060546875</LatitudeDegrees>
              <LongitudeDegrees>-4.06643866561353206634521484375</LongitudeDegrees>
            </Position>
            <AltitudeMeters>1175.199951171875</AltitudeMeters>
            <DistanceMeters>NAN</DistanceMeters>
          </Trackpoint>
          <Trackpoint>
            <Time>2018-12-30T14:28:31.000Z</Time>
            <Position>
              <LatitudeDegrees>40.737454555928707122802734375</LatitudeDegrees>
              <LongitudeDegrees>-4.06644520349800586700439453125</LongitudeDegrees>
            </Position>
            <AltitudeMeters>1175.199951171875</AltitudeMeters>
            <DistanceMeters>NAN</DistanceMeters>
          </Trackpoint>
          <Trackpoint>
            <Time>2018-12-30T14:28:32.000Z</Time>
            <Position>
              <LatitudeDegrees>40.73745363391935825347900390625</LatitudeDegrees>
              <LongitudeDegrees>-4.06644989736378192901611328125</LongitudeDegrees>
            </Position>
            <AltitudeMeters>1175.199951171875</AltitudeMeters>
            <DistanceMeters>NAN</DistanceMeters>
          </Trackpoint>
          <Trackpoint>
            <Time>2018-12-30T14:28:33.000Z</Time>
            <Position>
              <LatitudeDegrees>40.73745648376643657684326171875</LatitudeDegrees>
              <LongitudeDegrees>-4.06645660288631916046142578125</LongitudeDegrees>
            </Position>
            <AltitudeMeters>1175.199951171875</AltitudeMeters>
            <DistanceMeters>NAN</DistanceMeters>
          </Trackpoint>
          <Trackpoint>
            <Time>2018-12-30T14:28:34.000Z</Time>
            <Position>
              <LatitudeDegrees>40.7374642789363861083984375</LatitudeDegrees>
              <LongitudeDegrees>-4.0664560161530971527099609375</LongitudeDegrees>
            </Position>
            <AltitudeMeters>1175.199951171875</AltitudeMeters>
            <DistanceMeters>NAN</DistanceMeters>
          </Trackpoint>
          <Trackpoint>
            <Time>2018-12-30T14:28:35.000Z</Time>
            <Position>
              <LatitudeDegrees>40.737476013600826263427734375</LatitudeDegrees>
              <LongitudeDegrees>-4.06644545495510101318359375</LongitudeDegrees>
            </Position>
            <AltitudeMeters>1175.199951171875</AltitudeMeters>
            <DistanceMeters>NAN</DistanceMeters>
          </Trackpoint>
          <Trackpoint>
            <Time>2018-12-30T14:28:36.000Z</Time>
            <Position>
              <LatitudeDegrees>40.7374828867614269256591796875</LatitudeDegrees>
              <LongitudeDegrees>-4.066445119678974151611328125</LongitudeDegrees>
            </Position>
            <AltitudeMeters>1175.199951171875</AltitudeMeters>
            <DistanceMeters>NAN</DistanceMeters>
          </Trackpoint>
          <Trackpoint>
            <Time>2018-12-30T14:28:37.000Z</Time>
            <Position>
              <LatitudeDegrees>40.73748565278947353363037109375</LatitudeDegrees>
              <LongitudeDegrees>-4.06644403003156185150146484375</LongitudeDegrees>
            </Position>
            <AltitudeMeters>1175.199951171875</AltitudeMeters>
            <DistanceMeters>NAN</DistanceMeters>
          </Trackpoint>
          <Trackpoint>
            <Time>2018-12-30T14:28:38.000Z</Time>
            <Position>
              <LatitudeDegrees>40.7374879159033298492431640625</LatitudeDegrees>
              <LongitudeDegrees>-4.06643983907997608184814453125</LongitudeDegrees>
            </Position>
            <AltitudeMeters>1175.4000244140625</AltitudeMeters>
            <DistanceMeters>NAN</DistanceMeters>
          </Trackpoint>
          <Trackpoint>
            <Time>2018-12-30T14:28:39.000Z</Time>
            <Position>
              <LatitudeDegrees>40.737480036914348602294921875</LatitudeDegrees>
              <LongitudeDegrees>-4.0664409287273883819580078125</LongitudeDegrees>
            </Position>
            <AltitudeMeters>1175.4000244140625</AltitudeMeters>
            <DistanceMeters>NAN</DistanceMeters>
          </Trackpoint>
          <Trackpoint>
            <Time>2018-12-30T14:28:40.000Z</Time>
            <Position>
              <LatitudeDegrees>40.73746704496443271636962890625</LatitudeDegrees>
              <LongitudeDegrees>-4.06645878218114376068115234375</LongitudeDegrees>
            </Position>
            <AltitudeMeters>1175.4000244140625</AltitudeMeters>
            <DistanceMeters>NAN</DistanceMeters>
          </Trackpoint>
          <Trackpoint>
            <Time>2018-12-30T14:28:41.000Z</Time>
            <Position>
              <LatitudeDegrees>40.737445838749408721923828125</LatitudeDegrees>
              <LongitudeDegrees>-4.06647227704524993896484375</LongitudeDegrees>
            </Position>
            <AltitudeMeters>1175.4000244140625</AltitudeMeters>
            <DistanceMeters>NAN</DistanceMeters>
          </Trackpoint>
          <Trackpoint>
            <Time>2018-12-30T14:28:42.000Z</Time>
            <Position>
              <LatitudeDegrees>40.73743117041885852813720703125</LatitudeDegrees>
              <LongitudeDegrees>-4.0664861910045146942138671875</LongitudeDegrees>
            </Position>
            <AltitudeMeters>1175.4000244140625</AltitudeMeters>
            <DistanceMeters>NAN</DistanceMeters>
          </Trackpoint>
          <Trackpoint>
            <Time>2018-12-30T14:28:43.000Z</Time>
            <Position>
              <LatitudeDegrees>40.7374294102191925048828125</LatitudeDegrees>
              <LongitudeDegrees>-4.06647789292037487030029296875</LongitudeDegrees>
            </Position>
            <AltitudeMeters>1175.199951171875</AltitudeMeters>
            <DistanceMeters>NAN</DistanceMeters>
          </Trackpoint>
          <Trackpoint>
            <Time>2018-12-30T14:28:44.000Z</Time>
            <Position>
              <LatitudeDegrees>40.73742966167628765106201171875</LatitudeDegrees>
              <LongitudeDegrees>-4.066457860171794891357421875</LongitudeDegrees>
            </Position>
            <AltitudeMeters>1175.199951171875</AltitudeMeters>
            <DistanceMeters>NAN</DistanceMeters>
          </Trackpoint>
          <Trackpoint>
            <Time>2018-12-30T14:28:45.000Z</Time>
            <Position>
              <LatitudeDegrees>40.737431757152080535888671875</LatitudeDegrees>
              <LongitudeDegrees>-4.06643413938581943511962890625</LongitudeDegrees>
            </Position>
            <AltitudeMeters>1175.4000244140625</AltitudeMeters>
            <DistanceMeters>NAN</DistanceMeters>
          </Trackpoint>
          <Trackpoint>
            <Time>2018-12-30T14:28:46.000Z</Time>
            <Position>
              <LatitudeDegrees>40.7374356128275394439697265625</LatitudeDegrees>
              <LongitudeDegrees>-4.0664147771894931793212890625</LongitudeDegrees>
            </Position>
            <AltitudeMeters>1175.4000244140625</AltitudeMeters>
            <DistanceMeters>NAN</DistanceMeters>
          </Trackpoint>
          <Trackpoint>
            <Time>2018-12-30T14:28:47.000Z</Time>
            <Position>
              <LatitudeDegrees>40.73744290508329868316650390625</LatitudeDegrees>
              <LongitudeDegrees>-4.0663970075547695159912109375</LongitudeDegrees>
            </Position>
            <AltitudeMeters>1175.4000244140625</AltitudeMeters>
            <DistanceMeters>NAN</DistanceMeters>
          </Trackpoint>
          <Trackpoint>
            <Time>2018-12-30T14:28:48.000Z</Time>
            <Position>
              <LatitudeDegrees>40.73744592256844043731689453125</LatitudeDegrees>
              <LongitudeDegrees>-4.0663778968155384063720703125</LongitudeDegrees>
            </Position>
            <AltitudeMeters>1175.4000244140625</AltitudeMeters>
            <DistanceMeters>NAN</DistanceMeters>
          </Trackpoint>
          <Trackpoint>
            <Time>2018-12-30T14:28:49.000Z</Time>
            <Position>
              <LatitudeDegrees>40.737449862062931060791015625</LatitudeDegrees>
              <LongitudeDegrees>-4.06636230647563934326171875</LongitudeDegrees>
            </Position>
            <AltitudeMeters>1175.4000244140625</AltitudeMeters>
            <DistanceMeters>NAN</DistanceMeters>
          </Trackpoint>
          <Trackpoint>
            <Time>2018-12-30T14:28:50.000Z</Time>
            <Position>
              <LatitudeDegrees>40.7374530471861362457275390625</LatitudeDegrees>
              <LongitudeDegrees>-4.06635082326829433441162109375</LongitudeDegrees>
            </Position>
            <AltitudeMeters>1175.4000244140625</AltitudeMeters>
            <DistanceMeters>NAN</DistanceMeters>
          </Trackpoint>
          <Trackpoint>
            <Time>2018-12-30T14:28:51.000Z</Time>
            <Position>
              <LatitudeDegrees>40.737455897033214569091796875</LatitudeDegrees>
              <LongitudeDegrees>-4.066333472728729248046875</LongitudeDegrees>
            </Position>
            <AltitudeMeters>1175.4000244140625</AltitudeMeters>
            <DistanceMeters>NAN</DistanceMeters>
          </Trackpoint>
          <Trackpoint>
            <Time>2018-12-30T14:28:52.000Z</Time>
            <Position>
              <LatitudeDegrees>40.7374600879848003387451171875</LatitudeDegrees>
              <LongitudeDegrees>-4.06631763093173503875732421875</LongitudeDegrees>
            </Position>
            <AltitudeMeters>1175.4000244140625</AltitudeMeters>
            <DistanceMeters>NAN</DistanceMeters>
          </Trackpoint>
          <Trackpoint>
            <Time>2018-12-30T14:28:53.000Z</Time>
            <Position>
              <LatitudeDegrees>40.73746620677411556243896484375</LatitudeDegrees>
              <LongitudeDegrees>-4.066306650638580322265625</LongitudeDegrees>
            </Position>
            <AltitudeMeters>1175.4000244140625</AltitudeMeters>
            <DistanceMeters>NAN</DistanceMeters>
          </Trackpoint>
          <Trackpoint>
            <Time>2018-12-30T14:28:54.000Z</Time>
            <Position>
              <LatitudeDegrees>40.73747106827795505523681640625</LatitudeDegrees>
              <LongitudeDegrees>-4.06629256904125213623046875</LongitudeDegrees>
            </Position>
            <AltitudeMeters>1175.4000244140625</AltitudeMeters>
            <DistanceMeters>NAN</DistanceMeters>
          </Trackpoint>
          <Trackpoint>
            <Time>2018-12-30T14:28:55.000Z</Time>
            <Position>
              <LatitudeDegrees>40.7374761812388896942138671875</LatitudeDegrees>
              <LongitudeDegrees>-4.06628049910068511962890625</LongitudeDegrees>
            </Position>
            <AltitudeMeters>1175.4000244140625</AltitudeMeters>
            <DistanceMeters>NAN</DistanceMeters>
          </Trackpoint>
          <Trackpoint>
            <Time>2018-12-30T14:28:56.000Z</Time>
            <Position>
              <LatitudeDegrees>40.73747945018112659454345703125</LatitudeDegrees>
              <LongitudeDegrees>-4.06627102755010128021240234375</LongitudeDegrees>
            </Position>
            <AltitudeMeters>1175.4000244140625</AltitudeMeters>
            <DistanceMeters>NAN</DistanceMeters>
          </Trackpoint>
          <Trackpoint>
            <Time>2018-12-30T14:28:57.000Z</Time>
            <Position>
              <LatitudeDegrees>40.7374822162091732025146484375</LatitudeDegrees>
              <LongitudeDegrees>-4.06625996343791484832763671875</LongitudeDegrees>
            </Position>
            <AltitudeMeters>1175.4000244140625</AltitudeMeters>
            <DistanceMeters>NAN</DistanceMeters>
          </Trackpoint>
          <Trackpoint>
            <Time>2018-12-30T14:28:58.000Z</Time>
            <Position>
              <LatitudeDegrees>40.73748447932302951812744140625</LatitudeDegrees>
              <LongitudeDegrees>-4.066246636211872100830078125</LongitudeDegrees>
            </Position>
            <AltitudeMeters>1175.4000244140625</AltitudeMeters>
            <DistanceMeters>NAN</DistanceMeters>
          </Trackpoint>
          <Trackpoint>
            <Time>2018-12-30T14:28:59.000Z</Time>
            <Position>
              <LatitudeDegrees>40.73748498223721981048583984375</LatitudeDegrees>
              <LongitudeDegrees>-4.06623481772840023040771484375</LongitudeDegrees>
            </Position>
            <AltitudeMeters>1175.4000244140625</AltitudeMeters>
            <DistanceMeters>NAN</DistanceMeters>
          </Trackpoint>
          <Trackpoint>
            <Time>2018-12-30T14:29:00.000Z</Time>
            <Position>
              <LatitudeDegrees>40.73748632334172725677490234375</LatitudeDegrees>
              <LongitudeDegrees>-4.06622526235878467559814453125</LongitudeDegrees>
            </Position>
            <AltitudeMeters>1175.199951171875</AltitudeMeters>
            <DistanceMeters>NAN</DistanceMeters>
          </Trackpoint>
          <Trackpoint>
            <Time>2018-12-30T14:29:01.000Z</Time>
            <Position>
              <LatitudeDegrees>40.737486742436885833740234375</LatitudeDegrees>
              <LongitudeDegrees>-4.06622090376913547515869140625</LongitudeDegrees>
            </Position>
            <AltitudeMeters>1175.199951171875</AltitudeMeters>
            <DistanceMeters>NAN</DistanceMeters>
          </Trackpoint>
          <Trackpoint>
            <Time>2018-12-30T14:29:02.000Z</Time>
            <Position>
              <LatitudeDegrees>40.73748984374105930328369140625</LatitudeDegrees>
              <LongitudeDegrees>-4.0662169642746448516845703125</LongitudeDegrees>
            </Position>
            <AltitudeMeters>1175.199951171875</AltitudeMeters>
            <DistanceMeters>NAN</DistanceMeters>
          </Trackpoint>
          <Trackpoint>
            <Time>2018-12-30T14:29:03.000Z</Time>
            <Position>
              <LatitudeDegrees>40.73749604634940624237060546875</LatitudeDegrees>
              <LongitudeDegrees>-4.06621553935110569000244140625</LongitudeDegrees>
            </Position>
            <AltitudeMeters>1175.199951171875</AltitudeMeters>
            <DistanceMeters>NAN</DistanceMeters>
          </Trackpoint>
          <Trackpoint>
            <Time>2018-12-30T14:29:04.000Z</Time>
            <Position>
              <LatitudeDegrees>40.737500153481960296630859375</LatitudeDegrees>
              <LongitudeDegrees>-4.066215455532073974609375</LongitudeDegrees>
            </Position>
            <AltitudeMeters>1175.199951171875</AltitudeMeters>
            <DistanceMeters>NAN</DistanceMeters>
          </Trackpoint>
          <Trackpoint>
            <Time>2018-12-30T14:29:05.000Z</Time>
            <Position>
              <LatitudeDegrees>40.73749856092035770416259765625</LatitudeDegrees>
              <LongitudeDegrees>-4.0662139467895030975341796875</LongitudeDegrees>
            </Position>
            <AltitudeMeters>1175.199951171875</AltitudeMeters>
            <DistanceMeters>NAN</DistanceMeters>
          </Trackpoint>
          <Trackpoint>
            <Time>2018-12-30T14:29:06.000Z</Time>
            <Position>
              <LatitudeDegrees>40.73749688453972339630126953125</LatitudeDegrees>
              <LongitudeDegrees>-4.06621134839951992034912109375</LongitudeDegrees>
            </Position>
            <AltitudeMeters>1175.199951171875</AltitudeMeters>
            <DistanceMeters>NAN</DistanceMeters>
          </Trackpoint>
          <Trackpoint>
            <Time>2018-12-30T14:29:07.000Z</Time>
            <Position>
              <LatitudeDegrees>40.73749889619648456573486328125</LatitudeDegrees>
              <LongitudeDegrees>-4.0662055648863315582275390625</LongitudeDegrees>
            </Position>
            <AltitudeMeters>1175.4000244140625</AltitudeMeters>
            <DistanceMeters>NAN</DistanceMeters>
          </Trackpoint>
          <Trackpoint>
            <Time>2018-12-30T14:29:08.000Z</Time>
            <Position>
              <LatitudeDegrees>40.7375019975006580352783203125</LatitudeDegrees>
              <LongitudeDegrees>-4.06620204448699951171875</LongitudeDegrees>
            </Position>
            <AltitudeMeters>1175.5999755859375</AltitudeMeters>
            <DistanceMeters>NAN</DistanceMeters>
          </Trackpoint>
          <Trackpoint>
            <Time>2018-12-30T14:29:09.000Z</Time>
            <Position>
              <LatitudeDegrees>40.73750317096710205078125</LatitudeDegrees>
              <LongitudeDegrees>-4.06620179302990436553955078125</LongitudeDegrees>
            </Position>
            <AltitudeMeters>1175.800048828125</AltitudeMeters>
            <DistanceMeters>NAN</DistanceMeters>
          </Trackpoint>
          <Trackpoint>
            <Time>2018-12-30T14:29:10.000Z</Time>
            <Position>
              <LatitudeDegrees>40.7375046797096729278564453125</LatitudeDegrees>
              <LongitudeDegrees>-4.06619860790669918060302734375</LongitudeDegrees>
            </Position>
            <AltitudeMeters>1175.800048828125</AltitudeMeters>
            <DistanceMeters>NAN</DistanceMeters>
          </Trackpoint>
          <Trackpoint>
            <Time>2018-12-30T14:29:11.000Z</Time>
            <Position>
              <LatitudeDegrees>40.73750828392803668975830078125</LatitudeDegrees>
              <LongitudeDegrees>-4.06619139946997165679931640625</LongitudeDegrees>
            </Position>
            <AltitudeMeters>1175.5999755859375</AltitudeMeters>
            <DistanceMeters>NAN</DistanceMeters>
          </Trackpoint>
          <Trackpoint>
            <Time>2018-12-30T14:29:12.000Z</Time>
            <Position>
              <LatitudeDegrees>40.73751247487962245941162109375</LatitudeDegrees>
              <LongitudeDegrees>-4.06618335284292697906494140625</LongitudeDegrees>
            </Position>
            <AltitudeMeters>1175.4000244140625</AltitudeMeters>
            <DistanceMeters>NAN</DistanceMeters>
          </Trackpoint>
          <Trackpoint>
            <Time>2018-12-30T14:29:13.000Z</Time>
            <Position>
              <LatitudeDegrees>40.73751457035541534423828125</LatitudeDegrees>
              <LongitudeDegrees>-4.0661784075200557708740234375</LongitudeDegrees>
            </Position>
            <AltitudeMeters>1175.4000244140625</AltitudeMeters>
            <DistanceMeters>NAN</DistanceMeters>
          </Trackpoint>
          <Trackpoint>
            <Time>2018-12-30T14:29:14.000Z</Time>
            <Position>
              <LatitudeDegrees>40.73751859366893768310546875</LatitudeDegrees>
              <LongitudeDegrees>-4.0661767311394214630126953125</LongitudeDegrees>
            </Position>
            <AltitudeMeters>1175.199951171875</AltitudeMeters>
            <DistanceMeters>NAN</DistanceMeters>
          </Trackpoint>
          <Trackpoint>
            <Time>2018-12-30T14:29:15.000Z</Time>
            <Position>
              <LatitudeDegrees>40.73752286843955516815185546875</LatitudeDegrees>
              <LongitudeDegrees>-4.06617949716746807098388671875</LongitudeDegrees>
            </Position>
            <AltitudeMeters>1175</AltitudeMeters>
            <DistanceMeters>NAN</DistanceMeters>
          </Trackpoint>
          <Trackpoint>
            <Time>2018-12-30T14:29:16.000Z</Time>
            <Position>
              <LatitudeDegrees>40.73752555064857006072998046875</LatitudeDegrees>
              <LongitudeDegrees>-4.06618318520486354827880859375</LongitudeDegrees>
            </Position>
            <AltitudeMeters>1174.800048828125</AltitudeMeters>
            <DistanceMeters>NAN</DistanceMeters>
          </Trackpoint>
          <Trackpoint>
            <Time>2018-12-30T14:29:17.000Z</Time>
            <Position>
              <LatitudeDegrees>40.73752840049564838409423828125</LatitudeDegrees>
              <LongitudeDegrees>-4.066185615956783294677734375</LongitudeDegrees>
            </Position>
            <AltitudeMeters>1174.5999755859375</AltitudeMeters>
            <DistanceMeters>NAN</DistanceMeters>
          </Trackpoint>
          <Trackpoint>
            <Time>2018-12-30T14:29:18.000Z</Time>
            <Position>
              <LatitudeDegrees>40.737526975572109222412109375</LatitudeDegrees>
              <LongitudeDegrees>-4.0661864541471004486083984375</LongitudeDegrees>
            </Position>
            <AltitudeMeters>1174.4000244140625</AltitudeMeters>
            <DistanceMeters>NAN</DistanceMeters>
          </Trackpoint>
          <Trackpoint>
            <Time>2018-12-30T14:29:19.000Z</Time>
            <Position>
              <LatitudeDegrees>40.73752555064857006072998046875</LatitudeDegrees>
              <LongitudeDegrees>-4.0661864541471004486083984375</LongitudeDegrees>
            </Position>
            <AltitudeMeters>1174.4000244140625</AltitudeMeters>
            <DistanceMeters>NAN</DistanceMeters>
          </Trackpoint>
          <Trackpoint>
            <Time>2018-12-30T14:29:20.000Z</Time>
            <Position>
              <LatitudeDegrees>40.7375286519527435302734375</LatitudeDegrees>
              <LongitudeDegrees>-4.0661874599754810333251953125</LongitudeDegrees>
            </Position>
            <AltitudeMeters>1174.4000244140625</AltitudeMeters>
            <DistanceMeters>NAN</DistanceMeters>
          </Trackpoint>
          <Trackpoint>
            <Time>2018-12-30T14:29:21.000Z</Time>
            <Position>
              <LatitudeDegrees>40.7375271432101726531982421875</LatitudeDegrees>
              <LongitudeDegrees>-4.06618720851838588714599609375</LongitudeDegrees>
            </Position>
            <AltitudeMeters>1174.4000244140625</AltitudeMeters>
            <DistanceMeters>NAN</DistanceMeters>
          </Trackpoint>
          <Trackpoint>
            <Time>2018-12-30T14:29:22.000Z</Time>
            <Position>
              <LatitudeDegrees>40.73752353899180889129638671875</LatitudeDegrees>
              <LongitudeDegrees>-4.06618787907063961029052734375</LongitudeDegrees>
            </Position>
            <AltitudeMeters>1174.4000244140625</AltitudeMeters>
            <DistanceMeters>NAN</DistanceMeters>
          </Trackpoint>
          <Trackpoint>
            <Time>2018-12-30T14:29:23.000Z</Time>
            <Position>
              <LatitudeDegrees>40.73752152733504772186279296875</LatitudeDegrees>
              <LongitudeDegrees>-4.0661908127367496490478515625</LongitudeDegrees>
            </Position>
            <AltitudeMeters>1174.5999755859375</AltitudeMeters>
            <DistanceMeters>NAN</DistanceMeters>
          </Trackpoint>
          <Trackpoint>
            <Time>2018-12-30T14:29:24.000Z</Time>
            <Position>
              <LatitudeDegrees>40.73752286843955516815185546875</LatitudeDegrees>
              <LongitudeDegrees>-4.0661926567554473876953125</LongitudeDegrees>
            </Position>
            <AltitudeMeters>1174.5999755859375</AltitudeMeters>
            <DistanceMeters>NAN</DistanceMeters>
          </Trackpoint>
          <Trackpoint>
            <Time>2018-12-30T14:29:25.000Z</Time>
            <Position>
              <LatitudeDegrees>40.7375234551727771759033203125</LatitudeDegrees>
              <LongitudeDegrees>-4.06619139946997165679931640625</LongitudeDegrees>
            </Position>
            <AltitudeMeters>1174.5999755859375</AltitudeMeters>
            <DistanceMeters>NAN</DistanceMeters>
          </Trackpoint>
          <Trackpoint>
            <Time>2018-12-30T14:29:26.000Z</Time>
            <Position>
              <LatitudeDegrees>40.737519599497318267822265625</LatitudeDegrees>
              <LongitudeDegrees>-4.06618486158549785614013671875</LongitudeDegrees>
            </Position>
            <AltitudeMeters>1174.5999755859375</AltitudeMeters>
            <DistanceMeters>NAN</DistanceMeters>
          </Trackpoint>
          <Trackpoint>
            <Time>2018-12-30T14:29:27.000Z</Time>
            <Position>
              <LatitudeDegrees>40.737518928945064544677734375</LatitudeDegrees>
              <LongitudeDegrees>-4.0661846101284027099609375</LongitudeDegrees>
            </Position>
            <AltitudeMeters>1174.5999755859375</AltitudeMeters>
            <DistanceMeters>NAN</DistanceMeters>
          </Trackpoint>
          <Trackpoint>
            <Time>2018-12-30T14:29:28.000Z</Time>
            <Position>
              <LatitudeDegrees>40.7375207729637622833251953125</LatitudeDegrees>
              <LongitudeDegrees>-4.0661864541471004486083984375</LongitudeDegrees>
            </Position>
            <AltitudeMeters>1174.5999755859375</AltitudeMeters>
            <DistanceMeters>NAN</DistanceMeters>
          </Trackpoint>
          <Trackpoint>
            <Time>2018-12-30T14:29:29.000Z</Time>
            <Position>
              <LatitudeDegrees>40.73751901276409626007080078125</LatitudeDegrees>
              <LongitudeDegrees>-4.06618519686162471771240234375</LongitudeDegrees>
            </Position>
            <AltitudeMeters>1174.5999755859375</AltitudeMeters>
            <DistanceMeters>NAN</DistanceMeters>
          </Trackpoint>
          <Trackpoint>
            <Time>2018-12-30T14:29:30.000Z</Time>
            <Position>
              <LatitudeDegrees>40.7375395484268665313720703125</LatitudeDegrees>
              <LongitudeDegrees>-4.06615099869668483734130859375</LongitudeDegrees>
            </Position>
            <AltitudeMeters>1174.5999755859375</AltitudeMeters>
            <DistanceMeters>NAN</DistanceMeters>
          </Trackpoint>
          <Trackpoint>
            <Time>2018-12-30T14:29:31.000Z</Time>
            <Position>
              <LatitudeDegrees>40.737539045512676239013671875</LatitudeDegrees>
              <LongitudeDegrees>-4.066142030060291290283203125</LongitudeDegrees>
            </Position>
            <AltitudeMeters>1174.5999755859375</AltitudeMeters>
            <DistanceMeters>NAN</DistanceMeters>
          </Trackpoint>
          <Trackpoint>
            <Time>2018-12-30T14:29:32.000Z</Time>
            <Position>
              <LatitudeDegrees>40.73753611184656620025634765625</LatitudeDegrees>
              <LongitudeDegrees>-4.066135995090007781982421875</LongitudeDegrees>
            </Position>
            <AltitudeMeters>1174.5999755859375</AltitudeMeters>
            <DistanceMeters>NAN</DistanceMeters>
          </Trackpoint>
          <Trackpoint>
            <Time>2018-12-30T14:29:33.000Z</Time>
            <Position>
              <LatitudeDegrees>40.73753535747528076171875</LatitudeDegrees>
              <LongitudeDegrees>-4.06613473780453205108642578125</LongitudeDegrees>
            </Position>
            <AltitudeMeters>1174.5999755859375</AltitudeMeters>
            <DistanceMeters>NAN</DistanceMeters>
          </Trackpoint>
        </Track>
      </Lap>
    </Activity>
  </Activities>
</TrainingCenterDatabase>
